<?xml version="1.0" encoding="UTF-8" standalone="no" ?>
<gpx xmlns="http://www.topografix.com/GPX/1/1" xmlns:xsi="http://www.w3.org/2001/XMLSchema-instance" xsi:schemaLocation="http://www.topografix.com/GPX/1/1 http://www.topografix.com/GPX/1/1/gpx.xsd" version="1.1" creator="VisuGPX - https://www.visugpx.com">
  <metadata>
    <name>41 Genève_Turin_Lucca 2016</name>
  </metadata>
  <trk>
    <name><![CDATA[(41) 2016 Genève_Turin_Lucca]]></name>
    <trkseg>
      <trkpt lat="46.21166" lon="6.14357">
        <ele>397.16</ele>
        <time>2016-10-03T06:50:22Z</time>
      </trkpt>
      <trkpt lat="46.21166" lon="6.14357">
        <ele>397.16</ele>
        <time>2016-10-03T06:50:23Z</time>
      </trkpt>
      <trkpt lat="46.21169" lon="6.14369">
        <ele>396.2</ele>
        <time>2016-10-03T06:50:48Z</time>
      </trkpt>
      <trkpt lat="46.21156" lon="6.14367">
        <ele>396.68</ele>
        <time>2016-10-03T06:51:04Z</time>
      </trkpt>
      <trkpt lat="46.2115" lon="6.14355">
        <ele>396.68</ele>
        <time>2016-10-03T06:51:17Z</time>
      </trkpt>
      <trkpt lat="46.21143" lon="6.14348">
        <ele>396.68</ele>
        <time>2016-10-03T06:51:23Z</time>
      </trkpt>
      <trkpt lat="46.21121" lon="6.14326">
        <ele>396.2</ele>
        <time>2016-10-03T06:51:40Z</time>
      </trkpt>
      <trkpt lat="46.21105" lon="6.14317">
        <ele>396.2</ele>
        <time>2016-10-03T06:51:54Z</time>
      </trkpt>
      <trkpt lat="46.21094" lon="6.14307">
        <ele>396.2</ele>
        <time>2016-10-03T06:52:10Z</time>
      </trkpt>
      <trkpt lat="46.21083" lon="6.14298">
        <ele>396.2</ele>
        <time>2016-10-03T06:52:21Z</time>
      </trkpt>
      <trkpt lat="46.21063" lon="6.14275">
        <ele>393.32</ele>
        <time>2016-10-03T06:52:36Z</time>
      </trkpt>
      <trkpt lat="46.21063" lon="6.14274">
        <ele>391.87</ele>
        <time>2016-10-03T06:52:56Z</time>
      </trkpt>
      <trkpt lat="46.21109" lon="6.14201">
        <ele>390.91</ele>
        <time>2016-10-03T06:54:30Z</time>
      </trkpt>
      <trkpt lat="46.21105" lon="6.14197">
        <ele>390.91</ele>
        <time>2016-10-03T06:54:32Z</time>
      </trkpt>
      <trkpt lat="46.21102" lon="6.14192">
        <ele>391.87</ele>
        <time>2016-10-03T06:54:42Z</time>
      </trkpt>
      <trkpt lat="46.21096" lon="6.1419">
        <ele>391.87</ele>
        <time>2016-10-03T06:54:49Z</time>
      </trkpt>
      <trkpt lat="46.21087" lon="6.14185">
        <ele>390.43</ele>
        <time>2016-10-03T06:55:02Z</time>
      </trkpt>
      <trkpt lat="46.21082" lon="6.14183">
        <ele>391.87</ele>
        <time>2016-10-03T06:55:40Z</time>
      </trkpt>
      <trkpt lat="46.21081" lon="6.14181">
        <ele>391.87</ele>
        <time>2016-10-03T06:55:53Z</time>
      </trkpt>
      <trkpt lat="46.21073" lon="6.14166">
        <ele>391.87</ele>
        <time>2016-10-03T06:56:06Z</time>
      </trkpt>
      <trkpt lat="46.21075" lon="6.1416">
        <ele>390.91</ele>
        <time>2016-10-03T06:56:37Z</time>
      </trkpt>
      <trkpt lat="46.21059" lon="6.14139">
        <ele>390.43</ele>
        <time>2016-10-03T06:56:51Z</time>
      </trkpt>
      <trkpt lat="46.21028" lon="6.14109">
        <ele>389.95</ele>
        <time>2016-10-03T06:57:02Z</time>
      </trkpt>
      <trkpt lat="46.21025" lon="6.14106">
        <ele>389.47</ele>
        <time>2016-10-03T06:57:06Z</time>
      </trkpt>
      <trkpt lat="46.21002" lon="6.14108">
        <ele>388.99</ele>
        <time>2016-10-03T06:57:15Z</time>
      </trkpt>
      <trkpt lat="46.20952" lon="6.14167">
        <ele>388.03</ele>
        <time>2016-10-03T06:57:33Z</time>
      </trkpt>
      <trkpt lat="46.20939" lon="6.14194">
        <ele>388.03</ele>
        <time>2016-10-03T06:57:40Z</time>
      </trkpt>
      <trkpt lat="46.20912" lon="6.14163">
        <ele>387.55</ele>
        <time>2016-10-03T06:57:52Z</time>
      </trkpt>
      <trkpt lat="46.2088" lon="6.14123">
        <ele>388.03</ele>
        <time>2016-10-03T06:58:04Z</time>
      </trkpt>
      <trkpt lat="46.20877" lon="6.1412">
        <ele>387.55</ele>
        <time>2016-10-03T06:58:06Z</time>
      </trkpt>
      <trkpt lat="46.20876" lon="6.14119">
        <ele>387.55</ele>
        <time>2016-10-03T06:58:07Z</time>
      </trkpt>
      <trkpt lat="46.20869" lon="6.14115">
        <ele>387.55</ele>
        <time>2016-10-03T06:58:21Z</time>
      </trkpt>
      <trkpt lat="46.20865" lon="6.14114">
        <ele>387.55</ele>
        <time>2016-10-03T06:58:41Z</time>
      </trkpt>
      <trkpt lat="46.20848" lon="6.14091">
        <ele>388.03</ele>
        <time>2016-10-03T06:58:51Z</time>
      </trkpt>
      <trkpt lat="46.20848" lon="6.14089">
        <ele>388.51</ele>
        <time>2016-10-03T06:58:52Z</time>
      </trkpt>
      <trkpt lat="46.20843" lon="6.14091">
        <ele>387.07</ele>
        <time>2016-10-03T06:58:59Z</time>
      </trkpt>
      <trkpt lat="46.20843" lon="6.14093">
        <ele>387.55</ele>
        <time>2016-10-03T06:59:00Z</time>
      </trkpt>
      <trkpt lat="46.20844" lon="6.14095">
        <ele>387.55</ele>
        <time>2016-10-03T06:59:01Z</time>
      </trkpt>
      <trkpt lat="46.20846" lon="6.14101">
        <ele>386.59</ele>
        <time>2016-10-03T06:59:03Z</time>
      </trkpt>
      <trkpt lat="46.20847" lon="6.14105">
        <ele>387.07</ele>
        <time>2016-10-03T06:59:04Z</time>
      </trkpt>
      <trkpt lat="46.20847" lon="6.14109">
        <ele>387.55</ele>
        <time>2016-10-03T06:59:05Z</time>
      </trkpt>
      <trkpt lat="46.20848" lon="6.14113">
        <ele>387.07</ele>
        <time>2016-10-03T06:59:06Z</time>
      </trkpt>
      <trkpt lat="46.20848" lon="6.14117">
        <ele>387.55</ele>
        <time>2016-10-03T06:59:07Z</time>
      </trkpt>
      <trkpt lat="46.20848" lon="6.14121">
        <ele>387.07</ele>
        <time>2016-10-03T06:59:08Z</time>
      </trkpt>
      <trkpt lat="46.20847" lon="6.14126">
        <ele>386.59</ele>
        <time>2016-10-03T06:59:09Z</time>
      </trkpt>
      <trkpt lat="46.20845" lon="6.1413">
        <ele>387.07</ele>
        <time>2016-10-03T06:59:10Z</time>
      </trkpt>
      <trkpt lat="46.20844" lon="6.14135">
        <ele>387.07</ele>
        <time>2016-10-03T06:59:11Z</time>
      </trkpt>
      <trkpt lat="46.20833" lon="6.14185">
        <ele>386.11</ele>
        <time>2016-10-03T06:59:22Z</time>
      </trkpt>
      <trkpt lat="46.20825" lon="6.14218">
        <ele>384.66</ele>
        <time>2016-10-03T06:59:29Z</time>
      </trkpt>
      <trkpt lat="46.20818" lon="6.14225">
        <ele>384.66</ele>
        <time>2016-10-03T06:59:31Z</time>
      </trkpt>
      <trkpt lat="46.20816" lon="6.1423">
        <ele>385.15</ele>
        <time>2016-10-03T06:59:32Z</time>
      </trkpt>
      <trkpt lat="46.20814" lon="6.14233">
        <ele>385.15</ele>
        <time>2016-10-03T06:59:33Z</time>
      </trkpt>
      <trkpt lat="46.20808" lon="6.14236">
        <ele>385.15</ele>
        <time>2016-10-03T06:59:35Z</time>
      </trkpt>
      <trkpt lat="46.20805" lon="6.14237">
        <ele>384.66</ele>
        <time>2016-10-03T06:59:36Z</time>
      </trkpt>
      <trkpt lat="46.20776" lon="6.14211">
        <ele>385.15</ele>
        <time>2016-10-03T06:59:46Z</time>
      </trkpt>
      <trkpt lat="46.20768" lon="6.14198">
        <ele>386.11</ele>
        <time>2016-10-03T06:59:49Z</time>
      </trkpt>
      <trkpt lat="46.20765" lon="6.14194">
        <ele>386.11</ele>
        <time>2016-10-03T06:59:50Z</time>
      </trkpt>
      <trkpt lat="46.20762" lon="6.1419">
        <ele>385.63</ele>
        <time>2016-10-03T06:59:51Z</time>
      </trkpt>
      <trkpt lat="46.2076" lon="6.14184">
        <ele>385.63</ele>
        <time>2016-10-03T06:59:52Z</time>
      </trkpt>
      <trkpt lat="46.20758" lon="6.14178">
        <ele>385.15</ele>
        <time>2016-10-03T06:59:53Z</time>
      </trkpt>
      <trkpt lat="46.20743" lon="6.1413">
        <ele>385.63</ele>
        <time>2016-10-03T07:00:04Z</time>
      </trkpt>
      <trkpt lat="46.20714" lon="6.14079">
        <ele>385.63</ele>
        <time>2016-10-03T07:00:18Z</time>
      </trkpt>
      <trkpt lat="46.20684" lon="6.14082">
        <ele>385.63</ele>
        <time>2016-10-03T07:00:25Z</time>
      </trkpt>
      <trkpt lat="46.20675" lon="6.14092">
        <ele>384.66</ele>
        <time>2016-10-03T07:00:26Z</time>
      </trkpt>
      <trkpt lat="46.20664" lon="6.14107">
        <ele>384.18</ele>
        <time>2016-10-03T07:00:27Z</time>
      </trkpt>
      <trkpt lat="46.20657" lon="6.14118">
        <ele>384.18</ele>
        <time>2016-10-03T07:00:28Z</time>
      </trkpt>
      <trkpt lat="46.2064" lon="6.14152">
        <ele>382.26</ele>
        <time>2016-10-03T07:00:32Z</time>
      </trkpt>
      <trkpt lat="46.2063" lon="6.14169">
        <ele>382.26</ele>
        <time>2016-10-03T07:00:35Z</time>
      </trkpt>
      <trkpt lat="46.20622" lon="6.14182">
        <ele>380.82</ele>
        <time>2016-10-03T07:00:37Z</time>
      </trkpt>
      <trkpt lat="46.20612" lon="6.142">
        <ele>378.9</ele>
        <time>2016-10-03T07:00:40Z</time>
      </trkpt>
      <trkpt lat="46.206" lon="6.14231">
        <ele>377.94</ele>
        <time>2016-10-03T07:00:47Z</time>
      </trkpt>
      <trkpt lat="46.20591" lon="6.14231">
        <ele>376.97</ele>
        <time>2016-10-03T07:00:50Z</time>
      </trkpt>
      <trkpt lat="46.20588" lon="6.1423">
        <ele>376.97</ele>
        <time>2016-10-03T07:00:51Z</time>
      </trkpt>
      <trkpt lat="46.20578" lon="6.14231">
        <ele>376.49</ele>
        <time>2016-10-03T07:00:55Z</time>
      </trkpt>
      <trkpt lat="46.20524" lon="6.14265">
        <ele>376.49</ele>
        <time>2016-10-03T07:01:06Z</time>
      </trkpt>
      <trkpt lat="46.20476" lon="6.14294">
        <ele>376.97</ele>
        <time>2016-10-03T07:01:21Z</time>
      </trkpt>
      <trkpt lat="46.20475" lon="6.14294">
        <ele>376.97</ele>
        <time>2016-10-03T07:01:22Z</time>
      </trkpt>
      <trkpt lat="46.20473" lon="6.14294">
        <ele>376.97</ele>
        <time>2016-10-03T07:01:23Z</time>
      </trkpt>
      <trkpt lat="46.20468" lon="6.14294">
        <ele>376.49</ele>
        <time>2016-10-03T07:01:25Z</time>
      </trkpt>
      <trkpt lat="46.20466" lon="6.14293">
        <ele>376.97</ele>
        <time>2016-10-03T07:01:26Z</time>
      </trkpt>
      <trkpt lat="46.20451" lon="6.14291">
        <ele>376.49</ele>
        <time>2016-10-03T07:01:31Z</time>
      </trkpt>
      <trkpt lat="46.20448" lon="6.14289">
        <ele>376.49</ele>
        <time>2016-10-03T07:01:32Z</time>
      </trkpt>
      <trkpt lat="46.20446" lon="6.14286">
        <ele>376.01</ele>
        <time>2016-10-03T07:01:33Z</time>
      </trkpt>
      <trkpt lat="46.20444" lon="6.14283">
        <ele>376.97</ele>
        <time>2016-10-03T07:01:34Z</time>
      </trkpt>
      <trkpt lat="46.20443" lon="6.14281">
        <ele>376.97</ele>
        <time>2016-10-03T07:01:35Z</time>
      </trkpt>
      <trkpt lat="46.20442" lon="6.14277">
        <ele>376.97</ele>
        <time>2016-10-03T07:01:36Z</time>
      </trkpt>
      <trkpt lat="46.20441" lon="6.14273">
        <ele>376.97</ele>
        <time>2016-10-03T07:01:37Z</time>
      </trkpt>
      <trkpt lat="46.2044" lon="6.14268">
        <ele>376.97</ele>
        <time>2016-10-03T07:01:38Z</time>
      </trkpt>
      <trkpt lat="46.20436" lon="6.14254">
        <ele>377.94</ele>
        <time>2016-10-03T07:01:48Z</time>
      </trkpt>
      <trkpt lat="46.20435" lon="6.14253">
        <ele>377.94</ele>
        <time>2016-10-03T07:01:58Z</time>
      </trkpt>
      <trkpt lat="46.20435" lon="6.14251">
        <ele>377.94</ele>
        <time>2016-10-03T07:01:59Z</time>
      </trkpt>
      <trkpt lat="46.20435" lon="6.14248">
        <ele>377.45</ele>
        <time>2016-10-03T07:02:00Z</time>
      </trkpt>
      <trkpt lat="46.20435" lon="6.14245">
        <ele>377.94</ele>
        <time>2016-10-03T07:02:01Z</time>
      </trkpt>
      <trkpt lat="46.20436" lon="6.14243">
        <ele>376.97</ele>
        <time>2016-10-03T07:02:02Z</time>
      </trkpt>
      <trkpt lat="46.20436" lon="6.1424">
        <ele>377.94</ele>
        <time>2016-10-03T07:02:03Z</time>
      </trkpt>
      <trkpt lat="46.20435" lon="6.14236">
        <ele>377.94</ele>
        <time>2016-10-03T07:02:04Z</time>
      </trkpt>
      <trkpt lat="46.20434" lon="6.14232">
        <ele>377.45</ele>
        <time>2016-10-03T07:02:05Z</time>
      </trkpt>
      <trkpt lat="46.20433" lon="6.14228">
        <ele>377.94</ele>
        <time>2016-10-03T07:02:06Z</time>
      </trkpt>
      <trkpt lat="46.20432" lon="6.14225">
        <ele>377.45</ele>
        <time>2016-10-03T07:02:07Z</time>
      </trkpt>
      <trkpt lat="46.20432" lon="6.14222">
        <ele>377.45</ele>
        <time>2016-10-03T07:02:08Z</time>
      </trkpt>
      <trkpt lat="46.20432" lon="6.14218">
        <ele>377.94</ele>
        <time>2016-10-03T07:02:09Z</time>
      </trkpt>
      <trkpt lat="46.20433" lon="6.14214">
        <ele>377.94</ele>
        <time>2016-10-03T07:02:10Z</time>
      </trkpt>
      <trkpt lat="46.20434" lon="6.14209">
        <ele>378.42</ele>
        <time>2016-10-03T07:02:11Z</time>
      </trkpt>
      <trkpt lat="46.20433" lon="6.14204">
        <ele>377.94</ele>
        <time>2016-10-03T07:02:12Z</time>
      </trkpt>
      <trkpt lat="46.20425" lon="6.14141">
        <ele>378.9</ele>
        <time>2016-10-03T07:02:23Z</time>
      </trkpt>
      <trkpt lat="46.2042" lon="6.14128">
        <ele>379.86</ele>
        <time>2016-10-03T07:02:26Z</time>
      </trkpt>
      <trkpt lat="46.20416" lon="6.14126">
        <ele>379.86</ele>
        <time>2016-10-03T07:02:27Z</time>
      </trkpt>
      <trkpt lat="46.20412" lon="6.14124">
        <ele>379.38</ele>
        <time>2016-10-03T07:02:28Z</time>
      </trkpt>
      <trkpt lat="46.20408" lon="6.14123">
        <ele>378.9</ele>
        <time>2016-10-03T07:02:29Z</time>
      </trkpt>
      <trkpt lat="46.20404" lon="6.14123">
        <ele>379.38</ele>
        <time>2016-10-03T07:02:30Z</time>
      </trkpt>
      <trkpt lat="46.20386" lon="6.14124">
        <ele>378.9</ele>
        <time>2016-10-03T07:02:36Z</time>
      </trkpt>
      <trkpt lat="46.2037" lon="6.14123">
        <ele>378.42</ele>
        <time>2016-10-03T07:02:39Z</time>
      </trkpt>
      <trkpt lat="46.20351" lon="6.14123">
        <ele>378.9</ele>
        <time>2016-10-03T07:02:43Z</time>
      </trkpt>
      <trkpt lat="46.20346" lon="6.14122">
        <ele>379.38</ele>
        <time>2016-10-03T07:02:44Z</time>
      </trkpt>
      <trkpt lat="46.2034" lon="6.14122">
        <ele>379.38</ele>
        <time>2016-10-03T07:02:45Z</time>
      </trkpt>
      <trkpt lat="46.20321" lon="6.14123">
        <ele>378.42</ele>
        <time>2016-10-03T07:02:49Z</time>
      </trkpt>
      <trkpt lat="46.20316" lon="6.14123">
        <ele>378.42</ele>
        <time>2016-10-03T07:02:50Z</time>
      </trkpt>
      <trkpt lat="46.20312" lon="6.14125">
        <ele>378.9</ele>
        <time>2016-10-03T07:02:51Z</time>
      </trkpt>
      <trkpt lat="46.20307" lon="6.14126">
        <ele>378.9</ele>
        <time>2016-10-03T07:02:52Z</time>
      </trkpt>
      <trkpt lat="46.20302" lon="6.14126">
        <ele>378.42</ele>
        <time>2016-10-03T07:02:53Z</time>
      </trkpt>
      <trkpt lat="46.20289" lon="6.14127">
        <ele>378.42</ele>
        <time>2016-10-03T07:02:56Z</time>
      </trkpt>
      <trkpt lat="46.20257" lon="6.14146">
        <ele>379.38</ele>
        <time>2016-10-03T07:03:05Z</time>
      </trkpt>
      <trkpt lat="46.20233" lon="6.14159">
        <ele>379.86</ele>
        <time>2016-10-03T07:03:12Z</time>
      </trkpt>
      <trkpt lat="46.20229" lon="6.14161">
        <ele>379.86</ele>
        <time>2016-10-03T07:03:13Z</time>
      </trkpt>
      <trkpt lat="46.20225" lon="6.14164">
        <ele>380.34</ele>
        <time>2016-10-03T07:03:14Z</time>
      </trkpt>
      <trkpt lat="46.20221" lon="6.14166">
        <ele>380.34</ele>
        <time>2016-10-03T07:03:15Z</time>
      </trkpt>
      <trkpt lat="46.20217" lon="6.14169">
        <ele>380.82</ele>
        <time>2016-10-03T07:03:16Z</time>
      </trkpt>
      <trkpt lat="46.20213" lon="6.14171">
        <ele>380.34</ele>
        <time>2016-10-03T07:03:17Z</time>
      </trkpt>
      <trkpt lat="46.2021" lon="6.14173">
        <ele>380.34</ele>
        <time>2016-10-03T07:03:18Z</time>
      </trkpt>
      <trkpt lat="46.20206" lon="6.14174">
        <ele>380.82</ele>
        <time>2016-10-03T07:03:19Z</time>
      </trkpt>
      <trkpt lat="46.20194" lon="6.14173">
        <ele>380.82</ele>
        <time>2016-10-03T07:03:24Z</time>
      </trkpt>
      <trkpt lat="46.20192" lon="6.14171">
        <ele>380.34</ele>
        <time>2016-10-03T07:03:25Z</time>
      </trkpt>
      <trkpt lat="46.20183" lon="6.14159">
        <ele>379.38</ele>
        <time>2016-10-03T07:03:30Z</time>
      </trkpt>
      <trkpt lat="46.20183" lon="6.14152">
        <ele>379.38</ele>
        <time>2016-10-03T07:03:31Z</time>
      </trkpt>
      <trkpt lat="46.20181" lon="6.14147">
        <ele>379.38</ele>
        <time>2016-10-03T07:03:32Z</time>
      </trkpt>
      <trkpt lat="46.20176" lon="6.14139">
        <ele>379.38</ele>
        <time>2016-10-03T07:03:34Z</time>
      </trkpt>
      <trkpt lat="46.20172" lon="6.14137">
        <ele>379.86</ele>
        <time>2016-10-03T07:03:35Z</time>
      </trkpt>
      <trkpt lat="46.20168" lon="6.14136">
        <ele>379.86</ele>
        <time>2016-10-03T07:03:36Z</time>
      </trkpt>
      <trkpt lat="46.20164" lon="6.14136">
        <ele>378.9</ele>
        <time>2016-10-03T07:03:37Z</time>
      </trkpt>
      <trkpt lat="46.2016" lon="6.14135">
        <ele>379.86</ele>
        <time>2016-10-03T07:03:38Z</time>
      </trkpt>
      <trkpt lat="46.20157" lon="6.14134">
        <ele>378.9</ele>
        <time>2016-10-03T07:03:39Z</time>
      </trkpt>
      <trkpt lat="46.20153" lon="6.14132">
        <ele>378.9</ele>
        <time>2016-10-03T07:03:40Z</time>
      </trkpt>
      <trkpt lat="46.2014" lon="6.141">
        <ele>378.42</ele>
        <time>2016-10-03T07:03:50Z</time>
      </trkpt>
      <trkpt lat="46.20143" lon="6.14069">
        <ele>377.94</ele>
        <time>2016-10-03T07:03:55Z</time>
      </trkpt>
      <trkpt lat="46.2014" lon="6.14054">
        <ele>378.42</ele>
        <time>2016-10-03T07:03:57Z</time>
      </trkpt>
      <trkpt lat="46.20138" lon="6.14048">
        <ele>378.42</ele>
        <time>2016-10-03T07:03:58Z</time>
      </trkpt>
      <trkpt lat="46.20135" lon="6.14042">
        <ele>378.9</ele>
        <time>2016-10-03T07:03:59Z</time>
      </trkpt>
      <trkpt lat="46.20133" lon="6.14038">
        <ele>378.9</ele>
        <time>2016-10-03T07:04:00Z</time>
      </trkpt>
      <trkpt lat="46.2013" lon="6.14035">
        <ele>378.42</ele>
        <time>2016-10-03T07:04:01Z</time>
      </trkpt>
      <trkpt lat="46.20127" lon="6.14033">
        <ele>378.42</ele>
        <time>2016-10-03T07:04:02Z</time>
      </trkpt>
      <trkpt lat="46.20124" lon="6.14031">
        <ele>377.94</ele>
        <time>2016-10-03T07:04:03Z</time>
      </trkpt>
      <trkpt lat="46.2012" lon="6.14029">
        <ele>377.94</ele>
        <time>2016-10-03T07:04:04Z</time>
      </trkpt>
      <trkpt lat="46.20116" lon="6.14025">
        <ele>377.45</ele>
        <time>2016-10-03T07:04:05Z</time>
      </trkpt>
      <trkpt lat="46.20111" lon="6.14022">
        <ele>377.94</ele>
        <time>2016-10-03T07:04:06Z</time>
      </trkpt>
      <trkpt lat="46.20106" lon="6.14021">
        <ele>378.42</ele>
        <time>2016-10-03T07:04:07Z</time>
      </trkpt>
      <trkpt lat="46.20102" lon="6.1402">
        <ele>378.42</ele>
        <time>2016-10-03T07:04:08Z</time>
      </trkpt>
      <trkpt lat="46.20093" lon="6.1402">
        <ele>377.94</ele>
        <time>2016-10-03T07:04:10Z</time>
      </trkpt>
      <trkpt lat="46.20081" lon="6.14015">
        <ele>377.94</ele>
        <time>2016-10-03T07:04:13Z</time>
      </trkpt>
      <trkpt lat="46.2006" lon="6.14005">
        <ele>377.45</ele>
        <time>2016-10-03T07:04:17Z</time>
      </trkpt>
      <trkpt lat="46.20031" lon="6.13984">
        <ele>378.9</ele>
        <time>2016-10-03T07:04:26Z</time>
      </trkpt>
      <trkpt lat="46.2003" lon="6.13983">
        <ele>375.53</ele>
        <time>2016-10-03T07:04:29Z</time>
      </trkpt>
      <trkpt lat="46.20029" lon="6.13983">
        <ele>379.38</ele>
        <time>2016-10-03T07:04:30Z</time>
      </trkpt>
      <trkpt lat="46.20009" lon="6.13977">
        <ele>378.9</ele>
        <time>2016-10-03T07:04:40Z</time>
      </trkpt>
      <trkpt lat="46.19995" lon="6.13974">
        <ele>378.9</ele>
        <time>2016-10-03T07:04:43Z</time>
      </trkpt>
      <trkpt lat="46.1999" lon="6.13973">
        <ele>378.9</ele>
        <time>2016-10-03T07:04:44Z</time>
      </trkpt>
      <trkpt lat="46.19976" lon="6.13969">
        <ele>377.94</ele>
        <time>2016-10-03T07:04:47Z</time>
      </trkpt>
      <trkpt lat="46.19962" lon="6.13962">
        <ele>379.38</ele>
        <time>2016-10-03T07:04:50Z</time>
      </trkpt>
      <trkpt lat="46.1994" lon="6.13957">
        <ele>378.9</ele>
        <time>2016-10-03T07:04:54Z</time>
      </trkpt>
      <trkpt lat="46.19935" lon="6.13955">
        <ele>378.9</ele>
        <time>2016-10-03T07:04:55Z</time>
      </trkpt>
      <trkpt lat="46.1992" lon="6.13949">
        <ele>379.38</ele>
        <time>2016-10-03T07:04:58Z</time>
      </trkpt>
      <trkpt lat="46.19857" lon="6.13923">
        <ele>379.38</ele>
        <time>2016-10-03T07:05:09Z</time>
      </trkpt>
      <trkpt lat="46.198" lon="6.13911">
        <ele>379.86</ele>
        <time>2016-10-03T07:05:18Z</time>
      </trkpt>
      <trkpt lat="46.19793" lon="6.13911">
        <ele>379.86</ele>
        <time>2016-10-03T07:05:19Z</time>
      </trkpt>
      <trkpt lat="46.19787" lon="6.13912">
        <ele>379.86</ele>
        <time>2016-10-03T07:05:20Z</time>
      </trkpt>
      <trkpt lat="46.19781" lon="6.13914">
        <ele>379.38</ele>
        <time>2016-10-03T07:05:21Z</time>
      </trkpt>
      <trkpt lat="46.19774" lon="6.13917">
        <ele>379.86</ele>
        <time>2016-10-03T07:05:22Z</time>
      </trkpt>
      <trkpt lat="46.19768" lon="6.13921">
        <ele>379.86</ele>
        <time>2016-10-03T07:05:23Z</time>
      </trkpt>
      <trkpt lat="46.1972" lon="6.13967">
        <ele>379.38</ele>
        <time>2016-10-03T07:05:32Z</time>
      </trkpt>
      <trkpt lat="46.19715" lon="6.13972">
        <ele>379.38</ele>
        <time>2016-10-03T07:05:33Z</time>
      </trkpt>
      <trkpt lat="46.19705" lon="6.13979">
        <ele>379.38</ele>
        <time>2016-10-03T07:05:35Z</time>
      </trkpt>
      <trkpt lat="46.19665" lon="6.1402">
        <ele>380.82</ele>
        <time>2016-10-03T07:05:44Z</time>
      </trkpt>
      <trkpt lat="46.19661" lon="6.14024">
        <ele>381.3</ele>
        <time>2016-10-03T07:05:45Z</time>
      </trkpt>
      <trkpt lat="46.1964" lon="6.14042">
        <ele>380.82</ele>
        <time>2016-10-03T07:05:55Z</time>
      </trkpt>
      <trkpt lat="46.19635" lon="6.14046">
        <ele>380.82</ele>
        <time>2016-10-03T07:06:03Z</time>
      </trkpt>
      <trkpt lat="46.19634" lon="6.14048">
        <ele>380.82</ele>
        <time>2016-10-03T07:06:04Z</time>
      </trkpt>
      <trkpt lat="46.19632" lon="6.14049">
        <ele>380.82</ele>
        <time>2016-10-03T07:06:05Z</time>
      </trkpt>
      <trkpt lat="46.19616" lon="6.14061">
        <ele>380.82</ele>
        <time>2016-10-03T07:06:10Z</time>
      </trkpt>
      <trkpt lat="46.19604" lon="6.14072">
        <ele>380.34</ele>
        <time>2016-10-03T07:06:13Z</time>
      </trkpt>
      <trkpt lat="46.196" lon="6.14076">
        <ele>380.82</ele>
        <time>2016-10-03T07:06:14Z</time>
      </trkpt>
      <trkpt lat="46.19544" lon="6.14127">
        <ele>380.82</ele>
        <time>2016-10-03T07:06:27Z</time>
      </trkpt>
      <trkpt lat="46.1954" lon="6.14131">
        <ele>380.82</ele>
        <time>2016-10-03T07:06:28Z</time>
      </trkpt>
      <trkpt lat="46.19515" lon="6.14152">
        <ele>381.3</ele>
        <time>2016-10-03T07:06:37Z</time>
      </trkpt>
      <trkpt lat="46.19507" lon="6.14156">
        <ele>380.82</ele>
        <time>2016-10-03T07:06:39Z</time>
      </trkpt>
      <trkpt lat="46.19504" lon="6.14158">
        <ele>380.82</ele>
        <time>2016-10-03T07:06:40Z</time>
      </trkpt>
      <trkpt lat="46.195" lon="6.14158">
        <ele>381.3</ele>
        <time>2016-10-03T07:06:41Z</time>
      </trkpt>
      <trkpt lat="46.19495" lon="6.14157">
        <ele>380.82</ele>
        <time>2016-10-03T07:06:42Z</time>
      </trkpt>
      <trkpt lat="46.1949" lon="6.14155">
        <ele>380.34</ele>
        <time>2016-10-03T07:06:43Z</time>
      </trkpt>
      <trkpt lat="46.19485" lon="6.14154">
        <ele>380.82</ele>
        <time>2016-10-03T07:06:44Z</time>
      </trkpt>
      <trkpt lat="46.1948" lon="6.14153">
        <ele>380.82</ele>
        <time>2016-10-03T07:06:45Z</time>
      </trkpt>
      <trkpt lat="46.19475" lon="6.14154">
        <ele>379.38</ele>
        <time>2016-10-03T07:06:46Z</time>
      </trkpt>
      <trkpt lat="46.1946" lon="6.14157">
        <ele>379.86</ele>
        <time>2016-10-03T07:06:49Z</time>
      </trkpt>
      <trkpt lat="46.19444" lon="6.14164">
        <ele>380.34</ele>
        <time>2016-10-03T07:06:53Z</time>
      </trkpt>
      <trkpt lat="46.19415" lon="6.1417">
        <ele>380.82</ele>
        <time>2016-10-03T07:06:59Z</time>
      </trkpt>
      <trkpt lat="46.19385" lon="6.14179">
        <ele>381.3</ele>
        <time>2016-10-03T07:07:05Z</time>
      </trkpt>
      <trkpt lat="46.1937" lon="6.14186">
        <ele>381.3</ele>
        <time>2016-10-03T07:07:09Z</time>
      </trkpt>
      <trkpt lat="46.19364" lon="6.14189">
        <ele>381.78</ele>
        <time>2016-10-03T07:07:12Z</time>
      </trkpt>
      <trkpt lat="46.19363" lon="6.14189">
        <ele>382.26</ele>
        <time>2016-10-03T07:07:13Z</time>
      </trkpt>
      <trkpt lat="46.19361" lon="6.14189">
        <ele>381.3</ele>
        <time>2016-10-03T07:07:14Z</time>
      </trkpt>
      <trkpt lat="46.19358" lon="6.14186">
        <ele>381.3</ele>
        <time>2016-10-03T07:07:17Z</time>
      </trkpt>
      <trkpt lat="46.19358" lon="6.14181">
        <ele>380.82</ele>
        <time>2016-10-03T07:07:18Z</time>
      </trkpt>
      <trkpt lat="46.19352" lon="6.14128">
        <ele>379.38</ele>
        <time>2016-10-03T07:07:27Z</time>
      </trkpt>
      <trkpt lat="46.19351" lon="6.14119">
        <ele>379.86</ele>
        <time>2016-10-03T07:07:28Z</time>
      </trkpt>
      <trkpt lat="46.1935" lon="6.14111">
        <ele>379.38</ele>
        <time>2016-10-03T07:07:29Z</time>
      </trkpt>
      <trkpt lat="46.19342" lon="6.14081">
        <ele>379.86</ele>
        <time>2016-10-03T07:07:33Z</time>
      </trkpt>
      <trkpt lat="46.1934" lon="6.14074">
        <ele>379.86</ele>
        <time>2016-10-03T07:07:34Z</time>
      </trkpt>
      <trkpt lat="46.19338" lon="6.14066">
        <ele>379.86</ele>
        <time>2016-10-03T07:07:35Z</time>
      </trkpt>
      <trkpt lat="46.19328" lon="6.14016">
        <ele>380.82</ele>
        <time>2016-10-03T07:07:46Z</time>
      </trkpt>
      <trkpt lat="46.19327" lon="6.1401">
        <ele>380.34</ele>
        <time>2016-10-03T07:07:49Z</time>
      </trkpt>
      <trkpt lat="46.19329" lon="6.14006">
        <ele>380.34</ele>
        <time>2016-10-03T07:07:52Z</time>
      </trkpt>
      <trkpt lat="46.19333" lon="6.13999">
        <ele>380.82</ele>
        <time>2016-10-03T07:08:08Z</time>
      </trkpt>
      <trkpt lat="46.19342" lon="6.13994">
        <ele>380.82</ele>
        <time>2016-10-03T07:08:13Z</time>
      </trkpt>
      <trkpt lat="46.19343" lon="6.13993">
        <ele>380.82</ele>
        <time>2016-10-03T07:08:14Z</time>
      </trkpt>
      <trkpt lat="46.19345" lon="6.13992">
        <ele>380.82</ele>
        <time>2016-10-03T07:08:15Z</time>
      </trkpt>
      <trkpt lat="46.19347" lon="6.1399">
        <ele>380.82</ele>
        <time>2016-10-03T07:08:16Z</time>
      </trkpt>
      <trkpt lat="46.19348" lon="6.13987">
        <ele>381.3</ele>
        <time>2016-10-03T07:08:17Z</time>
      </trkpt>
      <trkpt lat="46.19349" lon="6.13984">
        <ele>381.3</ele>
        <time>2016-10-03T07:08:18Z</time>
      </trkpt>
      <trkpt lat="46.19351" lon="6.13973">
        <ele>380.34</ele>
        <time>2016-10-03T07:08:21Z</time>
      </trkpt>
      <trkpt lat="46.19349" lon="6.13968">
        <ele>380.82</ele>
        <time>2016-10-03T07:08:22Z</time>
      </trkpt>
      <trkpt lat="46.19316" lon="6.13903">
        <ele>380.82</ele>
        <time>2016-10-03T07:08:36Z</time>
      </trkpt>
      <trkpt lat="46.19292" lon="6.13856">
        <ele>381.3</ele>
        <time>2016-10-03T07:08:47Z</time>
      </trkpt>
      <trkpt lat="46.19256" lon="6.13789">
        <ele>380.82</ele>
        <time>2016-10-03T07:08:59Z</time>
      </trkpt>
      <trkpt lat="46.19224" lon="6.13731">
        <ele>379.86</ele>
        <time>2016-10-03T07:09:08Z</time>
      </trkpt>
      <trkpt lat="46.19221" lon="6.13725">
        <ele>379.86</ele>
        <time>2016-10-03T07:09:09Z</time>
      </trkpt>
      <trkpt lat="46.19218" lon="6.13717">
        <ele>380.34</ele>
        <time>2016-10-03T07:09:10Z</time>
      </trkpt>
      <trkpt lat="46.19179" lon="6.13625">
        <ele>379.38</ele>
        <time>2016-10-03T07:09:24Z</time>
      </trkpt>
      <trkpt lat="46.19166" lon="6.13602">
        <ele>379.86</ele>
        <time>2016-10-03T07:09:33Z</time>
      </trkpt>
      <trkpt lat="46.19172" lon="6.13599">
        <ele>380.34</ele>
        <time>2016-10-03T07:09:52Z</time>
      </trkpt>
      <trkpt lat="46.19174" lon="6.136">
        <ele>380.82</ele>
        <time>2016-10-03T07:10:26Z</time>
      </trkpt>
      <trkpt lat="46.19171" lon="6.136">
        <ele>380.34</ele>
        <time>2016-10-03T07:10:49Z</time>
      </trkpt>
      <trkpt lat="46.1917" lon="6.13599">
        <ele>381.3</ele>
        <time>2016-10-03T07:10:50Z</time>
      </trkpt>
      <trkpt lat="46.19159" lon="6.13589">
        <ele>380.34</ele>
        <time>2016-10-03T07:10:55Z</time>
      </trkpt>
      <trkpt lat="46.19156" lon="6.13589">
        <ele>380.34</ele>
        <time>2016-10-03T07:10:56Z</time>
      </trkpt>
      <trkpt lat="46.19153" lon="6.13591">
        <ele>380.34</ele>
        <time>2016-10-03T07:10:57Z</time>
      </trkpt>
      <trkpt lat="46.19149" lon="6.13594">
        <ele>380.34</ele>
        <time>2016-10-03T07:10:58Z</time>
      </trkpt>
      <trkpt lat="46.19147" lon="6.13597">
        <ele>380.34</ele>
        <time>2016-10-03T07:10:59Z</time>
      </trkpt>
      <trkpt lat="46.19144" lon="6.13598">
        <ele>380.34</ele>
        <time>2016-10-03T07:11:00Z</time>
      </trkpt>
      <trkpt lat="46.19142" lon="6.13601">
        <ele>379.86</ele>
        <time>2016-10-03T07:11:01Z</time>
      </trkpt>
      <trkpt lat="46.19138" lon="6.13604">
        <ele>380.34</ele>
        <time>2016-10-03T07:11:02Z</time>
      </trkpt>
      <trkpt lat="46.19134" lon="6.13606">
        <ele>380.34</ele>
        <time>2016-10-03T07:11:03Z</time>
      </trkpt>
      <trkpt lat="46.19131" lon="6.1361">
        <ele>380.34</ele>
        <time>2016-10-03T07:11:04Z</time>
      </trkpt>
      <trkpt lat="46.19127" lon="6.13613">
        <ele>380.34</ele>
        <time>2016-10-03T07:11:05Z</time>
      </trkpt>
      <trkpt lat="46.19124" lon="6.13617">
        <ele>380.82</ele>
        <time>2016-10-03T07:11:06Z</time>
      </trkpt>
      <trkpt lat="46.19122" lon="6.13619">
        <ele>380.34</ele>
        <time>2016-10-03T07:11:07Z</time>
      </trkpt>
      <trkpt lat="46.19097" lon="6.13632">
        <ele>380.82</ele>
        <time>2016-10-03T07:11:16Z</time>
      </trkpt>
      <trkpt lat="46.19067" lon="6.13667">
        <ele>381.78</ele>
        <time>2016-10-03T07:11:26Z</time>
      </trkpt>
      <trkpt lat="46.19051" lon="6.13682">
        <ele>381.3</ele>
        <time>2016-10-03T07:11:35Z</time>
      </trkpt>
      <trkpt lat="46.1905" lon="6.13683">
        <ele>382.26</ele>
        <time>2016-10-03T07:11:36Z</time>
      </trkpt>
      <trkpt lat="46.19048" lon="6.13685">
        <ele>381.78</ele>
        <time>2016-10-03T07:11:37Z</time>
      </trkpt>
      <trkpt lat="46.19046" lon="6.13687">
        <ele>381.78</ele>
        <time>2016-10-03T07:11:38Z</time>
      </trkpt>
      <trkpt lat="46.19021" lon="6.13705">
        <ele>381.78</ele>
        <time>2016-10-03T07:11:48Z</time>
      </trkpt>
      <trkpt lat="46.1901" lon="6.13715">
        <ele>382.74</ele>
        <time>2016-10-03T07:11:52Z</time>
      </trkpt>
      <trkpt lat="46.18984" lon="6.13717">
        <ele>382.74</ele>
        <time>2016-10-03T07:12:00Z</time>
      </trkpt>
      <trkpt lat="46.18972" lon="6.13717">
        <ele>382.74</ele>
        <time>2016-10-03T07:12:03Z</time>
      </trkpt>
      <trkpt lat="46.1896" lon="6.13721">
        <ele>383.22</ele>
        <time>2016-10-03T07:12:05Z</time>
      </trkpt>
      <trkpt lat="46.18955" lon="6.13722">
        <ele>382.74</ele>
        <time>2016-10-03T07:12:06Z</time>
      </trkpt>
      <trkpt lat="46.1895" lon="6.13723">
        <ele>382.74</ele>
        <time>2016-10-03T07:12:07Z</time>
      </trkpt>
      <trkpt lat="46.18944" lon="6.13724">
        <ele>382.74</ele>
        <time>2016-10-03T07:12:08Z</time>
      </trkpt>
      <trkpt lat="46.18939" lon="6.13725">
        <ele>383.22</ele>
        <time>2016-10-03T07:12:09Z</time>
      </trkpt>
      <trkpt lat="46.18904" lon="6.13732">
        <ele>383.22</ele>
        <time>2016-10-03T07:12:18Z</time>
      </trkpt>
      <trkpt lat="46.18876" lon="6.13728">
        <ele>383.22</ele>
        <time>2016-10-03T07:12:44Z</time>
      </trkpt>
      <trkpt lat="46.18874" lon="6.13728">
        <ele>382.74</ele>
        <time>2016-10-03T07:12:45Z</time>
      </trkpt>
      <trkpt lat="46.18873" lon="6.13728">
        <ele>383.7</ele>
        <time>2016-10-03T07:12:46Z</time>
      </trkpt>
      <trkpt lat="46.18872" lon="6.13727">
        <ele>383.7</ele>
        <time>2016-10-03T07:12:47Z</time>
      </trkpt>
      <trkpt lat="46.1887" lon="6.13726">
        <ele>383.7</ele>
        <time>2016-10-03T07:12:48Z</time>
      </trkpt>
      <trkpt lat="46.18869" lon="6.13725">
        <ele>383.22</ele>
        <time>2016-10-03T07:12:49Z</time>
      </trkpt>
      <trkpt lat="46.18846" lon="6.13714">
        <ele>383.7</ele>
        <time>2016-10-03T07:12:56Z</time>
      </trkpt>
      <trkpt lat="46.18842" lon="6.13715">
        <ele>384.18</ele>
        <time>2016-10-03T07:12:57Z</time>
      </trkpt>
      <trkpt lat="46.18839" lon="6.13715">
        <ele>384.66</ele>
        <time>2016-10-03T07:12:58Z</time>
      </trkpt>
      <trkpt lat="46.18823" lon="6.13717">
        <ele>385.15</ele>
        <time>2016-10-03T07:13:02Z</time>
      </trkpt>
      <trkpt lat="46.18819" lon="6.13717">
        <ele>384.66</ele>
        <time>2016-10-03T07:13:03Z</time>
      </trkpt>
      <trkpt lat="46.18791" lon="6.1372">
        <ele>385.63</ele>
        <time>2016-10-03T07:13:09Z</time>
      </trkpt>
      <trkpt lat="46.18782" lon="6.13723">
        <ele>385.63</ele>
        <time>2016-10-03T07:13:11Z</time>
      </trkpt>
      <trkpt lat="46.18777" lon="6.13723">
        <ele>386.11</ele>
        <time>2016-10-03T07:13:12Z</time>
      </trkpt>
      <trkpt lat="46.18754" lon="6.13728">
        <ele>386.11</ele>
        <time>2016-10-03T07:13:18Z</time>
      </trkpt>
      <trkpt lat="46.1875" lon="6.13728">
        <ele>386.11</ele>
        <time>2016-10-03T07:13:19Z</time>
      </trkpt>
      <trkpt lat="46.18738" lon="6.13728">
        <ele>386.11</ele>
        <time>2016-10-03T07:13:21Z</time>
      </trkpt>
      <trkpt lat="46.18713" lon="6.1373">
        <ele>386.11</ele>
        <time>2016-10-03T07:13:26Z</time>
      </trkpt>
      <trkpt lat="46.18709" lon="6.13729">
        <ele>386.59</ele>
        <time>2016-10-03T07:13:27Z</time>
      </trkpt>
      <trkpt lat="46.18704" lon="6.13727">
        <ele>387.07</ele>
        <time>2016-10-03T07:13:28Z</time>
      </trkpt>
      <trkpt lat="46.187" lon="6.13726">
        <ele>387.07</ele>
        <time>2016-10-03T07:13:29Z</time>
      </trkpt>
      <trkpt lat="46.18697" lon="6.13727">
        <ele>386.59</ele>
        <time>2016-10-03T07:13:30Z</time>
      </trkpt>
      <trkpt lat="46.18659" lon="6.13735">
        <ele>387.07</ele>
        <time>2016-10-03T07:13:41Z</time>
      </trkpt>
      <trkpt lat="46.18626" lon="6.13743">
        <ele>388.03</ele>
        <time>2016-10-03T07:13:50Z</time>
      </trkpt>
      <trkpt lat="46.1857" lon="6.13747">
        <ele>388.51</ele>
        <time>2016-10-03T07:14:00Z</time>
      </trkpt>
      <trkpt lat="46.18553" lon="6.13743">
        <ele>388.51</ele>
        <time>2016-10-03T07:14:03Z</time>
      </trkpt>
      <trkpt lat="46.18549" lon="6.13744">
        <ele>388.03</ele>
        <time>2016-10-03T07:14:04Z</time>
      </trkpt>
      <trkpt lat="46.18545" lon="6.13745">
        <ele>388.03</ele>
        <time>2016-10-03T07:14:05Z</time>
      </trkpt>
      <trkpt lat="46.18506" lon="6.13748">
        <ele>388.51</ele>
        <time>2016-10-03T07:14:12Z</time>
      </trkpt>
      <trkpt lat="46.185" lon="6.13748">
        <ele>387.55</ele>
        <time>2016-10-03T07:14:13Z</time>
      </trkpt>
      <trkpt lat="46.18489" lon="6.13749">
        <ele>388.03</ele>
        <time>2016-10-03T07:14:15Z</time>
      </trkpt>
      <trkpt lat="46.18484" lon="6.1375">
        <ele>388.51</ele>
        <time>2016-10-03T07:14:16Z</time>
      </trkpt>
      <trkpt lat="46.18462" lon="6.13752">
        <ele>388.99</ele>
        <time>2016-10-03T07:14:20Z</time>
      </trkpt>
      <trkpt lat="46.18446" lon="6.13755">
        <ele>388.51</ele>
        <time>2016-10-03T07:14:23Z</time>
      </trkpt>
      <trkpt lat="46.1844" lon="6.13755">
        <ele>389.47</ele>
        <time>2016-10-03T07:14:24Z</time>
      </trkpt>
      <trkpt lat="46.18347" lon="6.13759">
        <ele>388.99</ele>
        <time>2016-10-03T07:14:38Z</time>
      </trkpt>
      <trkpt lat="46.18268" lon="6.13779">
        <ele>389.47</ele>
        <time>2016-10-03T07:14:51Z</time>
      </trkpt>
      <trkpt lat="46.1825" lon="6.13784">
        <ele>389.95</ele>
        <time>2016-10-03T07:14:54Z</time>
      </trkpt>
      <trkpt lat="46.18166" lon="6.13804">
        <ele>389.95</ele>
        <time>2016-10-03T07:15:07Z</time>
      </trkpt>
      <trkpt lat="46.18088" lon="6.13822">
        <ele>389.95</ele>
        <time>2016-10-03T07:15:21Z</time>
      </trkpt>
      <trkpt lat="46.1804" lon="6.13831">
        <ele>391.87</ele>
        <time>2016-10-03T07:15:33Z</time>
      </trkpt>
      <trkpt lat="46.18012" lon="6.13838">
        <ele>392.84</ele>
        <time>2016-10-03T07:15:46Z</time>
      </trkpt>
      <trkpt lat="46.17988" lon="6.13871">
        <ele>393.32</ele>
        <time>2016-10-03T07:15:58Z</time>
      </trkpt>
      <trkpt lat="46.1796" lon="6.13895">
        <ele>394.76</ele>
        <time>2016-10-03T07:16:08Z</time>
      </trkpt>
      <trkpt lat="46.17929" lon="6.139">
        <ele>397.16</ele>
        <time>2016-10-03T07:16:20Z</time>
      </trkpt>
      <trkpt lat="46.179" lon="6.1389">
        <ele>400.05</ele>
        <time>2016-10-03T07:16:33Z</time>
      </trkpt>
      <trkpt lat="46.17873" lon="6.13874">
        <ele>401.97</ele>
        <time>2016-10-03T07:16:45Z</time>
      </trkpt>
      <trkpt lat="46.17849" lon="6.13865">
        <ele>403.89</ele>
        <time>2016-10-03T07:16:58Z</time>
      </trkpt>
      <trkpt lat="46.17821" lon="6.13859">
        <ele>406.77</ele>
        <time>2016-10-03T07:17:09Z</time>
      </trkpt>
      <trkpt lat="46.17777" lon="6.13845">
        <ele>408.22</ele>
        <time>2016-10-03T07:17:23Z</time>
      </trkpt>
      <trkpt lat="46.17734" lon="6.13828">
        <ele>409.66</ele>
        <time>2016-10-03T07:17:37Z</time>
      </trkpt>
      <trkpt lat="46.17697" lon="6.13809">
        <ele>411.58</ele>
        <time>2016-10-03T07:17:51Z</time>
      </trkpt>
      <trkpt lat="46.17652" lon="6.13802">
        <ele>413.5</ele>
        <time>2016-10-03T07:18:06Z</time>
      </trkpt>
      <trkpt lat="46.17608" lon="6.13801">
        <ele>415.91</ele>
        <time>2016-10-03T07:18:21Z</time>
      </trkpt>
      <trkpt lat="46.17555" lon="6.13807">
        <ele>415.91</ele>
        <time>2016-10-03T07:18:37Z</time>
      </trkpt>
      <trkpt lat="46.17528" lon="6.13815">
        <ele>416.87</ele>
        <time>2016-10-03T07:18:46Z</time>
      </trkpt>
      <trkpt lat="46.17526" lon="6.13814">
        <ele>416.87</ele>
        <time>2016-10-03T07:18:47Z</time>
      </trkpt>
      <trkpt lat="46.17519" lon="6.13812">
        <ele>417.83</ele>
        <time>2016-10-03T07:18:50Z</time>
      </trkpt>
      <trkpt lat="46.17517" lon="6.13814">
        <ele>416.39</ele>
        <time>2016-10-03T07:18:51Z</time>
      </trkpt>
      <trkpt lat="46.17514" lon="6.13817">
        <ele>416.39</ele>
        <time>2016-10-03T07:18:52Z</time>
      </trkpt>
      <trkpt lat="46.17512" lon="6.1382">
        <ele>416.39</ele>
        <time>2016-10-03T07:18:53Z</time>
      </trkpt>
      <trkpt lat="46.17509" lon="6.13821">
        <ele>416.87</ele>
        <time>2016-10-03T07:18:54Z</time>
      </trkpt>
      <trkpt lat="46.17505" lon="6.13822">
        <ele>416.39</ele>
        <time>2016-10-03T07:18:55Z</time>
      </trkpt>
      <trkpt lat="46.17501" lon="6.13822">
        <ele>416.39</ele>
        <time>2016-10-03T07:18:56Z</time>
      </trkpt>
      <trkpt lat="46.17416" lon="6.13824">
        <ele>415.91</ele>
        <time>2016-10-03T07:19:12Z</time>
      </trkpt>
      <trkpt lat="46.17411" lon="6.13825">
        <ele>415.91</ele>
        <time>2016-10-03T07:19:13Z</time>
      </trkpt>
      <trkpt lat="46.17391" lon="6.13827">
        <ele>417.83</ele>
        <time>2016-10-03T07:19:17Z</time>
      </trkpt>
      <trkpt lat="46.17376" lon="6.13829">
        <ele>416.39</ele>
        <time>2016-10-03T07:19:20Z</time>
      </trkpt>
      <trkpt lat="46.17351" lon="6.13833">
        <ele>417.83</ele>
        <time>2016-10-03T07:19:25Z</time>
      </trkpt>
      <trkpt lat="46.1732" lon="6.1384">
        <ele>419.27</ele>
        <time>2016-10-03T07:19:31Z</time>
      </trkpt>
      <trkpt lat="46.17311" lon="6.13842">
        <ele>419.27</ele>
        <time>2016-10-03T07:19:33Z</time>
      </trkpt>
      <trkpt lat="46.17258" lon="6.13869">
        <ele>422.16</ele>
        <time>2016-10-03T07:19:48Z</time>
      </trkpt>
      <trkpt lat="46.17236" lon="6.13882">
        <ele>422.64</ele>
        <time>2016-10-03T07:19:54Z</time>
      </trkpt>
      <trkpt lat="46.17192" lon="6.13915">
        <ele>424.56</ele>
        <time>2016-10-03T07:20:07Z</time>
      </trkpt>
      <trkpt lat="46.17143" lon="6.1394">
        <ele>426.96</ele>
        <time>2016-10-03T07:20:20Z</time>
      </trkpt>
      <trkpt lat="46.17123" lon="6.13948">
        <ele>426.48</ele>
        <time>2016-10-03T07:20:25Z</time>
      </trkpt>
      <trkpt lat="46.17085" lon="6.1397">
        <ele>428.4</ele>
        <time>2016-10-03T07:20:36Z</time>
      </trkpt>
      <trkpt lat="46.17023" lon="6.14005">
        <ele>427.44</ele>
        <time>2016-10-03T07:20:51Z</time>
      </trkpt>
      <trkpt lat="46.16947" lon="6.14041">
        <ele>425.52</ele>
        <time>2016-10-03T07:21:05Z</time>
      </trkpt>
      <trkpt lat="46.16899" lon="6.14058">
        <ele>424.08</ele>
        <time>2016-10-03T07:21:11Z</time>
      </trkpt>
      <trkpt lat="46.16814" lon="6.14059">
        <ele>419.75</ele>
        <time>2016-10-03T07:21:20Z</time>
      </trkpt>
      <trkpt lat="46.16805" lon="6.14057">
        <ele>419.27</ele>
        <time>2016-10-03T07:21:21Z</time>
      </trkpt>
      <trkpt lat="46.16742" lon="6.14035">
        <ele>422.64</ele>
        <time>2016-10-03T07:21:29Z</time>
      </trkpt>
      <trkpt lat="46.16737" lon="6.14032">
        <ele>422.16</ele>
        <time>2016-10-03T07:21:30Z</time>
      </trkpt>
      <trkpt lat="46.16732" lon="6.14027">
        <ele>422.64</ele>
        <time>2016-10-03T07:21:31Z</time>
      </trkpt>
      <trkpt lat="46.16728" lon="6.14024">
        <ele>422.64</ele>
        <time>2016-10-03T07:21:32Z</time>
      </trkpt>
      <trkpt lat="46.16724" lon="6.14021">
        <ele>422.16</ele>
        <time>2016-10-03T07:21:33Z</time>
      </trkpt>
      <trkpt lat="46.16719" lon="6.14021">
        <ele>423.12</ele>
        <time>2016-10-03T07:21:34Z</time>
      </trkpt>
      <trkpt lat="46.16716" lon="6.14022">
        <ele>422.64</ele>
        <time>2016-10-03T07:21:35Z</time>
      </trkpt>
      <trkpt lat="46.16713" lon="6.14023">
        <ele>423.6</ele>
        <time>2016-10-03T07:21:36Z</time>
      </trkpt>
      <trkpt lat="46.16678" lon="6.14015">
        <ele>426.96</ele>
        <time>2016-10-03T07:21:48Z</time>
      </trkpt>
      <trkpt lat="46.16621" lon="6.13997">
        <ele>428.4</ele>
        <time>2016-10-03T07:22:04Z</time>
      </trkpt>
      <trkpt lat="46.16584" lon="6.13985">
        <ele>429.37</ele>
        <time>2016-10-03T07:22:13Z</time>
      </trkpt>
      <trkpt lat="46.16569" lon="6.13979">
        <ele>429.37</ele>
        <time>2016-10-03T07:22:16Z</time>
      </trkpt>
      <trkpt lat="46.16492" lon="6.13953">
        <ele>429.37</ele>
        <time>2016-10-03T07:22:31Z</time>
      </trkpt>
      <trkpt lat="46.16398" lon="6.13921">
        <ele>429.37</ele>
        <time>2016-10-03T07:22:49Z</time>
      </trkpt>
      <trkpt lat="46.16321" lon="6.13898">
        <ele>430.33</ele>
        <time>2016-10-03T07:23:04Z</time>
      </trkpt>
      <trkpt lat="46.16253" lon="6.13885">
        <ele>432.73</ele>
        <time>2016-10-03T07:23:19Z</time>
      </trkpt>
      <trkpt lat="46.16168" lon="6.13871">
        <ele>434.65</ele>
        <time>2016-10-03T07:23:39Z</time>
      </trkpt>
      <trkpt lat="46.16095" lon="6.13859">
        <ele>437.06</ele>
        <time>2016-10-03T07:23:57Z</time>
      </trkpt>
      <trkpt lat="46.16025" lon="6.13847">
        <ele>439.46</ele>
        <time>2016-10-03T07:24:15Z</time>
      </trkpt>
      <trkpt lat="46.15976" lon="6.13841">
        <ele>442.34</ele>
        <time>2016-10-03T07:24:31Z</time>
      </trkpt>
      <trkpt lat="46.15925" lon="6.13843">
        <ele>444.75</ele>
        <time>2016-10-03T07:24:46Z</time>
      </trkpt>
      <trkpt lat="46.15883" lon="6.13855">
        <ele>446.19</ele>
        <time>2016-10-03T07:24:59Z</time>
      </trkpt>
      <trkpt lat="46.15839" lon="6.13875">
        <ele>448.59</ele>
        <time>2016-10-03T07:25:14Z</time>
      </trkpt>
      <trkpt lat="46.15792" lon="6.13903">
        <ele>451</ele>
        <time>2016-10-03T07:25:29Z</time>
      </trkpt>
      <trkpt lat="46.15738" lon="6.13928">
        <ele>451.96</ele>
        <time>2016-10-03T07:25:43Z</time>
      </trkpt>
      <trkpt lat="46.15668" lon="6.1395">
        <ele>453.88</ele>
        <time>2016-10-03T07:26:01Z</time>
      </trkpt>
      <trkpt lat="46.15605" lon="6.13942">
        <ele>455.8</ele>
        <time>2016-10-03T07:26:17Z</time>
      </trkpt>
      <trkpt lat="46.15536" lon="6.13923">
        <ele>456.76</ele>
        <time>2016-10-03T07:26:35Z</time>
      </trkpt>
      <trkpt lat="46.15488" lon="6.13912">
        <ele>458.21</ele>
        <time>2016-10-03T07:26:48Z</time>
      </trkpt>
      <trkpt lat="46.15433" lon="6.13908">
        <ele>460.13</ele>
        <time>2016-10-03T07:27:02Z</time>
      </trkpt>
      <trkpt lat="46.15371" lon="6.13912">
        <ele>460.61</ele>
        <time>2016-10-03T07:27:17Z</time>
      </trkpt>
      <trkpt lat="46.15307" lon="6.13908">
        <ele>461.57</ele>
        <time>2016-10-03T07:27:32Z</time>
      </trkpt>
      <trkpt lat="46.15239" lon="6.13896">
        <ele>463.97</ele>
        <time>2016-10-03T07:27:49Z</time>
      </trkpt>
      <trkpt lat="46.1517" lon="6.13877">
        <ele>465.42</ele>
        <time>2016-10-03T07:28:07Z</time>
      </trkpt>
      <trkpt lat="46.15103" lon="6.13846">
        <ele>468.3</ele>
        <time>2016-10-03T07:28:25Z</time>
      </trkpt>
      <trkpt lat="46.15046" lon="6.1382">
        <ele>470.22</ele>
        <time>2016-10-03T07:28:42Z</time>
      </trkpt>
      <trkpt lat="46.14989" lon="6.13813">
        <ele>472.14</ele>
        <time>2016-10-03T07:28:59Z</time>
      </trkpt>
      <trkpt lat="46.14932" lon="6.13813">
        <ele>474.07</ele>
        <time>2016-10-03T07:29:15Z</time>
      </trkpt>
      <trkpt lat="46.1488" lon="6.13811">
        <ele>475.03</ele>
        <time>2016-10-03T07:29:29Z</time>
      </trkpt>
      <trkpt lat="46.14822" lon="6.13797">
        <ele>475.51</ele>
        <time>2016-10-03T07:29:43Z</time>
      </trkpt>
      <trkpt lat="46.14753" lon="6.13756">
        <ele>477.43</ele>
        <time>2016-10-03T07:30:01Z</time>
      </trkpt>
      <trkpt lat="46.1471" lon="6.13724">
        <ele>480.8</ele>
        <time>2016-10-03T07:30:15Z</time>
      </trkpt>
      <trkpt lat="46.14655" lon="6.13682">
        <ele>482.72</ele>
        <time>2016-10-03T07:30:34Z</time>
      </trkpt>
      <trkpt lat="46.146" lon="6.13651">
        <ele>483.68</ele>
        <time>2016-10-03T07:30:51Z</time>
      </trkpt>
      <trkpt lat="46.14563" lon="6.13641">
        <ele>484.64</ele>
        <time>2016-10-03T07:31:02Z</time>
      </trkpt>
      <trkpt lat="46.1456" lon="6.1364">
        <ele>484.64</ele>
        <time>2016-10-03T07:31:03Z</time>
      </trkpt>
      <trkpt lat="46.14557" lon="6.13639">
        <ele>484.64</ele>
        <time>2016-10-03T07:31:04Z</time>
      </trkpt>
      <trkpt lat="46.14553" lon="6.13638">
        <ele>485.12</ele>
        <time>2016-10-03T07:31:05Z</time>
      </trkpt>
      <trkpt lat="46.1455" lon="6.13638">
        <ele>484.16</ele>
        <time>2016-10-03T07:31:06Z</time>
      </trkpt>
      <trkpt lat="46.14547" lon="6.13637">
        <ele>484.64</ele>
        <time>2016-10-03T07:31:07Z</time>
      </trkpt>
      <trkpt lat="46.14523" lon="6.13632">
        <ele>485.6</ele>
        <time>2016-10-03T07:31:20Z</time>
      </trkpt>
      <trkpt lat="46.1452" lon="6.13635">
        <ele>486.08</ele>
        <time>2016-10-03T07:31:34Z</time>
      </trkpt>
      <trkpt lat="46.14517" lon="6.13634">
        <ele>485.6</ele>
        <time>2016-10-03T07:32:01Z</time>
      </trkpt>
      <trkpt lat="46.14518" lon="6.13635">
        <ele>486.56</ele>
        <time>2016-10-03T07:32:19Z</time>
      </trkpt>
      <trkpt lat="46.14518" lon="6.13631">
        <ele>487.05</ele>
        <time>2016-10-03T07:32:44Z</time>
      </trkpt>
      <trkpt lat="46.14516" lon="6.13628">
        <ele>486.08</ele>
        <time>2016-10-03T07:33:05Z</time>
      </trkpt>
      <trkpt lat="46.14518" lon="6.13628">
        <ele>487.05</ele>
        <time>2016-10-03T07:33:26Z</time>
      </trkpt>
      <trkpt lat="46.14514" lon="6.13626">
        <ele>486.08</ele>
        <time>2016-10-03T07:33:35Z</time>
      </trkpt>
      <trkpt lat="46.14513" lon="6.13625">
        <ele>486.56</ele>
        <time>2016-10-03T07:33:36Z</time>
      </trkpt>
      <trkpt lat="46.14511" lon="6.13625">
        <ele>486.08</ele>
        <time>2016-10-03T07:33:37Z</time>
      </trkpt>
      <trkpt lat="46.14508" lon="6.13625">
        <ele>486.56</ele>
        <time>2016-10-03T07:33:38Z</time>
      </trkpt>
      <trkpt lat="46.14505" lon="6.13625">
        <ele>486.08</ele>
        <time>2016-10-03T07:33:39Z</time>
      </trkpt>
      <trkpt lat="46.14502" lon="6.13626">
        <ele>486.56</ele>
        <time>2016-10-03T07:33:40Z</time>
      </trkpt>
      <trkpt lat="46.145" lon="6.13628">
        <ele>486.56</ele>
        <time>2016-10-03T07:33:41Z</time>
      </trkpt>
      <trkpt lat="46.14497" lon="6.13632">
        <ele>487.05</ele>
        <time>2016-10-03T07:33:42Z</time>
      </trkpt>
      <trkpt lat="46.14494" lon="6.13639">
        <ele>487.05</ele>
        <time>2016-10-03T07:33:43Z</time>
      </trkpt>
      <trkpt lat="46.14441" lon="6.13702">
        <ele>485.6</ele>
        <time>2016-10-03T07:33:56Z</time>
      </trkpt>
      <trkpt lat="46.14419" lon="6.13727">
        <ele>485.12</ele>
        <time>2016-10-03T07:34:01Z</time>
      </trkpt>
      <trkpt lat="46.14415" lon="6.13729">
        <ele>484.64</ele>
        <time>2016-10-03T07:34:02Z</time>
      </trkpt>
      <trkpt lat="46.14412" lon="6.13729">
        <ele>484.64</ele>
        <time>2016-10-03T07:34:03Z</time>
      </trkpt>
      <trkpt lat="46.14409" lon="6.13726">
        <ele>483.68</ele>
        <time>2016-10-03T07:34:05Z</time>
      </trkpt>
      <trkpt lat="46.14407" lon="6.13722">
        <ele>483.68</ele>
        <time>2016-10-03T07:34:08Z</time>
      </trkpt>
      <trkpt lat="46.14398" lon="6.13727">
        <ele>483.68</ele>
        <time>2016-10-03T07:34:21Z</time>
      </trkpt>
      <trkpt lat="46.14403" lon="6.13734">
        <ele>483.68</ele>
        <time>2016-10-03T07:34:46Z</time>
      </trkpt>
      <trkpt lat="46.14411" lon="6.13738">
        <ele>483.68</ele>
        <time>2016-10-03T07:35:14Z</time>
      </trkpt>
      <trkpt lat="46.14402" lon="6.13734">
        <ele>483.68</ele>
        <time>2016-10-03T07:35:46Z</time>
      </trkpt>
      <trkpt lat="46.14396" lon="6.13734">
        <ele>484.16</ele>
        <time>2016-10-03T07:36:14Z</time>
      </trkpt>
      <trkpt lat="46.14396" lon="6.13738">
        <ele>483.68</ele>
        <time>2016-10-03T07:36:32Z</time>
      </trkpt>
      <trkpt lat="46.14396" lon="6.13742">
        <ele>484.16</ele>
        <time>2016-10-03T07:36:42Z</time>
      </trkpt>
      <trkpt lat="46.14395" lon="6.13748">
        <ele>484.16</ele>
        <time>2016-10-03T07:36:45Z</time>
      </trkpt>
      <trkpt lat="46.14394" lon="6.13752">
        <ele>484.16</ele>
        <time>2016-10-03T07:36:46Z</time>
      </trkpt>
      <trkpt lat="46.14393" lon="6.13756">
        <ele>484.64</ele>
        <time>2016-10-03T07:36:47Z</time>
      </trkpt>
      <trkpt lat="46.14384" lon="6.13778">
        <ele>485.12</ele>
        <time>2016-10-03T07:36:54Z</time>
      </trkpt>
      <trkpt lat="46.14383" lon="6.13781">
        <ele>484.64</ele>
        <time>2016-10-03T07:36:55Z</time>
      </trkpt>
      <trkpt lat="46.14381" lon="6.13784">
        <ele>484.64</ele>
        <time>2016-10-03T07:36:56Z</time>
      </trkpt>
      <trkpt lat="46.14377" lon="6.13788">
        <ele>484.64</ele>
        <time>2016-10-03T07:36:57Z</time>
      </trkpt>
      <trkpt lat="46.14373" lon="6.13792">
        <ele>484.64</ele>
        <time>2016-10-03T07:36:58Z</time>
      </trkpt>
      <trkpt lat="46.1437" lon="6.13797">
        <ele>484.64</ele>
        <time>2016-10-03T07:36:59Z</time>
      </trkpt>
      <trkpt lat="46.14367" lon="6.13801">
        <ele>484.64</ele>
        <time>2016-10-03T07:37:00Z</time>
      </trkpt>
      <trkpt lat="46.14359" lon="6.13815">
        <ele>484.64</ele>
        <time>2016-10-03T07:37:03Z</time>
      </trkpt>
      <trkpt lat="46.1435" lon="6.13828">
        <ele>484.64</ele>
        <time>2016-10-03T07:37:06Z</time>
      </trkpt>
      <trkpt lat="46.14304" lon="6.13888">
        <ele>485.12</ele>
        <time>2016-10-03T07:37:19Z</time>
      </trkpt>
      <trkpt lat="46.143" lon="6.13893">
        <ele>485.12</ele>
        <time>2016-10-03T07:37:20Z</time>
      </trkpt>
      <trkpt lat="46.14261" lon="6.13945">
        <ele>484.64</ele>
        <time>2016-10-03T07:37:31Z</time>
      </trkpt>
      <trkpt lat="46.14257" lon="6.13948">
        <ele>485.12</ele>
        <time>2016-10-03T07:37:32Z</time>
      </trkpt>
      <trkpt lat="46.14232" lon="6.13977">
        <ele>487.05</ele>
        <time>2016-10-03T07:37:42Z</time>
      </trkpt>
      <trkpt lat="46.14213" lon="6.13982">
        <ele>488.01</ele>
        <time>2016-10-03T07:37:55Z</time>
      </trkpt>
      <trkpt lat="46.14211" lon="6.13984">
        <ele>487.53</ele>
        <time>2016-10-03T07:37:56Z</time>
      </trkpt>
      <trkpt lat="46.1421" lon="6.13987">
        <ele>488.49</ele>
        <time>2016-10-03T07:37:57Z</time>
      </trkpt>
      <trkpt lat="46.14209" lon="6.13991">
        <ele>487.53</ele>
        <time>2016-10-03T07:37:58Z</time>
      </trkpt>
      <trkpt lat="46.14208" lon="6.13995">
        <ele>488.01</ele>
        <time>2016-10-03T07:37:59Z</time>
      </trkpt>
      <trkpt lat="46.14208" lon="6.13999">
        <ele>487.53</ele>
        <time>2016-10-03T07:38:00Z</time>
      </trkpt>
      <trkpt lat="46.14207" lon="6.14004">
        <ele>487.53</ele>
        <time>2016-10-03T07:38:01Z</time>
      </trkpt>
      <trkpt lat="46.14196" lon="6.14049">
        <ele>488.01</ele>
        <time>2016-10-03T07:38:14Z</time>
      </trkpt>
      <trkpt lat="46.14175" lon="6.1408">
        <ele>489.45</ele>
        <time>2016-10-03T07:38:25Z</time>
      </trkpt>
      <trkpt lat="46.14159" lon="6.14102">
        <ele>489.93</ele>
        <time>2016-10-03T07:38:33Z</time>
      </trkpt>
      <trkpt lat="46.14157" lon="6.14104">
        <ele>490.41</ele>
        <time>2016-10-03T07:38:34Z</time>
      </trkpt>
      <trkpt lat="46.14154" lon="6.14107">
        <ele>490.41</ele>
        <time>2016-10-03T07:38:35Z</time>
      </trkpt>
      <trkpt lat="46.14152" lon="6.1411">
        <ele>490.89</ele>
        <time>2016-10-03T07:38:36Z</time>
      </trkpt>
      <trkpt lat="46.14139" lon="6.1412">
        <ele>490.89</ele>
        <time>2016-10-03T07:38:42Z</time>
      </trkpt>
      <trkpt lat="46.14137" lon="6.14119">
        <ele>491.37</ele>
        <time>2016-10-03T07:38:43Z</time>
      </trkpt>
      <trkpt lat="46.14135" lon="6.14117">
        <ele>491.37</ele>
        <time>2016-10-03T07:38:44Z</time>
      </trkpt>
      <trkpt lat="46.14119" lon="6.14095">
        <ele>492.81</ele>
        <time>2016-10-03T07:38:57Z</time>
      </trkpt>
      <trkpt lat="46.14118" lon="6.14092">
        <ele>493.77</ele>
        <time>2016-10-03T07:39:01Z</time>
      </trkpt>
      <trkpt lat="46.14119" lon="6.1409">
        <ele>493.29</ele>
        <time>2016-10-03T07:39:02Z</time>
      </trkpt>
      <trkpt lat="46.14119" lon="6.14089">
        <ele>492.81</ele>
        <time>2016-10-03T07:39:03Z</time>
      </trkpt>
      <trkpt lat="46.14119" lon="6.14087">
        <ele>493.29</ele>
        <time>2016-10-03T07:39:04Z</time>
      </trkpt>
      <trkpt lat="46.14118" lon="6.14085">
        <ele>492.81</ele>
        <time>2016-10-03T07:39:05Z</time>
      </trkpt>
      <trkpt lat="46.14117" lon="6.14083">
        <ele>493.29</ele>
        <time>2016-10-03T07:39:06Z</time>
      </trkpt>
      <trkpt lat="46.14115" lon="6.14084">
        <ele>493.29</ele>
        <time>2016-10-03T07:39:07Z</time>
      </trkpt>
      <trkpt lat="46.14115" lon="6.14085">
        <ele>493.29</ele>
        <time>2016-10-03T07:39:08Z</time>
      </trkpt>
      <trkpt lat="46.14115" lon="6.14086">
        <ele>493.29</ele>
        <time>2016-10-03T07:39:09Z</time>
      </trkpt>
      <trkpt lat="46.14115" lon="6.14088">
        <ele>493.29</ele>
        <time>2016-10-03T07:39:10Z</time>
      </trkpt>
      <trkpt lat="46.14136" lon="6.14127">
        <ele>491.85</ele>
        <time>2016-10-03T07:39:20Z</time>
      </trkpt>
      <trkpt lat="46.14146" lon="6.14163">
        <ele>493.29</ele>
        <time>2016-10-03T07:39:30Z</time>
      </trkpt>
      <trkpt lat="46.14146" lon="6.14221">
        <ele>496.66</ele>
        <time>2016-10-03T07:39:44Z</time>
      </trkpt>
      <trkpt lat="46.14133" lon="6.14265">
        <ele>498.58</ele>
        <time>2016-10-03T07:39:58Z</time>
      </trkpt>
      <trkpt lat="46.14111" lon="6.14294">
        <ele>500.02</ele>
        <time>2016-10-03T07:40:14Z</time>
      </trkpt>
      <trkpt lat="46.14062" lon="6.1425">
        <ele>499.54</ele>
        <time>2016-10-03T07:40:31Z</time>
      </trkpt>
      <trkpt lat="46.14014" lon="6.14176">
        <ele>500.5</ele>
        <time>2016-10-03T07:40:48Z</time>
      </trkpt>
      <trkpt lat="46.13979" lon="6.14116">
        <ele>502.43</ele>
        <time>2016-10-03T07:41:03Z</time>
      </trkpt>
      <trkpt lat="46.13967" lon="6.14095">
        <ele>504.35</ele>
        <time>2016-10-03T07:41:17Z</time>
      </trkpt>
      <trkpt lat="46.13967" lon="6.14096">
        <ele>504.35</ele>
        <time>2016-10-03T07:41:39Z</time>
      </trkpt>
      <trkpt lat="46.13965" lon="6.14095">
        <ele>504.83</ele>
        <time>2016-10-03T07:41:42Z</time>
      </trkpt>
      <trkpt lat="46.13964" lon="6.14094">
        <ele>505.31</ele>
        <time>2016-10-03T07:41:43Z</time>
      </trkpt>
      <trkpt lat="46.13963" lon="6.14093">
        <ele>504.83</ele>
        <time>2016-10-03T07:41:44Z</time>
      </trkpt>
      <trkpt lat="46.13962" lon="6.14092">
        <ele>504.83</ele>
        <time>2016-10-03T07:41:45Z</time>
      </trkpt>
      <trkpt lat="46.13961" lon="6.1409">
        <ele>505.79</ele>
        <time>2016-10-03T07:41:46Z</time>
      </trkpt>
      <trkpt lat="46.13961" lon="6.14089">
        <ele>505.79</ele>
        <time>2016-10-03T07:41:47Z</time>
      </trkpt>
      <trkpt lat="46.1396" lon="6.14087">
        <ele>505.31</ele>
        <time>2016-10-03T07:41:48Z</time>
      </trkpt>
      <trkpt lat="46.13949" lon="6.14066">
        <ele>508.19</ele>
        <time>2016-10-03T07:42:02Z</time>
      </trkpt>
      <trkpt lat="46.13938" lon="6.14041">
        <ele>511.56</ele>
        <time>2016-10-03T07:42:17Z</time>
      </trkpt>
      <trkpt lat="46.13924" lon="6.14016">
        <ele>514.44</ele>
        <time>2016-10-03T07:42:33Z</time>
      </trkpt>
      <trkpt lat="46.13923" lon="6.14014">
        <ele>514.44</ele>
        <time>2016-10-03T07:42:34Z</time>
      </trkpt>
      <trkpt lat="46.13911" lon="6.13996">
        <ele>517.81</ele>
        <time>2016-10-03T07:42:47Z</time>
      </trkpt>
      <trkpt lat="46.13894" lon="6.13975">
        <ele>521.17</ele>
        <time>2016-10-03T07:43:02Z</time>
      </trkpt>
      <trkpt lat="46.13874" lon="6.13953">
        <ele>522.61</ele>
        <time>2016-10-03T07:43:19Z</time>
      </trkpt>
      <trkpt lat="46.13839" lon="6.13927">
        <ele>524.06</ele>
        <time>2016-10-03T07:43:36Z</time>
      </trkpt>
      <trkpt lat="46.13803" lon="6.13905">
        <ele>526.46</ele>
        <time>2016-10-03T07:43:52Z</time>
      </trkpt>
      <trkpt lat="46.13756" lon="6.13869">
        <ele>527.9</ele>
        <time>2016-10-03T07:44:12Z</time>
      </trkpt>
      <trkpt lat="46.13719" lon="6.13812">
        <ele>529.34</ele>
        <time>2016-10-03T07:44:30Z</time>
      </trkpt>
      <trkpt lat="46.13692" lon="6.13756">
        <ele>531.27</ele>
        <time>2016-10-03T07:44:44Z</time>
      </trkpt>
      <trkpt lat="46.13664" lon="6.13707">
        <ele>532.71</ele>
        <time>2016-10-03T07:44:59Z</time>
      </trkpt>
      <trkpt lat="46.13632" lon="6.13656">
        <ele>535.11</ele>
        <time>2016-10-03T07:45:17Z</time>
      </trkpt>
      <trkpt lat="46.1361" lon="6.1362">
        <ele>538.48</ele>
        <time>2016-10-03T07:45:32Z</time>
      </trkpt>
      <trkpt lat="46.13592" lon="6.13589">
        <ele>540.4</ele>
        <time>2016-10-03T07:45:46Z</time>
      </trkpt>
      <trkpt lat="46.13572" lon="6.1356">
        <ele>541.84</ele>
        <time>2016-10-03T07:46:00Z</time>
      </trkpt>
      <trkpt lat="46.13552" lon="6.13539">
        <ele>543.76</ele>
        <time>2016-10-03T07:46:12Z</time>
      </trkpt>
      <trkpt lat="46.1355" lon="6.13533">
        <ele>544.72</ele>
        <time>2016-10-03T07:46:15Z</time>
      </trkpt>
      <trkpt lat="46.13548" lon="6.13531">
        <ele>544.72</ele>
        <time>2016-10-03T07:46:16Z</time>
      </trkpt>
      <trkpt lat="46.13516" lon="6.13492">
        <ele>546.17</ele>
        <time>2016-10-03T07:46:33Z</time>
      </trkpt>
      <trkpt lat="46.13477" lon="6.13464">
        <ele>545.2</ele>
        <time>2016-10-03T07:46:46Z</time>
      </trkpt>
      <trkpt lat="46.1347" lon="6.13459">
        <ele>544.72</ele>
        <time>2016-10-03T07:46:49Z</time>
      </trkpt>
      <trkpt lat="46.13469" lon="6.13456">
        <ele>545.2</ele>
        <time>2016-10-03T07:46:50Z</time>
      </trkpt>
      <trkpt lat="46.13469" lon="6.13451">
        <ele>544.72</ele>
        <time>2016-10-03T07:46:51Z</time>
      </trkpt>
      <trkpt lat="46.1347" lon="6.13414">
        <ele>543.28</ele>
        <time>2016-10-03T07:46:57Z</time>
      </trkpt>
      <trkpt lat="46.13471" lon="6.13407">
        <ele>542.32</ele>
        <time>2016-10-03T07:46:58Z</time>
      </trkpt>
      <trkpt lat="46.13475" lon="6.13385">
        <ele>542.32</ele>
        <time>2016-10-03T07:47:01Z</time>
      </trkpt>
      <trkpt lat="46.13483" lon="6.13362">
        <ele>542.32</ele>
        <time>2016-10-03T07:47:05Z</time>
      </trkpt>
      <trkpt lat="46.13484" lon="6.13356">
        <ele>542.32</ele>
        <time>2016-10-03T07:47:06Z</time>
      </trkpt>
      <trkpt lat="46.13483" lon="6.13351">
        <ele>542.32</ele>
        <time>2016-10-03T07:47:07Z</time>
      </trkpt>
      <trkpt lat="46.1348" lon="6.13347">
        <ele>542.32</ele>
        <time>2016-10-03T07:47:08Z</time>
      </trkpt>
      <trkpt lat="46.13477" lon="6.13344">
        <ele>542.32</ele>
        <time>2016-10-03T07:47:09Z</time>
      </trkpt>
      <trkpt lat="46.13474" lon="6.13342">
        <ele>542.32</ele>
        <time>2016-10-03T07:47:10Z</time>
      </trkpt>
      <trkpt lat="46.13444" lon="6.13317">
        <ele>544.72</ele>
        <time>2016-10-03T07:47:23Z</time>
      </trkpt>
      <trkpt lat="46.13408" lon="6.13287">
        <ele>547.13</ele>
        <time>2016-10-03T07:47:43Z</time>
      </trkpt>
      <trkpt lat="46.13374" lon="6.13271">
        <ele>549.53</ele>
        <time>2016-10-03T07:48:01Z</time>
      </trkpt>
      <trkpt lat="46.13349" lon="6.13262">
        <ele>551.45</ele>
        <time>2016-10-03T07:48:16Z</time>
      </trkpt>
      <trkpt lat="46.13319" lon="6.13247">
        <ele>553.86</ele>
        <time>2016-10-03T07:48:34Z</time>
      </trkpt>
      <trkpt lat="46.13287" lon="6.13239">
        <ele>557.22</ele>
        <time>2016-10-03T07:48:51Z</time>
      </trkpt>
      <trkpt lat="46.13262" lon="6.13232">
        <ele>559.62</ele>
        <time>2016-10-03T07:49:05Z</time>
      </trkpt>
      <trkpt lat="46.13237" lon="6.13224">
        <ele>561.07</ele>
        <time>2016-10-03T07:49:21Z</time>
      </trkpt>
      <trkpt lat="46.1322" lon="6.13211">
        <ele>562.99</ele>
        <time>2016-10-03T07:49:35Z</time>
      </trkpt>
      <trkpt lat="46.13195" lon="6.13227">
        <ele>564.91</ele>
        <time>2016-10-03T07:49:51Z</time>
      </trkpt>
      <trkpt lat="46.13168" lon="6.13249">
        <ele>568.28</ele>
        <time>2016-10-03T07:50:11Z</time>
      </trkpt>
      <trkpt lat="46.13156" lon="6.13258">
        <ele>569.24</ele>
        <time>2016-10-03T07:50:21Z</time>
      </trkpt>
      <trkpt lat="46.13155" lon="6.13259">
        <ele>569.24</ele>
        <time>2016-10-03T07:50:22Z</time>
      </trkpt>
      <trkpt lat="46.13154" lon="6.1326">
        <ele>569.24</ele>
        <time>2016-10-03T07:50:23Z</time>
      </trkpt>
      <trkpt lat="46.13153" lon="6.13261">
        <ele>569.72</ele>
        <time>2016-10-03T07:50:24Z</time>
      </trkpt>
      <trkpt lat="46.13152" lon="6.13262">
        <ele>570.2</ele>
        <time>2016-10-03T07:50:25Z</time>
      </trkpt>
      <trkpt lat="46.13124" lon="6.13276">
        <ele>573.08</ele>
        <time>2016-10-03T07:50:41Z</time>
      </trkpt>
      <trkpt lat="46.13095" lon="6.13282">
        <ele>575.01</ele>
        <time>2016-10-03T07:50:58Z</time>
      </trkpt>
      <trkpt lat="46.13057" lon="6.1328">
        <ele>576.93</ele>
        <time>2016-10-03T07:51:19Z</time>
      </trkpt>
      <trkpt lat="46.13024" lon="6.13277">
        <ele>580.29</ele>
        <time>2016-10-03T07:51:37Z</time>
      </trkpt>
      <trkpt lat="46.12989" lon="6.13271">
        <ele>581.73</ele>
        <time>2016-10-03T07:51:55Z</time>
      </trkpt>
      <trkpt lat="46.12954" lon="6.13263">
        <ele>583.18</ele>
        <time>2016-10-03T07:52:12Z</time>
      </trkpt>
      <trkpt lat="46.12917" lon="6.13252">
        <ele>586.54</ele>
        <time>2016-10-03T07:52:31Z</time>
      </trkpt>
      <trkpt lat="46.12915" lon="6.13252">
        <ele>586.54</ele>
        <time>2016-10-03T07:52:32Z</time>
      </trkpt>
      <trkpt lat="46.12886" lon="6.13246">
        <ele>588.95</ele>
        <time>2016-10-03T07:52:49Z</time>
      </trkpt>
      <trkpt lat="46.12854" lon="6.13238">
        <ele>590.87</ele>
        <time>2016-10-03T07:53:07Z</time>
      </trkpt>
      <trkpt lat="46.12821" lon="6.13232">
        <ele>592.31</ele>
        <time>2016-10-03T07:53:25Z</time>
      </trkpt>
      <trkpt lat="46.12792" lon="6.13228">
        <ele>594.71</ele>
        <time>2016-10-03T07:53:41Z</time>
      </trkpt>
      <trkpt lat="46.12753" lon="6.13222">
        <ele>596.64</ele>
        <time>2016-10-03T07:54:00Z</time>
      </trkpt>
      <trkpt lat="46.12714" lon="6.13214">
        <ele>598.56</ele>
        <time>2016-10-03T07:54:19Z</time>
      </trkpt>
      <trkpt lat="46.12675" lon="6.13206">
        <ele>600.48</ele>
        <time>2016-10-03T07:54:38Z</time>
      </trkpt>
      <trkpt lat="46.12642" lon="6.13188">
        <ele>603.85</ele>
        <time>2016-10-03T07:54:57Z</time>
      </trkpt>
      <trkpt lat="46.12613" lon="6.13168">
        <ele>605.77</ele>
        <time>2016-10-03T07:55:15Z</time>
      </trkpt>
      <trkpt lat="46.12592" lon="6.13154">
        <ele>608.65</ele>
        <time>2016-10-03T07:55:28Z</time>
      </trkpt>
      <trkpt lat="46.12563" lon="6.13134">
        <ele>611.54</ele>
        <time>2016-10-03T07:55:46Z</time>
      </trkpt>
      <trkpt lat="46.12539" lon="6.13116">
        <ele>614.42</ele>
        <time>2016-10-03T07:56:01Z</time>
      </trkpt>
      <trkpt lat="46.12508" lon="6.13096">
        <ele>616.82</ele>
        <time>2016-10-03T07:56:20Z</time>
      </trkpt>
      <trkpt lat="46.12473" lon="6.13065">
        <ele>619.71</ele>
        <time>2016-10-03T07:56:42Z</time>
      </trkpt>
      <trkpt lat="46.12442" lon="6.13035">
        <ele>622.11</ele>
        <time>2016-10-03T07:57:01Z</time>
      </trkpt>
      <trkpt lat="46.12411" lon="6.13009">
        <ele>624.03</ele>
        <time>2016-10-03T07:57:17Z</time>
      </trkpt>
      <trkpt lat="46.12372" lon="6.12971">
        <ele>624.03</ele>
        <time>2016-10-03T07:57:34Z</time>
      </trkpt>
      <trkpt lat="46.12317" lon="6.12923">
        <ele>624.99</ele>
        <time>2016-10-03T07:57:52Z</time>
      </trkpt>
      <trkpt lat="46.12279" lon="6.12889">
        <ele>624.51</ele>
        <time>2016-10-03T07:58:03Z</time>
      </trkpt>
      <trkpt lat="46.12275" lon="6.12885">
        <ele>624.51</ele>
        <time>2016-10-03T07:58:04Z</time>
      </trkpt>
      <trkpt lat="46.12271" lon="6.12881">
        <ele>624.51</ele>
        <time>2016-10-03T07:58:05Z</time>
      </trkpt>
      <trkpt lat="46.12206" lon="6.12832">
        <ele>626.44</ele>
        <time>2016-10-03T07:58:25Z</time>
      </trkpt>
      <trkpt lat="46.12179" lon="6.12798">
        <ele>627.88</ele>
        <time>2016-10-03T07:58:37Z</time>
      </trkpt>
      <trkpt lat="46.12153" lon="6.12781">
        <ele>629.8</ele>
        <time>2016-10-03T07:58:52Z</time>
      </trkpt>
      <trkpt lat="46.1212" lon="6.12759">
        <ele>631.72</ele>
        <time>2016-10-03T07:59:10Z</time>
      </trkpt>
      <trkpt lat="46.12084" lon="6.12736">
        <ele>633.65</ele>
        <time>2016-10-03T07:59:28Z</time>
      </trkpt>
      <trkpt lat="46.12057" lon="6.12727">
        <ele>636.05</ele>
        <time>2016-10-03T07:59:42Z</time>
      </trkpt>
      <trkpt lat="46.12033" lon="6.12714">
        <ele>638.45</ele>
        <time>2016-10-03T07:59:57Z</time>
      </trkpt>
      <trkpt lat="46.12" lon="6.1269">
        <ele>639.89</ele>
        <time>2016-10-03T08:00:17Z</time>
      </trkpt>
      <trkpt lat="46.1198" lon="6.12664">
        <ele>641.82</ele>
        <time>2016-10-03T08:00:33Z</time>
      </trkpt>
      <trkpt lat="46.11963" lon="6.12623">
        <ele>644.7</ele>
        <time>2016-10-03T08:00:52Z</time>
      </trkpt>
      <trkpt lat="46.11951" lon="6.12588">
        <ele>647.1</ele>
        <time>2016-10-03T08:01:07Z</time>
      </trkpt>
      <trkpt lat="46.11947" lon="6.12583">
        <ele>647.1</ele>
        <time>2016-10-03T08:01:10Z</time>
      </trkpt>
      <trkpt lat="46.11934" lon="6.12545">
        <ele>649.51</ele>
        <time>2016-10-03T08:01:26Z</time>
      </trkpt>
      <trkpt lat="46.11924" lon="6.12512">
        <ele>649.51</ele>
        <time>2016-10-03T08:01:39Z</time>
      </trkpt>
      <trkpt lat="46.11926" lon="6.12463">
        <ele>651.43</ele>
        <time>2016-10-03T08:01:55Z</time>
      </trkpt>
      <trkpt lat="46.11927" lon="6.12419">
        <ele>653.35</ele>
        <time>2016-10-03T08:02:10Z</time>
      </trkpt>
      <trkpt lat="46.11926" lon="6.1237">
        <ele>655.28</ele>
        <time>2016-10-03T08:02:27Z</time>
      </trkpt>
      <trkpt lat="46.11908" lon="6.12311">
        <ele>657.2</ele>
        <time>2016-10-03T08:02:48Z</time>
      </trkpt>
      <trkpt lat="46.11883" lon="6.12263">
        <ele>660.56</ele>
        <time>2016-10-03T08:03:08Z</time>
      </trkpt>
      <trkpt lat="46.11853" lon="6.12227">
        <ele>662.49</ele>
        <time>2016-10-03T08:03:28Z</time>
      </trkpt>
      <trkpt lat="46.11821" lon="6.12197">
        <ele>665.37</ele>
        <time>2016-10-03T08:03:47Z</time>
      </trkpt>
      <trkpt lat="46.1179" lon="6.12189">
        <ele>667.77</ele>
        <time>2016-10-03T08:04:03Z</time>
      </trkpt>
      <trkpt lat="46.1175" lon="6.12192">
        <ele>670.18</ele>
        <time>2016-10-03T08:04:24Z</time>
      </trkpt>
      <trkpt lat="46.11721" lon="6.12199">
        <ele>672.1</ele>
        <time>2016-10-03T08:04:39Z</time>
      </trkpt>
      <trkpt lat="46.1169" lon="6.12213">
        <ele>674.5</ele>
        <time>2016-10-03T08:04:55Z</time>
      </trkpt>
      <trkpt lat="46.11655" lon="6.12231">
        <ele>677.39</ele>
        <time>2016-10-03T08:05:14Z</time>
      </trkpt>
      <trkpt lat="46.11615" lon="6.12214">
        <ele>678.35</ele>
        <time>2016-10-03T08:05:32Z</time>
      </trkpt>
      <trkpt lat="46.11577" lon="6.12171">
        <ele>679.79</ele>
        <time>2016-10-03T08:05:50Z</time>
      </trkpt>
      <trkpt lat="46.11546" lon="6.12139">
        <ele>681.23</ele>
        <time>2016-10-03T08:06:04Z</time>
      </trkpt>
      <trkpt lat="46.11513" lon="6.12097">
        <ele>683.15</ele>
        <time>2016-10-03T08:06:20Z</time>
      </trkpt>
      <trkpt lat="46.1148" lon="6.12046">
        <ele>684.6</ele>
        <time>2016-10-03T08:06:38Z</time>
      </trkpt>
      <trkpt lat="46.11448" lon="6.11993">
        <ele>684.6</ele>
        <time>2016-10-03T08:06:55Z</time>
      </trkpt>
      <trkpt lat="46.11408" lon="6.1192">
        <ele>682.19</ele>
        <time>2016-10-03T08:07:09Z</time>
      </trkpt>
      <trkpt lat="46.1135" lon="6.11805">
        <ele>680.75</ele>
        <time>2016-10-03T08:07:25Z</time>
      </trkpt>
      <trkpt lat="46.11295" lon="6.11697">
        <ele>680.27</ele>
        <time>2016-10-03T08:07:39Z</time>
      </trkpt>
      <trkpt lat="46.11243" lon="6.11636">
        <ele>680.75</ele>
        <time>2016-10-03T08:07:52Z</time>
      </trkpt>
      <trkpt lat="46.11239" lon="6.11633">
        <ele>680.75</ele>
        <time>2016-10-03T08:07:53Z</time>
      </trkpt>
      <trkpt lat="46.11185" lon="6.11602">
        <ele>681.71</ele>
        <time>2016-10-03T08:08:06Z</time>
      </trkpt>
      <trkpt lat="46.11176" lon="6.11595">
        <ele>681.23</ele>
        <time>2016-10-03T08:08:08Z</time>
      </trkpt>
      <trkpt lat="46.11172" lon="6.11592">
        <ele>681.23</ele>
        <time>2016-10-03T08:08:09Z</time>
      </trkpt>
      <trkpt lat="46.11125" lon="6.11556">
        <ele>682.67</ele>
        <time>2016-10-03T08:08:23Z</time>
      </trkpt>
      <trkpt lat="46.11109" lon="6.11549">
        <ele>685.08</ele>
        <time>2016-10-03T08:08:33Z</time>
      </trkpt>
      <trkpt lat="46.1108" lon="6.11544">
        <ele>687</ele>
        <time>2016-10-03T08:08:47Z</time>
      </trkpt>
      <trkpt lat="46.11053" lon="6.11543">
        <ele>689.4</ele>
        <time>2016-10-03T08:09:02Z</time>
      </trkpt>
      <trkpt lat="46.11014" lon="6.11538">
        <ele>691.33</ele>
        <time>2016-10-03T08:09:17Z</time>
      </trkpt>
      <trkpt lat="46.10973" lon="6.11529">
        <ele>691.81</ele>
        <time>2016-10-03T08:09:33Z</time>
      </trkpt>
      <trkpt lat="46.10903" lon="6.11522">
        <ele>690.84</ele>
        <time>2016-10-03T08:09:51Z</time>
      </trkpt>
      <trkpt lat="46.1086" lon="6.11515">
        <ele>690.84</ele>
        <time>2016-10-03T08:10:03Z</time>
      </trkpt>
      <trkpt lat="46.10858" lon="6.11513">
        <ele>690.84</ele>
        <time>2016-10-03T08:10:15Z</time>
      </trkpt>
      <trkpt lat="46.10861" lon="6.11512">
        <ele>691.33</ele>
        <time>2016-10-03T08:10:57Z</time>
      </trkpt>
      <trkpt lat="46.10857" lon="6.11512">
        <ele>690.36</ele>
        <time>2016-10-03T08:11:48Z</time>
      </trkpt>
      <trkpt lat="46.10862" lon="6.11511">
        <ele>690.36</ele>
        <time>2016-10-03T08:12:36Z</time>
      </trkpt>
      <trkpt lat="46.10865" lon="6.11512">
        <ele>690.84</ele>
        <time>2016-10-03T08:12:59Z</time>
      </trkpt>
      <trkpt lat="46.10863" lon="6.11509">
        <ele>690.36</ele>
        <time>2016-10-03T08:13:26Z</time>
      </trkpt>
      <trkpt lat="46.10857" lon="6.11511">
        <ele>689.88</ele>
        <time>2016-10-03T08:14:01Z</time>
      </trkpt>
      <trkpt lat="46.1086" lon="6.11511">
        <ele>689.4</ele>
        <time>2016-10-03T08:14:30Z</time>
      </trkpt>
      <trkpt lat="46.10861" lon="6.11512">
        <ele>689.4</ele>
        <time>2016-10-03T08:14:59Z</time>
      </trkpt>
      <trkpt lat="46.10856" lon="6.11513">
        <ele>689.4</ele>
        <time>2016-10-03T08:15:40Z</time>
      </trkpt>
      <trkpt lat="46.10861" lon="6.1151">
        <ele>688.92</ele>
        <time>2016-10-03T08:16:13Z</time>
      </trkpt>
      <trkpt lat="46.10855" lon="6.11513">
        <ele>688.92</ele>
        <time>2016-10-03T08:16:27Z</time>
      </trkpt>
      <trkpt lat="46.10852" lon="6.11514">
        <ele>688.92</ele>
        <time>2016-10-03T08:16:36Z</time>
      </trkpt>
      <trkpt lat="46.1085" lon="6.11514">
        <ele>688.92</ele>
        <time>2016-10-03T08:16:37Z</time>
      </trkpt>
      <trkpt lat="46.10848" lon="6.11514">
        <ele>689.4</ele>
        <time>2016-10-03T08:16:38Z</time>
      </trkpt>
      <trkpt lat="46.10846" lon="6.11513">
        <ele>689.4</ele>
        <time>2016-10-03T08:16:39Z</time>
      </trkpt>
      <trkpt lat="46.10844" lon="6.11512">
        <ele>689.88</ele>
        <time>2016-10-03T08:16:40Z</time>
      </trkpt>
      <trkpt lat="46.10843" lon="6.11511">
        <ele>689.4</ele>
        <time>2016-10-03T08:16:41Z</time>
      </trkpt>
      <trkpt lat="46.10796" lon="6.11497">
        <ele>689.4</ele>
        <time>2016-10-03T08:16:58Z</time>
      </trkpt>
      <trkpt lat="46.10744" lon="6.11472">
        <ele>691.33</ele>
        <time>2016-10-03T08:17:17Z</time>
      </trkpt>
      <trkpt lat="46.10691" lon="6.11444">
        <ele>692.29</ele>
        <time>2016-10-03T08:17:36Z</time>
      </trkpt>
      <trkpt lat="46.10619" lon="6.11408">
        <ele>692.29</ele>
        <time>2016-10-03T08:17:53Z</time>
      </trkpt>
      <trkpt lat="46.10513" lon="6.11367">
        <ele>689.88</ele>
        <time>2016-10-03T08:18:12Z</time>
      </trkpt>
      <trkpt lat="46.10413" lon="6.11307">
        <ele>690.36</ele>
        <time>2016-10-03T08:18:30Z</time>
      </trkpt>
      <trkpt lat="46.10319" lon="6.11249">
        <ele>687</ele>
        <time>2016-10-03T08:18:45Z</time>
      </trkpt>
      <trkpt lat="46.10268" lon="6.11237">
        <ele>684.12</ele>
        <time>2016-10-03T08:18:51Z</time>
      </trkpt>
      <trkpt lat="46.10211" lon="6.11232">
        <ele>680.75</ele>
        <time>2016-10-03T08:18:57Z</time>
      </trkpt>
      <trkpt lat="46.10159" lon="6.11225">
        <ele>678.35</ele>
        <time>2016-10-03T08:19:02Z</time>
      </trkpt>
      <trkpt lat="46.10118" lon="6.11211">
        <ele>675.46</ele>
        <time>2016-10-03T08:19:06Z</time>
      </trkpt>
      <trkpt lat="46.10098" lon="6.11201">
        <ele>674.5</ele>
        <time>2016-10-03T08:19:08Z</time>
      </trkpt>
      <trkpt lat="46.10088" lon="6.11193">
        <ele>674.02</ele>
        <time>2016-10-03T08:19:09Z</time>
      </trkpt>
      <trkpt lat="46.1008" lon="6.11184">
        <ele>673.54</ele>
        <time>2016-10-03T08:19:10Z</time>
      </trkpt>
      <trkpt lat="46.10063" lon="6.11164">
        <ele>672.58</ele>
        <time>2016-10-03T08:19:12Z</time>
      </trkpt>
      <trkpt lat="46.09975" lon="6.11066">
        <ele>671.14</ele>
        <time>2016-10-03T08:19:23Z</time>
      </trkpt>
      <trkpt lat="46.09896" lon="6.10975">
        <ele>667.77</ele>
        <time>2016-10-03T08:19:33Z</time>
      </trkpt>
      <trkpt lat="46.09808" lon="6.10894">
        <ele>665.85</ele>
        <time>2016-10-03T08:19:45Z</time>
      </trkpt>
      <trkpt lat="46.0978" lon="6.10871">
        <ele>667.29</ele>
        <time>2016-10-03T08:19:49Z</time>
      </trkpt>
      <trkpt lat="46.09679" lon="6.10776">
        <ele>666.81</ele>
        <time>2016-10-03T08:20:06Z</time>
      </trkpt>
      <trkpt lat="46.09584" lon="6.10689">
        <ele>668.25</ele>
        <time>2016-10-03T08:20:25Z</time>
      </trkpt>
      <trkpt lat="46.0958" lon="6.10685">
        <ele>667.77</ele>
        <time>2016-10-03T08:20:26Z</time>
      </trkpt>
      <trkpt lat="46.09577" lon="6.10681">
        <ele>668.25</ele>
        <time>2016-10-03T08:20:27Z</time>
      </trkpt>
      <trkpt lat="46.0954" lon="6.1061">
        <ele>670.18</ele>
        <time>2016-10-03T08:20:42Z</time>
      </trkpt>
      <trkpt lat="46.09493" lon="6.1055">
        <ele>672.1</ele>
        <time>2016-10-03T08:20:57Z</time>
      </trkpt>
      <trkpt lat="46.09469" lon="6.10504">
        <ele>672.1</ele>
        <time>2016-10-03T08:21:07Z</time>
      </trkpt>
      <trkpt lat="46.09445" lon="6.10435">
        <ele>672.1</ele>
        <time>2016-10-03T08:21:19Z</time>
      </trkpt>
      <trkpt lat="46.09442" lon="6.10431">
        <ele>672.1</ele>
        <time>2016-10-03T08:21:20Z</time>
      </trkpt>
      <trkpt lat="46.09439" lon="6.10427">
        <ele>672.1</ele>
        <time>2016-10-03T08:21:21Z</time>
      </trkpt>
      <trkpt lat="46.09437" lon="6.10424">
        <ele>672.58</ele>
        <time>2016-10-03T08:21:22Z</time>
      </trkpt>
      <trkpt lat="46.09434" lon="6.10422">
        <ele>673.06</ele>
        <time>2016-10-03T08:21:23Z</time>
      </trkpt>
      <trkpt lat="46.09432" lon="6.10421">
        <ele>673.06</ele>
        <time>2016-10-03T08:21:24Z</time>
      </trkpt>
      <trkpt lat="46.09407" lon="6.10424">
        <ele>674.5</ele>
        <time>2016-10-03T08:21:35Z</time>
      </trkpt>
      <trkpt lat="46.09402" lon="6.10421">
        <ele>674.02</ele>
        <time>2016-10-03T08:21:47Z</time>
      </trkpt>
      <trkpt lat="46.09404" lon="6.10417">
        <ele>674.02</ele>
        <time>2016-10-03T08:22:26Z</time>
      </trkpt>
      <trkpt lat="46.094" lon="6.10417">
        <ele>674.5</ele>
        <time>2016-10-03T08:22:53Z</time>
      </trkpt>
      <trkpt lat="46.09399" lon="6.10416">
        <ele>674.98</ele>
        <time>2016-10-03T08:22:54Z</time>
      </trkpt>
      <trkpt lat="46.09398" lon="6.10412">
        <ele>674.5</ele>
        <time>2016-10-03T08:22:56Z</time>
      </trkpt>
      <trkpt lat="46.09398" lon="6.1041">
        <ele>674.02</ele>
        <time>2016-10-03T08:22:57Z</time>
      </trkpt>
      <trkpt lat="46.09397" lon="6.10408">
        <ele>674.5</ele>
        <time>2016-10-03T08:22:58Z</time>
      </trkpt>
      <trkpt lat="46.09397" lon="6.10407">
        <ele>674.5</ele>
        <time>2016-10-03T08:22:59Z</time>
      </trkpt>
      <trkpt lat="46.09397" lon="6.10406">
        <ele>674.02</ele>
        <time>2016-10-03T08:23:00Z</time>
      </trkpt>
      <trkpt lat="46.09397" lon="6.10406">
        <ele>674.5</ele>
        <time>2016-10-03T08:23:15Z</time>
      </trkpt>
      <trkpt lat="46.09388" lon="6.1039">
        <ele>673.06</ele>
        <time>2016-10-03T08:23:35Z</time>
      </trkpt>
      <trkpt lat="46.09334" lon="6.10374">
        <ele>675.46</ele>
        <time>2016-10-03T08:23:52Z</time>
      </trkpt>
      <trkpt lat="46.09283" lon="6.10353">
        <ele>675.94</ele>
        <time>2016-10-03T08:24:08Z</time>
      </trkpt>
      <trkpt lat="46.09228" lon="6.10322">
        <ele>677.87</ele>
        <time>2016-10-03T08:24:25Z</time>
      </trkpt>
      <trkpt lat="46.09168" lon="6.10287">
        <ele>681.23</ele>
        <time>2016-10-03T08:24:44Z</time>
      </trkpt>
      <trkpt lat="46.0912" lon="6.10262">
        <ele>682.67</ele>
        <time>2016-10-03T08:25:01Z</time>
      </trkpt>
      <trkpt lat="46.09081" lon="6.10246">
        <ele>684.6</ele>
        <time>2016-10-03T08:25:15Z</time>
      </trkpt>
      <trkpt lat="46.0904" lon="6.10235">
        <ele>687.48</ele>
        <time>2016-10-03T08:25:31Z</time>
      </trkpt>
      <trkpt lat="46.08999" lon="6.10226">
        <ele>689.4</ele>
        <time>2016-10-03T08:25:47Z</time>
      </trkpt>
      <trkpt lat="46.08955" lon="6.1022">
        <ele>691.33</ele>
        <time>2016-10-03T08:26:02Z</time>
      </trkpt>
      <trkpt lat="46.08898" lon="6.10223">
        <ele>693.25</ele>
        <time>2016-10-03T08:26:20Z</time>
      </trkpt>
      <trkpt lat="46.08835" lon="6.10228">
        <ele>696.13</ele>
        <time>2016-10-03T08:26:42Z</time>
      </trkpt>
      <trkpt lat="46.08783" lon="6.10225">
        <ele>698.05</ele>
        <time>2016-10-03T08:27:01Z</time>
      </trkpt>
      <trkpt lat="46.08737" lon="6.10216">
        <ele>700.46</ele>
        <time>2016-10-03T08:27:18Z</time>
      </trkpt>
      <trkpt lat="46.08693" lon="6.10205">
        <ele>702.86</ele>
        <time>2016-10-03T08:27:36Z</time>
      </trkpt>
      <trkpt lat="46.08644" lon="6.10187">
        <ele>706.23</ele>
        <time>2016-10-03T08:27:58Z</time>
      </trkpt>
      <trkpt lat="46.08641" lon="6.10186">
        <ele>705.75</ele>
        <time>2016-10-03T08:27:59Z</time>
      </trkpt>
      <trkpt lat="46.08606" lon="6.10174">
        <ele>706.71</ele>
        <time>2016-10-03T08:28:15Z</time>
      </trkpt>
      <trkpt lat="46.08564" lon="6.10152">
        <ele>708.63</ele>
        <time>2016-10-03T08:28:35Z</time>
      </trkpt>
      <trkpt lat="46.08543" lon="6.10124">
        <ele>710.55</ele>
        <time>2016-10-03T08:28:50Z</time>
      </trkpt>
      <trkpt lat="46.08521" lon="6.10154">
        <ele>710.07</ele>
        <time>2016-10-03T08:29:03Z</time>
      </trkpt>
      <trkpt lat="46.08501" lon="6.10177">
        <ele>710.07</ele>
        <time>2016-10-03T08:29:12Z</time>
      </trkpt>
      <trkpt lat="46.08472" lon="6.10142">
        <ele>712.47</ele>
        <time>2016-10-03T08:29:26Z</time>
      </trkpt>
      <trkpt lat="46.08437" lon="6.10108">
        <ele>714.88</ele>
        <time>2016-10-03T08:29:44Z</time>
      </trkpt>
      <trkpt lat="46.08409" lon="6.10093">
        <ele>717.76</ele>
        <time>2016-10-03T08:30:01Z</time>
      </trkpt>
      <trkpt lat="46.08386" lon="6.10082">
        <ele>720.16</ele>
        <time>2016-10-03T08:30:17Z</time>
      </trkpt>
      <trkpt lat="46.08368" lon="6.10074">
        <ele>722.09</ele>
        <time>2016-10-03T08:30:30Z</time>
      </trkpt>
      <trkpt lat="46.08367" lon="6.10073">
        <ele>722.09</ele>
        <time>2016-10-03T08:30:31Z</time>
      </trkpt>
      <trkpt lat="46.08365" lon="6.10072">
        <ele>722.57</ele>
        <time>2016-10-03T08:30:32Z</time>
      </trkpt>
      <trkpt lat="46.08341" lon="6.10069">
        <ele>725.45</ele>
        <time>2016-10-03T08:30:50Z</time>
      </trkpt>
      <trkpt lat="46.08321" lon="6.1008">
        <ele>727.37</ele>
        <time>2016-10-03T08:31:06Z</time>
      </trkpt>
      <trkpt lat="46.083" lon="6.10103">
        <ele>729.78</ele>
        <time>2016-10-03T08:31:25Z</time>
      </trkpt>
      <trkpt lat="46.08285" lon="6.10122">
        <ele>732.18</ele>
        <time>2016-10-03T08:31:41Z</time>
      </trkpt>
      <trkpt lat="46.08269" lon="6.10141">
        <ele>734.58</ele>
        <time>2016-10-03T08:31:57Z</time>
      </trkpt>
      <trkpt lat="46.08268" lon="6.10142">
        <ele>734.58</ele>
        <time>2016-10-03T08:31:58Z</time>
      </trkpt>
      <trkpt lat="46.08252" lon="6.1016">
        <ele>737.47</ele>
        <time>2016-10-03T08:32:12Z</time>
      </trkpt>
      <trkpt lat="46.08235" lon="6.10187">
        <ele>740.35</ele>
        <time>2016-10-03T08:32:31Z</time>
      </trkpt>
      <trkpt lat="46.0822" lon="6.10208">
        <ele>743.24</ele>
        <time>2016-10-03T08:32:48Z</time>
      </trkpt>
      <trkpt lat="46.08213" lon="6.10229">
        <ele>745.64</ele>
        <time>2016-10-03T08:33:03Z</time>
      </trkpt>
      <trkpt lat="46.08213" lon="6.10237">
        <ele>747.08</ele>
        <time>2016-10-03T08:33:08Z</time>
      </trkpt>
      <trkpt lat="46.08214" lon="6.10239">
        <ele>747.08</ele>
        <time>2016-10-03T08:33:09Z</time>
      </trkpt>
      <trkpt lat="46.08215" lon="6.1024">
        <ele>747.56</ele>
        <time>2016-10-03T08:33:10Z</time>
      </trkpt>
      <trkpt lat="46.08219" lon="6.10243">
        <ele>747.56</ele>
        <time>2016-10-03T08:33:23Z</time>
      </trkpt>
      <trkpt lat="46.08227" lon="6.10246">
        <ele>748.52</ele>
        <time>2016-10-03T08:33:44Z</time>
      </trkpt>
      <trkpt lat="46.08245" lon="6.10255">
        <ele>750.45</ele>
        <time>2016-10-03T08:34:00Z</time>
      </trkpt>
      <trkpt lat="46.08254" lon="6.10276">
        <ele>751.41</ele>
        <time>2016-10-03T08:34:13Z</time>
      </trkpt>
      <trkpt lat="46.08253" lon="6.10294">
        <ele>753.81</ele>
        <time>2016-10-03T08:34:24Z</time>
      </trkpt>
      <trkpt lat="46.08252" lon="6.10303">
        <ele>754.29</ele>
        <time>2016-10-03T08:34:29Z</time>
      </trkpt>
      <trkpt lat="46.08241" lon="6.10324">
        <ele>757.18</ele>
        <time>2016-10-03T08:34:44Z</time>
      </trkpt>
      <trkpt lat="46.08218" lon="6.1033">
        <ele>759.58</ele>
        <time>2016-10-03T08:35:01Z</time>
      </trkpt>
      <trkpt lat="46.08197" lon="6.10344">
        <ele>761.5</ele>
        <time>2016-10-03T08:35:18Z</time>
      </trkpt>
      <trkpt lat="46.08168" lon="6.10356">
        <ele>761.98</ele>
        <time>2016-10-03T08:35:34Z</time>
      </trkpt>
      <trkpt lat="46.08143" lon="6.10369">
        <ele>764.39</ele>
        <time>2016-10-03T08:35:51Z</time>
      </trkpt>
      <trkpt lat="46.0812" lon="6.10383">
        <ele>767.75</ele>
        <time>2016-10-03T08:36:08Z</time>
      </trkpt>
      <trkpt lat="46.08097" lon="6.10395">
        <ele>770.63</ele>
        <time>2016-10-03T08:36:25Z</time>
      </trkpt>
      <trkpt lat="46.08074" lon="6.10407">
        <ele>773.52</ele>
        <time>2016-10-03T08:36:42Z</time>
      </trkpt>
      <trkpt lat="46.08057" lon="6.1042">
        <ele>776.4</ele>
        <time>2016-10-03T08:36:57Z</time>
      </trkpt>
      <trkpt lat="46.08057" lon="6.10421">
        <ele>776.88</ele>
        <time>2016-10-03T08:36:58Z</time>
      </trkpt>
      <trkpt lat="46.08057" lon="6.10423">
        <ele>777.36</ele>
        <time>2016-10-03T08:36:59Z</time>
      </trkpt>
      <trkpt lat="46.08057" lon="6.10425">
        <ele>776.88</ele>
        <time>2016-10-03T08:37:00Z</time>
      </trkpt>
      <trkpt lat="46.08058" lon="6.10428">
        <ele>777.36</ele>
        <time>2016-10-03T08:37:01Z</time>
      </trkpt>
      <trkpt lat="46.08059" lon="6.1043">
        <ele>776.88</ele>
        <time>2016-10-03T08:37:02Z</time>
      </trkpt>
      <trkpt lat="46.0806" lon="6.10432">
        <ele>777.36</ele>
        <time>2016-10-03T08:37:03Z</time>
      </trkpt>
      <trkpt lat="46.08061" lon="6.10434">
        <ele>777.36</ele>
        <time>2016-10-03T08:37:04Z</time>
      </trkpt>
      <trkpt lat="46.08081" lon="6.10459">
        <ele>779.29</ele>
        <time>2016-10-03T08:37:20Z</time>
      </trkpt>
      <trkpt lat="46.081" lon="6.10477">
        <ele>780.73</ele>
        <time>2016-10-03T08:37:36Z</time>
      </trkpt>
      <trkpt lat="46.08117" lon="6.10494">
        <ele>783.13</ele>
        <time>2016-10-03T08:37:51Z</time>
      </trkpt>
      <trkpt lat="46.08126" lon="6.10502">
        <ele>784.57</ele>
        <time>2016-10-03T08:37:59Z</time>
      </trkpt>
      <trkpt lat="46.08127" lon="6.10504">
        <ele>784.57</ele>
        <time>2016-10-03T08:38:00Z</time>
      </trkpt>
      <trkpt lat="46.08141" lon="6.10519">
        <ele>787.46</ele>
        <time>2016-10-03T08:38:15Z</time>
      </trkpt>
      <trkpt lat="46.08148" lon="6.10527">
        <ele>788.42</ele>
        <time>2016-10-03T08:38:20Z</time>
      </trkpt>
      <trkpt lat="46.08159" lon="6.10562">
        <ele>790.82</ele>
        <time>2016-10-03T08:38:37Z</time>
      </trkpt>
      <trkpt lat="46.08158" lon="6.10575">
        <ele>791.78</ele>
        <time>2016-10-03T08:38:46Z</time>
      </trkpt>
      <trkpt lat="46.08159" lon="6.10578">
        <ele>792.26</ele>
        <time>2016-10-03T08:38:47Z</time>
      </trkpt>
      <trkpt lat="46.08159" lon="6.1058">
        <ele>792.26</ele>
        <time>2016-10-03T08:38:48Z</time>
      </trkpt>
      <trkpt lat="46.08159" lon="6.10583">
        <ele>792.74</ele>
        <time>2016-10-03T08:38:49Z</time>
      </trkpt>
      <trkpt lat="46.08159" lon="6.10585">
        <ele>793.22</ele>
        <time>2016-10-03T08:38:50Z</time>
      </trkpt>
      <trkpt lat="46.08159" lon="6.10588">
        <ele>793.22</ele>
        <time>2016-10-03T08:38:51Z</time>
      </trkpt>
      <trkpt lat="46.08158" lon="6.1059">
        <ele>793.71</ele>
        <time>2016-10-03T08:38:52Z</time>
      </trkpt>
      <trkpt lat="46.08158" lon="6.10592">
        <ele>793.71</ele>
        <time>2016-10-03T08:38:53Z</time>
      </trkpt>
      <trkpt lat="46.08156" lon="6.10595">
        <ele>793.71</ele>
        <time>2016-10-03T08:38:55Z</time>
      </trkpt>
      <trkpt lat="46.08154" lon="6.10595">
        <ele>794.19</ele>
        <time>2016-10-03T08:38:56Z</time>
      </trkpt>
      <trkpt lat="46.08153" lon="6.10596">
        <ele>794.19</ele>
        <time>2016-10-03T08:38:57Z</time>
      </trkpt>
      <trkpt lat="46.08153" lon="6.10597">
        <ele>794.19</ele>
        <time>2016-10-03T08:38:58Z</time>
      </trkpt>
      <trkpt lat="46.08152" lon="6.10598">
        <ele>795.15</ele>
        <time>2016-10-03T08:38:59Z</time>
      </trkpt>
      <trkpt lat="46.08151" lon="6.10599">
        <ele>795.15</ele>
        <time>2016-10-03T08:39:00Z</time>
      </trkpt>
      <trkpt lat="46.0815" lon="6.106">
        <ele>795.15</ele>
        <time>2016-10-03T08:39:01Z</time>
      </trkpt>
      <trkpt lat="46.08141" lon="6.10601">
        <ele>797.07</ele>
        <time>2016-10-03T08:39:08Z</time>
      </trkpt>
      <trkpt lat="46.0814" lon="6.10601">
        <ele>797.07</ele>
        <time>2016-10-03T08:39:09Z</time>
      </trkpt>
      <trkpt lat="46.08139" lon="6.10601">
        <ele>797.07</ele>
        <time>2016-10-03T08:39:10Z</time>
      </trkpt>
      <trkpt lat="46.08138" lon="6.106">
        <ele>796.59</ele>
        <time>2016-10-03T08:39:11Z</time>
      </trkpt>
      <trkpt lat="46.08136" lon="6.10601">
        <ele>796.59</ele>
        <time>2016-10-03T08:39:12Z</time>
      </trkpt>
      <trkpt lat="46.08135" lon="6.10601">
        <ele>797.07</ele>
        <time>2016-10-03T08:39:13Z</time>
      </trkpt>
      <trkpt lat="46.08134" lon="6.106">
        <ele>797.07</ele>
        <time>2016-10-03T08:39:14Z</time>
      </trkpt>
      <trkpt lat="46.08133" lon="6.106">
        <ele>798.51</ele>
        <time>2016-10-03T08:39:15Z</time>
      </trkpt>
      <trkpt lat="46.08131" lon="6.10599">
        <ele>798.99</ele>
        <time>2016-10-03T08:39:16Z</time>
      </trkpt>
      <trkpt lat="46.08107" lon="6.10594">
        <ele>799.95</ele>
        <time>2016-10-03T08:39:31Z</time>
      </trkpt>
      <trkpt lat="46.08078" lon="6.10606">
        <ele>801.88</ele>
        <time>2016-10-03T08:39:49Z</time>
      </trkpt>
      <trkpt lat="46.08046" lon="6.10618">
        <ele>803.8</ele>
        <time>2016-10-03T08:40:08Z</time>
      </trkpt>
      <trkpt lat="46.08015" lon="6.10627">
        <ele>804.76</ele>
        <time>2016-10-03T08:40:25Z</time>
      </trkpt>
      <trkpt lat="46.07994" lon="6.10626">
        <ele>806.2</ele>
        <time>2016-10-03T08:40:38Z</time>
      </trkpt>
      <trkpt lat="46.0799" lon="6.10625">
        <ele>806.2</ele>
        <time>2016-10-03T08:40:41Z</time>
      </trkpt>
      <trkpt lat="46.07988" lon="6.10625">
        <ele>805.72</ele>
        <time>2016-10-03T08:40:42Z</time>
      </trkpt>
      <trkpt lat="46.07987" lon="6.10624">
        <ele>806.2</ele>
        <time>2016-10-03T08:40:43Z</time>
      </trkpt>
      <trkpt lat="46.07986" lon="6.10624">
        <ele>807.16</ele>
        <time>2016-10-03T08:40:44Z</time>
      </trkpt>
      <trkpt lat="46.07985" lon="6.10624">
        <ele>806.68</ele>
        <time>2016-10-03T08:40:45Z</time>
      </trkpt>
      <trkpt lat="46.07984" lon="6.10623">
        <ele>806.68</ele>
        <time>2016-10-03T08:40:46Z</time>
      </trkpt>
      <trkpt lat="46.07982" lon="6.10623">
        <ele>807.16</ele>
        <time>2016-10-03T08:40:47Z</time>
      </trkpt>
      <trkpt lat="46.07957" lon="6.10613">
        <ele>807.64</ele>
        <time>2016-10-03T08:41:02Z</time>
      </trkpt>
      <trkpt lat="46.07924" lon="6.10603">
        <ele>808.61</ele>
        <time>2016-10-03T08:41:17Z</time>
      </trkpt>
      <trkpt lat="46.0789" lon="6.10572">
        <ele>809.57</ele>
        <time>2016-10-03T08:41:35Z</time>
      </trkpt>
      <trkpt lat="46.07858" lon="6.10533">
        <ele>809.57</ele>
        <time>2016-10-03T08:41:51Z</time>
      </trkpt>
      <trkpt lat="46.07816" lon="6.10495">
        <ele>810.05</ele>
        <time>2016-10-03T08:42:07Z</time>
      </trkpt>
      <trkpt lat="46.07782" lon="6.10469">
        <ele>810.53</ele>
        <time>2016-10-03T08:42:22Z</time>
      </trkpt>
      <trkpt lat="46.07745" lon="6.10449">
        <ele>811.01</ele>
        <time>2016-10-03T08:42:36Z</time>
      </trkpt>
      <trkpt lat="46.07709" lon="6.10427">
        <ele>810.53</ele>
        <time>2016-10-03T08:42:51Z</time>
      </trkpt>
      <trkpt lat="46.07691" lon="6.10414">
        <ele>812.93</ele>
        <time>2016-10-03T08:43:04Z</time>
      </trkpt>
      <trkpt lat="46.07675" lon="6.10412">
        <ele>813.89</ele>
        <time>2016-10-03T08:43:20Z</time>
      </trkpt>
      <trkpt lat="46.07672" lon="6.10414">
        <ele>814.37</ele>
        <time>2016-10-03T08:43:54Z</time>
      </trkpt>
      <trkpt lat="46.07673" lon="6.1041">
        <ele>814.37</ele>
        <time>2016-10-03T08:44:21Z</time>
      </trkpt>
      <trkpt lat="46.07669" lon="6.10411">
        <ele>813.89</ele>
        <time>2016-10-03T08:44:49Z</time>
      </trkpt>
      <trkpt lat="46.0767" lon="6.1041">
        <ele>814.85</ele>
        <time>2016-10-03T08:45:18Z</time>
      </trkpt>
      <trkpt lat="46.0767" lon="6.10411">
        <ele>815.34</ele>
        <time>2016-10-03T08:45:24Z</time>
      </trkpt>
      <trkpt lat="46.07674" lon="6.10416">
        <ele>813.89</ele>
        <time>2016-10-03T08:45:46Z</time>
      </trkpt>
      <trkpt lat="46.07674" lon="6.10412">
        <ele>813.41</ele>
        <time>2016-10-03T08:46:02Z</time>
      </trkpt>
      <trkpt lat="46.07672" lon="6.1041">
        <ele>812.93</ele>
        <time>2016-10-03T08:46:24Z</time>
      </trkpt>
      <trkpt lat="46.0767" lon="6.1041">
        <ele>813.41</ele>
        <time>2016-10-03T08:46:52Z</time>
      </trkpt>
      <trkpt lat="46.07673" lon="6.1041">
        <ele>813.89</ele>
        <time>2016-10-03T08:47:15Z</time>
      </trkpt>
      <trkpt lat="46.07671" lon="6.10411">
        <ele>813.41</ele>
        <time>2016-10-03T08:47:34Z</time>
      </trkpt>
      <trkpt lat="46.07669" lon="6.10412">
        <ele>813.89</ele>
        <time>2016-10-03T08:48:00Z</time>
      </trkpt>
      <trkpt lat="46.07671" lon="6.10412">
        <ele>813.89</ele>
        <time>2016-10-03T08:48:25Z</time>
      </trkpt>
      <trkpt lat="46.07668" lon="6.10407">
        <ele>813.89</ele>
        <time>2016-10-03T08:48:55Z</time>
      </trkpt>
      <trkpt lat="46.0767" lon="6.10411">
        <ele>813.41</ele>
        <time>2016-10-03T08:49:27Z</time>
      </trkpt>
      <trkpt lat="46.07673" lon="6.10411">
        <ele>813.41</ele>
        <time>2016-10-03T08:49:55Z</time>
      </trkpt>
      <trkpt lat="46.07676" lon="6.10413">
        <ele>812.93</ele>
        <time>2016-10-03T08:50:24Z</time>
      </trkpt>
      <trkpt lat="46.07675" lon="6.10414">
        <ele>813.41</ele>
        <time>2016-10-03T08:50:53Z</time>
      </trkpt>
      <trkpt lat="46.0767" lon="6.10415">
        <ele>812.93</ele>
        <time>2016-10-03T08:51:34Z</time>
      </trkpt>
      <trkpt lat="46.07671" lon="6.10413">
        <ele>812.93</ele>
        <time>2016-10-03T08:52:02Z</time>
      </trkpt>
      <trkpt lat="46.07669" lon="6.10406">
        <ele>812.93</ele>
        <time>2016-10-03T08:52:44Z</time>
      </trkpt>
      <trkpt lat="46.07673" lon="6.10417">
        <ele>812.93</ele>
        <time>2016-10-03T08:53:22Z</time>
      </trkpt>
      <trkpt lat="46.07674" lon="6.10416">
        <ele>812.45</ele>
        <time>2016-10-03T08:54:01Z</time>
      </trkpt>
      <trkpt lat="46.07671" lon="6.10413">
        <ele>812.93</ele>
        <time>2016-10-03T08:54:37Z</time>
      </trkpt>
      <trkpt lat="46.07674" lon="6.10411">
        <ele>812.45</ele>
        <time>2016-10-03T08:55:09Z</time>
      </trkpt>
      <trkpt lat="46.07668" lon="6.1041">
        <ele>812.93</ele>
        <time>2016-10-03T08:55:46Z</time>
      </trkpt>
      <trkpt lat="46.07666" lon="6.10413">
        <ele>812.45</ele>
        <time>2016-10-03T08:56:02Z</time>
      </trkpt>
      <trkpt lat="46.07665" lon="6.10412">
        <ele>812.45</ele>
        <time>2016-10-03T08:56:03Z</time>
      </trkpt>
      <trkpt lat="46.07664" lon="6.10412">
        <ele>812.45</ele>
        <time>2016-10-03T08:56:04Z</time>
      </trkpt>
      <trkpt lat="46.0766" lon="6.10411">
        <ele>812.93</ele>
        <time>2016-10-03T08:56:08Z</time>
      </trkpt>
      <trkpt lat="46.07637" lon="6.10408">
        <ele>814.37</ele>
        <time>2016-10-03T08:56:23Z</time>
      </trkpt>
      <trkpt lat="46.07615" lon="6.10405">
        <ele>816.78</ele>
        <time>2016-10-03T08:56:39Z</time>
      </trkpt>
      <trkpt lat="46.07589" lon="6.10405">
        <ele>818.22</ele>
        <time>2016-10-03T08:56:56Z</time>
      </trkpt>
      <trkpt lat="46.07561" lon="6.10407">
        <ele>819.66</ele>
        <time>2016-10-03T08:57:12Z</time>
      </trkpt>
      <trkpt lat="46.07532" lon="6.10406">
        <ele>821.58</ele>
        <time>2016-10-03T08:57:32Z</time>
      </trkpt>
      <trkpt lat="46.07532" lon="6.10406">
        <ele>821.1</ele>
        <time>2016-10-03T08:57:50Z</time>
      </trkpt>
      <trkpt lat="46.07532" lon="6.10405">
        <ele>821.1</ele>
        <time>2016-10-03T08:58:05Z</time>
      </trkpt>
      <trkpt lat="46.07528" lon="6.10403">
        <ele>822.06</ele>
        <time>2016-10-03T08:58:10Z</time>
      </trkpt>
      <trkpt lat="46.07508" lon="6.10384">
        <ele>823.99</ele>
        <time>2016-10-03T08:58:29Z</time>
      </trkpt>
      <trkpt lat="46.07505" lon="6.10382">
        <ele>824.95</ele>
        <time>2016-10-03T08:58:32Z</time>
      </trkpt>
      <trkpt lat="46.07505" lon="6.1038">
        <ele>824.47</ele>
        <time>2016-10-03T08:58:33Z</time>
      </trkpt>
      <trkpt lat="46.07493" lon="6.10367">
        <ele>826.87</ele>
        <time>2016-10-03T08:58:46Z</time>
      </trkpt>
      <trkpt lat="46.0748" lon="6.10349">
        <ele>828.31</ele>
        <time>2016-10-03T08:59:00Z</time>
      </trkpt>
      <trkpt lat="46.0747" lon="6.10332">
        <ele>828.79</ele>
        <time>2016-10-03T08:59:12Z</time>
      </trkpt>
      <trkpt lat="46.07448" lon="6.10294">
        <ele>828.79</ele>
        <time>2016-10-03T08:59:24Z</time>
      </trkpt>
      <trkpt lat="46.07423" lon="6.10248">
        <ele>827.35</ele>
        <time>2016-10-03T08:59:35Z</time>
      </trkpt>
      <trkpt lat="46.074" lon="6.10221">
        <ele>827.35</ele>
        <time>2016-10-03T08:59:45Z</time>
      </trkpt>
      <trkpt lat="46.07379" lon="6.10196">
        <ele>825.43</ele>
        <time>2016-10-03T08:59:55Z</time>
      </trkpt>
      <trkpt lat="46.07364" lon="6.10187">
        <ele>826.39</ele>
        <time>2016-10-03T09:00:08Z</time>
      </trkpt>
      <trkpt lat="46.07363" lon="6.10186">
        <ele>826.87</ele>
        <time>2016-10-03T09:00:09Z</time>
      </trkpt>
      <trkpt lat="46.07361" lon="6.10185">
        <ele>826.87</ele>
        <time>2016-10-03T09:00:10Z</time>
      </trkpt>
      <trkpt lat="46.0736" lon="6.10183">
        <ele>826.87</ele>
        <time>2016-10-03T09:00:11Z</time>
      </trkpt>
      <trkpt lat="46.07353" lon="6.10178">
        <ele>827.83</ele>
        <time>2016-10-03T09:00:21Z</time>
      </trkpt>
      <trkpt lat="46.07342" lon="6.10168">
        <ele>830.72</ele>
        <time>2016-10-03T09:00:35Z</time>
      </trkpt>
      <trkpt lat="46.07334" lon="6.10157">
        <ele>831.68</ele>
        <time>2016-10-03T09:00:48Z</time>
      </trkpt>
      <trkpt lat="46.07328" lon="6.10152">
        <ele>832.16</ele>
        <time>2016-10-03T09:01:04Z</time>
      </trkpt>
      <trkpt lat="46.0731" lon="6.10133">
        <ele>832.64</ele>
        <time>2016-10-03T09:01:17Z</time>
      </trkpt>
      <trkpt lat="46.0729" lon="6.10116">
        <ele>833.6</ele>
        <time>2016-10-03T09:01:31Z</time>
      </trkpt>
      <trkpt lat="46.07276" lon="6.10104">
        <ele>835.04</ele>
        <time>2016-10-03T09:01:43Z</time>
      </trkpt>
      <trkpt lat="46.0726" lon="6.1009">
        <ele>836.96</ele>
        <time>2016-10-03T09:01:55Z</time>
      </trkpt>
      <trkpt lat="46.07247" lon="6.10081">
        <ele>838.89</ele>
        <time>2016-10-03T09:02:06Z</time>
      </trkpt>
      <trkpt lat="46.07246" lon="6.10079">
        <ele>838.41</ele>
        <time>2016-10-03T09:02:07Z</time>
      </trkpt>
      <trkpt lat="46.07245" lon="6.10078">
        <ele>838.89</ele>
        <time>2016-10-03T09:02:08Z</time>
      </trkpt>
      <trkpt lat="46.07243" lon="6.10078">
        <ele>837.93</ele>
        <time>2016-10-03T09:02:09Z</time>
      </trkpt>
      <trkpt lat="46.07242" lon="6.10077">
        <ele>837.93</ele>
        <time>2016-10-03T09:02:10Z</time>
      </trkpt>
      <trkpt lat="46.0724" lon="6.10076">
        <ele>837.93</ele>
        <time>2016-10-03T09:02:11Z</time>
      </trkpt>
      <trkpt lat="46.07238" lon="6.10075">
        <ele>837.45</ele>
        <time>2016-10-03T09:02:12Z</time>
      </trkpt>
      <trkpt lat="46.07236" lon="6.10074">
        <ele>837.93</ele>
        <time>2016-10-03T09:02:13Z</time>
      </trkpt>
      <trkpt lat="46.07234" lon="6.10073">
        <ele>837.93</ele>
        <time>2016-10-03T09:02:14Z</time>
      </trkpt>
      <trkpt lat="46.07232" lon="6.10071">
        <ele>837.45</ele>
        <time>2016-10-03T09:02:15Z</time>
      </trkpt>
      <trkpt lat="46.07231" lon="6.10069">
        <ele>837.45</ele>
        <time>2016-10-03T09:02:16Z</time>
      </trkpt>
      <trkpt lat="46.07229" lon="6.10067">
        <ele>838.41</ele>
        <time>2016-10-03T09:02:17Z</time>
      </trkpt>
      <trkpt lat="46.07227" lon="6.10064">
        <ele>838.41</ele>
        <time>2016-10-03T09:02:18Z</time>
      </trkpt>
      <trkpt lat="46.07225" lon="6.10062">
        <ele>837.45</ele>
        <time>2016-10-03T09:02:19Z</time>
      </trkpt>
      <trkpt lat="46.07219" lon="6.10054">
        <ele>838.41</ele>
        <time>2016-10-03T09:02:24Z</time>
      </trkpt>
      <trkpt lat="46.07218" lon="6.10051">
        <ele>838.41</ele>
        <time>2016-10-03T09:02:25Z</time>
      </trkpt>
      <trkpt lat="46.07202" lon="6.10011">
        <ele>837.93</ele>
        <time>2016-10-03T09:02:37Z</time>
      </trkpt>
      <trkpt lat="46.07195" lon="6.09996">
        <ele>837.93</ele>
        <time>2016-10-03T09:02:42Z</time>
      </trkpt>
      <trkpt lat="46.07193" lon="6.09994">
        <ele>837.93</ele>
        <time>2016-10-03T09:02:43Z</time>
      </trkpt>
      <trkpt lat="46.07181" lon="6.09962">
        <ele>837.45</ele>
        <time>2016-10-03T09:02:54Z</time>
      </trkpt>
      <trkpt lat="46.07176" lon="6.09935">
        <ele>838.89</ele>
        <time>2016-10-03T09:03:05Z</time>
      </trkpt>
      <trkpt lat="46.07172" lon="6.09908">
        <ele>839.85</ele>
        <time>2016-10-03T09:03:15Z</time>
      </trkpt>
      <trkpt lat="46.07165" lon="6.09895">
        <ele>839.85</ele>
        <time>2016-10-03T09:03:21Z</time>
      </trkpt>
      <trkpt lat="46.07164" lon="6.09892">
        <ele>839.85</ele>
        <time>2016-10-03T09:03:22Z</time>
      </trkpt>
      <trkpt lat="46.07163" lon="6.0989">
        <ele>839.85</ele>
        <time>2016-10-03T09:03:23Z</time>
      </trkpt>
      <trkpt lat="46.07161" lon="6.09887">
        <ele>840.33</ele>
        <time>2016-10-03T09:03:24Z</time>
      </trkpt>
      <trkpt lat="46.07159" lon="6.09884">
        <ele>839.85</ele>
        <time>2016-10-03T09:03:25Z</time>
      </trkpt>
      <trkpt lat="46.07158" lon="6.09881">
        <ele>839.85</ele>
        <time>2016-10-03T09:03:26Z</time>
      </trkpt>
      <trkpt lat="46.07157" lon="6.09878">
        <ele>839.85</ele>
        <time>2016-10-03T09:03:27Z</time>
      </trkpt>
      <trkpt lat="46.07156" lon="6.09875">
        <ele>840.33</ele>
        <time>2016-10-03T09:03:28Z</time>
      </trkpt>
      <trkpt lat="46.07156" lon="6.09873">
        <ele>840.33</ele>
        <time>2016-10-03T09:03:29Z</time>
      </trkpt>
      <trkpt lat="46.07144" lon="6.09857">
        <ele>842.25</ele>
        <time>2016-10-03T09:03:41Z</time>
      </trkpt>
      <trkpt lat="46.0713" lon="6.09845">
        <ele>845.14</ele>
        <time>2016-10-03T09:03:53Z</time>
      </trkpt>
      <trkpt lat="46.07121" lon="6.09835">
        <ele>846.58</ele>
        <time>2016-10-03T09:04:02Z</time>
      </trkpt>
      <trkpt lat="46.0711" lon="6.0982">
        <ele>847.06</ele>
        <time>2016-10-03T09:04:15Z</time>
      </trkpt>
      <trkpt lat="46.07104" lon="6.09812">
        <ele>848.02</ele>
        <time>2016-10-03T09:04:38Z</time>
      </trkpt>
      <trkpt lat="46.07095" lon="6.09808">
        <ele>847.54</ele>
        <time>2016-10-03T09:04:50Z</time>
      </trkpt>
      <trkpt lat="46.07083" lon="6.09796">
        <ele>849.46</ele>
        <time>2016-10-03T09:05:04Z</time>
      </trkpt>
      <trkpt lat="46.07071" lon="6.09788">
        <ele>849.94</ele>
        <time>2016-10-03T09:05:18Z</time>
      </trkpt>
      <trkpt lat="46.07059" lon="6.09775">
        <ele>852.35</ele>
        <time>2016-10-03T09:05:33Z</time>
      </trkpt>
      <trkpt lat="46.07052" lon="6.09766">
        <ele>852.83</ele>
        <time>2016-10-03T09:05:46Z</time>
      </trkpt>
      <trkpt lat="46.07045" lon="6.09755">
        <ele>853.31</ele>
        <time>2016-10-03T09:06:08Z</time>
      </trkpt>
      <trkpt lat="46.07032" lon="6.09728">
        <ele>854.27</ele>
        <time>2016-10-03T09:06:22Z</time>
      </trkpt>
      <trkpt lat="46.07032" lon="6.09727">
        <ele>854.27</ele>
        <time>2016-10-03T09:06:23Z</time>
      </trkpt>
      <trkpt lat="46.07031" lon="6.09725">
        <ele>854.27</ele>
        <time>2016-10-03T09:06:24Z</time>
      </trkpt>
      <trkpt lat="46.0703" lon="6.09723">
        <ele>854.27</ele>
        <time>2016-10-03T09:06:25Z</time>
      </trkpt>
      <trkpt lat="46.07028" lon="6.09721">
        <ele>855.23</ele>
        <time>2016-10-03T09:06:26Z</time>
      </trkpt>
      <trkpt lat="46.07028" lon="6.09719">
        <ele>854.75</ele>
        <time>2016-10-03T09:06:27Z</time>
      </trkpt>
      <trkpt lat="46.07027" lon="6.09717">
        <ele>855.23</ele>
        <time>2016-10-03T09:06:28Z</time>
      </trkpt>
      <trkpt lat="46.07026" lon="6.09716">
        <ele>854.75</ele>
        <time>2016-10-03T09:06:29Z</time>
      </trkpt>
      <trkpt lat="46.07025" lon="6.09714">
        <ele>855.23</ele>
        <time>2016-10-03T09:06:30Z</time>
      </trkpt>
      <trkpt lat="46.07023" lon="6.09712">
        <ele>855.23</ele>
        <time>2016-10-03T09:06:31Z</time>
      </trkpt>
      <trkpt lat="46.07023" lon="6.09711">
        <ele>854.75</ele>
        <time>2016-10-03T09:06:32Z</time>
      </trkpt>
      <trkpt lat="46.07021" lon="6.09709">
        <ele>855.23</ele>
        <time>2016-10-03T09:06:33Z</time>
      </trkpt>
      <trkpt lat="46.07009" lon="6.09685">
        <ele>857.15</ele>
        <time>2016-10-03T09:06:47Z</time>
      </trkpt>
      <trkpt lat="46.07005" lon="6.09669">
        <ele>858.59</ele>
        <time>2016-10-03T09:07:01Z</time>
      </trkpt>
      <trkpt lat="46.06992" lon="6.09657">
        <ele>860.52</ele>
        <time>2016-10-03T09:07:15Z</time>
      </trkpt>
      <trkpt lat="46.0698" lon="6.09647">
        <ele>863.88</ele>
        <time>2016-10-03T09:07:29Z</time>
      </trkpt>
      <trkpt lat="46.06976" lon="6.09643">
        <ele>864.36</ele>
        <time>2016-10-03T09:07:34Z</time>
      </trkpt>
      <trkpt lat="46.06973" lon="6.09638">
        <ele>864.84</ele>
        <time>2016-10-03T09:07:39Z</time>
      </trkpt>
      <trkpt lat="46.0697" lon="6.09634">
        <ele>865.32</ele>
        <time>2016-10-03T09:07:43Z</time>
      </trkpt>
      <trkpt lat="46.06956" lon="6.09617">
        <ele>866.29</ele>
        <time>2016-10-03T09:08:00Z</time>
      </trkpt>
      <trkpt lat="46.06953" lon="6.096">
        <ele>867.25</ele>
        <time>2016-10-03T09:08:13Z</time>
      </trkpt>
      <trkpt lat="46.06951" lon="6.09584">
        <ele>868.69</ele>
        <time>2016-10-03T09:08:25Z</time>
      </trkpt>
      <trkpt lat="46.06946" lon="6.09564">
        <ele>872.05</ele>
        <time>2016-10-03T09:08:42Z</time>
      </trkpt>
      <trkpt lat="46.06944" lon="6.09559">
        <ele>871.09</ele>
        <time>2016-10-03T09:09:00Z</time>
      </trkpt>
      <trkpt lat="46.06941" lon="6.09538">
        <ele>871.57</ele>
        <time>2016-10-03T09:09:14Z</time>
      </trkpt>
      <trkpt lat="46.06927" lon="6.095">
        <ele>872.05</ele>
        <time>2016-10-03T09:09:27Z</time>
      </trkpt>
      <trkpt lat="46.06915" lon="6.09467">
        <ele>873.98</ele>
        <time>2016-10-03T09:09:41Z</time>
      </trkpt>
      <trkpt lat="46.06909" lon="6.0945">
        <ele>874.46</ele>
        <time>2016-10-03T09:09:55Z</time>
      </trkpt>
      <trkpt lat="46.06905" lon="6.09432">
        <ele>875.9</ele>
        <time>2016-10-03T09:10:09Z</time>
      </trkpt>
      <trkpt lat="46.06904" lon="6.09423">
        <ele>877.34</ele>
        <time>2016-10-03T09:10:15Z</time>
      </trkpt>
      <trkpt lat="46.069" lon="6.09403">
        <ele>879.26</ele>
        <time>2016-10-03T09:10:30Z</time>
      </trkpt>
      <trkpt lat="46.06898" lon="6.09384">
        <ele>882.15</ele>
        <time>2016-10-03T09:10:46Z</time>
      </trkpt>
      <trkpt lat="46.06891" lon="6.09361">
        <ele>885.03</ele>
        <time>2016-10-03T09:11:04Z</time>
      </trkpt>
      <trkpt lat="46.06886" lon="6.09337">
        <ele>886.47</ele>
        <time>2016-10-03T09:11:22Z</time>
      </trkpt>
      <trkpt lat="46.06879" lon="6.0931">
        <ele>888.88</ele>
        <time>2016-10-03T09:11:42Z</time>
      </trkpt>
      <trkpt lat="46.06874" lon="6.09309">
        <ele>888.88</ele>
        <time>2016-10-03T09:11:59Z</time>
      </trkpt>
      <trkpt lat="46.06873" lon="6.09307">
        <ele>889.36</ele>
        <time>2016-10-03T09:12:35Z</time>
      </trkpt>
      <trkpt lat="46.06874" lon="6.09304">
        <ele>888.88</ele>
        <time>2016-10-03T09:13:13Z</time>
      </trkpt>
      <trkpt lat="46.0687" lon="6.09303">
        <ele>889.36</ele>
        <time>2016-10-03T09:13:33Z</time>
      </trkpt>
      <trkpt lat="46.06869" lon="6.09302">
        <ele>889.36</ele>
        <time>2016-10-03T09:13:34Z</time>
      </trkpt>
      <trkpt lat="46.06867" lon="6.09302">
        <ele>889.36</ele>
        <time>2016-10-03T09:13:35Z</time>
      </trkpt>
      <trkpt lat="46.06866" lon="6.093">
        <ele>889.36</ele>
        <time>2016-10-03T09:13:36Z</time>
      </trkpt>
      <trkpt lat="46.06864" lon="6.09299">
        <ele>889.84</ele>
        <time>2016-10-03T09:13:37Z</time>
      </trkpt>
      <trkpt lat="46.06838" lon="6.09268">
        <ele>890.32</ele>
        <time>2016-10-03T09:13:52Z</time>
      </trkpt>
      <trkpt lat="46.06806" lon="6.09235">
        <ele>891.28</ele>
        <time>2016-10-03T09:14:08Z</time>
      </trkpt>
      <trkpt lat="46.06768" lon="6.092">
        <ele>891.76</ele>
        <time>2016-10-03T09:14:24Z</time>
      </trkpt>
      <trkpt lat="46.06726" lon="6.09161">
        <ele>892.72</ele>
        <time>2016-10-03T09:14:42Z</time>
      </trkpt>
      <trkpt lat="46.0668" lon="6.09124">
        <ele>893.68</ele>
        <time>2016-10-03T09:15:01Z</time>
      </trkpt>
      <trkpt lat="46.0665" lon="6.09103">
        <ele>894.64</ele>
        <time>2016-10-03T09:15:15Z</time>
      </trkpt>
      <trkpt lat="46.06647" lon="6.091">
        <ele>894.64</ele>
        <time>2016-10-03T09:15:16Z</time>
      </trkpt>
      <trkpt lat="46.06644" lon="6.09095">
        <ele>893.68</ele>
        <time>2016-10-03T09:15:17Z</time>
      </trkpt>
      <trkpt lat="46.06623" lon="6.09062">
        <ele>889.84</ele>
        <time>2016-10-03T09:15:23Z</time>
      </trkpt>
      <trkpt lat="46.06619" lon="6.09056">
        <ele>890.32</ele>
        <time>2016-10-03T09:15:24Z</time>
      </trkpt>
      <trkpt lat="46.06604" lon="6.09036">
        <ele>886.95</ele>
        <time>2016-10-03T09:15:27Z</time>
      </trkpt>
      <trkpt lat="46.06595" lon="6.09022">
        <ele>885.99</ele>
        <time>2016-10-03T09:15:29Z</time>
      </trkpt>
      <trkpt lat="46.06575" lon="6.08994">
        <ele>882.15</ele>
        <time>2016-10-03T09:15:33Z</time>
      </trkpt>
      <trkpt lat="46.06548" lon="6.08964">
        <ele>878.3</ele>
        <time>2016-10-03T09:15:38Z</time>
      </trkpt>
      <trkpt lat="46.06532" lon="6.08946">
        <ele>875.9</ele>
        <time>2016-10-03T09:15:41Z</time>
      </trkpt>
      <trkpt lat="46.06519" lon="6.0893">
        <ele>873.98</ele>
        <time>2016-10-03T09:15:44Z</time>
      </trkpt>
      <trkpt lat="46.06516" lon="6.08924">
        <ele>873.01</ele>
        <time>2016-10-03T09:15:45Z</time>
      </trkpt>
      <trkpt lat="46.06513" lon="6.08918">
        <ele>871.57</ele>
        <time>2016-10-03T09:15:46Z</time>
      </trkpt>
      <trkpt lat="46.06511" lon="6.08912">
        <ele>871.57</ele>
        <time>2016-10-03T09:15:47Z</time>
      </trkpt>
      <trkpt lat="46.06509" lon="6.089">
        <ele>869.17</ele>
        <time>2016-10-03T09:15:49Z</time>
      </trkpt>
      <trkpt lat="46.06508" lon="6.08894">
        <ele>869.65</ele>
        <time>2016-10-03T09:15:50Z</time>
      </trkpt>
      <trkpt lat="46.06508" lon="6.08871">
        <ele>866.29</ele>
        <time>2016-10-03T09:15:55Z</time>
      </trkpt>
      <trkpt lat="46.06507" lon="6.08868">
        <ele>866.29</ele>
        <time>2016-10-03T09:15:56Z</time>
      </trkpt>
      <trkpt lat="46.06506" lon="6.08865">
        <ele>866.77</ele>
        <time>2016-10-03T09:15:57Z</time>
      </trkpt>
      <trkpt lat="46.06504" lon="6.08863">
        <ele>866.77</ele>
        <time>2016-10-03T09:15:58Z</time>
      </trkpt>
      <trkpt lat="46.06502" lon="6.08861">
        <ele>866.29</ele>
        <time>2016-10-03T09:15:59Z</time>
      </trkpt>
      <trkpt lat="46.06499" lon="6.0886">
        <ele>865.32</ele>
        <time>2016-10-03T09:16:00Z</time>
      </trkpt>
      <trkpt lat="46.06495" lon="6.08861">
        <ele>865.32</ele>
        <time>2016-10-03T09:16:01Z</time>
      </trkpt>
      <trkpt lat="46.0649" lon="6.08862">
        <ele>865.32</ele>
        <time>2016-10-03T09:16:02Z</time>
      </trkpt>
      <trkpt lat="46.06445" lon="6.08868">
        <ele>862.92</ele>
        <time>2016-10-03T09:16:10Z</time>
      </trkpt>
      <trkpt lat="46.06439" lon="6.08868">
        <ele>862.44</ele>
        <time>2016-10-03T09:16:11Z</time>
      </trkpt>
      <trkpt lat="46.06394" lon="6.0886">
        <ele>860.04</ele>
        <time>2016-10-03T09:16:18Z</time>
      </trkpt>
      <trkpt lat="46.06339" lon="6.08851">
        <ele>859.08</ele>
        <time>2016-10-03T09:16:30Z</time>
      </trkpt>
      <trkpt lat="46.063" lon="6.08836">
        <ele>858.11</ele>
        <time>2016-10-03T09:16:43Z</time>
      </trkpt>
      <trkpt lat="46.06282" lon="6.08834">
        <ele>857.63</ele>
        <time>2016-10-03T09:16:55Z</time>
      </trkpt>
      <trkpt lat="46.06276" lon="6.08833">
        <ele>858.11</ele>
        <time>2016-10-03T09:17:10Z</time>
      </trkpt>
      <trkpt lat="46.06273" lon="6.08836">
        <ele>858.11</ele>
        <time>2016-10-03T09:17:20Z</time>
      </trkpt>
      <trkpt lat="46.06252" lon="6.08847">
        <ele>857.15</ele>
        <time>2016-10-03T09:17:29Z</time>
      </trkpt>
      <trkpt lat="46.06241" lon="6.0886">
        <ele>857.15</ele>
        <time>2016-10-03T09:17:32Z</time>
      </trkpt>
      <trkpt lat="46.06224" lon="6.08889">
        <ele>856.19</ele>
        <time>2016-10-03T09:17:37Z</time>
      </trkpt>
      <trkpt lat="46.0622" lon="6.08894">
        <ele>855.71</ele>
        <time>2016-10-03T09:17:38Z</time>
      </trkpt>
      <trkpt lat="46.06215" lon="6.08898">
        <ele>856.67</ele>
        <time>2016-10-03T09:17:39Z</time>
      </trkpt>
      <trkpt lat="46.0621" lon="6.08901">
        <ele>856.19</ele>
        <time>2016-10-03T09:17:40Z</time>
      </trkpt>
      <trkpt lat="46.06204" lon="6.08904">
        <ele>856.19</ele>
        <time>2016-10-03T09:17:41Z</time>
      </trkpt>
      <trkpt lat="46.06199" lon="6.08905">
        <ele>856.19</ele>
        <time>2016-10-03T09:17:42Z</time>
      </trkpt>
      <trkpt lat="46.06193" lon="6.08907">
        <ele>855.23</ele>
        <time>2016-10-03T09:17:43Z</time>
      </trkpt>
      <trkpt lat="46.06187" lon="6.08907">
        <ele>855.71</ele>
        <time>2016-10-03T09:17:44Z</time>
      </trkpt>
      <trkpt lat="46.06181" lon="6.08905">
        <ele>854.75</ele>
        <time>2016-10-03T09:17:45Z</time>
      </trkpt>
      <trkpt lat="46.06175" lon="6.08903">
        <ele>854.75</ele>
        <time>2016-10-03T09:17:46Z</time>
      </trkpt>
      <trkpt lat="46.0617" lon="6.08899">
        <ele>853.79</ele>
        <time>2016-10-03T09:17:47Z</time>
      </trkpt>
      <trkpt lat="46.06164" lon="6.08893">
        <ele>853.79</ele>
        <time>2016-10-03T09:17:48Z</time>
      </trkpt>
      <trkpt lat="46.06159" lon="6.08886">
        <ele>853.79</ele>
        <time>2016-10-03T09:17:49Z</time>
      </trkpt>
      <trkpt lat="46.06155" lon="6.08879">
        <ele>852.83</ele>
        <time>2016-10-03T09:17:50Z</time>
      </trkpt>
      <trkpt lat="46.06151" lon="6.08872">
        <ele>852.83</ele>
        <time>2016-10-03T09:17:51Z</time>
      </trkpt>
      <trkpt lat="46.06149" lon="6.08864">
        <ele>852.83</ele>
        <time>2016-10-03T09:17:52Z</time>
      </trkpt>
      <trkpt lat="46.06147" lon="6.08856">
        <ele>852.35</ele>
        <time>2016-10-03T09:17:53Z</time>
      </trkpt>
      <trkpt lat="46.06143" lon="6.08839">
        <ele>851.38</ele>
        <time>2016-10-03T09:17:55Z</time>
      </trkpt>
      <trkpt lat="46.0614" lon="6.0883">
        <ele>850.9</ele>
        <time>2016-10-03T09:17:56Z</time>
      </trkpt>
      <trkpt lat="46.06137" lon="6.08821">
        <ele>849.46</ele>
        <time>2016-10-03T09:17:57Z</time>
      </trkpt>
      <trkpt lat="46.06133" lon="6.08812">
        <ele>849.46</ele>
        <time>2016-10-03T09:17:58Z</time>
      </trkpt>
      <trkpt lat="46.06128" lon="6.08805">
        <ele>849.94</ele>
        <time>2016-10-03T09:17:59Z</time>
      </trkpt>
      <trkpt lat="46.06121" lon="6.08799">
        <ele>848.98</ele>
        <time>2016-10-03T09:18:00Z</time>
      </trkpt>
      <trkpt lat="46.06113" lon="6.08795">
        <ele>848.02</ele>
        <time>2016-10-03T09:18:01Z</time>
      </trkpt>
      <trkpt lat="46.06104" lon="6.08794">
        <ele>847.54</ele>
        <time>2016-10-03T09:18:02Z</time>
      </trkpt>
      <trkpt lat="46.06095" lon="6.08796">
        <ele>847.06</ele>
        <time>2016-10-03T09:18:03Z</time>
      </trkpt>
      <trkpt lat="46.06086" lon="6.08799">
        <ele>847.06</ele>
        <time>2016-10-03T09:18:04Z</time>
      </trkpt>
      <trkpt lat="46.06078" lon="6.08803">
        <ele>846.58</ele>
        <time>2016-10-03T09:18:05Z</time>
      </trkpt>
      <trkpt lat="46.06018" lon="6.08814">
        <ele>845.14</ele>
        <time>2016-10-03T09:18:12Z</time>
      </trkpt>
      <trkpt lat="46.05927" lon="6.08827">
        <ele>842.73</ele>
        <time>2016-10-03T09:18:23Z</time>
      </trkpt>
      <trkpt lat="46.05898" lon="6.08837">
        <ele>839.37</ele>
        <time>2016-10-03T09:18:27Z</time>
      </trkpt>
      <trkpt lat="46.05842" lon="6.08859">
        <ele>836</ele>
        <time>2016-10-03T09:18:35Z</time>
      </trkpt>
      <trkpt lat="46.05834" lon="6.08863">
        <ele>835.52</ele>
        <time>2016-10-03T09:18:36Z</time>
      </trkpt>
      <trkpt lat="46.05826" lon="6.08869">
        <ele>834.08</ele>
        <time>2016-10-03T09:18:37Z</time>
      </trkpt>
      <trkpt lat="46.05819" lon="6.08877">
        <ele>832.16</ele>
        <time>2016-10-03T09:18:38Z</time>
      </trkpt>
      <trkpt lat="46.05812" lon="6.08887">
        <ele>833.12</ele>
        <time>2016-10-03T09:18:39Z</time>
      </trkpt>
      <trkpt lat="46.05805" lon="6.08897">
        <ele>832.16</ele>
        <time>2016-10-03T09:18:40Z</time>
      </trkpt>
      <trkpt lat="46.0579" lon="6.08914">
        <ele>828.79</ele>
        <time>2016-10-03T09:18:42Z</time>
      </trkpt>
      <trkpt lat="46.05782" lon="6.08919">
        <ele>827.83</ele>
        <time>2016-10-03T09:18:43Z</time>
      </trkpt>
      <trkpt lat="46.05774" lon="6.08922">
        <ele>825.91</ele>
        <time>2016-10-03T09:18:44Z</time>
      </trkpt>
      <trkpt lat="46.05766" lon="6.08923">
        <ele>824.95</ele>
        <time>2016-10-03T09:18:45Z</time>
      </trkpt>
      <trkpt lat="46.05759" lon="6.08922">
        <ele>824.95</ele>
        <time>2016-10-03T09:18:46Z</time>
      </trkpt>
      <trkpt lat="46.05752" lon="6.08918">
        <ele>823.51</ele>
        <time>2016-10-03T09:18:47Z</time>
      </trkpt>
      <trkpt lat="46.05745" lon="6.08914">
        <ele>823.03</ele>
        <time>2016-10-03T09:18:48Z</time>
      </trkpt>
      <trkpt lat="46.05738" lon="6.08908">
        <ele>822.55</ele>
        <time>2016-10-03T09:18:49Z</time>
      </trkpt>
      <trkpt lat="46.05704" lon="6.08881">
        <ele>821.1</ele>
        <time>2016-10-03T09:18:53Z</time>
      </trkpt>
      <trkpt lat="46.05695" lon="6.08879">
        <ele>820.62</ele>
        <time>2016-10-03T09:18:54Z</time>
      </trkpt>
      <trkpt lat="46.05686" lon="6.08879">
        <ele>820.62</ele>
        <time>2016-10-03T09:18:55Z</time>
      </trkpt>
      <trkpt lat="46.05678" lon="6.08883">
        <ele>819.66</ele>
        <time>2016-10-03T09:18:56Z</time>
      </trkpt>
      <trkpt lat="46.05671" lon="6.08889">
        <ele>819.18</ele>
        <time>2016-10-03T09:18:57Z</time>
      </trkpt>
      <trkpt lat="46.05666" lon="6.08896">
        <ele>818.22</ele>
        <time>2016-10-03T09:18:58Z</time>
      </trkpt>
      <trkpt lat="46.05661" lon="6.08901">
        <ele>816.78</ele>
        <time>2016-10-03T09:18:59Z</time>
      </trkpt>
      <trkpt lat="46.05657" lon="6.08906">
        <ele>817.74</ele>
        <time>2016-10-03T09:19:00Z</time>
      </trkpt>
      <trkpt lat="46.05621" lon="6.08938">
        <ele>814.37</ele>
        <time>2016-10-03T09:19:07Z</time>
      </trkpt>
      <trkpt lat="46.05607" lon="6.08949">
        <ele>813.89</ele>
        <time>2016-10-03T09:19:09Z</time>
      </trkpt>
      <trkpt lat="46.05598" lon="6.08951">
        <ele>812.93</ele>
        <time>2016-10-03T09:19:10Z</time>
      </trkpt>
      <trkpt lat="46.05589" lon="6.08952">
        <ele>812.93</ele>
        <time>2016-10-03T09:19:11Z</time>
      </trkpt>
      <trkpt lat="46.05581" lon="6.0895">
        <ele>811.97</ele>
        <time>2016-10-03T09:19:12Z</time>
      </trkpt>
      <trkpt lat="46.05572" lon="6.08948">
        <ele>811.49</ele>
        <time>2016-10-03T09:19:13Z</time>
      </trkpt>
      <trkpt lat="46.05563" lon="6.08944">
        <ele>811.01</ele>
        <time>2016-10-03T09:19:14Z</time>
      </trkpt>
      <trkpt lat="46.0553" lon="6.08933">
        <ele>807.64</ele>
        <time>2016-10-03T09:19:18Z</time>
      </trkpt>
      <trkpt lat="46.05522" lon="6.08931">
        <ele>807.16</ele>
        <time>2016-10-03T09:19:19Z</time>
      </trkpt>
      <trkpt lat="46.05513" lon="6.08931">
        <ele>806.2</ele>
        <time>2016-10-03T09:19:20Z</time>
      </trkpt>
      <trkpt lat="46.05505" lon="6.08932">
        <ele>805.24</ele>
        <time>2016-10-03T09:19:21Z</time>
      </trkpt>
      <trkpt lat="46.05467" lon="6.08946">
        <ele>802.84</ele>
        <time>2016-10-03T09:19:25Z</time>
      </trkpt>
      <trkpt lat="46.05448" lon="6.0896">
        <ele>799.47</ele>
        <time>2016-10-03T09:19:27Z</time>
      </trkpt>
      <trkpt lat="46.05439" lon="6.08966">
        <ele>798.99</ele>
        <time>2016-10-03T09:19:28Z</time>
      </trkpt>
      <trkpt lat="46.05414" lon="6.0898">
        <ele>798.51</ele>
        <time>2016-10-03T09:19:31Z</time>
      </trkpt>
      <trkpt lat="46.05405" lon="6.08983">
        <ele>797.55</ele>
        <time>2016-10-03T09:19:32Z</time>
      </trkpt>
      <trkpt lat="46.05396" lon="6.08984">
        <ele>796.59</ele>
        <time>2016-10-03T09:19:33Z</time>
      </trkpt>
      <trkpt lat="46.05387" lon="6.08982">
        <ele>795.63</ele>
        <time>2016-10-03T09:19:34Z</time>
      </trkpt>
      <trkpt lat="46.05379" lon="6.08977">
        <ele>794.67</ele>
        <time>2016-10-03T09:19:35Z</time>
      </trkpt>
      <trkpt lat="46.0537" lon="6.08972">
        <ele>793.71</ele>
        <time>2016-10-03T09:19:36Z</time>
      </trkpt>
      <trkpt lat="46.05324" lon="6.08952">
        <ele>790.34</ele>
        <time>2016-10-03T09:19:40Z</time>
      </trkpt>
      <trkpt lat="46.05287" lon="6.08944">
        <ele>785.05</ele>
        <time>2016-10-03T09:19:43Z</time>
      </trkpt>
      <trkpt lat="46.05251" lon="6.08936">
        <ele>781.21</ele>
        <time>2016-10-03T09:19:46Z</time>
      </trkpt>
      <trkpt lat="46.05239" lon="6.08932">
        <ele>780.25</ele>
        <time>2016-10-03T09:19:47Z</time>
      </trkpt>
      <trkpt lat="46.05204" lon="6.08921">
        <ele>778.32</ele>
        <time>2016-10-03T09:19:50Z</time>
      </trkpt>
      <trkpt lat="46.05192" lon="6.08919">
        <ele>778.32</ele>
        <time>2016-10-03T09:19:51Z</time>
      </trkpt>
      <trkpt lat="46.0518" lon="6.08919">
        <ele>778.32</ele>
        <time>2016-10-03T09:19:52Z</time>
      </trkpt>
      <trkpt lat="46.05144" lon="6.0892">
        <ele>775.44</ele>
        <time>2016-10-03T09:19:55Z</time>
      </trkpt>
      <trkpt lat="46.05087" lon="6.08912">
        <ele>771.6</ele>
        <time>2016-10-03T09:20:01Z</time>
      </trkpt>
      <trkpt lat="46.05075" lon="6.08907">
        <ele>770.15</ele>
        <time>2016-10-03T09:20:03Z</time>
      </trkpt>
      <trkpt lat="46.05071" lon="6.08904">
        <ele>768.71</ele>
        <time>2016-10-03T09:20:04Z</time>
      </trkpt>
      <trkpt lat="46.05067" lon="6.08899">
        <ele>769.19</ele>
        <time>2016-10-03T09:20:05Z</time>
      </trkpt>
      <trkpt lat="46.05064" lon="6.08894">
        <ele>768.23</ele>
        <time>2016-10-03T09:20:06Z</time>
      </trkpt>
      <trkpt lat="46.05064" lon="6.08889">
        <ele>767.75</ele>
        <time>2016-10-03T09:20:07Z</time>
      </trkpt>
      <trkpt lat="46.05063" lon="6.08884">
        <ele>766.79</ele>
        <time>2016-10-03T09:20:08Z</time>
      </trkpt>
      <trkpt lat="46.05064" lon="6.08881">
        <ele>765.83</ele>
        <time>2016-10-03T09:20:09Z</time>
      </trkpt>
      <trkpt lat="46.05065" lon="6.08877">
        <ele>766.31</ele>
        <time>2016-10-03T09:20:10Z</time>
      </trkpt>
      <trkpt lat="46.0507" lon="6.08864">
        <ele>765.35</ele>
        <time>2016-10-03T09:20:14Z</time>
      </trkpt>
      <trkpt lat="46.0507" lon="6.08863">
        <ele>765.83</ele>
        <time>2016-10-03T09:20:15Z</time>
      </trkpt>
      <trkpt lat="46.05068" lon="6.08863">
        <ele>765.83</ele>
        <time>2016-10-03T09:20:16Z</time>
      </trkpt>
      <trkpt lat="46.05067" lon="6.08863">
        <ele>765.83</ele>
        <time>2016-10-03T09:20:17Z</time>
      </trkpt>
      <trkpt lat="46.05066" lon="6.08865">
        <ele>766.31</ele>
        <time>2016-10-03T09:20:18Z</time>
      </trkpt>
      <trkpt lat="46.05066" lon="6.08868">
        <ele>766.79</ele>
        <time>2016-10-03T09:20:19Z</time>
      </trkpt>
      <trkpt lat="46.05046" lon="6.08914">
        <ele>767.27</ele>
        <time>2016-10-03T09:20:34Z</time>
      </trkpt>
      <trkpt lat="46.05042" lon="6.08917">
        <ele>766.79</ele>
        <time>2016-10-03T09:20:35Z</time>
      </trkpt>
      <trkpt lat="46.05037" lon="6.0892">
        <ele>766.31</ele>
        <time>2016-10-03T09:20:36Z</time>
      </trkpt>
      <trkpt lat="46.05031" lon="6.08922">
        <ele>765.83</ele>
        <time>2016-10-03T09:20:37Z</time>
      </trkpt>
      <trkpt lat="46.05008" lon="6.08925">
        <ele>762.94</ele>
        <time>2016-10-03T09:20:40Z</time>
      </trkpt>
      <trkpt lat="46.04981" lon="6.08926">
        <ele>761.02</ele>
        <time>2016-10-03T09:20:43Z</time>
      </trkpt>
      <trkpt lat="46.04962" lon="6.08924">
        <ele>758.14</ele>
        <time>2016-10-03T09:20:45Z</time>
      </trkpt>
      <trkpt lat="46.04931" lon="6.08918">
        <ele>754.77</ele>
        <time>2016-10-03T09:20:48Z</time>
      </trkpt>
      <trkpt lat="46.0492" lon="6.08916">
        <ele>750.93</ele>
        <time>2016-10-03T09:20:49Z</time>
      </trkpt>
      <trkpt lat="46.0491" lon="6.08915">
        <ele>751.89</ele>
        <time>2016-10-03T09:20:50Z</time>
      </trkpt>
      <trkpt lat="46.04888" lon="6.08915">
        <ele>753.81</ele>
        <time>2016-10-03T09:20:52Z</time>
      </trkpt>
      <trkpt lat="46.04846" lon="6.08923">
        <ele>749.97</ele>
        <time>2016-10-03T09:20:56Z</time>
      </trkpt>
      <trkpt lat="46.04819" lon="6.08933">
        <ele>746.6</ele>
        <time>2016-10-03T09:20:59Z</time>
      </trkpt>
      <trkpt lat="46.04811" lon="6.08939">
        <ele>745.16</ele>
        <time>2016-10-03T09:21:00Z</time>
      </trkpt>
      <trkpt lat="46.04804" lon="6.08946">
        <ele>745.16</ele>
        <time>2016-10-03T09:21:01Z</time>
      </trkpt>
      <trkpt lat="46.04797" lon="6.08954">
        <ele>744.68</ele>
        <time>2016-10-03T09:21:02Z</time>
      </trkpt>
      <trkpt lat="46.04792" lon="6.08964">
        <ele>743.72</ele>
        <time>2016-10-03T09:21:03Z</time>
      </trkpt>
      <trkpt lat="46.04788" lon="6.08974">
        <ele>743.24</ele>
        <time>2016-10-03T09:21:04Z</time>
      </trkpt>
      <trkpt lat="46.04786" lon="6.08984">
        <ele>742.76</ele>
        <time>2016-10-03T09:21:05Z</time>
      </trkpt>
      <trkpt lat="46.04784" lon="6.08994">
        <ele>742.28</ele>
        <time>2016-10-03T09:21:06Z</time>
      </trkpt>
      <trkpt lat="46.04771" lon="6.09033">
        <ele>740.83</ele>
        <time>2016-10-03T09:21:12Z</time>
      </trkpt>
      <trkpt lat="46.04748" lon="6.09026">
        <ele>740.83</ele>
        <time>2016-10-03T09:21:22Z</time>
      </trkpt>
      <trkpt lat="46.04738" lon="6.09006">
        <ele>740.83</ele>
        <time>2016-10-03T09:21:27Z</time>
      </trkpt>
      <trkpt lat="46.04734" lon="6.09003">
        <ele>741.31</ele>
        <time>2016-10-03T09:21:28Z</time>
      </trkpt>
      <trkpt lat="46.0473" lon="6.09002">
        <ele>739.87</ele>
        <time>2016-10-03T09:21:29Z</time>
      </trkpt>
      <trkpt lat="46.04725" lon="6.09003">
        <ele>740.35</ele>
        <time>2016-10-03T09:21:30Z</time>
      </trkpt>
      <trkpt lat="46.0472" lon="6.09006">
        <ele>740.35</ele>
        <time>2016-10-03T09:21:31Z</time>
      </trkpt>
      <trkpt lat="46.04716" lon="6.0901">
        <ele>740.35</ele>
        <time>2016-10-03T09:21:32Z</time>
      </trkpt>
      <trkpt lat="46.04712" lon="6.09016">
        <ele>739.87</ele>
        <time>2016-10-03T09:21:33Z</time>
      </trkpt>
      <trkpt lat="46.0471" lon="6.09024">
        <ele>740.35</ele>
        <time>2016-10-03T09:21:34Z</time>
      </trkpt>
      <trkpt lat="46.04709" lon="6.09032">
        <ele>738.91</ele>
        <time>2016-10-03T09:21:35Z</time>
      </trkpt>
      <trkpt lat="46.04708" lon="6.0904">
        <ele>738.91</ele>
        <time>2016-10-03T09:21:36Z</time>
      </trkpt>
      <trkpt lat="46.04707" lon="6.09049">
        <ele>738.91</ele>
        <time>2016-10-03T09:21:37Z</time>
      </trkpt>
      <trkpt lat="46.04704" lon="6.09056">
        <ele>738.43</ele>
        <time>2016-10-03T09:21:38Z</time>
      </trkpt>
      <trkpt lat="46.04695" lon="6.09077">
        <ele>739.87</ele>
        <time>2016-10-03T09:21:41Z</time>
      </trkpt>
      <trkpt lat="46.04623" lon="6.09193">
        <ele>737.95</ele>
        <time>2016-10-03T09:21:58Z</time>
      </trkpt>
      <trkpt lat="46.04567" lon="6.09282">
        <ele>740.83</ele>
        <time>2016-10-03T09:22:13Z</time>
      </trkpt>
      <trkpt lat="46.04531" lon="6.09337">
        <ele>747.08</ele>
        <time>2016-10-03T09:22:27Z</time>
      </trkpt>
      <trkpt lat="46.04529" lon="6.09341">
        <ele>743.72</ele>
        <time>2016-10-03T09:22:28Z</time>
      </trkpt>
      <trkpt lat="46.04524" lon="6.09348">
        <ele>743.24</ele>
        <time>2016-10-03T09:22:30Z</time>
      </trkpt>
      <trkpt lat="46.0449" lon="6.09401">
        <ele>745.16</ele>
        <time>2016-10-03T09:22:46Z</time>
      </trkpt>
      <trkpt lat="46.04449" lon="6.09467">
        <ele>748.04</ele>
        <time>2016-10-03T09:23:05Z</time>
      </trkpt>
      <trkpt lat="46.04409" lon="6.09531">
        <ele>750.45</ele>
        <time>2016-10-03T09:23:24Z</time>
      </trkpt>
      <trkpt lat="46.04374" lon="6.09588">
        <ele>750.93</ele>
        <time>2016-10-03T09:23:40Z</time>
      </trkpt>
      <trkpt lat="46.04324" lon="6.09662">
        <ele>750.93</ele>
        <time>2016-10-03T09:23:58Z</time>
      </trkpt>
      <trkpt lat="46.0426" lon="6.09746">
        <ele>751.41</ele>
        <time>2016-10-03T09:24:17Z</time>
      </trkpt>
      <trkpt lat="46.04197" lon="6.09793">
        <ele>752.85</ele>
        <time>2016-10-03T09:24:34Z</time>
      </trkpt>
      <trkpt lat="46.04141" lon="6.09836">
        <ele>754.29</ele>
        <time>2016-10-03T09:24:51Z</time>
      </trkpt>
      <trkpt lat="46.04086" lon="6.09896">
        <ele>756.21</ele>
        <time>2016-10-03T09:25:08Z</time>
      </trkpt>
      <trkpt lat="46.04032" lon="6.0998">
        <ele>756.69</ele>
        <time>2016-10-03T09:25:27Z</time>
      </trkpt>
      <trkpt lat="46.03982" lon="6.10058">
        <ele>757.66</ele>
        <time>2016-10-03T09:25:46Z</time>
      </trkpt>
      <trkpt lat="46.03945" lon="6.10117">
        <ele>760.06</ele>
        <time>2016-10-03T09:26:01Z</time>
      </trkpt>
      <trkpt lat="46.03903" lon="6.1019">
        <ele>761.02</ele>
        <time>2016-10-03T09:26:19Z</time>
      </trkpt>
      <trkpt lat="46.0387" lon="6.10245">
        <ele>763.42</ele>
        <time>2016-10-03T09:26:34Z</time>
      </trkpt>
      <trkpt lat="46.03839" lon="6.10315">
        <ele>764.87</ele>
        <time>2016-10-03T09:26:51Z</time>
      </trkpt>
      <trkpt lat="46.03813" lon="6.10409">
        <ele>766.31</ele>
        <time>2016-10-03T09:27:11Z</time>
      </trkpt>
      <trkpt lat="46.03796" lon="6.10499">
        <ele>767.27</ele>
        <time>2016-10-03T09:27:29Z</time>
      </trkpt>
      <trkpt lat="46.03761" lon="6.10582">
        <ele>768.23</ele>
        <time>2016-10-03T09:27:46Z</time>
      </trkpt>
      <trkpt lat="46.03708" lon="6.10662">
        <ele>769.67</ele>
        <time>2016-10-03T09:28:05Z</time>
      </trkpt>
      <trkpt lat="46.03659" lon="6.10728">
        <ele>772.08</ele>
        <time>2016-10-03T09:28:22Z</time>
      </trkpt>
      <trkpt lat="46.03623" lon="6.1077">
        <ele>772.56</ele>
        <time>2016-10-03T09:28:34Z</time>
      </trkpt>
      <trkpt lat="46.0362" lon="6.10774">
        <ele>772.56</ele>
        <time>2016-10-03T09:28:35Z</time>
      </trkpt>
      <trkpt lat="46.0357" lon="6.10825">
        <ele>774</ele>
        <time>2016-10-03T09:28:52Z</time>
      </trkpt>
      <trkpt lat="46.03511" lon="6.10868">
        <ele>774.96</ele>
        <time>2016-10-03T09:29:11Z</time>
      </trkpt>
      <trkpt lat="46.03469" lon="6.10854">
        <ele>774.96</ele>
        <time>2016-10-03T09:29:24Z</time>
      </trkpt>
      <trkpt lat="46.03438" lon="6.1082">
        <ele>775.92</ele>
        <time>2016-10-03T09:29:36Z</time>
      </trkpt>
      <trkpt lat="46.03417" lon="6.10795">
        <ele>777.84</ele>
        <time>2016-10-03T09:29:47Z</time>
      </trkpt>
      <trkpt lat="46.03395" lon="6.10772">
        <ele>779.29</ele>
        <time>2016-10-03T09:30:00Z</time>
      </trkpt>
      <trkpt lat="46.03367" lon="6.10748">
        <ele>781.69</ele>
        <time>2016-10-03T09:30:15Z</time>
      </trkpt>
      <trkpt lat="46.03346" lon="6.10723">
        <ele>783.13</ele>
        <time>2016-10-03T09:30:28Z</time>
      </trkpt>
      <trkpt lat="46.03317" lon="6.10696">
        <ele>784.09</ele>
        <time>2016-10-03T09:30:42Z</time>
      </trkpt>
      <trkpt lat="46.03294" lon="6.1068">
        <ele>784.57</ele>
        <time>2016-10-03T09:30:55Z</time>
      </trkpt>
      <trkpt lat="46.0329" lon="6.10678">
        <ele>785.05</ele>
        <time>2016-10-03T09:30:58Z</time>
      </trkpt>
      <trkpt lat="46.03289" lon="6.10678">
        <ele>785.05</ele>
        <time>2016-10-03T09:30:59Z</time>
      </trkpt>
      <trkpt lat="46.03287" lon="6.10677">
        <ele>785.05</ele>
        <time>2016-10-03T09:31:00Z</time>
      </trkpt>
      <trkpt lat="46.03286" lon="6.10675">
        <ele>784.57</ele>
        <time>2016-10-03T09:31:01Z</time>
      </trkpt>
      <trkpt lat="46.03284" lon="6.10673">
        <ele>785.05</ele>
        <time>2016-10-03T09:31:02Z</time>
      </trkpt>
      <trkpt lat="46.03283" lon="6.10671">
        <ele>785.05</ele>
        <time>2016-10-03T09:31:03Z</time>
      </trkpt>
      <trkpt lat="46.03281" lon="6.10669">
        <ele>785.05</ele>
        <time>2016-10-03T09:31:04Z</time>
      </trkpt>
      <trkpt lat="46.03244" lon="6.10643">
        <ele>784.57</ele>
        <time>2016-10-03T09:31:16Z</time>
      </trkpt>
      <trkpt lat="46.03176" lon="6.10594">
        <ele>781.69</ele>
        <time>2016-10-03T09:31:29Z</time>
      </trkpt>
      <trkpt lat="46.0311" lon="6.10549">
        <ele>779.29</ele>
        <time>2016-10-03T09:31:39Z</time>
      </trkpt>
      <trkpt lat="46.03089" lon="6.10537">
        <ele>779.29</ele>
        <time>2016-10-03T09:31:44Z</time>
      </trkpt>
      <trkpt lat="46.03084" lon="6.10537">
        <ele>778.81</ele>
        <time>2016-10-03T09:31:45Z</time>
      </trkpt>
      <trkpt lat="46.03079" lon="6.10538">
        <ele>778.32</ele>
        <time>2016-10-03T09:31:46Z</time>
      </trkpt>
      <trkpt lat="46.03073" lon="6.10538">
        <ele>778.32</ele>
        <time>2016-10-03T09:31:47Z</time>
      </trkpt>
      <trkpt lat="46.03067" lon="6.10538">
        <ele>777.84</ele>
        <time>2016-10-03T09:31:48Z</time>
      </trkpt>
      <trkpt lat="46.03021" lon="6.1054">
        <ele>774</ele>
        <time>2016-10-03T09:31:54Z</time>
      </trkpt>
      <trkpt lat="46.02984" lon="6.10542">
        <ele>770.63</ele>
        <time>2016-10-03T09:31:58Z</time>
      </trkpt>
      <trkpt lat="46.02974" lon="6.10543">
        <ele>771.11</ele>
        <time>2016-10-03T09:31:59Z</time>
      </trkpt>
      <trkpt lat="46.0289" lon="6.10547">
        <ele>767.75</ele>
        <time>2016-10-03T09:32:07Z</time>
      </trkpt>
      <trkpt lat="46.02852" lon="6.10549">
        <ele>765.83</ele>
        <time>2016-10-03T09:32:11Z</time>
      </trkpt>
      <trkpt lat="46.02835" lon="6.10545">
        <ele>764.87</ele>
        <time>2016-10-03T09:32:13Z</time>
      </trkpt>
      <trkpt lat="46.02826" lon="6.10542">
        <ele>764.39</ele>
        <time>2016-10-03T09:32:14Z</time>
      </trkpt>
      <trkpt lat="46.02818" lon="6.10537">
        <ele>764.39</ele>
        <time>2016-10-03T09:32:15Z</time>
      </trkpt>
      <trkpt lat="46.0281" lon="6.10531">
        <ele>764.39</ele>
        <time>2016-10-03T09:32:16Z</time>
      </trkpt>
      <trkpt lat="46.02802" lon="6.10525">
        <ele>764.39</ele>
        <time>2016-10-03T09:32:17Z</time>
      </trkpt>
      <trkpt lat="46.02795" lon="6.10516">
        <ele>762.94</ele>
        <time>2016-10-03T09:32:18Z</time>
      </trkpt>
      <trkpt lat="46.02788" lon="6.10507">
        <ele>762.94</ele>
        <time>2016-10-03T09:32:19Z</time>
      </trkpt>
      <trkpt lat="46.02782" lon="6.10497">
        <ele>761.5</ele>
        <time>2016-10-03T09:32:20Z</time>
      </trkpt>
      <trkpt lat="46.02776" lon="6.10486">
        <ele>761.5</ele>
        <time>2016-10-03T09:32:21Z</time>
      </trkpt>
      <trkpt lat="46.02771" lon="6.10475">
        <ele>762.46</ele>
        <time>2016-10-03T09:32:22Z</time>
      </trkpt>
      <trkpt lat="46.02767" lon="6.10462">
        <ele>760.54</ele>
        <time>2016-10-03T09:32:23Z</time>
      </trkpt>
      <trkpt lat="46.02764" lon="6.1045">
        <ele>760.06</ele>
        <time>2016-10-03T09:32:24Z</time>
      </trkpt>
      <trkpt lat="46.02761" lon="6.10438">
        <ele>760.06</ele>
        <time>2016-10-03T09:32:25Z</time>
      </trkpt>
      <trkpt lat="46.02759" lon="6.10425">
        <ele>760.54</ele>
        <time>2016-10-03T09:32:26Z</time>
      </trkpt>
      <trkpt lat="46.02758" lon="6.10412">
        <ele>760.06</ele>
        <time>2016-10-03T09:32:27Z</time>
      </trkpt>
      <trkpt lat="46.02758" lon="6.104">
        <ele>760.06</ele>
        <time>2016-10-03T09:32:28Z</time>
      </trkpt>
      <trkpt lat="46.02758" lon="6.10388">
        <ele>760.06</ele>
        <time>2016-10-03T09:32:29Z</time>
      </trkpt>
      <trkpt lat="46.0276" lon="6.10376">
        <ele>760.06</ele>
        <time>2016-10-03T09:32:30Z</time>
      </trkpt>
      <trkpt lat="46.02761" lon="6.10363">
        <ele>759.58</ele>
        <time>2016-10-03T09:32:31Z</time>
      </trkpt>
      <trkpt lat="46.02782" lon="6.10236">
        <ele>757.18</ele>
        <time>2016-10-03T09:32:42Z</time>
      </trkpt>
      <trkpt lat="46.02781" lon="6.10188">
        <ele>757.66</ele>
        <time>2016-10-03T09:32:46Z</time>
      </trkpt>
      <trkpt lat="46.02769" lon="6.10139">
        <ele>756.69</ele>
        <time>2016-10-03T09:32:50Z</time>
      </trkpt>
      <trkpt lat="46.02764" lon="6.10127">
        <ele>755.73</ele>
        <time>2016-10-03T09:32:51Z</time>
      </trkpt>
      <trkpt lat="46.02759" lon="6.10116">
        <ele>756.21</ele>
        <time>2016-10-03T09:32:52Z</time>
      </trkpt>
      <trkpt lat="46.02753" lon="6.10105">
        <ele>755.73</ele>
        <time>2016-10-03T09:32:53Z</time>
      </trkpt>
      <trkpt lat="46.02746" lon="6.10094">
        <ele>755.25</ele>
        <time>2016-10-03T09:32:54Z</time>
      </trkpt>
      <trkpt lat="46.02739" lon="6.10085">
        <ele>755.25</ele>
        <time>2016-10-03T09:32:55Z</time>
      </trkpt>
      <trkpt lat="46.02731" lon="6.10076">
        <ele>754.77</ele>
        <time>2016-10-03T09:32:56Z</time>
      </trkpt>
      <trkpt lat="46.02723" lon="6.10069">
        <ele>754.77</ele>
        <time>2016-10-03T09:32:57Z</time>
      </trkpt>
      <trkpt lat="46.02706" lon="6.10056">
        <ele>754.29</ele>
        <time>2016-10-03T09:32:59Z</time>
      </trkpt>
      <trkpt lat="46.02618" lon="6.10044">
        <ele>750.93</ele>
        <time>2016-10-03T09:33:08Z</time>
      </trkpt>
      <trkpt lat="46.02609" lon="6.10048">
        <ele>750.93</ele>
        <time>2016-10-03T09:33:09Z</time>
      </trkpt>
      <trkpt lat="46.02599" lon="6.10053">
        <ele>749.97</ele>
        <time>2016-10-03T09:33:10Z</time>
      </trkpt>
      <trkpt lat="46.0259" lon="6.10059">
        <ele>750.45</ele>
        <time>2016-10-03T09:33:11Z</time>
      </trkpt>
      <trkpt lat="46.02581" lon="6.10067">
        <ele>749.49</ele>
        <time>2016-10-03T09:33:12Z</time>
      </trkpt>
      <trkpt lat="46.02572" lon="6.10076">
        <ele>748.04</ele>
        <time>2016-10-03T09:33:13Z</time>
      </trkpt>
      <trkpt lat="46.02564" lon="6.10085">
        <ele>747.56</ele>
        <time>2016-10-03T09:33:14Z</time>
      </trkpt>
      <trkpt lat="46.02556" lon="6.10095">
        <ele>747.56</ele>
        <time>2016-10-03T09:33:15Z</time>
      </trkpt>
      <trkpt lat="46.02514" lon="6.10148">
        <ele>746.12</ele>
        <time>2016-10-03T09:33:20Z</time>
      </trkpt>
      <trkpt lat="46.02494" lon="6.10165">
        <ele>745.16</ele>
        <time>2016-10-03T09:33:22Z</time>
      </trkpt>
      <trkpt lat="46.02484" lon="6.10172">
        <ele>743.72</ele>
        <time>2016-10-03T09:33:23Z</time>
      </trkpt>
      <trkpt lat="46.02473" lon="6.10177">
        <ele>744.2</ele>
        <time>2016-10-03T09:33:24Z</time>
      </trkpt>
      <trkpt lat="46.02461" lon="6.10179">
        <ele>743.72</ele>
        <time>2016-10-03T09:33:25Z</time>
      </trkpt>
      <trkpt lat="46.02449" lon="6.1018">
        <ele>742.28</ele>
        <time>2016-10-03T09:33:26Z</time>
      </trkpt>
      <trkpt lat="46.02438" lon="6.1018">
        <ele>742.76</ele>
        <time>2016-10-03T09:33:27Z</time>
      </trkpt>
      <trkpt lat="46.02347" lon="6.1018">
        <ele>739.87</ele>
        <time>2016-10-03T09:33:35Z</time>
      </trkpt>
      <trkpt lat="46.02313" lon="6.10194">
        <ele>738.91</ele>
        <time>2016-10-03T09:33:38Z</time>
      </trkpt>
      <trkpt lat="46.02254" lon="6.10244">
        <ele>735.07</ele>
        <time>2016-10-03T09:33:44Z</time>
      </trkpt>
      <trkpt lat="46.02194" lon="6.10298">
        <ele>730.74</ele>
        <time>2016-10-03T09:33:50Z</time>
      </trkpt>
      <trkpt lat="46.02184" lon="6.10306">
        <ele>730.74</ele>
        <time>2016-10-03T09:33:51Z</time>
      </trkpt>
      <trkpt lat="46.02115" lon="6.10331">
        <ele>727.37</ele>
        <time>2016-10-03T09:33:57Z</time>
      </trkpt>
      <trkpt lat="46.0209" lon="6.10333">
        <ele>725.93</ele>
        <time>2016-10-03T09:33:59Z</time>
      </trkpt>
      <trkpt lat="46.02042" lon="6.10328">
        <ele>721.61</ele>
        <time>2016-10-03T09:34:03Z</time>
      </trkpt>
      <trkpt lat="46.0203" lon="6.10326">
        <ele>722.57</ele>
        <time>2016-10-03T09:34:04Z</time>
      </trkpt>
      <trkpt lat="46.01992" lon="6.10315">
        <ele>721.13</ele>
        <time>2016-10-03T09:34:07Z</time>
      </trkpt>
      <trkpt lat="46.01943" lon="6.10302">
        <ele>716.8</ele>
        <time>2016-10-03T09:34:11Z</time>
      </trkpt>
      <trkpt lat="46.01892" lon="6.10295">
        <ele>714.4</ele>
        <time>2016-10-03T09:34:15Z</time>
      </trkpt>
      <trkpt lat="46.01855" lon="6.10295">
        <ele>711.99</ele>
        <time>2016-10-03T09:34:18Z</time>
      </trkpt>
      <trkpt lat="46.01785" lon="6.10314">
        <ele>709.11</ele>
        <time>2016-10-03T09:34:24Z</time>
      </trkpt>
      <trkpt lat="46.01751" lon="6.10328">
        <ele>705.75</ele>
        <time>2016-10-03T09:34:27Z</time>
      </trkpt>
      <trkpt lat="46.01705" lon="6.10347">
        <ele>700.94</ele>
        <time>2016-10-03T09:34:31Z</time>
      </trkpt>
      <trkpt lat="46.01693" lon="6.10352">
        <ele>700.94</ele>
        <time>2016-10-03T09:34:32Z</time>
      </trkpt>
      <trkpt lat="46.01653" lon="6.10367">
        <ele>698.05</ele>
        <time>2016-10-03T09:34:36Z</time>
      </trkpt>
      <trkpt lat="46.01644" lon="6.10369">
        <ele>697.57</ele>
        <time>2016-10-03T09:34:37Z</time>
      </trkpt>
      <trkpt lat="46.01636" lon="6.10369">
        <ele>697.57</ele>
        <time>2016-10-03T09:34:38Z</time>
      </trkpt>
      <trkpt lat="46.01628" lon="6.10367">
        <ele>697.57</ele>
        <time>2016-10-03T09:34:39Z</time>
      </trkpt>
      <trkpt lat="46.01621" lon="6.10365">
        <ele>697.09</ele>
        <time>2016-10-03T09:34:40Z</time>
      </trkpt>
      <trkpt lat="46.01614" lon="6.10365">
        <ele>697.09</ele>
        <time>2016-10-03T09:34:41Z</time>
      </trkpt>
      <trkpt lat="46.01607" lon="6.10367">
        <ele>696.61</ele>
        <time>2016-10-03T09:34:42Z</time>
      </trkpt>
      <trkpt lat="46.01601" lon="6.10372">
        <ele>696.13</ele>
        <time>2016-10-03T09:34:43Z</time>
      </trkpt>
      <trkpt lat="46.01597" lon="6.1038">
        <ele>696.13</ele>
        <time>2016-10-03T09:34:44Z</time>
      </trkpt>
      <trkpt lat="46.01596" lon="6.10389">
        <ele>696.13</ele>
        <time>2016-10-03T09:34:45Z</time>
      </trkpt>
      <trkpt lat="46.01597" lon="6.10398">
        <ele>696.13</ele>
        <time>2016-10-03T09:34:46Z</time>
      </trkpt>
      <trkpt lat="46.01599" lon="6.10406">
        <ele>696.13</ele>
        <time>2016-10-03T09:34:47Z</time>
      </trkpt>
      <trkpt lat="46.01601" lon="6.10414">
        <ele>696.61</ele>
        <time>2016-10-03T09:34:48Z</time>
      </trkpt>
      <trkpt lat="46.01601" lon="6.10422">
        <ele>697.09</ele>
        <time>2016-10-03T09:34:49Z</time>
      </trkpt>
      <trkpt lat="46.01601" lon="6.1043">
        <ele>696.61</ele>
        <time>2016-10-03T09:34:50Z</time>
      </trkpt>
      <trkpt lat="46.01599" lon="6.10438">
        <ele>697.09</ele>
        <time>2016-10-03T09:34:51Z</time>
      </trkpt>
      <trkpt lat="46.01586" lon="6.10492">
        <ele>694.69</ele>
        <time>2016-10-03T09:34:57Z</time>
      </trkpt>
      <trkpt lat="46.01574" lon="6.10533">
        <ele>691.33</ele>
        <time>2016-10-03T09:35:01Z</time>
      </trkpt>
      <trkpt lat="46.01549" lon="6.10628">
        <ele>689.4</ele>
        <time>2016-10-03T09:35:09Z</time>
      </trkpt>
      <trkpt lat="46.01536" lon="6.10683">
        <ele>687</ele>
        <time>2016-10-03T09:35:13Z</time>
      </trkpt>
      <trkpt lat="46.01527" lon="6.10727">
        <ele>685.08</ele>
        <time>2016-10-03T09:35:16Z</time>
      </trkpt>
      <trkpt lat="46.01514" lon="6.10788">
        <ele>683.15</ele>
        <time>2016-10-03T09:35:20Z</time>
      </trkpt>
      <trkpt lat="46.01497" lon="6.10866">
        <ele>678.83</ele>
        <time>2016-10-03T09:35:25Z</time>
      </trkpt>
      <trkpt lat="46.01494" lon="6.10882">
        <ele>679.79</ele>
        <time>2016-10-03T09:35:26Z</time>
      </trkpt>
      <trkpt lat="46.01487" lon="6.10914">
        <ele>674.98</ele>
        <time>2016-10-03T09:35:28Z</time>
      </trkpt>
      <trkpt lat="46.01441" lon="6.1108">
        <ele>670.66</ele>
        <time>2016-10-03T09:35:39Z</time>
      </trkpt>
      <trkpt lat="46.01435" lon="6.11094">
        <ele>670.66</ele>
        <time>2016-10-03T09:35:40Z</time>
      </trkpt>
      <trkpt lat="46.01372" lon="6.11169">
        <ele>666.81</ele>
        <time>2016-10-03T09:35:47Z</time>
      </trkpt>
      <trkpt lat="46.0135" lon="6.11182">
        <ele>662.49</ele>
        <time>2016-10-03T09:35:49Z</time>
      </trkpt>
      <trkpt lat="46.01338" lon="6.11188">
        <ele>662.49</ele>
        <time>2016-10-03T09:35:50Z</time>
      </trkpt>
      <trkpt lat="46.01274" lon="6.11201">
        <ele>662.97</ele>
        <time>2016-10-03T09:35:57Z</time>
      </trkpt>
      <trkpt lat="46.01188" lon="6.11205">
        <ele>663.45</ele>
        <time>2016-10-03T09:36:10Z</time>
      </trkpt>
      <trkpt lat="46.01137" lon="6.11207">
        <ele>662.97</ele>
        <time>2016-10-03T09:36:23Z</time>
      </trkpt>
      <trkpt lat="46.01123" lon="6.11207">
        <ele>662.97</ele>
        <time>2016-10-03T09:36:27Z</time>
      </trkpt>
      <trkpt lat="46.01045" lon="6.11218">
        <ele>662.01</ele>
        <time>2016-10-03T09:36:43Z</time>
      </trkpt>
      <trkpt lat="46.01037" lon="6.11221">
        <ele>662.01</ele>
        <time>2016-10-03T09:36:45Z</time>
      </trkpt>
      <trkpt lat="46.01033" lon="6.1122">
        <ele>662.49</ele>
        <time>2016-10-03T09:36:46Z</time>
      </trkpt>
      <trkpt lat="46.0103" lon="6.11217">
        <ele>662.01</ele>
        <time>2016-10-03T09:36:47Z</time>
      </trkpt>
      <trkpt lat="46.0103" lon="6.11213">
        <ele>662.01</ele>
        <time>2016-10-03T09:36:48Z</time>
      </trkpt>
      <trkpt lat="46.01031" lon="6.11208">
        <ele>662.01</ele>
        <time>2016-10-03T09:36:49Z</time>
      </trkpt>
      <trkpt lat="46.01033" lon="6.11204">
        <ele>662.49</ele>
        <time>2016-10-03T09:36:50Z</time>
      </trkpt>
      <trkpt lat="46.01036" lon="6.11201">
        <ele>662.97</ele>
        <time>2016-10-03T09:36:51Z</time>
      </trkpt>
      <trkpt lat="46.01039" lon="6.11198">
        <ele>662.97</ele>
        <time>2016-10-03T09:36:52Z</time>
      </trkpt>
      <trkpt lat="46.01051" lon="6.11176">
        <ele>661.04</ele>
        <time>2016-10-03T09:36:57Z</time>
      </trkpt>
      <trkpt lat="46.0108" lon="6.1111">
        <ele>662.01</ele>
        <time>2016-10-03T09:37:11Z</time>
      </trkpt>
      <trkpt lat="46.01082" lon="6.11107">
        <ele>661.52</ele>
        <time>2016-10-03T09:37:12Z</time>
      </trkpt>
      <trkpt lat="46.01084" lon="6.11106">
        <ele>661.04</ele>
        <time>2016-10-03T09:37:13Z</time>
      </trkpt>
      <trkpt lat="46.01109" lon="6.11112">
        <ele>661.04</ele>
        <time>2016-10-03T09:37:23Z</time>
      </trkpt>
      <trkpt lat="46.01148" lon="6.11125">
        <ele>661.52</ele>
        <time>2016-10-03T09:37:40Z</time>
      </trkpt>
      <trkpt lat="46.01177" lon="6.11133">
        <ele>662.49</ele>
        <time>2016-10-03T09:37:53Z</time>
      </trkpt>
      <trkpt lat="46.01175" lon="6.11131">
        <ele>662.97</ele>
        <time>2016-10-03T09:38:03Z</time>
      </trkpt>
      <trkpt lat="46.01178" lon="6.1113">
        <ele>662.97</ele>
        <time>2016-10-03T09:38:33Z</time>
      </trkpt>
      <trkpt lat="46.01177" lon="6.11127">
        <ele>662.97</ele>
        <time>2016-10-03T09:39:09Z</time>
      </trkpt>
      <trkpt lat="46.01172" lon="6.11126">
        <ele>663.45</ele>
        <time>2016-10-03T09:39:25Z</time>
      </trkpt>
      <trkpt lat="46.01171" lon="6.11126">
        <ele>662.97</ele>
        <time>2016-10-03T09:39:26Z</time>
      </trkpt>
      <trkpt lat="46.01169" lon="6.11125">
        <ele>662.49</ele>
        <time>2016-10-03T09:39:27Z</time>
      </trkpt>
      <trkpt lat="46.01166" lon="6.11125">
        <ele>662.97</ele>
        <time>2016-10-03T09:39:28Z</time>
      </trkpt>
      <trkpt lat="46.01164" lon="6.11124">
        <ele>662.97</ele>
        <time>2016-10-03T09:39:29Z</time>
      </trkpt>
      <trkpt lat="46.01161" lon="6.11123">
        <ele>662.97</ele>
        <time>2016-10-03T09:39:30Z</time>
      </trkpt>
      <trkpt lat="46.01113" lon="6.11109">
        <ele>661.52</ele>
        <time>2016-10-03T09:39:44Z</time>
      </trkpt>
      <trkpt lat="46.01086" lon="6.11103">
        <ele>661.52</ele>
        <time>2016-10-03T09:39:55Z</time>
      </trkpt>
      <trkpt lat="46.01079" lon="6.11104">
        <ele>661.52</ele>
        <time>2016-10-03T09:40:01Z</time>
      </trkpt>
      <trkpt lat="46.01078" lon="6.11106">
        <ele>661.04</ele>
        <time>2016-10-03T09:40:02Z</time>
      </trkpt>
      <trkpt lat="46.01076" lon="6.11109">
        <ele>661.52</ele>
        <time>2016-10-03T09:40:03Z</time>
      </trkpt>
      <trkpt lat="46.01047" lon="6.11176">
        <ele>662.49</ele>
        <time>2016-10-03T09:40:19Z</time>
      </trkpt>
      <trkpt lat="46.01015" lon="6.1123">
        <ele>663.45</ele>
        <time>2016-10-03T09:40:33Z</time>
      </trkpt>
      <trkpt lat="46.0101" lon="6.11239">
        <ele>662.97</ele>
        <time>2016-10-03T09:40:43Z</time>
      </trkpt>
      <trkpt lat="46.00983" lon="6.11272">
        <ele>661.52</ele>
        <time>2016-10-03T09:40:52Z</time>
      </trkpt>
      <trkpt lat="46.00948" lon="6.11374">
        <ele>661.04</ele>
        <time>2016-10-03T09:41:06Z</time>
      </trkpt>
      <trkpt lat="46.00946" lon="6.11382">
        <ele>660.56</ele>
        <time>2016-10-03T09:41:07Z</time>
      </trkpt>
      <trkpt lat="46.00941" lon="6.11401">
        <ele>660.08</ele>
        <time>2016-10-03T09:41:09Z</time>
      </trkpt>
      <trkpt lat="46.00906" lon="6.11506">
        <ele>657.2</ele>
        <time>2016-10-03T09:41:20Z</time>
      </trkpt>
      <trkpt lat="46.00814" lon="6.11665">
        <ele>654.8</ele>
        <time>2016-10-03T09:41:37Z</time>
      </trkpt>
      <trkpt lat="46.00753" lon="6.11764">
        <ele>652.87</ele>
        <time>2016-10-03T09:41:47Z</time>
      </trkpt>
      <trkpt lat="46.00745" lon="6.11771">
        <ele>651.91</ele>
        <time>2016-10-03T09:41:48Z</time>
      </trkpt>
      <trkpt lat="46.00737" lon="6.11777">
        <ele>651.91</ele>
        <time>2016-10-03T09:41:49Z</time>
      </trkpt>
      <trkpt lat="46.00663" lon="6.11823">
        <ele>648.55</ele>
        <time>2016-10-03T09:41:58Z</time>
      </trkpt>
      <trkpt lat="46.00607" lon="6.11856">
        <ele>646.62</ele>
        <time>2016-10-03T09:42:05Z</time>
      </trkpt>
      <trkpt lat="46.00531" lon="6.11901">
        <ele>645.66</ele>
        <time>2016-10-03T09:42:15Z</time>
      </trkpt>
      <trkpt lat="46.00515" lon="6.11905">
        <ele>645.18</ele>
        <time>2016-10-03T09:42:17Z</time>
      </trkpt>
      <trkpt lat="46.00508" lon="6.1191">
        <ele>645.18</ele>
        <time>2016-10-03T09:42:18Z</time>
      </trkpt>
      <trkpt lat="46.00501" lon="6.11916">
        <ele>644.22</ele>
        <time>2016-10-03T09:42:19Z</time>
      </trkpt>
      <trkpt lat="46.00495" lon="6.11922">
        <ele>644.7</ele>
        <time>2016-10-03T09:42:20Z</time>
      </trkpt>
      <trkpt lat="46.00488" lon="6.11927">
        <ele>643.74</ele>
        <time>2016-10-03T09:42:21Z</time>
      </trkpt>
      <trkpt lat="46.00481" lon="6.11932">
        <ele>643.74</ele>
        <time>2016-10-03T09:42:22Z</time>
      </trkpt>
      <trkpt lat="46.00378" lon="6.11988">
        <ele>641.82</ele>
        <time>2016-10-03T09:42:37Z</time>
      </trkpt>
      <trkpt lat="46.00273" lon="6.12053">
        <ele>640.38</ele>
        <time>2016-10-03T09:42:52Z</time>
      </trkpt>
      <trkpt lat="46.00238" lon="6.12076">
        <ele>638.93</ele>
        <time>2016-10-03T09:42:57Z</time>
      </trkpt>
      <trkpt lat="46.00231" lon="6.12081">
        <ele>638.45</ele>
        <time>2016-10-03T09:42:58Z</time>
      </trkpt>
      <trkpt lat="46.00179" lon="6.12113">
        <ele>637.49</ele>
        <time>2016-10-03T09:43:08Z</time>
      </trkpt>
      <trkpt lat="46.00103" lon="6.12159">
        <ele>635.57</ele>
        <time>2016-10-03T09:43:22Z</time>
      </trkpt>
      <trkpt lat="46.00097" lon="6.12163">
        <ele>635.57</ele>
        <time>2016-10-03T09:43:23Z</time>
      </trkpt>
      <trkpt lat="45.99999" lon="6.12219">
        <ele>636.05</ele>
        <time>2016-10-03T09:43:40Z</time>
      </trkpt>
      <trkpt lat="45.99955" lon="6.12248">
        <ele>636.05</ele>
        <time>2016-10-03T09:43:48Z</time>
      </trkpt>
      <trkpt lat="45.99944" lon="6.12258">
        <ele>635.57</ele>
        <time>2016-10-03T09:43:50Z</time>
      </trkpt>
      <trkpt lat="45.99926" lon="6.12267">
        <ele>635.57</ele>
        <time>2016-10-03T09:43:53Z</time>
      </trkpt>
      <trkpt lat="45.99914" lon="6.12271">
        <ele>635.57</ele>
        <time>2016-10-03T09:43:55Z</time>
      </trkpt>
      <trkpt lat="45.99909" lon="6.12274">
        <ele>635.57</ele>
        <time>2016-10-03T09:43:56Z</time>
      </trkpt>
      <trkpt lat="45.99868" lon="6.123">
        <ele>635.57</ele>
        <time>2016-10-03T09:44:07Z</time>
      </trkpt>
      <trkpt lat="45.99848" lon="6.12315">
        <ele>635.09</ele>
        <time>2016-10-03T09:44:13Z</time>
      </trkpt>
      <trkpt lat="45.99811" lon="6.12338">
        <ele>635.57</ele>
        <time>2016-10-03T09:44:21Z</time>
      </trkpt>
      <trkpt lat="45.99805" lon="6.12341">
        <ele>634.61</ele>
        <time>2016-10-03T09:44:22Z</time>
      </trkpt>
      <trkpt lat="45.99795" lon="6.12346">
        <ele>633.65</ele>
        <time>2016-10-03T09:44:24Z</time>
      </trkpt>
      <trkpt lat="45.99708" lon="6.124">
        <ele>631.72</ele>
        <time>2016-10-03T09:44:39Z</time>
      </trkpt>
      <trkpt lat="45.99606" lon="6.12442">
        <ele>632.68</ele>
        <time>2016-10-03T09:44:56Z</time>
      </trkpt>
      <trkpt lat="45.99601" lon="6.12441">
        <ele>632.68</ele>
        <time>2016-10-03T09:44:57Z</time>
      </trkpt>
      <trkpt lat="45.99597" lon="6.12439">
        <ele>632.68</ele>
        <time>2016-10-03T09:44:58Z</time>
      </trkpt>
      <trkpt lat="45.99594" lon="6.12436">
        <ele>633.17</ele>
        <time>2016-10-03T09:44:59Z</time>
      </trkpt>
      <trkpt lat="45.99591" lon="6.12432">
        <ele>632.68</ele>
        <time>2016-10-03T09:45:00Z</time>
      </trkpt>
      <trkpt lat="45.9959" lon="6.12429">
        <ele>633.17</ele>
        <time>2016-10-03T09:45:01Z</time>
      </trkpt>
      <trkpt lat="45.99587" lon="6.12428">
        <ele>633.17</ele>
        <time>2016-10-03T09:45:02Z</time>
      </trkpt>
      <trkpt lat="45.99585" lon="6.12429">
        <ele>633.17</ele>
        <time>2016-10-03T09:45:03Z</time>
      </trkpt>
      <trkpt lat="45.99584" lon="6.12431">
        <ele>633.17</ele>
        <time>2016-10-03T09:45:04Z</time>
      </trkpt>
      <trkpt lat="45.99583" lon="6.12432">
        <ele>632.68</ele>
        <time>2016-10-03T09:45:05Z</time>
      </trkpt>
      <trkpt lat="45.99582" lon="6.12434">
        <ele>633.17</ele>
        <time>2016-10-03T09:45:06Z</time>
      </trkpt>
      <trkpt lat="45.9958" lon="6.12434">
        <ele>633.17</ele>
        <time>2016-10-03T09:45:07Z</time>
      </trkpt>
      <trkpt lat="45.99578" lon="6.12434">
        <ele>633.17</ele>
        <time>2016-10-03T09:45:08Z</time>
      </trkpt>
      <trkpt lat="45.99576" lon="6.12434">
        <ele>633.65</ele>
        <time>2016-10-03T09:45:09Z</time>
      </trkpt>
      <trkpt lat="45.9955" lon="6.12455">
        <ele>633.65</ele>
        <time>2016-10-03T09:45:20Z</time>
      </trkpt>
      <trkpt lat="45.99517" lon="6.12472">
        <ele>634.61</ele>
        <time>2016-10-03T09:45:31Z</time>
      </trkpt>
      <trkpt lat="45.99511" lon="6.12473">
        <ele>635.57</ele>
        <time>2016-10-03T09:45:33Z</time>
      </trkpt>
      <trkpt lat="45.99451" lon="6.12486">
        <ele>637.97</ele>
        <time>2016-10-03T09:45:52Z</time>
      </trkpt>
      <trkpt lat="45.99405" lon="6.12502">
        <ele>640.38</ele>
        <time>2016-10-03T09:46:09Z</time>
      </trkpt>
      <trkpt lat="45.99383" lon="6.12521">
        <ele>641.34</ele>
        <time>2016-10-03T09:46:24Z</time>
      </trkpt>
      <trkpt lat="45.99363" lon="6.12553">
        <ele>641.82</ele>
        <time>2016-10-03T09:46:38Z</time>
      </trkpt>
      <trkpt lat="45.99326" lon="6.12606">
        <ele>643.74</ele>
        <time>2016-10-03T09:46:55Z</time>
      </trkpt>
      <trkpt lat="45.99284" lon="6.12686">
        <ele>644.22</ele>
        <time>2016-10-03T09:47:13Z</time>
      </trkpt>
      <trkpt lat="45.99234" lon="6.12776">
        <ele>642.78</ele>
        <time>2016-10-03T09:47:29Z</time>
      </trkpt>
      <trkpt lat="45.99183" lon="6.1287">
        <ele>640.86</ele>
        <time>2016-10-03T09:47:43Z</time>
      </trkpt>
      <trkpt lat="45.99178" lon="6.12875">
        <ele>639.89</ele>
        <time>2016-10-03T09:47:44Z</time>
      </trkpt>
      <trkpt lat="45.99173" lon="6.12879">
        <ele>640.38</ele>
        <time>2016-10-03T09:47:45Z</time>
      </trkpt>
      <trkpt lat="45.99156" lon="6.12891">
        <ele>640.86</ele>
        <time>2016-10-03T09:47:48Z</time>
      </trkpt>
      <trkpt lat="45.99139" lon="6.12907">
        <ele>640.38</ele>
        <time>2016-10-03T09:47:51Z</time>
      </trkpt>
      <trkpt lat="45.99133" lon="6.1291">
        <ele>640.38</ele>
        <time>2016-10-03T09:47:52Z</time>
      </trkpt>
      <trkpt lat="45.99127" lon="6.12913">
        <ele>640.38</ele>
        <time>2016-10-03T09:47:53Z</time>
      </trkpt>
      <trkpt lat="45.99006" lon="6.12917">
        <ele>637.97</ele>
        <time>2016-10-03T09:48:10Z</time>
      </trkpt>
      <trkpt lat="45.98923" lon="6.12908">
        <ele>634.61</ele>
        <time>2016-10-03T09:48:20Z</time>
      </trkpt>
      <trkpt lat="45.98827" lon="6.12898">
        <ele>633.17</ele>
        <time>2016-10-03T09:48:31Z</time>
      </trkpt>
      <trkpt lat="45.9867" lon="6.12899">
        <ele>630.76</ele>
        <time>2016-10-03T09:48:49Z</time>
      </trkpt>
      <trkpt lat="45.98637" lon="6.1291">
        <ele>631.24</ele>
        <time>2016-10-03T09:48:53Z</time>
      </trkpt>
      <trkpt lat="45.98536" lon="6.12939">
        <ele>633.17</ele>
        <time>2016-10-03T09:49:07Z</time>
      </trkpt>
      <trkpt lat="45.98452" lon="6.12966">
        <ele>635.57</ele>
        <time>2016-10-03T09:49:23Z</time>
      </trkpt>
      <trkpt lat="45.98381" lon="6.12981">
        <ele>637.01</ele>
        <time>2016-10-03T09:49:37Z</time>
      </trkpt>
      <trkpt lat="45.98376" lon="6.1298">
        <ele>637.01</ele>
        <time>2016-10-03T09:49:38Z</time>
      </trkpt>
      <trkpt lat="45.98365" lon="6.12977">
        <ele>637.01</ele>
        <time>2016-10-03T09:49:40Z</time>
      </trkpt>
      <trkpt lat="45.98359" lon="6.12978">
        <ele>637.01</ele>
        <time>2016-10-03T09:49:41Z</time>
      </trkpt>
      <trkpt lat="45.98354" lon="6.12981">
        <ele>637.49</ele>
        <time>2016-10-03T09:49:42Z</time>
      </trkpt>
      <trkpt lat="45.98349" lon="6.12985">
        <ele>637.01</ele>
        <time>2016-10-03T09:49:43Z</time>
      </trkpt>
      <trkpt lat="45.98344" lon="6.1299">
        <ele>637.49</ele>
        <time>2016-10-03T09:49:44Z</time>
      </trkpt>
      <trkpt lat="45.98339" lon="6.12994">
        <ele>636.53</ele>
        <time>2016-10-03T09:49:45Z</time>
      </trkpt>
      <trkpt lat="45.98334" lon="6.12997">
        <ele>636.53</ele>
        <time>2016-10-03T09:49:46Z</time>
      </trkpt>
      <trkpt lat="45.98329" lon="6.13">
        <ele>636.53</ele>
        <time>2016-10-03T09:49:47Z</time>
      </trkpt>
      <trkpt lat="45.98323" lon="6.13002">
        <ele>636.53</ele>
        <time>2016-10-03T09:49:48Z</time>
      </trkpt>
      <trkpt lat="45.98316" lon="6.13004">
        <ele>636.53</ele>
        <time>2016-10-03T09:49:49Z</time>
      </trkpt>
      <trkpt lat="45.98225" lon="6.13032">
        <ele>633.17</ele>
        <time>2016-10-03T09:50:02Z</time>
      </trkpt>
      <trkpt lat="45.98217" lon="6.13035">
        <ele>633.17</ele>
        <time>2016-10-03T09:50:03Z</time>
      </trkpt>
      <trkpt lat="45.98108" lon="6.13069">
        <ele>629.8</ele>
        <time>2016-10-03T09:50:15Z</time>
      </trkpt>
      <trkpt lat="45.98032" lon="6.13093">
        <ele>628.36</ele>
        <time>2016-10-03T09:50:23Z</time>
      </trkpt>
      <trkpt lat="45.97829" lon="6.1315">
        <ele>625.96</ele>
        <time>2016-10-03T09:50:46Z</time>
      </trkpt>
      <trkpt lat="45.97697" lon="6.13191">
        <ele>622.11</ele>
        <time>2016-10-03T09:51:01Z</time>
      </trkpt>
      <trkpt lat="45.9762" lon="6.13215">
        <ele>617.3</ele>
        <time>2016-10-03T09:51:09Z</time>
      </trkpt>
      <trkpt lat="45.97468" lon="6.13238">
        <ele>615.38</ele>
        <time>2016-10-03T09:51:25Z</time>
      </trkpt>
      <trkpt lat="45.97343" lon="6.13231">
        <ele>615.86</ele>
        <time>2016-10-03T09:51:41Z</time>
      </trkpt>
      <trkpt lat="45.97202" lon="6.13219">
        <ele>614.42</ele>
        <time>2016-10-03T09:52:00Z</time>
      </trkpt>
      <trkpt lat="45.97072" lon="6.13211">
        <ele>611.54</ele>
        <time>2016-10-03T09:52:17Z</time>
      </trkpt>
      <trkpt lat="45.96997" lon="6.13206">
        <ele>608.17</ele>
        <time>2016-10-03T09:52:26Z</time>
      </trkpt>
      <trkpt lat="45.9695" lon="6.13203">
        <ele>606.25</ele>
        <time>2016-10-03T09:52:31Z</time>
      </trkpt>
      <trkpt lat="45.96871" lon="6.13198">
        <ele>601.92</ele>
        <time>2016-10-03T09:52:39Z</time>
      </trkpt>
      <trkpt lat="45.96861" lon="6.13197">
        <ele>602.4</ele>
        <time>2016-10-03T09:52:40Z</time>
      </trkpt>
      <trkpt lat="45.96841" lon="6.13196">
        <ele>600.48</ele>
        <time>2016-10-03T09:52:42Z</time>
      </trkpt>
      <trkpt lat="45.96799" lon="6.13193">
        <ele>598.56</ele>
        <time>2016-10-03T09:52:46Z</time>
      </trkpt>
      <trkpt lat="45.9663" lon="6.1318">
        <ele>596.64</ele>
        <time>2016-10-03T09:53:02Z</time>
      </trkpt>
      <trkpt lat="45.96551" lon="6.13171">
        <ele>600</ele>
        <time>2016-10-03T09:53:13Z</time>
      </trkpt>
      <trkpt lat="45.96447" lon="6.13162">
        <ele>601.44</ele>
        <time>2016-10-03T09:53:32Z</time>
      </trkpt>
      <trkpt lat="45.9639" lon="6.13157">
        <ele>600.96</ele>
        <time>2016-10-03T09:53:42Z</time>
      </trkpt>
      <trkpt lat="45.96384" lon="6.13153">
        <ele>600.96</ele>
        <time>2016-10-03T09:53:43Z</time>
      </trkpt>
      <trkpt lat="45.96374" lon="6.13145">
        <ele>600.96</ele>
        <time>2016-10-03T09:53:45Z</time>
      </trkpt>
      <trkpt lat="45.96367" lon="6.13144">
        <ele>601.44</ele>
        <time>2016-10-03T09:53:46Z</time>
      </trkpt>
      <trkpt lat="45.9636" lon="6.13145">
        <ele>601.92</ele>
        <time>2016-10-03T09:53:47Z</time>
      </trkpt>
      <trkpt lat="45.96354" lon="6.13148">
        <ele>600.48</ele>
        <time>2016-10-03T09:53:48Z</time>
      </trkpt>
      <trkpt lat="45.96348" lon="6.13152">
        <ele>600.96</ele>
        <time>2016-10-03T09:53:49Z</time>
      </trkpt>
      <trkpt lat="45.96342" lon="6.13155">
        <ele>600.48</ele>
        <time>2016-10-03T09:53:50Z</time>
      </trkpt>
      <trkpt lat="45.96336" lon="6.13157">
        <ele>600.48</ele>
        <time>2016-10-03T09:53:51Z</time>
      </trkpt>
      <trkpt lat="45.96329" lon="6.13157">
        <ele>600.48</ele>
        <time>2016-10-03T09:53:52Z</time>
      </trkpt>
      <trkpt lat="45.96295" lon="6.13155">
        <ele>599.52</ele>
        <time>2016-10-03T09:53:57Z</time>
      </trkpt>
      <trkpt lat="45.9616" lon="6.13148">
        <ele>597.6</ele>
        <time>2016-10-03T09:54:15Z</time>
      </trkpt>
      <trkpt lat="45.96035" lon="6.13173">
        <ele>597.12</ele>
        <time>2016-10-03T09:54:32Z</time>
      </trkpt>
      <trkpt lat="45.95956" lon="6.13236">
        <ele>598.08</ele>
        <time>2016-10-03T09:54:46Z</time>
      </trkpt>
      <trkpt lat="45.95895" lon="6.13271">
        <ele>597.6</ele>
        <time>2016-10-03T09:54:56Z</time>
      </trkpt>
      <trkpt lat="45.95875" lon="6.13271">
        <ele>597.12</ele>
        <time>2016-10-03T09:54:59Z</time>
      </trkpt>
      <trkpt lat="45.95868" lon="6.1327">
        <ele>597.12</ele>
        <time>2016-10-03T09:55:00Z</time>
      </trkpt>
      <trkpt lat="45.95861" lon="6.13267">
        <ele>597.12</ele>
        <time>2016-10-03T09:55:01Z</time>
      </trkpt>
      <trkpt lat="45.95854" lon="6.13264">
        <ele>596.64</ele>
        <time>2016-10-03T09:55:02Z</time>
      </trkpt>
      <trkpt lat="45.95847" lon="6.13259">
        <ele>596.64</ele>
        <time>2016-10-03T09:55:03Z</time>
      </trkpt>
      <trkpt lat="45.9584" lon="6.13254">
        <ele>597.6</ele>
        <time>2016-10-03T09:55:04Z</time>
      </trkpt>
      <trkpt lat="45.95834" lon="6.13248">
        <ele>595.19</ele>
        <time>2016-10-03T09:55:05Z</time>
      </trkpt>
      <trkpt lat="45.95827" lon="6.13242">
        <ele>595.19</ele>
        <time>2016-10-03T09:55:06Z</time>
      </trkpt>
      <trkpt lat="45.95821" lon="6.13235">
        <ele>595.19</ele>
        <time>2016-10-03T09:55:07Z</time>
      </trkpt>
      <trkpt lat="45.95816" lon="6.13227">
        <ele>594.23</ele>
        <time>2016-10-03T09:55:08Z</time>
      </trkpt>
      <trkpt lat="45.9581" lon="6.13219">
        <ele>594.71</ele>
        <time>2016-10-03T09:55:09Z</time>
      </trkpt>
      <trkpt lat="45.95789" lon="6.13167">
        <ele>594.23</ele>
        <time>2016-10-03T09:55:14Z</time>
      </trkpt>
      <trkpt lat="45.95786" lon="6.13154">
        <ele>593.27</ele>
        <time>2016-10-03T09:55:15Z</time>
      </trkpt>
      <trkpt lat="45.95783" lon="6.13115">
        <ele>591.83</ele>
        <time>2016-10-03T09:55:18Z</time>
      </trkpt>
      <trkpt lat="45.95784" lon="6.13101">
        <ele>590.87</ele>
        <time>2016-10-03T09:55:19Z</time>
      </trkpt>
      <trkpt lat="45.95786" lon="6.13087">
        <ele>590.39</ele>
        <time>2016-10-03T09:55:20Z</time>
      </trkpt>
      <trkpt lat="45.95789" lon="6.13073">
        <ele>590.39</ele>
        <time>2016-10-03T09:55:21Z</time>
      </trkpt>
      <trkpt lat="45.95792" lon="6.1306">
        <ele>588.95</ele>
        <time>2016-10-03T09:55:22Z</time>
      </trkpt>
      <trkpt lat="45.95794" lon="6.13046">
        <ele>588.95</ele>
        <time>2016-10-03T09:55:23Z</time>
      </trkpt>
      <trkpt lat="45.95807" lon="6.12993">
        <ele>587.5</ele>
        <time>2016-10-03T09:55:27Z</time>
      </trkpt>
      <trkpt lat="45.95811" lon="6.12981">
        <ele>587.98</ele>
        <time>2016-10-03T09:55:28Z</time>
      </trkpt>
      <trkpt lat="45.95817" lon="6.1297">
        <ele>587.5</ele>
        <time>2016-10-03T09:55:29Z</time>
      </trkpt>
      <trkpt lat="45.95822" lon="6.1296">
        <ele>588.46</ele>
        <time>2016-10-03T09:55:30Z</time>
      </trkpt>
      <trkpt lat="45.95828" lon="6.12951">
        <ele>587.5</ele>
        <time>2016-10-03T09:55:31Z</time>
      </trkpt>
      <trkpt lat="45.95835" lon="6.12943">
        <ele>588.46</ele>
        <time>2016-10-03T09:55:32Z</time>
      </trkpt>
      <trkpt lat="45.95842" lon="6.12936">
        <ele>587.02</ele>
        <time>2016-10-03T09:55:33Z</time>
      </trkpt>
      <trkpt lat="45.95849" lon="6.12929">
        <ele>587.98</ele>
        <time>2016-10-03T09:55:34Z</time>
      </trkpt>
      <trkpt lat="45.95897" lon="6.12881">
        <ele>584.62</ele>
        <time>2016-10-03T09:55:41Z</time>
      </trkpt>
      <trkpt lat="45.95904" lon="6.12873">
        <ele>584.62</ele>
        <time>2016-10-03T09:55:42Z</time>
      </trkpt>
      <trkpt lat="45.9591" lon="6.12863">
        <ele>584.62</ele>
        <time>2016-10-03T09:55:43Z</time>
      </trkpt>
      <trkpt lat="45.95921" lon="6.12842">
        <ele>582.22</ele>
        <time>2016-10-03T09:55:45Z</time>
      </trkpt>
      <trkpt lat="45.95925" lon="6.12831">
        <ele>582.22</ele>
        <time>2016-10-03T09:55:46Z</time>
      </trkpt>
      <trkpt lat="45.95929" lon="6.12819">
        <ele>581.73</ele>
        <time>2016-10-03T09:55:47Z</time>
      </trkpt>
      <trkpt lat="45.95932" lon="6.12806">
        <ele>581.73</ele>
        <time>2016-10-03T09:55:48Z</time>
      </trkpt>
      <trkpt lat="45.95935" lon="6.12793">
        <ele>581.25</ele>
        <time>2016-10-03T09:55:49Z</time>
      </trkpt>
      <trkpt lat="45.95941" lon="6.12723">
        <ele>578.85</ele>
        <time>2016-10-03T09:55:54Z</time>
      </trkpt>
      <trkpt lat="45.95939" lon="6.12709">
        <ele>578.85</ele>
        <time>2016-10-03T09:55:55Z</time>
      </trkpt>
      <trkpt lat="45.95937" lon="6.12695">
        <ele>577.41</ele>
        <time>2016-10-03T09:55:56Z</time>
      </trkpt>
      <trkpt lat="45.95933" lon="6.12682">
        <ele>576.93</ele>
        <time>2016-10-03T09:55:57Z</time>
      </trkpt>
      <trkpt lat="45.95929" lon="6.12668">
        <ele>577.41</ele>
        <time>2016-10-03T09:55:58Z</time>
      </trkpt>
      <trkpt lat="45.95924" lon="6.12655">
        <ele>576.93</ele>
        <time>2016-10-03T09:55:59Z</time>
      </trkpt>
      <trkpt lat="45.95918" lon="6.12642">
        <ele>575.97</ele>
        <time>2016-10-03T09:56:00Z</time>
      </trkpt>
      <trkpt lat="45.95912" lon="6.1263">
        <ele>575.97</ele>
        <time>2016-10-03T09:56:01Z</time>
      </trkpt>
      <trkpt lat="45.95904" lon="6.12619">
        <ele>575.01</ele>
        <time>2016-10-03T09:56:02Z</time>
      </trkpt>
      <trkpt lat="45.95897" lon="6.12608">
        <ele>574.04</ele>
        <time>2016-10-03T09:56:03Z</time>
      </trkpt>
      <trkpt lat="45.95888" lon="6.12598">
        <ele>574.04</ele>
        <time>2016-10-03T09:56:04Z</time>
      </trkpt>
      <trkpt lat="45.95879" lon="6.12589">
        <ele>574.04</ele>
        <time>2016-10-03T09:56:05Z</time>
      </trkpt>
      <trkpt lat="45.95869" lon="6.12582">
        <ele>573.08</ele>
        <time>2016-10-03T09:56:06Z</time>
      </trkpt>
      <trkpt lat="45.95859" lon="6.12575">
        <ele>573.56</ele>
        <time>2016-10-03T09:56:07Z</time>
      </trkpt>
      <trkpt lat="45.95849" lon="6.12569">
        <ele>573.08</ele>
        <time>2016-10-03T09:56:08Z</time>
      </trkpt>
      <trkpt lat="45.95838" lon="6.12565">
        <ele>572.12</ele>
        <time>2016-10-03T09:56:09Z</time>
      </trkpt>
      <trkpt lat="45.95827" lon="6.12562">
        <ele>571.64</ele>
        <time>2016-10-03T09:56:10Z</time>
      </trkpt>
      <trkpt lat="45.95816" lon="6.1256">
        <ele>571.64</ele>
        <time>2016-10-03T09:56:11Z</time>
      </trkpt>
      <trkpt lat="45.95805" lon="6.12559">
        <ele>570.2</ele>
        <time>2016-10-03T09:56:12Z</time>
      </trkpt>
      <trkpt lat="45.95794" lon="6.1256">
        <ele>569.72</ele>
        <time>2016-10-03T09:56:13Z</time>
      </trkpt>
      <trkpt lat="45.95784" lon="6.12562">
        <ele>569.72</ele>
        <time>2016-10-03T09:56:14Z</time>
      </trkpt>
      <trkpt lat="45.95773" lon="6.12565">
        <ele>569.24</ele>
        <time>2016-10-03T09:56:15Z</time>
      </trkpt>
      <trkpt lat="45.95763" lon="6.12568">
        <ele>568.76</ele>
        <time>2016-10-03T09:56:16Z</time>
      </trkpt>
      <trkpt lat="45.95744" lon="6.12578">
        <ele>567.8</ele>
        <time>2016-10-03T09:56:18Z</time>
      </trkpt>
      <trkpt lat="45.95706" lon="6.12602">
        <ele>565.39</ele>
        <time>2016-10-03T09:56:22Z</time>
      </trkpt>
      <trkpt lat="45.95669" lon="6.12634">
        <ele>561.07</ele>
        <time>2016-10-03T09:56:26Z</time>
      </trkpt>
      <trkpt lat="45.9562" lon="6.12675">
        <ele>560.11</ele>
        <time>2016-10-03T09:56:31Z</time>
      </trkpt>
      <trkpt lat="45.95588" lon="6.12694">
        <ele>560.11</ele>
        <time>2016-10-03T09:56:34Z</time>
      </trkpt>
      <trkpt lat="45.95576" lon="6.12697">
        <ele>559.62</ele>
        <time>2016-10-03T09:56:35Z</time>
      </trkpt>
      <trkpt lat="45.95564" lon="6.12698">
        <ele>558.18</ele>
        <time>2016-10-03T09:56:36Z</time>
      </trkpt>
      <trkpt lat="45.95552" lon="6.12697">
        <ele>558.18</ele>
        <time>2016-10-03T09:56:37Z</time>
      </trkpt>
      <trkpt lat="45.9554" lon="6.12693">
        <ele>556.74</ele>
        <time>2016-10-03T09:56:38Z</time>
      </trkpt>
      <trkpt lat="45.95528" lon="6.12688">
        <ele>556.26</ele>
        <time>2016-10-03T09:56:39Z</time>
      </trkpt>
      <trkpt lat="45.95516" lon="6.1268">
        <ele>555.3</ele>
        <time>2016-10-03T09:56:40Z</time>
      </trkpt>
      <trkpt lat="45.95505" lon="6.12671">
        <ele>554.82</ele>
        <time>2016-10-03T09:56:41Z</time>
      </trkpt>
      <trkpt lat="45.95495" lon="6.12661">
        <ele>554.82</ele>
        <time>2016-10-03T09:56:42Z</time>
      </trkpt>
      <trkpt lat="45.95486" lon="6.12649">
        <ele>553.38</ele>
        <time>2016-10-03T09:56:43Z</time>
      </trkpt>
      <trkpt lat="45.95478" lon="6.12634">
        <ele>553.38</ele>
        <time>2016-10-03T09:56:44Z</time>
      </trkpt>
      <trkpt lat="45.95471" lon="6.12618">
        <ele>552.41</ele>
        <time>2016-10-03T09:56:45Z</time>
      </trkpt>
      <trkpt lat="45.95466" lon="6.12601">
        <ele>550.01</ele>
        <time>2016-10-03T09:56:46Z</time>
      </trkpt>
      <trkpt lat="45.95463" lon="6.12584">
        <ele>548.57</ele>
        <time>2016-10-03T09:56:47Z</time>
      </trkpt>
      <trkpt lat="45.95462" lon="6.12566">
        <ele>549.53</ele>
        <time>2016-10-03T09:56:48Z</time>
      </trkpt>
      <trkpt lat="45.95461" lon="6.12548">
        <ele>546.65</ele>
        <time>2016-10-03T09:56:49Z</time>
      </trkpt>
      <trkpt lat="45.95462" lon="6.12531">
        <ele>548.57</ele>
        <time>2016-10-03T09:56:50Z</time>
      </trkpt>
      <trkpt lat="45.95464" lon="6.12514">
        <ele>548.57</ele>
        <time>2016-10-03T09:56:51Z</time>
      </trkpt>
      <trkpt lat="45.95467" lon="6.12497">
        <ele>547.61</ele>
        <time>2016-10-03T09:56:52Z</time>
      </trkpt>
      <trkpt lat="45.95471" lon="6.12481">
        <ele>549.05</ele>
        <time>2016-10-03T09:56:53Z</time>
      </trkpt>
      <trkpt lat="45.95501" lon="6.12369">
        <ele>546.65</ele>
        <time>2016-10-03T09:57:00Z</time>
      </trkpt>
      <trkpt lat="45.95504" lon="6.12353">
        <ele>546.17</ele>
        <time>2016-10-03T09:57:01Z</time>
      </trkpt>
      <trkpt lat="45.95506" lon="6.12336">
        <ele>545.2</ele>
        <time>2016-10-03T09:57:02Z</time>
      </trkpt>
      <trkpt lat="45.95506" lon="6.1232">
        <ele>544.24</ele>
        <time>2016-10-03T09:57:03Z</time>
      </trkpt>
      <trkpt lat="45.95505" lon="6.12303">
        <ele>544.24</ele>
        <time>2016-10-03T09:57:04Z</time>
      </trkpt>
      <trkpt lat="45.95502" lon="6.12286">
        <ele>542.8</ele>
        <time>2016-10-03T09:57:05Z</time>
      </trkpt>
      <trkpt lat="45.95497" lon="6.1227">
        <ele>541.84</ele>
        <time>2016-10-03T09:57:06Z</time>
      </trkpt>
      <trkpt lat="45.95491" lon="6.12255">
        <ele>540.88</ele>
        <time>2016-10-03T09:57:07Z</time>
      </trkpt>
      <trkpt lat="45.95483" lon="6.12241">
        <ele>539.92</ele>
        <time>2016-10-03T09:57:08Z</time>
      </trkpt>
      <trkpt lat="45.95473" lon="6.12229">
        <ele>539.44</ele>
        <time>2016-10-03T09:57:09Z</time>
      </trkpt>
      <trkpt lat="45.95463" lon="6.12218">
        <ele>539.44</ele>
        <time>2016-10-03T09:57:10Z</time>
      </trkpt>
      <trkpt lat="45.95452" lon="6.1221">
        <ele>537.51</ele>
        <time>2016-10-03T09:57:11Z</time>
      </trkpt>
      <trkpt lat="45.95441" lon="6.12203">
        <ele>536.55</ele>
        <time>2016-10-03T09:57:12Z</time>
      </trkpt>
      <trkpt lat="45.95429" lon="6.12199">
        <ele>536.55</ele>
        <time>2016-10-03T09:57:13Z</time>
      </trkpt>
      <trkpt lat="45.95417" lon="6.12196">
        <ele>536.07</ele>
        <time>2016-10-03T09:57:14Z</time>
      </trkpt>
      <trkpt lat="45.95405" lon="6.12196">
        <ele>535.11</ele>
        <time>2016-10-03T09:57:15Z</time>
      </trkpt>
      <trkpt lat="45.95394" lon="6.12197">
        <ele>535.11</ele>
        <time>2016-10-03T09:57:16Z</time>
      </trkpt>
      <trkpt lat="45.95383" lon="6.12199">
        <ele>535.59</ele>
        <time>2016-10-03T09:57:17Z</time>
      </trkpt>
      <trkpt lat="45.95229" lon="6.12239">
        <ele>533.19</ele>
        <time>2016-10-03T09:57:32Z</time>
      </trkpt>
      <trkpt lat="45.95188" lon="6.12247">
        <ele>529.82</ele>
        <time>2016-10-03T09:57:36Z</time>
      </trkpt>
      <trkpt lat="45.95177" lon="6.12249">
        <ele>530.3</ele>
        <time>2016-10-03T09:57:37Z</time>
      </trkpt>
      <trkpt lat="45.95119" lon="6.12257">
        <ele>526.46</ele>
        <time>2016-10-03T09:57:42Z</time>
      </trkpt>
      <trkpt lat="45.95069" lon="6.12249">
        <ele>523.09</ele>
        <time>2016-10-03T09:57:46Z</time>
      </trkpt>
      <trkpt lat="45.95031" lon="6.12234">
        <ele>519.73</ele>
        <time>2016-10-03T09:57:49Z</time>
      </trkpt>
      <trkpt lat="45.94976" lon="6.12211">
        <ele>515.88</ele>
        <time>2016-10-03T09:57:53Z</time>
      </trkpt>
      <trkpt lat="45.94948" lon="6.122">
        <ele>512.52</ele>
        <time>2016-10-03T09:57:55Z</time>
      </trkpt>
      <trkpt lat="45.9492" lon="6.12191">
        <ele>511.56</ele>
        <time>2016-10-03T09:57:57Z</time>
      </trkpt>
      <trkpt lat="45.94841" lon="6.12163">
        <ele>509.16</ele>
        <time>2016-10-03T09:58:03Z</time>
      </trkpt>
      <trkpt lat="45.94768" lon="6.12138">
        <ele>506.27</ele>
        <time>2016-10-03T09:58:09Z</time>
      </trkpt>
      <trkpt lat="45.94733" lon="6.12124">
        <ele>505.31</ele>
        <time>2016-10-03T09:58:12Z</time>
      </trkpt>
      <trkpt lat="45.94686" lon="6.12108">
        <ele>501.95</ele>
        <time>2016-10-03T09:58:16Z</time>
      </trkpt>
      <trkpt lat="45.94615" lon="6.12084">
        <ele>498.1</ele>
        <time>2016-10-03T09:58:22Z</time>
      </trkpt>
      <trkpt lat="45.94533" lon="6.12059">
        <ele>495.7</ele>
        <time>2016-10-03T09:58:29Z</time>
      </trkpt>
      <trkpt lat="45.94521" lon="6.1206">
        <ele>495.22</ele>
        <time>2016-10-03T09:58:30Z</time>
      </trkpt>
      <trkpt lat="45.9451" lon="6.12062">
        <ele>494.26</ele>
        <time>2016-10-03T09:58:31Z</time>
      </trkpt>
      <trkpt lat="45.94498" lon="6.12066">
        <ele>493.77</ele>
        <time>2016-10-03T09:58:32Z</time>
      </trkpt>
      <trkpt lat="45.94487" lon="6.12072">
        <ele>492.33</ele>
        <time>2016-10-03T09:58:33Z</time>
      </trkpt>
      <trkpt lat="45.94477" lon="6.12079">
        <ele>492.81</ele>
        <time>2016-10-03T09:58:34Z</time>
      </trkpt>
      <trkpt lat="45.94467" lon="6.12088">
        <ele>492.81</ele>
        <time>2016-10-03T09:58:35Z</time>
      </trkpt>
      <trkpt lat="45.94458" lon="6.12097">
        <ele>491.85</ele>
        <time>2016-10-03T09:58:36Z</time>
      </trkpt>
      <trkpt lat="45.94449" lon="6.12108">
        <ele>491.85</ele>
        <time>2016-10-03T09:58:37Z</time>
      </trkpt>
      <trkpt lat="45.94441" lon="6.1212">
        <ele>491.85</ele>
        <time>2016-10-03T09:58:38Z</time>
      </trkpt>
      <trkpt lat="45.94433" lon="6.12133">
        <ele>490.89</ele>
        <time>2016-10-03T09:58:39Z</time>
      </trkpt>
      <trkpt lat="45.94427" lon="6.12147">
        <ele>489.93</ele>
        <time>2016-10-03T09:58:40Z</time>
      </trkpt>
      <trkpt lat="45.94421" lon="6.12162">
        <ele>488.97</ele>
        <time>2016-10-03T09:58:41Z</time>
      </trkpt>
      <trkpt lat="45.94417" lon="6.12177">
        <ele>488.49</ele>
        <time>2016-10-03T09:58:42Z</time>
      </trkpt>
      <trkpt lat="45.94392" lon="6.12272">
        <ele>486.56</ele>
        <time>2016-10-03T09:58:48Z</time>
      </trkpt>
      <trkpt lat="45.94386" lon="6.12285">
        <ele>486.56</ele>
        <time>2016-10-03T09:58:49Z</time>
      </trkpt>
      <trkpt lat="45.94378" lon="6.12297">
        <ele>485.6</ele>
        <time>2016-10-03T09:58:50Z</time>
      </trkpt>
      <trkpt lat="45.94369" lon="6.12308">
        <ele>483.68</ele>
        <time>2016-10-03T09:58:51Z</time>
      </trkpt>
      <trkpt lat="45.9436" lon="6.12316">
        <ele>483.2</ele>
        <time>2016-10-03T09:58:52Z</time>
      </trkpt>
      <trkpt lat="45.94349" lon="6.12322">
        <ele>481.76</ele>
        <time>2016-10-03T09:58:53Z</time>
      </trkpt>
      <trkpt lat="45.94339" lon="6.12326">
        <ele>482.24</ele>
        <time>2016-10-03T09:58:54Z</time>
      </trkpt>
      <trkpt lat="45.94328" lon="6.12329">
        <ele>483.2</ele>
        <time>2016-10-03T09:58:55Z</time>
      </trkpt>
      <trkpt lat="45.94316" lon="6.12329">
        <ele>482.24</ele>
        <time>2016-10-03T09:58:56Z</time>
      </trkpt>
      <trkpt lat="45.94306" lon="6.12328">
        <ele>482.72</ele>
        <time>2016-10-03T09:58:57Z</time>
      </trkpt>
      <trkpt lat="45.94295" lon="6.12326">
        <ele>482.24</ele>
        <time>2016-10-03T09:58:58Z</time>
      </trkpt>
      <trkpt lat="45.94285" lon="6.12323">
        <ele>482.24</ele>
        <time>2016-10-03T09:58:59Z</time>
      </trkpt>
      <trkpt lat="45.94152" lon="6.12287">
        <ele>481.28</ele>
        <time>2016-10-03T09:59:13Z</time>
      </trkpt>
      <trkpt lat="45.94042" lon="6.12257">
        <ele>480.32</ele>
        <time>2016-10-03T09:59:27Z</time>
      </trkpt>
      <trkpt lat="45.9403" lon="6.12252">
        <ele>480.8</ele>
        <time>2016-10-03T09:59:35Z</time>
      </trkpt>
      <trkpt lat="45.94029" lon="6.1225">
        <ele>480.8</ele>
        <time>2016-10-03T09:59:44Z</time>
      </trkpt>
      <trkpt lat="45.94027" lon="6.1225">
        <ele>480.32</ele>
        <time>2016-10-03T09:59:46Z</time>
      </trkpt>
      <trkpt lat="45.93994" lon="6.12244">
        <ele>479.35</ele>
        <time>2016-10-03T09:59:56Z</time>
      </trkpt>
      <trkpt lat="45.93911" lon="6.12223">
        <ele>478.87</ele>
        <time>2016-10-03T10:00:12Z</time>
      </trkpt>
      <trkpt lat="45.93844" lon="6.12205">
        <ele>478.39</ele>
        <time>2016-10-03T10:00:25Z</time>
      </trkpt>
      <trkpt lat="45.93823" lon="6.12198">
        <ele>477.43</ele>
        <time>2016-10-03T10:00:31Z</time>
      </trkpt>
      <trkpt lat="45.93797" lon="6.12195">
        <ele>477.91</ele>
        <time>2016-10-03T10:00:36Z</time>
      </trkpt>
      <trkpt lat="45.93775" lon="6.122">
        <ele>477.91</ele>
        <time>2016-10-03T10:00:40Z</time>
      </trkpt>
      <trkpt lat="45.93707" lon="6.12232">
        <ele>475.99</ele>
        <time>2016-10-03T10:00:53Z</time>
      </trkpt>
      <trkpt lat="45.9366" lon="6.12273">
        <ele>473.59</ele>
        <time>2016-10-03T10:01:03Z</time>
      </trkpt>
      <trkpt lat="45.93646" lon="6.12281">
        <ele>473.59</ele>
        <time>2016-10-03T10:01:07Z</time>
      </trkpt>
      <trkpt lat="45.93639" lon="6.12283">
        <ele>473.59</ele>
        <time>2016-10-03T10:01:09Z</time>
      </trkpt>
      <trkpt lat="45.93635" lon="6.12284">
        <ele>473.59</ele>
        <time>2016-10-03T10:01:10Z</time>
      </trkpt>
      <trkpt lat="45.93631" lon="6.12286">
        <ele>474.07</ele>
        <time>2016-10-03T10:01:11Z</time>
      </trkpt>
      <trkpt lat="45.93627" lon="6.12289">
        <ele>473.59</ele>
        <time>2016-10-03T10:01:12Z</time>
      </trkpt>
      <trkpt lat="45.93623" lon="6.12291">
        <ele>473.59</ele>
        <time>2016-10-03T10:01:13Z</time>
      </trkpt>
      <trkpt lat="45.93606" lon="6.12298">
        <ele>473.59</ele>
        <time>2016-10-03T10:01:17Z</time>
      </trkpt>
      <trkpt lat="45.93557" lon="6.12332">
        <ele>471.18</ele>
        <time>2016-10-03T10:01:29Z</time>
      </trkpt>
      <trkpt lat="45.93544" lon="6.12343">
        <ele>471.66</ele>
        <time>2016-10-03T10:01:34Z</time>
      </trkpt>
      <trkpt lat="45.93544" lon="6.12345">
        <ele>471.66</ele>
        <time>2016-10-03T10:01:35Z</time>
      </trkpt>
      <trkpt lat="45.93549" lon="6.12355">
        <ele>471.66</ele>
        <time>2016-10-03T10:01:40Z</time>
      </trkpt>
      <trkpt lat="45.9355" lon="6.12356">
        <ele>471.66</ele>
        <time>2016-10-03T10:01:41Z</time>
      </trkpt>
      <trkpt lat="45.93552" lon="6.12356">
        <ele>472.14</ele>
        <time>2016-10-03T10:01:42Z</time>
      </trkpt>
      <trkpt lat="45.93552" lon="6.12354">
        <ele>471.66</ele>
        <time>2016-10-03T10:01:43Z</time>
      </trkpt>
      <trkpt lat="45.93552" lon="6.12351">
        <ele>472.14</ele>
        <time>2016-10-03T10:01:44Z</time>
      </trkpt>
      <trkpt lat="45.9355" lon="6.1235">
        <ele>471.66</ele>
        <time>2016-10-03T10:01:45Z</time>
      </trkpt>
      <trkpt lat="45.93549" lon="6.12349">
        <ele>471.66</ele>
        <time>2016-10-03T10:01:46Z</time>
      </trkpt>
      <trkpt lat="45.93549" lon="6.12349">
        <ele>472.14</ele>
        <time>2016-10-03T10:01:58Z</time>
      </trkpt>
      <trkpt lat="45.9355" lon="6.12349">
        <ele>471.66</ele>
        <time>2016-10-03T10:02:15Z</time>
      </trkpt>
      <trkpt lat="45.93548" lon="6.12347">
        <ele>471.66</ele>
        <time>2016-10-03T10:02:20Z</time>
      </trkpt>
      <trkpt lat="45.93547" lon="6.12346">
        <ele>471.66</ele>
        <time>2016-10-03T10:02:21Z</time>
      </trkpt>
      <trkpt lat="45.93547" lon="6.12344">
        <ele>471.18</ele>
        <time>2016-10-03T10:02:22Z</time>
      </trkpt>
      <trkpt lat="45.93545" lon="6.12341">
        <ele>470.7</ele>
        <time>2016-10-03T10:02:23Z</time>
      </trkpt>
      <trkpt lat="45.93544" lon="6.12338">
        <ele>471.18</ele>
        <time>2016-10-03T10:02:24Z</time>
      </trkpt>
      <trkpt lat="45.93542" lon="6.12337">
        <ele>471.66</ele>
        <time>2016-10-03T10:02:25Z</time>
      </trkpt>
      <trkpt lat="45.93539" lon="6.12337">
        <ele>471.66</ele>
        <time>2016-10-03T10:02:26Z</time>
      </trkpt>
      <trkpt lat="45.93537" lon="6.12337">
        <ele>471.18</ele>
        <time>2016-10-03T10:02:27Z</time>
      </trkpt>
      <trkpt lat="45.93535" lon="6.12337">
        <ele>471.66</ele>
        <time>2016-10-03T10:02:28Z</time>
      </trkpt>
      <trkpt lat="45.93532" lon="6.12337">
        <ele>471.66</ele>
        <time>2016-10-03T10:02:29Z</time>
      </trkpt>
      <trkpt lat="45.93528" lon="6.12337">
        <ele>472.14</ele>
        <time>2016-10-03T10:02:30Z</time>
      </trkpt>
      <trkpt lat="45.93524" lon="6.12337">
        <ele>472.14</ele>
        <time>2016-10-03T10:02:31Z</time>
      </trkpt>
      <trkpt lat="45.93521" lon="6.1234">
        <ele>472.14</ele>
        <time>2016-10-03T10:02:32Z</time>
      </trkpt>
      <trkpt lat="45.93518" lon="6.12343">
        <ele>472.63</ele>
        <time>2016-10-03T10:02:33Z</time>
      </trkpt>
      <trkpt lat="45.93517" lon="6.12348">
        <ele>472.14</ele>
        <time>2016-10-03T10:02:34Z</time>
      </trkpt>
      <trkpt lat="45.93517" lon="6.12354">
        <ele>472.14</ele>
        <time>2016-10-03T10:02:35Z</time>
      </trkpt>
      <trkpt lat="45.93518" lon="6.12359">
        <ele>471.66</ele>
        <time>2016-10-03T10:02:36Z</time>
      </trkpt>
      <trkpt lat="45.93519" lon="6.12365">
        <ele>471.18</ele>
        <time>2016-10-03T10:02:37Z</time>
      </trkpt>
      <trkpt lat="45.93519" lon="6.1237">
        <ele>471.66</ele>
        <time>2016-10-03T10:02:38Z</time>
      </trkpt>
      <trkpt lat="45.9352" lon="6.12376">
        <ele>471.66</ele>
        <time>2016-10-03T10:02:39Z</time>
      </trkpt>
      <trkpt lat="45.93515" lon="6.12466">
        <ele>470.7</ele>
        <time>2016-10-03T10:02:52Z</time>
      </trkpt>
      <trkpt lat="45.9351" lon="6.12571">
        <ele>468.78</ele>
        <time>2016-10-03T10:03:03Z</time>
      </trkpt>
      <trkpt lat="45.9351" lon="6.12582">
        <ele>468.78</ele>
        <time>2016-10-03T10:03:04Z</time>
      </trkpt>
      <trkpt lat="45.93508" lon="6.12593">
        <ele>467.82</ele>
        <time>2016-10-03T10:03:05Z</time>
      </trkpt>
      <trkpt lat="45.93504" lon="6.12615">
        <ele>467.82</ele>
        <time>2016-10-03T10:03:07Z</time>
      </trkpt>
      <trkpt lat="45.93497" lon="6.12637">
        <ele>467.34</ele>
        <time>2016-10-03T10:03:09Z</time>
      </trkpt>
      <trkpt lat="45.93432" lon="6.12726">
        <ele>465.42</ele>
        <time>2016-10-03T10:03:20Z</time>
      </trkpt>
      <trkpt lat="45.93377" lon="6.12785">
        <ele>462.05</ele>
        <time>2016-10-03T10:03:28Z</time>
      </trkpt>
      <trkpt lat="45.93371" lon="6.12792">
        <ele>462.05</ele>
        <time>2016-10-03T10:03:29Z</time>
      </trkpt>
      <trkpt lat="45.93336" lon="6.12825">
        <ele>460.61</ele>
        <time>2016-10-03T10:03:37Z</time>
      </trkpt>
      <trkpt lat="45.93334" lon="6.1283">
        <ele>460.61</ele>
        <time>2016-10-03T10:03:38Z</time>
      </trkpt>
      <trkpt lat="45.93334" lon="6.12835">
        <ele>461.09</ele>
        <time>2016-10-03T10:03:39Z</time>
      </trkpt>
      <trkpt lat="45.93336" lon="6.12841">
        <ele>461.09</ele>
        <time>2016-10-03T10:03:40Z</time>
      </trkpt>
      <trkpt lat="45.93338" lon="6.12845">
        <ele>461.09</ele>
        <time>2016-10-03T10:03:41Z</time>
      </trkpt>
      <trkpt lat="45.9335" lon="6.12896">
        <ele>460.61</ele>
        <time>2016-10-03T10:03:52Z</time>
      </trkpt>
      <trkpt lat="45.93357" lon="6.12939">
        <ele>462.05</ele>
        <time>2016-10-03T10:04:00Z</time>
      </trkpt>
      <trkpt lat="45.93358" lon="6.12945">
        <ele>462.05</ele>
        <time>2016-10-03T10:04:01Z</time>
      </trkpt>
      <trkpt lat="45.93359" lon="6.12951">
        <ele>462.53</ele>
        <time>2016-10-03T10:04:02Z</time>
      </trkpt>
      <trkpt lat="45.93361" lon="6.12955">
        <ele>462.53</ele>
        <time>2016-10-03T10:04:03Z</time>
      </trkpt>
      <trkpt lat="45.93363" lon="6.1296">
        <ele>462.53</ele>
        <time>2016-10-03T10:04:04Z</time>
      </trkpt>
      <trkpt lat="45.93364" lon="6.12966">
        <ele>461.57</ele>
        <time>2016-10-03T10:04:05Z</time>
      </trkpt>
      <trkpt lat="45.93367" lon="6.12977">
        <ele>461.57</ele>
        <time>2016-10-03T10:04:07Z</time>
      </trkpt>
      <trkpt lat="45.93369" lon="6.12983">
        <ele>462.53</ele>
        <time>2016-10-03T10:04:08Z</time>
      </trkpt>
      <trkpt lat="45.93377" lon="6.13015">
        <ele>462.53</ele>
        <time>2016-10-03T10:04:14Z</time>
      </trkpt>
      <trkpt lat="45.93378" lon="6.13021">
        <ele>462.53</ele>
        <time>2016-10-03T10:04:15Z</time>
      </trkpt>
      <trkpt lat="45.93378" lon="6.13027">
        <ele>462.53</ele>
        <time>2016-10-03T10:04:16Z</time>
      </trkpt>
      <trkpt lat="45.93382" lon="6.13057">
        <ele>462.05</ele>
        <time>2016-10-03T10:04:21Z</time>
      </trkpt>
      <trkpt lat="45.93401" lon="6.13122">
        <ele>463.01</ele>
        <time>2016-10-03T10:04:32Z</time>
      </trkpt>
      <trkpt lat="45.93404" lon="6.13127">
        <ele>463.01</ele>
        <time>2016-10-03T10:04:33Z</time>
      </trkpt>
      <trkpt lat="45.93466" lon="6.13201">
        <ele>463.49</ele>
        <time>2016-10-03T10:04:48Z</time>
      </trkpt>
      <trkpt lat="45.93497" lon="6.13236">
        <ele>462.05</ele>
        <time>2016-10-03T10:04:54Z</time>
      </trkpt>
      <trkpt lat="45.93503" lon="6.13242">
        <ele>461.57</ele>
        <time>2016-10-03T10:04:55Z</time>
      </trkpt>
      <trkpt lat="45.93513" lon="6.13255">
        <ele>461.57</ele>
        <time>2016-10-03T10:04:57Z</time>
      </trkpt>
      <trkpt lat="45.93523" lon="6.1327">
        <ele>460.13</ele>
        <time>2016-10-03T10:04:59Z</time>
      </trkpt>
      <trkpt lat="45.93527" lon="6.13281">
        <ele>461.09</ele>
        <time>2016-10-03T10:05:00Z</time>
      </trkpt>
      <trkpt lat="45.93532" lon="6.13291">
        <ele>460.61</ele>
        <time>2016-10-03T10:05:01Z</time>
      </trkpt>
      <trkpt lat="45.93536" lon="6.13302">
        <ele>460.61</ele>
        <time>2016-10-03T10:05:02Z</time>
      </trkpt>
      <trkpt lat="45.93539" lon="6.13312">
        <ele>460.61</ele>
        <time>2016-10-03T10:05:03Z</time>
      </trkpt>
      <trkpt lat="45.9354" lon="6.1332">
        <ele>460.61</ele>
        <time>2016-10-03T10:05:04Z</time>
      </trkpt>
      <trkpt lat="45.9354" lon="6.13328">
        <ele>460.61</ele>
        <time>2016-10-03T10:05:05Z</time>
      </trkpt>
      <trkpt lat="45.93538" lon="6.13335">
        <ele>461.09</ele>
        <time>2016-10-03T10:05:06Z</time>
      </trkpt>
      <trkpt lat="45.93535" lon="6.1334">
        <ele>461.09</ele>
        <time>2016-10-03T10:05:07Z</time>
      </trkpt>
      <trkpt lat="45.93531" lon="6.13344">
        <ele>461.57</ele>
        <time>2016-10-03T10:05:08Z</time>
      </trkpt>
      <trkpt lat="45.93528" lon="6.13347">
        <ele>463.01</ele>
        <time>2016-10-03T10:05:09Z</time>
      </trkpt>
      <trkpt lat="45.93526" lon="6.13352">
        <ele>462.53</ele>
        <time>2016-10-03T10:05:10Z</time>
      </trkpt>
      <trkpt lat="45.93526" lon="6.13357">
        <ele>462.53</ele>
        <time>2016-10-03T10:05:11Z</time>
      </trkpt>
      <trkpt lat="45.93526" lon="6.13362">
        <ele>463.01</ele>
        <time>2016-10-03T10:05:12Z</time>
      </trkpt>
      <trkpt lat="45.93528" lon="6.13367">
        <ele>463.01</ele>
        <time>2016-10-03T10:05:13Z</time>
      </trkpt>
      <trkpt lat="45.93529" lon="6.13372">
        <ele>463.01</ele>
        <time>2016-10-03T10:05:14Z</time>
      </trkpt>
      <trkpt lat="45.93532" lon="6.13374">
        <ele>463.49</ele>
        <time>2016-10-03T10:05:15Z</time>
      </trkpt>
      <trkpt lat="45.93535" lon="6.13376">
        <ele>463.49</ele>
        <time>2016-10-03T10:05:16Z</time>
      </trkpt>
      <trkpt lat="45.93537" lon="6.13378">
        <ele>463.97</ele>
        <time>2016-10-03T10:05:17Z</time>
      </trkpt>
      <trkpt lat="45.93554" lon="6.13395">
        <ele>465.9</ele>
        <time>2016-10-03T10:05:24Z</time>
      </trkpt>
      <trkpt lat="45.93583" lon="6.1344">
        <ele>467.82</ele>
        <time>2016-10-03T10:05:38Z</time>
      </trkpt>
      <trkpt lat="45.93612" lon="6.13504">
        <ele>468.78</ele>
        <time>2016-10-03T10:05:53Z</time>
      </trkpt>
      <trkpt lat="45.93645" lon="6.13583">
        <ele>469.74</ele>
        <time>2016-10-03T10:06:10Z</time>
      </trkpt>
      <trkpt lat="45.93663" lon="6.13626">
        <ele>470.7</ele>
        <time>2016-10-03T10:06:25Z</time>
      </trkpt>
      <trkpt lat="45.93681" lon="6.13671">
        <ele>471.66</ele>
        <time>2016-10-03T10:06:43Z</time>
      </trkpt>
      <trkpt lat="45.93685" lon="6.13682">
        <ele>473.11</ele>
        <time>2016-10-03T10:07:13Z</time>
      </trkpt>
      <trkpt lat="45.93698" lon="6.13724">
        <ele>470.7</ele>
        <time>2016-10-03T10:07:22Z</time>
      </trkpt>
      <trkpt lat="45.93704" lon="6.13759">
        <ele>470.7</ele>
        <time>2016-10-03T10:07:27Z</time>
      </trkpt>
      <trkpt lat="45.93704" lon="6.13767">
        <ele>470.22</ele>
        <time>2016-10-03T10:07:28Z</time>
      </trkpt>
      <trkpt lat="45.93703" lon="6.13773">
        <ele>469.74</ele>
        <time>2016-10-03T10:07:29Z</time>
      </trkpt>
      <trkpt lat="45.937" lon="6.13779">
        <ele>470.22</ele>
        <time>2016-10-03T10:07:30Z</time>
      </trkpt>
      <trkpt lat="45.93696" lon="6.13783">
        <ele>469.26</ele>
        <time>2016-10-03T10:07:31Z</time>
      </trkpt>
      <trkpt lat="45.93691" lon="6.13785">
        <ele>469.26</ele>
        <time>2016-10-03T10:07:32Z</time>
      </trkpt>
      <trkpt lat="45.93687" lon="6.13785">
        <ele>469.74</ele>
        <time>2016-10-03T10:07:33Z</time>
      </trkpt>
      <trkpt lat="45.93682" lon="6.13785">
        <ele>469.74</ele>
        <time>2016-10-03T10:07:34Z</time>
      </trkpt>
      <trkpt lat="45.93677" lon="6.13783">
        <ele>468.78</ele>
        <time>2016-10-03T10:07:35Z</time>
      </trkpt>
      <trkpt lat="45.93653" lon="6.1378">
        <ele>468.78</ele>
        <time>2016-10-03T10:07:44Z</time>
      </trkpt>
      <trkpt lat="45.93646" lon="6.13779">
        <ele>469.26</ele>
        <time>2016-10-03T10:07:48Z</time>
      </trkpt>
      <trkpt lat="45.93645" lon="6.1378">
        <ele>468.78</ele>
        <time>2016-10-03T10:07:49Z</time>
      </trkpt>
      <trkpt lat="45.93644" lon="6.13784">
        <ele>468.78</ele>
        <time>2016-10-03T10:07:50Z</time>
      </trkpt>
      <trkpt lat="45.93645" lon="6.13787">
        <ele>469.26</ele>
        <time>2016-10-03T10:07:51Z</time>
      </trkpt>
      <trkpt lat="45.93646" lon="6.13792">
        <ele>469.26</ele>
        <time>2016-10-03T10:07:52Z</time>
      </trkpt>
      <trkpt lat="45.93646" lon="6.13796">
        <ele>469.26</ele>
        <time>2016-10-03T10:07:53Z</time>
      </trkpt>
      <trkpt lat="45.93647" lon="6.13801">
        <ele>469.26</ele>
        <time>2016-10-03T10:07:54Z</time>
      </trkpt>
      <trkpt lat="45.93642" lon="6.13849">
        <ele>470.22</ele>
        <time>2016-10-03T10:08:05Z</time>
      </trkpt>
      <trkpt lat="45.93639" lon="6.13884">
        <ele>470.22</ele>
        <time>2016-10-03T10:08:12Z</time>
      </trkpt>
      <trkpt lat="45.93638" lon="6.1389">
        <ele>469.74</ele>
        <time>2016-10-03T10:08:13Z</time>
      </trkpt>
      <trkpt lat="45.93632" lon="6.13936">
        <ele>469.74</ele>
        <time>2016-10-03T10:08:20Z</time>
      </trkpt>
      <trkpt lat="45.93632" lon="6.13942">
        <ele>470.22</ele>
        <time>2016-10-03T10:08:21Z</time>
      </trkpt>
      <trkpt lat="45.93632" lon="6.13947">
        <ele>470.22</ele>
        <time>2016-10-03T10:08:22Z</time>
      </trkpt>
      <trkpt lat="45.93628" lon="6.13997">
        <ele>470.22</ele>
        <time>2016-10-03T10:08:30Z</time>
      </trkpt>
      <trkpt lat="45.93628" lon="6.14004">
        <ele>469.74</ele>
        <time>2016-10-03T10:08:31Z</time>
      </trkpt>
      <trkpt lat="45.93629" lon="6.14077">
        <ele>471.66</ele>
        <time>2016-10-03T10:08:42Z</time>
      </trkpt>
      <trkpt lat="45.9363" lon="6.14084">
        <ele>471.66</ele>
        <time>2016-10-03T10:08:43Z</time>
      </trkpt>
      <trkpt lat="45.93635" lon="6.14122">
        <ele>471.18</ele>
        <time>2016-10-03T10:08:49Z</time>
      </trkpt>
      <trkpt lat="45.9364" lon="6.14148">
        <ele>472.14</ele>
        <time>2016-10-03T10:08:53Z</time>
      </trkpt>
      <trkpt lat="45.93653" lon="6.14204">
        <ele>472.14</ele>
        <time>2016-10-03T10:09:02Z</time>
      </trkpt>
      <trkpt lat="45.93677" lon="6.14282">
        <ele>473.59</ele>
        <time>2016-10-03T10:09:15Z</time>
      </trkpt>
      <trkpt lat="45.93679" lon="6.14288">
        <ele>473.11</ele>
        <time>2016-10-03T10:09:16Z</time>
      </trkpt>
      <trkpt lat="45.93682" lon="6.14301">
        <ele>473.59</ele>
        <time>2016-10-03T10:09:18Z</time>
      </trkpt>
      <trkpt lat="45.93686" lon="6.14314">
        <ele>474.07</ele>
        <time>2016-10-03T10:09:20Z</time>
      </trkpt>
      <trkpt lat="45.93687" lon="6.1432">
        <ele>473.11</ele>
        <time>2016-10-03T10:09:21Z</time>
      </trkpt>
      <trkpt lat="45.93688" lon="6.14326">
        <ele>473.11</ele>
        <time>2016-10-03T10:09:22Z</time>
      </trkpt>
      <trkpt lat="45.9369" lon="6.14332">
        <ele>474.07</ele>
        <time>2016-10-03T10:09:23Z</time>
      </trkpt>
      <trkpt lat="45.93692" lon="6.14338">
        <ele>474.55</ele>
        <time>2016-10-03T10:09:24Z</time>
      </trkpt>
      <trkpt lat="45.93694" lon="6.14344">
        <ele>474.55</ele>
        <time>2016-10-03T10:09:25Z</time>
      </trkpt>
      <trkpt lat="45.9372" lon="6.14435">
        <ele>472.14</ele>
        <time>2016-10-03T10:09:39Z</time>
      </trkpt>
      <trkpt lat="45.93721" lon="6.14445">
        <ele>471.18</ele>
        <time>2016-10-03T10:09:40Z</time>
      </trkpt>
      <trkpt lat="45.93724" lon="6.14481">
        <ele>468.78</ele>
        <time>2016-10-03T10:09:43Z</time>
      </trkpt>
      <trkpt lat="45.93727" lon="6.14491">
        <ele>467.82</ele>
        <time>2016-10-03T10:09:44Z</time>
      </trkpt>
      <trkpt lat="45.93731" lon="6.14499">
        <ele>466.38</ele>
        <time>2016-10-03T10:09:45Z</time>
      </trkpt>
      <trkpt lat="45.93737" lon="6.14504">
        <ele>465.42</ele>
        <time>2016-10-03T10:09:46Z</time>
      </trkpt>
      <trkpt lat="45.93743" lon="6.14507">
        <ele>464.93</ele>
        <time>2016-10-03T10:09:47Z</time>
      </trkpt>
      <trkpt lat="45.93748" lon="6.14509">
        <ele>464.45</ele>
        <time>2016-10-03T10:09:48Z</time>
      </trkpt>
      <trkpt lat="45.93753" lon="6.14509">
        <ele>464.93</ele>
        <time>2016-10-03T10:09:49Z</time>
      </trkpt>
      <trkpt lat="45.93756" lon="6.1451">
        <ele>464.93</ele>
        <time>2016-10-03T10:09:50Z</time>
      </trkpt>
      <trkpt lat="45.93759" lon="6.1451">
        <ele>464.45</ele>
        <time>2016-10-03T10:09:51Z</time>
      </trkpt>
      <trkpt lat="45.93789" lon="6.14518">
        <ele>461.57</ele>
        <time>2016-10-03T10:10:00Z</time>
      </trkpt>
      <trkpt lat="45.93796" lon="6.14527">
        <ele>461.09</ele>
        <time>2016-10-03T10:10:01Z</time>
      </trkpt>
      <trkpt lat="45.93804" lon="6.14538">
        <ele>461.09</ele>
        <time>2016-10-03T10:10:02Z</time>
      </trkpt>
      <trkpt lat="45.93809" lon="6.14547">
        <ele>460.61</ele>
        <time>2016-10-03T10:10:03Z</time>
      </trkpt>
      <trkpt lat="45.93813" lon="6.14555">
        <ele>460.13</ele>
        <time>2016-10-03T10:10:04Z</time>
      </trkpt>
      <trkpt lat="45.93816" lon="6.14564">
        <ele>460.13</ele>
        <time>2016-10-03T10:10:05Z</time>
      </trkpt>
      <trkpt lat="45.93818" lon="6.14573">
        <ele>459.65</ele>
        <time>2016-10-03T10:10:06Z</time>
      </trkpt>
      <trkpt lat="45.93819" lon="6.14583">
        <ele>460.13</ele>
        <time>2016-10-03T10:10:07Z</time>
      </trkpt>
      <trkpt lat="45.9382" lon="6.14593">
        <ele>459.65</ele>
        <time>2016-10-03T10:10:08Z</time>
      </trkpt>
      <trkpt lat="45.93821" lon="6.14602">
        <ele>459.17</ele>
        <time>2016-10-03T10:10:09Z</time>
      </trkpt>
      <trkpt lat="45.93823" lon="6.1462">
        <ele>459.65</ele>
        <time>2016-10-03T10:10:11Z</time>
      </trkpt>
      <trkpt lat="45.93823" lon="6.14628">
        <ele>460.61</ele>
        <time>2016-10-03T10:10:12Z</time>
      </trkpt>
      <trkpt lat="45.93819" lon="6.14668">
        <ele>460.13</ele>
        <time>2016-10-03T10:10:17Z</time>
      </trkpt>
      <trkpt lat="45.93812" lon="6.14703">
        <ele>461.57</ele>
        <time>2016-10-03T10:10:22Z</time>
      </trkpt>
      <trkpt lat="45.93805" lon="6.14776">
        <ele>464.45</ele>
        <time>2016-10-03T10:10:36Z</time>
      </trkpt>
      <trkpt lat="45.93802" lon="6.14789">
        <ele>464.93</ele>
        <time>2016-10-03T10:10:48Z</time>
      </trkpt>
      <trkpt lat="45.93803" lon="6.1479">
        <ele>464.45</ele>
        <time>2016-10-03T10:11:23Z</time>
      </trkpt>
      <trkpt lat="45.93803" lon="6.14787">
        <ele>464.93</ele>
        <time>2016-10-03T10:11:58Z</time>
      </trkpt>
      <trkpt lat="45.93799" lon="6.1479">
        <ele>464.93</ele>
        <time>2016-10-03T10:12:29Z</time>
      </trkpt>
      <trkpt lat="45.93801" lon="6.14791">
        <ele>465.9</ele>
        <time>2016-10-03T10:12:50Z</time>
      </trkpt>
      <trkpt lat="45.938" lon="6.14792">
        <ele>465.42</ele>
        <time>2016-10-03T10:12:51Z</time>
      </trkpt>
      <trkpt lat="45.93793" lon="6.14801">
        <ele>465.42</ele>
        <time>2016-10-03T10:12:55Z</time>
      </trkpt>
      <trkpt lat="45.93791" lon="6.14806">
        <ele>464.93</ele>
        <time>2016-10-03T10:12:56Z</time>
      </trkpt>
      <trkpt lat="45.9379" lon="6.14811">
        <ele>465.42</ele>
        <time>2016-10-03T10:12:57Z</time>
      </trkpt>
      <trkpt lat="45.93775" lon="6.14922">
        <ele>464.93</ele>
        <time>2016-10-03T10:13:14Z</time>
      </trkpt>
      <trkpt lat="45.93753" lon="6.1507">
        <ele>466.38</ele>
        <time>2016-10-03T10:13:36Z</time>
      </trkpt>
      <trkpt lat="45.93738" lon="6.15188">
        <ele>466.86</ele>
        <time>2016-10-03T10:13:54Z</time>
      </trkpt>
      <trkpt lat="45.93729" lon="6.15296">
        <ele>468.3</ele>
        <time>2016-10-03T10:14:10Z</time>
      </trkpt>
      <trkpt lat="45.93726" lon="6.1538">
        <ele>468.3</ele>
        <time>2016-10-03T10:14:22Z</time>
      </trkpt>
      <trkpt lat="45.93725" lon="6.1542">
        <ele>468.78</ele>
        <time>2016-10-03T10:14:28Z</time>
      </trkpt>
      <trkpt lat="45.93724" lon="6.15426">
        <ele>468.78</ele>
        <time>2016-10-03T10:14:29Z</time>
      </trkpt>
      <trkpt lat="45.93722" lon="6.15433">
        <ele>468.78</ele>
        <time>2016-10-03T10:14:30Z</time>
      </trkpt>
      <trkpt lat="45.9372" lon="6.15438">
        <ele>469.74</ele>
        <time>2016-10-03T10:14:31Z</time>
      </trkpt>
      <trkpt lat="45.93718" lon="6.15443">
        <ele>469.26</ele>
        <time>2016-10-03T10:14:32Z</time>
      </trkpt>
      <trkpt lat="45.93715" lon="6.15448">
        <ele>469.26</ele>
        <time>2016-10-03T10:14:33Z</time>
      </trkpt>
      <trkpt lat="45.93712" lon="6.15452">
        <ele>469.26</ele>
        <time>2016-10-03T10:14:34Z</time>
      </trkpt>
      <trkpt lat="45.93708" lon="6.15455">
        <ele>469.74</ele>
        <time>2016-10-03T10:14:35Z</time>
      </trkpt>
      <trkpt lat="45.93705" lon="6.15457">
        <ele>470.7</ele>
        <time>2016-10-03T10:14:36Z</time>
      </trkpt>
      <trkpt lat="45.93701" lon="6.15458">
        <ele>469.74</ele>
        <time>2016-10-03T10:14:37Z</time>
      </trkpt>
      <trkpt lat="45.93697" lon="6.15459">
        <ele>470.7</ele>
        <time>2016-10-03T10:14:38Z</time>
      </trkpt>
      <trkpt lat="45.93694" lon="6.15458">
        <ele>470.7</ele>
        <time>2016-10-03T10:14:39Z</time>
      </trkpt>
      <trkpt lat="45.9369" lon="6.15458">
        <ele>470.7</ele>
        <time>2016-10-03T10:14:40Z</time>
      </trkpt>
      <trkpt lat="45.93687" lon="6.15457">
        <ele>471.18</ele>
        <time>2016-10-03T10:14:41Z</time>
      </trkpt>
      <trkpt lat="45.93684" lon="6.15454">
        <ele>470.7</ele>
        <time>2016-10-03T10:14:42Z</time>
      </trkpt>
      <trkpt lat="45.93681" lon="6.15451">
        <ele>471.18</ele>
        <time>2016-10-03T10:14:43Z</time>
      </trkpt>
      <trkpt lat="45.93679" lon="6.15448">
        <ele>471.66</ele>
        <time>2016-10-03T10:14:44Z</time>
      </trkpt>
      <trkpt lat="45.93677" lon="6.15444">
        <ele>471.66</ele>
        <time>2016-10-03T10:14:45Z</time>
      </trkpt>
      <trkpt lat="45.93675" lon="6.1544">
        <ele>471.66</ele>
        <time>2016-10-03T10:14:46Z</time>
      </trkpt>
      <trkpt lat="45.93673" lon="6.15436">
        <ele>472.63</ele>
        <time>2016-10-03T10:14:47Z</time>
      </trkpt>
      <trkpt lat="45.93673" lon="6.15432">
        <ele>472.14</ele>
        <time>2016-10-03T10:14:48Z</time>
      </trkpt>
      <trkpt lat="45.93672" lon="6.15427">
        <ele>472.63</ele>
        <time>2016-10-03T10:14:49Z</time>
      </trkpt>
      <trkpt lat="45.93673" lon="6.15421">
        <ele>472.63</ele>
        <time>2016-10-03T10:14:50Z</time>
      </trkpt>
      <trkpt lat="45.93691" lon="6.15385">
        <ele>474.07</ele>
        <time>2016-10-03T10:15:00Z</time>
      </trkpt>
      <trkpt lat="45.93697" lon="6.1535">
        <ele>474.55</ele>
        <time>2016-10-03T10:15:10Z</time>
      </trkpt>
      <trkpt lat="45.93691" lon="6.15335">
        <ele>474.07</ele>
        <time>2016-10-03T10:15:13Z</time>
      </trkpt>
      <trkpt lat="45.93686" lon="6.15311">
        <ele>474.07</ele>
        <time>2016-10-03T10:15:17Z</time>
      </trkpt>
      <trkpt lat="45.93686" lon="6.15292">
        <ele>474.55</ele>
        <time>2016-10-03T10:15:20Z</time>
      </trkpt>
      <trkpt lat="45.93694" lon="6.15218">
        <ele>476.95</ele>
        <time>2016-10-03T10:15:32Z</time>
      </trkpt>
      <trkpt lat="45.9367" lon="6.15112">
        <ele>476.47</ele>
        <time>2016-10-03T10:15:48Z</time>
      </trkpt>
      <trkpt lat="45.93643" lon="6.14999">
        <ele>476.95</ele>
        <time>2016-10-03T10:16:04Z</time>
      </trkpt>
      <trkpt lat="45.93624" lon="6.14892">
        <ele>477.91</ele>
        <time>2016-10-03T10:16:19Z</time>
      </trkpt>
      <trkpt lat="45.93616" lon="6.14852">
        <ele>478.87</ele>
        <time>2016-10-03T10:16:25Z</time>
      </trkpt>
      <trkpt lat="45.93615" lon="6.14845">
        <ele>479.84</ele>
        <time>2016-10-03T10:16:26Z</time>
      </trkpt>
      <trkpt lat="45.93614" lon="6.14838">
        <ele>479.35</ele>
        <time>2016-10-03T10:16:27Z</time>
      </trkpt>
      <trkpt lat="45.93606" lon="6.14812">
        <ele>479.84</ele>
        <time>2016-10-03T10:16:31Z</time>
      </trkpt>
      <trkpt lat="45.93604" lon="6.14806">
        <ele>479.35</ele>
        <time>2016-10-03T10:16:32Z</time>
      </trkpt>
      <trkpt lat="45.93603" lon="6.14801">
        <ele>480.32</ele>
        <time>2016-10-03T10:16:33Z</time>
      </trkpt>
      <trkpt lat="45.93591" lon="6.14768">
        <ele>482.24</ele>
        <time>2016-10-03T10:16:44Z</time>
      </trkpt>
      <trkpt lat="45.93587" lon="6.14754">
        <ele>483.2</ele>
        <time>2016-10-03T10:16:50Z</time>
      </trkpt>
      <trkpt lat="45.93577" lon="6.14717">
        <ele>485.12</ele>
        <time>2016-10-03T10:17:05Z</time>
      </trkpt>
      <trkpt lat="45.93566" lon="6.14681">
        <ele>488.49</ele>
        <time>2016-10-03T10:17:20Z</time>
      </trkpt>
      <trkpt lat="45.93545" lon="6.1465">
        <ele>490.89</ele>
        <time>2016-10-03T10:17:35Z</time>
      </trkpt>
      <trkpt lat="45.93517" lon="6.14627">
        <ele>494.26</ele>
        <time>2016-10-03T10:17:50Z</time>
      </trkpt>
      <trkpt lat="45.9349" lon="6.14604">
        <ele>495.22</ele>
        <time>2016-10-03T10:18:05Z</time>
      </trkpt>
      <trkpt lat="45.93458" lon="6.14598">
        <ele>497.14</ele>
        <time>2016-10-03T10:18:20Z</time>
      </trkpt>
      <trkpt lat="45.93431" lon="6.14571">
        <ele>499.54</ele>
        <time>2016-10-03T10:18:36Z</time>
      </trkpt>
      <trkpt lat="45.93392" lon="6.14532">
        <ele>501.95</ele>
        <time>2016-10-03T10:18:56Z</time>
      </trkpt>
      <trkpt lat="45.93365" lon="6.14489">
        <ele>503.87</ele>
        <time>2016-10-03T10:19:14Z</time>
      </trkpt>
      <trkpt lat="45.9335" lon="6.14447">
        <ele>506.75</ele>
        <time>2016-10-03T10:19:30Z</time>
      </trkpt>
      <trkpt lat="45.93333" lon="6.14418">
        <ele>509.64</ele>
        <time>2016-10-03T10:19:42Z</time>
      </trkpt>
      <trkpt lat="45.93292" lon="6.14375">
        <ele>512.52</ele>
        <time>2016-10-03T10:20:04Z</time>
      </trkpt>
      <trkpt lat="45.93259" lon="6.14335">
        <ele>514.44</ele>
        <time>2016-10-03T10:20:22Z</time>
      </trkpt>
      <trkpt lat="45.93228" lon="6.14299">
        <ele>515.4</ele>
        <time>2016-10-03T10:20:36Z</time>
      </trkpt>
      <trkpt lat="45.93186" lon="6.14246">
        <ele>516.37</ele>
        <time>2016-10-03T10:20:53Z</time>
      </trkpt>
      <trkpt lat="45.93137" lon="6.1419">
        <ele>517.33</ele>
        <time>2016-10-03T10:21:10Z</time>
      </trkpt>
      <trkpt lat="45.93094" lon="6.14135">
        <ele>518.29</ele>
        <time>2016-10-03T10:21:24Z</time>
      </trkpt>
      <trkpt lat="45.9307" lon="6.14105">
        <ele>518.77</ele>
        <time>2016-10-03T10:21:32Z</time>
      </trkpt>
      <trkpt lat="45.93067" lon="6.14101">
        <ele>518.77</ele>
        <time>2016-10-03T10:21:33Z</time>
      </trkpt>
      <trkpt lat="45.93036" lon="6.1405">
        <ele>519.25</ele>
        <time>2016-10-03T10:21:46Z</time>
      </trkpt>
      <trkpt lat="45.9301" lon="6.14038">
        <ele>519.73</ele>
        <time>2016-10-03T10:21:54Z</time>
      </trkpt>
      <trkpt lat="45.92976" lon="6.14006">
        <ele>521.17</ele>
        <time>2016-10-03T10:22:05Z</time>
      </trkpt>
      <trkpt lat="45.92929" lon="6.13965">
        <ele>522.13</ele>
        <time>2016-10-03T10:22:22Z</time>
      </trkpt>
      <trkpt lat="45.9289" lon="6.13948">
        <ele>524.06</ele>
        <time>2016-10-03T10:22:36Z</time>
      </trkpt>
      <trkpt lat="45.92871" lon="6.13947">
        <ele>526.46</ele>
        <time>2016-10-03T10:22:45Z</time>
      </trkpt>
      <trkpt lat="45.92832" lon="6.13944">
        <ele>528.86</ele>
        <time>2016-10-03T10:23:03Z</time>
      </trkpt>
      <trkpt lat="45.9279" lon="6.13941">
        <ele>529.82</ele>
        <time>2016-10-03T10:23:19Z</time>
      </trkpt>
      <trkpt lat="45.92738" lon="6.13951">
        <ele>530.79</ele>
        <time>2016-10-03T10:23:35Z</time>
      </trkpt>
      <trkpt lat="45.92686" lon="6.1397">
        <ele>531.27</ele>
        <time>2016-10-03T10:23:50Z</time>
      </trkpt>
      <trkpt lat="45.92636" lon="6.13993">
        <ele>528.86</ele>
        <time>2016-10-03T10:24:02Z</time>
      </trkpt>
      <trkpt lat="45.92604" lon="6.14005">
        <ele>526.94</ele>
        <time>2016-10-03T10:24:07Z</time>
      </trkpt>
      <trkpt lat="45.92557" lon="6.14004">
        <ele>524.06</ele>
        <time>2016-10-03T10:24:12Z</time>
      </trkpt>
      <trkpt lat="45.92525" lon="6.13995">
        <ele>520.69</ele>
        <time>2016-10-03T10:24:15Z</time>
      </trkpt>
      <trkpt lat="45.92491" lon="6.13986">
        <ele>517.33</ele>
        <time>2016-10-03T10:24:18Z</time>
      </trkpt>
      <trkpt lat="45.92471" lon="6.1398">
        <ele>516.85</ele>
        <time>2016-10-03T10:24:20Z</time>
      </trkpt>
      <trkpt lat="45.92443" lon="6.1397">
        <ele>515.88</ele>
        <time>2016-10-03T10:24:24Z</time>
      </trkpt>
      <trkpt lat="45.92437" lon="6.13966">
        <ele>516.37</ele>
        <time>2016-10-03T10:24:25Z</time>
      </trkpt>
      <trkpt lat="45.92433" lon="6.13962">
        <ele>515.88</ele>
        <time>2016-10-03T10:24:26Z</time>
      </trkpt>
      <trkpt lat="45.92428" lon="6.13957">
        <ele>515.88</ele>
        <time>2016-10-03T10:24:27Z</time>
      </trkpt>
      <trkpt lat="45.92425" lon="6.13951">
        <ele>515.4</ele>
        <time>2016-10-03T10:24:28Z</time>
      </trkpt>
      <trkpt lat="45.92421" lon="6.13944">
        <ele>515.4</ele>
        <time>2016-10-03T10:24:29Z</time>
      </trkpt>
      <trkpt lat="45.92419" lon="6.13936">
        <ele>514.92</ele>
        <time>2016-10-03T10:24:30Z</time>
      </trkpt>
      <trkpt lat="45.92417" lon="6.13927">
        <ele>514.92</ele>
        <time>2016-10-03T10:24:31Z</time>
      </trkpt>
      <trkpt lat="45.92406" lon="6.13874">
        <ele>513</ele>
        <time>2016-10-03T10:24:36Z</time>
      </trkpt>
      <trkpt lat="45.92397" lon="6.13826">
        <ele>510.12</ele>
        <time>2016-10-03T10:24:40Z</time>
      </trkpt>
      <trkpt lat="45.92383" lon="6.13752">
        <ele>506.27</ele>
        <time>2016-10-03T10:24:46Z</time>
      </trkpt>
      <trkpt lat="45.92379" lon="6.1374">
        <ele>504.83</ele>
        <time>2016-10-03T10:24:47Z</time>
      </trkpt>
      <trkpt lat="45.92374" lon="6.13729">
        <ele>503.87</ele>
        <time>2016-10-03T10:24:48Z</time>
      </trkpt>
      <trkpt lat="45.92368" lon="6.13719">
        <ele>502.43</ele>
        <time>2016-10-03T10:24:49Z</time>
      </trkpt>
      <trkpt lat="45.92362" lon="6.1371">
        <ele>502.43</ele>
        <time>2016-10-03T10:24:50Z</time>
      </trkpt>
      <trkpt lat="45.92356" lon="6.13703">
        <ele>501.46</ele>
        <time>2016-10-03T10:24:51Z</time>
      </trkpt>
      <trkpt lat="45.92351" lon="6.13696">
        <ele>500.5</ele>
        <time>2016-10-03T10:24:52Z</time>
      </trkpt>
      <trkpt lat="45.92347" lon="6.13688">
        <ele>499.54</ele>
        <time>2016-10-03T10:24:53Z</time>
      </trkpt>
      <trkpt lat="45.92345" lon="6.1368">
        <ele>499.06</ele>
        <time>2016-10-03T10:24:54Z</time>
      </trkpt>
      <trkpt lat="45.92344" lon="6.13672">
        <ele>498.58</ele>
        <time>2016-10-03T10:24:55Z</time>
      </trkpt>
      <trkpt lat="45.92342" lon="6.13665">
        <ele>498.1</ele>
        <time>2016-10-03T10:24:56Z</time>
      </trkpt>
      <trkpt lat="45.92338" lon="6.13659">
        <ele>497.62</ele>
        <time>2016-10-03T10:24:57Z</time>
      </trkpt>
      <trkpt lat="45.92334" lon="6.13654">
        <ele>497.14</ele>
        <time>2016-10-03T10:24:58Z</time>
      </trkpt>
      <trkpt lat="45.92318" lon="6.13627">
        <ele>495.22</ele>
        <time>2016-10-03T10:25:04Z</time>
      </trkpt>
      <trkpt lat="45.92303" lon="6.13596">
        <ele>492.81</ele>
        <time>2016-10-03T10:25:08Z</time>
      </trkpt>
      <trkpt lat="45.92293" lon="6.13578">
        <ele>491.37</ele>
        <time>2016-10-03T10:25:10Z</time>
      </trkpt>
      <trkpt lat="45.92275" lon="6.13552">
        <ele>489.45</ele>
        <time>2016-10-03T10:25:13Z</time>
      </trkpt>
      <trkpt lat="45.92268" lon="6.13544">
        <ele>489.45</ele>
        <time>2016-10-03T10:25:14Z</time>
      </trkpt>
      <trkpt lat="45.92246" lon="6.13518">
        <ele>485.6</ele>
        <time>2016-10-03T10:25:17Z</time>
      </trkpt>
      <trkpt lat="45.9222" lon="6.13494">
        <ele>481.76</ele>
        <time>2016-10-03T10:25:20Z</time>
      </trkpt>
      <trkpt lat="45.9218" lon="6.13443">
        <ele>477.43</ele>
        <time>2016-10-03T10:25:25Z</time>
      </trkpt>
      <trkpt lat="45.92168" lon="6.13422">
        <ele>474.55</ele>
        <time>2016-10-03T10:25:27Z</time>
      </trkpt>
      <trkpt lat="45.92164" lon="6.13413">
        <ele>474.07</ele>
        <time>2016-10-03T10:25:28Z</time>
      </trkpt>
      <trkpt lat="45.92155" lon="6.13381">
        <ele>470.7</ele>
        <time>2016-10-03T10:25:33Z</time>
      </trkpt>
      <trkpt lat="45.92156" lon="6.13377">
        <ele>470.7</ele>
        <time>2016-10-03T10:25:34Z</time>
      </trkpt>
      <trkpt lat="45.92163" lon="6.13355">
        <ele>469.74</ele>
        <time>2016-10-03T10:25:39Z</time>
      </trkpt>
      <trkpt lat="45.92162" lon="6.13348">
        <ele>469.26</ele>
        <time>2016-10-03T10:25:40Z</time>
      </trkpt>
      <trkpt lat="45.9216" lon="6.13342">
        <ele>469.26</ele>
        <time>2016-10-03T10:25:41Z</time>
      </trkpt>
      <trkpt lat="45.92155" lon="6.13338">
        <ele>468.78</ele>
        <time>2016-10-03T10:25:42Z</time>
      </trkpt>
      <trkpt lat="45.92149" lon="6.13336">
        <ele>468.3</ele>
        <time>2016-10-03T10:25:43Z</time>
      </trkpt>
      <trkpt lat="45.92143" lon="6.13337">
        <ele>467.82</ele>
        <time>2016-10-03T10:25:44Z</time>
      </trkpt>
      <trkpt lat="45.92136" lon="6.13338">
        <ele>467.82</ele>
        <time>2016-10-03T10:25:45Z</time>
      </trkpt>
      <trkpt lat="45.9213" lon="6.13337">
        <ele>467.82</ele>
        <time>2016-10-03T10:25:46Z</time>
      </trkpt>
      <trkpt lat="45.92123" lon="6.13334">
        <ele>468.3</ele>
        <time>2016-10-03T10:25:47Z</time>
      </trkpt>
      <trkpt lat="45.92117" lon="6.13331">
        <ele>467.34</ele>
        <time>2016-10-03T10:25:48Z</time>
      </trkpt>
      <trkpt lat="45.92103" lon="6.13323">
        <ele>466.38</ele>
        <time>2016-10-03T10:25:50Z</time>
      </trkpt>
      <trkpt lat="45.9209" lon="6.13313">
        <ele>464.93</ele>
        <time>2016-10-03T10:25:52Z</time>
      </trkpt>
      <trkpt lat="45.92083" lon="6.13306">
        <ele>464.93</ele>
        <time>2016-10-03T10:25:53Z</time>
      </trkpt>
      <trkpt lat="45.92077" lon="6.13299">
        <ele>464.45</ele>
        <time>2016-10-03T10:25:54Z</time>
      </trkpt>
      <trkpt lat="45.92071" lon="6.13291">
        <ele>464.45</ele>
        <time>2016-10-03T10:25:55Z</time>
      </trkpt>
      <trkpt lat="45.92066" lon="6.13281">
        <ele>463.49</ele>
        <time>2016-10-03T10:25:56Z</time>
      </trkpt>
      <trkpt lat="45.9206" lon="6.13272">
        <ele>463.97</ele>
        <time>2016-10-03T10:25:57Z</time>
      </trkpt>
      <trkpt lat="45.91986" lon="6.13141">
        <ele>462.53</ele>
        <time>2016-10-03T10:26:13Z</time>
      </trkpt>
      <trkpt lat="45.91929" lon="6.13051">
        <ele>462.05</ele>
        <time>2016-10-03T10:26:26Z</time>
      </trkpt>
      <trkpt lat="45.91896" lon="6.12997">
        <ele>462.05</ele>
        <time>2016-10-03T10:26:34Z</time>
      </trkpt>
      <trkpt lat="45.91839" lon="6.12901">
        <ele>461.57</ele>
        <time>2016-10-03T10:26:49Z</time>
      </trkpt>
      <trkpt lat="45.91781" lon="6.12818">
        <ele>461.57</ele>
        <time>2016-10-03T10:27:03Z</time>
      </trkpt>
      <trkpt lat="45.9177" lon="6.12794">
        <ele>461.57</ele>
        <time>2016-10-03T10:27:08Z</time>
      </trkpt>
      <trkpt lat="45.91771" lon="6.12776">
        <ele>462.05</ele>
        <time>2016-10-03T10:27:12Z</time>
      </trkpt>
      <trkpt lat="45.91769" lon="6.12773">
        <ele>461.09</ele>
        <time>2016-10-03T10:27:13Z</time>
      </trkpt>
      <trkpt lat="45.91765" lon="6.12771">
        <ele>461.09</ele>
        <time>2016-10-03T10:27:14Z</time>
      </trkpt>
      <trkpt lat="45.91762" lon="6.12771">
        <ele>461.57</ele>
        <time>2016-10-03T10:27:15Z</time>
      </trkpt>
      <trkpt lat="45.91758" lon="6.12773">
        <ele>461.57</ele>
        <time>2016-10-03T10:27:16Z</time>
      </trkpt>
      <trkpt lat="45.91754" lon="6.12775">
        <ele>462.05</ele>
        <time>2016-10-03T10:27:17Z</time>
      </trkpt>
      <trkpt lat="45.9175" lon="6.12777">
        <ele>461.57</ele>
        <time>2016-10-03T10:27:18Z</time>
      </trkpt>
      <trkpt lat="45.91689" lon="6.12815">
        <ele>461.57</ele>
        <time>2016-10-03T10:27:31Z</time>
      </trkpt>
      <trkpt lat="45.91659" lon="6.12835">
        <ele>461.09</ele>
        <time>2016-10-03T10:27:37Z</time>
      </trkpt>
      <trkpt lat="45.91654" lon="6.12839">
        <ele>461.09</ele>
        <time>2016-10-03T10:27:38Z</time>
      </trkpt>
      <trkpt lat="45.91625" lon="6.12856">
        <ele>459.17</ele>
        <time>2016-10-03T10:27:44Z</time>
      </trkpt>
      <trkpt lat="45.9162" lon="6.12858">
        <ele>459.65</ele>
        <time>2016-10-03T10:27:45Z</time>
      </trkpt>
      <trkpt lat="45.91615" lon="6.12857">
        <ele>460.13</ele>
        <time>2016-10-03T10:27:46Z</time>
      </trkpt>
      <trkpt lat="45.9161" lon="6.12857">
        <ele>460.13</ele>
        <time>2016-10-03T10:27:47Z</time>
      </trkpt>
      <trkpt lat="45.91606" lon="6.12857">
        <ele>461.09</ele>
        <time>2016-10-03T10:27:48Z</time>
      </trkpt>
      <trkpt lat="45.91601" lon="6.12859">
        <ele>460.61</ele>
        <time>2016-10-03T10:27:49Z</time>
      </trkpt>
      <trkpt lat="45.91597" lon="6.12863">
        <ele>460.61</ele>
        <time>2016-10-03T10:27:50Z</time>
      </trkpt>
      <trkpt lat="45.91593" lon="6.12868">
        <ele>460.13</ele>
        <time>2016-10-03T10:27:51Z</time>
      </trkpt>
      <trkpt lat="45.91589" lon="6.12874">
        <ele>459.65</ele>
        <time>2016-10-03T10:27:52Z</time>
      </trkpt>
      <trkpt lat="45.91585" lon="6.12879">
        <ele>460.13</ele>
        <time>2016-10-03T10:27:53Z</time>
      </trkpt>
      <trkpt lat="45.91581" lon="6.12884">
        <ele>460.61</ele>
        <time>2016-10-03T10:27:54Z</time>
      </trkpt>
      <trkpt lat="45.91575" lon="6.12888">
        <ele>460.13</ele>
        <time>2016-10-03T10:27:55Z</time>
      </trkpt>
      <trkpt lat="45.91498" lon="6.1294">
        <ele>459.65</ele>
        <time>2016-10-03T10:28:10Z</time>
      </trkpt>
      <trkpt lat="45.91493" lon="6.12941">
        <ele>459.65</ele>
        <time>2016-10-03T10:28:11Z</time>
      </trkpt>
      <trkpt lat="45.91488" lon="6.12941">
        <ele>459.65</ele>
        <time>2016-10-03T10:28:12Z</time>
      </trkpt>
      <trkpt lat="45.91483" lon="6.12943">
        <ele>459.17</ele>
        <time>2016-10-03T10:28:13Z</time>
      </trkpt>
      <trkpt lat="45.91479" lon="6.12947">
        <ele>459.65</ele>
        <time>2016-10-03T10:28:14Z</time>
      </trkpt>
      <trkpt lat="45.91476" lon="6.12952">
        <ele>459.65</ele>
        <time>2016-10-03T10:28:15Z</time>
      </trkpt>
      <trkpt lat="45.91473" lon="6.12957">
        <ele>458.69</ele>
        <time>2016-10-03T10:28:16Z</time>
      </trkpt>
      <trkpt lat="45.91469" lon="6.12961">
        <ele>458.69</ele>
        <time>2016-10-03T10:28:17Z</time>
      </trkpt>
      <trkpt lat="45.91464" lon="6.12965">
        <ele>459.17</ele>
        <time>2016-10-03T10:28:18Z</time>
      </trkpt>
      <trkpt lat="45.91449" lon="6.12974">
        <ele>458.69</ele>
        <time>2016-10-03T10:28:21Z</time>
      </trkpt>
      <trkpt lat="45.91381" lon="6.1302">
        <ele>458.21</ele>
        <time>2016-10-03T10:28:34Z</time>
      </trkpt>
      <trkpt lat="45.91307" lon="6.13069">
        <ele>457.24</ele>
        <time>2016-10-03T10:28:48Z</time>
      </trkpt>
      <trkpt lat="45.91235" lon="6.13116">
        <ele>456.76</ele>
        <time>2016-10-03T10:29:02Z</time>
      </trkpt>
      <trkpt lat="45.91226" lon="6.13124">
        <ele>456.28</ele>
        <time>2016-10-03T10:29:04Z</time>
      </trkpt>
      <trkpt lat="45.91204" lon="6.13137">
        <ele>456.76</ele>
        <time>2016-10-03T10:29:09Z</time>
      </trkpt>
      <trkpt lat="45.912" lon="6.13139">
        <ele>456.76</ele>
        <time>2016-10-03T10:29:10Z</time>
      </trkpt>
      <trkpt lat="45.91196" lon="6.1314">
        <ele>457.24</ele>
        <time>2016-10-03T10:29:11Z</time>
      </trkpt>
      <trkpt lat="45.91192" lon="6.13141">
        <ele>457.24</ele>
        <time>2016-10-03T10:29:12Z</time>
      </trkpt>
      <trkpt lat="45.91189" lon="6.13142">
        <ele>457.24</ele>
        <time>2016-10-03T10:29:13Z</time>
      </trkpt>
      <trkpt lat="45.91185" lon="6.13142">
        <ele>457.24</ele>
        <time>2016-10-03T10:29:14Z</time>
      </trkpt>
      <trkpt lat="45.9118" lon="6.13143">
        <ele>456.76</ele>
        <time>2016-10-03T10:29:15Z</time>
      </trkpt>
      <trkpt lat="45.91168" lon="6.13151">
        <ele>456.76</ele>
        <time>2016-10-03T10:29:18Z</time>
      </trkpt>
      <trkpt lat="45.91163" lon="6.13153">
        <ele>455.8</ele>
        <time>2016-10-03T10:29:19Z</time>
      </trkpt>
      <trkpt lat="45.91158" lon="6.13154">
        <ele>456.28</ele>
        <time>2016-10-03T10:29:20Z</time>
      </trkpt>
      <trkpt lat="45.91153" lon="6.13154">
        <ele>456.28</ele>
        <time>2016-10-03T10:29:21Z</time>
      </trkpt>
      <trkpt lat="45.91149" lon="6.13153">
        <ele>456.28</ele>
        <time>2016-10-03T10:29:22Z</time>
      </trkpt>
      <trkpt lat="45.91145" lon="6.13152">
        <ele>456.28</ele>
        <time>2016-10-03T10:29:23Z</time>
      </trkpt>
      <trkpt lat="45.91142" lon="6.13152">
        <ele>456.28</ele>
        <time>2016-10-03T10:29:24Z</time>
      </trkpt>
      <trkpt lat="45.91136" lon="6.13152">
        <ele>456.28</ele>
        <time>2016-10-03T10:29:26Z</time>
      </trkpt>
      <trkpt lat="45.91134" lon="6.13154">
        <ele>456.28</ele>
        <time>2016-10-03T10:29:27Z</time>
      </trkpt>
      <trkpt lat="45.91134" lon="6.13157">
        <ele>456.76</ele>
        <time>2016-10-03T10:29:28Z</time>
      </trkpt>
      <trkpt lat="45.91136" lon="6.1316">
        <ele>457.24</ele>
        <time>2016-10-03T10:29:29Z</time>
      </trkpt>
      <trkpt lat="45.91138" lon="6.13161">
        <ele>456.76</ele>
        <time>2016-10-03T10:29:30Z</time>
      </trkpt>
      <trkpt lat="45.9114" lon="6.13162">
        <ele>456.76</ele>
        <time>2016-10-03T10:29:31Z</time>
      </trkpt>
      <trkpt lat="45.91143" lon="6.13163">
        <ele>456.28</ele>
        <time>2016-10-03T10:29:32Z</time>
      </trkpt>
      <trkpt lat="45.91145" lon="6.13165">
        <ele>456.28</ele>
        <time>2016-10-03T10:29:33Z</time>
      </trkpt>
      <trkpt lat="45.91148" lon="6.13166">
        <ele>456.28</ele>
        <time>2016-10-03T10:29:34Z</time>
      </trkpt>
      <trkpt lat="45.91157" lon="6.13173">
        <ele>456.76</ele>
        <time>2016-10-03T10:29:38Z</time>
      </trkpt>
      <trkpt lat="45.91175" lon="6.13213">
        <ele>456.28</ele>
        <time>2016-10-03T10:29:49Z</time>
      </trkpt>
      <trkpt lat="45.91174" lon="6.13219">
        <ele>456.28</ele>
        <time>2016-10-03T10:29:50Z</time>
      </trkpt>
      <trkpt lat="45.91171" lon="6.13236">
        <ele>456.28</ele>
        <time>2016-10-03T10:29:53Z</time>
      </trkpt>
      <trkpt lat="45.9117" lon="6.13242">
        <ele>455.8</ele>
        <time>2016-10-03T10:29:54Z</time>
      </trkpt>
      <trkpt lat="45.9116" lon="6.13311">
        <ele>456.28</ele>
        <time>2016-10-03T10:30:05Z</time>
      </trkpt>
      <trkpt lat="45.91154" lon="6.13343">
        <ele>456.28</ele>
        <time>2016-10-03T10:30:10Z</time>
      </trkpt>
      <trkpt lat="45.91151" lon="6.13362">
        <ele>456.28</ele>
        <time>2016-10-03T10:30:13Z</time>
      </trkpt>
      <trkpt lat="45.91151" lon="6.13368">
        <ele>456.28</ele>
        <time>2016-10-03T10:30:14Z</time>
      </trkpt>
      <trkpt lat="45.91147" lon="6.13404">
        <ele>455.32</ele>
        <time>2016-10-03T10:30:19Z</time>
      </trkpt>
      <trkpt lat="45.91147" lon="6.13412">
        <ele>455.32</ele>
        <time>2016-10-03T10:30:20Z</time>
      </trkpt>
      <trkpt lat="45.91137" lon="6.13464">
        <ele>456.28</ele>
        <time>2016-10-03T10:30:27Z</time>
      </trkpt>
      <trkpt lat="45.91119" lon="6.13563">
        <ele>454.84</ele>
        <time>2016-10-03T10:30:40Z</time>
      </trkpt>
      <trkpt lat="45.91117" lon="6.13577">
        <ele>455.8</ele>
        <time>2016-10-03T10:30:42Z</time>
      </trkpt>
      <trkpt lat="45.91116" lon="6.13584">
        <ele>455.32</ele>
        <time>2016-10-03T10:30:43Z</time>
      </trkpt>
      <trkpt lat="45.91112" lon="6.1361">
        <ele>455.32</ele>
        <time>2016-10-03T10:30:47Z</time>
      </trkpt>
      <trkpt lat="45.91111" lon="6.13616">
        <ele>454.84</ele>
        <time>2016-10-03T10:30:48Z</time>
      </trkpt>
      <trkpt lat="45.9111" lon="6.13621">
        <ele>455.32</ele>
        <time>2016-10-03T10:30:49Z</time>
      </trkpt>
      <trkpt lat="45.91109" lon="6.13624">
        <ele>455.32</ele>
        <time>2016-10-03T10:30:50Z</time>
      </trkpt>
      <trkpt lat="45.91107" lon="6.13628">
        <ele>455.32</ele>
        <time>2016-10-03T10:30:51Z</time>
      </trkpt>
      <trkpt lat="45.91105" lon="6.13631">
        <ele>455.32</ele>
        <time>2016-10-03T10:30:52Z</time>
      </trkpt>
      <trkpt lat="45.91102" lon="6.13632">
        <ele>454.84</ele>
        <time>2016-10-03T10:30:53Z</time>
      </trkpt>
      <trkpt lat="45.91095" lon="6.13621">
        <ele>455.32</ele>
        <time>2016-10-03T10:31:10Z</time>
      </trkpt>
      <trkpt lat="45.91092" lon="6.13615">
        <ele>456.28</ele>
        <time>2016-10-03T10:31:40Z</time>
      </trkpt>
      <trkpt lat="45.91084" lon="6.1364">
        <ele>454.84</ele>
        <time>2016-10-03T10:32:01Z</time>
      </trkpt>
      <trkpt lat="45.9108" lon="6.13662">
        <ele>455.32</ele>
        <time>2016-10-03T10:32:05Z</time>
      </trkpt>
      <trkpt lat="45.91078" lon="6.13668">
        <ele>455.32</ele>
        <time>2016-10-03T10:32:06Z</time>
      </trkpt>
      <trkpt lat="45.91075" lon="6.13674">
        <ele>455.32</ele>
        <time>2016-10-03T10:32:07Z</time>
      </trkpt>
      <trkpt lat="45.91073" lon="6.13679">
        <ele>454.84</ele>
        <time>2016-10-03T10:32:08Z</time>
      </trkpt>
      <trkpt lat="45.91071" lon="6.13685">
        <ele>454.84</ele>
        <time>2016-10-03T10:32:09Z</time>
      </trkpt>
      <trkpt lat="45.91069" lon="6.13692">
        <ele>454.84</ele>
        <time>2016-10-03T10:32:10Z</time>
      </trkpt>
      <trkpt lat="45.91067" lon="6.13698">
        <ele>455.32</ele>
        <time>2016-10-03T10:32:11Z</time>
      </trkpt>
      <trkpt lat="45.91064" lon="6.13704">
        <ele>454.84</ele>
        <time>2016-10-03T10:32:12Z</time>
      </trkpt>
      <trkpt lat="45.9106" lon="6.13709">
        <ele>454.84</ele>
        <time>2016-10-03T10:32:13Z</time>
      </trkpt>
      <trkpt lat="45.91057" lon="6.13715">
        <ele>454.84</ele>
        <time>2016-10-03T10:32:14Z</time>
      </trkpt>
      <trkpt lat="45.91053" lon="6.1372">
        <ele>454.84</ele>
        <time>2016-10-03T10:32:15Z</time>
      </trkpt>
      <trkpt lat="45.91049" lon="6.13724">
        <ele>454.84</ele>
        <time>2016-10-03T10:32:16Z</time>
      </trkpt>
      <trkpt lat="45.91002" lon="6.13779">
        <ele>455.32</ele>
        <time>2016-10-03T10:32:28Z</time>
      </trkpt>
      <trkpt lat="45.90989" lon="6.13794">
        <ele>455.32</ele>
        <time>2016-10-03T10:32:31Z</time>
      </trkpt>
      <trkpt lat="45.90985" lon="6.13799">
        <ele>455.8</ele>
        <time>2016-10-03T10:32:32Z</time>
      </trkpt>
      <trkpt lat="45.9098" lon="6.13803">
        <ele>455.32</ele>
        <time>2016-10-03T10:32:33Z</time>
      </trkpt>
      <trkpt lat="45.9096" lon="6.1382">
        <ele>454.84</ele>
        <time>2016-10-03T10:32:37Z</time>
      </trkpt>
      <trkpt lat="45.909" lon="6.13879">
        <ele>454.84</ele>
        <time>2016-10-03T10:32:49Z</time>
      </trkpt>
      <trkpt lat="45.90828" lon="6.13948">
        <ele>453.88</ele>
        <time>2016-10-03T10:33:03Z</time>
      </trkpt>
      <trkpt lat="45.90819" lon="6.13958">
        <ele>452.92</ele>
        <time>2016-10-03T10:33:05Z</time>
      </trkpt>
      <trkpt lat="45.90814" lon="6.13964">
        <ele>453.88</ele>
        <time>2016-10-03T10:33:06Z</time>
      </trkpt>
      <trkpt lat="45.90799" lon="6.1398">
        <ele>453.4</ele>
        <time>2016-10-03T10:33:09Z</time>
      </trkpt>
      <trkpt lat="45.90793" lon="6.13985">
        <ele>453.4</ele>
        <time>2016-10-03T10:33:10Z</time>
      </trkpt>
      <trkpt lat="45.90772" lon="6.14009">
        <ele>453.4</ele>
        <time>2016-10-03T10:33:14Z</time>
      </trkpt>
      <trkpt lat="45.90734" lon="6.14041">
        <ele>453.4</ele>
        <time>2016-10-03T10:33:23Z</time>
      </trkpt>
      <trkpt lat="45.90727" lon="6.14046">
        <ele>453.88</ele>
        <time>2016-10-03T10:33:36Z</time>
      </trkpt>
      <trkpt lat="45.9072" lon="6.14052">
        <ele>453.88</ele>
        <time>2016-10-03T10:34:11Z</time>
      </trkpt>
      <trkpt lat="45.90713" lon="6.14063">
        <ele>453.88</ele>
        <time>2016-10-03T10:34:36Z</time>
      </trkpt>
      <trkpt lat="45.90699" lon="6.14072">
        <ele>453.88</ele>
        <time>2016-10-03T10:34:41Z</time>
      </trkpt>
      <trkpt lat="45.90687" lon="6.14081">
        <ele>453.88</ele>
        <time>2016-10-03T10:34:44Z</time>
      </trkpt>
      <trkpt lat="45.90683" lon="6.14084">
        <ele>453.88</ele>
        <time>2016-10-03T10:34:45Z</time>
      </trkpt>
      <trkpt lat="45.90633" lon="6.14127">
        <ele>453.88</ele>
        <time>2016-10-03T10:34:56Z</time>
      </trkpt>
      <trkpt lat="45.90619" lon="6.1414">
        <ele>453.88</ele>
        <time>2016-10-03T10:34:59Z</time>
      </trkpt>
      <trkpt lat="45.90589" lon="6.14163">
        <ele>452.92</ele>
        <time>2016-10-03T10:35:05Z</time>
      </trkpt>
      <trkpt lat="45.90584" lon="6.14167">
        <ele>453.88</ele>
        <time>2016-10-03T10:35:06Z</time>
      </trkpt>
      <trkpt lat="45.9058" lon="6.14171">
        <ele>453.88</ele>
        <time>2016-10-03T10:35:07Z</time>
      </trkpt>
      <trkpt lat="45.90567" lon="6.14183">
        <ele>454.36</ele>
        <time>2016-10-03T10:35:10Z</time>
      </trkpt>
      <trkpt lat="45.9056" lon="6.1419">
        <ele>454.36</ele>
        <time>2016-10-03T10:35:12Z</time>
      </trkpt>
      <trkpt lat="45.90557" lon="6.14194">
        <ele>453.88</ele>
        <time>2016-10-03T10:35:13Z</time>
      </trkpt>
      <trkpt lat="45.90537" lon="6.14218">
        <ele>453.88</ele>
        <time>2016-10-03T10:35:19Z</time>
      </trkpt>
      <trkpt lat="45.90533" lon="6.14221">
        <ele>453.88</ele>
        <time>2016-10-03T10:35:20Z</time>
      </trkpt>
      <trkpt lat="45.90529" lon="6.14223">
        <ele>453.88</ele>
        <time>2016-10-03T10:35:21Z</time>
      </trkpt>
      <trkpt lat="45.90526" lon="6.14224">
        <ele>453.88</ele>
        <time>2016-10-03T10:35:22Z</time>
      </trkpt>
      <trkpt lat="45.90524" lon="6.14225">
        <ele>453.88</ele>
        <time>2016-10-03T10:35:23Z</time>
      </trkpt>
      <trkpt lat="45.90513" lon="6.14217">
        <ele>453.88</ele>
        <time>2016-10-03T10:35:32Z</time>
      </trkpt>
      <trkpt lat="45.90506" lon="6.14199">
        <ele>453.88</ele>
        <time>2016-10-03T10:35:47Z</time>
      </trkpt>
      <trkpt lat="45.90499" lon="6.14174">
        <ele>453.4</ele>
        <time>2016-10-03T10:35:52Z</time>
      </trkpt>
      <trkpt lat="45.90498" lon="6.14168">
        <ele>453.4</ele>
        <time>2016-10-03T10:35:53Z</time>
      </trkpt>
      <trkpt lat="45.90496" lon="6.14161">
        <ele>453.4</ele>
        <time>2016-10-03T10:35:54Z</time>
      </trkpt>
      <trkpt lat="45.90473" lon="6.14058">
        <ele>453.88</ele>
        <time>2016-10-03T10:36:08Z</time>
      </trkpt>
      <trkpt lat="45.90438" lon="6.13942">
        <ele>454.36</ele>
        <time>2016-10-03T10:36:23Z</time>
      </trkpt>
      <trkpt lat="45.90437" lon="6.13934">
        <ele>454.36</ele>
        <time>2016-10-03T10:36:24Z</time>
      </trkpt>
      <trkpt lat="45.9041" lon="6.13825">
        <ele>453.88</ele>
        <time>2016-10-03T10:36:37Z</time>
      </trkpt>
      <trkpt lat="45.90387" lon="6.13728">
        <ele>453.88</ele>
        <time>2016-10-03T10:36:48Z</time>
      </trkpt>
      <trkpt lat="45.90353" lon="6.13603">
        <ele>452.44</ele>
        <time>2016-10-03T10:37:03Z</time>
      </trkpt>
      <trkpt lat="45.90334" lon="6.13533">
        <ele>453.88</ele>
        <time>2016-10-03T10:37:12Z</time>
      </trkpt>
      <trkpt lat="45.9031" lon="6.1345">
        <ele>453.4</ele>
        <time>2016-10-03T10:37:22Z</time>
      </trkpt>
      <trkpt lat="45.90275" lon="6.13333">
        <ele>453.88</ele>
        <time>2016-10-03T10:37:36Z</time>
      </trkpt>
      <trkpt lat="45.90252" lon="6.13249">
        <ele>453.88</ele>
        <time>2016-10-03T10:37:46Z</time>
      </trkpt>
      <trkpt lat="45.90246" lon="6.13234">
        <ele>454.36</ele>
        <time>2016-10-03T10:37:48Z</time>
      </trkpt>
      <trkpt lat="45.90237" lon="6.1321">
        <ele>454.36</ele>
        <time>2016-10-03T10:37:51Z</time>
      </trkpt>
      <trkpt lat="45.90225" lon="6.13136">
        <ele>454.36</ele>
        <time>2016-10-03T10:37:59Z</time>
      </trkpt>
      <trkpt lat="45.90224" lon="6.13128">
        <ele>454.36</ele>
        <time>2016-10-03T10:38:00Z</time>
      </trkpt>
      <trkpt lat="45.902" lon="6.13026">
        <ele>454.84</ele>
        <time>2016-10-03T10:38:13Z</time>
      </trkpt>
      <trkpt lat="45.90179" lon="6.1294">
        <ele>454.36</ele>
        <time>2016-10-03T10:38:26Z</time>
      </trkpt>
      <trkpt lat="45.90176" lon="6.12919">
        <ele>454.84</ele>
        <time>2016-10-03T10:38:39Z</time>
      </trkpt>
      <trkpt lat="45.90175" lon="6.12916">
        <ele>454.84</ele>
        <time>2016-10-03T10:38:57Z</time>
      </trkpt>
      <trkpt lat="45.90175" lon="6.12914">
        <ele>454.84</ele>
        <time>2016-10-03T10:38:58Z</time>
      </trkpt>
      <trkpt lat="45.90174" lon="6.12912">
        <ele>455.32</ele>
        <time>2016-10-03T10:38:59Z</time>
      </trkpt>
      <trkpt lat="45.90159" lon="6.12863">
        <ele>454.36</ele>
        <time>2016-10-03T10:39:12Z</time>
      </trkpt>
      <trkpt lat="45.90157" lon="6.12847">
        <ele>455.8</ele>
        <time>2016-10-03T10:39:24Z</time>
      </trkpt>
      <trkpt lat="45.90157" lon="6.12845">
        <ele>455.32</ele>
        <time>2016-10-03T10:39:25Z</time>
      </trkpt>
      <trkpt lat="45.90156" lon="6.12843">
        <ele>455.8</ele>
        <time>2016-10-03T10:39:26Z</time>
      </trkpt>
      <trkpt lat="45.90155" lon="6.12841">
        <ele>455.32</ele>
        <time>2016-10-03T10:39:27Z</time>
      </trkpt>
      <trkpt lat="45.90155" lon="6.12838">
        <ele>455.32</ele>
        <time>2016-10-03T10:39:28Z</time>
      </trkpt>
      <trkpt lat="45.90152" lon="6.12826">
        <ele>455.32</ele>
        <time>2016-10-03T10:39:32Z</time>
      </trkpt>
      <trkpt lat="45.90151" lon="6.12816">
        <ele>455.32</ele>
        <time>2016-10-03T10:39:35Z</time>
      </trkpt>
      <trkpt lat="45.90152" lon="6.12814">
        <ele>455.32</ele>
        <time>2016-10-03T10:39:36Z</time>
      </trkpt>
      <trkpt lat="45.90152" lon="6.12811">
        <ele>454.84</ele>
        <time>2016-10-03T10:39:37Z</time>
      </trkpt>
      <trkpt lat="45.90152" lon="6.12808">
        <ele>455.8</ele>
        <time>2016-10-03T10:39:38Z</time>
      </trkpt>
      <trkpt lat="45.90152" lon="6.12806">
        <ele>455.8</ele>
        <time>2016-10-03T10:39:39Z</time>
      </trkpt>
      <trkpt lat="45.90151" lon="6.12803">
        <ele>456.28</ele>
        <time>2016-10-03T10:39:40Z</time>
      </trkpt>
      <trkpt lat="45.90149" lon="6.128">
        <ele>455.8</ele>
        <time>2016-10-03T10:39:41Z</time>
      </trkpt>
      <trkpt lat="45.90148" lon="6.12796">
        <ele>455.8</ele>
        <time>2016-10-03T10:39:42Z</time>
      </trkpt>
      <trkpt lat="45.90148" lon="6.12793">
        <ele>456.28</ele>
        <time>2016-10-03T10:39:43Z</time>
      </trkpt>
      <trkpt lat="45.90146" lon="6.1279">
        <ele>455.8</ele>
        <time>2016-10-03T10:39:44Z</time>
      </trkpt>
      <trkpt lat="45.90145" lon="6.12787">
        <ele>455.8</ele>
        <time>2016-10-03T10:39:45Z</time>
      </trkpt>
      <trkpt lat="45.90143" lon="6.12781">
        <ele>455.8</ele>
        <time>2016-10-03T10:39:47Z</time>
      </trkpt>
      <trkpt lat="45.90143" lon="6.12779">
        <ele>455.8</ele>
        <time>2016-10-03T10:39:48Z</time>
      </trkpt>
      <trkpt lat="45.90144" lon="6.12777">
        <ele>455.8</ele>
        <time>2016-10-03T10:39:49Z</time>
      </trkpt>
      <trkpt lat="45.90143" lon="6.12774">
        <ele>455.32</ele>
        <time>2016-10-03T10:39:50Z</time>
      </trkpt>
      <trkpt lat="45.90142" lon="6.12771">
        <ele>455.32</ele>
        <time>2016-10-03T10:39:51Z</time>
      </trkpt>
      <trkpt lat="45.90141" lon="6.12767">
        <ele>455.8</ele>
        <time>2016-10-03T10:39:52Z</time>
      </trkpt>
      <trkpt lat="45.90122" lon="6.12744">
        <ele>454.84</ele>
        <time>2016-10-03T10:40:01Z</time>
      </trkpt>
      <trkpt lat="45.90115" lon="6.12728">
        <ele>454.84</ele>
        <time>2016-10-03T10:40:07Z</time>
      </trkpt>
      <trkpt lat="45.90113" lon="6.12725">
        <ele>455.32</ele>
        <time>2016-10-03T10:40:08Z</time>
      </trkpt>
      <trkpt lat="45.90106" lon="6.12693">
        <ele>454.36</ele>
        <time>2016-10-03T10:40:22Z</time>
      </trkpt>
      <trkpt lat="45.90097" lon="6.12654">
        <ele>454.36</ele>
        <time>2016-10-03T10:40:36Z</time>
      </trkpt>
      <trkpt lat="45.90083" lon="6.12614">
        <ele>455.32</ele>
        <time>2016-10-03T10:40:51Z</time>
      </trkpt>
      <trkpt lat="45.90084" lon="6.1261">
        <ele>454.84</ele>
        <time>2016-10-03T10:40:53Z</time>
      </trkpt>
      <trkpt lat="45.90084" lon="6.12608">
        <ele>455.32</ele>
        <time>2016-10-03T10:40:54Z</time>
      </trkpt>
      <trkpt lat="45.90084" lon="6.12607">
        <ele>454.84</ele>
        <time>2016-10-03T10:40:55Z</time>
      </trkpt>
      <trkpt lat="45.90084" lon="6.1258">
        <ele>455.32</ele>
        <time>2016-10-03T10:41:03Z</time>
      </trkpt>
      <trkpt lat="45.90082" lon="6.12577">
        <ele>455.32</ele>
        <time>2016-10-03T10:41:04Z</time>
      </trkpt>
      <trkpt lat="45.90057" lon="6.12522">
        <ele>455.8</ele>
        <time>2016-10-03T10:41:21Z</time>
      </trkpt>
      <trkpt lat="45.9005" lon="6.1251">
        <ele>455.32</ele>
        <time>2016-10-03T10:41:25Z</time>
      </trkpt>
      <trkpt lat="45.90048" lon="6.12508">
        <ele>455.32</ele>
        <time>2016-10-03T10:41:26Z</time>
      </trkpt>
      <trkpt lat="45.90043" lon="6.12497">
        <ele>456.28</ele>
        <time>2016-10-03T10:41:31Z</time>
      </trkpt>
      <trkpt lat="45.90043" lon="6.12492">
        <ele>456.28</ele>
        <time>2016-10-03T10:41:33Z</time>
      </trkpt>
      <trkpt lat="45.90042" lon="6.12491">
        <ele>456.28</ele>
        <time>2016-10-03T10:41:34Z</time>
      </trkpt>
      <trkpt lat="45.90041" lon="6.12491">
        <ele>456.28</ele>
        <time>2016-10-03T10:41:35Z</time>
      </trkpt>
      <trkpt lat="45.9004" lon="6.12489">
        <ele>456.28</ele>
        <time>2016-10-03T10:41:36Z</time>
      </trkpt>
      <trkpt lat="45.90037" lon="6.12489">
        <ele>456.76</ele>
        <time>2016-10-03T10:41:37Z</time>
      </trkpt>
      <trkpt lat="45.90036" lon="6.12486">
        <ele>457.24</ele>
        <time>2016-10-03T10:41:38Z</time>
      </trkpt>
      <trkpt lat="45.90033" lon="6.12486">
        <ele>457.24</ele>
        <time>2016-10-03T10:41:39Z</time>
      </trkpt>
      <trkpt lat="45.9003" lon="6.12486">
        <ele>457.24</ele>
        <time>2016-10-03T10:41:40Z</time>
      </trkpt>
      <trkpt lat="45.89996" lon="6.12481">
        <ele>456.76</ele>
        <time>2016-10-03T10:41:54Z</time>
      </trkpt>
      <trkpt lat="45.89985" lon="6.12484">
        <ele>457.24</ele>
        <time>2016-10-03T10:42:03Z</time>
      </trkpt>
      <trkpt lat="45.89983" lon="6.12484">
        <ele>457.24</ele>
        <time>2016-10-03T10:42:04Z</time>
      </trkpt>
      <trkpt lat="45.89981" lon="6.12484">
        <ele>457.24</ele>
        <time>2016-10-03T10:42:05Z</time>
      </trkpt>
      <trkpt lat="45.89979" lon="6.12484">
        <ele>457.72</ele>
        <time>2016-10-03T10:42:06Z</time>
      </trkpt>
      <trkpt lat="45.89978" lon="6.12484">
        <ele>456.76</ele>
        <time>2016-10-03T10:42:07Z</time>
      </trkpt>
      <trkpt lat="45.89966" lon="6.12485">
        <ele>456.76</ele>
        <time>2016-10-03T10:42:18Z</time>
      </trkpt>
      <trkpt lat="45.89963" lon="6.12494">
        <ele>456.76</ele>
        <time>2016-10-03T10:42:37Z</time>
      </trkpt>
      <trkpt lat="45.89959" lon="6.12496">
        <ele>456.76</ele>
        <time>2016-10-03T10:43:00Z</time>
      </trkpt>
      <trkpt lat="45.89954" lon="6.12495">
        <ele>456.28</ele>
        <time>2016-10-03T10:43:14Z</time>
      </trkpt>
      <trkpt lat="45.89956" lon="6.12499">
        <ele>456.28</ele>
        <time>2016-10-03T10:43:17Z</time>
      </trkpt>
      <trkpt lat="45.89957" lon="6.125">
        <ele>456.76</ele>
        <time>2016-10-03T10:43:18Z</time>
      </trkpt>
      <trkpt lat="45.89959" lon="6.12502">
        <ele>456.28</ele>
        <time>2016-10-03T10:43:19Z</time>
      </trkpt>
      <trkpt lat="45.8996" lon="6.12504">
        <ele>456.28</ele>
        <time>2016-10-03T10:43:20Z</time>
      </trkpt>
      <trkpt lat="45.8996" lon="6.12507">
        <ele>456.76</ele>
        <time>2016-10-03T10:43:21Z</time>
      </trkpt>
      <trkpt lat="45.89961" lon="6.12509">
        <ele>456.28</ele>
        <time>2016-10-03T10:43:22Z</time>
      </trkpt>
      <trkpt lat="45.89963" lon="6.12524">
        <ele>455.32</ele>
        <time>2016-10-03T10:43:33Z</time>
      </trkpt>
      <trkpt lat="45.89964" lon="6.12538">
        <ele>455.32</ele>
        <time>2016-10-03T10:43:42Z</time>
      </trkpt>
      <trkpt lat="45.89964" lon="6.12545">
        <ele>454.84</ele>
        <time>2016-10-03T10:43:45Z</time>
      </trkpt>
      <trkpt lat="45.89963" lon="6.12546">
        <ele>454.84</ele>
        <time>2016-10-03T10:43:46Z</time>
      </trkpt>
      <trkpt lat="45.89965" lon="6.12552">
        <ele>454.36</ele>
        <time>2016-10-03T10:43:51Z</time>
      </trkpt>
      <trkpt lat="45.89971" lon="6.12555">
        <ele>454.36</ele>
        <time>2016-10-03T10:43:54Z</time>
      </trkpt>
      <trkpt lat="45.89982" lon="6.12574">
        <ele>454.84</ele>
        <time>2016-10-03T10:44:02Z</time>
      </trkpt>
      <trkpt lat="45.89985" lon="6.12577">
        <ele>454.84</ele>
        <time>2016-10-03T10:44:03Z</time>
      </trkpt>
      <trkpt lat="45.89986" lon="6.12579">
        <ele>454.84</ele>
        <time>2016-10-03T10:44:04Z</time>
      </trkpt>
      <trkpt lat="45.89988" lon="6.12579">
        <ele>454.84</ele>
        <time>2016-10-03T10:44:05Z</time>
      </trkpt>
      <trkpt lat="45.89989" lon="6.12581">
        <ele>454.84</ele>
        <time>2016-10-03T10:44:06Z</time>
      </trkpt>
      <trkpt lat="45.8999" lon="6.12582">
        <ele>455.32</ele>
        <time>2016-10-03T10:44:07Z</time>
      </trkpt>
      <trkpt lat="45.89992" lon="6.12583">
        <ele>454.84</ele>
        <time>2016-10-03T10:44:08Z</time>
      </trkpt>
      <trkpt lat="45.90014" lon="6.12583">
        <ele>455.8</ele>
        <time>2016-10-03T10:44:20Z</time>
      </trkpt>
      <trkpt lat="45.90025" lon="6.12598">
        <ele>454.84</ele>
        <time>2016-10-03T10:44:30Z</time>
      </trkpt>
      <trkpt lat="45.90026" lon="6.126">
        <ele>454.84</ele>
        <time>2016-10-03T10:44:31Z</time>
      </trkpt>
      <trkpt lat="45.90032" lon="6.12609">
        <ele>454.36</ele>
        <time>2016-10-03T10:44:36Z</time>
      </trkpt>
      <trkpt lat="45.90032" lon="6.12611">
        <ele>454.36</ele>
        <time>2016-10-03T10:44:37Z</time>
      </trkpt>
      <trkpt lat="45.90033" lon="6.12613">
        <ele>454.84</ele>
        <time>2016-10-03T10:44:38Z</time>
      </trkpt>
      <trkpt lat="45.90034" lon="6.12616">
        <ele>454.36</ele>
        <time>2016-10-03T10:44:40Z</time>
      </trkpt>
      <trkpt lat="45.90033" lon="6.12619">
        <ele>454.36</ele>
        <time>2016-10-03T10:44:42Z</time>
      </trkpt>
      <trkpt lat="45.90033" lon="6.12621">
        <ele>454.84</ele>
        <time>2016-10-03T10:44:43Z</time>
      </trkpt>
      <trkpt lat="45.90033" lon="6.12654">
        <ele>454.84</ele>
        <time>2016-10-03T10:44:54Z</time>
      </trkpt>
      <trkpt lat="45.90035" lon="6.12658">
        <ele>454.84</ele>
        <time>2016-10-03T10:44:56Z</time>
      </trkpt>
      <trkpt lat="45.90036" lon="6.12663">
        <ele>455.32</ele>
        <time>2016-10-03T10:45:00Z</time>
      </trkpt>
      <trkpt lat="45.90035" lon="6.12665">
        <ele>455.32</ele>
        <time>2016-10-03T10:45:01Z</time>
      </trkpt>
      <trkpt lat="45.90033" lon="6.12668">
        <ele>455.32</ele>
        <time>2016-10-03T10:45:02Z</time>
      </trkpt>
      <trkpt lat="45.90031" lon="6.1267">
        <ele>455.8</ele>
        <time>2016-10-03T10:45:03Z</time>
      </trkpt>
      <trkpt lat="45.90029" lon="6.1267">
        <ele>454.36</ele>
        <time>2016-10-03T10:45:04Z</time>
      </trkpt>
      <trkpt lat="45.90028" lon="6.12669">
        <ele>455.32</ele>
        <time>2016-10-03T10:45:05Z</time>
      </trkpt>
      <trkpt lat="45.90026" lon="6.12668">
        <ele>454.84</ele>
        <time>2016-10-03T10:45:06Z</time>
      </trkpt>
      <trkpt lat="45.90024" lon="6.12667">
        <ele>455.32</ele>
        <time>2016-10-03T10:45:07Z</time>
      </trkpt>
      <trkpt lat="45.89995" lon="6.12661">
        <ele>454.36</ele>
        <time>2016-10-03T10:45:17Z</time>
      </trkpt>
      <trkpt lat="45.89969" lon="6.12676">
        <ele>454.36</ele>
        <time>2016-10-03T10:45:26Z</time>
      </trkpt>
      <trkpt lat="45.89965" lon="6.12678">
        <ele>454.36</ele>
        <time>2016-10-03T10:45:27Z</time>
      </trkpt>
      <trkpt lat="45.89961" lon="6.12679">
        <ele>453.88</ele>
        <time>2016-10-03T10:45:28Z</time>
      </trkpt>
      <trkpt lat="45.89946" lon="6.12686">
        <ele>453.88</ele>
        <time>2016-10-03T10:45:34Z</time>
      </trkpt>
      <trkpt lat="45.89941" lon="6.12683">
        <ele>454.36</ele>
        <time>2016-10-03T10:45:36Z</time>
      </trkpt>
      <trkpt lat="45.89937" lon="6.12682">
        <ele>453.88</ele>
        <time>2016-10-03T10:45:37Z</time>
      </trkpt>
      <trkpt lat="45.89933" lon="6.12681">
        <ele>453.88</ele>
        <time>2016-10-03T10:45:38Z</time>
      </trkpt>
      <trkpt lat="45.8993" lon="6.12679">
        <ele>454.36</ele>
        <time>2016-10-03T10:45:39Z</time>
      </trkpt>
      <trkpt lat="45.89926" lon="6.12678">
        <ele>453.88</ele>
        <time>2016-10-03T10:45:40Z</time>
      </trkpt>
      <trkpt lat="45.89912" lon="6.12679">
        <ele>453.88</ele>
        <time>2016-10-03T10:45:49Z</time>
      </trkpt>
      <trkpt lat="45.89911" lon="6.12676">
        <ele>452.92</ele>
        <time>2016-10-03T10:45:53Z</time>
      </trkpt>
      <trkpt lat="45.89914" lon="6.12658">
        <ele>452.92</ele>
        <time>2016-10-03T10:46:03Z</time>
      </trkpt>
      <trkpt lat="45.89912" lon="6.12659">
        <ele>453.4</ele>
        <time>2016-10-03T10:46:06Z</time>
      </trkpt>
      <trkpt lat="45.89912" lon="6.12657">
        <ele>453.4</ele>
        <time>2016-10-03T10:46:07Z</time>
      </trkpt>
      <trkpt lat="45.89911" lon="6.1265">
        <ele>453.88</ele>
        <time>2016-10-03T10:46:12Z</time>
      </trkpt>
      <trkpt lat="45.89912" lon="6.12649">
        <ele>453.88</ele>
        <time>2016-10-03T10:46:13Z</time>
      </trkpt>
      <trkpt lat="45.89916" lon="6.12649">
        <ele>453.88</ele>
        <time>2016-10-03T10:46:24Z</time>
      </trkpt>
      <trkpt lat="45.89919" lon="6.12648">
        <ele>453.88</ele>
        <time>2016-10-03T10:46:47Z</time>
      </trkpt>
      <trkpt lat="45.89926" lon="6.12652">
        <ele>454.36</ele>
        <time>2016-10-03T10:47:16Z</time>
      </trkpt>
      <trkpt lat="45.89921" lon="6.12644">
        <ele>453.88</ele>
        <time>2016-10-03T10:47:45Z</time>
      </trkpt>
      <trkpt lat="45.89911" lon="6.12662">
        <ele>453.88</ele>
        <time>2016-10-03T10:48:09Z</time>
      </trkpt>
      <trkpt lat="45.89916" lon="6.12673">
        <ele>453.88</ele>
        <time>2016-10-03T10:48:20Z</time>
      </trkpt>
      <trkpt lat="45.89909" lon="6.12693">
        <ele>454.36</ele>
        <time>2016-10-03T10:48:44Z</time>
      </trkpt>
      <trkpt lat="45.8992" lon="6.12666">
        <ele>454.84</ele>
        <time>2016-10-03T10:49:13Z</time>
      </trkpt>
      <trkpt lat="45.89922" lon="6.1264">
        <ele>454.84</ele>
        <time>2016-10-03T10:49:44Z</time>
      </trkpt>
      <trkpt lat="45.8992" lon="6.1263">
        <ele>455.32</ele>
        <time>2016-10-03T10:50:16Z</time>
      </trkpt>
      <trkpt lat="45.89916" lon="6.12641">
        <ele>454.84</ele>
        <time>2016-10-03T10:50:44Z</time>
      </trkpt>
      <trkpt lat="45.89913" lon="6.12646">
        <ele>454.36</ele>
        <time>2016-10-03T10:50:48Z</time>
      </trkpt>
      <trkpt lat="45.89898" lon="6.12685">
        <ele>454.36</ele>
        <time>2016-10-03T10:51:11Z</time>
      </trkpt>
      <trkpt lat="45.89898" lon="6.12675">
        <ele>454.84</ele>
        <time>2016-10-03T10:51:38Z</time>
      </trkpt>
      <trkpt lat="45.89904" lon="6.12664">
        <ele>455.32</ele>
        <time>2016-10-03T10:52:00Z</time>
      </trkpt>
      <trkpt lat="45.89906" lon="6.12664">
        <ele>454.84</ele>
        <time>2016-10-03T10:52:01Z</time>
      </trkpt>
      <trkpt lat="45.89907" lon="6.12662">
        <ele>454.84</ele>
        <time>2016-10-03T10:52:02Z</time>
      </trkpt>
      <trkpt lat="45.89908" lon="6.12662">
        <ele>454.84</ele>
        <time>2016-10-03T10:52:03Z</time>
      </trkpt>
      <trkpt lat="45.89909" lon="6.12663">
        <ele>454.84</ele>
        <time>2016-10-03T10:52:04Z</time>
      </trkpt>
      <trkpt lat="45.8991" lon="6.12672">
        <ele>454.36</ele>
        <time>2016-10-03T10:52:07Z</time>
      </trkpt>
      <trkpt lat="45.89908" lon="6.12678">
        <ele>454.84</ele>
        <time>2016-10-03T10:52:11Z</time>
      </trkpt>
      <trkpt lat="45.89906" lon="6.12712">
        <ele>454.36</ele>
        <time>2016-10-03T10:52:22Z</time>
      </trkpt>
      <trkpt lat="45.89905" lon="6.12721">
        <ele>454.84</ele>
        <time>2016-10-03T10:52:25Z</time>
      </trkpt>
      <trkpt lat="45.89905" lon="6.12723">
        <ele>454.84</ele>
        <time>2016-10-03T10:52:26Z</time>
      </trkpt>
      <trkpt lat="45.89905" lon="6.12725">
        <ele>454.84</ele>
        <time>2016-10-03T10:52:27Z</time>
      </trkpt>
      <trkpt lat="45.89905" lon="6.12727">
        <ele>455.32</ele>
        <time>2016-10-03T10:52:28Z</time>
      </trkpt>
      <trkpt lat="45.89905" lon="6.12729">
        <ele>455.32</ele>
        <time>2016-10-03T10:52:29Z</time>
      </trkpt>
      <trkpt lat="45.89902" lon="6.12742">
        <ele>455.8</ele>
        <time>2016-10-03T10:52:39Z</time>
      </trkpt>
      <trkpt lat="45.899" lon="6.1275">
        <ele>455.32</ele>
        <time>2016-10-03T10:52:53Z</time>
      </trkpt>
      <trkpt lat="45.89897" lon="6.1275">
        <ele>455.32</ele>
        <time>2016-10-03T10:52:54Z</time>
      </trkpt>
      <trkpt lat="45.89896" lon="6.1275">
        <ele>455.8</ele>
        <time>2016-10-03T10:52:55Z</time>
      </trkpt>
      <trkpt lat="45.89862" lon="6.12762">
        <ele>455.32</ele>
        <time>2016-10-03T10:53:05Z</time>
      </trkpt>
      <trkpt lat="45.89848" lon="6.12771">
        <ele>456.28</ele>
        <time>2016-10-03T10:53:16Z</time>
      </trkpt>
      <trkpt lat="45.89846" lon="6.1277">
        <ele>455.8</ele>
        <time>2016-10-03T10:53:18Z</time>
      </trkpt>
      <trkpt lat="45.89846" lon="6.12766">
        <ele>456.76</ele>
        <time>2016-10-03T10:53:36Z</time>
      </trkpt>
      <trkpt lat="45.8984" lon="6.12776">
        <ele>456.76</ele>
        <time>2016-10-03T10:53:52Z</time>
      </trkpt>
      <trkpt lat="45.89842" lon="6.12782">
        <ele>456.76</ele>
        <time>2016-10-03T10:54:06Z</time>
      </trkpt>
      <trkpt lat="45.8985" lon="6.128">
        <ele>456.28</ele>
        <time>2016-10-03T10:54:21Z</time>
      </trkpt>
      <trkpt lat="45.89856" lon="6.12805">
        <ele>456.76</ele>
        <time>2016-10-03T10:54:32Z</time>
      </trkpt>
      <trkpt lat="45.89866" lon="6.12806">
        <ele>456.76</ele>
        <time>2016-10-03T10:55:00Z</time>
      </trkpt>
      <trkpt lat="45.89869" lon="6.12806">
        <ele>457.24</ele>
        <time>2016-10-03T10:55:20Z</time>
      </trkpt>
      <trkpt lat="45.8987" lon="6.12805">
        <ele>456.28</ele>
        <time>2016-10-03T10:55:32Z</time>
      </trkpt>
      <trkpt lat="45.8987" lon="6.12803">
        <ele>457.72</ele>
        <time>2016-10-03T10:55:48Z</time>
      </trkpt>
      <trkpt lat="45.89871" lon="6.12804">
        <ele>459.17</ele>
        <time>2016-10-03T10:56:00Z</time>
      </trkpt>
      <trkpt lat="45.89869" lon="6.12804">
        <ele>455.8</ele>
        <time>2016-10-03T10:56:02Z</time>
      </trkpt>
      <trkpt lat="45.89867" lon="6.12801">
        <ele>455.8</ele>
        <time>2016-10-03T10:56:14Z</time>
      </trkpt>
      <trkpt lat="45.88685" lon="6.14314">
        <ele>459.65</ele>
        <time>2016-10-03T11:36:48Z</time>
      </trkpt>
      <trkpt lat="45.88586" lon="6.14267">
        <ele>456.28</ele>
        <time>2016-10-03T11:37:06Z</time>
      </trkpt>
      <trkpt lat="45.88553" lon="6.1425">
        <ele>457.72</ele>
        <time>2016-10-03T11:37:12Z</time>
      </trkpt>
      <trkpt lat="45.88542" lon="6.14245">
        <ele>452.92</ele>
        <time>2016-10-03T11:37:14Z</time>
      </trkpt>
      <trkpt lat="45.88536" lon="6.14242">
        <ele>454.36</ele>
        <time>2016-10-03T11:37:15Z</time>
      </trkpt>
      <trkpt lat="45.88444" lon="6.1422">
        <ele>452.92</ele>
        <time>2016-10-03T11:37:30Z</time>
      </trkpt>
      <trkpt lat="45.88356" lon="6.14209">
        <ele>452.92</ele>
        <time>2016-10-03T11:37:44Z</time>
      </trkpt>
      <trkpt lat="45.88315" lon="6.142">
        <ele>452.44</ele>
        <time>2016-10-03T11:37:51Z</time>
      </trkpt>
      <trkpt lat="45.88251" lon="6.14195">
        <ele>454.36</ele>
        <time>2016-10-03T11:38:03Z</time>
      </trkpt>
      <trkpt lat="45.88192" lon="6.14194">
        <ele>457.72</ele>
        <time>2016-10-03T11:38:20Z</time>
      </trkpt>
      <trkpt lat="45.88132" lon="6.14193">
        <ele>459.65</ele>
        <time>2016-10-03T11:38:38Z</time>
      </trkpt>
      <trkpt lat="45.88093" lon="6.14223">
        <ele>458.69</ele>
        <time>2016-10-03T11:38:49Z</time>
      </trkpt>
      <trkpt lat="45.88081" lon="6.14231">
        <ele>458.69</ele>
        <time>2016-10-03T11:38:52Z</time>
      </trkpt>
      <trkpt lat="45.88073" lon="6.14236">
        <ele>458.69</ele>
        <time>2016-10-03T11:38:54Z</time>
      </trkpt>
      <trkpt lat="45.88003" lon="6.1426">
        <ele>458.69</ele>
        <time>2016-10-03T11:39:08Z</time>
      </trkpt>
      <trkpt lat="45.87927" lon="6.14261">
        <ele>458.21</ele>
        <time>2016-10-03T11:39:22Z</time>
      </trkpt>
      <trkpt lat="45.87903" lon="6.14258">
        <ele>457.72</ele>
        <time>2016-10-03T11:39:27Z</time>
      </trkpt>
      <trkpt lat="45.87816" lon="6.14261">
        <ele>457.72</ele>
        <time>2016-10-03T11:39:42Z</time>
      </trkpt>
      <trkpt lat="45.87737" lon="6.14285">
        <ele>456.76</ele>
        <time>2016-10-03T11:39:54Z</time>
      </trkpt>
      <trkpt lat="45.87612" lon="6.14304">
        <ele>455.32</ele>
        <time>2016-10-03T11:40:12Z</time>
      </trkpt>
      <trkpt lat="45.87495" lon="6.14301">
        <ele>454.36</ele>
        <time>2016-10-03T11:40:29Z</time>
      </trkpt>
      <trkpt lat="45.87414" lon="6.1432">
        <ele>456.76</ele>
        <time>2016-10-03T11:40:41Z</time>
      </trkpt>
      <trkpt lat="45.87374" lon="6.14335">
        <ele>455.32</ele>
        <time>2016-10-03T11:40:47Z</time>
      </trkpt>
      <trkpt lat="45.8727" lon="6.14375">
        <ele>455.8</ele>
        <time>2016-10-03T11:41:03Z</time>
      </trkpt>
      <trkpt lat="45.87167" lon="6.14382">
        <ele>455.8</ele>
        <time>2016-10-03T11:41:18Z</time>
      </trkpt>
      <trkpt lat="45.87048" lon="6.14338">
        <ele>455.8</ele>
        <time>2016-10-03T11:41:36Z</time>
      </trkpt>
      <trkpt lat="45.86949" lon="6.1428">
        <ele>454.84</ele>
        <time>2016-10-03T11:41:51Z</time>
      </trkpt>
      <trkpt lat="45.86849" lon="6.14262">
        <ele>453.88</ele>
        <time>2016-10-03T11:42:05Z</time>
      </trkpt>
      <trkpt lat="45.86748" lon="6.14302">
        <ele>454.36</ele>
        <time>2016-10-03T11:42:20Z</time>
      </trkpt>
      <trkpt lat="45.86637" lon="6.14371">
        <ele>454.36</ele>
        <time>2016-10-03T11:42:37Z</time>
      </trkpt>
      <trkpt lat="45.86551" lon="6.14383">
        <ele>453.4</ele>
        <time>2016-10-03T11:42:49Z</time>
      </trkpt>
      <trkpt lat="45.8641" lon="6.14381">
        <ele>453.88</ele>
        <time>2016-10-03T11:43:09Z</time>
      </trkpt>
      <trkpt lat="45.86282" lon="6.14363">
        <ele>453.88</ele>
        <time>2016-10-03T11:43:27Z</time>
      </trkpt>
      <trkpt lat="45.86235" lon="6.14337">
        <ele>453.88</ele>
        <time>2016-10-03T11:43:34Z</time>
      </trkpt>
      <trkpt lat="45.86229" lon="6.14331">
        <ele>452.92</ele>
        <time>2016-10-03T11:43:35Z</time>
      </trkpt>
      <trkpt lat="45.862" lon="6.14298">
        <ele>453.4</ele>
        <time>2016-10-03T11:43:40Z</time>
      </trkpt>
      <trkpt lat="45.86194" lon="6.14293">
        <ele>453.4</ele>
        <time>2016-10-03T11:43:41Z</time>
      </trkpt>
      <trkpt lat="45.86187" lon="6.1429">
        <ele>453.88</ele>
        <time>2016-10-03T11:43:42Z</time>
      </trkpt>
      <trkpt lat="45.86052" lon="6.14235">
        <ele>453.4</ele>
        <time>2016-10-03T11:44:02Z</time>
      </trkpt>
      <trkpt lat="45.8599" lon="6.1423">
        <ele>454.36</ele>
        <time>2016-10-03T11:44:11Z</time>
      </trkpt>
      <trkpt lat="45.85984" lon="6.14233">
        <ele>453.88</ele>
        <time>2016-10-03T11:44:12Z</time>
      </trkpt>
      <trkpt lat="45.85978" lon="6.14237">
        <ele>454.36</ele>
        <time>2016-10-03T11:44:13Z</time>
      </trkpt>
      <trkpt lat="45.85972" lon="6.14241">
        <ele>453.88</ele>
        <time>2016-10-03T11:44:14Z</time>
      </trkpt>
      <trkpt lat="45.85966" lon="6.14247">
        <ele>453.88</ele>
        <time>2016-10-03T11:44:15Z</time>
      </trkpt>
      <trkpt lat="45.85962" lon="6.14253">
        <ele>454.36</ele>
        <time>2016-10-03T11:44:16Z</time>
      </trkpt>
      <trkpt lat="45.85958" lon="6.1426">
        <ele>453.4</ele>
        <time>2016-10-03T11:44:17Z</time>
      </trkpt>
      <trkpt lat="45.85954" lon="6.14267">
        <ele>453.4</ele>
        <time>2016-10-03T11:44:18Z</time>
      </trkpt>
      <trkpt lat="45.8595" lon="6.14275">
        <ele>452.92</ele>
        <time>2016-10-03T11:44:19Z</time>
      </trkpt>
      <trkpt lat="45.85947" lon="6.1428">
        <ele>453.4</ele>
        <time>2016-10-03T11:44:20Z</time>
      </trkpt>
      <trkpt lat="45.85944" lon="6.14284">
        <ele>453.4</ele>
        <time>2016-10-03T11:44:21Z</time>
      </trkpt>
      <trkpt lat="45.85938" lon="6.14289">
        <ele>452.92</ele>
        <time>2016-10-03T11:44:24Z</time>
      </trkpt>
      <trkpt lat="45.85937" lon="6.14288">
        <ele>452.92</ele>
        <time>2016-10-03T11:44:25Z</time>
      </trkpt>
      <trkpt lat="45.85936" lon="6.14287">
        <ele>452.92</ele>
        <time>2016-10-03T11:44:26Z</time>
      </trkpt>
      <trkpt lat="45.85934" lon="6.14287">
        <ele>452.92</ele>
        <time>2016-10-03T11:44:27Z</time>
      </trkpt>
      <trkpt lat="45.85932" lon="6.14287">
        <ele>453.4</ele>
        <time>2016-10-03T11:44:28Z</time>
      </trkpt>
      <trkpt lat="45.8593" lon="6.14288">
        <ele>453.4</ele>
        <time>2016-10-03T11:44:29Z</time>
      </trkpt>
      <trkpt lat="45.85928" lon="6.14289">
        <ele>453.4</ele>
        <time>2016-10-03T11:44:30Z</time>
      </trkpt>
      <trkpt lat="45.85926" lon="6.14291">
        <ele>453.4</ele>
        <time>2016-10-03T11:44:31Z</time>
      </trkpt>
      <trkpt lat="45.85924" lon="6.14291">
        <ele>453.4</ele>
        <time>2016-10-03T11:44:32Z</time>
      </trkpt>
      <trkpt lat="45.85921" lon="6.14291">
        <ele>452.92</ele>
        <time>2016-10-03T11:44:33Z</time>
      </trkpt>
      <trkpt lat="45.85919" lon="6.14291">
        <ele>453.4</ele>
        <time>2016-10-03T11:44:34Z</time>
      </trkpt>
      <trkpt lat="45.85916" lon="6.14292">
        <ele>453.88</ele>
        <time>2016-10-03T11:44:35Z</time>
      </trkpt>
      <trkpt lat="45.85913" lon="6.14293">
        <ele>453.4</ele>
        <time>2016-10-03T11:44:36Z</time>
      </trkpt>
      <trkpt lat="45.8591" lon="6.14295">
        <ele>452.92</ele>
        <time>2016-10-03T11:44:37Z</time>
      </trkpt>
      <trkpt lat="45.85907" lon="6.14295">
        <ele>453.4</ele>
        <time>2016-10-03T11:44:38Z</time>
      </trkpt>
      <trkpt lat="45.85903" lon="6.14296">
        <ele>453.88</ele>
        <time>2016-10-03T11:44:39Z</time>
      </trkpt>
      <trkpt lat="45.85899" lon="6.14297">
        <ele>453.4</ele>
        <time>2016-10-03T11:44:40Z</time>
      </trkpt>
      <trkpt lat="45.85895" lon="6.14298">
        <ele>453.4</ele>
        <time>2016-10-03T11:44:41Z</time>
      </trkpt>
      <trkpt lat="45.85857" lon="6.14319">
        <ele>453.88</ele>
        <time>2016-10-03T11:44:49Z</time>
      </trkpt>
      <trkpt lat="45.85852" lon="6.14323">
        <ele>453.4</ele>
        <time>2016-10-03T11:44:50Z</time>
      </trkpt>
      <trkpt lat="45.85827" lon="6.14341">
        <ele>453.4</ele>
        <time>2016-10-03T11:44:55Z</time>
      </trkpt>
      <trkpt lat="45.85767" lon="6.14429">
        <ele>455.8</ele>
        <time>2016-10-03T11:45:10Z</time>
      </trkpt>
      <trkpt lat="45.85723" lon="6.14508">
        <ele>455.32</ele>
        <time>2016-10-03T11:45:22Z</time>
      </trkpt>
      <trkpt lat="45.85654" lon="6.14583">
        <ele>455.8</ele>
        <time>2016-10-03T11:45:37Z</time>
      </trkpt>
      <trkpt lat="45.85569" lon="6.1463">
        <ele>456.28</ele>
        <time>2016-10-03T11:45:52Z</time>
      </trkpt>
      <trkpt lat="45.85469" lon="6.14636">
        <ele>453.88</ele>
        <time>2016-10-03T11:46:06Z</time>
      </trkpt>
      <trkpt lat="45.85452" lon="6.14638">
        <ele>452.92</ele>
        <time>2016-10-03T11:46:08Z</time>
      </trkpt>
      <trkpt lat="45.85366" lon="6.14674">
        <ele>453.88</ele>
        <time>2016-10-03T11:46:20Z</time>
      </trkpt>
      <trkpt lat="45.85259" lon="6.1477">
        <ele>454.36</ele>
        <time>2016-10-03T11:46:37Z</time>
      </trkpt>
      <trkpt lat="45.85172" lon="6.1485">
        <ele>455.32</ele>
        <time>2016-10-03T11:46:52Z</time>
      </trkpt>
      <trkpt lat="45.85082" lon="6.14923">
        <ele>456.28</ele>
        <time>2016-10-03T11:47:08Z</time>
      </trkpt>
      <trkpt lat="45.84956" lon="6.15008">
        <ele>455.8</ele>
        <time>2016-10-03T11:47:28Z</time>
      </trkpt>
      <trkpt lat="45.84815" lon="6.151">
        <ele>456.28</ele>
        <time>2016-10-03T11:47:50Z</time>
      </trkpt>
      <trkpt lat="45.84694" lon="6.15178">
        <ele>455.8</ele>
        <time>2016-10-03T11:48:09Z</time>
      </trkpt>
      <trkpt lat="45.84576" lon="6.15258">
        <ele>456.76</ele>
        <time>2016-10-03T11:48:28Z</time>
      </trkpt>
      <trkpt lat="45.84463" lon="6.15368">
        <ele>456.76</ele>
        <time>2016-10-03T11:48:49Z</time>
      </trkpt>
      <trkpt lat="45.84394" lon="6.15475">
        <ele>457.24</ele>
        <time>2016-10-03T11:49:06Z</time>
      </trkpt>
      <trkpt lat="45.84342" lon="6.15578">
        <ele>457.72</ele>
        <time>2016-10-03T11:49:20Z</time>
      </trkpt>
      <trkpt lat="45.84333" lon="6.156">
        <ele>457.72</ele>
        <time>2016-10-03T11:49:23Z</time>
      </trkpt>
      <trkpt lat="45.84329" lon="6.15608">
        <ele>458.69</ele>
        <time>2016-10-03T11:49:24Z</time>
      </trkpt>
      <trkpt lat="45.84325" lon="6.15615">
        <ele>457.72</ele>
        <time>2016-10-03T11:49:25Z</time>
      </trkpt>
      <trkpt lat="45.84276" lon="6.15734">
        <ele>458.21</ele>
        <time>2016-10-03T11:49:40Z</time>
      </trkpt>
      <trkpt lat="45.84209" lon="6.15878">
        <ele>458.21</ele>
        <time>2016-10-03T11:49:59Z</time>
      </trkpt>
      <trkpt lat="45.84193" lon="6.15908">
        <ele>458.69</ele>
        <time>2016-10-03T11:50:04Z</time>
      </trkpt>
      <trkpt lat="45.84179" lon="6.15926">
        <ele>458.69</ele>
        <time>2016-10-03T11:50:08Z</time>
      </trkpt>
      <trkpt lat="45.84177" lon="6.15929">
        <ele>458.21</ele>
        <time>2016-10-03T11:50:09Z</time>
      </trkpt>
      <trkpt lat="45.84175" lon="6.15931">
        <ele>458.21</ele>
        <time>2016-10-03T11:50:10Z</time>
      </trkpt>
      <trkpt lat="45.84172" lon="6.15937">
        <ele>457.72</ele>
        <time>2016-10-03T11:50:21Z</time>
      </trkpt>
      <trkpt lat="45.84172" lon="6.15944">
        <ele>458.21</ele>
        <time>2016-10-03T11:50:53Z</time>
      </trkpt>
      <trkpt lat="45.84172" lon="6.15941">
        <ele>458.21</ele>
        <time>2016-10-03T11:51:42Z</time>
      </trkpt>
      <trkpt lat="45.84173" lon="6.15944">
        <ele>457.24</ele>
        <time>2016-10-03T11:52:13Z</time>
      </trkpt>
      <trkpt lat="45.8417" lon="6.15948">
        <ele>457.72</ele>
        <time>2016-10-03T11:52:51Z</time>
      </trkpt>
      <trkpt lat="45.84171" lon="6.15945">
        <ele>457.24</ele>
        <time>2016-10-03T11:53:45Z</time>
      </trkpt>
      <trkpt lat="45.84171" lon="6.15952">
        <ele>457.72</ele>
        <time>2016-10-03T11:54:26Z</time>
      </trkpt>
      <trkpt lat="45.84176" lon="6.15951">
        <ele>457.72</ele>
        <time>2016-10-03T11:55:12Z</time>
      </trkpt>
      <trkpt lat="45.84176" lon="6.15952">
        <ele>456.76</ele>
        <time>2016-10-03T11:55:45Z</time>
      </trkpt>
      <trkpt lat="45.84178" lon="6.15951">
        <ele>457.24</ele>
        <time>2016-10-03T11:56:23Z</time>
      </trkpt>
      <trkpt lat="45.84178" lon="6.15949">
        <ele>457.24</ele>
        <time>2016-10-03T11:56:54Z</time>
      </trkpt>
      <trkpt lat="45.84173" lon="6.15944">
        <ele>456.76</ele>
        <time>2016-10-03T11:57:27Z</time>
      </trkpt>
      <trkpt lat="45.84175" lon="6.15944">
        <ele>457.24</ele>
        <time>2016-10-03T11:57:52Z</time>
      </trkpt>
      <trkpt lat="45.84174" lon="6.15949">
        <ele>457.72</ele>
        <time>2016-10-03T11:58:19Z</time>
      </trkpt>
      <trkpt lat="45.84173" lon="6.15948">
        <ele>457.24</ele>
        <time>2016-10-03T11:58:47Z</time>
      </trkpt>
      <trkpt lat="45.84173" lon="6.15948">
        <ele>458.21</ele>
        <time>2016-10-03T11:59:22Z</time>
      </trkpt>
      <trkpt lat="45.84172" lon="6.1595">
        <ele>457.72</ele>
        <time>2016-10-03T11:59:40Z</time>
      </trkpt>
      <trkpt lat="45.84158" lon="6.15963">
        <ele>458.21</ele>
        <time>2016-10-03T11:59:58Z</time>
      </trkpt>
      <trkpt lat="45.84121" lon="6.16">
        <ele>459.17</ele>
        <time>2016-10-03T12:00:11Z</time>
      </trkpt>
      <trkpt lat="45.8405" lon="6.16063">
        <ele>459.17</ele>
        <time>2016-10-03T12:00:30Z</time>
      </trkpt>
      <trkpt lat="45.83968" lon="6.16115">
        <ele>460.61</ele>
        <time>2016-10-03T12:00:50Z</time>
      </trkpt>
      <trkpt lat="45.83888" lon="6.16166">
        <ele>461.09</ele>
        <time>2016-10-03T12:01:08Z</time>
      </trkpt>
      <trkpt lat="45.83808" lon="6.16216">
        <ele>462.53</ele>
        <time>2016-10-03T12:01:26Z</time>
      </trkpt>
      <trkpt lat="45.83739" lon="6.16263">
        <ele>463.01</ele>
        <time>2016-10-03T12:01:42Z</time>
      </trkpt>
      <trkpt lat="45.8366" lon="6.16338">
        <ele>464.45</ele>
        <time>2016-10-03T12:02:01Z</time>
      </trkpt>
      <trkpt lat="45.83596" lon="6.16426">
        <ele>464.93</ele>
        <time>2016-10-03T12:02:19Z</time>
      </trkpt>
      <trkpt lat="45.83539" lon="6.16539">
        <ele>465.42</ele>
        <time>2016-10-03T12:02:38Z</time>
      </trkpt>
      <trkpt lat="45.83512" lon="6.16593">
        <ele>464.93</ele>
        <time>2016-10-03T12:02:50Z</time>
      </trkpt>
      <trkpt lat="45.83503" lon="6.16611">
        <ele>464.93</ele>
        <time>2016-10-03T12:03:01Z</time>
      </trkpt>
      <trkpt lat="45.83502" lon="6.16612">
        <ele>464.93</ele>
        <time>2016-10-03T12:03:02Z</time>
      </trkpt>
      <trkpt lat="45.83501" lon="6.16615">
        <ele>464.93</ele>
        <time>2016-10-03T12:03:03Z</time>
      </trkpt>
      <trkpt lat="45.83476" lon="6.16665">
        <ele>465.42</ele>
        <time>2016-10-03T12:03:14Z</time>
      </trkpt>
      <trkpt lat="45.83434" lon="6.16753">
        <ele>465.9</ele>
        <time>2016-10-03T12:03:28Z</time>
      </trkpt>
      <trkpt lat="45.83382" lon="6.16865">
        <ele>465.42</ele>
        <time>2016-10-03T12:03:44Z</time>
      </trkpt>
      <trkpt lat="45.83378" lon="6.16872">
        <ele>465.42</ele>
        <time>2016-10-03T12:03:45Z</time>
      </trkpt>
      <trkpt lat="45.83375" lon="6.16878">
        <ele>465.42</ele>
        <time>2016-10-03T12:03:46Z</time>
      </trkpt>
      <trkpt lat="45.83318" lon="6.17">
        <ele>464.45</ele>
        <time>2016-10-03T12:04:03Z</time>
      </trkpt>
      <trkpt lat="45.83256" lon="6.17136">
        <ele>464.45</ele>
        <time>2016-10-03T12:04:22Z</time>
      </trkpt>
      <trkpt lat="45.83242" lon="6.17171">
        <ele>462.53</ele>
        <time>2016-10-03T12:04:26Z</time>
      </trkpt>
      <trkpt lat="45.8324" lon="6.17181">
        <ele>463.01</ele>
        <time>2016-10-03T12:04:27Z</time>
      </trkpt>
      <trkpt lat="45.83238" lon="6.17191">
        <ele>462.05</ele>
        <time>2016-10-03T12:04:28Z</time>
      </trkpt>
      <trkpt lat="45.83237" lon="6.17202">
        <ele>462.05</ele>
        <time>2016-10-03T12:04:29Z</time>
      </trkpt>
      <trkpt lat="45.83236" lon="6.17214">
        <ele>461.57</ele>
        <time>2016-10-03T12:04:30Z</time>
      </trkpt>
      <trkpt lat="45.83236" lon="6.17225">
        <ele>461.09</ele>
        <time>2016-10-03T12:04:31Z</time>
      </trkpt>
      <trkpt lat="45.83235" lon="6.17237">
        <ele>461.09</ele>
        <time>2016-10-03T12:04:32Z</time>
      </trkpt>
      <trkpt lat="45.83228" lon="6.17271">
        <ele>460.61</ele>
        <time>2016-10-03T12:04:35Z</time>
      </trkpt>
      <trkpt lat="45.83223" lon="6.1728">
        <ele>460.61</ele>
        <time>2016-10-03T12:04:36Z</time>
      </trkpt>
      <trkpt lat="45.83217" lon="6.17285">
        <ele>460.61</ele>
        <time>2016-10-03T12:04:37Z</time>
      </trkpt>
      <trkpt lat="45.83211" lon="6.17287">
        <ele>460.13</ele>
        <time>2016-10-03T12:04:38Z</time>
      </trkpt>
      <trkpt lat="45.83204" lon="6.17288">
        <ele>461.09</ele>
        <time>2016-10-03T12:04:39Z</time>
      </trkpt>
      <trkpt lat="45.83197" lon="6.1729">
        <ele>461.09</ele>
        <time>2016-10-03T12:04:40Z</time>
      </trkpt>
      <trkpt lat="45.8319" lon="6.17294">
        <ele>460.61</ele>
        <time>2016-10-03T12:04:41Z</time>
      </trkpt>
      <trkpt lat="45.83184" lon="6.17301">
        <ele>460.61</ele>
        <time>2016-10-03T12:04:42Z</time>
      </trkpt>
      <trkpt lat="45.8318" lon="6.17308">
        <ele>460.61</ele>
        <time>2016-10-03T12:04:43Z</time>
      </trkpt>
      <trkpt lat="45.83176" lon="6.17315">
        <ele>461.09</ele>
        <time>2016-10-03T12:04:44Z</time>
      </trkpt>
      <trkpt lat="45.83148" lon="6.17368">
        <ele>463.49</ele>
        <time>2016-10-03T12:04:53Z</time>
      </trkpt>
      <trkpt lat="45.83146" lon="6.17373">
        <ele>463.97</ele>
        <time>2016-10-03T12:04:54Z</time>
      </trkpt>
      <trkpt lat="45.83101" lon="6.17468">
        <ele>463.01</ele>
        <time>2016-10-03T12:05:09Z</time>
      </trkpt>
      <trkpt lat="45.83066" lon="6.17541">
        <ele>461.57</ele>
        <time>2016-10-03T12:05:19Z</time>
      </trkpt>
      <trkpt lat="45.83025" lon="6.17625">
        <ele>462.53</ele>
        <time>2016-10-03T12:05:30Z</time>
      </trkpt>
      <trkpt lat="45.82955" lon="6.17775">
        <ele>460.61</ele>
        <time>2016-10-03T12:05:48Z</time>
      </trkpt>
      <trkpt lat="45.82921" lon="6.17898">
        <ele>460.61</ele>
        <time>2016-10-03T12:06:01Z</time>
      </trkpt>
      <trkpt lat="45.82883" lon="6.18084">
        <ele>460.61</ele>
        <time>2016-10-03T12:06:20Z</time>
      </trkpt>
      <trkpt lat="45.82848" lon="6.18233">
        <ele>461.57</ele>
        <time>2016-10-03T12:06:36Z</time>
      </trkpt>
      <trkpt lat="45.82817" lon="6.18381">
        <ele>461.09</ele>
        <time>2016-10-03T12:06:52Z</time>
      </trkpt>
      <trkpt lat="45.82781" lon="6.18538">
        <ele>461.09</ele>
        <time>2016-10-03T12:07:10Z</time>
      </trkpt>
      <trkpt lat="45.8275" lon="6.18685">
        <ele>462.05</ele>
        <time>2016-10-03T12:07:27Z</time>
      </trkpt>
      <trkpt lat="45.82717" lon="6.18837">
        <ele>462.05</ele>
        <time>2016-10-03T12:07:45Z</time>
      </trkpt>
      <trkpt lat="45.82684" lon="6.18992">
        <ele>460.13</ele>
        <time>2016-10-03T12:08:01Z</time>
      </trkpt>
      <trkpt lat="45.8263" lon="6.19163">
        <ele>458.21</ele>
        <time>2016-10-03T12:08:19Z</time>
      </trkpt>
      <trkpt lat="45.82582" lon="6.19319">
        <ele>460.13</ele>
        <time>2016-10-03T12:08:36Z</time>
      </trkpt>
      <trkpt lat="45.82561" lon="6.19479">
        <ele>459.17</ele>
        <time>2016-10-03T12:08:54Z</time>
      </trkpt>
      <trkpt lat="45.82567" lon="6.19612">
        <ele>459.17</ele>
        <time>2016-10-03T12:09:09Z</time>
      </trkpt>
      <trkpt lat="45.82568" lon="6.19619">
        <ele>459.65</ele>
        <time>2016-10-03T12:09:10Z</time>
      </trkpt>
      <trkpt lat="45.82569" lon="6.19624">
        <ele>458.69</ele>
        <time>2016-10-03T12:09:11Z</time>
      </trkpt>
      <trkpt lat="45.8257" lon="6.19629">
        <ele>458.69</ele>
        <time>2016-10-03T12:09:12Z</time>
      </trkpt>
      <trkpt lat="45.8257" lon="6.19632">
        <ele>459.17</ele>
        <time>2016-10-03T12:09:13Z</time>
      </trkpt>
      <trkpt lat="45.82569" lon="6.19635">
        <ele>458.69</ele>
        <time>2016-10-03T12:09:14Z</time>
      </trkpt>
      <trkpt lat="45.82572" lon="6.19652">
        <ele>459.17</ele>
        <time>2016-10-03T12:09:20Z</time>
      </trkpt>
      <trkpt lat="45.82572" lon="6.19655">
        <ele>458.69</ele>
        <time>2016-10-03T12:09:21Z</time>
      </trkpt>
      <trkpt lat="45.82573" lon="6.19658">
        <ele>458.69</ele>
        <time>2016-10-03T12:09:22Z</time>
      </trkpt>
      <trkpt lat="45.82585" lon="6.19733">
        <ele>457.72</ele>
        <time>2016-10-03T12:09:34Z</time>
      </trkpt>
      <trkpt lat="45.82612" lon="6.19892">
        <ele>456.28</ele>
        <time>2016-10-03T12:09:53Z</time>
      </trkpt>
      <trkpt lat="45.82638" lon="6.20061">
        <ele>456.28</ele>
        <time>2016-10-03T12:10:12Z</time>
      </trkpt>
      <trkpt lat="45.82658" lon="6.20193">
        <ele>456.28</ele>
        <time>2016-10-03T12:10:27Z</time>
      </trkpt>
      <trkpt lat="45.82686" lon="6.20363">
        <ele>456.76</ele>
        <time>2016-10-03T12:10:46Z</time>
      </trkpt>
      <trkpt lat="45.82687" lon="6.20371">
        <ele>456.76</ele>
        <time>2016-10-03T12:10:47Z</time>
      </trkpt>
      <trkpt lat="45.8269" lon="6.20405">
        <ele>456.76</ele>
        <time>2016-10-03T12:10:52Z</time>
      </trkpt>
      <trkpt lat="45.82691" lon="6.20418">
        <ele>457.24</ele>
        <time>2016-10-03T12:10:54Z</time>
      </trkpt>
      <trkpt lat="45.82691" lon="6.20424">
        <ele>457.72</ele>
        <time>2016-10-03T12:10:55Z</time>
      </trkpt>
      <trkpt lat="45.82692" lon="6.2043">
        <ele>457.72</ele>
        <time>2016-10-03T12:10:56Z</time>
      </trkpt>
      <trkpt lat="45.82693" lon="6.20435">
        <ele>458.21</ele>
        <time>2016-10-03T12:10:57Z</time>
      </trkpt>
      <trkpt lat="45.82694" lon="6.2044">
        <ele>458.21</ele>
        <time>2016-10-03T12:10:58Z</time>
      </trkpt>
      <trkpt lat="45.82695" lon="6.20444">
        <ele>459.17</ele>
        <time>2016-10-03T12:10:59Z</time>
      </trkpt>
      <trkpt lat="45.82645" lon="6.20683">
        <ele>460.61</ele>
        <time>2016-10-03T12:11:31Z</time>
      </trkpt>
      <trkpt lat="45.82624" lon="6.20704">
        <ele>461.09</ele>
        <time>2016-10-03T12:11:35Z</time>
      </trkpt>
      <trkpt lat="45.82595" lon="6.20734">
        <ele>462.05</ele>
        <time>2016-10-03T12:11:42Z</time>
      </trkpt>
      <trkpt lat="45.82591" lon="6.20739">
        <ele>461.09</ele>
        <time>2016-10-03T12:11:43Z</time>
      </trkpt>
      <trkpt lat="45.82545" lon="6.20801">
        <ele>461.09</ele>
        <time>2016-10-03T12:11:57Z</time>
      </trkpt>
      <trkpt lat="45.82461" lon="6.20836">
        <ele>461.57</ele>
        <time>2016-10-03T12:12:15Z</time>
      </trkpt>
      <trkpt lat="45.82398" lon="6.20835">
        <ele>462.05</ele>
        <time>2016-10-03T12:12:27Z</time>
      </trkpt>
      <trkpt lat="45.82314" lon="6.20803">
        <ele>463.97</ele>
        <time>2016-10-03T12:12:44Z</time>
      </trkpt>
      <trkpt lat="45.82242" lon="6.20735">
        <ele>464.45</ele>
        <time>2016-10-03T12:13:01Z</time>
      </trkpt>
      <trkpt lat="45.82157" lon="6.20654">
        <ele>464.45</ele>
        <time>2016-10-03T12:13:19Z</time>
      </trkpt>
      <trkpt lat="45.82087" lon="6.20621">
        <ele>465.9</ele>
        <time>2016-10-03T12:13:31Z</time>
      </trkpt>
      <trkpt lat="45.82073" lon="6.20618">
        <ele>465.42</ele>
        <time>2016-10-03T12:13:33Z</time>
      </trkpt>
      <trkpt lat="45.81967" lon="6.2063">
        <ele>464.93</ele>
        <time>2016-10-03T12:13:49Z</time>
      </trkpt>
      <trkpt lat="45.81873" lon="6.20674">
        <ele>464.45</ele>
        <time>2016-10-03T12:14:04Z</time>
      </trkpt>
      <trkpt lat="45.81775" lon="6.20707">
        <ele>464.45</ele>
        <time>2016-10-03T12:14:20Z</time>
      </trkpt>
      <trkpt lat="45.81674" lon="6.20731">
        <ele>465.42</ele>
        <time>2016-10-03T12:14:37Z</time>
      </trkpt>
      <trkpt lat="45.81563" lon="6.20758">
        <ele>464.93</ele>
        <time>2016-10-03T12:14:57Z</time>
      </trkpt>
      <trkpt lat="45.81456" lon="6.20781">
        <ele>466.38</ele>
        <time>2016-10-03T12:15:16Z</time>
      </trkpt>
      <trkpt lat="45.81365" lon="6.20803">
        <ele>465.42</ele>
        <time>2016-10-03T12:15:33Z</time>
      </trkpt>
      <trkpt lat="45.8129" lon="6.20819">
        <ele>467.34</ele>
        <time>2016-10-03T12:15:47Z</time>
      </trkpt>
      <trkpt lat="45.8128" lon="6.20821">
        <ele>467.34</ele>
        <time>2016-10-03T12:15:49Z</time>
      </trkpt>
      <trkpt lat="45.81196" lon="6.20847">
        <ele>467.34</ele>
        <time>2016-10-03T12:16:04Z</time>
      </trkpt>
      <trkpt lat="45.81169" lon="6.20856">
        <ele>467.82</ele>
        <time>2016-10-03T12:16:09Z</time>
      </trkpt>
      <trkpt lat="45.81163" lon="6.20858">
        <ele>467.34</ele>
        <time>2016-10-03T12:16:10Z</time>
      </trkpt>
      <trkpt lat="45.81082" lon="6.20887">
        <ele>468.3</ele>
        <time>2016-10-03T12:16:25Z</time>
      </trkpt>
      <trkpt lat="45.80994" lon="6.2092">
        <ele>468.78</ele>
        <time>2016-10-03T12:16:41Z</time>
      </trkpt>
      <trkpt lat="45.80952" lon="6.20939">
        <ele>468.78</ele>
        <time>2016-10-03T12:16:52Z</time>
      </trkpt>
      <trkpt lat="45.80947" lon="6.20949">
        <ele>469.26</ele>
        <time>2016-10-03T12:16:56Z</time>
      </trkpt>
      <trkpt lat="45.80945" lon="6.20949">
        <ele>469.26</ele>
        <time>2016-10-03T12:16:57Z</time>
      </trkpt>
      <trkpt lat="45.80908" lon="6.20948">
        <ele>469.26</ele>
        <time>2016-10-03T12:17:08Z</time>
      </trkpt>
      <trkpt lat="45.80904" lon="6.20949">
        <ele>469.26</ele>
        <time>2016-10-03T12:17:09Z</time>
      </trkpt>
      <trkpt lat="45.80812" lon="6.20984">
        <ele>470.22</ele>
        <time>2016-10-03T12:17:29Z</time>
      </trkpt>
      <trkpt lat="45.80763" lon="6.21003">
        <ele>470.7</ele>
        <time>2016-10-03T12:17:39Z</time>
      </trkpt>
      <trkpt lat="45.8069" lon="6.21026">
        <ele>470.22</ele>
        <time>2016-10-03T12:17:53Z</time>
      </trkpt>
      <trkpt lat="45.80614" lon="6.21054">
        <ele>469.26</ele>
        <time>2016-10-03T12:18:07Z</time>
      </trkpt>
      <trkpt lat="45.8052" lon="6.21087">
        <ele>468.3</ele>
        <time>2016-10-03T12:18:24Z</time>
      </trkpt>
      <trkpt lat="45.80445" lon="6.21114">
        <ele>468.3</ele>
        <time>2016-10-03T12:18:38Z</time>
      </trkpt>
      <trkpt lat="45.80377" lon="6.21132">
        <ele>466.86</ele>
        <time>2016-10-03T12:18:51Z</time>
      </trkpt>
      <trkpt lat="45.80325" lon="6.21141">
        <ele>466.86</ele>
        <time>2016-10-03T12:19:00Z</time>
      </trkpt>
      <trkpt lat="45.80245" lon="6.21142">
        <ele>465.9</ele>
        <time>2016-10-03T12:19:13Z</time>
      </trkpt>
      <trkpt lat="45.80172" lon="6.21147">
        <ele>464.93</ele>
        <time>2016-10-03T12:19:25Z</time>
      </trkpt>
      <trkpt lat="45.80054" lon="6.21154">
        <ele>462.53</ele>
        <time>2016-10-03T12:19:44Z</time>
      </trkpt>
      <trkpt lat="45.79957" lon="6.21156">
        <ele>461.09</ele>
        <time>2016-10-03T12:19:59Z</time>
      </trkpt>
      <trkpt lat="45.79827" lon="6.2116">
        <ele>460.13</ele>
        <time>2016-10-03T12:20:18Z</time>
      </trkpt>
      <trkpt lat="45.79664" lon="6.21164">
        <ele>458.21</ele>
        <time>2016-10-03T12:20:41Z</time>
      </trkpt>
      <trkpt lat="45.79545" lon="6.21168">
        <ele>458.21</ele>
        <time>2016-10-03T12:20:59Z</time>
      </trkpt>
      <trkpt lat="45.7952" lon="6.21168">
        <ele>457.72</ele>
        <time>2016-10-03T12:21:06Z</time>
      </trkpt>
      <trkpt lat="45.79499" lon="6.21169">
        <ele>457.72</ele>
        <time>2016-10-03T12:21:12Z</time>
      </trkpt>
      <trkpt lat="45.79428" lon="6.21176">
        <ele>457.72</ele>
        <time>2016-10-03T12:21:27Z</time>
      </trkpt>
      <trkpt lat="45.79342" lon="6.21201">
        <ele>456.28</ele>
        <time>2016-10-03T12:21:43Z</time>
      </trkpt>
      <trkpt lat="45.79321" lon="6.21209">
        <ele>456.28</ele>
        <time>2016-10-03T12:21:47Z</time>
      </trkpt>
      <trkpt lat="45.79242" lon="6.21255">
        <ele>455.32</ele>
        <time>2016-10-03T12:22:01Z</time>
      </trkpt>
      <trkpt lat="45.79166" lon="6.21317">
        <ele>454.84</ele>
        <time>2016-10-03T12:22:15Z</time>
      </trkpt>
      <trkpt lat="45.79161" lon="6.21321">
        <ele>453.88</ele>
        <time>2016-10-03T12:22:16Z</time>
      </trkpt>
      <trkpt lat="45.79145" lon="6.21332">
        <ele>454.36</ele>
        <time>2016-10-03T12:22:24Z</time>
      </trkpt>
      <trkpt lat="45.79139" lon="6.21339">
        <ele>454.84</ele>
        <time>2016-10-03T12:22:33Z</time>
      </trkpt>
      <trkpt lat="45.79138" lon="6.2134">
        <ele>453.88</ele>
        <time>2016-10-03T12:22:34Z</time>
      </trkpt>
      <trkpt lat="45.79136" lon="6.2134">
        <ele>454.84</ele>
        <time>2016-10-03T12:22:35Z</time>
      </trkpt>
      <trkpt lat="45.79134" lon="6.21342">
        <ele>454.84</ele>
        <time>2016-10-03T12:22:36Z</time>
      </trkpt>
      <trkpt lat="45.79133" lon="6.21344">
        <ele>454.84</ele>
        <time>2016-10-03T12:22:37Z</time>
      </trkpt>
      <trkpt lat="45.7913" lon="6.21347">
        <ele>454.36</ele>
        <time>2016-10-03T12:22:38Z</time>
      </trkpt>
      <trkpt lat="45.79089" lon="6.21388">
        <ele>455.32</ele>
        <time>2016-10-03T12:22:51Z</time>
      </trkpt>
      <trkpt lat="45.79029" lon="6.21445">
        <ele>455.32</ele>
        <time>2016-10-03T12:23:06Z</time>
      </trkpt>
      <trkpt lat="45.79025" lon="6.21449">
        <ele>455.32</ele>
        <time>2016-10-03T12:23:07Z</time>
      </trkpt>
      <trkpt lat="45.78989" lon="6.21481">
        <ele>456.28</ele>
        <time>2016-10-03T12:23:16Z</time>
      </trkpt>
      <trkpt lat="45.78986" lon="6.21485">
        <ele>455.8</ele>
        <time>2016-10-03T12:23:17Z</time>
      </trkpt>
      <trkpt lat="45.78982" lon="6.21489">
        <ele>456.28</ele>
        <time>2016-10-03T12:23:18Z</time>
      </trkpt>
      <trkpt lat="45.78974" lon="6.21497">
        <ele>455.8</ele>
        <time>2016-10-03T12:23:20Z</time>
      </trkpt>
      <trkpt lat="45.78902" lon="6.21563">
        <ele>456.76</ele>
        <time>2016-10-03T12:23:38Z</time>
      </trkpt>
      <trkpt lat="45.78847" lon="6.2162">
        <ele>458.69</ele>
        <time>2016-10-03T12:23:53Z</time>
      </trkpt>
      <trkpt lat="45.78783" lon="6.21691">
        <ele>459.65</ele>
        <time>2016-10-03T12:24:11Z</time>
      </trkpt>
      <trkpt lat="45.78714" lon="6.21789">
        <ele>460.61</ele>
        <time>2016-10-03T12:24:32Z</time>
      </trkpt>
      <trkpt lat="45.78664" lon="6.21874">
        <ele>461.57</ele>
        <time>2016-10-03T12:24:50Z</time>
      </trkpt>
      <trkpt lat="45.78613" lon="6.21979">
        <ele>462.53</ele>
        <time>2016-10-03T12:25:11Z</time>
      </trkpt>
      <trkpt lat="45.78561" lon="6.2209">
        <ele>463.49</ele>
        <time>2016-10-03T12:25:34Z</time>
      </trkpt>
      <trkpt lat="45.78519" lon="6.22186">
        <ele>464.45</ele>
        <time>2016-10-03T12:25:53Z</time>
      </trkpt>
      <trkpt lat="45.78466" lon="6.22294">
        <ele>465.9</ele>
        <time>2016-10-03T12:26:15Z</time>
      </trkpt>
      <trkpt lat="45.78406" lon="6.22398">
        <ele>466.86</ele>
        <time>2016-10-03T12:26:37Z</time>
      </trkpt>
      <trkpt lat="45.78374" lon="6.22445">
        <ele>467.82</ele>
        <time>2016-10-03T12:26:52Z</time>
      </trkpt>
      <trkpt lat="45.78366" lon="6.22456">
        <ele>468.3</ele>
        <time>2016-10-03T12:26:57Z</time>
      </trkpt>
      <trkpt lat="45.78365" lon="6.22458">
        <ele>467.82</ele>
        <time>2016-10-03T12:26:58Z</time>
      </trkpt>
      <trkpt lat="45.78343" lon="6.22486">
        <ele>467.82</ele>
        <time>2016-10-03T12:27:09Z</time>
      </trkpt>
      <trkpt lat="45.78298" lon="6.22544">
        <ele>468.3</ele>
        <time>2016-10-03T12:27:24Z</time>
      </trkpt>
      <trkpt lat="45.7822" lon="6.22648">
        <ele>468.78</ele>
        <time>2016-10-03T12:27:46Z</time>
      </trkpt>
      <trkpt lat="45.78145" lon="6.22743">
        <ele>469.74</ele>
        <time>2016-10-03T12:28:05Z</time>
      </trkpt>
      <trkpt lat="45.7809" lon="6.22814">
        <ele>468.3</ele>
        <time>2016-10-03T12:28:22Z</time>
      </trkpt>
      <trkpt lat="45.78083" lon="6.22826">
        <ele>469.26</ele>
        <time>2016-10-03T12:28:28Z</time>
      </trkpt>
      <trkpt lat="45.78081" lon="6.22828">
        <ele>468.3</ele>
        <time>2016-10-03T12:28:29Z</time>
      </trkpt>
      <trkpt lat="45.78078" lon="6.22829">
        <ele>468.78</ele>
        <time>2016-10-03T12:28:30Z</time>
      </trkpt>
      <trkpt lat="45.78075" lon="6.22831">
        <ele>468.3</ele>
        <time>2016-10-03T12:28:31Z</time>
      </trkpt>
      <trkpt lat="45.78072" lon="6.22831">
        <ele>468.3</ele>
        <time>2016-10-03T12:28:32Z</time>
      </trkpt>
      <trkpt lat="45.78069" lon="6.2283">
        <ele>468.78</ele>
        <time>2016-10-03T12:28:33Z</time>
      </trkpt>
      <trkpt lat="45.78065" lon="6.22828">
        <ele>468.78</ele>
        <time>2016-10-03T12:28:34Z</time>
      </trkpt>
      <trkpt lat="45.78062" lon="6.22827">
        <ele>469.26</ele>
        <time>2016-10-03T12:28:35Z</time>
      </trkpt>
      <trkpt lat="45.78058" lon="6.22825">
        <ele>468.78</ele>
        <time>2016-10-03T12:28:36Z</time>
      </trkpt>
      <trkpt lat="45.78054" lon="6.22824">
        <ele>468.78</ele>
        <time>2016-10-03T12:28:37Z</time>
      </trkpt>
      <trkpt lat="45.78051" lon="6.22823">
        <ele>468.78</ele>
        <time>2016-10-03T12:28:38Z</time>
      </trkpt>
      <trkpt lat="45.78047" lon="6.22823">
        <ele>469.26</ele>
        <time>2016-10-03T12:28:39Z</time>
      </trkpt>
      <trkpt lat="45.78043" lon="6.22823">
        <ele>469.74</ele>
        <time>2016-10-03T12:28:40Z</time>
      </trkpt>
      <trkpt lat="45.7803" lon="6.22826">
        <ele>468.78</ele>
        <time>2016-10-03T12:28:43Z</time>
      </trkpt>
      <trkpt lat="45.78026" lon="6.22828">
        <ele>468.78</ele>
        <time>2016-10-03T12:28:44Z</time>
      </trkpt>
      <trkpt lat="45.78021" lon="6.22831">
        <ele>468.78</ele>
        <time>2016-10-03T12:28:45Z</time>
      </trkpt>
      <trkpt lat="45.78017" lon="6.22835">
        <ele>468.78</ele>
        <time>2016-10-03T12:28:46Z</time>
      </trkpt>
      <trkpt lat="45.78013" lon="6.22839">
        <ele>468.78</ele>
        <time>2016-10-03T12:28:47Z</time>
      </trkpt>
      <trkpt lat="45.77947" lon="6.22921">
        <ele>469.74</ele>
        <time>2016-10-03T12:29:04Z</time>
      </trkpt>
      <trkpt lat="45.77866" lon="6.23028">
        <ele>469.74</ele>
        <time>2016-10-03T12:29:24Z</time>
      </trkpt>
      <trkpt lat="45.77828" lon="6.23081">
        <ele>468.3</ele>
        <time>2016-10-03T12:29:33Z</time>
      </trkpt>
      <trkpt lat="45.77825" lon="6.23088">
        <ele>468.3</ele>
        <time>2016-10-03T12:29:34Z</time>
      </trkpt>
      <trkpt lat="45.77823" lon="6.23095">
        <ele>468.78</ele>
        <time>2016-10-03T12:29:35Z</time>
      </trkpt>
      <trkpt lat="45.77818" lon="6.2311">
        <ele>468.3</ele>
        <time>2016-10-03T12:29:37Z</time>
      </trkpt>
      <trkpt lat="45.77815" lon="6.23117">
        <ele>468.78</ele>
        <time>2016-10-03T12:29:38Z</time>
      </trkpt>
      <trkpt lat="45.77763" lon="6.23211">
        <ele>469.26</ele>
        <time>2016-10-03T12:29:53Z</time>
      </trkpt>
      <trkpt lat="45.77761" lon="6.23217">
        <ele>469.26</ele>
        <time>2016-10-03T12:29:54Z</time>
      </trkpt>
      <trkpt lat="45.7776" lon="6.23223">
        <ele>469.26</ele>
        <time>2016-10-03T12:29:55Z</time>
      </trkpt>
      <trkpt lat="45.7776" lon="6.2323">
        <ele>469.26</ele>
        <time>2016-10-03T12:29:56Z</time>
      </trkpt>
      <trkpt lat="45.77761" lon="6.23236">
        <ele>468.78</ele>
        <time>2016-10-03T12:29:57Z</time>
      </trkpt>
      <trkpt lat="45.77762" lon="6.23241">
        <ele>468.78</ele>
        <time>2016-10-03T12:29:58Z</time>
      </trkpt>
      <trkpt lat="45.77762" lon="6.23245">
        <ele>469.26</ele>
        <time>2016-10-03T12:29:59Z</time>
      </trkpt>
      <trkpt lat="45.77761" lon="6.23247">
        <ele>469.74</ele>
        <time>2016-10-03T12:30:00Z</time>
      </trkpt>
      <trkpt lat="45.7776" lon="6.23248">
        <ele>469.74</ele>
        <time>2016-10-03T12:30:01Z</time>
      </trkpt>
      <trkpt lat="45.77759" lon="6.23249">
        <ele>469.26</ele>
        <time>2016-10-03T12:30:02Z</time>
      </trkpt>
      <trkpt lat="45.77758" lon="6.23251">
        <ele>469.26</ele>
        <time>2016-10-03T12:30:03Z</time>
      </trkpt>
      <trkpt lat="45.77757" lon="6.23253">
        <ele>468.3</ele>
        <time>2016-10-03T12:30:04Z</time>
      </trkpt>
      <trkpt lat="45.77755" lon="6.23256">
        <ele>468.3</ele>
        <time>2016-10-03T12:30:05Z</time>
      </trkpt>
      <trkpt lat="45.77754" lon="6.23259">
        <ele>469.26</ele>
        <time>2016-10-03T12:30:06Z</time>
      </trkpt>
      <trkpt lat="45.77752" lon="6.23261">
        <ele>469.26</ele>
        <time>2016-10-03T12:30:07Z</time>
      </trkpt>
      <trkpt lat="45.7775" lon="6.23262">
        <ele>468.78</ele>
        <time>2016-10-03T12:30:08Z</time>
      </trkpt>
      <trkpt lat="45.77749" lon="6.23264">
        <ele>468.78</ele>
        <time>2016-10-03T12:30:09Z</time>
      </trkpt>
      <trkpt lat="45.77747" lon="6.23266">
        <ele>468.78</ele>
        <time>2016-10-03T12:30:10Z</time>
      </trkpt>
      <trkpt lat="45.77745" lon="6.23268">
        <ele>468.78</ele>
        <time>2016-10-03T12:30:11Z</time>
      </trkpt>
      <trkpt lat="45.77743" lon="6.23269">
        <ele>468.78</ele>
        <time>2016-10-03T12:30:21Z</time>
      </trkpt>
      <trkpt lat="45.77739" lon="6.23268">
        <ele>469.26</ele>
        <time>2016-10-03T12:30:51Z</time>
      </trkpt>
      <trkpt lat="45.77742" lon="6.23269">
        <ele>469.26</ele>
        <time>2016-10-03T12:31:17Z</time>
      </trkpt>
      <trkpt lat="45.77745" lon="6.2327">
        <ele>469.26</ele>
        <time>2016-10-03T12:31:46Z</time>
      </trkpt>
      <trkpt lat="45.77746" lon="6.2327">
        <ele>469.26</ele>
        <time>2016-10-03T12:32:16Z</time>
      </trkpt>
      <trkpt lat="45.77746" lon="6.2327">
        <ele>465.42</ele>
        <time>2016-10-03T12:32:18Z</time>
      </trkpt>
      <trkpt lat="45.77746" lon="6.2327">
        <ele>470.22</ele>
        <time>2016-10-03T12:32:19Z</time>
      </trkpt>
      <trkpt lat="45.77746" lon="6.2327">
        <ele>468.78</ele>
        <time>2016-10-03T12:32:44Z</time>
      </trkpt>
      <trkpt lat="45.77743" lon="6.2327">
        <ele>469.26</ele>
        <time>2016-10-03T12:33:10Z</time>
      </trkpt>
      <trkpt lat="45.7774" lon="6.23277">
        <ele>468.78</ele>
        <time>2016-10-03T12:33:33Z</time>
      </trkpt>
      <trkpt lat="45.77704" lon="6.23322">
        <ele>468.78</ele>
        <time>2016-10-03T12:33:49Z</time>
      </trkpt>
      <trkpt lat="45.77658" lon="6.23381">
        <ele>468.78</ele>
        <time>2016-10-03T12:34:04Z</time>
      </trkpt>
      <trkpt lat="45.77645" lon="6.23399">
        <ele>468.3</ele>
        <time>2016-10-03T12:34:08Z</time>
      </trkpt>
      <trkpt lat="45.77573" lon="6.23494">
        <ele>468.78</ele>
        <time>2016-10-03T12:34:27Z</time>
      </trkpt>
      <trkpt lat="45.77498" lon="6.2359">
        <ele>468.3</ele>
        <time>2016-10-03T12:34:46Z</time>
      </trkpt>
      <trkpt lat="45.77463" lon="6.23638">
        <ele>469.26</ele>
        <time>2016-10-03T12:34:55Z</time>
      </trkpt>
      <trkpt lat="45.7738" lon="6.23746">
        <ele>469.26</ele>
        <time>2016-10-03T12:35:15Z</time>
      </trkpt>
      <trkpt lat="45.77288" lon="6.23867">
        <ele>468.3</ele>
        <time>2016-10-03T12:35:36Z</time>
      </trkpt>
      <trkpt lat="45.77208" lon="6.23969">
        <ele>468.78</ele>
        <time>2016-10-03T12:35:54Z</time>
      </trkpt>
      <trkpt lat="45.77132" lon="6.24069">
        <ele>468.78</ele>
        <time>2016-10-03T12:36:11Z</time>
      </trkpt>
      <trkpt lat="45.77043" lon="6.24184">
        <ele>469.74</ele>
        <time>2016-10-03T12:36:31Z</time>
      </trkpt>
      <trkpt lat="45.76969" lon="6.24279">
        <ele>470.7</ele>
        <time>2016-10-03T12:36:50Z</time>
      </trkpt>
      <trkpt lat="45.76919" lon="6.24348">
        <ele>471.18</ele>
        <time>2016-10-03T12:37:04Z</time>
      </trkpt>
      <trkpt lat="45.76916" lon="6.24354">
        <ele>471.66</ele>
        <time>2016-10-03T12:37:05Z</time>
      </trkpt>
      <trkpt lat="45.76838" lon="6.24453">
        <ele>473.11</ele>
        <time>2016-10-03T12:37:26Z</time>
      </trkpt>
      <trkpt lat="45.76774" lon="6.24536">
        <ele>474.07</ele>
        <time>2016-10-03T12:37:45Z</time>
      </trkpt>
      <trkpt lat="45.76698" lon="6.24635">
        <ele>475.51</ele>
        <time>2016-10-03T12:38:07Z</time>
      </trkpt>
      <trkpt lat="45.76626" lon="6.24743">
        <ele>476.95</ele>
        <time>2016-10-03T12:38:29Z</time>
      </trkpt>
      <trkpt lat="45.76568" lon="6.24849">
        <ele>477.91</ele>
        <time>2016-10-03T12:38:49Z</time>
      </trkpt>
      <trkpt lat="45.76508" lon="6.24958">
        <ele>479.35</ele>
        <time>2016-10-03T12:39:09Z</time>
      </trkpt>
      <trkpt lat="45.76456" lon="6.25057">
        <ele>479.84</ele>
        <time>2016-10-03T12:39:27Z</time>
      </trkpt>
      <trkpt lat="45.76386" lon="6.25185">
        <ele>480.8</ele>
        <time>2016-10-03T12:39:50Z</time>
      </trkpt>
      <trkpt lat="45.76315" lon="6.25336">
        <ele>481.76</ele>
        <time>2016-10-03T12:40:14Z</time>
      </trkpt>
      <trkpt lat="45.76277" lon="6.2549">
        <ele>483.68</ele>
        <time>2016-10-03T12:40:35Z</time>
      </trkpt>
      <trkpt lat="45.76264" lon="6.2552">
        <ele>483.68</ele>
        <time>2016-10-03T12:40:40Z</time>
      </trkpt>
      <trkpt lat="45.76261" lon="6.25524">
        <ele>482.72</ele>
        <time>2016-10-03T12:40:41Z</time>
      </trkpt>
      <trkpt lat="45.76258" lon="6.25526">
        <ele>483.2</ele>
        <time>2016-10-03T12:40:42Z</time>
      </trkpt>
      <trkpt lat="45.76255" lon="6.25527">
        <ele>482.72</ele>
        <time>2016-10-03T12:40:43Z</time>
      </trkpt>
      <trkpt lat="45.76253" lon="6.25529">
        <ele>483.68</ele>
        <time>2016-10-03T12:40:44Z</time>
      </trkpt>
      <trkpt lat="45.76251" lon="6.25531">
        <ele>483.68</ele>
        <time>2016-10-03T12:40:45Z</time>
      </trkpt>
      <trkpt lat="45.76249" lon="6.25534">
        <ele>482.72</ele>
        <time>2016-10-03T12:40:46Z</time>
      </trkpt>
      <trkpt lat="45.76248" lon="6.25538">
        <ele>482.72</ele>
        <time>2016-10-03T12:40:47Z</time>
      </trkpt>
      <trkpt lat="45.76246" lon="6.2554">
        <ele>482.72</ele>
        <time>2016-10-03T12:40:48Z</time>
      </trkpt>
      <trkpt lat="45.76244" lon="6.2554">
        <ele>483.2</ele>
        <time>2016-10-03T12:40:49Z</time>
      </trkpt>
      <trkpt lat="45.76241" lon="6.2554">
        <ele>482.72</ele>
        <time>2016-10-03T12:40:50Z</time>
      </trkpt>
      <trkpt lat="45.76234" lon="6.2554">
        <ele>482.24</ele>
        <time>2016-10-03T12:40:52Z</time>
      </trkpt>
      <trkpt lat="45.76231" lon="6.25542">
        <ele>482.24</ele>
        <time>2016-10-03T12:40:53Z</time>
      </trkpt>
      <trkpt lat="45.76219" lon="6.25551">
        <ele>481.76</ele>
        <time>2016-10-03T12:40:56Z</time>
      </trkpt>
      <trkpt lat="45.76217" lon="6.25557">
        <ele>481.76</ele>
        <time>2016-10-03T12:40:57Z</time>
      </trkpt>
      <trkpt lat="45.76216" lon="6.25565">
        <ele>481.76</ele>
        <time>2016-10-03T12:40:58Z</time>
      </trkpt>
      <trkpt lat="45.76217" lon="6.25573">
        <ele>481.28</ele>
        <time>2016-10-03T12:40:59Z</time>
      </trkpt>
      <trkpt lat="45.7622" lon="6.2558">
        <ele>481.28</ele>
        <time>2016-10-03T12:41:00Z</time>
      </trkpt>
      <trkpt lat="45.76224" lon="6.25588">
        <ele>480.32</ele>
        <time>2016-10-03T12:41:01Z</time>
      </trkpt>
      <trkpt lat="45.76228" lon="6.25595">
        <ele>479.35</ele>
        <time>2016-10-03T12:41:02Z</time>
      </trkpt>
      <trkpt lat="45.76232" lon="6.25602">
        <ele>479.35</ele>
        <time>2016-10-03T12:41:03Z</time>
      </trkpt>
      <trkpt lat="45.7626" lon="6.25655">
        <ele>479.35</ele>
        <time>2016-10-03T12:41:10Z</time>
      </trkpt>
      <trkpt lat="45.76262" lon="6.25661">
        <ele>479.35</ele>
        <time>2016-10-03T12:41:11Z</time>
      </trkpt>
      <trkpt lat="45.76263" lon="6.25667">
        <ele>480.32</ele>
        <time>2016-10-03T12:41:12Z</time>
      </trkpt>
      <trkpt lat="45.76269" lon="6.25735">
        <ele>483.68</ele>
        <time>2016-10-03T12:41:26Z</time>
      </trkpt>
      <trkpt lat="45.76272" lon="6.25817">
        <ele>484.64</ele>
        <time>2016-10-03T12:41:41Z</time>
      </trkpt>
      <trkpt lat="45.76275" lon="6.25945">
        <ele>484.16</ele>
        <time>2016-10-03T12:42:00Z</time>
      </trkpt>
      <trkpt lat="45.76276" lon="6.2609">
        <ele>484.64</ele>
        <time>2016-10-03T12:42:19Z</time>
      </trkpt>
      <trkpt lat="45.7626" lon="6.26223">
        <ele>484.16</ele>
        <time>2016-10-03T12:42:36Z</time>
      </trkpt>
      <trkpt lat="45.76239" lon="6.26351">
        <ele>483.68</ele>
        <time>2016-10-03T12:42:52Z</time>
      </trkpt>
      <trkpt lat="45.76209" lon="6.26491">
        <ele>484.16</ele>
        <time>2016-10-03T12:43:09Z</time>
      </trkpt>
      <trkpt lat="45.76183" lon="6.26623">
        <ele>484.64</ele>
        <time>2016-10-03T12:43:25Z</time>
      </trkpt>
      <trkpt lat="45.76153" lon="6.26762">
        <ele>485.6</ele>
        <time>2016-10-03T12:43:43Z</time>
      </trkpt>
      <trkpt lat="45.76126" lon="6.26892">
        <ele>486.56</ele>
        <time>2016-10-03T12:44:01Z</time>
      </trkpt>
      <trkpt lat="45.76102" lon="6.27011">
        <ele>487.05</ele>
        <time>2016-10-03T12:44:18Z</time>
      </trkpt>
      <trkpt lat="45.76077" lon="6.27128">
        <ele>488.49</ele>
        <time>2016-10-03T12:44:35Z</time>
      </trkpt>
      <trkpt lat="45.76052" lon="6.27245">
        <ele>489.93</ele>
        <time>2016-10-03T12:44:53Z</time>
      </trkpt>
      <trkpt lat="45.76027" lon="6.27362">
        <ele>490.89</ele>
        <time>2016-10-03T12:45:12Z</time>
      </trkpt>
      <trkpt lat="45.76004" lon="6.27472">
        <ele>492.33</ele>
        <time>2016-10-03T12:45:30Z</time>
      </trkpt>
      <trkpt lat="45.75978" lon="6.27555">
        <ele>493.29</ele>
        <time>2016-10-03T12:45:44Z</time>
      </trkpt>
      <trkpt lat="45.75936" lon="6.27648">
        <ele>494.26</ele>
        <time>2016-10-03T12:46:01Z</time>
      </trkpt>
      <trkpt lat="45.75898" lon="6.27714">
        <ele>494.74</ele>
        <time>2016-10-03T12:46:14Z</time>
      </trkpt>
      <trkpt lat="45.75895" lon="6.27719">
        <ele>495.22</ele>
        <time>2016-10-03T12:46:15Z</time>
      </trkpt>
      <trkpt lat="45.75892" lon="6.27724">
        <ele>495.7</ele>
        <time>2016-10-03T12:46:16Z</time>
      </trkpt>
      <trkpt lat="45.75889" lon="6.27729">
        <ele>495.22</ele>
        <time>2016-10-03T12:46:17Z</time>
      </trkpt>
      <trkpt lat="45.75886" lon="6.27735">
        <ele>495.7</ele>
        <time>2016-10-03T12:46:18Z</time>
      </trkpt>
      <trkpt lat="45.75872" lon="6.27759">
        <ele>495.22</ele>
        <time>2016-10-03T12:46:23Z</time>
      </trkpt>
      <trkpt lat="45.75869" lon="6.27764">
        <ele>496.18</ele>
        <time>2016-10-03T12:46:24Z</time>
      </trkpt>
      <trkpt lat="45.75866" lon="6.27769">
        <ele>496.18</ele>
        <time>2016-10-03T12:46:25Z</time>
      </trkpt>
      <trkpt lat="45.75863" lon="6.27774">
        <ele>496.18</ele>
        <time>2016-10-03T12:46:26Z</time>
      </trkpt>
      <trkpt lat="45.7586" lon="6.27779">
        <ele>496.18</ele>
        <time>2016-10-03T12:46:27Z</time>
      </trkpt>
      <trkpt lat="45.75857" lon="6.27784">
        <ele>496.66</ele>
        <time>2016-10-03T12:46:28Z</time>
      </trkpt>
      <trkpt lat="45.75846" lon="6.27804">
        <ele>496.66</ele>
        <time>2016-10-03T12:46:32Z</time>
      </trkpt>
      <trkpt lat="45.75844" lon="6.27809">
        <ele>496.66</ele>
        <time>2016-10-03T12:46:33Z</time>
      </trkpt>
      <trkpt lat="45.75841" lon="6.27815">
        <ele>497.14</ele>
        <time>2016-10-03T12:46:34Z</time>
      </trkpt>
      <trkpt lat="45.758" lon="6.27887">
        <ele>497.14</ele>
        <time>2016-10-03T12:46:48Z</time>
      </trkpt>
      <trkpt lat="45.7578" lon="6.27923">
        <ele>497.62</ele>
        <time>2016-10-03T12:46:55Z</time>
      </trkpt>
      <trkpt lat="45.75773" lon="6.27932">
        <ele>497.14</ele>
        <time>2016-10-03T12:46:57Z</time>
      </trkpt>
      <trkpt lat="45.7577" lon="6.27937">
        <ele>497.14</ele>
        <time>2016-10-03T12:46:58Z</time>
      </trkpt>
      <trkpt lat="45.75717" lon="6.28024">
        <ele>498.1</ele>
        <time>2016-10-03T12:47:15Z</time>
      </trkpt>
      <trkpt lat="45.75655" lon="6.28097">
        <ele>499.06</ele>
        <time>2016-10-03T12:47:32Z</time>
      </trkpt>
      <trkpt lat="45.75615" lon="6.28135">
        <ele>499.06</ele>
        <time>2016-10-03T12:47:42Z</time>
      </trkpt>
      <trkpt lat="45.75552" lon="6.28183">
        <ele>499.54</ele>
        <time>2016-10-03T12:47:57Z</time>
      </trkpt>
      <trkpt lat="45.75491" lon="6.28235">
        <ele>498.1</ele>
        <time>2016-10-03T12:48:11Z</time>
      </trkpt>
      <trkpt lat="45.75454" lon="6.28267">
        <ele>497.14</ele>
        <time>2016-10-03T12:48:17Z</time>
      </trkpt>
      <trkpt lat="45.75404" lon="6.28305">
        <ele>500.02</ele>
        <time>2016-10-03T12:48:28Z</time>
      </trkpt>
      <trkpt lat="45.75364" lon="6.28343">
        <ele>502.43</ele>
        <time>2016-10-03T12:48:42Z</time>
      </trkpt>
      <trkpt lat="45.7532" lon="6.28402">
        <ele>502.91</ele>
        <time>2016-10-03T12:48:58Z</time>
      </trkpt>
      <trkpt lat="45.75302" lon="6.28428">
        <ele>504.35</ele>
        <time>2016-10-03T12:49:07Z</time>
      </trkpt>
      <trkpt lat="45.75278" lon="6.28469">
        <ele>503.87</ele>
        <time>2016-10-03T12:49:19Z</time>
      </trkpt>
      <trkpt lat="45.75236" lon="6.28564">
        <ele>504.83</ele>
        <time>2016-10-03T12:49:38Z</time>
      </trkpt>
      <trkpt lat="45.7521" lon="6.28659">
        <ele>505.79</ele>
        <time>2016-10-03T12:49:54Z</time>
      </trkpt>
      <trkpt lat="45.75207" lon="6.28677">
        <ele>506.27</ele>
        <time>2016-10-03T12:49:57Z</time>
      </trkpt>
      <trkpt lat="45.75206" lon="6.28683">
        <ele>506.75</ele>
        <time>2016-10-03T12:49:58Z</time>
      </trkpt>
      <trkpt lat="45.75199" lon="6.28735">
        <ele>506.75</ele>
        <time>2016-10-03T12:50:09Z</time>
      </trkpt>
      <trkpt lat="45.75192" lon="6.28783">
        <ele>506.75</ele>
        <time>2016-10-03T12:50:19Z</time>
      </trkpt>
      <trkpt lat="45.75187" lon="6.28884">
        <ele>506.75</ele>
        <time>2016-10-03T12:50:35Z</time>
      </trkpt>
      <trkpt lat="45.75181" lon="6.29029">
        <ele>506.75</ele>
        <time>2016-10-03T12:50:55Z</time>
      </trkpt>
      <trkpt lat="45.7518" lon="6.29067">
        <ele>506.75</ele>
        <time>2016-10-03T12:51:01Z</time>
      </trkpt>
      <trkpt lat="45.75181" lon="6.29073">
        <ele>507.23</ele>
        <time>2016-10-03T12:51:02Z</time>
      </trkpt>
      <trkpt lat="45.75183" lon="6.29078">
        <ele>507.23</ele>
        <time>2016-10-03T12:51:03Z</time>
      </trkpt>
      <trkpt lat="45.75187" lon="6.29083">
        <ele>507.23</ele>
        <time>2016-10-03T12:51:04Z</time>
      </trkpt>
      <trkpt lat="45.75191" lon="6.29086">
        <ele>506.75</ele>
        <time>2016-10-03T12:51:05Z</time>
      </trkpt>
      <trkpt lat="45.75195" lon="6.29088">
        <ele>506.27</ele>
        <time>2016-10-03T12:51:06Z</time>
      </trkpt>
      <trkpt lat="45.752" lon="6.2909">
        <ele>507.23</ele>
        <time>2016-10-03T12:51:07Z</time>
      </trkpt>
      <trkpt lat="45.75272" lon="6.29117">
        <ele>505.31</ele>
        <time>2016-10-03T12:51:20Z</time>
      </trkpt>
      <trkpt lat="45.7529" lon="6.29122">
        <ele>505.79</ele>
        <time>2016-10-03T12:51:23Z</time>
      </trkpt>
      <trkpt lat="45.75296" lon="6.29126">
        <ele>505.31</ele>
        <time>2016-10-03T12:51:24Z</time>
      </trkpt>
      <trkpt lat="45.75301" lon="6.2913">
        <ele>504.83</ele>
        <time>2016-10-03T12:51:25Z</time>
      </trkpt>
      <trkpt lat="45.75305" lon="6.29136">
        <ele>504.83</ele>
        <time>2016-10-03T12:51:26Z</time>
      </trkpt>
      <trkpt lat="45.75307" lon="6.29144">
        <ele>504.35</ele>
        <time>2016-10-03T12:51:27Z</time>
      </trkpt>
      <trkpt lat="45.75309" lon="6.29152">
        <ele>504.35</ele>
        <time>2016-10-03T12:51:28Z</time>
      </trkpt>
      <trkpt lat="45.75309" lon="6.29161">
        <ele>504.35</ele>
        <time>2016-10-03T12:51:29Z</time>
      </trkpt>
      <trkpt lat="45.75309" lon="6.29169">
        <ele>504.35</ele>
        <time>2016-10-03T12:51:30Z</time>
      </trkpt>
      <trkpt lat="45.75309" lon="6.29291">
        <ele>503.87</ele>
        <time>2016-10-03T12:51:45Z</time>
      </trkpt>
      <trkpt lat="45.75303" lon="6.29398">
        <ele>504.35</ele>
        <time>2016-10-03T12:52:01Z</time>
      </trkpt>
      <trkpt lat="45.75302" lon="6.29404">
        <ele>504.35</ele>
        <time>2016-10-03T12:52:02Z</time>
      </trkpt>
      <trkpt lat="45.75301" lon="6.2941">
        <ele>504.35</ele>
        <time>2016-10-03T12:52:03Z</time>
      </trkpt>
      <trkpt lat="45.75299" lon="6.29414">
        <ele>503.87</ele>
        <time>2016-10-03T12:52:04Z</time>
      </trkpt>
      <trkpt lat="45.75295" lon="6.29417">
        <ele>503.87</ele>
        <time>2016-10-03T12:52:05Z</time>
      </trkpt>
      <trkpt lat="45.75292" lon="6.2942">
        <ele>504.35</ele>
        <time>2016-10-03T12:52:06Z</time>
      </trkpt>
      <trkpt lat="45.75288" lon="6.29421">
        <ele>503.87</ele>
        <time>2016-10-03T12:52:07Z</time>
      </trkpt>
      <trkpt lat="45.75284" lon="6.29421">
        <ele>503.87</ele>
        <time>2016-10-03T12:52:08Z</time>
      </trkpt>
      <trkpt lat="45.7528" lon="6.29421">
        <ele>503.87</ele>
        <time>2016-10-03T12:52:09Z</time>
      </trkpt>
      <trkpt lat="45.75275" lon="6.2942">
        <ele>503.87</ele>
        <time>2016-10-03T12:52:10Z</time>
      </trkpt>
      <trkpt lat="45.75209" lon="6.29413">
        <ele>503.87</ele>
        <time>2016-10-03T12:52:26Z</time>
      </trkpt>
      <trkpt lat="45.75188" lon="6.29413">
        <ele>505.31</ele>
        <time>2016-10-03T12:52:31Z</time>
      </trkpt>
      <trkpt lat="45.75184" lon="6.29415">
        <ele>505.31</ele>
        <time>2016-10-03T12:52:32Z</time>
      </trkpt>
      <trkpt lat="45.75169" lon="6.29448">
        <ele>506.27</ele>
        <time>2016-10-03T12:52:42Z</time>
      </trkpt>
      <trkpt lat="45.75168" lon="6.29517">
        <ele>506.75</ele>
        <time>2016-10-03T12:52:54Z</time>
      </trkpt>
      <trkpt lat="45.75166" lon="6.29595">
        <ele>505.79</ele>
        <time>2016-10-03T12:53:09Z</time>
      </trkpt>
      <trkpt lat="45.75166" lon="6.29598">
        <ele>505.79</ele>
        <time>2016-10-03T12:53:10Z</time>
      </trkpt>
      <trkpt lat="45.75165" lon="6.296">
        <ele>505.79</ele>
        <time>2016-10-03T12:53:11Z</time>
      </trkpt>
      <trkpt lat="45.75166" lon="6.29604">
        <ele>505.79</ele>
        <time>2016-10-03T12:53:12Z</time>
      </trkpt>
      <trkpt lat="45.75166" lon="6.29606">
        <ele>505.79</ele>
        <time>2016-10-03T12:53:13Z</time>
      </trkpt>
      <trkpt lat="45.75166" lon="6.29609">
        <ele>506.27</ele>
        <time>2016-10-03T12:53:14Z</time>
      </trkpt>
      <trkpt lat="45.75167" lon="6.29612">
        <ele>505.79</ele>
        <time>2016-10-03T12:53:15Z</time>
      </trkpt>
      <trkpt lat="45.75167" lon="6.29614">
        <ele>506.27</ele>
        <time>2016-10-03T12:53:16Z</time>
      </trkpt>
      <trkpt lat="45.75167" lon="6.29617">
        <ele>506.27</ele>
        <time>2016-10-03T12:53:17Z</time>
      </trkpt>
      <trkpt lat="45.75167" lon="6.29619">
        <ele>505.79</ele>
        <time>2016-10-03T12:53:18Z</time>
      </trkpt>
      <trkpt lat="45.75167" lon="6.29621">
        <ele>506.27</ele>
        <time>2016-10-03T12:53:19Z</time>
      </trkpt>
      <trkpt lat="45.75166" lon="6.29623">
        <ele>506.27</ele>
        <time>2016-10-03T12:53:32Z</time>
      </trkpt>
      <trkpt lat="45.75166" lon="6.29622">
        <ele>506.75</ele>
        <time>2016-10-03T12:53:55Z</time>
      </trkpt>
      <trkpt lat="45.75168" lon="6.29624">
        <ele>506.27</ele>
        <time>2016-10-03T12:54:15Z</time>
      </trkpt>
      <trkpt lat="45.7517" lon="6.29624">
        <ele>506.27</ele>
        <time>2016-10-03T12:54:17Z</time>
      </trkpt>
      <trkpt lat="45.75171" lon="6.29624">
        <ele>506.27</ele>
        <time>2016-10-03T12:54:18Z</time>
      </trkpt>
      <trkpt lat="45.75173" lon="6.29625">
        <ele>506.27</ele>
        <time>2016-10-03T12:54:19Z</time>
      </trkpt>
      <trkpt lat="45.75175" lon="6.29626">
        <ele>505.79</ele>
        <time>2016-10-03T12:54:20Z</time>
      </trkpt>
      <trkpt lat="45.75178" lon="6.29628">
        <ele>505.79</ele>
        <time>2016-10-03T12:54:21Z</time>
      </trkpt>
      <trkpt lat="45.7518" lon="6.2963">
        <ele>505.79</ele>
        <time>2016-10-03T12:54:22Z</time>
      </trkpt>
      <trkpt lat="45.75183" lon="6.29632">
        <ele>506.27</ele>
        <time>2016-10-03T12:54:23Z</time>
      </trkpt>
      <trkpt lat="45.75238" lon="6.29647">
        <ele>505.31</ele>
        <time>2016-10-03T12:54:36Z</time>
      </trkpt>
      <trkpt lat="45.75253" lon="6.29648">
        <ele>506.27</ele>
        <time>2016-10-03T12:54:39Z</time>
      </trkpt>
      <trkpt lat="45.75348" lon="6.29653">
        <ele>503.39</ele>
        <time>2016-10-03T12:54:57Z</time>
      </trkpt>
      <trkpt lat="45.75383" lon="6.29658">
        <ele>502.91</ele>
        <time>2016-10-03T12:55:03Z</time>
      </trkpt>
      <trkpt lat="45.75387" lon="6.2966">
        <ele>503.87</ele>
        <time>2016-10-03T12:55:04Z</time>
      </trkpt>
      <trkpt lat="45.75395" lon="6.29666">
        <ele>503.87</ele>
        <time>2016-10-03T12:55:06Z</time>
      </trkpt>
      <trkpt lat="45.754" lon="6.29668">
        <ele>503.39</ele>
        <time>2016-10-03T12:55:07Z</time>
      </trkpt>
      <trkpt lat="45.75404" lon="6.29668">
        <ele>503.87</ele>
        <time>2016-10-03T12:55:08Z</time>
      </trkpt>
      <trkpt lat="45.75408" lon="6.29668">
        <ele>503.87</ele>
        <time>2016-10-03T12:55:09Z</time>
      </trkpt>
      <trkpt lat="45.75413" lon="6.29667">
        <ele>503.87</ele>
        <time>2016-10-03T12:55:10Z</time>
      </trkpt>
      <trkpt lat="45.75421" lon="6.29665">
        <ele>504.35</ele>
        <time>2016-10-03T12:55:12Z</time>
      </trkpt>
      <trkpt lat="45.75434" lon="6.29666">
        <ele>503.39</ele>
        <time>2016-10-03T12:55:15Z</time>
      </trkpt>
      <trkpt lat="45.75438" lon="6.29668">
        <ele>503.39</ele>
        <time>2016-10-03T12:55:16Z</time>
      </trkpt>
      <trkpt lat="45.75463" lon="6.2969">
        <ele>503.87</ele>
        <time>2016-10-03T12:55:26Z</time>
      </trkpt>
      <trkpt lat="45.75462" lon="6.29684">
        <ele>503.39</ele>
        <time>2016-10-03T12:55:29Z</time>
      </trkpt>
      <trkpt lat="45.75428" lon="6.29666">
        <ele>501.95</ele>
        <time>2016-10-03T12:55:42Z</time>
      </trkpt>
      <trkpt lat="45.75392" lon="6.29665">
        <ele>500.98</ele>
        <time>2016-10-03T12:55:53Z</time>
      </trkpt>
      <trkpt lat="45.7539" lon="6.29662">
        <ele>500.98</ele>
        <time>2016-10-03T12:55:54Z</time>
      </trkpt>
      <trkpt lat="45.75386" lon="6.29655">
        <ele>503.39</ele>
        <time>2016-10-03T12:56:03Z</time>
      </trkpt>
      <trkpt lat="45.75369" lon="6.29643">
        <ele>500.5</ele>
        <time>2016-10-03T12:56:09Z</time>
      </trkpt>
      <trkpt lat="45.75365" lon="6.29642">
        <ele>500.5</ele>
        <time>2016-10-03T12:56:10Z</time>
      </trkpt>
      <trkpt lat="45.75306" lon="6.29639">
        <ele>502.91</ele>
        <time>2016-10-03T12:56:25Z</time>
      </trkpt>
      <trkpt lat="45.75242" lon="6.29632">
        <ele>503.87</ele>
        <time>2016-10-03T12:56:41Z</time>
      </trkpt>
      <trkpt lat="45.75216" lon="6.2963">
        <ele>505.31</ele>
        <time>2016-10-03T12:56:48Z</time>
      </trkpt>
      <trkpt lat="45.75158" lon="6.29605">
        <ele>505.79</ele>
        <time>2016-10-03T12:57:05Z</time>
      </trkpt>
      <trkpt lat="45.75106" lon="6.29573">
        <ele>505.79</ele>
        <time>2016-10-03T12:57:21Z</time>
      </trkpt>
      <trkpt lat="45.75101" lon="6.29536">
        <ele>507.23</ele>
        <time>2016-10-03T12:57:29Z</time>
      </trkpt>
      <trkpt lat="45.75105" lon="6.29525">
        <ele>506.75</ele>
        <time>2016-10-03T12:57:31Z</time>
      </trkpt>
      <trkpt lat="45.75115" lon="6.29449">
        <ele>506.75</ele>
        <time>2016-10-03T12:57:44Z</time>
      </trkpt>
      <trkpt lat="45.75114" lon="6.29443">
        <ele>505.79</ele>
        <time>2016-10-03T12:57:45Z</time>
      </trkpt>
      <trkpt lat="45.75113" lon="6.29437">
        <ele>507.23</ele>
        <time>2016-10-03T12:57:46Z</time>
      </trkpt>
      <trkpt lat="45.75111" lon="6.29432">
        <ele>506.75</ele>
        <time>2016-10-03T12:57:47Z</time>
      </trkpt>
      <trkpt lat="45.75108" lon="6.29427">
        <ele>506.27</ele>
        <time>2016-10-03T12:57:48Z</time>
      </trkpt>
      <trkpt lat="45.75105" lon="6.29422">
        <ele>506.75</ele>
        <time>2016-10-03T12:57:49Z</time>
      </trkpt>
      <trkpt lat="45.75101" lon="6.29419">
        <ele>507.71</ele>
        <time>2016-10-03T12:57:50Z</time>
      </trkpt>
      <trkpt lat="45.75098" lon="6.29416">
        <ele>506.75</ele>
        <time>2016-10-03T12:57:51Z</time>
      </trkpt>
      <trkpt lat="45.75093" lon="6.29415">
        <ele>506.27</ele>
        <time>2016-10-03T12:57:52Z</time>
      </trkpt>
      <trkpt lat="45.75089" lon="6.29415">
        <ele>506.75</ele>
        <time>2016-10-03T12:57:53Z</time>
      </trkpt>
      <trkpt lat="45.75084" lon="6.29416">
        <ele>507.23</ele>
        <time>2016-10-03T12:57:54Z</time>
      </trkpt>
      <trkpt lat="45.7508" lon="6.29419">
        <ele>506.75</ele>
        <time>2016-10-03T12:57:55Z</time>
      </trkpt>
      <trkpt lat="45.75076" lon="6.29421">
        <ele>507.23</ele>
        <time>2016-10-03T12:57:56Z</time>
      </trkpt>
      <trkpt lat="45.75072" lon="6.29424">
        <ele>507.23</ele>
        <time>2016-10-03T12:57:57Z</time>
      </trkpt>
      <trkpt lat="45.7503" lon="6.29455">
        <ele>508.67</ele>
        <time>2016-10-03T12:58:09Z</time>
      </trkpt>
      <trkpt lat="45.74972" lon="6.29489">
        <ele>509.64</ele>
        <time>2016-10-03T12:58:27Z</time>
      </trkpt>
      <trkpt lat="45.74924" lon="6.29517">
        <ele>511.08</ele>
        <time>2016-10-03T12:58:43Z</time>
      </trkpt>
      <trkpt lat="45.74886" lon="6.29534">
        <ele>510.6</ele>
        <time>2016-10-03T12:58:55Z</time>
      </trkpt>
      <trkpt lat="45.74829" lon="6.29548">
        <ele>511.08</ele>
        <time>2016-10-03T12:59:12Z</time>
      </trkpt>
      <trkpt lat="45.74784" lon="6.29552">
        <ele>512.04</ele>
        <time>2016-10-03T12:59:25Z</time>
      </trkpt>
      <trkpt lat="45.74742" lon="6.29557">
        <ele>512.04</ele>
        <time>2016-10-03T12:59:37Z</time>
      </trkpt>
      <trkpt lat="45.74716" lon="6.29566">
        <ele>512.04</ele>
        <time>2016-10-03T12:59:45Z</time>
      </trkpt>
      <trkpt lat="45.74707" lon="6.29572">
        <ele>513.96</ele>
        <time>2016-10-03T12:59:48Z</time>
      </trkpt>
      <trkpt lat="45.7469" lon="6.29584">
        <ele>513.48</ele>
        <time>2016-10-03T12:59:59Z</time>
      </trkpt>
      <trkpt lat="45.74684" lon="6.29587">
        <ele>513.48</ele>
        <time>2016-10-03T13:00:04Z</time>
      </trkpt>
      <trkpt lat="45.74683" lon="6.29587">
        <ele>513.48</ele>
        <time>2016-10-03T13:00:05Z</time>
      </trkpt>
      <trkpt lat="45.74678" lon="6.29589">
        <ele>513</ele>
        <time>2016-10-03T13:00:17Z</time>
      </trkpt>
      <trkpt lat="45.74677" lon="6.29588">
        <ele>513</ele>
        <time>2016-10-03T13:00:18Z</time>
      </trkpt>
      <trkpt lat="45.74676" lon="6.29587">
        <ele>513.96</ele>
        <time>2016-10-03T13:00:19Z</time>
      </trkpt>
      <trkpt lat="45.74675" lon="6.29585">
        <ele>513.48</ele>
        <time>2016-10-03T13:00:20Z</time>
      </trkpt>
      <trkpt lat="45.74674" lon="6.29582">
        <ele>513.48</ele>
        <time>2016-10-03T13:00:21Z</time>
      </trkpt>
      <trkpt lat="45.74656" lon="6.29552">
        <ele>513.96</ele>
        <time>2016-10-03T13:00:31Z</time>
      </trkpt>
      <trkpt lat="45.74634" lon="6.29531">
        <ele>514.44</ele>
        <time>2016-10-03T13:00:42Z</time>
      </trkpt>
      <trkpt lat="45.74629" lon="6.29533">
        <ele>513.96</ele>
        <time>2016-10-03T13:00:55Z</time>
      </trkpt>
      <trkpt lat="45.74628" lon="6.29542">
        <ele>514.44</ele>
        <time>2016-10-03T13:01:12Z</time>
      </trkpt>
      <trkpt lat="45.74628" lon="6.2955">
        <ele>514.44</ele>
        <time>2016-10-03T13:01:44Z</time>
      </trkpt>
      <trkpt lat="45.74628" lon="6.29549">
        <ele>515.4</ele>
        <time>2016-10-03T13:02:01Z</time>
      </trkpt>
      <trkpt lat="45.74627" lon="6.29536">
        <ele>514.44</ele>
        <time>2016-10-03T13:02:21Z</time>
      </trkpt>
      <trkpt lat="45.74626" lon="6.2953">
        <ele>514.44</ele>
        <time>2016-10-03T13:02:40Z</time>
      </trkpt>
      <trkpt lat="45.74626" lon="6.29526">
        <ele>514.92</ele>
        <time>2016-10-03T13:03:12Z</time>
      </trkpt>
      <trkpt lat="45.74625" lon="6.29526">
        <ele>511.08</ele>
        <time>2016-10-03T13:03:19Z</time>
      </trkpt>
      <trkpt lat="45.74625" lon="6.29527">
        <ele>515.88</ele>
        <time>2016-10-03T13:03:20Z</time>
      </trkpt>
      <trkpt lat="45.74628" lon="6.29528">
        <ele>514.92</ele>
        <time>2016-10-03T13:03:49Z</time>
      </trkpt>
      <trkpt lat="45.74628" lon="6.29525">
        <ele>515.88</ele>
        <time>2016-10-03T13:04:15Z</time>
      </trkpt>
      <trkpt lat="45.74624" lon="6.29529">
        <ele>515.4</ele>
        <time>2016-10-03T13:04:41Z</time>
      </trkpt>
      <trkpt lat="45.74622" lon="6.29532">
        <ele>516.37</ele>
        <time>2016-10-03T13:05:15Z</time>
      </trkpt>
      <trkpt lat="45.74626" lon="6.29532">
        <ele>516.37</ele>
        <time>2016-10-03T13:05:45Z</time>
      </trkpt>
      <trkpt lat="45.74625" lon="6.29531">
        <ele>516.37</ele>
        <time>2016-10-03T13:06:16Z</time>
      </trkpt>
      <trkpt lat="45.74623" lon="6.29532">
        <ele>516.85</ele>
        <time>2016-10-03T13:06:47Z</time>
      </trkpt>
      <trkpt lat="45.74629" lon="6.29524">
        <ele>516.85</ele>
        <time>2016-10-03T13:07:13Z</time>
      </trkpt>
      <trkpt lat="45.74629" lon="6.2953">
        <ele>516.85</ele>
        <time>2016-10-03T13:07:48Z</time>
      </trkpt>
      <trkpt lat="45.74632" lon="6.29527">
        <ele>517.33</ele>
        <time>2016-10-03T13:08:17Z</time>
      </trkpt>
      <trkpt lat="45.74633" lon="6.29527">
        <ele>517.81</ele>
        <time>2016-10-03T13:08:42Z</time>
      </trkpt>
      <trkpt lat="45.74629" lon="6.29529">
        <ele>517.81</ele>
        <time>2016-10-03T13:09:04Z</time>
      </trkpt>
      <trkpt lat="45.74628" lon="6.2953">
        <ele>517.81</ele>
        <time>2016-10-03T13:09:40Z</time>
      </trkpt>
      <trkpt lat="45.7463" lon="6.29525">
        <ele>517.81</ele>
        <time>2016-10-03T13:10:20Z</time>
      </trkpt>
      <trkpt lat="45.74632" lon="6.29528">
        <ele>518.29</ele>
        <time>2016-10-03T13:10:49Z</time>
      </trkpt>
      <trkpt lat="45.74634" lon="6.29526">
        <ele>518.77</ele>
        <time>2016-10-03T13:11:25Z</time>
      </trkpt>
      <trkpt lat="45.74635" lon="6.29521">
        <ele>517.81</ele>
        <time>2016-10-03T13:11:50Z</time>
      </trkpt>
      <trkpt lat="45.74639" lon="6.29519">
        <ele>518.77</ele>
        <time>2016-10-03T13:12:18Z</time>
      </trkpt>
      <trkpt lat="45.74641" lon="6.29518">
        <ele>519.73</ele>
        <time>2016-10-03T13:12:40Z</time>
      </trkpt>
      <trkpt lat="45.74635" lon="6.29524">
        <ele>519.25</ele>
        <time>2016-10-03T13:13:07Z</time>
      </trkpt>
      <trkpt lat="45.74629" lon="6.29528">
        <ele>519.73</ele>
        <time>2016-10-03T13:13:34Z</time>
      </trkpt>
      <trkpt lat="45.74628" lon="6.29526">
        <ele>520.21</ele>
        <time>2016-10-03T13:14:05Z</time>
      </trkpt>
      <trkpt lat="45.74631" lon="6.29526">
        <ele>519.73</ele>
        <time>2016-10-03T13:14:41Z</time>
      </trkpt>
      <trkpt lat="45.74628" lon="6.29526">
        <ele>520.21</ele>
        <time>2016-10-03T13:15:10Z</time>
      </trkpt>
      <trkpt lat="45.74626" lon="6.29529">
        <ele>520.69</ele>
        <time>2016-10-03T13:15:47Z</time>
      </trkpt>
      <trkpt lat="45.74627" lon="6.29529">
        <ele>521.17</ele>
        <time>2016-10-03T13:16:14Z</time>
      </trkpt>
      <trkpt lat="45.74627" lon="6.29529">
        <ele>521.65</ele>
        <time>2016-10-03T13:16:38Z</time>
      </trkpt>
      <trkpt lat="45.74626" lon="6.2953">
        <ele>521.65</ele>
        <time>2016-10-03T13:17:02Z</time>
      </trkpt>
      <trkpt lat="45.74626" lon="6.29532">
        <ele>521.65</ele>
        <time>2016-10-03T13:17:35Z</time>
      </trkpt>
      <trkpt lat="45.74626" lon="6.29529">
        <ele>522.13</ele>
        <time>2016-10-03T13:18:07Z</time>
      </trkpt>
      <trkpt lat="45.74629" lon="6.29539">
        <ele>522.13</ele>
        <time>2016-10-03T13:18:35Z</time>
      </trkpt>
      <trkpt lat="45.74627" lon="6.29536">
        <ele>522.61</ele>
        <time>2016-10-03T13:19:04Z</time>
      </trkpt>
      <trkpt lat="45.74627" lon="6.29535">
        <ele>523.09</ele>
        <time>2016-10-03T13:19:25Z</time>
      </trkpt>
      <trkpt lat="45.74629" lon="6.29532">
        <ele>522.13</ele>
        <time>2016-10-03T13:19:46Z</time>
      </trkpt>
      <trkpt lat="45.74627" lon="6.29536">
        <ele>522.61</ele>
        <time>2016-10-03T13:20:17Z</time>
      </trkpt>
      <trkpt lat="45.74621" lon="6.29536">
        <ele>523.09</ele>
        <time>2016-10-03T13:20:43Z</time>
      </trkpt>
      <trkpt lat="45.74622" lon="6.29539">
        <ele>523.58</ele>
        <time>2016-10-03T13:21:17Z</time>
      </trkpt>
      <trkpt lat="45.7462" lon="6.29538">
        <ele>523.58</ele>
        <time>2016-10-03T13:21:44Z</time>
      </trkpt>
      <trkpt lat="45.74622" lon="6.29534">
        <ele>524.54</ele>
        <time>2016-10-03T13:22:10Z</time>
      </trkpt>
      <trkpt lat="45.74623" lon="6.29527">
        <ele>525.02</ele>
        <time>2016-10-03T13:22:39Z</time>
      </trkpt>
      <trkpt lat="45.74619" lon="6.29527">
        <ele>525.98</ele>
        <time>2016-10-03T13:23:07Z</time>
      </trkpt>
      <trkpt lat="45.74617" lon="6.29533">
        <ele>526.46</ele>
        <time>2016-10-03T13:23:35Z</time>
      </trkpt>
      <trkpt lat="45.74619" lon="6.29536">
        <ele>526.46</ele>
        <time>2016-10-03T13:23:57Z</time>
      </trkpt>
      <trkpt lat="45.74634" lon="6.29536">
        <ele>526.46</ele>
        <time>2016-10-03T13:24:25Z</time>
      </trkpt>
      <trkpt lat="45.74631" lon="6.29542">
        <ele>526.46</ele>
        <time>2016-10-03T13:24:49Z</time>
      </trkpt>
      <trkpt lat="45.74638" lon="6.29526">
        <ele>526.94</ele>
        <time>2016-10-03T13:25:22Z</time>
      </trkpt>
      <trkpt lat="45.74636" lon="6.29529">
        <ele>523.58</ele>
        <time>2016-10-03T13:25:41Z</time>
      </trkpt>
      <trkpt lat="45.74636" lon="6.29529">
        <ele>527.9</ele>
        <time>2016-10-03T13:25:42Z</time>
      </trkpt>
      <trkpt lat="45.74635" lon="6.2953">
        <ele>527.9</ele>
        <time>2016-10-03T13:25:43Z</time>
      </trkpt>
      <trkpt lat="45.74634" lon="6.29531">
        <ele>531.75</ele>
        <time>2016-10-03T13:25:44Z</time>
      </trkpt>
      <trkpt lat="45.74635" lon="6.29531">
        <ele>524.06</ele>
        <time>2016-10-03T13:25:45Z</time>
      </trkpt>
      <trkpt lat="45.74634" lon="6.29532">
        <ele>521.17</ele>
        <time>2016-10-03T13:25:46Z</time>
      </trkpt>
      <trkpt lat="45.74634" lon="6.29532">
        <ele>527.42</ele>
        <time>2016-10-03T13:25:47Z</time>
      </trkpt>
      <trkpt lat="45.74632" lon="6.29536">
        <ele>527.42</ele>
        <time>2016-10-03T13:25:59Z</time>
      </trkpt>
      <trkpt lat="45.74634" lon="6.29537">
        <ele>525.98</ele>
        <time>2016-10-03T13:26:01Z</time>
      </trkpt>
      <trkpt lat="45.74633" lon="6.29538">
        <ele>528.86</ele>
        <time>2016-10-03T13:26:02Z</time>
      </trkpt>
      <trkpt lat="45.74633" lon="6.29538">
        <ele>525.5</ele>
        <time>2016-10-03T13:26:03Z</time>
      </trkpt>
      <trkpt lat="45.74631" lon="6.29539">
        <ele>529.34</ele>
        <time>2016-10-03T13:26:13Z</time>
      </trkpt>
      <trkpt lat="45.74631" lon="6.29539">
        <ele>529.34</ele>
        <time>2016-10-03T13:26:14Z</time>
      </trkpt>
      <trkpt lat="45.74631" lon="6.2954">
        <ele>526.94</ele>
        <time>2016-10-03T13:26:17Z</time>
      </trkpt>
      <trkpt lat="45.74631" lon="6.2954">
        <ele>523.09</ele>
        <time>2016-10-03T13:26:23Z</time>
      </trkpt>
      <trkpt lat="45.74631" lon="6.2954">
        <ele>524.06</ele>
        <time>2016-10-03T13:26:24Z</time>
      </trkpt>
      <trkpt lat="45.74631" lon="6.29541">
        <ele>531.27</ele>
        <time>2016-10-03T13:26:25Z</time>
      </trkpt>
      <trkpt lat="45.7463" lon="6.29541">
        <ele>528.86</ele>
        <time>2016-10-03T13:26:26Z</time>
      </trkpt>
      <trkpt lat="45.74629" lon="6.29541">
        <ele>522.61</ele>
        <time>2016-10-03T13:26:28Z</time>
      </trkpt>
      <trkpt lat="45.74629" lon="6.29541">
        <ele>529.34</ele>
        <time>2016-10-03T13:26:29Z</time>
      </trkpt>
      <trkpt lat="45.74627" lon="6.29542">
        <ele>527.42</ele>
        <time>2016-10-03T13:26:55Z</time>
      </trkpt>
      <trkpt lat="45.74629" lon="6.29543">
        <ele>525.98</ele>
        <time>2016-10-03T13:27:12Z</time>
      </trkpt>
      <trkpt lat="45.74632" lon="6.2954">
        <ele>527.42</ele>
        <time>2016-10-03T13:27:45Z</time>
      </trkpt>
      <trkpt lat="45.74629" lon="6.29533">
        <ele>527.42</ele>
        <time>2016-10-03T13:28:01Z</time>
      </trkpt>
      <trkpt lat="45.74626" lon="6.29528">
        <ele>526.94</ele>
        <time>2016-10-03T13:28:24Z</time>
      </trkpt>
      <trkpt lat="45.7463" lon="6.2953">
        <ele>526.94</ele>
        <time>2016-10-03T13:28:27Z</time>
      </trkpt>
      <trkpt lat="45.74631" lon="6.29532">
        <ele>526.94</ele>
        <time>2016-10-03T13:28:28Z</time>
      </trkpt>
      <trkpt lat="45.74654" lon="6.29564">
        <ele>526.46</ele>
        <time>2016-10-03T13:28:39Z</time>
      </trkpt>
      <trkpt lat="45.74675" lon="6.29607">
        <ele>526.46</ele>
        <time>2016-10-03T13:28:50Z</time>
      </trkpt>
      <trkpt lat="45.74679" lon="6.29617">
        <ele>525.98</ele>
        <time>2016-10-03T13:28:52Z</time>
      </trkpt>
      <trkpt lat="45.74691" lon="6.29638">
        <ele>526.46</ele>
        <time>2016-10-03T13:28:56Z</time>
      </trkpt>
      <trkpt lat="45.74694" lon="6.29643">
        <ele>525.98</ele>
        <time>2016-10-03T13:28:57Z</time>
      </trkpt>
      <trkpt lat="45.74739" lon="6.29729">
        <ele>525.5</ele>
        <time>2016-10-03T13:29:11Z</time>
      </trkpt>
      <trkpt lat="45.74779" lon="6.29793">
        <ele>523.09</ele>
        <time>2016-10-03T13:29:21Z</time>
      </trkpt>
      <trkpt lat="45.74836" lon="6.29892">
        <ele>521.17</ele>
        <time>2016-10-03T13:29:35Z</time>
      </trkpt>
      <trkpt lat="45.74909" lon="6.30022">
        <ele>520.21</ele>
        <time>2016-10-03T13:29:52Z</time>
      </trkpt>
      <trkpt lat="45.74954" lon="6.30097">
        <ele>518.77</ele>
        <time>2016-10-03T13:30:01Z</time>
      </trkpt>
      <trkpt lat="45.75037" lon="6.30238">
        <ele>516.37</ele>
        <time>2016-10-03T13:30:17Z</time>
      </trkpt>
      <trkpt lat="45.75127" lon="6.30392">
        <ele>514.44</ele>
        <time>2016-10-03T13:30:34Z</time>
      </trkpt>
      <trkpt lat="45.75142" lon="6.3042">
        <ele>513.48</ele>
        <time>2016-10-03T13:30:38Z</time>
      </trkpt>
      <trkpt lat="45.75142" lon="6.30426">
        <ele>513</ele>
        <time>2016-10-03T13:30:39Z</time>
      </trkpt>
      <trkpt lat="45.75142" lon="6.30432">
        <ele>513.48</ele>
        <time>2016-10-03T13:30:40Z</time>
      </trkpt>
      <trkpt lat="45.75142" lon="6.30437">
        <ele>513</ele>
        <time>2016-10-03T13:30:41Z</time>
      </trkpt>
      <trkpt lat="45.75142" lon="6.30442">
        <ele>513</ele>
        <time>2016-10-03T13:30:42Z</time>
      </trkpt>
      <trkpt lat="45.75142" lon="6.30447">
        <ele>513</ele>
        <time>2016-10-03T13:30:43Z</time>
      </trkpt>
      <trkpt lat="45.75158" lon="6.30554">
        <ele>512.04</ele>
        <time>2016-10-03T13:30:57Z</time>
      </trkpt>
      <trkpt lat="45.75203" lon="6.307">
        <ele>511.56</ele>
        <time>2016-10-03T13:31:13Z</time>
      </trkpt>
      <trkpt lat="45.75265" lon="6.30834">
        <ele>509.16</ele>
        <time>2016-10-03T13:31:28Z</time>
      </trkpt>
      <trkpt lat="45.7534" lon="6.30991">
        <ele>508.19</ele>
        <time>2016-10-03T13:31:45Z</time>
      </trkpt>
      <trkpt lat="45.7541" lon="6.31146">
        <ele>507.71</ele>
        <time>2016-10-03T13:32:02Z</time>
      </trkpt>
      <trkpt lat="45.75475" lon="6.31284">
        <ele>507.71</ele>
        <time>2016-10-03T13:32:18Z</time>
      </trkpt>
      <trkpt lat="45.75556" lon="6.31457">
        <ele>507.71</ele>
        <time>2016-10-03T13:32:38Z</time>
      </trkpt>
      <trkpt lat="45.75659" lon="6.31679">
        <ele>507.23</ele>
        <time>2016-10-03T13:33:03Z</time>
      </trkpt>
      <trkpt lat="45.75741" lon="6.31854">
        <ele>507.71</ele>
        <time>2016-10-03T13:33:23Z</time>
      </trkpt>
      <trkpt lat="45.75829" lon="6.3204">
        <ele>508.67</ele>
        <time>2016-10-03T13:33:46Z</time>
      </trkpt>
      <trkpt lat="45.75849" lon="6.32086">
        <ele>510.12</ele>
        <time>2016-10-03T13:33:52Z</time>
      </trkpt>
      <trkpt lat="45.75904" lon="6.32216">
        <ele>506.75</ele>
        <time>2016-10-03T13:34:06Z</time>
      </trkpt>
      <trkpt lat="45.75908" lon="6.32226">
        <ele>506.75</ele>
        <time>2016-10-03T13:34:07Z</time>
      </trkpt>
      <trkpt lat="45.75934" lon="6.323">
        <ele>503.39</ele>
        <time>2016-10-03T13:34:14Z</time>
      </trkpt>
      <trkpt lat="45.75937" lon="6.32311">
        <ele>503.87</ele>
        <time>2016-10-03T13:34:15Z</time>
      </trkpt>
      <trkpt lat="45.75983" lon="6.32486">
        <ele>502.43</ele>
        <time>2016-10-03T13:34:30Z</time>
      </trkpt>
      <trkpt lat="45.75991" lon="6.32535">
        <ele>502.91</ele>
        <time>2016-10-03T13:34:37Z</time>
      </trkpt>
      <trkpt lat="45.75991" lon="6.32538">
        <ele>502.43</ele>
        <time>2016-10-03T13:34:38Z</time>
      </trkpt>
      <trkpt lat="45.75992" lon="6.32542">
        <ele>502.43</ele>
        <time>2016-10-03T13:34:39Z</time>
      </trkpt>
      <trkpt lat="45.75993" lon="6.32546">
        <ele>501.95</ele>
        <time>2016-10-03T13:34:40Z</time>
      </trkpt>
      <trkpt lat="45.75994" lon="6.3255">
        <ele>500.98</ele>
        <time>2016-10-03T13:34:41Z</time>
      </trkpt>
      <trkpt lat="45.75994" lon="6.32556">
        <ele>501.46</ele>
        <time>2016-10-03T13:34:42Z</time>
      </trkpt>
      <trkpt lat="45.75995" lon="6.32561">
        <ele>501.46</ele>
        <time>2016-10-03T13:34:43Z</time>
      </trkpt>
      <trkpt lat="45.75996" lon="6.32567">
        <ele>501.46</ele>
        <time>2016-10-03T13:34:44Z</time>
      </trkpt>
      <trkpt lat="45.75997" lon="6.32574">
        <ele>500.98</ele>
        <time>2016-10-03T13:34:45Z</time>
      </trkpt>
      <trkpt lat="45.76019" lon="6.32685">
        <ele>500.02</ele>
        <time>2016-10-03T13:34:58Z</time>
      </trkpt>
      <trkpt lat="45.7605" lon="6.32841">
        <ele>496.66</ele>
        <time>2016-10-03T13:35:12Z</time>
      </trkpt>
      <trkpt lat="45.76075" lon="6.32972">
        <ele>492.81</ele>
        <time>2016-10-03T13:35:23Z</time>
      </trkpt>
      <trkpt lat="45.76078" lon="6.32984">
        <ele>492.81</ele>
        <time>2016-10-03T13:35:24Z</time>
      </trkpt>
      <trkpt lat="45.76095" lon="6.33081">
        <ele>494.26</ele>
        <time>2016-10-03T13:35:32Z</time>
      </trkpt>
      <trkpt lat="45.76117" lon="6.33193">
        <ele>489.45</ele>
        <time>2016-10-03T13:35:41Z</time>
      </trkpt>
      <trkpt lat="45.76119" lon="6.33206">
        <ele>489.93</ele>
        <time>2016-10-03T13:35:42Z</time>
      </trkpt>
      <trkpt lat="45.76141" lon="6.33321">
        <ele>486.56</ele>
        <time>2016-10-03T13:35:51Z</time>
      </trkpt>
      <trkpt lat="45.76143" lon="6.33333">
        <ele>486.08</ele>
        <time>2016-10-03T13:35:52Z</time>
      </trkpt>
      <trkpt lat="45.76155" lon="6.33396">
        <ele>485.12</ele>
        <time>2016-10-03T13:35:57Z</time>
      </trkpt>
      <trkpt lat="45.76193" lon="6.33589">
        <ele>483.68</ele>
        <time>2016-10-03T13:36:14Z</time>
      </trkpt>
      <trkpt lat="45.76193" lon="6.33597">
        <ele>484.16</ele>
        <time>2016-10-03T13:36:16Z</time>
      </trkpt>
      <trkpt lat="45.76193" lon="6.336">
        <ele>484.16</ele>
        <time>2016-10-03T13:36:17Z</time>
      </trkpt>
      <trkpt lat="45.76193" lon="6.33603">
        <ele>483.68</ele>
        <time>2016-10-03T13:36:18Z</time>
      </trkpt>
      <trkpt lat="45.76198" lon="6.33621">
        <ele>483.2</ele>
        <time>2016-10-03T13:36:24Z</time>
      </trkpt>
      <trkpt lat="45.76198" lon="6.33626">
        <ele>483.2</ele>
        <time>2016-10-03T13:36:25Z</time>
      </trkpt>
      <trkpt lat="45.76198" lon="6.3363">
        <ele>483.68</ele>
        <time>2016-10-03T13:36:26Z</time>
      </trkpt>
      <trkpt lat="45.76201" lon="6.33641">
        <ele>483.2</ele>
        <time>2016-10-03T13:36:28Z</time>
      </trkpt>
      <trkpt lat="45.76209" lon="6.33691">
        <ele>481.76</ele>
        <time>2016-10-03T13:36:35Z</time>
      </trkpt>
      <trkpt lat="45.7621" lon="6.33699">
        <ele>481.76</ele>
        <time>2016-10-03T13:36:36Z</time>
      </trkpt>
      <trkpt lat="45.76237" lon="6.33837">
        <ele>480.8</ele>
        <time>2016-10-03T13:36:51Z</time>
      </trkpt>
      <trkpt lat="45.76255" lon="6.33934">
        <ele>476.95</ele>
        <time>2016-10-03T13:37:00Z</time>
      </trkpt>
      <trkpt lat="45.76257" lon="6.33945">
        <ele>476.95</ele>
        <time>2016-10-03T13:37:01Z</time>
      </trkpt>
      <trkpt lat="45.76288" lon="6.34114">
        <ele>475.03</ele>
        <time>2016-10-03T13:37:16Z</time>
      </trkpt>
      <trkpt lat="45.7629" lon="6.34137">
        <ele>474.07</ele>
        <time>2016-10-03T13:37:18Z</time>
      </trkpt>
      <trkpt lat="45.76292" lon="6.34148">
        <ele>473.59</ele>
        <time>2016-10-03T13:37:19Z</time>
      </trkpt>
      <trkpt lat="45.76301" lon="6.34191">
        <ele>472.14</ele>
        <time>2016-10-03T13:37:23Z</time>
      </trkpt>
      <trkpt lat="45.76308" lon="6.34236">
        <ele>472.14</ele>
        <time>2016-10-03T13:37:28Z</time>
      </trkpt>
      <trkpt lat="45.76309" lon="6.34242">
        <ele>472.63</ele>
        <time>2016-10-03T13:37:29Z</time>
      </trkpt>
      <trkpt lat="45.76309" lon="6.34247">
        <ele>472.63</ele>
        <time>2016-10-03T13:37:30Z</time>
      </trkpt>
      <trkpt lat="45.7631" lon="6.34252">
        <ele>473.11</ele>
        <time>2016-10-03T13:37:31Z</time>
      </trkpt>
      <trkpt lat="45.7631" lon="6.34256">
        <ele>472.63</ele>
        <time>2016-10-03T13:37:32Z</time>
      </trkpt>
      <trkpt lat="45.76311" lon="6.3426">
        <ele>473.11</ele>
        <time>2016-10-03T13:37:33Z</time>
      </trkpt>
      <trkpt lat="45.76311" lon="6.34264">
        <ele>473.11</ele>
        <time>2016-10-03T13:37:34Z</time>
      </trkpt>
      <trkpt lat="45.76311" lon="6.34319">
        <ele>471.66</ele>
        <time>2016-10-03T13:37:44Z</time>
      </trkpt>
      <trkpt lat="45.76313" lon="6.34327">
        <ele>471.66</ele>
        <time>2016-10-03T13:37:45Z</time>
      </trkpt>
      <trkpt lat="45.76315" lon="6.34332">
        <ele>471.66</ele>
        <time>2016-10-03T13:37:46Z</time>
      </trkpt>
      <trkpt lat="45.76317" lon="6.34338">
        <ele>471.18</ele>
        <time>2016-10-03T13:37:47Z</time>
      </trkpt>
      <trkpt lat="45.76321" lon="6.34343">
        <ele>471.66</ele>
        <time>2016-10-03T13:37:48Z</time>
      </trkpt>
      <trkpt lat="45.76325" lon="6.34348">
        <ele>472.14</ele>
        <time>2016-10-03T13:37:49Z</time>
      </trkpt>
      <trkpt lat="45.76336" lon="6.34365">
        <ele>471.66</ele>
        <time>2016-10-03T13:37:52Z</time>
      </trkpt>
      <trkpt lat="45.76339" lon="6.34372">
        <ele>471.66</ele>
        <time>2016-10-03T13:37:53Z</time>
      </trkpt>
      <trkpt lat="45.76341" lon="6.3438">
        <ele>471.18</ele>
        <time>2016-10-03T13:37:54Z</time>
      </trkpt>
      <trkpt lat="45.76371" lon="6.34536">
        <ele>470.7</ele>
        <time>2016-10-03T13:38:13Z</time>
      </trkpt>
      <trkpt lat="45.76394" lon="6.34662">
        <ele>467.34</ele>
        <time>2016-10-03T13:38:27Z</time>
      </trkpt>
      <trkpt lat="45.76431" lon="6.34849">
        <ele>468.3</ele>
        <time>2016-10-03T13:38:46Z</time>
      </trkpt>
      <trkpt lat="45.76436" lon="6.34885">
        <ele>467.34</ele>
        <time>2016-10-03T13:38:51Z</time>
      </trkpt>
      <trkpt lat="45.76436" lon="6.34889">
        <ele>467.82</ele>
        <time>2016-10-03T13:38:52Z</time>
      </trkpt>
      <trkpt lat="45.76437" lon="6.34893">
        <ele>466.86</ele>
        <time>2016-10-03T13:38:53Z</time>
      </trkpt>
      <trkpt lat="45.76438" lon="6.34898">
        <ele>466.86</ele>
        <time>2016-10-03T13:38:54Z</time>
      </trkpt>
      <trkpt lat="45.76439" lon="6.34902">
        <ele>466.86</ele>
        <time>2016-10-03T13:38:55Z</time>
      </trkpt>
      <trkpt lat="45.76446" lon="6.34931">
        <ele>466.86</ele>
        <time>2016-10-03T13:39:01Z</time>
      </trkpt>
      <trkpt lat="45.76467" lon="6.35039">
        <ele>465.42</ele>
        <time>2016-10-03T13:39:14Z</time>
      </trkpt>
      <trkpt lat="45.76494" lon="6.35178">
        <ele>465.42</ele>
        <time>2016-10-03T13:39:29Z</time>
      </trkpt>
      <trkpt lat="45.76522" lon="6.35324">
        <ele>463.97</ele>
        <time>2016-10-03T13:39:44Z</time>
      </trkpt>
      <trkpt lat="45.76528" lon="6.35464">
        <ele>463.49</ele>
        <time>2016-10-03T13:39:58Z</time>
      </trkpt>
      <trkpt lat="45.76525" lon="6.35587">
        <ele>462.05</ele>
        <time>2016-10-03T13:40:10Z</time>
      </trkpt>
      <trkpt lat="45.76521" lon="6.35718">
        <ele>461.57</ele>
        <time>2016-10-03T13:40:23Z</time>
      </trkpt>
      <trkpt lat="45.76519" lon="6.35851">
        <ele>460.13</ele>
        <time>2016-10-03T13:40:37Z</time>
      </trkpt>
      <trkpt lat="45.76522" lon="6.36029">
        <ele>458.69</ele>
        <time>2016-10-03T13:40:54Z</time>
      </trkpt>
      <trkpt lat="45.76522" lon="6.36086">
        <ele>458.69</ele>
        <time>2016-10-03T13:40:59Z</time>
      </trkpt>
      <trkpt lat="45.76522" lon="6.36097">
        <ele>459.17</ele>
        <time>2016-10-03T13:41:00Z</time>
      </trkpt>
      <trkpt lat="45.76537" lon="6.3626">
        <ele>457.24</ele>
        <time>2016-10-03T13:41:15Z</time>
      </trkpt>
      <trkpt lat="45.7659" lon="6.36446">
        <ele>455.8</ele>
        <time>2016-10-03T13:41:32Z</time>
      </trkpt>
      <trkpt lat="45.76651" lon="6.36623">
        <ele>452.92</ele>
        <time>2016-10-03T13:41:49Z</time>
      </trkpt>
      <trkpt lat="45.76654" lon="6.36633">
        <ele>452.92</ele>
        <time>2016-10-03T13:41:50Z</time>
      </trkpt>
      <trkpt lat="45.76683" lon="6.36806">
        <ele>452.44</ele>
        <time>2016-10-03T13:42:06Z</time>
      </trkpt>
      <trkpt lat="45.76688" lon="6.36985">
        <ele>451.96</ele>
        <time>2016-10-03T13:42:22Z</time>
      </trkpt>
      <trkpt lat="45.76681" lon="6.37131">
        <ele>448.59</ele>
        <time>2016-10-03T13:42:35Z</time>
      </trkpt>
      <trkpt lat="45.76678" lon="6.37248">
        <ele>446.19</ele>
        <time>2016-10-03T13:42:45Z</time>
      </trkpt>
      <trkpt lat="45.76675" lon="6.37456">
        <ele>446.67</ele>
        <time>2016-10-03T13:43:03Z</time>
      </trkpt>
      <trkpt lat="45.76672" lon="6.3764">
        <ele>445.71</ele>
        <time>2016-10-03T13:43:20Z</time>
      </trkpt>
      <trkpt lat="45.76664" lon="6.37779">
        <ele>445.23</ele>
        <time>2016-10-03T13:43:33Z</time>
      </trkpt>
      <trkpt lat="45.76638" lon="6.37946">
        <ele>445.23</ele>
        <time>2016-10-03T13:43:49Z</time>
      </trkpt>
      <trkpt lat="45.76596" lon="6.38095">
        <ele>445.23</ele>
        <time>2016-10-03T13:44:05Z</time>
      </trkpt>
      <trkpt lat="45.76548" lon="6.38208">
        <ele>444.27</ele>
        <time>2016-10-03T13:44:18Z</time>
      </trkpt>
      <trkpt lat="45.76485" lon="6.38325">
        <ele>442.82</ele>
        <time>2016-10-03T13:44:32Z</time>
      </trkpt>
      <trkpt lat="45.76451" lon="6.38376">
        <ele>442.82</ele>
        <time>2016-10-03T13:44:39Z</time>
      </trkpt>
      <trkpt lat="45.76369" lon="6.38477">
        <ele>444.75</ele>
        <time>2016-10-03T13:44:54Z</time>
      </trkpt>
      <trkpt lat="45.76259" lon="6.38609">
        <ele>442.82</ele>
        <time>2016-10-03T13:45:13Z</time>
      </trkpt>
      <trkpt lat="45.76165" lon="6.38743">
        <ele>441.86</ele>
        <time>2016-10-03T13:45:30Z</time>
      </trkpt>
      <trkpt lat="45.76085" lon="6.38897">
        <ele>441.38</ele>
        <time>2016-10-03T13:45:48Z</time>
      </trkpt>
      <trkpt lat="45.76021" lon="6.39038">
        <ele>440.42</ele>
        <time>2016-10-03T13:46:05Z</time>
      </trkpt>
      <trkpt lat="45.75974" lon="6.39137">
        <ele>439.94</ele>
        <time>2016-10-03T13:46:18Z</time>
      </trkpt>
      <trkpt lat="45.7591" lon="6.39275">
        <ele>438.98</ele>
        <time>2016-10-03T13:46:34Z</time>
      </trkpt>
      <trkpt lat="45.7583" lon="6.39448">
        <ele>437.54</ele>
        <time>2016-10-03T13:46:53Z</time>
      </trkpt>
      <trkpt lat="45.75756" lon="6.3961">
        <ele>435.13</ele>
        <time>2016-10-03T13:47:11Z</time>
      </trkpt>
      <trkpt lat="45.75676" lon="6.39783">
        <ele>434.17</ele>
        <time>2016-10-03T13:47:30Z</time>
      </trkpt>
      <trkpt lat="45.75638" lon="6.39861">
        <ele>434.17</ele>
        <time>2016-10-03T13:47:41Z</time>
      </trkpt>
      <trkpt lat="45.75601" lon="6.39925">
        <ele>433.69</ele>
        <time>2016-10-03T13:47:53Z</time>
      </trkpt>
      <trkpt lat="45.75542" lon="6.40013">
        <ele>432.73</ele>
        <time>2016-10-03T13:48:07Z</time>
      </trkpt>
      <trkpt lat="45.75469" lon="6.40092">
        <ele>433.21</ele>
        <time>2016-10-03T13:48:21Z</time>
      </trkpt>
      <trkpt lat="45.75432" lon="6.40124">
        <ele>432.25</ele>
        <time>2016-10-03T13:48:28Z</time>
      </trkpt>
      <trkpt lat="45.75376" lon="6.40175">
        <ele>431.77</ele>
        <time>2016-10-03T13:48:38Z</time>
      </trkpt>
      <trkpt lat="45.75275" lon="6.40257">
        <ele>431.29</ele>
        <time>2016-10-03T13:48:55Z</time>
      </trkpt>
      <trkpt lat="45.75219" lon="6.40312">
        <ele>430.33</ele>
        <time>2016-10-03T13:49:07Z</time>
      </trkpt>
      <trkpt lat="45.75166" lon="6.40392">
        <ele>429.37</ele>
        <time>2016-10-03T13:49:20Z</time>
      </trkpt>
      <trkpt lat="45.75142" lon="6.40439">
        <ele>429.37</ele>
        <time>2016-10-03T13:49:26Z</time>
      </trkpt>
      <trkpt lat="45.75097" lon="6.40557">
        <ele>427.92</ele>
        <time>2016-10-03T13:49:39Z</time>
      </trkpt>
      <trkpt lat="45.75047" lon="6.40715">
        <ele>426</ele>
        <time>2016-10-03T13:49:55Z</time>
      </trkpt>
      <trkpt lat="45.75005" lon="6.40845">
        <ele>424.56</ele>
        <time>2016-10-03T13:50:10Z</time>
      </trkpt>
      <trkpt lat="45.75001" lon="6.40862">
        <ele>424.56</ele>
        <time>2016-10-03T13:50:12Z</time>
      </trkpt>
      <trkpt lat="45.74947" lon="6.41022">
        <ele>423.12</ele>
        <time>2016-10-03T13:50:29Z</time>
      </trkpt>
      <trkpt lat="45.74896" lon="6.41121">
        <ele>420.23</ele>
        <time>2016-10-03T13:50:40Z</time>
      </trkpt>
      <trkpt lat="45.7489" lon="6.41129">
        <ele>420.23</ele>
        <time>2016-10-03T13:50:41Z</time>
      </trkpt>
      <trkpt lat="45.74884" lon="6.41138">
        <ele>420.23</ele>
        <time>2016-10-03T13:50:42Z</time>
      </trkpt>
      <trkpt lat="45.7488" lon="6.41147">
        <ele>420.71</ele>
        <time>2016-10-03T13:50:43Z</time>
      </trkpt>
      <trkpt lat="45.74831" lon="6.41237">
        <ele>418.79</ele>
        <time>2016-10-03T13:50:54Z</time>
      </trkpt>
      <trkpt lat="45.74825" lon="6.41244">
        <ele>418.79</ele>
        <time>2016-10-03T13:50:55Z</time>
      </trkpt>
      <trkpt lat="45.74819" lon="6.41249">
        <ele>418.79</ele>
        <time>2016-10-03T13:50:56Z</time>
      </trkpt>
      <trkpt lat="45.74813" lon="6.41254">
        <ele>419.27</ele>
        <time>2016-10-03T13:50:57Z</time>
      </trkpt>
      <trkpt lat="45.74807" lon="6.41261">
        <ele>418.79</ele>
        <time>2016-10-03T13:50:58Z</time>
      </trkpt>
      <trkpt lat="45.74802" lon="6.41269">
        <ele>418.31</ele>
        <time>2016-10-03T13:50:59Z</time>
      </trkpt>
      <trkpt lat="45.74797" lon="6.41276">
        <ele>419.27</ele>
        <time>2016-10-03T13:51:00Z</time>
      </trkpt>
      <trkpt lat="45.74792" lon="6.41283">
        <ele>418.31</ele>
        <time>2016-10-03T13:51:01Z</time>
      </trkpt>
      <trkpt lat="45.74787" lon="6.41288">
        <ele>418.31</ele>
        <time>2016-10-03T13:51:02Z</time>
      </trkpt>
      <trkpt lat="45.7478" lon="6.41291">
        <ele>417.83</ele>
        <time>2016-10-03T13:51:03Z</time>
      </trkpt>
      <trkpt lat="45.74773" lon="6.41292">
        <ele>417.35</ele>
        <time>2016-10-03T13:51:04Z</time>
      </trkpt>
      <trkpt lat="45.74766" lon="6.41292">
        <ele>417.35</ele>
        <time>2016-10-03T13:51:05Z</time>
      </trkpt>
      <trkpt lat="45.74759" lon="6.41292">
        <ele>418.31</ele>
        <time>2016-10-03T13:51:06Z</time>
      </trkpt>
      <trkpt lat="45.74752" lon="6.41293">
        <ele>417.83</ele>
        <time>2016-10-03T13:51:07Z</time>
      </trkpt>
      <trkpt lat="45.74745" lon="6.41295">
        <ele>416.87</ele>
        <time>2016-10-03T13:51:08Z</time>
      </trkpt>
      <trkpt lat="45.74738" lon="6.41297">
        <ele>416.87</ele>
        <time>2016-10-03T13:51:09Z</time>
      </trkpt>
      <trkpt lat="45.74732" lon="6.41301">
        <ele>416.87</ele>
        <time>2016-10-03T13:51:10Z</time>
      </trkpt>
      <trkpt lat="45.74725" lon="6.41304">
        <ele>416.87</ele>
        <time>2016-10-03T13:51:11Z</time>
      </trkpt>
      <trkpt lat="45.74642" lon="6.41344">
        <ele>416.39</ele>
        <time>2016-10-03T13:51:24Z</time>
      </trkpt>
      <trkpt lat="45.74629" lon="6.4135">
        <ele>416.39</ele>
        <time>2016-10-03T13:51:26Z</time>
      </trkpt>
      <trkpt lat="45.74623" lon="6.41354">
        <ele>416.39</ele>
        <time>2016-10-03T13:51:27Z</time>
      </trkpt>
      <trkpt lat="45.74618" lon="6.4136">
        <ele>415.91</ele>
        <time>2016-10-03T13:51:28Z</time>
      </trkpt>
      <trkpt lat="45.74612" lon="6.41367">
        <ele>415.91</ele>
        <time>2016-10-03T13:51:29Z</time>
      </trkpt>
      <trkpt lat="45.74607" lon="6.41373">
        <ele>416.39</ele>
        <time>2016-10-03T13:51:30Z</time>
      </trkpt>
      <trkpt lat="45.74591" lon="6.41395">
        <ele>414.95</ele>
        <time>2016-10-03T13:51:33Z</time>
      </trkpt>
      <trkpt lat="45.74572" lon="6.41423">
        <ele>415.43</ele>
        <time>2016-10-03T13:51:37Z</time>
      </trkpt>
      <trkpt lat="45.74568" lon="6.41431">
        <ele>415.43</ele>
        <time>2016-10-03T13:51:38Z</time>
      </trkpt>
      <trkpt lat="45.74565" lon="6.4144">
        <ele>414.47</ele>
        <time>2016-10-03T13:51:39Z</time>
      </trkpt>
      <trkpt lat="45.74553" lon="6.41475">
        <ele>415.43</ele>
        <time>2016-10-03T13:51:43Z</time>
      </trkpt>
      <trkpt lat="45.74551" lon="6.41485">
        <ele>414.95</ele>
        <time>2016-10-03T13:51:44Z</time>
      </trkpt>
      <trkpt lat="45.74551" lon="6.41495">
        <ele>414.95</ele>
        <time>2016-10-03T13:51:45Z</time>
      </trkpt>
      <trkpt lat="45.7455" lon="6.41504">
        <ele>415.43</ele>
        <time>2016-10-03T13:51:46Z</time>
      </trkpt>
      <trkpt lat="45.74551" lon="6.41514">
        <ele>415.43</ele>
        <time>2016-10-03T13:51:47Z</time>
      </trkpt>
      <trkpt lat="45.74553" lon="6.41524">
        <ele>414.95</ele>
        <time>2016-10-03T13:51:48Z</time>
      </trkpt>
      <trkpt lat="45.74556" lon="6.41534">
        <ele>414.95</ele>
        <time>2016-10-03T13:51:49Z</time>
      </trkpt>
      <trkpt lat="45.7456" lon="6.41542">
        <ele>415.91</ele>
        <time>2016-10-03T13:51:50Z</time>
      </trkpt>
      <trkpt lat="45.74565" lon="6.4155">
        <ele>415.43</ele>
        <time>2016-10-03T13:51:51Z</time>
      </trkpt>
      <trkpt lat="45.74572" lon="6.41555">
        <ele>414.95</ele>
        <time>2016-10-03T13:51:52Z</time>
      </trkpt>
      <trkpt lat="45.74578" lon="6.4156">
        <ele>416.39</ele>
        <time>2016-10-03T13:51:53Z</time>
      </trkpt>
      <trkpt lat="45.74585" lon="6.41564">
        <ele>415.43</ele>
        <time>2016-10-03T13:51:54Z</time>
      </trkpt>
      <trkpt lat="45.74603" lon="6.41578">
        <ele>414.95</ele>
        <time>2016-10-03T13:51:57Z</time>
      </trkpt>
      <trkpt lat="45.74609" lon="6.41584">
        <ele>414.47</ele>
        <time>2016-10-03T13:51:58Z</time>
      </trkpt>
      <trkpt lat="45.74614" lon="6.41591">
        <ele>413.98</ele>
        <time>2016-10-03T13:51:59Z</time>
      </trkpt>
      <trkpt lat="45.74627" lon="6.41614">
        <ele>414.47</ele>
        <time>2016-10-03T13:52:02Z</time>
      </trkpt>
      <trkpt lat="45.7463" lon="6.41623">
        <ele>414.95</ele>
        <time>2016-10-03T13:52:03Z</time>
      </trkpt>
      <trkpt lat="45.74633" lon="6.41632">
        <ele>414.95</ele>
        <time>2016-10-03T13:52:04Z</time>
      </trkpt>
      <trkpt lat="45.74634" lon="6.41641">
        <ele>414.47</ele>
        <time>2016-10-03T13:52:05Z</time>
      </trkpt>
      <trkpt lat="45.74635" lon="6.4165">
        <ele>414.95</ele>
        <time>2016-10-03T13:52:06Z</time>
      </trkpt>
      <trkpt lat="45.74635" lon="6.4166">
        <ele>414.47</ele>
        <time>2016-10-03T13:52:07Z</time>
      </trkpt>
      <trkpt lat="45.74635" lon="6.41669">
        <ele>413.98</ele>
        <time>2016-10-03T13:52:08Z</time>
      </trkpt>
      <trkpt lat="45.74634" lon="6.41678">
        <ele>414.47</ele>
        <time>2016-10-03T13:52:09Z</time>
      </trkpt>
      <trkpt lat="45.74632" lon="6.41687">
        <ele>414.47</ele>
        <time>2016-10-03T13:52:10Z</time>
      </trkpt>
      <trkpt lat="45.74628" lon="6.41695">
        <ele>413.98</ele>
        <time>2016-10-03T13:52:11Z</time>
      </trkpt>
      <trkpt lat="45.74625" lon="6.41702">
        <ele>414.95</ele>
        <time>2016-10-03T13:52:12Z</time>
      </trkpt>
      <trkpt lat="45.74571" lon="6.41827">
        <ele>413.02</ele>
        <time>2016-10-03T13:52:27Z</time>
      </trkpt>
      <trkpt lat="45.74515" lon="6.41929">
        <ele>413.02</ele>
        <time>2016-10-03T13:52:41Z</time>
      </trkpt>
      <trkpt lat="45.74511" lon="6.41936">
        <ele>412.54</ele>
        <time>2016-10-03T13:52:42Z</time>
      </trkpt>
      <trkpt lat="45.74508" lon="6.41944">
        <ele>413.5</ele>
        <time>2016-10-03T13:52:43Z</time>
      </trkpt>
      <trkpt lat="45.74506" lon="6.41951">
        <ele>412.54</ele>
        <time>2016-10-03T13:52:44Z</time>
      </trkpt>
      <trkpt lat="45.74505" lon="6.41965">
        <ele>412.54</ele>
        <time>2016-10-03T13:52:46Z</time>
      </trkpt>
      <trkpt lat="45.74504" lon="6.41972">
        <ele>413.02</ele>
        <time>2016-10-03T13:52:47Z</time>
      </trkpt>
      <trkpt lat="45.74503" lon="6.41977">
        <ele>413.02</ele>
        <time>2016-10-03T13:52:48Z</time>
      </trkpt>
      <trkpt lat="45.745" lon="6.41981">
        <ele>413.02</ele>
        <time>2016-10-03T13:52:49Z</time>
      </trkpt>
      <trkpt lat="45.74497" lon="6.41984">
        <ele>413.5</ele>
        <time>2016-10-03T13:52:50Z</time>
      </trkpt>
      <trkpt lat="45.74493" lon="6.41988">
        <ele>413.5</ele>
        <time>2016-10-03T13:52:51Z</time>
      </trkpt>
      <trkpt lat="45.74474" lon="6.42008">
        <ele>413.5</ele>
        <time>2016-10-03T13:52:56Z</time>
      </trkpt>
      <trkpt lat="45.7447" lon="6.42013">
        <ele>414.47</ele>
        <time>2016-10-03T13:52:57Z</time>
      </trkpt>
      <trkpt lat="45.74468" lon="6.42018">
        <ele>413.5</ele>
        <time>2016-10-03T13:52:58Z</time>
      </trkpt>
      <trkpt lat="45.74466" lon="6.42025">
        <ele>413.5</ele>
        <time>2016-10-03T13:52:59Z</time>
      </trkpt>
      <trkpt lat="45.74465" lon="6.42032">
        <ele>412.54</ele>
        <time>2016-10-03T13:53:00Z</time>
      </trkpt>
      <trkpt lat="45.74464" lon="6.42039">
        <ele>413.02</ele>
        <time>2016-10-03T13:53:01Z</time>
      </trkpt>
      <trkpt lat="45.74462" lon="6.42045">
        <ele>413.02</ele>
        <time>2016-10-03T13:53:02Z</time>
      </trkpt>
      <trkpt lat="45.74455" lon="6.42066">
        <ele>413.5</ele>
        <time>2016-10-03T13:53:06Z</time>
      </trkpt>
      <trkpt lat="45.74452" lon="6.4207">
        <ele>413.02</ele>
        <time>2016-10-03T13:53:07Z</time>
      </trkpt>
      <trkpt lat="45.74399" lon="6.421">
        <ele>412.54</ele>
        <time>2016-10-03T13:53:20Z</time>
      </trkpt>
      <trkpt lat="45.74322" lon="6.42147">
        <ele>412.06</ele>
        <time>2016-10-03T13:53:36Z</time>
      </trkpt>
      <trkpt lat="45.74225" lon="6.42201">
        <ele>410.14</ele>
        <time>2016-10-03T13:53:52Z</time>
      </trkpt>
      <trkpt lat="45.74161" lon="6.42231">
        <ele>409.66</ele>
        <time>2016-10-03T13:54:02Z</time>
      </trkpt>
      <trkpt lat="45.74155" lon="6.42231">
        <ele>409.66</ele>
        <time>2016-10-03T13:54:03Z</time>
      </trkpt>
      <trkpt lat="45.74143" lon="6.42229">
        <ele>409.66</ele>
        <time>2016-10-03T13:54:05Z</time>
      </trkpt>
      <trkpt lat="45.74137" lon="6.4223">
        <ele>409.66</ele>
        <time>2016-10-03T13:54:06Z</time>
      </trkpt>
      <trkpt lat="45.74132" lon="6.42234">
        <ele>409.66</ele>
        <time>2016-10-03T13:54:07Z</time>
      </trkpt>
      <trkpt lat="45.74128" lon="6.42239">
        <ele>409.66</ele>
        <time>2016-10-03T13:54:08Z</time>
      </trkpt>
      <trkpt lat="45.74124" lon="6.42246">
        <ele>409.66</ele>
        <time>2016-10-03T13:54:09Z</time>
      </trkpt>
      <trkpt lat="45.7412" lon="6.42252">
        <ele>409.66</ele>
        <time>2016-10-03T13:54:10Z</time>
      </trkpt>
      <trkpt lat="45.74116" lon="6.42257">
        <ele>409.66</ele>
        <time>2016-10-03T13:54:11Z</time>
      </trkpt>
      <trkpt lat="45.74112" lon="6.42262">
        <ele>409.66</ele>
        <time>2016-10-03T13:54:12Z</time>
      </trkpt>
      <trkpt lat="45.74106" lon="6.42265">
        <ele>409.18</ele>
        <time>2016-10-03T13:54:13Z</time>
      </trkpt>
      <trkpt lat="45.74101" lon="6.42268">
        <ele>409.18</ele>
        <time>2016-10-03T13:54:14Z</time>
      </trkpt>
      <trkpt lat="45.74012" lon="6.42307">
        <ele>408.7</ele>
        <time>2016-10-03T13:54:29Z</time>
      </trkpt>
      <trkpt lat="45.73967" lon="6.42323">
        <ele>407.74</ele>
        <time>2016-10-03T13:54:36Z</time>
      </trkpt>
      <trkpt lat="45.73949" lon="6.42326">
        <ele>407.26</ele>
        <time>2016-10-03T13:54:39Z</time>
      </trkpt>
      <trkpt lat="45.73946" lon="6.42328">
        <ele>407.74</ele>
        <time>2016-10-03T13:54:40Z</time>
      </trkpt>
      <trkpt lat="45.73943" lon="6.42331">
        <ele>406.77</ele>
        <time>2016-10-03T13:54:41Z</time>
      </trkpt>
      <trkpt lat="45.73941" lon="6.42332">
        <ele>407.26</ele>
        <time>2016-10-03T13:54:42Z</time>
      </trkpt>
      <trkpt lat="45.7394" lon="6.42335">
        <ele>407.26</ele>
        <time>2016-10-03T13:54:43Z</time>
      </trkpt>
      <trkpt lat="45.73929" lon="6.4234">
        <ele>407.74</ele>
        <time>2016-10-03T13:54:47Z</time>
      </trkpt>
      <trkpt lat="45.73922" lon="6.4234">
        <ele>407.26</ele>
        <time>2016-10-03T13:54:49Z</time>
      </trkpt>
      <trkpt lat="45.73917" lon="6.4234">
        <ele>407.26</ele>
        <time>2016-10-03T13:54:50Z</time>
      </trkpt>
      <trkpt lat="45.73913" lon="6.42341">
        <ele>407.74</ele>
        <time>2016-10-03T13:54:51Z</time>
      </trkpt>
      <trkpt lat="45.73908" lon="6.42341">
        <ele>407.26</ele>
        <time>2016-10-03T13:54:52Z</time>
      </trkpt>
      <trkpt lat="45.73903" lon="6.42341">
        <ele>407.26</ele>
        <time>2016-10-03T13:54:53Z</time>
      </trkpt>
      <trkpt lat="45.73815" lon="6.42336">
        <ele>406.29</ele>
        <time>2016-10-03T13:55:08Z</time>
      </trkpt>
      <trkpt lat="45.73709" lon="6.42313">
        <ele>404.85</ele>
        <time>2016-10-03T13:55:24Z</time>
      </trkpt>
      <trkpt lat="45.7361" lon="6.42283">
        <ele>404.37</ele>
        <time>2016-10-03T13:55:39Z</time>
      </trkpt>
      <trkpt lat="45.73549" lon="6.42246">
        <ele>403.41</ele>
        <time>2016-10-03T13:55:49Z</time>
      </trkpt>
      <trkpt lat="45.73545" lon="6.42241">
        <ele>402.93</ele>
        <time>2016-10-03T13:55:50Z</time>
      </trkpt>
      <trkpt lat="45.7354" lon="6.42236">
        <ele>402.93</ele>
        <time>2016-10-03T13:55:51Z</time>
      </trkpt>
      <trkpt lat="45.73536" lon="6.42234">
        <ele>403.41</ele>
        <time>2016-10-03T13:55:52Z</time>
      </trkpt>
      <trkpt lat="45.73531" lon="6.42234">
        <ele>403.89</ele>
        <time>2016-10-03T13:55:53Z</time>
      </trkpt>
      <trkpt lat="45.73528" lon="6.42235">
        <ele>403.41</ele>
        <time>2016-10-03T13:55:54Z</time>
      </trkpt>
      <trkpt lat="45.73525" lon="6.42237">
        <ele>402.93</ele>
        <time>2016-10-03T13:55:55Z</time>
      </trkpt>
      <trkpt lat="45.73518" lon="6.42238">
        <ele>403.41</ele>
        <time>2016-10-03T13:55:57Z</time>
      </trkpt>
      <trkpt lat="45.73514" lon="6.42237">
        <ele>403.41</ele>
        <time>2016-10-03T13:55:58Z</time>
      </trkpt>
      <trkpt lat="45.73488" lon="6.42223">
        <ele>402.45</ele>
        <time>2016-10-03T13:56:04Z</time>
      </trkpt>
      <trkpt lat="45.73408" lon="6.42157">
        <ele>401.49</ele>
        <time>2016-10-03T13:56:19Z</time>
      </trkpt>
      <trkpt lat="45.73325" lon="6.42088">
        <ele>400.05</ele>
        <time>2016-10-03T13:56:33Z</time>
      </trkpt>
      <trkpt lat="45.73226" lon="6.42006">
        <ele>399.08</ele>
        <time>2016-10-03T13:56:49Z</time>
      </trkpt>
      <trkpt lat="45.73148" lon="6.41926">
        <ele>400.05</ele>
        <time>2016-10-03T13:57:04Z</time>
      </trkpt>
      <trkpt lat="45.73112" lon="6.41894">
        <ele>400.53</ele>
        <time>2016-10-03T13:57:17Z</time>
      </trkpt>
      <trkpt lat="45.73111" lon="6.41891">
        <ele>400.53</ele>
        <time>2016-10-03T13:57:38Z</time>
      </trkpt>
      <trkpt lat="45.73111" lon="6.41889">
        <ele>400.05</ele>
        <time>2016-10-03T13:58:16Z</time>
      </trkpt>
      <trkpt lat="45.73112" lon="6.41891">
        <ele>400.05</ele>
        <time>2016-10-03T13:58:51Z</time>
      </trkpt>
      <trkpt lat="45.73113" lon="6.41894">
        <ele>399.57</ele>
        <time>2016-10-03T13:59:21Z</time>
      </trkpt>
      <trkpt lat="45.73112" lon="6.41894">
        <ele>400.05</ele>
        <time>2016-10-03T13:59:49Z</time>
      </trkpt>
      <trkpt lat="45.73112" lon="6.41895">
        <ele>399.57</ele>
        <time>2016-10-03T14:00:13Z</time>
      </trkpt>
      <trkpt lat="45.73113" lon="6.41896">
        <ele>399.57</ele>
        <time>2016-10-03T14:00:48Z</time>
      </trkpt>
      <trkpt lat="45.73108" lon="6.4189">
        <ele>399.08</ele>
        <time>2016-10-03T14:01:11Z</time>
      </trkpt>
      <trkpt lat="45.73072" lon="6.41866">
        <ele>396.2</ele>
        <time>2016-10-03T14:01:22Z</time>
      </trkpt>
      <trkpt lat="45.73061" lon="6.41859">
        <ele>395.24</ele>
        <time>2016-10-03T14:01:24Z</time>
      </trkpt>
      <trkpt lat="45.73018" lon="6.4183">
        <ele>393.32</ele>
        <time>2016-10-03T14:01:31Z</time>
      </trkpt>
      <trkpt lat="45.72965" lon="6.41784">
        <ele>391.39</ele>
        <time>2016-10-03T14:01:40Z</time>
      </trkpt>
      <trkpt lat="45.72849" lon="6.41685">
        <ele>391.87</ele>
        <time>2016-10-03T14:02:00Z</time>
      </trkpt>
      <trkpt lat="45.72754" lon="6.41609">
        <ele>388.51</ele>
        <time>2016-10-03T14:02:16Z</time>
      </trkpt>
      <trkpt lat="45.72669" lon="6.41522">
        <ele>388.99</ele>
        <time>2016-10-03T14:02:32Z</time>
      </trkpt>
      <trkpt lat="45.72665" lon="6.41515">
        <ele>388.51</ele>
        <time>2016-10-03T14:02:33Z</time>
      </trkpt>
      <trkpt lat="45.72662" lon="6.41507">
        <ele>388.51</ele>
        <time>2016-10-03T14:02:34Z</time>
      </trkpt>
      <trkpt lat="45.72659" lon="6.415">
        <ele>388.03</ele>
        <time>2016-10-03T14:02:35Z</time>
      </trkpt>
      <trkpt lat="45.72655" lon="6.41494">
        <ele>388.51</ele>
        <time>2016-10-03T14:02:36Z</time>
      </trkpt>
      <trkpt lat="45.72649" lon="6.4149">
        <ele>388.03</ele>
        <time>2016-10-03T14:02:37Z</time>
      </trkpt>
      <trkpt lat="45.72643" lon="6.41486">
        <ele>388.03</ele>
        <time>2016-10-03T14:02:38Z</time>
      </trkpt>
      <trkpt lat="45.72637" lon="6.41483">
        <ele>388.03</ele>
        <time>2016-10-03T14:02:39Z</time>
      </trkpt>
      <trkpt lat="45.72558" lon="6.41441">
        <ele>387.55</ele>
        <time>2016-10-03T14:02:52Z</time>
      </trkpt>
      <trkpt lat="45.72442" lon="6.41347">
        <ele>386.11</ele>
        <time>2016-10-03T14:03:12Z</time>
      </trkpt>
      <trkpt lat="45.72327" lon="6.4125">
        <ele>384.66</ele>
        <time>2016-10-03T14:03:32Z</time>
      </trkpt>
      <trkpt lat="45.72207" lon="6.41151">
        <ele>383.22</ele>
        <time>2016-10-03T14:03:52Z</time>
      </trkpt>
      <trkpt lat="45.72101" lon="6.41061">
        <ele>382.26</ele>
        <time>2016-10-03T14:04:11Z</time>
      </trkpt>
      <trkpt lat="45.72021" lon="6.41008">
        <ele>381.78</ele>
        <time>2016-10-03T14:04:25Z</time>
      </trkpt>
      <trkpt lat="45.7192" lon="6.40946">
        <ele>381.3</ele>
        <time>2016-10-03T14:04:42Z</time>
      </trkpt>
      <trkpt lat="45.71819" lon="6.40894">
        <ele>380.34</ele>
        <time>2016-10-03T14:04:59Z</time>
      </trkpt>
      <trkpt lat="45.7173" lon="6.40852">
        <ele>377.94</ele>
        <time>2016-10-03T14:05:14Z</time>
      </trkpt>
      <trkpt lat="45.71596" lon="6.40794">
        <ele>378.42</ele>
        <time>2016-10-03T14:05:36Z</time>
      </trkpt>
      <trkpt lat="45.71484" lon="6.40742">
        <ele>376.97</ele>
        <time>2016-10-03T14:05:54Z</time>
      </trkpt>
      <trkpt lat="45.71374" lon="6.40689">
        <ele>375.05</ele>
        <time>2016-10-03T14:06:11Z</time>
      </trkpt>
      <trkpt lat="45.71254" lon="6.40632">
        <ele>373.13</ele>
        <time>2016-10-03T14:06:29Z</time>
      </trkpt>
      <trkpt lat="45.71118" lon="6.40577">
        <ele>372.65</ele>
        <time>2016-10-03T14:06:50Z</time>
      </trkpt>
      <trkpt lat="45.70991" lon="6.40556">
        <ele>370.24</ele>
        <time>2016-10-03T14:07:08Z</time>
      </trkpt>
      <trkpt lat="45.70941" lon="6.40555">
        <ele>370.24</ele>
        <time>2016-10-03T14:07:15Z</time>
      </trkpt>
      <trkpt lat="45.70817" lon="6.40543">
        <ele>368.8</ele>
        <time>2016-10-03T14:07:32Z</time>
      </trkpt>
      <trkpt lat="45.70697" lon="6.4051">
        <ele>366.88</ele>
        <time>2016-10-03T14:07:49Z</time>
      </trkpt>
      <trkpt lat="45.70588" lon="6.40534">
        <ele>365.92</ele>
        <time>2016-10-03T14:08:04Z</time>
      </trkpt>
      <trkpt lat="45.70468" lon="6.40566">
        <ele>367.84</ele>
        <time>2016-10-03T14:08:22Z</time>
      </trkpt>
      <trkpt lat="45.70375" lon="6.4057">
        <ele>369.28</ele>
        <time>2016-10-03T14:08:41Z</time>
      </trkpt>
      <trkpt lat="45.70355" lon="6.40583">
        <ele>370.73</ele>
        <time>2016-10-03T14:08:49Z</time>
      </trkpt>
      <trkpt lat="45.70355" lon="6.40589">
        <ele>370.24</ele>
        <time>2016-10-03T14:08:50Z</time>
      </trkpt>
      <trkpt lat="45.70355" lon="6.40595">
        <ele>370.24</ele>
        <time>2016-10-03T14:08:51Z</time>
      </trkpt>
      <trkpt lat="45.70351" lon="6.40701">
        <ele>368.32</ele>
        <time>2016-10-03T14:09:06Z</time>
      </trkpt>
      <trkpt lat="45.7035" lon="6.40718">
        <ele>367.36</ele>
        <time>2016-10-03T14:09:08Z</time>
      </trkpt>
      <trkpt lat="45.70349" lon="6.40726">
        <ele>367.84</ele>
        <time>2016-10-03T14:09:09Z</time>
      </trkpt>
      <trkpt lat="45.70346" lon="6.40734">
        <ele>367.84</ele>
        <time>2016-10-03T14:09:10Z</time>
      </trkpt>
      <trkpt lat="45.70343" lon="6.40741">
        <ele>368.32</ele>
        <time>2016-10-03T14:09:11Z</time>
      </trkpt>
      <trkpt lat="45.70339" lon="6.40747">
        <ele>368.32</ele>
        <time>2016-10-03T14:09:12Z</time>
      </trkpt>
      <trkpt lat="45.70334" lon="6.40752">
        <ele>367.84</ele>
        <time>2016-10-03T14:09:13Z</time>
      </trkpt>
      <trkpt lat="45.70328" lon="6.40755">
        <ele>367.84</ele>
        <time>2016-10-03T14:09:14Z</time>
      </trkpt>
      <trkpt lat="45.70323" lon="6.40757">
        <ele>367.36</ele>
        <time>2016-10-03T14:09:15Z</time>
      </trkpt>
      <trkpt lat="45.70317" lon="6.40758">
        <ele>367.36</ele>
        <time>2016-10-03T14:09:16Z</time>
      </trkpt>
      <trkpt lat="45.7031" lon="6.40757">
        <ele>367.36</ele>
        <time>2016-10-03T14:09:17Z</time>
      </trkpt>
      <trkpt lat="45.70304" lon="6.40757">
        <ele>367.84</ele>
        <time>2016-10-03T14:09:18Z</time>
      </trkpt>
      <trkpt lat="45.70297" lon="6.40755">
        <ele>366.4</ele>
        <time>2016-10-03T14:09:19Z</time>
      </trkpt>
      <trkpt lat="45.70202" lon="6.40754">
        <ele>364.48</ele>
        <time>2016-10-03T14:09:32Z</time>
      </trkpt>
      <trkpt lat="45.70088" lon="6.40725">
        <ele>362.07</ele>
        <time>2016-10-03T14:09:47Z</time>
      </trkpt>
      <trkpt lat="45.69973" lon="6.40644">
        <ele>359.67</ele>
        <time>2016-10-03T14:10:03Z</time>
      </trkpt>
      <trkpt lat="45.69865" lon="6.40583">
        <ele>359.19</ele>
        <time>2016-10-03T14:10:19Z</time>
      </trkpt>
      <trkpt lat="45.6974" lon="6.40525">
        <ele>357.75</ele>
        <time>2016-10-03T14:10:38Z</time>
      </trkpt>
      <trkpt lat="45.69687" lon="6.40504">
        <ele>357.27</ele>
        <time>2016-10-03T14:10:46Z</time>
      </trkpt>
      <trkpt lat="45.69648" lon="6.40487">
        <ele>355.83</ele>
        <time>2016-10-03T14:10:52Z</time>
      </trkpt>
      <trkpt lat="45.69551" lon="6.40446">
        <ele>357.75</ele>
        <time>2016-10-03T14:11:08Z</time>
      </trkpt>
      <trkpt lat="45.69479" lon="6.40403">
        <ele>358.71</ele>
        <time>2016-10-03T14:11:23Z</time>
      </trkpt>
      <trkpt lat="45.69475" lon="6.40397">
        <ele>359.67</ele>
        <time>2016-10-03T14:11:24Z</time>
      </trkpt>
      <trkpt lat="45.69472" lon="6.40391">
        <ele>359.19</ele>
        <time>2016-10-03T14:11:25Z</time>
      </trkpt>
      <trkpt lat="45.69443" lon="6.40352">
        <ele>358.23</ele>
        <time>2016-10-03T14:11:32Z</time>
      </trkpt>
      <trkpt lat="45.6939" lon="6.40307">
        <ele>356.79</ele>
        <time>2016-10-03T14:11:42Z</time>
      </trkpt>
      <trkpt lat="45.69383" lon="6.40306">
        <ele>356.31</ele>
        <time>2016-10-03T14:11:43Z</time>
      </trkpt>
      <trkpt lat="45.69377" lon="6.40306">
        <ele>357.27</ele>
        <time>2016-10-03T14:11:44Z</time>
      </trkpt>
      <trkpt lat="45.69371" lon="6.40306">
        <ele>357.27</ele>
        <time>2016-10-03T14:11:45Z</time>
      </trkpt>
      <trkpt lat="45.69364" lon="6.40307">
        <ele>357.27</ele>
        <time>2016-10-03T14:11:46Z</time>
      </trkpt>
      <trkpt lat="45.6932" lon="6.40307">
        <ele>355.83</ele>
        <time>2016-10-03T14:11:53Z</time>
      </trkpt>
      <trkpt lat="45.69314" lon="6.40305">
        <ele>354.86</ele>
        <time>2016-10-03T14:11:54Z</time>
      </trkpt>
      <trkpt lat="45.69309" lon="6.40302">
        <ele>355.34</ele>
        <time>2016-10-03T14:11:55Z</time>
      </trkpt>
      <trkpt lat="45.69305" lon="6.40298">
        <ele>355.83</ele>
        <time>2016-10-03T14:11:56Z</time>
      </trkpt>
      <trkpt lat="45.69302" lon="6.40293">
        <ele>355.83</ele>
        <time>2016-10-03T14:11:57Z</time>
      </trkpt>
      <trkpt lat="45.693" lon="6.40288">
        <ele>356.31</ele>
        <time>2016-10-03T14:11:58Z</time>
      </trkpt>
      <trkpt lat="45.69298" lon="6.40282">
        <ele>356.31</ele>
        <time>2016-10-03T14:11:59Z</time>
      </trkpt>
      <trkpt lat="45.69295" lon="6.40271">
        <ele>356.31</ele>
        <time>2016-10-03T14:12:01Z</time>
      </trkpt>
      <trkpt lat="45.69292" lon="6.40267">
        <ele>355.83</ele>
        <time>2016-10-03T14:12:02Z</time>
      </trkpt>
      <trkpt lat="45.69289" lon="6.40264">
        <ele>355.83</ele>
        <time>2016-10-03T14:12:03Z</time>
      </trkpt>
      <trkpt lat="45.69285" lon="6.40262">
        <ele>355.83</ele>
        <time>2016-10-03T14:12:04Z</time>
      </trkpt>
      <trkpt lat="45.6928" lon="6.40261">
        <ele>356.31</ele>
        <time>2016-10-03T14:12:05Z</time>
      </trkpt>
      <trkpt lat="45.69276" lon="6.4026">
        <ele>356.31</ele>
        <time>2016-10-03T14:12:06Z</time>
      </trkpt>
      <trkpt lat="45.6919" lon="6.40224">
        <ele>354.86</ele>
        <time>2016-10-03T14:12:22Z</time>
      </trkpt>
      <trkpt lat="45.69076" lon="6.40176">
        <ele>354.38</ele>
        <time>2016-10-03T14:12:41Z</time>
      </trkpt>
      <trkpt lat="45.68986" lon="6.40137">
        <ele>355.34</ele>
        <time>2016-10-03T14:12:56Z</time>
      </trkpt>
      <trkpt lat="45.6893" lon="6.40127">
        <ele>354.86</ele>
        <time>2016-10-03T14:13:05Z</time>
      </trkpt>
      <trkpt lat="45.68924" lon="6.40123">
        <ele>354.86</ele>
        <time>2016-10-03T14:13:06Z</time>
      </trkpt>
      <trkpt lat="45.68906" lon="6.40114">
        <ele>354.38</ele>
        <time>2016-10-03T14:13:09Z</time>
      </trkpt>
      <trkpt lat="45.688" lon="6.40065">
        <ele>353.9</ele>
        <time>2016-10-03T14:13:27Z</time>
      </trkpt>
      <trkpt lat="45.68794" lon="6.4006">
        <ele>353.42</ele>
        <time>2016-10-03T14:13:28Z</time>
      </trkpt>
      <trkpt lat="45.68789" lon="6.40054">
        <ele>353.42</ele>
        <time>2016-10-03T14:13:29Z</time>
      </trkpt>
      <trkpt lat="45.68743" lon="6.40003">
        <ele>350.06</ele>
        <time>2016-10-03T14:13:37Z</time>
      </trkpt>
      <trkpt lat="45.68705" lon="6.39975">
        <ele>348.13</ele>
        <time>2016-10-03T14:13:42Z</time>
      </trkpt>
      <trkpt lat="45.68593" lon="6.39905">
        <ele>347.17</ele>
        <time>2016-10-03T14:13:56Z</time>
      </trkpt>
      <trkpt lat="45.68484" lon="6.39832">
        <ele>346.21</ele>
        <time>2016-10-03T14:14:12Z</time>
      </trkpt>
      <trkpt lat="45.6847" lon="6.39823">
        <ele>344.77</ele>
        <time>2016-10-03T14:14:14Z</time>
      </trkpt>
      <trkpt lat="45.68384" lon="6.39773">
        <ele>345.73</ele>
        <time>2016-10-03T14:14:27Z</time>
      </trkpt>
      <trkpt lat="45.68292" lon="6.39724">
        <ele>346.21</ele>
        <time>2016-10-03T14:14:41Z</time>
      </trkpt>
      <trkpt lat="45.68205" lon="6.39666">
        <ele>344.77</ele>
        <time>2016-10-03T14:14:55Z</time>
      </trkpt>
      <trkpt lat="45.6813" lon="6.39622">
        <ele>345.25</ele>
        <time>2016-10-03T14:15:08Z</time>
      </trkpt>
      <trkpt lat="45.68052" lon="6.39606">
        <ele>346.69</ele>
        <time>2016-10-03T14:15:22Z</time>
      </trkpt>
      <trkpt lat="45.67955" lon="6.39568">
        <ele>346.21</ele>
        <time>2016-10-03T14:15:40Z</time>
      </trkpt>
      <trkpt lat="45.67864" lon="6.39535">
        <ele>344.77</ele>
        <time>2016-10-03T14:15:57Z</time>
      </trkpt>
      <trkpt lat="45.67807" lon="6.39526">
        <ele>344.77</ele>
        <time>2016-10-03T14:16:08Z</time>
      </trkpt>
      <trkpt lat="45.67803" lon="6.39527">
        <ele>344.77</ele>
        <time>2016-10-03T14:16:09Z</time>
      </trkpt>
      <trkpt lat="45.67799" lon="6.39529">
        <ele>344.77</ele>
        <time>2016-10-03T14:16:10Z</time>
      </trkpt>
      <trkpt lat="45.67795" lon="6.3953">
        <ele>345.73</ele>
        <time>2016-10-03T14:16:11Z</time>
      </trkpt>
      <trkpt lat="45.67791" lon="6.3953">
        <ele>345.73</ele>
        <time>2016-10-03T14:16:12Z</time>
      </trkpt>
      <trkpt lat="45.67786" lon="6.3953">
        <ele>345.25</ele>
        <time>2016-10-03T14:16:13Z</time>
      </trkpt>
      <trkpt lat="45.67697" lon="6.39508">
        <ele>343.81</ele>
        <time>2016-10-03T14:16:31Z</time>
      </trkpt>
      <trkpt lat="45.67692" lon="6.39507">
        <ele>343.81</ele>
        <time>2016-10-03T14:16:32Z</time>
      </trkpt>
      <trkpt lat="45.67688" lon="6.39507">
        <ele>343.81</ele>
        <time>2016-10-03T14:16:33Z</time>
      </trkpt>
      <trkpt lat="45.67684" lon="6.39507">
        <ele>344.29</ele>
        <time>2016-10-03T14:16:34Z</time>
      </trkpt>
      <trkpt lat="45.6768" lon="6.39506">
        <ele>344.29</ele>
        <time>2016-10-03T14:16:35Z</time>
      </trkpt>
      <trkpt lat="45.67676" lon="6.39504">
        <ele>345.25</ele>
        <time>2016-10-03T14:16:36Z</time>
      </trkpt>
      <trkpt lat="45.67631" lon="6.39491">
        <ele>344.77</ele>
        <time>2016-10-03T14:16:50Z</time>
      </trkpt>
      <trkpt lat="45.67627" lon="6.39486">
        <ele>347.17</ele>
        <time>2016-10-03T14:17:05Z</time>
      </trkpt>
      <trkpt lat="45.67625" lon="6.39484">
        <ele>347.17</ele>
        <time>2016-10-03T14:17:26Z</time>
      </trkpt>
      <trkpt lat="45.67625" lon="6.39483">
        <ele>347.17</ele>
        <time>2016-10-03T14:17:27Z</time>
      </trkpt>
      <trkpt lat="45.67625" lon="6.3948">
        <ele>347.17</ele>
        <time>2016-10-03T14:17:28Z</time>
      </trkpt>
      <trkpt lat="45.67626" lon="6.39477">
        <ele>347.17</ele>
        <time>2016-10-03T14:17:29Z</time>
      </trkpt>
      <trkpt lat="45.67627" lon="6.39474">
        <ele>347.17</ele>
        <time>2016-10-03T14:17:30Z</time>
      </trkpt>
      <trkpt lat="45.67641" lon="6.39408">
        <ele>348.62</ele>
        <time>2016-10-03T14:17:45Z</time>
      </trkpt>
      <trkpt lat="45.67645" lon="6.39378">
        <ele>347.17</ele>
        <time>2016-10-03T14:17:58Z</time>
      </trkpt>
      <trkpt lat="45.67644" lon="6.39381">
        <ele>347.65</ele>
        <time>2016-10-03T14:18:27Z</time>
      </trkpt>
      <trkpt lat="45.67649" lon="6.39358">
        <ele>346.21</ele>
        <time>2016-10-03T14:18:48Z</time>
      </trkpt>
      <trkpt lat="45.6765" lon="6.39338">
        <ele>345.25</ele>
        <time>2016-10-03T14:18:55Z</time>
      </trkpt>
      <trkpt lat="45.67649" lon="6.39335">
        <ele>345.25</ele>
        <time>2016-10-03T14:18:56Z</time>
      </trkpt>
      <trkpt lat="45.6764" lon="6.3933">
        <ele>344.29</ele>
        <time>2016-10-03T14:18:59Z</time>
      </trkpt>
      <trkpt lat="45.67607" lon="6.3932">
        <ele>344.29</ele>
        <time>2016-10-03T14:19:06Z</time>
      </trkpt>
      <trkpt lat="45.67585" lon="6.39306">
        <ele>342.85</ele>
        <time>2016-10-03T14:19:11Z</time>
      </trkpt>
      <trkpt lat="45.67576" lon="6.39301">
        <ele>344.29</ele>
        <time>2016-10-03T14:19:13Z</time>
      </trkpt>
      <trkpt lat="45.67525" lon="6.39279">
        <ele>341.89</ele>
        <time>2016-10-03T14:19:26Z</time>
      </trkpt>
      <trkpt lat="45.67471" lon="6.39265">
        <ele>343.33</ele>
        <time>2016-10-03T14:19:39Z</time>
      </trkpt>
      <trkpt lat="45.67443" lon="6.39256">
        <ele>341.89</ele>
        <time>2016-10-03T14:19:45Z</time>
      </trkpt>
      <trkpt lat="45.67438" lon="6.39254">
        <ele>342.37</ele>
        <time>2016-10-03T14:19:46Z</time>
      </trkpt>
      <trkpt lat="45.67409" lon="6.39246">
        <ele>341.89</ele>
        <time>2016-10-03T14:19:52Z</time>
      </trkpt>
      <trkpt lat="45.67404" lon="6.39245">
        <ele>341.89</ele>
        <time>2016-10-03T14:19:53Z</time>
      </trkpt>
      <trkpt lat="45.67356" lon="6.3923">
        <ele>342.37</ele>
        <time>2016-10-03T14:20:03Z</time>
      </trkpt>
      <trkpt lat="45.67352" lon="6.39228">
        <ele>341.89</ele>
        <time>2016-10-03T14:20:04Z</time>
      </trkpt>
      <trkpt lat="45.67348" lon="6.39225">
        <ele>341.89</ele>
        <time>2016-10-03T14:20:05Z</time>
      </trkpt>
      <trkpt lat="45.67344" lon="6.39222">
        <ele>342.85</ele>
        <time>2016-10-03T14:20:06Z</time>
      </trkpt>
      <trkpt lat="45.6734" lon="6.3922">
        <ele>341.41</ele>
        <time>2016-10-03T14:20:07Z</time>
      </trkpt>
      <trkpt lat="45.67323" lon="6.39206">
        <ele>341.89</ele>
        <time>2016-10-03T14:20:12Z</time>
      </trkpt>
      <trkpt lat="45.67321" lon="6.39201">
        <ele>341.89</ele>
        <time>2016-10-03T14:20:13Z</time>
      </trkpt>
      <trkpt lat="45.67319" lon="6.39195">
        <ele>341.41</ele>
        <time>2016-10-03T14:20:14Z</time>
      </trkpt>
      <trkpt lat="45.67319" lon="6.39188">
        <ele>341.89</ele>
        <time>2016-10-03T14:20:15Z</time>
      </trkpt>
      <trkpt lat="45.67319" lon="6.39182">
        <ele>341.89</ele>
        <time>2016-10-03T14:20:16Z</time>
      </trkpt>
      <trkpt lat="45.6732" lon="6.39175">
        <ele>341.41</ele>
        <time>2016-10-03T14:20:17Z</time>
      </trkpt>
      <trkpt lat="45.67321" lon="6.39162">
        <ele>341.41</ele>
        <time>2016-10-03T14:20:19Z</time>
      </trkpt>
      <trkpt lat="45.67322" lon="6.39155">
        <ele>341.41</ele>
        <time>2016-10-03T14:20:20Z</time>
      </trkpt>
      <trkpt lat="45.67324" lon="6.39149">
        <ele>341.41</ele>
        <time>2016-10-03T14:20:21Z</time>
      </trkpt>
      <trkpt lat="45.67339" lon="6.39063">
        <ele>341.41</ele>
        <time>2016-10-03T14:20:33Z</time>
      </trkpt>
      <trkpt lat="45.67345" lon="6.39031">
        <ele>340.92</ele>
        <time>2016-10-03T14:20:38Z</time>
      </trkpt>
      <trkpt lat="45.67346" lon="6.39025">
        <ele>340.92</ele>
        <time>2016-10-03T14:20:39Z</time>
      </trkpt>
      <trkpt lat="45.67347" lon="6.39019">
        <ele>340.44</ele>
        <time>2016-10-03T14:20:40Z</time>
      </trkpt>
      <trkpt lat="45.67349" lon="6.39014">
        <ele>341.41</ele>
        <time>2016-10-03T14:20:41Z</time>
      </trkpt>
      <trkpt lat="45.67351" lon="6.39009">
        <ele>341.41</ele>
        <time>2016-10-03T14:20:42Z</time>
      </trkpt>
      <trkpt lat="45.67353" lon="6.39004">
        <ele>341.89</ele>
        <time>2016-10-03T14:20:43Z</time>
      </trkpt>
      <trkpt lat="45.67355" lon="6.38999">
        <ele>341.89</ele>
        <time>2016-10-03T14:20:44Z</time>
      </trkpt>
      <trkpt lat="45.67357" lon="6.38994">
        <ele>341.89</ele>
        <time>2016-10-03T14:20:45Z</time>
      </trkpt>
      <trkpt lat="45.67359" lon="6.38989">
        <ele>341.89</ele>
        <time>2016-10-03T14:20:46Z</time>
      </trkpt>
      <trkpt lat="45.67361" lon="6.38984">
        <ele>341.41</ele>
        <time>2016-10-03T14:20:47Z</time>
      </trkpt>
      <trkpt lat="45.67362" lon="6.38978">
        <ele>341.89</ele>
        <time>2016-10-03T14:20:48Z</time>
      </trkpt>
      <trkpt lat="45.67365" lon="6.38973">
        <ele>341.89</ele>
        <time>2016-10-03T14:20:49Z</time>
      </trkpt>
      <trkpt lat="45.67368" lon="6.38967">
        <ele>341.41</ele>
        <time>2016-10-03T14:20:50Z</time>
      </trkpt>
      <trkpt lat="45.67406" lon="6.38887">
        <ele>341.41</ele>
        <time>2016-10-03T14:21:05Z</time>
      </trkpt>
      <trkpt lat="45.67422" lon="6.3886">
        <ele>340.44</ele>
        <time>2016-10-03T14:21:11Z</time>
      </trkpt>
      <trkpt lat="45.67424" lon="6.38855">
        <ele>341.41</ele>
        <time>2016-10-03T14:21:12Z</time>
      </trkpt>
      <trkpt lat="45.67437" lon="6.38835">
        <ele>340.92</ele>
        <time>2016-10-03T14:21:17Z</time>
      </trkpt>
      <trkpt lat="45.6744" lon="6.38835">
        <ele>341.41</ele>
        <time>2016-10-03T14:21:18Z</time>
      </trkpt>
      <trkpt lat="45.67443" lon="6.38836">
        <ele>340.92</ele>
        <time>2016-10-03T14:21:19Z</time>
      </trkpt>
      <trkpt lat="45.67447" lon="6.38838">
        <ele>340.92</ele>
        <time>2016-10-03T14:21:20Z</time>
      </trkpt>
      <trkpt lat="45.67449" lon="6.3884">
        <ele>340.92</ele>
        <time>2016-10-03T14:21:21Z</time>
      </trkpt>
      <trkpt lat="45.67452" lon="6.38843">
        <ele>340.44</ele>
        <time>2016-10-03T14:21:22Z</time>
      </trkpt>
      <trkpt lat="45.67455" lon="6.38846">
        <ele>340.44</ele>
        <time>2016-10-03T14:21:23Z</time>
      </trkpt>
      <trkpt lat="45.67499" lon="6.38873">
        <ele>341.41</ele>
        <time>2016-10-03T14:21:35Z</time>
      </trkpt>
      <trkpt lat="45.67503" lon="6.38876">
        <ele>340.92</ele>
        <time>2016-10-03T14:21:36Z</time>
      </trkpt>
      <trkpt lat="45.67529" lon="6.38907">
        <ele>341.89</ele>
        <time>2016-10-03T14:21:44Z</time>
      </trkpt>
      <trkpt lat="45.67533" lon="6.38911">
        <ele>342.37</ele>
        <time>2016-10-03T14:21:45Z</time>
      </trkpt>
      <trkpt lat="45.67537" lon="6.38915">
        <ele>342.37</ele>
        <time>2016-10-03T14:21:46Z</time>
      </trkpt>
      <trkpt lat="45.67543" lon="6.38924">
        <ele>341.41</ele>
        <time>2016-10-03T14:21:48Z</time>
      </trkpt>
      <trkpt lat="45.67547" lon="6.38927">
        <ele>341.41</ele>
        <time>2016-10-03T14:21:49Z</time>
      </trkpt>
      <trkpt lat="45.67551" lon="6.38931">
        <ele>341.41</ele>
        <time>2016-10-03T14:21:50Z</time>
      </trkpt>
      <trkpt lat="45.67557" lon="6.38939">
        <ele>341.41</ele>
        <time>2016-10-03T14:21:52Z</time>
      </trkpt>
      <trkpt lat="45.6756" lon="6.38943">
        <ele>341.89</ele>
        <time>2016-10-03T14:21:53Z</time>
      </trkpt>
      <trkpt lat="45.67562" lon="6.38948">
        <ele>341.41</ele>
        <time>2016-10-03T14:21:54Z</time>
      </trkpt>
      <trkpt lat="45.67565" lon="6.38952">
        <ele>341.41</ele>
        <time>2016-10-03T14:21:55Z</time>
      </trkpt>
      <trkpt lat="45.67568" lon="6.38955">
        <ele>340.92</ele>
        <time>2016-10-03T14:21:56Z</time>
      </trkpt>
      <trkpt lat="45.67597" lon="6.38992">
        <ele>341.89</ele>
        <time>2016-10-03T14:22:06Z</time>
      </trkpt>
      <trkpt lat="45.67617" lon="6.39015">
        <ele>341.41</ele>
        <time>2016-10-03T14:22:12Z</time>
      </trkpt>
      <trkpt lat="45.67629" lon="6.39028">
        <ele>341.89</ele>
        <time>2016-10-03T14:22:15Z</time>
      </trkpt>
      <trkpt lat="45.67632" lon="6.39032">
        <ele>342.37</ele>
        <time>2016-10-03T14:22:16Z</time>
      </trkpt>
      <trkpt lat="45.67637" lon="6.39039">
        <ele>342.37</ele>
        <time>2016-10-03T14:22:18Z</time>
      </trkpt>
      <trkpt lat="45.67638" lon="6.39044">
        <ele>341.89</ele>
        <time>2016-10-03T14:22:19Z</time>
      </trkpt>
      <trkpt lat="45.6764" lon="6.39057">
        <ele>342.85</ele>
        <time>2016-10-03T14:22:24Z</time>
      </trkpt>
      <trkpt lat="45.6764" lon="6.39058">
        <ele>342.37</ele>
        <time>2016-10-03T14:22:25Z</time>
      </trkpt>
      <trkpt lat="45.6763" lon="6.39051">
        <ele>342.37</ele>
        <time>2016-10-03T14:22:39Z</time>
      </trkpt>
      <trkpt lat="45.67632" lon="6.39045">
        <ele>342.85</ele>
        <time>2016-10-03T14:22:51Z</time>
      </trkpt>
      <trkpt lat="45.67635" lon="6.39045">
        <ele>342.85</ele>
        <time>2016-10-03T14:23:05Z</time>
      </trkpt>
      <trkpt lat="45.67637" lon="6.39044">
        <ele>343.33</ele>
        <time>2016-10-03T14:23:23Z</time>
      </trkpt>
      <trkpt lat="45.6764" lon="6.39038">
        <ele>343.81</ele>
        <time>2016-10-03T14:23:49Z</time>
      </trkpt>
      <trkpt lat="45.67641" lon="6.39037">
        <ele>343.81</ele>
        <time>2016-10-03T14:24:13Z</time>
      </trkpt>
      <trkpt lat="45.6764" lon="6.39035">
        <ele>344.29</ele>
        <time>2016-10-03T14:24:42Z</time>
      </trkpt>
      <trkpt lat="45.6764" lon="6.39034">
        <ele>344.77</ele>
        <time>2016-10-03T14:25:06Z</time>
      </trkpt>
      <trkpt lat="45.67641" lon="6.39038">
        <ele>345.25</ele>
        <time>2016-10-03T14:25:35Z</time>
      </trkpt>
      <trkpt lat="45.67639" lon="6.39036">
        <ele>345.25</ele>
        <time>2016-10-03T14:25:53Z</time>
      </trkpt>
      <trkpt lat="45.67645" lon="6.39033">
        <ele>345.73</ele>
        <time>2016-10-03T14:26:19Z</time>
      </trkpt>
      <trkpt lat="45.67638" lon="6.39028">
        <ele>345.73</ele>
        <time>2016-10-03T14:26:45Z</time>
      </trkpt>
      <trkpt lat="45.67634" lon="6.39029">
        <ele>346.21</ele>
        <time>2016-10-03T14:27:07Z</time>
      </trkpt>
      <trkpt lat="45.67637" lon="6.39034">
        <ele>346.69</ele>
        <time>2016-10-03T14:27:28Z</time>
      </trkpt>
      <trkpt lat="45.67634" lon="6.39034">
        <ele>346.69</ele>
        <time>2016-10-03T14:27:53Z</time>
      </trkpt>
      <trkpt lat="45.67637" lon="6.39028">
        <ele>347.17</ele>
        <time>2016-10-03T14:28:14Z</time>
      </trkpt>
      <trkpt lat="45.67641" lon="6.39032">
        <ele>347.65</ele>
        <time>2016-10-03T14:28:38Z</time>
      </trkpt>
      <trkpt lat="45.67646" lon="6.39031">
        <ele>347.65</ele>
        <time>2016-10-03T14:28:59Z</time>
      </trkpt>
      <trkpt lat="45.67642" lon="6.39029">
        <ele>348.13</ele>
        <time>2016-10-03T14:29:21Z</time>
      </trkpt>
      <trkpt lat="45.67631" lon="6.39034">
        <ele>349.1</ele>
        <time>2016-10-03T14:29:49Z</time>
      </trkpt>
      <trkpt lat="45.67628" lon="6.39044">
        <ele>349.58</ele>
        <time>2016-10-03T14:30:30Z</time>
      </trkpt>
      <trkpt lat="45.67633" lon="6.39034">
        <ele>350.06</ele>
        <time>2016-10-03T14:31:03Z</time>
      </trkpt>
      <trkpt lat="45.6763" lon="6.39032">
        <ele>350.54</ele>
        <time>2016-10-03T14:31:30Z</time>
      </trkpt>
      <trkpt lat="45.67634" lon="6.3903">
        <ele>351.02</ele>
        <time>2016-10-03T14:32:00Z</time>
      </trkpt>
      <trkpt lat="45.67638" lon="6.39034">
        <ele>351.5</ele>
        <time>2016-10-03T14:32:30Z</time>
      </trkpt>
      <trkpt lat="45.67638" lon="6.3904">
        <ele>351.98</ele>
        <time>2016-10-03T14:33:01Z</time>
      </trkpt>
      <trkpt lat="45.67639" lon="6.39034">
        <ele>351.98</ele>
        <time>2016-10-03T14:33:32Z</time>
      </trkpt>
      <trkpt lat="45.67638" lon="6.39038">
        <ele>352.94</ele>
        <time>2016-10-03T14:34:08Z</time>
      </trkpt>
      <trkpt lat="45.67634" lon="6.39036">
        <ele>352.94</ele>
        <time>2016-10-03T14:34:41Z</time>
      </trkpt>
      <trkpt lat="45.67632" lon="6.39042">
        <ele>353.9</ele>
        <time>2016-10-03T14:35:12Z</time>
      </trkpt>
      <trkpt lat="45.67632" lon="6.39043">
        <ele>354.38</ele>
        <time>2016-10-03T14:35:41Z</time>
      </trkpt>
      <trkpt lat="45.67622" lon="6.39043">
        <ele>354.86</ele>
        <time>2016-10-03T14:36:10Z</time>
      </trkpt>
      <trkpt lat="45.6763" lon="6.39041">
        <ele>355.34</ele>
        <time>2016-10-03T14:36:45Z</time>
      </trkpt>
      <trkpt lat="45.67629" lon="6.39038">
        <ele>356.79</ele>
        <time>2016-10-03T14:37:18Z</time>
      </trkpt>
      <trkpt lat="45.67628" lon="6.39046">
        <ele>357.27</ele>
        <time>2016-10-03T14:37:44Z</time>
      </trkpt>
      <trkpt lat="45.67631" lon="6.3904">
        <ele>357.75</ele>
        <time>2016-10-03T14:38:18Z</time>
      </trkpt>
      <trkpt lat="45.67629" lon="6.39039">
        <ele>357.75</ele>
        <time>2016-10-03T14:38:44Z</time>
      </trkpt>
      <trkpt lat="45.67627" lon="6.39045">
        <ele>358.23</ele>
        <time>2016-10-03T14:39:19Z</time>
      </trkpt>
      <trkpt lat="45.67626" lon="6.39043">
        <ele>358.23</ele>
        <time>2016-10-03T14:39:49Z</time>
      </trkpt>
      <trkpt lat="45.67625" lon="6.39046">
        <ele>358.71</ele>
        <time>2016-10-03T14:40:17Z</time>
      </trkpt>
      <trkpt lat="45.67625" lon="6.39052">
        <ele>359.67</ele>
        <time>2016-10-03T14:40:49Z</time>
      </trkpt>
      <trkpt lat="45.67625" lon="6.39054">
        <ele>359.67</ele>
        <time>2016-10-03T14:41:23Z</time>
      </trkpt>
      <trkpt lat="45.67622" lon="6.39065">
        <ele>360.15</ele>
        <time>2016-10-03T14:41:51Z</time>
      </trkpt>
      <trkpt lat="45.67626" lon="6.39056">
        <ele>360.15</ele>
        <time>2016-10-03T14:42:23Z</time>
      </trkpt>
      <trkpt lat="45.67623" lon="6.3905">
        <ele>360.63</ele>
        <time>2016-10-03T14:42:42Z</time>
      </trkpt>
      <trkpt lat="45.67626" lon="6.39044">
        <ele>361.11</ele>
        <time>2016-10-03T14:42:55Z</time>
      </trkpt>
      <trkpt lat="45.67635" lon="6.39038">
        <ele>361.11</ele>
        <time>2016-10-03T14:43:04Z</time>
      </trkpt>
      <trkpt lat="45.67636" lon="6.39038">
        <ele>361.11</ele>
        <time>2016-10-03T14:43:05Z</time>
      </trkpt>
      <trkpt lat="45.67638" lon="6.39038">
        <ele>361.11</ele>
        <time>2016-10-03T14:43:07Z</time>
      </trkpt>
      <trkpt lat="45.6764" lon="6.3904">
        <ele>360.63</ele>
        <time>2016-10-03T14:43:08Z</time>
      </trkpt>
      <trkpt lat="45.67642" lon="6.39039">
        <ele>360.63</ele>
        <time>2016-10-03T14:43:09Z</time>
      </trkpt>
      <trkpt lat="45.67659" lon="6.39054">
        <ele>361.11</ele>
        <time>2016-10-03T14:43:19Z</time>
      </trkpt>
      <trkpt lat="45.6768" lon="6.39076">
        <ele>361.59</ele>
        <time>2016-10-03T14:43:28Z</time>
      </trkpt>
      <trkpt lat="45.67684" lon="6.39081">
        <ele>361.59</ele>
        <time>2016-10-03T14:43:31Z</time>
      </trkpt>
      <trkpt lat="45.67685" lon="6.39083">
        <ele>362.07</ele>
        <time>2016-10-03T14:43:32Z</time>
      </trkpt>
      <trkpt lat="45.67687" lon="6.39086">
        <ele>362.07</ele>
        <time>2016-10-03T14:43:33Z</time>
      </trkpt>
      <trkpt lat="45.67726" lon="6.39141">
        <ele>361.59</ele>
        <time>2016-10-03T14:43:46Z</time>
      </trkpt>
      <trkpt lat="45.67756" lon="6.39178">
        <ele>362.07</ele>
        <time>2016-10-03T14:43:58Z</time>
      </trkpt>
      <trkpt lat="45.67779" lon="6.3921">
        <ele>362.07</ele>
        <time>2016-10-03T14:44:09Z</time>
      </trkpt>
      <trkpt lat="45.67805" lon="6.39255">
        <ele>362.55</ele>
        <time>2016-10-03T14:44:22Z</time>
      </trkpt>
      <trkpt lat="45.67822" lon="6.3928">
        <ele>363.04</ele>
        <time>2016-10-03T14:44:31Z</time>
      </trkpt>
      <trkpt lat="45.67822" lon="6.39282">
        <ele>363.52</ele>
        <time>2016-10-03T14:44:32Z</time>
      </trkpt>
      <trkpt lat="45.67822" lon="6.39285">
        <ele>363.52</ele>
        <time>2016-10-03T14:44:33Z</time>
      </trkpt>
      <trkpt lat="45.67822" lon="6.39287">
        <ele>363.52</ele>
        <time>2016-10-03T14:44:34Z</time>
      </trkpt>
      <trkpt lat="45.67821" lon="6.39289">
        <ele>363.52</ele>
        <time>2016-10-03T14:44:35Z</time>
      </trkpt>
      <trkpt lat="45.6782" lon="6.39291">
        <ele>363.52</ele>
        <time>2016-10-03T14:44:36Z</time>
      </trkpt>
      <trkpt lat="45.67818" lon="6.39294">
        <ele>363.04</ele>
        <time>2016-10-03T14:44:37Z</time>
      </trkpt>
      <trkpt lat="45.67816" lon="6.39302">
        <ele>363.52</ele>
        <time>2016-10-03T14:44:41Z</time>
      </trkpt>
      <trkpt lat="45.67816" lon="6.3934">
        <ele>364.48</ele>
        <time>2016-10-03T14:44:51Z</time>
      </trkpt>
      <trkpt lat="45.67813" lon="6.39345">
        <ele>364</ele>
        <time>2016-10-03T14:44:53Z</time>
      </trkpt>
      <trkpt lat="45.6781" lon="6.39346">
        <ele>364</ele>
        <time>2016-10-03T14:44:54Z</time>
      </trkpt>
      <trkpt lat="45.67809" lon="6.39349">
        <ele>364.48</ele>
        <time>2016-10-03T14:44:55Z</time>
      </trkpt>
      <trkpt lat="45.67807" lon="6.39373">
        <ele>364.96</ele>
        <time>2016-10-03T14:45:03Z</time>
      </trkpt>
      <trkpt lat="45.67806" lon="6.39374">
        <ele>364.96</ele>
        <time>2016-10-03T14:45:04Z</time>
      </trkpt>
      <trkpt lat="45.67804" lon="6.39375">
        <ele>364.96</ele>
        <time>2016-10-03T14:45:05Z</time>
      </trkpt>
      <trkpt lat="45.67802" lon="6.39375">
        <ele>364.48</ele>
        <time>2016-10-03T14:45:06Z</time>
      </trkpt>
      <trkpt lat="45.678" lon="6.39375">
        <ele>363.52</ele>
        <time>2016-10-03T14:45:07Z</time>
      </trkpt>
      <trkpt lat="45.67758" lon="6.39366">
        <ele>364.48</ele>
        <time>2016-10-03T14:45:20Z</time>
      </trkpt>
      <trkpt lat="45.67689" lon="6.39342">
        <ele>364</ele>
        <time>2016-10-03T14:45:37Z</time>
      </trkpt>
      <trkpt lat="45.67664" lon="6.39332">
        <ele>364</ele>
        <time>2016-10-03T14:45:50Z</time>
      </trkpt>
      <trkpt lat="45.67664" lon="6.3933">
        <ele>364</ele>
        <time>2016-10-03T14:46:14Z</time>
      </trkpt>
      <trkpt lat="45.67664" lon="6.39323">
        <ele>364</ele>
        <time>2016-10-03T14:46:31Z</time>
      </trkpt>
      <trkpt lat="45.67662" lon="6.39323">
        <ele>364</ele>
        <time>2016-10-03T14:46:32Z</time>
      </trkpt>
      <trkpt lat="45.6766" lon="6.39323">
        <ele>364</ele>
        <time>2016-10-03T14:46:33Z</time>
      </trkpt>
      <trkpt lat="45.67648" lon="6.39322">
        <ele>363.52</ele>
        <time>2016-10-03T14:46:37Z</time>
      </trkpt>
      <trkpt lat="45.67645" lon="6.39323">
        <ele>363.52</ele>
        <time>2016-10-03T14:46:38Z</time>
      </trkpt>
      <trkpt lat="45.67643" lon="6.39325">
        <ele>364</ele>
        <time>2016-10-03T14:46:39Z</time>
      </trkpt>
      <trkpt lat="45.67641" lon="6.39328">
        <ele>363.52</ele>
        <time>2016-10-03T14:46:40Z</time>
      </trkpt>
      <trkpt lat="45.67639" lon="6.3933">
        <ele>363.52</ele>
        <time>2016-10-03T14:46:41Z</time>
      </trkpt>
      <trkpt lat="45.67631" lon="6.39373">
        <ele>365.92</ele>
        <time>2016-10-03T14:46:52Z</time>
      </trkpt>
      <trkpt lat="45.67624" lon="6.39457">
        <ele>365.92</ele>
        <time>2016-10-03T14:47:08Z</time>
      </trkpt>
      <trkpt lat="45.67608" lon="6.39509">
        <ele>364</ele>
        <time>2016-10-03T14:47:21Z</time>
      </trkpt>
      <trkpt lat="45.67586" lon="6.39527">
        <ele>363.04</ele>
        <time>2016-10-03T14:47:32Z</time>
      </trkpt>
      <trkpt lat="45.67559" lon="6.3956">
        <ele>364.48</ele>
        <time>2016-10-03T14:47:44Z</time>
      </trkpt>
      <trkpt lat="45.67546" lon="6.3958">
        <ele>366.4</ele>
        <time>2016-10-03T14:47:57Z</time>
      </trkpt>
      <trkpt lat="45.67533" lon="6.39616">
        <ele>369.28</ele>
        <time>2016-10-03T14:48:14Z</time>
      </trkpt>
      <trkpt lat="45.67533" lon="6.39619">
        <ele>369.28</ele>
        <time>2016-10-03T14:48:15Z</time>
      </trkpt>
      <trkpt lat="45.67532" lon="6.39621">
        <ele>369.76</ele>
        <time>2016-10-03T14:48:16Z</time>
      </trkpt>
      <trkpt lat="45.67532" lon="6.39623">
        <ele>369.76</ele>
        <time>2016-10-03T14:48:17Z</time>
      </trkpt>
      <trkpt lat="45.67531" lon="6.39625">
        <ele>370.24</ele>
        <time>2016-10-03T14:48:18Z</time>
      </trkpt>
      <trkpt lat="45.6753" lon="6.39627">
        <ele>369.76</ele>
        <time>2016-10-03T14:48:19Z</time>
      </trkpt>
      <trkpt lat="45.67529" lon="6.39629">
        <ele>370.24</ele>
        <time>2016-10-03T14:48:20Z</time>
      </trkpt>
      <trkpt lat="45.67528" lon="6.39631">
        <ele>369.76</ele>
        <time>2016-10-03T14:48:21Z</time>
      </trkpt>
      <trkpt lat="45.67527" lon="6.39632">
        <ele>370.24</ele>
        <time>2016-10-03T14:48:22Z</time>
      </trkpt>
      <trkpt lat="45.67515" lon="6.3966">
        <ele>373.13</ele>
        <time>2016-10-03T14:48:38Z</time>
      </trkpt>
      <trkpt lat="45.67514" lon="6.39663">
        <ele>373.61</ele>
        <time>2016-10-03T14:48:40Z</time>
      </trkpt>
      <trkpt lat="45.67504" lon="6.39677">
        <ele>375.53</ele>
        <time>2016-10-03T14:48:50Z</time>
      </trkpt>
      <trkpt lat="45.67502" lon="6.39682">
        <ele>376.01</ele>
        <time>2016-10-03T14:48:53Z</time>
      </trkpt>
      <trkpt lat="45.67501" lon="6.39683">
        <ele>375.53</ele>
        <time>2016-10-03T14:48:54Z</time>
      </trkpt>
      <trkpt lat="45.67482" lon="6.39699">
        <ele>377.94</ele>
        <time>2016-10-03T14:49:10Z</time>
      </trkpt>
      <trkpt lat="45.6746" lon="6.397">
        <ele>381.3</ele>
        <time>2016-10-03T14:49:26Z</time>
      </trkpt>
      <trkpt lat="45.67457" lon="6.39701">
        <ele>381.78</ele>
        <time>2016-10-03T14:49:28Z</time>
      </trkpt>
      <trkpt lat="45.67456" lon="6.39702">
        <ele>381.78</ele>
        <time>2016-10-03T14:49:29Z</time>
      </trkpt>
      <trkpt lat="45.67455" lon="6.39702">
        <ele>381.3</ele>
        <time>2016-10-03T14:49:30Z</time>
      </trkpt>
      <trkpt lat="45.67439" lon="6.3971">
        <ele>384.66</ele>
        <time>2016-10-03T14:49:44Z</time>
      </trkpt>
      <trkpt lat="45.67417" lon="6.39714">
        <ele>387.07</ele>
        <time>2016-10-03T14:50:02Z</time>
      </trkpt>
      <trkpt lat="45.67416" lon="6.39714">
        <ele>387.55</ele>
        <time>2016-10-03T14:50:03Z</time>
      </trkpt>
      <trkpt lat="45.67414" lon="6.39714">
        <ele>387.07</ele>
        <time>2016-10-03T14:50:04Z</time>
      </trkpt>
      <trkpt lat="45.67413" lon="6.39714">
        <ele>387.55</ele>
        <time>2016-10-03T14:50:05Z</time>
      </trkpt>
      <trkpt lat="45.67411" lon="6.39714">
        <ele>388.03</ele>
        <time>2016-10-03T14:50:06Z</time>
      </trkpt>
      <trkpt lat="45.6741" lon="6.39714">
        <ele>388.51</ele>
        <time>2016-10-03T14:50:07Z</time>
      </trkpt>
      <trkpt lat="45.67408" lon="6.39713">
        <ele>388.51</ele>
        <time>2016-10-03T14:50:08Z</time>
      </trkpt>
      <trkpt lat="45.67407" lon="6.39713">
        <ele>387.55</ele>
        <time>2016-10-03T14:50:09Z</time>
      </trkpt>
      <trkpt lat="45.67396" lon="6.3971">
        <ele>388.99</ele>
        <time>2016-10-03T14:50:17Z</time>
      </trkpt>
      <trkpt lat="45.67395" lon="6.3971">
        <ele>388.99</ele>
        <time>2016-10-03T14:50:18Z</time>
      </trkpt>
      <trkpt lat="45.67394" lon="6.39709">
        <ele>389.47</ele>
        <time>2016-10-03T14:50:19Z</time>
      </trkpt>
      <trkpt lat="45.67393" lon="6.3971">
        <ele>388.99</ele>
        <time>2016-10-03T14:50:20Z</time>
      </trkpt>
      <trkpt lat="45.67392" lon="6.3971">
        <ele>388.99</ele>
        <time>2016-10-03T14:50:21Z</time>
      </trkpt>
      <trkpt lat="45.6739" lon="6.39711">
        <ele>388.99</ele>
        <time>2016-10-03T14:50:22Z</time>
      </trkpt>
      <trkpt lat="45.67389" lon="6.39712">
        <ele>389.47</ele>
        <time>2016-10-03T14:50:23Z</time>
      </trkpt>
      <trkpt lat="45.67388" lon="6.39712">
        <ele>390.43</ele>
        <time>2016-10-03T14:50:24Z</time>
      </trkpt>
      <trkpt lat="45.67387" lon="6.39713">
        <ele>389.95</ele>
        <time>2016-10-03T14:50:25Z</time>
      </trkpt>
      <trkpt lat="45.67386" lon="6.39713">
        <ele>389.95</ele>
        <time>2016-10-03T14:50:26Z</time>
      </trkpt>
      <trkpt lat="45.67385" lon="6.39714">
        <ele>389.95</ele>
        <time>2016-10-03T14:50:27Z</time>
      </trkpt>
      <trkpt lat="45.67373" lon="6.39718">
        <ele>390.91</ele>
        <time>2016-10-03T14:50:37Z</time>
      </trkpt>
      <trkpt lat="45.67348" lon="6.39722">
        <ele>393.8</ele>
        <time>2016-10-03T14:50:56Z</time>
      </trkpt>
      <trkpt lat="45.67334" lon="6.39711">
        <ele>395.24</ele>
        <time>2016-10-03T14:51:09Z</time>
      </trkpt>
      <trkpt lat="45.67322" lon="6.39695">
        <ele>397.64</ele>
        <time>2016-10-03T14:51:23Z</time>
      </trkpt>
      <trkpt lat="45.67309" lon="6.39677">
        <ele>401.01</ele>
        <time>2016-10-03T14:51:37Z</time>
      </trkpt>
      <trkpt lat="45.67308" lon="6.39675">
        <ele>401.01</ele>
        <time>2016-10-03T14:51:38Z</time>
      </trkpt>
      <trkpt lat="45.67289" lon="6.3965">
        <ele>402.93</ele>
        <time>2016-10-03T14:51:57Z</time>
      </trkpt>
      <trkpt lat="45.67267" lon="6.39641">
        <ele>406.29</ele>
        <time>2016-10-03T14:52:13Z</time>
      </trkpt>
      <trkpt lat="45.67245" lon="6.39647">
        <ele>408.7</ele>
        <time>2016-10-03T14:52:28Z</time>
      </trkpt>
      <trkpt lat="45.67242" lon="6.39653">
        <ele>408.7</ele>
        <time>2016-10-03T14:52:33Z</time>
      </trkpt>
      <trkpt lat="45.67241" lon="6.39654">
        <ele>409.66</ele>
        <time>2016-10-03T14:52:34Z</time>
      </trkpt>
      <trkpt lat="45.6724" lon="6.39656">
        <ele>409.18</ele>
        <time>2016-10-03T14:52:35Z</time>
      </trkpt>
      <trkpt lat="45.67241" lon="6.39658">
        <ele>409.66</ele>
        <time>2016-10-03T14:52:36Z</time>
      </trkpt>
      <trkpt lat="45.67241" lon="6.3966">
        <ele>409.66</ele>
        <time>2016-10-03T14:52:37Z</time>
      </trkpt>
      <trkpt lat="45.67241" lon="6.39663">
        <ele>410.14</ele>
        <time>2016-10-03T14:52:38Z</time>
      </trkpt>
      <trkpt lat="45.67244" lon="6.39692">
        <ele>412.54</ele>
        <time>2016-10-03T14:52:53Z</time>
      </trkpt>
      <trkpt lat="45.67249" lon="6.39723">
        <ele>414.95</ele>
        <time>2016-10-03T14:53:10Z</time>
      </trkpt>
      <trkpt lat="45.6725" lon="6.39729">
        <ele>414.95</ele>
        <time>2016-10-03T14:53:13Z</time>
      </trkpt>
      <trkpt lat="45.6725" lon="6.39731">
        <ele>415.43</ele>
        <time>2016-10-03T14:53:14Z</time>
      </trkpt>
      <trkpt lat="45.67245" lon="6.39734">
        <ele>415.91</ele>
        <time>2016-10-03T14:53:29Z</time>
      </trkpt>
      <trkpt lat="45.67244" lon="6.39737">
        <ele>416.39</ele>
        <time>2016-10-03T14:53:57Z</time>
      </trkpt>
      <trkpt lat="45.67241" lon="6.39739">
        <ele>417.35</ele>
        <time>2016-10-03T14:54:00Z</time>
      </trkpt>
      <trkpt lat="45.6724" lon="6.3974">
        <ele>416.87</ele>
        <time>2016-10-03T14:54:01Z</time>
      </trkpt>
      <trkpt lat="45.67236" lon="6.39749">
        <ele>417.35</ele>
        <time>2016-10-03T14:54:07Z</time>
      </trkpt>
      <trkpt lat="45.67235" lon="6.39749">
        <ele>417.35</ele>
        <time>2016-10-03T14:54:08Z</time>
      </trkpt>
      <trkpt lat="45.67234" lon="6.39751">
        <ele>417.83</ele>
        <time>2016-10-03T14:54:09Z</time>
      </trkpt>
      <trkpt lat="45.67232" lon="6.39752">
        <ele>417.83</ele>
        <time>2016-10-03T14:54:10Z</time>
      </trkpt>
      <trkpt lat="45.67231" lon="6.39753">
        <ele>417.83</ele>
        <time>2016-10-03T14:54:11Z</time>
      </trkpt>
      <trkpt lat="45.67229" lon="6.39756">
        <ele>418.31</ele>
        <time>2016-10-03T14:54:13Z</time>
      </trkpt>
      <trkpt lat="45.67224" lon="6.3976">
        <ele>418.79</ele>
        <time>2016-10-03T14:54:17Z</time>
      </trkpt>
      <trkpt lat="45.67215" lon="6.39772">
        <ele>420.23</ele>
        <time>2016-10-03T14:54:30Z</time>
      </trkpt>
      <trkpt lat="45.67209" lon="6.39767">
        <ele>420.23</ele>
        <time>2016-10-03T14:54:41Z</time>
      </trkpt>
      <trkpt lat="45.67215" lon="6.39765">
        <ele>420.71</ele>
        <time>2016-10-03T14:55:01Z</time>
      </trkpt>
      <trkpt lat="45.67213" lon="6.39756">
        <ele>420.23</ele>
        <time>2016-10-03T14:55:36Z</time>
      </trkpt>
      <trkpt lat="45.67214" lon="6.39759">
        <ele>420.71</ele>
        <time>2016-10-03T14:55:58Z</time>
      </trkpt>
      <trkpt lat="45.67218" lon="6.39759">
        <ele>420.23</ele>
        <time>2016-10-03T14:56:20Z</time>
      </trkpt>
      <trkpt lat="45.67221" lon="6.3976">
        <ele>420.23</ele>
        <time>2016-10-03T14:56:36Z</time>
      </trkpt>
      <trkpt lat="45.67221" lon="6.39754">
        <ele>422.16</ele>
        <time>2016-10-03T14:56:51Z</time>
      </trkpt>
      <trkpt lat="45.67221" lon="6.39752">
        <ele>420.71</ele>
        <time>2016-10-03T14:56:54Z</time>
      </trkpt>
      <trkpt lat="45.67214" lon="6.39757">
        <ele>420.71</ele>
        <time>2016-10-03T14:57:13Z</time>
      </trkpt>
      <trkpt lat="45.67213" lon="6.39765">
        <ele>420.71</ele>
        <time>2016-10-03T14:57:23Z</time>
      </trkpt>
      <trkpt lat="45.67214" lon="6.39773">
        <ele>421.68</ele>
        <time>2016-10-03T14:57:44Z</time>
      </trkpt>
      <trkpt lat="45.67216" lon="6.39776">
        <ele>425.04</ele>
        <time>2016-10-03T14:57:58Z</time>
      </trkpt>
      <trkpt lat="45.6722" lon="6.39778">
        <ele>427.44</ele>
        <time>2016-10-03T14:58:12Z</time>
      </trkpt>
      <trkpt lat="45.67221" lon="6.39779">
        <ele>421.68</ele>
        <time>2016-10-03T14:58:19Z</time>
      </trkpt>
      <trkpt lat="45.67221" lon="6.39778">
        <ele>423.6</ele>
        <time>2016-10-03T14:58:20Z</time>
      </trkpt>
      <trkpt lat="45.67221" lon="6.39778">
        <ele>429.37</ele>
        <time>2016-10-03T14:58:21Z</time>
      </trkpt>
      <trkpt lat="45.67221" lon="6.39778">
        <ele>425.04</ele>
        <time>2016-10-03T14:58:22Z</time>
      </trkpt>
      <trkpt lat="45.67222" lon="6.39779">
        <ele>430.33</ele>
        <time>2016-10-03T14:58:23Z</time>
      </trkpt>
      <trkpt lat="45.67222" lon="6.39779">
        <ele>430.81</ele>
        <time>2016-10-03T14:58:24Z</time>
      </trkpt>
      <trkpt lat="45.67222" lon="6.39781">
        <ele>426.48</ele>
        <time>2016-10-03T14:58:26Z</time>
      </trkpt>
      <trkpt lat="45.67222" lon="6.39781">
        <ele>428.4</ele>
        <time>2016-10-03T14:58:27Z</time>
      </trkpt>
      <trkpt lat="45.67222" lon="6.39781">
        <ele>438.02</ele>
        <time>2016-10-03T14:58:28Z</time>
      </trkpt>
      <trkpt lat="45.67222" lon="6.39783">
        <ele>431.29</ele>
        <time>2016-10-03T14:58:29Z</time>
      </trkpt>
      <trkpt lat="45.67222" lon="6.39784">
        <ele>427.44</ele>
        <time>2016-10-03T14:58:31Z</time>
      </trkpt>
      <trkpt lat="45.67222" lon="6.39784">
        <ele>428.89</ele>
        <time>2016-10-03T14:58:32Z</time>
      </trkpt>
      <trkpt lat="45.67221" lon="6.3978">
        <ele>428.89</ele>
        <time>2016-10-03T14:58:56Z</time>
      </trkpt>
      <trkpt lat="45.67221" lon="6.39777">
        <ele>428.89</ele>
        <time>2016-10-03T14:59:14Z</time>
      </trkpt>
      <trkpt lat="45.6722" lon="6.39777">
        <ele>428.4</ele>
        <time>2016-10-03T14:59:34Z</time>
      </trkpt>
      <trkpt lat="45.67221" lon="6.39781">
        <ele>427.92</ele>
        <time>2016-10-03T14:59:56Z</time>
      </trkpt>
      <trkpt lat="45.6722" lon="6.39778">
        <ele>428.4</ele>
        <time>2016-10-03T15:00:33Z</time>
      </trkpt>
      <trkpt lat="45.67219" lon="6.39781">
        <ele>427.44</ele>
        <time>2016-10-03T15:01:09Z</time>
      </trkpt>
      <trkpt lat="45.67219" lon="6.3978">
        <ele>427.44</ele>
        <time>2016-10-03T15:01:49Z</time>
      </trkpt>
      <trkpt lat="45.67222" lon="6.39783">
        <ele>426.96</ele>
        <time>2016-10-03T15:02:32Z</time>
      </trkpt>
      <trkpt lat="45.67222" lon="6.39781">
        <ele>427.44</ele>
        <time>2016-10-03T15:03:10Z</time>
      </trkpt>
      <trkpt lat="45.67221" lon="6.3978">
        <ele>426.96</ele>
        <time>2016-10-03T15:03:41Z</time>
      </trkpt>
      <trkpt lat="45.67219" lon="6.39778">
        <ele>426.96</ele>
        <time>2016-10-03T15:03:58Z</time>
      </trkpt>
      <trkpt lat="45.67217" lon="6.39779">
        <ele>426.96</ele>
        <time>2016-10-03T15:04:26Z</time>
      </trkpt>
      <trkpt lat="45.672" lon="6.39776">
        <ele>387.07</ele>
        <time>2016-10-04T07:10:25Z</time>
      </trkpt>
      <trkpt lat="45.672" lon="6.39775">
        <ele>387.07</ele>
        <time>2016-10-04T07:10:26Z</time>
      </trkpt>
      <trkpt lat="45.6722" lon="6.39759">
        <ele>387.07</ele>
        <time>2016-10-04T07:11:03Z</time>
      </trkpt>
      <trkpt lat="45.67221" lon="6.39764">
        <ele>387.55</ele>
        <time>2016-10-04T07:11:17Z</time>
      </trkpt>
      <trkpt lat="45.67194" lon="6.39773">
        <ele>389.47</ele>
        <time>2016-10-04T07:11:28Z</time>
      </trkpt>
      <trkpt lat="45.67177" lon="6.39753">
        <ele>391.39</ele>
        <time>2016-10-04T07:11:42Z</time>
      </trkpt>
      <trkpt lat="45.67152" lon="6.39734">
        <ele>393.32</ele>
        <time>2016-10-04T07:11:59Z</time>
      </trkpt>
      <trkpt lat="45.67132" lon="6.39718">
        <ele>392.84</ele>
        <time>2016-10-04T07:12:11Z</time>
      </trkpt>
      <trkpt lat="45.67107" lon="6.39704">
        <ele>391.87</ele>
        <time>2016-10-04T07:12:22Z</time>
      </trkpt>
      <trkpt lat="45.67082" lon="6.39731">
        <ele>390.91</ele>
        <time>2016-10-04T07:12:34Z</time>
      </trkpt>
      <trkpt lat="45.67071" lon="6.39743">
        <ele>391.39</ele>
        <time>2016-10-04T07:12:49Z</time>
      </trkpt>
      <trkpt lat="45.6707" lon="6.39744">
        <ele>391.39</ele>
        <time>2016-10-04T07:12:50Z</time>
      </trkpt>
      <trkpt lat="45.67067" lon="6.39743">
        <ele>391.39</ele>
        <time>2016-10-04T07:12:52Z</time>
      </trkpt>
      <trkpt lat="45.67064" lon="6.39744">
        <ele>391.39</ele>
        <time>2016-10-04T07:12:53Z</time>
      </trkpt>
      <trkpt lat="45.67061" lon="6.39745">
        <ele>391.39</ele>
        <time>2016-10-04T07:12:54Z</time>
      </trkpt>
      <trkpt lat="45.67058" lon="6.39745">
        <ele>391.39</ele>
        <time>2016-10-04T07:12:55Z</time>
      </trkpt>
      <trkpt lat="45.67056" lon="6.39746">
        <ele>391.39</ele>
        <time>2016-10-04T07:12:56Z</time>
      </trkpt>
      <trkpt lat="45.67054" lon="6.39747">
        <ele>391.39</ele>
        <time>2016-10-04T07:12:57Z</time>
      </trkpt>
      <trkpt lat="45.67052" lon="6.39749">
        <ele>391.39</ele>
        <time>2016-10-04T07:12:58Z</time>
      </trkpt>
      <trkpt lat="45.67025" lon="6.39785">
        <ele>388.03</ele>
        <time>2016-10-04T07:13:10Z</time>
      </trkpt>
      <trkpt lat="45.6701" lon="6.39815">
        <ele>385.15</ele>
        <time>2016-10-04T07:13:19Z</time>
      </trkpt>
      <trkpt lat="45.67009" lon="6.39843">
        <ele>383.22</ele>
        <time>2016-10-04T07:13:24Z</time>
      </trkpt>
      <trkpt lat="45.67008" lon="6.39849">
        <ele>382.26</ele>
        <time>2016-10-04T07:13:25Z</time>
      </trkpt>
      <trkpt lat="45.67006" lon="6.39855">
        <ele>381.3</ele>
        <time>2016-10-04T07:13:26Z</time>
      </trkpt>
      <trkpt lat="45.67004" lon="6.3986">
        <ele>381.3</ele>
        <time>2016-10-04T07:13:27Z</time>
      </trkpt>
      <trkpt lat="45.67002" lon="6.39864">
        <ele>380.82</ele>
        <time>2016-10-04T07:13:28Z</time>
      </trkpt>
      <trkpt lat="45.66989" lon="6.39896">
        <ele>377.94</ele>
        <time>2016-10-04T07:13:36Z</time>
      </trkpt>
      <trkpt lat="45.66988" lon="6.39937">
        <ele>374.57</ele>
        <time>2016-10-04T07:13:42Z</time>
      </trkpt>
      <trkpt lat="45.66988" lon="6.39962">
        <ele>372.65</ele>
        <time>2016-10-04T07:13:45Z</time>
      </trkpt>
      <trkpt lat="45.66988" lon="6.39972">
        <ele>371.69</ele>
        <time>2016-10-04T07:13:46Z</time>
      </trkpt>
      <trkpt lat="45.66989" lon="6.39991">
        <ele>370.73</ele>
        <time>2016-10-04T07:13:48Z</time>
      </trkpt>
      <trkpt lat="45.66992" lon="6.40027">
        <ele>367.36</ele>
        <time>2016-10-04T07:13:52Z</time>
      </trkpt>
      <trkpt lat="45.6699" lon="6.40063">
        <ele>365.92</ele>
        <time>2016-10-04T07:13:56Z</time>
      </trkpt>
      <trkpt lat="45.66988" lon="6.40072">
        <ele>365.44</ele>
        <time>2016-10-04T07:13:57Z</time>
      </trkpt>
      <trkpt lat="45.66985" lon="6.4008">
        <ele>365.44</ele>
        <time>2016-10-04T07:13:58Z</time>
      </trkpt>
      <trkpt lat="45.66982" lon="6.40088">
        <ele>364.48</ele>
        <time>2016-10-04T07:13:59Z</time>
      </trkpt>
      <trkpt lat="45.66979" lon="6.40096">
        <ele>364.48</ele>
        <time>2016-10-04T07:14:00Z</time>
      </trkpt>
      <trkpt lat="45.66958" lon="6.40144">
        <ele>360.63</ele>
        <time>2016-10-04T07:14:06Z</time>
      </trkpt>
      <trkpt lat="45.66955" lon="6.40151">
        <ele>360.63</ele>
        <time>2016-10-04T07:14:07Z</time>
      </trkpt>
      <trkpt lat="45.66939" lon="6.40191">
        <ele>358.71</ele>
        <time>2016-10-04T07:14:13Z</time>
      </trkpt>
      <trkpt lat="45.66936" lon="6.40195">
        <ele>357.75</ele>
        <time>2016-10-04T07:14:14Z</time>
      </trkpt>
      <trkpt lat="45.66931" lon="6.40205">
        <ele>357.27</ele>
        <time>2016-10-04T07:14:16Z</time>
      </trkpt>
      <trkpt lat="45.6693" lon="6.40211">
        <ele>357.27</ele>
        <time>2016-10-04T07:14:17Z</time>
      </trkpt>
      <trkpt lat="45.6693" lon="6.40217">
        <ele>355.83</ele>
        <time>2016-10-04T07:14:18Z</time>
      </trkpt>
      <trkpt lat="45.66931" lon="6.40225">
        <ele>354.86</ele>
        <time>2016-10-04T07:14:19Z</time>
      </trkpt>
      <trkpt lat="45.66932" lon="6.40232">
        <ele>354.38</ele>
        <time>2016-10-04T07:14:20Z</time>
      </trkpt>
      <trkpt lat="45.66935" lon="6.4024">
        <ele>353.9</ele>
        <time>2016-10-04T07:14:21Z</time>
      </trkpt>
      <trkpt lat="45.66939" lon="6.40248">
        <ele>352.46</ele>
        <time>2016-10-04T07:14:22Z</time>
      </trkpt>
      <trkpt lat="45.66942" lon="6.40256">
        <ele>351.5</ele>
        <time>2016-10-04T07:14:23Z</time>
      </trkpt>
      <trkpt lat="45.66944" lon="6.40265">
        <ele>350.54</ele>
        <time>2016-10-04T07:14:24Z</time>
      </trkpt>
      <trkpt lat="45.66945" lon="6.40274">
        <ele>350.54</ele>
        <time>2016-10-04T07:14:25Z</time>
      </trkpt>
      <trkpt lat="45.66948" lon="6.40326">
        <ele>346.69</ele>
        <time>2016-10-04T07:14:31Z</time>
      </trkpt>
      <trkpt lat="45.66949" lon="6.40362">
        <ele>344.77</ele>
        <time>2016-10-04T07:14:35Z</time>
      </trkpt>
      <trkpt lat="45.66958" lon="6.40397">
        <ele>342.37</ele>
        <time>2016-10-04T07:14:39Z</time>
      </trkpt>
      <trkpt lat="45.66964" lon="6.40411">
        <ele>340.92</ele>
        <time>2016-10-04T07:14:41Z</time>
      </trkpt>
      <trkpt lat="45.66966" lon="6.40417">
        <ele>340.92</ele>
        <time>2016-10-04T07:14:42Z</time>
      </trkpt>
      <trkpt lat="45.66966" lon="6.40423">
        <ele>340.44</ele>
        <time>2016-10-04T07:14:43Z</time>
      </trkpt>
      <trkpt lat="45.66965" lon="6.40429">
        <ele>340.44</ele>
        <time>2016-10-04T07:14:44Z</time>
      </trkpt>
      <trkpt lat="45.66963" lon="6.40435">
        <ele>340.44</ele>
        <time>2016-10-04T07:14:45Z</time>
      </trkpt>
      <trkpt lat="45.66961" lon="6.40443">
        <ele>339.96</ele>
        <time>2016-10-04T07:14:46Z</time>
      </trkpt>
      <trkpt lat="45.66959" lon="6.40451">
        <ele>339</ele>
        <time>2016-10-04T07:14:47Z</time>
      </trkpt>
      <trkpt lat="45.66957" lon="6.4046">
        <ele>338.52</ele>
        <time>2016-10-04T07:14:48Z</time>
      </trkpt>
      <trkpt lat="45.66946" lon="6.40505">
        <ele>335.16</ele>
        <time>2016-10-04T07:14:53Z</time>
      </trkpt>
      <trkpt lat="45.66944" lon="6.40514">
        <ele>334.68</ele>
        <time>2016-10-04T07:14:54Z</time>
      </trkpt>
      <trkpt lat="45.66941" lon="6.40522">
        <ele>334.2</ele>
        <time>2016-10-04T07:14:55Z</time>
      </trkpt>
      <trkpt lat="45.66924" lon="6.40568">
        <ele>330.35</ele>
        <time>2016-10-04T07:15:00Z</time>
      </trkpt>
      <trkpt lat="45.66909" lon="6.40608">
        <ele>326.99</ele>
        <time>2016-10-04T07:15:04Z</time>
      </trkpt>
      <trkpt lat="45.66906" lon="6.40617">
        <ele>327.47</ele>
        <time>2016-10-04T07:15:05Z</time>
      </trkpt>
      <trkpt lat="45.66885" lon="6.40677">
        <ele>324.58</ele>
        <time>2016-10-04T07:15:13Z</time>
      </trkpt>
      <trkpt lat="45.66884" lon="6.40679">
        <ele>324.58</ele>
        <time>2016-10-04T07:15:14Z</time>
      </trkpt>
      <trkpt lat="45.66884" lon="6.40678">
        <ele>324.1</ele>
        <time>2016-10-04T07:15:15Z</time>
      </trkpt>
      <trkpt lat="45.66882" lon="6.40678">
        <ele>324.1</ele>
        <time>2016-10-04T07:15:16Z</time>
      </trkpt>
      <trkpt lat="45.66879" lon="6.40678">
        <ele>323.62</ele>
        <time>2016-10-04T07:15:17Z</time>
      </trkpt>
      <trkpt lat="45.66871" lon="6.40674">
        <ele>324.1</ele>
        <time>2016-10-04T07:15:28Z</time>
      </trkpt>
      <trkpt lat="45.66869" lon="6.40672">
        <ele>324.1</ele>
        <time>2016-10-04T07:15:41Z</time>
      </trkpt>
      <trkpt lat="45.66868" lon="6.4067">
        <ele>323.62</ele>
        <time>2016-10-04T07:15:42Z</time>
      </trkpt>
      <trkpt lat="45.66867" lon="6.40668">
        <ele>323.62</ele>
        <time>2016-10-04T07:15:43Z</time>
      </trkpt>
      <trkpt lat="45.66867" lon="6.40666">
        <ele>324.1</ele>
        <time>2016-10-04T07:15:44Z</time>
      </trkpt>
      <trkpt lat="45.66866" lon="6.40662">
        <ele>324.1</ele>
        <time>2016-10-04T07:15:45Z</time>
      </trkpt>
      <trkpt lat="45.66866" lon="6.40659">
        <ele>324.1</ele>
        <time>2016-10-04T07:15:46Z</time>
      </trkpt>
      <trkpt lat="45.66866" lon="6.40655">
        <ele>323.62</ele>
        <time>2016-10-04T07:15:47Z</time>
      </trkpt>
      <trkpt lat="45.66867" lon="6.4065">
        <ele>323.62</ele>
        <time>2016-10-04T07:15:48Z</time>
      </trkpt>
      <trkpt lat="45.66868" lon="6.40559">
        <ele>324.1</ele>
        <time>2016-10-04T07:16:04Z</time>
      </trkpt>
      <trkpt lat="45.66874" lon="6.40456">
        <ele>325.06</ele>
        <time>2016-10-04T07:16:19Z</time>
      </trkpt>
      <trkpt lat="45.6688" lon="6.40433">
        <ele>325.54</ele>
        <time>2016-10-04T07:16:23Z</time>
      </trkpt>
      <trkpt lat="45.66881" lon="6.40426">
        <ele>325.06</ele>
        <time>2016-10-04T07:16:24Z</time>
      </trkpt>
      <trkpt lat="45.66902" lon="6.40326">
        <ele>324.58</ele>
        <time>2016-10-04T07:16:37Z</time>
      </trkpt>
      <trkpt lat="45.669" lon="6.40266">
        <ele>325.06</ele>
        <time>2016-10-04T07:16:44Z</time>
      </trkpt>
      <trkpt lat="45.66883" lon="6.40153">
        <ele>324.1</ele>
        <time>2016-10-04T07:16:58Z</time>
      </trkpt>
      <trkpt lat="45.66881" lon="6.40146">
        <ele>324.58</ele>
        <time>2016-10-04T07:16:59Z</time>
      </trkpt>
      <trkpt lat="45.66869" lon="6.40116">
        <ele>324.58</ele>
        <time>2016-10-04T07:17:03Z</time>
      </trkpt>
      <trkpt lat="45.66864" lon="6.40109">
        <ele>324.1</ele>
        <time>2016-10-04T07:17:04Z</time>
      </trkpt>
      <trkpt lat="45.66801" lon="6.40002">
        <ele>323.14</ele>
        <time>2016-10-04T07:17:20Z</time>
      </trkpt>
      <trkpt lat="45.66791" lon="6.39972">
        <ele>323.14</ele>
        <time>2016-10-04T07:17:24Z</time>
      </trkpt>
      <trkpt lat="45.66789" lon="6.39964">
        <ele>323.62</ele>
        <time>2016-10-04T07:17:25Z</time>
      </trkpt>
      <trkpt lat="45.66772" lon="6.39843">
        <ele>323.62</ele>
        <time>2016-10-04T07:17:41Z</time>
      </trkpt>
      <trkpt lat="45.6677" lon="6.39722">
        <ele>323.62</ele>
        <time>2016-10-04T07:17:57Z</time>
      </trkpt>
      <trkpt lat="45.6677" lon="6.39714">
        <ele>324.1</ele>
        <time>2016-10-04T07:17:58Z</time>
      </trkpt>
      <trkpt lat="45.66781" lon="6.39648">
        <ele>324.58</ele>
        <time>2016-10-04T07:18:07Z</time>
      </trkpt>
      <trkpt lat="45.6682" lon="6.39523">
        <ele>325.06</ele>
        <time>2016-10-04T07:18:25Z</time>
      </trkpt>
      <trkpt lat="45.66836" lon="6.39485">
        <ele>325.54</ele>
        <time>2016-10-04T07:18:37Z</time>
      </trkpt>
      <trkpt lat="45.66836" lon="6.39464">
        <ele>325.54</ele>
        <time>2016-10-04T07:18:51Z</time>
      </trkpt>
      <trkpt lat="45.66841" lon="6.39388">
        <ele>325.06</ele>
        <time>2016-10-04T07:19:04Z</time>
      </trkpt>
      <trkpt lat="45.66842" lon="6.39382">
        <ele>325.54</ele>
        <time>2016-10-04T07:19:05Z</time>
      </trkpt>
      <trkpt lat="45.66855" lon="6.39263">
        <ele>326.5</ele>
        <time>2016-10-04T07:19:23Z</time>
      </trkpt>
      <trkpt lat="45.6686" lon="6.39214">
        <ele>327.95</ele>
        <time>2016-10-04T07:19:37Z</time>
      </trkpt>
      <trkpt lat="45.66865" lon="6.39183">
        <ele>327.47</ele>
        <time>2016-10-04T07:19:53Z</time>
      </trkpt>
      <trkpt lat="45.66868" lon="6.39149">
        <ele>326.99</ele>
        <time>2016-10-04T07:20:06Z</time>
      </trkpt>
      <trkpt lat="45.6687" lon="6.39115">
        <ele>326.02</ele>
        <time>2016-10-04T07:20:15Z</time>
      </trkpt>
      <trkpt lat="45.66868" lon="6.39114">
        <ele>326.02</ele>
        <time>2016-10-04T07:20:16Z</time>
      </trkpt>
      <trkpt lat="45.66866" lon="6.39113">
        <ele>326.02</ele>
        <time>2016-10-04T07:20:17Z</time>
      </trkpt>
      <trkpt lat="45.66864" lon="6.39113">
        <ele>326.5</ele>
        <time>2016-10-04T07:20:18Z</time>
      </trkpt>
      <trkpt lat="45.66861" lon="6.39113">
        <ele>326.02</ele>
        <time>2016-10-04T07:20:19Z</time>
      </trkpt>
      <trkpt lat="45.66837" lon="6.3911">
        <ele>325.54</ele>
        <time>2016-10-04T07:20:26Z</time>
      </trkpt>
      <trkpt lat="45.66833" lon="6.39112">
        <ele>325.54</ele>
        <time>2016-10-04T07:20:27Z</time>
      </trkpt>
      <trkpt lat="45.66829" lon="6.39113">
        <ele>325.06</ele>
        <time>2016-10-04T07:20:28Z</time>
      </trkpt>
      <trkpt lat="45.66824" lon="6.39114">
        <ele>325.06</ele>
        <time>2016-10-04T07:20:29Z</time>
      </trkpt>
      <trkpt lat="45.6682" lon="6.39115">
        <ele>325.06</ele>
        <time>2016-10-04T07:20:30Z</time>
      </trkpt>
      <trkpt lat="45.66815" lon="6.39116">
        <ele>324.58</ele>
        <time>2016-10-04T07:20:31Z</time>
      </trkpt>
      <trkpt lat="45.6681" lon="6.39115">
        <ele>324.58</ele>
        <time>2016-10-04T07:20:32Z</time>
      </trkpt>
      <trkpt lat="45.66806" lon="6.39115">
        <ele>325.54</ele>
        <time>2016-10-04T07:20:33Z</time>
      </trkpt>
      <trkpt lat="45.66724" lon="6.39096">
        <ele>325.54</ele>
        <time>2016-10-04T07:20:49Z</time>
      </trkpt>
      <trkpt lat="45.66651" lon="6.39076">
        <ele>325.06</ele>
        <time>2016-10-04T07:21:03Z</time>
      </trkpt>
      <trkpt lat="45.66648" lon="6.39075">
        <ele>325.54</ele>
        <time>2016-10-04T07:21:04Z</time>
      </trkpt>
      <trkpt lat="45.66645" lon="6.39078">
        <ele>325.54</ele>
        <time>2016-10-04T07:21:05Z</time>
      </trkpt>
      <trkpt lat="45.66642" lon="6.39082">
        <ele>325.06</ele>
        <time>2016-10-04T07:21:06Z</time>
      </trkpt>
      <trkpt lat="45.6664" lon="6.39086">
        <ele>324.58</ele>
        <time>2016-10-04T07:21:07Z</time>
      </trkpt>
      <trkpt lat="45.66637" lon="6.39089">
        <ele>324.58</ele>
        <time>2016-10-04T07:21:08Z</time>
      </trkpt>
      <trkpt lat="45.66633" lon="6.39091">
        <ele>324.1</ele>
        <time>2016-10-04T07:21:09Z</time>
      </trkpt>
      <trkpt lat="45.66628" lon="6.39091">
        <ele>323.14</ele>
        <time>2016-10-04T07:21:10Z</time>
      </trkpt>
      <trkpt lat="45.66624" lon="6.3909">
        <ele>321.7</ele>
        <time>2016-10-04T07:21:11Z</time>
      </trkpt>
      <trkpt lat="45.66619" lon="6.39089">
        <ele>321.22</ele>
        <time>2016-10-04T07:21:12Z</time>
      </trkpt>
      <trkpt lat="45.6658" lon="6.39078">
        <ele>321.7</ele>
        <time>2016-10-04T07:21:19Z</time>
      </trkpt>
      <trkpt lat="45.66503" lon="6.39052">
        <ele>318.81</ele>
        <time>2016-10-04T07:21:30Z</time>
      </trkpt>
      <trkpt lat="45.6648" lon="6.39052">
        <ele>320.74</ele>
        <time>2016-10-04T07:21:34Z</time>
      </trkpt>
      <trkpt lat="45.66477" lon="6.39054">
        <ele>321.22</ele>
        <time>2016-10-04T07:21:35Z</time>
      </trkpt>
      <trkpt lat="45.66473" lon="6.39056">
        <ele>321.22</ele>
        <time>2016-10-04T07:21:36Z</time>
      </trkpt>
      <trkpt lat="45.66447" lon="6.39072">
        <ele>320.74</ele>
        <time>2016-10-04T07:21:42Z</time>
      </trkpt>
      <trkpt lat="45.66442" lon="6.39073">
        <ele>320.74</ele>
        <time>2016-10-04T07:21:43Z</time>
      </trkpt>
      <trkpt lat="45.66437" lon="6.39073">
        <ele>320.74</ele>
        <time>2016-10-04T07:21:44Z</time>
      </trkpt>
      <trkpt lat="45.66432" lon="6.39072">
        <ele>320.74</ele>
        <time>2016-10-04T07:21:45Z</time>
      </trkpt>
      <trkpt lat="45.66428" lon="6.3907">
        <ele>321.22</ele>
        <time>2016-10-04T07:21:46Z</time>
      </trkpt>
      <trkpt lat="45.66424" lon="6.39068">
        <ele>320.74</ele>
        <time>2016-10-04T07:21:47Z</time>
      </trkpt>
      <trkpt lat="45.66419" lon="6.39066">
        <ele>320.74</ele>
        <time>2016-10-04T07:21:48Z</time>
      </trkpt>
      <trkpt lat="45.66404" lon="6.39057">
        <ele>320.26</ele>
        <time>2016-10-04T07:21:51Z</time>
      </trkpt>
      <trkpt lat="45.66394" lon="6.39049">
        <ele>320.74</ele>
        <time>2016-10-04T07:21:53Z</time>
      </trkpt>
      <trkpt lat="45.66388" lon="6.39046">
        <ele>320.26</ele>
        <time>2016-10-04T07:21:54Z</time>
      </trkpt>
      <trkpt lat="45.66383" lon="6.39043">
        <ele>319.78</ele>
        <time>2016-10-04T07:21:55Z</time>
      </trkpt>
      <trkpt lat="45.66378" lon="6.39039">
        <ele>320.26</ele>
        <time>2016-10-04T07:21:56Z</time>
      </trkpt>
      <trkpt lat="45.66373" lon="6.39035">
        <ele>319.78</ele>
        <time>2016-10-04T07:21:57Z</time>
      </trkpt>
      <trkpt lat="45.66369" lon="6.3903">
        <ele>320.26</ele>
        <time>2016-10-04T07:21:58Z</time>
      </trkpt>
      <trkpt lat="45.66364" lon="6.39025">
        <ele>320.74</ele>
        <time>2016-10-04T07:21:59Z</time>
      </trkpt>
      <trkpt lat="45.6636" lon="6.3902">
        <ele>320.74</ele>
        <time>2016-10-04T07:22:00Z</time>
      </trkpt>
      <trkpt lat="45.66355" lon="6.39016">
        <ele>320.74</ele>
        <time>2016-10-04T07:22:01Z</time>
      </trkpt>
      <trkpt lat="45.6635" lon="6.39013">
        <ele>320.74</ele>
        <time>2016-10-04T07:22:02Z</time>
      </trkpt>
      <trkpt lat="45.6632" lon="6.39003">
        <ele>321.22</ele>
        <time>2016-10-04T07:22:08Z</time>
      </trkpt>
      <trkpt lat="45.66315" lon="6.39003">
        <ele>320.74</ele>
        <time>2016-10-04T07:22:09Z</time>
      </trkpt>
      <trkpt lat="45.6631" lon="6.39003">
        <ele>320.26</ele>
        <time>2016-10-04T07:22:10Z</time>
      </trkpt>
      <trkpt lat="45.66305" lon="6.39003">
        <ele>319.78</ele>
        <time>2016-10-04T07:22:11Z</time>
      </trkpt>
      <trkpt lat="45.66285" lon="6.39004">
        <ele>320.74</ele>
        <time>2016-10-04T07:22:15Z</time>
      </trkpt>
      <trkpt lat="45.66267" lon="6.38995">
        <ele>321.22</ele>
        <time>2016-10-04T07:22:18Z</time>
      </trkpt>
      <trkpt lat="45.66195" lon="6.38983">
        <ele>321.22</ele>
        <time>2016-10-04T07:22:31Z</time>
      </trkpt>
      <trkpt lat="45.6619" lon="6.38979">
        <ele>320.74</ele>
        <time>2016-10-04T07:22:32Z</time>
      </trkpt>
      <trkpt lat="45.66185" lon="6.38974">
        <ele>320.74</ele>
        <time>2016-10-04T07:22:33Z</time>
      </trkpt>
      <trkpt lat="45.66151" lon="6.38944">
        <ele>320.74</ele>
        <time>2016-10-04T07:22:40Z</time>
      </trkpt>
      <trkpt lat="45.66147" lon="6.38939">
        <ele>321.22</ele>
        <time>2016-10-04T07:22:41Z</time>
      </trkpt>
      <trkpt lat="45.66073" lon="6.38853">
        <ele>321.7</ele>
        <time>2016-10-04T07:22:57Z</time>
      </trkpt>
      <trkpt lat="45.66064" lon="6.38843">
        <ele>321.22</ele>
        <time>2016-10-04T07:22:59Z</time>
      </trkpt>
      <trkpt lat="45.66003" lon="6.38757">
        <ele>321.22</ele>
        <time>2016-10-04T07:23:14Z</time>
      </trkpt>
      <trkpt lat="45.65995" lon="6.38744">
        <ele>320.74</ele>
        <time>2016-10-04T07:23:16Z</time>
      </trkpt>
      <trkpt lat="45.65993" lon="6.38737">
        <ele>320.74</ele>
        <time>2016-10-04T07:23:17Z</time>
      </trkpt>
      <trkpt lat="45.6599" lon="6.3873">
        <ele>321.22</ele>
        <time>2016-10-04T07:23:18Z</time>
      </trkpt>
      <trkpt lat="45.65985" lon="6.38716">
        <ele>321.7</ele>
        <time>2016-10-04T07:23:20Z</time>
      </trkpt>
      <trkpt lat="45.65982" lon="6.3871">
        <ele>321.22</ele>
        <time>2016-10-04T07:23:21Z</time>
      </trkpt>
      <trkpt lat="45.65972" lon="6.38691">
        <ele>321.22</ele>
        <time>2016-10-04T07:23:24Z</time>
      </trkpt>
      <trkpt lat="45.6597" lon="6.38685">
        <ele>322.18</ele>
        <time>2016-10-04T07:23:25Z</time>
      </trkpt>
      <trkpt lat="45.65961" lon="6.38662">
        <ele>321.7</ele>
        <time>2016-10-04T07:23:29Z</time>
      </trkpt>
      <trkpt lat="45.65958" lon="6.38657">
        <ele>323.14</ele>
        <time>2016-10-04T07:23:30Z</time>
      </trkpt>
      <trkpt lat="45.65923" lon="6.38591">
        <ele>322.66</ele>
        <time>2016-10-04T07:23:42Z</time>
      </trkpt>
      <trkpt lat="45.65894" lon="6.38537">
        <ele>325.06</ele>
        <time>2016-10-04T07:23:54Z</time>
      </trkpt>
      <trkpt lat="45.65864" lon="6.3854">
        <ele>326.5</ele>
        <time>2016-10-04T07:24:05Z</time>
      </trkpt>
      <trkpt lat="45.65815" lon="6.38597">
        <ele>326.5</ele>
        <time>2016-10-04T07:24:22Z</time>
      </trkpt>
      <trkpt lat="45.65795" lon="6.38618">
        <ele>326.5</ele>
        <time>2016-10-04T07:24:28Z</time>
      </trkpt>
      <trkpt lat="45.65791" lon="6.38619">
        <ele>326.5</ele>
        <time>2016-10-04T07:24:29Z</time>
      </trkpt>
      <trkpt lat="45.65786" lon="6.38619">
        <ele>326.5</ele>
        <time>2016-10-04T07:24:30Z</time>
      </trkpt>
      <trkpt lat="45.65782" lon="6.38619">
        <ele>326.5</ele>
        <time>2016-10-04T07:24:31Z</time>
      </trkpt>
      <trkpt lat="45.65777" lon="6.38617">
        <ele>326.5</ele>
        <time>2016-10-04T07:24:32Z</time>
      </trkpt>
      <trkpt lat="45.65772" lon="6.38614">
        <ele>326.02</ele>
        <time>2016-10-04T07:24:33Z</time>
      </trkpt>
      <trkpt lat="45.65768" lon="6.3861">
        <ele>326.02</ele>
        <time>2016-10-04T07:24:34Z</time>
      </trkpt>
      <trkpt lat="45.65701" lon="6.38538">
        <ele>324.58</ele>
        <time>2016-10-04T07:24:48Z</time>
      </trkpt>
      <trkpt lat="45.65679" lon="6.38508">
        <ele>324.1</ele>
        <time>2016-10-04T07:24:53Z</time>
      </trkpt>
      <trkpt lat="45.65678" lon="6.38503">
        <ele>324.1</ele>
        <time>2016-10-04T07:24:54Z</time>
      </trkpt>
      <trkpt lat="45.65678" lon="6.38496">
        <ele>323.62</ele>
        <time>2016-10-04T07:24:55Z</time>
      </trkpt>
      <trkpt lat="45.6568" lon="6.38481">
        <ele>322.66</ele>
        <time>2016-10-04T07:24:57Z</time>
      </trkpt>
      <trkpt lat="45.65681" lon="6.38473">
        <ele>322.66</ele>
        <time>2016-10-04T07:24:58Z</time>
      </trkpt>
      <trkpt lat="45.65663" lon="6.38335">
        <ele>321.7</ele>
        <time>2016-10-04T07:25:13Z</time>
      </trkpt>
      <trkpt lat="45.65638" lon="6.38172">
        <ele>321.22</ele>
        <time>2016-10-04T07:25:31Z</time>
      </trkpt>
      <trkpt lat="45.65615" lon="6.38019">
        <ele>320.74</ele>
        <time>2016-10-04T07:25:48Z</time>
      </trkpt>
      <trkpt lat="45.6559" lon="6.37875">
        <ele>321.22</ele>
        <time>2016-10-04T07:26:04Z</time>
      </trkpt>
      <trkpt lat="45.65565" lon="6.37714">
        <ele>320.74</ele>
        <time>2016-10-04T07:26:22Z</time>
      </trkpt>
      <trkpt lat="45.65544" lon="6.37582">
        <ele>320.26</ele>
        <time>2016-10-04T07:26:37Z</time>
      </trkpt>
      <trkpt lat="45.65517" lon="6.37413">
        <ele>319.78</ele>
        <time>2016-10-04T07:26:56Z</time>
      </trkpt>
      <trkpt lat="45.65497" lon="6.37288">
        <ele>319.78</ele>
        <time>2016-10-04T07:27:10Z</time>
      </trkpt>
      <trkpt lat="45.65496" lon="6.37271">
        <ele>319.78</ele>
        <time>2016-10-04T07:27:12Z</time>
      </trkpt>
      <trkpt lat="45.65493" lon="6.37254">
        <ele>319.3</ele>
        <time>2016-10-04T07:27:14Z</time>
      </trkpt>
      <trkpt lat="45.65493" lon="6.37245">
        <ele>319.78</ele>
        <time>2016-10-04T07:27:15Z</time>
      </trkpt>
      <trkpt lat="45.6549" lon="6.37228">
        <ele>319.78</ele>
        <time>2016-10-04T07:27:17Z</time>
      </trkpt>
      <trkpt lat="45.65475" lon="6.37124">
        <ele>318.81</ele>
        <time>2016-10-04T07:27:29Z</time>
      </trkpt>
      <trkpt lat="45.65474" lon="6.37115">
        <ele>318.81</ele>
        <time>2016-10-04T07:27:30Z</time>
      </trkpt>
      <trkpt lat="45.65461" lon="6.37032">
        <ele>319.78</ele>
        <time>2016-10-04T07:27:39Z</time>
      </trkpt>
      <trkpt lat="45.6546" lon="6.37023">
        <ele>319.3</ele>
        <time>2016-10-04T07:27:40Z</time>
      </trkpt>
      <trkpt lat="45.65434" lon="6.36863">
        <ele>318.81</ele>
        <time>2016-10-04T07:27:58Z</time>
      </trkpt>
      <trkpt lat="45.65415" lon="6.36738">
        <ele>319.3</ele>
        <time>2016-10-04T07:28:12Z</time>
      </trkpt>
      <trkpt lat="45.65386" lon="6.3656">
        <ele>318.81</ele>
        <time>2016-10-04T07:28:32Z</time>
      </trkpt>
      <trkpt lat="45.65362" lon="6.36415">
        <ele>318.33</ele>
        <time>2016-10-04T07:28:48Z</time>
      </trkpt>
      <trkpt lat="45.65335" lon="6.36254">
        <ele>318.81</ele>
        <time>2016-10-04T07:29:06Z</time>
      </trkpt>
      <trkpt lat="45.65302" lon="6.36108">
        <ele>317.85</ele>
        <time>2016-10-04T07:29:23Z</time>
      </trkpt>
      <trkpt lat="45.65268" lon="6.35975">
        <ele>317.85</ele>
        <time>2016-10-04T07:29:39Z</time>
      </trkpt>
      <trkpt lat="45.65267" lon="6.35967">
        <ele>318.33</ele>
        <time>2016-10-04T07:29:40Z</time>
      </trkpt>
      <trkpt lat="45.65241" lon="6.35844">
        <ele>317.85</ele>
        <time>2016-10-04T07:29:55Z</time>
      </trkpt>
      <trkpt lat="45.65232" lon="6.35813">
        <ele>318.81</ele>
        <time>2016-10-04T07:29:59Z</time>
      </trkpt>
      <trkpt lat="45.65221" lon="6.35776">
        <ele>318.81</ele>
        <time>2016-10-04T07:30:04Z</time>
      </trkpt>
      <trkpt lat="45.65221" lon="6.35769">
        <ele>318.33</ele>
        <time>2016-10-04T07:30:05Z</time>
      </trkpt>
      <trkpt lat="45.65214" lon="6.35716">
        <ele>316.41</ele>
        <time>2016-10-04T07:30:11Z</time>
      </trkpt>
      <trkpt lat="45.65209" lon="6.35706">
        <ele>316.89</ele>
        <time>2016-10-04T07:30:12Z</time>
      </trkpt>
      <trkpt lat="45.65204" lon="6.35699">
        <ele>317.37</ele>
        <time>2016-10-04T07:30:13Z</time>
      </trkpt>
      <trkpt lat="45.65199" lon="6.35693">
        <ele>317.85</ele>
        <time>2016-10-04T07:30:14Z</time>
      </trkpt>
      <trkpt lat="45.65195" lon="6.35689">
        <ele>318.33</ele>
        <time>2016-10-04T07:30:15Z</time>
      </trkpt>
      <trkpt lat="45.65192" lon="6.35686">
        <ele>318.81</ele>
        <time>2016-10-04T07:30:16Z</time>
      </trkpt>
      <trkpt lat="45.65179" lon="6.35659">
        <ele>319.3</ele>
        <time>2016-10-04T07:30:23Z</time>
      </trkpt>
      <trkpt lat="45.65175" lon="6.3564">
        <ele>319.78</ele>
        <time>2016-10-04T07:30:26Z</time>
      </trkpt>
      <trkpt lat="45.65172" lon="6.35626">
        <ele>318.81</ele>
        <time>2016-10-04T07:30:28Z</time>
      </trkpt>
      <trkpt lat="45.65171" lon="6.35619">
        <ele>318.81</ele>
        <time>2016-10-04T07:30:29Z</time>
      </trkpt>
      <trkpt lat="45.6517" lon="6.35611">
        <ele>318.81</ele>
        <time>2016-10-04T07:30:30Z</time>
      </trkpt>
      <trkpt lat="45.65159" lon="6.35564">
        <ele>317.85</ele>
        <time>2016-10-04T07:30:36Z</time>
      </trkpt>
      <trkpt lat="45.65131" lon="6.35446">
        <ele>318.33</ele>
        <time>2016-10-04T07:30:51Z</time>
      </trkpt>
      <trkpt lat="45.65124" lon="6.35415">
        <ele>319.3</ele>
        <time>2016-10-04T07:30:55Z</time>
      </trkpt>
      <trkpt lat="45.65122" lon="6.35407">
        <ele>319.3</ele>
        <time>2016-10-04T07:30:56Z</time>
      </trkpt>
      <trkpt lat="45.65106" lon="6.35345">
        <ele>318.81</ele>
        <time>2016-10-04T07:31:04Z</time>
      </trkpt>
      <trkpt lat="45.65077" lon="6.35234">
        <ele>318.33</ele>
        <time>2016-10-04T07:31:18Z</time>
      </trkpt>
      <trkpt lat="45.6504" lon="6.35095">
        <ele>318.81</ele>
        <time>2016-10-04T07:31:35Z</time>
      </trkpt>
      <trkpt lat="45.64997" lon="6.34943">
        <ele>317.85</ele>
        <time>2016-10-04T07:31:53Z</time>
      </trkpt>
      <trkpt lat="45.64956" lon="6.34803">
        <ele>316.89</ele>
        <time>2016-10-04T07:32:10Z</time>
      </trkpt>
      <trkpt lat="45.64919" lon="6.34669">
        <ele>317.85</ele>
        <time>2016-10-04T07:32:26Z</time>
      </trkpt>
      <trkpt lat="45.64881" lon="6.34529">
        <ele>317.85</ele>
        <time>2016-10-04T07:32:43Z</time>
      </trkpt>
      <trkpt lat="45.64844" lon="6.34393">
        <ele>317.37</ele>
        <time>2016-10-04T07:32:59Z</time>
      </trkpt>
      <trkpt lat="45.64842" lon="6.34385">
        <ele>317.37</ele>
        <time>2016-10-04T07:33:00Z</time>
      </trkpt>
      <trkpt lat="45.64803" lon="6.34234">
        <ele>316.89</ele>
        <time>2016-10-04T07:33:18Z</time>
      </trkpt>
      <trkpt lat="45.64741" lon="6.34046">
        <ele>315.93</ele>
        <time>2016-10-04T07:33:41Z</time>
      </trkpt>
      <trkpt lat="45.64683" lon="6.33919">
        <ele>315.93</ele>
        <time>2016-10-04T07:33:57Z</time>
      </trkpt>
      <trkpt lat="45.646" lon="6.33763">
        <ele>315.93</ele>
        <time>2016-10-04T07:34:19Z</time>
      </trkpt>
      <trkpt lat="45.64543" lon="6.3368">
        <ele>315.45</ele>
        <time>2016-10-04T07:34:32Z</time>
      </trkpt>
      <trkpt lat="45.64475" lon="6.33585">
        <ele>315.45</ele>
        <time>2016-10-04T07:34:47Z</time>
      </trkpt>
      <trkpt lat="45.64389" lon="6.33481">
        <ele>314.97</ele>
        <time>2016-10-04T07:35:05Z</time>
      </trkpt>
      <trkpt lat="45.64342" lon="6.33431">
        <ele>314.97</ele>
        <time>2016-10-04T07:35:15Z</time>
      </trkpt>
      <trkpt lat="45.64337" lon="6.33428">
        <ele>314.97</ele>
        <time>2016-10-04T07:35:16Z</time>
      </trkpt>
      <trkpt lat="45.64331" lon="6.33426">
        <ele>314.49</ele>
        <time>2016-10-04T07:35:17Z</time>
      </trkpt>
      <trkpt lat="45.64326" lon="6.33424">
        <ele>314.01</ele>
        <time>2016-10-04T07:35:18Z</time>
      </trkpt>
      <trkpt lat="45.6432" lon="6.33424">
        <ele>314.49</ele>
        <time>2016-10-04T07:35:19Z</time>
      </trkpt>
      <trkpt lat="45.6424" lon="6.33411">
        <ele>313.05</ele>
        <time>2016-10-04T07:35:32Z</time>
      </trkpt>
      <trkpt lat="45.64159" lon="6.33396">
        <ele>312.57</ele>
        <time>2016-10-04T07:35:45Z</time>
      </trkpt>
      <trkpt lat="45.64042" lon="6.33376">
        <ele>312.09</ele>
        <time>2016-10-04T07:36:03Z</time>
      </trkpt>
      <trkpt lat="45.63927" lon="6.33352">
        <ele>312.09</ele>
        <time>2016-10-04T07:36:21Z</time>
      </trkpt>
      <trkpt lat="45.63817" lon="6.33334">
        <ele>312.09</ele>
        <time>2016-10-04T07:36:38Z</time>
      </trkpt>
      <trkpt lat="45.63706" lon="6.33315">
        <ele>311.12</ele>
        <time>2016-10-04T07:36:55Z</time>
      </trkpt>
      <trkpt lat="45.63627" lon="6.33298">
        <ele>311.12</ele>
        <time>2016-10-04T07:37:07Z</time>
      </trkpt>
      <trkpt lat="45.63512" lon="6.33268">
        <ele>311.6</ele>
        <time>2016-10-04T07:37:25Z</time>
      </trkpt>
      <trkpt lat="45.63398" lon="6.33221">
        <ele>311.12</ele>
        <time>2016-10-04T07:37:43Z</time>
      </trkpt>
      <trkpt lat="45.63293" lon="6.33169">
        <ele>311.6</ele>
        <time>2016-10-04T07:38:00Z</time>
      </trkpt>
      <trkpt lat="45.6318" lon="6.33103">
        <ele>312.09</ele>
        <time>2016-10-04T07:38:19Z</time>
      </trkpt>
      <trkpt lat="45.63066" lon="6.33017">
        <ele>311.6</ele>
        <time>2016-10-04T07:38:39Z</time>
      </trkpt>
      <trkpt lat="45.6301" lon="6.32968">
        <ele>312.57</ele>
        <time>2016-10-04T07:38:51Z</time>
      </trkpt>
      <trkpt lat="45.62906" lon="6.3287">
        <ele>311.12</ele>
        <time>2016-10-04T07:39:10Z</time>
      </trkpt>
      <trkpt lat="45.62862" lon="6.32847">
        <ele>311.12</ele>
        <time>2016-10-04T07:39:18Z</time>
      </trkpt>
      <trkpt lat="45.62857" lon="6.32843">
        <ele>311.12</ele>
        <time>2016-10-04T07:39:19Z</time>
      </trkpt>
      <trkpt lat="45.62852" lon="6.32837">
        <ele>311.12</ele>
        <time>2016-10-04T07:39:20Z</time>
      </trkpt>
      <trkpt lat="45.62848" lon="6.32831">
        <ele>311.12</ele>
        <time>2016-10-04T07:39:21Z</time>
      </trkpt>
      <trkpt lat="45.62844" lon="6.32824">
        <ele>311.6</ele>
        <time>2016-10-04T07:39:22Z</time>
      </trkpt>
      <trkpt lat="45.62841" lon="6.32817">
        <ele>311.6</ele>
        <time>2016-10-04T07:39:23Z</time>
      </trkpt>
      <trkpt lat="45.62764" lon="6.32694">
        <ele>311.12</ele>
        <time>2016-10-04T07:39:41Z</time>
      </trkpt>
      <trkpt lat="45.62759" lon="6.32688">
        <ele>311.12</ele>
        <time>2016-10-04T07:39:42Z</time>
      </trkpt>
      <trkpt lat="45.62661" lon="6.32562">
        <ele>310.64</ele>
        <time>2016-10-04T07:40:03Z</time>
      </trkpt>
      <trkpt lat="45.62565" lon="6.32427">
        <ele>310.64</ele>
        <time>2016-10-04T07:40:24Z</time>
      </trkpt>
      <trkpt lat="45.62463" lon="6.32295">
        <ele>310.64</ele>
        <time>2016-10-04T07:40:45Z</time>
      </trkpt>
      <trkpt lat="45.62438" lon="6.32265">
        <ele>310.16</ele>
        <time>2016-10-04T07:40:51Z</time>
      </trkpt>
      <trkpt lat="45.62434" lon="6.32259">
        <ele>310.64</ele>
        <time>2016-10-04T07:40:52Z</time>
      </trkpt>
      <trkpt lat="45.62432" lon="6.32253">
        <ele>310.64</ele>
        <time>2016-10-04T07:40:53Z</time>
      </trkpt>
      <trkpt lat="45.62431" lon="6.32246">
        <ele>310.64</ele>
        <time>2016-10-04T07:40:54Z</time>
      </trkpt>
      <trkpt lat="45.6243" lon="6.32239">
        <ele>310.64</ele>
        <time>2016-10-04T07:40:55Z</time>
      </trkpt>
      <trkpt lat="45.62429" lon="6.32233">
        <ele>311.12</ele>
        <time>2016-10-04T07:40:56Z</time>
      </trkpt>
      <trkpt lat="45.62427" lon="6.32227">
        <ele>311.12</ele>
        <time>2016-10-04T07:40:57Z</time>
      </trkpt>
      <trkpt lat="45.62424" lon="6.32221">
        <ele>310.64</ele>
        <time>2016-10-04T07:40:58Z</time>
      </trkpt>
      <trkpt lat="45.62419" lon="6.32218">
        <ele>310.16</ele>
        <time>2016-10-04T07:40:59Z</time>
      </trkpt>
      <trkpt lat="45.62414" lon="6.32216">
        <ele>310.64</ele>
        <time>2016-10-04T07:41:00Z</time>
      </trkpt>
      <trkpt lat="45.62409" lon="6.32217">
        <ele>311.12</ele>
        <time>2016-10-04T07:41:01Z</time>
      </trkpt>
      <trkpt lat="45.62404" lon="6.32219">
        <ele>310.16</ele>
        <time>2016-10-04T07:41:02Z</time>
      </trkpt>
      <trkpt lat="45.62399" lon="6.32221">
        <ele>310.64</ele>
        <time>2016-10-04T07:41:03Z</time>
      </trkpt>
      <trkpt lat="45.62395" lon="6.32222">
        <ele>309.68</ele>
        <time>2016-10-04T07:41:04Z</time>
      </trkpt>
      <trkpt lat="45.6239" lon="6.32221">
        <ele>309.68</ele>
        <time>2016-10-04T07:41:05Z</time>
      </trkpt>
      <trkpt lat="45.62385" lon="6.32219">
        <ele>309.2</ele>
        <time>2016-10-04T07:41:06Z</time>
      </trkpt>
      <trkpt lat="45.6238" lon="6.32215">
        <ele>310.16</ele>
        <time>2016-10-04T07:41:07Z</time>
      </trkpt>
      <trkpt lat="45.62376" lon="6.32211">
        <ele>310.16</ele>
        <time>2016-10-04T07:41:08Z</time>
      </trkpt>
      <trkpt lat="45.62371" lon="6.32206">
        <ele>309.2</ele>
        <time>2016-10-04T07:41:09Z</time>
      </trkpt>
      <trkpt lat="45.62354" lon="6.32182">
        <ele>309.2</ele>
        <time>2016-10-04T07:41:13Z</time>
      </trkpt>
      <trkpt lat="45.62351" lon="6.32175">
        <ele>309.68</ele>
        <time>2016-10-04T07:41:14Z</time>
      </trkpt>
      <trkpt lat="45.62348" lon="6.32167">
        <ele>309.68</ele>
        <time>2016-10-04T07:41:15Z</time>
      </trkpt>
      <trkpt lat="45.62346" lon="6.3216">
        <ele>309.2</ele>
        <time>2016-10-04T07:41:16Z</time>
      </trkpt>
      <trkpt lat="45.62345" lon="6.32152">
        <ele>309.68</ele>
        <time>2016-10-04T07:41:17Z</time>
      </trkpt>
      <trkpt lat="45.62344" lon="6.32143">
        <ele>309.2</ele>
        <time>2016-10-04T07:41:18Z</time>
      </trkpt>
      <trkpt lat="45.62343" lon="6.32135">
        <ele>309.68</ele>
        <time>2016-10-04T07:41:19Z</time>
      </trkpt>
      <trkpt lat="45.62326" lon="6.3204">
        <ele>309.68</ele>
        <time>2016-10-04T07:41:31Z</time>
      </trkpt>
      <trkpt lat="45.62285" lon="6.31891">
        <ele>309.68</ele>
        <time>2016-10-04T07:41:50Z</time>
      </trkpt>
      <trkpt lat="45.62223" lon="6.31738">
        <ele>309.2</ele>
        <time>2016-10-04T07:42:09Z</time>
      </trkpt>
      <trkpt lat="45.62166" lon="6.31614">
        <ele>310.16</ele>
        <time>2016-10-04T07:42:26Z</time>
      </trkpt>
      <trkpt lat="45.6211" lon="6.31549">
        <ele>310.64</ele>
        <time>2016-10-04T07:42:39Z</time>
      </trkpt>
      <trkpt lat="45.62065" lon="6.31512">
        <ele>311.12</ele>
        <time>2016-10-04T07:42:48Z</time>
      </trkpt>
      <trkpt lat="45.6206" lon="6.31507">
        <ele>311.12</ele>
        <time>2016-10-04T07:42:49Z</time>
      </trkpt>
      <trkpt lat="45.62057" lon="6.31501">
        <ele>310.16</ele>
        <time>2016-10-04T07:42:50Z</time>
      </trkpt>
      <trkpt lat="45.62053" lon="6.31494">
        <ele>310.64</ele>
        <time>2016-10-04T07:42:51Z</time>
      </trkpt>
      <trkpt lat="45.6205" lon="6.31487">
        <ele>311.12</ele>
        <time>2016-10-04T07:42:52Z</time>
      </trkpt>
      <trkpt lat="45.61988" lon="6.31368">
        <ele>311.12</ele>
        <time>2016-10-04T07:43:10Z</time>
      </trkpt>
      <trkpt lat="45.61928" lon="6.31227">
        <ele>308.24</ele>
        <time>2016-10-04T07:43:28Z</time>
      </trkpt>
      <trkpt lat="45.6189" lon="6.31044">
        <ele>307.76</ele>
        <time>2016-10-04T07:43:47Z</time>
      </trkpt>
      <trkpt lat="45.61838" lon="6.30888">
        <ele>307.76</ele>
        <time>2016-10-04T07:44:05Z</time>
      </trkpt>
      <trkpt lat="45.61769" lon="6.30705">
        <ele>306.8</ele>
        <time>2016-10-04T07:44:27Z</time>
      </trkpt>
      <trkpt lat="45.61695" lon="6.30587">
        <ele>306.8</ele>
        <time>2016-10-04T07:44:44Z</time>
      </trkpt>
      <trkpt lat="45.61664" lon="6.30552">
        <ele>307.28</ele>
        <time>2016-10-04T07:44:50Z</time>
      </trkpt>
      <trkpt lat="45.61658" lon="6.30548">
        <ele>306.32</ele>
        <time>2016-10-04T07:44:51Z</time>
      </trkpt>
      <trkpt lat="45.61653" lon="6.30545">
        <ele>307.28</ele>
        <time>2016-10-04T07:44:52Z</time>
      </trkpt>
      <trkpt lat="45.61647" lon="6.30544">
        <ele>307.28</ele>
        <time>2016-10-04T07:44:53Z</time>
      </trkpt>
      <trkpt lat="45.61641" lon="6.30545">
        <ele>306.8</ele>
        <time>2016-10-04T07:44:54Z</time>
      </trkpt>
      <trkpt lat="45.61635" lon="6.30548">
        <ele>306.8</ele>
        <time>2016-10-04T07:44:55Z</time>
      </trkpt>
      <trkpt lat="45.6163" lon="6.30551">
        <ele>306.8</ele>
        <time>2016-10-04T07:44:56Z</time>
      </trkpt>
      <trkpt lat="45.61625" lon="6.30556">
        <ele>306.8</ele>
        <time>2016-10-04T07:44:57Z</time>
      </trkpt>
      <trkpt lat="45.61621" lon="6.30562">
        <ele>307.28</ele>
        <time>2016-10-04T07:44:58Z</time>
      </trkpt>
      <trkpt lat="45.61617" lon="6.30569">
        <ele>306.32</ele>
        <time>2016-10-04T07:44:59Z</time>
      </trkpt>
      <trkpt lat="45.61577" lon="6.30654">
        <ele>306.32</ele>
        <time>2016-10-04T07:45:12Z</time>
      </trkpt>
      <trkpt lat="45.6154" lon="6.30738">
        <ele>305.36</ele>
        <time>2016-10-04T07:45:26Z</time>
      </trkpt>
      <trkpt lat="45.61484" lon="6.30856">
        <ele>305.36</ele>
        <time>2016-10-04T07:45:44Z</time>
      </trkpt>
      <trkpt lat="45.61466" lon="6.30887">
        <ele>306.32</ele>
        <time>2016-10-04T07:45:49Z</time>
      </trkpt>
      <trkpt lat="45.61462" lon="6.30892">
        <ele>305.84</ele>
        <time>2016-10-04T07:45:50Z</time>
      </trkpt>
      <trkpt lat="45.61457" lon="6.30895">
        <ele>305.84</ele>
        <time>2016-10-04T07:45:51Z</time>
      </trkpt>
      <trkpt lat="45.61452" lon="6.30895">
        <ele>306.32</ele>
        <time>2016-10-04T07:45:52Z</time>
      </trkpt>
      <trkpt lat="45.61447" lon="6.30892">
        <ele>305.84</ele>
        <time>2016-10-04T07:45:53Z</time>
      </trkpt>
      <trkpt lat="45.61444" lon="6.30888">
        <ele>305.84</ele>
        <time>2016-10-04T07:45:54Z</time>
      </trkpt>
      <trkpt lat="45.61441" lon="6.30882">
        <ele>306.32</ele>
        <time>2016-10-04T07:45:55Z</time>
      </trkpt>
      <trkpt lat="45.61438" lon="6.30876">
        <ele>305.84</ele>
        <time>2016-10-04T07:45:56Z</time>
      </trkpt>
      <trkpt lat="45.61436" lon="6.30869">
        <ele>307.28</ele>
        <time>2016-10-04T07:45:57Z</time>
      </trkpt>
      <trkpt lat="45.61406" lon="6.30793">
        <ele>304.39</ele>
        <time>2016-10-04T07:46:10Z</time>
      </trkpt>
      <trkpt lat="45.61378" lon="6.30733">
        <ele>305.36</ele>
        <time>2016-10-04T07:46:24Z</time>
      </trkpt>
      <trkpt lat="45.6134" lon="6.30666">
        <ele>305.36</ele>
        <time>2016-10-04T07:46:40Z</time>
      </trkpt>
      <trkpt lat="45.61299" lon="6.30581">
        <ele>305.84</ele>
        <time>2016-10-04T07:46:54Z</time>
      </trkpt>
      <trkpt lat="45.61255" lon="6.30491">
        <ele>305.84</ele>
        <time>2016-10-04T07:47:08Z</time>
      </trkpt>
      <trkpt lat="45.61193" lon="6.30361">
        <ele>305.84</ele>
        <time>2016-10-04T07:47:28Z</time>
      </trkpt>
      <trkpt lat="45.61136" lon="6.30243">
        <ele>304.88</ele>
        <time>2016-10-04T07:47:46Z</time>
      </trkpt>
      <trkpt lat="45.61065" lon="6.30097">
        <ele>304.39</ele>
        <time>2016-10-04T07:48:08Z</time>
      </trkpt>
      <trkpt lat="45.6099" lon="6.29943">
        <ele>304.88</ele>
        <time>2016-10-04T07:48:31Z</time>
      </trkpt>
      <trkpt lat="45.6094" lon="6.29836">
        <ele>304.88</ele>
        <time>2016-10-04T07:48:47Z</time>
      </trkpt>
      <trkpt lat="45.60881" lon="6.29711">
        <ele>304.88</ele>
        <time>2016-10-04T07:49:06Z</time>
      </trkpt>
      <trkpt lat="45.60822" lon="6.29589">
        <ele>304.39</ele>
        <time>2016-10-04T07:49:24Z</time>
      </trkpt>
      <trkpt lat="45.60745" lon="6.29428">
        <ele>303.91</ele>
        <time>2016-10-04T07:49:47Z</time>
      </trkpt>
      <trkpt lat="45.60692" lon="6.29314">
        <ele>304.39</ele>
        <time>2016-10-04T07:50:05Z</time>
      </trkpt>
      <trkpt lat="45.60691" lon="6.29308">
        <ele>303.43</ele>
        <time>2016-10-04T07:50:06Z</time>
      </trkpt>
      <trkpt lat="45.60689" lon="6.29269">
        <ele>303.91</ele>
        <time>2016-10-04T07:50:13Z</time>
      </trkpt>
      <trkpt lat="45.6069" lon="6.29214">
        <ele>303.91</ele>
        <time>2016-10-04T07:50:22Z</time>
      </trkpt>
      <trkpt lat="45.6069" lon="6.29208">
        <ele>303.91</ele>
        <time>2016-10-04T07:50:23Z</time>
      </trkpt>
      <trkpt lat="45.60691" lon="6.29164">
        <ele>303.91</ele>
        <time>2016-10-04T07:50:30Z</time>
      </trkpt>
      <trkpt lat="45.60691" lon="6.29152">
        <ele>304.39</ele>
        <time>2016-10-04T07:50:32Z</time>
      </trkpt>
      <trkpt lat="45.60692" lon="6.29145">
        <ele>304.39</ele>
        <time>2016-10-04T07:50:33Z</time>
      </trkpt>
      <trkpt lat="45.60691" lon="6.29139">
        <ele>304.39</ele>
        <time>2016-10-04T07:50:34Z</time>
      </trkpt>
      <trkpt lat="45.60693" lon="6.29051">
        <ele>303.43</ele>
        <time>2016-10-04T07:50:49Z</time>
      </trkpt>
      <trkpt lat="45.60695" lon="6.28991">
        <ele>303.43</ele>
        <time>2016-10-04T07:50:58Z</time>
      </trkpt>
      <trkpt lat="45.60695" lon="6.28984">
        <ele>303.43</ele>
        <time>2016-10-04T07:50:59Z</time>
      </trkpt>
      <trkpt lat="45.60697" lon="6.28889">
        <ele>302.95</ele>
        <time>2016-10-04T07:51:13Z</time>
      </trkpt>
      <trkpt lat="45.60703" lon="6.28842">
        <ele>302.95</ele>
        <time>2016-10-04T07:51:20Z</time>
      </trkpt>
      <trkpt lat="45.60711" lon="6.28787">
        <ele>303.43</ele>
        <time>2016-10-04T07:51:28Z</time>
      </trkpt>
      <trkpt lat="45.60722" lon="6.28756">
        <ele>302.47</ele>
        <time>2016-10-04T07:51:34Z</time>
      </trkpt>
      <trkpt lat="45.60725" lon="6.28752">
        <ele>302.47</ele>
        <time>2016-10-04T07:51:35Z</time>
      </trkpt>
      <trkpt lat="45.60728" lon="6.28748">
        <ele>302.95</ele>
        <time>2016-10-04T07:51:36Z</time>
      </trkpt>
      <trkpt lat="45.60749" lon="6.28707">
        <ele>303.91</ele>
        <time>2016-10-04T07:51:47Z</time>
      </trkpt>
      <trkpt lat="45.60749" lon="6.28703">
        <ele>303.43</ele>
        <time>2016-10-04T07:51:48Z</time>
      </trkpt>
      <trkpt lat="45.60748" lon="6.28698">
        <ele>303.43</ele>
        <time>2016-10-04T07:51:49Z</time>
      </trkpt>
      <trkpt lat="45.60747" lon="6.28695">
        <ele>302.95</ele>
        <time>2016-10-04T07:51:50Z</time>
      </trkpt>
      <trkpt lat="45.60745" lon="6.28692">
        <ele>302.95</ele>
        <time>2016-10-04T07:51:51Z</time>
      </trkpt>
      <trkpt lat="45.60744" lon="6.2869">
        <ele>302.95</ele>
        <time>2016-10-04T07:51:52Z</time>
      </trkpt>
      <trkpt lat="45.60742" lon="6.28687">
        <ele>302.95</ele>
        <time>2016-10-04T07:51:53Z</time>
      </trkpt>
      <trkpt lat="45.6074" lon="6.28685">
        <ele>302.95</ele>
        <time>2016-10-04T07:51:54Z</time>
      </trkpt>
      <trkpt lat="45.60738" lon="6.28683">
        <ele>302.95</ele>
        <time>2016-10-04T07:51:55Z</time>
      </trkpt>
      <trkpt lat="45.60706" lon="6.28631">
        <ele>303.43</ele>
        <time>2016-10-04T07:52:09Z</time>
      </trkpt>
      <trkpt lat="45.60682" lon="6.28599">
        <ele>303.91</ele>
        <time>2016-10-04T07:52:17Z</time>
      </trkpt>
      <trkpt lat="45.6064" lon="6.2855">
        <ele>302.47</ele>
        <time>2016-10-04T07:52:27Z</time>
      </trkpt>
      <trkpt lat="45.60584" lon="6.2848">
        <ele>301.99</ele>
        <time>2016-10-04T07:52:43Z</time>
      </trkpt>
      <trkpt lat="45.60564" lon="6.28462">
        <ele>301.51</ele>
        <time>2016-10-04T07:52:48Z</time>
      </trkpt>
      <trkpt lat="45.60518" lon="6.28408">
        <ele>301.99</ele>
        <time>2016-10-04T07:53:00Z</time>
      </trkpt>
      <trkpt lat="45.60507" lon="6.28395">
        <ele>301.51</ele>
        <time>2016-10-04T07:53:03Z</time>
      </trkpt>
      <trkpt lat="45.6046" lon="6.28348">
        <ele>301.51</ele>
        <time>2016-10-04T07:53:15Z</time>
      </trkpt>
      <trkpt lat="45.60387" lon="6.28277">
        <ele>301.51</ele>
        <time>2016-10-04T07:53:33Z</time>
      </trkpt>
      <trkpt lat="45.60362" lon="6.28255">
        <ele>301.51</ele>
        <time>2016-10-04T07:53:39Z</time>
      </trkpt>
      <trkpt lat="45.60293" lon="6.28197">
        <ele>301.03</ele>
        <time>2016-10-04T07:53:56Z</time>
      </trkpt>
      <trkpt lat="45.60232" lon="6.28155">
        <ele>300.55</ele>
        <time>2016-10-04T07:54:11Z</time>
      </trkpt>
      <trkpt lat="45.60153" lon="6.28102">
        <ele>301.03</ele>
        <time>2016-10-04T07:54:29Z</time>
      </trkpt>
      <trkpt lat="45.60088" lon="6.28065">
        <ele>301.03</ele>
        <time>2016-10-04T07:54:44Z</time>
      </trkpt>
      <trkpt lat="45.60027" lon="6.28032">
        <ele>301.03</ele>
        <time>2016-10-04T07:55:00Z</time>
      </trkpt>
      <trkpt lat="45.60014" lon="6.28025">
        <ele>301.03</ele>
        <time>2016-10-04T07:55:12Z</time>
      </trkpt>
      <trkpt lat="45.60011" lon="6.28029">
        <ele>301.03</ele>
        <time>2016-10-04T07:55:43Z</time>
      </trkpt>
      <trkpt lat="45.60011" lon="6.28028">
        <ele>300.55</ele>
        <time>2016-10-04T07:56:18Z</time>
      </trkpt>
      <trkpt lat="45.60013" lon="6.28027">
        <ele>301.03</ele>
        <time>2016-10-04T07:56:55Z</time>
      </trkpt>
      <trkpt lat="45.60012" lon="6.28026">
        <ele>301.51</ele>
        <time>2016-10-04T07:57:29Z</time>
      </trkpt>
      <trkpt lat="45.59997" lon="6.28017">
        <ele>301.51</ele>
        <time>2016-10-04T07:57:49Z</time>
      </trkpt>
      <trkpt lat="45.59957" lon="6.27995">
        <ele>301.99</ele>
        <time>2016-10-04T07:58:03Z</time>
      </trkpt>
      <trkpt lat="45.59916" lon="6.27979">
        <ele>301.03</ele>
        <time>2016-10-04T07:58:15Z</time>
      </trkpt>
      <trkpt lat="45.5987" lon="6.27959">
        <ele>301.03</ele>
        <time>2016-10-04T07:58:29Z</time>
      </trkpt>
      <trkpt lat="45.59803" lon="6.27929">
        <ele>301.51</ele>
        <time>2016-10-04T07:58:46Z</time>
      </trkpt>
      <trkpt lat="45.59766" lon="6.27916">
        <ele>300.55</ele>
        <time>2016-10-04T07:58:58Z</time>
      </trkpt>
      <trkpt lat="45.59724" lon="6.27894">
        <ele>300.07</ele>
        <time>2016-10-04T07:59:13Z</time>
      </trkpt>
      <trkpt lat="45.5968" lon="6.27874">
        <ele>301.51</ele>
        <time>2016-10-04T07:59:27Z</time>
      </trkpt>
      <trkpt lat="45.59639" lon="6.27861">
        <ele>300.55</ele>
        <time>2016-10-04T07:59:41Z</time>
      </trkpt>
      <trkpt lat="45.59609" lon="6.27863">
        <ele>300.55</ele>
        <time>2016-10-04T07:59:53Z</time>
      </trkpt>
      <trkpt lat="45.59574" lon="6.27849">
        <ele>300.55</ele>
        <time>2016-10-04T08:00:05Z</time>
      </trkpt>
      <trkpt lat="45.5952" lon="6.27806">
        <ele>299.59</ele>
        <time>2016-10-04T08:00:21Z</time>
      </trkpt>
      <trkpt lat="45.59503" lon="6.27799">
        <ele>299.59</ele>
        <time>2016-10-04T08:00:25Z</time>
      </trkpt>
      <trkpt lat="45.59432" lon="6.27769">
        <ele>299.59</ele>
        <time>2016-10-04T08:00:42Z</time>
      </trkpt>
      <trkpt lat="45.59364" lon="6.27738">
        <ele>299.11</ele>
        <time>2016-10-04T08:00:57Z</time>
      </trkpt>
      <trkpt lat="45.59294" lon="6.27705">
        <ele>299.59</ele>
        <time>2016-10-04T08:01:12Z</time>
      </trkpt>
      <trkpt lat="45.59222" lon="6.27674">
        <ele>299.59</ele>
        <time>2016-10-04T08:01:28Z</time>
      </trkpt>
      <trkpt lat="45.59199" lon="6.27664">
        <ele>299.59</ele>
        <time>2016-10-04T08:01:33Z</time>
      </trkpt>
      <trkpt lat="45.59126" lon="6.27632">
        <ele>299.59</ele>
        <time>2016-10-04T08:01:49Z</time>
      </trkpt>
      <trkpt lat="45.59086" lon="6.27614">
        <ele>299.59</ele>
        <time>2016-10-04T08:01:58Z</time>
      </trkpt>
      <trkpt lat="45.5903" lon="6.27587">
        <ele>299.11</ele>
        <time>2016-10-04T08:02:12Z</time>
      </trkpt>
      <trkpt lat="45.58975" lon="6.27562">
        <ele>299.11</ele>
        <time>2016-10-04T08:02:26Z</time>
      </trkpt>
      <trkpt lat="45.58904" lon="6.2753">
        <ele>299.59</ele>
        <time>2016-10-04T08:02:42Z</time>
      </trkpt>
      <trkpt lat="45.58823" lon="6.27493">
        <ele>298.63</ele>
        <time>2016-10-04T08:03:00Z</time>
      </trkpt>
      <trkpt lat="45.58745" lon="6.27459">
        <ele>299.11</ele>
        <time>2016-10-04T08:03:16Z</time>
      </trkpt>
      <trkpt lat="45.58681" lon="6.27429">
        <ele>298.63</ele>
        <time>2016-10-04T08:03:29Z</time>
      </trkpt>
      <trkpt lat="45.58648" lon="6.27415">
        <ele>299.11</ele>
        <time>2016-10-04T08:03:36Z</time>
      </trkpt>
      <trkpt lat="45.58636" lon="6.27409">
        <ele>299.11</ele>
        <time>2016-10-04T08:03:39Z</time>
      </trkpt>
      <trkpt lat="45.58628" lon="6.27405">
        <ele>298.15</ele>
        <time>2016-10-04T08:03:41Z</time>
      </trkpt>
      <trkpt lat="45.58548" lon="6.27373">
        <ele>298.15</ele>
        <time>2016-10-04T08:03:58Z</time>
      </trkpt>
      <trkpt lat="45.58474" lon="6.27336">
        <ele>298.15</ele>
        <time>2016-10-04T08:04:13Z</time>
      </trkpt>
      <trkpt lat="45.58461" lon="6.27328">
        <ele>298.15</ele>
        <time>2016-10-04T08:04:16Z</time>
      </trkpt>
      <trkpt lat="45.58457" lon="6.27326">
        <ele>297.18</ele>
        <time>2016-10-04T08:04:17Z</time>
      </trkpt>
      <trkpt lat="45.5844" lon="6.27317">
        <ele>297.18</ele>
        <time>2016-10-04T08:04:21Z</time>
      </trkpt>
      <trkpt lat="45.58407" lon="6.27293">
        <ele>296.7</ele>
        <time>2016-10-04T08:04:29Z</time>
      </trkpt>
      <trkpt lat="45.58403" lon="6.2729">
        <ele>297.67</ele>
        <time>2016-10-04T08:04:30Z</time>
      </trkpt>
      <trkpt lat="45.58398" lon="6.27287">
        <ele>297.67</ele>
        <time>2016-10-04T08:04:31Z</time>
      </trkpt>
      <trkpt lat="45.58374" lon="6.2727">
        <ele>296.7</ele>
        <time>2016-10-04T08:04:37Z</time>
      </trkpt>
      <trkpt lat="45.58339" lon="6.27239">
        <ele>296.7</ele>
        <time>2016-10-04T08:04:48Z</time>
      </trkpt>
      <trkpt lat="45.58313" lon="6.27213">
        <ele>298.63</ele>
        <time>2016-10-04T08:04:57Z</time>
      </trkpt>
      <trkpt lat="45.58308" lon="6.2721">
        <ele>299.59</ele>
        <time>2016-10-04T08:05:00Z</time>
      </trkpt>
      <trkpt lat="45.58306" lon="6.2721">
        <ele>299.59</ele>
        <time>2016-10-04T08:05:01Z</time>
      </trkpt>
      <trkpt lat="45.58305" lon="6.2721">
        <ele>299.59</ele>
        <time>2016-10-04T08:05:02Z</time>
      </trkpt>
      <trkpt lat="45.58303" lon="6.27211">
        <ele>299.59</ele>
        <time>2016-10-04T08:05:03Z</time>
      </trkpt>
      <trkpt lat="45.58302" lon="6.27213">
        <ele>299.11</ele>
        <time>2016-10-04T08:05:04Z</time>
      </trkpt>
      <trkpt lat="45.58301" lon="6.27214">
        <ele>300.07</ele>
        <time>2016-10-04T08:05:05Z</time>
      </trkpt>
      <trkpt lat="45.583" lon="6.27216">
        <ele>299.11</ele>
        <time>2016-10-04T08:05:06Z</time>
      </trkpt>
      <trkpt lat="45.58297" lon="6.27218">
        <ele>299.59</ele>
        <time>2016-10-04T08:05:07Z</time>
      </trkpt>
      <trkpt lat="45.58275" lon="6.27252">
        <ele>299.11</ele>
        <time>2016-10-04T08:05:18Z</time>
      </trkpt>
      <trkpt lat="45.58269" lon="6.27266">
        <ele>299.11</ele>
        <time>2016-10-04T08:05:21Z</time>
      </trkpt>
      <trkpt lat="45.58266" lon="6.27271">
        <ele>299.11</ele>
        <time>2016-10-04T08:05:22Z</time>
      </trkpt>
      <trkpt lat="45.58264" lon="6.27277">
        <ele>299.11</ele>
        <time>2016-10-04T08:05:23Z</time>
      </trkpt>
      <trkpt lat="45.58258" lon="6.27289">
        <ele>298.63</ele>
        <time>2016-10-04T08:05:25Z</time>
      </trkpt>
      <trkpt lat="45.58255" lon="6.27295">
        <ele>298.15</ele>
        <time>2016-10-04T08:05:26Z</time>
      </trkpt>
      <trkpt lat="45.58222" lon="6.27357">
        <ele>297.67</ele>
        <time>2016-10-04T08:05:36Z</time>
      </trkpt>
      <trkpt lat="45.58205" lon="6.27387">
        <ele>297.18</ele>
        <time>2016-10-04T08:05:41Z</time>
      </trkpt>
      <trkpt lat="45.582" lon="6.27391">
        <ele>297.18</ele>
        <time>2016-10-04T08:05:42Z</time>
      </trkpt>
      <trkpt lat="45.58195" lon="6.27392">
        <ele>296.7</ele>
        <time>2016-10-04T08:05:43Z</time>
      </trkpt>
      <trkpt lat="45.58189" lon="6.27391">
        <ele>296.7</ele>
        <time>2016-10-04T08:05:44Z</time>
      </trkpt>
      <trkpt lat="45.58184" lon="6.27388">
        <ele>297.18</ele>
        <time>2016-10-04T08:05:45Z</time>
      </trkpt>
      <trkpt lat="45.58179" lon="6.27384">
        <ele>297.18</ele>
        <time>2016-10-04T08:05:46Z</time>
      </trkpt>
      <trkpt lat="45.58175" lon="6.27379">
        <ele>297.67</ele>
        <time>2016-10-04T08:05:47Z</time>
      </trkpt>
      <trkpt lat="45.58171" lon="6.27375">
        <ele>297.18</ele>
        <time>2016-10-04T08:05:48Z</time>
      </trkpt>
      <trkpt lat="45.58111" lon="6.27313">
        <ele>297.18</ele>
        <time>2016-10-04T08:06:01Z</time>
      </trkpt>
      <trkpt lat="45.58042" lon="6.27244">
        <ele>297.18</ele>
        <time>2016-10-04T08:06:16Z</time>
      </trkpt>
      <trkpt lat="45.57962" lon="6.27165">
        <ele>297.18</ele>
        <time>2016-10-04T08:06:33Z</time>
      </trkpt>
      <trkpt lat="45.57887" lon="6.27091">
        <ele>296.7</ele>
        <time>2016-10-04T08:06:48Z</time>
      </trkpt>
      <trkpt lat="45.57798" lon="6.27005">
        <ele>296.7</ele>
        <time>2016-10-04T08:07:05Z</time>
      </trkpt>
      <trkpt lat="45.57685" lon="6.26897">
        <ele>296.7</ele>
        <time>2016-10-04T08:07:26Z</time>
      </trkpt>
      <trkpt lat="45.5767" lon="6.26881">
        <ele>296.7</ele>
        <time>2016-10-04T08:07:29Z</time>
      </trkpt>
      <trkpt lat="45.57665" lon="6.26876">
        <ele>296.7</ele>
        <time>2016-10-04T08:07:30Z</time>
      </trkpt>
      <trkpt lat="45.5757" lon="6.26784">
        <ele>296.22</ele>
        <time>2016-10-04T08:07:48Z</time>
      </trkpt>
      <trkpt lat="45.57477" lon="6.26693">
        <ele>296.22</ele>
        <time>2016-10-04T08:08:06Z</time>
      </trkpt>
      <trkpt lat="45.5737" lon="6.2659">
        <ele>296.7</ele>
        <time>2016-10-04T08:08:26Z</time>
      </trkpt>
      <trkpt lat="45.57275" lon="6.26483">
        <ele>295.74</ele>
        <time>2016-10-04T08:08:45Z</time>
      </trkpt>
      <trkpt lat="45.57223" lon="6.26358">
        <ele>295.26</ele>
        <time>2016-10-04T08:09:01Z</time>
      </trkpt>
      <trkpt lat="45.57207" lon="6.26318">
        <ele>296.22</ele>
        <time>2016-10-04T08:09:06Z</time>
      </trkpt>
      <trkpt lat="45.57159" lon="6.26202">
        <ele>295.74</ele>
        <time>2016-10-04T08:09:21Z</time>
      </trkpt>
      <trkpt lat="45.5711" lon="6.26081">
        <ele>296.7</ele>
        <time>2016-10-04T08:09:37Z</time>
      </trkpt>
      <trkpt lat="45.57062" lon="6.25957">
        <ele>296.22</ele>
        <time>2016-10-04T08:09:53Z</time>
      </trkpt>
      <trkpt lat="45.56999" lon="6.25815">
        <ele>294.78</ele>
        <time>2016-10-04T08:10:11Z</time>
      </trkpt>
      <trkpt lat="45.56941" lon="6.25691">
        <ele>296.22</ele>
        <time>2016-10-04T08:10:29Z</time>
      </trkpt>
      <trkpt lat="45.56843" lon="6.25585">
        <ele>296.22</ele>
        <time>2016-10-04T08:10:51Z</time>
      </trkpt>
      <trkpt lat="45.56743" lon="6.25481">
        <ele>297.18</ele>
        <time>2016-10-04T08:11:14Z</time>
      </trkpt>
      <trkpt lat="45.56664" lon="6.25399">
        <ele>297.67</ele>
        <time>2016-10-04T08:11:34Z</time>
      </trkpt>
      <trkpt lat="45.56598" lon="6.25327">
        <ele>297.67</ele>
        <time>2016-10-04T08:11:51Z</time>
      </trkpt>
      <trkpt lat="45.5653" lon="6.25253">
        <ele>298.15</ele>
        <time>2016-10-04T08:12:08Z</time>
      </trkpt>
      <trkpt lat="45.56512" lon="6.25239">
        <ele>297.67</ele>
        <time>2016-10-04T08:12:12Z</time>
      </trkpt>
      <trkpt lat="45.56507" lon="6.25236">
        <ele>299.11</ele>
        <time>2016-10-04T08:12:13Z</time>
      </trkpt>
      <trkpt lat="45.56437" lon="6.25199">
        <ele>298.63</ele>
        <time>2016-10-04T08:12:29Z</time>
      </trkpt>
      <trkpt lat="45.56424" lon="6.25191">
        <ele>299.59</ele>
        <time>2016-10-04T08:12:32Z</time>
      </trkpt>
      <trkpt lat="45.5642" lon="6.25188">
        <ele>299.59</ele>
        <time>2016-10-04T08:12:33Z</time>
      </trkpt>
      <trkpt lat="45.56354" lon="6.25148">
        <ele>299.59</ele>
        <time>2016-10-04T08:12:49Z</time>
      </trkpt>
      <trkpt lat="45.5635" lon="6.25146">
        <ele>299.59</ele>
        <time>2016-10-04T08:12:50Z</time>
      </trkpt>
      <trkpt lat="45.56341" lon="6.25141">
        <ele>299.59</ele>
        <time>2016-10-04T08:12:52Z</time>
      </trkpt>
      <trkpt lat="45.56289" lon="6.25111">
        <ele>300.07</ele>
        <time>2016-10-04T08:13:04Z</time>
      </trkpt>
      <trkpt lat="45.56285" lon="6.25109">
        <ele>300.55</ele>
        <time>2016-10-04T08:13:05Z</time>
      </trkpt>
      <trkpt lat="45.56281" lon="6.25107">
        <ele>300.55</ele>
        <time>2016-10-04T08:13:06Z</time>
      </trkpt>
      <trkpt lat="45.56276" lon="6.25105">
        <ele>300.55</ele>
        <time>2016-10-04T08:13:07Z</time>
      </trkpt>
      <trkpt lat="45.56272" lon="6.25103">
        <ele>301.03</ele>
        <time>2016-10-04T08:13:08Z</time>
      </trkpt>
      <trkpt lat="45.56226" lon="6.25094">
        <ele>301.03</ele>
        <time>2016-10-04T08:13:21Z</time>
      </trkpt>
      <trkpt lat="45.56169" lon="6.25089">
        <ele>301.03</ele>
        <time>2016-10-04T08:13:34Z</time>
      </trkpt>
      <trkpt lat="45.56107" lon="6.25084">
        <ele>301.51</ele>
        <time>2016-10-04T08:13:47Z</time>
      </trkpt>
      <trkpt lat="45.56002" lon="6.25074">
        <ele>302.47</ele>
        <time>2016-10-04T08:14:08Z</time>
      </trkpt>
      <trkpt lat="45.55957" lon="6.25071">
        <ele>302.95</ele>
        <time>2016-10-04T08:14:17Z</time>
      </trkpt>
      <trkpt lat="45.55887" lon="6.25083">
        <ele>302.95</ele>
        <time>2016-10-04T08:14:31Z</time>
      </trkpt>
      <trkpt lat="45.55824" lon="6.25144">
        <ele>301.99</ele>
        <time>2016-10-04T08:14:47Z</time>
      </trkpt>
      <trkpt lat="45.55772" lon="6.2522">
        <ele>303.43</ele>
        <time>2016-10-04T08:15:04Z</time>
      </trkpt>
      <trkpt lat="45.5576" lon="6.25236">
        <ele>304.39</ele>
        <time>2016-10-04T08:15:08Z</time>
      </trkpt>
      <trkpt lat="45.55723" lon="6.25244">
        <ele>305.84</ele>
        <time>2016-10-04T08:15:19Z</time>
      </trkpt>
      <trkpt lat="45.55712" lon="6.25248">
        <ele>306.32</ele>
        <time>2016-10-04T08:15:22Z</time>
      </trkpt>
      <trkpt lat="45.55709" lon="6.25251">
        <ele>305.84</ele>
        <time>2016-10-04T08:15:23Z</time>
      </trkpt>
      <trkpt lat="45.55706" lon="6.25255">
        <ele>305.36</ele>
        <time>2016-10-04T08:15:24Z</time>
      </trkpt>
      <trkpt lat="45.55704" lon="6.2526">
        <ele>306.32</ele>
        <time>2016-10-04T08:15:25Z</time>
      </trkpt>
      <trkpt lat="45.55702" lon="6.25264">
        <ele>306.32</ele>
        <time>2016-10-04T08:15:26Z</time>
      </trkpt>
      <trkpt lat="45.557" lon="6.25269">
        <ele>305.84</ele>
        <time>2016-10-04T08:15:27Z</time>
      </trkpt>
      <trkpt lat="45.557" lon="6.25274">
        <ele>305.84</ele>
        <time>2016-10-04T08:15:28Z</time>
      </trkpt>
      <trkpt lat="45.557" lon="6.25279">
        <ele>305.84</ele>
        <time>2016-10-04T08:15:29Z</time>
      </trkpt>
      <trkpt lat="45.55701" lon="6.25285">
        <ele>305.84</ele>
        <time>2016-10-04T08:15:30Z</time>
      </trkpt>
      <trkpt lat="45.55702" lon="6.25291">
        <ele>305.36</ele>
        <time>2016-10-04T08:15:31Z</time>
      </trkpt>
      <trkpt lat="45.55704" lon="6.25297">
        <ele>305.84</ele>
        <time>2016-10-04T08:15:32Z</time>
      </trkpt>
      <trkpt lat="45.55705" lon="6.25303">
        <ele>305.84</ele>
        <time>2016-10-04T08:15:33Z</time>
      </trkpt>
      <trkpt lat="45.55709" lon="6.25315">
        <ele>305.84</ele>
        <time>2016-10-04T08:15:35Z</time>
      </trkpt>
      <trkpt lat="45.55709" lon="6.25322">
        <ele>305.84</ele>
        <time>2016-10-04T08:15:36Z</time>
      </trkpt>
      <trkpt lat="45.5571" lon="6.25329">
        <ele>305.84</ele>
        <time>2016-10-04T08:15:37Z</time>
      </trkpt>
      <trkpt lat="45.55709" lon="6.25342">
        <ele>305.84</ele>
        <time>2016-10-04T08:15:39Z</time>
      </trkpt>
      <trkpt lat="45.55706" lon="6.25363">
        <ele>306.32</ele>
        <time>2016-10-04T08:15:42Z</time>
      </trkpt>
      <trkpt lat="45.55699" lon="6.25381">
        <ele>306.32</ele>
        <time>2016-10-04T08:15:45Z</time>
      </trkpt>
      <trkpt lat="45.5569" lon="6.25396">
        <ele>306.8</ele>
        <time>2016-10-04T08:15:48Z</time>
      </trkpt>
      <trkpt lat="45.55626" lon="6.25494">
        <ele>309.2</ele>
        <time>2016-10-04T08:16:09Z</time>
      </trkpt>
      <trkpt lat="45.55585" lon="6.25562">
        <ele>307.76</ele>
        <time>2016-10-04T08:16:23Z</time>
      </trkpt>
      <trkpt lat="45.55567" lon="6.25585">
        <ele>307.76</ele>
        <time>2016-10-04T08:16:29Z</time>
      </trkpt>
      <trkpt lat="45.55538" lon="6.2558">
        <ele>306.8</ele>
        <time>2016-10-04T08:16:38Z</time>
      </trkpt>
      <trkpt lat="45.55529" lon="6.2562">
        <ele>307.28</ele>
        <time>2016-10-04T08:16:46Z</time>
      </trkpt>
      <trkpt lat="45.55549" lon="6.25646">
        <ele>307.76</ele>
        <time>2016-10-04T08:16:55Z</time>
      </trkpt>
      <trkpt lat="45.5555" lon="6.25647">
        <ele>307.28</ele>
        <time>2016-10-04T08:17:08Z</time>
      </trkpt>
      <trkpt lat="45.55553" lon="6.25648">
        <ele>306.8</ele>
        <time>2016-10-04T08:17:28Z</time>
      </trkpt>
      <trkpt lat="45.55555" lon="6.25647">
        <ele>307.28</ele>
        <time>2016-10-04T08:17:29Z</time>
      </trkpt>
      <trkpt lat="45.55557" lon="6.25646">
        <ele>307.28</ele>
        <time>2016-10-04T08:17:30Z</time>
      </trkpt>
      <trkpt lat="45.55559" lon="6.25645">
        <ele>307.76</ele>
        <time>2016-10-04T08:17:31Z</time>
      </trkpt>
      <trkpt lat="45.55561" lon="6.25642">
        <ele>307.76</ele>
        <time>2016-10-04T08:17:32Z</time>
      </trkpt>
      <trkpt lat="45.55563" lon="6.2564">
        <ele>307.76</ele>
        <time>2016-10-04T08:17:33Z</time>
      </trkpt>
      <trkpt lat="45.55573" lon="6.25594">
        <ele>308.24</ele>
        <time>2016-10-04T08:17:42Z</time>
      </trkpt>
      <trkpt lat="45.55547" lon="6.25559">
        <ele>306.8</ele>
        <time>2016-10-04T08:17:53Z</time>
      </trkpt>
      <trkpt lat="45.55544" lon="6.2556">
        <ele>307.28</ele>
        <time>2016-10-04T08:17:54Z</time>
      </trkpt>
      <trkpt lat="45.55541" lon="6.25563">
        <ele>307.28</ele>
        <time>2016-10-04T08:17:55Z</time>
      </trkpt>
      <trkpt lat="45.55541" lon="6.25568">
        <ele>307.28</ele>
        <time>2016-10-04T08:17:56Z</time>
      </trkpt>
      <trkpt lat="45.55541" lon="6.25573">
        <ele>307.76</ele>
        <time>2016-10-04T08:17:57Z</time>
      </trkpt>
      <trkpt lat="45.5554" lon="6.25578">
        <ele>307.76</ele>
        <time>2016-10-04T08:17:58Z</time>
      </trkpt>
      <trkpt lat="45.55539" lon="6.25583">
        <ele>307.76</ele>
        <time>2016-10-04T08:17:59Z</time>
      </trkpt>
      <trkpt lat="45.55537" lon="6.25587">
        <ele>307.28</ele>
        <time>2016-10-04T08:18:00Z</time>
      </trkpt>
      <trkpt lat="45.55534" lon="6.2559">
        <ele>306.8</ele>
        <time>2016-10-04T08:18:01Z</time>
      </trkpt>
      <trkpt lat="45.55531" lon="6.25591">
        <ele>307.28</ele>
        <time>2016-10-04T08:18:02Z</time>
      </trkpt>
      <trkpt lat="45.55527" lon="6.25591">
        <ele>306.8</ele>
        <time>2016-10-04T08:18:03Z</time>
      </trkpt>
      <trkpt lat="45.55522" lon="6.25589">
        <ele>306.32</ele>
        <time>2016-10-04T08:18:04Z</time>
      </trkpt>
      <trkpt lat="45.55518" lon="6.25586">
        <ele>306.32</ele>
        <time>2016-10-04T08:18:05Z</time>
      </trkpt>
      <trkpt lat="45.55514" lon="6.25581">
        <ele>305.84</ele>
        <time>2016-10-04T08:18:06Z</time>
      </trkpt>
      <trkpt lat="45.55511" lon="6.25575">
        <ele>305.36</ele>
        <time>2016-10-04T08:18:07Z</time>
      </trkpt>
      <trkpt lat="45.55457" lon="6.25518">
        <ele>304.39</ele>
        <time>2016-10-04T08:18:20Z</time>
      </trkpt>
      <trkpt lat="45.5539" lon="6.25477">
        <ele>304.39</ele>
        <time>2016-10-04T08:18:34Z</time>
      </trkpt>
      <trkpt lat="45.55318" lon="6.25422">
        <ele>305.36</ele>
        <time>2016-10-04T08:18:51Z</time>
      </trkpt>
      <trkpt lat="45.55299" lon="6.25411">
        <ele>306.8</ele>
        <time>2016-10-04T08:18:57Z</time>
      </trkpt>
      <trkpt lat="45.55296" lon="6.25412">
        <ele>306.32</ele>
        <time>2016-10-04T08:18:58Z</time>
      </trkpt>
      <trkpt lat="45.55293" lon="6.25415">
        <ele>305.36</ele>
        <time>2016-10-04T08:18:59Z</time>
      </trkpt>
      <trkpt lat="45.5529" lon="6.25419">
        <ele>305.84</ele>
        <time>2016-10-04T08:19:00Z</time>
      </trkpt>
      <trkpt lat="45.55287" lon="6.25424">
        <ele>305.84</ele>
        <time>2016-10-04T08:19:01Z</time>
      </trkpt>
      <trkpt lat="45.55285" lon="6.25429">
        <ele>305.84</ele>
        <time>2016-10-04T08:19:02Z</time>
      </trkpt>
      <trkpt lat="45.55283" lon="6.25434">
        <ele>305.84</ele>
        <time>2016-10-04T08:19:03Z</time>
      </trkpt>
      <trkpt lat="45.55277" lon="6.25445">
        <ele>306.32</ele>
        <time>2016-10-04T08:19:05Z</time>
      </trkpt>
      <trkpt lat="45.55274" lon="6.2545">
        <ele>305.84</ele>
        <time>2016-10-04T08:19:06Z</time>
      </trkpt>
      <trkpt lat="45.55271" lon="6.25454">
        <ele>305.36</ele>
        <time>2016-10-04T08:19:07Z</time>
      </trkpt>
      <trkpt lat="45.55258" lon="6.25472">
        <ele>305.84</ele>
        <time>2016-10-04T08:19:11Z</time>
      </trkpt>
      <trkpt lat="45.5525" lon="6.25479">
        <ele>306.32</ele>
        <time>2016-10-04T08:19:13Z</time>
      </trkpt>
      <trkpt lat="45.55239" lon="6.25486">
        <ele>306.8</ele>
        <time>2016-10-04T08:19:16Z</time>
      </trkpt>
      <trkpt lat="45.55235" lon="6.25488">
        <ele>306.8</ele>
        <time>2016-10-04T08:19:17Z</time>
      </trkpt>
      <trkpt lat="45.55231" lon="6.25489">
        <ele>307.76</ele>
        <time>2016-10-04T08:19:18Z</time>
      </trkpt>
      <trkpt lat="45.55227" lon="6.25489">
        <ele>307.76</ele>
        <time>2016-10-04T08:19:19Z</time>
      </trkpt>
      <trkpt lat="45.55224" lon="6.2549">
        <ele>307.76</ele>
        <time>2016-10-04T08:19:20Z</time>
      </trkpt>
      <trkpt lat="45.5522" lon="6.2549">
        <ele>307.76</ele>
        <time>2016-10-04T08:19:21Z</time>
      </trkpt>
      <trkpt lat="45.55217" lon="6.25489">
        <ele>307.76</ele>
        <time>2016-10-04T08:19:22Z</time>
      </trkpt>
      <trkpt lat="45.55214" lon="6.25488">
        <ele>308.72</ele>
        <time>2016-10-04T08:19:23Z</time>
      </trkpt>
      <trkpt lat="45.5518" lon="6.25487">
        <ele>310.64</ele>
        <time>2016-10-04T08:19:35Z</time>
      </trkpt>
      <trkpt lat="45.55167" lon="6.25486">
        <ele>310.64</ele>
        <time>2016-10-04T08:19:41Z</time>
      </trkpt>
      <trkpt lat="45.55165" lon="6.25488">
        <ele>311.12</ele>
        <time>2016-10-04T08:19:42Z</time>
      </trkpt>
      <trkpt lat="45.55164" lon="6.2549">
        <ele>310.64</ele>
        <time>2016-10-04T08:19:43Z</time>
      </trkpt>
      <trkpt lat="45.55164" lon="6.25492">
        <ele>311.12</ele>
        <time>2016-10-04T08:19:44Z</time>
      </trkpt>
      <trkpt lat="45.55163" lon="6.25496">
        <ele>310.64</ele>
        <time>2016-10-04T08:19:45Z</time>
      </trkpt>
      <trkpt lat="45.55164" lon="6.25499">
        <ele>310.16</ele>
        <time>2016-10-04T08:19:46Z</time>
      </trkpt>
      <trkpt lat="45.55165" lon="6.25502">
        <ele>310.64</ele>
        <time>2016-10-04T08:19:47Z</time>
      </trkpt>
      <trkpt lat="45.55167" lon="6.25507">
        <ele>311.12</ele>
        <time>2016-10-04T08:19:48Z</time>
      </trkpt>
      <trkpt lat="45.55176" lon="6.25535">
        <ele>309.68</ele>
        <time>2016-10-04T08:19:53Z</time>
      </trkpt>
      <trkpt lat="45.55182" lon="6.25575">
        <ele>310.64</ele>
        <time>2016-10-04T08:19:59Z</time>
      </trkpt>
      <trkpt lat="45.55181" lon="6.25615">
        <ele>311.6</ele>
        <time>2016-10-04T08:20:06Z</time>
      </trkpt>
      <trkpt lat="45.5518" lon="6.25621">
        <ele>311.6</ele>
        <time>2016-10-04T08:20:07Z</time>
      </trkpt>
      <trkpt lat="45.55178" lon="6.25627">
        <ele>311.6</ele>
        <time>2016-10-04T08:20:08Z</time>
      </trkpt>
      <trkpt lat="45.55176" lon="6.25633">
        <ele>311.12</ele>
        <time>2016-10-04T08:20:09Z</time>
      </trkpt>
      <trkpt lat="45.55173" lon="6.25639">
        <ele>311.12</ele>
        <time>2016-10-04T08:20:10Z</time>
      </trkpt>
      <trkpt lat="45.55165" lon="6.25655">
        <ele>311.12</ele>
        <time>2016-10-04T08:20:13Z</time>
      </trkpt>
      <trkpt lat="45.55115" lon="6.25757">
        <ele>311.6</ele>
        <time>2016-10-04T08:20:31Z</time>
      </trkpt>
      <trkpt lat="45.55091" lon="6.25799">
        <ele>311.12</ele>
        <time>2016-10-04T08:20:38Z</time>
      </trkpt>
      <trkpt lat="45.55089" lon="6.25806">
        <ele>311.12</ele>
        <time>2016-10-04T08:20:39Z</time>
      </trkpt>
      <trkpt lat="45.55087" lon="6.25815">
        <ele>311.12</ele>
        <time>2016-10-04T08:20:40Z</time>
      </trkpt>
      <trkpt lat="45.55077" lon="6.25863">
        <ele>309.2</ele>
        <time>2016-10-04T08:20:45Z</time>
      </trkpt>
      <trkpt lat="45.5507" lon="6.25925">
        <ele>308.72</ele>
        <time>2016-10-04T08:20:51Z</time>
      </trkpt>
      <trkpt lat="45.55071" lon="6.2598">
        <ele>305.36</ele>
        <time>2016-10-04T08:20:56Z</time>
      </trkpt>
      <trkpt lat="45.55092" lon="6.26137">
        <ele>304.39</ele>
        <time>2016-10-04T08:21:11Z</time>
      </trkpt>
      <trkpt lat="45.5511" lon="6.26262">
        <ele>305.36</ele>
        <time>2016-10-04T08:21:26Z</time>
      </trkpt>
      <trkpt lat="45.55116" lon="6.26293">
        <ele>306.32</ele>
        <time>2016-10-04T08:21:31Z</time>
      </trkpt>
      <trkpt lat="45.55122" lon="6.26328">
        <ele>308.24</ele>
        <time>2016-10-04T08:21:38Z</time>
      </trkpt>
      <trkpt lat="45.55126" lon="6.2638">
        <ele>310.64</ele>
        <time>2016-10-04T08:21:54Z</time>
      </trkpt>
      <trkpt lat="45.55126" lon="6.26392">
        <ele>311.12</ele>
        <time>2016-10-04T08:22:07Z</time>
      </trkpt>
      <trkpt lat="45.55126" lon="6.26396">
        <ele>310.64</ele>
        <time>2016-10-04T08:22:33Z</time>
      </trkpt>
      <trkpt lat="45.55127" lon="6.26399">
        <ele>311.12</ele>
        <time>2016-10-04T08:23:18Z</time>
      </trkpt>
      <trkpt lat="45.55127" lon="6.26397">
        <ele>311.6</ele>
        <time>2016-10-04T08:23:43Z</time>
      </trkpt>
      <trkpt lat="45.55129" lon="6.26401">
        <ele>311.12</ele>
        <time>2016-10-04T08:24:14Z</time>
      </trkpt>
      <trkpt lat="45.55126" lon="6.26397">
        <ele>311.12</ele>
        <time>2016-10-04T08:24:57Z</time>
      </trkpt>
      <trkpt lat="45.55127" lon="6.26394">
        <ele>310.64</ele>
        <time>2016-10-04T08:25:31Z</time>
      </trkpt>
      <trkpt lat="45.55128" lon="6.264">
        <ele>310.64</ele>
        <time>2016-10-04T08:26:09Z</time>
      </trkpt>
      <trkpt lat="45.55131" lon="6.26406">
        <ele>311.6</ele>
        <time>2016-10-04T08:26:46Z</time>
      </trkpt>
      <trkpt lat="45.55129" lon="6.26404">
        <ele>311.12</ele>
        <time>2016-10-04T08:27:22Z</time>
      </trkpt>
      <trkpt lat="45.55127" lon="6.26404">
        <ele>312.09</ele>
        <time>2016-10-04T08:27:58Z</time>
      </trkpt>
      <trkpt lat="45.55129" lon="6.26404">
        <ele>312.57</ele>
        <time>2016-10-04T08:28:18Z</time>
      </trkpt>
      <trkpt lat="45.55128" lon="6.26396">
        <ele>312.09</ele>
        <time>2016-10-04T08:28:46Z</time>
      </trkpt>
      <trkpt lat="45.55127" lon="6.26396">
        <ele>312.57</ele>
        <time>2016-10-04T08:29:16Z</time>
      </trkpt>
      <trkpt lat="45.55129" lon="6.26394">
        <ele>313.05</ele>
        <time>2016-10-04T08:29:50Z</time>
      </trkpt>
      <trkpt lat="45.55128" lon="6.26393">
        <ele>311.6</ele>
        <time>2016-10-04T08:30:12Z</time>
      </trkpt>
      <trkpt lat="45.55126" lon="6.26392">
        <ele>312.09</ele>
        <time>2016-10-04T08:30:33Z</time>
      </trkpt>
      <trkpt lat="45.55126" lon="6.26392">
        <ele>312.57</ele>
        <time>2016-10-04T08:30:59Z</time>
      </trkpt>
      <trkpt lat="45.55123" lon="6.26392">
        <ele>312.09</ele>
        <time>2016-10-04T08:31:28Z</time>
      </trkpt>
      <trkpt lat="45.55123" lon="6.26392">
        <ele>312.09</ele>
        <time>2016-10-04T08:31:49Z</time>
      </trkpt>
      <trkpt lat="45.55124" lon="6.26393">
        <ele>312.09</ele>
        <time>2016-10-04T08:32:18Z</time>
      </trkpt>
      <trkpt lat="45.55126" lon="6.26395">
        <ele>312.09</ele>
        <time>2016-10-04T08:32:40Z</time>
      </trkpt>
      <trkpt lat="45.55127" lon="6.26399">
        <ele>312.09</ele>
        <time>2016-10-04T08:32:52Z</time>
      </trkpt>
      <trkpt lat="45.55128" lon="6.264">
        <ele>312.09</ele>
        <time>2016-10-04T08:32:53Z</time>
      </trkpt>
      <trkpt lat="45.55129" lon="6.26402">
        <ele>312.57</ele>
        <time>2016-10-04T08:32:54Z</time>
      </trkpt>
      <trkpt lat="45.55129" lon="6.26404">
        <ele>312.57</ele>
        <time>2016-10-04T08:32:55Z</time>
      </trkpt>
      <trkpt lat="45.55128" lon="6.26406">
        <ele>311.6</ele>
        <time>2016-10-04T08:32:56Z</time>
      </trkpt>
      <trkpt lat="45.55128" lon="6.26408">
        <ele>311.6</ele>
        <time>2016-10-04T08:32:57Z</time>
      </trkpt>
      <trkpt lat="45.55125" lon="6.26458">
        <ele>309.68</ele>
        <time>2016-10-04T08:33:09Z</time>
      </trkpt>
      <trkpt lat="45.55123" lon="6.26533">
        <ele>310.16</ele>
        <time>2016-10-04T08:33:21Z</time>
      </trkpt>
      <trkpt lat="45.55123" lon="6.26565">
        <ele>310.16</ele>
        <time>2016-10-04T08:33:26Z</time>
      </trkpt>
      <trkpt lat="45.55119" lon="6.26669">
        <ele>311.6</ele>
        <time>2016-10-04T08:33:44Z</time>
      </trkpt>
      <trkpt lat="45.55114" lon="6.26729">
        <ele>312.57</ele>
        <time>2016-10-04T08:33:56Z</time>
      </trkpt>
      <trkpt lat="45.55109" lon="6.26788">
        <ele>312.57</ele>
        <time>2016-10-04T08:34:06Z</time>
      </trkpt>
      <trkpt lat="45.5511" lon="6.26803">
        <ele>312.09</ele>
        <time>2016-10-04T08:34:08Z</time>
      </trkpt>
      <trkpt lat="45.55113" lon="6.26819">
        <ele>312.09</ele>
        <time>2016-10-04T08:34:10Z</time>
      </trkpt>
      <trkpt lat="45.55116" lon="6.26827">
        <ele>311.6</ele>
        <time>2016-10-04T08:34:11Z</time>
      </trkpt>
      <trkpt lat="45.55119" lon="6.26834">
        <ele>311.12</ele>
        <time>2016-10-04T08:34:12Z</time>
      </trkpt>
      <trkpt lat="45.55162" lon="6.26936">
        <ele>311.6</ele>
        <time>2016-10-04T08:34:27Z</time>
      </trkpt>
      <trkpt lat="45.55183" lon="6.27051">
        <ele>312.57</ele>
        <time>2016-10-04T08:34:43Z</time>
      </trkpt>
      <trkpt lat="45.55197" lon="6.27156">
        <ele>310.16</ele>
        <time>2016-10-04T08:34:56Z</time>
      </trkpt>
      <trkpt lat="45.55217" lon="6.27292">
        <ele>309.68</ele>
        <time>2016-10-04T08:35:12Z</time>
      </trkpt>
      <trkpt lat="45.55244" lon="6.27441">
        <ele>309.68</ele>
        <time>2016-10-04T08:35:30Z</time>
      </trkpt>
      <trkpt lat="45.55275" lon="6.27583">
        <ele>309.2</ele>
        <time>2016-10-04T08:35:48Z</time>
      </trkpt>
      <trkpt lat="45.553" lon="6.27691">
        <ele>309.68</ele>
        <time>2016-10-04T08:36:02Z</time>
      </trkpt>
      <trkpt lat="45.55325" lon="6.27806">
        <ele>310.16</ele>
        <time>2016-10-04T08:36:18Z</time>
      </trkpt>
      <trkpt lat="45.5535" lon="6.2792">
        <ele>311.12</ele>
        <time>2016-10-04T08:36:34Z</time>
      </trkpt>
      <trkpt lat="45.55369" lon="6.28007">
        <ele>310.64</ele>
        <time>2016-10-04T08:36:47Z</time>
      </trkpt>
      <trkpt lat="45.55387" lon="6.28108">
        <ele>312.57</ele>
        <time>2016-10-04T08:37:03Z</time>
      </trkpt>
      <trkpt lat="45.55392" lon="6.28137">
        <ele>313.05</ele>
        <time>2016-10-04T08:37:08Z</time>
      </trkpt>
      <trkpt lat="45.55424" lon="6.28272">
        <ele>312.57</ele>
        <time>2016-10-04T08:37:27Z</time>
      </trkpt>
      <trkpt lat="45.55428" lon="6.28284">
        <ele>313.53</ele>
        <time>2016-10-04T08:37:29Z</time>
      </trkpt>
      <trkpt lat="45.55431" lon="6.28289">
        <ele>313.05</ele>
        <time>2016-10-04T08:37:30Z</time>
      </trkpt>
      <trkpt lat="45.55435" lon="6.28294">
        <ele>313.05</ele>
        <time>2016-10-04T08:37:31Z</time>
      </trkpt>
      <trkpt lat="45.55439" lon="6.28297">
        <ele>313.05</ele>
        <time>2016-10-04T08:37:32Z</time>
      </trkpt>
      <trkpt lat="45.55444" lon="6.28299">
        <ele>313.05</ele>
        <time>2016-10-04T08:37:33Z</time>
      </trkpt>
      <trkpt lat="45.55448" lon="6.28298">
        <ele>313.05</ele>
        <time>2016-10-04T08:37:34Z</time>
      </trkpt>
      <trkpt lat="45.55453" lon="6.28298">
        <ele>312.57</ele>
        <time>2016-10-04T08:37:35Z</time>
      </trkpt>
      <trkpt lat="45.55458" lon="6.28298">
        <ele>312.57</ele>
        <time>2016-10-04T08:37:36Z</time>
      </trkpt>
      <trkpt lat="45.55515" lon="6.28294">
        <ele>313.53</ele>
        <time>2016-10-04T08:37:49Z</time>
      </trkpt>
      <trkpt lat="45.55517" lon="6.28296">
        <ele>313.05</ele>
        <time>2016-10-04T08:37:50Z</time>
      </trkpt>
      <trkpt lat="45.55519" lon="6.283">
        <ele>313.05</ele>
        <time>2016-10-04T08:37:51Z</time>
      </trkpt>
      <trkpt lat="45.55521" lon="6.28304">
        <ele>312.57</ele>
        <time>2016-10-04T08:37:52Z</time>
      </trkpt>
      <trkpt lat="45.55521" lon="6.2831">
        <ele>311.6</ele>
        <time>2016-10-04T08:37:53Z</time>
      </trkpt>
      <trkpt lat="45.55521" lon="6.28317">
        <ele>312.57</ele>
        <time>2016-10-04T08:37:54Z</time>
      </trkpt>
      <trkpt lat="45.55521" lon="6.28324">
        <ele>312.57</ele>
        <time>2016-10-04T08:37:55Z</time>
      </trkpt>
      <trkpt lat="45.5552" lon="6.28331">
        <ele>312.57</ele>
        <time>2016-10-04T08:37:56Z</time>
      </trkpt>
      <trkpt lat="45.55506" lon="6.28461">
        <ele>313.53</ele>
        <time>2016-10-04T08:38:14Z</time>
      </trkpt>
      <trkpt lat="45.55485" lon="6.28596">
        <ele>313.53</ele>
        <time>2016-10-04T08:38:32Z</time>
      </trkpt>
      <trkpt lat="45.55451" lon="6.28746">
        <ele>314.97</ele>
        <time>2016-10-04T08:38:53Z</time>
      </trkpt>
      <trkpt lat="45.55445" lon="6.28799">
        <ele>315.45</ele>
        <time>2016-10-04T08:39:00Z</time>
      </trkpt>
      <trkpt lat="45.55407" lon="6.28903">
        <ele>315.93</ele>
        <time>2016-10-04T08:39:15Z</time>
      </trkpt>
      <trkpt lat="45.55402" lon="6.28917">
        <ele>315.93</ele>
        <time>2016-10-04T08:39:17Z</time>
      </trkpt>
      <trkpt lat="45.55399" lon="6.28932">
        <ele>316.41</ele>
        <time>2016-10-04T08:39:19Z</time>
      </trkpt>
      <trkpt lat="45.55399" lon="6.2894">
        <ele>316.41</ele>
        <time>2016-10-04T08:39:20Z</time>
      </trkpt>
      <trkpt lat="45.55398" lon="6.28948">
        <ele>316.89</ele>
        <time>2016-10-04T08:39:21Z</time>
      </trkpt>
      <trkpt lat="45.55399" lon="6.28964">
        <ele>316.41</ele>
        <time>2016-10-04T08:39:23Z</time>
      </trkpt>
      <trkpt lat="45.55401" lon="6.28972">
        <ele>316.41</ele>
        <time>2016-10-04T08:39:24Z</time>
      </trkpt>
      <trkpt lat="45.55403" lon="6.28979">
        <ele>316.89</ele>
        <time>2016-10-04T08:39:25Z</time>
      </trkpt>
      <trkpt lat="45.55421" lon="6.29034">
        <ele>316.89</ele>
        <time>2016-10-04T08:39:34Z</time>
      </trkpt>
      <trkpt lat="45.55421" lon="6.29056">
        <ele>317.37</ele>
        <time>2016-10-04T08:39:38Z</time>
      </trkpt>
      <trkpt lat="45.55419" lon="6.2906">
        <ele>317.37</ele>
        <time>2016-10-04T08:39:39Z</time>
      </trkpt>
      <trkpt lat="45.55416" lon="6.29064">
        <ele>316.89</ele>
        <time>2016-10-04T08:39:40Z</time>
      </trkpt>
      <trkpt lat="45.55414" lon="6.29068">
        <ele>317.37</ele>
        <time>2016-10-04T08:39:41Z</time>
      </trkpt>
      <trkpt lat="45.55412" lon="6.29071">
        <ele>317.37</ele>
        <time>2016-10-04T08:39:42Z</time>
      </trkpt>
      <trkpt lat="45.55362" lon="6.29147">
        <ele>317.37</ele>
        <time>2016-10-04T08:39:56Z</time>
      </trkpt>
      <trkpt lat="45.5529" lon="6.2925">
        <ele>319.3</ele>
        <time>2016-10-04T08:40:15Z</time>
      </trkpt>
      <trkpt lat="45.55222" lon="6.2934">
        <ele>319.78</ele>
        <time>2016-10-04T08:40:33Z</time>
      </trkpt>
      <trkpt lat="45.55207" lon="6.29363">
        <ele>320.74</ele>
        <time>2016-10-04T08:40:38Z</time>
      </trkpt>
      <trkpt lat="45.55146" lon="6.29437">
        <ele>323.62</ele>
        <time>2016-10-04T08:40:56Z</time>
      </trkpt>
      <trkpt lat="45.55094" lon="6.29479">
        <ele>325.06</ele>
        <time>2016-10-04T08:41:11Z</time>
      </trkpt>
      <trkpt lat="45.55027" lon="6.29513">
        <ele>326.02</ele>
        <time>2016-10-04T08:41:27Z</time>
      </trkpt>
      <trkpt lat="45.54947" lon="6.29546">
        <ele>325.54</ele>
        <time>2016-10-04T08:41:43Z</time>
      </trkpt>
      <trkpt lat="45.54857" lon="6.2958">
        <ele>323.62</ele>
        <time>2016-10-04T08:41:56Z</time>
      </trkpt>
      <trkpt lat="45.54715" lon="6.29636">
        <ele>321.7</ele>
        <time>2016-10-04T08:42:14Z</time>
      </trkpt>
      <trkpt lat="45.54599" lon="6.29707">
        <ele>320.26</ele>
        <time>2016-10-04T08:42:31Z</time>
      </trkpt>
      <trkpt lat="45.54507" lon="6.29805">
        <ele>320.74</ele>
        <time>2016-10-04T08:42:48Z</time>
      </trkpt>
      <trkpt lat="45.54466" lon="6.2987">
        <ele>320.74</ele>
        <time>2016-10-04T08:43:00Z</time>
      </trkpt>
      <trkpt lat="45.54424" lon="6.29966">
        <ele>320.26</ele>
        <time>2016-10-04T08:43:14Z</time>
      </trkpt>
      <trkpt lat="45.54398" lon="6.30026">
        <ele>320.26</ele>
        <time>2016-10-04T08:43:24Z</time>
      </trkpt>
      <trkpt lat="45.54396" lon="6.30027">
        <ele>319.78</ele>
        <time>2016-10-04T08:43:25Z</time>
      </trkpt>
      <trkpt lat="45.54394" lon="6.30026">
        <ele>320.26</ele>
        <time>2016-10-04T08:43:26Z</time>
      </trkpt>
      <trkpt lat="45.54392" lon="6.30023">
        <ele>320.26</ele>
        <time>2016-10-04T08:43:27Z</time>
      </trkpt>
      <trkpt lat="45.5439" lon="6.3002">
        <ele>320.26</ele>
        <time>2016-10-04T08:43:28Z</time>
      </trkpt>
      <trkpt lat="45.54389" lon="6.30017">
        <ele>320.26</ele>
        <time>2016-10-04T08:43:29Z</time>
      </trkpt>
      <trkpt lat="45.54388" lon="6.30013">
        <ele>319.78</ele>
        <time>2016-10-04T08:43:30Z</time>
      </trkpt>
      <trkpt lat="45.54388" lon="6.2998">
        <ele>319.3</ele>
        <time>2016-10-04T08:43:39Z</time>
      </trkpt>
      <trkpt lat="45.54387" lon="6.29977">
        <ele>319.78</ele>
        <time>2016-10-04T08:43:40Z</time>
      </trkpt>
      <trkpt lat="45.54385" lon="6.29971">
        <ele>319.78</ele>
        <time>2016-10-04T08:43:51Z</time>
      </trkpt>
      <trkpt lat="45.54383" lon="6.29973">
        <ele>320.26</ele>
        <time>2016-10-04T08:44:08Z</time>
      </trkpt>
      <trkpt lat="45.54379" lon="6.29982">
        <ele>319.3</ele>
        <time>2016-10-04T08:44:33Z</time>
      </trkpt>
      <trkpt lat="45.54383" lon="6.29979">
        <ele>320.26</ele>
        <time>2016-10-04T08:44:59Z</time>
      </trkpt>
      <trkpt lat="45.54388" lon="6.29997">
        <ele>319.78</ele>
        <time>2016-10-04T08:45:27Z</time>
      </trkpt>
      <trkpt lat="45.54386" lon="6.30006">
        <ele>319.3</ele>
        <time>2016-10-04T08:45:46Z</time>
      </trkpt>
      <trkpt lat="45.54383" lon="6.30004">
        <ele>318.81</ele>
        <time>2016-10-04T08:46:09Z</time>
      </trkpt>
      <trkpt lat="45.54383" lon="6.30003">
        <ele>319.3</ele>
        <time>2016-10-04T08:46:30Z</time>
      </trkpt>
      <trkpt lat="45.54382" lon="6.29993">
        <ele>319.3</ele>
        <time>2016-10-04T08:46:47Z</time>
      </trkpt>
      <trkpt lat="45.54381" lon="6.29983">
        <ele>319.78</ele>
        <time>2016-10-04T08:47:12Z</time>
      </trkpt>
      <trkpt lat="45.54382" lon="6.2998">
        <ele>318.33</ele>
        <time>2016-10-04T08:47:37Z</time>
      </trkpt>
      <trkpt lat="45.54382" lon="6.29975">
        <ele>318.81</ele>
        <time>2016-10-04T08:48:00Z</time>
      </trkpt>
      <trkpt lat="45.54382" lon="6.29983">
        <ele>318.81</ele>
        <time>2016-10-04T08:48:28Z</time>
      </trkpt>
      <trkpt lat="45.54387" lon="6.29985">
        <ele>318.81</ele>
        <time>2016-10-04T08:48:58Z</time>
      </trkpt>
      <trkpt lat="45.54388" lon="6.29983">
        <ele>319.3</ele>
        <time>2016-10-04T08:49:24Z</time>
      </trkpt>
      <trkpt lat="45.54387" lon="6.29983">
        <ele>319.78</ele>
        <time>2016-10-04T08:49:56Z</time>
      </trkpt>
      <trkpt lat="45.54387" lon="6.29982">
        <ele>319.3</ele>
        <time>2016-10-04T08:50:25Z</time>
      </trkpt>
      <trkpt lat="45.54386" lon="6.29981">
        <ele>319.78</ele>
        <time>2016-10-04T08:50:44Z</time>
      </trkpt>
      <trkpt lat="45.54382" lon="6.29985">
        <ele>319.78</ele>
        <time>2016-10-04T08:51:07Z</time>
      </trkpt>
      <trkpt lat="45.54381" lon="6.29988">
        <ele>319.78</ele>
        <time>2016-10-04T08:51:40Z</time>
      </trkpt>
      <trkpt lat="45.54383" lon="6.29981">
        <ele>320.26</ele>
        <time>2016-10-04T08:52:05Z</time>
      </trkpt>
      <trkpt lat="45.54379" lon="6.29987">
        <ele>320.26</ele>
        <time>2016-10-04T08:52:35Z</time>
      </trkpt>
      <trkpt lat="45.54375" lon="6.29988">
        <ele>320.74</ele>
        <time>2016-10-04T08:53:02Z</time>
      </trkpt>
      <trkpt lat="45.54376" lon="6.29983">
        <ele>320.74</ele>
        <time>2016-10-04T08:53:34Z</time>
      </trkpt>
      <trkpt lat="45.54381" lon="6.29989">
        <ele>321.22</ele>
        <time>2016-10-04T08:53:58Z</time>
      </trkpt>
      <trkpt lat="45.54379" lon="6.2999">
        <ele>321.22</ele>
        <time>2016-10-04T08:54:25Z</time>
      </trkpt>
      <trkpt lat="45.54377" lon="6.29993">
        <ele>321.22</ele>
        <time>2016-10-04T08:54:44Z</time>
      </trkpt>
      <trkpt lat="45.54382" lon="6.2998">
        <ele>322.18</ele>
        <time>2016-10-04T08:54:59Z</time>
      </trkpt>
      <trkpt lat="45.54381" lon="6.29976">
        <ele>321.7</ele>
        <time>2016-10-04T08:55:11Z</time>
      </trkpt>
      <trkpt lat="45.5438" lon="6.29976">
        <ele>321.7</ele>
        <time>2016-10-04T08:55:32Z</time>
      </trkpt>
      <trkpt lat="45.54379" lon="6.29977">
        <ele>320.74</ele>
        <time>2016-10-04T08:55:33Z</time>
      </trkpt>
      <trkpt lat="45.54378" lon="6.29979">
        <ele>322.18</ele>
        <time>2016-10-04T08:55:34Z</time>
      </trkpt>
      <trkpt lat="45.54376" lon="6.2998">
        <ele>322.18</ele>
        <time>2016-10-04T08:55:35Z</time>
      </trkpt>
      <trkpt lat="45.54374" lon="6.29981">
        <ele>321.7</ele>
        <time>2016-10-04T08:55:36Z</time>
      </trkpt>
      <trkpt lat="45.54373" lon="6.29984">
        <ele>321.7</ele>
        <time>2016-10-04T08:55:37Z</time>
      </trkpt>
      <trkpt lat="45.54373" lon="6.29987">
        <ele>322.18</ele>
        <time>2016-10-04T08:55:38Z</time>
      </trkpt>
      <trkpt lat="45.54373" lon="6.29991">
        <ele>322.18</ele>
        <time>2016-10-04T08:55:39Z</time>
      </trkpt>
      <trkpt lat="45.54375" lon="6.29995">
        <ele>321.7</ele>
        <time>2016-10-04T08:55:40Z</time>
      </trkpt>
      <trkpt lat="45.54376" lon="6.29999">
        <ele>321.7</ele>
        <time>2016-10-04T08:55:41Z</time>
      </trkpt>
      <trkpt lat="45.54378" lon="6.30003">
        <ele>321.7</ele>
        <time>2016-10-04T08:55:42Z</time>
      </trkpt>
      <trkpt lat="45.54388" lon="6.30048">
        <ele>322.18</ele>
        <time>2016-10-04T08:55:54Z</time>
      </trkpt>
      <trkpt lat="45.54368" lon="6.30105">
        <ele>321.7</ele>
        <time>2016-10-04T08:56:06Z</time>
      </trkpt>
      <trkpt lat="45.54333" lon="6.30194">
        <ele>322.66</ele>
        <time>2016-10-04T08:56:22Z</time>
      </trkpt>
      <trkpt lat="45.54323" lon="6.30216">
        <ele>323.62</ele>
        <time>2016-10-04T08:56:26Z</time>
      </trkpt>
      <trkpt lat="45.5428" lon="6.30312">
        <ele>323.62</ele>
        <time>2016-10-04T08:56:43Z</time>
      </trkpt>
      <trkpt lat="45.54261" lon="6.30356">
        <ele>323.14</ele>
        <time>2016-10-04T08:56:51Z</time>
      </trkpt>
      <trkpt lat="45.54258" lon="6.30362">
        <ele>323.14</ele>
        <time>2016-10-04T08:56:52Z</time>
      </trkpt>
      <trkpt lat="45.54256" lon="6.30367">
        <ele>323.62</ele>
        <time>2016-10-04T08:56:53Z</time>
      </trkpt>
      <trkpt lat="45.54236" lon="6.3042">
        <ele>323.62</ele>
        <time>2016-10-04T08:57:02Z</time>
      </trkpt>
      <trkpt lat="45.54228" lon="6.30441">
        <ele>323.62</ele>
        <time>2016-10-04T08:57:06Z</time>
      </trkpt>
      <trkpt lat="45.54206" lon="6.3049">
        <ele>323.62</ele>
        <time>2016-10-04T08:57:15Z</time>
      </trkpt>
      <trkpt lat="45.54203" lon="6.30495">
        <ele>323.14</ele>
        <time>2016-10-04T08:57:16Z</time>
      </trkpt>
      <trkpt lat="45.542" lon="6.305">
        <ele>324.1</ele>
        <time>2016-10-04T08:57:17Z</time>
      </trkpt>
      <trkpt lat="45.54193" lon="6.30517">
        <ele>323.62</ele>
        <time>2016-10-04T08:57:20Z</time>
      </trkpt>
      <trkpt lat="45.54171" lon="6.30555">
        <ele>322.66</ele>
        <time>2016-10-04T08:57:27Z</time>
      </trkpt>
      <trkpt lat="45.54167" lon="6.30559">
        <ele>324.58</ele>
        <time>2016-10-04T08:57:28Z</time>
      </trkpt>
      <trkpt lat="45.54164" lon="6.30564">
        <ele>324.1</ele>
        <time>2016-10-04T08:57:29Z</time>
      </trkpt>
      <trkpt lat="45.54143" lon="6.30599">
        <ele>324.58</ele>
        <time>2016-10-04T08:57:36Z</time>
      </trkpt>
      <trkpt lat="45.54137" lon="6.30609">
        <ele>324.58</ele>
        <time>2016-10-04T08:57:38Z</time>
      </trkpt>
      <trkpt lat="45.54118" lon="6.30679">
        <ele>324.58</ele>
        <time>2016-10-04T08:57:50Z</time>
      </trkpt>
      <trkpt lat="45.54117" lon="6.30703">
        <ele>325.06</ele>
        <time>2016-10-04T08:57:54Z</time>
      </trkpt>
      <trkpt lat="45.54119" lon="6.30776">
        <ele>325.54</ele>
        <time>2016-10-04T08:58:06Z</time>
      </trkpt>
      <trkpt lat="45.5412" lon="6.30783">
        <ele>325.54</ele>
        <time>2016-10-04T08:58:07Z</time>
      </trkpt>
      <trkpt lat="45.54124" lon="6.3084">
        <ele>325.06</ele>
        <time>2016-10-04T08:58:18Z</time>
      </trkpt>
      <trkpt lat="45.54127" lon="6.30842">
        <ele>325.54</ele>
        <time>2016-10-04T08:58:19Z</time>
      </trkpt>
      <trkpt lat="45.54131" lon="6.30842">
        <ele>325.54</ele>
        <time>2016-10-04T08:58:20Z</time>
      </trkpt>
      <trkpt lat="45.54135" lon="6.3084">
        <ele>325.54</ele>
        <time>2016-10-04T08:58:21Z</time>
      </trkpt>
      <trkpt lat="45.54139" lon="6.30837">
        <ele>325.54</ele>
        <time>2016-10-04T08:58:22Z</time>
      </trkpt>
      <trkpt lat="45.54142" lon="6.30834">
        <ele>325.54</ele>
        <time>2016-10-04T08:58:23Z</time>
      </trkpt>
      <trkpt lat="45.54146" lon="6.30829">
        <ele>325.54</ele>
        <time>2016-10-04T08:58:24Z</time>
      </trkpt>
      <trkpt lat="45.54149" lon="6.30824">
        <ele>325.54</ele>
        <time>2016-10-04T08:58:25Z</time>
      </trkpt>
      <trkpt lat="45.54151" lon="6.30819">
        <ele>325.54</ele>
        <time>2016-10-04T08:58:26Z</time>
      </trkpt>
      <trkpt lat="45.54154" lon="6.30815">
        <ele>325.54</ele>
        <time>2016-10-04T08:58:27Z</time>
      </trkpt>
      <trkpt lat="45.54157" lon="6.3081">
        <ele>324.58</ele>
        <time>2016-10-04T08:58:28Z</time>
      </trkpt>
      <trkpt lat="45.54161" lon="6.30806">
        <ele>324.58</ele>
        <time>2016-10-04T08:58:29Z</time>
      </trkpt>
      <trkpt lat="45.54175" lon="6.30788">
        <ele>325.06</ele>
        <time>2016-10-04T08:58:33Z</time>
      </trkpt>
      <trkpt lat="45.54179" lon="6.30786">
        <ele>325.06</ele>
        <time>2016-10-04T08:58:34Z</time>
      </trkpt>
      <trkpt lat="45.54184" lon="6.30785">
        <ele>324.58</ele>
        <time>2016-10-04T08:58:35Z</time>
      </trkpt>
      <trkpt lat="45.54188" lon="6.30786">
        <ele>325.54</ele>
        <time>2016-10-04T08:58:36Z</time>
      </trkpt>
      <trkpt lat="45.54192" lon="6.30789">
        <ele>325.54</ele>
        <time>2016-10-04T08:58:37Z</time>
      </trkpt>
      <trkpt lat="45.54195" lon="6.30792">
        <ele>325.06</ele>
        <time>2016-10-04T08:58:38Z</time>
      </trkpt>
      <trkpt lat="45.54198" lon="6.30796">
        <ele>325.54</ele>
        <time>2016-10-04T08:58:39Z</time>
      </trkpt>
      <trkpt lat="45.5422" lon="6.30829">
        <ele>328.43</ele>
        <time>2016-10-04T08:58:52Z</time>
      </trkpt>
      <trkpt lat="45.5425" lon="6.30871">
        <ele>331.31</ele>
        <time>2016-10-04T08:59:12Z</time>
      </trkpt>
      <trkpt lat="45.54286" lon="6.30905">
        <ele>331.79</ele>
        <time>2016-10-04T08:59:28Z</time>
      </trkpt>
      <trkpt lat="45.5429" lon="6.30906">
        <ele>331.79</ele>
        <time>2016-10-04T08:59:29Z</time>
      </trkpt>
      <trkpt lat="45.54294" lon="6.30905">
        <ele>331.79</ele>
        <time>2016-10-04T08:59:30Z</time>
      </trkpt>
      <trkpt lat="45.54299" lon="6.30903">
        <ele>331.79</ele>
        <time>2016-10-04T08:59:31Z</time>
      </trkpt>
      <trkpt lat="45.54303" lon="6.309">
        <ele>330.83</ele>
        <time>2016-10-04T08:59:32Z</time>
      </trkpt>
      <trkpt lat="45.54375" lon="6.30836">
        <ele>326.99</ele>
        <time>2016-10-04T08:59:45Z</time>
      </trkpt>
      <trkpt lat="45.54381" lon="6.30835">
        <ele>326.99</ele>
        <time>2016-10-04T08:59:46Z</time>
      </trkpt>
      <trkpt lat="45.54387" lon="6.30837">
        <ele>326.5</ele>
        <time>2016-10-04T08:59:47Z</time>
      </trkpt>
      <trkpt lat="45.54392" lon="6.30842">
        <ele>326.02</ele>
        <time>2016-10-04T08:59:48Z</time>
      </trkpt>
      <trkpt lat="45.54396" lon="6.30848">
        <ele>326.5</ele>
        <time>2016-10-04T08:59:49Z</time>
      </trkpt>
      <trkpt lat="45.54399" lon="6.30854">
        <ele>326.99</ele>
        <time>2016-10-04T08:59:50Z</time>
      </trkpt>
      <trkpt lat="45.54442" lon="6.30926">
        <ele>327.47</ele>
        <time>2016-10-04T09:00:05Z</time>
      </trkpt>
      <trkpt lat="45.54451" lon="6.30948">
        <ele>326.99</ele>
        <time>2016-10-04T09:00:09Z</time>
      </trkpt>
      <trkpt lat="45.54452" lon="6.30954">
        <ele>326.99</ele>
        <time>2016-10-04T09:00:10Z</time>
      </trkpt>
      <trkpt lat="45.54452" lon="6.3096">
        <ele>326.99</ele>
        <time>2016-10-04T09:00:11Z</time>
      </trkpt>
      <trkpt lat="45.5445" lon="6.30966">
        <ele>326.5</ele>
        <time>2016-10-04T09:00:12Z</time>
      </trkpt>
      <trkpt lat="45.54448" lon="6.30971">
        <ele>326.5</ele>
        <time>2016-10-04T09:00:13Z</time>
      </trkpt>
      <trkpt lat="45.54445" lon="6.30975">
        <ele>326.99</ele>
        <time>2016-10-04T09:00:14Z</time>
      </trkpt>
      <trkpt lat="45.54442" lon="6.30979">
        <ele>326.99</ele>
        <time>2016-10-04T09:00:15Z</time>
      </trkpt>
      <trkpt lat="45.54432" lon="6.30992">
        <ele>326.99</ele>
        <time>2016-10-04T09:00:18Z</time>
      </trkpt>
      <trkpt lat="45.54428" lon="6.30996">
        <ele>326.99</ele>
        <time>2016-10-04T09:00:19Z</time>
      </trkpt>
      <trkpt lat="45.54419" lon="6.31009">
        <ele>326.02</ele>
        <time>2016-10-04T09:00:22Z</time>
      </trkpt>
      <trkpt lat="45.54417" lon="6.31014">
        <ele>326.02</ele>
        <time>2016-10-04T09:00:23Z</time>
      </trkpt>
      <trkpt lat="45.54404" lon="6.31033">
        <ele>326.5</ele>
        <time>2016-10-04T09:00:27Z</time>
      </trkpt>
      <trkpt lat="45.54376" lon="6.31082">
        <ele>328.43</ele>
        <time>2016-10-04T09:00:41Z</time>
      </trkpt>
      <trkpt lat="45.54346" lon="6.3112">
        <ele>331.31</ele>
        <time>2016-10-04T09:00:56Z</time>
      </trkpt>
      <trkpt lat="45.54298" lon="6.31165">
        <ele>329.39</ele>
        <time>2016-10-04T09:01:09Z</time>
      </trkpt>
      <trkpt lat="45.54259" lon="6.31212">
        <ele>327.47</ele>
        <time>2016-10-04T09:01:17Z</time>
      </trkpt>
      <trkpt lat="45.54255" lon="6.3122">
        <ele>327.95</ele>
        <time>2016-10-04T09:01:18Z</time>
      </trkpt>
      <trkpt lat="45.54252" lon="6.31228">
        <ele>328.43</ele>
        <time>2016-10-04T09:01:19Z</time>
      </trkpt>
      <trkpt lat="45.5425" lon="6.31236">
        <ele>327.47</ele>
        <time>2016-10-04T09:01:20Z</time>
      </trkpt>
      <trkpt lat="45.54248" lon="6.31245">
        <ele>327.47</ele>
        <time>2016-10-04T09:01:21Z</time>
      </trkpt>
      <trkpt lat="45.54247" lon="6.31255">
        <ele>327.47</ele>
        <time>2016-10-04T09:01:22Z</time>
      </trkpt>
      <trkpt lat="45.54229" lon="6.31382">
        <ele>327.47</ele>
        <time>2016-10-04T09:01:36Z</time>
      </trkpt>
      <trkpt lat="45.54208" lon="6.31446">
        <ele>326.99</ele>
        <time>2016-10-04T09:01:44Z</time>
      </trkpt>
      <trkpt lat="45.54204" lon="6.31451">
        <ele>326.99</ele>
        <time>2016-10-04T09:01:45Z</time>
      </trkpt>
      <trkpt lat="45.54199" lon="6.31457">
        <ele>326.99</ele>
        <time>2016-10-04T09:01:46Z</time>
      </trkpt>
      <trkpt lat="45.54194" lon="6.31461">
        <ele>327.47</ele>
        <time>2016-10-04T09:01:47Z</time>
      </trkpt>
      <trkpt lat="45.54189" lon="6.31464">
        <ele>327.47</ele>
        <time>2016-10-04T09:01:48Z</time>
      </trkpt>
      <trkpt lat="45.54184" lon="6.31468">
        <ele>326.99</ele>
        <time>2016-10-04T09:01:49Z</time>
      </trkpt>
      <trkpt lat="45.54105" lon="6.31521">
        <ele>327.47</ele>
        <time>2016-10-04T09:02:04Z</time>
      </trkpt>
      <trkpt lat="45.54028" lon="6.31576">
        <ele>327.47</ele>
        <time>2016-10-04T09:02:19Z</time>
      </trkpt>
      <trkpt lat="45.53963" lon="6.31657">
        <ele>328.43</ele>
        <time>2016-10-04T09:02:35Z</time>
      </trkpt>
      <trkpt lat="45.53911" lon="6.3169">
        <ele>328.91</ele>
        <time>2016-10-04T09:02:49Z</time>
      </trkpt>
      <trkpt lat="45.53834" lon="6.31704">
        <ele>327.95</ele>
        <time>2016-10-04T09:03:03Z</time>
      </trkpt>
      <trkpt lat="45.53748" lon="6.31681">
        <ele>328.43</ele>
        <time>2016-10-04T09:03:19Z</time>
      </trkpt>
      <trkpt lat="45.53664" lon="6.31676">
        <ele>329.39</ele>
        <time>2016-10-04T09:03:34Z</time>
      </trkpt>
      <trkpt lat="45.53566" lon="6.31705">
        <ele>328.43</ele>
        <time>2016-10-04T09:03:51Z</time>
      </trkpt>
      <trkpt lat="45.53475" lon="6.31727">
        <ele>328.43</ele>
        <time>2016-10-04T09:04:06Z</time>
      </trkpt>
      <trkpt lat="45.53384" lon="6.31744">
        <ele>329.39</ele>
        <time>2016-10-04T09:04:22Z</time>
      </trkpt>
      <trkpt lat="45.53283" lon="6.31756">
        <ele>329.87</ele>
        <time>2016-10-04T09:04:39Z</time>
      </trkpt>
      <trkpt lat="45.53173" lon="6.31771">
        <ele>329.87</ele>
        <time>2016-10-04T09:04:59Z</time>
      </trkpt>
      <trkpt lat="45.53094" lon="6.31777">
        <ele>330.83</ele>
        <time>2016-10-04T09:05:14Z</time>
      </trkpt>
      <trkpt lat="45.53084" lon="6.31774">
        <ele>330.35</ele>
        <time>2016-10-04T09:05:16Z</time>
      </trkpt>
      <trkpt lat="45.53078" lon="6.31774">
        <ele>331.31</ele>
        <time>2016-10-04T09:05:17Z</time>
      </trkpt>
      <trkpt lat="45.53073" lon="6.31775">
        <ele>330.83</ele>
        <time>2016-10-04T09:05:18Z</time>
      </trkpt>
      <trkpt lat="45.53068" lon="6.31777">
        <ele>330.83</ele>
        <time>2016-10-04T09:05:19Z</time>
      </trkpt>
      <trkpt lat="45.53063" lon="6.3178">
        <ele>330.83</ele>
        <time>2016-10-04T09:05:20Z</time>
      </trkpt>
      <trkpt lat="45.53058" lon="6.31782">
        <ele>331.31</ele>
        <time>2016-10-04T09:05:21Z</time>
      </trkpt>
      <trkpt lat="45.53024" lon="6.31794">
        <ele>331.31</ele>
        <time>2016-10-04T09:05:28Z</time>
      </trkpt>
      <trkpt lat="45.52942" lon="6.31791">
        <ele>331.31</ele>
        <time>2016-10-04T09:05:45Z</time>
      </trkpt>
      <trkpt lat="45.52849" lon="6.31791">
        <ele>331.79</ele>
        <time>2016-10-04T09:06:02Z</time>
      </trkpt>
      <trkpt lat="45.5275" lon="6.31792">
        <ele>331.79</ele>
        <time>2016-10-04T09:06:20Z</time>
      </trkpt>
      <trkpt lat="45.52627" lon="6.31783">
        <ele>331.79</ele>
        <time>2016-10-04T09:06:42Z</time>
      </trkpt>
      <trkpt lat="45.52526" lon="6.31757">
        <ele>332.75</ele>
        <time>2016-10-04T09:07:01Z</time>
      </trkpt>
      <trkpt lat="45.52438" lon="6.317">
        <ele>333.23</ele>
        <time>2016-10-04T09:07:19Z</time>
      </trkpt>
      <trkpt lat="45.52375" lon="6.31659">
        <ele>333.71</ele>
        <time>2016-10-04T09:07:32Z</time>
      </trkpt>
      <trkpt lat="45.52354" lon="6.31648">
        <ele>333.71</ele>
        <time>2016-10-04T09:07:36Z</time>
      </trkpt>
      <trkpt lat="45.52337" lon="6.31643">
        <ele>334.2</ele>
        <time>2016-10-04T09:07:39Z</time>
      </trkpt>
      <trkpt lat="45.52332" lon="6.31642">
        <ele>334.2</ele>
        <time>2016-10-04T09:07:40Z</time>
      </trkpt>
      <trkpt lat="45.52327" lon="6.31642">
        <ele>333.71</ele>
        <time>2016-10-04T09:07:41Z</time>
      </trkpt>
      <trkpt lat="45.52272" lon="6.31644">
        <ele>334.68</ele>
        <time>2016-10-04T09:07:51Z</time>
      </trkpt>
      <trkpt lat="45.52234" lon="6.31649">
        <ele>336.12</ele>
        <time>2016-10-04T09:07:59Z</time>
      </trkpt>
      <trkpt lat="45.52172" lon="6.31682">
        <ele>337.08</ele>
        <time>2016-10-04T09:08:14Z</time>
      </trkpt>
      <trkpt lat="45.52157" lon="6.31687">
        <ele>338.04</ele>
        <time>2016-10-04T09:08:18Z</time>
      </trkpt>
      <trkpt lat="45.52123" lon="6.31692">
        <ele>339</ele>
        <time>2016-10-04T09:08:26Z</time>
      </trkpt>
      <trkpt lat="45.52118" lon="6.31692">
        <ele>338.52</ele>
        <time>2016-10-04T09:08:27Z</time>
      </trkpt>
      <trkpt lat="45.52114" lon="6.31692">
        <ele>338.52</ele>
        <time>2016-10-04T09:08:28Z</time>
      </trkpt>
      <trkpt lat="45.52109" lon="6.31691">
        <ele>339</ele>
        <time>2016-10-04T09:08:29Z</time>
      </trkpt>
      <trkpt lat="45.52105" lon="6.3169">
        <ele>339</ele>
        <time>2016-10-04T09:08:30Z</time>
      </trkpt>
      <trkpt lat="45.521" lon="6.31689">
        <ele>339</ele>
        <time>2016-10-04T09:08:31Z</time>
      </trkpt>
      <trkpt lat="45.52095" lon="6.31689">
        <ele>339</ele>
        <time>2016-10-04T09:08:32Z</time>
      </trkpt>
      <trkpt lat="45.52091" lon="6.31688">
        <ele>339</ele>
        <time>2016-10-04T09:08:33Z</time>
      </trkpt>
      <trkpt lat="45.52068" lon="6.31687">
        <ele>338.52</ele>
        <time>2016-10-04T09:08:38Z</time>
      </trkpt>
      <trkpt lat="45.52048" lon="6.31691">
        <ele>339.48</ele>
        <time>2016-10-04T09:08:43Z</time>
      </trkpt>
      <trkpt lat="45.51991" lon="6.31614">
        <ele>339.48</ele>
        <time>2016-10-04T09:08:48Z</time>
      </trkpt>
      <trkpt lat="45.51983" lon="6.31654">
        <ele>339.96</ele>
        <time>2016-10-04T09:08:53Z</time>
      </trkpt>
      <trkpt lat="45.51976" lon="6.31661">
        <ele>339.96</ele>
        <time>2016-10-04T09:08:55Z</time>
      </trkpt>
      <trkpt lat="45.51954" lon="6.31736">
        <ele>341.89</ele>
        <time>2016-10-04T09:09:09Z</time>
      </trkpt>
      <trkpt lat="45.51929" lon="6.31771">
        <ele>343.81</ele>
        <time>2016-10-04T09:09:21Z</time>
      </trkpt>
      <trkpt lat="45.5192" lon="6.31777">
        <ele>344.77</ele>
        <time>2016-10-04T09:09:26Z</time>
      </trkpt>
      <trkpt lat="45.51916" lon="6.31781">
        <ele>345.73</ele>
        <time>2016-10-04T09:09:30Z</time>
      </trkpt>
      <trkpt lat="45.519" lon="6.31797">
        <ele>347.65</ele>
        <time>2016-10-04T09:09:43Z</time>
      </trkpt>
      <trkpt lat="45.51878" lon="6.31829">
        <ele>349.58</ele>
        <time>2016-10-04T09:09:58Z</time>
      </trkpt>
      <trkpt lat="45.5186" lon="6.31859">
        <ele>351.5</ele>
        <time>2016-10-04T09:10:12Z</time>
      </trkpt>
      <trkpt lat="45.51858" lon="6.31866">
        <ele>351.98</ele>
        <time>2016-10-04T09:10:15Z</time>
      </trkpt>
      <trkpt lat="45.51858" lon="6.31869">
        <ele>352.46</ele>
        <time>2016-10-04T09:10:16Z</time>
      </trkpt>
      <trkpt lat="45.51858" lon="6.31873">
        <ele>351.98</ele>
        <time>2016-10-04T09:10:17Z</time>
      </trkpt>
      <trkpt lat="45.51858" lon="6.31877">
        <ele>352.46</ele>
        <time>2016-10-04T09:10:18Z</time>
      </trkpt>
      <trkpt lat="45.51858" lon="6.31881">
        <ele>351.98</ele>
        <time>2016-10-04T09:10:19Z</time>
      </trkpt>
      <trkpt lat="45.51846" lon="6.31928">
        <ele>353.9</ele>
        <time>2016-10-04T09:10:34Z</time>
      </trkpt>
      <trkpt lat="45.51836" lon="6.31939">
        <ele>353.9</ele>
        <time>2016-10-04T09:10:41Z</time>
      </trkpt>
      <trkpt lat="45.51832" lon="6.31943">
        <ele>354.86</ele>
        <time>2016-10-04T09:10:44Z</time>
      </trkpt>
      <trkpt lat="45.51815" lon="6.31952">
        <ele>355.83</ele>
        <time>2016-10-04T09:10:56Z</time>
      </trkpt>
      <trkpt lat="45.51794" lon="6.31966">
        <ele>356.79</ele>
        <time>2016-10-04T09:11:10Z</time>
      </trkpt>
      <trkpt lat="45.51786" lon="6.31972">
        <ele>358.23</ele>
        <time>2016-10-04T09:11:16Z</time>
      </trkpt>
      <trkpt lat="45.51773" lon="6.32012">
        <ele>359.67</ele>
        <time>2016-10-04T09:11:30Z</time>
      </trkpt>
      <trkpt lat="45.51759" lon="6.32025">
        <ele>361.11</ele>
        <time>2016-10-04T09:11:40Z</time>
      </trkpt>
      <trkpt lat="45.51734" lon="6.32027">
        <ele>363.04</ele>
        <time>2016-10-04T09:11:55Z</time>
      </trkpt>
      <trkpt lat="45.51711" lon="6.32022">
        <ele>364.96</ele>
        <time>2016-10-04T09:12:08Z</time>
      </trkpt>
      <trkpt lat="45.517" lon="6.3202">
        <ele>365.44</ele>
        <time>2016-10-04T09:12:15Z</time>
      </trkpt>
      <trkpt lat="45.51698" lon="6.3202">
        <ele>365.92</ele>
        <time>2016-10-04T09:12:16Z</time>
      </trkpt>
      <trkpt lat="45.51656" lon="6.32012">
        <ele>368.32</ele>
        <time>2016-10-04T09:12:35Z</time>
      </trkpt>
      <trkpt lat="45.51622" lon="6.32017">
        <ele>369.76</ele>
        <time>2016-10-04T09:12:51Z</time>
      </trkpt>
      <trkpt lat="45.5159" lon="6.32047">
        <ele>371.69</ele>
        <time>2016-10-04T09:13:09Z</time>
      </trkpt>
      <trkpt lat="45.51554" lon="6.3206">
        <ele>372.65</ele>
        <time>2016-10-04T09:13:25Z</time>
      </trkpt>
      <trkpt lat="45.51526" lon="6.32063">
        <ele>373.13</ele>
        <time>2016-10-04T09:13:33Z</time>
      </trkpt>
      <trkpt lat="45.51522" lon="6.32062">
        <ele>372.65</ele>
        <time>2016-10-04T09:13:34Z</time>
      </trkpt>
      <trkpt lat="45.51478" lon="6.3204">
        <ele>371.69</ele>
        <time>2016-10-04T09:13:44Z</time>
      </trkpt>
      <trkpt lat="45.51474" lon="6.32037">
        <ele>372.17</ele>
        <time>2016-10-04T09:13:45Z</time>
      </trkpt>
      <trkpt lat="45.51415" lon="6.32005">
        <ele>368.8</ele>
        <time>2016-10-04T09:13:56Z</time>
      </trkpt>
      <trkpt lat="45.51353" lon="6.31972">
        <ele>364.48</ele>
        <time>2016-10-04T09:14:05Z</time>
      </trkpt>
      <trkpt lat="45.51347" lon="6.31968">
        <ele>365.44</ele>
        <time>2016-10-04T09:14:06Z</time>
      </trkpt>
      <trkpt lat="45.51343" lon="6.31963">
        <ele>364.96</ele>
        <time>2016-10-04T09:14:07Z</time>
      </trkpt>
      <trkpt lat="45.51339" lon="6.31958">
        <ele>364.96</ele>
        <time>2016-10-04T09:14:08Z</time>
      </trkpt>
      <trkpt lat="45.51337" lon="6.31953">
        <ele>364.48</ele>
        <time>2016-10-04T09:14:09Z</time>
      </trkpt>
      <trkpt lat="45.51336" lon="6.31949">
        <ele>364</ele>
        <time>2016-10-04T09:14:10Z</time>
      </trkpt>
      <trkpt lat="45.51335" lon="6.31929">
        <ele>362.55</ele>
        <time>2016-10-04T09:14:14Z</time>
      </trkpt>
      <trkpt lat="45.51335" lon="6.31923">
        <ele>362.07</ele>
        <time>2016-10-04T09:14:15Z</time>
      </trkpt>
      <trkpt lat="45.51336" lon="6.31915">
        <ele>362.07</ele>
        <time>2016-10-04T09:14:16Z</time>
      </trkpt>
      <trkpt lat="45.51349" lon="6.31838">
        <ele>359.19</ele>
        <time>2016-10-04T09:14:24Z</time>
      </trkpt>
      <trkpt lat="45.5135" lon="6.31827">
        <ele>358.71</ele>
        <time>2016-10-04T09:14:25Z</time>
      </trkpt>
      <trkpt lat="45.51362" lon="6.31753">
        <ele>356.31</ele>
        <time>2016-10-04T09:14:31Z</time>
      </trkpt>
      <trkpt lat="45.51367" lon="6.31701">
        <ele>353.9</ele>
        <time>2016-10-04T09:14:35Z</time>
      </trkpt>
      <trkpt lat="45.51367" lon="6.31659">
        <ele>352.46</ele>
        <time>2016-10-04T09:14:38Z</time>
      </trkpt>
      <trkpt lat="45.51364" lon="6.31587">
        <ele>349.1</ele>
        <time>2016-10-04T09:14:43Z</time>
      </trkpt>
      <trkpt lat="45.51361" lon="6.31545">
        <ele>345.73</ele>
        <time>2016-10-04T09:14:46Z</time>
      </trkpt>
      <trkpt lat="45.51358" lon="6.31532">
        <ele>345.73</ele>
        <time>2016-10-04T09:14:47Z</time>
      </trkpt>
      <trkpt lat="45.51355" lon="6.31522">
        <ele>346.21</ele>
        <time>2016-10-04T09:14:48Z</time>
      </trkpt>
      <trkpt lat="45.51349" lon="6.31514">
        <ele>344.77</ele>
        <time>2016-10-04T09:14:49Z</time>
      </trkpt>
      <trkpt lat="45.51341" lon="6.31509">
        <ele>344.29</ele>
        <time>2016-10-04T09:14:50Z</time>
      </trkpt>
      <trkpt lat="45.51332" lon="6.31506">
        <ele>344.77</ele>
        <time>2016-10-04T09:14:51Z</time>
      </trkpt>
      <trkpt lat="45.51324" lon="6.31505">
        <ele>345.73</ele>
        <time>2016-10-04T09:14:52Z</time>
      </trkpt>
      <trkpt lat="45.51316" lon="6.31506">
        <ele>345.25</ele>
        <time>2016-10-04T09:14:53Z</time>
      </trkpt>
      <trkpt lat="45.5121" lon="6.31537">
        <ele>345.73</ele>
        <time>2016-10-04T09:15:07Z</time>
      </trkpt>
      <trkpt lat="45.51115" lon="6.31575">
        <ele>343.33</ele>
        <time>2016-10-04T09:15:20Z</time>
      </trkpt>
      <trkpt lat="45.51022" lon="6.31604">
        <ele>342.85</ele>
        <time>2016-10-04T09:15:33Z</time>
      </trkpt>
      <trkpt lat="45.50997" lon="6.31615">
        <ele>342.37</ele>
        <time>2016-10-04T09:15:37Z</time>
      </trkpt>
      <trkpt lat="45.50903" lon="6.31636">
        <ele>341.41</ele>
        <time>2016-10-04T09:15:51Z</time>
      </trkpt>
      <trkpt lat="45.5081" lon="6.31628">
        <ele>342.85</ele>
        <time>2016-10-04T09:16:08Z</time>
      </trkpt>
      <trkpt lat="45.50783" lon="6.31622">
        <ele>343.33</ele>
        <time>2016-10-04T09:16:14Z</time>
      </trkpt>
      <trkpt lat="45.50779" lon="6.31619">
        <ele>342.85</ele>
        <time>2016-10-04T09:16:15Z</time>
      </trkpt>
      <trkpt lat="45.50776" lon="6.31615">
        <ele>342.85</ele>
        <time>2016-10-04T09:16:16Z</time>
      </trkpt>
      <trkpt lat="45.50722" lon="6.3156">
        <ele>342.85</ele>
        <time>2016-10-04T09:16:29Z</time>
      </trkpt>
      <trkpt lat="45.50638" lon="6.31491">
        <ele>341.89</ele>
        <time>2016-10-04T09:16:45Z</time>
      </trkpt>
      <trkpt lat="45.50545" lon="6.31422">
        <ele>342.85</ele>
        <time>2016-10-04T09:17:04Z</time>
      </trkpt>
      <trkpt lat="45.50466" lon="6.31356">
        <ele>345.25</ele>
        <time>2016-10-04T09:17:22Z</time>
      </trkpt>
      <trkpt lat="45.5041" lon="6.31309">
        <ele>347.17</ele>
        <time>2016-10-04T09:17:39Z</time>
      </trkpt>
      <trkpt lat="45.50369" lon="6.3128">
        <ele>348.62</ele>
        <time>2016-10-04T09:17:53Z</time>
      </trkpt>
      <trkpt lat="45.50361" lon="6.31275">
        <ele>347.65</ele>
        <time>2016-10-04T09:17:55Z</time>
      </trkpt>
      <trkpt lat="45.50357" lon="6.31271">
        <ele>347.65</ele>
        <time>2016-10-04T09:17:56Z</time>
      </trkpt>
      <trkpt lat="45.50345" lon="6.31256">
        <ele>347.17</ele>
        <time>2016-10-04T09:17:59Z</time>
      </trkpt>
      <trkpt lat="45.50342" lon="6.3125">
        <ele>347.65</ele>
        <time>2016-10-04T09:18:00Z</time>
      </trkpt>
      <trkpt lat="45.50281" lon="6.31144">
        <ele>346.69</ele>
        <time>2016-10-04T09:18:17Z</time>
      </trkpt>
      <trkpt lat="45.50221" lon="6.31072">
        <ele>346.21</ele>
        <time>2016-10-04T09:18:31Z</time>
      </trkpt>
      <trkpt lat="45.50197" lon="6.31043">
        <ele>345.73</ele>
        <time>2016-10-04T09:18:36Z</time>
      </trkpt>
      <trkpt lat="45.50131" lon="6.30974">
        <ele>346.69</ele>
        <time>2016-10-04T09:18:49Z</time>
      </trkpt>
      <trkpt lat="45.50126" lon="6.3097">
        <ele>346.69</ele>
        <time>2016-10-04T09:18:50Z</time>
      </trkpt>
      <trkpt lat="45.50121" lon="6.30967">
        <ele>347.65</ele>
        <time>2016-10-04T09:18:51Z</time>
      </trkpt>
      <trkpt lat="45.50115" lon="6.30964">
        <ele>347.17</ele>
        <time>2016-10-04T09:18:52Z</time>
      </trkpt>
      <trkpt lat="45.50073" lon="6.30946">
        <ele>348.13</ele>
        <time>2016-10-04T09:19:01Z</time>
      </trkpt>
      <trkpt lat="45.5007" lon="6.30943">
        <ele>348.13</ele>
        <time>2016-10-04T09:19:02Z</time>
      </trkpt>
      <trkpt lat="45.50024" lon="6.30895">
        <ele>350.54</ele>
        <time>2016-10-04T09:19:18Z</time>
      </trkpt>
      <trkpt lat="45.50014" lon="6.30879">
        <ele>350.06</ele>
        <time>2016-10-04T09:19:22Z</time>
      </trkpt>
      <trkpt lat="45.49973" lon="6.30797">
        <ele>348.13</ele>
        <time>2016-10-04T09:19:34Z</time>
      </trkpt>
      <trkpt lat="45.49964" lon="6.30784">
        <ele>348.13</ele>
        <time>2016-10-04T09:19:36Z</time>
      </trkpt>
      <trkpt lat="45.4996" lon="6.30778">
        <ele>348.62</ele>
        <time>2016-10-04T09:19:37Z</time>
      </trkpt>
      <trkpt lat="45.49955" lon="6.30772">
        <ele>348.62</ele>
        <time>2016-10-04T09:19:38Z</time>
      </trkpt>
      <trkpt lat="45.49903" lon="6.30724">
        <ele>350.54</ele>
        <time>2016-10-04T09:19:51Z</time>
      </trkpt>
      <trkpt lat="45.49855" lon="6.30692">
        <ele>351.5</ele>
        <time>2016-10-04T09:20:04Z</time>
      </trkpt>
      <trkpt lat="45.49814" lon="6.30684">
        <ele>353.42</ele>
        <time>2016-10-04T09:20:17Z</time>
      </trkpt>
      <trkpt lat="45.49772" lon="6.30674">
        <ele>355.34</ele>
        <time>2016-10-04T09:20:30Z</time>
      </trkpt>
      <trkpt lat="45.49723" lon="6.30673">
        <ele>357.75</ele>
        <time>2016-10-04T09:20:44Z</time>
      </trkpt>
      <trkpt lat="45.49664" lon="6.30668">
        <ele>359.19</ele>
        <time>2016-10-04T09:21:01Z</time>
      </trkpt>
      <trkpt lat="45.49611" lon="6.3065">
        <ele>359.67</ele>
        <time>2016-10-04T09:21:16Z</time>
      </trkpt>
      <trkpt lat="45.49585" lon="6.30642">
        <ele>359.19</ele>
        <time>2016-10-04T09:21:21Z</time>
      </trkpt>
      <trkpt lat="45.49573" lon="6.30641">
        <ele>358.23</ele>
        <time>2016-10-04T09:21:23Z</time>
      </trkpt>
      <trkpt lat="45.49492" lon="6.30639">
        <ele>357.27</ele>
        <time>2016-10-04T09:21:34Z</time>
      </trkpt>
      <trkpt lat="45.49395" lon="6.30631">
        <ele>356.79</ele>
        <time>2016-10-04T09:21:48Z</time>
      </trkpt>
      <trkpt lat="45.49291" lon="6.30646">
        <ele>357.75</ele>
        <time>2016-10-04T09:22:06Z</time>
      </trkpt>
      <trkpt lat="45.49256" lon="6.30647">
        <ele>359.19</ele>
        <time>2016-10-04T09:22:14Z</time>
      </trkpt>
      <trkpt lat="45.49218" lon="6.30627">
        <ele>358.23</ele>
        <time>2016-10-04T09:22:25Z</time>
      </trkpt>
      <trkpt lat="45.49156" lon="6.30578">
        <ele>354.86</ele>
        <time>2016-10-04T09:22:35Z</time>
      </trkpt>
      <trkpt lat="45.49056" lon="6.30519">
        <ele>351.98</ele>
        <time>2016-10-04T09:22:48Z</time>
      </trkpt>
      <trkpt lat="45.48953" lon="6.30443">
        <ele>351.02</ele>
        <time>2016-10-04T09:23:03Z</time>
      </trkpt>
      <trkpt lat="45.48895" lon="6.30354">
        <ele>351.02</ele>
        <time>2016-10-04T09:23:16Z</time>
      </trkpt>
      <trkpt lat="45.48811" lon="6.30292">
        <ele>351.5</ele>
        <time>2016-10-04T09:23:32Z</time>
      </trkpt>
      <trkpt lat="45.48706" lon="6.30225">
        <ele>351.98</ele>
        <time>2016-10-04T09:23:54Z</time>
      </trkpt>
      <trkpt lat="45.48684" lon="6.30217">
        <ele>351.98</ele>
        <time>2016-10-04T09:23:59Z</time>
      </trkpt>
      <trkpt lat="45.4868" lon="6.30217">
        <ele>352.46</ele>
        <time>2016-10-04T09:24:00Z</time>
      </trkpt>
      <trkpt lat="45.48675" lon="6.30219">
        <ele>352.94</ele>
        <time>2016-10-04T09:24:01Z</time>
      </trkpt>
      <trkpt lat="45.48671" lon="6.30221">
        <ele>352.46</ele>
        <time>2016-10-04T09:24:02Z</time>
      </trkpt>
      <trkpt lat="45.48666" lon="6.30224">
        <ele>352.94</ele>
        <time>2016-10-04T09:24:03Z</time>
      </trkpt>
      <trkpt lat="45.48663" lon="6.30227">
        <ele>352.46</ele>
        <time>2016-10-04T09:24:04Z</time>
      </trkpt>
      <trkpt lat="45.48659" lon="6.30231">
        <ele>352.94</ele>
        <time>2016-10-04T09:24:05Z</time>
      </trkpt>
      <trkpt lat="45.48615" lon="6.30277">
        <ele>354.86</ele>
        <time>2016-10-04T09:24:21Z</time>
      </trkpt>
      <trkpt lat="45.4858" lon="6.30259">
        <ele>354.38</ele>
        <time>2016-10-04T09:24:31Z</time>
      </trkpt>
      <trkpt lat="45.48544" lon="6.30225">
        <ele>355.34</ele>
        <time>2016-10-04T09:24:40Z</time>
      </trkpt>
      <trkpt lat="45.48487" lon="6.30177">
        <ele>356.79</ele>
        <time>2016-10-04T09:24:56Z</time>
      </trkpt>
      <trkpt lat="45.4845" lon="6.30149">
        <ele>358.71</ele>
        <time>2016-10-04T09:25:11Z</time>
      </trkpt>
      <trkpt lat="45.48435" lon="6.3014">
        <ele>360.15</ele>
        <time>2016-10-04T09:25:18Z</time>
      </trkpt>
      <trkpt lat="45.48404" lon="6.30123">
        <ele>362.07</ele>
        <time>2016-10-04T09:25:35Z</time>
      </trkpt>
      <trkpt lat="45.48367" lon="6.30102">
        <ele>363.04</ele>
        <time>2016-10-04T09:25:50Z</time>
      </trkpt>
      <trkpt lat="45.48351" lon="6.30094">
        <ele>362.07</ele>
        <time>2016-10-04T09:25:54Z</time>
      </trkpt>
      <trkpt lat="45.4827" lon="6.30058">
        <ele>361.59</ele>
        <time>2016-10-04T09:26:11Z</time>
      </trkpt>
      <trkpt lat="45.48188" lon="6.30037">
        <ele>359.67</ele>
        <time>2016-10-04T09:26:24Z</time>
      </trkpt>
      <trkpt lat="45.48113" lon="6.30012">
        <ele>359.67</ele>
        <time>2016-10-04T09:26:37Z</time>
      </trkpt>
      <trkpt lat="45.48067" lon="6.29986">
        <ele>357.27</ele>
        <time>2016-10-04T09:26:45Z</time>
      </trkpt>
      <trkpt lat="45.47986" lon="6.29963">
        <ele>356.31</ele>
        <time>2016-10-04T09:26:56Z</time>
      </trkpt>
      <trkpt lat="45.4787" lon="6.29952">
        <ele>357.27</ele>
        <time>2016-10-04T09:27:13Z</time>
      </trkpt>
      <trkpt lat="45.47795" lon="6.2989">
        <ele>356.79</ele>
        <time>2016-10-04T09:27:27Z</time>
      </trkpt>
      <trkpt lat="45.47713" lon="6.29821">
        <ele>357.75</ele>
        <time>2016-10-04T09:27:43Z</time>
      </trkpt>
      <trkpt lat="45.47629" lon="6.2975">
        <ele>357.75</ele>
        <time>2016-10-04T09:28:00Z</time>
      </trkpt>
      <trkpt lat="45.47543" lon="6.29678">
        <ele>357.75</ele>
        <time>2016-10-04T09:28:18Z</time>
      </trkpt>
      <trkpt lat="45.47486" lon="6.29627">
        <ele>358.23</ele>
        <time>2016-10-04T09:28:30Z</time>
      </trkpt>
      <trkpt lat="45.47482" lon="6.29623">
        <ele>358.23</ele>
        <time>2016-10-04T09:28:31Z</time>
      </trkpt>
      <trkpt lat="45.47473" lon="6.29614">
        <ele>358.23</ele>
        <time>2016-10-04T09:28:33Z</time>
      </trkpt>
      <trkpt lat="45.47411" lon="6.29525">
        <ele>358.71</ele>
        <time>2016-10-04T09:28:49Z</time>
      </trkpt>
      <trkpt lat="45.47378" lon="6.29415">
        <ele>360.63</ele>
        <time>2016-10-04T09:29:05Z</time>
      </trkpt>
      <trkpt lat="45.47364" lon="6.29369">
        <ele>359.67</ele>
        <time>2016-10-04T09:29:12Z</time>
      </trkpt>
      <trkpt lat="45.47361" lon="6.29363">
        <ele>360.15</ele>
        <time>2016-10-04T09:29:13Z</time>
      </trkpt>
      <trkpt lat="45.47349" lon="6.29342">
        <ele>360.15</ele>
        <time>2016-10-04T09:29:17Z</time>
      </trkpt>
      <trkpt lat="45.47328" lon="6.29323">
        <ele>361.11</ele>
        <time>2016-10-04T09:29:22Z</time>
      </trkpt>
      <trkpt lat="45.47243" lon="6.29268">
        <ele>361.59</ele>
        <time>2016-10-04T09:29:40Z</time>
      </trkpt>
      <trkpt lat="45.47147" lon="6.29212">
        <ele>362.07</ele>
        <time>2016-10-04T09:30:00Z</time>
      </trkpt>
      <trkpt lat="45.47083" lon="6.2917">
        <ele>362.55</ele>
        <time>2016-10-04T09:30:16Z</time>
      </trkpt>
      <trkpt lat="45.47082" lon="6.29165">
        <ele>363.04</ele>
        <time>2016-10-04T09:30:17Z</time>
      </trkpt>
      <trkpt lat="45.47081" lon="6.29124">
        <ele>363.04</ele>
        <time>2016-10-04T09:30:28Z</time>
      </trkpt>
      <trkpt lat="45.47079" lon="6.29107">
        <ele>363.52</ele>
        <time>2016-10-04T09:30:41Z</time>
      </trkpt>
      <trkpt lat="45.4708" lon="6.29107">
        <ele>363.52</ele>
        <time>2016-10-04T09:31:21Z</time>
      </trkpt>
      <trkpt lat="45.4708" lon="6.29109">
        <ele>364</ele>
        <time>2016-10-04T09:31:58Z</time>
      </trkpt>
      <trkpt lat="45.47077" lon="6.29106">
        <ele>363.52</ele>
        <time>2016-10-04T09:32:27Z</time>
      </trkpt>
      <trkpt lat="45.47074" lon="6.29103">
        <ele>363.52</ele>
        <time>2016-10-04T09:32:51Z</time>
      </trkpt>
      <trkpt lat="45.47076" lon="6.29102">
        <ele>364</ele>
        <time>2016-10-04T09:33:14Z</time>
      </trkpt>
      <trkpt lat="45.47075" lon="6.29104">
        <ele>364.48</ele>
        <time>2016-10-04T09:33:39Z</time>
      </trkpt>
      <trkpt lat="45.47076" lon="6.29108">
        <ele>364.48</ele>
        <time>2016-10-04T09:34:03Z</time>
      </trkpt>
      <trkpt lat="45.47071" lon="6.29087">
        <ele>364.96</ele>
        <time>2016-10-04T09:34:15Z</time>
      </trkpt>
      <trkpt lat="45.47069" lon="6.29086">
        <ele>364.48</ele>
        <time>2016-10-04T09:34:16Z</time>
      </trkpt>
      <trkpt lat="45.47066" lon="6.29085">
        <ele>364.48</ele>
        <time>2016-10-04T09:34:17Z</time>
      </trkpt>
      <trkpt lat="45.47064" lon="6.29086">
        <ele>364.96</ele>
        <time>2016-10-04T09:34:18Z</time>
      </trkpt>
      <trkpt lat="45.47061" lon="6.29086">
        <ele>364.48</ele>
        <time>2016-10-04T09:34:19Z</time>
      </trkpt>
      <trkpt lat="45.47058" lon="6.29087">
        <ele>364.96</ele>
        <time>2016-10-04T09:34:20Z</time>
      </trkpt>
      <trkpt lat="45.47006" lon="6.29094">
        <ele>364.48</ele>
        <time>2016-10-04T09:34:34Z</time>
      </trkpt>
      <trkpt lat="45.46907" lon="6.2911">
        <ele>365.92</ele>
        <time>2016-10-04T09:34:55Z</time>
      </trkpt>
      <trkpt lat="45.4682" lon="6.29126">
        <ele>366.4</ele>
        <time>2016-10-04T09:35:13Z</time>
      </trkpt>
      <trkpt lat="45.46738" lon="6.29142">
        <ele>367.84</ele>
        <time>2016-10-04T09:35:30Z</time>
      </trkpt>
      <trkpt lat="45.46693" lon="6.29148">
        <ele>367.36</ele>
        <time>2016-10-04T09:35:39Z</time>
      </trkpt>
      <trkpt lat="45.46609" lon="6.29164">
        <ele>368.32</ele>
        <time>2016-10-04T09:35:56Z</time>
      </trkpt>
      <trkpt lat="45.46525" lon="6.29177">
        <ele>368.32</ele>
        <time>2016-10-04T09:36:12Z</time>
      </trkpt>
      <trkpt lat="45.46436" lon="6.29193">
        <ele>368.32</ele>
        <time>2016-10-04T09:36:29Z</time>
      </trkpt>
      <trkpt lat="45.46333" lon="6.29212">
        <ele>369.28</ele>
        <time>2016-10-04T09:36:49Z</time>
      </trkpt>
      <trkpt lat="45.46237" lon="6.29227">
        <ele>370.73</ele>
        <time>2016-10-04T09:37:07Z</time>
      </trkpt>
      <trkpt lat="45.46137" lon="6.2924">
        <ele>371.21</ele>
        <time>2016-10-04T09:37:26Z</time>
      </trkpt>
      <trkpt lat="45.46074" lon="6.29239">
        <ele>373.61</ele>
        <time>2016-10-04T09:37:41Z</time>
      </trkpt>
      <trkpt lat="45.46041" lon="6.29237">
        <ele>376.97</ele>
        <time>2016-10-04T09:37:57Z</time>
      </trkpt>
      <trkpt lat="45.46038" lon="6.29231">
        <ele>376.97</ele>
        <time>2016-10-04T09:38:00Z</time>
      </trkpt>
      <trkpt lat="45.46038" lon="6.29228">
        <ele>376.97</ele>
        <time>2016-10-04T09:38:01Z</time>
      </trkpt>
      <trkpt lat="45.46038" lon="6.29226">
        <ele>376.01</ele>
        <time>2016-10-04T09:38:02Z</time>
      </trkpt>
      <trkpt lat="45.4605" lon="6.29153">
        <ele>376.97</ele>
        <time>2016-10-04T09:38:22Z</time>
      </trkpt>
      <trkpt lat="45.46074" lon="6.29097">
        <ele>376.49</ele>
        <time>2016-10-04T09:38:34Z</time>
      </trkpt>
      <trkpt lat="45.46103" lon="6.29067">
        <ele>375.05</ele>
        <time>2016-10-04T09:38:41Z</time>
      </trkpt>
      <trkpt lat="45.46108" lon="6.29064">
        <ele>374.57</ele>
        <time>2016-10-04T09:38:42Z</time>
      </trkpt>
      <trkpt lat="45.46113" lon="6.29062">
        <ele>374.57</ele>
        <time>2016-10-04T09:38:43Z</time>
      </trkpt>
      <trkpt lat="45.46118" lon="6.29064">
        <ele>374.09</ele>
        <time>2016-10-04T09:38:44Z</time>
      </trkpt>
      <trkpt lat="45.46122" lon="6.29068">
        <ele>373.13</ele>
        <time>2016-10-04T09:38:45Z</time>
      </trkpt>
      <trkpt lat="45.46125" lon="6.29074">
        <ele>373.13</ele>
        <time>2016-10-04T09:38:46Z</time>
      </trkpt>
      <trkpt lat="45.46125" lon="6.2908">
        <ele>372.65</ele>
        <time>2016-10-04T09:38:47Z</time>
      </trkpt>
      <trkpt lat="45.46124" lon="6.29087">
        <ele>372.65</ele>
        <time>2016-10-04T09:38:48Z</time>
      </trkpt>
      <trkpt lat="45.46121" lon="6.29092">
        <ele>372.17</ele>
        <time>2016-10-04T09:38:49Z</time>
      </trkpt>
      <trkpt lat="45.46116" lon="6.29096">
        <ele>371.21</ele>
        <time>2016-10-04T09:38:50Z</time>
      </trkpt>
      <trkpt lat="45.46111" lon="6.291">
        <ele>371.21</ele>
        <time>2016-10-04T09:38:51Z</time>
      </trkpt>
      <trkpt lat="45.46079" lon="6.29119">
        <ele>370.24</ele>
        <time>2016-10-04T09:38:57Z</time>
      </trkpt>
      <trkpt lat="45.46007" lon="6.29132">
        <ele>372.65</ele>
        <time>2016-10-04T09:39:10Z</time>
      </trkpt>
      <trkpt lat="45.45968" lon="6.29139">
        <ele>376.01</ele>
        <time>2016-10-04T09:39:22Z</time>
      </trkpt>
      <trkpt lat="45.45919" lon="6.29139">
        <ele>377.94</ele>
        <time>2016-10-04T09:39:38Z</time>
      </trkpt>
      <trkpt lat="45.45866" lon="6.29131">
        <ele>377.94</ele>
        <time>2016-10-04T09:39:53Z</time>
      </trkpt>
      <trkpt lat="45.45854" lon="6.29128">
        <ele>377.45</ele>
        <time>2016-10-04T09:39:56Z</time>
      </trkpt>
      <trkpt lat="45.45849" lon="6.29126">
        <ele>377.45</ele>
        <time>2016-10-04T09:39:57Z</time>
      </trkpt>
      <trkpt lat="45.45788" lon="6.29096">
        <ele>375.05</ele>
        <time>2016-10-04T09:40:07Z</time>
      </trkpt>
      <trkpt lat="45.45696" lon="6.28998">
        <ele>373.61</ele>
        <time>2016-10-04T09:40:22Z</time>
      </trkpt>
      <trkpt lat="45.45604" lon="6.28941">
        <ele>373.13</ele>
        <time>2016-10-04T09:40:36Z</time>
      </trkpt>
      <trkpt lat="45.45592" lon="6.28931">
        <ele>371.69</ele>
        <time>2016-10-04T09:40:38Z</time>
      </trkpt>
      <trkpt lat="45.45539" lon="6.28862">
        <ele>373.61</ele>
        <time>2016-10-04T09:40:50Z</time>
      </trkpt>
      <trkpt lat="45.45493" lon="6.28818">
        <ele>375.53</ele>
        <time>2016-10-04T09:41:04Z</time>
      </trkpt>
      <trkpt lat="45.45455" lon="6.28768">
        <ele>376.97</ele>
        <time>2016-10-04T09:41:18Z</time>
      </trkpt>
      <trkpt lat="45.45424" lon="6.28704">
        <ele>377.94</ele>
        <time>2016-10-04T09:41:33Z</time>
      </trkpt>
      <trkpt lat="45.45394" lon="6.28656">
        <ele>376.97</ele>
        <time>2016-10-04T09:41:43Z</time>
      </trkpt>
      <trkpt lat="45.45361" lon="6.28601">
        <ele>376.01</ele>
        <time>2016-10-04T09:41:52Z</time>
      </trkpt>
      <trkpt lat="45.45356" lon="6.28596">
        <ele>376.01</ele>
        <time>2016-10-04T09:41:53Z</time>
      </trkpt>
      <trkpt lat="45.45294" lon="6.28562">
        <ele>373.13</ele>
        <time>2016-10-04T09:42:02Z</time>
      </trkpt>
      <trkpt lat="45.45278" lon="6.28558">
        <ele>372.65</ele>
        <time>2016-10-04T09:42:04Z</time>
      </trkpt>
      <trkpt lat="45.4519" lon="6.28518">
        <ele>373.61</ele>
        <time>2016-10-04T09:42:17Z</time>
      </trkpt>
      <trkpt lat="45.45115" lon="6.28496">
        <ele>373.61</ele>
        <time>2016-10-04T09:42:32Z</time>
      </trkpt>
      <trkpt lat="45.45032" lon="6.28441">
        <ele>374.57</ele>
        <time>2016-10-04T09:42:50Z</time>
      </trkpt>
      <trkpt lat="45.44956" lon="6.28397">
        <ele>374.57</ele>
        <time>2016-10-04T09:43:06Z</time>
      </trkpt>
      <trkpt lat="45.44861" lon="6.28351">
        <ele>375.53</ele>
        <time>2016-10-04T09:43:24Z</time>
      </trkpt>
      <trkpt lat="45.44767" lon="6.28302">
        <ele>375.53</ele>
        <time>2016-10-04T09:43:43Z</time>
      </trkpt>
      <trkpt lat="45.44669" lon="6.28271">
        <ele>376.01</ele>
        <time>2016-10-04T09:44:02Z</time>
      </trkpt>
      <trkpt lat="45.4458" lon="6.28241">
        <ele>376.49</ele>
        <time>2016-10-04T09:44:20Z</time>
      </trkpt>
      <trkpt lat="45.44509" lon="6.28209">
        <ele>376.97</ele>
        <time>2016-10-04T09:44:36Z</time>
      </trkpt>
      <trkpt lat="45.44441" lon="6.28186">
        <ele>377.45</ele>
        <time>2016-10-04T09:44:50Z</time>
      </trkpt>
      <trkpt lat="45.44366" lon="6.28185">
        <ele>377.45</ele>
        <time>2016-10-04T09:45:05Z</time>
      </trkpt>
      <trkpt lat="45.44277" lon="6.28183">
        <ele>377.94</ele>
        <time>2016-10-04T09:45:23Z</time>
      </trkpt>
      <trkpt lat="45.44184" lon="6.28183">
        <ele>377.94</ele>
        <time>2016-10-04T09:45:42Z</time>
      </trkpt>
      <trkpt lat="45.44089" lon="6.28183">
        <ele>377.45</ele>
        <time>2016-10-04T09:46:01Z</time>
      </trkpt>
      <trkpt lat="45.43984" lon="6.28168">
        <ele>379.38</ele>
        <time>2016-10-04T09:46:21Z</time>
      </trkpt>
      <trkpt lat="45.43899" lon="6.28157">
        <ele>378.9</ele>
        <time>2016-10-04T09:46:37Z</time>
      </trkpt>
      <trkpt lat="45.43832" lon="6.28146">
        <ele>379.86</ele>
        <time>2016-10-04T09:46:50Z</time>
      </trkpt>
      <trkpt lat="45.43812" lon="6.28137">
        <ele>380.34</ele>
        <time>2016-10-04T09:46:54Z</time>
      </trkpt>
      <trkpt lat="45.43746" lon="6.28084">
        <ele>380.82</ele>
        <time>2016-10-04T09:47:09Z</time>
      </trkpt>
      <trkpt lat="45.43689" lon="6.28043">
        <ele>382.74</ele>
        <time>2016-10-04T09:47:24Z</time>
      </trkpt>
      <trkpt lat="45.43624" lon="6.28003">
        <ele>383.22</ele>
        <time>2016-10-04T09:47:41Z</time>
      </trkpt>
      <trkpt lat="45.43615" lon="6.28001">
        <ele>383.22</ele>
        <time>2016-10-04T09:47:43Z</time>
      </trkpt>
      <trkpt lat="45.43558" lon="6.27993">
        <ele>383.22</ele>
        <time>2016-10-04T09:47:55Z</time>
      </trkpt>
      <trkpt lat="45.43553" lon="6.27991">
        <ele>383.22</ele>
        <time>2016-10-04T09:47:56Z</time>
      </trkpt>
      <trkpt lat="45.43549" lon="6.27988">
        <ele>383.7</ele>
        <time>2016-10-04T09:47:57Z</time>
      </trkpt>
      <trkpt lat="45.43495" lon="6.27935">
        <ele>385.63</ele>
        <time>2016-10-04T09:48:14Z</time>
      </trkpt>
      <trkpt lat="45.43462" lon="6.27868">
        <ele>386.11</ele>
        <time>2016-10-04T09:48:28Z</time>
      </trkpt>
      <trkpt lat="45.43413" lon="6.2778">
        <ele>386.11</ele>
        <time>2016-10-04T09:48:42Z</time>
      </trkpt>
      <trkpt lat="45.43394" lon="6.27757">
        <ele>386.11</ele>
        <time>2016-10-04T09:48:47Z</time>
      </trkpt>
      <trkpt lat="45.43368" lon="6.27713">
        <ele>387.55</ele>
        <time>2016-10-04T09:48:56Z</time>
      </trkpt>
      <trkpt lat="45.43365" lon="6.27708">
        <ele>387.07</ele>
        <time>2016-10-04T09:48:57Z</time>
      </trkpt>
      <trkpt lat="45.43359" lon="6.27699">
        <ele>388.03</ele>
        <time>2016-10-04T09:48:59Z</time>
      </trkpt>
      <trkpt lat="45.43356" lon="6.27695">
        <ele>388.51</ele>
        <time>2016-10-04T09:49:00Z</time>
      </trkpt>
      <trkpt lat="45.43353" lon="6.27691">
        <ele>388.03</ele>
        <time>2016-10-04T09:49:01Z</time>
      </trkpt>
      <trkpt lat="45.43342" lon="6.27679">
        <ele>388.51</ele>
        <time>2016-10-04T09:49:04Z</time>
      </trkpt>
      <trkpt lat="45.43332" lon="6.27669">
        <ele>388.03</ele>
        <time>2016-10-04T09:49:07Z</time>
      </trkpt>
      <trkpt lat="45.43288" lon="6.27637">
        <ele>388.51</ele>
        <time>2016-10-04T09:49:19Z</time>
      </trkpt>
      <trkpt lat="45.43227" lon="6.27626">
        <ele>390.43</ele>
        <time>2016-10-04T09:49:35Z</time>
      </trkpt>
      <trkpt lat="45.43196" lon="6.27617">
        <ele>391.87</ele>
        <time>2016-10-04T09:49:50Z</time>
      </trkpt>
      <trkpt lat="45.43164" lon="6.27596">
        <ele>395.24</ele>
        <time>2016-10-04T09:50:09Z</time>
      </trkpt>
      <trkpt lat="45.43163" lon="6.27594">
        <ele>395.24</ele>
        <time>2016-10-04T09:50:10Z</time>
      </trkpt>
      <trkpt lat="45.43161" lon="6.27593">
        <ele>395.72</ele>
        <time>2016-10-04T09:50:11Z</time>
      </trkpt>
      <trkpt lat="45.43159" lon="6.27592">
        <ele>395.24</ele>
        <time>2016-10-04T09:50:12Z</time>
      </trkpt>
      <trkpt lat="45.43132" lon="6.27579">
        <ele>398.6</ele>
        <time>2016-10-04T09:50:28Z</time>
      </trkpt>
      <trkpt lat="45.43118" lon="6.27574">
        <ele>399.08</ele>
        <time>2016-10-04T09:50:38Z</time>
      </trkpt>
      <trkpt lat="45.43116" lon="6.27573">
        <ele>399.57</ele>
        <time>2016-10-04T09:50:39Z</time>
      </trkpt>
      <trkpt lat="45.43114" lon="6.27572">
        <ele>399.57</ele>
        <time>2016-10-04T09:50:40Z</time>
      </trkpt>
      <trkpt lat="45.43086" lon="6.2757">
        <ele>401.97</ele>
        <time>2016-10-04T09:50:58Z</time>
      </trkpt>
      <trkpt lat="45.43058" lon="6.27575">
        <ele>403.89</ele>
        <time>2016-10-04T09:51:14Z</time>
      </trkpt>
      <trkpt lat="45.4303" lon="6.27575">
        <ele>405.81</ele>
        <time>2016-10-04T09:51:31Z</time>
      </trkpt>
      <trkpt lat="45.43006" lon="6.27568">
        <ele>408.7</ele>
        <time>2016-10-04T09:51:49Z</time>
      </trkpt>
      <trkpt lat="45.42982" lon="6.27555">
        <ele>411.1</ele>
        <time>2016-10-04T09:52:08Z</time>
      </trkpt>
      <trkpt lat="45.42962" lon="6.27543">
        <ele>413.02</ele>
        <time>2016-10-04T09:52:24Z</time>
      </trkpt>
      <trkpt lat="45.42946" lon="6.27527">
        <ele>414.47</ele>
        <time>2016-10-04T09:52:38Z</time>
      </trkpt>
      <trkpt lat="45.42926" lon="6.27512">
        <ele>416.87</ele>
        <time>2016-10-04T09:52:54Z</time>
      </trkpt>
      <trkpt lat="45.42908" lon="6.27499">
        <ele>419.75</ele>
        <time>2016-10-04T09:53:08Z</time>
      </trkpt>
      <trkpt lat="45.42888" lon="6.2748">
        <ele>421.68</ele>
        <time>2016-10-04T09:53:25Z</time>
      </trkpt>
      <trkpt lat="45.42877" lon="6.27457">
        <ele>424.08</ele>
        <time>2016-10-04T09:53:40Z</time>
      </trkpt>
      <trkpt lat="45.42864" lon="6.27431">
        <ele>426</ele>
        <time>2016-10-04T09:53:57Z</time>
      </trkpt>
      <trkpt lat="45.42849" lon="6.27408">
        <ele>427.92</ele>
        <time>2016-10-04T09:54:11Z</time>
      </trkpt>
      <trkpt lat="45.42834" lon="6.2738">
        <ele>429.85</ele>
        <time>2016-10-04T09:54:27Z</time>
      </trkpt>
      <trkpt lat="45.42819" lon="6.27344">
        <ele>432.25</ele>
        <time>2016-10-04T09:54:45Z</time>
      </trkpt>
      <trkpt lat="45.42804" lon="6.27316">
        <ele>433.69</ele>
        <time>2016-10-04T09:55:00Z</time>
      </trkpt>
      <trkpt lat="45.42787" lon="6.27286">
        <ele>436.1</ele>
        <time>2016-10-04T09:55:17Z</time>
      </trkpt>
      <trkpt lat="45.42778" lon="6.27258">
        <ele>438.02</ele>
        <time>2016-10-04T09:55:32Z</time>
      </trkpt>
      <trkpt lat="45.42765" lon="6.27225">
        <ele>439.94</ele>
        <time>2016-10-04T09:55:49Z</time>
      </trkpt>
      <trkpt lat="45.42757" lon="6.27196">
        <ele>441.38</ele>
        <time>2016-10-04T09:56:04Z</time>
      </trkpt>
      <trkpt lat="45.42747" lon="6.27158">
        <ele>444.27</ele>
        <time>2016-10-04T09:56:22Z</time>
      </trkpt>
      <trkpt lat="45.42739" lon="6.27126">
        <ele>446.19</ele>
        <time>2016-10-04T09:56:38Z</time>
      </trkpt>
      <trkpt lat="45.42735" lon="6.27099">
        <ele>448.59</ele>
        <time>2016-10-04T09:56:52Z</time>
      </trkpt>
      <trkpt lat="45.42736" lon="6.2706">
        <ele>450.52</ele>
        <time>2016-10-04T09:57:08Z</time>
      </trkpt>
      <trkpt lat="45.42735" lon="6.27029">
        <ele>451.96</ele>
        <time>2016-10-04T09:57:23Z</time>
      </trkpt>
      <trkpt lat="45.42729" lon="6.26997">
        <ele>454.36</ele>
        <time>2016-10-04T09:57:41Z</time>
      </trkpt>
      <trkpt lat="45.42709" lon="6.2697">
        <ele>455.32</ele>
        <time>2016-10-04T09:57:57Z</time>
      </trkpt>
      <trkpt lat="45.42685" lon="6.26962">
        <ele>457.72</ele>
        <time>2016-10-04T09:58:15Z</time>
      </trkpt>
      <trkpt lat="45.4266" lon="6.2696">
        <ele>460.13</ele>
        <time>2016-10-04T09:58:34Z</time>
      </trkpt>
      <trkpt lat="45.42631" lon="6.26964">
        <ele>462.53</ele>
        <time>2016-10-04T09:58:55Z</time>
      </trkpt>
      <trkpt lat="45.42611" lon="6.26967">
        <ele>463.49</ele>
        <time>2016-10-04T09:59:09Z</time>
      </trkpt>
      <trkpt lat="45.426" lon="6.26965">
        <ele>464.45</ele>
        <time>2016-10-04T09:59:17Z</time>
      </trkpt>
      <trkpt lat="45.42599" lon="6.26964">
        <ele>464.45</ele>
        <time>2016-10-04T09:59:18Z</time>
      </trkpt>
      <trkpt lat="45.42598" lon="6.26964">
        <ele>465.42</ele>
        <time>2016-10-04T09:59:19Z</time>
      </trkpt>
      <trkpt lat="45.42596" lon="6.26964">
        <ele>465.9</ele>
        <time>2016-10-04T09:59:20Z</time>
      </trkpt>
      <trkpt lat="45.42594" lon="6.26964">
        <ele>465.42</ele>
        <time>2016-10-04T09:59:21Z</time>
      </trkpt>
      <trkpt lat="45.42592" lon="6.26964">
        <ele>465.42</ele>
        <time>2016-10-04T09:59:22Z</time>
      </trkpt>
      <trkpt lat="45.42591" lon="6.26963">
        <ele>465.9</ele>
        <time>2016-10-04T09:59:23Z</time>
      </trkpt>
      <trkpt lat="45.42569" lon="6.26951">
        <ele>466.38</ele>
        <time>2016-10-04T09:59:38Z</time>
      </trkpt>
      <trkpt lat="45.42545" lon="6.2694">
        <ele>469.26</ele>
        <time>2016-10-04T09:59:52Z</time>
      </trkpt>
      <trkpt lat="45.42524" lon="6.26931">
        <ele>470.22</ele>
        <time>2016-10-04T10:00:05Z</time>
      </trkpt>
      <trkpt lat="45.42495" lon="6.26916">
        <ele>471.18</ele>
        <time>2016-10-04T10:00:20Z</time>
      </trkpt>
      <trkpt lat="45.42476" lon="6.26885">
        <ele>472.14</ele>
        <time>2016-10-04T10:00:32Z</time>
      </trkpt>
      <trkpt lat="45.4245" lon="6.26846">
        <ele>473.11</ele>
        <time>2016-10-04T10:00:45Z</time>
      </trkpt>
      <trkpt lat="45.42406" lon="6.26847">
        <ele>474.07</ele>
        <time>2016-10-04T10:00:57Z</time>
      </trkpt>
      <trkpt lat="45.42361" lon="6.26861">
        <ele>474.07</ele>
        <time>2016-10-04T10:01:10Z</time>
      </trkpt>
      <trkpt lat="45.42319" lon="6.26894">
        <ele>475.03</ele>
        <time>2016-10-04T10:01:24Z</time>
      </trkpt>
      <trkpt lat="45.42286" lon="6.26935">
        <ele>476.95</ele>
        <time>2016-10-04T10:01:38Z</time>
      </trkpt>
      <trkpt lat="45.42262" lon="6.26938">
        <ele>478.87</ele>
        <time>2016-10-04T10:01:51Z</time>
      </trkpt>
      <trkpt lat="45.42237" lon="6.26937">
        <ele>480.8</ele>
        <time>2016-10-04T10:02:06Z</time>
      </trkpt>
      <trkpt lat="45.42202" lon="6.26939">
        <ele>483.2</ele>
        <time>2016-10-04T10:02:26Z</time>
      </trkpt>
      <trkpt lat="45.42167" lon="6.26948">
        <ele>484.16</ele>
        <time>2016-10-04T10:02:43Z</time>
      </trkpt>
      <trkpt lat="45.42115" lon="6.26961">
        <ele>483.68</ele>
        <time>2016-10-04T10:03:00Z</time>
      </trkpt>
      <trkpt lat="45.42072" lon="6.26953">
        <ele>485.6</ele>
        <time>2016-10-04T10:03:14Z</time>
      </trkpt>
      <trkpt lat="45.42019" lon="6.26946">
        <ele>487.05</ele>
        <time>2016-10-04T10:03:33Z</time>
      </trkpt>
      <trkpt lat="45.41968" lon="6.26944">
        <ele>488.01</ele>
        <time>2016-10-04T10:03:50Z</time>
      </trkpt>
      <trkpt lat="45.41959" lon="6.26938">
        <ele>489.45</ele>
        <time>2016-10-04T10:03:59Z</time>
      </trkpt>
      <trkpt lat="45.41959" lon="6.26945">
        <ele>488.97</ele>
        <time>2016-10-04T10:04:35Z</time>
      </trkpt>
      <trkpt lat="45.41958" lon="6.26939">
        <ele>488.97</ele>
        <time>2016-10-04T10:05:07Z</time>
      </trkpt>
      <trkpt lat="45.41956" lon="6.26937">
        <ele>488.97</ele>
        <time>2016-10-04T10:05:44Z</time>
      </trkpt>
      <trkpt lat="45.41957" lon="6.26937">
        <ele>488.49</ele>
        <time>2016-10-04T10:06:21Z</time>
      </trkpt>
      <trkpt lat="45.41959" lon="6.26935">
        <ele>488.01</ele>
        <time>2016-10-04T10:06:49Z</time>
      </trkpt>
      <trkpt lat="45.41957" lon="6.26942">
        <ele>488.49</ele>
        <time>2016-10-04T10:07:18Z</time>
      </trkpt>
      <trkpt lat="45.41956" lon="6.26936">
        <ele>488.01</ele>
        <time>2016-10-04T10:07:52Z</time>
      </trkpt>
      <trkpt lat="45.41957" lon="6.26938">
        <ele>488.01</ele>
        <time>2016-10-04T10:08:22Z</time>
      </trkpt>
      <trkpt lat="45.41957" lon="6.26938">
        <ele>488.49</ele>
        <time>2016-10-04T10:08:48Z</time>
      </trkpt>
      <trkpt lat="45.41955" lon="6.2694">
        <ele>488.01</ele>
        <time>2016-10-04T10:09:21Z</time>
      </trkpt>
      <trkpt lat="45.41961" lon="6.26938">
        <ele>488.01</ele>
        <time>2016-10-04T10:09:49Z</time>
      </trkpt>
      <trkpt lat="45.41959" lon="6.2694">
        <ele>488.49</ele>
        <time>2016-10-04T10:10:21Z</time>
      </trkpt>
      <trkpt lat="45.41954" lon="6.26937">
        <ele>487.53</ele>
        <time>2016-10-04T10:10:49Z</time>
      </trkpt>
      <trkpt lat="45.4196" lon="6.26937">
        <ele>488.01</ele>
        <time>2016-10-04T10:11:22Z</time>
      </trkpt>
      <trkpt lat="45.41957" lon="6.2694">
        <ele>488.01</ele>
        <time>2016-10-04T10:11:45Z</time>
      </trkpt>
      <trkpt lat="45.41963" lon="6.26941">
        <ele>488.01</ele>
        <time>2016-10-04T10:12:09Z</time>
      </trkpt>
      <trkpt lat="45.41962" lon="6.26942">
        <ele>488.49</ele>
        <time>2016-10-04T10:12:37Z</time>
      </trkpt>
      <trkpt lat="45.41964" lon="6.26939">
        <ele>488.01</ele>
        <time>2016-10-04T10:13:02Z</time>
      </trkpt>
      <trkpt lat="45.41962" lon="6.26941">
        <ele>488.49</ele>
        <time>2016-10-04T10:13:27Z</time>
      </trkpt>
      <trkpt lat="45.41964" lon="6.26943">
        <ele>488.01</ele>
        <time>2016-10-04T10:13:54Z</time>
      </trkpt>
      <trkpt lat="45.41954" lon="6.2694">
        <ele>488.49</ele>
        <time>2016-10-04T10:14:12Z</time>
      </trkpt>
      <trkpt lat="45.41946" lon="6.26935">
        <ele>488.49</ele>
        <time>2016-10-04T10:14:30Z</time>
      </trkpt>
      <trkpt lat="45.41944" lon="6.26929">
        <ele>488.97</ele>
        <time>2016-10-04T10:15:04Z</time>
      </trkpt>
      <trkpt lat="45.41948" lon="6.26937">
        <ele>489.45</ele>
        <time>2016-10-04T10:15:48Z</time>
      </trkpt>
      <trkpt lat="45.41946" lon="6.26934">
        <ele>489.45</ele>
        <time>2016-10-04T10:16:27Z</time>
      </trkpt>
      <trkpt lat="45.41946" lon="6.26933">
        <ele>489.93</ele>
        <time>2016-10-04T10:16:58Z</time>
      </trkpt>
      <trkpt lat="45.41946" lon="6.26937">
        <ele>489.93</ele>
        <time>2016-10-04T10:17:32Z</time>
      </trkpt>
      <trkpt lat="45.41946" lon="6.26929">
        <ele>489.93</ele>
        <time>2016-10-04T10:18:06Z</time>
      </trkpt>
      <trkpt lat="45.41943" lon="6.26931">
        <ele>489.93</ele>
        <time>2016-10-04T10:18:46Z</time>
      </trkpt>
      <trkpt lat="45.4195" lon="6.26934">
        <ele>489.93</ele>
        <time>2016-10-04T10:19:38Z</time>
      </trkpt>
      <trkpt lat="45.41948" lon="6.26936">
        <ele>490.41</ele>
        <time>2016-10-04T10:20:19Z</time>
      </trkpt>
      <trkpt lat="45.41949" lon="6.26941">
        <ele>490.41</ele>
        <time>2016-10-04T10:20:51Z</time>
      </trkpt>
      <trkpt lat="45.41946" lon="6.26937">
        <ele>490.41</ele>
        <time>2016-10-04T10:21:15Z</time>
      </trkpt>
      <trkpt lat="45.41947" lon="6.26928">
        <ele>490.41</ele>
        <time>2016-10-04T10:21:46Z</time>
      </trkpt>
      <trkpt lat="45.41948" lon="6.26934">
        <ele>489.93</ele>
        <time>2016-10-04T10:22:18Z</time>
      </trkpt>
      <trkpt lat="45.41946" lon="6.26941">
        <ele>490.89</ele>
        <time>2016-10-04T10:23:01Z</time>
      </trkpt>
      <trkpt lat="45.4195" lon="6.26939">
        <ele>490.89</ele>
        <time>2016-10-04T10:23:45Z</time>
      </trkpt>
      <trkpt lat="45.41946" lon="6.26939">
        <ele>490.89</ele>
        <time>2016-10-04T10:24:22Z</time>
      </trkpt>
      <trkpt lat="45.41944" lon="6.26939">
        <ele>491.85</ele>
        <time>2016-10-04T10:24:53Z</time>
      </trkpt>
      <trkpt lat="45.4195" lon="6.26939">
        <ele>491.85</ele>
        <time>2016-10-04T10:25:24Z</time>
      </trkpt>
      <trkpt lat="45.41947" lon="6.26937">
        <ele>491.37</ele>
        <time>2016-10-04T10:25:46Z</time>
      </trkpt>
      <trkpt lat="45.41935" lon="6.26929">
        <ele>492.33</ele>
        <time>2016-10-04T10:26:06Z</time>
      </trkpt>
      <trkpt lat="45.41935" lon="6.26928">
        <ele>491.85</ele>
        <time>2016-10-04T10:26:07Z</time>
      </trkpt>
      <trkpt lat="45.41915" lon="6.26907">
        <ele>491.85</ele>
        <time>2016-10-04T10:26:19Z</time>
      </trkpt>
      <trkpt lat="45.41883" lon="6.26905">
        <ele>492.33</ele>
        <time>2016-10-04T10:26:31Z</time>
      </trkpt>
      <trkpt lat="45.41834" lon="6.26909">
        <ele>488.49</ele>
        <time>2016-10-04T10:26:41Z</time>
      </trkpt>
      <trkpt lat="45.41826" lon="6.26908">
        <ele>487.53</ele>
        <time>2016-10-04T10:26:42Z</time>
      </trkpt>
      <trkpt lat="45.41818" lon="6.26905">
        <ele>487.05</ele>
        <time>2016-10-04T10:26:43Z</time>
      </trkpt>
      <trkpt lat="45.41803" lon="6.26899">
        <ele>486.56</ele>
        <time>2016-10-04T10:26:45Z</time>
      </trkpt>
      <trkpt lat="45.41749" lon="6.26859">
        <ele>483.2</ele>
        <time>2016-10-04T10:26:52Z</time>
      </trkpt>
      <trkpt lat="45.41734" lon="6.26848">
        <ele>482.24</ele>
        <time>2016-10-04T10:26:54Z</time>
      </trkpt>
      <trkpt lat="45.41676" lon="6.26798">
        <ele>480.32</ele>
        <time>2016-10-04T10:27:02Z</time>
      </trkpt>
      <trkpt lat="45.41668" lon="6.26795">
        <ele>479.84</ele>
        <time>2016-10-04T10:27:03Z</time>
      </trkpt>
      <trkpt lat="45.41659" lon="6.26794">
        <ele>479.35</ele>
        <time>2016-10-04T10:27:04Z</time>
      </trkpt>
      <trkpt lat="45.41563" lon="6.26813">
        <ele>476.47</ele>
        <time>2016-10-04T10:27:15Z</time>
      </trkpt>
      <trkpt lat="45.41536" lon="6.26817">
        <ele>475.03</ele>
        <time>2016-10-04T10:27:18Z</time>
      </trkpt>
      <trkpt lat="45.41501" lon="6.26814">
        <ele>474.55</ele>
        <time>2016-10-04T10:27:22Z</time>
      </trkpt>
      <trkpt lat="45.4147" lon="6.26802">
        <ele>474.55</ele>
        <time>2016-10-04T10:27:26Z</time>
      </trkpt>
      <trkpt lat="45.41457" lon="6.2679">
        <ele>474.07</ele>
        <time>2016-10-04T10:27:28Z</time>
      </trkpt>
      <trkpt lat="45.41434" lon="6.26761">
        <ele>473.11</ele>
        <time>2016-10-04T10:27:32Z</time>
      </trkpt>
      <trkpt lat="45.4142" lon="6.26733">
        <ele>472.14</ele>
        <time>2016-10-04T10:27:35Z</time>
      </trkpt>
      <trkpt lat="45.41408" lon="6.26717">
        <ele>472.14</ele>
        <time>2016-10-04T10:27:37Z</time>
      </trkpt>
      <trkpt lat="45.41402" lon="6.26714">
        <ele>470.7</ele>
        <time>2016-10-04T10:27:38Z</time>
      </trkpt>
      <trkpt lat="45.41397" lon="6.26712">
        <ele>471.18</ele>
        <time>2016-10-04T10:27:39Z</time>
      </trkpt>
      <trkpt lat="45.41393" lon="6.26711">
        <ele>471.66</ele>
        <time>2016-10-04T10:27:40Z</time>
      </trkpt>
      <trkpt lat="45.41373" lon="6.26714">
        <ele>470.7</ele>
        <time>2016-10-04T10:27:44Z</time>
      </trkpt>
      <trkpt lat="45.413" lon="6.2677">
        <ele>469.26</ele>
        <time>2016-10-04T10:27:56Z</time>
      </trkpt>
      <trkpt lat="45.41292" lon="6.26772">
        <ele>468.78</ele>
        <time>2016-10-04T10:27:57Z</time>
      </trkpt>
      <trkpt lat="45.41285" lon="6.26774">
        <ele>468.3</ele>
        <time>2016-10-04T10:27:58Z</time>
      </trkpt>
      <trkpt lat="45.41278" lon="6.26775">
        <ele>468.3</ele>
        <time>2016-10-04T10:27:59Z</time>
      </trkpt>
      <trkpt lat="45.4127" lon="6.26775">
        <ele>467.82</ele>
        <time>2016-10-04T10:28:00Z</time>
      </trkpt>
      <trkpt lat="45.41141" lon="6.26765">
        <ele>464.93</ele>
        <time>2016-10-04T10:28:15Z</time>
      </trkpt>
      <trkpt lat="45.41043" lon="6.26749">
        <ele>462.05</ele>
        <time>2016-10-04T10:28:26Z</time>
      </trkpt>
      <trkpt lat="45.41034" lon="6.26749">
        <ele>462.05</ele>
        <time>2016-10-04T10:28:27Z</time>
      </trkpt>
      <trkpt lat="45.41026" lon="6.2675">
        <ele>461.09</ele>
        <time>2016-10-04T10:28:28Z</time>
      </trkpt>
      <trkpt lat="45.40974" lon="6.26755">
        <ele>460.13</ele>
        <time>2016-10-04T10:28:34Z</time>
      </trkpt>
      <trkpt lat="45.40965" lon="6.26752">
        <ele>460.13</ele>
        <time>2016-10-04T10:28:35Z</time>
      </trkpt>
      <trkpt lat="45.40957" lon="6.2675">
        <ele>460.13</ele>
        <time>2016-10-04T10:28:36Z</time>
      </trkpt>
      <trkpt lat="45.40948" lon="6.26746">
        <ele>459.65</ele>
        <time>2016-10-04T10:28:37Z</time>
      </trkpt>
      <trkpt lat="45.4094" lon="6.2674">
        <ele>459.65</ele>
        <time>2016-10-04T10:28:38Z</time>
      </trkpt>
      <trkpt lat="45.40933" lon="6.26735">
        <ele>459.17</ele>
        <time>2016-10-04T10:28:39Z</time>
      </trkpt>
      <trkpt lat="45.4086" lon="6.26704">
        <ele>456.76</ele>
        <time>2016-10-04T10:28:48Z</time>
      </trkpt>
      <trkpt lat="45.40752" lon="6.26669">
        <ele>454.36</ele>
        <time>2016-10-04T10:29:01Z</time>
      </trkpt>
      <trkpt lat="45.40697" lon="6.26641">
        <ele>453.4</ele>
        <time>2016-10-04T10:29:08Z</time>
      </trkpt>
      <trkpt lat="45.40666" lon="6.26634">
        <ele>453.4</ele>
        <time>2016-10-04T10:29:12Z</time>
      </trkpt>
      <trkpt lat="45.40577" lon="6.26643">
        <ele>451.48</ele>
        <time>2016-10-04T10:29:23Z</time>
      </trkpt>
      <trkpt lat="45.40561" lon="6.26646">
        <ele>451.48</ele>
        <time>2016-10-04T10:29:25Z</time>
      </trkpt>
      <trkpt lat="45.40553" lon="6.26649">
        <ele>451.48</ele>
        <time>2016-10-04T10:29:26Z</time>
      </trkpt>
      <trkpt lat="45.40546" lon="6.26655">
        <ele>451</ele>
        <time>2016-10-04T10:29:27Z</time>
      </trkpt>
      <trkpt lat="45.40539" lon="6.26662">
        <ele>451.48</ele>
        <time>2016-10-04T10:29:28Z</time>
      </trkpt>
      <trkpt lat="45.40534" lon="6.2667">
        <ele>451</ele>
        <time>2016-10-04T10:29:29Z</time>
      </trkpt>
      <trkpt lat="45.4053" lon="6.2668">
        <ele>451</ele>
        <time>2016-10-04T10:29:30Z</time>
      </trkpt>
      <trkpt lat="45.40525" lon="6.2669">
        <ele>450.03</ele>
        <time>2016-10-04T10:29:31Z</time>
      </trkpt>
      <trkpt lat="45.40521" lon="6.267">
        <ele>449.07</ele>
        <time>2016-10-04T10:29:32Z</time>
      </trkpt>
      <trkpt lat="45.40506" lon="6.2674">
        <ele>448.11</ele>
        <time>2016-10-04T10:29:36Z</time>
      </trkpt>
      <trkpt lat="45.40502" lon="6.2675">
        <ele>449.07</ele>
        <time>2016-10-04T10:29:37Z</time>
      </trkpt>
      <trkpt lat="45.40497" lon="6.26758">
        <ele>449.55</ele>
        <time>2016-10-04T10:29:38Z</time>
      </trkpt>
      <trkpt lat="45.40427" lon="6.26845">
        <ele>449.55</ele>
        <time>2016-10-04T10:29:51Z</time>
      </trkpt>
      <trkpt lat="45.40417" lon="6.26855">
        <ele>449.55</ele>
        <time>2016-10-04T10:29:53Z</time>
      </trkpt>
      <trkpt lat="45.40397" lon="6.26865">
        <ele>450.52</ele>
        <time>2016-10-04T10:29:57Z</time>
      </trkpt>
      <trkpt lat="45.40392" lon="6.26866">
        <ele>450.52</ele>
        <time>2016-10-04T10:29:58Z</time>
      </trkpt>
      <trkpt lat="45.40343" lon="6.26863">
        <ele>452.92</ele>
        <time>2016-10-04T10:30:12Z</time>
      </trkpt>
      <trkpt lat="45.40309" lon="6.26877">
        <ele>453.88</ele>
        <time>2016-10-04T10:30:22Z</time>
      </trkpt>
      <trkpt lat="45.40294" lon="6.2689">
        <ele>452.44</ele>
        <time>2016-10-04T10:30:26Z</time>
      </trkpt>
      <trkpt lat="45.40289" lon="6.26892">
        <ele>452.44</ele>
        <time>2016-10-04T10:30:27Z</time>
      </trkpt>
      <trkpt lat="45.40277" lon="6.26897">
        <ele>451.96</ele>
        <time>2016-10-04T10:30:29Z</time>
      </trkpt>
      <trkpt lat="45.40272" lon="6.269">
        <ele>451</ele>
        <time>2016-10-04T10:30:30Z</time>
      </trkpt>
      <trkpt lat="45.4026" lon="6.26909">
        <ele>451</ele>
        <time>2016-10-04T10:30:32Z</time>
      </trkpt>
      <trkpt lat="45.40255" lon="6.26915">
        <ele>451</ele>
        <time>2016-10-04T10:30:33Z</time>
      </trkpt>
      <trkpt lat="45.40245" lon="6.26928">
        <ele>449.55</ele>
        <time>2016-10-04T10:30:35Z</time>
      </trkpt>
      <trkpt lat="45.40241" lon="6.26937">
        <ele>449.55</ele>
        <time>2016-10-04T10:30:36Z</time>
      </trkpt>
      <trkpt lat="45.40228" lon="6.26961">
        <ele>448.59</ele>
        <time>2016-10-04T10:30:39Z</time>
      </trkpt>
      <trkpt lat="45.40224" lon="6.26967">
        <ele>448.11</ele>
        <time>2016-10-04T10:30:40Z</time>
      </trkpt>
      <trkpt lat="45.40219" lon="6.26972">
        <ele>447.63</ele>
        <time>2016-10-04T10:30:41Z</time>
      </trkpt>
      <trkpt lat="45.40176" lon="6.27005">
        <ele>444.75</ele>
        <time>2016-10-04T10:30:48Z</time>
      </trkpt>
      <trkpt lat="45.40123" lon="6.27042">
        <ele>443.31</ele>
        <time>2016-10-04T10:30:55Z</time>
      </trkpt>
      <trkpt lat="45.4008" lon="6.27071">
        <ele>441.86</ele>
        <time>2016-10-04T10:31:00Z</time>
      </trkpt>
      <trkpt lat="45.40071" lon="6.27075">
        <ele>441.38</ele>
        <time>2016-10-04T10:31:01Z</time>
      </trkpt>
      <trkpt lat="45.40062" lon="6.27079">
        <ele>440.9</ele>
        <time>2016-10-04T10:31:02Z</time>
      </trkpt>
      <trkpt lat="45.39985" lon="6.27079">
        <ele>440.9</ele>
        <time>2016-10-04T10:31:11Z</time>
      </trkpt>
      <trkpt lat="45.39899" lon="6.27035">
        <ele>441.86</ele>
        <time>2016-10-04T10:31:24Z</time>
      </trkpt>
      <trkpt lat="45.3983" lon="6.27009">
        <ele>444.27</ele>
        <time>2016-10-04T10:31:38Z</time>
      </trkpt>
      <trkpt lat="45.39825" lon="6.27007">
        <ele>444.27</ele>
        <time>2016-10-04T10:31:39Z</time>
      </trkpt>
      <trkpt lat="45.39772" lon="6.26971">
        <ele>447.15</ele>
        <time>2016-10-04T10:31:55Z</time>
      </trkpt>
      <trkpt lat="45.39723" lon="6.26942">
        <ele>448.11</ele>
        <time>2016-10-04T10:32:11Z</time>
      </trkpt>
      <trkpt lat="45.39679" lon="6.26921">
        <ele>447.15</ele>
        <time>2016-10-04T10:32:22Z</time>
      </trkpt>
      <trkpt lat="45.39675" lon="6.26917">
        <ele>447.63</ele>
        <time>2016-10-04T10:32:23Z</time>
      </trkpt>
      <trkpt lat="45.39636" lon="6.26871">
        <ele>450.03</ele>
        <time>2016-10-04T10:32:37Z</time>
      </trkpt>
      <trkpt lat="45.396" lon="6.26828">
        <ele>451.48</ele>
        <time>2016-10-04T10:32:51Z</time>
      </trkpt>
      <trkpt lat="45.39567" lon="6.26797">
        <ele>452.92</ele>
        <time>2016-10-04T10:33:03Z</time>
      </trkpt>
      <trkpt lat="45.39534" lon="6.26759">
        <ele>453.88</ele>
        <time>2016-10-04T10:33:16Z</time>
      </trkpt>
      <trkpt lat="45.39512" lon="6.2671">
        <ele>454.84</ele>
        <time>2016-10-04T10:33:29Z</time>
      </trkpt>
      <trkpt lat="45.39482" lon="6.26654">
        <ele>455.8</ele>
        <time>2016-10-04T10:33:43Z</time>
      </trkpt>
      <trkpt lat="45.39464" lon="6.26646">
        <ele>456.28</ele>
        <time>2016-10-04T10:33:48Z</time>
      </trkpt>
      <trkpt lat="45.39459" lon="6.26647">
        <ele>455.8</ele>
        <time>2016-10-04T10:33:49Z</time>
      </trkpt>
      <trkpt lat="45.39443" lon="6.26652">
        <ele>454.36</ele>
        <time>2016-10-04T10:33:52Z</time>
      </trkpt>
      <trkpt lat="45.39426" lon="6.26654">
        <ele>451.96</ele>
        <time>2016-10-04T10:33:55Z</time>
      </trkpt>
      <trkpt lat="45.39412" lon="6.2665">
        <ele>451.48</ele>
        <time>2016-10-04T10:33:57Z</time>
      </trkpt>
      <trkpt lat="45.39389" lon="6.2664">
        <ele>450.03</ele>
        <time>2016-10-04T10:34:00Z</time>
      </trkpt>
      <trkpt lat="45.39356" lon="6.26624">
        <ele>447.15</ele>
        <time>2016-10-04T10:34:04Z</time>
      </trkpt>
      <trkpt lat="45.39338" lon="6.26614">
        <ele>446.19</ele>
        <time>2016-10-04T10:34:06Z</time>
      </trkpt>
      <trkpt lat="45.39298" lon="6.266">
        <ele>442.82</ele>
        <time>2016-10-04T10:34:10Z</time>
      </trkpt>
      <trkpt lat="45.39277" lon="6.26593">
        <ele>441.86</ele>
        <time>2016-10-04T10:34:12Z</time>
      </trkpt>
      <trkpt lat="45.39235" lon="6.26576">
        <ele>438.5</ele>
        <time>2016-10-04T10:34:16Z</time>
      </trkpt>
      <trkpt lat="45.39195" lon="6.26563">
        <ele>438.5</ele>
        <time>2016-10-04T10:34:20Z</time>
      </trkpt>
      <trkpt lat="45.39186" lon="6.26562">
        <ele>438.5</ele>
        <time>2016-10-04T10:34:21Z</time>
      </trkpt>
      <trkpt lat="45.39178" lon="6.26563">
        <ele>438.02</ele>
        <time>2016-10-04T10:34:22Z</time>
      </trkpt>
      <trkpt lat="45.39112" lon="6.2658">
        <ele>438.02</ele>
        <time>2016-10-04T10:34:30Z</time>
      </trkpt>
      <trkpt lat="45.39077" lon="6.266">
        <ele>435.61</ele>
        <time>2016-10-04T10:34:34Z</time>
      </trkpt>
      <trkpt lat="45.3906" lon="6.26613">
        <ele>434.17</ele>
        <time>2016-10-04T10:34:36Z</time>
      </trkpt>
      <trkpt lat="45.39042" lon="6.26623">
        <ele>433.69</ele>
        <time>2016-10-04T10:34:38Z</time>
      </trkpt>
      <trkpt lat="45.39034" lon="6.26626">
        <ele>433.21</ele>
        <time>2016-10-04T10:34:39Z</time>
      </trkpt>
      <trkpt lat="45.38951" lon="6.26649">
        <ele>429.37</ele>
        <time>2016-10-04T10:34:48Z</time>
      </trkpt>
      <trkpt lat="45.38942" lon="6.26653">
        <ele>429.85</ele>
        <time>2016-10-04T10:34:49Z</time>
      </trkpt>
      <trkpt lat="45.38841" lon="6.26691">
        <ele>428.4</ele>
        <time>2016-10-04T10:35:00Z</time>
      </trkpt>
      <trkpt lat="45.38825" lon="6.26701">
        <ele>427.92</ele>
        <time>2016-10-04T10:35:02Z</time>
      </trkpt>
      <trkpt lat="45.38817" lon="6.26707">
        <ele>427.44</ele>
        <time>2016-10-04T10:35:03Z</time>
      </trkpt>
      <trkpt lat="45.3881" lon="6.26713">
        <ele>427.44</ele>
        <time>2016-10-04T10:35:04Z</time>
      </trkpt>
      <trkpt lat="45.38751" lon="6.26773">
        <ele>428.4</ele>
        <time>2016-10-04T10:35:14Z</time>
      </trkpt>
      <trkpt lat="45.38727" lon="6.26788">
        <ele>431.77</ele>
        <time>2016-10-04T10:35:21Z</time>
      </trkpt>
      <trkpt lat="45.38688" lon="6.26803">
        <ele>433.21</ele>
        <time>2016-10-04T10:35:33Z</time>
      </trkpt>
      <trkpt lat="45.38655" lon="6.26818">
        <ele>434.65</ele>
        <time>2016-10-04T10:35:46Z</time>
      </trkpt>
      <trkpt lat="45.38616" lon="6.26865">
        <ele>436.1</ele>
        <time>2016-10-04T10:36:02Z</time>
      </trkpt>
      <trkpt lat="45.38571" lon="6.26902">
        <ele>438.02</ele>
        <time>2016-10-04T10:36:19Z</time>
      </trkpt>
      <trkpt lat="45.38548" lon="6.26911">
        <ele>439.46</ele>
        <time>2016-10-04T10:36:32Z</time>
      </trkpt>
      <trkpt lat="45.38517" lon="6.26919">
        <ele>440.9</ele>
        <time>2016-10-04T10:36:49Z</time>
      </trkpt>
      <trkpt lat="45.38491" lon="6.2693">
        <ele>442.82</ele>
        <time>2016-10-04T10:37:02Z</time>
      </trkpt>
      <trkpt lat="45.38459" lon="6.26941">
        <ele>444.75</ele>
        <time>2016-10-04T10:37:17Z</time>
      </trkpt>
      <trkpt lat="45.38442" lon="6.26947">
        <ele>445.71</ele>
        <time>2016-10-04T10:37:25Z</time>
      </trkpt>
      <trkpt lat="45.38439" lon="6.2695">
        <ele>445.23</ele>
        <time>2016-10-04T10:37:26Z</time>
      </trkpt>
      <trkpt lat="45.38406" lon="6.26995">
        <ele>445.71</ele>
        <time>2016-10-04T10:37:41Z</time>
      </trkpt>
      <trkpt lat="45.38353" lon="6.2702">
        <ele>444.27</ele>
        <time>2016-10-04T10:37:55Z</time>
      </trkpt>
      <trkpt lat="45.3833" lon="6.27026">
        <ele>443.31</ele>
        <time>2016-10-04T10:37:59Z</time>
      </trkpt>
      <trkpt lat="45.38325" lon="6.27028">
        <ele>442.82</ele>
        <time>2016-10-04T10:38:00Z</time>
      </trkpt>
      <trkpt lat="45.3832" lon="6.2703">
        <ele>443.31</ele>
        <time>2016-10-04T10:38:01Z</time>
      </trkpt>
      <trkpt lat="45.3826" lon="6.27049">
        <ele>444.27</ele>
        <time>2016-10-04T10:38:14Z</time>
      </trkpt>
      <trkpt lat="45.38241" lon="6.27053">
        <ele>445.23</ele>
        <time>2016-10-04T10:38:18Z</time>
      </trkpt>
      <trkpt lat="45.38237" lon="6.27055">
        <ele>445.71</ele>
        <time>2016-10-04T10:38:19Z</time>
      </trkpt>
      <trkpt lat="45.38217" lon="6.2707">
        <ele>443.79</ele>
        <time>2016-10-04T10:38:23Z</time>
      </trkpt>
      <trkpt lat="45.3819" lon="6.27094">
        <ele>442.34</ele>
        <time>2016-10-04T10:38:28Z</time>
      </trkpt>
      <trkpt lat="45.38176" lon="6.27099">
        <ele>440.9</ele>
        <time>2016-10-04T10:38:30Z</time>
      </trkpt>
      <trkpt lat="45.38168" lon="6.27099">
        <ele>440.42</ele>
        <time>2016-10-04T10:38:31Z</time>
      </trkpt>
      <trkpt lat="45.38131" lon="6.2709">
        <ele>437.06</ele>
        <time>2016-10-04T10:38:35Z</time>
      </trkpt>
      <trkpt lat="45.38104" lon="6.27082">
        <ele>432.25</ele>
        <time>2016-10-04T10:38:38Z</time>
      </trkpt>
      <trkpt lat="45.38088" lon="6.27079">
        <ele>432.25</ele>
        <time>2016-10-04T10:38:40Z</time>
      </trkpt>
      <trkpt lat="45.3808" lon="6.2708">
        <ele>432.25</ele>
        <time>2016-10-04T10:38:41Z</time>
      </trkpt>
      <trkpt lat="45.38072" lon="6.27083">
        <ele>430.33</ele>
        <time>2016-10-04T10:38:42Z</time>
      </trkpt>
      <trkpt lat="45.38063" lon="6.27087">
        <ele>427.92</ele>
        <time>2016-10-04T10:38:43Z</time>
      </trkpt>
      <trkpt lat="45.38056" lon="6.27095">
        <ele>426.96</ele>
        <time>2016-10-04T10:38:44Z</time>
      </trkpt>
      <trkpt lat="45.38049" lon="6.27105">
        <ele>426</ele>
        <time>2016-10-04T10:38:45Z</time>
      </trkpt>
      <trkpt lat="45.38043" lon="6.27117">
        <ele>425.52</ele>
        <time>2016-10-04T10:38:46Z</time>
      </trkpt>
      <trkpt lat="45.38041" lon="6.2713">
        <ele>425.04</ele>
        <time>2016-10-04T10:38:47Z</time>
      </trkpt>
      <trkpt lat="45.3804" lon="6.27143">
        <ele>426</ele>
        <time>2016-10-04T10:38:48Z</time>
      </trkpt>
      <trkpt lat="45.38039" lon="6.27154">
        <ele>425.52</ele>
        <time>2016-10-04T10:38:49Z</time>
      </trkpt>
      <trkpt lat="45.38038" lon="6.27165">
        <ele>426.48</ele>
        <time>2016-10-04T10:38:50Z</time>
      </trkpt>
      <trkpt lat="45.38034" lon="6.27174">
        <ele>426</ele>
        <time>2016-10-04T10:38:51Z</time>
      </trkpt>
      <trkpt lat="45.38029" lon="6.2718">
        <ele>426</ele>
        <time>2016-10-04T10:38:52Z</time>
      </trkpt>
      <trkpt lat="45.38025" lon="6.27185">
        <ele>426</ele>
        <time>2016-10-04T10:38:53Z</time>
      </trkpt>
      <trkpt lat="45.38019" lon="6.27189">
        <ele>426</ele>
        <time>2016-10-04T10:38:54Z</time>
      </trkpt>
      <trkpt lat="45.38013" lon="6.2719">
        <ele>425.52</ele>
        <time>2016-10-04T10:38:55Z</time>
      </trkpt>
      <trkpt lat="45.38" lon="6.27193">
        <ele>425.04</ele>
        <time>2016-10-04T10:38:57Z</time>
      </trkpt>
      <trkpt lat="45.3793" lon="6.2722">
        <ele>426.48</ele>
        <time>2016-10-04T10:39:08Z</time>
      </trkpt>
      <trkpt lat="45.37841" lon="6.2727">
        <ele>426.48</ele>
        <time>2016-10-04T10:39:24Z</time>
      </trkpt>
      <trkpt lat="45.37763" lon="6.27356">
        <ele>427.44</ele>
        <time>2016-10-04T10:39:40Z</time>
      </trkpt>
      <trkpt lat="45.377" lon="6.27422">
        <ele>428.4</ele>
        <time>2016-10-04T10:39:53Z</time>
      </trkpt>
      <trkpt lat="45.37694" lon="6.27426">
        <ele>427.92</ele>
        <time>2016-10-04T10:39:54Z</time>
      </trkpt>
      <trkpt lat="45.37689" lon="6.27428">
        <ele>427.92</ele>
        <time>2016-10-04T10:39:55Z</time>
      </trkpt>
      <trkpt lat="45.37684" lon="6.2743">
        <ele>428.4</ele>
        <time>2016-10-04T10:39:56Z</time>
      </trkpt>
      <trkpt lat="45.37678" lon="6.27431">
        <ele>428.4</ele>
        <time>2016-10-04T10:39:57Z</time>
      </trkpt>
      <trkpt lat="45.37672" lon="6.27431">
        <ele>428.89</ele>
        <time>2016-10-04T10:39:58Z</time>
      </trkpt>
      <trkpt lat="45.37666" lon="6.2743">
        <ele>428.89</ele>
        <time>2016-10-04T10:39:59Z</time>
      </trkpt>
      <trkpt lat="45.37619" lon="6.27428">
        <ele>429.37</ele>
        <time>2016-10-04T10:40:07Z</time>
      </trkpt>
      <trkpt lat="45.37614" lon="6.27429">
        <ele>429.85</ele>
        <time>2016-10-04T10:40:08Z</time>
      </trkpt>
      <trkpt lat="45.37589" lon="6.27436">
        <ele>429.85</ele>
        <time>2016-10-04T10:40:13Z</time>
      </trkpt>
      <trkpt lat="45.3751" lon="6.27485">
        <ele>430.33</ele>
        <time>2016-10-04T10:40:29Z</time>
      </trkpt>
      <trkpt lat="45.37443" lon="6.27554">
        <ele>429.85</ele>
        <time>2016-10-04T10:40:44Z</time>
      </trkpt>
      <trkpt lat="45.37366" lon="6.27579">
        <ele>431.77</ele>
        <time>2016-10-04T10:40:59Z</time>
      </trkpt>
      <trkpt lat="45.37291" lon="6.276">
        <ele>432.25</ele>
        <time>2016-10-04T10:41:14Z</time>
      </trkpt>
      <trkpt lat="45.37211" lon="6.27642">
        <ele>431.77</ele>
        <time>2016-10-04T10:41:30Z</time>
      </trkpt>
      <trkpt lat="45.37181" lon="6.27654">
        <ele>432.73</ele>
        <time>2016-10-04T10:41:36Z</time>
      </trkpt>
      <trkpt lat="45.37176" lon="6.27657">
        <ele>432.73</ele>
        <time>2016-10-04T10:41:37Z</time>
      </trkpt>
      <trkpt lat="45.37171" lon="6.27661">
        <ele>432.73</ele>
        <time>2016-10-04T10:41:38Z</time>
      </trkpt>
      <trkpt lat="45.37099" lon="6.27729">
        <ele>433.69</ele>
        <time>2016-10-04T10:41:54Z</time>
      </trkpt>
      <trkpt lat="45.37087" lon="6.27742">
        <ele>433.21</ele>
        <time>2016-10-04T10:41:57Z</time>
      </trkpt>
      <trkpt lat="45.37009" lon="6.2778">
        <ele>434.17</ele>
        <time>2016-10-04T10:42:13Z</time>
      </trkpt>
      <trkpt lat="45.36928" lon="6.27831">
        <ele>433.69</ele>
        <time>2016-10-04T10:42:30Z</time>
      </trkpt>
      <trkpt lat="45.36858" lon="6.27908">
        <ele>435.13</ele>
        <time>2016-10-04T10:42:47Z</time>
      </trkpt>
      <trkpt lat="45.3678" lon="6.28001">
        <ele>436.1</ele>
        <time>2016-10-04T10:43:06Z</time>
      </trkpt>
      <trkpt lat="45.36702" lon="6.28093">
        <ele>437.06</ele>
        <time>2016-10-04T10:43:25Z</time>
      </trkpt>
      <trkpt lat="45.36616" lon="6.28189">
        <ele>438.5</ele>
        <time>2016-10-04T10:43:45Z</time>
      </trkpt>
      <trkpt lat="45.36537" lon="6.28264">
        <ele>438.5</ele>
        <time>2016-10-04T10:44:02Z</time>
      </trkpt>
      <trkpt lat="45.36426" lon="6.28368">
        <ele>438.98</ele>
        <time>2016-10-04T10:44:25Z</time>
      </trkpt>
      <trkpt lat="45.36338" lon="6.28452">
        <ele>439.94</ele>
        <time>2016-10-04T10:44:43Z</time>
      </trkpt>
      <trkpt lat="45.36272" lon="6.28499">
        <ele>442.82</ele>
        <time>2016-10-04T10:44:58Z</time>
      </trkpt>
      <trkpt lat="45.36239" lon="6.28505">
        <ele>442.82</ele>
        <time>2016-10-04T10:45:05Z</time>
      </trkpt>
      <trkpt lat="45.36234" lon="6.28506">
        <ele>443.31</ele>
        <time>2016-10-04T10:45:06Z</time>
      </trkpt>
      <trkpt lat="45.36229" lon="6.28506">
        <ele>443.31</ele>
        <time>2016-10-04T10:45:07Z</time>
      </trkpt>
      <trkpt lat="45.36225" lon="6.28507">
        <ele>443.79</ele>
        <time>2016-10-04T10:45:08Z</time>
      </trkpt>
      <trkpt lat="45.3622" lon="6.28507">
        <ele>443.31</ele>
        <time>2016-10-04T10:45:09Z</time>
      </trkpt>
      <trkpt lat="45.36216" lon="6.28507">
        <ele>443.31</ele>
        <time>2016-10-04T10:45:10Z</time>
      </trkpt>
      <trkpt lat="45.36211" lon="6.28507">
        <ele>443.31</ele>
        <time>2016-10-04T10:45:11Z</time>
      </trkpt>
      <trkpt lat="45.36138" lon="6.2852">
        <ele>444.27</ele>
        <time>2016-10-04T10:45:26Z</time>
      </trkpt>
      <trkpt lat="45.361" lon="6.28529">
        <ele>444.27</ele>
        <time>2016-10-04T10:45:34Z</time>
      </trkpt>
      <trkpt lat="45.36061" lon="6.2854">
        <ele>444.75</ele>
        <time>2016-10-04T10:45:42Z</time>
      </trkpt>
      <trkpt lat="45.36057" lon="6.28541">
        <ele>444.75</ele>
        <time>2016-10-04T10:45:43Z</time>
      </trkpt>
      <trkpt lat="45.36052" lon="6.28542">
        <ele>444.75</ele>
        <time>2016-10-04T10:45:44Z</time>
      </trkpt>
      <trkpt lat="45.35965" lon="6.2857">
        <ele>446.19</ele>
        <time>2016-10-04T10:46:02Z</time>
      </trkpt>
      <trkpt lat="45.35923" lon="6.28588">
        <ele>446.67</ele>
        <time>2016-10-04T10:46:11Z</time>
      </trkpt>
      <trkpt lat="45.35852" lon="6.28621">
        <ele>447.63</ele>
        <time>2016-10-04T10:46:26Z</time>
      </trkpt>
      <trkpt lat="45.35781" lon="6.28649">
        <ele>447.15</ele>
        <time>2016-10-04T10:46:40Z</time>
      </trkpt>
      <trkpt lat="45.357" lon="6.28657">
        <ele>447.63</ele>
        <time>2016-10-04T10:46:54Z</time>
      </trkpt>
      <trkpt lat="45.35694" lon="6.28658">
        <ele>447.63</ele>
        <time>2016-10-04T10:46:55Z</time>
      </trkpt>
      <trkpt lat="45.35688" lon="6.2866">
        <ele>447.63</ele>
        <time>2016-10-04T10:46:56Z</time>
      </trkpt>
      <trkpt lat="45.35624" lon="6.28705">
        <ele>447.63</ele>
        <time>2016-10-04T10:47:08Z</time>
      </trkpt>
      <trkpt lat="45.35611" lon="6.2872">
        <ele>447.63</ele>
        <time>2016-10-04T10:47:11Z</time>
      </trkpt>
      <trkpt lat="45.35602" lon="6.28725">
        <ele>447.15</ele>
        <time>2016-10-04T10:47:13Z</time>
      </trkpt>
      <trkpt lat="45.35597" lon="6.28724">
        <ele>447.15</ele>
        <time>2016-10-04T10:47:14Z</time>
      </trkpt>
      <trkpt lat="45.35592" lon="6.28722">
        <ele>447.15</ele>
        <time>2016-10-04T10:47:15Z</time>
      </trkpt>
      <trkpt lat="45.35584" lon="6.28718">
        <ele>447.63</ele>
        <time>2016-10-04T10:47:17Z</time>
      </trkpt>
      <trkpt lat="45.3558" lon="6.28716">
        <ele>448.11</ele>
        <time>2016-10-04T10:47:18Z</time>
      </trkpt>
      <trkpt lat="45.35576" lon="6.28716">
        <ele>448.11</ele>
        <time>2016-10-04T10:47:19Z</time>
      </trkpt>
      <trkpt lat="45.35572" lon="6.28717">
        <ele>449.55</ele>
        <time>2016-10-04T10:47:20Z</time>
      </trkpt>
      <trkpt lat="45.35568" lon="6.28719">
        <ele>448.59</ele>
        <time>2016-10-04T10:47:21Z</time>
      </trkpt>
      <trkpt lat="45.35564" lon="6.28722">
        <ele>448.59</ele>
        <time>2016-10-04T10:47:22Z</time>
      </trkpt>
      <trkpt lat="45.35561" lon="6.28725">
        <ele>449.07</ele>
        <time>2016-10-04T10:47:23Z</time>
      </trkpt>
      <trkpt lat="45.35558" lon="6.2873">
        <ele>449.07</ele>
        <time>2016-10-04T10:47:24Z</time>
      </trkpt>
      <trkpt lat="45.35555" lon="6.28735">
        <ele>449.07</ele>
        <time>2016-10-04T10:47:25Z</time>
      </trkpt>
      <trkpt lat="45.35553" lon="6.2874">
        <ele>449.07</ele>
        <time>2016-10-04T10:47:26Z</time>
      </trkpt>
      <trkpt lat="45.35504" lon="6.28808">
        <ele>448.11</ele>
        <time>2016-10-04T10:47:41Z</time>
      </trkpt>
      <trkpt lat="45.35416" lon="6.28892">
        <ele>447.15</ele>
        <time>2016-10-04T10:47:59Z</time>
      </trkpt>
      <trkpt lat="45.35362" lon="6.28941">
        <ele>448.59</ele>
        <time>2016-10-04T10:48:10Z</time>
      </trkpt>
      <trkpt lat="45.35316" lon="6.28983">
        <ele>449.07</ele>
        <time>2016-10-04T10:48:20Z</time>
      </trkpt>
      <trkpt lat="45.35245" lon="6.29046">
        <ele>451</ele>
        <time>2016-10-04T10:48:37Z</time>
      </trkpt>
      <trkpt lat="45.35173" lon="6.29087">
        <ele>451.96</ele>
        <time>2016-10-04T10:48:53Z</time>
      </trkpt>
      <trkpt lat="45.35113" lon="6.29114">
        <ele>452.92</ele>
        <time>2016-10-04T10:49:08Z</time>
      </trkpt>
      <trkpt lat="45.35069" lon="6.29105">
        <ele>456.28</ele>
        <time>2016-10-04T10:49:22Z</time>
      </trkpt>
      <trkpt lat="45.35003" lon="6.29072">
        <ele>458.21</ele>
        <time>2016-10-04T10:49:43Z</time>
      </trkpt>
      <trkpt lat="45.34953" lon="6.29066">
        <ele>460.61</ele>
        <time>2016-10-04T10:49:58Z</time>
      </trkpt>
      <trkpt lat="45.34889" lon="6.29086">
        <ele>463.01</ele>
        <time>2016-10-04T10:50:18Z</time>
      </trkpt>
      <trkpt lat="45.3483" lon="6.29141">
        <ele>465.42</ele>
        <time>2016-10-04T10:50:38Z</time>
      </trkpt>
      <trkpt lat="45.34778" lon="6.29168">
        <ele>467.34</ele>
        <time>2016-10-04T10:50:55Z</time>
      </trkpt>
      <trkpt lat="45.34735" lon="6.29151">
        <ele>469.26</ele>
        <time>2016-10-04T10:51:10Z</time>
      </trkpt>
      <trkpt lat="45.34698" lon="6.2913">
        <ele>470.22</ele>
        <time>2016-10-04T10:51:24Z</time>
      </trkpt>
      <trkpt lat="45.34645" lon="6.29116">
        <ele>472.14</ele>
        <time>2016-10-04T10:51:43Z</time>
      </trkpt>
      <trkpt lat="45.34609" lon="6.2911">
        <ele>473.59</ele>
        <time>2016-10-04T10:51:56Z</time>
      </trkpt>
      <trkpt lat="45.34566" lon="6.29101">
        <ele>475.51</ele>
        <time>2016-10-04T10:52:12Z</time>
      </trkpt>
      <trkpt lat="45.34512" lon="6.29091">
        <ele>477.91</ele>
        <time>2016-10-04T10:52:31Z</time>
      </trkpt>
      <trkpt lat="45.3448" lon="6.2908">
        <ele>479.35</ele>
        <time>2016-10-04T10:52:45Z</time>
      </trkpt>
      <trkpt lat="45.34451" lon="6.29076">
        <ele>480.8</ele>
        <time>2016-10-04T10:52:58Z</time>
      </trkpt>
      <trkpt lat="45.34448" lon="6.29077">
        <ele>480.32</ele>
        <time>2016-10-04T10:52:59Z</time>
      </trkpt>
      <trkpt lat="45.34446" lon="6.29077">
        <ele>480.32</ele>
        <time>2016-10-04T10:53:00Z</time>
      </trkpt>
      <trkpt lat="45.3441" lon="6.29074">
        <ele>482.24</ele>
        <time>2016-10-04T10:53:16Z</time>
      </trkpt>
      <trkpt lat="45.34379" lon="6.29076">
        <ele>483.2</ele>
        <time>2016-10-04T10:53:30Z</time>
      </trkpt>
      <trkpt lat="45.34352" lon="6.29078">
        <ele>484.16</ele>
        <time>2016-10-04T10:53:44Z</time>
      </trkpt>
      <trkpt lat="45.34324" lon="6.29099">
        <ele>484.64</ele>
        <time>2016-10-04T10:53:56Z</time>
      </trkpt>
      <trkpt lat="45.34295" lon="6.29117">
        <ele>486.08</ele>
        <time>2016-10-04T10:54:08Z</time>
      </trkpt>
      <trkpt lat="45.34291" lon="6.29119">
        <ele>486.56</ele>
        <time>2016-10-04T10:54:11Z</time>
      </trkpt>
      <trkpt lat="45.3429" lon="6.29119">
        <ele>486.56</ele>
        <time>2016-10-04T10:54:12Z</time>
      </trkpt>
      <trkpt lat="45.34289" lon="6.2912">
        <ele>487.05</ele>
        <time>2016-10-04T10:54:13Z</time>
      </trkpt>
      <trkpt lat="45.34287" lon="6.2912">
        <ele>487.05</ele>
        <time>2016-10-04T10:54:14Z</time>
      </trkpt>
      <trkpt lat="45.34284" lon="6.29121">
        <ele>487.05</ele>
        <time>2016-10-04T10:54:15Z</time>
      </trkpt>
      <trkpt lat="45.34282" lon="6.29122">
        <ele>488.01</ele>
        <time>2016-10-04T10:54:16Z</time>
      </trkpt>
      <trkpt lat="45.3428" lon="6.29123">
        <ele>488.01</ele>
        <time>2016-10-04T10:54:17Z</time>
      </trkpt>
      <trkpt lat="45.34277" lon="6.29125">
        <ele>488.49</ele>
        <time>2016-10-04T10:54:18Z</time>
      </trkpt>
      <trkpt lat="45.34261" lon="6.29131">
        <ele>488.49</ele>
        <time>2016-10-04T10:54:25Z</time>
      </trkpt>
      <trkpt lat="45.34251" lon="6.29115">
        <ele>488.97</ele>
        <time>2016-10-04T10:54:33Z</time>
      </trkpt>
      <trkpt lat="45.3425" lon="6.29115">
        <ele>488.97</ele>
        <time>2016-10-04T10:54:34Z</time>
      </trkpt>
      <trkpt lat="45.34248" lon="6.29115">
        <ele>488.97</ele>
        <time>2016-10-04T10:54:35Z</time>
      </trkpt>
      <trkpt lat="45.34242" lon="6.29117">
        <ele>489.93</ele>
        <time>2016-10-04T10:54:38Z</time>
      </trkpt>
      <trkpt lat="45.34241" lon="6.2912">
        <ele>489.45</ele>
        <time>2016-10-04T10:54:39Z</time>
      </trkpt>
      <trkpt lat="45.34239" lon="6.29121">
        <ele>489.45</ele>
        <time>2016-10-04T10:54:40Z</time>
      </trkpt>
      <trkpt lat="45.34238" lon="6.29122">
        <ele>489.93</ele>
        <time>2016-10-04T10:54:41Z</time>
      </trkpt>
      <trkpt lat="45.34236" lon="6.29123">
        <ele>489.45</ele>
        <time>2016-10-04T10:54:42Z</time>
      </trkpt>
      <trkpt lat="45.34219" lon="6.29147">
        <ele>490.41</ele>
        <time>2016-10-04T10:54:55Z</time>
      </trkpt>
      <trkpt lat="45.34204" lon="6.29186">
        <ele>490.41</ele>
        <time>2016-10-04T10:55:06Z</time>
      </trkpt>
      <trkpt lat="45.34187" lon="6.29238">
        <ele>490.89</ele>
        <time>2016-10-04T10:55:17Z</time>
      </trkpt>
      <trkpt lat="45.34187" lon="6.29243">
        <ele>491.37</ele>
        <time>2016-10-04T10:55:18Z</time>
      </trkpt>
      <trkpt lat="45.34178" lon="6.29286">
        <ele>490.41</ele>
        <time>2016-10-04T10:55:28Z</time>
      </trkpt>
      <trkpt lat="45.34165" lon="6.29348">
        <ele>490.41</ele>
        <time>2016-10-04T10:55:40Z</time>
      </trkpt>
      <trkpt lat="45.34138" lon="6.29457">
        <ele>490.41</ele>
        <time>2016-10-04T10:55:58Z</time>
      </trkpt>
      <trkpt lat="45.34118" lon="6.29542">
        <ele>491.85</ele>
        <time>2016-10-04T10:56:14Z</time>
      </trkpt>
      <trkpt lat="45.34116" lon="6.29548">
        <ele>491.85</ele>
        <time>2016-10-04T10:56:15Z</time>
      </trkpt>
      <trkpt lat="45.34097" lon="6.29645">
        <ele>489.45</ele>
        <time>2016-10-04T10:56:30Z</time>
      </trkpt>
      <trkpt lat="45.34085" lon="6.29751">
        <ele>488.01</ele>
        <time>2016-10-04T10:56:45Z</time>
      </trkpt>
      <trkpt lat="45.34057" lon="6.29839">
        <ele>486.56</ele>
        <time>2016-10-04T10:56:58Z</time>
      </trkpt>
      <trkpt lat="45.3404" lon="6.29876">
        <ele>485.6</ele>
        <time>2016-10-04T10:57:03Z</time>
      </trkpt>
      <trkpt lat="45.34029" lon="6.29903">
        <ele>485.6</ele>
        <time>2016-10-04T10:57:07Z</time>
      </trkpt>
      <trkpt lat="45.34001" lon="6.30001">
        <ele>486.56</ele>
        <time>2016-10-04T10:57:20Z</time>
      </trkpt>
      <trkpt lat="45.33997" lon="6.30007">
        <ele>486.08</ele>
        <time>2016-10-04T10:57:21Z</time>
      </trkpt>
      <trkpt lat="45.3399" lon="6.30018">
        <ele>486.56</ele>
        <time>2016-10-04T10:57:23Z</time>
      </trkpt>
      <trkpt lat="45.33986" lon="6.30022">
        <ele>485.12</ele>
        <time>2016-10-04T10:57:24Z</time>
      </trkpt>
      <trkpt lat="45.33905" lon="6.30092">
        <ele>484.16</ele>
        <time>2016-10-04T10:57:39Z</time>
      </trkpt>
      <trkpt lat="45.339" lon="6.30099">
        <ele>483.68</ele>
        <time>2016-10-04T10:57:40Z</time>
      </trkpt>
      <trkpt lat="45.33894" lon="6.30106">
        <ele>483.2</ele>
        <time>2016-10-04T10:57:41Z</time>
      </trkpt>
      <trkpt lat="45.3389" lon="6.30114">
        <ele>482.72</ele>
        <time>2016-10-04T10:57:42Z</time>
      </trkpt>
      <trkpt lat="45.33886" lon="6.30123">
        <ele>482.72</ele>
        <time>2016-10-04T10:57:43Z</time>
      </trkpt>
      <trkpt lat="45.33882" lon="6.30132">
        <ele>482.24</ele>
        <time>2016-10-04T10:57:44Z</time>
      </trkpt>
      <trkpt lat="45.33877" lon="6.30141">
        <ele>482.24</ele>
        <time>2016-10-04T10:57:45Z</time>
      </trkpt>
      <trkpt lat="45.33863" lon="6.30165">
        <ele>481.28</ele>
        <time>2016-10-04T10:57:48Z</time>
      </trkpt>
      <trkpt lat="45.33845" lon="6.30186">
        <ele>480.32</ele>
        <time>2016-10-04T10:57:51Z</time>
      </trkpt>
      <trkpt lat="45.33808" lon="6.30223">
        <ele>476.47</ele>
        <time>2016-10-04T10:57:56Z</time>
      </trkpt>
      <trkpt lat="45.338" lon="6.30232">
        <ele>476.47</ele>
        <time>2016-10-04T10:57:57Z</time>
      </trkpt>
      <trkpt lat="45.33748" lon="6.3028">
        <ele>473.11</ele>
        <time>2016-10-04T10:58:03Z</time>
      </trkpt>
      <trkpt lat="45.3372" lon="6.30301">
        <ele>471.66</ele>
        <time>2016-10-04T10:58:06Z</time>
      </trkpt>
      <trkpt lat="45.33676" lon="6.30335">
        <ele>469.74</ele>
        <time>2016-10-04T10:58:11Z</time>
      </trkpt>
      <trkpt lat="45.3366" lon="6.30351">
        <ele>467.82</ele>
        <time>2016-10-04T10:58:13Z</time>
      </trkpt>
      <trkpt lat="45.33578" lon="6.30431">
        <ele>467.82</ele>
        <time>2016-10-04T10:58:24Z</time>
      </trkpt>
      <trkpt lat="45.33571" lon="6.30439">
        <ele>468.3</ele>
        <time>2016-10-04T10:58:25Z</time>
      </trkpt>
      <trkpt lat="45.335" lon="6.30527">
        <ele>468.3</ele>
        <time>2016-10-04T10:58:38Z</time>
      </trkpt>
      <trkpt lat="45.33454" lon="6.30578">
        <ele>468.3</ele>
        <time>2016-10-04T10:58:47Z</time>
      </trkpt>
      <trkpt lat="45.33451" lon="6.30586">
        <ele>468.3</ele>
        <time>2016-10-04T10:58:48Z</time>
      </trkpt>
      <trkpt lat="45.33441" lon="6.30611">
        <ele>468.3</ele>
        <time>2016-10-04T10:58:51Z</time>
      </trkpt>
      <trkpt lat="45.33439" lon="6.30619">
        <ele>468.3</ele>
        <time>2016-10-04T10:58:52Z</time>
      </trkpt>
      <trkpt lat="45.3339" lon="6.30757">
        <ele>469.26</ele>
        <time>2016-10-04T10:59:10Z</time>
      </trkpt>
      <trkpt lat="45.33354" lon="6.30821">
        <ele>468.78</ele>
        <time>2016-10-04T10:59:20Z</time>
      </trkpt>
      <trkpt lat="45.33279" lon="6.30904">
        <ele>469.26</ele>
        <time>2016-10-04T10:59:35Z</time>
      </trkpt>
      <trkpt lat="45.33223" lon="6.30995">
        <ele>469.74</ele>
        <time>2016-10-04T10:59:49Z</time>
      </trkpt>
      <trkpt lat="45.33213" lon="6.31029">
        <ele>469.74</ele>
        <time>2016-10-04T10:59:54Z</time>
      </trkpt>
      <trkpt lat="45.33199" lon="6.31065">
        <ele>470.7</ele>
        <time>2016-10-04T11:00:00Z</time>
      </trkpt>
      <trkpt lat="45.33197" lon="6.31071">
        <ele>470.22</ele>
        <time>2016-10-04T11:00:01Z</time>
      </trkpt>
      <trkpt lat="45.33186" lon="6.31093">
        <ele>470.7</ele>
        <time>2016-10-04T11:00:05Z</time>
      </trkpt>
      <trkpt lat="45.33167" lon="6.31117">
        <ele>471.18</ele>
        <time>2016-10-04T11:00:11Z</time>
      </trkpt>
      <trkpt lat="45.33161" lon="6.31125">
        <ele>472.14</ele>
        <time>2016-10-04T11:00:13Z</time>
      </trkpt>
      <trkpt lat="45.33157" lon="6.31129">
        <ele>472.14</ele>
        <time>2016-10-04T11:00:14Z</time>
      </trkpt>
      <trkpt lat="45.3311" lon="6.31182">
        <ele>472.63</ele>
        <time>2016-10-04T11:00:29Z</time>
      </trkpt>
      <trkpt lat="45.33077" lon="6.31224">
        <ele>473.11</ele>
        <time>2016-10-04T11:00:39Z</time>
      </trkpt>
      <trkpt lat="45.33024" lon="6.31292">
        <ele>473.59</ele>
        <time>2016-10-04T11:00:55Z</time>
      </trkpt>
      <trkpt lat="45.32973" lon="6.31349">
        <ele>474.55</ele>
        <time>2016-10-04T11:01:09Z</time>
      </trkpt>
      <trkpt lat="45.32923" lon="6.31403">
        <ele>474.55</ele>
        <time>2016-10-04T11:01:23Z</time>
      </trkpt>
      <trkpt lat="45.32909" lon="6.31417">
        <ele>474.55</ele>
        <time>2016-10-04T11:01:27Z</time>
      </trkpt>
      <trkpt lat="45.32906" lon="6.3142">
        <ele>474.07</ele>
        <time>2016-10-04T11:01:28Z</time>
      </trkpt>
      <trkpt lat="45.32877" lon="6.31447">
        <ele>475.03</ele>
        <time>2016-10-04T11:01:36Z</time>
      </trkpt>
      <trkpt lat="45.32812" lon="6.31498">
        <ele>475.03</ele>
        <time>2016-10-04T11:01:52Z</time>
      </trkpt>
      <trkpt lat="45.32809" lon="6.31502">
        <ele>475.51</ele>
        <time>2016-10-04T11:01:53Z</time>
      </trkpt>
      <trkpt lat="45.32755" lon="6.31568">
        <ele>476.47</ele>
        <time>2016-10-04T11:02:09Z</time>
      </trkpt>
      <trkpt lat="45.3275" lon="6.31571">
        <ele>476.95</ele>
        <time>2016-10-04T11:02:10Z</time>
      </trkpt>
      <trkpt lat="45.32737" lon="6.31577">
        <ele>475.99</ele>
        <time>2016-10-04T11:02:13Z</time>
      </trkpt>
      <trkpt lat="45.32703" lon="6.31591">
        <ele>475.51</ele>
        <time>2016-10-04T11:02:19Z</time>
      </trkpt>
      <trkpt lat="45.32697" lon="6.31596">
        <ele>475.51</ele>
        <time>2016-10-04T11:02:20Z</time>
      </trkpt>
      <trkpt lat="45.32691" lon="6.31601">
        <ele>474.07</ele>
        <time>2016-10-04T11:02:21Z</time>
      </trkpt>
      <trkpt lat="45.32686" lon="6.31607">
        <ele>475.03</ele>
        <time>2016-10-04T11:02:22Z</time>
      </trkpt>
      <trkpt lat="45.3268" lon="6.31613">
        <ele>474.55</ele>
        <time>2016-10-04T11:02:23Z</time>
      </trkpt>
      <trkpt lat="45.32619" lon="6.31698">
        <ele>474.55</ele>
        <time>2016-10-04T11:02:36Z</time>
      </trkpt>
      <trkpt lat="45.32573" lon="6.3174">
        <ele>475.03</ele>
        <time>2016-10-04T11:02:46Z</time>
      </trkpt>
      <trkpt lat="45.32507" lon="6.31767">
        <ele>476.47</ele>
        <time>2016-10-04T11:03:00Z</time>
      </trkpt>
      <trkpt lat="45.32477" lon="6.31778">
        <ele>477.91</ele>
        <time>2016-10-04T11:03:07Z</time>
      </trkpt>
      <trkpt lat="45.32449" lon="6.31784">
        <ele>478.87</ele>
        <time>2016-10-04T11:03:15Z</time>
      </trkpt>
      <trkpt lat="45.32447" lon="6.31785">
        <ele>478.39</ele>
        <time>2016-10-04T11:03:16Z</time>
      </trkpt>
      <trkpt lat="45.32444" lon="6.31785">
        <ele>478.87</ele>
        <time>2016-10-04T11:03:17Z</time>
      </trkpt>
      <trkpt lat="45.32415" lon="6.31788">
        <ele>480.8</ele>
        <time>2016-10-04T11:03:31Z</time>
      </trkpt>
      <trkpt lat="45.32387" lon="6.31791">
        <ele>483.2</ele>
        <time>2016-10-04T11:03:46Z</time>
      </trkpt>
      <trkpt lat="45.32352" lon="6.31793">
        <ele>486.08</ele>
        <time>2016-10-04T11:04:03Z</time>
      </trkpt>
      <trkpt lat="45.32332" lon="6.31796">
        <ele>488.01</ele>
        <time>2016-10-04T11:04:14Z</time>
      </trkpt>
      <trkpt lat="45.32314" lon="6.318">
        <ele>489.93</ele>
        <time>2016-10-04T11:04:29Z</time>
      </trkpt>
      <trkpt lat="45.32292" lon="6.31803">
        <ele>491.85</ele>
        <time>2016-10-04T11:04:45Z</time>
      </trkpt>
      <trkpt lat="45.3227" lon="6.31805">
        <ele>493.77</ele>
        <time>2016-10-04T11:04:58Z</time>
      </trkpt>
      <trkpt lat="45.32248" lon="6.31808">
        <ele>496.18</ele>
        <time>2016-10-04T11:05:13Z</time>
      </trkpt>
      <trkpt lat="45.3223" lon="6.3181">
        <ele>497.62</ele>
        <time>2016-10-04T11:05:27Z</time>
      </trkpt>
      <trkpt lat="45.32204" lon="6.31808">
        <ele>500.02</ele>
        <time>2016-10-04T11:05:42Z</time>
      </trkpt>
      <trkpt lat="45.32182" lon="6.31812">
        <ele>501.95</ele>
        <time>2016-10-04T11:05:56Z</time>
      </trkpt>
      <trkpt lat="45.32159" lon="6.3182">
        <ele>503.87</ele>
        <time>2016-10-04T11:06:11Z</time>
      </trkpt>
      <trkpt lat="45.32139" lon="6.31826">
        <ele>505.79</ele>
        <time>2016-10-04T11:06:24Z</time>
      </trkpt>
      <trkpt lat="45.32122" lon="6.31834">
        <ele>507.71</ele>
        <time>2016-10-04T11:06:36Z</time>
      </trkpt>
      <trkpt lat="45.3212" lon="6.31834">
        <ele>508.19</ele>
        <time>2016-10-04T11:06:37Z</time>
      </trkpt>
      <trkpt lat="45.32118" lon="6.31834">
        <ele>508.19</ele>
        <time>2016-10-04T11:06:38Z</time>
      </trkpt>
      <trkpt lat="45.32117" lon="6.31835">
        <ele>507.71</ele>
        <time>2016-10-04T11:06:39Z</time>
      </trkpt>
      <trkpt lat="45.32116" lon="6.31836">
        <ele>508.67</ele>
        <time>2016-10-04T11:06:40Z</time>
      </trkpt>
      <trkpt lat="45.32102" lon="6.31847">
        <ele>509.64</ele>
        <time>2016-10-04T11:06:51Z</time>
      </trkpt>
      <trkpt lat="45.32095" lon="6.31855">
        <ele>510.6</ele>
        <time>2016-10-04T11:06:58Z</time>
      </trkpt>
      <trkpt lat="45.32094" lon="6.31857">
        <ele>511.08</ele>
        <time>2016-10-04T11:06:59Z</time>
      </trkpt>
      <trkpt lat="45.32092" lon="6.31858">
        <ele>510.6</ele>
        <time>2016-10-04T11:07:00Z</time>
      </trkpt>
      <trkpt lat="45.32091" lon="6.31859">
        <ele>511.56</ele>
        <time>2016-10-04T11:07:01Z</time>
      </trkpt>
      <trkpt lat="45.3209" lon="6.3186">
        <ele>511.56</ele>
        <time>2016-10-04T11:07:02Z</time>
      </trkpt>
      <trkpt lat="45.32089" lon="6.31861">
        <ele>511.08</ele>
        <time>2016-10-04T11:07:03Z</time>
      </trkpt>
      <trkpt lat="45.32075" lon="6.31876">
        <ele>512.52</ele>
        <time>2016-10-04T11:07:16Z</time>
      </trkpt>
      <trkpt lat="45.32062" lon="6.31891">
        <ele>513.96</ele>
        <time>2016-10-04T11:07:26Z</time>
      </trkpt>
      <trkpt lat="45.32061" lon="6.31893">
        <ele>514.44</ele>
        <time>2016-10-04T11:07:27Z</time>
      </trkpt>
      <trkpt lat="45.32059" lon="6.31895">
        <ele>513.96</ele>
        <time>2016-10-04T11:07:28Z</time>
      </trkpt>
      <trkpt lat="45.32036" lon="6.31919">
        <ele>515.4</ele>
        <time>2016-10-04T11:07:41Z</time>
      </trkpt>
      <trkpt lat="45.32005" lon="6.3195">
        <ele>515.4</ele>
        <time>2016-10-04T11:07:54Z</time>
      </trkpt>
      <trkpt lat="45.31961" lon="6.32018">
        <ele>513.48</ele>
        <time>2016-10-04T11:08:10Z</time>
      </trkpt>
      <trkpt lat="45.31956" lon="6.32027">
        <ele>513.96</ele>
        <time>2016-10-04T11:08:12Z</time>
      </trkpt>
      <trkpt lat="45.31953" lon="6.32032">
        <ele>514.44</ele>
        <time>2016-10-04T11:08:13Z</time>
      </trkpt>
      <trkpt lat="45.31951" lon="6.32036">
        <ele>514.44</ele>
        <time>2016-10-04T11:08:14Z</time>
      </trkpt>
      <trkpt lat="45.31949" lon="6.32041">
        <ele>513.96</ele>
        <time>2016-10-04T11:08:15Z</time>
      </trkpt>
      <trkpt lat="45.31946" lon="6.32046">
        <ele>514.44</ele>
        <time>2016-10-04T11:08:16Z</time>
      </trkpt>
      <trkpt lat="45.31933" lon="6.32071">
        <ele>513.96</ele>
        <time>2016-10-04T11:08:21Z</time>
      </trkpt>
      <trkpt lat="45.31929" lon="6.32075">
        <ele>513.96</ele>
        <time>2016-10-04T11:08:22Z</time>
      </trkpt>
      <trkpt lat="45.3188" lon="6.32177">
        <ele>512.04</ele>
        <time>2016-10-04T11:08:38Z</time>
      </trkpt>
      <trkpt lat="45.31846" lon="6.32238">
        <ele>508.67</ele>
        <time>2016-10-04T11:08:45Z</time>
      </trkpt>
      <trkpt lat="45.31817" lon="6.3228">
        <ele>505.31</ele>
        <time>2016-10-04T11:08:49Z</time>
      </trkpt>
      <trkpt lat="45.3179" lon="6.32312">
        <ele>502.43</ele>
        <time>2016-10-04T11:08:52Z</time>
      </trkpt>
      <trkpt lat="45.3177" lon="6.32332">
        <ele>499.54</ele>
        <time>2016-10-04T11:08:54Z</time>
      </trkpt>
      <trkpt lat="45.31737" lon="6.32361">
        <ele>495.7</ele>
        <time>2016-10-04T11:08:57Z</time>
      </trkpt>
      <trkpt lat="45.31713" lon="6.32377">
        <ele>494.74</ele>
        <time>2016-10-04T11:08:59Z</time>
      </trkpt>
      <trkpt lat="45.3165" lon="6.32414">
        <ele>492.81</ele>
        <time>2016-10-04T11:09:05Z</time>
      </trkpt>
      <trkpt lat="45.3161" lon="6.32428">
        <ele>492.81</ele>
        <time>2016-10-04T11:09:09Z</time>
      </trkpt>
      <trkpt lat="45.31582" lon="6.32444">
        <ele>491.37</ele>
        <time>2016-10-04T11:09:12Z</time>
      </trkpt>
      <trkpt lat="45.31525" lon="6.32502">
        <ele>489.45</ele>
        <time>2016-10-04T11:09:19Z</time>
      </trkpt>
      <trkpt lat="45.31519" lon="6.32513">
        <ele>488.49</ele>
        <time>2016-10-04T11:09:20Z</time>
      </trkpt>
      <trkpt lat="45.31513" lon="6.32525">
        <ele>489.45</ele>
        <time>2016-10-04T11:09:21Z</time>
      </trkpt>
      <trkpt lat="45.31509" lon="6.32536">
        <ele>488.49</ele>
        <time>2016-10-04T11:09:22Z</time>
      </trkpt>
      <trkpt lat="45.31505" lon="6.32548">
        <ele>489.93</ele>
        <time>2016-10-04T11:09:23Z</time>
      </trkpt>
      <trkpt lat="45.31501" lon="6.32559">
        <ele>489.45</ele>
        <time>2016-10-04T11:09:24Z</time>
      </trkpt>
      <trkpt lat="45.31498" lon="6.3257">
        <ele>489.45</ele>
        <time>2016-10-04T11:09:25Z</time>
      </trkpt>
      <trkpt lat="45.31495" lon="6.32582">
        <ele>490.41</ele>
        <time>2016-10-04T11:09:26Z</time>
      </trkpt>
      <trkpt lat="45.31493" lon="6.32593">
        <ele>490.89</ele>
        <time>2016-10-04T11:09:27Z</time>
      </trkpt>
      <trkpt lat="45.31492" lon="6.32605">
        <ele>491.37</ele>
        <time>2016-10-04T11:09:28Z</time>
      </trkpt>
      <trkpt lat="45.31491" lon="6.32616">
        <ele>490.41</ele>
        <time>2016-10-04T11:09:29Z</time>
      </trkpt>
      <trkpt lat="45.31491" lon="6.32626">
        <ele>491.37</ele>
        <time>2016-10-04T11:09:30Z</time>
      </trkpt>
      <trkpt lat="45.31497" lon="6.32677">
        <ele>490.89</ele>
        <time>2016-10-04T11:09:35Z</time>
      </trkpt>
      <trkpt lat="45.31499" lon="6.32686">
        <ele>490.41</ele>
        <time>2016-10-04T11:09:36Z</time>
      </trkpt>
      <trkpt lat="45.31531" lon="6.32767">
        <ele>490.89</ele>
        <time>2016-10-04T11:09:45Z</time>
      </trkpt>
      <trkpt lat="45.31533" lon="6.32777">
        <ele>490.89</ele>
        <time>2016-10-04T11:09:46Z</time>
      </trkpt>
      <trkpt lat="45.31537" lon="6.32797">
        <ele>490.89</ele>
        <time>2016-10-04T11:09:48Z</time>
      </trkpt>
      <trkpt lat="45.31539" lon="6.32816">
        <ele>491.37</ele>
        <time>2016-10-04T11:09:50Z</time>
      </trkpt>
      <trkpt lat="45.31538" lon="6.32847">
        <ele>490.89</ele>
        <time>2016-10-04T11:09:53Z</time>
      </trkpt>
      <trkpt lat="45.31535" lon="6.32856">
        <ele>490.41</ele>
        <time>2016-10-04T11:09:54Z</time>
      </trkpt>
      <trkpt lat="45.31481" lon="6.32944">
        <ele>489.93</ele>
        <time>2016-10-04T11:10:05Z</time>
      </trkpt>
      <trkpt lat="45.31419" lon="6.33077">
        <ele>489.45</ele>
        <time>2016-10-04T11:10:21Z</time>
      </trkpt>
      <trkpt lat="45.31391" lon="6.33165">
        <ele>490.89</ele>
        <time>2016-10-04T11:10:32Z</time>
      </trkpt>
      <trkpt lat="45.31343" lon="6.33275">
        <ele>491.37</ele>
        <time>2016-10-04T11:10:50Z</time>
      </trkpt>
      <trkpt lat="45.3133" lon="6.33295">
        <ele>492.33</ele>
        <time>2016-10-04T11:10:54Z</time>
      </trkpt>
      <trkpt lat="45.31326" lon="6.333">
        <ele>492.33</ele>
        <time>2016-10-04T11:10:55Z</time>
      </trkpt>
      <trkpt lat="45.31266" lon="6.33386">
        <ele>493.29</ele>
        <time>2016-10-04T11:11:13Z</time>
      </trkpt>
      <trkpt lat="45.31262" lon="6.33397">
        <ele>493.77</ele>
        <time>2016-10-04T11:11:15Z</time>
      </trkpt>
      <trkpt lat="45.31261" lon="6.33402">
        <ele>493.77</ele>
        <time>2016-10-04T11:11:16Z</time>
      </trkpt>
      <trkpt lat="45.3126" lon="6.33409">
        <ele>494.26</ele>
        <time>2016-10-04T11:11:17Z</time>
      </trkpt>
      <trkpt lat="45.31259" lon="6.33421">
        <ele>494.26</ele>
        <time>2016-10-04T11:11:19Z</time>
      </trkpt>
      <trkpt lat="45.31259" lon="6.33427">
        <ele>494.74</ele>
        <time>2016-10-04T11:11:20Z</time>
      </trkpt>
      <trkpt lat="45.31259" lon="6.33433">
        <ele>494.26</ele>
        <time>2016-10-04T11:11:21Z</time>
      </trkpt>
      <trkpt lat="45.3126" lon="6.33439">
        <ele>493.77</ele>
        <time>2016-10-04T11:11:22Z</time>
      </trkpt>
      <trkpt lat="45.31262" lon="6.33445">
        <ele>494.74</ele>
        <time>2016-10-04T11:11:23Z</time>
      </trkpt>
      <trkpt lat="45.31265" lon="6.33451">
        <ele>494.74</ele>
        <time>2016-10-04T11:11:24Z</time>
      </trkpt>
      <trkpt lat="45.31268" lon="6.33456">
        <ele>494.74</ele>
        <time>2016-10-04T11:11:25Z</time>
      </trkpt>
      <trkpt lat="45.31272" lon="6.33461">
        <ele>494.74</ele>
        <time>2016-10-04T11:11:26Z</time>
      </trkpt>
      <trkpt lat="45.31282" lon="6.33475">
        <ele>495.22</ele>
        <time>2016-10-04T11:11:29Z</time>
      </trkpt>
      <trkpt lat="45.31286" lon="6.33479">
        <ele>495.22</ele>
        <time>2016-10-04T11:11:30Z</time>
      </trkpt>
      <trkpt lat="45.3129" lon="6.33482">
        <ele>495.7</ele>
        <time>2016-10-04T11:11:31Z</time>
      </trkpt>
      <trkpt lat="45.3131" lon="6.33501">
        <ele>496.18</ele>
        <time>2016-10-04T11:11:36Z</time>
      </trkpt>
      <trkpt lat="45.3131" lon="6.33503">
        <ele>496.18</ele>
        <time>2016-10-04T11:11:37Z</time>
      </trkpt>
      <trkpt lat="45.31313" lon="6.33504">
        <ele>496.18</ele>
        <time>2016-10-04T11:11:38Z</time>
      </trkpt>
      <trkpt lat="45.31341" lon="6.33528">
        <ele>499.54</ele>
        <time>2016-10-04T11:11:55Z</time>
      </trkpt>
      <trkpt lat="45.31371" lon="6.33553">
        <ele>500.5</ele>
        <time>2016-10-04T11:12:11Z</time>
      </trkpt>
      <trkpt lat="45.31379" lon="6.33561">
        <ele>500.02</ele>
        <time>2016-10-04T11:12:24Z</time>
      </trkpt>
      <trkpt lat="45.31379" lon="6.33563">
        <ele>500.5</ele>
        <time>2016-10-04T11:12:56Z</time>
      </trkpt>
      <trkpt lat="45.31385" lon="6.33565">
        <ele>500.02</ele>
        <time>2016-10-04T11:13:23Z</time>
      </trkpt>
      <trkpt lat="45.31407" lon="6.33603">
        <ele>500.5</ele>
        <time>2016-10-04T11:13:37Z</time>
      </trkpt>
      <trkpt lat="45.31405" lon="6.33608">
        <ele>500.5</ele>
        <time>2016-10-04T11:13:38Z</time>
      </trkpt>
      <trkpt lat="45.31403" lon="6.33612">
        <ele>500.5</ele>
        <time>2016-10-04T11:13:39Z</time>
      </trkpt>
      <trkpt lat="45.314" lon="6.33615">
        <ele>500.02</ele>
        <time>2016-10-04T11:13:40Z</time>
      </trkpt>
      <trkpt lat="45.31396" lon="6.33617">
        <ele>500.02</ele>
        <time>2016-10-04T11:13:41Z</time>
      </trkpt>
      <trkpt lat="45.31392" lon="6.3362">
        <ele>500.5</ele>
        <time>2016-10-04T11:13:42Z</time>
      </trkpt>
      <trkpt lat="45.31382" lon="6.33629">
        <ele>499.54</ele>
        <time>2016-10-04T11:13:45Z</time>
      </trkpt>
      <trkpt lat="45.31378" lon="6.33633">
        <ele>500.02</ele>
        <time>2016-10-04T11:13:46Z</time>
      </trkpt>
      <trkpt lat="45.31365" lon="6.33659">
        <ele>499.54</ele>
        <time>2016-10-04T11:13:51Z</time>
      </trkpt>
      <trkpt lat="45.31357" lon="6.3369">
        <ele>499.54</ele>
        <time>2016-10-04T11:13:56Z</time>
      </trkpt>
      <trkpt lat="45.31356" lon="6.33696">
        <ele>500.02</ele>
        <time>2016-10-04T11:13:57Z</time>
      </trkpt>
      <trkpt lat="45.31339" lon="6.33763">
        <ele>499.06</ele>
        <time>2016-10-04T11:14:08Z</time>
      </trkpt>
      <trkpt lat="45.31287" lon="6.33851">
        <ele>499.06</ele>
        <time>2016-10-04T11:14:23Z</time>
      </trkpt>
      <trkpt lat="45.31284" lon="6.33858">
        <ele>499.06</ele>
        <time>2016-10-04T11:14:24Z</time>
      </trkpt>
      <trkpt lat="45.31282" lon="6.33864">
        <ele>498.1</ele>
        <time>2016-10-04T11:14:25Z</time>
      </trkpt>
      <trkpt lat="45.3128" lon="6.33871">
        <ele>498.58</ele>
        <time>2016-10-04T11:14:26Z</time>
      </trkpt>
      <trkpt lat="45.3128" lon="6.33879">
        <ele>498.58</ele>
        <time>2016-10-04T11:14:27Z</time>
      </trkpt>
      <trkpt lat="45.31282" lon="6.33885">
        <ele>498.58</ele>
        <time>2016-10-04T11:14:28Z</time>
      </trkpt>
      <trkpt lat="45.31286" lon="6.3389">
        <ele>498.1</ele>
        <time>2016-10-04T11:14:29Z</time>
      </trkpt>
      <trkpt lat="45.31289" lon="6.33894">
        <ele>498.58</ele>
        <time>2016-10-04T11:14:30Z</time>
      </trkpt>
      <trkpt lat="45.31305" lon="6.33913">
        <ele>498.58</ele>
        <time>2016-10-04T11:14:34Z</time>
      </trkpt>
      <trkpt lat="45.31309" lon="6.33919">
        <ele>499.54</ele>
        <time>2016-10-04T11:14:35Z</time>
      </trkpt>
      <trkpt lat="45.31324" lon="6.33953">
        <ele>501.46</ele>
        <time>2016-10-04T11:14:45Z</time>
      </trkpt>
      <trkpt lat="45.31324" lon="6.33955">
        <ele>501.46</ele>
        <time>2016-10-04T11:14:46Z</time>
      </trkpt>
      <trkpt lat="45.31319" lon="6.33985">
        <ele>503.87</ele>
        <time>2016-10-04T11:14:59Z</time>
      </trkpt>
      <trkpt lat="45.31307" lon="6.34006">
        <ele>506.27</ele>
        <time>2016-10-04T11:15:13Z</time>
      </trkpt>
      <trkpt lat="45.31289" lon="6.34026">
        <ele>507.23</ele>
        <time>2016-10-04T11:15:27Z</time>
      </trkpt>
      <trkpt lat="45.31259" lon="6.34047">
        <ele>507.71</ele>
        <time>2016-10-04T11:15:42Z</time>
      </trkpt>
      <trkpt lat="45.31223" lon="6.34067">
        <ele>509.16</ele>
        <time>2016-10-04T11:15:57Z</time>
      </trkpt>
      <trkpt lat="45.31188" lon="6.34092">
        <ele>510.6</ele>
        <time>2016-10-04T11:16:11Z</time>
      </trkpt>
      <trkpt lat="45.31167" lon="6.34125">
        <ele>510.6</ele>
        <time>2016-10-04T11:16:24Z</time>
      </trkpt>
      <trkpt lat="45.31162" lon="6.34133">
        <ele>510.12</ele>
        <time>2016-10-04T11:16:26Z</time>
      </trkpt>
      <trkpt lat="45.31157" lon="6.34143">
        <ele>510.12</ele>
        <time>2016-10-04T11:16:28Z</time>
      </trkpt>
      <trkpt lat="45.31154" lon="6.34148">
        <ele>510.12</ele>
        <time>2016-10-04T11:16:29Z</time>
      </trkpt>
      <trkpt lat="45.31151" lon="6.34152">
        <ele>510.12</ele>
        <time>2016-10-04T11:16:30Z</time>
      </trkpt>
      <trkpt lat="45.31147" lon="6.34156">
        <ele>511.08</ele>
        <time>2016-10-04T11:16:31Z</time>
      </trkpt>
      <trkpt lat="45.31145" lon="6.34161">
        <ele>510.6</ele>
        <time>2016-10-04T11:16:32Z</time>
      </trkpt>
      <trkpt lat="45.31121" lon="6.34207">
        <ele>512.04</ele>
        <time>2016-10-04T11:16:44Z</time>
      </trkpt>
      <trkpt lat="45.31091" lon="6.3425">
        <ele>513.48</ele>
        <time>2016-10-04T11:16:58Z</time>
      </trkpt>
      <trkpt lat="45.31052" lon="6.34301">
        <ele>514.44</ele>
        <time>2016-10-04T11:17:14Z</time>
      </trkpt>
      <trkpt lat="45.3102" lon="6.34361">
        <ele>514.44</ele>
        <time>2016-10-04T11:17:29Z</time>
      </trkpt>
      <trkpt lat="45.31009" lon="6.34386">
        <ele>513.48</ele>
        <time>2016-10-04T11:17:34Z</time>
      </trkpt>
      <trkpt lat="45.30966" lon="6.3447">
        <ele>510.12</ele>
        <time>2016-10-04T11:17:46Z</time>
      </trkpt>
      <trkpt lat="45.30963" lon="6.34479">
        <ele>509.64</ele>
        <time>2016-10-04T11:17:47Z</time>
      </trkpt>
      <trkpt lat="45.30953" lon="6.34507">
        <ele>508.19</ele>
        <time>2016-10-04T11:17:50Z</time>
      </trkpt>
      <trkpt lat="45.30944" lon="6.34525">
        <ele>507.23</ele>
        <time>2016-10-04T11:17:52Z</time>
      </trkpt>
      <trkpt lat="45.30894" lon="6.34635">
        <ele>510.12</ele>
        <time>2016-10-04T11:18:07Z</time>
      </trkpt>
      <trkpt lat="45.30846" lon="6.34712">
        <ele>511.56</ele>
        <time>2016-10-04T11:18:24Z</time>
      </trkpt>
      <trkpt lat="45.30803" lon="6.34755">
        <ele>513</ele>
        <time>2016-10-04T11:18:38Z</time>
      </trkpt>
      <trkpt lat="45.30774" lon="6.34794">
        <ele>510.12</ele>
        <time>2016-10-04T11:18:47Z</time>
      </trkpt>
      <trkpt lat="45.30751" lon="6.34823">
        <ele>510.6</ele>
        <time>2016-10-04T11:18:52Z</time>
      </trkpt>
      <trkpt lat="45.30741" lon="6.34837">
        <ele>508.67</ele>
        <time>2016-10-04T11:18:54Z</time>
      </trkpt>
      <trkpt lat="45.30635" lon="6.34961">
        <ele>508.19</ele>
        <time>2016-10-04T11:19:13Z</time>
      </trkpt>
      <trkpt lat="45.30525" lon="6.35076">
        <ele>508.67</ele>
        <time>2016-10-04T11:19:32Z</time>
      </trkpt>
      <trkpt lat="45.30515" lon="6.35089">
        <ele>509.64</ele>
        <time>2016-10-04T11:19:34Z</time>
      </trkpt>
      <trkpt lat="45.30437" lon="6.35168">
        <ele>509.64</ele>
        <time>2016-10-04T11:19:50Z</time>
      </trkpt>
      <trkpt lat="45.30358" lon="6.35231">
        <ele>511.08</ele>
        <time>2016-10-04T11:20:06Z</time>
      </trkpt>
      <trkpt lat="45.30271" lon="6.35267">
        <ele>512.04</ele>
        <time>2016-10-04T11:20:22Z</time>
      </trkpt>
      <trkpt lat="45.30223" lon="6.35311">
        <ele>513.96</ele>
        <time>2016-10-04T11:20:34Z</time>
      </trkpt>
      <trkpt lat="45.3022" lon="6.35315">
        <ele>513.48</ele>
        <time>2016-10-04T11:20:35Z</time>
      </trkpt>
      <trkpt lat="45.30194" lon="6.35365">
        <ele>514.92</ele>
        <time>2016-10-04T11:20:45Z</time>
      </trkpt>
      <trkpt lat="45.30139" lon="6.3546">
        <ele>515.4</ele>
        <time>2016-10-04T11:21:06Z</time>
      </trkpt>
      <trkpt lat="45.30108" lon="6.35503">
        <ele>518.29</ele>
        <time>2016-10-04T11:21:21Z</time>
      </trkpt>
      <trkpt lat="45.30082" lon="6.35534">
        <ele>519.73</ele>
        <time>2016-10-04T11:21:38Z</time>
      </trkpt>
      <trkpt lat="45.30056" lon="6.35559">
        <ele>521.65</ele>
        <time>2016-10-04T11:21:55Z</time>
      </trkpt>
      <trkpt lat="45.3003" lon="6.35586">
        <ele>524.06</ele>
        <time>2016-10-04T11:22:10Z</time>
      </trkpt>
      <trkpt lat="45.30005" lon="6.35607">
        <ele>525.98</ele>
        <time>2016-10-04T11:22:26Z</time>
      </trkpt>
      <trkpt lat="45.2998" lon="6.35626">
        <ele>528.38</ele>
        <time>2016-10-04T11:22:42Z</time>
      </trkpt>
      <trkpt lat="45.2995" lon="6.35649">
        <ele>530.79</ele>
        <time>2016-10-04T11:23:02Z</time>
      </trkpt>
      <trkpt lat="45.29918" lon="6.35653">
        <ele>533.19</ele>
        <time>2016-10-04T11:23:21Z</time>
      </trkpt>
      <trkpt lat="45.29884" lon="6.35643">
        <ele>535.59</ele>
        <time>2016-10-04T11:23:41Z</time>
      </trkpt>
      <trkpt lat="45.29851" lon="6.35626">
        <ele>535.11</ele>
        <time>2016-10-04T11:23:56Z</time>
      </trkpt>
      <trkpt lat="45.2979" lon="6.35613">
        <ele>534.15</ele>
        <time>2016-10-04T11:24:11Z</time>
      </trkpt>
      <trkpt lat="45.29775" lon="6.3561">
        <ele>532.71</ele>
        <time>2016-10-04T11:24:14Z</time>
      </trkpt>
      <trkpt lat="45.29688" lon="6.35594">
        <ele>529.82</ele>
        <time>2016-10-04T11:24:27Z</time>
      </trkpt>
      <trkpt lat="45.2965" lon="6.356">
        <ele>530.3</ele>
        <time>2016-10-04T11:24:32Z</time>
      </trkpt>
      <trkpt lat="45.29644" lon="6.35604">
        <ele>529.82</ele>
        <time>2016-10-04T11:24:33Z</time>
      </trkpt>
      <trkpt lat="45.29637" lon="6.35607">
        <ele>530.3</ele>
        <time>2016-10-04T11:24:34Z</time>
      </trkpt>
      <trkpt lat="45.29626" lon="6.35616">
        <ele>530.3</ele>
        <time>2016-10-04T11:24:36Z</time>
      </trkpt>
      <trkpt lat="45.29597" lon="6.35646">
        <ele>531.75</ele>
        <time>2016-10-04T11:24:43Z</time>
      </trkpt>
      <trkpt lat="45.29593" lon="6.35648">
        <ele>532.23</ele>
        <time>2016-10-04T11:24:44Z</time>
      </trkpt>
      <trkpt lat="45.29581" lon="6.35654">
        <ele>531.27</ele>
        <time>2016-10-04T11:24:47Z</time>
      </trkpt>
      <trkpt lat="45.29577" lon="6.35658">
        <ele>531.27</ele>
        <time>2016-10-04T11:24:48Z</time>
      </trkpt>
      <trkpt lat="45.29574" lon="6.35663">
        <ele>531.27</ele>
        <time>2016-10-04T11:24:49Z</time>
      </trkpt>
      <trkpt lat="45.29572" lon="6.35669">
        <ele>531.75</ele>
        <time>2016-10-04T11:24:50Z</time>
      </trkpt>
      <trkpt lat="45.2957" lon="6.35675">
        <ele>531.75</ele>
        <time>2016-10-04T11:24:51Z</time>
      </trkpt>
      <trkpt lat="45.29569" lon="6.3568">
        <ele>531.75</ele>
        <time>2016-10-04T11:24:52Z</time>
      </trkpt>
      <trkpt lat="45.29564" lon="6.35696">
        <ele>532.23</ele>
        <time>2016-10-04T11:24:55Z</time>
      </trkpt>
      <trkpt lat="45.29561" lon="6.35701">
        <ele>531.75</ele>
        <time>2016-10-04T11:24:56Z</time>
      </trkpt>
      <trkpt lat="45.29557" lon="6.35705">
        <ele>531.27</ele>
        <time>2016-10-04T11:24:57Z</time>
      </trkpt>
      <trkpt lat="45.29553" lon="6.35709">
        <ele>530.3</ele>
        <time>2016-10-04T11:24:58Z</time>
      </trkpt>
      <trkpt lat="45.29549" lon="6.35711">
        <ele>530.3</ele>
        <time>2016-10-04T11:24:59Z</time>
      </trkpt>
      <trkpt lat="45.29544" lon="6.35714">
        <ele>529.82</ele>
        <time>2016-10-04T11:25:00Z</time>
      </trkpt>
      <trkpt lat="45.29539" lon="6.35715">
        <ele>530.3</ele>
        <time>2016-10-04T11:25:01Z</time>
      </trkpt>
      <trkpt lat="45.29533" lon="6.35716">
        <ele>530.3</ele>
        <time>2016-10-04T11:25:02Z</time>
      </trkpt>
      <trkpt lat="45.29528" lon="6.35716">
        <ele>530.79</ele>
        <time>2016-10-04T11:25:03Z</time>
      </trkpt>
      <trkpt lat="45.29522" lon="6.35716">
        <ele>529.82</ele>
        <time>2016-10-04T11:25:04Z</time>
      </trkpt>
      <trkpt lat="45.29484" lon="6.3571">
        <ele>529.82</ele>
        <time>2016-10-04T11:25:11Z</time>
      </trkpt>
      <trkpt lat="45.2948" lon="6.35708">
        <ele>530.79</ele>
        <time>2016-10-04T11:25:12Z</time>
      </trkpt>
      <trkpt lat="45.29476" lon="6.35704">
        <ele>530.79</ele>
        <time>2016-10-04T11:25:13Z</time>
      </trkpt>
      <trkpt lat="45.29472" lon="6.357">
        <ele>530.79</ele>
        <time>2016-10-04T11:25:14Z</time>
      </trkpt>
      <trkpt lat="45.29468" lon="6.35696">
        <ele>531.27</ele>
        <time>2016-10-04T11:25:15Z</time>
      </trkpt>
      <trkpt lat="45.29462" lon="6.35686">
        <ele>532.23</ele>
        <time>2016-10-04T11:25:17Z</time>
      </trkpt>
      <trkpt lat="45.29459" lon="6.35681">
        <ele>531.75</ele>
        <time>2016-10-04T11:25:18Z</time>
      </trkpt>
      <trkpt lat="45.29457" lon="6.35676">
        <ele>532.23</ele>
        <time>2016-10-04T11:25:19Z</time>
      </trkpt>
      <trkpt lat="45.29455" lon="6.3567">
        <ele>532.23</ele>
        <time>2016-10-04T11:25:20Z</time>
      </trkpt>
      <trkpt lat="45.29454" lon="6.35665">
        <ele>532.23</ele>
        <time>2016-10-04T11:25:21Z</time>
      </trkpt>
      <trkpt lat="45.29438" lon="6.35571">
        <ele>530.79</ele>
        <time>2016-10-04T11:25:35Z</time>
      </trkpt>
      <trkpt lat="45.29433" lon="6.35541">
        <ele>529.82</ele>
        <time>2016-10-04T11:25:39Z</time>
      </trkpt>
      <trkpt lat="45.29427" lon="6.35502">
        <ele>529.34</ele>
        <time>2016-10-04T11:25:44Z</time>
      </trkpt>
      <trkpt lat="45.29427" lon="6.35494">
        <ele>528.86</ele>
        <time>2016-10-04T11:25:45Z</time>
      </trkpt>
      <trkpt lat="45.29427" lon="6.35486">
        <ele>528.86</ele>
        <time>2016-10-04T11:25:46Z</time>
      </trkpt>
      <trkpt lat="45.29428" lon="6.35478">
        <ele>529.82</ele>
        <time>2016-10-04T11:25:47Z</time>
      </trkpt>
      <trkpt lat="45.29427" lon="6.3547">
        <ele>528.86</ele>
        <time>2016-10-04T11:25:48Z</time>
      </trkpt>
      <trkpt lat="45.29425" lon="6.35462">
        <ele>528.38</ele>
        <time>2016-10-04T11:25:49Z</time>
      </trkpt>
      <trkpt lat="45.29422" lon="6.35454">
        <ele>528.38</ele>
        <time>2016-10-04T11:25:50Z</time>
      </trkpt>
      <trkpt lat="45.29408" lon="6.35401">
        <ele>527.9</ele>
        <time>2016-10-04T11:25:56Z</time>
      </trkpt>
      <trkpt lat="45.29392" lon="6.35314">
        <ele>527.42</ele>
        <time>2016-10-04T11:26:05Z</time>
      </trkpt>
      <trkpt lat="45.29388" lon="6.35305">
        <ele>527.42</ele>
        <time>2016-10-04T11:26:06Z</time>
      </trkpt>
      <trkpt lat="45.2936" lon="6.35254">
        <ele>526.46</ele>
        <time>2016-10-04T11:26:12Z</time>
      </trkpt>
      <trkpt lat="45.29353" lon="6.35247">
        <ele>525.98</ele>
        <time>2016-10-04T11:26:13Z</time>
      </trkpt>
      <trkpt lat="45.29346" lon="6.35242">
        <ele>526.46</ele>
        <time>2016-10-04T11:26:14Z</time>
      </trkpt>
      <trkpt lat="45.29339" lon="6.35237">
        <ele>525.5</ele>
        <time>2016-10-04T11:26:15Z</time>
      </trkpt>
      <trkpt lat="45.29332" lon="6.35233">
        <ele>525.5</ele>
        <time>2016-10-04T11:26:16Z</time>
      </trkpt>
      <trkpt lat="45.29324" lon="6.3523">
        <ele>525.5</ele>
        <time>2016-10-04T11:26:17Z</time>
      </trkpt>
      <trkpt lat="45.29316" lon="6.35228">
        <ele>525.98</ele>
        <time>2016-10-04T11:26:18Z</time>
      </trkpt>
      <trkpt lat="45.29308" lon="6.35226">
        <ele>525.02</ele>
        <time>2016-10-04T11:26:19Z</time>
      </trkpt>
      <trkpt lat="45.293" lon="6.35226">
        <ele>525.98</ele>
        <time>2016-10-04T11:26:20Z</time>
      </trkpt>
      <trkpt lat="45.29293" lon="6.35226">
        <ele>526.94</ele>
        <time>2016-10-04T11:26:21Z</time>
      </trkpt>
      <trkpt lat="45.29285" lon="6.35228">
        <ele>525.02</ele>
        <time>2016-10-04T11:26:22Z</time>
      </trkpt>
      <trkpt lat="45.29277" lon="6.3523">
        <ele>525.98</ele>
        <time>2016-10-04T11:26:23Z</time>
      </trkpt>
      <trkpt lat="45.2927" lon="6.35234">
        <ele>525.5</ele>
        <time>2016-10-04T11:26:24Z</time>
      </trkpt>
      <trkpt lat="45.29263" lon="6.35238">
        <ele>525.02</ele>
        <time>2016-10-04T11:26:25Z</time>
      </trkpt>
      <trkpt lat="45.29257" lon="6.35242">
        <ele>525.98</ele>
        <time>2016-10-04T11:26:26Z</time>
      </trkpt>
      <trkpt lat="45.29174" lon="6.35301">
        <ele>526.94</ele>
        <time>2016-10-04T11:26:39Z</time>
      </trkpt>
      <trkpt lat="45.29157" lon="6.35307">
        <ele>526.94</ele>
        <time>2016-10-04T11:26:42Z</time>
      </trkpt>
      <trkpt lat="45.29072" lon="6.35304">
        <ele>526.94</ele>
        <time>2016-10-04T11:26:56Z</time>
      </trkpt>
      <trkpt lat="45.28957" lon="6.35297">
        <ele>528.86</ele>
        <time>2016-10-04T11:27:16Z</time>
      </trkpt>
      <trkpt lat="45.28855" lon="6.35293">
        <ele>529.82</ele>
        <time>2016-10-04T11:27:35Z</time>
      </trkpt>
      <trkpt lat="45.28776" lon="6.3529">
        <ele>529.82</ele>
        <time>2016-10-04T11:27:53Z</time>
      </trkpt>
      <trkpt lat="45.28704" lon="6.35275">
        <ele>529.82</ele>
        <time>2016-10-04T11:28:09Z</time>
      </trkpt>
      <trkpt lat="45.28691" lon="6.35265">
        <ele>530.3</ele>
        <time>2016-10-04T11:28:12Z</time>
      </trkpt>
      <trkpt lat="45.28687" lon="6.35261">
        <ele>530.79</ele>
        <time>2016-10-04T11:28:13Z</time>
      </trkpt>
      <trkpt lat="45.28621" lon="6.35197">
        <ele>529.82</ele>
        <time>2016-10-04T11:28:31Z</time>
      </trkpt>
      <trkpt lat="45.28541" lon="6.3512">
        <ele>531.27</ele>
        <time>2016-10-04T11:28:52Z</time>
      </trkpt>
      <trkpt lat="45.28471" lon="6.35052">
        <ele>533.67</ele>
        <time>2016-10-04T11:29:12Z</time>
      </trkpt>
      <trkpt lat="45.28422" lon="6.35004">
        <ele>535.59</ele>
        <time>2016-10-04T11:29:29Z</time>
      </trkpt>
      <trkpt lat="45.28371" lon="6.34954">
        <ele>537.51</ele>
        <time>2016-10-04T11:29:48Z</time>
      </trkpt>
      <trkpt lat="45.28327" lon="6.34912">
        <ele>539.44</ele>
        <time>2016-10-04T11:30:05Z</time>
      </trkpt>
      <trkpt lat="45.28286" lon="6.34871">
        <ele>541.84</ele>
        <time>2016-10-04T11:30:24Z</time>
      </trkpt>
      <trkpt lat="45.28253" lon="6.34838">
        <ele>543.76</ele>
        <time>2016-10-04T11:30:42Z</time>
      </trkpt>
      <trkpt lat="45.2822" lon="6.34805">
        <ele>544.72</ele>
        <time>2016-10-04T11:31:01Z</time>
      </trkpt>
      <trkpt lat="45.2819" lon="6.34773">
        <ele>547.61</ele>
        <time>2016-10-04T11:31:20Z</time>
      </trkpt>
      <trkpt lat="45.28165" lon="6.34749">
        <ele>549.53</ele>
        <time>2016-10-04T11:31:35Z</time>
      </trkpt>
      <trkpt lat="45.28135" lon="6.34721">
        <ele>550.97</ele>
        <time>2016-10-04T11:31:53Z</time>
      </trkpt>
      <trkpt lat="45.28113" lon="6.34701">
        <ele>552.9</ele>
        <time>2016-10-04T11:32:06Z</time>
      </trkpt>
      <trkpt lat="45.28089" lon="6.34676">
        <ele>553.86</ele>
        <time>2016-10-04T11:32:21Z</time>
      </trkpt>
      <trkpt lat="45.28065" lon="6.34652">
        <ele>555.3</ele>
        <time>2016-10-04T11:32:34Z</time>
      </trkpt>
      <trkpt lat="45.28054" lon="6.34643">
        <ele>556.26</ele>
        <time>2016-10-04T11:32:40Z</time>
      </trkpt>
      <trkpt lat="45.28033" lon="6.34624">
        <ele>557.22</ele>
        <time>2016-10-04T11:32:53Z</time>
      </trkpt>
      <trkpt lat="45.28007" lon="6.34602">
        <ele>559.14</ele>
        <time>2016-10-04T11:33:08Z</time>
      </trkpt>
      <trkpt lat="45.27982" lon="6.34576">
        <ele>560.59</ele>
        <time>2016-10-04T11:33:23Z</time>
      </trkpt>
      <trkpt lat="45.27961" lon="6.34552">
        <ele>561.07</ele>
        <time>2016-10-04T11:33:36Z</time>
      </trkpt>
      <trkpt lat="45.27943" lon="6.34527">
        <ele>563.47</ele>
        <time>2016-10-04T11:33:50Z</time>
      </trkpt>
      <trkpt lat="45.27941" lon="6.34524">
        <ele>562.99</ele>
        <time>2016-10-04T11:33:52Z</time>
      </trkpt>
      <trkpt lat="45.2794" lon="6.34522">
        <ele>563.47</ele>
        <time>2016-10-04T11:33:53Z</time>
      </trkpt>
      <trkpt lat="45.27939" lon="6.3452">
        <ele>562.99</ele>
        <time>2016-10-04T11:33:54Z</time>
      </trkpt>
      <trkpt lat="45.27918" lon="6.34499">
        <ele>564.43</ele>
        <time>2016-10-04T11:34:09Z</time>
      </trkpt>
      <trkpt lat="45.279" lon="6.3448">
        <ele>566.35</ele>
        <time>2016-10-04T11:34:22Z</time>
      </trkpt>
      <trkpt lat="45.27898" lon="6.34479">
        <ele>566.35</ele>
        <time>2016-10-04T11:34:23Z</time>
      </trkpt>
      <trkpt lat="45.27897" lon="6.34478">
        <ele>565.87</ele>
        <time>2016-10-04T11:34:24Z</time>
      </trkpt>
      <trkpt lat="45.27872" lon="6.34459">
        <ele>567.8</ele>
        <time>2016-10-04T11:34:38Z</time>
      </trkpt>
      <trkpt lat="45.2785" lon="6.34443">
        <ele>568.76</ele>
        <time>2016-10-04T11:34:51Z</time>
      </trkpt>
      <trkpt lat="45.27827" lon="6.34415">
        <ele>570.2</ele>
        <time>2016-10-04T11:35:06Z</time>
      </trkpt>
      <trkpt lat="45.27821" lon="6.34412">
        <ele>570.68</ele>
        <time>2016-10-04T11:35:10Z</time>
      </trkpt>
      <trkpt lat="45.27819" lon="6.34411">
        <ele>570.68</ele>
        <time>2016-10-04T11:35:11Z</time>
      </trkpt>
      <trkpt lat="45.27817" lon="6.3441">
        <ele>571.16</ele>
        <time>2016-10-04T11:35:12Z</time>
      </trkpt>
      <trkpt lat="45.27816" lon="6.3441">
        <ele>571.64</ele>
        <time>2016-10-04T11:35:13Z</time>
      </trkpt>
      <trkpt lat="45.27814" lon="6.34409">
        <ele>571.64</ele>
        <time>2016-10-04T11:35:14Z</time>
      </trkpt>
      <trkpt lat="45.27812" lon="6.34407">
        <ele>571.64</ele>
        <time>2016-10-04T11:35:15Z</time>
      </trkpt>
      <trkpt lat="45.27811" lon="6.34405">
        <ele>572.12</ele>
        <time>2016-10-04T11:35:16Z</time>
      </trkpt>
      <trkpt lat="45.27809" lon="6.34403">
        <ele>571.64</ele>
        <time>2016-10-04T11:35:17Z</time>
      </trkpt>
      <trkpt lat="45.27795" lon="6.34378">
        <ele>572.6</ele>
        <time>2016-10-04T11:35:28Z</time>
      </trkpt>
      <trkpt lat="45.27792" lon="6.34375">
        <ele>573.08</ele>
        <time>2016-10-04T11:35:30Z</time>
      </trkpt>
      <trkpt lat="45.2779" lon="6.34374">
        <ele>573.56</ele>
        <time>2016-10-04T11:35:31Z</time>
      </trkpt>
      <trkpt lat="45.27773" lon="6.34361">
        <ele>574.04</ele>
        <time>2016-10-04T11:35:43Z</time>
      </trkpt>
      <trkpt lat="45.27772" lon="6.34361">
        <ele>574.04</ele>
        <time>2016-10-04T11:35:44Z</time>
      </trkpt>
      <trkpt lat="45.2777" lon="6.3436">
        <ele>574.04</ele>
        <time>2016-10-04T11:35:45Z</time>
      </trkpt>
      <trkpt lat="45.27762" lon="6.34359">
        <ele>575.01</ele>
        <time>2016-10-04T11:35:49Z</time>
      </trkpt>
      <trkpt lat="45.2776" lon="6.3436">
        <ele>575.01</ele>
        <time>2016-10-04T11:35:50Z</time>
      </trkpt>
      <trkpt lat="45.27759" lon="6.34361">
        <ele>575.01</ele>
        <time>2016-10-04T11:35:51Z</time>
      </trkpt>
      <trkpt lat="45.27758" lon="6.34363">
        <ele>575.01</ele>
        <time>2016-10-04T11:35:52Z</time>
      </trkpt>
      <trkpt lat="45.27756" lon="6.34365">
        <ele>575.49</ele>
        <time>2016-10-04T11:35:53Z</time>
      </trkpt>
      <trkpt lat="45.27753" lon="6.34367">
        <ele>575.49</ele>
        <time>2016-10-04T11:35:54Z</time>
      </trkpt>
      <trkpt lat="45.27752" lon="6.34369">
        <ele>575.01</ele>
        <time>2016-10-04T11:35:55Z</time>
      </trkpt>
      <trkpt lat="45.27749" lon="6.34371">
        <ele>575.49</ele>
        <time>2016-10-04T11:35:56Z</time>
      </trkpt>
      <trkpt lat="45.27748" lon="6.34373">
        <ele>575.49</ele>
        <time>2016-10-04T11:35:57Z</time>
      </trkpt>
      <trkpt lat="45.27746" lon="6.34375">
        <ele>575.49</ele>
        <time>2016-10-04T11:35:58Z</time>
      </trkpt>
      <trkpt lat="45.27727" lon="6.344">
        <ele>576.45</ele>
        <time>2016-10-04T11:36:10Z</time>
      </trkpt>
      <trkpt lat="45.2771" lon="6.34414">
        <ele>577.41</ele>
        <time>2016-10-04T11:36:19Z</time>
      </trkpt>
      <trkpt lat="45.27712" lon="6.34418">
        <ele>577.41</ele>
        <time>2016-10-04T11:36:20Z</time>
      </trkpt>
      <trkpt lat="45.27713" lon="6.34421">
        <ele>577.41</ele>
        <time>2016-10-04T11:36:21Z</time>
      </trkpt>
      <trkpt lat="45.27715" lon="6.34424">
        <ele>576.45</ele>
        <time>2016-10-04T11:36:22Z</time>
      </trkpt>
      <trkpt lat="45.27716" lon="6.34426">
        <ele>576.93</ele>
        <time>2016-10-04T11:36:23Z</time>
      </trkpt>
      <trkpt lat="45.27732" lon="6.34442">
        <ele>575.01</ele>
        <time>2016-10-04T11:36:38Z</time>
      </trkpt>
      <trkpt lat="45.27733" lon="6.34448">
        <ele>575.49</ele>
        <time>2016-10-04T11:36:46Z</time>
      </trkpt>
      <trkpt lat="45.27732" lon="6.34447">
        <ele>575.01</ele>
        <time>2016-10-04T11:36:47Z</time>
      </trkpt>
      <trkpt lat="45.27712" lon="6.34427">
        <ele>577.41</ele>
        <time>2016-10-04T11:37:05Z</time>
      </trkpt>
      <trkpt lat="45.27712" lon="6.34428">
        <ele>577.41</ele>
        <time>2016-10-04T11:37:06Z</time>
      </trkpt>
      <trkpt lat="45.27711" lon="6.34429">
        <ele>577.41</ele>
        <time>2016-10-04T11:37:07Z</time>
      </trkpt>
      <trkpt lat="45.2771" lon="6.3443">
        <ele>577.41</ele>
        <time>2016-10-04T11:37:08Z</time>
      </trkpt>
      <trkpt lat="45.27709" lon="6.34431">
        <ele>577.41</ele>
        <time>2016-10-04T11:37:09Z</time>
      </trkpt>
      <trkpt lat="45.27707" lon="6.34432">
        <ele>577.41</ele>
        <time>2016-10-04T11:37:10Z</time>
      </trkpt>
      <trkpt lat="45.27706" lon="6.34434">
        <ele>577.89</ele>
        <time>2016-10-04T11:37:11Z</time>
      </trkpt>
      <trkpt lat="45.27705" lon="6.34435">
        <ele>576.93</ele>
        <time>2016-10-04T11:37:12Z</time>
      </trkpt>
      <trkpt lat="45.27703" lon="6.34436">
        <ele>576.93</ele>
        <time>2016-10-04T11:37:13Z</time>
      </trkpt>
      <trkpt lat="45.27677" lon="6.34464">
        <ele>576.45</ele>
        <time>2016-10-04T11:37:27Z</time>
      </trkpt>
      <trkpt lat="45.27676" lon="6.34468">
        <ele>576.45</ele>
        <time>2016-10-04T11:37:29Z</time>
      </trkpt>
      <trkpt lat="45.27675" lon="6.34468">
        <ele>576.45</ele>
        <time>2016-10-04T11:37:30Z</time>
      </trkpt>
      <trkpt lat="45.27673" lon="6.34469">
        <ele>576.45</ele>
        <time>2016-10-04T11:37:31Z</time>
      </trkpt>
      <trkpt lat="45.27672" lon="6.34471">
        <ele>576.93</ele>
        <time>2016-10-04T11:37:32Z</time>
      </trkpt>
      <trkpt lat="45.27671" lon="6.34472">
        <ele>576.45</ele>
        <time>2016-10-04T11:37:33Z</time>
      </trkpt>
      <trkpt lat="45.27668" lon="6.34476">
        <ele>576.93</ele>
        <time>2016-10-04T11:37:37Z</time>
      </trkpt>
      <trkpt lat="45.27667" lon="6.34478">
        <ele>576.93</ele>
        <time>2016-10-04T11:37:38Z</time>
      </trkpt>
      <trkpt lat="45.27666" lon="6.34484">
        <ele>576.93</ele>
        <time>2016-10-04T11:37:39Z</time>
      </trkpt>
      <trkpt lat="45.27666" lon="6.3449">
        <ele>576.93</ele>
        <time>2016-10-04T11:37:40Z</time>
      </trkpt>
      <trkpt lat="45.27666" lon="6.34494">
        <ele>576.93</ele>
        <time>2016-10-04T11:37:41Z</time>
      </trkpt>
      <trkpt lat="45.27667" lon="6.34505">
        <ele>576.45</ele>
        <time>2016-10-04T11:37:55Z</time>
      </trkpt>
      <trkpt lat="45.27663" lon="6.34509">
        <ele>576.45</ele>
        <time>2016-10-04T11:38:22Z</time>
      </trkpt>
      <trkpt lat="45.27665" lon="6.34512">
        <ele>576.45</ele>
        <time>2016-10-04T11:38:30Z</time>
      </trkpt>
      <trkpt lat="45.27665" lon="6.34514">
        <ele>576.45</ele>
        <time>2016-10-04T11:38:31Z</time>
      </trkpt>
      <trkpt lat="45.27642" lon="6.34539">
        <ele>575.97</ele>
        <time>2016-10-04T11:38:42Z</time>
      </trkpt>
      <trkpt lat="45.27614" lon="6.34569">
        <ele>576.45</ele>
        <time>2016-10-04T11:38:54Z</time>
      </trkpt>
      <trkpt lat="45.276" lon="6.34577">
        <ele>575.97</ele>
        <time>2016-10-04T11:39:04Z</time>
      </trkpt>
      <trkpt lat="45.27599" lon="6.34578">
        <ele>575.97</ele>
        <time>2016-10-04T11:39:07Z</time>
      </trkpt>
      <trkpt lat="45.27598" lon="6.34579">
        <ele>575.97</ele>
        <time>2016-10-04T11:39:08Z</time>
      </trkpt>
      <trkpt lat="45.27596" lon="6.34581">
        <ele>576.45</ele>
        <time>2016-10-04T11:39:09Z</time>
      </trkpt>
      <trkpt lat="45.27564" lon="6.34607">
        <ele>577.41</ele>
        <time>2016-10-04T11:39:23Z</time>
      </trkpt>
      <trkpt lat="45.2756" lon="6.34611">
        <ele>577.41</ele>
        <time>2016-10-04T11:39:26Z</time>
      </trkpt>
      <trkpt lat="45.2756" lon="6.34618">
        <ele>577.41</ele>
        <time>2016-10-04T11:39:41Z</time>
      </trkpt>
      <trkpt lat="45.27559" lon="6.34621">
        <ele>576.93</ele>
        <time>2016-10-04T11:39:54Z</time>
      </trkpt>
      <trkpt lat="45.27562" lon="6.34621">
        <ele>577.41</ele>
        <time>2016-10-04T11:39:57Z</time>
      </trkpt>
      <trkpt lat="45.27567" lon="6.3462">
        <ele>577.89</ele>
        <time>2016-10-04T11:40:13Z</time>
      </trkpt>
      <trkpt lat="45.27569" lon="6.34621">
        <ele>577.41</ele>
        <time>2016-10-04T11:40:40Z</time>
      </trkpt>
      <trkpt lat="45.2757" lon="6.34619">
        <ele>577.89</ele>
        <time>2016-10-04T11:41:09Z</time>
      </trkpt>
      <trkpt lat="45.27569" lon="6.3462">
        <ele>576.93</ele>
        <time>2016-10-04T11:41:22Z</time>
      </trkpt>
      <trkpt lat="45.27571" lon="6.34615">
        <ele>577.89</ele>
        <time>2016-10-04T11:41:34Z</time>
      </trkpt>
      <trkpt lat="45.27567" lon="6.34615">
        <ele>576.93</ele>
        <time>2016-10-04T11:41:51Z</time>
      </trkpt>
      <trkpt lat="45.27565" lon="6.34613">
        <ele>577.89</ele>
        <time>2016-10-04T11:42:13Z</time>
      </trkpt>
      <trkpt lat="45.27565" lon="6.34611">
        <ele>577.41</ele>
        <time>2016-10-04T11:42:31Z</time>
      </trkpt>
      <trkpt lat="45.27567" lon="6.34613">
        <ele>577.41</ele>
        <time>2016-10-04T11:42:49Z</time>
      </trkpt>
      <trkpt lat="45.27566" lon="6.34616">
        <ele>577.89</ele>
        <time>2016-10-04T11:43:13Z</time>
      </trkpt>
      <trkpt lat="45.27566" lon="6.34612">
        <ele>577.41</ele>
        <time>2016-10-04T11:43:41Z</time>
      </trkpt>
      <trkpt lat="45.27567" lon="6.3461">
        <ele>577.41</ele>
        <time>2016-10-04T11:44:08Z</time>
      </trkpt>
      <trkpt lat="45.27568" lon="6.34614">
        <ele>577.89</ele>
        <time>2016-10-04T11:44:32Z</time>
      </trkpt>
      <trkpt lat="45.27565" lon="6.34612">
        <ele>578.85</ele>
        <time>2016-10-04T11:45:03Z</time>
      </trkpt>
      <trkpt lat="45.27566" lon="6.34613">
        <ele>577.41</ele>
        <time>2016-10-04T11:45:37Z</time>
      </trkpt>
      <trkpt lat="45.27566" lon="6.34614">
        <ele>578.37</ele>
        <time>2016-10-04T11:46:04Z</time>
      </trkpt>
      <trkpt lat="45.27564" lon="6.3461">
        <ele>578.85</ele>
        <time>2016-10-04T11:46:37Z</time>
      </trkpt>
      <trkpt lat="45.27565" lon="6.34615">
        <ele>578.37</ele>
        <time>2016-10-04T11:47:09Z</time>
      </trkpt>
      <trkpt lat="45.27566" lon="6.34617">
        <ele>578.85</ele>
        <time>2016-10-04T11:47:47Z</time>
      </trkpt>
      <trkpt lat="45.27564" lon="6.34613">
        <ele>579.33</ele>
        <time>2016-10-04T11:48:17Z</time>
      </trkpt>
      <trkpt lat="45.27568" lon="6.34613">
        <ele>580.29</ele>
        <time>2016-10-04T11:48:53Z</time>
      </trkpt>
      <trkpt lat="45.27566" lon="6.34612">
        <ele>579.33</ele>
        <time>2016-10-04T11:49:23Z</time>
      </trkpt>
      <trkpt lat="45.27568" lon="6.34616">
        <ele>578.37</ele>
        <time>2016-10-04T11:49:52Z</time>
      </trkpt>
      <trkpt lat="45.27568" lon="6.34621">
        <ele>579.33</ele>
        <time>2016-10-04T11:50:23Z</time>
      </trkpt>
      <trkpt lat="45.27567" lon="6.34618">
        <ele>579.33</ele>
        <time>2016-10-04T11:50:49Z</time>
      </trkpt>
      <trkpt lat="45.27569" lon="6.34617">
        <ele>579.81</ele>
        <time>2016-10-04T11:51:16Z</time>
      </trkpt>
      <trkpt lat="45.27569" lon="6.34617">
        <ele>577.89</ele>
        <time>2016-10-04T11:51:38Z</time>
      </trkpt>
      <trkpt lat="45.27568" lon="6.34616">
        <ele>581.25</ele>
        <time>2016-10-04T11:51:43Z</time>
      </trkpt>
      <trkpt lat="45.27565" lon="6.34613">
        <ele>579.81</ele>
        <time>2016-10-04T11:52:09Z</time>
      </trkpt>
      <trkpt lat="45.27564" lon="6.34617">
        <ele>579.33</ele>
        <time>2016-10-04T11:52:39Z</time>
      </trkpt>
      <trkpt lat="45.27565" lon="6.34612">
        <ele>580.29</ele>
        <time>2016-10-04T11:52:57Z</time>
      </trkpt>
      <trkpt lat="45.27567" lon="6.34609">
        <ele>579.33</ele>
        <time>2016-10-04T11:53:35Z</time>
      </trkpt>
      <trkpt lat="45.27567" lon="6.34608">
        <ele>579.81</ele>
        <time>2016-10-04T11:54:13Z</time>
      </trkpt>
      <trkpt lat="45.27568" lon="6.34614">
        <ele>580.29</ele>
        <time>2016-10-04T11:54:53Z</time>
      </trkpt>
      <trkpt lat="45.27566" lon="6.34612">
        <ele>579.81</ele>
        <time>2016-10-04T11:55:25Z</time>
      </trkpt>
      <trkpt lat="45.2757" lon="6.34611">
        <ele>580.29</ele>
        <time>2016-10-04T11:55:59Z</time>
      </trkpt>
      <trkpt lat="45.2756" lon="6.34611">
        <ele>579.81</ele>
        <time>2016-10-04T11:56:48Z</time>
      </trkpt>
      <trkpt lat="45.27561" lon="6.34611">
        <ele>580.77</ele>
        <time>2016-10-04T11:57:22Z</time>
      </trkpt>
      <trkpt lat="45.27564" lon="6.34611">
        <ele>581.25</ele>
        <time>2016-10-04T11:57:55Z</time>
      </trkpt>
      <trkpt lat="45.27561" lon="6.34609">
        <ele>581.25</ele>
        <time>2016-10-04T11:58:28Z</time>
      </trkpt>
      <trkpt lat="45.2756" lon="6.3461">
        <ele>581.25</ele>
        <time>2016-10-04T11:59:03Z</time>
      </trkpt>
      <trkpt lat="45.27566" lon="6.34618">
        <ele>581.25</ele>
        <time>2016-10-04T11:59:34Z</time>
      </trkpt>
      <trkpt lat="45.27568" lon="6.34617">
        <ele>581.25</ele>
        <time>2016-10-04T12:00:07Z</time>
      </trkpt>
      <trkpt lat="45.27566" lon="6.34618">
        <ele>581.73</ele>
        <time>2016-10-04T12:00:33Z</time>
      </trkpt>
      <trkpt lat="45.27565" lon="6.34616">
        <ele>581.73</ele>
        <time>2016-10-04T12:00:51Z</time>
      </trkpt>
      <trkpt lat="45.27563" lon="6.3461">
        <ele>581.25</ele>
        <time>2016-10-04T12:01:19Z</time>
      </trkpt>
      <trkpt lat="45.27564" lon="6.34613">
        <ele>581.73</ele>
        <time>2016-10-04T12:01:46Z</time>
      </trkpt>
      <trkpt lat="45.27564" lon="6.34614">
        <ele>581.73</ele>
        <time>2016-10-04T12:02:14Z</time>
      </trkpt>
      <trkpt lat="45.27564" lon="6.34615">
        <ele>582.7</ele>
        <time>2016-10-04T12:02:43Z</time>
      </trkpt>
      <trkpt lat="45.27564" lon="6.34609">
        <ele>581.73</ele>
        <time>2016-10-04T12:03:16Z</time>
      </trkpt>
      <trkpt lat="45.27561" lon="6.3461">
        <ele>582.22</ele>
        <time>2016-10-04T12:03:45Z</time>
      </trkpt>
      <trkpt lat="45.27564" lon="6.3461">
        <ele>582.7</ele>
        <time>2016-10-04T12:04:19Z</time>
      </trkpt>
      <trkpt lat="45.27563" lon="6.34614">
        <ele>581.73</ele>
        <time>2016-10-04T12:04:59Z</time>
      </trkpt>
      <trkpt lat="45.27562" lon="6.34616">
        <ele>582.22</ele>
        <time>2016-10-04T12:05:35Z</time>
      </trkpt>
      <trkpt lat="45.27566" lon="6.34617">
        <ele>581.73</ele>
        <time>2016-10-04T12:06:12Z</time>
      </trkpt>
      <trkpt lat="45.27564" lon="6.34617">
        <ele>581.73</ele>
        <time>2016-10-04T12:06:42Z</time>
      </trkpt>
      <trkpt lat="45.27562" lon="6.34611">
        <ele>582.22</ele>
        <time>2016-10-04T12:07:12Z</time>
      </trkpt>
      <trkpt lat="45.2756" lon="6.34613">
        <ele>582.7</ele>
        <time>2016-10-04T12:07:42Z</time>
      </trkpt>
      <trkpt lat="45.27566" lon="6.34614">
        <ele>582.22</ele>
        <time>2016-10-04T12:08:15Z</time>
      </trkpt>
      <trkpt lat="45.27567" lon="6.34618">
        <ele>581.73</ele>
        <time>2016-10-04T12:08:49Z</time>
      </trkpt>
      <trkpt lat="45.27569" lon="6.34614">
        <ele>582.22</ele>
        <time>2016-10-04T12:09:24Z</time>
      </trkpt>
      <trkpt lat="45.27568" lon="6.34614">
        <ele>581.73</ele>
        <time>2016-10-04T12:09:54Z</time>
      </trkpt>
      <trkpt lat="45.2757" lon="6.3462">
        <ele>581.73</ele>
        <time>2016-10-04T12:10:23Z</time>
      </trkpt>
      <trkpt lat="45.27567" lon="6.34619">
        <ele>582.22</ele>
        <time>2016-10-04T12:10:49Z</time>
      </trkpt>
      <trkpt lat="45.27565" lon="6.34615">
        <ele>582.22</ele>
        <time>2016-10-04T12:11:16Z</time>
      </trkpt>
      <trkpt lat="45.27565" lon="6.34611">
        <ele>582.22</ele>
        <time>2016-10-04T12:11:38Z</time>
      </trkpt>
      <trkpt lat="45.27565" lon="6.34612">
        <ele>582.22</ele>
        <time>2016-10-04T12:12:03Z</time>
      </trkpt>
      <trkpt lat="45.27566" lon="6.34617">
        <ele>581.73</ele>
        <time>2016-10-04T12:12:38Z</time>
      </trkpt>
      <trkpt lat="45.27567" lon="6.34616">
        <ele>583.18</ele>
        <time>2016-10-04T12:13:10Z</time>
      </trkpt>
      <trkpt lat="45.27568" lon="6.34619">
        <ele>582.7</ele>
        <time>2016-10-04T12:13:49Z</time>
      </trkpt>
      <trkpt lat="45.27568" lon="6.34618">
        <ele>582.7</ele>
        <time>2016-10-04T12:14:16Z</time>
      </trkpt>
      <trkpt lat="45.27565" lon="6.34618">
        <ele>582.7</ele>
        <time>2016-10-04T12:14:46Z</time>
      </trkpt>
      <trkpt lat="45.27565" lon="6.34615">
        <ele>583.66</ele>
        <time>2016-10-04T12:15:12Z</time>
      </trkpt>
      <trkpt lat="45.27564" lon="6.3461">
        <ele>582.22</ele>
        <time>2016-10-04T12:15:41Z</time>
      </trkpt>
      <trkpt lat="45.27569" lon="6.3461">
        <ele>583.18</ele>
        <time>2016-10-04T12:16:22Z</time>
      </trkpt>
      <trkpt lat="45.27566" lon="6.3461">
        <ele>583.18</ele>
        <time>2016-10-04T12:16:53Z</time>
      </trkpt>
      <trkpt lat="45.27567" lon="6.34612">
        <ele>582.7</ele>
        <time>2016-10-04T12:17:38Z</time>
      </trkpt>
      <trkpt lat="45.27566" lon="6.34613">
        <ele>583.18</ele>
        <time>2016-10-04T12:18:17Z</time>
      </trkpt>
      <trkpt lat="45.27565" lon="6.34612">
        <ele>583.18</ele>
        <time>2016-10-04T12:18:58Z</time>
      </trkpt>
      <trkpt lat="45.27568" lon="6.34609">
        <ele>584.14</ele>
        <time>2016-10-04T12:19:30Z</time>
      </trkpt>
      <trkpt lat="45.27566" lon="6.34611">
        <ele>583.66</ele>
        <time>2016-10-04T12:19:55Z</time>
      </trkpt>
      <trkpt lat="45.27564" lon="6.34614">
        <ele>583.66</ele>
        <time>2016-10-04T12:20:26Z</time>
      </trkpt>
      <trkpt lat="45.27562" lon="6.34612">
        <ele>583.66</ele>
        <time>2016-10-04T12:21:01Z</time>
      </trkpt>
      <trkpt lat="45.27565" lon="6.3461">
        <ele>583.66</ele>
        <time>2016-10-04T12:21:25Z</time>
      </trkpt>
      <trkpt lat="45.27567" lon="6.34613">
        <ele>583.66</ele>
        <time>2016-10-04T12:22:06Z</time>
      </trkpt>
      <trkpt lat="45.27567" lon="6.34615">
        <ele>584.62</ele>
        <time>2016-10-04T12:22:27Z</time>
      </trkpt>
      <trkpt lat="45.27564" lon="6.34619">
        <ele>579.81</ele>
        <time>2016-10-04T12:22:39Z</time>
      </trkpt>
      <trkpt lat="45.27564" lon="6.3462">
        <ele>583.66</ele>
        <time>2016-10-04T12:22:40Z</time>
      </trkpt>
      <trkpt lat="45.27566" lon="6.34619">
        <ele>579.33</ele>
        <time>2016-10-04T12:22:48Z</time>
      </trkpt>
      <trkpt lat="45.27566" lon="6.34619">
        <ele>586.06</ele>
        <time>2016-10-04T12:22:49Z</time>
      </trkpt>
      <trkpt lat="45.27567" lon="6.3462">
        <ele>580.77</ele>
        <time>2016-10-04T12:22:57Z</time>
      </trkpt>
      <trkpt lat="45.27568" lon="6.3462">
        <ele>584.62</ele>
        <time>2016-10-04T12:22:58Z</time>
      </trkpt>
      <trkpt lat="45.27569" lon="6.34619">
        <ele>585.1</ele>
        <time>2016-10-04T12:23:04Z</time>
      </trkpt>
      <trkpt lat="45.27568" lon="6.34618">
        <ele>579.33</ele>
        <time>2016-10-04T12:23:07Z</time>
      </trkpt>
      <trkpt lat="45.27568" lon="6.34618">
        <ele>582.22</ele>
        <time>2016-10-04T12:23:08Z</time>
      </trkpt>
      <trkpt lat="45.27569" lon="6.34617">
        <ele>583.66</ele>
        <time>2016-10-04T12:23:10Z</time>
      </trkpt>
      <trkpt lat="45.27564" lon="6.34625">
        <ele>584.14</ele>
        <time>2016-10-04T12:23:32Z</time>
      </trkpt>
      <trkpt lat="45.27554" lon="6.34624">
        <ele>584.14</ele>
        <time>2016-10-04T12:24:03Z</time>
      </trkpt>
      <trkpt lat="45.2755" lon="6.34621">
        <ele>584.14</ele>
        <time>2016-10-04T12:24:36Z</time>
      </trkpt>
      <trkpt lat="45.27551" lon="6.34619">
        <ele>584.62</ele>
        <time>2016-10-04T12:24:55Z</time>
      </trkpt>
      <trkpt lat="45.27547" lon="6.34613">
        <ele>584.14</ele>
        <time>2016-10-04T12:25:26Z</time>
      </trkpt>
      <trkpt lat="45.27546" lon="6.34616">
        <ele>584.14</ele>
        <time>2016-10-04T12:25:53Z</time>
      </trkpt>
      <trkpt lat="45.27549" lon="6.34614">
        <ele>584.62</ele>
        <time>2016-10-04T12:26:19Z</time>
      </trkpt>
      <trkpt lat="45.27548" lon="6.34613">
        <ele>583.66</ele>
        <time>2016-10-04T12:26:48Z</time>
      </trkpt>
      <trkpt lat="45.27553" lon="6.34619">
        <ele>584.14</ele>
        <time>2016-10-04T12:27:15Z</time>
      </trkpt>
      <trkpt lat="45.27557" lon="6.34622">
        <ele>584.14</ele>
        <time>2016-10-04T12:27:43Z</time>
      </trkpt>
      <trkpt lat="45.2756" lon="6.34627">
        <ele>584.14</ele>
        <time>2016-10-04T12:28:14Z</time>
      </trkpt>
      <trkpt lat="45.27559" lon="6.34627">
        <ele>584.62</ele>
        <time>2016-10-04T12:28:40Z</time>
      </trkpt>
      <trkpt lat="45.27557" lon="6.34624">
        <ele>584.14</ele>
        <time>2016-10-04T12:28:52Z</time>
      </trkpt>
      <trkpt lat="45.27555" lon="6.34622">
        <ele>584.14</ele>
        <time>2016-10-04T12:29:17Z</time>
      </trkpt>
      <trkpt lat="45.27542" lon="6.34646">
        <ele>584.14</ele>
        <time>2016-10-04T12:29:27Z</time>
      </trkpt>
      <trkpt lat="45.27517" lon="6.34686">
        <ele>585.1</ele>
        <time>2016-10-04T12:29:42Z</time>
      </trkpt>
      <trkpt lat="45.2749" lon="6.34718">
        <ele>584.14</ele>
        <time>2016-10-04T12:29:51Z</time>
      </trkpt>
      <trkpt lat="45.27487" lon="6.34722">
        <ele>583.66</ele>
        <time>2016-10-04T12:29:52Z</time>
      </trkpt>
      <trkpt lat="45.27457" lon="6.3476">
        <ele>581.73</ele>
        <time>2016-10-04T12:30:00Z</time>
      </trkpt>
      <trkpt lat="45.27454" lon="6.34765">
        <ele>581.73</ele>
        <time>2016-10-04T12:30:01Z</time>
      </trkpt>
      <trkpt lat="45.2745" lon="6.3477">
        <ele>581.25</ele>
        <time>2016-10-04T12:30:02Z</time>
      </trkpt>
      <trkpt lat="45.274" lon="6.34837">
        <ele>578.37</ele>
        <time>2016-10-04T12:30:14Z</time>
      </trkpt>
      <trkpt lat="45.27395" lon="6.34843">
        <ele>578.37</ele>
        <time>2016-10-04T12:30:15Z</time>
      </trkpt>
      <trkpt lat="45.2735" lon="6.34899">
        <ele>576.45</ele>
        <time>2016-10-04T12:30:24Z</time>
      </trkpt>
      <trkpt lat="45.27283" lon="6.34982">
        <ele>573.56</ele>
        <time>2016-10-04T12:30:38Z</time>
      </trkpt>
      <trkpt lat="45.27225" lon="6.35053">
        <ele>570.2</ele>
        <time>2016-10-04T12:30:51Z</time>
      </trkpt>
      <trkpt lat="45.27179" lon="6.3511">
        <ele>568.28</ele>
        <time>2016-10-04T12:31:00Z</time>
      </trkpt>
      <trkpt lat="45.2712" lon="6.35223">
        <ele>567.8</ele>
        <time>2016-10-04T12:31:15Z</time>
      </trkpt>
      <trkpt lat="45.27101" lon="6.35258">
        <ele>566.83</ele>
        <time>2016-10-04T12:31:21Z</time>
      </trkpt>
      <trkpt lat="45.27099" lon="6.35265">
        <ele>566.35</ele>
        <time>2016-10-04T12:31:22Z</time>
      </trkpt>
      <trkpt lat="45.27097" lon="6.35272">
        <ele>565.87</ele>
        <time>2016-10-04T12:31:23Z</time>
      </trkpt>
      <trkpt lat="45.27096" lon="6.3528">
        <ele>565.39</ele>
        <time>2016-10-04T12:31:24Z</time>
      </trkpt>
      <trkpt lat="45.27094" lon="6.35289">
        <ele>565.87</ele>
        <time>2016-10-04T12:31:25Z</time>
      </trkpt>
      <trkpt lat="45.27087" lon="6.35325">
        <ele>563.47</ele>
        <time>2016-10-04T12:31:29Z</time>
      </trkpt>
      <trkpt lat="45.27061" lon="6.35492">
        <ele>562.03</ele>
        <time>2016-10-04T12:31:47Z</time>
      </trkpt>
      <trkpt lat="45.2705" lon="6.35566">
        <ele>560.59</ele>
        <time>2016-10-04T12:31:55Z</time>
      </trkpt>
      <trkpt lat="45.27054" lon="6.35687">
        <ele>562.51</ele>
        <time>2016-10-04T12:32:09Z</time>
      </trkpt>
      <trkpt lat="45.27053" lon="6.35739">
        <ele>559.62</ele>
        <time>2016-10-04T12:32:15Z</time>
      </trkpt>
      <trkpt lat="45.27025" lon="6.35888">
        <ele>559.14</ele>
        <time>2016-10-04T12:32:31Z</time>
      </trkpt>
      <trkpt lat="45.27003" lon="6.36034">
        <ele>557.22</ele>
        <time>2016-10-04T12:32:46Z</time>
      </trkpt>
      <trkpt lat="45.26974" lon="6.3617">
        <ele>559.62</ele>
        <time>2016-10-04T12:33:02Z</time>
      </trkpt>
      <trkpt lat="45.26947" lon="6.36264">
        <ele>558.18</ele>
        <time>2016-10-04T12:33:15Z</time>
      </trkpt>
      <trkpt lat="45.26917" lon="6.3638">
        <ele>555.3</ele>
        <time>2016-10-04T12:33:26Z</time>
      </trkpt>
      <trkpt lat="45.2688" lon="6.36524">
        <ele>556.26</ele>
        <time>2016-10-04T12:33:41Z</time>
      </trkpt>
      <trkpt lat="45.26849" lon="6.36645">
        <ele>558.18</ele>
        <time>2016-10-04T12:33:56Z</time>
      </trkpt>
      <trkpt lat="45.26831" lon="6.36718">
        <ele>557.22</ele>
        <time>2016-10-04T12:34:05Z</time>
      </trkpt>
      <trkpt lat="45.26831" lon="6.36727">
        <ele>557.22</ele>
        <time>2016-10-04T12:34:06Z</time>
      </trkpt>
      <trkpt lat="45.26832" lon="6.36735">
        <ele>557.22</ele>
        <time>2016-10-04T12:34:07Z</time>
      </trkpt>
      <trkpt lat="45.26833" lon="6.36743">
        <ele>557.7</ele>
        <time>2016-10-04T12:34:08Z</time>
      </trkpt>
      <trkpt lat="45.26833" lon="6.36751">
        <ele>557.22</ele>
        <time>2016-10-04T12:34:09Z</time>
      </trkpt>
      <trkpt lat="45.26832" lon="6.36759">
        <ele>556.74</ele>
        <time>2016-10-04T12:34:10Z</time>
      </trkpt>
      <trkpt lat="45.26832" lon="6.36766">
        <ele>557.22</ele>
        <time>2016-10-04T12:34:11Z</time>
      </trkpt>
      <trkpt lat="45.26831" lon="6.36774">
        <ele>556.74</ele>
        <time>2016-10-04T12:34:12Z</time>
      </trkpt>
      <trkpt lat="45.26831" lon="6.36782">
        <ele>556.74</ele>
        <time>2016-10-04T12:34:13Z</time>
      </trkpt>
      <trkpt lat="45.26831" lon="6.36789">
        <ele>556.74</ele>
        <time>2016-10-04T12:34:14Z</time>
      </trkpt>
      <trkpt lat="45.2683" lon="6.36797">
        <ele>556.74</ele>
        <time>2016-10-04T12:34:15Z</time>
      </trkpt>
      <trkpt lat="45.26828" lon="6.36803">
        <ele>556.26</ele>
        <time>2016-10-04T12:34:16Z</time>
      </trkpt>
      <trkpt lat="45.26827" lon="6.3681">
        <ele>556.74</ele>
        <time>2016-10-04T12:34:17Z</time>
      </trkpt>
      <trkpt lat="45.26808" lon="6.36886">
        <ele>557.22</ele>
        <time>2016-10-04T12:34:29Z</time>
      </trkpt>
      <trkpt lat="45.26805" lon="6.36892">
        <ele>557.22</ele>
        <time>2016-10-04T12:34:30Z</time>
      </trkpt>
      <trkpt lat="45.26802" lon="6.36897">
        <ele>557.22</ele>
        <time>2016-10-04T12:34:31Z</time>
      </trkpt>
      <trkpt lat="45.26798" lon="6.36902">
        <ele>557.7</ele>
        <time>2016-10-04T12:34:32Z</time>
      </trkpt>
      <trkpt lat="45.26795" lon="6.36908">
        <ele>557.7</ele>
        <time>2016-10-04T12:34:33Z</time>
      </trkpt>
      <trkpt lat="45.26792" lon="6.36914">
        <ele>556.74</ele>
        <time>2016-10-04T12:34:34Z</time>
      </trkpt>
      <trkpt lat="45.2679" lon="6.36921">
        <ele>556.74</ele>
        <time>2016-10-04T12:34:35Z</time>
      </trkpt>
      <trkpt lat="45.26789" lon="6.36928">
        <ele>556.74</ele>
        <time>2016-10-04T12:34:36Z</time>
      </trkpt>
      <trkpt lat="45.26762" lon="6.37036">
        <ele>558.18</ele>
        <time>2016-10-04T12:34:52Z</time>
      </trkpt>
      <trkpt lat="45.2673" lon="6.37152">
        <ele>559.62</ele>
        <time>2016-10-04T12:35:11Z</time>
      </trkpt>
      <trkpt lat="45.26708" lon="6.37253">
        <ele>562.03</ele>
        <time>2016-10-04T12:35:31Z</time>
      </trkpt>
      <trkpt lat="45.26692" lon="6.37345">
        <ele>562.99</ele>
        <time>2016-10-04T12:35:51Z</time>
      </trkpt>
      <trkpt lat="45.26673" lon="6.37449">
        <ele>565.87</ele>
        <time>2016-10-04T12:36:13Z</time>
      </trkpt>
      <trkpt lat="45.26659" lon="6.37529">
        <ele>567.8</ele>
        <time>2016-10-04T12:36:31Z</time>
      </trkpt>
      <trkpt lat="45.26649" lon="6.37631">
        <ele>569.24</ele>
        <time>2016-10-04T12:36:54Z</time>
      </trkpt>
      <trkpt lat="45.26646" lon="6.37734">
        <ele>571.16</ele>
        <time>2016-10-04T12:37:17Z</time>
      </trkpt>
      <trkpt lat="45.26644" lon="6.3783">
        <ele>573.08</ele>
        <time>2016-10-04T12:37:37Z</time>
      </trkpt>
      <trkpt lat="45.26643" lon="6.37936">
        <ele>574.04</ele>
        <time>2016-10-04T12:37:56Z</time>
      </trkpt>
      <trkpt lat="45.26641" lon="6.38053">
        <ele>574.53</ele>
        <time>2016-10-04T12:38:16Z</time>
      </trkpt>
      <trkpt lat="45.26647" lon="6.38138">
        <ele>575.01</ele>
        <time>2016-10-04T12:38:31Z</time>
      </trkpt>
      <trkpt lat="45.26637" lon="6.38215">
        <ele>575.49</ele>
        <time>2016-10-04T12:38:45Z</time>
      </trkpt>
      <trkpt lat="45.26635" lon="6.38347">
        <ele>575.97</ele>
        <time>2016-10-04T12:39:04Z</time>
      </trkpt>
      <trkpt lat="45.26634" lon="6.38355">
        <ele>575.97</ele>
        <time>2016-10-04T12:39:05Z</time>
      </trkpt>
      <trkpt lat="45.26632" lon="6.38362">
        <ele>575.49</ele>
        <time>2016-10-04T12:39:06Z</time>
      </trkpt>
      <trkpt lat="45.2663" lon="6.38369">
        <ele>575.49</ele>
        <time>2016-10-04T12:39:07Z</time>
      </trkpt>
      <trkpt lat="45.26587" lon="6.38438">
        <ele>576.45</ele>
        <time>2016-10-04T12:39:21Z</time>
      </trkpt>
      <trkpt lat="45.26516" lon="6.3848">
        <ele>578.37</ele>
        <time>2016-10-04T12:39:40Z</time>
      </trkpt>
      <trkpt lat="45.26448" lon="6.38521">
        <ele>579.33</ele>
        <time>2016-10-04T12:40:00Z</time>
      </trkpt>
      <trkpt lat="45.26411" lon="6.38542">
        <ele>580.77</ele>
        <time>2016-10-04T12:40:14Z</time>
      </trkpt>
      <trkpt lat="45.26405" lon="6.38545">
        <ele>581.73</ele>
        <time>2016-10-04T12:40:16Z</time>
      </trkpt>
      <trkpt lat="45.26343" lon="6.38581">
        <ele>584.14</ele>
        <time>2016-10-04T12:40:41Z</time>
      </trkpt>
      <trkpt lat="45.2629" lon="6.38609">
        <ele>585.58</ele>
        <time>2016-10-04T12:41:02Z</time>
      </trkpt>
      <trkpt lat="45.26237" lon="6.38626">
        <ele>588.46</ele>
        <time>2016-10-04T12:41:22Z</time>
      </trkpt>
      <trkpt lat="45.26182" lon="6.38635">
        <ele>590.39</ele>
        <time>2016-10-04T12:41:42Z</time>
      </trkpt>
      <trkpt lat="45.2612" lon="6.3864">
        <ele>592.79</ele>
        <time>2016-10-04T12:42:02Z</time>
      </trkpt>
      <trkpt lat="45.26063" lon="6.38644">
        <ele>594.71</ele>
        <time>2016-10-04T12:42:21Z</time>
      </trkpt>
      <trkpt lat="45.25996" lon="6.38656">
        <ele>596.64</ele>
        <time>2016-10-04T12:42:43Z</time>
      </trkpt>
      <trkpt lat="45.25932" lon="6.38683">
        <ele>598.56</ele>
        <time>2016-10-04T12:43:04Z</time>
      </trkpt>
      <trkpt lat="45.2587" lon="6.38724">
        <ele>600.96</ele>
        <time>2016-10-04T12:43:26Z</time>
      </trkpt>
      <trkpt lat="45.25813" lon="6.38776">
        <ele>603.36</ele>
        <time>2016-10-04T12:43:48Z</time>
      </trkpt>
      <trkpt lat="45.25765" lon="6.38824">
        <ele>605.77</ele>
        <time>2016-10-04T12:44:08Z</time>
      </trkpt>
      <trkpt lat="45.25715" lon="6.38874">
        <ele>608.17</ele>
        <time>2016-10-04T12:44:31Z</time>
      </trkpt>
      <trkpt lat="45.25666" lon="6.38925">
        <ele>610.57</ele>
        <time>2016-10-04T12:44:53Z</time>
      </trkpt>
      <trkpt lat="45.25618" lon="6.38972">
        <ele>612.5</ele>
        <time>2016-10-04T12:45:14Z</time>
      </trkpt>
      <trkpt lat="45.25584" lon="6.39008">
        <ele>613.94</ele>
        <time>2016-10-04T12:45:30Z</time>
      </trkpt>
      <trkpt lat="45.25542" lon="6.39057">
        <ele>616.82</ele>
        <time>2016-10-04T12:45:50Z</time>
      </trkpt>
      <trkpt lat="45.25509" lon="6.3911">
        <ele>618.75</ele>
        <time>2016-10-04T12:46:09Z</time>
      </trkpt>
      <trkpt lat="45.25481" lon="6.39176">
        <ele>620.67</ele>
        <time>2016-10-04T12:46:29Z</time>
      </trkpt>
      <trkpt lat="45.2546" lon="6.39267">
        <ele>623.07</ele>
        <time>2016-10-04T12:46:53Z</time>
      </trkpt>
      <trkpt lat="45.25443" lon="6.39348">
        <ele>625.96</ele>
        <time>2016-10-04T12:47:15Z</time>
      </trkpt>
      <trkpt lat="45.25419" lon="6.39418">
        <ele>627.4</ele>
        <time>2016-10-04T12:47:36Z</time>
      </trkpt>
      <trkpt lat="45.25403" lon="6.39455">
        <ele>628.84</ele>
        <time>2016-10-04T12:47:48Z</time>
      </trkpt>
      <trkpt lat="45.25403" lon="6.39504">
        <ele>630.28</ele>
        <time>2016-10-04T12:48:01Z</time>
      </trkpt>
      <trkpt lat="45.25386" lon="6.39572">
        <ele>631.72</ele>
        <time>2016-10-04T12:48:20Z</time>
      </trkpt>
      <trkpt lat="45.25369" lon="6.39629">
        <ele>633.65</ele>
        <time>2016-10-04T12:48:36Z</time>
      </trkpt>
      <trkpt lat="45.25353" lon="6.39696">
        <ele>635.57</ele>
        <time>2016-10-04T12:48:54Z</time>
      </trkpt>
      <trkpt lat="45.25329" lon="6.39774">
        <ele>637.97</ele>
        <time>2016-10-04T12:49:16Z</time>
      </trkpt>
      <trkpt lat="45.25307" lon="6.39845">
        <ele>640.38</ele>
        <time>2016-10-04T12:49:38Z</time>
      </trkpt>
      <trkpt lat="45.25291" lon="6.39907">
        <ele>642.78</ele>
        <time>2016-10-04T12:49:57Z</time>
      </trkpt>
      <trkpt lat="45.25276" lon="6.39978">
        <ele>643.74</ele>
        <time>2016-10-04T12:50:17Z</time>
      </trkpt>
      <trkpt lat="45.25261" lon="6.40063">
        <ele>645.66</ele>
        <time>2016-10-04T12:50:39Z</time>
      </trkpt>
      <trkpt lat="45.25253" lon="6.40155">
        <ele>646.62</ele>
        <time>2016-10-04T12:50:59Z</time>
      </trkpt>
      <trkpt lat="45.2525" lon="6.40265">
        <ele>647.1</ele>
        <time>2016-10-04T12:51:18Z</time>
      </trkpt>
      <trkpt lat="45.25251" lon="6.40396">
        <ele>648.55</ele>
        <time>2016-10-04T12:51:38Z</time>
      </trkpt>
      <trkpt lat="45.2525" lon="6.40516">
        <ele>649.03</ele>
        <time>2016-10-04T12:51:57Z</time>
      </trkpt>
      <trkpt lat="45.25249" lon="6.40608">
        <ele>650.47</ele>
        <time>2016-10-04T12:52:13Z</time>
      </trkpt>
      <trkpt lat="45.25249" lon="6.40709">
        <ele>652.87</ele>
        <time>2016-10-04T12:52:34Z</time>
      </trkpt>
      <trkpt lat="45.25244" lon="6.40807">
        <ele>655.28</ele>
        <time>2016-10-04T12:52:59Z</time>
      </trkpt>
      <trkpt lat="45.25236" lon="6.40879">
        <ele>657.68</ele>
        <time>2016-10-04T12:53:21Z</time>
      </trkpt>
      <trkpt lat="45.25223" lon="6.40944">
        <ele>660.08</ele>
        <time>2016-10-04T12:53:41Z</time>
      </trkpt>
      <trkpt lat="45.25212" lon="6.41007">
        <ele>661.52</ele>
        <time>2016-10-04T12:54:00Z</time>
      </trkpt>
      <trkpt lat="45.2519" lon="6.41063">
        <ele>662.97</ele>
        <time>2016-10-04T12:54:19Z</time>
      </trkpt>
      <trkpt lat="45.25167" lon="6.41111">
        <ele>664.41</ele>
        <time>2016-10-04T12:54:37Z</time>
      </trkpt>
      <trkpt lat="45.25146" lon="6.41157">
        <ele>666.33</ele>
        <time>2016-10-04T12:54:54Z</time>
      </trkpt>
      <trkpt lat="45.2512" lon="6.41209">
        <ele>667.77</ele>
        <time>2016-10-04T12:55:13Z</time>
      </trkpt>
      <trkpt lat="45.25089" lon="6.41274">
        <ele>670.66</ele>
        <time>2016-10-04T12:55:37Z</time>
      </trkpt>
      <trkpt lat="45.25067" lon="6.41323">
        <ele>672.1</ele>
        <time>2016-10-04T12:55:55Z</time>
      </trkpt>
      <trkpt lat="45.25042" lon="6.41375">
        <ele>674.5</ele>
        <time>2016-10-04T12:56:14Z</time>
      </trkpt>
      <trkpt lat="45.25012" lon="6.41434">
        <ele>676.91</ele>
        <time>2016-10-04T12:56:36Z</time>
      </trkpt>
      <trkpt lat="45.24981" lon="6.41499">
        <ele>678.35</ele>
        <time>2016-10-04T12:56:59Z</time>
      </trkpt>
      <trkpt lat="45.24953" lon="6.41558">
        <ele>679.79</ele>
        <time>2016-10-04T12:57:18Z</time>
      </trkpt>
      <trkpt lat="45.24924" lon="6.4162">
        <ele>681.23</ele>
        <time>2016-10-04T12:57:37Z</time>
      </trkpt>
      <trkpt lat="45.2489" lon="6.41693">
        <ele>683.15</ele>
        <time>2016-10-04T12:57:58Z</time>
      </trkpt>
      <trkpt lat="45.24851" lon="6.41778">
        <ele>682.19</ele>
        <time>2016-10-04T12:58:18Z</time>
      </trkpt>
      <trkpt lat="45.24811" lon="6.41892">
        <ele>682.19</ele>
        <time>2016-10-04T12:58:39Z</time>
      </trkpt>
      <trkpt lat="45.24777" lon="6.42007">
        <ele>681.23</ele>
        <time>2016-10-04T12:58:57Z</time>
      </trkpt>
      <trkpt lat="45.24741" lon="6.42136">
        <ele>680.27</ele>
        <time>2016-10-04T12:59:14Z</time>
      </trkpt>
      <trkpt lat="45.247" lon="6.42277">
        <ele>679.31</ele>
        <time>2016-10-04T12:59:33Z</time>
      </trkpt>
      <trkpt lat="45.2467" lon="6.42378">
        <ele>676.91</ele>
        <time>2016-10-04T12:59:46Z</time>
      </trkpt>
      <trkpt lat="45.24663" lon="6.42403">
        <ele>678.35</ele>
        <time>2016-10-04T12:59:49Z</time>
      </trkpt>
      <trkpt lat="45.24601" lon="6.42618">
        <ele>676.42</ele>
        <time>2016-10-04T13:00:14Z</time>
      </trkpt>
      <trkpt lat="45.24557" lon="6.42775">
        <ele>677.39</ele>
        <time>2016-10-04T13:00:34Z</time>
      </trkpt>
      <trkpt lat="45.24506" lon="6.4293">
        <ele>678.83</ele>
        <time>2016-10-04T13:00:57Z</time>
      </trkpt>
      <trkpt lat="45.24446" lon="6.43061">
        <ele>679.79</ele>
        <time>2016-10-04T13:01:20Z</time>
      </trkpt>
      <trkpt lat="45.2437" lon="6.43174">
        <ele>680.27</ele>
        <time>2016-10-04T13:01:42Z</time>
      </trkpt>
      <trkpt lat="45.24284" lon="6.43264">
        <ele>678.35</ele>
        <time>2016-10-04T13:02:01Z</time>
      </trkpt>
      <trkpt lat="45.24274" lon="6.43273">
        <ele>677.87</ele>
        <time>2016-10-04T13:02:03Z</time>
      </trkpt>
      <trkpt lat="45.24181" lon="6.43357">
        <ele>678.83</ele>
        <time>2016-10-04T13:02:22Z</time>
      </trkpt>
      <trkpt lat="45.24084" lon="6.43448">
        <ele>678.83</ele>
        <time>2016-10-04T13:02:42Z</time>
      </trkpt>
      <trkpt lat="45.2402" lon="6.43507">
        <ele>680.75</ele>
        <time>2016-10-04T13:02:58Z</time>
      </trkpt>
      <trkpt lat="45.23953" lon="6.4357">
        <ele>682.67</ele>
        <time>2016-10-04T13:03:16Z</time>
      </trkpt>
      <trkpt lat="45.23884" lon="6.43612">
        <ele>684.12</ele>
        <time>2016-10-04T13:03:34Z</time>
      </trkpt>
      <trkpt lat="45.2382" lon="6.43635">
        <ele>683.63</ele>
        <time>2016-10-04T13:03:51Z</time>
      </trkpt>
      <trkpt lat="45.23768" lon="6.43668">
        <ele>686.52</ele>
        <time>2016-10-04T13:04:06Z</time>
      </trkpt>
      <trkpt lat="45.23715" lon="6.43725">
        <ele>686.04</ele>
        <time>2016-10-04T13:04:21Z</time>
      </trkpt>
      <trkpt lat="45.23671" lon="6.43828">
        <ele>684.12</ele>
        <time>2016-10-04T13:04:35Z</time>
      </trkpt>
      <trkpt lat="45.23648" lon="6.43963">
        <ele>685.08</ele>
        <time>2016-10-04T13:04:49Z</time>
      </trkpt>
      <trkpt lat="45.23646" lon="6.43986">
        <ele>685.56</ele>
        <time>2016-10-04T13:04:52Z</time>
      </trkpt>
      <trkpt lat="45.23627" lon="6.44088">
        <ele>687</ele>
        <time>2016-10-04T13:05:08Z</time>
      </trkpt>
      <trkpt lat="45.23623" lon="6.44104">
        <ele>688.44</ele>
        <time>2016-10-04T13:05:11Z</time>
      </trkpt>
      <trkpt lat="45.23589" lon="6.44201">
        <ele>689.88</ele>
        <time>2016-10-04T13:05:31Z</time>
      </trkpt>
      <trkpt lat="45.23531" lon="6.44285">
        <ele>689.88</ele>
        <time>2016-10-04T13:05:49Z</time>
      </trkpt>
      <trkpt lat="45.23451" lon="6.44363">
        <ele>689.4</ele>
        <time>2016-10-04T13:06:08Z</time>
      </trkpt>
      <trkpt lat="45.2335" lon="6.44453">
        <ele>690.36</ele>
        <time>2016-10-04T13:06:30Z</time>
      </trkpt>
      <trkpt lat="45.23254" lon="6.44551">
        <ele>690.36</ele>
        <time>2016-10-04T13:06:51Z</time>
      </trkpt>
      <trkpt lat="45.2318" lon="6.44645">
        <ele>690.36</ele>
        <time>2016-10-04T13:07:08Z</time>
      </trkpt>
      <trkpt lat="45.23118" lon="6.44747">
        <ele>690.36</ele>
        <time>2016-10-04T13:07:23Z</time>
      </trkpt>
      <trkpt lat="45.23068" lon="6.44826">
        <ele>689.88</ele>
        <time>2016-10-04T13:07:35Z</time>
      </trkpt>
      <trkpt lat="45.23064" lon="6.44832">
        <ele>689.88</ele>
        <time>2016-10-04T13:07:36Z</time>
      </trkpt>
      <trkpt lat="45.22984" lon="6.44909">
        <ele>691.33</ele>
        <time>2016-10-04T13:07:53Z</time>
      </trkpt>
      <trkpt lat="45.22891" lon="6.44967">
        <ele>691.81</ele>
        <time>2016-10-04T13:08:12Z</time>
      </trkpt>
      <trkpt lat="45.22779" lon="6.45008">
        <ele>691.81</ele>
        <time>2016-10-04T13:08:34Z</time>
      </trkpt>
      <trkpt lat="45.2266" lon="6.45026">
        <ele>692.77</ele>
        <time>2016-10-04T13:08:55Z</time>
      </trkpt>
      <trkpt lat="45.22544" lon="6.45034">
        <ele>693.73</ele>
        <time>2016-10-04T13:09:17Z</time>
      </trkpt>
      <trkpt lat="45.2246" lon="6.45044">
        <ele>695.65</ele>
        <time>2016-10-04T13:09:35Z</time>
      </trkpt>
      <trkpt lat="45.22412" lon="6.45056">
        <ele>698.53</ele>
        <time>2016-10-04T13:09:51Z</time>
      </trkpt>
      <trkpt lat="45.22356" lon="6.45081">
        <ele>700.94</ele>
        <time>2016-10-04T13:10:14Z</time>
      </trkpt>
      <trkpt lat="45.22308" lon="6.45113">
        <ele>702.38</ele>
        <time>2016-10-04T13:10:33Z</time>
      </trkpt>
      <trkpt lat="45.22281" lon="6.45159">
        <ele>702.38</ele>
        <time>2016-10-04T13:10:45Z</time>
      </trkpt>
      <trkpt lat="45.22249" lon="6.45238">
        <ele>700.94</ele>
        <time>2016-10-04T13:10:58Z</time>
      </trkpt>
      <trkpt lat="45.22239" lon="6.45262">
        <ele>699.5</ele>
        <time>2016-10-04T13:11:01Z</time>
      </trkpt>
      <trkpt lat="45.22172" lon="6.45373">
        <ele>697.57</ele>
        <time>2016-10-04T13:11:15Z</time>
      </trkpt>
      <trkpt lat="45.22105" lon="6.45507">
        <ele>698.53</ele>
        <time>2016-10-04T13:11:32Z</time>
      </trkpt>
      <trkpt lat="45.22094" lon="6.45538">
        <ele>699.5</ele>
        <time>2016-10-04T13:11:36Z</time>
      </trkpt>
      <trkpt lat="45.22088" lon="6.45563">
        <ele>699.02</ele>
        <time>2016-10-04T13:11:39Z</time>
      </trkpt>
      <trkpt lat="45.22078" lon="6.45635">
        <ele>698.53</ele>
        <time>2016-10-04T13:11:48Z</time>
      </trkpt>
      <trkpt lat="45.22077" lon="6.45642">
        <ele>699.5</ele>
        <time>2016-10-04T13:11:49Z</time>
      </trkpt>
      <trkpt lat="45.22061" lon="6.45796">
        <ele>699.98</ele>
        <time>2016-10-04T13:12:10Z</time>
      </trkpt>
      <trkpt lat="45.2205" lon="6.45906">
        <ele>700.94</ele>
        <time>2016-10-04T13:12:26Z</time>
      </trkpt>
      <trkpt lat="45.22043" lon="6.46022">
        <ele>702.38</ele>
        <time>2016-10-04T13:12:44Z</time>
      </trkpt>
      <trkpt lat="45.22033" lon="6.46086">
        <ele>702.38</ele>
        <time>2016-10-04T13:12:56Z</time>
      </trkpt>
      <trkpt lat="45.22012" lon="6.4619">
        <ele>703.34</ele>
        <time>2016-10-04T13:13:13Z</time>
      </trkpt>
      <trkpt lat="45.22" lon="6.46262">
        <ele>703.82</ele>
        <time>2016-10-04T13:13:26Z</time>
      </trkpt>
      <trkpt lat="45.21992" lon="6.46345">
        <ele>703.82</ele>
        <time>2016-10-04T13:13:40Z</time>
      </trkpt>
      <trkpt lat="45.21987" lon="6.46428">
        <ele>704.3</ele>
        <time>2016-10-04T13:13:55Z</time>
      </trkpt>
      <trkpt lat="45.2197" lon="6.46494">
        <ele>705.26</ele>
        <time>2016-10-04T13:14:07Z</time>
      </trkpt>
      <trkpt lat="45.21974" lon="6.46549">
        <ele>705.75</ele>
        <time>2016-10-04T13:14:17Z</time>
      </trkpt>
      <trkpt lat="45.21964" lon="6.46631">
        <ele>707.19</ele>
        <time>2016-10-04T13:14:33Z</time>
      </trkpt>
      <trkpt lat="45.21955" lon="6.46727">
        <ele>708.63</ele>
        <time>2016-10-04T13:14:51Z</time>
      </trkpt>
      <trkpt lat="45.21944" lon="6.46817">
        <ele>709.59</ele>
        <time>2016-10-04T13:15:08Z</time>
      </trkpt>
      <trkpt lat="45.2193" lon="6.46908">
        <ele>710.55</ele>
        <time>2016-10-04T13:15:26Z</time>
      </trkpt>
      <trkpt lat="45.21893" lon="6.46962">
        <ele>711.03</ele>
        <time>2016-10-04T13:15:42Z</time>
      </trkpt>
      <trkpt lat="45.21858" lon="6.47014">
        <ele>711.51</ele>
        <time>2016-10-04T13:15:56Z</time>
      </trkpt>
      <trkpt lat="45.21823" lon="6.47068">
        <ele>711.99</ele>
        <time>2016-10-04T13:16:10Z</time>
      </trkpt>
      <trkpt lat="45.21791" lon="6.47113">
        <ele>712.47</ele>
        <time>2016-10-04T13:16:22Z</time>
      </trkpt>
      <trkpt lat="45.2175" lon="6.47163">
        <ele>712.95</ele>
        <time>2016-10-04T13:16:36Z</time>
      </trkpt>
      <trkpt lat="45.21723" lon="6.47214">
        <ele>713.92</ele>
        <time>2016-10-04T13:16:51Z</time>
      </trkpt>
      <trkpt lat="45.21709" lon="6.47238">
        <ele>714.4</ele>
        <time>2016-10-04T13:17:03Z</time>
      </trkpt>
      <trkpt lat="45.21699" lon="6.47256">
        <ele>714.4</ele>
        <time>2016-10-04T13:17:09Z</time>
      </trkpt>
      <trkpt lat="45.21693" lon="6.47278">
        <ele>714.88</ele>
        <time>2016-10-04T13:17:16Z</time>
      </trkpt>
      <trkpt lat="45.21694" lon="6.47281">
        <ele>714.88</ele>
        <time>2016-10-04T13:17:17Z</time>
      </trkpt>
      <trkpt lat="45.21705" lon="6.47299">
        <ele>714.88</ele>
        <time>2016-10-04T13:17:25Z</time>
      </trkpt>
      <trkpt lat="45.21701" lon="6.47306">
        <ele>715.36</ele>
        <time>2016-10-04T13:17:34Z</time>
      </trkpt>
      <trkpt lat="45.217" lon="6.47305">
        <ele>715.36</ele>
        <time>2016-10-04T13:17:35Z</time>
      </trkpt>
      <trkpt lat="45.21694" lon="6.47298">
        <ele>715.84</ele>
        <time>2016-10-04T13:17:47Z</time>
      </trkpt>
      <trkpt lat="45.21695" lon="6.47294">
        <ele>715.36</ele>
        <time>2016-10-04T13:18:03Z</time>
      </trkpt>
      <trkpt lat="45.21693" lon="6.47295">
        <ele>715.84</ele>
        <time>2016-10-04T13:18:30Z</time>
      </trkpt>
      <trkpt lat="45.2169" lon="6.47297">
        <ele>715.36</ele>
        <time>2016-10-04T13:19:01Z</time>
      </trkpt>
      <trkpt lat="45.21691" lon="6.47296">
        <ele>715.36</ele>
        <time>2016-10-04T13:19:24Z</time>
      </trkpt>
      <trkpt lat="45.21693" lon="6.47299">
        <ele>715.36</ele>
        <time>2016-10-04T13:19:56Z</time>
      </trkpt>
      <trkpt lat="45.21697" lon="6.47292">
        <ele>715.84</ele>
        <time>2016-10-04T13:20:28Z</time>
      </trkpt>
      <trkpt lat="45.21697" lon="6.47294">
        <ele>715.36</ele>
        <time>2016-10-04T13:20:54Z</time>
      </trkpt>
      <trkpt lat="45.21702" lon="6.47292">
        <ele>715.36</ele>
        <time>2016-10-04T13:21:23Z</time>
      </trkpt>
      <trkpt lat="45.21703" lon="6.47297">
        <ele>715.36</ele>
        <time>2016-10-04T13:21:53Z</time>
      </trkpt>
      <trkpt lat="45.21699" lon="6.47297">
        <ele>715.84</ele>
        <time>2016-10-04T13:22:20Z</time>
      </trkpt>
      <trkpt lat="45.21696" lon="6.47299">
        <ele>715.36</ele>
        <time>2016-10-04T13:22:54Z</time>
      </trkpt>
      <trkpt lat="45.21691" lon="6.47295">
        <ele>715.84</ele>
        <time>2016-10-04T13:23:22Z</time>
      </trkpt>
      <trkpt lat="45.21694" lon="6.47291">
        <ele>715.84</ele>
        <time>2016-10-04T13:23:50Z</time>
      </trkpt>
      <trkpt lat="45.21699" lon="6.47292">
        <ele>715.84</ele>
        <time>2016-10-04T13:24:18Z</time>
      </trkpt>
      <trkpt lat="45.21698" lon="6.4729">
        <ele>715.84</ele>
        <time>2016-10-04T13:24:47Z</time>
      </trkpt>
      <trkpt lat="45.21695" lon="6.47293">
        <ele>715.36</ele>
        <time>2016-10-04T13:25:15Z</time>
      </trkpt>
      <trkpt lat="45.2169" lon="6.47293">
        <ele>715.36</ele>
        <time>2016-10-04T13:25:48Z</time>
      </trkpt>
      <trkpt lat="45.21696" lon="6.47303">
        <ele>716.32</ele>
        <time>2016-10-04T13:26:28Z</time>
      </trkpt>
      <trkpt lat="45.21696" lon="6.473">
        <ele>716.32</ele>
        <time>2016-10-04T13:27:02Z</time>
      </trkpt>
      <trkpt lat="45.21697" lon="6.47294">
        <ele>716.8</ele>
        <time>2016-10-04T13:27:32Z</time>
      </trkpt>
      <trkpt lat="45.21693" lon="6.47298">
        <ele>716.8</ele>
        <time>2016-10-04T13:28:06Z</time>
      </trkpt>
      <trkpt lat="45.21691" lon="6.47298">
        <ele>716.32</ele>
        <time>2016-10-04T13:28:41Z</time>
      </trkpt>
      <trkpt lat="45.21692" lon="6.47298">
        <ele>717.28</ele>
        <time>2016-10-04T13:28:42Z</time>
      </trkpt>
      <trkpt lat="45.21692" lon="6.47299">
        <ele>716.8</ele>
        <time>2016-10-04T13:28:43Z</time>
      </trkpt>
      <trkpt lat="45.21692" lon="6.47301">
        <ele>716.8</ele>
        <time>2016-10-04T13:28:55Z</time>
      </trkpt>
      <trkpt lat="45.21696" lon="6.47303">
        <ele>716.32</ele>
        <time>2016-10-04T13:29:04Z</time>
      </trkpt>
      <trkpt lat="45.21698" lon="6.47305">
        <ele>716.8</ele>
        <time>2016-10-04T13:29:06Z</time>
      </trkpt>
      <trkpt lat="45.21701" lon="6.47315">
        <ele>716.32</ele>
        <time>2016-10-04T13:29:11Z</time>
      </trkpt>
      <trkpt lat="45.21704" lon="6.47305">
        <ele>716.8</ele>
        <time>2016-10-04T13:29:14Z</time>
      </trkpt>
      <trkpt lat="45.21703" lon="6.47302">
        <ele>716.32</ele>
        <time>2016-10-04T13:29:15Z</time>
      </trkpt>
      <trkpt lat="45.21702" lon="6.473">
        <ele>716.8</ele>
        <time>2016-10-04T13:29:16Z</time>
      </trkpt>
      <trkpt lat="45.21701" lon="6.47297">
        <ele>715.84</ele>
        <time>2016-10-04T13:29:17Z</time>
      </trkpt>
      <trkpt lat="45.217" lon="6.47294">
        <ele>716.32</ele>
        <time>2016-10-04T13:29:18Z</time>
      </trkpt>
      <trkpt lat="45.21699" lon="6.47292">
        <ele>716.32</ele>
        <time>2016-10-04T13:29:19Z</time>
      </trkpt>
      <trkpt lat="45.21699" lon="6.47291">
        <ele>715.84</ele>
        <time>2016-10-04T13:29:20Z</time>
      </trkpt>
      <trkpt lat="45.217" lon="6.47283">
        <ele>715.84</ele>
        <time>2016-10-04T13:29:22Z</time>
      </trkpt>
      <trkpt lat="45.21704" lon="6.47274">
        <ele>715.84</ele>
        <time>2016-10-04T13:29:26Z</time>
      </trkpt>
      <trkpt lat="45.21704" lon="6.47272">
        <ele>715.84</ele>
        <time>2016-10-04T13:29:27Z</time>
      </trkpt>
      <trkpt lat="45.21704" lon="6.47272">
        <ele>715.84</ele>
        <time>2016-10-04T13:29:43Z</time>
      </trkpt>
      <trkpt lat="45.21705" lon="6.47269">
        <ele>715.84</ele>
        <time>2016-10-04T13:29:49Z</time>
      </trkpt>
      <trkpt lat="45.21704" lon="6.47269">
        <ele>715.84</ele>
        <time>2016-10-04T13:29:50Z</time>
      </trkpt>
      <trkpt lat="45.21702" lon="6.4727">
        <ele>715.84</ele>
        <time>2016-10-04T13:29:51Z</time>
      </trkpt>
      <trkpt lat="45.21701" lon="6.4727">
        <ele>715.36</ele>
        <time>2016-10-04T13:29:52Z</time>
      </trkpt>
      <trkpt lat="45.217" lon="6.47272">
        <ele>715.84</ele>
        <time>2016-10-04T13:29:53Z</time>
      </trkpt>
      <trkpt lat="45.21699" lon="6.47274">
        <ele>715.84</ele>
        <time>2016-10-04T13:29:54Z</time>
      </trkpt>
      <trkpt lat="45.21698" lon="6.47275">
        <ele>715.84</ele>
        <time>2016-10-04T13:29:55Z</time>
      </trkpt>
      <trkpt lat="45.21697" lon="6.47276">
        <ele>716.32</ele>
        <time>2016-10-04T13:29:56Z</time>
      </trkpt>
      <trkpt lat="45.21683" lon="6.47293">
        <ele>716.32</ele>
        <time>2016-10-04T13:30:05Z</time>
      </trkpt>
      <trkpt lat="45.21653" lon="6.47321">
        <ele>717.28</ele>
        <time>2016-10-04T13:30:18Z</time>
      </trkpt>
      <trkpt lat="45.21631" lon="6.47355">
        <ele>718.24</ele>
        <time>2016-10-04T13:30:30Z</time>
      </trkpt>
      <trkpt lat="45.21607" lon="6.47405">
        <ele>718.72</ele>
        <time>2016-10-04T13:30:44Z</time>
      </trkpt>
      <trkpt lat="45.21586" lon="6.4746">
        <ele>719.2</ele>
        <time>2016-10-04T13:30:58Z</time>
      </trkpt>
      <trkpt lat="45.21559" lon="6.475">
        <ele>718.72</ele>
        <time>2016-10-04T13:31:09Z</time>
      </trkpt>
      <trkpt lat="45.21558" lon="6.47503">
        <ele>719.68</ele>
        <time>2016-10-04T13:31:10Z</time>
      </trkpt>
      <trkpt lat="45.21557" lon="6.47505">
        <ele>719.2</ele>
        <time>2016-10-04T13:31:11Z</time>
      </trkpt>
      <trkpt lat="45.21556" lon="6.47507">
        <ele>719.68</ele>
        <time>2016-10-04T13:31:12Z</time>
      </trkpt>
      <trkpt lat="45.21553" lon="6.47509">
        <ele>720.65</ele>
        <time>2016-10-04T13:31:13Z</time>
      </trkpt>
      <trkpt lat="45.21551" lon="6.47511">
        <ele>720.65</ele>
        <time>2016-10-04T13:31:14Z</time>
      </trkpt>
      <trkpt lat="45.215" lon="6.47568">
        <ele>721.13</ele>
        <time>2016-10-04T13:31:31Z</time>
      </trkpt>
      <trkpt lat="45.21467" lon="6.47609">
        <ele>721.13</ele>
        <time>2016-10-04T13:31:43Z</time>
      </trkpt>
      <trkpt lat="45.2142" lon="6.47653">
        <ele>721.61</ele>
        <time>2016-10-04T13:31:58Z</time>
      </trkpt>
      <trkpt lat="45.21392" lon="6.47674">
        <ele>722.09</ele>
        <time>2016-10-04T13:32:07Z</time>
      </trkpt>
      <trkpt lat="45.21376" lon="6.47689">
        <ele>721.61</ele>
        <time>2016-10-04T13:32:12Z</time>
      </trkpt>
      <trkpt lat="45.21373" lon="6.47691">
        <ele>721.61</ele>
        <time>2016-10-04T13:32:13Z</time>
      </trkpt>
      <trkpt lat="45.21369" lon="6.47693">
        <ele>722.09</ele>
        <time>2016-10-04T13:32:14Z</time>
      </trkpt>
      <trkpt lat="45.21366" lon="6.47694">
        <ele>722.57</ele>
        <time>2016-10-04T13:32:15Z</time>
      </trkpt>
      <trkpt lat="45.21363" lon="6.47695">
        <ele>722.57</ele>
        <time>2016-10-04T13:32:16Z</time>
      </trkpt>
      <trkpt lat="45.2136" lon="6.47698">
        <ele>723.05</ele>
        <time>2016-10-04T13:32:17Z</time>
      </trkpt>
      <trkpt lat="45.21356" lon="6.47701">
        <ele>722.57</ele>
        <time>2016-10-04T13:32:18Z</time>
      </trkpt>
      <trkpt lat="45.21353" lon="6.47703">
        <ele>722.57</ele>
        <time>2016-10-04T13:32:19Z</time>
      </trkpt>
      <trkpt lat="45.21302" lon="6.47739">
        <ele>724.01</ele>
        <time>2016-10-04T13:32:35Z</time>
      </trkpt>
      <trkpt lat="45.21266" lon="6.47768">
        <ele>724.49</ele>
        <time>2016-10-04T13:32:47Z</time>
      </trkpt>
      <trkpt lat="45.21218" lon="6.47799">
        <ele>725.93</ele>
        <time>2016-10-04T13:33:03Z</time>
      </trkpt>
      <trkpt lat="45.21172" lon="6.4783">
        <ele>725.93</ele>
        <time>2016-10-04T13:33:19Z</time>
      </trkpt>
      <trkpt lat="45.21134" lon="6.47853">
        <ele>727.86</ele>
        <time>2016-10-04T13:33:32Z</time>
      </trkpt>
      <trkpt lat="45.21106" lon="6.47874">
        <ele>728.82</ele>
        <time>2016-10-04T13:33:42Z</time>
      </trkpt>
      <trkpt lat="45.2107" lon="6.47899">
        <ele>730.26</ele>
        <time>2016-10-04T13:33:56Z</time>
      </trkpt>
      <trkpt lat="45.21042" lon="6.47927">
        <ele>732.18</ele>
        <time>2016-10-04T13:34:10Z</time>
      </trkpt>
      <trkpt lat="45.21029" lon="6.47947">
        <ele>733.62</ele>
        <time>2016-10-04T13:34:20Z</time>
      </trkpt>
      <trkpt lat="45.21016" lon="6.47992">
        <ele>734.1</ele>
        <time>2016-10-04T13:34:34Z</time>
      </trkpt>
      <trkpt lat="45.2102" lon="6.48047">
        <ele>735.07</ele>
        <time>2016-10-04T13:34:49Z</time>
      </trkpt>
      <trkpt lat="45.21037" lon="6.48108">
        <ele>736.51</ele>
        <time>2016-10-04T13:35:06Z</time>
      </trkpt>
      <trkpt lat="45.21052" lon="6.48176">
        <ele>737.95</ele>
        <time>2016-10-04T13:35:25Z</time>
      </trkpt>
      <trkpt lat="45.21065" lon="6.48251">
        <ele>740.35</ele>
        <time>2016-10-04T13:35:47Z</time>
      </trkpt>
      <trkpt lat="45.21068" lon="6.483">
        <ele>742.28</ele>
        <time>2016-10-04T13:36:03Z</time>
      </trkpt>
      <trkpt lat="45.2107" lon="6.4836">
        <ele>744.68</ele>
        <time>2016-10-04T13:36:25Z</time>
      </trkpt>
      <trkpt lat="45.21072" lon="6.48408">
        <ele>747.08</ele>
        <time>2016-10-04T13:36:43Z</time>
      </trkpt>
      <trkpt lat="45.21072" lon="6.48461">
        <ele>748.52</ele>
        <time>2016-10-04T13:37:02Z</time>
      </trkpt>
      <trkpt lat="45.2106" lon="6.48515">
        <ele>749.97</ele>
        <time>2016-10-04T13:37:20Z</time>
      </trkpt>
      <trkpt lat="45.21038" lon="6.4857">
        <ele>750.93</ele>
        <time>2016-10-04T13:37:37Z</time>
      </trkpt>
      <trkpt lat="45.21019" lon="6.48634">
        <ele>751.41</ele>
        <time>2016-10-04T13:37:53Z</time>
      </trkpt>
      <trkpt lat="45.2101" lon="6.48694">
        <ele>752.37</ele>
        <time>2016-10-04T13:38:07Z</time>
      </trkpt>
      <trkpt lat="45.21008" lon="6.48783">
        <ele>752.37</ele>
        <time>2016-10-04T13:38:24Z</time>
      </trkpt>
      <trkpt lat="45.21012" lon="6.48835">
        <ele>752.85</ele>
        <time>2016-10-04T13:38:33Z</time>
      </trkpt>
      <trkpt lat="45.21013" lon="6.48841">
        <ele>752.85</ele>
        <time>2016-10-04T13:38:34Z</time>
      </trkpt>
      <trkpt lat="45.21014" lon="6.48847">
        <ele>752.85</ele>
        <time>2016-10-04T13:38:35Z</time>
      </trkpt>
      <trkpt lat="45.21029" lon="6.48953">
        <ele>753.33</ele>
        <time>2016-10-04T13:38:53Z</time>
      </trkpt>
      <trkpt lat="45.21041" lon="6.49043">
        <ele>754.77</ele>
        <time>2016-10-04T13:39:10Z</time>
      </trkpt>
      <trkpt lat="45.21052" lon="6.49103">
        <ele>756.69</ele>
        <time>2016-10-04T13:39:28Z</time>
      </trkpt>
      <trkpt lat="45.21059" lon="6.49156">
        <ele>758.14</ele>
        <time>2016-10-04T13:39:43Z</time>
      </trkpt>
      <trkpt lat="45.21062" lon="6.49226">
        <ele>759.58</ele>
        <time>2016-10-04T13:40:02Z</time>
      </trkpt>
      <trkpt lat="45.21066" lon="6.49281">
        <ele>761.02</ele>
        <time>2016-10-04T13:40:17Z</time>
      </trkpt>
      <trkpt lat="45.21068" lon="6.49342">
        <ele>763.9</ele>
        <time>2016-10-04T13:40:34Z</time>
      </trkpt>
      <trkpt lat="45.21069" lon="6.49412">
        <ele>765.35</ele>
        <time>2016-10-04T13:40:53Z</time>
      </trkpt>
      <trkpt lat="45.21072" lon="6.49491">
        <ele>765.83</ele>
        <time>2016-10-04T13:41:14Z</time>
      </trkpt>
      <trkpt lat="45.21076" lon="6.49562">
        <ele>768.23</ele>
        <time>2016-10-04T13:41:33Z</time>
      </trkpt>
      <trkpt lat="45.21078" lon="6.49639">
        <ele>769.19</ele>
        <time>2016-10-04T13:41:53Z</time>
      </trkpt>
      <trkpt lat="45.2108" lon="6.49701">
        <ele>771.11</ele>
        <time>2016-10-04T13:42:09Z</time>
      </trkpt>
      <trkpt lat="45.21082" lon="6.49784">
        <ele>772.56</ele>
        <time>2016-10-04T13:42:31Z</time>
      </trkpt>
      <trkpt lat="45.21085" lon="6.49859">
        <ele>774</ele>
        <time>2016-10-04T13:42:51Z</time>
      </trkpt>
      <trkpt lat="45.21087" lon="6.49933">
        <ele>775.92</ele>
        <time>2016-10-04T13:43:11Z</time>
      </trkpt>
      <trkpt lat="45.21088" lon="6.49986">
        <ele>776.4</ele>
        <time>2016-10-04T13:43:25Z</time>
      </trkpt>
      <trkpt lat="45.21089" lon="6.50059">
        <ele>778.32</ele>
        <time>2016-10-04T13:43:45Z</time>
      </trkpt>
      <trkpt lat="45.21091" lon="6.5013">
        <ele>780.73</ele>
        <time>2016-10-04T13:44:05Z</time>
      </trkpt>
      <trkpt lat="45.21095" lon="6.50188">
        <ele>782.65</ele>
        <time>2016-10-04T13:44:24Z</time>
      </trkpt>
      <trkpt lat="45.21101" lon="6.50252">
        <ele>784.09</ele>
        <time>2016-10-04T13:44:46Z</time>
      </trkpt>
      <trkpt lat="45.21101" lon="6.50304">
        <ele>786.02</ele>
        <time>2016-10-04T13:45:03Z</time>
      </trkpt>
      <trkpt lat="45.21104" lon="6.50371">
        <ele>787.94</ele>
        <time>2016-10-04T13:45:25Z</time>
      </trkpt>
      <trkpt lat="45.21105" lon="6.50425">
        <ele>789.38</ele>
        <time>2016-10-04T13:45:43Z</time>
      </trkpt>
      <trkpt lat="45.21107" lon="6.50462">
        <ele>790.34</ele>
        <time>2016-10-04T13:45:55Z</time>
      </trkpt>
      <trkpt lat="45.21112" lon="6.50508">
        <ele>791.78</ele>
        <time>2016-10-04T13:46:10Z</time>
      </trkpt>
      <trkpt lat="45.21113" lon="6.50572">
        <ele>794.67</ele>
        <time>2016-10-04T13:46:31Z</time>
      </trkpt>
      <trkpt lat="45.21111" lon="6.50629">
        <ele>796.11</ele>
        <time>2016-10-04T13:46:50Z</time>
      </trkpt>
      <trkpt lat="45.21108" lon="6.5068">
        <ele>797.55</ele>
        <time>2016-10-04T13:47:09Z</time>
      </trkpt>
      <trkpt lat="45.21106" lon="6.50736">
        <ele>799.95</ele>
        <time>2016-10-04T13:47:30Z</time>
      </trkpt>
      <trkpt lat="45.21104" lon="6.50784">
        <ele>801.4</ele>
        <time>2016-10-04T13:47:48Z</time>
      </trkpt>
      <trkpt lat="45.21103" lon="6.50834">
        <ele>802.84</ele>
        <time>2016-10-04T13:48:07Z</time>
      </trkpt>
      <trkpt lat="45.21104" lon="6.50852">
        <ele>804.28</ele>
        <time>2016-10-04T13:48:14Z</time>
      </trkpt>
      <trkpt lat="45.21103" lon="6.50855">
        <ele>803.8</ele>
        <time>2016-10-04T13:48:15Z</time>
      </trkpt>
      <trkpt lat="45.21098" lon="6.50898">
        <ele>805.72</ele>
        <time>2016-10-04T13:48:31Z</time>
      </trkpt>
      <trkpt lat="45.21094" lon="6.50943">
        <ele>807.16</ele>
        <time>2016-10-04T13:48:49Z</time>
      </trkpt>
      <trkpt lat="45.21088" lon="6.50974">
        <ele>808.61</ele>
        <time>2016-10-04T13:49:03Z</time>
      </trkpt>
      <trkpt lat="45.2108" lon="6.51006">
        <ele>810.53</ele>
        <time>2016-10-04T13:49:17Z</time>
      </trkpt>
      <trkpt lat="45.21072" lon="6.51042">
        <ele>812.45</ele>
        <time>2016-10-04T13:49:34Z</time>
      </trkpt>
      <trkpt lat="45.21063" lon="6.51073">
        <ele>812.93</ele>
        <time>2016-10-04T13:49:49Z</time>
      </trkpt>
      <trkpt lat="45.2105" lon="6.51109">
        <ele>814.85</ele>
        <time>2016-10-04T13:50:06Z</time>
      </trkpt>
      <trkpt lat="45.21035" lon="6.51147">
        <ele>816.3</ele>
        <time>2016-10-04T13:50:24Z</time>
      </trkpt>
      <trkpt lat="45.21019" lon="6.51188">
        <ele>817.74</ele>
        <time>2016-10-04T13:50:42Z</time>
      </trkpt>
      <trkpt lat="45.21001" lon="6.51231">
        <ele>820.14</ele>
        <time>2016-10-04T13:50:59Z</time>
      </trkpt>
      <trkpt lat="45.20999" lon="6.51265">
        <ele>821.1</ele>
        <time>2016-10-04T13:51:11Z</time>
      </trkpt>
      <trkpt lat="45.20991" lon="6.51305">
        <ele>822.55</ele>
        <time>2016-10-04T13:51:25Z</time>
      </trkpt>
      <trkpt lat="45.20979" lon="6.51337">
        <ele>823.51</ele>
        <time>2016-10-04T13:51:37Z</time>
      </trkpt>
      <trkpt lat="45.20975" lon="6.5139">
        <ele>824.95</ele>
        <time>2016-10-04T13:51:54Z</time>
      </trkpt>
      <trkpt lat="45.20974" lon="6.51448">
        <ele>825.43</ele>
        <time>2016-10-04T13:52:12Z</time>
      </trkpt>
      <trkpt lat="45.20971" lon="6.51481">
        <ele>825.91</ele>
        <time>2016-10-04T13:52:27Z</time>
      </trkpt>
      <trkpt lat="45.20976" lon="6.51484">
        <ele>826.39</ele>
        <time>2016-10-04T13:52:52Z</time>
      </trkpt>
      <trkpt lat="45.20979" lon="6.51511">
        <ele>827.35</ele>
        <time>2016-10-04T13:53:06Z</time>
      </trkpt>
      <trkpt lat="45.20966" lon="6.5157">
        <ele>827.35</ele>
        <time>2016-10-04T13:53:20Z</time>
      </trkpt>
      <trkpt lat="45.20948" lon="6.51633">
        <ele>828.31</ele>
        <time>2016-10-04T13:53:36Z</time>
      </trkpt>
      <trkpt lat="45.20921" lon="6.51702">
        <ele>829.76</ele>
        <time>2016-10-04T13:53:53Z</time>
      </trkpt>
      <trkpt lat="45.20917" lon="6.51769">
        <ele>829.76</ele>
        <time>2016-10-04T13:54:05Z</time>
      </trkpt>
      <trkpt lat="45.20915" lon="6.51847">
        <ele>828.79</ele>
        <time>2016-10-04T13:54:17Z</time>
      </trkpt>
      <trkpt lat="45.20904" lon="6.51884">
        <ele>829.27</ele>
        <time>2016-10-04T13:54:28Z</time>
      </trkpt>
      <trkpt lat="45.20907" lon="6.51878">
        <ele>829.27</ele>
        <time>2016-10-04T13:54:47Z</time>
      </trkpt>
      <trkpt lat="45.20911" lon="6.51879">
        <ele>828.79</ele>
        <time>2016-10-04T13:55:20Z</time>
      </trkpt>
      <trkpt lat="45.20912" lon="6.51872">
        <ele>829.27</ele>
        <time>2016-10-04T13:55:49Z</time>
      </trkpt>
      <trkpt lat="45.20916" lon="6.51873">
        <ele>828.31</ele>
        <time>2016-10-04T13:56:16Z</time>
      </trkpt>
      <trkpt lat="45.20915" lon="6.51884">
        <ele>828.79</ele>
        <time>2016-10-04T13:56:49Z</time>
      </trkpt>
      <trkpt lat="45.20916" lon="6.51881">
        <ele>828.79</ele>
        <time>2016-10-04T13:57:17Z</time>
      </trkpt>
      <trkpt lat="45.20911" lon="6.5188">
        <ele>828.79</ele>
        <time>2016-10-04T13:57:42Z</time>
      </trkpt>
      <trkpt lat="45.20915" lon="6.5188">
        <ele>829.27</ele>
        <time>2016-10-04T13:58:11Z</time>
      </trkpt>
      <trkpt lat="45.20915" lon="6.51877">
        <ele>828.79</ele>
        <time>2016-10-04T13:58:30Z</time>
      </trkpt>
      <trkpt lat="45.20914" lon="6.51883">
        <ele>829.27</ele>
        <time>2016-10-04T13:58:38Z</time>
      </trkpt>
      <trkpt lat="45.20913" lon="6.51885">
        <ele>829.27</ele>
        <time>2016-10-04T13:58:39Z</time>
      </trkpt>
      <trkpt lat="45.20892" lon="6.51926">
        <ele>829.27</ele>
        <time>2016-10-04T13:58:54Z</time>
      </trkpt>
      <trkpt lat="45.20869" lon="6.51974">
        <ele>830.24</ele>
        <time>2016-10-04T13:59:08Z</time>
      </trkpt>
      <trkpt lat="45.20838" lon="6.52041">
        <ele>830.72</ele>
        <time>2016-10-04T13:59:24Z</time>
      </trkpt>
      <trkpt lat="45.20813" lon="6.5212">
        <ele>830.24</ele>
        <time>2016-10-04T13:59:40Z</time>
      </trkpt>
      <trkpt lat="45.20807" lon="6.52154">
        <ele>830.72</ele>
        <time>2016-10-04T13:59:46Z</time>
      </trkpt>
      <trkpt lat="45.20807" lon="6.5216">
        <ele>830.72</ele>
        <time>2016-10-04T13:59:47Z</time>
      </trkpt>
      <trkpt lat="45.20807" lon="6.52167">
        <ele>831.2</ele>
        <time>2016-10-04T13:59:48Z</time>
      </trkpt>
      <trkpt lat="45.20803" lon="6.52185">
        <ele>830.24</ele>
        <time>2016-10-04T13:59:51Z</time>
      </trkpt>
      <trkpt lat="45.20795" lon="6.52266">
        <ele>830.72</ele>
        <time>2016-10-04T14:00:04Z</time>
      </trkpt>
      <trkpt lat="45.20794" lon="6.52272">
        <ele>830.72</ele>
        <time>2016-10-04T14:00:05Z</time>
      </trkpt>
      <trkpt lat="45.2079" lon="6.52296">
        <ele>831.2</ele>
        <time>2016-10-04T14:00:09Z</time>
      </trkpt>
      <trkpt lat="45.2079" lon="6.52302">
        <ele>830.72</ele>
        <time>2016-10-04T14:00:10Z</time>
      </trkpt>
      <trkpt lat="45.20789" lon="6.52308">
        <ele>830.72</ele>
        <time>2016-10-04T14:00:11Z</time>
      </trkpt>
      <trkpt lat="45.20778" lon="6.52401">
        <ele>830.72</ele>
        <time>2016-10-04T14:00:27Z</time>
      </trkpt>
      <trkpt lat="45.20775" lon="6.52425">
        <ele>830.72</ele>
        <time>2016-10-04T14:00:31Z</time>
      </trkpt>
      <trkpt lat="45.20774" lon="6.52432">
        <ele>830.72</ele>
        <time>2016-10-04T14:00:32Z</time>
      </trkpt>
      <trkpt lat="45.20766" lon="6.52541">
        <ele>831.68</ele>
        <time>2016-10-04T14:00:50Z</time>
      </trkpt>
      <trkpt lat="45.20763" lon="6.52561">
        <ele>831.2</ele>
        <time>2016-10-04T14:00:53Z</time>
      </trkpt>
      <trkpt lat="45.20763" lon="6.52568">
        <ele>832.16</ele>
        <time>2016-10-04T14:00:54Z</time>
      </trkpt>
      <trkpt lat="45.20762" lon="6.52574">
        <ele>831.2</ele>
        <time>2016-10-04T14:00:55Z</time>
      </trkpt>
      <trkpt lat="45.20772" lon="6.52684">
        <ele>832.64</ele>
        <time>2016-10-04T14:01:14Z</time>
      </trkpt>
      <trkpt lat="45.20774" lon="6.5276">
        <ele>833.12</ele>
        <time>2016-10-04T14:01:29Z</time>
      </trkpt>
      <trkpt lat="45.20775" lon="6.52839">
        <ele>835.04</ele>
        <time>2016-10-04T14:01:45Z</time>
      </trkpt>
      <trkpt lat="45.20777" lon="6.52943">
        <ele>836.48</ele>
        <time>2016-10-04T14:02:08Z</time>
      </trkpt>
      <trkpt lat="45.20779" lon="6.53018">
        <ele>837.45</ele>
        <time>2016-10-04T14:02:25Z</time>
      </trkpt>
      <trkpt lat="45.20769" lon="6.53103">
        <ele>839.85</ele>
        <time>2016-10-04T14:02:46Z</time>
      </trkpt>
      <trkpt lat="45.20757" lon="6.53167">
        <ele>841.29</ele>
        <time>2016-10-04T14:03:03Z</time>
      </trkpt>
      <trkpt lat="45.20749" lon="6.5323">
        <ele>842.25</ele>
        <time>2016-10-04T14:03:19Z</time>
      </trkpt>
      <trkpt lat="45.20752" lon="6.53293">
        <ele>844.18</ele>
        <time>2016-10-04T14:03:35Z</time>
      </trkpt>
      <trkpt lat="45.20759" lon="6.53374">
        <ele>845.14</ele>
        <time>2016-10-04T14:03:57Z</time>
      </trkpt>
      <trkpt lat="45.20766" lon="6.53435">
        <ele>846.1</ele>
        <time>2016-10-04T14:04:12Z</time>
      </trkpt>
      <trkpt lat="45.20768" lon="6.535">
        <ele>847.54</ele>
        <time>2016-10-04T14:04:31Z</time>
      </trkpt>
      <trkpt lat="45.20772" lon="6.53531">
        <ele>848.98</ele>
        <time>2016-10-04T14:04:43Z</time>
      </trkpt>
      <trkpt lat="45.20772" lon="6.53573">
        <ele>850.9</ele>
        <time>2016-10-04T14:04:58Z</time>
      </trkpt>
      <trkpt lat="45.20768" lon="6.53621">
        <ele>852.35</ele>
        <time>2016-10-04T14:05:15Z</time>
      </trkpt>
      <trkpt lat="45.20757" lon="6.53664">
        <ele>853.31</ele>
        <time>2016-10-04T14:05:29Z</time>
      </trkpt>
      <trkpt lat="45.20738" lon="6.53717">
        <ele>855.23</ele>
        <time>2016-10-04T14:05:45Z</time>
      </trkpt>
      <trkpt lat="45.20729" lon="6.5377">
        <ele>857.15</ele>
        <time>2016-10-04T14:06:02Z</time>
      </trkpt>
      <trkpt lat="45.2072" lon="6.53827">
        <ele>858.11</ele>
        <time>2016-10-04T14:06:20Z</time>
      </trkpt>
      <trkpt lat="45.20704" lon="6.53892">
        <ele>860.04</ele>
        <time>2016-10-04T14:06:40Z</time>
      </trkpt>
      <trkpt lat="45.20699" lon="6.53951">
        <ele>861</ele>
        <time>2016-10-04T14:06:57Z</time>
      </trkpt>
      <trkpt lat="45.20704" lon="6.54004">
        <ele>862.92</ele>
        <time>2016-10-04T14:07:12Z</time>
      </trkpt>
      <trkpt lat="45.2071" lon="6.54082">
        <ele>863.88</ele>
        <time>2016-10-04T14:07:33Z</time>
      </trkpt>
      <trkpt lat="45.20704" lon="6.54161">
        <ele>864.84</ele>
        <time>2016-10-04T14:07:53Z</time>
      </trkpt>
      <trkpt lat="45.20694" lon="6.54212">
        <ele>865.8</ele>
        <time>2016-10-04T14:08:06Z</time>
      </trkpt>
      <trkpt lat="45.20703" lon="6.54279">
        <ele>866.29</ele>
        <time>2016-10-04T14:08:21Z</time>
      </trkpt>
      <trkpt lat="45.20718" lon="6.5434">
        <ele>868.21</ele>
        <time>2016-10-04T14:08:36Z</time>
      </trkpt>
      <trkpt lat="45.20725" lon="6.54392">
        <ele>868.69</ele>
        <time>2016-10-04T14:08:50Z</time>
      </trkpt>
      <trkpt lat="45.20739" lon="6.5445">
        <ele>869.65</ele>
        <time>2016-10-04T14:09:06Z</time>
      </trkpt>
      <trkpt lat="45.20745" lon="6.54506">
        <ele>871.09</ele>
        <time>2016-10-04T14:09:22Z</time>
      </trkpt>
      <trkpt lat="45.20743" lon="6.54568">
        <ele>872.53</ele>
        <time>2016-10-04T14:09:39Z</time>
      </trkpt>
      <trkpt lat="45.20741" lon="6.54646">
        <ele>874.94</ele>
        <time>2016-10-04T14:10:01Z</time>
      </trkpt>
      <trkpt lat="45.20737" lon="6.54722">
        <ele>875.42</ele>
        <time>2016-10-04T14:10:22Z</time>
      </trkpt>
      <trkpt lat="45.20736" lon="6.54745">
        <ele>875.42</ele>
        <time>2016-10-04T14:10:28Z</time>
      </trkpt>
      <trkpt lat="45.20736" lon="6.54749">
        <ele>875.42</ele>
        <time>2016-10-04T14:10:29Z</time>
      </trkpt>
      <trkpt lat="45.20735" lon="6.54752">
        <ele>875.9</ele>
        <time>2016-10-04T14:10:30Z</time>
      </trkpt>
      <trkpt lat="45.20732" lon="6.5483">
        <ele>876.86</ele>
        <time>2016-10-04T14:10:49Z</time>
      </trkpt>
      <trkpt lat="45.20725" lon="6.54919">
        <ele>878.3</ele>
        <time>2016-10-04T14:11:11Z</time>
      </trkpt>
      <trkpt lat="45.20715" lon="6.54974">
        <ele>879.74</ele>
        <time>2016-10-04T14:11:27Z</time>
      </trkpt>
      <trkpt lat="45.20704" lon="6.55034">
        <ele>881.67</ele>
        <time>2016-10-04T14:11:46Z</time>
      </trkpt>
      <trkpt lat="45.20705" lon="6.55096">
        <ele>882.63</ele>
        <time>2016-10-04T14:12:01Z</time>
      </trkpt>
      <trkpt lat="45.20701" lon="6.55155">
        <ele>883.11</ele>
        <time>2016-10-04T14:12:17Z</time>
      </trkpt>
      <trkpt lat="45.20689" lon="6.55231">
        <ele>885.03</ele>
        <time>2016-10-04T14:12:38Z</time>
      </trkpt>
      <trkpt lat="45.20679" lon="6.55299">
        <ele>886.95</ele>
        <time>2016-10-04T14:12:57Z</time>
      </trkpt>
      <trkpt lat="45.20671" lon="6.55364">
        <ele>889.84</ele>
        <time>2016-10-04T14:13:16Z</time>
      </trkpt>
      <trkpt lat="45.20666" lon="6.5541">
        <ele>891.76</ele>
        <time>2016-10-04T14:13:33Z</time>
      </trkpt>
      <trkpt lat="45.20658" lon="6.55456">
        <ele>894.16</ele>
        <time>2016-10-04T14:13:52Z</time>
      </trkpt>
      <trkpt lat="45.20654" lon="6.55506">
        <ele>896.09</ele>
        <time>2016-10-04T14:14:12Z</time>
      </trkpt>
      <trkpt lat="45.20657" lon="6.55554">
        <ele>898.01</ele>
        <time>2016-10-04T14:14:31Z</time>
      </trkpt>
      <trkpt lat="45.20662" lon="6.55595">
        <ele>899.93</ele>
        <time>2016-10-04T14:14:46Z</time>
      </trkpt>
      <trkpt lat="45.2067" lon="6.55629">
        <ele>901.37</ele>
        <time>2016-10-04T14:15:00Z</time>
      </trkpt>
      <trkpt lat="45.2068" lon="6.55664">
        <ele>902.82</ele>
        <time>2016-10-04T14:15:14Z</time>
      </trkpt>
      <trkpt lat="45.20687" lon="6.55704">
        <ele>903.78</ele>
        <time>2016-10-04T14:15:29Z</time>
      </trkpt>
      <trkpt lat="45.20696" lon="6.55757">
        <ele>906.66</ele>
        <time>2016-10-04T14:15:48Z</time>
      </trkpt>
      <trkpt lat="45.20702" lon="6.55807">
        <ele>909.06</ele>
        <time>2016-10-04T14:16:07Z</time>
      </trkpt>
      <trkpt lat="45.20695" lon="6.55857">
        <ele>909.54</ele>
        <time>2016-10-04T14:16:25Z</time>
      </trkpt>
      <trkpt lat="45.20682" lon="6.55935">
        <ele>911.47</ele>
        <time>2016-10-04T14:16:46Z</time>
      </trkpt>
      <trkpt lat="45.20677" lon="6.56007">
        <ele>911.47</ele>
        <time>2016-10-04T14:17:02Z</time>
      </trkpt>
      <trkpt lat="45.20697" lon="6.56089">
        <ele>912.43</ele>
        <time>2016-10-04T14:17:19Z</time>
      </trkpt>
      <trkpt lat="45.2071" lon="6.56166">
        <ele>913.39</ele>
        <time>2016-10-04T14:17:36Z</time>
      </trkpt>
      <trkpt lat="45.20715" lon="6.56217">
        <ele>914.83</ele>
        <time>2016-10-04T14:17:49Z</time>
      </trkpt>
      <trkpt lat="45.20731" lon="6.56289">
        <ele>916.27</ele>
        <time>2016-10-04T14:18:07Z</time>
      </trkpt>
      <trkpt lat="45.20746" lon="6.56366">
        <ele>916.75</ele>
        <time>2016-10-04T14:18:25Z</time>
      </trkpt>
      <trkpt lat="45.20739" lon="6.56427">
        <ele>919.16</ele>
        <time>2016-10-04T14:18:40Z</time>
      </trkpt>
      <trkpt lat="45.20717" lon="6.56488">
        <ele>919.16</ele>
        <time>2016-10-04T14:18:57Z</time>
      </trkpt>
      <trkpt lat="45.20702" lon="6.56544">
        <ele>921.08</ele>
        <time>2016-10-04T14:19:13Z</time>
      </trkpt>
      <trkpt lat="45.20698" lon="6.56603">
        <ele>922.04</ele>
        <time>2016-10-04T14:19:26Z</time>
      </trkpt>
      <trkpt lat="45.20698" lon="6.5667">
        <ele>922.04</ele>
        <time>2016-10-04T14:19:41Z</time>
      </trkpt>
      <trkpt lat="45.20695" lon="6.56723">
        <ele>922.52</ele>
        <time>2016-10-04T14:19:57Z</time>
      </trkpt>
      <trkpt lat="45.20695" lon="6.56731">
        <ele>922.52</ele>
        <time>2016-10-04T14:20:10Z</time>
      </trkpt>
      <trkpt lat="45.20693" lon="6.56729">
        <ele>922.52</ele>
        <time>2016-10-04T14:20:31Z</time>
      </trkpt>
      <trkpt lat="45.20695" lon="6.5673">
        <ele>922.04</ele>
        <time>2016-10-04T14:20:54Z</time>
      </trkpt>
      <trkpt lat="45.20697" lon="6.56736">
        <ele>922.04</ele>
        <time>2016-10-04T14:21:23Z</time>
      </trkpt>
      <trkpt lat="45.20698" lon="6.56733">
        <ele>922.52</ele>
        <time>2016-10-04T14:21:50Z</time>
      </trkpt>
      <trkpt lat="45.20697" lon="6.56732">
        <ele>922.04</ele>
        <time>2016-10-04T14:22:15Z</time>
      </trkpt>
      <trkpt lat="45.20695" lon="6.56732">
        <ele>923</ele>
        <time>2016-10-04T14:22:42Z</time>
      </trkpt>
      <trkpt lat="45.20696" lon="6.56734">
        <ele>923</ele>
        <time>2016-10-04T14:23:03Z</time>
      </trkpt>
      <trkpt lat="45.20698" lon="6.56734">
        <ele>923</ele>
        <time>2016-10-04T14:23:26Z</time>
      </trkpt>
      <trkpt lat="45.20695" lon="6.56732">
        <ele>923</ele>
        <time>2016-10-04T14:23:56Z</time>
      </trkpt>
      <trkpt lat="45.20696" lon="6.56733">
        <ele>923.48</ele>
        <time>2016-10-04T14:24:20Z</time>
      </trkpt>
      <trkpt lat="45.20692" lon="6.56731">
        <ele>923.48</ele>
        <time>2016-10-04T14:24:42Z</time>
      </trkpt>
      <trkpt lat="45.20693" lon="6.5673">
        <ele>922.52</ele>
        <time>2016-10-04T14:25:14Z</time>
      </trkpt>
      <trkpt lat="45.20691" lon="6.56729">
        <ele>923.96</ele>
        <time>2016-10-04T14:25:46Z</time>
      </trkpt>
      <trkpt lat="45.20689" lon="6.56724">
        <ele>923.48</ele>
        <time>2016-10-04T14:26:14Z</time>
      </trkpt>
      <trkpt lat="45.20687" lon="6.56724">
        <ele>924.45</ele>
        <time>2016-10-04T14:26:38Z</time>
      </trkpt>
      <trkpt lat="45.20688" lon="6.56726">
        <ele>923</ele>
        <time>2016-10-04T14:27:13Z</time>
      </trkpt>
      <trkpt lat="45.2069" lon="6.56733">
        <ele>923.48</ele>
        <time>2016-10-04T14:27:50Z</time>
      </trkpt>
      <trkpt lat="45.2069" lon="6.56728">
        <ele>923.48</ele>
        <time>2016-10-04T14:28:32Z</time>
      </trkpt>
      <trkpt lat="45.20689" lon="6.56732">
        <ele>923</ele>
        <time>2016-10-04T14:29:03Z</time>
      </trkpt>
      <trkpt lat="45.20686" lon="6.56731">
        <ele>923</ele>
        <time>2016-10-04T14:29:34Z</time>
      </trkpt>
      <trkpt lat="45.20691" lon="6.56731">
        <ele>923.96</ele>
        <time>2016-10-04T14:30:03Z</time>
      </trkpt>
      <trkpt lat="45.20697" lon="6.56728">
        <ele>923</ele>
        <time>2016-10-04T14:30:28Z</time>
      </trkpt>
      <trkpt lat="45.20697" lon="6.56731">
        <ele>923.48</ele>
        <time>2016-10-04T14:30:56Z</time>
      </trkpt>
      <trkpt lat="45.20694" lon="6.5673">
        <ele>923.96</ele>
        <time>2016-10-04T14:31:22Z</time>
      </trkpt>
      <trkpt lat="45.20693" lon="6.5673">
        <ele>923.48</ele>
        <time>2016-10-04T14:31:42Z</time>
      </trkpt>
      <trkpt lat="45.20692" lon="6.56763">
        <ele>923.48</ele>
        <time>2016-10-04T14:31:57Z</time>
      </trkpt>
      <trkpt lat="45.2069" lon="6.5683">
        <ele>923.48</ele>
        <time>2016-10-04T14:32:10Z</time>
      </trkpt>
      <trkpt lat="45.20675" lon="6.56932">
        <ele>923.96</ele>
        <time>2016-10-04T14:32:27Z</time>
      </trkpt>
      <trkpt lat="45.20674" lon="6.56938">
        <ele>923</ele>
        <time>2016-10-04T14:32:28Z</time>
      </trkpt>
      <trkpt lat="45.20652" lon="6.57063">
        <ele>923.96</ele>
        <time>2016-10-04T14:32:46Z</time>
      </trkpt>
      <trkpt lat="45.20632" lon="6.57185">
        <ele>924.45</ele>
        <time>2016-10-04T14:33:03Z</time>
      </trkpt>
      <trkpt lat="45.20611" lon="6.57313">
        <ele>925.41</ele>
        <time>2016-10-04T14:33:22Z</time>
      </trkpt>
      <trkpt lat="45.20595" lon="6.57421">
        <ele>925.41</ele>
        <time>2016-10-04T14:33:35Z</time>
      </trkpt>
      <trkpt lat="45.20571" lon="6.57586">
        <ele>924.93</ele>
        <time>2016-10-04T14:33:54Z</time>
      </trkpt>
      <trkpt lat="45.20541" lon="6.57763">
        <ele>924.93</ele>
        <time>2016-10-04T14:34:14Z</time>
      </trkpt>
      <trkpt lat="45.20511" lon="6.57925">
        <ele>925.41</ele>
        <time>2016-10-04T14:34:32Z</time>
      </trkpt>
      <trkpt lat="45.20498" lon="6.57973">
        <ele>925.41</ele>
        <time>2016-10-04T14:34:39Z</time>
      </trkpt>
      <trkpt lat="45.20495" lon="6.57978">
        <ele>925.89</ele>
        <time>2016-10-04T14:34:40Z</time>
      </trkpt>
      <trkpt lat="45.20485" lon="6.57992">
        <ele>925.89</ele>
        <time>2016-10-04T14:34:43Z</time>
      </trkpt>
      <trkpt lat="45.20449" lon="6.58078">
        <ele>927.81</ele>
        <time>2016-10-04T14:35:00Z</time>
      </trkpt>
      <trkpt lat="45.20419" lon="6.58147">
        <ele>928.77</ele>
        <time>2016-10-04T14:35:16Z</time>
      </trkpt>
      <trkpt lat="45.20388" lon="6.58216">
        <ele>930.69</ele>
        <time>2016-10-04T14:35:32Z</time>
      </trkpt>
      <trkpt lat="45.20364" lon="6.58278">
        <ele>932.62</ele>
        <time>2016-10-04T14:35:47Z</time>
      </trkpt>
      <trkpt lat="45.20337" lon="6.58356">
        <ele>933.1</ele>
        <time>2016-10-04T14:36:06Z</time>
      </trkpt>
      <trkpt lat="45.20316" lon="6.58441">
        <ele>934.54</ele>
        <time>2016-10-04T14:36:25Z</time>
      </trkpt>
      <trkpt lat="45.20297" lon="6.58512">
        <ele>936.46</ele>
        <time>2016-10-04T14:36:41Z</time>
      </trkpt>
      <trkpt lat="45.20274" lon="6.58606">
        <ele>937.9</ele>
        <time>2016-10-04T14:37:02Z</time>
      </trkpt>
      <trkpt lat="45.20257" lon="6.58662">
        <ele>938.38</ele>
        <time>2016-10-04T14:37:18Z</time>
      </trkpt>
      <trkpt lat="45.20254" lon="6.58668">
        <ele>938.38</ele>
        <time>2016-10-04T14:37:33Z</time>
      </trkpt>
      <trkpt lat="45.20254" lon="6.58676">
        <ele>939.83</ele>
        <time>2016-10-04T14:38:15Z</time>
      </trkpt>
      <trkpt lat="45.20236" lon="6.58724">
        <ele>940.79</ele>
        <time>2016-10-04T14:38:34Z</time>
      </trkpt>
      <trkpt lat="45.20226" lon="6.5875">
        <ele>942.71</ele>
        <time>2016-10-04T14:38:44Z</time>
      </trkpt>
      <trkpt lat="45.20224" lon="6.58752">
        <ele>942.71</ele>
        <time>2016-10-04T14:38:45Z</time>
      </trkpt>
      <trkpt lat="45.20223" lon="6.58755">
        <ele>942.71</ele>
        <time>2016-10-04T14:38:46Z</time>
      </trkpt>
      <trkpt lat="45.20204" lon="6.58799">
        <ele>945.11</ele>
        <time>2016-10-04T14:39:04Z</time>
      </trkpt>
      <trkpt lat="45.20188" lon="6.5884">
        <ele>946.56</ele>
        <time>2016-10-04T14:39:20Z</time>
      </trkpt>
      <trkpt lat="45.20176" lon="6.58893">
        <ele>948.48</ele>
        <time>2016-10-04T14:39:36Z</time>
      </trkpt>
      <trkpt lat="45.20164" lon="6.58974">
        <ele>950.4</ele>
        <time>2016-10-04T14:39:57Z</time>
      </trkpt>
      <trkpt lat="45.20154" lon="6.59062">
        <ele>950.88</ele>
        <time>2016-10-04T14:40:17Z</time>
      </trkpt>
      <trkpt lat="45.20139" lon="6.59172">
        <ele>950.4</ele>
        <time>2016-10-04T14:40:35Z</time>
      </trkpt>
      <trkpt lat="45.20135" lon="6.59193">
        <ele>950.4</ele>
        <time>2016-10-04T14:40:38Z</time>
      </trkpt>
      <trkpt lat="45.20102" lon="6.59308">
        <ele>950.4</ele>
        <time>2016-10-04T14:40:53Z</time>
      </trkpt>
      <trkpt lat="45.20069" lon="6.59397">
        <ele>951.36</ele>
        <time>2016-10-04T14:41:08Z</time>
      </trkpt>
      <trkpt lat="45.20067" lon="6.59402">
        <ele>951.36</ele>
        <time>2016-10-04T14:41:09Z</time>
      </trkpt>
      <trkpt lat="45.20033" lon="6.59494">
        <ele>952.8</ele>
        <time>2016-10-04T14:41:27Z</time>
      </trkpt>
      <trkpt lat="45.20015" lon="6.59559">
        <ele>954.73</ele>
        <time>2016-10-04T14:41:42Z</time>
      </trkpt>
      <trkpt lat="45.20006" lon="6.59634">
        <ele>955.69</ele>
        <time>2016-10-04T14:41:59Z</time>
      </trkpt>
      <trkpt lat="45.20006" lon="6.59708">
        <ele>957.13</ele>
        <time>2016-10-04T14:42:15Z</time>
      </trkpt>
      <trkpt lat="45.20017" lon="6.59775">
        <ele>958.57</ele>
        <time>2016-10-04T14:42:30Z</time>
      </trkpt>
      <trkpt lat="45.20014" lon="6.59844">
        <ele>960.49</ele>
        <time>2016-10-04T14:42:47Z</time>
      </trkpt>
      <trkpt lat="45.19993" lon="6.59918">
        <ele>961.94</ele>
        <time>2016-10-04T14:43:08Z</time>
      </trkpt>
      <trkpt lat="45.19958" lon="6.59982">
        <ele>963.86</ele>
        <time>2016-10-04T14:43:28Z</time>
      </trkpt>
      <trkpt lat="45.1993" lon="6.60041">
        <ele>965.3</ele>
        <time>2016-10-04T14:43:46Z</time>
      </trkpt>
      <trkpt lat="45.19903" lon="6.60097">
        <ele>966.26</ele>
        <time>2016-10-04T14:44:03Z</time>
      </trkpt>
      <trkpt lat="45.19884" lon="6.60145">
        <ele>967.7</ele>
        <time>2016-10-04T14:44:17Z</time>
      </trkpt>
      <trkpt lat="45.19872" lon="6.6019">
        <ele>969.63</ele>
        <time>2016-10-04T14:44:29Z</time>
      </trkpt>
      <trkpt lat="45.1987" lon="6.60262">
        <ele>971.07</ele>
        <time>2016-10-04T14:44:46Z</time>
      </trkpt>
      <trkpt lat="45.19886" lon="6.60324">
        <ele>972.51</ele>
        <time>2016-10-04T14:45:01Z</time>
      </trkpt>
      <trkpt lat="45.19893" lon="6.60383">
        <ele>974.91</ele>
        <time>2016-10-04T14:45:19Z</time>
      </trkpt>
      <trkpt lat="45.19894" lon="6.6045">
        <ele>977.32</ele>
        <time>2016-10-04T14:45:40Z</time>
      </trkpt>
      <trkpt lat="45.19897" lon="6.60503">
        <ele>978.76</ele>
        <time>2016-10-04T14:45:56Z</time>
      </trkpt>
      <trkpt lat="45.19896" lon="6.60559">
        <ele>980.68</ele>
        <time>2016-10-04T14:46:13Z</time>
      </trkpt>
      <trkpt lat="45.19898" lon="6.60613">
        <ele>981.64</ele>
        <time>2016-10-04T14:46:28Z</time>
      </trkpt>
      <trkpt lat="45.19897" lon="6.60682">
        <ele>983.09</ele>
        <time>2016-10-04T14:46:46Z</time>
      </trkpt>
      <trkpt lat="45.19889" lon="6.60759">
        <ele>984.53</ele>
        <time>2016-10-04T14:47:06Z</time>
      </trkpt>
      <trkpt lat="45.19883" lon="6.60822">
        <ele>985.97</ele>
        <time>2016-10-04T14:47:23Z</time>
      </trkpt>
      <trkpt lat="45.19875" lon="6.60882">
        <ele>986.93</ele>
        <time>2016-10-04T14:47:39Z</time>
      </trkpt>
      <trkpt lat="45.19872" lon="6.60928">
        <ele>988.37</ele>
        <time>2016-10-04T14:47:52Z</time>
      </trkpt>
      <trkpt lat="45.19865" lon="6.60977">
        <ele>990.3</ele>
        <time>2016-10-04T14:48:07Z</time>
      </trkpt>
      <trkpt lat="45.19858" lon="6.6102">
        <ele>991.74</ele>
        <time>2016-10-04T14:48:22Z</time>
      </trkpt>
      <trkpt lat="45.19856" lon="6.61079">
        <ele>992.7</ele>
        <time>2016-10-04T14:48:39Z</time>
      </trkpt>
      <trkpt lat="45.19848" lon="6.61126">
        <ele>994.14</ele>
        <time>2016-10-04T14:48:54Z</time>
      </trkpt>
      <trkpt lat="45.19835" lon="6.61168">
        <ele>995.58</ele>
        <time>2016-10-04T14:49:09Z</time>
      </trkpt>
      <trkpt lat="45.19817" lon="6.61206">
        <ele>997.02</ele>
        <time>2016-10-04T14:49:23Z</time>
      </trkpt>
      <trkpt lat="45.19798" lon="6.61236">
        <ele>997.51</ele>
        <time>2016-10-04T14:49:35Z</time>
      </trkpt>
      <trkpt lat="45.19789" lon="6.61255">
        <ele>997.99</ele>
        <time>2016-10-04T14:49:42Z</time>
      </trkpt>
      <trkpt lat="45.19787" lon="6.61268">
        <ele>998.47</ele>
        <time>2016-10-04T14:49:46Z</time>
      </trkpt>
      <trkpt lat="45.198" lon="6.61337">
        <ele>1000.87</ele>
        <time>2016-10-04T14:50:05Z</time>
      </trkpt>
      <trkpt lat="45.19782" lon="6.61385">
        <ele>1002.79</ele>
        <time>2016-10-04T14:50:22Z</time>
      </trkpt>
      <trkpt lat="45.19765" lon="6.61437">
        <ele>1004.72</ele>
        <time>2016-10-04T14:50:40Z</time>
      </trkpt>
      <trkpt lat="45.1976" lon="6.61458">
        <ele>1005.68</ele>
        <time>2016-10-04T14:50:48Z</time>
      </trkpt>
      <trkpt lat="45.19759" lon="6.61461">
        <ele>1005.68</ele>
        <time>2016-10-04T14:50:49Z</time>
      </trkpt>
      <trkpt lat="45.19759" lon="6.61463">
        <ele>1005.68</ele>
        <time>2016-10-04T14:50:50Z</time>
      </trkpt>
      <trkpt lat="45.19755" lon="6.61492">
        <ele>1006.16</ele>
        <time>2016-10-04T14:50:59Z</time>
      </trkpt>
      <trkpt lat="45.19754" lon="6.61495">
        <ele>1007.12</ele>
        <time>2016-10-04T14:51:00Z</time>
      </trkpt>
      <trkpt lat="45.19753" lon="6.61498">
        <ele>1007.12</ele>
        <time>2016-10-04T14:51:01Z</time>
      </trkpt>
      <trkpt lat="45.19753" lon="6.61501">
        <ele>1006.64</ele>
        <time>2016-10-04T14:51:02Z</time>
      </trkpt>
      <trkpt lat="45.19752" lon="6.61504">
        <ele>1007.12</ele>
        <time>2016-10-04T14:51:03Z</time>
      </trkpt>
      <trkpt lat="45.19751" lon="6.61507">
        <ele>1007.12</ele>
        <time>2016-10-04T14:51:04Z</time>
      </trkpt>
      <trkpt lat="45.19751" lon="6.6151">
        <ele>1006.64</ele>
        <time>2016-10-04T14:51:05Z</time>
      </trkpt>
      <trkpt lat="45.1975" lon="6.61514">
        <ele>1007.6</ele>
        <time>2016-10-04T14:51:06Z</time>
      </trkpt>
      <trkpt lat="45.19749" lon="6.61517">
        <ele>1006.64</ele>
        <time>2016-10-04T14:51:07Z</time>
      </trkpt>
      <trkpt lat="45.19736" lon="6.6157">
        <ele>1008.08</ele>
        <time>2016-10-04T14:51:23Z</time>
      </trkpt>
      <trkpt lat="45.1971" lon="6.61631">
        <ele>1010</ele>
        <time>2016-10-04T14:51:42Z</time>
      </trkpt>
      <trkpt lat="45.19674" lon="6.61691">
        <ele>1011.44</ele>
        <time>2016-10-04T14:52:02Z</time>
      </trkpt>
      <trkpt lat="45.19648" lon="6.61734">
        <ele>1011.93</ele>
        <time>2016-10-04T14:52:16Z</time>
      </trkpt>
      <trkpt lat="45.19622" lon="6.61785">
        <ele>1013.85</ele>
        <time>2016-10-04T14:52:31Z</time>
      </trkpt>
      <trkpt lat="45.19609" lon="6.61855">
        <ele>1013.85</ele>
        <time>2016-10-04T14:52:46Z</time>
      </trkpt>
      <trkpt lat="45.19601" lon="6.61937">
        <ele>1013.85</ele>
        <time>2016-10-04T14:53:02Z</time>
      </trkpt>
      <trkpt lat="45.19603" lon="6.62003">
        <ele>1015.77</ele>
        <time>2016-10-04T14:53:17Z</time>
      </trkpt>
      <trkpt lat="45.19617" lon="6.62079">
        <ele>1016.25</ele>
        <time>2016-10-04T14:53:35Z</time>
      </trkpt>
      <trkpt lat="45.196" lon="6.62113">
        <ele>1016.25</ele>
        <time>2016-10-04T14:53:46Z</time>
      </trkpt>
      <trkpt lat="45.19583" lon="6.62155">
        <ele>1018.65</ele>
        <time>2016-10-04T14:54:00Z</time>
      </trkpt>
      <trkpt lat="45.1957" lon="6.62206">
        <ele>1020.58</ele>
        <time>2016-10-04T14:54:19Z</time>
      </trkpt>
      <trkpt lat="45.19557" lon="6.62257">
        <ele>1022.5</ele>
        <time>2016-10-04T14:54:38Z</time>
      </trkpt>
      <trkpt lat="45.19543" lon="6.62319">
        <ele>1025.38</ele>
        <time>2016-10-04T14:55:01Z</time>
      </trkpt>
      <trkpt lat="45.19534" lon="6.62389">
        <ele>1025.86</ele>
        <time>2016-10-04T14:55:20Z</time>
      </trkpt>
      <trkpt lat="45.19525" lon="6.62454">
        <ele>1026.34</ele>
        <time>2016-10-04T14:55:36Z</time>
      </trkpt>
      <trkpt lat="45.19517" lon="6.62518">
        <ele>1024.9</ele>
        <time>2016-10-04T14:55:49Z</time>
      </trkpt>
      <trkpt lat="45.19506" lon="6.62608">
        <ele>1024.9</ele>
        <time>2016-10-04T14:56:04Z</time>
      </trkpt>
      <trkpt lat="45.19504" lon="6.62627">
        <ele>1025.38</ele>
        <time>2016-10-04T14:56:07Z</time>
      </trkpt>
      <trkpt lat="45.19492" lon="6.62687">
        <ele>1025.86</ele>
        <time>2016-10-04T14:56:17Z</time>
      </trkpt>
      <trkpt lat="45.19491" lon="6.62693">
        <ele>1026.34</ele>
        <time>2016-10-04T14:56:18Z</time>
      </trkpt>
      <trkpt lat="45.19475" lon="6.62771">
        <ele>1026.34</ele>
        <time>2016-10-04T14:56:32Z</time>
      </trkpt>
      <trkpt lat="45.19454" lon="6.62862">
        <ele>1027.31</ele>
        <time>2016-10-04T14:56:50Z</time>
      </trkpt>
      <trkpt lat="45.1943" lon="6.62916">
        <ele>1028.27</ele>
        <time>2016-10-04T14:57:04Z</time>
      </trkpt>
      <trkpt lat="45.19419" lon="6.62964">
        <ele>1029.23</ele>
        <time>2016-10-04T14:57:15Z</time>
      </trkpt>
      <trkpt lat="45.19403" lon="6.63029">
        <ele>1031.15</ele>
        <time>2016-10-04T14:57:31Z</time>
      </trkpt>
      <trkpt lat="45.19388" lon="6.63095">
        <ele>1032.11</ele>
        <time>2016-10-04T14:57:47Z</time>
      </trkpt>
      <trkpt lat="45.19374" lon="6.6315">
        <ele>1034.52</ele>
        <time>2016-10-04T14:58:01Z</time>
      </trkpt>
      <trkpt lat="45.19351" lon="6.63235">
        <ele>1036.44</ele>
        <time>2016-10-04T14:58:23Z</time>
      </trkpt>
      <trkpt lat="45.19332" lon="6.63321">
        <ele>1037.88</ele>
        <time>2016-10-04T14:58:44Z</time>
      </trkpt>
      <trkpt lat="45.19318" lon="6.63402">
        <ele>1039.32</ele>
        <time>2016-10-04T14:59:00Z</time>
      </trkpt>
      <trkpt lat="45.193" lon="6.63508">
        <ele>1039.32</ele>
        <time>2016-10-04T14:59:19Z</time>
      </trkpt>
      <trkpt lat="45.19285" lon="6.63601">
        <ele>1039.32</ele>
        <time>2016-10-04T14:59:36Z</time>
      </trkpt>
      <trkpt lat="45.19277" lon="6.63664">
        <ele>1039.8</ele>
        <time>2016-10-04T14:59:47Z</time>
      </trkpt>
      <trkpt lat="45.19258" lon="6.63734">
        <ele>1040.76</ele>
        <time>2016-10-04T15:00:01Z</time>
      </trkpt>
      <trkpt lat="45.19231" lon="6.638">
        <ele>1042.69</ele>
        <time>2016-10-04T15:00:15Z</time>
      </trkpt>
      <trkpt lat="45.19205" lon="6.63841">
        <ele>1042.69</ele>
        <time>2016-10-04T15:00:25Z</time>
      </trkpt>
      <trkpt lat="45.19152" lon="6.6391">
        <ele>1043.65</ele>
        <time>2016-10-04T15:00:42Z</time>
      </trkpt>
      <trkpt lat="45.19113" lon="6.63961">
        <ele>1044.13</ele>
        <time>2016-10-04T15:00:54Z</time>
      </trkpt>
      <trkpt lat="45.19077" lon="6.64042">
        <ele>1044.61</ele>
        <time>2016-10-04T15:01:09Z</time>
      </trkpt>
      <trkpt lat="45.19061" lon="6.64143">
        <ele>1045.09</ele>
        <time>2016-10-04T15:01:25Z</time>
      </trkpt>
      <trkpt lat="45.19059" lon="6.64188">
        <ele>1044.61</ele>
        <time>2016-10-04T15:01:32Z</time>
      </trkpt>
      <trkpt lat="45.19058" lon="6.64271">
        <ele>1044.61</ele>
        <time>2016-10-04T15:01:46Z</time>
      </trkpt>
      <trkpt lat="45.19055" lon="6.64376">
        <ele>1045.57</ele>
        <time>2016-10-04T15:02:02Z</time>
      </trkpt>
      <trkpt lat="45.19057" lon="6.64456">
        <ele>1045.57</ele>
        <time>2016-10-04T15:02:15Z</time>
      </trkpt>
      <trkpt lat="45.1906" lon="6.64481">
        <ele>1045.09</ele>
        <time>2016-10-04T15:02:19Z</time>
      </trkpt>
      <trkpt lat="45.19061" lon="6.64488">
        <ele>1045.57</ele>
        <time>2016-10-04T15:02:20Z</time>
      </trkpt>
      <trkpt lat="45.19062" lon="6.64494">
        <ele>1045.57</ele>
        <time>2016-10-04T15:02:21Z</time>
      </trkpt>
      <trkpt lat="45.19066" lon="6.6452">
        <ele>1045.57</ele>
        <time>2016-10-04T15:02:25Z</time>
      </trkpt>
      <trkpt lat="45.19068" lon="6.64526">
        <ele>1046.05</ele>
        <time>2016-10-04T15:02:26Z</time>
      </trkpt>
      <trkpt lat="45.1907" lon="6.64532">
        <ele>1046.05</ele>
        <time>2016-10-04T15:02:27Z</time>
      </trkpt>
      <trkpt lat="45.19071" lon="6.64539">
        <ele>1046.05</ele>
        <time>2016-10-04T15:02:28Z</time>
      </trkpt>
      <trkpt lat="45.19072" lon="6.64545">
        <ele>1046.53</ele>
        <time>2016-10-04T15:02:29Z</time>
      </trkpt>
      <trkpt lat="45.19074" lon="6.64551">
        <ele>1046.05</ele>
        <time>2016-10-04T15:02:30Z</time>
      </trkpt>
      <trkpt lat="45.19099" lon="6.64648">
        <ele>1045.57</ele>
        <time>2016-10-04T15:02:45Z</time>
      </trkpt>
      <trkpt lat="45.19104" lon="6.64685">
        <ele>1046.05</ele>
        <time>2016-10-04T15:02:51Z</time>
      </trkpt>
      <trkpt lat="45.19105" lon="6.64691">
        <ele>1046.53</ele>
        <time>2016-10-04T15:02:52Z</time>
      </trkpt>
      <trkpt lat="45.19107" lon="6.64703">
        <ele>1047.01</ele>
        <time>2016-10-04T15:02:54Z</time>
      </trkpt>
      <trkpt lat="45.1911" lon="6.6472">
        <ele>1047.01</ele>
        <time>2016-10-04T15:02:57Z</time>
      </trkpt>
      <trkpt lat="45.19112" lon="6.64726">
        <ele>1047.49</ele>
        <time>2016-10-04T15:02:58Z</time>
      </trkpt>
      <trkpt lat="45.19129" lon="6.64815">
        <ele>1047.49</ele>
        <time>2016-10-04T15:03:13Z</time>
      </trkpt>
      <trkpt lat="45.19147" lon="6.64918">
        <ele>1048.45</ele>
        <time>2016-10-04T15:03:30Z</time>
      </trkpt>
      <trkpt lat="45.19166" lon="6.65015">
        <ele>1049.42</ele>
        <time>2016-10-04T15:03:46Z</time>
      </trkpt>
      <trkpt lat="45.19182" lon="6.65103">
        <ele>1049.42</ele>
        <time>2016-10-04T15:04:02Z</time>
      </trkpt>
      <trkpt lat="45.19189" lon="6.65149">
        <ele>1049.9</ele>
        <time>2016-10-04T15:04:16Z</time>
      </trkpt>
      <trkpt lat="45.19186" lon="6.65154">
        <ele>1049.42</ele>
        <time>2016-10-04T15:04:41Z</time>
      </trkpt>
      <trkpt lat="45.1919" lon="6.65177">
        <ele>1049.9</ele>
        <time>2016-10-04T15:04:52Z</time>
      </trkpt>
      <trkpt lat="45.19204" lon="6.65245">
        <ele>1049.9</ele>
        <time>2016-10-04T15:05:07Z</time>
      </trkpt>
      <trkpt lat="45.19207" lon="6.65256">
        <ele>1049.9</ele>
        <time>2016-10-04T15:05:09Z</time>
      </trkpt>
      <trkpt lat="45.19224" lon="6.6534">
        <ele>1050.38</ele>
        <time>2016-10-04T15:05:23Z</time>
      </trkpt>
      <trkpt lat="45.19244" lon="6.65437">
        <ele>1051.34</ele>
        <time>2016-10-04T15:05:38Z</time>
      </trkpt>
      <trkpt lat="45.19258" lon="6.65516">
        <ele>1051.82</ele>
        <time>2016-10-04T15:05:52Z</time>
      </trkpt>
      <trkpt lat="45.19264" lon="6.65549">
        <ele>1051.34</ele>
        <time>2016-10-04T15:05:57Z</time>
      </trkpt>
      <trkpt lat="45.19266" lon="6.65556">
        <ele>1051.34</ele>
        <time>2016-10-04T15:05:58Z</time>
      </trkpt>
      <trkpt lat="45.19268" lon="6.65563">
        <ele>1051.34</ele>
        <time>2016-10-04T15:05:59Z</time>
      </trkpt>
      <trkpt lat="45.19269" lon="6.65569">
        <ele>1051.82</ele>
        <time>2016-10-04T15:06:00Z</time>
      </trkpt>
      <trkpt lat="45.19271" lon="6.65576">
        <ele>1051.34</ele>
        <time>2016-10-04T15:06:01Z</time>
      </trkpt>
      <trkpt lat="45.19285" lon="6.65639">
        <ele>1051.82</ele>
        <time>2016-10-04T15:06:11Z</time>
      </trkpt>
      <trkpt lat="45.19311" lon="6.65719">
        <ele>1052.3</ele>
        <time>2016-10-04T15:06:25Z</time>
      </trkpt>
      <trkpt lat="45.19331" lon="6.65782">
        <ele>1053.74</ele>
        <time>2016-10-04T15:06:40Z</time>
      </trkpt>
      <trkpt lat="45.19349" lon="6.65831">
        <ele>1054.7</ele>
        <time>2016-10-04T15:06:53Z</time>
      </trkpt>
      <trkpt lat="45.1937" lon="6.65879">
        <ele>1055.18</ele>
        <time>2016-10-04T15:07:09Z</time>
      </trkpt>
      <trkpt lat="45.19387" lon="6.65917">
        <ele>1055.67</ele>
        <time>2016-10-04T15:07:23Z</time>
      </trkpt>
      <trkpt lat="45.19393" lon="6.65933">
        <ele>1055.18</ele>
        <time>2016-10-04T15:07:29Z</time>
      </trkpt>
      <trkpt lat="45.19393" lon="6.65936">
        <ele>1054.7</ele>
        <time>2016-10-04T15:07:30Z</time>
      </trkpt>
      <trkpt lat="45.19391" lon="6.65939">
        <ele>1055.18</ele>
        <time>2016-10-04T15:07:32Z</time>
      </trkpt>
      <trkpt lat="45.19388" lon="6.65947">
        <ele>1055.67</ele>
        <time>2016-10-04T15:07:38Z</time>
      </trkpt>
      <trkpt lat="45.19389" lon="6.65948">
        <ele>1055.67</ele>
        <time>2016-10-04T15:07:39Z</time>
      </trkpt>
      <trkpt lat="45.1939" lon="6.65949">
        <ele>1055.67</ele>
        <time>2016-10-04T15:07:40Z</time>
      </trkpt>
      <trkpt lat="45.19395" lon="6.6596">
        <ele>1054.7</ele>
        <time>2016-10-04T15:07:54Z</time>
      </trkpt>
      <trkpt lat="45.19401" lon="6.65962">
        <ele>1055.18</ele>
        <time>2016-10-04T15:08:12Z</time>
      </trkpt>
      <trkpt lat="45.194" lon="6.65966">
        <ele>1055.67</ele>
        <time>2016-10-04T15:08:28Z</time>
      </trkpt>
      <trkpt lat="45.19407" lon="6.65961">
        <ele>1056.15</ele>
        <time>2016-10-04T15:08:58Z</time>
      </trkpt>
      <trkpt lat="45.19404" lon="6.65966">
        <ele>1055.67</ele>
        <time>2016-10-04T15:09:24Z</time>
      </trkpt>
      <trkpt lat="45.19401" lon="6.65964">
        <ele>1056.15</ele>
        <time>2016-10-04T15:09:52Z</time>
      </trkpt>
      <trkpt lat="45.19403" lon="6.65962">
        <ele>1055.67</ele>
        <time>2016-10-04T15:10:22Z</time>
      </trkpt>
      <trkpt lat="45.19404" lon="6.65962">
        <ele>1056.63</ele>
        <time>2016-10-04T15:11:00Z</time>
      </trkpt>
      <trkpt lat="45.19401" lon="6.65965">
        <ele>1055.18</ele>
        <time>2016-10-04T15:11:30Z</time>
      </trkpt>
      <trkpt lat="45.19404" lon="6.65964">
        <ele>1055.67</ele>
        <time>2016-10-04T15:12:03Z</time>
      </trkpt>
      <trkpt lat="45.19407" lon="6.65962">
        <ele>1056.15</ele>
        <time>2016-10-04T15:12:30Z</time>
      </trkpt>
      <trkpt lat="45.19406" lon="6.65959">
        <ele>1055.67</ele>
        <time>2016-10-04T15:12:56Z</time>
      </trkpt>
      <trkpt lat="45.19405" lon="6.65963">
        <ele>1056.15</ele>
        <time>2016-10-04T15:13:31Z</time>
      </trkpt>
      <trkpt lat="45.19405" lon="6.65964">
        <ele>1056.15</ele>
        <time>2016-10-04T15:14:02Z</time>
      </trkpt>
      <trkpt lat="45.19404" lon="6.65968">
        <ele>1056.15</ele>
        <time>2016-10-04T15:14:32Z</time>
      </trkpt>
      <trkpt lat="45.19405" lon="6.65964">
        <ele>1056.63</ele>
        <time>2016-10-04T15:15:04Z</time>
      </trkpt>
      <trkpt lat="45.19401" lon="6.65969">
        <ele>1056.15</ele>
        <time>2016-10-04T15:15:33Z</time>
      </trkpt>
      <trkpt lat="45.19402" lon="6.65972">
        <ele>1056.15</ele>
        <time>2016-10-04T15:16:01Z</time>
      </trkpt>
      <trkpt lat="45.19405" lon="6.65975">
        <ele>1056.15</ele>
        <time>2016-10-04T15:16:26Z</time>
      </trkpt>
      <trkpt lat="45.194" lon="6.65972">
        <ele>1057.11</ele>
        <time>2016-10-04T15:17:01Z</time>
      </trkpt>
      <trkpt lat="45.19398" lon="6.65968">
        <ele>1056.63</ele>
        <time>2016-10-04T15:17:29Z</time>
      </trkpt>
      <trkpt lat="45.19398" lon="6.65974">
        <ele>1057.11</ele>
        <time>2016-10-04T15:18:10Z</time>
      </trkpt>
      <trkpt lat="45.19399" lon="6.65975">
        <ele>1056.63</ele>
        <time>2016-10-04T15:18:50Z</time>
      </trkpt>
      <trkpt lat="45.19401" lon="6.65971">
        <ele>1056.63</ele>
        <time>2016-10-04T15:19:27Z</time>
      </trkpt>
      <trkpt lat="45.19397" lon="6.65972">
        <ele>1057.11</ele>
        <time>2016-10-04T15:20:04Z</time>
      </trkpt>
      <trkpt lat="45.19396" lon="6.65974">
        <ele>1056.63</ele>
        <time>2016-10-04T15:20:30Z</time>
      </trkpt>
      <trkpt lat="45.19396" lon="6.65973">
        <ele>1056.15</ele>
        <time>2016-10-04T15:20:57Z</time>
      </trkpt>
      <trkpt lat="45.19402" lon="6.65971">
        <ele>1055.67</ele>
        <time>2016-10-04T15:21:06Z</time>
      </trkpt>
      <trkpt lat="45.19406" lon="6.65968">
        <ele>1055.67</ele>
        <time>2016-10-04T15:21:21Z</time>
      </trkpt>
      <trkpt lat="45.19407" lon="6.65965">
        <ele>1055.67</ele>
        <time>2016-10-04T15:21:23Z</time>
      </trkpt>
      <trkpt lat="45.19408" lon="6.65964">
        <ele>1055.67</ele>
        <time>2016-10-04T15:21:24Z</time>
      </trkpt>
      <trkpt lat="45.19409" lon="6.65963">
        <ele>1056.15</ele>
        <time>2016-10-04T15:21:25Z</time>
      </trkpt>
      <trkpt lat="45.19412" lon="6.65962">
        <ele>1056.15</ele>
        <time>2016-10-04T15:21:28Z</time>
      </trkpt>
      <trkpt lat="45.19413" lon="6.65963">
        <ele>1055.67</ele>
        <time>2016-10-04T15:21:29Z</time>
      </trkpt>
      <trkpt lat="45.19431" lon="6.65994">
        <ele>1055.18</ele>
        <time>2016-10-04T15:21:41Z</time>
      </trkpt>
      <trkpt lat="45.19435" lon="6.66">
        <ele>1055.18</ele>
        <time>2016-10-04T15:21:43Z</time>
      </trkpt>
      <trkpt lat="45.19436" lon="6.66004">
        <ele>1055.18</ele>
        <time>2016-10-04T15:21:44Z</time>
      </trkpt>
      <trkpt lat="45.19438" lon="6.66006">
        <ele>1055.67</ele>
        <time>2016-10-04T15:21:45Z</time>
      </trkpt>
      <trkpt lat="45.1944" lon="6.66009">
        <ele>1055.18</ele>
        <time>2016-10-04T15:21:46Z</time>
      </trkpt>
      <trkpt lat="45.19442" lon="6.66011">
        <ele>1054.22</ele>
        <time>2016-10-04T15:21:47Z</time>
      </trkpt>
      <trkpt lat="45.19444" lon="6.66013">
        <ele>1054.7</ele>
        <time>2016-10-04T15:21:48Z</time>
      </trkpt>
      <trkpt lat="45.19446" lon="6.66015">
        <ele>1054.22</ele>
        <time>2016-10-04T15:21:49Z</time>
      </trkpt>
      <trkpt lat="45.19447" lon="6.66017">
        <ele>1055.18</ele>
        <time>2016-10-04T15:21:50Z</time>
      </trkpt>
      <trkpt lat="45.19448" lon="6.66017">
        <ele>1054.7</ele>
        <time>2016-10-04T15:21:51Z</time>
      </trkpt>
      <trkpt lat="45.1945" lon="6.66018">
        <ele>1053.74</ele>
        <time>2016-10-04T15:21:52Z</time>
      </trkpt>
      <trkpt lat="45.19451" lon="6.66019">
        <ele>1054.7</ele>
        <time>2016-10-04T15:21:53Z</time>
      </trkpt>
      <trkpt lat="45.19452" lon="6.6602">
        <ele>1054.7</ele>
        <time>2016-10-04T15:21:54Z</time>
      </trkpt>
      <trkpt lat="45.19453" lon="6.66022">
        <ele>1055.18</ele>
        <time>2016-10-04T15:21:55Z</time>
      </trkpt>
      <trkpt lat="45.19455" lon="6.66023">
        <ele>1054.7</ele>
        <time>2016-10-04T15:21:56Z</time>
      </trkpt>
      <trkpt lat="45.19457" lon="6.66025">
        <ele>1054.7</ele>
        <time>2016-10-04T15:21:57Z</time>
      </trkpt>
      <trkpt lat="45.19459" lon="6.66027">
        <ele>1054.7</ele>
        <time>2016-10-04T15:21:58Z</time>
      </trkpt>
      <trkpt lat="45.19478" lon="6.66051">
        <ele>1054.22</ele>
        <time>2016-10-04T15:22:09Z</time>
      </trkpt>
      <trkpt lat="45.19481" lon="6.66057">
        <ele>1053.74</ele>
        <time>2016-10-04T15:22:12Z</time>
      </trkpt>
      <trkpt lat="45.19484" lon="6.66063">
        <ele>1055.67</ele>
        <time>2016-10-04T15:22:25Z</time>
      </trkpt>
      <trkpt lat="45.19485" lon="6.66063">
        <ele>1054.22</ele>
        <time>2016-10-04T15:22:51Z</time>
      </trkpt>
      <trkpt lat="45.19483" lon="6.6606">
        <ele>1054.22</ele>
        <time>2016-10-04T15:23:09Z</time>
      </trkpt>
      <trkpt lat="45.19484" lon="6.66061">
        <ele>1053.74</ele>
        <time>2016-10-04T15:23:32Z</time>
      </trkpt>
      <trkpt lat="45.19484" lon="6.66061">
        <ele>1053.26</ele>
        <time>2016-10-04T15:23:52Z</time>
      </trkpt>
      <trkpt lat="45.19477" lon="6.66057">
        <ele>1065.28</ele>
        <time>2016-10-05T06:51:17Z</time>
      </trkpt>
      <trkpt lat="45.19477" lon="6.66057">
        <ele>1065.28</ele>
        <time>2016-10-05T06:51:18Z</time>
      </trkpt>
      <trkpt lat="45.19477" lon="6.66057">
        <ele>1049.9</ele>
        <time>2016-10-05T06:51:21Z</time>
      </trkpt>
      <trkpt lat="45.19477" lon="6.66057">
        <ele>1049.9</ele>
        <time>2016-10-05T06:51:22Z</time>
      </trkpt>
      <trkpt lat="45.19481" lon="6.66056">
        <ele>1049.9</ele>
        <time>2016-10-05T06:51:50Z</time>
      </trkpt>
      <trkpt lat="45.19481" lon="6.66059">
        <ele>1049.42</ele>
        <time>2016-10-05T06:52:01Z</time>
      </trkpt>
      <trkpt lat="45.19484" lon="6.66069">
        <ele>1049.9</ele>
        <time>2016-10-05T06:52:06Z</time>
      </trkpt>
      <trkpt lat="45.19486" lon="6.66071">
        <ele>1049.9</ele>
        <time>2016-10-05T06:52:07Z</time>
      </trkpt>
      <trkpt lat="45.19513" lon="6.6611">
        <ele>1050.38</ele>
        <time>2016-10-05T06:52:19Z</time>
      </trkpt>
      <trkpt lat="45.19559" lon="6.66176">
        <ele>1050.38</ele>
        <time>2016-10-05T06:52:36Z</time>
      </trkpt>
      <trkpt lat="45.196" lon="6.6623">
        <ele>1050.86</ele>
        <time>2016-10-05T06:52:51Z</time>
      </trkpt>
      <trkpt lat="45.19645" lon="6.66289">
        <ele>1051.34</ele>
        <time>2016-10-05T06:53:07Z</time>
      </trkpt>
      <trkpt lat="45.19689" lon="6.66357">
        <ele>1052.78</ele>
        <time>2016-10-05T06:53:24Z</time>
      </trkpt>
      <trkpt lat="45.19724" lon="6.66406">
        <ele>1054.22</ele>
        <time>2016-10-05T06:53:41Z</time>
      </trkpt>
      <trkpt lat="45.19753" lon="6.66443">
        <ele>1056.15</ele>
        <time>2016-10-05T06:53:56Z</time>
      </trkpt>
      <trkpt lat="45.19778" lon="6.66476">
        <ele>1057.59</ele>
        <time>2016-10-05T06:54:09Z</time>
      </trkpt>
      <trkpt lat="45.19802" lon="6.6652">
        <ele>1059.99</ele>
        <time>2016-10-05T06:54:24Z</time>
      </trkpt>
      <trkpt lat="45.19823" lon="6.66582">
        <ele>1061.43</ele>
        <time>2016-10-05T06:54:42Z</time>
      </trkpt>
      <trkpt lat="45.19853" lon="6.66674">
        <ele>1061.43</ele>
        <time>2016-10-05T06:55:03Z</time>
      </trkpt>
      <trkpt lat="45.19866" lon="6.66706">
        <ele>1060.47</ele>
        <time>2016-10-05T06:55:09Z</time>
      </trkpt>
      <trkpt lat="45.19886" lon="6.66739">
        <ele>1059.51</ele>
        <time>2016-10-05T06:55:15Z</time>
      </trkpt>
      <trkpt lat="45.19953" lon="6.6681">
        <ele>1058.07</ele>
        <time>2016-10-05T06:55:29Z</time>
      </trkpt>
      <trkpt lat="45.19967" lon="6.66823">
        <ele>1057.59</ele>
        <time>2016-10-05T06:55:32Z</time>
      </trkpt>
      <trkpt lat="45.19971" lon="6.66828">
        <ele>1057.59</ele>
        <time>2016-10-05T06:55:33Z</time>
      </trkpt>
      <trkpt lat="45.19973" lon="6.66834">
        <ele>1057.59</ele>
        <time>2016-10-05T06:55:34Z</time>
      </trkpt>
      <trkpt lat="45.19975" lon="6.66841">
        <ele>1057.11</ele>
        <time>2016-10-05T06:55:35Z</time>
      </trkpt>
      <trkpt lat="45.19976" lon="6.66848">
        <ele>1057.11</ele>
        <time>2016-10-05T06:55:36Z</time>
      </trkpt>
      <trkpt lat="45.19978" lon="6.66854">
        <ele>1057.59</ele>
        <time>2016-10-05T06:55:37Z</time>
      </trkpt>
      <trkpt lat="45.1998" lon="6.66859">
        <ele>1057.59</ele>
        <time>2016-10-05T06:55:38Z</time>
      </trkpt>
      <trkpt lat="45.19983" lon="6.66864">
        <ele>1057.11</ele>
        <time>2016-10-05T06:55:39Z</time>
      </trkpt>
      <trkpt lat="45.19986" lon="6.66868">
        <ele>1057.59</ele>
        <time>2016-10-05T06:55:40Z</time>
      </trkpt>
      <trkpt lat="45.19989" lon="6.66872">
        <ele>1057.11</ele>
        <time>2016-10-05T06:55:41Z</time>
      </trkpt>
      <trkpt lat="45.20015" lon="6.66897">
        <ele>1058.07</ele>
        <time>2016-10-05T06:55:51Z</time>
      </trkpt>
      <trkpt lat="45.20028" lon="6.66911">
        <ele>1057.59</ele>
        <time>2016-10-05T06:56:03Z</time>
      </trkpt>
      <trkpt lat="45.20031" lon="6.66917">
        <ele>1058.07</ele>
        <time>2016-10-05T06:56:30Z</time>
      </trkpt>
      <trkpt lat="45.2003" lon="6.66922">
        <ele>1059.03</ele>
        <time>2016-10-05T06:57:05Z</time>
      </trkpt>
      <trkpt lat="45.20039" lon="6.66918">
        <ele>1059.03</ele>
        <time>2016-10-05T06:57:46Z</time>
      </trkpt>
      <trkpt lat="45.20041" lon="6.66921">
        <ele>1059.03</ele>
        <time>2016-10-05T06:58:28Z</time>
      </trkpt>
      <trkpt lat="45.2004" lon="6.66919">
        <ele>1059.99</ele>
        <time>2016-10-05T06:59:10Z</time>
      </trkpt>
      <trkpt lat="45.20039" lon="6.6692">
        <ele>1059.99</ele>
        <time>2016-10-05T07:00:05Z</time>
      </trkpt>
      <trkpt lat="45.20039" lon="6.66921">
        <ele>1060.95</ele>
        <time>2016-10-05T07:00:40Z</time>
      </trkpt>
      <trkpt lat="45.20042" lon="6.66919">
        <ele>1060.95</ele>
        <time>2016-10-05T07:01:13Z</time>
      </trkpt>
      <trkpt lat="45.20038" lon="6.66913">
        <ele>1061.91</ele>
        <time>2016-10-05T07:01:54Z</time>
      </trkpt>
      <trkpt lat="45.20038" lon="6.66916">
        <ele>1061.91</ele>
        <time>2016-10-05T07:02:28Z</time>
      </trkpt>
      <trkpt lat="45.20035" lon="6.66918">
        <ele>1061.43</ele>
        <time>2016-10-05T07:03:01Z</time>
      </trkpt>
      <trkpt lat="45.20034" lon="6.66918">
        <ele>1062.39</ele>
        <time>2016-10-05T07:03:27Z</time>
      </trkpt>
      <trkpt lat="45.20035" lon="6.66919">
        <ele>1061.91</ele>
        <time>2016-10-05T07:03:29Z</time>
      </trkpt>
      <trkpt lat="45.20036" lon="6.66919">
        <ele>1061.91</ele>
        <time>2016-10-05T07:03:30Z</time>
      </trkpt>
      <trkpt lat="45.20038" lon="6.66919">
        <ele>1061.91</ele>
        <time>2016-10-05T07:03:31Z</time>
      </trkpt>
      <trkpt lat="45.20041" lon="6.6692">
        <ele>1061.43</ele>
        <time>2016-10-05T07:03:34Z</time>
      </trkpt>
      <trkpt lat="45.20043" lon="6.66922">
        <ele>1061.91</ele>
        <time>2016-10-05T07:03:35Z</time>
      </trkpt>
      <trkpt lat="45.20045" lon="6.66924">
        <ele>1061.91</ele>
        <time>2016-10-05T07:03:36Z</time>
      </trkpt>
      <trkpt lat="45.2005" lon="6.66926">
        <ele>1061.91</ele>
        <time>2016-10-05T07:03:38Z</time>
      </trkpt>
      <trkpt lat="45.20053" lon="6.66925">
        <ele>1061.91</ele>
        <time>2016-10-05T07:03:39Z</time>
      </trkpt>
      <trkpt lat="45.20077" lon="6.66944">
        <ele>1061.91</ele>
        <time>2016-10-05T07:03:49Z</time>
      </trkpt>
      <trkpt lat="45.20109" lon="6.66974">
        <ele>1061.43</ele>
        <time>2016-10-05T07:04:04Z</time>
      </trkpt>
      <trkpt lat="45.20136" lon="6.67007">
        <ele>1061.91</ele>
        <time>2016-10-05T07:04:14Z</time>
      </trkpt>
      <trkpt lat="45.20139" lon="6.67011">
        <ele>1061.43</ele>
        <time>2016-10-05T07:04:15Z</time>
      </trkpt>
      <trkpt lat="45.20155" lon="6.67032">
        <ele>1061.43</ele>
        <time>2016-10-05T07:04:20Z</time>
      </trkpt>
      <trkpt lat="45.20158" lon="6.67036">
        <ele>1061.43</ele>
        <time>2016-10-05T07:04:21Z</time>
      </trkpt>
      <trkpt lat="45.20174" lon="6.67056">
        <ele>1061.91</ele>
        <time>2016-10-05T07:04:26Z</time>
      </trkpt>
      <trkpt lat="45.20178" lon="6.6706">
        <ele>1060.47</ele>
        <time>2016-10-05T07:04:27Z</time>
      </trkpt>
      <trkpt lat="45.20182" lon="6.67063">
        <ele>1060.95</ele>
        <time>2016-10-05T07:04:28Z</time>
      </trkpt>
      <trkpt lat="45.20185" lon="6.67067">
        <ele>1060.95</ele>
        <time>2016-10-05T07:04:29Z</time>
      </trkpt>
      <trkpt lat="45.20188" lon="6.67071">
        <ele>1060.95</ele>
        <time>2016-10-05T07:04:30Z</time>
      </trkpt>
      <trkpt lat="45.20194" lon="6.67079">
        <ele>1061.43</ele>
        <time>2016-10-05T07:04:32Z</time>
      </trkpt>
      <trkpt lat="45.20197" lon="6.67083">
        <ele>1061.91</ele>
        <time>2016-10-05T07:04:33Z</time>
      </trkpt>
      <trkpt lat="45.202" lon="6.67088">
        <ele>1062.39</ele>
        <time>2016-10-05T07:04:34Z</time>
      </trkpt>
      <trkpt lat="45.20225" lon="6.67133">
        <ele>1062.39</ele>
        <time>2016-10-05T07:04:45Z</time>
      </trkpt>
      <trkpt lat="45.20233" lon="6.67137">
        <ele>1061.91</ele>
        <time>2016-10-05T07:04:47Z</time>
      </trkpt>
      <trkpt lat="45.20236" lon="6.67141">
        <ele>1061.91</ele>
        <time>2016-10-05T07:04:48Z</time>
      </trkpt>
      <trkpt lat="45.20239" lon="6.67145">
        <ele>1062.39</ele>
        <time>2016-10-05T07:04:49Z</time>
      </trkpt>
      <trkpt lat="45.20242" lon="6.6715">
        <ele>1062.39</ele>
        <time>2016-10-05T07:04:50Z</time>
      </trkpt>
      <trkpt lat="45.20245" lon="6.67154">
        <ele>1062.39</ele>
        <time>2016-10-05T07:04:51Z</time>
      </trkpt>
      <trkpt lat="45.20248" lon="6.67158">
        <ele>1061.91</ele>
        <time>2016-10-05T07:04:52Z</time>
      </trkpt>
      <trkpt lat="45.20274" lon="6.67202">
        <ele>1062.87</ele>
        <time>2016-10-05T07:05:02Z</time>
      </trkpt>
      <trkpt lat="45.20306" lon="6.67263">
        <ele>1063.36</ele>
        <time>2016-10-05T07:05:15Z</time>
      </trkpt>
      <trkpt lat="45.20308" lon="6.67268">
        <ele>1063.36</ele>
        <time>2016-10-05T07:05:16Z</time>
      </trkpt>
      <trkpt lat="45.20336" lon="6.67328">
        <ele>1065.28</ele>
        <time>2016-10-05T07:05:31Z</time>
      </trkpt>
      <trkpt lat="45.2036" lon="6.67386">
        <ele>1067.2</ele>
        <time>2016-10-05T07:05:49Z</time>
      </trkpt>
      <trkpt lat="45.20372" lon="6.67425">
        <ele>1070.57</ele>
        <time>2016-10-05T07:06:04Z</time>
      </trkpt>
      <trkpt lat="45.20373" lon="6.67427">
        <ele>1070.57</ele>
        <time>2016-10-05T07:06:05Z</time>
      </trkpt>
      <trkpt lat="45.20385" lon="6.67468">
        <ele>1072.97</ele>
        <time>2016-10-05T07:06:23Z</time>
      </trkpt>
      <trkpt lat="45.20398" lon="6.6751">
        <ele>1075.85</ele>
        <time>2016-10-05T07:06:42Z</time>
      </trkpt>
      <trkpt lat="45.2041" lon="6.6755">
        <ele>1079.22</ele>
        <time>2016-10-05T07:07:00Z</time>
      </trkpt>
      <trkpt lat="45.20422" lon="6.67595">
        <ele>1082.1</ele>
        <time>2016-10-05T07:07:20Z</time>
      </trkpt>
      <trkpt lat="45.20436" lon="6.67643">
        <ele>1084.99</ele>
        <time>2016-10-05T07:07:42Z</time>
      </trkpt>
      <trkpt lat="45.20447" lon="6.67678">
        <ele>1087.87</ele>
        <time>2016-10-05T07:07:58Z</time>
      </trkpt>
      <trkpt lat="45.20457" lon="6.67724">
        <ele>1090.27</ele>
        <time>2016-10-05T07:08:18Z</time>
      </trkpt>
      <trkpt lat="45.20467" lon="6.67768">
        <ele>1093.64</ele>
        <time>2016-10-05T07:08:38Z</time>
      </trkpt>
      <trkpt lat="45.20476" lon="6.67812">
        <ele>1096.04</ele>
        <time>2016-10-05T07:08:57Z</time>
      </trkpt>
      <trkpt lat="45.20481" lon="6.6786">
        <ele>1097</ele>
        <time>2016-10-05T07:09:13Z</time>
      </trkpt>
      <trkpt lat="45.20472" lon="6.67916">
        <ele>1099.89</ele>
        <time>2016-10-05T07:09:31Z</time>
      </trkpt>
      <trkpt lat="45.20472" lon="6.67919">
        <ele>1099.89</ele>
        <time>2016-10-05T07:09:32Z</time>
      </trkpt>
      <trkpt lat="45.20462" lon="6.6798">
        <ele>1101.33</ele>
        <time>2016-10-05T07:09:52Z</time>
      </trkpt>
      <trkpt lat="45.20457" lon="6.68009">
        <ele>1104.21</ele>
        <time>2016-10-05T07:10:02Z</time>
      </trkpt>
      <trkpt lat="45.20449" lon="6.68058">
        <ele>1106.13</ele>
        <time>2016-10-05T07:10:19Z</time>
      </trkpt>
      <trkpt lat="45.20437" lon="6.68115">
        <ele>1108.54</ele>
        <time>2016-10-05T07:10:37Z</time>
      </trkpt>
      <trkpt lat="45.20428" lon="6.68162">
        <ele>1110.94</ele>
        <time>2016-10-05T07:10:52Z</time>
      </trkpt>
      <trkpt lat="45.20419" lon="6.68219">
        <ele>1112.86</ele>
        <time>2016-10-05T07:11:11Z</time>
      </trkpt>
      <trkpt lat="45.20411" lon="6.68278">
        <ele>1115.27</ele>
        <time>2016-10-05T07:11:31Z</time>
      </trkpt>
      <trkpt lat="45.20409" lon="6.68334">
        <ele>1118.15</ele>
        <time>2016-10-05T07:11:49Z</time>
      </trkpt>
      <trkpt lat="45.20417" lon="6.68393">
        <ele>1121.03</ele>
        <time>2016-10-05T07:12:08Z</time>
      </trkpt>
      <trkpt lat="45.20433" lon="6.68439">
        <ele>1123.44</ele>
        <time>2016-10-05T07:12:26Z</time>
      </trkpt>
      <trkpt lat="45.20444" lon="6.68473">
        <ele>1124.88</ele>
        <time>2016-10-05T07:12:40Z</time>
      </trkpt>
      <trkpt lat="45.20452" lon="6.68502">
        <ele>1126.8</ele>
        <time>2016-10-05T07:12:52Z</time>
      </trkpt>
      <trkpt lat="45.20461" lon="6.68527">
        <ele>1128.24</ele>
        <time>2016-10-05T07:13:03Z</time>
      </trkpt>
      <trkpt lat="45.20479" lon="6.68563">
        <ele>1129.69</ele>
        <time>2016-10-05T07:13:19Z</time>
      </trkpt>
      <trkpt lat="45.20495" lon="6.686">
        <ele>1131.61</ele>
        <time>2016-10-05T07:13:35Z</time>
      </trkpt>
      <trkpt lat="45.20497" lon="6.68607">
        <ele>1133.05</ele>
        <time>2016-10-05T07:13:38Z</time>
      </trkpt>
      <trkpt lat="45.20498" lon="6.68609">
        <ele>1132.57</ele>
        <time>2016-10-05T07:13:39Z</time>
      </trkpt>
      <trkpt lat="45.20498" lon="6.68612">
        <ele>1132.57</ele>
        <time>2016-10-05T07:13:40Z</time>
      </trkpt>
      <trkpt lat="45.20498" lon="6.68614">
        <ele>1132.57</ele>
        <time>2016-10-05T07:13:41Z</time>
      </trkpt>
      <trkpt lat="45.20497" lon="6.6863">
        <ele>1133.05</ele>
        <time>2016-10-05T07:13:48Z</time>
      </trkpt>
      <trkpt lat="45.20515" lon="6.68662">
        <ele>1135.45</ele>
        <time>2016-10-05T07:14:02Z</time>
      </trkpt>
      <trkpt lat="45.20526" lon="6.68693">
        <ele>1137.38</ele>
        <time>2016-10-05T07:14:17Z</time>
      </trkpt>
      <trkpt lat="45.20529" lon="6.68703">
        <ele>1138.34</ele>
        <time>2016-10-05T07:14:21Z</time>
      </trkpt>
      <trkpt lat="45.2053" lon="6.68709">
        <ele>1138.34</ele>
        <time>2016-10-05T07:14:24Z</time>
      </trkpt>
      <trkpt lat="45.20531" lon="6.68732">
        <ele>1140.74</ele>
        <time>2016-10-05T07:14:35Z</time>
      </trkpt>
      <trkpt lat="45.20541" lon="6.68767">
        <ele>1142.18</ele>
        <time>2016-10-05T07:14:50Z</time>
      </trkpt>
      <trkpt lat="45.20547" lon="6.68784">
        <ele>1143.14</ele>
        <time>2016-10-05T07:14:58Z</time>
      </trkpt>
      <trkpt lat="45.20548" lon="6.68786">
        <ele>1143.63</ele>
        <time>2016-10-05T07:14:59Z</time>
      </trkpt>
      <trkpt lat="45.20549" lon="6.68788">
        <ele>1143.63</ele>
        <time>2016-10-05T07:15:00Z</time>
      </trkpt>
      <trkpt lat="45.2055" lon="6.68791">
        <ele>1143.14</ele>
        <time>2016-10-05T07:15:01Z</time>
      </trkpt>
      <trkpt lat="45.2055" lon="6.68793">
        <ele>1143.63</ele>
        <time>2016-10-05T07:15:02Z</time>
      </trkpt>
      <trkpt lat="45.20551" lon="6.68796">
        <ele>1143.63</ele>
        <time>2016-10-05T07:15:03Z</time>
      </trkpt>
      <trkpt lat="45.20564" lon="6.68826">
        <ele>1144.59</ele>
        <time>2016-10-05T07:15:16Z</time>
      </trkpt>
      <trkpt lat="45.20577" lon="6.68853">
        <ele>1146.03</ele>
        <time>2016-10-05T07:15:28Z</time>
      </trkpt>
      <trkpt lat="45.20595" lon="6.68898">
        <ele>1148.91</ele>
        <time>2016-10-05T07:15:46Z</time>
      </trkpt>
      <trkpt lat="45.20603" lon="6.68934">
        <ele>1149.87</ele>
        <time>2016-10-05T07:16:00Z</time>
      </trkpt>
      <trkpt lat="45.20603" lon="6.68937">
        <ele>1149.87</ele>
        <time>2016-10-05T07:16:01Z</time>
      </trkpt>
      <trkpt lat="45.20603" lon="6.6894">
        <ele>1150.84</ele>
        <time>2016-10-05T07:16:02Z</time>
      </trkpt>
      <trkpt lat="45.20612" lon="6.68976">
        <ele>1151.8</ele>
        <time>2016-10-05T07:16:16Z</time>
      </trkpt>
      <trkpt lat="45.20627" lon="6.69015">
        <ele>1153.24</ele>
        <time>2016-10-05T07:16:32Z</time>
      </trkpt>
      <trkpt lat="45.20644" lon="6.69052">
        <ele>1154.68</ele>
        <time>2016-10-05T07:16:46Z</time>
      </trkpt>
      <trkpt lat="45.20654" lon="6.69091">
        <ele>1156.6</ele>
        <time>2016-10-05T07:17:01Z</time>
      </trkpt>
      <trkpt lat="45.2066" lon="6.69125">
        <ele>1158.05</ele>
        <time>2016-10-05T07:17:14Z</time>
      </trkpt>
      <trkpt lat="45.20666" lon="6.69162">
        <ele>1159.97</ele>
        <time>2016-10-05T07:17:28Z</time>
      </trkpt>
      <trkpt lat="45.20678" lon="6.69207">
        <ele>1161.89</ele>
        <time>2016-10-05T07:17:45Z</time>
      </trkpt>
      <trkpt lat="45.20697" lon="6.69245">
        <ele>1163.81</ele>
        <time>2016-10-05T07:18:00Z</time>
      </trkpt>
      <trkpt lat="45.20707" lon="6.69288">
        <ele>1164.77</ele>
        <time>2016-10-05T07:18:16Z</time>
      </trkpt>
      <trkpt lat="45.20716" lon="6.69326">
        <ele>1166.7</ele>
        <time>2016-10-05T07:18:31Z</time>
      </trkpt>
      <trkpt lat="45.20721" lon="6.69335">
        <ele>1167.66</ele>
        <time>2016-10-05T07:18:36Z</time>
      </trkpt>
      <trkpt lat="45.20722" lon="6.69337">
        <ele>1167.66</ele>
        <time>2016-10-05T07:18:37Z</time>
      </trkpt>
      <trkpt lat="45.20723" lon="6.69339">
        <ele>1168.14</ele>
        <time>2016-10-05T07:18:38Z</time>
      </trkpt>
      <trkpt lat="45.20724" lon="6.6934">
        <ele>1167.66</ele>
        <time>2016-10-05T07:18:39Z</time>
      </trkpt>
      <trkpt lat="45.20726" lon="6.69342">
        <ele>1167.66</ele>
        <time>2016-10-05T07:18:40Z</time>
      </trkpt>
      <trkpt lat="45.20729" lon="6.69344">
        <ele>1167.66</ele>
        <time>2016-10-05T07:18:41Z</time>
      </trkpt>
      <trkpt lat="45.20731" lon="6.69346">
        <ele>1168.14</ele>
        <time>2016-10-05T07:18:42Z</time>
      </trkpt>
      <trkpt lat="45.20734" lon="6.69349">
        <ele>1168.14</ele>
        <time>2016-10-05T07:18:43Z</time>
      </trkpt>
      <trkpt lat="45.20738" lon="6.69352">
        <ele>1168.62</ele>
        <time>2016-10-05T07:18:44Z</time>
      </trkpt>
      <trkpt lat="45.2074" lon="6.69355">
        <ele>1168.14</ele>
        <time>2016-10-05T07:18:45Z</time>
      </trkpt>
      <trkpt lat="45.20742" lon="6.69357">
        <ele>1169.1</ele>
        <time>2016-10-05T07:18:46Z</time>
      </trkpt>
      <trkpt lat="45.20767" lon="6.69384">
        <ele>1170.54</ele>
        <time>2016-10-05T07:19:00Z</time>
      </trkpt>
      <trkpt lat="45.20763" lon="6.69411">
        <ele>1172.95</ele>
        <time>2016-10-05T07:19:14Z</time>
      </trkpt>
      <trkpt lat="45.20749" lon="6.69432">
        <ele>1174.39</ele>
        <time>2016-10-05T07:19:29Z</time>
      </trkpt>
      <trkpt lat="45.20733" lon="6.69455">
        <ele>1176.31</ele>
        <time>2016-10-05T07:19:43Z</time>
      </trkpt>
      <trkpt lat="45.20717" lon="6.69476">
        <ele>1177.75</ele>
        <time>2016-10-05T07:19:55Z</time>
      </trkpt>
      <trkpt lat="45.20697" lon="6.69503">
        <ele>1180.16</ele>
        <time>2016-10-05T07:20:10Z</time>
      </trkpt>
      <trkpt lat="45.20674" lon="6.69523">
        <ele>1181.12</ele>
        <time>2016-10-05T07:20:24Z</time>
      </trkpt>
      <trkpt lat="45.20655" lon="6.69542">
        <ele>1183.52</ele>
        <time>2016-10-05T07:20:38Z</time>
      </trkpt>
      <trkpt lat="45.20643" lon="6.69555">
        <ele>1184</ele>
        <time>2016-10-05T07:20:46Z</time>
      </trkpt>
      <trkpt lat="45.20642" lon="6.69557">
        <ele>1184</ele>
        <time>2016-10-05T07:20:47Z</time>
      </trkpt>
      <trkpt lat="45.20641" lon="6.69559">
        <ele>1183.52</ele>
        <time>2016-10-05T07:20:48Z</time>
      </trkpt>
      <trkpt lat="45.20623" lon="6.696">
        <ele>1186.4</ele>
        <time>2016-10-05T07:21:04Z</time>
      </trkpt>
      <trkpt lat="45.20611" lon="6.69642">
        <ele>1188.33</ele>
        <time>2016-10-05T07:21:18Z</time>
      </trkpt>
      <trkpt lat="45.20604" lon="6.69681">
        <ele>1190.73</ele>
        <time>2016-10-05T07:21:33Z</time>
      </trkpt>
      <trkpt lat="45.20598" lon="6.69714">
        <ele>1191.69</ele>
        <time>2016-10-05T07:21:45Z</time>
      </trkpt>
      <trkpt lat="45.20594" lon="6.69746">
        <ele>1194.09</ele>
        <time>2016-10-05T07:21:56Z</time>
      </trkpt>
      <trkpt lat="45.20588" lon="6.69784">
        <ele>1194.58</ele>
        <time>2016-10-05T07:22:10Z</time>
      </trkpt>
      <trkpt lat="45.20588" lon="6.69792">
        <ele>1195.06</ele>
        <time>2016-10-05T07:22:13Z</time>
      </trkpt>
      <trkpt lat="45.20587" lon="6.69795">
        <ele>1196.02</ele>
        <time>2016-10-05T07:22:14Z</time>
      </trkpt>
      <trkpt lat="45.20587" lon="6.69797">
        <ele>1195.54</ele>
        <time>2016-10-05T07:22:15Z</time>
      </trkpt>
      <trkpt lat="45.20586" lon="6.698">
        <ele>1195.54</ele>
        <time>2016-10-05T07:22:16Z</time>
      </trkpt>
      <trkpt lat="45.20586" lon="6.69803">
        <ele>1196.02</ele>
        <time>2016-10-05T07:22:17Z</time>
      </trkpt>
      <trkpt lat="45.20585" lon="6.69806">
        <ele>1196.02</ele>
        <time>2016-10-05T07:22:18Z</time>
      </trkpt>
      <trkpt lat="45.20582" lon="6.69848">
        <ele>1197.46</ele>
        <time>2016-10-05T07:22:31Z</time>
      </trkpt>
      <trkpt lat="45.20582" lon="6.69901">
        <ele>1197.94</ele>
        <time>2016-10-05T07:22:44Z</time>
      </trkpt>
      <trkpt lat="45.20582" lon="6.69964">
        <ele>1198.42</ele>
        <time>2016-10-05T07:22:59Z</time>
      </trkpt>
      <trkpt lat="45.20574" lon="6.7002">
        <ele>1199.86</ele>
        <time>2016-10-05T07:23:12Z</time>
      </trkpt>
      <trkpt lat="45.20565" lon="6.70087">
        <ele>1199.86</ele>
        <time>2016-10-05T07:23:27Z</time>
      </trkpt>
      <trkpt lat="45.20557" lon="6.70158">
        <ele>1201.79</ele>
        <time>2016-10-05T07:23:43Z</time>
      </trkpt>
      <trkpt lat="45.20566" lon="6.70234">
        <ele>1202.27</ele>
        <time>2016-10-05T07:23:59Z</time>
      </trkpt>
      <trkpt lat="45.2058" lon="6.70308">
        <ele>1203.23</ele>
        <time>2016-10-05T07:24:14Z</time>
      </trkpt>
      <trkpt lat="45.20562" lon="6.70368">
        <ele>1204.67</ele>
        <time>2016-10-05T07:24:27Z</time>
      </trkpt>
      <trkpt lat="45.2055" lon="6.70438">
        <ele>1205.63</ele>
        <time>2016-10-05T07:24:41Z</time>
      </trkpt>
      <trkpt lat="45.20552" lon="6.70514">
        <ele>1206.59</ele>
        <time>2016-10-05T07:24:58Z</time>
      </trkpt>
      <trkpt lat="45.20572" lon="6.70551">
        <ele>1206.11</ele>
        <time>2016-10-05T07:25:08Z</time>
      </trkpt>
      <trkpt lat="45.20602" lon="6.7061">
        <ele>1208.03</ele>
        <time>2016-10-05T07:25:23Z</time>
      </trkpt>
      <trkpt lat="45.20633" lon="6.70681">
        <ele>1209</ele>
        <time>2016-10-05T07:25:40Z</time>
      </trkpt>
      <trkpt lat="45.2066" lon="6.7075">
        <ele>1209.96</ele>
        <time>2016-10-05T07:25:56Z</time>
      </trkpt>
      <trkpt lat="45.20687" lon="6.70832">
        <ele>1211.4</ele>
        <time>2016-10-05T07:26:14Z</time>
      </trkpt>
      <trkpt lat="45.20694" lon="6.70902">
        <ele>1212.84</ele>
        <time>2016-10-05T07:26:29Z</time>
      </trkpt>
      <trkpt lat="45.20685" lon="6.70961">
        <ele>1214.28</ele>
        <time>2016-10-05T07:26:42Z</time>
      </trkpt>
      <trkpt lat="45.20688" lon="6.71019">
        <ele>1214.76</ele>
        <time>2016-10-05T07:26:55Z</time>
      </trkpt>
      <trkpt lat="45.20701" lon="6.71086">
        <ele>1216.69</ele>
        <time>2016-10-05T07:27:10Z</time>
      </trkpt>
      <trkpt lat="45.207" lon="6.71157">
        <ele>1217.65</ele>
        <time>2016-10-05T07:27:26Z</time>
      </trkpt>
      <trkpt lat="45.20698" lon="6.71229">
        <ele>1218.61</ele>
        <time>2016-10-05T07:27:42Z</time>
      </trkpt>
      <trkpt lat="45.2072" lon="6.71303">
        <ele>1220.05</ele>
        <time>2016-10-05T07:27:59Z</time>
      </trkpt>
      <trkpt lat="45.20744" lon="6.71364">
        <ele>1221.49</ele>
        <time>2016-10-05T07:28:14Z</time>
      </trkpt>
      <trkpt lat="45.20745" lon="6.71426">
        <ele>1222.45</ele>
        <time>2016-10-05T07:28:28Z</time>
      </trkpt>
      <trkpt lat="45.2073" lon="6.71487">
        <ele>1223.42</ele>
        <time>2016-10-05T07:28:42Z</time>
      </trkpt>
      <trkpt lat="45.20708" lon="6.7156">
        <ele>1222.93</ele>
        <time>2016-10-05T07:28:57Z</time>
      </trkpt>
      <trkpt lat="45.20705" lon="6.71601">
        <ele>1225.34</ele>
        <time>2016-10-05T07:29:05Z</time>
      </trkpt>
      <trkpt lat="45.2073" lon="6.71673">
        <ele>1226.3</ele>
        <time>2016-10-05T07:29:19Z</time>
      </trkpt>
      <trkpt lat="45.20751" lon="6.71709">
        <ele>1225.82</ele>
        <time>2016-10-05T07:29:28Z</time>
      </trkpt>
      <trkpt lat="45.20798" lon="6.71729">
        <ele>1228.7</ele>
        <time>2016-10-05T07:29:40Z</time>
      </trkpt>
      <trkpt lat="45.20849" lon="6.71758">
        <ele>1228.7</ele>
        <time>2016-10-05T07:29:54Z</time>
      </trkpt>
      <trkpt lat="45.20902" lon="6.71797">
        <ele>1230.14</ele>
        <time>2016-10-05T07:30:09Z</time>
      </trkpt>
      <trkpt lat="45.20958" lon="6.71856">
        <ele>1232.07</ele>
        <time>2016-10-05T07:30:28Z</time>
      </trkpt>
      <trkpt lat="45.20986" lon="6.71898">
        <ele>1232.55</ele>
        <time>2016-10-05T07:30:40Z</time>
      </trkpt>
      <trkpt lat="45.20998" lon="6.7196">
        <ele>1233.51</ele>
        <time>2016-10-05T07:30:54Z</time>
      </trkpt>
      <trkpt lat="45.20989" lon="6.72011">
        <ele>1234.47</ele>
        <time>2016-10-05T07:31:06Z</time>
      </trkpt>
      <trkpt lat="45.20988" lon="6.72014">
        <ele>1234.47</ele>
        <time>2016-10-05T07:31:07Z</time>
      </trkpt>
      <trkpt lat="45.20987" lon="6.72018">
        <ele>1234.95</ele>
        <time>2016-10-05T07:31:08Z</time>
      </trkpt>
      <trkpt lat="45.2098" lon="6.72034">
        <ele>1235.43</ele>
        <time>2016-10-05T07:31:18Z</time>
      </trkpt>
      <trkpt lat="45.20984" lon="6.72037">
        <ele>1234.47</ele>
        <time>2016-10-05T07:31:40Z</time>
      </trkpt>
      <trkpt lat="45.20988" lon="6.72035">
        <ele>1234.95</ele>
        <time>2016-10-05T07:32:07Z</time>
      </trkpt>
      <trkpt lat="45.20991" lon="6.72041">
        <ele>1234.47</ele>
        <time>2016-10-05T07:32:35Z</time>
      </trkpt>
      <trkpt lat="45.21002" lon="6.72044">
        <ele>1234.47</ele>
        <time>2016-10-05T07:32:59Z</time>
      </trkpt>
      <trkpt lat="45.21004" lon="6.72046">
        <ele>1234.95</ele>
        <time>2016-10-05T07:33:22Z</time>
      </trkpt>
      <trkpt lat="45.21004" lon="6.7205">
        <ele>1234.47</ele>
        <time>2016-10-05T07:33:35Z</time>
      </trkpt>
      <trkpt lat="45.21005" lon="6.72052">
        <ele>1234.95</ele>
        <time>2016-10-05T07:33:36Z</time>
      </trkpt>
      <trkpt lat="45.21005" lon="6.72054">
        <ele>1234.47</ele>
        <time>2016-10-05T07:33:37Z</time>
      </trkpt>
      <trkpt lat="45.21004" lon="6.72057">
        <ele>1234.95</ele>
        <time>2016-10-05T07:33:38Z</time>
      </trkpt>
      <trkpt lat="45.21003" lon="6.7206">
        <ele>1234.95</ele>
        <time>2016-10-05T07:33:39Z</time>
      </trkpt>
      <trkpt lat="45.21002" lon="6.72063">
        <ele>1235.43</ele>
        <time>2016-10-05T07:33:40Z</time>
      </trkpt>
      <trkpt lat="45.21001" lon="6.72066">
        <ele>1235.43</ele>
        <time>2016-10-05T07:33:41Z</time>
      </trkpt>
      <trkpt lat="45.21004" lon="6.72115">
        <ele>1235.91</ele>
        <time>2016-10-05T07:33:54Z</time>
      </trkpt>
      <trkpt lat="45.21027" lon="6.72196">
        <ele>1237.35</ele>
        <time>2016-10-05T07:34:14Z</time>
      </trkpt>
      <trkpt lat="45.21053" lon="6.72274">
        <ele>1238.8</ele>
        <time>2016-10-05T07:34:33Z</time>
      </trkpt>
      <trkpt lat="45.21069" lon="6.72332">
        <ele>1239.76</ele>
        <time>2016-10-05T07:34:47Z</time>
      </trkpt>
      <trkpt lat="45.21064" lon="6.72392">
        <ele>1240.24</ele>
        <time>2016-10-05T07:35:01Z</time>
      </trkpt>
      <trkpt lat="45.2104" lon="6.72445">
        <ele>1241.2</ele>
        <time>2016-10-05T07:35:16Z</time>
      </trkpt>
      <trkpt lat="45.21017" lon="6.72502">
        <ele>1241.68</ele>
        <time>2016-10-05T07:35:30Z</time>
      </trkpt>
      <trkpt lat="45.20997" lon="6.72541">
        <ele>1242.64</ele>
        <time>2016-10-05T07:35:41Z</time>
      </trkpt>
      <trkpt lat="45.2098" lon="6.72581">
        <ele>1243.6</ele>
        <time>2016-10-05T07:35:51Z</time>
      </trkpt>
      <trkpt lat="45.20953" lon="6.7261">
        <ele>1243.12</ele>
        <time>2016-10-05T07:36:01Z</time>
      </trkpt>
      <trkpt lat="45.20916" lon="6.7266">
        <ele>1244.08</ele>
        <time>2016-10-05T07:36:16Z</time>
      </trkpt>
      <trkpt lat="45.20906" lon="6.72721">
        <ele>1245.53</ele>
        <time>2016-10-05T07:36:28Z</time>
      </trkpt>
      <trkpt lat="45.20907" lon="6.72804">
        <ele>1246.97</ele>
        <time>2016-10-05T07:36:45Z</time>
      </trkpt>
      <trkpt lat="45.20898" lon="6.72881">
        <ele>1247.93</ele>
        <time>2016-10-05T07:37:01Z</time>
      </trkpt>
      <trkpt lat="45.20893" lon="6.72948">
        <ele>1249.37</ele>
        <time>2016-10-05T07:37:15Z</time>
      </trkpt>
      <trkpt lat="45.20891" lon="6.73025">
        <ele>1249.85</ele>
        <time>2016-10-05T07:37:31Z</time>
      </trkpt>
      <trkpt lat="45.2089" lon="6.73087">
        <ele>1250.33</ele>
        <time>2016-10-05T07:37:44Z</time>
      </trkpt>
      <trkpt lat="45.20883" lon="6.73159">
        <ele>1251.77</ele>
        <time>2016-10-05T07:37:59Z</time>
      </trkpt>
      <trkpt lat="45.20866" lon="6.73222">
        <ele>1252.25</ele>
        <time>2016-10-05T07:38:14Z</time>
      </trkpt>
      <trkpt lat="45.20852" lon="6.73257">
        <ele>1253.22</ele>
        <time>2016-10-05T07:38:23Z</time>
      </trkpt>
      <trkpt lat="45.20833" lon="6.73306">
        <ele>1253.22</ele>
        <time>2016-10-05T07:38:37Z</time>
      </trkpt>
      <trkpt lat="45.20832" lon="6.73311">
        <ele>1253.7</ele>
        <time>2016-10-05T07:38:39Z</time>
      </trkpt>
      <trkpt lat="45.2083" lon="6.73313">
        <ele>1254.18</ele>
        <time>2016-10-05T07:38:40Z</time>
      </trkpt>
      <trkpt lat="45.2083" lon="6.73315">
        <ele>1253.7</ele>
        <time>2016-10-05T07:38:41Z</time>
      </trkpt>
      <trkpt lat="45.20828" lon="6.73319">
        <ele>1254.18</ele>
        <time>2016-10-05T07:38:43Z</time>
      </trkpt>
      <trkpt lat="45.20824" lon="6.73321">
        <ele>1254.66</ele>
        <time>2016-10-05T07:38:44Z</time>
      </trkpt>
      <trkpt lat="45.20773" lon="6.73355">
        <ele>1255.14</ele>
        <time>2016-10-05T07:38:59Z</time>
      </trkpt>
      <trkpt lat="45.20748" lon="6.73386">
        <ele>1256.1</ele>
        <time>2016-10-05T07:39:09Z</time>
      </trkpt>
      <trkpt lat="45.20713" lon="6.73416">
        <ele>1256.58</ele>
        <time>2016-10-05T07:39:21Z</time>
      </trkpt>
      <trkpt lat="45.2066" lon="6.73436">
        <ele>1257.54</ele>
        <time>2016-10-05T07:39:35Z</time>
      </trkpt>
      <trkpt lat="45.20652" lon="6.73453">
        <ele>1257.54</ele>
        <time>2016-10-05T07:39:40Z</time>
      </trkpt>
      <trkpt lat="45.20653" lon="6.73474">
        <ele>1256.58</ele>
        <time>2016-10-05T07:39:51Z</time>
      </trkpt>
      <trkpt lat="45.20653" lon="6.73481">
        <ele>1257.06</ele>
        <time>2016-10-05T07:40:18Z</time>
      </trkpt>
      <trkpt lat="45.20653" lon="6.73482">
        <ele>1256.58</ele>
        <time>2016-10-05T07:40:19Z</time>
      </trkpt>
      <trkpt lat="45.20649" lon="6.7349">
        <ele>1258.02</ele>
        <time>2016-10-05T07:40:24Z</time>
      </trkpt>
      <trkpt lat="45.20648" lon="6.73492">
        <ele>1257.54</ele>
        <time>2016-10-05T07:40:25Z</time>
      </trkpt>
      <trkpt lat="45.20646" lon="6.73494">
        <ele>1257.54</ele>
        <time>2016-10-05T07:40:26Z</time>
      </trkpt>
      <trkpt lat="45.20643" lon="6.735">
        <ele>1257.54</ele>
        <time>2016-10-05T07:40:28Z</time>
      </trkpt>
      <trkpt lat="45.20641" lon="6.73504">
        <ele>1258.02</ele>
        <time>2016-10-05T07:40:29Z</time>
      </trkpt>
      <trkpt lat="45.20646" lon="6.73546">
        <ele>1258.5</ele>
        <time>2016-10-05T07:40:39Z</time>
      </trkpt>
      <trkpt lat="45.20679" lon="6.7358">
        <ele>1259.46</ele>
        <time>2016-10-05T07:40:52Z</time>
      </trkpt>
      <trkpt lat="45.20713" lon="6.73598">
        <ele>1259.94</ele>
        <time>2016-10-05T07:41:04Z</time>
      </trkpt>
      <trkpt lat="45.20748" lon="6.73645">
        <ele>1260.43</ele>
        <time>2016-10-05T07:41:17Z</time>
      </trkpt>
      <trkpt lat="45.20752" lon="6.73655">
        <ele>1259.46</ele>
        <time>2016-10-05T07:41:19Z</time>
      </trkpt>
      <trkpt lat="45.20788" lon="6.73747">
        <ele>1258.02</ele>
        <time>2016-10-05T07:41:34Z</time>
      </trkpt>
      <trkpt lat="45.20839" lon="6.73874">
        <ele>1256.1</ele>
        <time>2016-10-05T07:41:50Z</time>
      </trkpt>
      <trkpt lat="45.20848" lon="6.73909">
        <ele>1255.14</ele>
        <time>2016-10-05T07:41:54Z</time>
      </trkpt>
      <trkpt lat="45.2085" lon="6.73917">
        <ele>1256.1</ele>
        <time>2016-10-05T07:41:55Z</time>
      </trkpt>
      <trkpt lat="45.20877" lon="6.74036">
        <ele>1253.22</ele>
        <time>2016-10-05T07:42:08Z</time>
      </trkpt>
      <trkpt lat="45.20881" lon="6.74044">
        <ele>1253.7</ele>
        <time>2016-10-05T07:42:09Z</time>
      </trkpt>
      <trkpt lat="45.20885" lon="6.74052">
        <ele>1253.7</ele>
        <time>2016-10-05T07:42:10Z</time>
      </trkpt>
      <trkpt lat="45.2089" lon="6.74059">
        <ele>1252.74</ele>
        <time>2016-10-05T07:42:11Z</time>
      </trkpt>
      <trkpt lat="45.20895" lon="6.74065">
        <ele>1252.74</ele>
        <time>2016-10-05T07:42:12Z</time>
      </trkpt>
      <trkpt lat="45.20901" lon="6.74071">
        <ele>1252.25</ele>
        <time>2016-10-05T07:42:13Z</time>
      </trkpt>
      <trkpt lat="45.20908" lon="6.74075">
        <ele>1251.77</ele>
        <time>2016-10-05T07:42:14Z</time>
      </trkpt>
      <trkpt lat="45.20961" lon="6.74096">
        <ele>1250.81</ele>
        <time>2016-10-05T07:42:20Z</time>
      </trkpt>
      <trkpt lat="45.20968" lon="6.74102">
        <ele>1250.33</ele>
        <time>2016-10-05T07:42:21Z</time>
      </trkpt>
      <trkpt lat="45.20975" lon="6.7411">
        <ele>1249.37</ele>
        <time>2016-10-05T07:42:22Z</time>
      </trkpt>
      <trkpt lat="45.20981" lon="6.74118">
        <ele>1250.33</ele>
        <time>2016-10-05T07:42:23Z</time>
      </trkpt>
      <trkpt lat="45.20987" lon="6.74127">
        <ele>1250.33</ele>
        <time>2016-10-05T07:42:24Z</time>
      </trkpt>
      <trkpt lat="45.20997" lon="6.74145">
        <ele>1250.33</ele>
        <time>2016-10-05T07:42:26Z</time>
      </trkpt>
      <trkpt lat="45.21005" lon="6.74164">
        <ele>1248.89</ele>
        <time>2016-10-05T07:42:28Z</time>
      </trkpt>
      <trkpt lat="45.21008" lon="6.74174">
        <ele>1249.37</ele>
        <time>2016-10-05T07:42:29Z</time>
      </trkpt>
      <trkpt lat="45.21024" lon="6.74225">
        <ele>1247.93</ele>
        <time>2016-10-05T07:42:34Z</time>
      </trkpt>
      <trkpt lat="45.21029" lon="6.74234">
        <ele>1247.93</ele>
        <time>2016-10-05T07:42:35Z</time>
      </trkpt>
      <trkpt lat="45.21048" lon="6.7427">
        <ele>1246.01</ele>
        <time>2016-10-05T07:42:39Z</time>
      </trkpt>
      <trkpt lat="45.21052" lon="6.74279">
        <ele>1245.04</ele>
        <time>2016-10-05T07:42:40Z</time>
      </trkpt>
      <trkpt lat="45.21072" lon="6.74348">
        <ele>1245.04</ele>
        <time>2016-10-05T07:42:47Z</time>
      </trkpt>
      <trkpt lat="45.21078" lon="6.7439">
        <ele>1244.56</ele>
        <time>2016-10-05T07:42:51Z</time>
      </trkpt>
      <trkpt lat="45.21079" lon="6.74401">
        <ele>1244.08</ele>
        <time>2016-10-05T07:42:52Z</time>
      </trkpt>
      <trkpt lat="45.2108" lon="6.74412">
        <ele>1243.12</ele>
        <time>2016-10-05T07:42:53Z</time>
      </trkpt>
      <trkpt lat="45.21086" lon="6.74466">
        <ele>1243.12</ele>
        <time>2016-10-05T07:42:58Z</time>
      </trkpt>
      <trkpt lat="45.21088" lon="6.74476">
        <ele>1243.12</ele>
        <time>2016-10-05T07:42:59Z</time>
      </trkpt>
      <trkpt lat="45.21091" lon="6.74485">
        <ele>1242.64</ele>
        <time>2016-10-05T07:43:00Z</time>
      </trkpt>
      <trkpt lat="45.21103" lon="6.74505">
        <ele>1241.68</ele>
        <time>2016-10-05T07:43:02Z</time>
      </trkpt>
      <trkpt lat="45.21108" lon="6.74516">
        <ele>1242.16</ele>
        <time>2016-10-05T07:43:03Z</time>
      </trkpt>
      <trkpt lat="45.21127" lon="6.74587">
        <ele>1240.24</ele>
        <time>2016-10-05T07:43:09Z</time>
      </trkpt>
      <trkpt lat="45.21136" lon="6.74607">
        <ele>1239.28</ele>
        <time>2016-10-05T07:43:11Z</time>
      </trkpt>
      <trkpt lat="45.21143" lon="6.74616">
        <ele>1238.8</ele>
        <time>2016-10-05T07:43:12Z</time>
      </trkpt>
      <trkpt lat="45.21166" lon="6.74641">
        <ele>1237.83</ele>
        <time>2016-10-05T07:43:15Z</time>
      </trkpt>
      <trkpt lat="45.21176" lon="6.74644">
        <ele>1237.35</ele>
        <time>2016-10-05T07:43:16Z</time>
      </trkpt>
      <trkpt lat="45.21187" lon="6.74644">
        <ele>1237.35</ele>
        <time>2016-10-05T07:43:17Z</time>
      </trkpt>
      <trkpt lat="45.21206" lon="6.74645">
        <ele>1236.39</ele>
        <time>2016-10-05T07:43:19Z</time>
      </trkpt>
      <trkpt lat="45.21218" lon="6.74648">
        <ele>1236.39</ele>
        <time>2016-10-05T07:43:20Z</time>
      </trkpt>
      <trkpt lat="45.21229" lon="6.74654">
        <ele>1235.43</ele>
        <time>2016-10-05T07:43:21Z</time>
      </trkpt>
      <trkpt lat="45.21239" lon="6.74662">
        <ele>1234.47</ele>
        <time>2016-10-05T07:43:22Z</time>
      </trkpt>
      <trkpt lat="45.21277" lon="6.74695">
        <ele>1232.07</ele>
        <time>2016-10-05T07:43:26Z</time>
      </trkpt>
      <trkpt lat="45.21284" lon="6.74706">
        <ele>1232.07</ele>
        <time>2016-10-05T07:43:27Z</time>
      </trkpt>
      <trkpt lat="45.21312" lon="6.74746">
        <ele>1231.11</ele>
        <time>2016-10-05T07:43:31Z</time>
      </trkpt>
      <trkpt lat="45.21317" lon="6.74758">
        <ele>1231.11</ele>
        <time>2016-10-05T07:43:32Z</time>
      </trkpt>
      <trkpt lat="45.21321" lon="6.74769">
        <ele>1230.62</ele>
        <time>2016-10-05T07:43:33Z</time>
      </trkpt>
      <trkpt lat="45.21324" lon="6.74781">
        <ele>1230.14</ele>
        <time>2016-10-05T07:43:34Z</time>
      </trkpt>
      <trkpt lat="45.21326" lon="6.74793">
        <ele>1230.14</ele>
        <time>2016-10-05T07:43:35Z</time>
      </trkpt>
      <trkpt lat="45.21329" lon="6.74805">
        <ele>1230.14</ele>
        <time>2016-10-05T07:43:36Z</time>
      </trkpt>
      <trkpt lat="45.21349" lon="6.74858">
        <ele>1229.66</ele>
        <time>2016-10-05T07:43:41Z</time>
      </trkpt>
      <trkpt lat="45.21361" lon="6.74875">
        <ele>1230.14</ele>
        <time>2016-10-05T07:43:43Z</time>
      </trkpt>
      <trkpt lat="45.21366" lon="6.74883">
        <ele>1230.14</ele>
        <time>2016-10-05T07:43:44Z</time>
      </trkpt>
      <trkpt lat="45.21373" lon="6.74889">
        <ele>1230.14</ele>
        <time>2016-10-05T07:43:45Z</time>
      </trkpt>
      <trkpt lat="45.21379" lon="6.74894">
        <ele>1229.66</ele>
        <time>2016-10-05T07:43:46Z</time>
      </trkpt>
      <trkpt lat="45.21387" lon="6.74899">
        <ele>1229.66</ele>
        <time>2016-10-05T07:43:47Z</time>
      </trkpt>
      <trkpt lat="45.21395" lon="6.74902">
        <ele>1229.18</ele>
        <time>2016-10-05T07:43:48Z</time>
      </trkpt>
      <trkpt lat="45.21411" lon="6.74912">
        <ele>1228.7</ele>
        <time>2016-10-05T07:43:50Z</time>
      </trkpt>
      <trkpt lat="45.21418" lon="6.74919">
        <ele>1228.22</ele>
        <time>2016-10-05T07:43:51Z</time>
      </trkpt>
      <trkpt lat="45.21424" lon="6.74928">
        <ele>1228.22</ele>
        <time>2016-10-05T07:43:52Z</time>
      </trkpt>
      <trkpt lat="45.2146" lon="6.74992">
        <ele>1226.78</ele>
        <time>2016-10-05T07:43:59Z</time>
      </trkpt>
      <trkpt lat="45.21464" lon="6.75002">
        <ele>1226.3</ele>
        <time>2016-10-05T07:44:00Z</time>
      </trkpt>
      <trkpt lat="45.21482" lon="6.75075">
        <ele>1225.82</ele>
        <time>2016-10-05T07:44:07Z</time>
      </trkpt>
      <trkpt lat="45.21482" lon="6.75106">
        <ele>1225.82</ele>
        <time>2016-10-05T07:44:10Z</time>
      </trkpt>
      <trkpt lat="45.21474" lon="6.75163">
        <ele>1226.3</ele>
        <time>2016-10-05T07:44:16Z</time>
      </trkpt>
      <trkpt lat="45.21475" lon="6.75173">
        <ele>1225.82</ele>
        <time>2016-10-05T07:44:17Z</time>
      </trkpt>
      <trkpt lat="45.21477" lon="6.75183">
        <ele>1224.86</ele>
        <time>2016-10-05T07:44:18Z</time>
      </trkpt>
      <trkpt lat="45.21479" lon="6.75193">
        <ele>1224.86</ele>
        <time>2016-10-05T07:44:19Z</time>
      </trkpt>
      <trkpt lat="45.21491" lon="6.75238">
        <ele>1221.97</ele>
        <time>2016-10-05T07:44:23Z</time>
      </trkpt>
      <trkpt lat="45.21497" lon="6.75249">
        <ele>1221.97</ele>
        <time>2016-10-05T07:44:24Z</time>
      </trkpt>
      <trkpt lat="45.21503" lon="6.75258">
        <ele>1221.49</ele>
        <time>2016-10-05T07:44:25Z</time>
      </trkpt>
      <trkpt lat="45.2151" lon="6.75267">
        <ele>1221.49</ele>
        <time>2016-10-05T07:44:26Z</time>
      </trkpt>
      <trkpt lat="45.21517" lon="6.75275">
        <ele>1221.01</ele>
        <time>2016-10-05T07:44:27Z</time>
      </trkpt>
      <trkpt lat="45.21525" lon="6.75282">
        <ele>1221.01</ele>
        <time>2016-10-05T07:44:28Z</time>
      </trkpt>
      <trkpt lat="45.21579" lon="6.7533">
        <ele>1220.53</ele>
        <time>2016-10-05T07:44:35Z</time>
      </trkpt>
      <trkpt lat="45.21589" lon="6.75334">
        <ele>1220.53</ele>
        <time>2016-10-05T07:44:36Z</time>
      </trkpt>
      <trkpt lat="45.21598" lon="6.75337">
        <ele>1220.53</ele>
        <time>2016-10-05T07:44:37Z</time>
      </trkpt>
      <trkpt lat="45.21625" lon="6.75342">
        <ele>1219.57</ele>
        <time>2016-10-05T07:44:40Z</time>
      </trkpt>
      <trkpt lat="45.21633" lon="6.75346">
        <ele>1218.61</ele>
        <time>2016-10-05T07:44:41Z</time>
      </trkpt>
      <trkpt lat="45.21641" lon="6.75352">
        <ele>1218.61</ele>
        <time>2016-10-05T07:44:42Z</time>
      </trkpt>
      <trkpt lat="45.21649" lon="6.75359">
        <ele>1217.65</ele>
        <time>2016-10-05T07:44:43Z</time>
      </trkpt>
      <trkpt lat="45.21655" lon="6.75368">
        <ele>1218.61</ele>
        <time>2016-10-05T07:44:44Z</time>
      </trkpt>
      <trkpt lat="45.21667" lon="6.75387">
        <ele>1218.13</ele>
        <time>2016-10-05T07:44:46Z</time>
      </trkpt>
      <trkpt lat="45.21681" lon="6.75418">
        <ele>1216.69</ele>
        <time>2016-10-05T07:44:49Z</time>
      </trkpt>
      <trkpt lat="45.21692" lon="6.75452">
        <ele>1215.72</ele>
        <time>2016-10-05T07:44:52Z</time>
      </trkpt>
      <trkpt lat="45.21702" lon="6.75472">
        <ele>1216.69</ele>
        <time>2016-10-05T07:44:54Z</time>
      </trkpt>
      <trkpt lat="45.21708" lon="6.7548">
        <ele>1216.69</ele>
        <time>2016-10-05T07:44:55Z</time>
      </trkpt>
      <trkpt lat="45.21741" lon="6.75516">
        <ele>1214.76</ele>
        <time>2016-10-05T07:45:00Z</time>
      </trkpt>
      <trkpt lat="45.21805" lon="6.75602">
        <ele>1212.84</ele>
        <time>2016-10-05T07:45:10Z</time>
      </trkpt>
      <trkpt lat="45.21849" lon="6.75677">
        <ele>1209.96</ele>
        <time>2016-10-05T07:45:18Z</time>
      </trkpt>
      <trkpt lat="45.21892" lon="6.75773">
        <ele>1208.51</ele>
        <time>2016-10-05T07:45:27Z</time>
      </trkpt>
      <trkpt lat="45.21898" lon="6.75797">
        <ele>1208.51</ele>
        <time>2016-10-05T07:45:29Z</time>
      </trkpt>
      <trkpt lat="45.219" lon="6.7581">
        <ele>1209</ele>
        <time>2016-10-05T07:45:30Z</time>
      </trkpt>
      <trkpt lat="45.21911" lon="6.75927">
        <ele>1205.63</ele>
        <time>2016-10-05T07:45:39Z</time>
      </trkpt>
      <trkpt lat="45.21917" lon="6.75992">
        <ele>1204.19</ele>
        <time>2016-10-05T07:45:44Z</time>
      </trkpt>
      <trkpt lat="45.2193" lon="6.76083">
        <ele>1201.79</ele>
        <time>2016-10-05T07:45:51Z</time>
      </trkpt>
      <trkpt lat="45.21933" lon="6.76091">
        <ele>1201.3</ele>
        <time>2016-10-05T07:45:52Z</time>
      </trkpt>
      <trkpt lat="45.21937" lon="6.76103">
        <ele>1200.82</ele>
        <time>2016-10-05T07:45:53Z</time>
      </trkpt>
      <trkpt lat="45.21943" lon="6.76113">
        <ele>1199.86</ele>
        <time>2016-10-05T07:45:54Z</time>
      </trkpt>
      <trkpt lat="45.2195" lon="6.76123">
        <ele>1199.38</ele>
        <time>2016-10-05T07:45:55Z</time>
      </trkpt>
      <trkpt lat="45.21958" lon="6.76132">
        <ele>1198.42</ele>
        <time>2016-10-05T07:45:56Z</time>
      </trkpt>
      <trkpt lat="45.21965" lon="6.76139">
        <ele>1198.42</ele>
        <time>2016-10-05T07:45:57Z</time>
      </trkpt>
      <trkpt lat="45.21971" lon="6.76144">
        <ele>1197.94</ele>
        <time>2016-10-05T07:45:58Z</time>
      </trkpt>
      <trkpt lat="45.21978" lon="6.76148">
        <ele>1197.94</ele>
        <time>2016-10-05T07:45:59Z</time>
      </trkpt>
      <trkpt lat="45.21984" lon="6.76152">
        <ele>1199.86</ele>
        <time>2016-10-05T07:46:00Z</time>
      </trkpt>
      <trkpt lat="45.22025" lon="6.76173">
        <ele>1197.46</ele>
        <time>2016-10-05T07:46:09Z</time>
      </trkpt>
      <trkpt lat="45.2203" lon="6.76176">
        <ele>1197.94</ele>
        <time>2016-10-05T07:46:25Z</time>
      </trkpt>
      <trkpt lat="45.22034" lon="6.76174">
        <ele>1197.46</ele>
        <time>2016-10-05T07:46:55Z</time>
      </trkpt>
      <trkpt lat="45.22037" lon="6.76179">
        <ele>1197.46</ele>
        <time>2016-10-05T07:47:09Z</time>
      </trkpt>
      <trkpt lat="45.22038" lon="6.7618">
        <ele>1197.46</ele>
        <time>2016-10-05T07:47:28Z</time>
      </trkpt>
      <trkpt lat="45.2204" lon="6.76177">
        <ele>1197.94</ele>
        <time>2016-10-05T07:47:57Z</time>
      </trkpt>
      <trkpt lat="45.22041" lon="6.7618">
        <ele>1197.94</ele>
        <time>2016-10-05T07:48:32Z</time>
      </trkpt>
      <trkpt lat="45.22041" lon="6.76176">
        <ele>1197.94</ele>
        <time>2016-10-05T07:48:59Z</time>
      </trkpt>
      <trkpt lat="45.22042" lon="6.76169">
        <ele>1198.42</ele>
        <time>2016-10-05T07:49:30Z</time>
      </trkpt>
      <trkpt lat="45.22038" lon="6.7617">
        <ele>1197.94</ele>
        <time>2016-10-05T07:50:03Z</time>
      </trkpt>
      <trkpt lat="45.22037" lon="6.76171">
        <ele>1197.94</ele>
        <time>2016-10-05T07:50:27Z</time>
      </trkpt>
      <trkpt lat="45.22051" lon="6.76175">
        <ele>1198.42</ele>
        <time>2016-10-05T07:50:36Z</time>
      </trkpt>
      <trkpt lat="45.22108" lon="6.76196">
        <ele>1198.42</ele>
        <time>2016-10-05T07:50:49Z</time>
      </trkpt>
      <trkpt lat="45.2219" lon="6.76216">
        <ele>1199.38</ele>
        <time>2016-10-05T07:51:06Z</time>
      </trkpt>
      <trkpt lat="45.22242" lon="6.76227">
        <ele>1200.34</ele>
        <time>2016-10-05T07:51:18Z</time>
      </trkpt>
      <trkpt lat="45.22263" lon="6.76231">
        <ele>1199.86</ele>
        <time>2016-10-05T07:51:22Z</time>
      </trkpt>
      <trkpt lat="45.22267" lon="6.76232">
        <ele>1199.86</ele>
        <time>2016-10-05T07:51:23Z</time>
      </trkpt>
      <trkpt lat="45.22325" lon="6.76249">
        <ele>1201.3</ele>
        <time>2016-10-05T07:51:38Z</time>
      </trkpt>
      <trkpt lat="45.22362" lon="6.76299">
        <ele>1202.75</ele>
        <time>2016-10-05T07:51:51Z</time>
      </trkpt>
      <trkpt lat="45.22371" lon="6.76337">
        <ele>1203.71</ele>
        <time>2016-10-05T07:51:58Z</time>
      </trkpt>
      <trkpt lat="45.22373" lon="6.76343">
        <ele>1203.23</ele>
        <time>2016-10-05T07:51:59Z</time>
      </trkpt>
      <trkpt lat="45.22381" lon="6.76382">
        <ele>1203.23</ele>
        <time>2016-10-05T07:52:06Z</time>
      </trkpt>
      <trkpt lat="45.22382" lon="6.76388">
        <ele>1203.71</ele>
        <time>2016-10-05T07:52:07Z</time>
      </trkpt>
      <trkpt lat="45.22383" lon="6.76395">
        <ele>1203.23</ele>
        <time>2016-10-05T07:52:08Z</time>
      </trkpt>
      <trkpt lat="45.22388" lon="6.76419">
        <ele>1203.71</ele>
        <time>2016-10-05T07:52:12Z</time>
      </trkpt>
      <trkpt lat="45.22398" lon="6.76461">
        <ele>1204.19</ele>
        <time>2016-10-05T07:52:19Z</time>
      </trkpt>
      <trkpt lat="45.224" lon="6.76467">
        <ele>1204.19</ele>
        <time>2016-10-05T07:52:20Z</time>
      </trkpt>
      <trkpt lat="45.22402" lon="6.76473">
        <ele>1204.67</ele>
        <time>2016-10-05T07:52:21Z</time>
      </trkpt>
      <trkpt lat="45.22405" lon="6.76479">
        <ele>1204.19</ele>
        <time>2016-10-05T07:52:22Z</time>
      </trkpt>
      <trkpt lat="45.22406" lon="6.76485">
        <ele>1204.19</ele>
        <time>2016-10-05T07:52:23Z</time>
      </trkpt>
      <trkpt lat="45.22406" lon="6.76491">
        <ele>1204.19</ele>
        <time>2016-10-05T07:52:24Z</time>
      </trkpt>
      <trkpt lat="45.22407" lon="6.76497">
        <ele>1204.67</ele>
        <time>2016-10-05T07:52:25Z</time>
      </trkpt>
      <trkpt lat="45.22409" lon="6.76502">
        <ele>1205.15</ele>
        <time>2016-10-05T07:52:26Z</time>
      </trkpt>
      <trkpt lat="45.22436" lon="6.7657">
        <ele>1206.11</ele>
        <time>2016-10-05T07:52:39Z</time>
      </trkpt>
      <trkpt lat="45.22438" lon="6.76575">
        <ele>1205.63</ele>
        <time>2016-10-05T07:52:40Z</time>
      </trkpt>
      <trkpt lat="45.2244" lon="6.76581">
        <ele>1205.63</ele>
        <time>2016-10-05T07:52:41Z</time>
      </trkpt>
      <trkpt lat="45.22442" lon="6.76586">
        <ele>1205.63</ele>
        <time>2016-10-05T07:52:42Z</time>
      </trkpt>
      <trkpt lat="45.22444" lon="6.76591">
        <ele>1206.11</ele>
        <time>2016-10-05T07:52:43Z</time>
      </trkpt>
      <trkpt lat="45.22446" lon="6.76596">
        <ele>1206.11</ele>
        <time>2016-10-05T07:52:44Z</time>
      </trkpt>
      <trkpt lat="45.22449" lon="6.76601">
        <ele>1205.63</ele>
        <time>2016-10-05T07:52:45Z</time>
      </trkpt>
      <trkpt lat="45.22451" lon="6.76607">
        <ele>1206.59</ele>
        <time>2016-10-05T07:52:46Z</time>
      </trkpt>
      <trkpt lat="45.22454" lon="6.76612">
        <ele>1206.11</ele>
        <time>2016-10-05T07:52:47Z</time>
      </trkpt>
      <trkpt lat="45.22464" lon="6.76639">
        <ele>1207.07</ele>
        <time>2016-10-05T07:52:52Z</time>
      </trkpt>
      <trkpt lat="45.22466" lon="6.76644">
        <ele>1206.59</ele>
        <time>2016-10-05T07:52:53Z</time>
      </trkpt>
      <trkpt lat="45.22469" lon="6.76649">
        <ele>1207.07</ele>
        <time>2016-10-05T07:52:54Z</time>
      </trkpt>
      <trkpt lat="45.22471" lon="6.76654">
        <ele>1207.07</ele>
        <time>2016-10-05T07:52:55Z</time>
      </trkpt>
      <trkpt lat="45.22474" lon="6.76659">
        <ele>1207.55</ele>
        <time>2016-10-05T07:52:56Z</time>
      </trkpt>
      <trkpt lat="45.22496" lon="6.7673">
        <ele>1208.51</ele>
        <time>2016-10-05T07:53:10Z</time>
      </trkpt>
      <trkpt lat="45.22508" lon="6.76782">
        <ele>1209.48</ele>
        <time>2016-10-05T07:53:21Z</time>
      </trkpt>
      <trkpt lat="45.22522" lon="6.76831">
        <ele>1210.92</ele>
        <time>2016-10-05T07:53:32Z</time>
      </trkpt>
      <trkpt lat="45.22535" lon="6.76878">
        <ele>1211.4</ele>
        <time>2016-10-05T07:53:43Z</time>
      </trkpt>
      <trkpt lat="45.22551" lon="6.76933">
        <ele>1212.84</ele>
        <time>2016-10-05T07:53:56Z</time>
      </trkpt>
      <trkpt lat="45.22566" lon="6.76999">
        <ele>1215.24</ele>
        <time>2016-10-05T07:54:12Z</time>
      </trkpt>
      <trkpt lat="45.22578" lon="6.77063">
        <ele>1217.17</ele>
        <time>2016-10-05T07:54:28Z</time>
      </trkpt>
      <trkpt lat="45.22593" lon="6.77138">
        <ele>1219.09</ele>
        <time>2016-10-05T07:54:45Z</time>
      </trkpt>
      <trkpt lat="45.22616" lon="6.77226">
        <ele>1220.53</ele>
        <time>2016-10-05T07:55:06Z</time>
      </trkpt>
      <trkpt lat="45.22631" lon="6.77297">
        <ele>1222.93</ele>
        <time>2016-10-05T07:55:23Z</time>
      </trkpt>
      <trkpt lat="45.22662" lon="6.77371">
        <ele>1224.86</ele>
        <time>2016-10-05T07:55:43Z</time>
      </trkpt>
      <trkpt lat="45.22704" lon="6.77457">
        <ele>1227.26</ele>
        <time>2016-10-05T07:56:05Z</time>
      </trkpt>
      <trkpt lat="45.22741" lon="6.77526">
        <ele>1226.78</ele>
        <time>2016-10-05T07:56:22Z</time>
      </trkpt>
      <trkpt lat="45.22772" lon="6.77587">
        <ele>1225.82</ele>
        <time>2016-10-05T07:56:34Z</time>
      </trkpt>
      <trkpt lat="45.22774" lon="6.77592">
        <ele>1225.82</ele>
        <time>2016-10-05T07:56:35Z</time>
      </trkpt>
      <trkpt lat="45.22811" lon="6.77666">
        <ele>1225.82</ele>
        <time>2016-10-05T07:56:49Z</time>
      </trkpt>
      <trkpt lat="45.22864" lon="6.77772">
        <ele>1224.38</ele>
        <time>2016-10-05T07:57:06Z</time>
      </trkpt>
      <trkpt lat="45.22919" lon="6.77885">
        <ele>1223.9</ele>
        <time>2016-10-05T07:57:22Z</time>
      </trkpt>
      <trkpt lat="45.23005" lon="6.78056">
        <ele>1221.97</ele>
        <time>2016-10-05T07:57:45Z</time>
      </trkpt>
      <trkpt lat="45.23041" lon="6.78122">
        <ele>1220.53</ele>
        <time>2016-10-05T07:57:54Z</time>
      </trkpt>
      <trkpt lat="45.23051" lon="6.78135">
        <ele>1221.97</ele>
        <time>2016-10-05T07:57:56Z</time>
      </trkpt>
      <trkpt lat="45.23075" lon="6.78179">
        <ele>1220.05</ele>
        <time>2016-10-05T07:58:02Z</time>
      </trkpt>
      <trkpt lat="45.23078" lon="6.78188">
        <ele>1220.53</ele>
        <time>2016-10-05T07:58:03Z</time>
      </trkpt>
      <trkpt lat="45.23121" lon="6.78286">
        <ele>1221.01</ele>
        <time>2016-10-05T07:58:16Z</time>
      </trkpt>
      <trkpt lat="45.23151" lon="6.78347">
        <ele>1221.49</ele>
        <time>2016-10-05T07:58:25Z</time>
      </trkpt>
      <trkpt lat="45.23161" lon="6.78366">
        <ele>1220.53</ele>
        <time>2016-10-05T07:58:28Z</time>
      </trkpt>
      <trkpt lat="45.23175" lon="6.7839">
        <ele>1220.53</ele>
        <time>2016-10-05T07:58:32Z</time>
      </trkpt>
      <trkpt lat="45.23217" lon="6.78478">
        <ele>1221.97</ele>
        <time>2016-10-05T07:58:47Z</time>
      </trkpt>
      <trkpt lat="45.23245" lon="6.78539">
        <ele>1222.93</ele>
        <time>2016-10-05T07:58:59Z</time>
      </trkpt>
      <trkpt lat="45.23248" lon="6.78544">
        <ele>1222.45</ele>
        <time>2016-10-05T07:59:00Z</time>
      </trkpt>
      <trkpt lat="45.23256" lon="6.78559">
        <ele>1223.42</ele>
        <time>2016-10-05T07:59:03Z</time>
      </trkpt>
      <trkpt lat="45.23265" lon="6.78574">
        <ele>1223.42</ele>
        <time>2016-10-05T07:59:06Z</time>
      </trkpt>
      <trkpt lat="45.23267" lon="6.78578">
        <ele>1222.93</ele>
        <time>2016-10-05T07:59:07Z</time>
      </trkpt>
      <trkpt lat="45.23269" lon="6.78581">
        <ele>1222.93</ele>
        <time>2016-10-05T07:59:08Z</time>
      </trkpt>
      <trkpt lat="45.23271" lon="6.78584">
        <ele>1222.45</ele>
        <time>2016-10-05T07:59:09Z</time>
      </trkpt>
      <trkpt lat="45.23274" lon="6.78587">
        <ele>1222.93</ele>
        <time>2016-10-05T07:59:10Z</time>
      </trkpt>
      <trkpt lat="45.23277" lon="6.78591">
        <ele>1222.93</ele>
        <time>2016-10-05T07:59:11Z</time>
      </trkpt>
      <trkpt lat="45.2328" lon="6.78596">
        <ele>1223.42</ele>
        <time>2016-10-05T07:59:12Z</time>
      </trkpt>
      <trkpt lat="45.23294" lon="6.78615">
        <ele>1223.9</ele>
        <time>2016-10-05T07:59:16Z</time>
      </trkpt>
      <trkpt lat="45.23306" lon="6.78633">
        <ele>1223.42</ele>
        <time>2016-10-05T07:59:20Z</time>
      </trkpt>
      <trkpt lat="45.2331" lon="6.78638">
        <ele>1223.9</ele>
        <time>2016-10-05T07:59:21Z</time>
      </trkpt>
      <trkpt lat="45.23313" lon="6.78642">
        <ele>1223.9</ele>
        <time>2016-10-05T07:59:22Z</time>
      </trkpt>
      <trkpt lat="45.23349" lon="6.7868">
        <ele>1223.9</ele>
        <time>2016-10-05T07:59:31Z</time>
      </trkpt>
      <trkpt lat="45.23426" lon="6.78739">
        <ele>1224.86</ele>
        <time>2016-10-05T07:59:50Z</time>
      </trkpt>
      <trkpt lat="45.2345" lon="6.78754">
        <ele>1225.82</ele>
        <time>2016-10-05T07:59:56Z</time>
      </trkpt>
      <trkpt lat="45.23462" lon="6.78761">
        <ele>1226.3</ele>
        <time>2016-10-05T07:59:59Z</time>
      </trkpt>
      <trkpt lat="45.23466" lon="6.78764">
        <ele>1226.3</ele>
        <time>2016-10-05T08:00:00Z</time>
      </trkpt>
      <trkpt lat="45.2348" lon="6.78777">
        <ele>1226.78</ele>
        <time>2016-10-05T08:00:04Z</time>
      </trkpt>
      <trkpt lat="45.23484" lon="6.78779">
        <ele>1227.26</ele>
        <time>2016-10-05T08:00:05Z</time>
      </trkpt>
      <trkpt lat="45.23487" lon="6.78782">
        <ele>1226.3</ele>
        <time>2016-10-05T08:00:06Z</time>
      </trkpt>
      <trkpt lat="45.23491" lon="6.78785">
        <ele>1226.78</ele>
        <time>2016-10-05T08:00:07Z</time>
      </trkpt>
      <trkpt lat="45.23494" lon="6.78788">
        <ele>1225.34</ele>
        <time>2016-10-05T08:00:08Z</time>
      </trkpt>
      <trkpt lat="45.23497" lon="6.78791">
        <ele>1226.3</ele>
        <time>2016-10-05T08:00:09Z</time>
      </trkpt>
      <trkpt lat="45.23505" lon="6.78796">
        <ele>1227.26</ele>
        <time>2016-10-05T08:00:11Z</time>
      </trkpt>
      <trkpt lat="45.23569" lon="6.78841">
        <ele>1227.26</ele>
        <time>2016-10-05T08:00:26Z</time>
      </trkpt>
      <trkpt lat="45.23628" lon="6.78882">
        <ele>1228.22</ele>
        <time>2016-10-05T08:00:40Z</time>
      </trkpt>
      <trkpt lat="45.23693" lon="6.78938">
        <ele>1229.66</ele>
        <time>2016-10-05T08:00:56Z</time>
      </trkpt>
      <trkpt lat="45.23758" lon="6.79006">
        <ele>1230.14</ele>
        <time>2016-10-05T08:01:14Z</time>
      </trkpt>
      <trkpt lat="45.23831" lon="6.79083">
        <ele>1231.59</ele>
        <time>2016-10-05T08:01:33Z</time>
      </trkpt>
      <trkpt lat="45.23906" lon="6.7916">
        <ele>1231.59</ele>
        <time>2016-10-05T08:01:52Z</time>
      </trkpt>
      <trkpt lat="45.23983" lon="6.79239">
        <ele>1231.59</ele>
        <time>2016-10-05T08:02:11Z</time>
      </trkpt>
      <trkpt lat="45.24061" lon="6.79292">
        <ele>1233.99</ele>
        <time>2016-10-05T08:02:29Z</time>
      </trkpt>
      <trkpt lat="45.24125" lon="6.79294">
        <ele>1235.43</ele>
        <time>2016-10-05T08:02:43Z</time>
      </trkpt>
      <trkpt lat="45.2419" lon="6.79268">
        <ele>1236.39</ele>
        <time>2016-10-05T08:02:58Z</time>
      </trkpt>
      <trkpt lat="45.24248" lon="6.79245">
        <ele>1236.87</ele>
        <time>2016-10-05T08:03:11Z</time>
      </trkpt>
      <trkpt lat="45.24329" lon="6.79242">
        <ele>1237.35</ele>
        <time>2016-10-05T08:03:28Z</time>
      </trkpt>
      <trkpt lat="45.24392" lon="6.79291">
        <ele>1237.83</ele>
        <time>2016-10-05T08:03:43Z</time>
      </trkpt>
      <trkpt lat="45.2442" lon="6.79336">
        <ele>1239.28</ele>
        <time>2016-10-05T08:03:52Z</time>
      </trkpt>
      <trkpt lat="45.24477" lon="6.79468">
        <ele>1240.72</ele>
        <time>2016-10-05T08:04:16Z</time>
      </trkpt>
      <trkpt lat="45.24479" lon="6.79474">
        <ele>1241.2</ele>
        <time>2016-10-05T08:04:17Z</time>
      </trkpt>
      <trkpt lat="45.24531" lon="6.79594">
        <ele>1241.68</ele>
        <time>2016-10-05T08:04:38Z</time>
      </trkpt>
      <trkpt lat="45.24582" lon="6.7967">
        <ele>1243.12</ele>
        <time>2016-10-05T08:04:54Z</time>
      </trkpt>
      <trkpt lat="45.24642" lon="6.797">
        <ele>1243.6</ele>
        <time>2016-10-05T08:05:08Z</time>
      </trkpt>
      <trkpt lat="45.24722" lon="6.79726">
        <ele>1245.53</ele>
        <time>2016-10-05T08:05:27Z</time>
      </trkpt>
      <trkpt lat="45.24791" lon="6.79749">
        <ele>1246.97</ele>
        <time>2016-10-05T08:05:45Z</time>
      </trkpt>
      <trkpt lat="45.24863" lon="6.79774">
        <ele>1248.89</ele>
        <time>2016-10-05T08:06:04Z</time>
      </trkpt>
      <trkpt lat="45.24901" lon="6.79787">
        <ele>1248.89</ele>
        <time>2016-10-05T08:06:14Z</time>
      </trkpt>
      <trkpt lat="45.24977" lon="6.79807">
        <ele>1251.29</ele>
        <time>2016-10-05T08:06:33Z</time>
      </trkpt>
      <trkpt lat="45.25045" lon="6.79803">
        <ele>1252.25</ele>
        <time>2016-10-05T08:06:51Z</time>
      </trkpt>
      <trkpt lat="45.25077" lon="6.79792">
        <ele>1253.22</ele>
        <time>2016-10-05T08:07:04Z</time>
      </trkpt>
      <trkpt lat="45.25078" lon="6.79788">
        <ele>1253.22</ele>
        <time>2016-10-05T08:07:25Z</time>
      </trkpt>
      <trkpt lat="45.25085" lon="6.79781">
        <ele>1252.74</ele>
        <time>2016-10-05T08:08:12Z</time>
      </trkpt>
      <trkpt lat="45.25074" lon="6.79783">
        <ele>1253.7</ele>
        <time>2016-10-05T08:08:45Z</time>
      </trkpt>
      <trkpt lat="45.25076" lon="6.7978">
        <ele>1253.22</ele>
        <time>2016-10-05T08:09:17Z</time>
      </trkpt>
      <trkpt lat="45.25078" lon="6.79782">
        <ele>1253.22</ele>
        <time>2016-10-05T08:09:43Z</time>
      </trkpt>
      <trkpt lat="45.25073" lon="6.79783">
        <ele>1252.74</ele>
        <time>2016-10-05T08:10:09Z</time>
      </trkpt>
      <trkpt lat="45.25077" lon="6.79791">
        <ele>1252.74</ele>
        <time>2016-10-05T08:10:40Z</time>
      </trkpt>
      <trkpt lat="45.2507" lon="6.79784">
        <ele>1252.74</ele>
        <time>2016-10-05T08:11:03Z</time>
      </trkpt>
      <trkpt lat="45.25073" lon="6.79788">
        <ele>1252.25</ele>
        <time>2016-10-05T08:11:27Z</time>
      </trkpt>
      <trkpt lat="45.25072" lon="6.79789">
        <ele>1252.25</ele>
        <time>2016-10-05T08:11:37Z</time>
      </trkpt>
      <trkpt lat="45.25075" lon="6.79789">
        <ele>1253.22</ele>
        <time>2016-10-05T08:12:06Z</time>
      </trkpt>
      <trkpt lat="45.25077" lon="6.79787">
        <ele>1252.74</ele>
        <time>2016-10-05T08:12:08Z</time>
      </trkpt>
      <trkpt lat="45.25078" lon="6.79786">
        <ele>1252.74</ele>
        <time>2016-10-05T08:12:09Z</time>
      </trkpt>
      <trkpt lat="45.25111" lon="6.79766">
        <ele>1252.25</ele>
        <time>2016-10-05T08:12:21Z</time>
      </trkpt>
      <trkpt lat="45.25181" lon="6.79717">
        <ele>1250.81</ele>
        <time>2016-10-05T08:12:36Z</time>
      </trkpt>
      <trkpt lat="45.25279" lon="6.79674">
        <ele>1251.29</ele>
        <time>2016-10-05T08:12:54Z</time>
      </trkpt>
      <trkpt lat="45.2536" lon="6.79677">
        <ele>1251.29</ele>
        <time>2016-10-05T08:13:10Z</time>
      </trkpt>
      <trkpt lat="45.25443" lon="6.79722">
        <ele>1253.7</ele>
        <time>2016-10-05T08:13:29Z</time>
      </trkpt>
      <trkpt lat="45.25447" lon="6.79725">
        <ele>1253.7</ele>
        <time>2016-10-05T08:13:30Z</time>
      </trkpt>
      <trkpt lat="45.25518" lon="6.79781">
        <ele>1254.18</ele>
        <time>2016-10-05T08:13:47Z</time>
      </trkpt>
      <trkpt lat="45.25596" lon="6.79842">
        <ele>1255.14</ele>
        <time>2016-10-05T08:14:07Z</time>
      </trkpt>
      <trkpt lat="45.25674" lon="6.79901">
        <ele>1256.58</ele>
        <time>2016-10-05T08:14:26Z</time>
      </trkpt>
      <trkpt lat="45.2573" lon="6.79945">
        <ele>1257.06</ele>
        <time>2016-10-05T08:14:40Z</time>
      </trkpt>
      <trkpt lat="45.25734" lon="6.79948">
        <ele>1257.06</ele>
        <time>2016-10-05T08:14:41Z</time>
      </trkpt>
      <trkpt lat="45.25798" lon="6.79994">
        <ele>1258.5</ele>
        <time>2016-10-05T08:14:57Z</time>
      </trkpt>
      <trkpt lat="45.25867" lon="6.80038">
        <ele>1258.98</ele>
        <time>2016-10-05T08:15:14Z</time>
      </trkpt>
      <trkpt lat="45.25914" lon="6.8006">
        <ele>1259.94</ele>
        <time>2016-10-05T08:15:25Z</time>
      </trkpt>
      <trkpt lat="45.2598" lon="6.80086">
        <ele>1261.39</ele>
        <time>2016-10-05T08:15:41Z</time>
      </trkpt>
      <trkpt lat="45.26046" lon="6.80107">
        <ele>1263.31</ele>
        <time>2016-10-05T08:15:56Z</time>
      </trkpt>
      <trkpt lat="45.26108" lon="6.80145">
        <ele>1262.35</ele>
        <time>2016-10-05T08:16:12Z</time>
      </trkpt>
      <trkpt lat="45.26154" lon="6.80197">
        <ele>1265.23</ele>
        <time>2016-10-05T08:16:27Z</time>
      </trkpt>
      <trkpt lat="45.26191" lon="6.80275">
        <ele>1265.23</ele>
        <time>2016-10-05T08:16:44Z</time>
      </trkpt>
      <trkpt lat="45.26193" lon="6.80285">
        <ele>1266.19</ele>
        <time>2016-10-05T08:16:46Z</time>
      </trkpt>
      <trkpt lat="45.26214" lon="6.80376">
        <ele>1268.12</ele>
        <time>2016-10-05T08:17:06Z</time>
      </trkpt>
      <trkpt lat="45.26233" lon="6.80461">
        <ele>1270.04</ele>
        <time>2016-10-05T08:17:24Z</time>
      </trkpt>
      <trkpt lat="45.26244" lon="6.80542">
        <ele>1271</ele>
        <time>2016-10-05T08:17:41Z</time>
      </trkpt>
      <trkpt lat="45.26236" lon="6.80628">
        <ele>1272.44</ele>
        <time>2016-10-05T08:18:00Z</time>
      </trkpt>
      <trkpt lat="45.26237" lon="6.80712">
        <ele>1273.88</ele>
        <time>2016-10-05T08:18:18Z</time>
      </trkpt>
      <trkpt lat="45.26255" lon="6.80803">
        <ele>1274.85</ele>
        <time>2016-10-05T08:18:36Z</time>
      </trkpt>
      <trkpt lat="45.26256" lon="6.8089">
        <ele>1276.29</ele>
        <time>2016-10-05T08:18:52Z</time>
      </trkpt>
      <trkpt lat="45.26258" lon="6.80896">
        <ele>1275.81</ele>
        <time>2016-10-05T08:18:53Z</time>
      </trkpt>
      <trkpt lat="45.26259" lon="6.80902">
        <ele>1276.29</ele>
        <time>2016-10-05T08:18:54Z</time>
      </trkpt>
      <trkpt lat="45.263" lon="6.81016">
        <ele>1276.29</ele>
        <time>2016-10-05T08:19:12Z</time>
      </trkpt>
      <trkpt lat="45.26354" lon="6.81117">
        <ele>1275.81</ele>
        <time>2016-10-05T08:19:30Z</time>
      </trkpt>
      <trkpt lat="45.26424" lon="6.81174">
        <ele>1276.29</ele>
        <time>2016-10-05T08:19:45Z</time>
      </trkpt>
      <trkpt lat="45.26444" lon="6.81189">
        <ele>1276.29</ele>
        <time>2016-10-05T08:19:49Z</time>
      </trkpt>
      <trkpt lat="45.26511" lon="6.8124">
        <ele>1277.25</ele>
        <time>2016-10-05T08:20:03Z</time>
      </trkpt>
      <trkpt lat="45.26609" lon="6.81318">
        <ele>1278.21</ele>
        <time>2016-10-05T08:20:25Z</time>
      </trkpt>
      <trkpt lat="45.26702" lon="6.81385">
        <ele>1279.17</ele>
        <time>2016-10-05T08:20:46Z</time>
      </trkpt>
      <trkpt lat="45.26782" lon="6.81447">
        <ele>1279.65</ele>
        <time>2016-10-05T08:21:05Z</time>
      </trkpt>
      <trkpt lat="45.2686" lon="6.8148">
        <ele>1281.09</ele>
        <time>2016-10-05T08:21:23Z</time>
      </trkpt>
      <trkpt lat="45.26879" lon="6.81478">
        <ele>1281.57</ele>
        <time>2016-10-05T08:21:27Z</time>
      </trkpt>
      <trkpt lat="45.26944" lon="6.81442">
        <ele>1282.06</ele>
        <time>2016-10-05T08:21:41Z</time>
      </trkpt>
      <trkpt lat="45.27019" lon="6.8139">
        <ele>1282.54</ele>
        <time>2016-10-05T08:21:58Z</time>
      </trkpt>
      <trkpt lat="45.27041" lon="6.81379">
        <ele>1282.54</ele>
        <time>2016-10-05T08:22:03Z</time>
      </trkpt>
      <trkpt lat="45.27117" lon="6.81386">
        <ele>1283.5</ele>
        <time>2016-10-05T08:22:19Z</time>
      </trkpt>
      <trkpt lat="45.27184" lon="6.81431">
        <ele>1283.98</ele>
        <time>2016-10-05T08:22:36Z</time>
      </trkpt>
      <trkpt lat="45.2723" lon="6.81448">
        <ele>1287.34</ele>
        <time>2016-10-05T08:22:47Z</time>
      </trkpt>
      <trkpt lat="45.27284" lon="6.81432">
        <ele>1288.3</ele>
        <time>2016-10-05T08:23:02Z</time>
      </trkpt>
      <trkpt lat="45.27331" lon="6.81358">
        <ele>1289.27</ele>
        <time>2016-10-05T08:23:20Z</time>
      </trkpt>
      <trkpt lat="45.27342" lon="6.81345">
        <ele>1289.75</ele>
        <time>2016-10-05T08:23:23Z</time>
      </trkpt>
      <trkpt lat="45.27359" lon="6.81325">
        <ele>1289.27</ele>
        <time>2016-10-05T08:23:28Z</time>
      </trkpt>
      <trkpt lat="45.27408" lon="6.81297">
        <ele>1290.23</ele>
        <time>2016-10-05T08:23:40Z</time>
      </trkpt>
      <trkpt lat="45.27472" lon="6.81305">
        <ele>1291.19</ele>
        <time>2016-10-05T08:23:54Z</time>
      </trkpt>
      <trkpt lat="45.27542" lon="6.81345">
        <ele>1291.67</ele>
        <time>2016-10-05T08:24:10Z</time>
      </trkpt>
      <trkpt lat="45.27561" lon="6.8136">
        <ele>1291.67</ele>
        <time>2016-10-05T08:24:15Z</time>
      </trkpt>
      <trkpt lat="45.27565" lon="6.81363">
        <ele>1291.67</ele>
        <time>2016-10-05T08:24:16Z</time>
      </trkpt>
      <trkpt lat="45.27628" lon="6.81396">
        <ele>1291.67</ele>
        <time>2016-10-05T08:24:31Z</time>
      </trkpt>
      <trkpt lat="45.27681" lon="6.81423">
        <ele>1293.59</ele>
        <time>2016-10-05T08:24:45Z</time>
      </trkpt>
      <trkpt lat="45.27694" lon="6.81433">
        <ele>1294.07</ele>
        <time>2016-10-05T08:24:51Z</time>
      </trkpt>
      <trkpt lat="45.27695" lon="6.81435">
        <ele>1294.07</ele>
        <time>2016-10-05T08:24:52Z</time>
      </trkpt>
      <trkpt lat="45.27695" lon="6.81437">
        <ele>1293.59</ele>
        <time>2016-10-05T08:24:53Z</time>
      </trkpt>
      <trkpt lat="45.27697" lon="6.81442">
        <ele>1294.07</ele>
        <time>2016-10-05T08:25:11Z</time>
      </trkpt>
      <trkpt lat="45.27695" lon="6.8144">
        <ele>1294.07</ele>
        <time>2016-10-05T08:25:40Z</time>
      </trkpt>
      <trkpt lat="45.27698" lon="6.8144">
        <ele>1294.07</ele>
        <time>2016-10-05T08:25:58Z</time>
      </trkpt>
      <trkpt lat="45.27704" lon="6.8147">
        <ele>1294.07</ele>
        <time>2016-10-05T08:26:09Z</time>
      </trkpt>
      <trkpt lat="45.27694" lon="6.8152">
        <ele>1295.03</ele>
        <time>2016-10-05T08:26:23Z</time>
      </trkpt>
      <trkpt lat="45.27686" lon="6.81588">
        <ele>1295.51</ele>
        <time>2016-10-05T08:26:37Z</time>
      </trkpt>
      <trkpt lat="45.27683" lon="6.81645">
        <ele>1296.48</ele>
        <time>2016-10-05T08:26:50Z</time>
      </trkpt>
      <trkpt lat="45.27679" lon="6.81688">
        <ele>1298.4</ele>
        <time>2016-10-05T08:27:03Z</time>
      </trkpt>
      <trkpt lat="45.27689" lon="6.81731">
        <ele>1300.32</ele>
        <time>2016-10-05T08:27:17Z</time>
      </trkpt>
      <trkpt lat="45.27712" lon="6.81738">
        <ele>1302.24</ele>
        <time>2016-10-05T08:27:30Z</time>
      </trkpt>
      <trkpt lat="45.27726" lon="6.81743">
        <ele>1303.2</ele>
        <time>2016-10-05T08:27:39Z</time>
      </trkpt>
      <trkpt lat="45.27729" lon="6.81743">
        <ele>1303.69</ele>
        <time>2016-10-05T08:27:40Z</time>
      </trkpt>
      <trkpt lat="45.27731" lon="6.81742">
        <ele>1303.2</ele>
        <time>2016-10-05T08:27:41Z</time>
      </trkpt>
      <trkpt lat="45.27732" lon="6.81741">
        <ele>1303.69</ele>
        <time>2016-10-05T08:27:42Z</time>
      </trkpt>
      <trkpt lat="45.27732" lon="6.81737">
        <ele>1304.17</ele>
        <time>2016-10-05T08:27:56Z</time>
      </trkpt>
      <trkpt lat="45.27733" lon="6.81733">
        <ele>1304.17</ele>
        <time>2016-10-05T08:28:29Z</time>
      </trkpt>
      <trkpt lat="45.27733" lon="6.81736">
        <ele>1304.17</ele>
        <time>2016-10-05T08:28:58Z</time>
      </trkpt>
      <trkpt lat="45.27736" lon="6.81746">
        <ele>1304.17</ele>
        <time>2016-10-05T08:29:22Z</time>
      </trkpt>
      <trkpt lat="45.27734" lon="6.81738">
        <ele>1304.17</ele>
        <time>2016-10-05T08:29:48Z</time>
      </trkpt>
      <trkpt lat="45.27731" lon="6.81733">
        <ele>1303.69</ele>
        <time>2016-10-05T08:30:17Z</time>
      </trkpt>
      <trkpt lat="45.27735" lon="6.81734">
        <ele>1303.2</ele>
        <time>2016-10-05T08:30:37Z</time>
      </trkpt>
      <trkpt lat="45.27735" lon="6.81743">
        <ele>1303.69</ele>
        <time>2016-10-05T08:31:02Z</time>
      </trkpt>
      <trkpt lat="45.27735" lon="6.81739">
        <ele>1303.69</ele>
        <time>2016-10-05T08:31:25Z</time>
      </trkpt>
      <trkpt lat="45.27735" lon="6.81738">
        <ele>1303.69</ele>
        <time>2016-10-05T08:31:46Z</time>
      </trkpt>
      <trkpt lat="45.27736" lon="6.81737">
        <ele>1304.17</ele>
        <time>2016-10-05T08:32:14Z</time>
      </trkpt>
      <trkpt lat="45.2773" lon="6.81736">
        <ele>1303.2</ele>
        <time>2016-10-05T08:32:35Z</time>
      </trkpt>
      <trkpt lat="45.27729" lon="6.81734">
        <ele>1303.69</ele>
        <time>2016-10-05T08:33:00Z</time>
      </trkpt>
      <trkpt lat="45.27734" lon="6.81731">
        <ele>1303.69</ele>
        <time>2016-10-05T08:33:25Z</time>
      </trkpt>
      <trkpt lat="45.27731" lon="6.8173">
        <ele>1303.69</ele>
        <time>2016-10-05T08:33:47Z</time>
      </trkpt>
      <trkpt lat="45.27733" lon="6.8174">
        <ele>1303.2</ele>
        <time>2016-10-05T08:34:08Z</time>
      </trkpt>
      <trkpt lat="45.27731" lon="6.81738">
        <ele>1304.17</ele>
        <time>2016-10-05T08:34:33Z</time>
      </trkpt>
      <trkpt lat="45.27731" lon="6.81735">
        <ele>1303.2</ele>
        <time>2016-10-05T08:35:05Z</time>
      </trkpt>
      <trkpt lat="45.2774" lon="6.81736">
        <ele>1303.69</ele>
        <time>2016-10-05T08:35:27Z</time>
      </trkpt>
      <trkpt lat="45.2774" lon="6.81739">
        <ele>1303.2</ele>
        <time>2016-10-05T08:35:52Z</time>
      </trkpt>
      <trkpt lat="45.27736" lon="6.81738">
        <ele>1303.2</ele>
        <time>2016-10-05T08:36:21Z</time>
      </trkpt>
      <trkpt lat="45.27735" lon="6.81731">
        <ele>1303.2</ele>
        <time>2016-10-05T08:36:49Z</time>
      </trkpt>
      <trkpt lat="45.27735" lon="6.81733">
        <ele>1303.2</ele>
        <time>2016-10-05T08:37:14Z</time>
      </trkpt>
      <trkpt lat="45.27734" lon="6.8174">
        <ele>1303.2</ele>
        <time>2016-10-05T08:37:38Z</time>
      </trkpt>
      <trkpt lat="45.27737" lon="6.81738">
        <ele>1303.2</ele>
        <time>2016-10-05T08:38:03Z</time>
      </trkpt>
      <trkpt lat="45.27734" lon="6.81732">
        <ele>1303.2</ele>
        <time>2016-10-05T08:38:34Z</time>
      </trkpt>
      <trkpt lat="45.27736" lon="6.81738">
        <ele>1303.2</ele>
        <time>2016-10-05T08:39:02Z</time>
      </trkpt>
      <trkpt lat="45.2774" lon="6.8174">
        <ele>1303.2</ele>
        <time>2016-10-05T08:39:32Z</time>
      </trkpt>
      <trkpt lat="45.27736" lon="6.81736">
        <ele>1303.69</ele>
        <time>2016-10-05T08:39:58Z</time>
      </trkpt>
      <trkpt lat="45.27737" lon="6.81741">
        <ele>1303.2</ele>
        <time>2016-10-05T08:40:22Z</time>
      </trkpt>
      <trkpt lat="45.27738" lon="6.81741">
        <ele>1302.72</ele>
        <time>2016-10-05T08:40:55Z</time>
      </trkpt>
      <trkpt lat="45.27735" lon="6.81741">
        <ele>1302.72</ele>
        <time>2016-10-05T08:41:12Z</time>
      </trkpt>
      <trkpt lat="45.27734" lon="6.81738">
        <ele>1302.72</ele>
        <time>2016-10-05T08:41:16Z</time>
      </trkpt>
      <trkpt lat="45.27732" lon="6.81738">
        <ele>1302.72</ele>
        <time>2016-10-05T08:41:17Z</time>
      </trkpt>
      <trkpt lat="45.2773" lon="6.81737">
        <ele>1302.24</ele>
        <time>2016-10-05T08:41:18Z</time>
      </trkpt>
      <trkpt lat="45.27728" lon="6.81735">
        <ele>1302.24</ele>
        <time>2016-10-05T08:41:20Z</time>
      </trkpt>
      <trkpt lat="45.27728" lon="6.81733">
        <ele>1302.72</ele>
        <time>2016-10-05T08:41:21Z</time>
      </trkpt>
      <trkpt lat="45.27729" lon="6.81731">
        <ele>1302.24</ele>
        <time>2016-10-05T08:41:22Z</time>
      </trkpt>
      <trkpt lat="45.2773" lon="6.8173">
        <ele>1302.24</ele>
        <time>2016-10-05T08:41:23Z</time>
      </trkpt>
      <trkpt lat="45.27731" lon="6.81729">
        <ele>1302.24</ele>
        <time>2016-10-05T08:41:24Z</time>
      </trkpt>
      <trkpt lat="45.27733" lon="6.81729">
        <ele>1302.72</ele>
        <time>2016-10-05T08:41:25Z</time>
      </trkpt>
      <trkpt lat="45.27734" lon="6.81728">
        <ele>1302.72</ele>
        <time>2016-10-05T08:41:26Z</time>
      </trkpt>
      <trkpt lat="45.27761" lon="6.81719">
        <ele>1305.61</ele>
        <time>2016-10-05T08:41:43Z</time>
      </trkpt>
      <trkpt lat="45.27789" lon="6.81711">
        <ele>1307.53</ele>
        <time>2016-10-05T08:42:01Z</time>
      </trkpt>
      <trkpt lat="45.2779" lon="6.8171">
        <ele>1307.53</ele>
        <time>2016-10-05T08:42:02Z</time>
      </trkpt>
      <trkpt lat="45.27791" lon="6.81708">
        <ele>1307.53</ele>
        <time>2016-10-05T08:42:03Z</time>
      </trkpt>
      <trkpt lat="45.27792" lon="6.81707">
        <ele>1308.49</ele>
        <time>2016-10-05T08:42:04Z</time>
      </trkpt>
      <trkpt lat="45.27793" lon="6.81707">
        <ele>1308.01</ele>
        <time>2016-10-05T08:42:05Z</time>
      </trkpt>
      <trkpt lat="45.27794" lon="6.81707">
        <ele>1308.49</ele>
        <time>2016-10-05T08:42:06Z</time>
      </trkpt>
      <trkpt lat="45.2782" lon="6.81699">
        <ele>1311.38</ele>
        <time>2016-10-05T08:42:23Z</time>
      </trkpt>
      <trkpt lat="45.27848" lon="6.81689">
        <ele>1313.78</ele>
        <time>2016-10-05T08:42:43Z</time>
      </trkpt>
      <trkpt lat="45.2787" lon="6.81682">
        <ele>1316.18</ele>
        <time>2016-10-05T08:42:59Z</time>
      </trkpt>
      <trkpt lat="45.27896" lon="6.81676">
        <ele>1318.59</ele>
        <time>2016-10-05T08:43:15Z</time>
      </trkpt>
      <trkpt lat="45.27928" lon="6.81669">
        <ele>1320.51</ele>
        <time>2016-10-05T08:43:34Z</time>
      </trkpt>
      <trkpt lat="45.27958" lon="6.81659">
        <ele>1323.87</ele>
        <time>2016-10-05T08:43:52Z</time>
      </trkpt>
      <trkpt lat="45.27987" lon="6.81652">
        <ele>1327.24</ele>
        <time>2016-10-05T08:44:10Z</time>
      </trkpt>
      <trkpt lat="45.27997" lon="6.81649">
        <ele>1328.2</ele>
        <time>2016-10-05T08:44:16Z</time>
      </trkpt>
      <trkpt lat="45.28022" lon="6.8164">
        <ele>1330.6</ele>
        <time>2016-10-05T08:44:32Z</time>
      </trkpt>
      <trkpt lat="45.28046" lon="6.81632">
        <ele>1332.52</ele>
        <time>2016-10-05T08:44:47Z</time>
      </trkpt>
      <trkpt lat="45.28072" lon="6.81625">
        <ele>1335.89</ele>
        <time>2016-10-05T08:45:05Z</time>
      </trkpt>
      <trkpt lat="45.28102" lon="6.81617">
        <ele>1337.81</ele>
        <time>2016-10-05T08:45:23Z</time>
      </trkpt>
      <trkpt lat="45.28117" lon="6.81615">
        <ele>1339.25</ele>
        <time>2016-10-05T08:45:32Z</time>
      </trkpt>
      <trkpt lat="45.28118" lon="6.81617">
        <ele>1339.25</ele>
        <time>2016-10-05T08:45:33Z</time>
      </trkpt>
      <trkpt lat="45.28119" lon="6.81618">
        <ele>1339.73</ele>
        <time>2016-10-05T08:45:34Z</time>
      </trkpt>
      <trkpt lat="45.28121" lon="6.8162">
        <ele>1339.25</ele>
        <time>2016-10-05T08:45:35Z</time>
      </trkpt>
      <trkpt lat="45.28122" lon="6.81625">
        <ele>1340.22</ele>
        <time>2016-10-05T08:45:38Z</time>
      </trkpt>
      <trkpt lat="45.28121" lon="6.81627">
        <ele>1340.22</ele>
        <time>2016-10-05T08:45:40Z</time>
      </trkpt>
      <trkpt lat="45.2812" lon="6.81628">
        <ele>1340.7</ele>
        <time>2016-10-05T08:45:41Z</time>
      </trkpt>
      <trkpt lat="45.28119" lon="6.81628">
        <ele>1341.18</ele>
        <time>2016-10-05T08:45:42Z</time>
      </trkpt>
      <trkpt lat="45.28117" lon="6.81628">
        <ele>1341.18</ele>
        <time>2016-10-05T08:45:43Z</time>
      </trkpt>
      <trkpt lat="45.28116" lon="6.81629">
        <ele>1340.7</ele>
        <time>2016-10-05T08:45:44Z</time>
      </trkpt>
      <trkpt lat="45.28085" lon="6.81642">
        <ele>1343.1</ele>
        <time>2016-10-05T08:46:02Z</time>
      </trkpt>
      <trkpt lat="45.28054" lon="6.81661">
        <ele>1345.98</ele>
        <time>2016-10-05T08:46:22Z</time>
      </trkpt>
      <trkpt lat="45.2803" lon="6.81678">
        <ele>1348.87</ele>
        <time>2016-10-05T08:46:38Z</time>
      </trkpt>
      <trkpt lat="45.27997" lon="6.81704">
        <ele>1352.23</ele>
        <time>2016-10-05T08:46:59Z</time>
      </trkpt>
      <trkpt lat="45.27968" lon="6.81725">
        <ele>1355.6</ele>
        <time>2016-10-05T08:47:18Z</time>
      </trkpt>
      <trkpt lat="45.27941" lon="6.81746">
        <ele>1358.48</ele>
        <time>2016-10-05T08:47:37Z</time>
      </trkpt>
      <trkpt lat="45.27915" lon="6.81768">
        <ele>1360.88</ele>
        <time>2016-10-05T08:47:54Z</time>
      </trkpt>
      <trkpt lat="45.27887" lon="6.81801">
        <ele>1364.25</ele>
        <time>2016-10-05T08:48:14Z</time>
      </trkpt>
      <trkpt lat="45.27874" lon="6.81834">
        <ele>1366.65</ele>
        <time>2016-10-05T08:48:29Z</time>
      </trkpt>
      <trkpt lat="45.27872" lon="6.81874">
        <ele>1368.57</ele>
        <time>2016-10-05T08:48:46Z</time>
      </trkpt>
      <trkpt lat="45.2788" lon="6.81913">
        <ele>1371.94</ele>
        <time>2016-10-05T08:49:03Z</time>
      </trkpt>
      <trkpt lat="45.27888" lon="6.81947">
        <ele>1374.34</ele>
        <time>2016-10-05T08:49:17Z</time>
      </trkpt>
      <trkpt lat="45.27905" lon="6.81992">
        <ele>1377.23</ele>
        <time>2016-10-05T08:49:38Z</time>
      </trkpt>
      <trkpt lat="45.27929" lon="6.82032">
        <ele>1379.63</ele>
        <time>2016-10-05T08:49:59Z</time>
      </trkpt>
      <trkpt lat="45.27949" lon="6.82061">
        <ele>1382.51</ele>
        <time>2016-10-05T08:50:16Z</time>
      </trkpt>
      <trkpt lat="45.27963" lon="6.82085">
        <ele>1385.88</ele>
        <time>2016-10-05T08:50:29Z</time>
      </trkpt>
      <trkpt lat="45.27986" lon="6.82122">
        <ele>1388.28</ele>
        <time>2016-10-05T08:50:49Z</time>
      </trkpt>
      <trkpt lat="45.28009" lon="6.82157">
        <ele>1391.17</ele>
        <time>2016-10-05T08:51:08Z</time>
      </trkpt>
      <trkpt lat="45.28032" lon="6.82192">
        <ele>1393.57</ele>
        <time>2016-10-05T08:51:26Z</time>
      </trkpt>
      <trkpt lat="45.2805" lon="6.82236">
        <ele>1395.97</ele>
        <time>2016-10-05T08:51:46Z</time>
      </trkpt>
      <trkpt lat="45.28065" lon="6.82278">
        <ele>1398.37</ele>
        <time>2016-10-05T08:52:04Z</time>
      </trkpt>
      <trkpt lat="45.28085" lon="6.82329">
        <ele>1398.86</ele>
        <time>2016-10-05T08:52:21Z</time>
      </trkpt>
      <trkpt lat="45.28108" lon="6.8239">
        <ele>1398.37</ele>
        <time>2016-10-05T08:52:36Z</time>
      </trkpt>
      <trkpt lat="45.28142" lon="6.82486">
        <ele>1398.86</ele>
        <time>2016-10-05T08:52:55Z</time>
      </trkpt>
      <trkpt lat="45.28171" lon="6.82563">
        <ele>1397.89</ele>
        <time>2016-10-05T08:53:09Z</time>
      </trkpt>
      <trkpt lat="45.282" lon="6.82642">
        <ele>1396.93</ele>
        <time>2016-10-05T08:53:21Z</time>
      </trkpt>
      <trkpt lat="45.28248" lon="6.82744">
        <ele>1395.01</ele>
        <time>2016-10-05T08:53:35Z</time>
      </trkpt>
      <trkpt lat="45.28295" lon="6.82823">
        <ele>1391.17</ele>
        <time>2016-10-05T08:53:45Z</time>
      </trkpt>
      <trkpt lat="45.28298" lon="6.82832">
        <ele>1391.17</ele>
        <time>2016-10-05T08:53:46Z</time>
      </trkpt>
      <trkpt lat="45.28301" lon="6.82842">
        <ele>1390.2</ele>
        <time>2016-10-05T08:53:47Z</time>
      </trkpt>
      <trkpt lat="45.28345" lon="6.83006">
        <ele>1387.8</ele>
        <time>2016-10-05T08:54:02Z</time>
      </trkpt>
      <trkpt lat="45.28366" lon="6.83062">
        <ele>1384.44</ele>
        <time>2016-10-05T08:54:07Z</time>
      </trkpt>
      <trkpt lat="45.28369" lon="6.83073">
        <ele>1384.44</ele>
        <time>2016-10-05T08:54:08Z</time>
      </trkpt>
      <trkpt lat="45.28407" lon="6.83244">
        <ele>1380.59</ele>
        <time>2016-10-05T08:54:22Z</time>
      </trkpt>
      <trkpt lat="45.28439" lon="6.83365">
        <ele>1377.23</ele>
        <time>2016-10-05T08:54:32Z</time>
      </trkpt>
      <trkpt lat="45.28473" lon="6.83485">
        <ele>1373.86</ele>
        <time>2016-10-05T08:54:42Z</time>
      </trkpt>
      <trkpt lat="45.28507" lon="6.83608">
        <ele>1370.5</ele>
        <time>2016-10-05T08:54:52Z</time>
      </trkpt>
      <trkpt lat="45.28518" lon="6.83712">
        <ele>1367.13</ele>
        <time>2016-10-05T08:55:00Z</time>
      </trkpt>
      <trkpt lat="45.28544" lon="6.83889">
        <ele>1363.77</ele>
        <time>2016-10-05T08:55:13Z</time>
      </trkpt>
      <trkpt lat="45.2855" lon="6.83985">
        <ele>1361.84</ele>
        <time>2016-10-05T08:55:20Z</time>
      </trkpt>
      <trkpt lat="45.28561" lon="6.84149">
        <ele>1362.81</ele>
        <time>2016-10-05T08:55:34Z</time>
      </trkpt>
      <trkpt lat="45.28582" lon="6.84315">
        <ele>1363.29</ele>
        <time>2016-10-05T08:55:51Z</time>
      </trkpt>
      <trkpt lat="45.28605" lon="6.84494">
        <ele>1363.77</ele>
        <time>2016-10-05T08:56:11Z</time>
      </trkpt>
      <trkpt lat="45.28609" lon="6.84624">
        <ele>1365.21</ele>
        <time>2016-10-05T08:56:27Z</time>
      </trkpt>
      <trkpt lat="45.2859" lon="6.84774">
        <ele>1366.17</ele>
        <time>2016-10-05T08:56:47Z</time>
      </trkpt>
      <trkpt lat="45.28586" lon="6.84919">
        <ele>1366.65</ele>
        <time>2016-10-05T08:57:06Z</time>
      </trkpt>
      <trkpt lat="45.28597" lon="6.85057">
        <ele>1368.09</ele>
        <time>2016-10-05T08:57:25Z</time>
      </trkpt>
      <trkpt lat="45.28602" lon="6.85166">
        <ele>1368.57</ele>
        <time>2016-10-05T08:57:41Z</time>
      </trkpt>
      <trkpt lat="45.28609" lon="6.85283">
        <ele>1370.02</ele>
        <time>2016-10-05T08:57:59Z</time>
      </trkpt>
      <trkpt lat="45.2861" lon="6.85394">
        <ele>1370.98</ele>
        <time>2016-10-05T08:58:16Z</time>
      </trkpt>
      <trkpt lat="45.28598" lon="6.85496">
        <ele>1371.94</ele>
        <time>2016-10-05T08:58:32Z</time>
      </trkpt>
      <trkpt lat="45.28582" lon="6.85574">
        <ele>1373.38</ele>
        <time>2016-10-05T08:58:45Z</time>
      </trkpt>
      <trkpt lat="45.28581" lon="6.8558">
        <ele>1372.9</ele>
        <time>2016-10-05T08:58:46Z</time>
      </trkpt>
      <trkpt lat="45.28576" lon="6.85678">
        <ele>1372.9</ele>
        <time>2016-10-05T08:59:01Z</time>
      </trkpt>
      <trkpt lat="45.28577" lon="6.85752">
        <ele>1373.86</ele>
        <time>2016-10-05T08:59:11Z</time>
      </trkpt>
      <trkpt lat="45.28577" lon="6.85884">
        <ele>1374.82</ele>
        <time>2016-10-05T08:59:30Z</time>
      </trkpt>
      <trkpt lat="45.28575" lon="6.85996">
        <ele>1375.3</ele>
        <time>2016-10-05T08:59:46Z</time>
      </trkpt>
      <trkpt lat="45.28564" lon="6.86076">
        <ele>1374.34</ele>
        <time>2016-10-05T08:59:59Z</time>
      </trkpt>
      <trkpt lat="45.28546" lon="6.86146">
        <ele>1376.26</ele>
        <time>2016-10-05T09:00:10Z</time>
      </trkpt>
      <trkpt lat="45.28543" lon="6.86152">
        <ele>1375.3</ele>
        <time>2016-10-05T09:00:11Z</time>
      </trkpt>
      <trkpt lat="45.28542" lon="6.86158">
        <ele>1375.78</ele>
        <time>2016-10-05T09:00:12Z</time>
      </trkpt>
      <trkpt lat="45.2854" lon="6.86163">
        <ele>1375.3</ele>
        <time>2016-10-05T09:00:13Z</time>
      </trkpt>
      <trkpt lat="45.28526" lon="6.86203">
        <ele>1376.26</ele>
        <time>2016-10-05T09:00:20Z</time>
      </trkpt>
      <trkpt lat="45.28499" lon="6.86301">
        <ele>1376.75</ele>
        <time>2016-10-05T09:00:37Z</time>
      </trkpt>
      <trkpt lat="45.28483" lon="6.86416">
        <ele>1378.67</ele>
        <time>2016-10-05T09:00:54Z</time>
      </trkpt>
      <trkpt lat="45.28468" lon="6.86533">
        <ele>1378.67</ele>
        <time>2016-10-05T09:01:11Z</time>
      </trkpt>
      <trkpt lat="45.2845" lon="6.86672">
        <ele>1379.63</ele>
        <time>2016-10-05T09:01:31Z</time>
      </trkpt>
      <trkpt lat="45.28434" lon="6.86784">
        <ele>1381.55</ele>
        <time>2016-10-05T09:01:49Z</time>
      </trkpt>
      <trkpt lat="45.28418" lon="6.86918">
        <ele>1383.47</ele>
        <time>2016-10-05T09:02:11Z</time>
      </trkpt>
      <trkpt lat="45.28422" lon="6.87019">
        <ele>1384.92</ele>
        <time>2016-10-05T09:02:28Z</time>
      </trkpt>
      <trkpt lat="45.28436" lon="6.87099">
        <ele>1386.36</ele>
        <time>2016-10-05T09:02:42Z</time>
      </trkpt>
      <trkpt lat="45.28456" lon="6.87183">
        <ele>1388.28</ele>
        <time>2016-10-05T09:02:59Z</time>
      </trkpt>
      <trkpt lat="45.28458" lon="6.87241">
        <ele>1388.28</ele>
        <time>2016-10-05T09:03:10Z</time>
      </trkpt>
      <trkpt lat="45.28459" lon="6.87247">
        <ele>1388.76</ele>
        <time>2016-10-05T09:03:11Z</time>
      </trkpt>
      <trkpt lat="45.28461" lon="6.87252">
        <ele>1388.28</ele>
        <time>2016-10-05T09:03:12Z</time>
      </trkpt>
      <trkpt lat="45.28463" lon="6.87256">
        <ele>1387.8</ele>
        <time>2016-10-05T09:03:13Z</time>
      </trkpt>
      <trkpt lat="45.28466" lon="6.87259">
        <ele>1388.76</ele>
        <time>2016-10-05T09:03:14Z</time>
      </trkpt>
      <trkpt lat="45.2847" lon="6.87261">
        <ele>1388.28</ele>
        <time>2016-10-05T09:03:15Z</time>
      </trkpt>
      <trkpt lat="45.28472" lon="6.87261">
        <ele>1389.24</ele>
        <time>2016-10-05T09:03:16Z</time>
      </trkpt>
      <trkpt lat="45.28493" lon="6.87293">
        <ele>1389.72</ele>
        <time>2016-10-05T09:03:25Z</time>
      </trkpt>
      <trkpt lat="45.28506" lon="6.87349">
        <ele>1390.68</ele>
        <time>2016-10-05T09:03:38Z</time>
      </trkpt>
      <trkpt lat="45.2852" lon="6.87404">
        <ele>1391.17</ele>
        <time>2016-10-05T09:03:49Z</time>
      </trkpt>
      <trkpt lat="45.28522" lon="6.87409">
        <ele>1391.65</ele>
        <time>2016-10-05T09:03:50Z</time>
      </trkpt>
      <trkpt lat="45.28531" lon="6.87497">
        <ele>1393.09</ele>
        <time>2016-10-05T09:04:07Z</time>
      </trkpt>
      <trkpt lat="45.28534" lon="6.87575">
        <ele>1393.57</ele>
        <time>2016-10-05T09:04:22Z</time>
      </trkpt>
      <trkpt lat="45.28528" lon="6.8764">
        <ele>1394.53</ele>
        <time>2016-10-05T09:04:35Z</time>
      </trkpt>
      <trkpt lat="45.28524" lon="6.87669">
        <ele>1395.01</ele>
        <time>2016-10-05T09:04:41Z</time>
      </trkpt>
      <trkpt lat="45.28524" lon="6.87673">
        <ele>1394.53</ele>
        <time>2016-10-05T09:04:42Z</time>
      </trkpt>
      <trkpt lat="45.28524" lon="6.87676">
        <ele>1395.01</ele>
        <time>2016-10-05T09:04:43Z</time>
      </trkpt>
      <trkpt lat="45.28525" lon="6.87677">
        <ele>1395.01</ele>
        <time>2016-10-05T09:04:44Z</time>
      </trkpt>
      <trkpt lat="45.28527" lon="6.87675">
        <ele>1395.01</ele>
        <time>2016-10-05T09:04:45Z</time>
      </trkpt>
      <trkpt lat="45.28527" lon="6.87673">
        <ele>1395.49</ele>
        <time>2016-10-05T09:04:46Z</time>
      </trkpt>
      <trkpt lat="45.28527" lon="6.8767">
        <ele>1395.01</ele>
        <time>2016-10-05T09:04:47Z</time>
      </trkpt>
      <trkpt lat="45.28527" lon="6.87666">
        <ele>1395.01</ele>
        <time>2016-10-05T09:04:48Z</time>
      </trkpt>
      <trkpt lat="45.28528" lon="6.87663">
        <ele>1394.53</ele>
        <time>2016-10-05T09:04:49Z</time>
      </trkpt>
      <trkpt lat="45.28529" lon="6.87661">
        <ele>1394.53</ele>
        <time>2016-10-05T09:04:50Z</time>
      </trkpt>
      <trkpt lat="45.2853" lon="6.8766">
        <ele>1394.53</ele>
        <time>2016-10-05T09:04:51Z</time>
      </trkpt>
      <trkpt lat="45.28529" lon="6.87662">
        <ele>1394.53</ele>
        <time>2016-10-05T09:05:05Z</time>
      </trkpt>
      <trkpt lat="45.28528" lon="6.87662">
        <ele>1394.53</ele>
        <time>2016-10-05T09:05:25Z</time>
      </trkpt>
      <trkpt lat="45.28529" lon="6.87659">
        <ele>1395.01</ele>
        <time>2016-10-05T09:05:41Z</time>
      </trkpt>
      <trkpt lat="45.28527" lon="6.87654">
        <ele>1395.01</ele>
        <time>2016-10-05T09:06:00Z</time>
      </trkpt>
      <trkpt lat="45.28524" lon="6.87655">
        <ele>1394.53</ele>
        <time>2016-10-05T09:06:01Z</time>
      </trkpt>
      <trkpt lat="45.28522" lon="6.87658">
        <ele>1395.01</ele>
        <time>2016-10-05T09:06:02Z</time>
      </trkpt>
      <trkpt lat="45.28521" lon="6.87661">
        <ele>1395.01</ele>
        <time>2016-10-05T09:06:03Z</time>
      </trkpt>
      <trkpt lat="45.28521" lon="6.87664">
        <ele>1394.05</ele>
        <time>2016-10-05T09:06:04Z</time>
      </trkpt>
      <trkpt lat="45.2852" lon="6.87668">
        <ele>1395.01</ele>
        <time>2016-10-05T09:06:05Z</time>
      </trkpt>
      <trkpt lat="45.2852" lon="6.87679">
        <ele>1395.01</ele>
        <time>2016-10-05T09:06:08Z</time>
      </trkpt>
      <trkpt lat="45.2852" lon="6.8773">
        <ele>1395.49</ele>
        <time>2016-10-05T09:06:19Z</time>
      </trkpt>
      <trkpt lat="45.28523" lon="6.87796">
        <ele>1395.97</ele>
        <time>2016-10-05T09:06:32Z</time>
      </trkpt>
      <trkpt lat="45.28525" lon="6.87857">
        <ele>1396.93</ele>
        <time>2016-10-05T09:06:44Z</time>
      </trkpt>
      <trkpt lat="45.28527" lon="6.87938">
        <ele>1397.89</ele>
        <time>2016-10-05T09:06:59Z</time>
      </trkpt>
      <trkpt lat="45.28529" lon="6.88003">
        <ele>1398.37</ele>
        <time>2016-10-05T09:07:12Z</time>
      </trkpt>
      <trkpt lat="45.28539" lon="6.88078">
        <ele>1399.34</ele>
        <time>2016-10-05T09:07:26Z</time>
      </trkpt>
      <trkpt lat="45.28545" lon="6.88146">
        <ele>1400.78</ele>
        <time>2016-10-05T09:07:39Z</time>
      </trkpt>
      <trkpt lat="45.28552" lon="6.88221">
        <ele>1401.74</ele>
        <time>2016-10-05T09:07:53Z</time>
      </trkpt>
      <trkpt lat="45.28541" lon="6.88268">
        <ele>1402.22</ele>
        <time>2016-10-05T09:08:06Z</time>
      </trkpt>
      <trkpt lat="45.28482" lon="6.88297">
        <ele>1403.66</ele>
        <time>2016-10-05T09:08:25Z</time>
      </trkpt>
      <trkpt lat="45.28452" lon="6.88324">
        <ele>1405.58</ele>
        <time>2016-10-05T09:08:39Z</time>
      </trkpt>
      <trkpt lat="45.28435" lon="6.88364">
        <ele>1408.47</ele>
        <time>2016-10-05T09:08:56Z</time>
      </trkpt>
      <trkpt lat="45.28428" lon="6.88403">
        <ele>1410.87</ele>
        <time>2016-10-05T09:09:11Z</time>
      </trkpt>
      <trkpt lat="45.28424" lon="6.8844">
        <ele>1412.79</ele>
        <time>2016-10-05T09:09:27Z</time>
      </trkpt>
      <trkpt lat="45.28425" lon="6.88481">
        <ele>1415.2</ele>
        <time>2016-10-05T09:09:43Z</time>
      </trkpt>
      <trkpt lat="45.28431" lon="6.88526">
        <ele>1418.08</ele>
        <time>2016-10-05T09:10:01Z</time>
      </trkpt>
      <trkpt lat="45.28439" lon="6.88568">
        <ele>1420.49</ele>
        <time>2016-10-05T09:10:19Z</time>
      </trkpt>
      <trkpt lat="45.28439" lon="6.88617">
        <ele>1422.89</ele>
        <time>2016-10-05T09:10:38Z</time>
      </trkpt>
      <trkpt lat="45.28433" lon="6.88657">
        <ele>1424.81</ele>
        <time>2016-10-05T09:10:55Z</time>
      </trkpt>
      <trkpt lat="45.28428" lon="6.88707">
        <ele>1426.73</ele>
        <time>2016-10-05T09:11:14Z</time>
      </trkpt>
      <trkpt lat="45.28423" lon="6.88755">
        <ele>1428.66</ele>
        <time>2016-10-05T09:11:31Z</time>
      </trkpt>
      <trkpt lat="45.28416" lon="6.88811">
        <ele>1431.54</ele>
        <time>2016-10-05T09:11:51Z</time>
      </trkpt>
      <trkpt lat="45.28415" lon="6.88856">
        <ele>1432.5</ele>
        <time>2016-10-05T09:12:07Z</time>
      </trkpt>
      <trkpt lat="45.28418" lon="6.88901">
        <ele>1434.42</ele>
        <time>2016-10-05T09:12:22Z</time>
      </trkpt>
      <trkpt lat="45.28416" lon="6.88954">
        <ele>1437.31</ele>
        <time>2016-10-05T09:12:40Z</time>
      </trkpt>
      <trkpt lat="45.284" lon="6.88987">
        <ele>1438.75</ele>
        <time>2016-10-05T09:12:54Z</time>
      </trkpt>
      <trkpt lat="45.28402" lon="6.89031">
        <ele>1440.67</ele>
        <time>2016-10-05T09:13:09Z</time>
      </trkpt>
      <trkpt lat="45.28408" lon="6.89066">
        <ele>1442.11</ele>
        <time>2016-10-05T09:13:23Z</time>
      </trkpt>
      <trkpt lat="45.28409" lon="6.89116">
        <ele>1445</ele>
        <time>2016-10-05T09:13:39Z</time>
      </trkpt>
      <trkpt lat="45.28411" lon="6.8916">
        <ele>1446.92</ele>
        <time>2016-10-05T09:13:54Z</time>
      </trkpt>
      <trkpt lat="45.2841" lon="6.89162">
        <ele>1447.4</ele>
        <time>2016-10-05T09:13:55Z</time>
      </trkpt>
      <trkpt lat="45.2841" lon="6.89165">
        <ele>1447.4</ele>
        <time>2016-10-05T09:13:56Z</time>
      </trkpt>
      <trkpt lat="45.2841" lon="6.89168">
        <ele>1447.4</ele>
        <time>2016-10-05T09:13:57Z</time>
      </trkpt>
      <trkpt lat="45.28411" lon="6.89171">
        <ele>1447.88</ele>
        <time>2016-10-05T09:13:58Z</time>
      </trkpt>
      <trkpt lat="45.28414" lon="6.89219">
        <ele>1449.32</ele>
        <time>2016-10-05T09:14:15Z</time>
      </trkpt>
      <trkpt lat="45.28414" lon="6.89261">
        <ele>1451.73</ele>
        <time>2016-10-05T09:14:30Z</time>
      </trkpt>
      <trkpt lat="45.28407" lon="6.89299">
        <ele>1453.17</ele>
        <time>2016-10-05T09:14:45Z</time>
      </trkpt>
      <trkpt lat="45.28393" lon="6.89338">
        <ele>1455.09</ele>
        <time>2016-10-05T09:15:00Z</time>
      </trkpt>
      <trkpt lat="45.28395" lon="6.89385">
        <ele>1457.5</ele>
        <time>2016-10-05T09:15:16Z</time>
      </trkpt>
      <trkpt lat="45.28402" lon="6.89433">
        <ele>1459.42</ele>
        <time>2016-10-05T09:15:33Z</time>
      </trkpt>
      <trkpt lat="45.28403" lon="6.89484">
        <ele>1461.82</ele>
        <time>2016-10-05T09:15:52Z</time>
      </trkpt>
      <trkpt lat="45.28397" lon="6.89529">
        <ele>1464.23</ele>
        <time>2016-10-05T09:16:09Z</time>
      </trkpt>
      <trkpt lat="45.28389" lon="6.89567">
        <ele>1466.63</ele>
        <time>2016-10-05T09:16:24Z</time>
      </trkpt>
      <trkpt lat="45.28382" lon="6.89614">
        <ele>1468.55</ele>
        <time>2016-10-05T09:16:41Z</time>
      </trkpt>
      <trkpt lat="45.2838" lon="6.89661">
        <ele>1470.47</ele>
        <time>2016-10-05T09:16:57Z</time>
      </trkpt>
      <trkpt lat="45.2839" lon="6.89712">
        <ele>1473.36</ele>
        <time>2016-10-05T09:17:16Z</time>
      </trkpt>
      <trkpt lat="45.28399" lon="6.89766">
        <ele>1474.8</ele>
        <time>2016-10-05T09:17:35Z</time>
      </trkpt>
      <trkpt lat="45.28393" lon="6.89808">
        <ele>1477.68</ele>
        <time>2016-10-05T09:17:51Z</time>
      </trkpt>
      <trkpt lat="45.28378" lon="6.89849">
        <ele>1479.61</ele>
        <time>2016-10-05T09:18:08Z</time>
      </trkpt>
      <trkpt lat="45.28372" lon="6.89885">
        <ele>1482.49</ele>
        <time>2016-10-05T09:18:23Z</time>
      </trkpt>
      <trkpt lat="45.28367" lon="6.89922">
        <ele>1483.93</ele>
        <time>2016-10-05T09:18:38Z</time>
      </trkpt>
      <trkpt lat="45.28366" lon="6.89955">
        <ele>1485.85</ele>
        <time>2016-10-05T09:18:51Z</time>
      </trkpt>
      <trkpt lat="45.2837" lon="6.90001">
        <ele>1487.3</ele>
        <time>2016-10-05T09:19:08Z</time>
      </trkpt>
      <trkpt lat="45.28374" lon="6.90048">
        <ele>1489.22</ele>
        <time>2016-10-05T09:19:25Z</time>
      </trkpt>
      <trkpt lat="45.28381" lon="6.90093">
        <ele>1491.62</ele>
        <time>2016-10-05T09:19:44Z</time>
      </trkpt>
      <trkpt lat="45.28385" lon="6.90129">
        <ele>1493.55</ele>
        <time>2016-10-05T09:19:59Z</time>
      </trkpt>
      <trkpt lat="45.28385" lon="6.9016">
        <ele>1494.99</ele>
        <time>2016-10-05T09:20:13Z</time>
      </trkpt>
      <trkpt lat="45.28385" lon="6.9019">
        <ele>1496.43</ele>
        <time>2016-10-05T09:20:26Z</time>
      </trkpt>
      <trkpt lat="45.28387" lon="6.90235">
        <ele>1497.87</ele>
        <time>2016-10-05T09:20:43Z</time>
      </trkpt>
      <trkpt lat="45.28392" lon="6.90289">
        <ele>1501.72</ele>
        <time>2016-10-05T09:21:03Z</time>
      </trkpt>
      <trkpt lat="45.28402" lon="6.90339">
        <ele>1503.16</ele>
        <time>2016-10-05T09:21:23Z</time>
      </trkpt>
      <trkpt lat="45.2841" lon="6.90374">
        <ele>1506.04</ele>
        <time>2016-10-05T09:21:38Z</time>
      </trkpt>
      <trkpt lat="45.28417" lon="6.9041">
        <ele>1506.52</ele>
        <time>2016-10-05T09:21:53Z</time>
      </trkpt>
      <trkpt lat="45.28425" lon="6.90447">
        <ele>1508.45</ele>
        <time>2016-10-05T09:22:09Z</time>
      </trkpt>
      <trkpt lat="45.28432" lon="6.90482">
        <ele>1510.37</ele>
        <time>2016-10-05T09:22:23Z</time>
      </trkpt>
      <trkpt lat="45.28442" lon="6.9053">
        <ele>1512.29</ele>
        <time>2016-10-05T09:22:42Z</time>
      </trkpt>
      <trkpt lat="45.28452" lon="6.90579">
        <ele>1513.73</ele>
        <time>2016-10-05T09:23:01Z</time>
      </trkpt>
      <trkpt lat="45.2846" lon="6.90615">
        <ele>1515.66</ele>
        <time>2016-10-05T09:23:15Z</time>
      </trkpt>
      <trkpt lat="45.28469" lon="6.90657">
        <ele>1517.1</ele>
        <time>2016-10-05T09:23:31Z</time>
      </trkpt>
      <trkpt lat="45.28479" lon="6.90702">
        <ele>1519.02</ele>
        <time>2016-10-05T09:23:48Z</time>
      </trkpt>
      <trkpt lat="45.28489" lon="6.90742">
        <ele>1521.42</ele>
        <time>2016-10-05T09:24:03Z</time>
      </trkpt>
      <trkpt lat="45.28498" lon="6.90786">
        <ele>1523.35</ele>
        <time>2016-10-05T09:24:20Z</time>
      </trkpt>
      <trkpt lat="45.28487" lon="6.90805">
        <ele>1524.31</ele>
        <time>2016-10-05T09:24:32Z</time>
      </trkpt>
      <trkpt lat="45.28466" lon="6.90788">
        <ele>1526.71</ele>
        <time>2016-10-05T09:24:47Z</time>
      </trkpt>
      <trkpt lat="45.28458" lon="6.90774">
        <ele>1527.19</ele>
        <time>2016-10-05T09:25:01Z</time>
      </trkpt>
      <trkpt lat="45.28461" lon="6.90773">
        <ele>1527.19</ele>
        <time>2016-10-05T09:25:23Z</time>
      </trkpt>
      <trkpt lat="45.28463" lon="6.90771">
        <ele>1526.71</ele>
        <time>2016-10-05T09:25:56Z</time>
      </trkpt>
      <trkpt lat="45.28467" lon="6.90771">
        <ele>1527.67</ele>
        <time>2016-10-05T09:26:34Z</time>
      </trkpt>
      <trkpt lat="45.28469" lon="6.90772">
        <ele>1527.67</ele>
        <time>2016-10-05T09:27:00Z</time>
      </trkpt>
      <trkpt lat="45.28468" lon="6.9077">
        <ele>1527.19</ele>
        <time>2016-10-05T09:27:17Z</time>
      </trkpt>
      <trkpt lat="45.28467" lon="6.9077">
        <ele>1527.19</ele>
        <time>2016-10-05T09:27:42Z</time>
      </trkpt>
      <trkpt lat="45.28469" lon="6.9077">
        <ele>1527.67</ele>
        <time>2016-10-05T09:28:02Z</time>
      </trkpt>
      <trkpt lat="45.28468" lon="6.90771">
        <ele>1527.67</ele>
        <time>2016-10-05T09:28:26Z</time>
      </trkpt>
      <trkpt lat="45.28462" lon="6.90768">
        <ele>1528.15</ele>
        <time>2016-10-05T09:28:52Z</time>
      </trkpt>
      <trkpt lat="45.2846" lon="6.90771">
        <ele>1528.15</ele>
        <time>2016-10-05T09:29:17Z</time>
      </trkpt>
      <trkpt lat="45.28458" lon="6.90771">
        <ele>1528.63</ele>
        <time>2016-10-05T09:29:45Z</time>
      </trkpt>
      <trkpt lat="45.2846" lon="6.9077">
        <ele>1528.63</ele>
        <time>2016-10-05T09:30:13Z</time>
      </trkpt>
      <trkpt lat="45.28459" lon="6.90766">
        <ele>1529.11</ele>
        <time>2016-10-05T09:30:40Z</time>
      </trkpt>
      <trkpt lat="45.28459" lon="6.90765">
        <ele>1528.63</ele>
        <time>2016-10-05T09:31:08Z</time>
      </trkpt>
      <trkpt lat="45.28458" lon="6.90769">
        <ele>1529.11</ele>
        <time>2016-10-05T09:31:29Z</time>
      </trkpt>
      <trkpt lat="45.28461" lon="6.90769">
        <ele>1528.63</ele>
        <time>2016-10-05T09:31:54Z</time>
      </trkpt>
      <trkpt lat="45.2846" lon="6.90769">
        <ele>1528.63</ele>
        <time>2016-10-05T09:32:15Z</time>
      </trkpt>
      <trkpt lat="45.28461" lon="6.90768">
        <ele>1529.11</ele>
        <time>2016-10-05T09:32:45Z</time>
      </trkpt>
      <trkpt lat="45.28463" lon="6.9077">
        <ele>1529.11</ele>
        <time>2016-10-05T09:33:12Z</time>
      </trkpt>
      <trkpt lat="45.28461" lon="6.9077">
        <ele>1529.11</ele>
        <time>2016-10-05T09:33:35Z</time>
      </trkpt>
      <trkpt lat="45.2846" lon="6.90771">
        <ele>1528.63</ele>
        <time>2016-10-05T09:34:03Z</time>
      </trkpt>
      <trkpt lat="45.28459" lon="6.90771">
        <ele>1529.59</ele>
        <time>2016-10-05T09:34:30Z</time>
      </trkpt>
      <trkpt lat="45.28453" lon="6.90762">
        <ele>1529.11</ele>
        <time>2016-10-05T09:34:49Z</time>
      </trkpt>
      <trkpt lat="45.28441" lon="6.90742">
        <ele>1531.04</ele>
        <time>2016-10-05T09:34:58Z</time>
      </trkpt>
      <trkpt lat="45.28415" lon="6.90694">
        <ele>1532.96</ele>
        <time>2016-10-05T09:35:20Z</time>
      </trkpt>
      <trkpt lat="45.28391" lon="6.9065">
        <ele>1534.88</ele>
        <time>2016-10-05T09:35:41Z</time>
      </trkpt>
      <trkpt lat="45.28369" lon="6.90611">
        <ele>1537.29</ele>
        <time>2016-10-05T09:36:00Z</time>
      </trkpt>
      <trkpt lat="45.28348" lon="6.90568">
        <ele>1539.69</ele>
        <time>2016-10-05T09:36:20Z</time>
      </trkpt>
      <trkpt lat="45.28343" lon="6.90529">
        <ele>1541.61</ele>
        <time>2016-10-05T09:36:37Z</time>
      </trkpt>
      <trkpt lat="45.28338" lon="6.90473">
        <ele>1543.53</ele>
        <time>2016-10-05T09:36:57Z</time>
      </trkpt>
      <trkpt lat="45.28315" lon="6.9043">
        <ele>1545.94</ele>
        <time>2016-10-05T09:37:16Z</time>
      </trkpt>
      <trkpt lat="45.28285" lon="6.90388">
        <ele>1548.34</ele>
        <time>2016-10-05T09:37:36Z</time>
      </trkpt>
      <trkpt lat="45.28255" lon="6.90347">
        <ele>1551.22</ele>
        <time>2016-10-05T09:37:58Z</time>
      </trkpt>
      <trkpt lat="45.2823" lon="6.90308">
        <ele>1553.15</ele>
        <time>2016-10-05T09:38:18Z</time>
      </trkpt>
      <trkpt lat="45.28219" lon="6.90268">
        <ele>1555.07</ele>
        <time>2016-10-05T09:38:36Z</time>
      </trkpt>
      <trkpt lat="45.28214" lon="6.90206">
        <ele>1557.95</ele>
        <time>2016-10-05T09:38:58Z</time>
      </trkpt>
      <trkpt lat="45.282" lon="6.90162">
        <ele>1559.88</ele>
        <time>2016-10-05T09:39:16Z</time>
      </trkpt>
      <trkpt lat="45.28183" lon="6.90114">
        <ele>1561.8</ele>
        <time>2016-10-05T09:39:35Z</time>
      </trkpt>
      <trkpt lat="45.28165" lon="6.90053">
        <ele>1565.16</ele>
        <time>2016-10-05T09:39:58Z</time>
      </trkpt>
      <trkpt lat="45.28149" lon="6.90004">
        <ele>1566.12</ele>
        <time>2016-10-05T09:40:18Z</time>
      </trkpt>
      <trkpt lat="45.28137" lon="6.89959">
        <ele>1569.01</ele>
        <time>2016-10-05T09:40:35Z</time>
      </trkpt>
      <trkpt lat="45.28124" lon="6.89917">
        <ele>1570.45</ele>
        <time>2016-10-05T09:40:52Z</time>
      </trkpt>
      <trkpt lat="45.2811" lon="6.89872">
        <ele>1572.85</ele>
        <time>2016-10-05T09:41:10Z</time>
      </trkpt>
      <trkpt lat="45.28109" lon="6.89829">
        <ele>1574.3</ele>
        <time>2016-10-05T09:41:25Z</time>
      </trkpt>
      <trkpt lat="45.28108" lon="6.89778">
        <ele>1577.18</ele>
        <time>2016-10-05T09:41:43Z</time>
      </trkpt>
      <trkpt lat="45.28106" lon="6.89724">
        <ele>1579.58</ele>
        <time>2016-10-05T09:42:02Z</time>
      </trkpt>
      <trkpt lat="45.28079" lon="6.89703">
        <ele>1580.54</ele>
        <time>2016-10-05T09:42:16Z</time>
      </trkpt>
      <trkpt lat="45.28072" lon="6.89723">
        <ele>1580.06</ele>
        <time>2016-10-05T09:42:23Z</time>
      </trkpt>
      <trkpt lat="45.28078" lon="6.89774">
        <ele>1582.47</ele>
        <time>2016-10-05T09:42:39Z</time>
      </trkpt>
      <trkpt lat="45.28076" lon="6.89813">
        <ele>1585.35</ele>
        <time>2016-10-05T09:42:55Z</time>
      </trkpt>
      <trkpt lat="45.2807" lon="6.89833">
        <ele>1586.79</ele>
        <time>2016-10-05T09:43:06Z</time>
      </trkpt>
      <trkpt lat="45.2807" lon="6.89835">
        <ele>1586.79</ele>
        <time>2016-10-05T09:43:07Z</time>
      </trkpt>
      <trkpt lat="45.28064" lon="6.89866">
        <ele>1588.24</ele>
        <time>2016-10-05T09:43:23Z</time>
      </trkpt>
      <trkpt lat="45.28073" lon="6.89903">
        <ele>1590.64</ele>
        <time>2016-10-05T09:43:38Z</time>
      </trkpt>
      <trkpt lat="45.28083" lon="6.89937">
        <ele>1592.56</ele>
        <time>2016-10-05T09:43:55Z</time>
      </trkpt>
      <trkpt lat="45.28083" lon="6.89965">
        <ele>1594.48</ele>
        <time>2016-10-05T09:44:09Z</time>
      </trkpt>
      <trkpt lat="45.28083" lon="6.89983">
        <ele>1594.96</ele>
        <time>2016-10-05T09:44:19Z</time>
      </trkpt>
      <trkpt lat="45.28083" lon="6.89986">
        <ele>1595.45</ele>
        <time>2016-10-05T09:44:20Z</time>
      </trkpt>
      <trkpt lat="45.28082" lon="6.89988">
        <ele>1595.45</ele>
        <time>2016-10-05T09:44:21Z</time>
      </trkpt>
      <trkpt lat="45.28081" lon="6.89991">
        <ele>1595.93</ele>
        <time>2016-10-05T09:44:22Z</time>
      </trkpt>
      <trkpt lat="45.28081" lon="6.89993">
        <ele>1595.93</ele>
        <time>2016-10-05T09:44:23Z</time>
      </trkpt>
      <trkpt lat="45.28081" lon="6.89996">
        <ele>1595.93</ele>
        <time>2016-10-05T09:44:24Z</time>
      </trkpt>
      <trkpt lat="45.28076" lon="6.90025">
        <ele>1597.37</ele>
        <time>2016-10-05T09:44:38Z</time>
      </trkpt>
      <trkpt lat="45.28076" lon="6.90027">
        <ele>1597.85</ele>
        <time>2016-10-05T09:44:39Z</time>
      </trkpt>
      <trkpt lat="45.28076" lon="6.90029">
        <ele>1597.37</ele>
        <time>2016-10-05T09:44:40Z</time>
      </trkpt>
      <trkpt lat="45.28076" lon="6.90031">
        <ele>1598.33</ele>
        <time>2016-10-05T09:44:41Z</time>
      </trkpt>
      <trkpt lat="45.28076" lon="6.90033">
        <ele>1598.33</ele>
        <time>2016-10-05T09:44:42Z</time>
      </trkpt>
      <trkpt lat="45.28076" lon="6.90035">
        <ele>1597.85</ele>
        <time>2016-10-05T09:44:43Z</time>
      </trkpt>
      <trkpt lat="45.28074" lon="6.90064">
        <ele>1600.25</ele>
        <time>2016-10-05T09:44:57Z</time>
      </trkpt>
      <trkpt lat="45.28073" lon="6.90097">
        <ele>1602.66</ele>
        <time>2016-10-05T09:45:12Z</time>
      </trkpt>
      <trkpt lat="45.28072" lon="6.90128">
        <ele>1603.62</ele>
        <time>2016-10-05T09:45:26Z</time>
      </trkpt>
      <trkpt lat="45.28072" lon="6.90159">
        <ele>1605.54</ele>
        <time>2016-10-05T09:45:41Z</time>
      </trkpt>
      <trkpt lat="45.2807" lon="6.90185">
        <ele>1607.46</ele>
        <time>2016-10-05T09:45:53Z</time>
      </trkpt>
      <trkpt lat="45.2807" lon="6.90187">
        <ele>1607.94</ele>
        <time>2016-10-05T09:45:54Z</time>
      </trkpt>
      <trkpt lat="45.28069" lon="6.90189">
        <ele>1607.46</ele>
        <time>2016-10-05T09:45:55Z</time>
      </trkpt>
      <trkpt lat="45.28067" lon="6.90206">
        <ele>1608.42</ele>
        <time>2016-10-05T09:46:03Z</time>
      </trkpt>
      <trkpt lat="45.28067" lon="6.90208">
        <ele>1607.94</ele>
        <time>2016-10-05T09:46:04Z</time>
      </trkpt>
      <trkpt lat="45.28067" lon="6.9021">
        <ele>1608.42</ele>
        <time>2016-10-05T09:46:05Z</time>
      </trkpt>
      <trkpt lat="45.28067" lon="6.90212">
        <ele>1608.42</ele>
        <time>2016-10-05T09:46:06Z</time>
      </trkpt>
      <trkpt lat="45.28066" lon="6.90214">
        <ele>1608.9</ele>
        <time>2016-10-05T09:46:07Z</time>
      </trkpt>
      <trkpt lat="45.28066" lon="6.90216">
        <ele>1608.9</ele>
        <time>2016-10-05T09:46:08Z</time>
      </trkpt>
      <trkpt lat="45.28065" lon="6.90218">
        <ele>1609.38</ele>
        <time>2016-10-05T09:46:09Z</time>
      </trkpt>
      <trkpt lat="45.28065" lon="6.9022">
        <ele>1609.38</ele>
        <time>2016-10-05T09:46:10Z</time>
      </trkpt>
      <trkpt lat="45.28065" lon="6.90222">
        <ele>1609.38</ele>
        <time>2016-10-05T09:46:11Z</time>
      </trkpt>
      <trkpt lat="45.28064" lon="6.90253">
        <ele>1610.83</ele>
        <time>2016-10-05T09:46:25Z</time>
      </trkpt>
      <trkpt lat="45.28064" lon="6.90258">
        <ele>1611.31</ele>
        <time>2016-10-05T09:46:27Z</time>
      </trkpt>
      <trkpt lat="45.28065" lon="6.9026">
        <ele>1611.79</ele>
        <time>2016-10-05T09:46:28Z</time>
      </trkpt>
      <trkpt lat="45.28066" lon="6.90295">
        <ele>1613.23</ele>
        <time>2016-10-05T09:46:44Z</time>
      </trkpt>
      <trkpt lat="45.28066" lon="6.90315">
        <ele>1613.71</ele>
        <time>2016-10-05T09:46:53Z</time>
      </trkpt>
      <trkpt lat="45.28066" lon="6.90317">
        <ele>1614.19</ele>
        <time>2016-10-05T09:46:54Z</time>
      </trkpt>
      <trkpt lat="45.28066" lon="6.90319">
        <ele>1614.67</ele>
        <time>2016-10-05T09:46:55Z</time>
      </trkpt>
      <trkpt lat="45.28064" lon="6.90349">
        <ele>1616.11</ele>
        <time>2016-10-05T09:47:09Z</time>
      </trkpt>
      <trkpt lat="45.28066" lon="6.90381">
        <ele>1617.56</ele>
        <time>2016-10-05T09:47:22Z</time>
      </trkpt>
      <trkpt lat="45.28077" lon="6.90411">
        <ele>1619.48</ele>
        <time>2016-10-05T09:47:37Z</time>
      </trkpt>
      <trkpt lat="45.28087" lon="6.9044">
        <ele>1621.4</ele>
        <time>2016-10-05T09:47:53Z</time>
      </trkpt>
      <trkpt lat="45.28085" lon="6.90458">
        <ele>1622.84</ele>
        <time>2016-10-05T09:48:02Z</time>
      </trkpt>
      <trkpt lat="45.28086" lon="6.90468">
        <ele>1623.32</ele>
        <time>2016-10-05T09:48:06Z</time>
      </trkpt>
      <trkpt lat="45.28086" lon="6.9047">
        <ele>1623.32</ele>
        <time>2016-10-05T09:48:07Z</time>
      </trkpt>
      <trkpt lat="45.28086" lon="6.90472">
        <ele>1623.32</ele>
        <time>2016-10-05T09:48:08Z</time>
      </trkpt>
      <trkpt lat="45.28082" lon="6.905">
        <ele>1625.73</ele>
        <time>2016-10-05T09:48:22Z</time>
      </trkpt>
      <trkpt lat="45.28082" lon="6.90529">
        <ele>1627.17</ele>
        <time>2016-10-05T09:48:36Z</time>
      </trkpt>
      <trkpt lat="45.28081" lon="6.90536">
        <ele>1628.13</ele>
        <time>2016-10-05T09:48:39Z</time>
      </trkpt>
      <trkpt lat="45.28081" lon="6.90538">
        <ele>1628.61</ele>
        <time>2016-10-05T09:48:40Z</time>
      </trkpt>
      <trkpt lat="45.28081" lon="6.9054">
        <ele>1628.61</ele>
        <time>2016-10-05T09:48:41Z</time>
      </trkpt>
      <trkpt lat="45.28081" lon="6.90543">
        <ele>1628.61</ele>
        <time>2016-10-05T09:48:42Z</time>
      </trkpt>
      <trkpt lat="45.28081" lon="6.90545">
        <ele>1628.61</ele>
        <time>2016-10-05T09:48:43Z</time>
      </trkpt>
      <trkpt lat="45.28081" lon="6.90548">
        <ele>1629.09</ele>
        <time>2016-10-05T09:48:44Z</time>
      </trkpt>
      <trkpt lat="45.28081" lon="6.9055">
        <ele>1629.09</ele>
        <time>2016-10-05T09:48:45Z</time>
      </trkpt>
      <trkpt lat="45.2808" lon="6.90563">
        <ele>1629.09</ele>
        <time>2016-10-05T09:48:51Z</time>
      </trkpt>
      <trkpt lat="45.2808" lon="6.90566">
        <ele>1630.05</ele>
        <time>2016-10-05T09:48:52Z</time>
      </trkpt>
      <trkpt lat="45.28079" lon="6.90571">
        <ele>1630.53</ele>
        <time>2016-10-05T09:48:54Z</time>
      </trkpt>
      <trkpt lat="45.2808" lon="6.90573">
        <ele>1630.53</ele>
        <time>2016-10-05T09:48:55Z</time>
      </trkpt>
      <trkpt lat="45.28078" lon="6.90581">
        <ele>1631.01</ele>
        <time>2016-10-05T09:48:59Z</time>
      </trkpt>
      <trkpt lat="45.28078" lon="6.90607">
        <ele>1631.98</ele>
        <time>2016-10-05T09:49:11Z</time>
      </trkpt>
      <trkpt lat="45.28077" lon="6.90609">
        <ele>1631.98</ele>
        <time>2016-10-05T09:49:12Z</time>
      </trkpt>
      <trkpt lat="45.28077" lon="6.90611">
        <ele>1631.98</ele>
        <time>2016-10-05T09:49:13Z</time>
      </trkpt>
      <trkpt lat="45.28077" lon="6.90613">
        <ele>1632.46</ele>
        <time>2016-10-05T09:49:14Z</time>
      </trkpt>
      <trkpt lat="45.28077" lon="6.90616">
        <ele>1632.46</ele>
        <time>2016-10-05T09:49:15Z</time>
      </trkpt>
      <trkpt lat="45.28077" lon="6.90618">
        <ele>1632.46</ele>
        <time>2016-10-05T09:49:16Z</time>
      </trkpt>
      <trkpt lat="45.28077" lon="6.9062">
        <ele>1631.98</ele>
        <time>2016-10-05T09:49:17Z</time>
      </trkpt>
      <trkpt lat="45.28072" lon="6.90651">
        <ele>1634.38</ele>
        <time>2016-10-05T09:49:32Z</time>
      </trkpt>
      <trkpt lat="45.2807" lon="6.90676">
        <ele>1636.3</ele>
        <time>2016-10-05T09:49:43Z</time>
      </trkpt>
      <trkpt lat="45.2807" lon="6.90678">
        <ele>1635.82</ele>
        <time>2016-10-05T09:49:44Z</time>
      </trkpt>
      <trkpt lat="45.2807" lon="6.9068">
        <ele>1635.82</ele>
        <time>2016-10-05T09:49:45Z</time>
      </trkpt>
      <trkpt lat="45.28067" lon="6.90713">
        <ele>1637.74</ele>
        <time>2016-10-05T09:50:01Z</time>
      </trkpt>
      <trkpt lat="45.28071" lon="6.90743">
        <ele>1640.15</ele>
        <time>2016-10-05T09:50:15Z</time>
      </trkpt>
      <trkpt lat="45.28076" lon="6.90776">
        <ele>1641.59</ele>
        <time>2016-10-05T09:50:30Z</time>
      </trkpt>
      <trkpt lat="45.28078" lon="6.90793">
        <ele>1642.07</ele>
        <time>2016-10-05T09:50:38Z</time>
      </trkpt>
      <trkpt lat="45.28082" lon="6.90819">
        <ele>1643.51</ele>
        <time>2016-10-05T09:50:51Z</time>
      </trkpt>
      <trkpt lat="45.28087" lon="6.90851">
        <ele>1645.91</ele>
        <time>2016-10-05T09:51:06Z</time>
      </trkpt>
      <trkpt lat="45.28092" lon="6.90889">
        <ele>1647.84</ele>
        <time>2016-10-05T09:51:25Z</time>
      </trkpt>
      <trkpt lat="45.28096" lon="6.90921">
        <ele>1651.2</ele>
        <time>2016-10-05T09:51:41Z</time>
      </trkpt>
      <trkpt lat="45.28102" lon="6.90961">
        <ele>1653.12</ele>
        <time>2016-10-05T09:52:00Z</time>
      </trkpt>
      <trkpt lat="45.28108" lon="6.90999">
        <ele>1654.57</ele>
        <time>2016-10-05T09:52:18Z</time>
      </trkpt>
      <trkpt lat="45.28115" lon="6.91035">
        <ele>1657.93</ele>
        <time>2016-10-05T09:52:36Z</time>
      </trkpt>
      <trkpt lat="45.28119" lon="6.91061">
        <ele>1658.89</ele>
        <time>2016-10-05T09:52:49Z</time>
      </trkpt>
      <trkpt lat="45.28123" lon="6.91088">
        <ele>1661.3</ele>
        <time>2016-10-05T09:53:03Z</time>
      </trkpt>
      <trkpt lat="45.28129" lon="6.91128">
        <ele>1662.74</ele>
        <time>2016-10-05T09:53:22Z</time>
      </trkpt>
      <trkpt lat="45.28136" lon="6.91161">
        <ele>1665.14</ele>
        <time>2016-10-05T09:53:38Z</time>
      </trkpt>
      <trkpt lat="45.28138" lon="6.91181">
        <ele>1666.58</ele>
        <time>2016-10-05T09:53:48Z</time>
      </trkpt>
      <trkpt lat="45.28138" lon="6.91182">
        <ele>1666.58</ele>
        <time>2016-10-05T09:53:49Z</time>
      </trkpt>
      <trkpt lat="45.28137" lon="6.91184">
        <ele>1666.58</ele>
        <time>2016-10-05T09:53:50Z</time>
      </trkpt>
      <trkpt lat="45.28136" lon="6.91192">
        <ele>1667.54</ele>
        <time>2016-10-05T09:53:54Z</time>
      </trkpt>
      <trkpt lat="45.28135" lon="6.91194">
        <ele>1667.06</ele>
        <time>2016-10-05T09:53:55Z</time>
      </trkpt>
      <trkpt lat="45.28134" lon="6.91195">
        <ele>1668.02</ele>
        <time>2016-10-05T09:53:56Z</time>
      </trkpt>
      <trkpt lat="45.28133" lon="6.91196">
        <ele>1668.02</ele>
        <time>2016-10-05T09:53:57Z</time>
      </trkpt>
      <trkpt lat="45.28132" lon="6.91197">
        <ele>1668.51</ele>
        <time>2016-10-05T09:53:58Z</time>
      </trkpt>
      <trkpt lat="45.28114" lon="6.91188">
        <ele>1668.99</ele>
        <time>2016-10-05T09:54:12Z</time>
      </trkpt>
      <trkpt lat="45.28102" lon="6.91161">
        <ele>1671.87</ele>
        <time>2016-10-05T09:54:28Z</time>
      </trkpt>
      <trkpt lat="45.28092" lon="6.91137">
        <ele>1672.35</ele>
        <time>2016-10-05T09:54:41Z</time>
      </trkpt>
      <trkpt lat="45.28074" lon="6.91106">
        <ele>1673.79</ele>
        <time>2016-10-05T09:55:01Z</time>
      </trkpt>
      <trkpt lat="45.2806" lon="6.91082">
        <ele>1676.68</ele>
        <time>2016-10-05T09:55:15Z</time>
      </trkpt>
      <trkpt lat="45.28055" lon="6.91072">
        <ele>1676.2</ele>
        <time>2016-10-05T09:55:21Z</time>
      </trkpt>
      <trkpt lat="45.28038" lon="6.91044">
        <ele>1679.08</ele>
        <time>2016-10-05T09:55:38Z</time>
      </trkpt>
      <trkpt lat="45.28037" lon="6.91042">
        <ele>1679.08</ele>
        <time>2016-10-05T09:55:39Z</time>
      </trkpt>
      <trkpt lat="45.28036" lon="6.91041">
        <ele>1679.56</ele>
        <time>2016-10-05T09:55:40Z</time>
      </trkpt>
      <trkpt lat="45.28019" lon="6.91011">
        <ele>1681</ele>
        <time>2016-10-05T09:55:58Z</time>
      </trkpt>
      <trkpt lat="45.28004" lon="6.90983">
        <ele>1683.41</ele>
        <time>2016-10-05T09:56:14Z</time>
      </trkpt>
      <trkpt lat="45.27994" lon="6.90957">
        <ele>1684.85</ele>
        <time>2016-10-05T09:56:29Z</time>
      </trkpt>
      <trkpt lat="45.27983" lon="6.90928">
        <ele>1687.25</ele>
        <time>2016-10-05T09:56:46Z</time>
      </trkpt>
      <trkpt lat="45.27976" lon="6.90899">
        <ele>1689.65</ele>
        <time>2016-10-05T09:57:02Z</time>
      </trkpt>
      <trkpt lat="45.27976" lon="6.90895">
        <ele>1689.65</ele>
        <time>2016-10-05T09:57:04Z</time>
      </trkpt>
      <trkpt lat="45.27975" lon="6.90893">
        <ele>1689.65</ele>
        <time>2016-10-05T09:57:05Z</time>
      </trkpt>
      <trkpt lat="45.27974" lon="6.90891">
        <ele>1689.17</ele>
        <time>2016-10-05T09:57:06Z</time>
      </trkpt>
      <trkpt lat="45.27974" lon="6.9089">
        <ele>1689.17</ele>
        <time>2016-10-05T09:57:07Z</time>
      </trkpt>
      <trkpt lat="45.27967" lon="6.90863">
        <ele>1690.62</ele>
        <time>2016-10-05T09:57:21Z</time>
      </trkpt>
      <trkpt lat="45.27962" lon="6.90832">
        <ele>1693.02</ele>
        <time>2016-10-05T09:57:37Z</time>
      </trkpt>
      <trkpt lat="45.27955" lon="6.90795">
        <ele>1695.42</ele>
        <time>2016-10-05T09:57:56Z</time>
      </trkpt>
      <trkpt lat="45.27944" lon="6.90765">
        <ele>1697.83</ele>
        <time>2016-10-05T09:58:14Z</time>
      </trkpt>
      <trkpt lat="45.27931" lon="6.90735">
        <ele>1699.75</ele>
        <time>2016-10-05T09:58:32Z</time>
      </trkpt>
      <trkpt lat="45.27927" lon="6.90724">
        <ele>1700.23</ele>
        <time>2016-10-05T09:58:39Z</time>
      </trkpt>
      <trkpt lat="45.27927" lon="6.90723">
        <ele>1701.19</ele>
        <time>2016-10-05T09:58:40Z</time>
      </trkpt>
      <trkpt lat="45.27926" lon="6.90721">
        <ele>1701.19</ele>
        <time>2016-10-05T09:58:41Z</time>
      </trkpt>
      <trkpt lat="45.27924" lon="6.90705">
        <ele>1701.67</ele>
        <time>2016-10-05T09:58:52Z</time>
      </trkpt>
      <trkpt lat="45.27924" lon="6.90692">
        <ele>1703.59</ele>
        <time>2016-10-05T09:59:00Z</time>
      </trkpt>
      <trkpt lat="45.27924" lon="6.90689">
        <ele>1703.59</ele>
        <time>2016-10-05T09:59:01Z</time>
      </trkpt>
      <trkpt lat="45.27928" lon="6.90652">
        <ele>1705.04</ele>
        <time>2016-10-05T09:59:18Z</time>
      </trkpt>
      <trkpt lat="45.27931" lon="6.9062">
        <ele>1706.96</ele>
        <time>2016-10-05T09:59:35Z</time>
      </trkpt>
      <trkpt lat="45.27925" lon="6.90587">
        <ele>1708.88</ele>
        <time>2016-10-05T09:59:53Z</time>
      </trkpt>
      <trkpt lat="45.27911" lon="6.90557">
        <ele>1709.84</ele>
        <time>2016-10-05T10:00:10Z</time>
      </trkpt>
      <trkpt lat="45.27903" lon="6.90532">
        <ele>1711.76</ele>
        <time>2016-10-05T10:00:27Z</time>
      </trkpt>
      <trkpt lat="45.27903" lon="6.90524">
        <ele>1712.25</ele>
        <time>2016-10-05T10:00:32Z</time>
      </trkpt>
      <trkpt lat="45.27902" lon="6.90522">
        <ele>1712.25</ele>
        <time>2016-10-05T10:00:33Z</time>
      </trkpt>
      <trkpt lat="45.27901" lon="6.90495">
        <ele>1714.65</ele>
        <time>2016-10-05T10:00:49Z</time>
      </trkpt>
      <trkpt lat="45.27907" lon="6.90463">
        <ele>1716.57</ele>
        <time>2016-10-05T10:01:04Z</time>
      </trkpt>
      <trkpt lat="45.27903" lon="6.90434">
        <ele>1718.49</ele>
        <time>2016-10-05T10:01:18Z</time>
      </trkpt>
      <trkpt lat="45.27893" lon="6.90402">
        <ele>1720.42</ele>
        <time>2016-10-05T10:01:34Z</time>
      </trkpt>
      <trkpt lat="45.27883" lon="6.90362">
        <ele>1722.82</ele>
        <time>2016-10-05T10:01:54Z</time>
      </trkpt>
      <trkpt lat="45.27872" lon="6.90331">
        <ele>1725.22</ele>
        <time>2016-10-05T10:02:11Z</time>
      </trkpt>
      <trkpt lat="45.27852" lon="6.90314">
        <ele>1726.67</ele>
        <time>2016-10-05T10:02:25Z</time>
      </trkpt>
      <trkpt lat="45.27849" lon="6.90312">
        <ele>1727.15</ele>
        <time>2016-10-05T10:02:38Z</time>
      </trkpt>
      <trkpt lat="45.2785" lon="6.90314">
        <ele>1726.18</ele>
        <time>2016-10-05T10:03:05Z</time>
      </trkpt>
      <trkpt lat="45.27846" lon="6.9031">
        <ele>1726.67</ele>
        <time>2016-10-05T10:03:22Z</time>
      </trkpt>
      <trkpt lat="45.27846" lon="6.90308">
        <ele>1726.67</ele>
        <time>2016-10-05T10:03:54Z</time>
      </trkpt>
      <trkpt lat="45.27844" lon="6.9031">
        <ele>1728.11</ele>
        <time>2016-10-05T10:03:59Z</time>
      </trkpt>
      <trkpt lat="45.27846" lon="6.90313">
        <ele>1726.67</ele>
        <time>2016-10-05T10:04:11Z</time>
      </trkpt>
      <trkpt lat="45.27846" lon="6.90312">
        <ele>1725.7</ele>
        <time>2016-10-05T10:04:13Z</time>
      </trkpt>
      <trkpt lat="45.27847" lon="6.90312">
        <ele>1726.18</ele>
        <time>2016-10-05T10:04:28Z</time>
      </trkpt>
      <trkpt lat="45.27848" lon="6.90308">
        <ele>1726.18</ele>
        <time>2016-10-05T10:04:48Z</time>
      </trkpt>
      <trkpt lat="45.27848" lon="6.90309">
        <ele>1725.22</ele>
        <time>2016-10-05T10:05:00Z</time>
      </trkpt>
      <trkpt lat="45.27848" lon="6.90305">
        <ele>1725.7</ele>
        <time>2016-10-05T10:05:11Z</time>
      </trkpt>
      <trkpt lat="45.27848" lon="6.90306">
        <ele>1725.7</ele>
        <time>2016-10-05T10:05:35Z</time>
      </trkpt>
      <trkpt lat="45.27847" lon="6.90307">
        <ele>1726.18</ele>
        <time>2016-10-05T10:05:53Z</time>
      </trkpt>
      <trkpt lat="45.27845" lon="6.90302">
        <ele>1725.7</ele>
        <time>2016-10-05T10:06:18Z</time>
      </trkpt>
      <trkpt lat="45.27846" lon="6.90306">
        <ele>1724.74</ele>
        <time>2016-10-05T10:06:40Z</time>
      </trkpt>
      <trkpt lat="45.27848" lon="6.90309">
        <ele>1727.15</ele>
        <time>2016-10-05T10:06:56Z</time>
      </trkpt>
      <trkpt lat="45.27847" lon="6.90308">
        <ele>1725.22</ele>
        <time>2016-10-05T10:07:14Z</time>
      </trkpt>
      <trkpt lat="45.27847" lon="6.90307">
        <ele>1729.55</ele>
        <time>2016-10-05T10:07:18Z</time>
      </trkpt>
      <trkpt lat="45.27847" lon="6.90307">
        <ele>1722.34</ele>
        <time>2016-10-05T10:07:19Z</time>
      </trkpt>
      <trkpt lat="45.27847" lon="6.90307">
        <ele>1722.34</ele>
        <time>2016-10-05T10:07:20Z</time>
      </trkpt>
      <trkpt lat="45.27847" lon="6.90306">
        <ele>1728.59</ele>
        <time>2016-10-05T10:07:21Z</time>
      </trkpt>
      <trkpt lat="45.27847" lon="6.90306">
        <ele>1726.67</ele>
        <time>2016-10-05T10:07:22Z</time>
      </trkpt>
      <trkpt lat="45.27847" lon="6.90306">
        <ele>1728.59</ele>
        <time>2016-10-05T10:07:23Z</time>
      </trkpt>
      <trkpt lat="45.27847" lon="6.90304">
        <ele>1727.15</ele>
        <time>2016-10-05T10:07:31Z</time>
      </trkpt>
      <trkpt lat="45.27846" lon="6.90304">
        <ele>1726.18</ele>
        <time>2016-10-05T10:07:53Z</time>
      </trkpt>
      <trkpt lat="45.27848" lon="6.90309">
        <ele>1728.11</ele>
        <time>2016-10-05T10:08:16Z</time>
      </trkpt>
      <trkpt lat="45.27848" lon="6.90311">
        <ele>1728.11</ele>
        <time>2016-10-05T10:08:23Z</time>
      </trkpt>
      <trkpt lat="45.27847" lon="6.90311">
        <ele>1727.15</ele>
        <time>2016-10-05T10:08:25Z</time>
      </trkpt>
      <trkpt lat="45.27845" lon="6.90309">
        <ele>1728.11</ele>
        <time>2016-10-05T10:08:43Z</time>
      </trkpt>
      <trkpt lat="45.27843" lon="6.90312">
        <ele>1727.63</ele>
        <time>2016-10-05T10:08:58Z</time>
      </trkpt>
      <trkpt lat="45.27843" lon="6.90309">
        <ele>1727.63</ele>
        <time>2016-10-05T10:09:19Z</time>
      </trkpt>
      <trkpt lat="45.27844" lon="6.90311">
        <ele>1727.15</ele>
        <time>2016-10-05T10:09:25Z</time>
      </trkpt>
      <trkpt lat="45.27845" lon="6.90309">
        <ele>1730.51</ele>
        <time>2016-10-05T10:09:42Z</time>
      </trkpt>
      <trkpt lat="45.27844" lon="6.90309">
        <ele>1724.26</ele>
        <time>2016-10-05T10:09:45Z</time>
      </trkpt>
      <trkpt lat="45.27844" lon="6.90309">
        <ele>1728.59</ele>
        <time>2016-10-05T10:09:46Z</time>
      </trkpt>
      <trkpt lat="45.27844" lon="6.90309">
        <ele>1721.86</ele>
        <time>2016-10-05T10:09:47Z</time>
      </trkpt>
      <trkpt lat="45.27844" lon="6.90309">
        <ele>1730.99</ele>
        <time>2016-10-05T10:09:48Z</time>
      </trkpt>
      <trkpt lat="45.27844" lon="6.90309">
        <ele>1727.63</ele>
        <time>2016-10-05T10:09:49Z</time>
      </trkpt>
      <trkpt lat="45.27844" lon="6.90309">
        <ele>1730.99</ele>
        <time>2016-10-05T10:09:51Z</time>
      </trkpt>
      <trkpt lat="45.27844" lon="6.9031">
        <ele>1727.63</ele>
        <time>2016-10-05T10:09:54Z</time>
      </trkpt>
      <trkpt lat="45.27844" lon="6.9031">
        <ele>1724.26</ele>
        <time>2016-10-05T10:09:57Z</time>
      </trkpt>
      <trkpt lat="45.27844" lon="6.9031">
        <ele>1728.59</ele>
        <time>2016-10-05T10:09:58Z</time>
      </trkpt>
      <trkpt lat="45.27845" lon="6.90309">
        <ele>1727.63</ele>
        <time>2016-10-05T10:10:15Z</time>
      </trkpt>
      <trkpt lat="45.27845" lon="6.90308">
        <ele>1727.63</ele>
        <time>2016-10-05T10:10:32Z</time>
      </trkpt>
      <trkpt lat="45.27843" lon="6.90307">
        <ele>1727.63</ele>
        <time>2016-10-05T10:10:52Z</time>
      </trkpt>
      <trkpt lat="45.27843" lon="6.90313">
        <ele>1727.15</ele>
        <time>2016-10-05T10:11:18Z</time>
      </trkpt>
      <trkpt lat="45.27844" lon="6.90312">
        <ele>1728.11</ele>
        <time>2016-10-05T10:11:43Z</time>
      </trkpt>
      <trkpt lat="45.27848" lon="6.90317">
        <ele>1727.15</ele>
        <time>2016-10-05T10:12:02Z</time>
      </trkpt>
      <trkpt lat="45.27843" lon="6.9031">
        <ele>1726.67</ele>
        <time>2016-10-05T10:12:26Z</time>
      </trkpt>
      <trkpt lat="45.27847" lon="6.90311">
        <ele>1726.18</ele>
        <time>2016-10-05T10:12:50Z</time>
      </trkpt>
      <trkpt lat="45.27844" lon="6.9031">
        <ele>1726.67</ele>
        <time>2016-10-05T10:13:10Z</time>
      </trkpt>
      <trkpt lat="45.27842" lon="6.90309">
        <ele>1726.67</ele>
        <time>2016-10-05T10:13:38Z</time>
      </trkpt>
      <trkpt lat="45.27846" lon="6.90311">
        <ele>1726.67</ele>
        <time>2016-10-05T10:14:05Z</time>
      </trkpt>
      <trkpt lat="45.27848" lon="6.90317">
        <ele>1727.15</ele>
        <time>2016-10-05T10:14:33Z</time>
      </trkpt>
      <trkpt lat="45.27844" lon="6.90309">
        <ele>1727.15</ele>
        <time>2016-10-05T10:15:05Z</time>
      </trkpt>
      <trkpt lat="45.27846" lon="6.90307">
        <ele>1727.63</ele>
        <time>2016-10-05T10:15:30Z</time>
      </trkpt>
      <trkpt lat="45.2784" lon="6.90309">
        <ele>1728.11</ele>
        <time>2016-10-05T10:16:00Z</time>
      </trkpt>
      <trkpt lat="45.27844" lon="6.90311">
        <ele>1727.63</ele>
        <time>2016-10-05T10:16:30Z</time>
      </trkpt>
      <trkpt lat="45.27846" lon="6.90304">
        <ele>1726.67</ele>
        <time>2016-10-05T10:17:02Z</time>
      </trkpt>
      <trkpt lat="45.27846" lon="6.90312">
        <ele>1727.15</ele>
        <time>2016-10-05T10:17:24Z</time>
      </trkpt>
      <trkpt lat="45.27846" lon="6.90315">
        <ele>1727.15</ele>
        <time>2016-10-05T10:18:04Z</time>
      </trkpt>
      <trkpt lat="45.27845" lon="6.9031">
        <ele>1727.15</ele>
        <time>2016-10-05T10:18:30Z</time>
      </trkpt>
      <trkpt lat="45.2785" lon="6.90311">
        <ele>1727.63</ele>
        <time>2016-10-05T10:19:03Z</time>
      </trkpt>
      <trkpt lat="45.27845" lon="6.90309">
        <ele>1727.63</ele>
        <time>2016-10-05T10:19:36Z</time>
      </trkpt>
      <trkpt lat="45.27846" lon="6.90316">
        <ele>1727.15</ele>
        <time>2016-10-05T10:20:06Z</time>
      </trkpt>
      <trkpt lat="45.27845" lon="6.9031">
        <ele>1727.15</ele>
        <time>2016-10-05T10:20:35Z</time>
      </trkpt>
      <trkpt lat="45.27845" lon="6.90319">
        <ele>1727.15</ele>
        <time>2016-10-05T10:21:05Z</time>
      </trkpt>
      <trkpt lat="45.27842" lon="6.90317">
        <ele>1726.18</ele>
        <time>2016-10-05T10:21:43Z</time>
      </trkpt>
      <trkpt lat="45.27843" lon="6.90312">
        <ele>1726.67</ele>
        <time>2016-10-05T10:22:08Z</time>
      </trkpt>
      <trkpt lat="45.27841" lon="6.90311">
        <ele>1726.67</ele>
        <time>2016-10-05T10:22:33Z</time>
      </trkpt>
      <trkpt lat="45.27845" lon="6.90317">
        <ele>1726.18</ele>
        <time>2016-10-05T10:23:14Z</time>
      </trkpt>
      <trkpt lat="45.27847" lon="6.90321">
        <ele>1726.18</ele>
        <time>2016-10-05T10:23:49Z</time>
      </trkpt>
      <trkpt lat="45.27849" lon="6.90322">
        <ele>1723.78</ele>
        <time>2016-10-05T10:24:00Z</time>
      </trkpt>
      <trkpt lat="45.27837" lon="6.9031">
        <ele>1726.18</ele>
        <time>2016-10-05T10:24:35Z</time>
      </trkpt>
      <trkpt lat="45.27835" lon="6.90312">
        <ele>1726.67</ele>
        <time>2016-10-05T10:24:49Z</time>
      </trkpt>
      <trkpt lat="45.27834" lon="6.90311">
        <ele>1727.15</ele>
        <time>2016-10-05T10:24:55Z</time>
      </trkpt>
      <trkpt lat="45.27832" lon="6.90311">
        <ele>1727.15</ele>
        <time>2016-10-05T10:24:56Z</time>
      </trkpt>
      <trkpt lat="45.27831" lon="6.9031">
        <ele>1727.15</ele>
        <time>2016-10-05T10:24:57Z</time>
      </trkpt>
      <trkpt lat="45.2783" lon="6.90309">
        <ele>1727.15</ele>
        <time>2016-10-05T10:24:58Z</time>
      </trkpt>
      <trkpt lat="45.27829" lon="6.90308">
        <ele>1727.15</ele>
        <time>2016-10-05T10:24:59Z</time>
      </trkpt>
      <trkpt lat="45.27828" lon="6.90307">
        <ele>1727.63</ele>
        <time>2016-10-05T10:25:00Z</time>
      </trkpt>
      <trkpt lat="45.27827" lon="6.90306">
        <ele>1727.63</ele>
        <time>2016-10-05T10:25:01Z</time>
      </trkpt>
      <trkpt lat="45.27826" lon="6.90305">
        <ele>1727.15</ele>
        <time>2016-10-05T10:25:02Z</time>
      </trkpt>
      <trkpt lat="45.27825" lon="6.90305">
        <ele>1727.63</ele>
        <time>2016-10-05T10:25:03Z</time>
      </trkpt>
      <trkpt lat="45.27812" lon="6.90295">
        <ele>1729.07</ele>
        <time>2016-10-05T10:25:14Z</time>
      </trkpt>
      <trkpt lat="45.2781" lon="6.90295">
        <ele>1729.07</ele>
        <time>2016-10-05T10:25:15Z</time>
      </trkpt>
      <trkpt lat="45.27801" lon="6.90288">
        <ele>1730.03</ele>
        <time>2016-10-05T10:25:23Z</time>
      </trkpt>
      <trkpt lat="45.27801" lon="6.90286">
        <ele>1730.03</ele>
        <time>2016-10-05T10:25:24Z</time>
      </trkpt>
      <trkpt lat="45.278" lon="6.90285">
        <ele>1730.03</ele>
        <time>2016-10-05T10:25:25Z</time>
      </trkpt>
      <trkpt lat="45.27794" lon="6.90268">
        <ele>1732.43</ele>
        <time>2016-10-05T10:25:38Z</time>
      </trkpt>
      <trkpt lat="45.27794" lon="6.90266">
        <ele>1731.95</ele>
        <time>2016-10-05T10:25:39Z</time>
      </trkpt>
      <trkpt lat="45.27794" lon="6.90263">
        <ele>1732.43</ele>
        <time>2016-10-05T10:25:41Z</time>
      </trkpt>
      <trkpt lat="45.27794" lon="6.90262">
        <ele>1731.95</ele>
        <time>2016-10-05T10:25:42Z</time>
      </trkpt>
      <trkpt lat="45.27794" lon="6.9026">
        <ele>1732.91</ele>
        <time>2016-10-05T10:25:43Z</time>
      </trkpt>
      <trkpt lat="45.27795" lon="6.90259">
        <ele>1732.91</ele>
        <time>2016-10-05T10:25:44Z</time>
      </trkpt>
      <trkpt lat="45.27795" lon="6.90256">
        <ele>1732.91</ele>
        <time>2016-10-05T10:25:45Z</time>
      </trkpt>
      <trkpt lat="45.27795" lon="6.90254">
        <ele>1732.91</ele>
        <time>2016-10-05T10:25:46Z</time>
      </trkpt>
      <trkpt lat="45.27795" lon="6.90252">
        <ele>1733.88</ele>
        <time>2016-10-05T10:25:47Z</time>
      </trkpt>
      <trkpt lat="45.27796" lon="6.90251">
        <ele>1733.39</ele>
        <time>2016-10-05T10:25:48Z</time>
      </trkpt>
      <trkpt lat="45.27796" lon="6.90249">
        <ele>1733.39</ele>
        <time>2016-10-05T10:25:49Z</time>
      </trkpt>
      <trkpt lat="45.27795" lon="6.90247">
        <ele>1733.39</ele>
        <time>2016-10-05T10:25:50Z</time>
      </trkpt>
      <trkpt lat="45.27795" lon="6.90245">
        <ele>1733.88</ele>
        <time>2016-10-05T10:25:51Z</time>
      </trkpt>
      <trkpt lat="45.27795" lon="6.90244">
        <ele>1733.88</ele>
        <time>2016-10-05T10:25:52Z</time>
      </trkpt>
      <trkpt lat="45.27794" lon="6.90242">
        <ele>1733.88</ele>
        <time>2016-10-05T10:25:53Z</time>
      </trkpt>
      <trkpt lat="45.27787" lon="6.90207">
        <ele>1735.8</ele>
        <time>2016-10-05T10:26:10Z</time>
      </trkpt>
      <trkpt lat="45.27779" lon="6.90194">
        <ele>1736.76</ele>
        <time>2016-10-05T10:26:15Z</time>
      </trkpt>
      <trkpt lat="45.27777" lon="6.90191">
        <ele>1737.24</ele>
        <time>2016-10-05T10:26:16Z</time>
      </trkpt>
      <trkpt lat="45.27776" lon="6.9019">
        <ele>1737.24</ele>
        <time>2016-10-05T10:26:17Z</time>
      </trkpt>
      <trkpt lat="45.27775" lon="6.90188">
        <ele>1737.24</ele>
        <time>2016-10-05T10:26:18Z</time>
      </trkpt>
      <trkpt lat="45.27775" lon="6.90186">
        <ele>1737.72</ele>
        <time>2016-10-05T10:26:19Z</time>
      </trkpt>
      <trkpt lat="45.27762" lon="6.90149">
        <ele>1739.64</ele>
        <time>2016-10-05T10:26:37Z</time>
      </trkpt>
      <trkpt lat="45.27762" lon="6.90117">
        <ele>1743.01</ele>
        <time>2016-10-05T10:26:52Z</time>
      </trkpt>
      <trkpt lat="45.27761" lon="6.90113">
        <ele>1743.01</ele>
        <time>2016-10-05T10:26:54Z</time>
      </trkpt>
      <trkpt lat="45.27762" lon="6.90111">
        <ele>1742.53</ele>
        <time>2016-10-05T10:26:55Z</time>
      </trkpt>
      <trkpt lat="45.27762" lon="6.9011">
        <ele>1742.53</ele>
        <time>2016-10-05T10:26:56Z</time>
      </trkpt>
      <trkpt lat="45.27761" lon="6.90108">
        <ele>1742.53</ele>
        <time>2016-10-05T10:26:57Z</time>
      </trkpt>
      <trkpt lat="45.27761" lon="6.90106">
        <ele>1743.01</ele>
        <time>2016-10-05T10:26:58Z</time>
      </trkpt>
      <trkpt lat="45.2776" lon="6.90104">
        <ele>1743.01</ele>
        <time>2016-10-05T10:26:59Z</time>
      </trkpt>
      <trkpt lat="45.2776" lon="6.90102">
        <ele>1743.97</ele>
        <time>2016-10-05T10:27:00Z</time>
      </trkpt>
      <trkpt lat="45.27741" lon="6.90074">
        <ele>1745.89</ele>
        <time>2016-10-05T10:27:17Z</time>
      </trkpt>
      <trkpt lat="45.2771" lon="6.90048">
        <ele>1747.33</ele>
        <time>2016-10-05T10:27:38Z</time>
      </trkpt>
      <trkpt lat="45.27703" lon="6.90025">
        <ele>1749.74</ele>
        <time>2016-10-05T10:27:51Z</time>
      </trkpt>
      <trkpt lat="45.27696" lon="6.89988">
        <ele>1751.18</ele>
        <time>2016-10-05T10:28:09Z</time>
      </trkpt>
      <trkpt lat="45.27695" lon="6.89983">
        <ele>1751.66</ele>
        <time>2016-10-05T10:28:11Z</time>
      </trkpt>
      <trkpt lat="45.27695" lon="6.89981">
        <ele>1751.18</ele>
        <time>2016-10-05T10:28:12Z</time>
      </trkpt>
      <trkpt lat="45.2769" lon="6.89943">
        <ele>1754.54</ele>
        <time>2016-10-05T10:28:28Z</time>
      </trkpt>
      <trkpt lat="45.27676" lon="6.89903">
        <ele>1756.95</ele>
        <time>2016-10-05T10:28:48Z</time>
      </trkpt>
      <trkpt lat="45.2767" lon="6.89875">
        <ele>1758.87</ele>
        <time>2016-10-05T10:29:03Z</time>
      </trkpt>
      <trkpt lat="45.27663" lon="6.89849">
        <ele>1761.27</ele>
        <time>2016-10-05T10:29:18Z</time>
      </trkpt>
      <trkpt lat="45.27658" lon="6.89838">
        <ele>1761.75</ele>
        <time>2016-10-05T10:29:24Z</time>
      </trkpt>
      <trkpt lat="45.27658" lon="6.89837">
        <ele>1761.75</ele>
        <time>2016-10-05T10:29:25Z</time>
      </trkpt>
      <trkpt lat="45.27657" lon="6.89835">
        <ele>1762.23</ele>
        <time>2016-10-05T10:29:26Z</time>
      </trkpt>
      <trkpt lat="45.27657" lon="6.89833">
        <ele>1762.23</ele>
        <time>2016-10-05T10:29:27Z</time>
      </trkpt>
      <trkpt lat="45.27657" lon="6.89831">
        <ele>1762.23</ele>
        <time>2016-10-05T10:29:28Z</time>
      </trkpt>
      <trkpt lat="45.27656" lon="6.8983">
        <ele>1762.23</ele>
        <time>2016-10-05T10:29:29Z</time>
      </trkpt>
      <trkpt lat="45.27655" lon="6.89829">
        <ele>1762.71</ele>
        <time>2016-10-05T10:29:30Z</time>
      </trkpt>
      <trkpt lat="45.27654" lon="6.89827">
        <ele>1762.71</ele>
        <time>2016-10-05T10:29:31Z</time>
      </trkpt>
      <trkpt lat="45.27653" lon="6.89826">
        <ele>1762.71</ele>
        <time>2016-10-05T10:29:32Z</time>
      </trkpt>
      <trkpt lat="45.27652" lon="6.89824">
        <ele>1763.2</ele>
        <time>2016-10-05T10:29:33Z</time>
      </trkpt>
      <trkpt lat="45.27651" lon="6.89822">
        <ele>1762.71</ele>
        <time>2016-10-05T10:29:34Z</time>
      </trkpt>
      <trkpt lat="45.2765" lon="6.8982">
        <ele>1762.71</ele>
        <time>2016-10-05T10:29:35Z</time>
      </trkpt>
      <trkpt lat="45.27648" lon="6.89818">
        <ele>1763.2</ele>
        <time>2016-10-05T10:29:36Z</time>
      </trkpt>
      <trkpt lat="45.27646" lon="6.89816">
        <ele>1763.2</ele>
        <time>2016-10-05T10:29:37Z</time>
      </trkpt>
      <trkpt lat="45.27645" lon="6.89814">
        <ele>1763.2</ele>
        <time>2016-10-05T10:29:38Z</time>
      </trkpt>
      <trkpt lat="45.27644" lon="6.89811">
        <ele>1763.2</ele>
        <time>2016-10-05T10:29:39Z</time>
      </trkpt>
      <trkpt lat="45.27644" lon="6.89809">
        <ele>1763.2</ele>
        <time>2016-10-05T10:29:40Z</time>
      </trkpt>
      <trkpt lat="45.27643" lon="6.89807">
        <ele>1763.2</ele>
        <time>2016-10-05T10:29:41Z</time>
      </trkpt>
      <trkpt lat="45.27643" lon="6.89805">
        <ele>1763.68</ele>
        <time>2016-10-05T10:29:42Z</time>
      </trkpt>
      <trkpt lat="45.27636" lon="6.89778">
        <ele>1766.08</ele>
        <time>2016-10-05T10:29:55Z</time>
      </trkpt>
      <trkpt lat="45.27616" lon="6.89758">
        <ele>1767.52</ele>
        <time>2016-10-05T10:30:09Z</time>
      </trkpt>
      <trkpt lat="45.27597" lon="6.8978">
        <ele>1768.96</ele>
        <time>2016-10-05T10:30:22Z</time>
      </trkpt>
      <trkpt lat="45.27608" lon="6.89825">
        <ele>1770.41</ele>
        <time>2016-10-05T10:30:38Z</time>
      </trkpt>
      <trkpt lat="45.27612" lon="6.8986">
        <ele>1771.85</ele>
        <time>2016-10-05T10:30:53Z</time>
      </trkpt>
      <trkpt lat="45.27612" lon="6.89891">
        <ele>1774.73</ele>
        <time>2016-10-05T10:31:07Z</time>
      </trkpt>
      <trkpt lat="45.27611" lon="6.89894">
        <ele>1774.73</ele>
        <time>2016-10-05T10:31:08Z</time>
      </trkpt>
      <trkpt lat="45.27611" lon="6.89896">
        <ele>1774.73</ele>
        <time>2016-10-05T10:31:09Z</time>
      </trkpt>
      <trkpt lat="45.27611" lon="6.89898">
        <ele>1774.73</ele>
        <time>2016-10-05T10:31:10Z</time>
      </trkpt>
      <trkpt lat="45.2761" lon="6.89901">
        <ele>1775.21</ele>
        <time>2016-10-05T10:31:11Z</time>
      </trkpt>
      <trkpt lat="45.27609" lon="6.89903">
        <ele>1775.69</ele>
        <time>2016-10-05T10:31:12Z</time>
      </trkpt>
      <trkpt lat="45.27609" lon="6.89905">
        <ele>1775.69</ele>
        <time>2016-10-05T10:31:13Z</time>
      </trkpt>
      <trkpt lat="45.27611" lon="6.89946">
        <ele>1778.1</ele>
        <time>2016-10-05T10:31:30Z</time>
      </trkpt>
      <trkpt lat="45.2761" lon="6.89979">
        <ele>1780.02</ele>
        <time>2016-10-05T10:31:46Z</time>
      </trkpt>
      <trkpt lat="45.27596" lon="6.90009">
        <ele>1782.42</ele>
        <time>2016-10-05T10:32:04Z</time>
      </trkpt>
      <trkpt lat="45.27587" lon="6.9004">
        <ele>1784.82</ele>
        <time>2016-10-05T10:32:20Z</time>
      </trkpt>
      <trkpt lat="45.2759" lon="6.90078">
        <ele>1787.23</ele>
        <time>2016-10-05T10:32:36Z</time>
      </trkpt>
      <trkpt lat="45.27595" lon="6.90118">
        <ele>1788.67</ele>
        <time>2016-10-05T10:32:53Z</time>
      </trkpt>
      <trkpt lat="45.27595" lon="6.90154">
        <ele>1792.03</ele>
        <time>2016-10-05T10:33:10Z</time>
      </trkpt>
      <trkpt lat="45.2759" lon="6.90189">
        <ele>1793.96</ele>
        <time>2016-10-05T10:33:26Z</time>
      </trkpt>
      <trkpt lat="45.27588" lon="6.90213">
        <ele>1795.4</ele>
        <time>2016-10-05T10:33:37Z</time>
      </trkpt>
      <trkpt lat="45.27589" lon="6.90226">
        <ele>1796.84</ele>
        <time>2016-10-05T10:33:43Z</time>
      </trkpt>
      <trkpt lat="45.27593" lon="6.9024">
        <ele>1796.84</ele>
        <time>2016-10-05T10:33:50Z</time>
      </trkpt>
      <trkpt lat="45.27593" lon="6.90242">
        <ele>1796.84</ele>
        <time>2016-10-05T10:33:51Z</time>
      </trkpt>
      <trkpt lat="45.27593" lon="6.90244">
        <ele>1797.8</ele>
        <time>2016-10-05T10:33:52Z</time>
      </trkpt>
      <trkpt lat="45.27601" lon="6.90274">
        <ele>1799.24</ele>
        <time>2016-10-05T10:34:06Z</time>
      </trkpt>
      <trkpt lat="45.27605" lon="6.90309">
        <ele>1802.13</ele>
        <time>2016-10-05T10:34:24Z</time>
      </trkpt>
      <trkpt lat="45.27603" lon="6.9034">
        <ele>1804.53</ele>
        <time>2016-10-05T10:34:41Z</time>
      </trkpt>
      <trkpt lat="45.27604" lon="6.90376">
        <ele>1806.45</ele>
        <time>2016-10-05T10:34:56Z</time>
      </trkpt>
      <trkpt lat="45.2761" lon="6.90413">
        <ele>1808.86</ele>
        <time>2016-10-05T10:35:13Z</time>
      </trkpt>
      <trkpt lat="45.27614" lon="6.90438">
        <ele>1810.3</ele>
        <time>2016-10-05T10:35:25Z</time>
      </trkpt>
      <trkpt lat="45.27614" lon="6.90441">
        <ele>1810.78</ele>
        <time>2016-10-05T10:35:26Z</time>
      </trkpt>
      <trkpt lat="45.27614" lon="6.90443">
        <ele>1810.78</ele>
        <time>2016-10-05T10:35:27Z</time>
      </trkpt>
      <trkpt lat="45.27616" lon="6.90453">
        <ele>1811.26</ele>
        <time>2016-10-05T10:35:32Z</time>
      </trkpt>
      <trkpt lat="45.27616" lon="6.90454">
        <ele>1811.74</ele>
        <time>2016-10-05T10:35:33Z</time>
      </trkpt>
      <trkpt lat="45.27616" lon="6.90456">
        <ele>1811.74</ele>
        <time>2016-10-05T10:35:34Z</time>
      </trkpt>
      <trkpt lat="45.27616" lon="6.90458">
        <ele>1811.74</ele>
        <time>2016-10-05T10:35:35Z</time>
      </trkpt>
      <trkpt lat="45.27617" lon="6.90461">
        <ele>1811.74</ele>
        <time>2016-10-05T10:35:36Z</time>
      </trkpt>
      <trkpt lat="45.27618" lon="6.90463">
        <ele>1812.22</ele>
        <time>2016-10-05T10:35:37Z</time>
      </trkpt>
      <trkpt lat="45.27618" lon="6.90465">
        <ele>1812.22</ele>
        <time>2016-10-05T10:35:38Z</time>
      </trkpt>
      <trkpt lat="45.27618" lon="6.90468">
        <ele>1812.22</ele>
        <time>2016-10-05T10:35:39Z</time>
      </trkpt>
      <trkpt lat="45.27618" lon="6.9047">
        <ele>1812.22</ele>
        <time>2016-10-05T10:35:40Z</time>
      </trkpt>
      <trkpt lat="45.27622" lon="6.90503">
        <ele>1815.11</ele>
        <time>2016-10-05T10:35:55Z</time>
      </trkpt>
      <trkpt lat="45.2763" lon="6.90534">
        <ele>1816.55</ele>
        <time>2016-10-05T10:36:11Z</time>
      </trkpt>
      <trkpt lat="45.27631" lon="6.90539">
        <ele>1817.03</ele>
        <time>2016-10-05T10:36:14Z</time>
      </trkpt>
      <trkpt lat="45.27632" lon="6.90541">
        <ele>1817.03</ele>
        <time>2016-10-05T10:36:15Z</time>
      </trkpt>
      <trkpt lat="45.27632" lon="6.90542">
        <ele>1817.51</ele>
        <time>2016-10-05T10:36:16Z</time>
      </trkpt>
      <trkpt lat="45.27633" lon="6.90544">
        <ele>1817.51</ele>
        <time>2016-10-05T10:36:17Z</time>
      </trkpt>
      <trkpt lat="45.27634" lon="6.90546">
        <ele>1817.51</ele>
        <time>2016-10-05T10:36:18Z</time>
      </trkpt>
      <trkpt lat="45.27642" lon="6.90577">
        <ele>1819.43</ele>
        <time>2016-10-05T10:36:33Z</time>
      </trkpt>
      <trkpt lat="45.27655" lon="6.90607">
        <ele>1822.32</ele>
        <time>2016-10-05T10:36:50Z</time>
      </trkpt>
      <trkpt lat="45.27667" lon="6.90644">
        <ele>1824.72</ele>
        <time>2016-10-05T10:37:11Z</time>
      </trkpt>
      <trkpt lat="45.27672" lon="6.90669">
        <ele>1827.12</ele>
        <time>2016-10-05T10:37:25Z</time>
      </trkpt>
      <trkpt lat="45.27672" lon="6.90671">
        <ele>1827.12</ele>
        <time>2016-10-05T10:37:26Z</time>
      </trkpt>
      <trkpt lat="45.27672" lon="6.90673">
        <ele>1827.12</ele>
        <time>2016-10-05T10:37:27Z</time>
      </trkpt>
      <trkpt lat="45.27665" lon="6.90687">
        <ele>1828.56</ele>
        <time>2016-10-05T10:37:37Z</time>
      </trkpt>
      <trkpt lat="45.27644" lon="6.90701">
        <ele>1830.97</ele>
        <time>2016-10-05T10:37:53Z</time>
      </trkpt>
      <trkpt lat="45.27617" lon="6.9072">
        <ele>1833.85</ele>
        <time>2016-10-05T10:38:14Z</time>
      </trkpt>
      <trkpt lat="45.2761" lon="6.90745">
        <ele>1834.81</ele>
        <time>2016-10-05T10:38:28Z</time>
      </trkpt>
      <trkpt lat="45.27604" lon="6.90772">
        <ele>1837.7</ele>
        <time>2016-10-05T10:38:41Z</time>
      </trkpt>
      <trkpt lat="45.27605" lon="6.90775">
        <ele>1837.7</ele>
        <time>2016-10-05T10:38:42Z</time>
      </trkpt>
      <trkpt lat="45.27606" lon="6.90788">
        <ele>1837.7</ele>
        <time>2016-10-05T10:38:48Z</time>
      </trkpt>
      <trkpt lat="45.2762" lon="6.90821">
        <ele>1840.1</ele>
        <time>2016-10-05T10:39:03Z</time>
      </trkpt>
      <trkpt lat="45.2762" lon="6.90823">
        <ele>1840.1</ele>
        <time>2016-10-05T10:39:04Z</time>
      </trkpt>
      <trkpt lat="45.27621" lon="6.90825">
        <ele>1840.58</ele>
        <time>2016-10-05T10:39:05Z</time>
      </trkpt>
      <trkpt lat="45.27622" lon="6.90827">
        <ele>1841.06</ele>
        <time>2016-10-05T10:39:06Z</time>
      </trkpt>
      <trkpt lat="45.27623" lon="6.90829">
        <ele>1841.06</ele>
        <time>2016-10-05T10:39:07Z</time>
      </trkpt>
      <trkpt lat="45.27624" lon="6.90831">
        <ele>1841.06</ele>
        <time>2016-10-05T10:39:08Z</time>
      </trkpt>
      <trkpt lat="45.27625" lon="6.90833">
        <ele>1842.02</ele>
        <time>2016-10-05T10:39:09Z</time>
      </trkpt>
      <trkpt lat="45.27632" lon="6.90849">
        <ele>1842.5</ele>
        <time>2016-10-05T10:39:19Z</time>
      </trkpt>
      <trkpt lat="45.27633" lon="6.90851">
        <ele>1842.98</ele>
        <time>2016-10-05T10:39:20Z</time>
      </trkpt>
      <trkpt lat="45.27645" lon="6.90872">
        <ele>1845.39</ele>
        <time>2016-10-05T10:39:33Z</time>
      </trkpt>
      <trkpt lat="45.27646" lon="6.90873">
        <ele>1844.43</ele>
        <time>2016-10-05T10:39:34Z</time>
      </trkpt>
      <trkpt lat="45.27652" lon="6.90899">
        <ele>1846.83</ele>
        <time>2016-10-05T10:39:50Z</time>
      </trkpt>
      <trkpt lat="45.27652" lon="6.90904">
        <ele>1847.79</ele>
        <time>2016-10-05T10:39:53Z</time>
      </trkpt>
      <trkpt lat="45.27652" lon="6.90906">
        <ele>1847.31</ele>
        <time>2016-10-05T10:39:54Z</time>
      </trkpt>
      <trkpt lat="45.27652" lon="6.90908">
        <ele>1847.31</ele>
        <time>2016-10-05T10:39:55Z</time>
      </trkpt>
      <trkpt lat="45.27652" lon="6.90909">
        <ele>1848.27</ele>
        <time>2016-10-05T10:39:56Z</time>
      </trkpt>
      <trkpt lat="45.27652" lon="6.90911">
        <ele>1847.79</ele>
        <time>2016-10-05T10:39:57Z</time>
      </trkpt>
      <trkpt lat="45.27652" lon="6.90913">
        <ele>1847.79</ele>
        <time>2016-10-05T10:39:58Z</time>
      </trkpt>
      <trkpt lat="45.27652" lon="6.90915">
        <ele>1848.75</ele>
        <time>2016-10-05T10:39:59Z</time>
      </trkpt>
      <trkpt lat="45.27651" lon="6.90916">
        <ele>1848.75</ele>
        <time>2016-10-05T10:40:00Z</time>
      </trkpt>
      <trkpt lat="45.27651" lon="6.90918">
        <ele>1849.71</ele>
        <time>2016-10-05T10:40:01Z</time>
      </trkpt>
      <trkpt lat="45.27645" lon="6.90949">
        <ele>1850.19</ele>
        <time>2016-10-05T10:40:19Z</time>
      </trkpt>
      <trkpt lat="45.27644" lon="6.90953">
        <ele>1850.68</ele>
        <time>2016-10-05T10:40:21Z</time>
      </trkpt>
      <trkpt lat="45.27642" lon="6.90955">
        <ele>1850.68</ele>
        <time>2016-10-05T10:40:22Z</time>
      </trkpt>
      <trkpt lat="45.27642" lon="6.90984">
        <ele>1853.08</ele>
        <time>2016-10-05T10:40:38Z</time>
      </trkpt>
      <trkpt lat="45.2766" lon="6.91015">
        <ele>1854.52</ele>
        <time>2016-10-05T10:40:54Z</time>
      </trkpt>
      <trkpt lat="45.27672" lon="6.91038">
        <ele>1857.89</ele>
        <time>2016-10-05T10:41:08Z</time>
      </trkpt>
      <trkpt lat="45.27689" lon="6.91064">
        <ele>1859.33</ele>
        <time>2016-10-05T10:41:25Z</time>
      </trkpt>
      <trkpt lat="45.27702" lon="6.91095">
        <ele>1862.21</ele>
        <time>2016-10-05T10:41:42Z</time>
      </trkpt>
      <trkpt lat="45.27704" lon="6.91122">
        <ele>1863.17</ele>
        <time>2016-10-05T10:41:56Z</time>
      </trkpt>
      <trkpt lat="45.27704" lon="6.91124">
        <ele>1863.65</ele>
        <time>2016-10-05T10:41:57Z</time>
      </trkpt>
      <trkpt lat="45.27703" lon="6.91125">
        <ele>1863.65</ele>
        <time>2016-10-05T10:41:58Z</time>
      </trkpt>
      <trkpt lat="45.27703" lon="6.91128">
        <ele>1863.65</ele>
        <time>2016-10-05T10:41:59Z</time>
      </trkpt>
      <trkpt lat="45.27703" lon="6.91134">
        <ele>1864.13</ele>
        <time>2016-10-05T10:42:02Z</time>
      </trkpt>
      <trkpt lat="45.27703" lon="6.91136">
        <ele>1864.61</ele>
        <time>2016-10-05T10:42:03Z</time>
      </trkpt>
      <trkpt lat="45.27703" lon="6.91138">
        <ele>1864.61</ele>
        <time>2016-10-05T10:42:04Z</time>
      </trkpt>
      <trkpt lat="45.277" lon="6.9117">
        <ele>1867.02</ele>
        <time>2016-10-05T10:42:20Z</time>
      </trkpt>
      <trkpt lat="45.27697" lon="6.91199">
        <ele>1869.9</ele>
        <time>2016-10-05T10:42:36Z</time>
      </trkpt>
      <trkpt lat="45.27696" lon="6.91201">
        <ele>1868.94</ele>
        <time>2016-10-05T10:42:37Z</time>
      </trkpt>
      <trkpt lat="45.27686" lon="6.91231">
        <ele>1871.34</ele>
        <time>2016-10-05T10:42:52Z</time>
      </trkpt>
      <trkpt lat="45.27685" lon="6.91237">
        <ele>1871.34</ele>
        <time>2016-10-05T10:42:55Z</time>
      </trkpt>
      <trkpt lat="45.27682" lon="6.91258">
        <ele>1872.79</ele>
        <time>2016-10-05T10:43:06Z</time>
      </trkpt>
      <trkpt lat="45.27677" lon="6.91284">
        <ele>1874.71</ele>
        <time>2016-10-05T10:43:20Z</time>
      </trkpt>
      <trkpt lat="45.2768" lon="6.91282">
        <ele>1878.07</ele>
        <time>2016-10-05T10:43:31Z</time>
      </trkpt>
      <trkpt lat="45.2768" lon="6.9128">
        <ele>1877.59</ele>
        <time>2016-10-05T10:43:32Z</time>
      </trkpt>
      <trkpt lat="45.27678" lon="6.91271">
        <ele>1877.59</ele>
        <time>2016-10-05T10:43:38Z</time>
      </trkpt>
      <trkpt lat="45.27679" lon="6.91242">
        <ele>1879.51</ele>
        <time>2016-10-05T10:43:54Z</time>
      </trkpt>
      <trkpt lat="45.27683" lon="6.91231">
        <ele>1880.48</ele>
        <time>2016-10-05T10:44:00Z</time>
      </trkpt>
      <trkpt lat="45.27684" lon="6.9123">
        <ele>1880.96</ele>
        <time>2016-10-05T10:44:01Z</time>
      </trkpt>
      <trkpt lat="45.27685" lon="6.91216">
        <ele>1881.44</ele>
        <time>2016-10-05T10:44:08Z</time>
      </trkpt>
      <trkpt lat="45.27687" lon="6.91187">
        <ele>1882.88</ele>
        <time>2016-10-05T10:44:23Z</time>
      </trkpt>
      <trkpt lat="45.27686" lon="6.91175">
        <ele>1882.88</ele>
        <time>2016-10-05T10:44:29Z</time>
      </trkpt>
      <trkpt lat="45.27686" lon="6.91174">
        <ele>1883.36</ele>
        <time>2016-10-05T10:44:30Z</time>
      </trkpt>
      <trkpt lat="45.27679" lon="6.91162">
        <ele>1884.32</ele>
        <time>2016-10-05T10:44:37Z</time>
      </trkpt>
      <trkpt lat="45.27679" lon="6.91161">
        <ele>1883.84</ele>
        <time>2016-10-05T10:44:38Z</time>
      </trkpt>
      <trkpt lat="45.27678" lon="6.91159">
        <ele>1884.32</ele>
        <time>2016-10-05T10:44:39Z</time>
      </trkpt>
      <trkpt lat="45.27675" lon="6.91146">
        <ele>1886.24</ele>
        <time>2016-10-05T10:44:47Z</time>
      </trkpt>
      <trkpt lat="45.27675" lon="6.91145">
        <ele>1885.76</ele>
        <time>2016-10-05T10:44:48Z</time>
      </trkpt>
      <trkpt lat="45.27674" lon="6.91143">
        <ele>1885.76</ele>
        <time>2016-10-05T10:44:49Z</time>
      </trkpt>
      <trkpt lat="45.27667" lon="6.91122">
        <ele>1886.72</ele>
        <time>2016-10-05T10:45:01Z</time>
      </trkpt>
      <trkpt lat="45.27667" lon="6.91121">
        <ele>1887.21</ele>
        <time>2016-10-05T10:45:02Z</time>
      </trkpt>
      <trkpt lat="45.27666" lon="6.91119">
        <ele>1887.21</ele>
        <time>2016-10-05T10:45:03Z</time>
      </trkpt>
      <trkpt lat="45.27664" lon="6.91116">
        <ele>1887.69</ele>
        <time>2016-10-05T10:45:05Z</time>
      </trkpt>
      <trkpt lat="45.27661" lon="6.91112">
        <ele>1887.69</ele>
        <time>2016-10-05T10:45:08Z</time>
      </trkpt>
      <trkpt lat="45.2766" lon="6.9111">
        <ele>1888.17</ele>
        <time>2016-10-05T10:45:09Z</time>
      </trkpt>
      <trkpt lat="45.27652" lon="6.91101">
        <ele>1888.65</ele>
        <time>2016-10-05T10:45:16Z</time>
      </trkpt>
      <trkpt lat="45.2765" lon="6.911">
        <ele>1888.17</ele>
        <time>2016-10-05T10:45:17Z</time>
      </trkpt>
      <trkpt lat="45.27636" lon="6.91093">
        <ele>1889.61</ele>
        <time>2016-10-05T10:45:24Z</time>
      </trkpt>
      <trkpt lat="45.27635" lon="6.91091">
        <ele>1890.09</ele>
        <time>2016-10-05T10:45:25Z</time>
      </trkpt>
      <trkpt lat="45.27634" lon="6.91089">
        <ele>1890.09</ele>
        <time>2016-10-05T10:45:26Z</time>
      </trkpt>
      <trkpt lat="45.27633" lon="6.91087">
        <ele>1891.05</ele>
        <time>2016-10-05T10:45:27Z</time>
      </trkpt>
      <trkpt lat="45.27632" lon="6.91085">
        <ele>1890.09</ele>
        <time>2016-10-05T10:45:28Z</time>
      </trkpt>
      <trkpt lat="45.27631" lon="6.91083">
        <ele>1890.09</ele>
        <time>2016-10-05T10:45:29Z</time>
      </trkpt>
      <trkpt lat="45.27613" lon="6.91065">
        <ele>1892.97</ele>
        <time>2016-10-05T10:45:44Z</time>
      </trkpt>
      <trkpt lat="45.27612" lon="6.91064">
        <ele>1892.97</ele>
        <time>2016-10-05T10:45:45Z</time>
      </trkpt>
      <trkpt lat="45.27611" lon="6.91063">
        <ele>1892.49</ele>
        <time>2016-10-05T10:45:46Z</time>
      </trkpt>
      <trkpt lat="45.27593" lon="6.9105">
        <ele>1894.9</ele>
        <time>2016-10-05T10:46:00Z</time>
      </trkpt>
      <trkpt lat="45.27575" lon="6.91027">
        <ele>1896.82</ele>
        <time>2016-10-05T10:46:15Z</time>
      </trkpt>
      <trkpt lat="45.27567" lon="6.91004">
        <ele>1898.74</ele>
        <time>2016-10-05T10:46:29Z</time>
      </trkpt>
      <trkpt lat="45.27567" lon="6.91003">
        <ele>1899.22</ele>
        <time>2016-10-05T10:46:30Z</time>
      </trkpt>
      <trkpt lat="45.27567" lon="6.91001">
        <ele>1899.22</ele>
        <time>2016-10-05T10:46:31Z</time>
      </trkpt>
      <trkpt lat="45.27567" lon="6.90999">
        <ele>1899.7</ele>
        <time>2016-10-05T10:46:32Z</time>
      </trkpt>
      <trkpt lat="45.27567" lon="6.90997">
        <ele>1899.7</ele>
        <time>2016-10-05T10:46:33Z</time>
      </trkpt>
      <trkpt lat="45.27566" lon="6.90995">
        <ele>1900.18</ele>
        <time>2016-10-05T10:46:34Z</time>
      </trkpt>
      <trkpt lat="45.27565" lon="6.90993">
        <ele>1900.18</ele>
        <time>2016-10-05T10:46:35Z</time>
      </trkpt>
      <trkpt lat="45.27565" lon="6.90991">
        <ele>1900.66</ele>
        <time>2016-10-05T10:46:36Z</time>
      </trkpt>
      <trkpt lat="45.27564" lon="6.90989">
        <ele>1900.18</ele>
        <time>2016-10-05T10:46:37Z</time>
      </trkpt>
      <trkpt lat="45.27547" lon="6.90965">
        <ele>1901.14</ele>
        <time>2016-10-05T10:46:51Z</time>
      </trkpt>
      <trkpt lat="45.27528" lon="6.90948">
        <ele>1903.55</ele>
        <time>2016-10-05T10:47:05Z</time>
      </trkpt>
      <trkpt lat="45.27519" lon="6.9094">
        <ele>1904.03</ele>
        <time>2016-10-05T10:47:12Z</time>
      </trkpt>
      <trkpt lat="45.27515" lon="6.90936">
        <ele>1904.99</ele>
        <time>2016-10-05T10:47:15Z</time>
      </trkpt>
      <trkpt lat="45.27498" lon="6.90919">
        <ele>1906.91</ele>
        <time>2016-10-05T10:47:29Z</time>
      </trkpt>
      <trkpt lat="45.27488" lon="6.90895">
        <ele>1908.83</ele>
        <time>2016-10-05T10:47:44Z</time>
      </trkpt>
      <trkpt lat="45.27487" lon="6.9088">
        <ele>1909.8</ele>
        <time>2016-10-05T10:47:52Z</time>
      </trkpt>
      <trkpt lat="45.27486" lon="6.90878">
        <ele>1909.8</ele>
        <time>2016-10-05T10:47:53Z</time>
      </trkpt>
      <trkpt lat="45.27486" lon="6.90876">
        <ele>1910.76</ele>
        <time>2016-10-05T10:47:54Z</time>
      </trkpt>
      <trkpt lat="45.27484" lon="6.90863">
        <ele>1910.76</ele>
        <time>2016-10-05T10:48:02Z</time>
      </trkpt>
      <trkpt lat="45.27474" lon="6.90835">
        <ele>1913.16</ele>
        <time>2016-10-05T10:48:17Z</time>
      </trkpt>
      <trkpt lat="45.27463" lon="6.9081">
        <ele>1914.12</ele>
        <time>2016-10-05T10:48:31Z</time>
      </trkpt>
      <trkpt lat="45.27458" lon="6.90802">
        <ele>1914.6</ele>
        <time>2016-10-05T10:48:35Z</time>
      </trkpt>
      <trkpt lat="45.27458" lon="6.90799">
        <ele>1915.08</ele>
        <time>2016-10-05T10:48:36Z</time>
      </trkpt>
      <trkpt lat="45.27457" lon="6.90796">
        <ele>1915.08</ele>
        <time>2016-10-05T10:48:37Z</time>
      </trkpt>
      <trkpt lat="45.27448" lon="6.90778">
        <ele>1916.53</ele>
        <time>2016-10-05T10:48:48Z</time>
      </trkpt>
      <trkpt lat="45.27448" lon="6.90776">
        <ele>1916.53</ele>
        <time>2016-10-05T10:48:49Z</time>
      </trkpt>
      <trkpt lat="45.27448" lon="6.90774">
        <ele>1916.53</ele>
        <time>2016-10-05T10:48:50Z</time>
      </trkpt>
      <trkpt lat="45.27447" lon="6.90772">
        <ele>1917.01</ele>
        <time>2016-10-05T10:48:51Z</time>
      </trkpt>
      <trkpt lat="45.27447" lon="6.90771">
        <ele>1916.04</ele>
        <time>2016-10-05T10:48:52Z</time>
      </trkpt>
      <trkpt lat="45.27445" lon="6.90769">
        <ele>1916.53</ele>
        <time>2016-10-05T10:48:53Z</time>
      </trkpt>
      <trkpt lat="45.27435" lon="6.90735">
        <ele>1919.41</ele>
        <time>2016-10-05T10:49:09Z</time>
      </trkpt>
      <trkpt lat="45.27427" lon="6.90714">
        <ele>1920.85</ele>
        <time>2016-10-05T10:49:21Z</time>
      </trkpt>
      <trkpt lat="45.27426" lon="6.90712">
        <ele>1921.33</ele>
        <time>2016-10-05T10:49:22Z</time>
      </trkpt>
      <trkpt lat="45.27424" lon="6.9071">
        <ele>1921.81</ele>
        <time>2016-10-05T10:49:23Z</time>
      </trkpt>
      <trkpt lat="45.27423" lon="6.90709">
        <ele>1921.33</ele>
        <time>2016-10-05T10:49:24Z</time>
      </trkpt>
      <trkpt lat="45.27422" lon="6.90707">
        <ele>1921.81</ele>
        <time>2016-10-05T10:49:25Z</time>
      </trkpt>
      <trkpt lat="45.27413" lon="6.90693">
        <ele>1923.25</ele>
        <time>2016-10-05T10:49:34Z</time>
      </trkpt>
      <trkpt lat="45.27401" lon="6.90675">
        <ele>1924.22</ele>
        <time>2016-10-05T10:49:47Z</time>
      </trkpt>
      <trkpt lat="45.27401" lon="6.90673">
        <ele>1924.7</ele>
        <time>2016-10-05T10:49:48Z</time>
      </trkpt>
      <trkpt lat="45.274" lon="6.90671">
        <ele>1924.22</ele>
        <time>2016-10-05T10:49:49Z</time>
      </trkpt>
      <trkpt lat="45.27399" lon="6.9067">
        <ele>1924.7</ele>
        <time>2016-10-05T10:49:50Z</time>
      </trkpt>
      <trkpt lat="45.27398" lon="6.90668">
        <ele>1924.22</ele>
        <time>2016-10-05T10:49:51Z</time>
      </trkpt>
      <trkpt lat="45.27397" lon="6.90666">
        <ele>1924.7</ele>
        <time>2016-10-05T10:49:52Z</time>
      </trkpt>
      <trkpt lat="45.27381" lon="6.90637">
        <ele>1927.1</ele>
        <time>2016-10-05T10:50:09Z</time>
      </trkpt>
      <trkpt lat="45.27369" lon="6.906">
        <ele>1929.5</ele>
        <time>2016-10-05T10:50:29Z</time>
      </trkpt>
      <trkpt lat="45.27362" lon="6.90574">
        <ele>1930.95</ele>
        <time>2016-10-05T10:50:44Z</time>
      </trkpt>
      <trkpt lat="45.27351" lon="6.9054">
        <ele>1933.83</ele>
        <time>2016-10-05T10:51:03Z</time>
      </trkpt>
      <trkpt lat="45.2734" lon="6.90506">
        <ele>1935.75</ele>
        <time>2016-10-05T10:51:23Z</time>
      </trkpt>
      <trkpt lat="45.27335" lon="6.90474">
        <ele>1938.16</ele>
        <time>2016-10-05T10:51:40Z</time>
      </trkpt>
      <trkpt lat="45.27334" lon="6.90472">
        <ele>1938.16</ele>
        <time>2016-10-05T10:51:41Z</time>
      </trkpt>
      <trkpt lat="45.27333" lon="6.90471">
        <ele>1938.64</ele>
        <time>2016-10-05T10:51:42Z</time>
      </trkpt>
      <trkpt lat="45.27325" lon="6.9044">
        <ele>1940.56</ele>
        <time>2016-10-05T10:52:00Z</time>
      </trkpt>
      <trkpt lat="45.27324" lon="6.90439">
        <ele>1940.56</ele>
        <time>2016-10-05T10:52:01Z</time>
      </trkpt>
      <trkpt lat="45.27323" lon="6.90437">
        <ele>1941.04</ele>
        <time>2016-10-05T10:52:02Z</time>
      </trkpt>
      <trkpt lat="45.27323" lon="6.90436">
        <ele>1941.04</ele>
        <time>2016-10-05T10:52:03Z</time>
      </trkpt>
      <trkpt lat="45.27322" lon="6.90434">
        <ele>1940.56</ele>
        <time>2016-10-05T10:52:04Z</time>
      </trkpt>
      <trkpt lat="45.27322" lon="6.90432">
        <ele>1941.04</ele>
        <time>2016-10-05T10:52:05Z</time>
      </trkpt>
      <trkpt lat="45.27322" lon="6.90431">
        <ele>1941.52</ele>
        <time>2016-10-05T10:52:06Z</time>
      </trkpt>
      <trkpt lat="45.27322" lon="6.90429">
        <ele>1941.52</ele>
        <time>2016-10-05T10:52:07Z</time>
      </trkpt>
      <trkpt lat="45.27314" lon="6.90395">
        <ele>1943.92</ele>
        <time>2016-10-05T10:52:26Z</time>
      </trkpt>
      <trkpt lat="45.27306" lon="6.90359">
        <ele>1947.29</ele>
        <time>2016-10-05T10:52:47Z</time>
      </trkpt>
      <trkpt lat="45.27291" lon="6.90334">
        <ele>1948.73</ele>
        <time>2016-10-05T10:53:05Z</time>
      </trkpt>
      <trkpt lat="45.27282" lon="6.90319">
        <ele>1950.65</ele>
        <time>2016-10-05T10:53:15Z</time>
      </trkpt>
      <trkpt lat="45.27265" lon="6.90301">
        <ele>1952.09</ele>
        <time>2016-10-05T10:53:31Z</time>
      </trkpt>
      <trkpt lat="45.2726" lon="6.90291">
        <ele>1952.57</ele>
        <time>2016-10-05T10:53:38Z</time>
      </trkpt>
      <trkpt lat="45.27259" lon="6.9029">
        <ele>1952.57</ele>
        <time>2016-10-05T10:53:39Z</time>
      </trkpt>
      <trkpt lat="45.27258" lon="6.90289">
        <ele>1953.06</ele>
        <time>2016-10-05T10:53:40Z</time>
      </trkpt>
      <trkpt lat="45.27243" lon="6.90259">
        <ele>1955.46</ele>
        <time>2016-10-05T10:54:00Z</time>
      </trkpt>
      <trkpt lat="45.2723" lon="6.90233">
        <ele>1957.86</ele>
        <time>2016-10-05T10:54:17Z</time>
      </trkpt>
      <trkpt lat="45.27218" lon="6.90203">
        <ele>1959.78</ele>
        <time>2016-10-05T10:54:35Z</time>
      </trkpt>
      <trkpt lat="45.27216" lon="6.90196">
        <ele>1959.78</ele>
        <time>2016-10-05T10:54:39Z</time>
      </trkpt>
      <trkpt lat="45.27216" lon="6.90194">
        <ele>1960.27</ele>
        <time>2016-10-05T10:54:40Z</time>
      </trkpt>
      <trkpt lat="45.27216" lon="6.90193">
        <ele>1960.27</ele>
        <time>2016-10-05T10:54:41Z</time>
      </trkpt>
      <trkpt lat="45.27215" lon="6.90192">
        <ele>1960.27</ele>
        <time>2016-10-05T10:54:42Z</time>
      </trkpt>
      <trkpt lat="45.27214" lon="6.9019">
        <ele>1960.27</ele>
        <time>2016-10-05T10:54:43Z</time>
      </trkpt>
      <trkpt lat="45.27214" lon="6.90188">
        <ele>1960.75</ele>
        <time>2016-10-05T10:54:44Z</time>
      </trkpt>
      <trkpt lat="45.27213" lon="6.90186">
        <ele>1960.75</ele>
        <time>2016-10-05T10:54:45Z</time>
      </trkpt>
      <trkpt lat="45.27212" lon="6.90185">
        <ele>1960.75</ele>
        <time>2016-10-05T10:54:46Z</time>
      </trkpt>
      <trkpt lat="45.27211" lon="6.90183">
        <ele>1961.23</ele>
        <time>2016-10-05T10:54:47Z</time>
      </trkpt>
      <trkpt lat="45.2721" lon="6.90181">
        <ele>1961.23</ele>
        <time>2016-10-05T10:54:48Z</time>
      </trkpt>
      <trkpt lat="45.27209" lon="6.9018">
        <ele>1961.23</ele>
        <time>2016-10-05T10:54:49Z</time>
      </trkpt>
      <trkpt lat="45.27208" lon="6.90178">
        <ele>1961.71</ele>
        <time>2016-10-05T10:54:50Z</time>
      </trkpt>
      <trkpt lat="45.272" lon="6.90148">
        <ele>1963.63</ele>
        <time>2016-10-05T10:55:07Z</time>
      </trkpt>
      <trkpt lat="45.27194" lon="6.90115">
        <ele>1966.51</ele>
        <time>2016-10-05T10:55:25Z</time>
      </trkpt>
      <trkpt lat="45.27187" lon="6.90077">
        <ele>1968.92</ele>
        <time>2016-10-05T10:55:45Z</time>
      </trkpt>
      <trkpt lat="45.27181" lon="6.9004">
        <ele>1971.32</ele>
        <time>2016-10-05T10:56:06Z</time>
      </trkpt>
      <trkpt lat="45.27169" lon="6.90007">
        <ele>1974.2</ele>
        <time>2016-10-05T10:56:25Z</time>
      </trkpt>
      <trkpt lat="45.27155" lon="6.89976">
        <ele>1975.65</ele>
        <time>2016-10-05T10:56:45Z</time>
      </trkpt>
      <trkpt lat="45.27139" lon="6.89948">
        <ele>1978.53</ele>
        <time>2016-10-05T10:57:04Z</time>
      </trkpt>
      <trkpt lat="45.27113" lon="6.89931">
        <ele>1980.45</ele>
        <time>2016-10-05T10:57:24Z</time>
      </trkpt>
      <trkpt lat="45.27093" lon="6.89927">
        <ele>1982.38</ele>
        <time>2016-10-05T10:57:40Z</time>
      </trkpt>
      <trkpt lat="45.27072" lon="6.89919">
        <ele>1983.82</ele>
        <time>2016-10-05T10:57:53Z</time>
      </trkpt>
      <trkpt lat="45.27056" lon="6.89884">
        <ele>1984.3</ele>
        <time>2016-10-05T10:58:11Z</time>
      </trkpt>
      <trkpt lat="45.27047" lon="6.89842">
        <ele>1986.22</ele>
        <time>2016-10-05T10:58:29Z</time>
      </trkpt>
      <trkpt lat="45.27034" lon="6.89805">
        <ele>1989.59</ele>
        <time>2016-10-05T10:58:46Z</time>
      </trkpt>
      <trkpt lat="45.27016" lon="6.89777">
        <ele>1991.99</ele>
        <time>2016-10-05T10:59:04Z</time>
      </trkpt>
      <trkpt lat="45.26988" lon="6.89753">
        <ele>1994.39</ele>
        <time>2016-10-05T10:59:27Z</time>
      </trkpt>
      <trkpt lat="45.26967" lon="6.89738">
        <ele>1996.8</ele>
        <time>2016-10-05T10:59:46Z</time>
      </trkpt>
      <trkpt lat="45.26957" lon="6.89727">
        <ele>1998.72</ele>
        <time>2016-10-05T10:59:56Z</time>
      </trkpt>
      <trkpt lat="45.26935" lon="6.89718">
        <ele>2000.64</ele>
        <time>2016-10-05T11:00:13Z</time>
      </trkpt>
      <trkpt lat="45.26909" lon="6.89714">
        <ele>2002.08</ele>
        <time>2016-10-05T11:00:30Z</time>
      </trkpt>
      <trkpt lat="45.26887" lon="6.8971">
        <ele>2003.52</ele>
        <time>2016-10-05T11:00:45Z</time>
      </trkpt>
      <trkpt lat="45.2686" lon="6.89715">
        <ele>2006.41</ele>
        <time>2016-10-05T11:01:04Z</time>
      </trkpt>
      <trkpt lat="45.26832" lon="6.89724">
        <ele>2009.29</ele>
        <time>2016-10-05T11:01:20Z</time>
      </trkpt>
      <trkpt lat="45.26803" lon="6.89731">
        <ele>2011.7</ele>
        <time>2016-10-05T11:01:39Z</time>
      </trkpt>
      <trkpt lat="45.26774" lon="6.89734">
        <ele>2015.06</ele>
        <time>2016-10-05T11:02:00Z</time>
      </trkpt>
      <trkpt lat="45.26756" lon="6.89753">
        <ele>2016.98</ele>
        <time>2016-10-05T11:02:16Z</time>
      </trkpt>
      <trkpt lat="45.26735" lon="6.8978">
        <ele>2018.91</ele>
        <time>2016-10-05T11:02:33Z</time>
      </trkpt>
      <trkpt lat="45.26721" lon="6.89805">
        <ele>2020.83</ele>
        <time>2016-10-05T11:02:48Z</time>
      </trkpt>
      <trkpt lat="45.26701" lon="6.8983">
        <ele>2023.23</ele>
        <time>2016-10-05T11:03:06Z</time>
      </trkpt>
      <trkpt lat="45.26693" lon="6.89838">
        <ele>2025.15</ele>
        <time>2016-10-05T11:03:14Z</time>
      </trkpt>
      <trkpt lat="45.26669" lon="6.89854">
        <ele>2026.6</ele>
        <time>2016-10-05T11:03:31Z</time>
      </trkpt>
      <trkpt lat="45.26633" lon="6.89862">
        <ele>2029.48</ele>
        <time>2016-10-05T11:03:52Z</time>
      </trkpt>
      <trkpt lat="45.26595" lon="6.89865">
        <ele>2031.4</ele>
        <time>2016-10-05T11:04:13Z</time>
      </trkpt>
      <trkpt lat="45.26562" lon="6.89871">
        <ele>2034.77</ele>
        <time>2016-10-05T11:04:31Z</time>
      </trkpt>
      <trkpt lat="45.26542" lon="6.89898">
        <ele>2037.17</ele>
        <time>2016-10-05T11:04:49Z</time>
      </trkpt>
      <trkpt lat="45.26521" lon="6.89936">
        <ele>2039.09</ele>
        <time>2016-10-05T11:05:08Z</time>
      </trkpt>
      <trkpt lat="45.26498" lon="6.89972">
        <ele>2041.98</ele>
        <time>2016-10-05T11:05:27Z</time>
      </trkpt>
      <trkpt lat="45.26474" lon="6.90004">
        <ele>2044.38</ele>
        <time>2016-10-05T11:05:46Z</time>
      </trkpt>
      <trkpt lat="45.2645" lon="6.90027">
        <ele>2047.75</ele>
        <time>2016-10-05T11:06:03Z</time>
      </trkpt>
      <trkpt lat="45.26417" lon="6.90047">
        <ele>2049.67</ele>
        <time>2016-10-05T11:06:23Z</time>
      </trkpt>
      <trkpt lat="45.26384" lon="6.90072">
        <ele>2053.03</ele>
        <time>2016-10-05T11:06:45Z</time>
      </trkpt>
      <trkpt lat="45.26357" lon="6.90088">
        <ele>2054.96</ele>
        <time>2016-10-05T11:07:04Z</time>
      </trkpt>
      <trkpt lat="45.26328" lon="6.90109">
        <ele>2057.36</ele>
        <time>2016-10-05T11:07:25Z</time>
      </trkpt>
      <trkpt lat="45.26303" lon="6.90127">
        <ele>2059.28</ele>
        <time>2016-10-05T11:07:42Z</time>
      </trkpt>
      <trkpt lat="45.26276" lon="6.9015">
        <ele>2062.17</ele>
        <time>2016-10-05T11:07:59Z</time>
      </trkpt>
      <trkpt lat="45.26244" lon="6.90161">
        <ele>2065.05</ele>
        <time>2016-10-05T11:08:19Z</time>
      </trkpt>
      <trkpt lat="45.2622" lon="6.90154">
        <ele>2066.49</ele>
        <time>2016-10-05T11:08:33Z</time>
      </trkpt>
      <trkpt lat="45.26202" lon="6.9013">
        <ele>2067.45</ele>
        <time>2016-10-05T11:08:47Z</time>
      </trkpt>
      <trkpt lat="45.26192" lon="6.90113">
        <ele>2068.89</ele>
        <time>2016-10-05T11:08:59Z</time>
      </trkpt>
      <trkpt lat="45.26184" lon="6.90081">
        <ele>2070.82</ele>
        <time>2016-10-05T11:09:16Z</time>
      </trkpt>
      <trkpt lat="45.26187" lon="6.90044">
        <ele>2071.78</ele>
        <time>2016-10-05T11:09:32Z</time>
      </trkpt>
      <trkpt lat="45.26188" lon="6.90031">
        <ele>2073.22</ele>
        <time>2016-10-05T11:09:38Z</time>
      </trkpt>
      <trkpt lat="45.26183" lon="6.89993">
        <ele>2075.14</ele>
        <time>2016-10-05T11:09:55Z</time>
      </trkpt>
      <trkpt lat="45.26182" lon="6.89991">
        <ele>2075.14</ele>
        <time>2016-10-05T11:09:56Z</time>
      </trkpt>
      <trkpt lat="45.26156" lon="6.89975">
        <ele>2076.59</ele>
        <time>2016-10-05T11:10:12Z</time>
      </trkpt>
      <trkpt lat="45.26133" lon="6.89982">
        <ele>2078.51</ele>
        <time>2016-10-05T11:10:25Z</time>
      </trkpt>
      <trkpt lat="45.26104" lon="6.89988">
        <ele>2079.95</ele>
        <time>2016-10-05T11:10:43Z</time>
      </trkpt>
      <trkpt lat="45.26073" lon="6.89996">
        <ele>2081.39</ele>
        <time>2016-10-05T11:11:01Z</time>
      </trkpt>
      <trkpt lat="45.26042" lon="6.9001">
        <ele>2084.28</ele>
        <time>2016-10-05T11:11:21Z</time>
      </trkpt>
      <trkpt lat="45.26018" lon="6.90032">
        <ele>2085.24</ele>
        <time>2016-10-05T11:11:37Z</time>
      </trkpt>
      <trkpt lat="45.25992" lon="6.90068">
        <ele>2084.76</ele>
        <time>2016-10-05T11:11:53Z</time>
      </trkpt>
      <trkpt lat="45.2598" lon="6.90089">
        <ele>2084.76</ele>
        <time>2016-10-05T11:12:03Z</time>
      </trkpt>
      <trkpt lat="45.2598" lon="6.90092">
        <ele>2085.24</ele>
        <time>2016-10-05T11:12:04Z</time>
      </trkpt>
      <trkpt lat="45.2598" lon="6.90095">
        <ele>2084.76</ele>
        <time>2016-10-05T11:12:05Z</time>
      </trkpt>
      <trkpt lat="45.25981" lon="6.90097">
        <ele>2084.76</ele>
        <time>2016-10-05T11:12:06Z</time>
      </trkpt>
      <trkpt lat="45.25982" lon="6.90098">
        <ele>2085.24</ele>
        <time>2016-10-05T11:12:07Z</time>
      </trkpt>
      <trkpt lat="45.25984" lon="6.90098">
        <ele>2084.76</ele>
        <time>2016-10-05T11:12:22Z</time>
      </trkpt>
      <trkpt lat="45.25986" lon="6.90098">
        <ele>2083.79</ele>
        <time>2016-10-05T11:12:32Z</time>
      </trkpt>
      <trkpt lat="45.25989" lon="6.90098">
        <ele>2084.28</ele>
        <time>2016-10-05T11:12:48Z</time>
      </trkpt>
      <trkpt lat="45.25991" lon="6.90094">
        <ele>2085.24</ele>
        <time>2016-10-05T11:13:17Z</time>
      </trkpt>
      <trkpt lat="45.25995" lon="6.90099">
        <ele>2084.76</ele>
        <time>2016-10-05T11:13:49Z</time>
      </trkpt>
      <trkpt lat="45.25995" lon="6.90097">
        <ele>2084.76</ele>
        <time>2016-10-05T11:14:19Z</time>
      </trkpt>
      <trkpt lat="45.25992" lon="6.90094">
        <ele>2083.79</ele>
        <time>2016-10-05T11:14:57Z</time>
      </trkpt>
      <trkpt lat="45.25992" lon="6.90093">
        <ele>2083.79</ele>
        <time>2016-10-05T11:15:02Z</time>
      </trkpt>
      <trkpt lat="45.25991" lon="6.9009">
        <ele>2084.28</ele>
        <time>2016-10-05T11:15:27Z</time>
      </trkpt>
      <trkpt lat="45.25988" lon="6.9009">
        <ele>2084.28</ele>
        <time>2016-10-05T11:15:47Z</time>
      </trkpt>
      <trkpt lat="45.25988" lon="6.9009">
        <ele>2083.79</ele>
        <time>2016-10-05T11:16:08Z</time>
      </trkpt>
      <trkpt lat="45.25987" lon="6.9009">
        <ele>2084.28</ele>
        <time>2016-10-05T11:16:39Z</time>
      </trkpt>
      <trkpt lat="45.25986" lon="6.90091">
        <ele>2083.31</ele>
        <time>2016-10-05T11:17:00Z</time>
      </trkpt>
      <trkpt lat="45.25987" lon="6.90088">
        <ele>2084.76</ele>
        <time>2016-10-05T11:17:28Z</time>
      </trkpt>
      <trkpt lat="45.25986" lon="6.90089">
        <ele>2082.83</ele>
        <time>2016-10-05T11:17:50Z</time>
      </trkpt>
      <trkpt lat="45.25986" lon="6.90089">
        <ele>2083.79</ele>
        <time>2016-10-05T11:18:15Z</time>
      </trkpt>
      <trkpt lat="45.25987" lon="6.90087">
        <ele>2084.28</ele>
        <time>2016-10-05T11:18:25Z</time>
      </trkpt>
      <trkpt lat="45.25987" lon="6.90087">
        <ele>2083.31</ele>
        <time>2016-10-05T11:18:50Z</time>
      </trkpt>
      <trkpt lat="45.25985" lon="6.90088">
        <ele>2083.31</ele>
        <time>2016-10-05T11:19:12Z</time>
      </trkpt>
      <trkpt lat="45.25983" lon="6.90087">
        <ele>2083.79</ele>
        <time>2016-10-05T11:19:33Z</time>
      </trkpt>
      <trkpt lat="45.25983" lon="6.90083">
        <ele>2083.31</ele>
        <time>2016-10-05T11:20:01Z</time>
      </trkpt>
      <trkpt lat="45.25984" lon="6.90085">
        <ele>2083.31</ele>
        <time>2016-10-05T11:20:29Z</time>
      </trkpt>
      <trkpt lat="45.25985" lon="6.90087">
        <ele>2083.31</ele>
        <time>2016-10-05T11:21:12Z</time>
      </trkpt>
      <trkpt lat="45.25986" lon="6.90088">
        <ele>2082.35</ele>
        <time>2016-10-05T11:21:35Z</time>
      </trkpt>
      <trkpt lat="45.25987" lon="6.90088">
        <ele>2085.72</ele>
        <time>2016-10-05T11:22:14Z</time>
      </trkpt>
      <trkpt lat="45.25988" lon="6.9009">
        <ele>2085.24</ele>
        <time>2016-10-05T11:22:15Z</time>
      </trkpt>
      <trkpt lat="45.25989" lon="6.90096">
        <ele>2083.79</ele>
        <time>2016-10-05T11:22:31Z</time>
      </trkpt>
      <trkpt lat="45.25987" lon="6.90098">
        <ele>2084.76</ele>
        <time>2016-10-05T11:22:47Z</time>
      </trkpt>
      <trkpt lat="45.25987" lon="6.90097">
        <ele>2083.79</ele>
        <time>2016-10-05T11:22:58Z</time>
      </trkpt>
      <trkpt lat="45.25988" lon="6.90099">
        <ele>2076.59</ele>
        <time>2016-10-05T11:23:19Z</time>
      </trkpt>
      <trkpt lat="45.25988" lon="6.901">
        <ele>2080.91</ele>
        <time>2016-10-05T11:23:21Z</time>
      </trkpt>
      <trkpt lat="45.25988" lon="6.901">
        <ele>2084.76</ele>
        <time>2016-10-05T11:23:22Z</time>
      </trkpt>
      <trkpt lat="45.25988" lon="6.901">
        <ele>2084.28</ele>
        <time>2016-10-05T11:23:31Z</time>
      </trkpt>
      <trkpt lat="45.25985" lon="6.90094">
        <ele>2084.28</ele>
        <time>2016-10-05T11:23:58Z</time>
      </trkpt>
      <trkpt lat="45.25983" lon="6.90096">
        <ele>2084.28</ele>
        <time>2016-10-05T11:24:29Z</time>
      </trkpt>
      <trkpt lat="45.25982" lon="6.90094">
        <ele>2081.87</ele>
        <time>2016-10-05T11:24:57Z</time>
      </trkpt>
      <trkpt lat="45.25981" lon="6.90091">
        <ele>2083.31</ele>
        <time>2016-10-05T11:25:17Z</time>
      </trkpt>
      <trkpt lat="45.25978" lon="6.90089">
        <ele>2085.24</ele>
        <time>2016-10-05T11:25:46Z</time>
      </trkpt>
      <trkpt lat="45.25971" lon="6.90088">
        <ele>2081.87</ele>
        <time>2016-10-05T11:26:10Z</time>
      </trkpt>
      <trkpt lat="45.25967" lon="6.90087">
        <ele>2086.68</ele>
        <time>2016-10-05T11:26:13Z</time>
      </trkpt>
      <trkpt lat="45.25965" lon="6.90083">
        <ele>2082.35</ele>
        <time>2016-10-05T11:26:32Z</time>
      </trkpt>
      <trkpt lat="45.25965" lon="6.90082">
        <ele>2087.16</ele>
        <time>2016-10-05T11:26:33Z</time>
      </trkpt>
      <trkpt lat="45.25964" lon="6.90082">
        <ele>2082.35</ele>
        <time>2016-10-05T11:26:35Z</time>
      </trkpt>
      <trkpt lat="45.25964" lon="6.90082">
        <ele>2085.72</ele>
        <time>2016-10-05T11:26:36Z</time>
      </trkpt>
      <trkpt lat="45.25965" lon="6.90079">
        <ele>2082.35</ele>
        <time>2016-10-05T11:26:43Z</time>
      </trkpt>
      <trkpt lat="45.25965" lon="6.90079">
        <ele>2086.2</ele>
        <time>2016-10-05T11:26:44Z</time>
      </trkpt>
      <trkpt lat="45.2596" lon="6.90075">
        <ele>2085.72</ele>
        <time>2016-10-05T11:27:06Z</time>
      </trkpt>
      <trkpt lat="45.25963" lon="6.90077">
        <ele>2085.24</ele>
        <time>2016-10-05T11:27:32Z</time>
      </trkpt>
      <trkpt lat="45.25981" lon="6.90089">
        <ele>2086.68</ele>
        <time>2016-10-05T11:28:00Z</time>
      </trkpt>
      <trkpt lat="45.25983" lon="6.9009">
        <ele>2086.2</ele>
        <time>2016-10-05T11:28:13Z</time>
      </trkpt>
      <trkpt lat="45.25985" lon="6.90095">
        <ele>2086.2</ele>
        <time>2016-10-05T11:28:38Z</time>
      </trkpt>
      <trkpt lat="45.25987" lon="6.90096">
        <ele>2086.68</ele>
        <time>2016-10-05T11:28:58Z</time>
      </trkpt>
      <trkpt lat="45.25986" lon="6.90099">
        <ele>2086.68</ele>
        <time>2016-10-05T11:29:26Z</time>
      </trkpt>
      <trkpt lat="45.25992" lon="6.90101">
        <ele>2087.16</ele>
        <time>2016-10-05T11:29:51Z</time>
      </trkpt>
      <trkpt lat="45.25996" lon="6.90105">
        <ele>2086.68</ele>
        <time>2016-10-05T11:30:17Z</time>
      </trkpt>
      <trkpt lat="45.26001" lon="6.90108">
        <ele>2087.16</ele>
        <time>2016-10-05T11:30:43Z</time>
      </trkpt>
      <trkpt lat="45.26006" lon="6.90111">
        <ele>2086.68</ele>
        <time>2016-10-05T11:31:04Z</time>
      </trkpt>
      <trkpt lat="45.25995" lon="6.90107">
        <ele>2087.64</ele>
        <time>2016-10-05T11:31:26Z</time>
      </trkpt>
      <trkpt lat="45.25996" lon="6.90105">
        <ele>2088.12</ele>
        <time>2016-10-05T11:31:54Z</time>
      </trkpt>
      <trkpt lat="45.25998" lon="6.90111">
        <ele>2087.64</ele>
        <time>2016-10-05T11:32:22Z</time>
      </trkpt>
      <trkpt lat="45.26013" lon="6.90122">
        <ele>2087.64</ele>
        <time>2016-10-05T11:32:42Z</time>
      </trkpt>
      <trkpt lat="45.26018" lon="6.90123">
        <ele>2087.64</ele>
        <time>2016-10-05T11:33:00Z</time>
      </trkpt>
      <trkpt lat="45.26006" lon="6.90115">
        <ele>2087.16</ele>
        <time>2016-10-05T11:33:27Z</time>
      </trkpt>
      <trkpt lat="45.26004" lon="6.90107">
        <ele>2087.64</ele>
        <time>2016-10-05T11:33:45Z</time>
      </trkpt>
      <trkpt lat="45.25996" lon="6.90099">
        <ele>2088.12</ele>
        <time>2016-10-05T11:34:02Z</time>
      </trkpt>
      <trkpt lat="45.25995" lon="6.90102">
        <ele>2087.16</ele>
        <time>2016-10-05T11:34:24Z</time>
      </trkpt>
      <trkpt lat="45.25998" lon="6.90096">
        <ele>2087.64</ele>
        <time>2016-10-05T11:35:01Z</time>
      </trkpt>
      <trkpt lat="45.25995" lon="6.90095">
        <ele>2087.64</ele>
        <time>2016-10-05T11:35:32Z</time>
      </trkpt>
      <trkpt lat="45.25989" lon="6.90095">
        <ele>2088.6</ele>
        <time>2016-10-05T11:36:06Z</time>
      </trkpt>
      <trkpt lat="45.25989" lon="6.90098">
        <ele>2088.6</ele>
        <time>2016-10-05T11:36:34Z</time>
      </trkpt>
      <trkpt lat="45.25989" lon="6.901">
        <ele>2088.6</ele>
        <time>2016-10-05T11:37:00Z</time>
      </trkpt>
      <trkpt lat="45.25993" lon="6.901">
        <ele>2088.12</ele>
        <time>2016-10-05T11:37:26Z</time>
      </trkpt>
      <trkpt lat="45.2599" lon="6.90098">
        <ele>2088.12</ele>
        <time>2016-10-05T11:38:02Z</time>
      </trkpt>
      <trkpt lat="45.25986" lon="6.90098">
        <ele>2089.08</ele>
        <time>2016-10-05T11:38:30Z</time>
      </trkpt>
      <trkpt lat="45.25985" lon="6.90099">
        <ele>2088.6</ele>
        <time>2016-10-05T11:39:03Z</time>
      </trkpt>
      <trkpt lat="45.2599" lon="6.90101">
        <ele>2089.56</ele>
        <time>2016-10-05T11:39:27Z</time>
      </trkpt>
      <trkpt lat="45.25989" lon="6.90096">
        <ele>2089.56</ele>
        <time>2016-10-05T11:39:59Z</time>
      </trkpt>
      <trkpt lat="45.25982" lon="6.90092">
        <ele>2089.08</ele>
        <time>2016-10-05T11:40:30Z</time>
      </trkpt>
      <trkpt lat="45.25979" lon="6.90091">
        <ele>2089.56</ele>
        <time>2016-10-05T11:41:03Z</time>
      </trkpt>
      <trkpt lat="45.25976" lon="6.90087">
        <ele>2090.04</ele>
        <time>2016-10-05T11:41:34Z</time>
      </trkpt>
      <trkpt lat="45.25975" lon="6.90085">
        <ele>2090.04</ele>
        <time>2016-10-05T11:41:59Z</time>
      </trkpt>
      <trkpt lat="45.25974" lon="6.90086">
        <ele>2089.56</ele>
        <time>2016-10-05T11:42:24Z</time>
      </trkpt>
      <trkpt lat="45.25977" lon="6.90089">
        <ele>2089.56</ele>
        <time>2016-10-05T11:42:50Z</time>
      </trkpt>
      <trkpt lat="45.25981" lon="6.90094">
        <ele>2090.04</ele>
        <time>2016-10-05T11:43:17Z</time>
      </trkpt>
      <trkpt lat="45.25983" lon="6.90097">
        <ele>2090.52</ele>
        <time>2016-10-05T11:43:51Z</time>
      </trkpt>
      <trkpt lat="45.25986" lon="6.90097">
        <ele>2089.56</ele>
        <time>2016-10-05T11:44:30Z</time>
      </trkpt>
      <trkpt lat="45.25986" lon="6.90095">
        <ele>2089.56</ele>
        <time>2016-10-05T11:45:02Z</time>
      </trkpt>
      <trkpt lat="45.25984" lon="6.90097">
        <ele>2090.52</ele>
        <time>2016-10-05T11:45:40Z</time>
      </trkpt>
      <trkpt lat="45.25985" lon="6.90098">
        <ele>2090.04</ele>
        <time>2016-10-05T11:46:18Z</time>
      </trkpt>
      <trkpt lat="45.25987" lon="6.90094">
        <ele>2091</ele>
        <time>2016-10-05T11:46:46Z</time>
      </trkpt>
      <trkpt lat="45.25989" lon="6.90093">
        <ele>2090.52</ele>
        <time>2016-10-05T11:47:13Z</time>
      </trkpt>
      <trkpt lat="45.25988" lon="6.90096">
        <ele>2090.52</ele>
        <time>2016-10-05T11:47:48Z</time>
      </trkpt>
      <trkpt lat="45.25988" lon="6.90094">
        <ele>2091</ele>
        <time>2016-10-05T11:48:22Z</time>
      </trkpt>
      <trkpt lat="45.2599" lon="6.90096">
        <ele>2091</ele>
        <time>2016-10-05T11:48:55Z</time>
      </trkpt>
      <trkpt lat="45.2599" lon="6.90098">
        <ele>2090.04</ele>
        <time>2016-10-05T11:49:33Z</time>
      </trkpt>
      <trkpt lat="45.25988" lon="6.90097">
        <ele>2090.04</ele>
        <time>2016-10-05T11:50:03Z</time>
      </trkpt>
      <trkpt lat="45.25986" lon="6.90095">
        <ele>2090.04</ele>
        <time>2016-10-05T11:50:37Z</time>
      </trkpt>
      <trkpt lat="45.25988" lon="6.90098">
        <ele>2090.52</ele>
        <time>2016-10-05T11:51:13Z</time>
      </trkpt>
      <trkpt lat="45.25989" lon="6.90102">
        <ele>2090.52</ele>
        <time>2016-10-05T11:51:48Z</time>
      </trkpt>
      <trkpt lat="45.2599" lon="6.901">
        <ele>2091</ele>
        <time>2016-10-05T11:52:14Z</time>
      </trkpt>
      <trkpt lat="45.25988" lon="6.90096">
        <ele>2090.04</ele>
        <time>2016-10-05T11:52:43Z</time>
      </trkpt>
      <trkpt lat="45.25985" lon="6.90094">
        <ele>2090.04</ele>
        <time>2016-10-05T11:53:16Z</time>
      </trkpt>
      <trkpt lat="45.25986" lon="6.90093">
        <ele>2089.08</ele>
        <time>2016-10-05T11:53:46Z</time>
      </trkpt>
      <trkpt lat="45.25988" lon="6.90097">
        <ele>2090.04</ele>
        <time>2016-10-05T11:54:12Z</time>
      </trkpt>
      <trkpt lat="45.25992" lon="6.90098">
        <ele>2090.04</ele>
        <time>2016-10-05T11:54:44Z</time>
      </trkpt>
      <trkpt lat="45.25993" lon="6.90098">
        <ele>2090.52</ele>
        <time>2016-10-05T11:55:13Z</time>
      </trkpt>
      <trkpt lat="45.2599" lon="6.90099">
        <ele>2090.04</ele>
        <time>2016-10-05T11:55:28Z</time>
      </trkpt>
      <trkpt lat="45.25992" lon="6.90099">
        <ele>2090.52</ele>
        <time>2016-10-05T11:55:47Z</time>
      </trkpt>
      <trkpt lat="45.25992" lon="6.90097">
        <ele>2087.16</ele>
        <time>2016-10-05T11:55:59Z</time>
      </trkpt>
      <trkpt lat="45.25992" lon="6.90097">
        <ele>2090.52</ele>
        <time>2016-10-05T11:56:02Z</time>
      </trkpt>
      <trkpt lat="45.25992" lon="6.90097">
        <ele>2090.04</ele>
        <time>2016-10-05T11:56:03Z</time>
      </trkpt>
      <trkpt lat="45.25991" lon="6.90095">
        <ele>2089.56</ele>
        <time>2016-10-05T11:56:25Z</time>
      </trkpt>
      <trkpt lat="45.25987" lon="6.90094">
        <ele>2089.08</ele>
        <time>2016-10-05T11:57:04Z</time>
      </trkpt>
      <trkpt lat="45.25988" lon="6.90102">
        <ele>2089.08</ele>
        <time>2016-10-05T11:57:43Z</time>
      </trkpt>
      <trkpt lat="45.25986" lon="6.90094">
        <ele>2087.16</ele>
        <time>2016-10-05T11:58:18Z</time>
      </trkpt>
      <trkpt lat="45.25983" lon="6.9009">
        <ele>2089.56</ele>
        <time>2016-10-05T11:58:20Z</time>
      </trkpt>
      <trkpt lat="45.25982" lon="6.9009">
        <ele>2090.04</ele>
        <time>2016-10-05T11:58:21Z</time>
      </trkpt>
      <trkpt lat="45.25981" lon="6.90089">
        <ele>2089.56</ele>
        <time>2016-10-05T11:58:22Z</time>
      </trkpt>
      <trkpt lat="45.25979" lon="6.90089">
        <ele>2090.04</ele>
        <time>2016-10-05T11:58:23Z</time>
      </trkpt>
      <trkpt lat="45.25973" lon="6.90089">
        <ele>2089.56</ele>
        <time>2016-10-05T11:58:29Z</time>
      </trkpt>
      <trkpt lat="45.25973" lon="6.9009">
        <ele>2089.56</ele>
        <time>2016-10-05T11:58:30Z</time>
      </trkpt>
      <trkpt lat="45.25973" lon="6.9009">
        <ele>2089.08</ele>
        <time>2016-10-05T11:58:47Z</time>
      </trkpt>
      <trkpt lat="45.25973" lon="6.90092">
        <ele>2089.08</ele>
        <time>2016-10-05T11:59:25Z</time>
      </trkpt>
      <trkpt lat="45.25972" lon="6.9009">
        <ele>2089.56</ele>
        <time>2016-10-05T12:00:14Z</time>
      </trkpt>
      <trkpt lat="45.25969" lon="6.90093">
        <ele>2090.52</ele>
        <time>2016-10-05T12:01:00Z</time>
      </trkpt>
      <trkpt lat="45.25975" lon="6.90097">
        <ele>2088.6</ele>
        <time>2016-10-05T12:01:35Z</time>
      </trkpt>
      <trkpt lat="45.25978" lon="6.90099">
        <ele>2089.08</ele>
        <time>2016-10-05T12:02:24Z</time>
      </trkpt>
      <trkpt lat="45.25974" lon="6.90096">
        <ele>2089.56</ele>
        <time>2016-10-05T12:02:59Z</time>
      </trkpt>
      <trkpt lat="45.25972" lon="6.90097">
        <ele>2090.04</ele>
        <time>2016-10-05T12:03:26Z</time>
      </trkpt>
      <trkpt lat="45.25972" lon="6.90098">
        <ele>2089.56</ele>
        <time>2016-10-05T12:03:30Z</time>
      </trkpt>
      <trkpt lat="45.25971" lon="6.90101">
        <ele>2089.56</ele>
        <time>2016-10-05T12:03:33Z</time>
      </trkpt>
      <trkpt lat="45.2597" lon="6.90102">
        <ele>2089.56</ele>
        <time>2016-10-05T12:03:34Z</time>
      </trkpt>
      <trkpt lat="45.25969" lon="6.90104">
        <ele>2088.6</ele>
        <time>2016-10-05T12:03:35Z</time>
      </trkpt>
      <trkpt lat="45.25948" lon="6.90144">
        <ele>2088.12</ele>
        <time>2016-10-05T12:03:48Z</time>
      </trkpt>
      <trkpt lat="45.25924" lon="6.9019">
        <ele>2089.08</ele>
        <time>2016-10-05T12:03:59Z</time>
      </trkpt>
      <trkpt lat="45.25892" lon="6.90237">
        <ele>2087.16</ele>
        <time>2016-10-05T12:04:13Z</time>
      </trkpt>
      <trkpt lat="45.25891" lon="6.90238">
        <ele>2087.64</ele>
        <time>2016-10-05T12:04:14Z</time>
      </trkpt>
      <trkpt lat="45.25891" lon="6.90239">
        <ele>2087.16</ele>
        <time>2016-10-05T12:04:27Z</time>
      </trkpt>
      <trkpt lat="45.25889" lon="6.90241">
        <ele>2086.2</ele>
        <time>2016-10-05T12:04:55Z</time>
      </trkpt>
      <trkpt lat="45.2589" lon="6.90243">
        <ele>2086.68</ele>
        <time>2016-10-05T12:04:56Z</time>
      </trkpt>
      <trkpt lat="45.25889" lon="6.90292">
        <ele>2084.28</ele>
        <time>2016-10-05T12:05:07Z</time>
      </trkpt>
      <trkpt lat="45.25863" lon="6.90373">
        <ele>2080.91</ele>
        <time>2016-10-05T12:05:16Z</time>
      </trkpt>
      <trkpt lat="45.25828" lon="6.9045">
        <ele>2077.07</ele>
        <time>2016-10-05T12:05:23Z</time>
      </trkpt>
      <trkpt lat="45.25808" lon="6.90486">
        <ele>2075.14</ele>
        <time>2016-10-05T12:05:26Z</time>
      </trkpt>
      <trkpt lat="45.25801" lon="6.90497">
        <ele>2074.66</ele>
        <time>2016-10-05T12:05:27Z</time>
      </trkpt>
      <trkpt lat="45.25793" lon="6.90507">
        <ele>2073.7</ele>
        <time>2016-10-05T12:05:28Z</time>
      </trkpt>
      <trkpt lat="45.25784" lon="6.90515">
        <ele>2072.26</ele>
        <time>2016-10-05T12:05:29Z</time>
      </trkpt>
      <trkpt lat="45.25775" lon="6.90521">
        <ele>2072.74</ele>
        <time>2016-10-05T12:05:30Z</time>
      </trkpt>
      <trkpt lat="45.25764" lon="6.90527">
        <ele>2072.26</ele>
        <time>2016-10-05T12:05:31Z</time>
      </trkpt>
      <trkpt lat="45.25753" lon="6.90531">
        <ele>2070.82</ele>
        <time>2016-10-05T12:05:32Z</time>
      </trkpt>
      <trkpt lat="45.25743" lon="6.90534">
        <ele>2071.3</ele>
        <time>2016-10-05T12:05:33Z</time>
      </trkpt>
      <trkpt lat="45.2571" lon="6.90546">
        <ele>2069.86</ele>
        <time>2016-10-05T12:05:36Z</time>
      </trkpt>
      <trkpt lat="45.25674" lon="6.90559">
        <ele>2066.01</ele>
        <time>2016-10-05T12:05:39Z</time>
      </trkpt>
      <trkpt lat="45.25662" lon="6.90563">
        <ele>2066.01</ele>
        <time>2016-10-05T12:05:40Z</time>
      </trkpt>
      <trkpt lat="45.25585" lon="6.9059">
        <ele>2062.65</ele>
        <time>2016-10-05T12:05:46Z</time>
      </trkpt>
      <trkpt lat="45.25546" lon="6.90603">
        <ele>2058.32</ele>
        <time>2016-10-05T12:05:49Z</time>
      </trkpt>
      <trkpt lat="45.25533" lon="6.90608">
        <ele>2058.8</ele>
        <time>2016-10-05T12:05:50Z</time>
      </trkpt>
      <trkpt lat="45.25476" lon="6.90629">
        <ele>2062.17</ele>
        <time>2016-10-05T12:05:55Z</time>
      </trkpt>
      <trkpt lat="45.25405" lon="6.90675">
        <ele>2065.05</ele>
        <time>2016-10-05T12:06:03Z</time>
      </trkpt>
      <trkpt lat="45.25325" lon="6.90777">
        <ele>2066.49</ele>
        <time>2016-10-05T12:06:17Z</time>
      </trkpt>
      <trkpt lat="45.25322" lon="6.90784">
        <ele>2066.49</ele>
        <time>2016-10-05T12:06:18Z</time>
      </trkpt>
      <trkpt lat="45.25318" lon="6.90791">
        <ele>2066.97</ele>
        <time>2016-10-05T12:06:19Z</time>
      </trkpt>
      <trkpt lat="45.25316" lon="6.90799">
        <ele>2066.97</ele>
        <time>2016-10-05T12:06:20Z</time>
      </trkpt>
      <trkpt lat="45.25314" lon="6.90807">
        <ele>2066.97</ele>
        <time>2016-10-05T12:06:21Z</time>
      </trkpt>
      <trkpt lat="45.25312" lon="6.90815">
        <ele>2066.97</ele>
        <time>2016-10-05T12:06:22Z</time>
      </trkpt>
      <trkpt lat="45.2531" lon="6.90823">
        <ele>2066.97</ele>
        <time>2016-10-05T12:06:23Z</time>
      </trkpt>
      <trkpt lat="45.25309" lon="6.90832">
        <ele>2067.93</ele>
        <time>2016-10-05T12:06:24Z</time>
      </trkpt>
      <trkpt lat="45.2531" lon="6.90953">
        <ele>2066.97</ele>
        <time>2016-10-05T12:06:38Z</time>
      </trkpt>
      <trkpt lat="45.2531" lon="6.9114">
        <ele>2064.09</ele>
        <time>2016-10-05T12:06:58Z</time>
      </trkpt>
      <trkpt lat="45.25283" lon="6.91272">
        <ele>2064.09</ele>
        <time>2016-10-05T12:07:12Z</time>
      </trkpt>
      <trkpt lat="45.25274" lon="6.91448">
        <ele>2061.68</ele>
        <time>2016-10-05T12:07:29Z</time>
      </trkpt>
      <trkpt lat="45.25247" lon="6.91593">
        <ele>2057.84</ele>
        <time>2016-10-05T12:07:41Z</time>
      </trkpt>
      <trkpt lat="45.25196" lon="6.91812">
        <ele>2055.92</ele>
        <time>2016-10-05T12:07:58Z</time>
      </trkpt>
      <trkpt lat="45.25178" lon="6.91943">
        <ele>2059.28</ele>
        <time>2016-10-05T12:08:11Z</time>
      </trkpt>
      <trkpt lat="45.25163" lon="6.92066">
        <ele>2061.2</ele>
        <time>2016-10-05T12:08:28Z</time>
      </trkpt>
      <trkpt lat="45.25139" lon="6.92196">
        <ele>2063.61</ele>
        <time>2016-10-05T12:08:49Z</time>
      </trkpt>
      <trkpt lat="45.25097" lon="6.92293">
        <ele>2064.57</ele>
        <time>2016-10-05T12:09:10Z</time>
      </trkpt>
      <trkpt lat="45.25071" lon="6.92343">
        <ele>2067.45</ele>
        <time>2016-10-05T12:09:26Z</time>
      </trkpt>
      <trkpt lat="45.25047" lon="6.92391">
        <ele>2069.86</ele>
        <time>2016-10-05T12:09:44Z</time>
      </trkpt>
      <trkpt lat="45.25029" lon="6.92428">
        <ele>2072.74</ele>
        <time>2016-10-05T12:09:59Z</time>
      </trkpt>
      <trkpt lat="45.25004" lon="6.92477">
        <ele>2075.62</ele>
        <time>2016-10-05T12:10:20Z</time>
      </trkpt>
      <trkpt lat="45.24988" lon="6.92523">
        <ele>2078.51</ele>
        <time>2016-10-05T12:10:38Z</time>
      </trkpt>
      <trkpt lat="45.24978" lon="6.92568">
        <ele>2080.43</ele>
        <time>2016-10-05T12:10:54Z</time>
      </trkpt>
      <trkpt lat="45.24963" lon="6.92627">
        <ele>2081.87</ele>
        <time>2016-10-05T12:11:12Z</time>
      </trkpt>
      <trkpt lat="45.24947" lon="6.92705">
        <ele>2083.79</ele>
        <time>2016-10-05T12:11:33Z</time>
      </trkpt>
      <trkpt lat="45.24921" lon="6.92775">
        <ele>2086.68</ele>
        <time>2016-10-05T12:11:53Z</time>
      </trkpt>
      <trkpt lat="45.24902" lon="6.92819">
        <ele>2090.04</ele>
        <time>2016-10-05T12:12:09Z</time>
      </trkpt>
      <trkpt lat="45.24873" lon="6.92874">
        <ele>2091.97</ele>
        <time>2016-10-05T12:12:31Z</time>
      </trkpt>
      <trkpt lat="45.2487" lon="6.92876">
        <ele>2092.45</ele>
        <time>2016-10-05T12:12:33Z</time>
      </trkpt>
      <trkpt lat="45.24869" lon="6.92875">
        <ele>2092.93</ele>
        <time>2016-10-05T12:12:34Z</time>
      </trkpt>
      <trkpt lat="45.24866" lon="6.92875">
        <ele>2093.41</ele>
        <time>2016-10-05T12:12:48Z</time>
      </trkpt>
      <trkpt lat="45.24866" lon="6.92873">
        <ele>2093.89</ele>
        <time>2016-10-05T12:13:22Z</time>
      </trkpt>
      <trkpt lat="45.24867" lon="6.92872">
        <ele>2094.37</ele>
        <time>2016-10-05T12:13:35Z</time>
      </trkpt>
      <trkpt lat="45.24867" lon="6.92879">
        <ele>2094.37</ele>
        <time>2016-10-05T12:13:59Z</time>
      </trkpt>
      <trkpt lat="45.24865" lon="6.92879">
        <ele>2093.89</ele>
        <time>2016-10-05T12:14:14Z</time>
      </trkpt>
      <trkpt lat="45.24864" lon="6.92881">
        <ele>2093.41</ele>
        <time>2016-10-05T12:14:15Z</time>
      </trkpt>
      <trkpt lat="45.24864" lon="6.92883">
        <ele>2093.41</ele>
        <time>2016-10-05T12:14:16Z</time>
      </trkpt>
      <trkpt lat="45.24863" lon="6.92885">
        <ele>2093.89</ele>
        <time>2016-10-05T12:14:17Z</time>
      </trkpt>
      <trkpt lat="45.24863" lon="6.92887">
        <ele>2093.89</ele>
        <time>2016-10-05T12:14:18Z</time>
      </trkpt>
      <trkpt lat="45.24861" lon="6.92889">
        <ele>2093.89</ele>
        <time>2016-10-05T12:14:19Z</time>
      </trkpt>
      <trkpt lat="45.2486" lon="6.92891">
        <ele>2093.89</ele>
        <time>2016-10-05T12:14:20Z</time>
      </trkpt>
      <trkpt lat="45.24859" lon="6.92893">
        <ele>2094.37</ele>
        <time>2016-10-05T12:14:21Z</time>
      </trkpt>
      <trkpt lat="45.24842" lon="6.92932">
        <ele>2093.89</ele>
        <time>2016-10-05T12:14:33Z</time>
      </trkpt>
      <trkpt lat="45.24815" lon="6.93029">
        <ele>2092.93</ele>
        <time>2016-10-05T12:14:52Z</time>
      </trkpt>
      <trkpt lat="45.24791" lon="6.93147">
        <ele>2090.04</ele>
        <time>2016-10-05T12:15:05Z</time>
      </trkpt>
      <trkpt lat="45.2478" lon="6.93195">
        <ele>2085.72</ele>
        <time>2016-10-05T12:15:09Z</time>
      </trkpt>
      <trkpt lat="45.24778" lon="6.93208">
        <ele>2085.72</ele>
        <time>2016-10-05T12:15:10Z</time>
      </trkpt>
      <trkpt lat="45.24756" lon="6.93304">
        <ele>2083.79</ele>
        <time>2016-10-05T12:15:17Z</time>
      </trkpt>
      <trkpt lat="45.24739" lon="6.93362">
        <ele>2079.95</ele>
        <time>2016-10-05T12:15:21Z</time>
      </trkpt>
      <trkpt lat="45.24709" lon="6.93428">
        <ele>2077.07</ele>
        <time>2016-10-05T12:15:26Z</time>
      </trkpt>
      <trkpt lat="45.24703" lon="6.9344">
        <ele>2078.03</ele>
        <time>2016-10-05T12:15:27Z</time>
      </trkpt>
      <trkpt lat="45.24689" lon="6.93463">
        <ele>2078.51</ele>
        <time>2016-10-05T12:15:29Z</time>
      </trkpt>
      <trkpt lat="45.24663" lon="6.93519">
        <ele>2080.43</ele>
        <time>2016-10-05T12:15:34Z</time>
      </trkpt>
      <trkpt lat="45.2466" lon="6.93531">
        <ele>2080.91</ele>
        <time>2016-10-05T12:15:35Z</time>
      </trkpt>
      <trkpt lat="45.24658" lon="6.93543">
        <ele>2080.91</ele>
        <time>2016-10-05T12:15:36Z</time>
      </trkpt>
      <trkpt lat="45.24656" lon="6.93556">
        <ele>2079.95</ele>
        <time>2016-10-05T12:15:37Z</time>
      </trkpt>
      <trkpt lat="45.24655" lon="6.93568">
        <ele>2079.47</ele>
        <time>2016-10-05T12:15:38Z</time>
      </trkpt>
      <trkpt lat="45.24647" lon="6.93737">
        <ele>2079.95</ele>
        <time>2016-10-05T12:15:52Z</time>
      </trkpt>
      <trkpt lat="45.24646" lon="6.93747">
        <ele>2080.43</ele>
        <time>2016-10-05T12:15:53Z</time>
      </trkpt>
      <trkpt lat="45.24643" lon="6.93758">
        <ele>2080.91</ele>
        <time>2016-10-05T12:15:54Z</time>
      </trkpt>
      <trkpt lat="45.2464" lon="6.93767">
        <ele>2080.91</ele>
        <time>2016-10-05T12:15:55Z</time>
      </trkpt>
      <trkpt lat="45.24637" lon="6.93777">
        <ele>2080.91</ele>
        <time>2016-10-05T12:15:56Z</time>
      </trkpt>
      <trkpt lat="45.24633" lon="6.93786">
        <ele>2079.95</ele>
        <time>2016-10-05T12:15:57Z</time>
      </trkpt>
      <trkpt lat="45.24629" lon="6.93794">
        <ele>2080.43</ele>
        <time>2016-10-05T12:15:58Z</time>
      </trkpt>
      <trkpt lat="45.24624" lon="6.93802">
        <ele>2080.91</ele>
        <time>2016-10-05T12:15:59Z</time>
      </trkpt>
      <trkpt lat="45.24546" lon="6.93914">
        <ele>2081.39</ele>
        <time>2016-10-05T12:16:16Z</time>
      </trkpt>
      <trkpt lat="45.24494" lon="6.94002">
        <ele>2081.39</ele>
        <time>2016-10-05T12:16:32Z</time>
      </trkpt>
      <trkpt lat="45.24492" lon="6.94004">
        <ele>2082.35</ele>
        <time>2016-10-05T12:16:42Z</time>
      </trkpt>
      <trkpt lat="45.24493" lon="6.94005">
        <ele>2082.35</ele>
        <time>2016-10-05T12:17:15Z</time>
      </trkpt>
      <trkpt lat="45.24492" lon="6.94007">
        <ele>2082.35</ele>
        <time>2016-10-05T12:17:56Z</time>
      </trkpt>
      <trkpt lat="45.24491" lon="6.94006">
        <ele>2082.35</ele>
        <time>2016-10-05T12:18:31Z</time>
      </trkpt>
      <trkpt lat="45.24491" lon="6.94004">
        <ele>2081.87</ele>
        <time>2016-10-05T12:19:01Z</time>
      </trkpt>
      <trkpt lat="45.24491" lon="6.94007">
        <ele>2081.39</ele>
        <time>2016-10-05T12:19:17Z</time>
      </trkpt>
      <trkpt lat="45.2449" lon="6.94009">
        <ele>2080.91</ele>
        <time>2016-10-05T12:19:18Z</time>
      </trkpt>
      <trkpt lat="45.24489" lon="6.94012">
        <ele>2081.87</ele>
        <time>2016-10-05T12:19:19Z</time>
      </trkpt>
      <trkpt lat="45.24487" lon="6.94014">
        <ele>2082.35</ele>
        <time>2016-10-05T12:19:20Z</time>
      </trkpt>
      <trkpt lat="45.24486" lon="6.94017">
        <ele>2082.35</ele>
        <time>2016-10-05T12:19:21Z</time>
      </trkpt>
      <trkpt lat="45.24485" lon="6.94021">
        <ele>2081.39</ele>
        <time>2016-10-05T12:19:22Z</time>
      </trkpt>
      <trkpt lat="45.24451" lon="6.9409">
        <ele>2082.35</ele>
        <time>2016-10-05T12:19:38Z</time>
      </trkpt>
      <trkpt lat="45.24401" lon="6.94194">
        <ele>2085.24</ele>
        <time>2016-10-05T12:19:59Z</time>
      </trkpt>
      <trkpt lat="45.24363" lon="6.94308">
        <ele>2086.2</ele>
        <time>2016-10-05T12:20:21Z</time>
      </trkpt>
      <trkpt lat="45.2433" lon="6.94423">
        <ele>2086.68</ele>
        <time>2016-10-05T12:20:40Z</time>
      </trkpt>
      <trkpt lat="45.24301" lon="6.94526">
        <ele>2088.6</ele>
        <time>2016-10-05T12:20:59Z</time>
      </trkpt>
      <trkpt lat="45.24294" lon="6.94617">
        <ele>2091.49</ele>
        <time>2016-10-05T12:21:19Z</time>
      </trkpt>
      <trkpt lat="45.24307" lon="6.94684">
        <ele>2092.93</ele>
        <time>2016-10-05T12:21:35Z</time>
      </trkpt>
      <trkpt lat="45.24325" lon="6.9475">
        <ele>2094.37</ele>
        <time>2016-10-05T12:21:52Z</time>
      </trkpt>
      <trkpt lat="45.24337" lon="6.9483">
        <ele>2096.77</ele>
        <time>2016-10-05T12:22:10Z</time>
      </trkpt>
      <trkpt lat="45.24336" lon="6.94883">
        <ele>2097.25</ele>
        <time>2016-10-05T12:22:20Z</time>
      </trkpt>
      <trkpt lat="45.24334" lon="6.94888">
        <ele>2096.77</ele>
        <time>2016-10-05T12:22:21Z</time>
      </trkpt>
      <trkpt lat="45.24332" lon="6.94893">
        <ele>2097.25</ele>
        <time>2016-10-05T12:22:22Z</time>
      </trkpt>
      <trkpt lat="45.24295" lon="6.94922">
        <ele>2099.18</ele>
        <time>2016-10-05T12:22:36Z</time>
      </trkpt>
      <trkpt lat="45.2428" lon="6.94916">
        <ele>2100.14</ele>
        <time>2016-10-05T12:22:42Z</time>
      </trkpt>
      <trkpt lat="45.24271" lon="6.94911">
        <ele>2100.14</ele>
        <time>2016-10-05T12:22:46Z</time>
      </trkpt>
      <trkpt lat="45.24271" lon="6.9491">
        <ele>2100.14</ele>
        <time>2016-10-05T12:22:47Z</time>
      </trkpt>
      <trkpt lat="45.24271" lon="6.94908">
        <ele>2100.14</ele>
        <time>2016-10-05T12:23:00Z</time>
      </trkpt>
      <trkpt lat="45.24267" lon="6.94904">
        <ele>2101.1</ele>
        <time>2016-10-05T12:23:12Z</time>
      </trkpt>
      <trkpt lat="45.24243" lon="6.94916">
        <ele>2102.06</ele>
        <time>2016-10-05T12:23:24Z</time>
      </trkpt>
      <trkpt lat="45.24203" lon="6.94968">
        <ele>2101.58</ele>
        <time>2016-10-05T12:23:42Z</time>
      </trkpt>
      <trkpt lat="45.24148" lon="6.95036">
        <ele>2099.66</ele>
        <time>2016-10-05T12:24:00Z</time>
      </trkpt>
      <trkpt lat="45.24071" lon="6.95109">
        <ele>2097.73</ele>
        <time>2016-10-05T12:24:16Z</time>
      </trkpt>
      <trkpt lat="45.24051" lon="6.95125">
        <ele>2096.29</ele>
        <time>2016-10-05T12:24:20Z</time>
      </trkpt>
      <trkpt lat="45.24042" lon="6.95129">
        <ele>2096.29</ele>
        <time>2016-10-05T12:24:23Z</time>
      </trkpt>
      <trkpt lat="45.24031" lon="6.95127">
        <ele>2096.29</ele>
        <time>2016-10-05T12:24:37Z</time>
      </trkpt>
      <trkpt lat="45.24029" lon="6.95129">
        <ele>2096.29</ele>
        <time>2016-10-05T12:24:42Z</time>
      </trkpt>
      <trkpt lat="45.24028" lon="6.95131">
        <ele>2096.29</ele>
        <time>2016-10-05T12:24:43Z</time>
      </trkpt>
      <trkpt lat="45.23998" lon="6.95172">
        <ele>2095.81</ele>
        <time>2016-10-05T12:24:58Z</time>
      </trkpt>
      <trkpt lat="45.23951" lon="6.9522">
        <ele>2096.77</ele>
        <time>2016-10-05T12:25:13Z</time>
      </trkpt>
      <trkpt lat="45.23917" lon="6.95259">
        <ele>2097.73</ele>
        <time>2016-10-05T12:25:24Z</time>
      </trkpt>
      <trkpt lat="45.23895" lon="6.95306">
        <ele>2097.25</ele>
        <time>2016-10-05T12:25:33Z</time>
      </trkpt>
      <trkpt lat="45.23892" lon="6.95311">
        <ele>2097.73</ele>
        <time>2016-10-05T12:25:34Z</time>
      </trkpt>
      <trkpt lat="45.23888" lon="6.95316">
        <ele>2097.73</ele>
        <time>2016-10-05T12:25:35Z</time>
      </trkpt>
      <trkpt lat="45.23885" lon="6.95321">
        <ele>2096.77</ele>
        <time>2016-10-05T12:25:36Z</time>
      </trkpt>
      <trkpt lat="45.23881" lon="6.95324">
        <ele>2097.73</ele>
        <time>2016-10-05T12:25:37Z</time>
      </trkpt>
      <trkpt lat="45.23877" lon="6.95327">
        <ele>2097.73</ele>
        <time>2016-10-05T12:25:38Z</time>
      </trkpt>
      <trkpt lat="45.23872" lon="6.95329">
        <ele>2097.25</ele>
        <time>2016-10-05T12:25:39Z</time>
      </trkpt>
      <trkpt lat="45.23868" lon="6.9533">
        <ele>2097.25</ele>
        <time>2016-10-05T12:25:40Z</time>
      </trkpt>
      <trkpt lat="45.23863" lon="6.9533">
        <ele>2097.25</ele>
        <time>2016-10-05T12:25:41Z</time>
      </trkpt>
      <trkpt lat="45.23859" lon="6.9533">
        <ele>2096.77</ele>
        <time>2016-10-05T12:25:42Z</time>
      </trkpt>
      <trkpt lat="45.23855" lon="6.95329">
        <ele>2096.77</ele>
        <time>2016-10-05T12:25:43Z</time>
      </trkpt>
      <trkpt lat="45.2385" lon="6.95328">
        <ele>2098.21</ele>
        <time>2016-10-05T12:25:44Z</time>
      </trkpt>
      <trkpt lat="45.2382" lon="6.95324">
        <ele>2099.18</ele>
        <time>2016-10-05T12:25:51Z</time>
      </trkpt>
      <trkpt lat="45.23816" lon="6.95325">
        <ele>2099.18</ele>
        <time>2016-10-05T12:25:52Z</time>
      </trkpt>
      <trkpt lat="45.23812" lon="6.95327">
        <ele>2098.21</ele>
        <time>2016-10-05T12:25:53Z</time>
      </trkpt>
      <trkpt lat="45.23809" lon="6.9533">
        <ele>2099.18</ele>
        <time>2016-10-05T12:25:54Z</time>
      </trkpt>
      <trkpt lat="45.23806" lon="6.95332">
        <ele>2099.18</ele>
        <time>2016-10-05T12:25:55Z</time>
      </trkpt>
      <trkpt lat="45.23803" lon="6.95335">
        <ele>2099.66</ele>
        <time>2016-10-05T12:25:56Z</time>
      </trkpt>
      <trkpt lat="45.238" lon="6.95339">
        <ele>2098.7</ele>
        <time>2016-10-05T12:25:57Z</time>
      </trkpt>
      <trkpt lat="45.23777" lon="6.95372">
        <ele>2098.7</ele>
        <time>2016-10-05T12:26:04Z</time>
      </trkpt>
      <trkpt lat="45.23769" lon="6.95379">
        <ele>2097.73</ele>
        <time>2016-10-05T12:26:06Z</time>
      </trkpt>
      <trkpt lat="45.23764" lon="6.95381">
        <ele>2098.7</ele>
        <time>2016-10-05T12:26:07Z</time>
      </trkpt>
      <trkpt lat="45.23707" lon="6.95413">
        <ele>2099.18</ele>
        <time>2016-10-05T12:26:19Z</time>
      </trkpt>
      <trkpt lat="45.23634" lon="6.95477">
        <ele>2097.25</ele>
        <time>2016-10-05T12:26:34Z</time>
      </trkpt>
      <trkpt lat="45.23619" lon="6.95493">
        <ele>2096.29</ele>
        <time>2016-10-05T12:26:37Z</time>
      </trkpt>
      <trkpt lat="45.23592" lon="6.95516">
        <ele>2096.77</ele>
        <time>2016-10-05T12:26:42Z</time>
      </trkpt>
      <trkpt lat="45.23585" lon="6.95519">
        <ele>2096.29</ele>
        <time>2016-10-05T12:26:43Z</time>
      </trkpt>
      <trkpt lat="45.23579" lon="6.95521">
        <ele>2095.33</ele>
        <time>2016-10-05T12:26:44Z</time>
      </trkpt>
      <trkpt lat="45.23561" lon="6.95527">
        <ele>2096.77</ele>
        <time>2016-10-05T12:26:47Z</time>
      </trkpt>
      <trkpt lat="45.23549" lon="6.95533">
        <ele>2097.73</ele>
        <time>2016-10-05T12:26:49Z</time>
      </trkpt>
      <trkpt lat="45.23543" lon="6.95537">
        <ele>2097.25</ele>
        <time>2016-10-05T12:26:50Z</time>
      </trkpt>
      <trkpt lat="45.23538" lon="6.95542">
        <ele>2096.77</ele>
        <time>2016-10-05T12:26:51Z</time>
      </trkpt>
      <trkpt lat="45.23463" lon="6.95611">
        <ele>2093.89</ele>
        <time>2016-10-05T12:27:04Z</time>
      </trkpt>
      <trkpt lat="45.2344" lon="6.95625">
        <ele>2092.45</ele>
        <time>2016-10-05T12:27:07Z</time>
      </trkpt>
      <trkpt lat="45.23427" lon="6.95632">
        <ele>2090.52</ele>
        <time>2016-10-05T12:27:09Z</time>
      </trkpt>
      <trkpt lat="45.23411" lon="6.95638">
        <ele>2089.08</ele>
        <time>2016-10-05T12:27:16Z</time>
      </trkpt>
      <trkpt lat="45.23408" lon="6.95638">
        <ele>2089.08</ele>
        <time>2016-10-05T12:27:45Z</time>
      </trkpt>
      <trkpt lat="45.23374" lon="6.95663">
        <ele>2087.16</ele>
        <time>2016-10-05T12:27:55Z</time>
      </trkpt>
      <trkpt lat="45.23347" lon="6.95681">
        <ele>2083.79</ele>
        <time>2016-10-05T12:27:59Z</time>
      </trkpt>
      <trkpt lat="45.23323" lon="6.95698">
        <ele>2081.87</ele>
        <time>2016-10-05T12:28:02Z</time>
      </trkpt>
      <trkpt lat="45.23287" lon="6.9572">
        <ele>2078.03</ele>
        <time>2016-10-05T12:28:06Z</time>
      </trkpt>
      <trkpt lat="45.23226" lon="6.95751">
        <ele>2075.14</ele>
        <time>2016-10-05T12:28:12Z</time>
      </trkpt>
      <trkpt lat="45.23205" lon="6.95767">
        <ele>2073.7</ele>
        <time>2016-10-05T12:28:14Z</time>
      </trkpt>
      <trkpt lat="45.23196" lon="6.95777">
        <ele>2072.26</ele>
        <time>2016-10-05T12:28:15Z</time>
      </trkpt>
      <trkpt lat="45.23186" lon="6.95788">
        <ele>2072.26</ele>
        <time>2016-10-05T12:28:16Z</time>
      </trkpt>
      <trkpt lat="45.23147" lon="6.95833">
        <ele>2068.41</ele>
        <time>2016-10-05T12:28:20Z</time>
      </trkpt>
      <trkpt lat="45.23137" lon="6.95841">
        <ele>2065.53</ele>
        <time>2016-10-05T12:28:21Z</time>
      </trkpt>
      <trkpt lat="45.23126" lon="6.95848">
        <ele>2065.05</ele>
        <time>2016-10-05T12:28:22Z</time>
      </trkpt>
      <trkpt lat="45.2308" lon="6.95871">
        <ele>2062.17</ele>
        <time>2016-10-05T12:28:26Z</time>
      </trkpt>
      <trkpt lat="45.23048" lon="6.95889">
        <ele>2060.72</ele>
        <time>2016-10-05T12:28:29Z</time>
      </trkpt>
      <trkpt lat="45.23017" lon="6.95912">
        <ele>2058.8</ele>
        <time>2016-10-05T12:28:32Z</time>
      </trkpt>
      <trkpt lat="45.22999" lon="6.9593">
        <ele>2056.4</ele>
        <time>2016-10-05T12:28:34Z</time>
      </trkpt>
      <trkpt lat="45.22991" lon="6.95943">
        <ele>2054.96</ele>
        <time>2016-10-05T12:28:35Z</time>
      </trkpt>
      <trkpt lat="45.22984" lon="6.95956">
        <ele>2053.99</ele>
        <time>2016-10-05T12:28:36Z</time>
      </trkpt>
      <trkpt lat="45.22977" lon="6.9597">
        <ele>2053.99</ele>
        <time>2016-10-05T12:28:37Z</time>
      </trkpt>
      <trkpt lat="45.22956" lon="6.96015">
        <ele>2050.63</ele>
        <time>2016-10-05T12:28:40Z</time>
      </trkpt>
      <trkpt lat="45.22918" lon="6.96092">
        <ele>2047.26</ele>
        <time>2016-10-05T12:28:45Z</time>
      </trkpt>
      <trkpt lat="45.22895" lon="6.9614">
        <ele>2043.9</ele>
        <time>2016-10-05T12:28:48Z</time>
      </trkpt>
      <trkpt lat="45.22887" lon="6.96156">
        <ele>2043.9</ele>
        <time>2016-10-05T12:28:49Z</time>
      </trkpt>
      <trkpt lat="45.22862" lon="6.96204">
        <ele>2041.98</ele>
        <time>2016-10-05T12:28:52Z</time>
      </trkpt>
      <trkpt lat="45.22838" lon="6.96253">
        <ele>2038.61</ele>
        <time>2016-10-05T12:28:55Z</time>
      </trkpt>
      <trkpt lat="45.2283" lon="6.9627">
        <ele>2039.09</ele>
        <time>2016-10-05T12:28:56Z</time>
      </trkpt>
      <trkpt lat="45.22816" lon="6.96304">
        <ele>2036.69</ele>
        <time>2016-10-05T12:28:58Z</time>
      </trkpt>
      <trkpt lat="45.228" lon="6.96335">
        <ele>2034.77</ele>
        <time>2016-10-05T12:29:00Z</time>
      </trkpt>
      <trkpt lat="45.22792" lon="6.96348">
        <ele>2034.29</ele>
        <time>2016-10-05T12:29:01Z</time>
      </trkpt>
      <trkpt lat="45.22783" lon="6.96359">
        <ele>2033.81</ele>
        <time>2016-10-05T12:29:02Z</time>
      </trkpt>
      <trkpt lat="45.22758" lon="6.96388">
        <ele>2038.13</ele>
        <time>2016-10-05T12:29:05Z</time>
      </trkpt>
      <trkpt lat="45.2275" lon="6.96397">
        <ele>2037.65</ele>
        <time>2016-10-05T12:29:06Z</time>
      </trkpt>
      <trkpt lat="45.22719" lon="6.96434">
        <ele>2040.54</ele>
        <time>2016-10-05T12:29:11Z</time>
      </trkpt>
      <trkpt lat="45.22714" lon="6.9644">
        <ele>2040.54</ele>
        <time>2016-10-05T12:29:12Z</time>
      </trkpt>
      <trkpt lat="45.22703" lon="6.96458">
        <ele>2043.42</ele>
        <time>2016-10-05T12:29:15Z</time>
      </trkpt>
      <trkpt lat="45.22687" lon="6.96487">
        <ele>2045.34</ele>
        <time>2016-10-05T12:29:21Z</time>
      </trkpt>
      <trkpt lat="45.22664" lon="6.96539">
        <ele>2048.71</ele>
        <time>2016-10-05T12:29:37Z</time>
      </trkpt>
      <trkpt lat="45.22654" lon="6.96582">
        <ele>2051.59</ele>
        <time>2016-10-05T12:29:50Z</time>
      </trkpt>
      <trkpt lat="45.22642" lon="6.96652">
        <ele>2052.07</ele>
        <time>2016-10-05T12:30:12Z</time>
      </trkpt>
      <trkpt lat="45.22619" lon="6.96704">
        <ele>2055.44</ele>
        <time>2016-10-05T12:30:30Z</time>
      </trkpt>
      <trkpt lat="45.22596" lon="6.96742">
        <ele>2057.36</ele>
        <time>2016-10-05T12:30:45Z</time>
      </trkpt>
      <trkpt lat="45.22568" lon="6.9679">
        <ele>2059.28</ele>
        <time>2016-10-05T12:31:04Z</time>
      </trkpt>
      <trkpt lat="45.22531" lon="6.96834">
        <ele>2061.2</ele>
        <time>2016-10-05T12:31:22Z</time>
      </trkpt>
      <trkpt lat="45.22526" lon="6.96839">
        <ele>2061.68</ele>
        <time>2016-10-05T12:31:24Z</time>
      </trkpt>
      <trkpt lat="45.22466" lon="6.96875">
        <ele>2062.17</ele>
        <time>2016-10-05T12:31:43Z</time>
      </trkpt>
      <trkpt lat="45.22428" lon="6.96887">
        <ele>2062.17</ele>
        <time>2016-10-05T12:31:51Z</time>
      </trkpt>
      <trkpt lat="45.22358" lon="6.96895">
        <ele>2058.32</ele>
        <time>2016-10-05T12:32:02Z</time>
      </trkpt>
      <trkpt lat="45.2232" lon="6.96891">
        <ele>2054.96</ele>
        <time>2016-10-05T12:32:07Z</time>
      </trkpt>
      <trkpt lat="45.22312" lon="6.96891">
        <ele>2054.47</ele>
        <time>2016-10-05T12:32:08Z</time>
      </trkpt>
      <trkpt lat="45.22295" lon="6.96888">
        <ele>2053.03</ele>
        <time>2016-10-05T12:32:10Z</time>
      </trkpt>
      <trkpt lat="45.22238" lon="6.96869">
        <ele>2047.75</ele>
        <time>2016-10-05T12:32:16Z</time>
      </trkpt>
      <trkpt lat="45.22229" lon="6.96865">
        <ele>2048.71</ele>
        <time>2016-10-05T12:32:17Z</time>
      </trkpt>
      <trkpt lat="45.22192" lon="6.96849">
        <ele>2045.34</ele>
        <time>2016-10-05T12:32:21Z</time>
      </trkpt>
      <trkpt lat="45.22111" lon="6.9684">
        <ele>2041.02</ele>
        <time>2016-10-05T12:32:29Z</time>
      </trkpt>
      <trkpt lat="45.22077" lon="6.96841">
        <ele>2039.09</ele>
        <time>2016-10-05T12:32:32Z</time>
      </trkpt>
      <trkpt lat="45.22031" lon="6.96848">
        <ele>2036.21</ele>
        <time>2016-10-05T12:32:36Z</time>
      </trkpt>
      <trkpt lat="45.2202" lon="6.96852">
        <ele>2035.25</ele>
        <time>2016-10-05T12:32:37Z</time>
      </trkpt>
      <trkpt lat="45.2201" lon="6.96858">
        <ele>2035.25</ele>
        <time>2016-10-05T12:32:38Z</time>
      </trkpt>
      <trkpt lat="45.22" lon="6.96865">
        <ele>2035.25</ele>
        <time>2016-10-05T12:32:39Z</time>
      </trkpt>
      <trkpt lat="45.21971" lon="6.96885">
        <ele>2031.88</ele>
        <time>2016-10-05T12:32:42Z</time>
      </trkpt>
      <trkpt lat="45.2196" lon="6.9689">
        <ele>2029</ele>
        <time>2016-10-05T12:32:43Z</time>
      </trkpt>
      <trkpt lat="45.21949" lon="6.96892">
        <ele>2029</ele>
        <time>2016-10-05T12:32:44Z</time>
      </trkpt>
      <trkpt lat="45.21938" lon="6.96892">
        <ele>2028.52</ele>
        <time>2016-10-05T12:32:45Z</time>
      </trkpt>
      <trkpt lat="45.21927" lon="6.96891">
        <ele>2027.08</ele>
        <time>2016-10-05T12:32:46Z</time>
      </trkpt>
      <trkpt lat="45.21915" lon="6.96889">
        <ele>2025.64</ele>
        <time>2016-10-05T12:32:47Z</time>
      </trkpt>
      <trkpt lat="45.21904" lon="6.96888">
        <ele>2026.6</ele>
        <time>2016-10-05T12:32:48Z</time>
      </trkpt>
      <trkpt lat="45.21891" lon="6.96888">
        <ele>2027.56</ele>
        <time>2016-10-05T12:32:49Z</time>
      </trkpt>
      <trkpt lat="45.21867" lon="6.96892">
        <ele>2023.71</ele>
        <time>2016-10-05T12:32:51Z</time>
      </trkpt>
      <trkpt lat="45.21829" lon="6.96899">
        <ele>2019.87</ele>
        <time>2016-10-05T12:32:54Z</time>
      </trkpt>
      <trkpt lat="45.21775" lon="6.96896">
        <ele>2016.5</ele>
        <time>2016-10-05T12:32:58Z</time>
      </trkpt>
      <trkpt lat="45.21738" lon="6.96888">
        <ele>2013.14</ele>
        <time>2016-10-05T12:33:01Z</time>
      </trkpt>
      <trkpt lat="45.21683" lon="6.9688">
        <ele>2010.25</ele>
        <time>2016-10-05T12:33:06Z</time>
      </trkpt>
      <trkpt lat="45.21673" lon="6.96882">
        <ele>2008.81</ele>
        <time>2016-10-05T12:33:07Z</time>
      </trkpt>
      <trkpt lat="45.21663" lon="6.96885">
        <ele>2008.33</ele>
        <time>2016-10-05T12:33:08Z</time>
      </trkpt>
      <trkpt lat="45.21653" lon="6.96889">
        <ele>2007.85</ele>
        <time>2016-10-05T12:33:09Z</time>
      </trkpt>
      <trkpt lat="45.21644" lon="6.96894">
        <ele>2009.77</ele>
        <time>2016-10-05T12:33:10Z</time>
      </trkpt>
      <trkpt lat="45.21627" lon="6.96901">
        <ele>2005.45</ele>
        <time>2016-10-05T12:33:12Z</time>
      </trkpt>
      <trkpt lat="45.21619" lon="6.96901">
        <ele>2003.52</ele>
        <time>2016-10-05T12:33:13Z</time>
      </trkpt>
      <trkpt lat="45.21612" lon="6.969">
        <ele>2003.52</ele>
        <time>2016-10-05T12:33:14Z</time>
      </trkpt>
      <trkpt lat="45.21607" lon="6.96895">
        <ele>2002.08</ele>
        <time>2016-10-05T12:33:15Z</time>
      </trkpt>
      <trkpt lat="45.21604" lon="6.96888">
        <ele>2002.08</ele>
        <time>2016-10-05T12:33:16Z</time>
      </trkpt>
      <trkpt lat="45.21602" lon="6.96879">
        <ele>2002.56</ele>
        <time>2016-10-05T12:33:17Z</time>
      </trkpt>
      <trkpt lat="45.21604" lon="6.9687">
        <ele>2002.56</ele>
        <time>2016-10-05T12:33:18Z</time>
      </trkpt>
      <trkpt lat="45.21608" lon="6.96863">
        <ele>2003.04</ele>
        <time>2016-10-05T12:33:19Z</time>
      </trkpt>
      <trkpt lat="45.21614" lon="6.96858">
        <ele>2002.08</ele>
        <time>2016-10-05T12:33:20Z</time>
      </trkpt>
      <trkpt lat="45.21621" lon="6.96855">
        <ele>2001.12</ele>
        <time>2016-10-05T12:33:21Z</time>
      </trkpt>
      <trkpt lat="45.21628" lon="6.96852">
        <ele>2001.12</ele>
        <time>2016-10-05T12:33:22Z</time>
      </trkpt>
      <trkpt lat="45.21659" lon="6.96836">
        <ele>2002.56</ele>
        <time>2016-10-05T12:33:26Z</time>
      </trkpt>
      <trkpt lat="45.21666" lon="6.96829">
        <ele>1998.72</ele>
        <time>2016-10-05T12:33:27Z</time>
      </trkpt>
      <trkpt lat="45.21672" lon="6.96822">
        <ele>1998.72</ele>
        <time>2016-10-05T12:33:28Z</time>
      </trkpt>
      <trkpt lat="45.21679" lon="6.96813">
        <ele>1998.24</ele>
        <time>2016-10-05T12:33:29Z</time>
      </trkpt>
      <trkpt lat="45.21684" lon="6.96803">
        <ele>1997.76</ele>
        <time>2016-10-05T12:33:30Z</time>
      </trkpt>
      <trkpt lat="45.21706" lon="6.96762">
        <ele>1996.32</ele>
        <time>2016-10-05T12:33:34Z</time>
      </trkpt>
      <trkpt lat="45.21713" lon="6.96754">
        <ele>1995.35</ele>
        <time>2016-10-05T12:33:35Z</time>
      </trkpt>
      <trkpt lat="45.21721" lon="6.96749">
        <ele>1993.91</ele>
        <time>2016-10-05T12:33:36Z</time>
      </trkpt>
      <trkpt lat="45.2173" lon="6.96747">
        <ele>1993.91</ele>
        <time>2016-10-05T12:33:37Z</time>
      </trkpt>
      <trkpt lat="45.21739" lon="6.96747">
        <ele>1992.95</ele>
        <time>2016-10-05T12:33:38Z</time>
      </trkpt>
      <trkpt lat="45.21748" lon="6.96749">
        <ele>1991.03</ele>
        <time>2016-10-05T12:33:39Z</time>
      </trkpt>
      <trkpt lat="45.21758" lon="6.96752">
        <ele>1991.03</ele>
        <time>2016-10-05T12:33:40Z</time>
      </trkpt>
      <trkpt lat="45.21807" lon="6.96766">
        <ele>1987.18</ele>
        <time>2016-10-05T12:33:45Z</time>
      </trkpt>
      <trkpt lat="45.21827" lon="6.96771">
        <ele>1985.74</ele>
        <time>2016-10-05T12:33:47Z</time>
      </trkpt>
      <trkpt lat="45.21837" lon="6.96771">
        <ele>1984.3</ele>
        <time>2016-10-05T12:33:48Z</time>
      </trkpt>
      <trkpt lat="45.21847" lon="6.9677">
        <ele>1982.86</ele>
        <time>2016-10-05T12:33:49Z</time>
      </trkpt>
      <trkpt lat="45.21857" lon="6.96768">
        <ele>1984.3</ele>
        <time>2016-10-05T12:33:50Z</time>
      </trkpt>
      <trkpt lat="45.21867" lon="6.96765">
        <ele>1982.86</ele>
        <time>2016-10-05T12:33:51Z</time>
      </trkpt>
      <trkpt lat="45.21876" lon="6.96762">
        <ele>1985.26</ele>
        <time>2016-10-05T12:33:52Z</time>
      </trkpt>
      <trkpt lat="45.21886" lon="6.96758">
        <ele>1980.93</ele>
        <time>2016-10-05T12:33:53Z</time>
      </trkpt>
      <trkpt lat="45.21903" lon="6.96752">
        <ele>1978.53</ele>
        <time>2016-10-05T12:33:55Z</time>
      </trkpt>
      <trkpt lat="45.21911" lon="6.9675">
        <ele>1978.05</ele>
        <time>2016-10-05T12:33:56Z</time>
      </trkpt>
      <trkpt lat="45.21942" lon="6.96745">
        <ele>1976.13</ele>
        <time>2016-10-05T12:34:00Z</time>
      </trkpt>
      <trkpt lat="45.21949" lon="6.9674">
        <ele>1976.61</ele>
        <time>2016-10-05T12:34:01Z</time>
      </trkpt>
      <trkpt lat="45.21955" lon="6.96733">
        <ele>1977.09</ele>
        <time>2016-10-05T12:34:02Z</time>
      </trkpt>
      <trkpt lat="45.21958" lon="6.96724">
        <ele>1979.49</ele>
        <time>2016-10-05T12:34:03Z</time>
      </trkpt>
      <trkpt lat="45.21959" lon="6.96715">
        <ele>1979.49</ele>
        <time>2016-10-05T12:34:04Z</time>
      </trkpt>
      <trkpt lat="45.21957" lon="6.96704">
        <ele>1976.61</ele>
        <time>2016-10-05T12:34:05Z</time>
      </trkpt>
      <trkpt lat="45.21953" lon="6.96695">
        <ele>1975.17</ele>
        <time>2016-10-05T12:34:06Z</time>
      </trkpt>
      <trkpt lat="45.21947" lon="6.9669">
        <ele>1975.17</ele>
        <time>2016-10-05T12:34:07Z</time>
      </trkpt>
      <trkpt lat="45.2194" lon="6.96688">
        <ele>1974.2</ele>
        <time>2016-10-05T12:34:08Z</time>
      </trkpt>
      <trkpt lat="45.21933" lon="6.96689">
        <ele>1974.69</ele>
        <time>2016-10-05T12:34:09Z</time>
      </trkpt>
      <trkpt lat="45.21925" lon="6.96691">
        <ele>1973.72</ele>
        <time>2016-10-05T12:34:10Z</time>
      </trkpt>
      <trkpt lat="45.21918" lon="6.96694">
        <ele>1971.8</ele>
        <time>2016-10-05T12:34:11Z</time>
      </trkpt>
      <trkpt lat="45.2191" lon="6.96696">
        <ele>1971.8</ele>
        <time>2016-10-05T12:34:12Z</time>
      </trkpt>
      <trkpt lat="45.21893" lon="6.967">
        <ele>1968.92</ele>
        <time>2016-10-05T12:34:14Z</time>
      </trkpt>
      <trkpt lat="45.21855" lon="6.967">
        <ele>1967.48</ele>
        <time>2016-10-05T12:34:18Z</time>
      </trkpt>
      <trkpt lat="45.21845" lon="6.96697">
        <ele>1967.96</ele>
        <time>2016-10-05T12:34:19Z</time>
      </trkpt>
      <trkpt lat="45.21835" lon="6.96693">
        <ele>1966.99</ele>
        <time>2016-10-05T12:34:20Z</time>
      </trkpt>
      <trkpt lat="45.21825" lon="6.96688">
        <ele>1967.96</ele>
        <time>2016-10-05T12:34:21Z</time>
      </trkpt>
      <trkpt lat="45.21815" lon="6.96683">
        <ele>1964.11</ele>
        <time>2016-10-05T12:34:22Z</time>
      </trkpt>
      <trkpt lat="45.21746" lon="6.96653">
        <ele>1962.67</ele>
        <time>2016-10-05T12:34:29Z</time>
      </trkpt>
      <trkpt lat="45.21725" lon="6.96647">
        <ele>1960.27</ele>
        <time>2016-10-05T12:34:31Z</time>
      </trkpt>
      <trkpt lat="45.21693" lon="6.96645">
        <ele>1957.38</ele>
        <time>2016-10-05T12:34:34Z</time>
      </trkpt>
      <trkpt lat="45.2167" lon="6.96647">
        <ele>1955.94</ele>
        <time>2016-10-05T12:34:36Z</time>
      </trkpt>
      <trkpt lat="45.21636" lon="6.96658">
        <ele>1953.06</ele>
        <time>2016-10-05T12:34:39Z</time>
      </trkpt>
      <trkpt lat="45.21614" lon="6.96668">
        <ele>1952.09</ele>
        <time>2016-10-05T12:34:41Z</time>
      </trkpt>
      <trkpt lat="45.21591" lon="6.96678">
        <ele>1950.17</ele>
        <time>2016-10-05T12:34:43Z</time>
      </trkpt>
      <trkpt lat="45.21507" lon="6.96702">
        <ele>1946.81</ele>
        <time>2016-10-05T12:34:50Z</time>
      </trkpt>
      <trkpt lat="45.21496" lon="6.967">
        <ele>1945.85</ele>
        <time>2016-10-05T12:34:51Z</time>
      </trkpt>
      <trkpt lat="45.21485" lon="6.96695">
        <ele>1944.88</ele>
        <time>2016-10-05T12:34:52Z</time>
      </trkpt>
      <trkpt lat="45.21474" lon="6.96688">
        <ele>1943.44</ele>
        <time>2016-10-05T12:34:53Z</time>
      </trkpt>
      <trkpt lat="45.21463" lon="6.96679">
        <ele>1942.48</ele>
        <time>2016-10-05T12:34:54Z</time>
      </trkpt>
      <trkpt lat="45.21454" lon="6.96668">
        <ele>1941.52</ele>
        <time>2016-10-05T12:34:55Z</time>
      </trkpt>
      <trkpt lat="45.21446" lon="6.96655">
        <ele>1940.08</ele>
        <time>2016-10-05T12:34:56Z</time>
      </trkpt>
      <trkpt lat="45.21439" lon="6.96641">
        <ele>1940.08</ele>
        <time>2016-10-05T12:34:57Z</time>
      </trkpt>
      <trkpt lat="45.21433" lon="6.96627">
        <ele>1938.64</ele>
        <time>2016-10-05T12:34:58Z</time>
      </trkpt>
      <trkpt lat="45.21429" lon="6.96611">
        <ele>1937.19</ele>
        <time>2016-10-05T12:34:59Z</time>
      </trkpt>
      <trkpt lat="45.21426" lon="6.96595">
        <ele>1937.67</ele>
        <time>2016-10-05T12:35:00Z</time>
      </trkpt>
      <trkpt lat="45.21425" lon="6.96578">
        <ele>1938.16</ele>
        <time>2016-10-05T12:35:01Z</time>
      </trkpt>
      <trkpt lat="45.21426" lon="6.96562">
        <ele>1937.67</ele>
        <time>2016-10-05T12:35:02Z</time>
      </trkpt>
      <trkpt lat="45.21428" lon="6.96546">
        <ele>1937.67</ele>
        <time>2016-10-05T12:35:03Z</time>
      </trkpt>
      <trkpt lat="45.21432" lon="6.96531">
        <ele>1936.71</ele>
        <time>2016-10-05T12:35:04Z</time>
      </trkpt>
      <trkpt lat="45.21438" lon="6.96516">
        <ele>1934.79</ele>
        <time>2016-10-05T12:35:05Z</time>
      </trkpt>
      <trkpt lat="45.21444" lon="6.96502">
        <ele>1934.31</ele>
        <time>2016-10-05T12:35:06Z</time>
      </trkpt>
      <trkpt lat="45.21464" lon="6.96461">
        <ele>1930.95</ele>
        <time>2016-10-05T12:35:09Z</time>
      </trkpt>
      <trkpt lat="45.21502" lon="6.9638">
        <ele>1928.54</ele>
        <time>2016-10-05T12:35:15Z</time>
      </trkpt>
      <trkpt lat="45.21521" lon="6.96341">
        <ele>1925.18</ele>
        <time>2016-10-05T12:35:18Z</time>
      </trkpt>
      <trkpt lat="45.21558" lon="6.96264">
        <ele>1921.33</ele>
        <time>2016-10-05T12:35:24Z</time>
      </trkpt>
      <trkpt lat="45.21575" lon="6.96229">
        <ele>1919.41</ele>
        <time>2016-10-05T12:35:27Z</time>
      </trkpt>
      <trkpt lat="45.21585" lon="6.96207">
        <ele>1917.49</ele>
        <time>2016-10-05T12:35:29Z</time>
      </trkpt>
      <trkpt lat="45.21613" lon="6.96151">
        <ele>1913.16</ele>
        <time>2016-10-05T12:35:34Z</time>
      </trkpt>
      <trkpt lat="45.21619" lon="6.9614">
        <ele>1913.64</ele>
        <time>2016-10-05T12:35:35Z</time>
      </trkpt>
      <trkpt lat="45.21678" lon="6.96059">
        <ele>1909.32</ele>
        <time>2016-10-05T12:35:43Z</time>
      </trkpt>
      <trkpt lat="45.21693" lon="6.96039">
        <ele>1905.47</ele>
        <time>2016-10-05T12:35:45Z</time>
      </trkpt>
      <trkpt lat="45.21701" lon="6.96029">
        <ele>1906.43</ele>
        <time>2016-10-05T12:35:46Z</time>
      </trkpt>
      <trkpt lat="45.21716" lon="6.96009">
        <ele>1903.07</ele>
        <time>2016-10-05T12:35:48Z</time>
      </trkpt>
      <trkpt lat="45.21724" lon="6.95998">
        <ele>1902.59</ele>
        <time>2016-10-05T12:35:49Z</time>
      </trkpt>
      <trkpt lat="45.21749" lon="6.95966">
        <ele>1899.22</ele>
        <time>2016-10-05T12:35:52Z</time>
      </trkpt>
      <trkpt lat="45.21789" lon="6.95912">
        <ele>1894.42</ele>
        <time>2016-10-05T12:35:57Z</time>
      </trkpt>
      <trkpt lat="45.21811" lon="6.95882">
        <ele>1891.05</ele>
        <time>2016-10-05T12:36:00Z</time>
      </trkpt>
      <trkpt lat="45.21849" lon="6.95822">
        <ele>1887.21</ele>
        <time>2016-10-05T12:36:06Z</time>
      </trkpt>
      <trkpt lat="45.21854" lon="6.95811">
        <ele>1887.21</ele>
        <time>2016-10-05T12:36:07Z</time>
      </trkpt>
      <trkpt lat="45.21867" lon="6.9578">
        <ele>1885.28</ele>
        <time>2016-10-05T12:36:10Z</time>
      </trkpt>
      <trkpt lat="45.21879" lon="6.95754">
        <ele>1884.32</ele>
        <time>2016-10-05T12:36:13Z</time>
      </trkpt>
      <trkpt lat="45.21887" lon="6.9574">
        <ele>1883.84</ele>
        <time>2016-10-05T12:36:15Z</time>
      </trkpt>
      <trkpt lat="45.21892" lon="6.95734">
        <ele>1883.84</ele>
        <time>2016-10-05T12:36:16Z</time>
      </trkpt>
      <trkpt lat="45.21897" lon="6.9573">
        <ele>1884.8</ele>
        <time>2016-10-05T12:36:17Z</time>
      </trkpt>
      <trkpt lat="45.21901" lon="6.95726">
        <ele>1885.76</ele>
        <time>2016-10-05T12:36:18Z</time>
      </trkpt>
      <trkpt lat="45.21906" lon="6.95723">
        <ele>1886.72</ele>
        <time>2016-10-05T12:36:19Z</time>
      </trkpt>
      <trkpt lat="45.21914" lon="6.95717">
        <ele>1884.8</ele>
        <time>2016-10-05T12:36:21Z</time>
      </trkpt>
      <trkpt lat="45.21918" lon="6.95714">
        <ele>1884.32</ele>
        <time>2016-10-05T12:36:22Z</time>
      </trkpt>
      <trkpt lat="45.21921" lon="6.9571">
        <ele>1884.8</ele>
        <time>2016-10-05T12:36:23Z</time>
      </trkpt>
      <trkpt lat="45.21924" lon="6.95705">
        <ele>1884.8</ele>
        <time>2016-10-05T12:36:24Z</time>
      </trkpt>
      <trkpt lat="45.21926" lon="6.95701">
        <ele>1885.28</ele>
        <time>2016-10-05T12:36:25Z</time>
      </trkpt>
      <trkpt lat="45.21927" lon="6.95696">
        <ele>1885.28</ele>
        <time>2016-10-05T12:36:26Z</time>
      </trkpt>
      <trkpt lat="45.21927" lon="6.95692">
        <ele>1885.28</ele>
        <time>2016-10-05T12:36:27Z</time>
      </trkpt>
      <trkpt lat="45.21926" lon="6.95688">
        <ele>1884.32</ele>
        <time>2016-10-05T12:36:28Z</time>
      </trkpt>
      <trkpt lat="45.21923" lon="6.95685">
        <ele>1883.84</ele>
        <time>2016-10-05T12:36:29Z</time>
      </trkpt>
      <trkpt lat="45.2192" lon="6.95685">
        <ele>1883.84</ele>
        <time>2016-10-05T12:36:30Z</time>
      </trkpt>
      <trkpt lat="45.21917" lon="6.95686">
        <ele>1883.84</ele>
        <time>2016-10-05T12:36:31Z</time>
      </trkpt>
      <trkpt lat="45.21914" lon="6.95688">
        <ele>1884.32</ele>
        <time>2016-10-05T12:36:32Z</time>
      </trkpt>
      <trkpt lat="45.21911" lon="6.95691">
        <ele>1884.32</ele>
        <time>2016-10-05T12:36:33Z</time>
      </trkpt>
      <trkpt lat="45.21909" lon="6.95694">
        <ele>1883.84</ele>
        <time>2016-10-05T12:36:34Z</time>
      </trkpt>
      <trkpt lat="45.21907" lon="6.95698">
        <ele>1883.84</ele>
        <time>2016-10-05T12:36:35Z</time>
      </trkpt>
      <trkpt lat="45.21877" lon="6.95713">
        <ele>1883.36</ele>
        <time>2016-10-05T12:36:46Z</time>
      </trkpt>
      <trkpt lat="45.21876" lon="6.9571">
        <ele>1884.32</ele>
        <time>2016-10-05T12:36:47Z</time>
      </trkpt>
      <trkpt lat="45.21872" lon="6.957">
        <ele>1886.72</ele>
        <time>2016-10-05T12:36:50Z</time>
      </trkpt>
      <trkpt lat="45.21868" lon="6.95692">
        <ele>1883.84</ele>
        <time>2016-10-05T12:36:52Z</time>
      </trkpt>
      <trkpt lat="45.21864" lon="6.95685">
        <ele>1882.88</ele>
        <time>2016-10-05T12:36:54Z</time>
      </trkpt>
      <trkpt lat="45.21845" lon="6.95664">
        <ele>1885.28</ele>
        <time>2016-10-05T12:37:00Z</time>
      </trkpt>
      <trkpt lat="45.21834" lon="6.95653">
        <ele>1883.84</ele>
        <time>2016-10-05T12:37:03Z</time>
      </trkpt>
      <trkpt lat="45.21826" lon="6.95643">
        <ele>1883.84</ele>
        <time>2016-10-05T12:37:05Z</time>
      </trkpt>
      <trkpt lat="45.21822" lon="6.95636">
        <ele>1882.4</ele>
        <time>2016-10-05T12:37:06Z</time>
      </trkpt>
      <trkpt lat="45.21819" lon="6.95628">
        <ele>1880.96</ele>
        <time>2016-10-05T12:37:07Z</time>
      </trkpt>
      <trkpt lat="45.21817" lon="6.95619">
        <ele>1881.92</ele>
        <time>2016-10-05T12:37:08Z</time>
      </trkpt>
      <trkpt lat="45.21805" lon="6.95557">
        <ele>1877.59</ele>
        <time>2016-10-05T12:37:14Z</time>
      </trkpt>
      <trkpt lat="45.21803" lon="6.95546">
        <ele>1877.59</ele>
        <time>2016-10-05T12:37:15Z</time>
      </trkpt>
      <trkpt lat="45.21797" lon="6.95512">
        <ele>1874.71</ele>
        <time>2016-10-05T12:37:18Z</time>
      </trkpt>
      <trkpt lat="45.21795" lon="6.95501">
        <ele>1874.71</ele>
        <time>2016-10-05T12:37:19Z</time>
      </trkpt>
      <trkpt lat="45.21792" lon="6.9549">
        <ele>1873.27</ele>
        <time>2016-10-05T12:37:20Z</time>
      </trkpt>
      <trkpt lat="45.21788" lon="6.95479">
        <ele>1872.79</ele>
        <time>2016-10-05T12:37:21Z</time>
      </trkpt>
      <trkpt lat="45.21783" lon="6.95469">
        <ele>1872.79</ele>
        <time>2016-10-05T12:37:22Z</time>
      </trkpt>
      <trkpt lat="45.21777" lon="6.95461">
        <ele>1871.34</ele>
        <time>2016-10-05T12:37:23Z</time>
      </trkpt>
      <trkpt lat="45.21769" lon="6.95454">
        <ele>1870.86</ele>
        <time>2016-10-05T12:37:24Z</time>
      </trkpt>
      <trkpt lat="45.21762" lon="6.95448">
        <ele>1869.9</ele>
        <time>2016-10-05T12:37:25Z</time>
      </trkpt>
      <trkpt lat="45.21747" lon="6.95438">
        <ele>1866.54</ele>
        <time>2016-10-05T12:37:27Z</time>
      </trkpt>
      <trkpt lat="45.2174" lon="6.95435">
        <ele>1866.06</ele>
        <time>2016-10-05T12:37:28Z</time>
      </trkpt>
      <trkpt lat="45.21733" lon="6.95434">
        <ele>1865.58</ele>
        <time>2016-10-05T12:37:29Z</time>
      </trkpt>
      <trkpt lat="45.21726" lon="6.95437">
        <ele>1865.09</ele>
        <time>2016-10-05T12:37:30Z</time>
      </trkpt>
      <trkpt lat="45.2172" lon="6.95442">
        <ele>1863.65</ele>
        <time>2016-10-05T12:37:31Z</time>
      </trkpt>
      <trkpt lat="45.21716" lon="6.9545">
        <ele>1863.17</ele>
        <time>2016-10-05T12:37:32Z</time>
      </trkpt>
      <trkpt lat="45.21714" lon="6.95461">
        <ele>1862.69</ele>
        <time>2016-10-05T12:37:33Z</time>
      </trkpt>
      <trkpt lat="45.21714" lon="6.95472">
        <ele>1862.69</ele>
        <time>2016-10-05T12:37:34Z</time>
      </trkpt>
      <trkpt lat="45.21715" lon="6.95484">
        <ele>1862.21</ele>
        <time>2016-10-05T12:37:35Z</time>
      </trkpt>
      <trkpt lat="45.21716" lon="6.95495">
        <ele>1860.77</ele>
        <time>2016-10-05T12:37:36Z</time>
      </trkpt>
      <trkpt lat="45.21718" lon="6.95506">
        <ele>1860.77</ele>
        <time>2016-10-05T12:37:37Z</time>
      </trkpt>
      <trkpt lat="45.21719" lon="6.95515">
        <ele>1860.29</ele>
        <time>2016-10-05T12:37:38Z</time>
      </trkpt>
      <trkpt lat="45.21719" lon="6.95524">
        <ele>1859.81</ele>
        <time>2016-10-05T12:37:39Z</time>
      </trkpt>
      <trkpt lat="45.21718" lon="6.95532">
        <ele>1859.33</ele>
        <time>2016-10-05T12:37:40Z</time>
      </trkpt>
      <trkpt lat="45.21714" lon="6.95538">
        <ele>1858.85</ele>
        <time>2016-10-05T12:37:41Z</time>
      </trkpt>
      <trkpt lat="45.21709" lon="6.95542">
        <ele>1857.89</ele>
        <time>2016-10-05T12:37:42Z</time>
      </trkpt>
      <trkpt lat="45.21703" lon="6.95543">
        <ele>1856.92</ele>
        <time>2016-10-05T12:37:43Z</time>
      </trkpt>
      <trkpt lat="45.21696" lon="6.95543">
        <ele>1856.44</ele>
        <time>2016-10-05T12:37:44Z</time>
      </trkpt>
      <trkpt lat="45.21688" lon="6.95541">
        <ele>1856.44</ele>
        <time>2016-10-05T12:37:45Z</time>
      </trkpt>
      <trkpt lat="45.21681" lon="6.95538">
        <ele>1855.96</ele>
        <time>2016-10-05T12:37:46Z</time>
      </trkpt>
      <trkpt lat="45.21673" lon="6.95535">
        <ele>1855.48</ele>
        <time>2016-10-05T12:37:47Z</time>
      </trkpt>
      <trkpt lat="45.21659" lon="6.95527">
        <ele>1854.04</ele>
        <time>2016-10-05T12:37:49Z</time>
      </trkpt>
      <trkpt lat="45.21652" lon="6.95522">
        <ele>1854.04</ele>
        <time>2016-10-05T12:37:50Z</time>
      </trkpt>
      <trkpt lat="45.21647" lon="6.95514">
        <ele>1852.6</ele>
        <time>2016-10-05T12:37:51Z</time>
      </trkpt>
      <trkpt lat="45.21642" lon="6.95504">
        <ele>1852.12</ele>
        <time>2016-10-05T12:37:52Z</time>
      </trkpt>
      <trkpt lat="45.21639" lon="6.95493">
        <ele>1851.64</ele>
        <time>2016-10-05T12:37:53Z</time>
      </trkpt>
      <trkpt lat="45.21637" lon="6.9548">
        <ele>1851.64</ele>
        <time>2016-10-05T12:37:54Z</time>
      </trkpt>
      <trkpt lat="45.21635" lon="6.95467">
        <ele>1851.16</ele>
        <time>2016-10-05T12:37:55Z</time>
      </trkpt>
      <trkpt lat="45.21634" lon="6.95454">
        <ele>1850.19</ele>
        <time>2016-10-05T12:37:56Z</time>
      </trkpt>
      <trkpt lat="45.21631" lon="6.95427">
        <ele>1848.75</ele>
        <time>2016-10-05T12:37:58Z</time>
      </trkpt>
      <trkpt lat="45.21628" lon="6.95415">
        <ele>1846.83</ele>
        <time>2016-10-05T12:37:59Z</time>
      </trkpt>
      <trkpt lat="45.21624" lon="6.95404">
        <ele>1845.39</ele>
        <time>2016-10-05T12:38:00Z</time>
      </trkpt>
      <trkpt lat="45.21619" lon="6.95394">
        <ele>1845.87</ele>
        <time>2016-10-05T12:38:01Z</time>
      </trkpt>
      <trkpt lat="45.21614" lon="6.95385">
        <ele>1845.87</ele>
        <time>2016-10-05T12:38:02Z</time>
      </trkpt>
      <trkpt lat="45.21609" lon="6.95378">
        <ele>1845.39</ele>
        <time>2016-10-05T12:38:03Z</time>
      </trkpt>
      <trkpt lat="45.21604" lon="6.95372">
        <ele>1845.39</ele>
        <time>2016-10-05T12:38:04Z</time>
      </trkpt>
      <trkpt lat="45.21598" lon="6.95369">
        <ele>1844.43</ele>
        <time>2016-10-05T12:38:05Z</time>
      </trkpt>
      <trkpt lat="45.21592" lon="6.9537">
        <ele>1844.43</ele>
        <time>2016-10-05T12:38:06Z</time>
      </trkpt>
      <trkpt lat="45.21588" lon="6.95375">
        <ele>1843.47</ele>
        <time>2016-10-05T12:38:07Z</time>
      </trkpt>
      <trkpt lat="45.21587" lon="6.95383">
        <ele>1844.43</ele>
        <time>2016-10-05T12:38:08Z</time>
      </trkpt>
      <trkpt lat="45.2159" lon="6.95392">
        <ele>1844.43</ele>
        <time>2016-10-05T12:38:09Z</time>
      </trkpt>
      <trkpt lat="45.21594" lon="6.95401">
        <ele>1842.02</ele>
        <time>2016-10-05T12:38:10Z</time>
      </trkpt>
      <trkpt lat="45.21598" lon="6.9541">
        <ele>1841.54</ele>
        <time>2016-10-05T12:38:11Z</time>
      </trkpt>
      <trkpt lat="45.21602" lon="6.95421">
        <ele>1843.47</ele>
        <time>2016-10-05T12:38:12Z</time>
      </trkpt>
      <trkpt lat="45.21605" lon="6.95433">
        <ele>1840.58</ele>
        <time>2016-10-05T12:38:13Z</time>
      </trkpt>
      <trkpt lat="45.21607" lon="6.95445">
        <ele>1839.14</ele>
        <time>2016-10-05T12:38:14Z</time>
      </trkpt>
      <trkpt lat="45.21608" lon="6.95458">
        <ele>1838.18</ele>
        <time>2016-10-05T12:38:15Z</time>
      </trkpt>
      <trkpt lat="45.21609" lon="6.95472">
        <ele>1837.7</ele>
        <time>2016-10-05T12:38:16Z</time>
      </trkpt>
      <trkpt lat="45.21609" lon="6.95485">
        <ele>1837.7</ele>
        <time>2016-10-05T12:38:17Z</time>
      </trkpt>
      <trkpt lat="45.21608" lon="6.95498">
        <ele>1835.77</ele>
        <time>2016-10-05T12:38:18Z</time>
      </trkpt>
      <trkpt lat="45.21607" lon="6.95537">
        <ele>1836.26</ele>
        <time>2016-10-05T12:38:21Z</time>
      </trkpt>
      <trkpt lat="45.21609" lon="6.95549">
        <ele>1834.81</ele>
        <time>2016-10-05T12:38:22Z</time>
      </trkpt>
      <trkpt lat="45.21612" lon="6.9556">
        <ele>1832.41</ele>
        <time>2016-10-05T12:38:23Z</time>
      </trkpt>
      <trkpt lat="45.21617" lon="6.95569">
        <ele>1832.89</ele>
        <time>2016-10-05T12:38:24Z</time>
      </trkpt>
      <trkpt lat="45.21623" lon="6.95578">
        <ele>1831.45</ele>
        <time>2016-10-05T12:38:25Z</time>
      </trkpt>
      <trkpt lat="45.2163" lon="6.95585">
        <ele>1830.49</ele>
        <time>2016-10-05T12:38:26Z</time>
      </trkpt>
      <trkpt lat="45.21644" lon="6.95601">
        <ele>1829.05</ele>
        <time>2016-10-05T12:38:28Z</time>
      </trkpt>
      <trkpt lat="45.21671" lon="6.9563">
        <ele>1827.12</ele>
        <time>2016-10-05T12:38:32Z</time>
      </trkpt>
      <trkpt lat="45.21683" lon="6.95645">
        <ele>1823.76</ele>
        <time>2016-10-05T12:38:34Z</time>
      </trkpt>
      <trkpt lat="45.21687" lon="6.95653">
        <ele>1822.8</ele>
        <time>2016-10-05T12:38:35Z</time>
      </trkpt>
      <trkpt lat="45.2169" lon="6.95662">
        <ele>1822.32</ele>
        <time>2016-10-05T12:38:36Z</time>
      </trkpt>
      <trkpt lat="45.21692" lon="6.95671">
        <ele>1821.84</ele>
        <time>2016-10-05T12:38:37Z</time>
      </trkpt>
      <trkpt lat="45.21693" lon="6.9568">
        <ele>1821.84</ele>
        <time>2016-10-05T12:38:38Z</time>
      </trkpt>
      <trkpt lat="45.21692" lon="6.95689">
        <ele>1820.87</ele>
        <time>2016-10-05T12:38:39Z</time>
      </trkpt>
      <trkpt lat="45.2169" lon="6.95697">
        <ele>1819.43</ele>
        <time>2016-10-05T12:38:40Z</time>
      </trkpt>
      <trkpt lat="45.21687" lon="6.95705">
        <ele>1817.99</ele>
        <time>2016-10-05T12:38:41Z</time>
      </trkpt>
      <trkpt lat="45.21682" lon="6.9571">
        <ele>1817.51</ele>
        <time>2016-10-05T12:38:42Z</time>
      </trkpt>
      <trkpt lat="45.21676" lon="6.95715">
        <ele>1816.55</ele>
        <time>2016-10-05T12:38:43Z</time>
      </trkpt>
      <trkpt lat="45.2167" lon="6.95719">
        <ele>1815.59</ele>
        <time>2016-10-05T12:38:44Z</time>
      </trkpt>
      <trkpt lat="45.21664" lon="6.95723">
        <ele>1815.59</ele>
        <time>2016-10-05T12:38:45Z</time>
      </trkpt>
      <trkpt lat="45.21641" lon="6.9574">
        <ele>1814.63</ele>
        <time>2016-10-05T12:38:50Z</time>
      </trkpt>
      <trkpt lat="45.21637" lon="6.95741">
        <ele>1813.66</ele>
        <time>2016-10-05T12:38:51Z</time>
      </trkpt>
      <trkpt lat="45.21634" lon="6.9574">
        <ele>1813.18</ele>
        <time>2016-10-05T12:38:52Z</time>
      </trkpt>
      <trkpt lat="45.21632" lon="6.95736">
        <ele>1812.7</ele>
        <time>2016-10-05T12:38:53Z</time>
      </trkpt>
      <trkpt lat="45.21632" lon="6.95731">
        <ele>1812.22</ele>
        <time>2016-10-05T12:38:54Z</time>
      </trkpt>
      <trkpt lat="45.21634" lon="6.95725">
        <ele>1810.78</ele>
        <time>2016-10-05T12:38:55Z</time>
      </trkpt>
      <trkpt lat="45.21637" lon="6.95721">
        <ele>1807.9</ele>
        <time>2016-10-05T12:38:56Z</time>
      </trkpt>
      <trkpt lat="45.21642" lon="6.95718">
        <ele>1807.9</ele>
        <time>2016-10-05T12:38:57Z</time>
      </trkpt>
      <trkpt lat="45.21648" lon="6.95716">
        <ele>1810.3</ele>
        <time>2016-10-05T12:38:58Z</time>
      </trkpt>
      <trkpt lat="45.21653" lon="6.95712">
        <ele>1810.78</ele>
        <time>2016-10-05T12:38:59Z</time>
      </trkpt>
      <trkpt lat="45.21657" lon="6.95706">
        <ele>1809.34</ele>
        <time>2016-10-05T12:39:00Z</time>
      </trkpt>
      <trkpt lat="45.21661" lon="6.95698">
        <ele>1809.34</ele>
        <time>2016-10-05T12:39:01Z</time>
      </trkpt>
      <trkpt lat="45.21663" lon="6.9569">
        <ele>1808.86</ele>
        <time>2016-10-05T12:39:02Z</time>
      </trkpt>
      <trkpt lat="45.21663" lon="6.9568">
        <ele>1809.82</ele>
        <time>2016-10-05T12:39:03Z</time>
      </trkpt>
      <trkpt lat="45.21661" lon="6.95671">
        <ele>1809.82</ele>
        <time>2016-10-05T12:39:04Z</time>
      </trkpt>
      <trkpt lat="45.21657" lon="6.95662">
        <ele>1808.86</ele>
        <time>2016-10-05T12:39:05Z</time>
      </trkpt>
      <trkpt lat="45.21652" lon="6.95654">
        <ele>1807.9</ele>
        <time>2016-10-05T12:39:06Z</time>
      </trkpt>
      <trkpt lat="45.21645" lon="6.95647">
        <ele>1808.38</ele>
        <time>2016-10-05T12:39:07Z</time>
      </trkpt>
      <trkpt lat="45.21637" lon="6.9564">
        <ele>1807.9</ele>
        <time>2016-10-05T12:39:08Z</time>
      </trkpt>
      <trkpt lat="45.21629" lon="6.95634">
        <ele>1806.94</ele>
        <time>2016-10-05T12:39:09Z</time>
      </trkpt>
      <trkpt lat="45.21612" lon="6.95618">
        <ele>1804.53</ele>
        <time>2016-10-05T12:39:11Z</time>
      </trkpt>
      <trkpt lat="45.21604" lon="6.95608">
        <ele>1804.53</ele>
        <time>2016-10-05T12:39:12Z</time>
      </trkpt>
      <trkpt lat="45.21581" lon="6.95575">
        <ele>1802.61</ele>
        <time>2016-10-05T12:39:15Z</time>
      </trkpt>
      <trkpt lat="45.2155" lon="6.95534">
        <ele>1799.24</ele>
        <time>2016-10-05T12:39:19Z</time>
      </trkpt>
      <trkpt lat="45.21543" lon="6.95525">
        <ele>1799.73</ele>
        <time>2016-10-05T12:39:20Z</time>
      </trkpt>
      <trkpt lat="45.21522" lon="6.95501">
        <ele>1796.36</ele>
        <time>2016-10-05T12:39:23Z</time>
      </trkpt>
      <trkpt lat="45.2151" lon="6.95487">
        <ele>1794.92</ele>
        <time>2016-10-05T12:39:25Z</time>
      </trkpt>
      <trkpt lat="45.21506" lon="6.95479">
        <ele>1794.44</ele>
        <time>2016-10-05T12:39:26Z</time>
      </trkpt>
      <trkpt lat="45.21497" lon="6.95463">
        <ele>1793.48</ele>
        <time>2016-10-05T12:39:28Z</time>
      </trkpt>
      <trkpt lat="45.21492" lon="6.95456">
        <ele>1793</ele>
        <time>2016-10-05T12:39:29Z</time>
      </trkpt>
      <trkpt lat="45.21487" lon="6.95453">
        <ele>1793</ele>
        <time>2016-10-05T12:39:30Z</time>
      </trkpt>
      <trkpt lat="45.21483" lon="6.95456">
        <ele>1793</ele>
        <time>2016-10-05T12:39:31Z</time>
      </trkpt>
      <trkpt lat="45.2148" lon="6.95464">
        <ele>1792.52</ele>
        <time>2016-10-05T12:39:32Z</time>
      </trkpt>
      <trkpt lat="45.21481" lon="6.95474">
        <ele>1791.55</ele>
        <time>2016-10-05T12:39:33Z</time>
      </trkpt>
      <trkpt lat="45.21485" lon="6.95483">
        <ele>1790.59</ele>
        <time>2016-10-05T12:39:34Z</time>
      </trkpt>
      <trkpt lat="45.2149" lon="6.95491">
        <ele>1789.63</ele>
        <time>2016-10-05T12:39:35Z</time>
      </trkpt>
      <trkpt lat="45.21495" lon="6.95498">
        <ele>1790.11</ele>
        <time>2016-10-05T12:39:36Z</time>
      </trkpt>
      <trkpt lat="45.21522" lon="6.95529">
        <ele>1788.67</ele>
        <time>2016-10-05T12:39:40Z</time>
      </trkpt>
      <trkpt lat="45.21528" lon="6.95539">
        <ele>1787.71</ele>
        <time>2016-10-05T12:39:41Z</time>
      </trkpt>
      <trkpt lat="45.21554" lon="6.95585">
        <ele>1784.82</ele>
        <time>2016-10-05T12:39:45Z</time>
      </trkpt>
      <trkpt lat="45.21583" lon="6.95652">
        <ele>1780.98</ele>
        <time>2016-10-05T12:39:50Z</time>
      </trkpt>
      <trkpt lat="45.21586" lon="6.95667">
        <ele>1780.02</ele>
        <time>2016-10-05T12:39:51Z</time>
      </trkpt>
      <trkpt lat="45.21587" lon="6.95682">
        <ele>1778.58</ele>
        <time>2016-10-05T12:39:52Z</time>
      </trkpt>
      <trkpt lat="45.21586" lon="6.95698">
        <ele>1777.13</ele>
        <time>2016-10-05T12:39:53Z</time>
      </trkpt>
      <trkpt lat="45.21583" lon="6.95712">
        <ele>1775.69</ele>
        <time>2016-10-05T12:39:54Z</time>
      </trkpt>
      <trkpt lat="45.21579" lon="6.95726">
        <ele>1774.73</ele>
        <time>2016-10-05T12:39:55Z</time>
      </trkpt>
      <trkpt lat="45.21574" lon="6.95739">
        <ele>1773.77</ele>
        <time>2016-10-05T12:39:56Z</time>
      </trkpt>
      <trkpt lat="45.21554" lon="6.95783">
        <ele>1770.41</ele>
        <time>2016-10-05T12:40:00Z</time>
      </trkpt>
      <trkpt lat="45.21545" lon="6.95797">
        <ele>1768.96</ele>
        <time>2016-10-05T12:40:02Z</time>
      </trkpt>
      <trkpt lat="45.21542" lon="6.958">
        <ele>1768</ele>
        <time>2016-10-05T12:40:03Z</time>
      </trkpt>
      <trkpt lat="45.21538" lon="6.958">
        <ele>1768</ele>
        <time>2016-10-05T12:40:04Z</time>
      </trkpt>
      <trkpt lat="45.21536" lon="6.95796">
        <ele>1766.56</ele>
        <time>2016-10-05T12:40:05Z</time>
      </trkpt>
      <trkpt lat="45.21537" lon="6.9579">
        <ele>1766.56</ele>
        <time>2016-10-05T12:40:06Z</time>
      </trkpt>
      <trkpt lat="45.21539" lon="6.95783">
        <ele>1767.04</ele>
        <time>2016-10-05T12:40:07Z</time>
      </trkpt>
      <trkpt lat="45.21542" lon="6.95776">
        <ele>1767.04</ele>
        <time>2016-10-05T12:40:08Z</time>
      </trkpt>
      <trkpt lat="45.21551" lon="6.95752">
        <ele>1763.68</ele>
        <time>2016-10-05T12:40:11Z</time>
      </trkpt>
      <trkpt lat="45.21559" lon="6.95729">
        <ele>1762.23</ele>
        <time>2016-10-05T12:40:15Z</time>
      </trkpt>
      <trkpt lat="45.21566" lon="6.95698">
        <ele>1761.75</ele>
        <time>2016-10-05T12:40:22Z</time>
      </trkpt>
      <trkpt lat="45.21564" lon="6.95683">
        <ele>1761.27</ele>
        <time>2016-10-05T12:40:24Z</time>
      </trkpt>
      <trkpt lat="45.21562" lon="6.95674">
        <ele>1761.27</ele>
        <time>2016-10-05T12:40:25Z</time>
      </trkpt>
      <trkpt lat="45.2156" lon="6.95666">
        <ele>1760.31</ele>
        <time>2016-10-05T12:40:26Z</time>
      </trkpt>
      <trkpt lat="45.21556" lon="6.95658">
        <ele>1759.83</ele>
        <time>2016-10-05T12:40:27Z</time>
      </trkpt>
      <trkpt lat="45.21551" lon="6.9565">
        <ele>1760.31</ele>
        <time>2016-10-05T12:40:28Z</time>
      </trkpt>
      <trkpt lat="45.21545" lon="6.95642">
        <ele>1758.87</ele>
        <time>2016-10-05T12:40:29Z</time>
      </trkpt>
      <trkpt lat="45.21506" lon="6.95592">
        <ele>1756.95</ele>
        <time>2016-10-05T12:40:35Z</time>
      </trkpt>
      <trkpt lat="45.21499" lon="6.95586">
        <ele>1755.5</ele>
        <time>2016-10-05T12:40:36Z</time>
      </trkpt>
      <trkpt lat="45.21491" lon="6.95581">
        <ele>1755.5</ele>
        <time>2016-10-05T12:40:37Z</time>
      </trkpt>
      <trkpt lat="45.21482" lon="6.95579">
        <ele>1755.02</ele>
        <time>2016-10-05T12:40:38Z</time>
      </trkpt>
      <trkpt lat="45.21473" lon="6.95579">
        <ele>1754.06</ele>
        <time>2016-10-05T12:40:39Z</time>
      </trkpt>
      <trkpt lat="45.21464" lon="6.95582">
        <ele>1754.54</ele>
        <time>2016-10-05T12:40:40Z</time>
      </trkpt>
      <trkpt lat="45.21454" lon="6.95586">
        <ele>1754.06</ele>
        <time>2016-10-05T12:40:41Z</time>
      </trkpt>
      <trkpt lat="45.21444" lon="6.95591">
        <ele>1751.66</ele>
        <time>2016-10-05T12:40:42Z</time>
      </trkpt>
      <trkpt lat="45.21435" lon="6.95598">
        <ele>1751.66</ele>
        <time>2016-10-05T12:40:43Z</time>
      </trkpt>
      <trkpt lat="45.21366" lon="6.95643">
        <ele>1747.33</ele>
        <time>2016-10-05T12:40:50Z</time>
      </trkpt>
      <trkpt lat="45.21336" lon="6.95662">
        <ele>1746.37</ele>
        <time>2016-10-05T12:40:53Z</time>
      </trkpt>
      <trkpt lat="45.21286" lon="6.95695">
        <ele>1743.01</ele>
        <time>2016-10-05T12:40:58Z</time>
      </trkpt>
      <trkpt lat="45.21211" lon="6.95745">
        <ele>1741.57</ele>
        <time>2016-10-05T12:41:06Z</time>
      </trkpt>
      <trkpt lat="45.21185" lon="6.95763">
        <ele>1740.12</ele>
        <time>2016-10-05T12:41:09Z</time>
      </trkpt>
      <trkpt lat="45.21006" lon="6.9588">
        <ele>1737.72</ele>
        <time>2016-10-05T12:41:30Z</time>
      </trkpt>
      <trkpt lat="45.20912" lon="6.95943">
        <ele>1737.24</ele>
        <time>2016-10-05T12:41:45Z</time>
      </trkpt>
      <trkpt lat="45.20868" lon="6.9597">
        <ele>1736.76</ele>
        <time>2016-10-05T12:41:53Z</time>
      </trkpt>
      <trkpt lat="45.20797" lon="6.96017">
        <ele>1737.24</ele>
        <time>2016-10-05T12:42:07Z</time>
      </trkpt>
      <trkpt lat="45.20746" lon="6.96049">
        <ele>1737.24</ele>
        <time>2016-10-05T12:42:18Z</time>
      </trkpt>
      <trkpt lat="45.20737" lon="6.96053">
        <ele>1737.72</ele>
        <time>2016-10-05T12:42:20Z</time>
      </trkpt>
      <trkpt lat="45.20732" lon="6.96055">
        <ele>1737.72</ele>
        <time>2016-10-05T12:42:21Z</time>
      </trkpt>
      <trkpt lat="45.20709" lon="6.96069">
        <ele>1738.2</ele>
        <time>2016-10-05T12:42:27Z</time>
      </trkpt>
      <trkpt lat="45.20648" lon="6.9613">
        <ele>1736.76</ele>
        <time>2016-10-05T12:42:44Z</time>
      </trkpt>
      <trkpt lat="45.20597" lon="6.96227">
        <ele>1735.32</ele>
        <time>2016-10-05T12:42:59Z</time>
      </trkpt>
      <trkpt lat="45.20577" lon="6.96258">
        <ele>1733.88</ele>
        <time>2016-10-05T12:43:04Z</time>
      </trkpt>
      <trkpt lat="45.20572" lon="6.96263">
        <ele>1733.39</ele>
        <time>2016-10-05T12:43:05Z</time>
      </trkpt>
      <trkpt lat="45.2054" lon="6.96289">
        <ele>1730.51</ele>
        <time>2016-10-05T12:43:11Z</time>
      </trkpt>
      <trkpt lat="45.20511" lon="6.96317">
        <ele>1727.15</ele>
        <time>2016-10-05T12:43:18Z</time>
      </trkpt>
      <trkpt lat="45.20483" lon="6.96365">
        <ele>1724.26</ele>
        <time>2016-10-05T12:43:29Z</time>
      </trkpt>
      <trkpt lat="45.20461" lon="6.96422">
        <ele>1721.38</ele>
        <time>2016-10-05T12:43:36Z</time>
      </trkpt>
      <trkpt lat="45.20458" lon="6.96433">
        <ele>1720.42</ele>
        <time>2016-10-05T12:43:38Z</time>
      </trkpt>
      <trkpt lat="45.20442" lon="6.96488">
        <ele>1717.05</ele>
        <time>2016-10-05T12:43:48Z</time>
      </trkpt>
      <trkpt lat="45.20421" lon="6.96577">
        <ele>1714.17</ele>
        <time>2016-10-05T12:43:57Z</time>
      </trkpt>
      <trkpt lat="45.20404" lon="6.96643">
        <ele>1711.28</ele>
        <time>2016-10-05T12:44:03Z</time>
      </trkpt>
      <trkpt lat="45.20392" lon="6.96697">
        <ele>1707.92</ele>
        <time>2016-10-05T12:44:08Z</time>
      </trkpt>
      <trkpt lat="45.20385" lon="6.96718">
        <ele>1706.96</ele>
        <time>2016-10-05T12:44:10Z</time>
      </trkpt>
      <trkpt lat="45.20381" lon="6.96728">
        <ele>1706</ele>
        <time>2016-10-05T12:44:11Z</time>
      </trkpt>
      <trkpt lat="45.20375" lon="6.96737">
        <ele>1706.48</ele>
        <time>2016-10-05T12:44:12Z</time>
      </trkpt>
      <trkpt lat="45.20368" lon="6.96744">
        <ele>1705.04</ele>
        <time>2016-10-05T12:44:13Z</time>
      </trkpt>
      <trkpt lat="45.2036" lon="6.9675">
        <ele>1704.07</ele>
        <time>2016-10-05T12:44:14Z</time>
      </trkpt>
      <trkpt lat="45.20344" lon="6.96761">
        <ele>1702.15</ele>
        <time>2016-10-05T12:44:16Z</time>
      </trkpt>
      <trkpt lat="45.20319" lon="6.96777">
        <ele>1698.79</ele>
        <time>2016-10-05T12:44:19Z</time>
      </trkpt>
      <trkpt lat="45.20276" lon="6.96804">
        <ele>1695.42</ele>
        <time>2016-10-05T12:44:24Z</time>
      </trkpt>
      <trkpt lat="45.20259" lon="6.96816">
        <ele>1693.98</ele>
        <time>2016-10-05T12:44:26Z</time>
      </trkpt>
      <trkpt lat="45.20251" lon="6.96825">
        <ele>1693.02</ele>
        <time>2016-10-05T12:44:27Z</time>
      </trkpt>
      <trkpt lat="45.20245" lon="6.96835">
        <ele>1691.58</ele>
        <time>2016-10-05T12:44:28Z</time>
      </trkpt>
      <trkpt lat="45.2024" lon="6.96846">
        <ele>1691.1</ele>
        <time>2016-10-05T12:44:29Z</time>
      </trkpt>
      <trkpt lat="45.20235" lon="6.9686">
        <ele>1690.62</ele>
        <time>2016-10-05T12:44:30Z</time>
      </trkpt>
      <trkpt lat="45.20231" lon="6.96873">
        <ele>1689.17</ele>
        <time>2016-10-05T12:44:31Z</time>
      </trkpt>
      <trkpt lat="45.20219" lon="6.96912">
        <ele>1687.25</ele>
        <time>2016-10-05T12:44:34Z</time>
      </trkpt>
      <trkpt lat="45.20206" lon="6.96947">
        <ele>1686.29</ele>
        <time>2016-10-05T12:44:37Z</time>
      </trkpt>
      <trkpt lat="45.202" lon="6.96957">
        <ele>1685.81</ele>
        <time>2016-10-05T12:44:38Z</time>
      </trkpt>
      <trkpt lat="45.20192" lon="6.96965">
        <ele>1685.33</ele>
        <time>2016-10-05T12:44:39Z</time>
      </trkpt>
      <trkpt lat="45.20184" lon="6.96974">
        <ele>1685.33</ele>
        <time>2016-10-05T12:44:40Z</time>
      </trkpt>
      <trkpt lat="45.20168" lon="6.96992">
        <ele>1683.89</ele>
        <time>2016-10-05T12:44:42Z</time>
      </trkpt>
      <trkpt lat="45.20138" lon="6.97031">
        <ele>1680.04</ele>
        <time>2016-10-05T12:44:46Z</time>
      </trkpt>
      <trkpt lat="45.20107" lon="6.97071">
        <ele>1676.68</ele>
        <time>2016-10-05T12:44:50Z</time>
      </trkpt>
      <trkpt lat="45.20075" lon="6.97114">
        <ele>1673.31</ele>
        <time>2016-10-05T12:44:54Z</time>
      </trkpt>
      <trkpt lat="45.2006" lon="6.97135">
        <ele>1671.39</ele>
        <time>2016-10-05T12:44:56Z</time>
      </trkpt>
      <trkpt lat="45.20039" lon="6.97169">
        <ele>1668.02</ele>
        <time>2016-10-05T12:44:59Z</time>
      </trkpt>
      <trkpt lat="45.20023" lon="6.97208">
        <ele>1665.14</ele>
        <time>2016-10-05T12:45:02Z</time>
      </trkpt>
      <trkpt lat="45.20008" lon="6.97267">
        <ele>1661.78</ele>
        <time>2016-10-05T12:45:06Z</time>
      </trkpt>
      <trkpt lat="45.20001" lon="6.97297">
        <ele>1660.33</ele>
        <time>2016-10-05T12:45:08Z</time>
      </trkpt>
      <trkpt lat="45.1999" lon="6.97341">
        <ele>1656.97</ele>
        <time>2016-10-05T12:45:11Z</time>
      </trkpt>
      <trkpt lat="45.1998" lon="6.97384">
        <ele>1653.6</ele>
        <time>2016-10-05T12:45:14Z</time>
      </trkpt>
      <trkpt lat="45.19971" lon="6.97427">
        <ele>1651.68</ele>
        <time>2016-10-05T12:45:17Z</time>
      </trkpt>
      <trkpt lat="45.1997" lon="6.97443">
        <ele>1650.24</ele>
        <time>2016-10-05T12:45:18Z</time>
      </trkpt>
      <trkpt lat="45.19969" lon="6.97458">
        <ele>1649.76</ele>
        <time>2016-10-05T12:45:19Z</time>
      </trkpt>
      <trkpt lat="45.1997" lon="6.97474">
        <ele>1649.76</ele>
        <time>2016-10-05T12:45:20Z</time>
      </trkpt>
      <trkpt lat="45.1997" lon="6.97521">
        <ele>1646.88</ele>
        <time>2016-10-05T12:45:23Z</time>
      </trkpt>
      <trkpt lat="45.19969" lon="6.97537">
        <ele>1645.91</ele>
        <time>2016-10-05T12:45:24Z</time>
      </trkpt>
      <trkpt lat="45.19966" lon="6.97553">
        <ele>1645.43</ele>
        <time>2016-10-05T12:45:25Z</time>
      </trkpt>
      <trkpt lat="45.19952" lon="6.97612">
        <ele>1641.11</ele>
        <time>2016-10-05T12:45:29Z</time>
      </trkpt>
      <trkpt lat="45.19936" lon="6.97669">
        <ele>1637.74</ele>
        <time>2016-10-05T12:45:33Z</time>
      </trkpt>
      <trkpt lat="45.1992" lon="6.97727">
        <ele>1634.38</ele>
        <time>2016-10-05T12:45:37Z</time>
      </trkpt>
      <trkpt lat="45.1991" lon="6.97755">
        <ele>1632.46</ele>
        <time>2016-10-05T12:45:39Z</time>
      </trkpt>
      <trkpt lat="45.19904" lon="6.97768">
        <ele>1631.01</ele>
        <time>2016-10-05T12:45:40Z</time>
      </trkpt>
      <trkpt lat="45.19897" lon="6.97779">
        <ele>1630.53</ele>
        <time>2016-10-05T12:45:41Z</time>
      </trkpt>
      <trkpt lat="45.1989" lon="6.9779">
        <ele>1629.57</ele>
        <time>2016-10-05T12:45:42Z</time>
      </trkpt>
      <trkpt lat="45.19882" lon="6.978">
        <ele>1627.65</ele>
        <time>2016-10-05T12:45:43Z</time>
      </trkpt>
      <trkpt lat="45.19873" lon="6.97807">
        <ele>1626.21</ele>
        <time>2016-10-05T12:45:44Z</time>
      </trkpt>
      <trkpt lat="45.19863" lon="6.97814">
        <ele>1626.21</ele>
        <time>2016-10-05T12:45:45Z</time>
      </trkpt>
      <trkpt lat="45.19854" lon="6.97822">
        <ele>1625.73</ele>
        <time>2016-10-05T12:45:46Z</time>
      </trkpt>
      <trkpt lat="45.19846" lon="6.97832">
        <ele>1623.32</ele>
        <time>2016-10-05T12:45:47Z</time>
      </trkpt>
      <trkpt lat="45.1984" lon="6.97844">
        <ele>1622.84</ele>
        <time>2016-10-05T12:45:48Z</time>
      </trkpt>
      <trkpt lat="45.19835" lon="6.97857">
        <ele>1622.36</ele>
        <time>2016-10-05T12:45:49Z</time>
      </trkpt>
      <trkpt lat="45.19832" lon="6.97872">
        <ele>1621.4</ele>
        <time>2016-10-05T12:45:50Z</time>
      </trkpt>
      <trkpt lat="45.19829" lon="6.97886">
        <ele>1620.92</ele>
        <time>2016-10-05T12:45:51Z</time>
      </trkpt>
      <trkpt lat="45.19827" lon="6.979">
        <ele>1619</ele>
        <time>2016-10-05T12:45:52Z</time>
      </trkpt>
      <trkpt lat="45.19821" lon="6.97928">
        <ele>1618.04</ele>
        <time>2016-10-05T12:45:54Z</time>
      </trkpt>
      <trkpt lat="45.19809" lon="6.97966">
        <ele>1614.19</ele>
        <time>2016-10-05T12:45:57Z</time>
      </trkpt>
      <trkpt lat="45.19803" lon="6.97976">
        <ele>1613.71</ele>
        <time>2016-10-05T12:45:58Z</time>
      </trkpt>
      <trkpt lat="45.19796" lon="6.97985">
        <ele>1612.75</ele>
        <time>2016-10-05T12:45:59Z</time>
      </trkpt>
      <trkpt lat="45.19788" lon="6.97992">
        <ele>1612.27</ele>
        <time>2016-10-05T12:46:00Z</time>
      </trkpt>
      <trkpt lat="45.19778" lon="6.97997">
        <ele>1611.31</ele>
        <time>2016-10-05T12:46:01Z</time>
      </trkpt>
      <trkpt lat="45.19767" lon="6.97999">
        <ele>1610.83</ele>
        <time>2016-10-05T12:46:02Z</time>
      </trkpt>
      <trkpt lat="45.19756" lon="6.98001">
        <ele>1609.86</ele>
        <time>2016-10-05T12:46:03Z</time>
      </trkpt>
      <trkpt lat="45.19745" lon="6.98005">
        <ele>1608.9</ele>
        <time>2016-10-05T12:46:04Z</time>
      </trkpt>
      <trkpt lat="45.19735" lon="6.9801">
        <ele>1607.94</ele>
        <time>2016-10-05T12:46:05Z</time>
      </trkpt>
      <trkpt lat="45.19726" lon="6.98018">
        <ele>1606.98</ele>
        <time>2016-10-05T12:46:06Z</time>
      </trkpt>
      <trkpt lat="45.19718" lon="6.98028">
        <ele>1606.02</ele>
        <time>2016-10-05T12:46:07Z</time>
      </trkpt>
      <trkpt lat="45.19712" lon="6.98041">
        <ele>1605.06</ele>
        <time>2016-10-05T12:46:08Z</time>
      </trkpt>
      <trkpt lat="45.19706" lon="6.98055">
        <ele>1604.1</ele>
        <time>2016-10-05T12:46:09Z</time>
      </trkpt>
      <trkpt lat="45.19703" lon="6.98071">
        <ele>1603.62</ele>
        <time>2016-10-05T12:46:10Z</time>
      </trkpt>
      <trkpt lat="45.197" lon="6.98087">
        <ele>1603.14</ele>
        <time>2016-10-05T12:46:11Z</time>
      </trkpt>
      <trkpt lat="45.19698" lon="6.98104">
        <ele>1601.69</ele>
        <time>2016-10-05T12:46:12Z</time>
      </trkpt>
      <trkpt lat="45.19697" lon="6.9812">
        <ele>1600.73</ele>
        <time>2016-10-05T12:46:13Z</time>
      </trkpt>
      <trkpt lat="45.19697" lon="6.98168">
        <ele>1597.37</ele>
        <time>2016-10-05T12:46:16Z</time>
      </trkpt>
      <trkpt lat="45.19698" lon="6.98183">
        <ele>1596.41</ele>
        <time>2016-10-05T12:46:17Z</time>
      </trkpt>
      <trkpt lat="45.19701" lon="6.98198">
        <ele>1595.45</ele>
        <time>2016-10-05T12:46:18Z</time>
      </trkpt>
      <trkpt lat="45.19708" lon="6.98241">
        <ele>1592.08</ele>
        <time>2016-10-05T12:46:21Z</time>
      </trkpt>
      <trkpt lat="45.19707" lon="6.98256">
        <ele>1591.6</ele>
        <time>2016-10-05T12:46:22Z</time>
      </trkpt>
      <trkpt lat="45.19705" lon="6.98271">
        <ele>1590.16</ele>
        <time>2016-10-05T12:46:23Z</time>
      </trkpt>
      <trkpt lat="45.19701" lon="6.98286">
        <ele>1588.72</ele>
        <time>2016-10-05T12:46:24Z</time>
      </trkpt>
      <trkpt lat="45.19696" lon="6.98299">
        <ele>1587.75</ele>
        <time>2016-10-05T12:46:25Z</time>
      </trkpt>
      <trkpt lat="45.1969" lon="6.98313">
        <ele>1586.79</ele>
        <time>2016-10-05T12:46:26Z</time>
      </trkpt>
      <trkpt lat="45.19685" lon="6.98326">
        <ele>1586.79</ele>
        <time>2016-10-05T12:46:27Z</time>
      </trkpt>
      <trkpt lat="45.19669" lon="6.98361">
        <ele>1583.43</ele>
        <time>2016-10-05T12:46:30Z</time>
      </trkpt>
      <trkpt lat="45.19657" lon="6.9838">
        <ele>1581.51</ele>
        <time>2016-10-05T12:46:32Z</time>
      </trkpt>
      <trkpt lat="45.19649" lon="6.98387">
        <ele>1581.51</ele>
        <time>2016-10-05T12:46:33Z</time>
      </trkpt>
      <trkpt lat="45.19641" lon="6.98391">
        <ele>1580.06</ele>
        <time>2016-10-05T12:46:34Z</time>
      </trkpt>
      <trkpt lat="45.19632" lon="6.98394">
        <ele>1579.58</ele>
        <time>2016-10-05T12:46:35Z</time>
      </trkpt>
      <trkpt lat="45.19622" lon="6.98397">
        <ele>1579.58</ele>
        <time>2016-10-05T12:46:36Z</time>
      </trkpt>
      <trkpt lat="45.19612" lon="6.984">
        <ele>1579.1</ele>
        <time>2016-10-05T12:46:37Z</time>
      </trkpt>
      <trkpt lat="45.19603" lon="6.98405">
        <ele>1578.62</ele>
        <time>2016-10-05T12:46:38Z</time>
      </trkpt>
      <trkpt lat="45.19594" lon="6.98412">
        <ele>1577.66</ele>
        <time>2016-10-05T12:46:39Z</time>
      </trkpt>
      <trkpt lat="45.19586" lon="6.98419">
        <ele>1577.18</ele>
        <time>2016-10-05T12:46:40Z</time>
      </trkpt>
      <trkpt lat="45.19579" lon="6.98428">
        <ele>1577.18</ele>
        <time>2016-10-05T12:46:41Z</time>
      </trkpt>
      <trkpt lat="45.19572" lon="6.98438">
        <ele>1575.26</ele>
        <time>2016-10-05T12:46:42Z</time>
      </trkpt>
      <trkpt lat="45.19556" lon="6.98456">
        <ele>1573.82</ele>
        <time>2016-10-05T12:46:44Z</time>
      </trkpt>
      <trkpt lat="45.19548" lon="6.98463">
        <ele>1572.85</ele>
        <time>2016-10-05T12:46:45Z</time>
      </trkpt>
      <trkpt lat="45.19513" lon="6.98486">
        <ele>1569.97</ele>
        <time>2016-10-05T12:46:49Z</time>
      </trkpt>
      <trkpt lat="45.19504" lon="6.98491">
        <ele>1568.53</ele>
        <time>2016-10-05T12:46:50Z</time>
      </trkpt>
      <trkpt lat="45.19495" lon="6.98494">
        <ele>1568.05</ele>
        <time>2016-10-05T12:46:51Z</time>
      </trkpt>
      <trkpt lat="45.19485" lon="6.98495">
        <ele>1567.09</ele>
        <time>2016-10-05T12:46:52Z</time>
      </trkpt>
      <trkpt lat="45.19475" lon="6.98494">
        <ele>1566.12</ele>
        <time>2016-10-05T12:46:53Z</time>
      </trkpt>
      <trkpt lat="45.19465" lon="6.98491">
        <ele>1565.64</ele>
        <time>2016-10-05T12:46:54Z</time>
      </trkpt>
      <trkpt lat="45.19444" lon="6.98488">
        <ele>1563.24</ele>
        <time>2016-10-05T12:46:56Z</time>
      </trkpt>
      <trkpt lat="45.19434" lon="6.9849">
        <ele>1562.28</ele>
        <time>2016-10-05T12:46:57Z</time>
      </trkpt>
      <trkpt lat="45.19425" lon="6.98495">
        <ele>1561.32</ele>
        <time>2016-10-05T12:46:58Z</time>
      </trkpt>
      <trkpt lat="45.19416" lon="6.98502">
        <ele>1560.84</ele>
        <time>2016-10-05T12:46:59Z</time>
      </trkpt>
      <trkpt lat="45.19408" lon="6.98511">
        <ele>1558.92</ele>
        <time>2016-10-05T12:47:00Z</time>
      </trkpt>
      <trkpt lat="45.194" lon="6.98519">
        <ele>1558.92</ele>
        <time>2016-10-05T12:47:01Z</time>
      </trkpt>
      <trkpt lat="45.19391" lon="6.98526">
        <ele>1556.51</ele>
        <time>2016-10-05T12:47:02Z</time>
      </trkpt>
      <trkpt lat="45.19382" lon="6.98529">
        <ele>1556.99</ele>
        <time>2016-10-05T12:47:03Z</time>
      </trkpt>
      <trkpt lat="45.19371" lon="6.9853">
        <ele>1555.55</ele>
        <time>2016-10-05T12:47:04Z</time>
      </trkpt>
      <trkpt lat="45.19359" lon="6.98529">
        <ele>1555.07</ele>
        <time>2016-10-05T12:47:05Z</time>
      </trkpt>
      <trkpt lat="45.19348" lon="6.98527">
        <ele>1554.11</ele>
        <time>2016-10-05T12:47:06Z</time>
      </trkpt>
      <trkpt lat="45.19326" lon="6.98526">
        <ele>1552.19</ele>
        <time>2016-10-05T12:47:08Z</time>
      </trkpt>
      <trkpt lat="45.19315" lon="6.98529">
        <ele>1551.71</ele>
        <time>2016-10-05T12:47:09Z</time>
      </trkpt>
      <trkpt lat="45.19305" lon="6.98533">
        <ele>1550.26</ele>
        <time>2016-10-05T12:47:10Z</time>
      </trkpt>
      <trkpt lat="45.19296" lon="6.9854">
        <ele>1549.78</ele>
        <time>2016-10-05T12:47:11Z</time>
      </trkpt>
      <trkpt lat="45.19287" lon="6.98547">
        <ele>1547.86</ele>
        <time>2016-10-05T12:47:12Z</time>
      </trkpt>
      <trkpt lat="45.19278" lon="6.98552">
        <ele>1547.86</ele>
        <time>2016-10-05T12:47:13Z</time>
      </trkpt>
      <trkpt lat="45.19268" lon="6.98556">
        <ele>1545.94</ele>
        <time>2016-10-05T12:47:14Z</time>
      </trkpt>
      <trkpt lat="45.19257" lon="6.98557">
        <ele>1544.01</ele>
        <time>2016-10-05T12:47:15Z</time>
      </trkpt>
      <trkpt lat="45.19247" lon="6.98555">
        <ele>1544.01</ele>
        <time>2016-10-05T12:47:16Z</time>
      </trkpt>
      <trkpt lat="45.19238" lon="6.98552">
        <ele>1542.09</ele>
        <time>2016-10-05T12:47:17Z</time>
      </trkpt>
      <trkpt lat="45.19229" lon="6.98548">
        <ele>1541.61</ele>
        <time>2016-10-05T12:47:18Z</time>
      </trkpt>
      <trkpt lat="45.19221" lon="6.98541">
        <ele>1541.61</ele>
        <time>2016-10-05T12:47:19Z</time>
      </trkpt>
      <trkpt lat="45.19214" lon="6.98532">
        <ele>1540.65</ele>
        <time>2016-10-05T12:47:20Z</time>
      </trkpt>
      <trkpt lat="45.19207" lon="6.98522">
        <ele>1539.69</ele>
        <time>2016-10-05T12:47:21Z</time>
      </trkpt>
      <trkpt lat="45.192" lon="6.98511">
        <ele>1537.77</ele>
        <time>2016-10-05T12:47:22Z</time>
      </trkpt>
      <trkpt lat="45.19192" lon="6.985">
        <ele>1538.25</ele>
        <time>2016-10-05T12:47:23Z</time>
      </trkpt>
      <trkpt lat="45.19169" lon="6.98469">
        <ele>1534.4</ele>
        <time>2016-10-05T12:47:26Z</time>
      </trkpt>
      <trkpt lat="45.19162" lon="6.98458">
        <ele>1532.96</ele>
        <time>2016-10-05T12:47:27Z</time>
      </trkpt>
      <trkpt lat="45.1915" lon="6.98435">
        <ele>1531.52</ele>
        <time>2016-10-05T12:47:29Z</time>
      </trkpt>
      <trkpt lat="45.19143" lon="6.98424">
        <ele>1531.04</ele>
        <time>2016-10-05T12:47:30Z</time>
      </trkpt>
      <trkpt lat="45.1912" lon="6.98394">
        <ele>1528.15</ele>
        <time>2016-10-05T12:47:33Z</time>
      </trkpt>
      <trkpt lat="45.19113" lon="6.98382">
        <ele>1526.23</ele>
        <time>2016-10-05T12:47:34Z</time>
      </trkpt>
      <trkpt lat="45.19108" lon="6.98368">
        <ele>1524.79</ele>
        <time>2016-10-05T12:47:35Z</time>
      </trkpt>
      <trkpt lat="45.19104" lon="6.98353">
        <ele>1524.79</ele>
        <time>2016-10-05T12:47:36Z</time>
      </trkpt>
      <trkpt lat="45.19101" lon="6.98337">
        <ele>1523.35</ele>
        <time>2016-10-05T12:47:37Z</time>
      </trkpt>
      <trkpt lat="45.19099" lon="6.98321">
        <ele>1522.39</ele>
        <time>2016-10-05T12:47:38Z</time>
      </trkpt>
      <trkpt lat="45.19088" lon="6.98271">
        <ele>1518.54</ele>
        <time>2016-10-05T12:47:41Z</time>
      </trkpt>
      <trkpt lat="45.19079" lon="6.98238">
        <ele>1516.62</ele>
        <time>2016-10-05T12:47:43Z</time>
      </trkpt>
      <trkpt lat="45.1906" lon="6.98175">
        <ele>1512.77</ele>
        <time>2016-10-05T12:47:47Z</time>
      </trkpt>
      <trkpt lat="45.19045" lon="6.98129">
        <ele>1508.93</ele>
        <time>2016-10-05T12:47:50Z</time>
      </trkpt>
      <trkpt lat="45.19032" lon="6.98085">
        <ele>1506.04</ele>
        <time>2016-10-05T12:47:53Z</time>
      </trkpt>
      <trkpt lat="45.1903" lon="6.98069">
        <ele>1505.08</ele>
        <time>2016-10-05T12:47:54Z</time>
      </trkpt>
      <trkpt lat="45.19029" lon="6.98053">
        <ele>1501.72</ele>
        <time>2016-10-05T12:47:55Z</time>
      </trkpt>
      <trkpt lat="45.1903" lon="6.98036">
        <ele>1500.27</ele>
        <time>2016-10-05T12:47:56Z</time>
      </trkpt>
      <trkpt lat="45.19031" lon="6.9802">
        <ele>1499.31</ele>
        <time>2016-10-05T12:47:57Z</time>
      </trkpt>
      <trkpt lat="45.19031" lon="6.97971">
        <ele>1497.39</ele>
        <time>2016-10-05T12:48:00Z</time>
      </trkpt>
      <trkpt lat="45.1903" lon="6.97956">
        <ele>1497.39</ele>
        <time>2016-10-05T12:48:01Z</time>
      </trkpt>
      <trkpt lat="45.19023" lon="6.9791">
        <ele>1494.99</ele>
        <time>2016-10-05T12:48:04Z</time>
      </trkpt>
      <trkpt lat="45.19007" lon="6.97857">
        <ele>1494.99</ele>
        <time>2016-10-05T12:48:08Z</time>
      </trkpt>
      <trkpt lat="45.19001" lon="6.97846">
        <ele>1495.47</ele>
        <time>2016-10-05T12:48:09Z</time>
      </trkpt>
      <trkpt lat="45.18994" lon="6.97835">
        <ele>1494.03</ele>
        <time>2016-10-05T12:48:10Z</time>
      </trkpt>
      <trkpt lat="45.18932" lon="6.97761">
        <ele>1492.1</ele>
        <time>2016-10-05T12:48:18Z</time>
      </trkpt>
      <trkpt lat="45.18924" lon="6.97755">
        <ele>1492.58</ele>
        <time>2016-10-05T12:48:19Z</time>
      </trkpt>
      <trkpt lat="45.18915" lon="6.97751">
        <ele>1492.58</ele>
        <time>2016-10-05T12:48:20Z</time>
      </trkpt>
      <trkpt lat="45.18906" lon="6.97748">
        <ele>1492.58</ele>
        <time>2016-10-05T12:48:21Z</time>
      </trkpt>
      <trkpt lat="45.18897" lon="6.97748">
        <ele>1493.06</ele>
        <time>2016-10-05T12:48:22Z</time>
      </trkpt>
      <trkpt lat="45.18889" lon="6.97752">
        <ele>1492.58</ele>
        <time>2016-10-05T12:48:23Z</time>
      </trkpt>
      <trkpt lat="45.18883" lon="6.97758">
        <ele>1491.62</ele>
        <time>2016-10-05T12:48:24Z</time>
      </trkpt>
      <trkpt lat="45.18879" lon="6.97767">
        <ele>1491.14</ele>
        <time>2016-10-05T12:48:25Z</time>
      </trkpt>
      <trkpt lat="45.18878" lon="6.97777">
        <ele>1490.66</ele>
        <time>2016-10-05T12:48:26Z</time>
      </trkpt>
      <trkpt lat="45.18879" lon="6.97787">
        <ele>1490.18</ele>
        <time>2016-10-05T12:48:27Z</time>
      </trkpt>
      <trkpt lat="45.18882" lon="6.97797">
        <ele>1489.22</ele>
        <time>2016-10-05T12:48:28Z</time>
      </trkpt>
      <trkpt lat="45.18885" lon="6.97807">
        <ele>1487.78</ele>
        <time>2016-10-05T12:48:29Z</time>
      </trkpt>
      <trkpt lat="45.18887" lon="6.97818">
        <ele>1487.3</ele>
        <time>2016-10-05T12:48:30Z</time>
      </trkpt>
      <trkpt lat="45.18888" lon="6.97828">
        <ele>1486.34</ele>
        <time>2016-10-05T12:48:31Z</time>
      </trkpt>
      <trkpt lat="45.18887" lon="6.97839">
        <ele>1485.37</ele>
        <time>2016-10-05T12:48:32Z</time>
      </trkpt>
      <trkpt lat="45.18885" lon="6.9785">
        <ele>1485.85</ele>
        <time>2016-10-05T12:48:33Z</time>
      </trkpt>
      <trkpt lat="45.18881" lon="6.9786">
        <ele>1484.89</ele>
        <time>2016-10-05T12:48:34Z</time>
      </trkpt>
      <trkpt lat="45.18877" lon="6.9787">
        <ele>1483.93</ele>
        <time>2016-10-05T12:48:35Z</time>
      </trkpt>
      <trkpt lat="45.18873" lon="6.97878">
        <ele>1483.45</ele>
        <time>2016-10-05T12:48:36Z</time>
      </trkpt>
      <trkpt lat="45.18869" lon="6.97885">
        <ele>1484.41</ele>
        <time>2016-10-05T12:48:37Z</time>
      </trkpt>
      <trkpt lat="45.18864" lon="6.9789">
        <ele>1483.93</ele>
        <time>2016-10-05T12:48:38Z</time>
      </trkpt>
      <trkpt lat="45.18857" lon="6.97891">
        <ele>1482.97</ele>
        <time>2016-10-05T12:48:39Z</time>
      </trkpt>
      <trkpt lat="45.1885" lon="6.9789">
        <ele>1483.45</ele>
        <time>2016-10-05T12:48:40Z</time>
      </trkpt>
      <trkpt lat="45.18843" lon="6.97886">
        <ele>1482.49</ele>
        <time>2016-10-05T12:48:41Z</time>
      </trkpt>
      <trkpt lat="45.18835" lon="6.97883">
        <ele>1482.49</ele>
        <time>2016-10-05T12:48:42Z</time>
      </trkpt>
      <trkpt lat="45.18809" lon="6.97871">
        <ele>1480.57</ele>
        <time>2016-10-05T12:48:45Z</time>
      </trkpt>
      <trkpt lat="45.18773" lon="6.97853">
        <ele>1477.68</ele>
        <time>2016-10-05T12:48:49Z</time>
      </trkpt>
      <trkpt lat="45.18765" lon="6.97845">
        <ele>1476.24</ele>
        <time>2016-10-05T12:48:50Z</time>
      </trkpt>
      <trkpt lat="45.18758" lon="6.97835">
        <ele>1475.76</ele>
        <time>2016-10-05T12:48:51Z</time>
      </trkpt>
      <trkpt lat="45.18734" lon="6.97794">
        <ele>1473.36</ele>
        <time>2016-10-05T12:48:55Z</time>
      </trkpt>
      <trkpt lat="45.18727" lon="6.97787">
        <ele>1473.36</ele>
        <time>2016-10-05T12:48:56Z</time>
      </trkpt>
      <trkpt lat="45.18719" lon="6.97784">
        <ele>1472.4</ele>
        <time>2016-10-05T12:48:57Z</time>
      </trkpt>
      <trkpt lat="45.1871" lon="6.97785">
        <ele>1471.92</ele>
        <time>2016-10-05T12:48:58Z</time>
      </trkpt>
      <trkpt lat="45.18701" lon="6.9779">
        <ele>1471.44</ele>
        <time>2016-10-05T12:48:59Z</time>
      </trkpt>
      <trkpt lat="45.18694" lon="6.97798">
        <ele>1470.47</ele>
        <time>2016-10-05T12:49:00Z</time>
      </trkpt>
      <trkpt lat="45.18688" lon="6.97809">
        <ele>1469.99</ele>
        <time>2016-10-05T12:49:01Z</time>
      </trkpt>
      <trkpt lat="45.18684" lon="6.9782">
        <ele>1469.03</ele>
        <time>2016-10-05T12:49:02Z</time>
      </trkpt>
      <trkpt lat="45.18665" lon="6.97871">
        <ele>1465.67</ele>
        <time>2016-10-05T12:49:06Z</time>
      </trkpt>
      <trkpt lat="45.1865" lon="6.97911">
        <ele>1461.34</ele>
        <time>2016-10-05T12:49:09Z</time>
      </trkpt>
      <trkpt lat="45.18646" lon="6.97925">
        <ele>1460.86</ele>
        <time>2016-10-05T12:49:10Z</time>
      </trkpt>
      <trkpt lat="45.18624" lon="6.97992">
        <ele>1457.02</ele>
        <time>2016-10-05T12:49:15Z</time>
      </trkpt>
      <trkpt lat="45.18619" lon="6.98004">
        <ele>1455.57</ele>
        <time>2016-10-05T12:49:16Z</time>
      </trkpt>
      <trkpt lat="45.18614" lon="6.98015">
        <ele>1454.13</ele>
        <time>2016-10-05T12:49:17Z</time>
      </trkpt>
      <trkpt lat="45.18608" lon="6.98025">
        <ele>1453.17</ele>
        <time>2016-10-05T12:49:18Z</time>
      </trkpt>
      <trkpt lat="45.18602" lon="6.98034">
        <ele>1452.69</ele>
        <time>2016-10-05T12:49:19Z</time>
      </trkpt>
      <trkpt lat="45.18595" lon="6.98043">
        <ele>1451.25</ele>
        <time>2016-10-05T12:49:20Z</time>
      </trkpt>
      <trkpt lat="45.18587" lon="6.98052">
        <ele>1449.81</ele>
        <time>2016-10-05T12:49:21Z</time>
      </trkpt>
      <trkpt lat="45.18578" lon="6.9806">
        <ele>1450.29</ele>
        <time>2016-10-05T12:49:22Z</time>
      </trkpt>
      <trkpt lat="45.18543" lon="6.98096">
        <ele>1446.92</ele>
        <time>2016-10-05T12:49:26Z</time>
      </trkpt>
      <trkpt lat="45.18536" lon="6.98108">
        <ele>1445.96</ele>
        <time>2016-10-05T12:49:27Z</time>
      </trkpt>
      <trkpt lat="45.1853" lon="6.98122">
        <ele>1444.04</ele>
        <time>2016-10-05T12:49:28Z</time>
      </trkpt>
      <trkpt lat="45.18526" lon="6.98137">
        <ele>1444.52</ele>
        <time>2016-10-05T12:49:29Z</time>
      </trkpt>
      <trkpt lat="45.18519" lon="6.98167">
        <ele>1441.15</ele>
        <time>2016-10-05T12:49:31Z</time>
      </trkpt>
      <trkpt lat="45.18516" lon="6.98183">
        <ele>1440.67</ele>
        <time>2016-10-05T12:49:32Z</time>
      </trkpt>
      <trkpt lat="45.18513" lon="6.98198">
        <ele>1439.71</ele>
        <time>2016-10-05T12:49:33Z</time>
      </trkpt>
      <trkpt lat="45.18502" lon="6.98262">
        <ele>1435.87</ele>
        <time>2016-10-05T12:49:37Z</time>
      </trkpt>
      <trkpt lat="45.185" lon="6.98327">
        <ele>1431.54</ele>
        <time>2016-10-05T12:49:41Z</time>
      </trkpt>
      <trkpt lat="45.18499" lon="6.98374">
        <ele>1428.66</ele>
        <time>2016-10-05T12:49:44Z</time>
      </trkpt>
      <trkpt lat="45.18497" lon="6.98389">
        <ele>1427.7</ele>
        <time>2016-10-05T12:49:45Z</time>
      </trkpt>
      <trkpt lat="45.18494" lon="6.98405">
        <ele>1426.73</ele>
        <time>2016-10-05T12:49:46Z</time>
      </trkpt>
      <trkpt lat="45.18489" lon="6.98419">
        <ele>1425.29</ele>
        <time>2016-10-05T12:49:47Z</time>
      </trkpt>
      <trkpt lat="45.18478" lon="6.98446">
        <ele>1423.85</ele>
        <time>2016-10-05T12:49:49Z</time>
      </trkpt>
      <trkpt lat="45.18473" lon="6.9846">
        <ele>1422.89</ele>
        <time>2016-10-05T12:49:50Z</time>
      </trkpt>
      <trkpt lat="45.1847" lon="6.98475">
        <ele>1422.41</ele>
        <time>2016-10-05T12:49:51Z</time>
      </trkpt>
      <trkpt lat="45.18468" lon="6.98491">
        <ele>1421.45</ele>
        <time>2016-10-05T12:49:52Z</time>
      </trkpt>
      <trkpt lat="45.18468" lon="6.98507">
        <ele>1420.97</ele>
        <time>2016-10-05T12:49:53Z</time>
      </trkpt>
      <trkpt lat="45.18463" lon="6.98555">
        <ele>1417.12</ele>
        <time>2016-10-05T12:49:56Z</time>
      </trkpt>
      <trkpt lat="45.1846" lon="6.98571">
        <ele>1416.16</ele>
        <time>2016-10-05T12:49:57Z</time>
      </trkpt>
      <trkpt lat="45.18456" lon="6.98587">
        <ele>1415.68</ele>
        <time>2016-10-05T12:49:58Z</time>
      </trkpt>
      <trkpt lat="45.18451" lon="6.98602">
        <ele>1414.24</ele>
        <time>2016-10-05T12:49:59Z</time>
      </trkpt>
      <trkpt lat="45.18445" lon="6.98615">
        <ele>1414.24</ele>
        <time>2016-10-05T12:50:00Z</time>
      </trkpt>
      <trkpt lat="45.18433" lon="6.98642">
        <ele>1411.35</ele>
        <time>2016-10-05T12:50:02Z</time>
      </trkpt>
      <trkpt lat="45.18426" lon="6.98654">
        <ele>1411.35</ele>
        <time>2016-10-05T12:50:03Z</time>
      </trkpt>
      <trkpt lat="45.18414" lon="6.98679">
        <ele>1407.99</ele>
        <time>2016-10-05T12:50:05Z</time>
      </trkpt>
      <trkpt lat="45.18398" lon="6.98714">
        <ele>1404.62</ele>
        <time>2016-10-05T12:50:08Z</time>
      </trkpt>
      <trkpt lat="45.18376" lon="6.98751">
        <ele>1400.78</ele>
        <time>2016-10-05T12:50:12Z</time>
      </trkpt>
      <trkpt lat="45.18368" lon="6.98758">
        <ele>1399.82</ele>
        <time>2016-10-05T12:50:13Z</time>
      </trkpt>
      <trkpt lat="45.18359" lon="6.98762">
        <ele>1399.34</ele>
        <time>2016-10-05T12:50:14Z</time>
      </trkpt>
      <trkpt lat="45.1835" lon="6.98764">
        <ele>1398.37</ele>
        <time>2016-10-05T12:50:15Z</time>
      </trkpt>
      <trkpt lat="45.1834" lon="6.98763">
        <ele>1397.89</ele>
        <time>2016-10-05T12:50:16Z</time>
      </trkpt>
      <trkpt lat="45.18331" lon="6.98761">
        <ele>1397.41</ele>
        <time>2016-10-05T12:50:17Z</time>
      </trkpt>
      <trkpt lat="45.18322" lon="6.9876">
        <ele>1396.93</ele>
        <time>2016-10-05T12:50:18Z</time>
      </trkpt>
      <trkpt lat="45.18315" lon="6.98762">
        <ele>1394.53</ele>
        <time>2016-10-05T12:50:19Z</time>
      </trkpt>
      <trkpt lat="45.18308" lon="6.98768">
        <ele>1392.61</ele>
        <time>2016-10-05T12:50:20Z</time>
      </trkpt>
      <trkpt lat="45.18302" lon="6.98777">
        <ele>1392.61</ele>
        <time>2016-10-05T12:50:21Z</time>
      </trkpt>
      <trkpt lat="45.18299" lon="6.98788">
        <ele>1391.65</ele>
        <time>2016-10-05T12:50:22Z</time>
      </trkpt>
      <trkpt lat="45.18297" lon="6.98801">
        <ele>1390.68</ele>
        <time>2016-10-05T12:50:23Z</time>
      </trkpt>
      <trkpt lat="45.18297" lon="6.98815">
        <ele>1389.72</ele>
        <time>2016-10-05T12:50:24Z</time>
      </trkpt>
      <trkpt lat="45.183" lon="6.98831">
        <ele>1387.8</ele>
        <time>2016-10-05T12:50:25Z</time>
      </trkpt>
      <trkpt lat="45.18305" lon="6.98846">
        <ele>1386.84</ele>
        <time>2016-10-05T12:50:26Z</time>
      </trkpt>
      <trkpt lat="45.18309" lon="6.9886">
        <ele>1385.88</ele>
        <time>2016-10-05T12:50:27Z</time>
      </trkpt>
      <trkpt lat="45.18313" lon="6.98874">
        <ele>1385.88</ele>
        <time>2016-10-05T12:50:28Z</time>
      </trkpt>
      <trkpt lat="45.18316" lon="6.98888">
        <ele>1384.92</ele>
        <time>2016-10-05T12:50:29Z</time>
      </trkpt>
      <trkpt lat="45.18316" lon="6.98902">
        <ele>1383.47</ele>
        <time>2016-10-05T12:50:30Z</time>
      </trkpt>
      <trkpt lat="45.18315" lon="6.98916">
        <ele>1382.99</ele>
        <time>2016-10-05T12:50:31Z</time>
      </trkpt>
      <trkpt lat="45.18311" lon="6.98931">
        <ele>1381.55</ele>
        <time>2016-10-05T12:50:32Z</time>
      </trkpt>
      <trkpt lat="45.18306" lon="6.98945">
        <ele>1380.11</ele>
        <time>2016-10-05T12:50:33Z</time>
      </trkpt>
      <trkpt lat="45.18293" lon="6.98974">
        <ele>1376.75</ele>
        <time>2016-10-05T12:50:35Z</time>
      </trkpt>
      <trkpt lat="45.18272" lon="6.99019">
        <ele>1373.38</ele>
        <time>2016-10-05T12:50:38Z</time>
      </trkpt>
      <trkpt lat="45.1825" lon="6.99065">
        <ele>1370.5</ele>
        <time>2016-10-05T12:50:41Z</time>
      </trkpt>
      <trkpt lat="45.18228" lon="6.99112">
        <ele>1366.65</ele>
        <time>2016-10-05T12:50:44Z</time>
      </trkpt>
      <trkpt lat="45.18214" lon="6.99143">
        <ele>1365.21</ele>
        <time>2016-10-05T12:50:46Z</time>
      </trkpt>
      <trkpt lat="45.18194" lon="6.9919">
        <ele>1362.33</ele>
        <time>2016-10-05T12:50:49Z</time>
      </trkpt>
      <trkpt lat="45.18175" lon="6.9924">
        <ele>1358</ele>
        <time>2016-10-05T12:50:52Z</time>
      </trkpt>
      <trkpt lat="45.1816" lon="6.99295">
        <ele>1355.12</ele>
        <time>2016-10-05T12:50:55Z</time>
      </trkpt>
      <trkpt lat="45.18148" lon="6.99347">
        <ele>1351.75</ele>
        <time>2016-10-05T12:50:58Z</time>
      </trkpt>
      <trkpt lat="45.18136" lon="6.99397">
        <ele>1347.91</ele>
        <time>2016-10-05T12:51:01Z</time>
      </trkpt>
      <trkpt lat="45.18121" lon="6.99444">
        <ele>1344.54</ele>
        <time>2016-10-05T12:51:04Z</time>
      </trkpt>
      <trkpt lat="45.18098" lon="6.995">
        <ele>1340.7</ele>
        <time>2016-10-05T12:51:08Z</time>
      </trkpt>
      <trkpt lat="45.1806" lon="6.99566">
        <ele>1339.25</ele>
        <time>2016-10-05T12:51:14Z</time>
      </trkpt>
      <trkpt lat="45.18052" lon="6.99574">
        <ele>1338.77</ele>
        <time>2016-10-05T12:51:15Z</time>
      </trkpt>
      <trkpt lat="45.18043" lon="6.99579">
        <ele>1337.81</ele>
        <time>2016-10-05T12:51:16Z</time>
      </trkpt>
      <trkpt lat="45.18034" lon="6.99581">
        <ele>1337.33</ele>
        <time>2016-10-05T12:51:17Z</time>
      </trkpt>
      <trkpt lat="45.18024" lon="6.99582">
        <ele>1336.37</ele>
        <time>2016-10-05T12:51:18Z</time>
      </trkpt>
      <trkpt lat="45.18015" lon="6.9958">
        <ele>1335.89</ele>
        <time>2016-10-05T12:51:19Z</time>
      </trkpt>
      <trkpt lat="45.18005" lon="6.99578">
        <ele>1334.93</ele>
        <time>2016-10-05T12:51:20Z</time>
      </trkpt>
      <trkpt lat="45.17976" lon="6.99569">
        <ele>1332.04</ele>
        <time>2016-10-05T12:51:23Z</time>
      </trkpt>
      <trkpt lat="45.17967" lon="6.99563">
        <ele>1330.6</ele>
        <time>2016-10-05T12:51:24Z</time>
      </trkpt>
      <trkpt lat="45.17958" lon="6.99555">
        <ele>1329.64</ele>
        <time>2016-10-05T12:51:25Z</time>
      </trkpt>
      <trkpt lat="45.17933" lon="6.99534">
        <ele>1327.24</ele>
        <time>2016-10-05T12:51:28Z</time>
      </trkpt>
      <trkpt lat="45.17925" lon="6.9953">
        <ele>1326.28</ele>
        <time>2016-10-05T12:51:29Z</time>
      </trkpt>
      <trkpt lat="45.17916" lon="6.99528">
        <ele>1326.28</ele>
        <time>2016-10-05T12:51:30Z</time>
      </trkpt>
      <trkpt lat="45.17906" lon="6.99528">
        <ele>1324.83</ele>
        <time>2016-10-05T12:51:31Z</time>
      </trkpt>
      <trkpt lat="45.17897" lon="6.99528">
        <ele>1324.35</ele>
        <time>2016-10-05T12:51:32Z</time>
      </trkpt>
      <trkpt lat="45.17887" lon="6.9953">
        <ele>1323.87</ele>
        <time>2016-10-05T12:51:33Z</time>
      </trkpt>
      <trkpt lat="45.17877" lon="6.99532">
        <ele>1322.91</ele>
        <time>2016-10-05T12:51:34Z</time>
      </trkpt>
      <trkpt lat="45.17866" lon="6.99537">
        <ele>1322.43</ele>
        <time>2016-10-05T12:51:35Z</time>
      </trkpt>
      <trkpt lat="45.17857" lon="6.99544">
        <ele>1320.99</ele>
        <time>2016-10-05T12:51:36Z</time>
      </trkpt>
      <trkpt lat="45.17848" lon="6.99552">
        <ele>1319.07</ele>
        <time>2016-10-05T12:51:37Z</time>
      </trkpt>
      <trkpt lat="45.17839" lon="6.99562">
        <ele>1318.1</ele>
        <time>2016-10-05T12:51:38Z</time>
      </trkpt>
      <trkpt lat="45.17801" lon="6.99598">
        <ele>1313.3</ele>
        <time>2016-10-05T12:51:42Z</time>
      </trkpt>
      <trkpt lat="45.17791" lon="6.99605">
        <ele>1313.78</ele>
        <time>2016-10-05T12:51:43Z</time>
      </trkpt>
      <trkpt lat="45.1778" lon="6.9961">
        <ele>1312.34</ele>
        <time>2016-10-05T12:51:44Z</time>
      </trkpt>
      <trkpt lat="45.17738" lon="6.99628">
        <ele>1308.97</ele>
        <time>2016-10-05T12:51:48Z</time>
      </trkpt>
      <trkpt lat="45.17717" lon="6.99637">
        <ele>1308.01</ele>
        <time>2016-10-05T12:51:50Z</time>
      </trkpt>
      <trkpt lat="45.17686" lon="6.99655">
        <ele>1304.65</ele>
        <time>2016-10-05T12:51:53Z</time>
      </trkpt>
      <trkpt lat="45.17667" lon="6.9967">
        <ele>1302.72</ele>
        <time>2016-10-05T12:51:55Z</time>
      </trkpt>
      <trkpt lat="45.17657" lon="6.99676">
        <ele>1301.28</ele>
        <time>2016-10-05T12:51:56Z</time>
      </trkpt>
      <trkpt lat="45.1762" lon="6.997">
        <ele>1298.88</ele>
        <time>2016-10-05T12:52:00Z</time>
      </trkpt>
      <trkpt lat="45.17612" lon="6.99711">
        <ele>1296.96</ele>
        <time>2016-10-05T12:52:01Z</time>
      </trkpt>
      <trkpt lat="45.17588" lon="6.99753">
        <ele>1293.59</ele>
        <time>2016-10-05T12:52:05Z</time>
      </trkpt>
      <trkpt lat="45.17572" lon="6.99775">
        <ele>1289.75</ele>
        <time>2016-10-05T12:52:08Z</time>
      </trkpt>
      <trkpt lat="45.17565" lon="6.99779">
        <ele>1289.27</ele>
        <time>2016-10-05T12:52:09Z</time>
      </trkpt>
      <trkpt lat="45.17556" lon="6.9978">
        <ele>1288.78</ele>
        <time>2016-10-05T12:52:10Z</time>
      </trkpt>
      <trkpt lat="45.17537" lon="6.99779">
        <ele>1286.86</ele>
        <time>2016-10-05T12:52:12Z</time>
      </trkpt>
      <trkpt lat="45.17528" lon="6.99782">
        <ele>1285.9</ele>
        <time>2016-10-05T12:52:13Z</time>
      </trkpt>
      <trkpt lat="45.17518" lon="6.99788">
        <ele>1285.42</ele>
        <time>2016-10-05T12:52:14Z</time>
      </trkpt>
      <trkpt lat="45.1751" lon="6.99797">
        <ele>1284.46</ele>
        <time>2016-10-05T12:52:15Z</time>
      </trkpt>
      <trkpt lat="45.17501" lon="6.99806">
        <ele>1282.06</ele>
        <time>2016-10-05T12:52:16Z</time>
      </trkpt>
      <trkpt lat="45.17493" lon="6.99817">
        <ele>1282.54</ele>
        <time>2016-10-05T12:52:17Z</time>
      </trkpt>
      <trkpt lat="45.17468" lon="6.99849">
        <ele>1279.17</ele>
        <time>2016-10-05T12:52:20Z</time>
      </trkpt>
      <trkpt lat="45.17442" lon="6.99881">
        <ele>1275.81</ele>
        <time>2016-10-05T12:52:23Z</time>
      </trkpt>
      <trkpt lat="45.17425" lon="6.999">
        <ele>1273.4</ele>
        <time>2016-10-05T12:52:25Z</time>
      </trkpt>
      <trkpt lat="45.17417" lon="6.99911">
        <ele>1272.92</ele>
        <time>2016-10-05T12:52:26Z</time>
      </trkpt>
      <trkpt lat="45.1741" lon="6.99923">
        <ele>1272.44</ele>
        <time>2016-10-05T12:52:27Z</time>
      </trkpt>
      <trkpt lat="45.17394" lon="6.9996">
        <ele>1268.6</ele>
        <time>2016-10-05T12:52:30Z</time>
      </trkpt>
      <trkpt lat="45.17386" lon="6.99971">
        <ele>1268.12</ele>
        <time>2016-10-05T12:52:31Z</time>
      </trkpt>
      <trkpt lat="45.17376" lon="6.9998">
        <ele>1266.67</ele>
        <time>2016-10-05T12:52:32Z</time>
      </trkpt>
      <trkpt lat="45.17345" lon="7.00004">
        <ele>1262.83</ele>
        <time>2016-10-05T12:52:35Z</time>
      </trkpt>
      <trkpt lat="45.17334" lon="7.00012">
        <ele>1262.83</ele>
        <time>2016-10-05T12:52:36Z</time>
      </trkpt>
      <trkpt lat="45.17322" lon="7.00019">
        <ele>1261.39</ele>
        <time>2016-10-05T12:52:37Z</time>
      </trkpt>
      <trkpt lat="45.17285" lon="7.00036">
        <ele>1258.02</ele>
        <time>2016-10-05T12:52:40Z</time>
      </trkpt>
      <trkpt lat="45.17249" lon="7.00052">
        <ele>1254.66</ele>
        <time>2016-10-05T12:52:43Z</time>
      </trkpt>
      <trkpt lat="45.17214" lon="7.00068">
        <ele>1252.25</ele>
        <time>2016-10-05T12:52:46Z</time>
      </trkpt>
      <trkpt lat="45.17184" lon="7.0008">
        <ele>1248.41</ele>
        <time>2016-10-05T12:52:49Z</time>
      </trkpt>
      <trkpt lat="45.17156" lon="7.00094">
        <ele>1246.49</ele>
        <time>2016-10-05T12:52:53Z</time>
      </trkpt>
      <trkpt lat="45.17153" lon="7.001">
        <ele>1246.49</ele>
        <time>2016-10-05T12:52:54Z</time>
      </trkpt>
      <trkpt lat="45.17153" lon="7.00107">
        <ele>1245.04</ele>
        <time>2016-10-05T12:52:55Z</time>
      </trkpt>
      <trkpt lat="45.17155" lon="7.00113">
        <ele>1246.01</ele>
        <time>2016-10-05T12:52:56Z</time>
      </trkpt>
      <trkpt lat="45.17162" lon="7.00117">
        <ele>1245.04</ele>
        <time>2016-10-05T12:52:57Z</time>
      </trkpt>
      <trkpt lat="45.17169" lon="7.00118">
        <ele>1246.01</ele>
        <time>2016-10-05T12:52:58Z</time>
      </trkpt>
      <trkpt lat="45.17176" lon="7.00117">
        <ele>1244.08</ele>
        <time>2016-10-05T12:52:59Z</time>
      </trkpt>
      <trkpt lat="45.17183" lon="7.00116">
        <ele>1243.6</ele>
        <time>2016-10-05T12:53:00Z</time>
      </trkpt>
      <trkpt lat="45.17191" lon="7.00114">
        <ele>1243.12</ele>
        <time>2016-10-05T12:53:01Z</time>
      </trkpt>
      <trkpt lat="45.17243" lon="7.00115">
        <ele>1238.8</ele>
        <time>2016-10-05T12:53:07Z</time>
      </trkpt>
      <trkpt lat="45.17252" lon="7.00118">
        <ele>1238.8</ele>
        <time>2016-10-05T12:53:08Z</time>
      </trkpt>
      <trkpt lat="45.17282" lon="7.00131">
        <ele>1234.95</ele>
        <time>2016-10-05T12:53:11Z</time>
      </trkpt>
      <trkpt lat="45.1731" lon="7.00143">
        <ele>1233.03</ele>
        <time>2016-10-05T12:53:14Z</time>
      </trkpt>
      <trkpt lat="45.17319" lon="7.00145">
        <ele>1232.07</ele>
        <time>2016-10-05T12:53:15Z</time>
      </trkpt>
      <trkpt lat="45.17329" lon="7.00146">
        <ele>1232.07</ele>
        <time>2016-10-05T12:53:16Z</time>
      </trkpt>
      <trkpt lat="45.17339" lon="7.00144">
        <ele>1233.03</ele>
        <time>2016-10-05T12:53:17Z</time>
      </trkpt>
      <trkpt lat="45.17349" lon="7.00141">
        <ele>1231.11</ele>
        <time>2016-10-05T12:53:18Z</time>
      </trkpt>
      <trkpt lat="45.17359" lon="7.00137">
        <ele>1229.18</ele>
        <time>2016-10-05T12:53:19Z</time>
      </trkpt>
      <trkpt lat="45.17379" lon="7.00129">
        <ele>1228.22</ele>
        <time>2016-10-05T12:53:21Z</time>
      </trkpt>
      <trkpt lat="45.17398" lon="7.00117">
        <ele>1226.78</ele>
        <time>2016-10-05T12:53:23Z</time>
      </trkpt>
      <trkpt lat="45.17426" lon="7.00089">
        <ele>1223.42</ele>
        <time>2016-10-05T12:53:26Z</time>
      </trkpt>
      <trkpt lat="45.17453" lon="7.00056">
        <ele>1220.05</ele>
        <time>2016-10-05T12:53:29Z</time>
      </trkpt>
      <trkpt lat="45.17462" lon="7.00047">
        <ele>1218.13</ele>
        <time>2016-10-05T12:53:30Z</time>
      </trkpt>
      <trkpt lat="45.17471" lon="7.00039">
        <ele>1216.69</ele>
        <time>2016-10-05T12:53:31Z</time>
      </trkpt>
      <trkpt lat="45.17494" lon="7.00026">
        <ele>1214.28</ele>
        <time>2016-10-05T12:53:34Z</time>
      </trkpt>
      <trkpt lat="45.175" lon="7.00027">
        <ele>1213.32</ele>
        <time>2016-10-05T12:53:35Z</time>
      </trkpt>
      <trkpt lat="45.17504" lon="7.00031">
        <ele>1212.36</ele>
        <time>2016-10-05T12:53:36Z</time>
      </trkpt>
      <trkpt lat="45.17506" lon="7.00038">
        <ele>1211.88</ele>
        <time>2016-10-05T12:53:37Z</time>
      </trkpt>
      <trkpt lat="45.17505" lon="7.00046">
        <ele>1211.4</ele>
        <time>2016-10-05T12:53:38Z</time>
      </trkpt>
      <trkpt lat="45.17501" lon="7.00054">
        <ele>1210.92</ele>
        <time>2016-10-05T12:53:39Z</time>
      </trkpt>
      <trkpt lat="45.17494" lon="7.00061">
        <ele>1209.96</ele>
        <time>2016-10-05T12:53:40Z</time>
      </trkpt>
      <trkpt lat="45.17488" lon="7.00066">
        <ele>1209.96</ele>
        <time>2016-10-05T12:53:41Z</time>
      </trkpt>
      <trkpt lat="45.17448" lon="7.001">
        <ele>1206.59</ele>
        <time>2016-10-05T12:53:46Z</time>
      </trkpt>
      <trkpt lat="45.17441" lon="7.0011">
        <ele>1205.63</ele>
        <time>2016-10-05T12:53:47Z</time>
      </trkpt>
      <trkpt lat="45.17436" lon="7.00123">
        <ele>1205.63</ele>
        <time>2016-10-05T12:53:48Z</time>
      </trkpt>
      <trkpt lat="45.17418" lon="7.0018">
        <ele>1201.79</ele>
        <time>2016-10-05T12:53:52Z</time>
      </trkpt>
      <trkpt lat="45.17399" lon="7.00224">
        <ele>1198.9</ele>
        <time>2016-10-05T12:53:55Z</time>
      </trkpt>
      <trkpt lat="45.17375" lon="7.0026">
        <ele>1195.06</ele>
        <time>2016-10-05T12:53:58Z</time>
      </trkpt>
      <trkpt lat="45.17347" lon="7.00303">
        <ele>1191.69</ele>
        <time>2016-10-05T12:54:02Z</time>
      </trkpt>
      <trkpt lat="45.1734" lon="7.00312">
        <ele>1190.25</ele>
        <time>2016-10-05T12:54:03Z</time>
      </trkpt>
      <trkpt lat="45.17332" lon="7.00321">
        <ele>1189.77</ele>
        <time>2016-10-05T12:54:04Z</time>
      </trkpt>
      <trkpt lat="45.17324" lon="7.00328">
        <ele>1188.81</ele>
        <time>2016-10-05T12:54:05Z</time>
      </trkpt>
      <trkpt lat="45.17316" lon="7.00333">
        <ele>1187.85</ele>
        <time>2016-10-05T12:54:06Z</time>
      </trkpt>
      <trkpt lat="45.17306" lon="7.00335">
        <ele>1187.37</ele>
        <time>2016-10-05T12:54:07Z</time>
      </trkpt>
      <trkpt lat="45.17297" lon="7.00335">
        <ele>1187.37</ele>
        <time>2016-10-05T12:54:08Z</time>
      </trkpt>
      <trkpt lat="45.17287" lon="7.00333">
        <ele>1186.4</ele>
        <time>2016-10-05T12:54:09Z</time>
      </trkpt>
      <trkpt lat="45.17277" lon="7.00329">
        <ele>1184.96</ele>
        <time>2016-10-05T12:54:10Z</time>
      </trkpt>
      <trkpt lat="45.17267" lon="7.00325">
        <ele>1184</ele>
        <time>2016-10-05T12:54:11Z</time>
      </trkpt>
      <trkpt lat="45.1724" lon="7.00309">
        <ele>1180.16</ele>
        <time>2016-10-05T12:54:15Z</time>
      </trkpt>
      <trkpt lat="45.17236" lon="7.00308">
        <ele>1179.67</ele>
        <time>2016-10-05T12:54:16Z</time>
      </trkpt>
      <trkpt lat="45.17232" lon="7.00309">
        <ele>1179.19</ele>
        <time>2016-10-05T12:54:17Z</time>
      </trkpt>
      <trkpt lat="45.17227" lon="7.00312">
        <ele>1178.23</ele>
        <time>2016-10-05T12:54:19Z</time>
      </trkpt>
      <trkpt lat="45.17224" lon="7.00316">
        <ele>1178.23</ele>
        <time>2016-10-05T12:54:30Z</time>
      </trkpt>
      <trkpt lat="45.17229" lon="7.00315">
        <ele>1177.75</ele>
        <time>2016-10-05T12:55:06Z</time>
      </trkpt>
      <trkpt lat="45.17229" lon="7.0031">
        <ele>1177.27</ele>
        <time>2016-10-05T12:55:45Z</time>
      </trkpt>
      <trkpt lat="45.17229" lon="7.00304">
        <ele>1177.27</ele>
        <time>2016-10-05T12:56:22Z</time>
      </trkpt>
      <trkpt lat="45.17228" lon="7.00307">
        <ele>1176.79</ele>
        <time>2016-10-05T12:56:45Z</time>
      </trkpt>
      <trkpt lat="45.17227" lon="7.00308">
        <ele>1176.31</ele>
        <time>2016-10-05T12:57:12Z</time>
      </trkpt>
      <trkpt lat="45.17226" lon="7.00307">
        <ele>1175.83</ele>
        <time>2016-10-05T12:57:18Z</time>
      </trkpt>
      <trkpt lat="45.17225" lon="7.00306">
        <ele>1175.83</ele>
        <time>2016-10-05T12:57:19Z</time>
      </trkpt>
      <trkpt lat="45.17223" lon="7.00304">
        <ele>1175.35</ele>
        <time>2016-10-05T12:57:20Z</time>
      </trkpt>
      <trkpt lat="45.17214" lon="7.00291">
        <ele>1174.87</ele>
        <time>2016-10-05T12:57:24Z</time>
      </trkpt>
      <trkpt lat="45.1721" lon="7.00288">
        <ele>1173.91</ele>
        <time>2016-10-05T12:57:25Z</time>
      </trkpt>
      <trkpt lat="45.17206" lon="7.00285">
        <ele>1173.43</ele>
        <time>2016-10-05T12:57:26Z</time>
      </trkpt>
      <trkpt lat="45.17201" lon="7.00283">
        <ele>1173.43</ele>
        <time>2016-10-05T12:57:27Z</time>
      </trkpt>
      <trkpt lat="45.17195" lon="7.0028">
        <ele>1172.95</ele>
        <time>2016-10-05T12:57:28Z</time>
      </trkpt>
      <trkpt lat="45.17166" lon="7.00269">
        <ele>1169.58</ele>
        <time>2016-10-05T12:57:32Z</time>
      </trkpt>
      <trkpt lat="45.17123" lon="7.00251">
        <ele>1167.66</ele>
        <time>2016-10-05T12:57:37Z</time>
      </trkpt>
      <trkpt lat="45.17106" lon="7.00244">
        <ele>1165.74</ele>
        <time>2016-10-05T12:57:39Z</time>
      </trkpt>
      <trkpt lat="45.17074" lon="7.0023">
        <ele>1162.85</ele>
        <time>2016-10-05T12:57:43Z</time>
      </trkpt>
      <trkpt lat="45.17066" lon="7.00224">
        <ele>1160.93</ele>
        <time>2016-10-05T12:57:44Z</time>
      </trkpt>
      <trkpt lat="45.17059" lon="7.00216">
        <ele>1160.93</ele>
        <time>2016-10-05T12:57:45Z</time>
      </trkpt>
      <trkpt lat="45.17031" lon="7.00179">
        <ele>1157.56</ele>
        <time>2016-10-05T12:57:49Z</time>
      </trkpt>
      <trkpt lat="45.17014" lon="7.00162">
        <ele>1155.16</ele>
        <time>2016-10-05T12:57:51Z</time>
      </trkpt>
      <trkpt lat="45.17004" lon="7.00155">
        <ele>1154.68</ele>
        <time>2016-10-05T12:57:52Z</time>
      </trkpt>
      <trkpt lat="45.16994" lon="7.0015">
        <ele>1153.72</ele>
        <time>2016-10-05T12:57:53Z</time>
      </trkpt>
      <trkpt lat="45.1695" lon="7.00133">
        <ele>1149.87</ele>
        <time>2016-10-05T12:57:57Z</time>
      </trkpt>
      <trkpt lat="45.16905" lon="7.00114">
        <ele>1146.51</ele>
        <time>2016-10-05T12:58:01Z</time>
      </trkpt>
      <trkpt lat="45.16881" lon="7.00106">
        <ele>1145.07</ele>
        <time>2016-10-05T12:58:03Z</time>
      </trkpt>
      <trkpt lat="45.16845" lon="7.00091">
        <ele>1141.22</ele>
        <time>2016-10-05T12:58:06Z</time>
      </trkpt>
      <trkpt lat="45.16811" lon="7.00077">
        <ele>1137.38</ele>
        <time>2016-10-05T12:58:09Z</time>
      </trkpt>
      <trkpt lat="45.16777" lon="7.00062">
        <ele>1134.01</ele>
        <time>2016-10-05T12:58:12Z</time>
      </trkpt>
      <trkpt lat="45.16731" lon="7.00041">
        <ele>1130.17</ele>
        <time>2016-10-05T12:58:16Z</time>
      </trkpt>
      <trkpt lat="45.16698" lon="7.00018">
        <ele>1127.28</ele>
        <time>2016-10-05T12:58:19Z</time>
      </trkpt>
      <trkpt lat="45.16688" lon="7.00009">
        <ele>1125.84</ele>
        <time>2016-10-05T12:58:20Z</time>
      </trkpt>
      <trkpt lat="45.16658" lon="6.99977">
        <ele>1122.96</ele>
        <time>2016-10-05T12:58:23Z</time>
      </trkpt>
      <trkpt lat="45.16629" lon="6.99947">
        <ele>1119.59</ele>
        <time>2016-10-05T12:58:26Z</time>
      </trkpt>
      <trkpt lat="45.16603" lon="6.99924">
        <ele>1117.19</ele>
        <time>2016-10-05T12:58:29Z</time>
      </trkpt>
      <trkpt lat="45.16594" lon="6.99921">
        <ele>1117.19</ele>
        <time>2016-10-05T12:58:30Z</time>
      </trkpt>
      <trkpt lat="45.16585" lon="6.99921">
        <ele>1117.19</ele>
        <time>2016-10-05T12:58:31Z</time>
      </trkpt>
      <trkpt lat="45.16577" lon="6.99923">
        <ele>1116.71</ele>
        <time>2016-10-05T12:58:32Z</time>
      </trkpt>
      <trkpt lat="45.16568" lon="6.99927">
        <ele>1116.23</ele>
        <time>2016-10-05T12:58:33Z</time>
      </trkpt>
      <trkpt lat="45.1656" lon="6.99932">
        <ele>1115.75</ele>
        <time>2016-10-05T12:58:34Z</time>
      </trkpt>
      <trkpt lat="45.16552" lon="6.99938">
        <ele>1114.79</ele>
        <time>2016-10-05T12:58:35Z</time>
      </trkpt>
      <trkpt lat="45.16545" lon="6.99942">
        <ele>1114.31</ele>
        <time>2016-10-05T12:58:36Z</time>
      </trkpt>
      <trkpt lat="45.16537" lon="6.99945">
        <ele>1113.82</ele>
        <time>2016-10-05T12:58:37Z</time>
      </trkpt>
      <trkpt lat="45.16529" lon="6.99948">
        <ele>1113.34</ele>
        <time>2016-10-05T12:58:38Z</time>
      </trkpt>
      <trkpt lat="45.16521" lon="6.99948">
        <ele>1113.34</ele>
        <time>2016-10-05T12:58:39Z</time>
      </trkpt>
      <trkpt lat="45.16512" lon="6.99946">
        <ele>1112.38</ele>
        <time>2016-10-05T12:58:40Z</time>
      </trkpt>
      <trkpt lat="45.16502" lon="6.99944">
        <ele>1112.38</ele>
        <time>2016-10-05T12:58:41Z</time>
      </trkpt>
      <trkpt lat="45.16463" lon="6.99941">
        <ele>1109.98</ele>
        <time>2016-10-05T12:58:45Z</time>
      </trkpt>
      <trkpt lat="45.16455" lon="6.99938">
        <ele>1110.46</ele>
        <time>2016-10-05T12:58:46Z</time>
      </trkpt>
      <trkpt lat="45.16447" lon="6.99933">
        <ele>1109.02</ele>
        <time>2016-10-05T12:58:47Z</time>
      </trkpt>
      <trkpt lat="45.16334" lon="6.99836">
        <ele>1107.58</ele>
        <time>2016-10-05T12:59:02Z</time>
      </trkpt>
      <trkpt lat="45.16321" lon="6.99826">
        <ele>1107.1</ele>
        <time>2016-10-05T12:59:04Z</time>
      </trkpt>
      <trkpt lat="45.16313" lon="6.99822">
        <ele>1108.06</ele>
        <time>2016-10-05T12:59:05Z</time>
      </trkpt>
      <trkpt lat="45.16236" lon="6.99791">
        <ele>1108.06</ele>
        <time>2016-10-05T12:59:16Z</time>
      </trkpt>
      <trkpt lat="45.16179" lon="6.99748">
        <ele>1107.58</ele>
        <time>2016-10-05T12:59:26Z</time>
      </trkpt>
      <trkpt lat="45.16172" lon="6.99745">
        <ele>1107.1</ele>
        <time>2016-10-05T12:59:27Z</time>
      </trkpt>
      <trkpt lat="45.16166" lon="6.99743">
        <ele>1107.1</ele>
        <time>2016-10-05T12:59:28Z</time>
      </trkpt>
      <trkpt lat="45.1616" lon="6.99742">
        <ele>1106.61</ele>
        <time>2016-10-05T12:59:29Z</time>
      </trkpt>
      <trkpt lat="45.16153" lon="6.99742">
        <ele>1106.61</ele>
        <time>2016-10-05T12:59:30Z</time>
      </trkpt>
      <trkpt lat="45.16147" lon="6.99742">
        <ele>1107.1</ele>
        <time>2016-10-05T12:59:31Z</time>
      </trkpt>
      <trkpt lat="45.1614" lon="6.99742">
        <ele>1106.61</ele>
        <time>2016-10-05T12:59:32Z</time>
      </trkpt>
      <trkpt lat="45.16121" lon="6.99739">
        <ele>1106.61</ele>
        <time>2016-10-05T12:59:35Z</time>
      </trkpt>
      <trkpt lat="45.16115" lon="6.99738">
        <ele>1106.13</ele>
        <time>2016-10-05T12:59:36Z</time>
      </trkpt>
      <trkpt lat="45.16102" lon="6.99735">
        <ele>1107.1</ele>
        <time>2016-10-05T12:59:38Z</time>
      </trkpt>
      <trkpt lat="45.16096" lon="6.99732">
        <ele>1106.61</ele>
        <time>2016-10-05T12:59:39Z</time>
      </trkpt>
      <trkpt lat="45.1609" lon="6.99728">
        <ele>1106.61</ele>
        <time>2016-10-05T12:59:40Z</time>
      </trkpt>
      <trkpt lat="45.1604" lon="6.99676">
        <ele>1107.1</ele>
        <time>2016-10-05T12:59:50Z</time>
      </trkpt>
      <trkpt lat="45.16034" lon="6.99673">
        <ele>1107.1</ele>
        <time>2016-10-05T12:59:51Z</time>
      </trkpt>
      <trkpt lat="45.16028" lon="6.99671">
        <ele>1107.1</ele>
        <time>2016-10-05T12:59:52Z</time>
      </trkpt>
      <trkpt lat="45.16022" lon="6.99671">
        <ele>1107.1</ele>
        <time>2016-10-05T12:59:53Z</time>
      </trkpt>
      <trkpt lat="45.16015" lon="6.99672">
        <ele>1106.61</ele>
        <time>2016-10-05T12:59:54Z</time>
      </trkpt>
      <trkpt lat="45.16009" lon="6.99674">
        <ele>1106.61</ele>
        <time>2016-10-05T12:59:55Z</time>
      </trkpt>
      <trkpt lat="45.16003" lon="6.99677">
        <ele>1107.1</ele>
        <time>2016-10-05T12:59:56Z</time>
      </trkpt>
      <trkpt lat="45.15998" lon="6.99681">
        <ele>1107.1</ele>
        <time>2016-10-05T12:59:57Z</time>
      </trkpt>
      <trkpt lat="45.15973" lon="6.99691">
        <ele>1106.13</ele>
        <time>2016-10-05T13:00:01Z</time>
      </trkpt>
      <trkpt lat="45.15954" lon="6.99693">
        <ele>1105.65</ele>
        <time>2016-10-05T13:00:04Z</time>
      </trkpt>
      <trkpt lat="45.1594" lon="6.9969">
        <ele>1105.17</ele>
        <time>2016-10-05T13:00:06Z</time>
      </trkpt>
      <trkpt lat="45.15934" lon="6.99684">
        <ele>1104.69</ele>
        <time>2016-10-05T13:00:07Z</time>
      </trkpt>
      <trkpt lat="45.15929" lon="6.99677">
        <ele>1104.69</ele>
        <time>2016-10-05T13:00:08Z</time>
      </trkpt>
      <trkpt lat="45.15924" lon="6.99669">
        <ele>1104.69</ele>
        <time>2016-10-05T13:00:09Z</time>
      </trkpt>
      <trkpt lat="45.1592" lon="6.9966">
        <ele>1104.21</ele>
        <time>2016-10-05T13:00:10Z</time>
      </trkpt>
      <trkpt lat="45.1591" lon="6.99645">
        <ele>1104.21</ele>
        <time>2016-10-05T13:00:12Z</time>
      </trkpt>
      <trkpt lat="45.15896" lon="6.99636">
        <ele>1103.73</ele>
        <time>2016-10-05T13:00:14Z</time>
      </trkpt>
      <trkpt lat="45.15888" lon="6.99634">
        <ele>1102.77</ele>
        <time>2016-10-05T13:00:15Z</time>
      </trkpt>
      <trkpt lat="45.15879" lon="6.99634">
        <ele>1102.29</ele>
        <time>2016-10-05T13:00:16Z</time>
      </trkpt>
      <trkpt lat="45.1587" lon="6.99634">
        <ele>1101.81</ele>
        <time>2016-10-05T13:00:17Z</time>
      </trkpt>
      <trkpt lat="45.15861" lon="6.99633">
        <ele>1101.81</ele>
        <time>2016-10-05T13:00:18Z</time>
      </trkpt>
      <trkpt lat="45.15852" lon="6.9963">
        <ele>1101.81</ele>
        <time>2016-10-05T13:00:19Z</time>
      </trkpt>
      <trkpt lat="45.15842" lon="6.99626">
        <ele>1099.89</ele>
        <time>2016-10-05T13:00:20Z</time>
      </trkpt>
      <trkpt lat="45.1578" lon="6.99589">
        <ele>1097</ele>
        <time>2016-10-05T13:00:27Z</time>
      </trkpt>
      <trkpt lat="45.15771" lon="6.99584">
        <ele>1096.52</ele>
        <time>2016-10-05T13:00:28Z</time>
      </trkpt>
      <trkpt lat="45.15761" lon="6.99581">
        <ele>1096.52</ele>
        <time>2016-10-05T13:00:29Z</time>
      </trkpt>
      <trkpt lat="45.15742" lon="6.99577">
        <ele>1096.04</ele>
        <time>2016-10-05T13:00:31Z</time>
      </trkpt>
      <trkpt lat="45.15723" lon="6.99576">
        <ele>1094.12</ele>
        <time>2016-10-05T13:00:33Z</time>
      </trkpt>
      <trkpt lat="45.15714" lon="6.99573">
        <ele>1093.64</ele>
        <time>2016-10-05T13:00:34Z</time>
      </trkpt>
      <trkpt lat="45.15706" lon="6.99568">
        <ele>1093.64</ele>
        <time>2016-10-05T13:00:35Z</time>
      </trkpt>
      <trkpt lat="45.15699" lon="6.99561">
        <ele>1093.64</ele>
        <time>2016-10-05T13:00:36Z</time>
      </trkpt>
      <trkpt lat="45.15692" lon="6.99552">
        <ele>1092.68</ele>
        <time>2016-10-05T13:00:37Z</time>
      </trkpt>
      <trkpt lat="45.15632" lon="6.99481">
        <ele>1090.27</ele>
        <time>2016-10-05T13:00:45Z</time>
      </trkpt>
      <trkpt lat="45.15606" lon="6.9944">
        <ele>1087.87</ele>
        <time>2016-10-05T13:00:49Z</time>
      </trkpt>
      <trkpt lat="45.15599" lon="6.99431">
        <ele>1087.87</ele>
        <time>2016-10-05T13:00:50Z</time>
      </trkpt>
      <trkpt lat="45.15592" lon="6.99424">
        <ele>1088.35</ele>
        <time>2016-10-05T13:00:51Z</time>
      </trkpt>
      <trkpt lat="45.15584" lon="6.99419">
        <ele>1087.39</ele>
        <time>2016-10-05T13:00:52Z</time>
      </trkpt>
      <trkpt lat="45.15575" lon="6.99415">
        <ele>1086.91</ele>
        <time>2016-10-05T13:00:53Z</time>
      </trkpt>
      <trkpt lat="45.15565" lon="6.99412">
        <ele>1086.91</ele>
        <time>2016-10-05T13:00:54Z</time>
      </trkpt>
      <trkpt lat="45.15538" lon="6.99402">
        <ele>1085.47</ele>
        <time>2016-10-05T13:00:57Z</time>
      </trkpt>
      <trkpt lat="45.15529" lon="6.99397">
        <ele>1084.99</ele>
        <time>2016-10-05T13:00:58Z</time>
      </trkpt>
      <trkpt lat="45.15521" lon="6.9939">
        <ele>1084.02</ele>
        <time>2016-10-05T13:00:59Z</time>
      </trkpt>
      <trkpt lat="45.15513" lon="6.99382">
        <ele>1083.54</ele>
        <time>2016-10-05T13:01:00Z</time>
      </trkpt>
      <trkpt lat="45.15507" lon="6.99374">
        <ele>1083.54</ele>
        <time>2016-10-05T13:01:01Z</time>
      </trkpt>
      <trkpt lat="45.155" lon="6.99365">
        <ele>1083.54</ele>
        <time>2016-10-05T13:01:02Z</time>
      </trkpt>
      <trkpt lat="45.1548" lon="6.9934">
        <ele>1082.58</ele>
        <time>2016-10-05T13:01:05Z</time>
      </trkpt>
      <trkpt lat="45.15473" lon="6.99333">
        <ele>1082.1</ele>
        <time>2016-10-05T13:01:06Z</time>
      </trkpt>
      <trkpt lat="45.15466" lon="6.99328">
        <ele>1081.62</ele>
        <time>2016-10-05T13:01:07Z</time>
      </trkpt>
      <trkpt lat="45.15458" lon="6.99325">
        <ele>1081.14</ele>
        <time>2016-10-05T13:01:08Z</time>
      </trkpt>
      <trkpt lat="45.1545" lon="6.99324">
        <ele>1081.62</ele>
        <time>2016-10-05T13:01:09Z</time>
      </trkpt>
      <trkpt lat="45.15441" lon="6.99325">
        <ele>1080.66</ele>
        <time>2016-10-05T13:01:10Z</time>
      </trkpt>
      <trkpt lat="45.15432" lon="6.99328">
        <ele>1080.66</ele>
        <time>2016-10-05T13:01:11Z</time>
      </trkpt>
      <trkpt lat="45.15424" lon="6.99333">
        <ele>1079.7</ele>
        <time>2016-10-05T13:01:12Z</time>
      </trkpt>
      <trkpt lat="45.15416" lon="6.99339">
        <ele>1079.22</ele>
        <time>2016-10-05T13:01:13Z</time>
      </trkpt>
      <trkpt lat="45.1541" lon="6.99348">
        <ele>1079.22</ele>
        <time>2016-10-05T13:01:14Z</time>
      </trkpt>
      <trkpt lat="45.15405" lon="6.99358">
        <ele>1077.29</ele>
        <time>2016-10-05T13:01:15Z</time>
      </trkpt>
      <trkpt lat="45.154" lon="6.99368">
        <ele>1076.33</ele>
        <time>2016-10-05T13:01:16Z</time>
      </trkpt>
      <trkpt lat="45.15395" lon="6.99382">
        <ele>1075.37</ele>
        <time>2016-10-05T13:01:17Z</time>
      </trkpt>
      <trkpt lat="45.1539" lon="6.99395">
        <ele>1075.37</ele>
        <time>2016-10-05T13:01:18Z</time>
      </trkpt>
      <trkpt lat="45.15384" lon="6.99408">
        <ele>1076.81</ele>
        <time>2016-10-05T13:01:19Z</time>
      </trkpt>
      <trkpt lat="45.15378" lon="6.99421">
        <ele>1075.85</ele>
        <time>2016-10-05T13:01:20Z</time>
      </trkpt>
      <trkpt lat="45.15373" lon="6.99433">
        <ele>1075.37</ele>
        <time>2016-10-05T13:01:21Z</time>
      </trkpt>
      <trkpt lat="45.15364" lon="6.99462">
        <ele>1072.97</ele>
        <time>2016-10-05T13:01:23Z</time>
      </trkpt>
      <trkpt lat="45.15363" lon="6.99478">
        <ele>1073.45</ele>
        <time>2016-10-05T13:01:24Z</time>
      </trkpt>
      <trkpt lat="45.1536" lon="6.99508">
        <ele>1072.01</ele>
        <time>2016-10-05T13:01:26Z</time>
      </trkpt>
      <trkpt lat="45.15357" lon="6.99522">
        <ele>1071.05</ele>
        <time>2016-10-05T13:01:27Z</time>
      </trkpt>
      <trkpt lat="45.15352" lon="6.99536">
        <ele>1070.08</ele>
        <time>2016-10-05T13:01:28Z</time>
      </trkpt>
      <trkpt lat="45.15328" lon="6.99588">
        <ele>1068.64</ele>
        <time>2016-10-05T13:01:32Z</time>
      </trkpt>
      <trkpt lat="45.15284" lon="6.99656">
        <ele>1066.24</ele>
        <time>2016-10-05T13:01:38Z</time>
      </trkpt>
      <trkpt lat="45.15254" lon="6.99702">
        <ele>1062.87</ele>
        <time>2016-10-05T13:01:42Z</time>
      </trkpt>
      <trkpt lat="45.15246" lon="6.99713">
        <ele>1062.39</ele>
        <time>2016-10-05T13:01:43Z</time>
      </trkpt>
      <trkpt lat="45.15231" lon="6.99734">
        <ele>1060.95</ele>
        <time>2016-10-05T13:01:45Z</time>
      </trkpt>
      <trkpt lat="45.15224" lon="6.99746">
        <ele>1060.47</ele>
        <time>2016-10-05T13:01:46Z</time>
      </trkpt>
      <trkpt lat="45.15219" lon="6.99759">
        <ele>1060.47</ele>
        <time>2016-10-05T13:01:47Z</time>
      </trkpt>
      <trkpt lat="45.1521" lon="6.99786">
        <ele>1059.51</ele>
        <time>2016-10-05T13:01:49Z</time>
      </trkpt>
      <trkpt lat="45.15208" lon="6.99801">
        <ele>1059.51</ele>
        <time>2016-10-05T13:01:50Z</time>
      </trkpt>
      <trkpt lat="45.152" lon="6.99827">
        <ele>1056.63</ele>
        <time>2016-10-05T13:01:52Z</time>
      </trkpt>
      <trkpt lat="45.15196" lon="6.99839">
        <ele>1055.67</ele>
        <time>2016-10-05T13:01:53Z</time>
      </trkpt>
      <trkpt lat="45.15185" lon="6.99861">
        <ele>1053.74</ele>
        <time>2016-10-05T13:01:55Z</time>
      </trkpt>
      <trkpt lat="45.15177" lon="6.99871">
        <ele>1052.3</ele>
        <time>2016-10-05T13:01:56Z</time>
      </trkpt>
      <trkpt lat="45.15169" lon="6.99881">
        <ele>1051.34</ele>
        <time>2016-10-05T13:01:57Z</time>
      </trkpt>
      <trkpt lat="45.15159" lon="6.9989">
        <ele>1050.38</ele>
        <time>2016-10-05T13:01:58Z</time>
      </trkpt>
      <trkpt lat="45.15127" lon="6.99915">
        <ele>1047.01</ele>
        <time>2016-10-05T13:02:01Z</time>
      </trkpt>
      <trkpt lat="45.15093" lon="6.99934">
        <ele>1044.61</ele>
        <time>2016-10-05T13:02:04Z</time>
      </trkpt>
      <trkpt lat="45.1508" lon="6.99936">
        <ele>1043.17</ele>
        <time>2016-10-05T13:02:05Z</time>
      </trkpt>
      <trkpt lat="45.15046" lon="6.99942">
        <ele>1041.25</ele>
        <time>2016-10-05T13:02:08Z</time>
      </trkpt>
      <trkpt lat="45.15035" lon="6.99945">
        <ele>1040.28</ele>
        <time>2016-10-05T13:02:09Z</time>
      </trkpt>
      <trkpt lat="45.15026" lon="6.99949">
        <ele>1039.32</ele>
        <time>2016-10-05T13:02:10Z</time>
      </trkpt>
      <trkpt lat="45.15016" lon="6.99955">
        <ele>1037.88</ele>
        <time>2016-10-05T13:02:11Z</time>
      </trkpt>
      <trkpt lat="45.14989" lon="6.99976">
        <ele>1034.52</ele>
        <time>2016-10-05T13:02:14Z</time>
      </trkpt>
      <trkpt lat="45.1498" lon="6.99984">
        <ele>1035</ele>
        <time>2016-10-05T13:02:15Z</time>
      </trkpt>
      <trkpt lat="45.14954" lon="7.00004">
        <ele>1032.59</ele>
        <time>2016-10-05T13:02:18Z</time>
      </trkpt>
      <trkpt lat="45.14944" lon="7.00008">
        <ele>1032.11</ele>
        <time>2016-10-05T13:02:19Z</time>
      </trkpt>
      <trkpt lat="45.14935" lon="7.00011">
        <ele>1031.63</ele>
        <time>2016-10-05T13:02:20Z</time>
      </trkpt>
      <trkpt lat="45.14925" lon="7.00012">
        <ele>1030.67</ele>
        <time>2016-10-05T13:02:21Z</time>
      </trkpt>
      <trkpt lat="45.14916" lon="7.00014">
        <ele>1029.71</ele>
        <time>2016-10-05T13:02:22Z</time>
      </trkpt>
      <trkpt lat="45.14906" lon="7.00018">
        <ele>1028.27</ele>
        <time>2016-10-05T13:02:23Z</time>
      </trkpt>
      <trkpt lat="45.14897" lon="7.00023">
        <ele>1026.83</ele>
        <time>2016-10-05T13:02:24Z</time>
      </trkpt>
      <trkpt lat="45.14888" lon="7.00031">
        <ele>1026.34</ele>
        <time>2016-10-05T13:02:25Z</time>
      </trkpt>
      <trkpt lat="45.1488" lon="7.00041">
        <ele>1026.83</ele>
        <time>2016-10-05T13:02:26Z</time>
      </trkpt>
      <trkpt lat="45.14871" lon="7.0005">
        <ele>1026.34</ele>
        <time>2016-10-05T13:02:27Z</time>
      </trkpt>
      <trkpt lat="45.14846" lon="7.00077">
        <ele>1023.46</ele>
        <time>2016-10-05T13:02:30Z</time>
      </trkpt>
      <trkpt lat="45.14836" lon="7.00084">
        <ele>1022.98</ele>
        <time>2016-10-05T13:02:31Z</time>
      </trkpt>
      <trkpt lat="45.14826" lon="7.00088">
        <ele>1022.02</ele>
        <time>2016-10-05T13:02:32Z</time>
      </trkpt>
      <trkpt lat="45.14815" lon="7.00091">
        <ele>1020.58</ele>
        <time>2016-10-05T13:02:33Z</time>
      </trkpt>
      <trkpt lat="45.14804" lon="7.00093">
        <ele>1019.62</ele>
        <time>2016-10-05T13:02:34Z</time>
      </trkpt>
      <trkpt lat="45.14771" lon="7.00101">
        <ele>1015.77</ele>
        <time>2016-10-05T13:02:37Z</time>
      </trkpt>
      <trkpt lat="45.1476" lon="7.00107">
        <ele>1014.81</ele>
        <time>2016-10-05T13:02:38Z</time>
      </trkpt>
      <trkpt lat="45.1475" lon="7.00114">
        <ele>1012.89</ele>
        <time>2016-10-05T13:02:39Z</time>
      </trkpt>
      <trkpt lat="45.14706" lon="7.00147">
        <ele>1008.56</ele>
        <time>2016-10-05T13:02:43Z</time>
      </trkpt>
      <trkpt lat="45.14695" lon="7.00155">
        <ele>1008.08</ele>
        <time>2016-10-05T13:02:44Z</time>
      </trkpt>
      <trkpt lat="45.14665" lon="7.00178">
        <ele>1004.72</ele>
        <time>2016-10-05T13:02:47Z</time>
      </trkpt>
      <trkpt lat="45.14646" lon="7.00193">
        <ele>1002.79</ele>
        <time>2016-10-05T13:02:49Z</time>
      </trkpt>
      <trkpt lat="45.1461" lon="7.00225">
        <ele>998.95</ele>
        <time>2016-10-05T13:02:53Z</time>
      </trkpt>
      <trkpt lat="45.14585" lon="7.00251">
        <ele>996.06</ele>
        <time>2016-10-05T13:02:56Z</time>
      </trkpt>
      <trkpt lat="45.14574" lon="7.00259">
        <ele>994.14</ele>
        <time>2016-10-05T13:02:57Z</time>
      </trkpt>
      <trkpt lat="45.14564" lon="7.00264">
        <ele>993.66</ele>
        <time>2016-10-05T13:02:58Z</time>
      </trkpt>
      <trkpt lat="45.1453" lon="7.0028">
        <ele>990.3</ele>
        <time>2016-10-05T13:03:01Z</time>
      </trkpt>
      <trkpt lat="45.14519" lon="7.00287">
        <ele>988.85</ele>
        <time>2016-10-05T13:03:02Z</time>
      </trkpt>
      <trkpt lat="45.14509" lon="7.00296">
        <ele>988.85</ele>
        <time>2016-10-05T13:03:03Z</time>
      </trkpt>
      <trkpt lat="45.14499" lon="7.00305">
        <ele>987.89</ele>
        <time>2016-10-05T13:03:04Z</time>
      </trkpt>
      <trkpt lat="45.14479" lon="7.00325">
        <ele>984.53</ele>
        <time>2016-10-05T13:03:06Z</time>
      </trkpt>
      <trkpt lat="45.14449" lon="7.00355">
        <ele>982.12</ele>
        <time>2016-10-05T13:03:09Z</time>
      </trkpt>
      <trkpt lat="45.14418" lon="7.00376">
        <ele>977.8</ele>
        <time>2016-10-05T13:03:12Z</time>
      </trkpt>
      <trkpt lat="45.14407" lon="7.0038">
        <ele>975.88</ele>
        <time>2016-10-05T13:03:13Z</time>
      </trkpt>
      <trkpt lat="45.14395" lon="7.00382">
        <ele>974.91</ele>
        <time>2016-10-05T13:03:14Z</time>
      </trkpt>
      <trkpt lat="45.14382" lon="7.00381">
        <ele>973.47</ele>
        <time>2016-10-05T13:03:15Z</time>
      </trkpt>
      <trkpt lat="45.1437" lon="7.00378">
        <ele>972.03</ele>
        <time>2016-10-05T13:03:16Z</time>
      </trkpt>
      <trkpt lat="45.14359" lon="7.00374">
        <ele>971.07</ele>
        <time>2016-10-05T13:03:17Z</time>
      </trkpt>
      <trkpt lat="45.14348" lon="7.00368">
        <ele>970.11</ele>
        <time>2016-10-05T13:03:18Z</time>
      </trkpt>
      <trkpt lat="45.14336" lon="7.00361">
        <ele>969.15</ele>
        <time>2016-10-05T13:03:19Z</time>
      </trkpt>
      <trkpt lat="45.14326" lon="7.00353">
        <ele>968.67</ele>
        <time>2016-10-05T13:03:20Z</time>
      </trkpt>
      <trkpt lat="45.14296" lon="7.00333">
        <ele>965.3</ele>
        <time>2016-10-05T13:03:23Z</time>
      </trkpt>
      <trkpt lat="45.14277" lon="7.00326">
        <ele>962.9</ele>
        <time>2016-10-05T13:03:25Z</time>
      </trkpt>
      <trkpt lat="45.1424" lon="7.00321">
        <ele>959.53</ele>
        <time>2016-10-05T13:03:29Z</time>
      </trkpt>
      <trkpt lat="45.1423" lon="7.00318">
        <ele>959.05</ele>
        <time>2016-10-05T13:03:30Z</time>
      </trkpt>
      <trkpt lat="45.1422" lon="7.00312">
        <ele>958.57</ele>
        <time>2016-10-05T13:03:31Z</time>
      </trkpt>
      <trkpt lat="45.14211" lon="7.00306">
        <ele>958.09</ele>
        <time>2016-10-05T13:03:32Z</time>
      </trkpt>
      <trkpt lat="45.14202" lon="7.00296">
        <ele>957.61</ele>
        <time>2016-10-05T13:03:33Z</time>
      </trkpt>
      <trkpt lat="45.1417" lon="7.00263">
        <ele>954.73</ele>
        <time>2016-10-05T13:03:37Z</time>
      </trkpt>
      <trkpt lat="45.14154" lon="7.0025">
        <ele>953.28</ele>
        <time>2016-10-05T13:03:40Z</time>
      </trkpt>
      <trkpt lat="45.1415" lon="7.00252">
        <ele>953.77</ele>
        <time>2016-10-05T13:03:41Z</time>
      </trkpt>
      <trkpt lat="45.14148" lon="7.00258">
        <ele>952.8</ele>
        <time>2016-10-05T13:03:42Z</time>
      </trkpt>
      <trkpt lat="45.14148" lon="7.00265">
        <ele>953.77</ele>
        <time>2016-10-05T13:03:43Z</time>
      </trkpt>
      <trkpt lat="45.14151" lon="7.00272">
        <ele>952.8</ele>
        <time>2016-10-05T13:03:44Z</time>
      </trkpt>
      <trkpt lat="45.14155" lon="7.00278">
        <ele>950.88</ele>
        <time>2016-10-05T13:03:45Z</time>
      </trkpt>
      <trkpt lat="45.1416" lon="7.00284">
        <ele>949.92</ele>
        <time>2016-10-05T13:03:46Z</time>
      </trkpt>
      <trkpt lat="45.14188" lon="7.00321">
        <ele>946.56</ele>
        <time>2016-10-05T13:03:51Z</time>
      </trkpt>
      <trkpt lat="45.14215" lon="7.00356">
        <ele>943.67</ele>
        <time>2016-10-05T13:03:55Z</time>
      </trkpt>
      <trkpt lat="45.14236" lon="7.00386">
        <ele>939.83</ele>
        <time>2016-10-05T13:03:58Z</time>
      </trkpt>
      <trkpt lat="45.14242" lon="7.00396">
        <ele>939.35</ele>
        <time>2016-10-05T13:03:59Z</time>
      </trkpt>
      <trkpt lat="45.14248" lon="7.00408">
        <ele>938.38</ele>
        <time>2016-10-05T13:04:00Z</time>
      </trkpt>
      <trkpt lat="45.14252" lon="7.00421">
        <ele>936.94</ele>
        <time>2016-10-05T13:04:01Z</time>
      </trkpt>
      <trkpt lat="45.14262" lon="7.00463">
        <ele>933.58</ele>
        <time>2016-10-05T13:04:04Z</time>
      </trkpt>
      <trkpt lat="45.14267" lon="7.00491">
        <ele>932.62</ele>
        <time>2016-10-05T13:04:06Z</time>
      </trkpt>
      <trkpt lat="45.1428" lon="7.0053">
        <ele>930.21</ele>
        <time>2016-10-05T13:04:09Z</time>
      </trkpt>
      <trkpt lat="45.14285" lon="7.00542">
        <ele>928.77</ele>
        <time>2016-10-05T13:04:10Z</time>
      </trkpt>
      <trkpt lat="45.14292" lon="7.00553">
        <ele>928.29</ele>
        <time>2016-10-05T13:04:11Z</time>
      </trkpt>
      <trkpt lat="45.14299" lon="7.00562">
        <ele>927.33</ele>
        <time>2016-10-05T13:04:12Z</time>
      </trkpt>
      <trkpt lat="45.14308" lon="7.00571">
        <ele>926.37</ele>
        <time>2016-10-05T13:04:13Z</time>
      </trkpt>
      <trkpt lat="45.14317" lon="7.00578">
        <ele>924.93</ele>
        <time>2016-10-05T13:04:14Z</time>
      </trkpt>
      <trkpt lat="45.14327" lon="7.00586">
        <ele>924.45</ele>
        <time>2016-10-05T13:04:15Z</time>
      </trkpt>
      <trkpt lat="45.1437" lon="7.00612">
        <ele>919.64</ele>
        <time>2016-10-05T13:04:19Z</time>
      </trkpt>
      <trkpt lat="45.1438" lon="7.00618">
        <ele>918.68</ele>
        <time>2016-10-05T13:04:20Z</time>
      </trkpt>
      <trkpt lat="45.14409" lon="7.00641">
        <ele>916.75</ele>
        <time>2016-10-05T13:04:23Z</time>
      </trkpt>
      <trkpt lat="45.14416" lon="7.00651">
        <ele>918.2</ele>
        <time>2016-10-05T13:04:24Z</time>
      </trkpt>
      <trkpt lat="45.14428" lon="7.00669">
        <ele>918.68</ele>
        <time>2016-10-05T13:04:26Z</time>
      </trkpt>
      <trkpt lat="45.14444" lon="7.00689">
        <ele>915.31</ele>
        <time>2016-10-05T13:04:29Z</time>
      </trkpt>
      <trkpt lat="45.14446" lon="7.00695">
        <ele>914.35</ele>
        <time>2016-10-05T13:04:30Z</time>
      </trkpt>
      <trkpt lat="45.14445" lon="7.007">
        <ele>912.91</ele>
        <time>2016-10-05T13:04:31Z</time>
      </trkpt>
      <trkpt lat="45.14442" lon="7.00705">
        <ele>912.43</ele>
        <time>2016-10-05T13:04:32Z</time>
      </trkpt>
      <trkpt lat="45.14438" lon="7.00706">
        <ele>911.95</ele>
        <time>2016-10-05T13:04:33Z</time>
      </trkpt>
      <trkpt lat="45.14434" lon="7.00704">
        <ele>912.43</ele>
        <time>2016-10-05T13:04:34Z</time>
      </trkpt>
      <trkpt lat="45.1443" lon="7.007">
        <ele>911.95</ele>
        <time>2016-10-05T13:04:35Z</time>
      </trkpt>
      <trkpt lat="45.14425" lon="7.00694">
        <ele>911.95</ele>
        <time>2016-10-05T13:04:36Z</time>
      </trkpt>
      <trkpt lat="45.14405" lon="7.0067">
        <ele>910.03</ele>
        <time>2016-10-05T13:04:40Z</time>
      </trkpt>
      <trkpt lat="45.14398" lon="7.00665">
        <ele>909.54</ele>
        <time>2016-10-05T13:04:41Z</time>
      </trkpt>
      <trkpt lat="45.1439" lon="7.00663">
        <ele>908.58</ele>
        <time>2016-10-05T13:04:42Z</time>
      </trkpt>
      <trkpt lat="45.14382" lon="7.00663">
        <ele>908.1</ele>
        <time>2016-10-05T13:04:43Z</time>
      </trkpt>
      <trkpt lat="45.14374" lon="7.00665">
        <ele>907.14</ele>
        <time>2016-10-05T13:04:44Z</time>
      </trkpt>
      <trkpt lat="45.14366" lon="7.00668">
        <ele>906.66</ele>
        <time>2016-10-05T13:04:45Z</time>
      </trkpt>
      <trkpt lat="45.14357" lon="7.00671">
        <ele>906.66</ele>
        <time>2016-10-05T13:04:46Z</time>
      </trkpt>
      <trkpt lat="45.14338" lon="7.00676">
        <ele>904.74</ele>
        <time>2016-10-05T13:04:48Z</time>
      </trkpt>
      <trkpt lat="45.14309" lon="7.00678">
        <ele>902.33</ele>
        <time>2016-10-05T13:04:51Z</time>
      </trkpt>
      <trkpt lat="45.14281" lon="7.00676">
        <ele>899.45</ele>
        <time>2016-10-05T13:04:54Z</time>
      </trkpt>
      <trkpt lat="45.14262" lon="7.00672">
        <ele>897.53</ele>
        <time>2016-10-05T13:04:56Z</time>
      </trkpt>
      <trkpt lat="45.14253" lon="7.00667">
        <ele>896.57</ele>
        <time>2016-10-05T13:04:57Z</time>
      </trkpt>
      <trkpt lat="45.14245" lon="7.00659">
        <ele>895.61</ele>
        <time>2016-10-05T13:04:58Z</time>
      </trkpt>
      <trkpt lat="45.14237" lon="7.00649">
        <ele>894.64</ele>
        <time>2016-10-05T13:04:59Z</time>
      </trkpt>
      <trkpt lat="45.1423" lon="7.00637">
        <ele>893.68</ele>
        <time>2016-10-05T13:05:00Z</time>
      </trkpt>
      <trkpt lat="45.14225" lon="7.00625">
        <ele>893.68</ele>
        <time>2016-10-05T13:05:01Z</time>
      </trkpt>
      <trkpt lat="45.14219" lon="7.00612">
        <ele>892.72</ele>
        <time>2016-10-05T13:05:02Z</time>
      </trkpt>
      <trkpt lat="45.14197" lon="7.00563">
        <ele>889.84</ele>
        <time>2016-10-05T13:05:06Z</time>
      </trkpt>
      <trkpt lat="45.14184" lon="7.00545">
        <ele>887.91</ele>
        <time>2016-10-05T13:05:08Z</time>
      </trkpt>
      <trkpt lat="45.14175" lon="7.0054">
        <ele>886.95</ele>
        <time>2016-10-05T13:05:09Z</time>
      </trkpt>
      <trkpt lat="45.14165" lon="7.0054">
        <ele>886.47</ele>
        <time>2016-10-05T13:05:10Z</time>
      </trkpt>
      <trkpt lat="45.14155" lon="7.00542">
        <ele>885.51</ele>
        <time>2016-10-05T13:05:11Z</time>
      </trkpt>
      <trkpt lat="45.14144" lon="7.00545">
        <ele>884.55</ele>
        <time>2016-10-05T13:05:12Z</time>
      </trkpt>
      <trkpt lat="45.14133" lon="7.00547">
        <ele>882.63</ele>
        <time>2016-10-05T13:05:13Z</time>
      </trkpt>
      <trkpt lat="45.14114" lon="7.00548">
        <ele>879.26</ele>
        <time>2016-10-05T13:05:15Z</time>
      </trkpt>
      <trkpt lat="45.14106" lon="7.00549">
        <ele>877.82</ele>
        <time>2016-10-05T13:05:16Z</time>
      </trkpt>
      <trkpt lat="45.14099" lon="7.00552">
        <ele>878.3</ele>
        <time>2016-10-05T13:05:17Z</time>
      </trkpt>
      <trkpt lat="45.14095" lon="7.00558">
        <ele>879.74</ele>
        <time>2016-10-05T13:05:18Z</time>
      </trkpt>
      <trkpt lat="45.14093" lon="7.00567">
        <ele>877.82</ele>
        <time>2016-10-05T13:05:19Z</time>
      </trkpt>
      <trkpt lat="45.14096" lon="7.00575">
        <ele>877.34</ele>
        <time>2016-10-05T13:05:20Z</time>
      </trkpt>
      <trkpt lat="45.14101" lon="7.0058">
        <ele>877.34</ele>
        <time>2016-10-05T13:05:21Z</time>
      </trkpt>
      <trkpt lat="45.14108" lon="7.00583">
        <ele>876.38</ele>
        <time>2016-10-05T13:05:22Z</time>
      </trkpt>
      <trkpt lat="45.14116" lon="7.00585">
        <ele>874.94</ele>
        <time>2016-10-05T13:05:23Z</time>
      </trkpt>
      <trkpt lat="45.1414" lon="7.00588">
        <ele>873.98</ele>
        <time>2016-10-05T13:05:26Z</time>
      </trkpt>
      <trkpt lat="45.14148" lon="7.00592">
        <ele>874.46</ele>
        <time>2016-10-05T13:05:27Z</time>
      </trkpt>
      <trkpt lat="45.14156" lon="7.00598">
        <ele>873.98</ele>
        <time>2016-10-05T13:05:28Z</time>
      </trkpt>
      <trkpt lat="45.14163" lon="7.00607">
        <ele>872.53</ele>
        <time>2016-10-05T13:05:29Z</time>
      </trkpt>
      <trkpt lat="45.14169" lon="7.00618">
        <ele>872.53</ele>
        <time>2016-10-05T13:05:30Z</time>
      </trkpt>
      <trkpt lat="45.14174" lon="7.0063">
        <ele>871.09</ele>
        <time>2016-10-05T13:05:31Z</time>
      </trkpt>
      <trkpt lat="45.14178" lon="7.00643">
        <ele>871.09</ele>
        <time>2016-10-05T13:05:32Z</time>
      </trkpt>
      <trkpt lat="45.14181" lon="7.00656">
        <ele>869.65</ele>
        <time>2016-10-05T13:05:33Z</time>
      </trkpt>
      <trkpt lat="45.14194" lon="7.00723">
        <ele>865.8</ele>
        <time>2016-10-05T13:05:38Z</time>
      </trkpt>
      <trkpt lat="45.14203" lon="7.00779">
        <ele>861.96</ele>
        <time>2016-10-05T13:05:42Z</time>
      </trkpt>
      <trkpt lat="45.14214" lon="7.00834">
        <ele>858.59</ele>
        <time>2016-10-05T13:05:46Z</time>
      </trkpt>
      <trkpt lat="45.14218" lon="7.00847">
        <ele>857.63</ele>
        <time>2016-10-05T13:05:47Z</time>
      </trkpt>
      <trkpt lat="45.14223" lon="7.00858">
        <ele>856.67</ele>
        <time>2016-10-05T13:05:48Z</time>
      </trkpt>
      <trkpt lat="45.14229" lon="7.00869">
        <ele>855.71</ele>
        <time>2016-10-05T13:05:49Z</time>
      </trkpt>
      <trkpt lat="45.14237" lon="7.00878">
        <ele>855.23</ele>
        <time>2016-10-05T13:05:50Z</time>
      </trkpt>
      <trkpt lat="45.14246" lon="7.00886">
        <ele>854.27</ele>
        <time>2016-10-05T13:05:51Z</time>
      </trkpt>
      <trkpt lat="45.14254" lon="7.00895">
        <ele>852.83</ele>
        <time>2016-10-05T13:05:52Z</time>
      </trkpt>
      <trkpt lat="45.14262" lon="7.00905">
        <ele>852.35</ele>
        <time>2016-10-05T13:05:53Z</time>
      </trkpt>
      <trkpt lat="45.14268" lon="7.00917">
        <ele>851.38</ele>
        <time>2016-10-05T13:05:54Z</time>
      </trkpt>
      <trkpt lat="45.14273" lon="7.00931">
        <ele>850.42</ele>
        <time>2016-10-05T13:05:55Z</time>
      </trkpt>
      <trkpt lat="45.14277" lon="7.00945">
        <ele>849.46</ele>
        <time>2016-10-05T13:05:56Z</time>
      </trkpt>
      <trkpt lat="45.14282" lon="7.00959">
        <ele>848.5</ele>
        <time>2016-10-05T13:05:57Z</time>
      </trkpt>
      <trkpt lat="45.14298" lon="7.01015">
        <ele>844.66</ele>
        <time>2016-10-05T13:06:01Z</time>
      </trkpt>
      <trkpt lat="45.14308" lon="7.01042">
        <ele>843.21</ele>
        <time>2016-10-05T13:06:03Z</time>
      </trkpt>
      <trkpt lat="45.14327" lon="7.01092">
        <ele>838.89</ele>
        <time>2016-10-05T13:06:07Z</time>
      </trkpt>
      <trkpt lat="45.14345" lon="7.01139">
        <ele>834.56</ele>
        <time>2016-10-05T13:06:11Z</time>
      </trkpt>
      <trkpt lat="45.14348" lon="7.01151">
        <ele>833.6</ele>
        <time>2016-10-05T13:06:12Z</time>
      </trkpt>
      <trkpt lat="45.1435" lon="7.01163">
        <ele>831.68</ele>
        <time>2016-10-05T13:06:13Z</time>
      </trkpt>
      <trkpt lat="45.1435" lon="7.01175">
        <ele>832.16</ele>
        <time>2016-10-05T13:06:14Z</time>
      </trkpt>
      <trkpt lat="45.14349" lon="7.01186">
        <ele>830.72</ele>
        <time>2016-10-05T13:06:15Z</time>
      </trkpt>
      <trkpt lat="45.14347" lon="7.01197">
        <ele>829.27</ele>
        <time>2016-10-05T13:06:16Z</time>
      </trkpt>
      <trkpt lat="45.14345" lon="7.01219">
        <ele>828.31</ele>
        <time>2016-10-05T13:06:18Z</time>
      </trkpt>
      <trkpt lat="45.14346" lon="7.01231">
        <ele>827.83</ele>
        <time>2016-10-05T13:06:19Z</time>
      </trkpt>
      <trkpt lat="45.14348" lon="7.01241">
        <ele>827.35</ele>
        <time>2016-10-05T13:06:20Z</time>
      </trkpt>
      <trkpt lat="45.14351" lon="7.01251">
        <ele>827.35</ele>
        <time>2016-10-05T13:06:21Z</time>
      </trkpt>
      <trkpt lat="45.14356" lon="7.0126">
        <ele>826.87</ele>
        <time>2016-10-05T13:06:22Z</time>
      </trkpt>
      <trkpt lat="45.14363" lon="7.01266">
        <ele>826.39</ele>
        <time>2016-10-05T13:06:23Z</time>
      </trkpt>
      <trkpt lat="45.14371" lon="7.0127">
        <ele>824.47</ele>
        <time>2016-10-05T13:06:24Z</time>
      </trkpt>
      <trkpt lat="45.1438" lon="7.01274">
        <ele>823.03</ele>
        <time>2016-10-05T13:06:25Z</time>
      </trkpt>
      <trkpt lat="45.14397" lon="7.01284">
        <ele>821.58</ele>
        <time>2016-10-05T13:06:27Z</time>
      </trkpt>
      <trkpt lat="45.14406" lon="7.01291">
        <ele>820.62</ele>
        <time>2016-10-05T13:06:28Z</time>
      </trkpt>
      <trkpt lat="45.14414" lon="7.01299">
        <ele>819.18</ele>
        <time>2016-10-05T13:06:29Z</time>
      </trkpt>
      <trkpt lat="45.1442" lon="7.01309">
        <ele>818.7</ele>
        <time>2016-10-05T13:06:30Z</time>
      </trkpt>
      <trkpt lat="45.14427" lon="7.01319">
        <ele>817.74</ele>
        <time>2016-10-05T13:06:31Z</time>
      </trkpt>
      <trkpt lat="45.14439" lon="7.01338">
        <ele>816.3</ele>
        <time>2016-10-05T13:06:33Z</time>
      </trkpt>
      <trkpt lat="45.14445" lon="7.01347">
        <ele>815.34</ele>
        <time>2016-10-05T13:06:34Z</time>
      </trkpt>
      <trkpt lat="45.14452" lon="7.01354">
        <ele>814.85</ele>
        <time>2016-10-05T13:06:35Z</time>
      </trkpt>
      <trkpt lat="45.1446" lon="7.01359">
        <ele>813.89</ele>
        <time>2016-10-05T13:06:36Z</time>
      </trkpt>
      <trkpt lat="45.14469" lon="7.01362">
        <ele>812.93</ele>
        <time>2016-10-05T13:06:37Z</time>
      </trkpt>
      <trkpt lat="45.14478" lon="7.01361">
        <ele>812.93</ele>
        <time>2016-10-05T13:06:38Z</time>
      </trkpt>
      <trkpt lat="45.14488" lon="7.01358">
        <ele>811.49</ele>
        <time>2016-10-05T13:06:39Z</time>
      </trkpt>
      <trkpt lat="45.14497" lon="7.01351">
        <ele>811.49</ele>
        <time>2016-10-05T13:06:40Z</time>
      </trkpt>
      <trkpt lat="45.14506" lon="7.01342">
        <ele>810.53</ele>
        <time>2016-10-05T13:06:41Z</time>
      </trkpt>
      <trkpt lat="45.14514" lon="7.01331">
        <ele>808.61</ele>
        <time>2016-10-05T13:06:42Z</time>
      </trkpt>
      <trkpt lat="45.14521" lon="7.01319">
        <ele>808.13</ele>
        <time>2016-10-05T13:06:43Z</time>
      </trkpt>
      <trkpt lat="45.14526" lon="7.01305">
        <ele>807.16</ele>
        <time>2016-10-05T13:06:44Z</time>
      </trkpt>
      <trkpt lat="45.14531" lon="7.01291">
        <ele>806.68</ele>
        <time>2016-10-05T13:06:45Z</time>
      </trkpt>
      <trkpt lat="45.14542" lon="7.01264">
        <ele>802.36</ele>
        <time>2016-10-05T13:06:47Z</time>
      </trkpt>
      <trkpt lat="45.14549" lon="7.01252">
        <ele>801.88</ele>
        <time>2016-10-05T13:06:48Z</time>
      </trkpt>
      <trkpt lat="45.14557" lon="7.01243">
        <ele>800.92</ele>
        <time>2016-10-05T13:06:49Z</time>
      </trkpt>
      <trkpt lat="45.14565" lon="7.01236">
        <ele>799.95</ele>
        <time>2016-10-05T13:06:50Z</time>
      </trkpt>
      <trkpt lat="45.14575" lon="7.01232">
        <ele>798.03</ele>
        <time>2016-10-05T13:06:51Z</time>
      </trkpt>
      <trkpt lat="45.14584" lon="7.01229">
        <ele>798.03</ele>
        <time>2016-10-05T13:06:52Z</time>
      </trkpt>
      <trkpt lat="45.14594" lon="7.0123">
        <ele>797.07</ele>
        <time>2016-10-05T13:06:53Z</time>
      </trkpt>
      <trkpt lat="45.14604" lon="7.01231">
        <ele>795.63</ele>
        <time>2016-10-05T13:06:54Z</time>
      </trkpt>
      <trkpt lat="45.14613" lon="7.01236">
        <ele>794.67</ele>
        <time>2016-10-05T13:06:55Z</time>
      </trkpt>
      <trkpt lat="45.14621" lon="7.01244">
        <ele>793.22</ele>
        <time>2016-10-05T13:06:56Z</time>
      </trkpt>
      <trkpt lat="45.14628" lon="7.01254">
        <ele>791.78</ele>
        <time>2016-10-05T13:06:57Z</time>
      </trkpt>
      <trkpt lat="45.14633" lon="7.01265">
        <ele>791.78</ele>
        <time>2016-10-05T13:06:58Z</time>
      </trkpt>
      <trkpt lat="45.14637" lon="7.01275">
        <ele>791.3</ele>
        <time>2016-10-05T13:06:59Z</time>
      </trkpt>
      <trkpt lat="45.14641" lon="7.01283">
        <ele>790.34</ele>
        <time>2016-10-05T13:07:00Z</time>
      </trkpt>
      <trkpt lat="45.14647" lon="7.0129">
        <ele>790.34</ele>
        <time>2016-10-05T13:07:01Z</time>
      </trkpt>
      <trkpt lat="45.14654" lon="7.01293">
        <ele>789.38</ele>
        <time>2016-10-05T13:07:02Z</time>
      </trkpt>
      <trkpt lat="45.14662" lon="7.01293">
        <ele>788.9</ele>
        <time>2016-10-05T13:07:03Z</time>
      </trkpt>
      <trkpt lat="45.1467" lon="7.01291">
        <ele>787.94</ele>
        <time>2016-10-05T13:07:04Z</time>
      </trkpt>
      <trkpt lat="45.14677" lon="7.01287">
        <ele>786.98</ele>
        <time>2016-10-05T13:07:05Z</time>
      </trkpt>
      <trkpt lat="45.14684" lon="7.01281">
        <ele>786.02</ele>
        <time>2016-10-05T13:07:06Z</time>
      </trkpt>
      <trkpt lat="45.1469" lon="7.01275">
        <ele>785.53</ele>
        <time>2016-10-05T13:07:07Z</time>
      </trkpt>
      <trkpt lat="45.14695" lon="7.0127">
        <ele>783.61</ele>
        <time>2016-10-05T13:07:08Z</time>
      </trkpt>
      <trkpt lat="45.147" lon="7.01266">
        <ele>783.13</ele>
        <time>2016-10-05T13:07:09Z</time>
      </trkpt>
      <trkpt lat="45.14705" lon="7.01266">
        <ele>782.65</ele>
        <time>2016-10-05T13:07:10Z</time>
      </trkpt>
      <trkpt lat="45.1471" lon="7.0127">
        <ele>781.21</ele>
        <time>2016-10-05T13:07:11Z</time>
      </trkpt>
      <trkpt lat="45.14713" lon="7.01277">
        <ele>781.21</ele>
        <time>2016-10-05T13:07:12Z</time>
      </trkpt>
      <trkpt lat="45.14714" lon="7.01287">
        <ele>780.73</ele>
        <time>2016-10-05T13:07:13Z</time>
      </trkpt>
      <trkpt lat="45.14715" lon="7.01297">
        <ele>780.25</ele>
        <time>2016-10-05T13:07:14Z</time>
      </trkpt>
      <trkpt lat="45.14715" lon="7.01308">
        <ele>779.77</ele>
        <time>2016-10-05T13:07:15Z</time>
      </trkpt>
      <trkpt lat="45.14716" lon="7.01319">
        <ele>778.81</ele>
        <time>2016-10-05T13:07:16Z</time>
      </trkpt>
      <trkpt lat="45.14719" lon="7.01328">
        <ele>778.32</ele>
        <time>2016-10-05T13:07:17Z</time>
      </trkpt>
      <trkpt lat="45.14724" lon="7.01335">
        <ele>778.32</ele>
        <time>2016-10-05T13:07:18Z</time>
      </trkpt>
      <trkpt lat="45.1473" lon="7.01338">
        <ele>778.32</ele>
        <time>2016-10-05T13:07:19Z</time>
      </trkpt>
      <trkpt lat="45.14736" lon="7.01337">
        <ele>776.4</ele>
        <time>2016-10-05T13:07:20Z</time>
      </trkpt>
      <trkpt lat="45.14742" lon="7.01335">
        <ele>775.92</ele>
        <time>2016-10-05T13:07:21Z</time>
      </trkpt>
      <trkpt lat="45.14751" lon="7.01332">
        <ele>773.52</ele>
        <time>2016-10-05T13:07:23Z</time>
      </trkpt>
      <trkpt lat="45.14754" lon="7.01337">
        <ele>773.52</ele>
        <time>2016-10-05T13:07:24Z</time>
      </trkpt>
      <trkpt lat="45.14755" lon="7.01344">
        <ele>772.08</ele>
        <time>2016-10-05T13:07:25Z</time>
      </trkpt>
      <trkpt lat="45.14752" lon="7.01351">
        <ele>771.6</ele>
        <time>2016-10-05T13:07:26Z</time>
      </trkpt>
      <trkpt lat="45.14747" lon="7.01356">
        <ele>771.6</ele>
        <time>2016-10-05T13:07:27Z</time>
      </trkpt>
      <trkpt lat="45.14741" lon="7.01358">
        <ele>770.63</ele>
        <time>2016-10-05T13:07:28Z</time>
      </trkpt>
      <trkpt lat="45.14734" lon="7.01357">
        <ele>770.15</ele>
        <time>2016-10-05T13:07:29Z</time>
      </trkpt>
      <trkpt lat="45.14726" lon="7.01355">
        <ele>769.67</ele>
        <time>2016-10-05T13:07:30Z</time>
      </trkpt>
      <trkpt lat="45.14718" lon="7.01352">
        <ele>769.67</ele>
        <time>2016-10-05T13:07:31Z</time>
      </trkpt>
      <trkpt lat="45.14711" lon="7.01347">
        <ele>768.71</ele>
        <time>2016-10-05T13:07:32Z</time>
      </trkpt>
      <trkpt lat="45.14703" lon="7.01341">
        <ele>767.75</ele>
        <time>2016-10-05T13:07:33Z</time>
      </trkpt>
      <trkpt lat="45.14696" lon="7.01335">
        <ele>767.27</ele>
        <time>2016-10-05T13:07:34Z</time>
      </trkpt>
      <trkpt lat="45.14688" lon="7.0133">
        <ele>767.27</ele>
        <time>2016-10-05T13:07:35Z</time>
      </trkpt>
      <trkpt lat="45.1468" lon="7.01327">
        <ele>767.27</ele>
        <time>2016-10-05T13:07:36Z</time>
      </trkpt>
      <trkpt lat="45.14671" lon="7.01328">
        <ele>766.31</ele>
        <time>2016-10-05T13:07:37Z</time>
      </trkpt>
      <trkpt lat="45.14661" lon="7.01331">
        <ele>764.87</ele>
        <time>2016-10-05T13:07:38Z</time>
      </trkpt>
      <trkpt lat="45.14653" lon="7.01334">
        <ele>764.39</ele>
        <time>2016-10-05T13:07:39Z</time>
      </trkpt>
      <trkpt lat="45.14643" lon="7.01337">
        <ele>762.94</ele>
        <time>2016-10-05T13:07:40Z</time>
      </trkpt>
      <trkpt lat="45.14606" lon="7.01342">
        <ele>760.54</ele>
        <time>2016-10-05T13:07:44Z</time>
      </trkpt>
      <trkpt lat="45.14598" lon="7.01344">
        <ele>759.58</ele>
        <time>2016-10-05T13:07:45Z</time>
      </trkpt>
      <trkpt lat="45.1459" lon="7.01349">
        <ele>759.1</ele>
        <time>2016-10-05T13:07:46Z</time>
      </trkpt>
      <trkpt lat="45.14583" lon="7.01357">
        <ele>757.66</ele>
        <time>2016-10-05T13:07:47Z</time>
      </trkpt>
      <trkpt lat="45.14579" lon="7.01367">
        <ele>756.69</ele>
        <time>2016-10-05T13:07:48Z</time>
      </trkpt>
      <trkpt lat="45.14575" lon="7.01378">
        <ele>756.21</ele>
        <time>2016-10-05T13:07:49Z</time>
      </trkpt>
      <trkpt lat="45.14572" lon="7.01389">
        <ele>755.73</ele>
        <time>2016-10-05T13:07:50Z</time>
      </trkpt>
      <trkpt lat="45.1457" lon="7.01401">
        <ele>754.29</ele>
        <time>2016-10-05T13:07:51Z</time>
      </trkpt>
      <trkpt lat="45.14567" lon="7.01449">
        <ele>750.93</ele>
        <time>2016-10-05T13:07:54Z</time>
      </trkpt>
      <trkpt lat="45.14567" lon="7.01522">
        <ele>747.08</ele>
        <time>2016-10-05T13:07:58Z</time>
      </trkpt>
      <trkpt lat="45.14568" lon="7.01586">
        <ele>743.72</ele>
        <time>2016-10-05T13:08:02Z</time>
      </trkpt>
      <trkpt lat="45.14567" lon="7.01602">
        <ele>742.76</ele>
        <time>2016-10-05T13:08:03Z</time>
      </trkpt>
      <trkpt lat="45.14565" lon="7.01617">
        <ele>741.79</ele>
        <time>2016-10-05T13:08:04Z</time>
      </trkpt>
      <trkpt lat="45.14563" lon="7.01633">
        <ele>741.31</ele>
        <time>2016-10-05T13:08:05Z</time>
      </trkpt>
      <trkpt lat="45.1456" lon="7.01648">
        <ele>739.87</ele>
        <time>2016-10-05T13:08:06Z</time>
      </trkpt>
      <trkpt lat="45.14556" lon="7.01663">
        <ele>738.91</ele>
        <time>2016-10-05T13:08:07Z</time>
      </trkpt>
      <trkpt lat="45.14553" lon="7.01677">
        <ele>739.39</ele>
        <time>2016-10-05T13:08:08Z</time>
      </trkpt>
      <trkpt lat="45.14548" lon="7.01707">
        <ele>736.03</ele>
        <time>2016-10-05T13:08:10Z</time>
      </trkpt>
      <trkpt lat="45.14547" lon="7.01722">
        <ele>736.03</ele>
        <time>2016-10-05T13:08:11Z</time>
      </trkpt>
      <trkpt lat="45.14547" lon="7.01738">
        <ele>735.07</ele>
        <time>2016-10-05T13:08:12Z</time>
      </trkpt>
      <trkpt lat="45.14547" lon="7.01753">
        <ele>733.62</ele>
        <time>2016-10-05T13:08:13Z</time>
      </trkpt>
      <trkpt lat="45.14549" lon="7.01768">
        <ele>732.18</ele>
        <time>2016-10-05T13:08:14Z</time>
      </trkpt>
      <trkpt lat="45.14551" lon="7.01782">
        <ele>731.7</ele>
        <time>2016-10-05T13:08:15Z</time>
      </trkpt>
      <trkpt lat="45.14557" lon="7.01835">
        <ele>727.86</ele>
        <time>2016-10-05T13:08:19Z</time>
      </trkpt>
      <trkpt lat="45.14556" lon="7.01845">
        <ele>726.89</ele>
        <time>2016-10-05T13:08:20Z</time>
      </trkpt>
      <trkpt lat="45.14552" lon="7.01853">
        <ele>725.45</ele>
        <time>2016-10-05T13:08:21Z</time>
      </trkpt>
      <trkpt lat="45.14546" lon="7.01858">
        <ele>724.49</ele>
        <time>2016-10-05T13:08:22Z</time>
      </trkpt>
      <trkpt lat="45.14539" lon="7.01862">
        <ele>724.49</ele>
        <time>2016-10-05T13:08:23Z</time>
      </trkpt>
      <trkpt lat="45.14531" lon="7.01863">
        <ele>724.01</ele>
        <time>2016-10-05T13:08:24Z</time>
      </trkpt>
      <trkpt lat="45.14522" lon="7.01864">
        <ele>723.05</ele>
        <time>2016-10-05T13:08:25Z</time>
      </trkpt>
      <trkpt lat="45.14505" lon="7.01864">
        <ele>721.13</ele>
        <time>2016-10-05T13:08:27Z</time>
      </trkpt>
      <trkpt lat="45.14497" lon="7.01861">
        <ele>720.16</ele>
        <time>2016-10-05T13:08:28Z</time>
      </trkpt>
      <trkpt lat="45.14489" lon="7.01854">
        <ele>720.16</ele>
        <time>2016-10-05T13:08:29Z</time>
      </trkpt>
      <trkpt lat="45.14483" lon="7.01845">
        <ele>719.68</ele>
        <time>2016-10-05T13:08:30Z</time>
      </trkpt>
      <trkpt lat="45.14478" lon="7.01835">
        <ele>718.24</ele>
        <time>2016-10-05T13:08:31Z</time>
      </trkpt>
      <trkpt lat="45.14474" lon="7.01824">
        <ele>718.24</ele>
        <time>2016-10-05T13:08:32Z</time>
      </trkpt>
      <trkpt lat="45.1447" lon="7.01815">
        <ele>718.24</ele>
        <time>2016-10-05T13:08:33Z</time>
      </trkpt>
      <trkpt lat="45.14464" lon="7.01809">
        <ele>717.28</ele>
        <time>2016-10-05T13:08:34Z</time>
      </trkpt>
      <trkpt lat="45.14456" lon="7.01807">
        <ele>716.32</ele>
        <time>2016-10-05T13:08:35Z</time>
      </trkpt>
      <trkpt lat="45.1445" lon="7.01809">
        <ele>715.84</ele>
        <time>2016-10-05T13:08:36Z</time>
      </trkpt>
      <trkpt lat="45.14444" lon="7.01814">
        <ele>715.36</ele>
        <time>2016-10-05T13:08:37Z</time>
      </trkpt>
      <trkpt lat="45.1444" lon="7.01822">
        <ele>715.36</ele>
        <time>2016-10-05T13:08:38Z</time>
      </trkpt>
      <trkpt lat="45.14437" lon="7.01833">
        <ele>714.88</ele>
        <time>2016-10-05T13:08:39Z</time>
      </trkpt>
      <trkpt lat="45.14436" lon="7.01845">
        <ele>713.92</ele>
        <time>2016-10-05T13:08:40Z</time>
      </trkpt>
      <trkpt lat="45.14435" lon="7.01858">
        <ele>712.47</ele>
        <time>2016-10-05T13:08:41Z</time>
      </trkpt>
      <trkpt lat="45.14437" lon="7.01873">
        <ele>712.47</ele>
        <time>2016-10-05T13:08:42Z</time>
      </trkpt>
      <trkpt lat="45.14444" lon="7.01928">
        <ele>709.11</ele>
        <time>2016-10-05T13:08:46Z</time>
      </trkpt>
      <trkpt lat="45.14447" lon="7.01941">
        <ele>708.15</ele>
        <time>2016-10-05T13:08:47Z</time>
      </trkpt>
      <trkpt lat="45.14459" lon="7.01989">
        <ele>704.3</ele>
        <time>2016-10-05T13:08:51Z</time>
      </trkpt>
      <trkpt lat="45.1446" lon="7.02001">
        <ele>703.34</ele>
        <time>2016-10-05T13:08:52Z</time>
      </trkpt>
      <trkpt lat="45.1446" lon="7.02012">
        <ele>702.38</ele>
        <time>2016-10-05T13:08:53Z</time>
      </trkpt>
      <trkpt lat="45.14457" lon="7.02022">
        <ele>700.94</ele>
        <time>2016-10-05T13:08:54Z</time>
      </trkpt>
      <trkpt lat="45.14453" lon="7.0203">
        <ele>700.46</ele>
        <time>2016-10-05T13:08:55Z</time>
      </trkpt>
      <trkpt lat="45.14448" lon="7.02036">
        <ele>699.98</ele>
        <time>2016-10-05T13:08:56Z</time>
      </trkpt>
      <trkpt lat="45.14442" lon="7.02039">
        <ele>699.02</ele>
        <time>2016-10-05T13:08:57Z</time>
      </trkpt>
      <trkpt lat="45.14434" lon="7.02042">
        <ele>698.53</ele>
        <time>2016-10-05T13:08:58Z</time>
      </trkpt>
      <trkpt lat="45.14427" lon="7.02048">
        <ele>698.53</ele>
        <time>2016-10-05T13:08:59Z</time>
      </trkpt>
      <trkpt lat="45.14422" lon="7.02057">
        <ele>697.09</ele>
        <time>2016-10-05T13:09:00Z</time>
      </trkpt>
      <trkpt lat="45.14421" lon="7.02068">
        <ele>696.13</ele>
        <time>2016-10-05T13:09:01Z</time>
      </trkpt>
      <trkpt lat="45.14422" lon="7.02079">
        <ele>696.13</ele>
        <time>2016-10-05T13:09:02Z</time>
      </trkpt>
      <trkpt lat="45.14425" lon="7.02089">
        <ele>695.17</ele>
        <time>2016-10-05T13:09:03Z</time>
      </trkpt>
      <trkpt lat="45.1443" lon="7.02099">
        <ele>693.73</ele>
        <time>2016-10-05T13:09:04Z</time>
      </trkpt>
      <trkpt lat="45.14436" lon="7.02109">
        <ele>694.69</ele>
        <time>2016-10-05T13:09:05Z</time>
      </trkpt>
      <trkpt lat="45.14461" lon="7.02153">
        <ele>689.88</ele>
        <time>2016-10-05T13:09:09Z</time>
      </trkpt>
      <trkpt lat="45.14466" lon="7.02164">
        <ele>690.36</ele>
        <time>2016-10-05T13:09:10Z</time>
      </trkpt>
      <trkpt lat="45.14469" lon="7.02176">
        <ele>688.92</ele>
        <time>2016-10-05T13:09:11Z</time>
      </trkpt>
      <trkpt lat="45.14469" lon="7.02189">
        <ele>687.96</ele>
        <time>2016-10-05T13:09:12Z</time>
      </trkpt>
      <trkpt lat="45.14469" lon="7.02213">
        <ele>685.08</ele>
        <time>2016-10-05T13:09:14Z</time>
      </trkpt>
      <trkpt lat="45.14467" lon="7.02224">
        <ele>684.12</ele>
        <time>2016-10-05T13:09:15Z</time>
      </trkpt>
      <trkpt lat="45.14463" lon="7.02234">
        <ele>682.67</ele>
        <time>2016-10-05T13:09:16Z</time>
      </trkpt>
      <trkpt lat="45.14457" lon="7.02242">
        <ele>682.19</ele>
        <time>2016-10-05T13:09:17Z</time>
      </trkpt>
      <trkpt lat="45.1445" lon="7.02249">
        <ele>681.71</ele>
        <time>2016-10-05T13:09:18Z</time>
      </trkpt>
      <trkpt lat="45.14442" lon="7.02256">
        <ele>680.75</ele>
        <time>2016-10-05T13:09:19Z</time>
      </trkpt>
      <trkpt lat="45.14435" lon="7.02265">
        <ele>679.79</ele>
        <time>2016-10-05T13:09:20Z</time>
      </trkpt>
      <trkpt lat="45.1443" lon="7.02274">
        <ele>679.79</ele>
        <time>2016-10-05T13:09:21Z</time>
      </trkpt>
      <trkpt lat="45.14426" lon="7.02285">
        <ele>678.83</ele>
        <time>2016-10-05T13:09:22Z</time>
      </trkpt>
      <trkpt lat="45.14423" lon="7.02296">
        <ele>677.87</ele>
        <time>2016-10-05T13:09:23Z</time>
      </trkpt>
      <trkpt lat="45.14421" lon="7.02308">
        <ele>676.91</ele>
        <time>2016-10-05T13:09:24Z</time>
      </trkpt>
      <trkpt lat="45.1442" lon="7.0232">
        <ele>675.94</ele>
        <time>2016-10-05T13:09:25Z</time>
      </trkpt>
      <trkpt lat="45.14419" lon="7.02334">
        <ele>675.46</ele>
        <time>2016-10-05T13:09:26Z</time>
      </trkpt>
      <trkpt lat="45.14417" lon="7.02375">
        <ele>672.1</ele>
        <time>2016-10-05T13:09:29Z</time>
      </trkpt>
      <trkpt lat="45.14415" lon="7.02448">
        <ele>667.77</ele>
        <time>2016-10-05T13:09:33Z</time>
      </trkpt>
      <trkpt lat="45.14416" lon="7.02466">
        <ele>666.81</ele>
        <time>2016-10-05T13:09:34Z</time>
      </trkpt>
      <trkpt lat="45.14418" lon="7.02483">
        <ele>665.37</ele>
        <time>2016-10-05T13:09:35Z</time>
      </trkpt>
      <trkpt lat="45.14421" lon="7.025">
        <ele>665.37</ele>
        <time>2016-10-05T13:09:36Z</time>
      </trkpt>
      <trkpt lat="45.14428" lon="7.02553">
        <ele>661.52</ele>
        <time>2016-10-05T13:09:39Z</time>
      </trkpt>
      <trkpt lat="45.14432" lon="7.02623">
        <ele>657.2</ele>
        <time>2016-10-05T13:09:43Z</time>
      </trkpt>
      <trkpt lat="45.14434" lon="7.02674">
        <ele>653.83</ele>
        <time>2016-10-05T13:09:46Z</time>
      </trkpt>
      <trkpt lat="45.14437" lon="7.02722">
        <ele>649.99</ele>
        <time>2016-10-05T13:09:49Z</time>
      </trkpt>
      <trkpt lat="45.14442" lon="7.02771">
        <ele>647.1</ele>
        <time>2016-10-05T13:09:52Z</time>
      </trkpt>
      <trkpt lat="45.14445" lon="7.02822">
        <ele>643.74</ele>
        <time>2016-10-05T13:09:55Z</time>
      </trkpt>
      <trkpt lat="45.14445" lon="7.02839">
        <ele>642.3</ele>
        <time>2016-10-05T13:09:56Z</time>
      </trkpt>
      <trkpt lat="45.14443" lon="7.02891">
        <ele>639.89</ele>
        <time>2016-10-05T13:09:59Z</time>
      </trkpt>
      <trkpt lat="45.14439" lon="7.02942">
        <ele>636.05</ele>
        <time>2016-10-05T13:10:02Z</time>
      </trkpt>
      <trkpt lat="45.14434" lon="7.02988">
        <ele>633.17</ele>
        <time>2016-10-05T13:10:05Z</time>
      </trkpt>
      <trkpt lat="45.14425" lon="7.03033">
        <ele>629.32</ele>
        <time>2016-10-05T13:10:08Z</time>
      </trkpt>
      <trkpt lat="45.14425" lon="7.03049">
        <ele>629.32</ele>
        <time>2016-10-05T13:10:09Z</time>
      </trkpt>
      <trkpt lat="45.14427" lon="7.03064">
        <ele>627.4</ele>
        <time>2016-10-05T13:10:10Z</time>
      </trkpt>
      <trkpt lat="45.1443" lon="7.0308">
        <ele>627.4</ele>
        <time>2016-10-05T13:10:11Z</time>
      </trkpt>
      <trkpt lat="45.14433" lon="7.03095">
        <ele>625.96</ele>
        <time>2016-10-05T13:10:12Z</time>
      </trkpt>
      <trkpt lat="45.14445" lon="7.03155">
        <ele>622.59</ele>
        <time>2016-10-05T13:10:16Z</time>
      </trkpt>
      <trkpt lat="45.14447" lon="7.03204">
        <ele>619.23</ele>
        <time>2016-10-05T13:10:19Z</time>
      </trkpt>
      <trkpt lat="45.14445" lon="7.03268">
        <ele>616.34</ele>
        <time>2016-10-05T13:10:23Z</time>
      </trkpt>
      <trkpt lat="45.14443" lon="7.03284">
        <ele>616.34</ele>
        <time>2016-10-05T13:10:24Z</time>
      </trkpt>
      <trkpt lat="45.14436" lon="7.03331">
        <ele>613.46</ele>
        <time>2016-10-05T13:10:27Z</time>
      </trkpt>
      <trkpt lat="45.14432" lon="7.03346">
        <ele>612.5</ele>
        <time>2016-10-05T13:10:28Z</time>
      </trkpt>
      <trkpt lat="45.14427" lon="7.03361">
        <ele>611.54</ele>
        <time>2016-10-05T13:10:29Z</time>
      </trkpt>
      <trkpt lat="45.14421" lon="7.03376">
        <ele>611.54</ele>
        <time>2016-10-05T13:10:30Z</time>
      </trkpt>
      <trkpt lat="45.14398" lon="7.03419">
        <ele>608.17</ele>
        <time>2016-10-05T13:10:33Z</time>
      </trkpt>
      <trkpt lat="45.1439" lon="7.03432">
        <ele>607.69</ele>
        <time>2016-10-05T13:10:34Z</time>
      </trkpt>
      <trkpt lat="45.14383" lon="7.03447">
        <ele>607.21</ele>
        <time>2016-10-05T13:10:35Z</time>
      </trkpt>
      <trkpt lat="45.14377" lon="7.03462">
        <ele>606.25</ele>
        <time>2016-10-05T13:10:36Z</time>
      </trkpt>
      <trkpt lat="45.14372" lon="7.03479">
        <ele>605.29</ele>
        <time>2016-10-05T13:10:37Z</time>
      </trkpt>
      <trkpt lat="45.14369" lon="7.03496">
        <ele>604.81</ele>
        <time>2016-10-05T13:10:38Z</time>
      </trkpt>
      <trkpt lat="45.14367" lon="7.03514">
        <ele>603.85</ele>
        <time>2016-10-05T13:10:39Z</time>
      </trkpt>
      <trkpt lat="45.14365" lon="7.03532">
        <ele>603.85</ele>
        <time>2016-10-05T13:10:40Z</time>
      </trkpt>
      <trkpt lat="45.14361" lon="7.03567">
        <ele>601.92</ele>
        <time>2016-10-05T13:10:42Z</time>
      </trkpt>
      <trkpt lat="45.14359" lon="7.03584">
        <ele>601.92</ele>
        <time>2016-10-05T13:10:43Z</time>
      </trkpt>
      <trkpt lat="45.14358" lon="7.03601">
        <ele>601.44</ele>
        <time>2016-10-05T13:10:44Z</time>
      </trkpt>
      <trkpt lat="45.1436" lon="7.03617">
        <ele>600.48</ele>
        <time>2016-10-05T13:10:45Z</time>
      </trkpt>
      <trkpt lat="45.14362" lon="7.03633">
        <ele>600</ele>
        <time>2016-10-05T13:10:46Z</time>
      </trkpt>
      <trkpt lat="45.14365" lon="7.03648">
        <ele>598.08</ele>
        <time>2016-10-05T13:10:47Z</time>
      </trkpt>
      <trkpt lat="45.14367" lon="7.03663">
        <ele>598.56</ele>
        <time>2016-10-05T13:10:48Z</time>
      </trkpt>
      <trkpt lat="45.14371" lon="7.03694">
        <ele>596.64</ele>
        <time>2016-10-05T13:10:50Z</time>
      </trkpt>
      <trkpt lat="45.14372" lon="7.03708">
        <ele>595.67</ele>
        <time>2016-10-05T13:10:51Z</time>
      </trkpt>
      <trkpt lat="45.14371" lon="7.03722">
        <ele>594.71</ele>
        <time>2016-10-05T13:10:52Z</time>
      </trkpt>
      <trkpt lat="45.14368" lon="7.03735">
        <ele>593.27</ele>
        <time>2016-10-05T13:10:53Z</time>
      </trkpt>
      <trkpt lat="45.14364" lon="7.03746">
        <ele>592.31</ele>
        <time>2016-10-05T13:10:54Z</time>
      </trkpt>
      <trkpt lat="45.14358" lon="7.03755">
        <ele>591.35</ele>
        <time>2016-10-05T13:10:55Z</time>
      </trkpt>
      <trkpt lat="45.14351" lon="7.03763">
        <ele>591.35</ele>
        <time>2016-10-05T13:10:56Z</time>
      </trkpt>
      <trkpt lat="45.14343" lon="7.03769">
        <ele>590.87</ele>
        <time>2016-10-05T13:10:57Z</time>
      </trkpt>
      <trkpt lat="45.14295" lon="7.03785">
        <ele>587.02</ele>
        <time>2016-10-05T13:11:02Z</time>
      </trkpt>
      <trkpt lat="45.14285" lon="7.03788">
        <ele>586.54</ele>
        <time>2016-10-05T13:11:03Z</time>
      </trkpt>
      <trkpt lat="45.14255" lon="7.03797">
        <ele>583.66</ele>
        <time>2016-10-05T13:11:06Z</time>
      </trkpt>
      <trkpt lat="45.14237" lon="7.03803">
        <ele>582.7</ele>
        <time>2016-10-05T13:11:08Z</time>
      </trkpt>
      <trkpt lat="45.14229" lon="7.03808">
        <ele>582.7</ele>
        <time>2016-10-05T13:11:09Z</time>
      </trkpt>
      <trkpt lat="45.14222" lon="7.03817">
        <ele>582.22</ele>
        <time>2016-10-05T13:11:10Z</time>
      </trkpt>
      <trkpt lat="45.14217" lon="7.03828">
        <ele>581.73</ele>
        <time>2016-10-05T13:11:11Z</time>
      </trkpt>
      <trkpt lat="45.14213" lon="7.03839">
        <ele>581.25</ele>
        <time>2016-10-05T13:11:12Z</time>
      </trkpt>
      <trkpt lat="45.14209" lon="7.03852">
        <ele>579.33</ele>
        <time>2016-10-05T13:11:13Z</time>
      </trkpt>
      <trkpt lat="45.14206" lon="7.03865">
        <ele>579.81</ele>
        <time>2016-10-05T13:11:14Z</time>
      </trkpt>
      <trkpt lat="45.14196" lon="7.03907">
        <ele>576.45</ele>
        <time>2016-10-05T13:11:17Z</time>
      </trkpt>
      <trkpt lat="45.14193" lon="7.03921">
        <ele>575.97</ele>
        <time>2016-10-05T13:11:18Z</time>
      </trkpt>
      <trkpt lat="45.14177" lon="7.03994">
        <ele>573.56</ele>
        <time>2016-10-05T13:11:23Z</time>
      </trkpt>
      <trkpt lat="45.14172" lon="7.04056">
        <ele>570.2</ele>
        <time>2016-10-05T13:11:27Z</time>
      </trkpt>
      <trkpt lat="45.1417" lon="7.04118">
        <ele>566.83</ele>
        <time>2016-10-05T13:11:31Z</time>
      </trkpt>
      <trkpt lat="45.14168" lon="7.04133">
        <ele>565.39</ele>
        <time>2016-10-05T13:11:32Z</time>
      </trkpt>
      <trkpt lat="45.14165" lon="7.04147">
        <ele>565.39</ele>
        <time>2016-10-05T13:11:33Z</time>
      </trkpt>
      <trkpt lat="45.14161" lon="7.0416">
        <ele>563.95</ele>
        <time>2016-10-05T13:11:34Z</time>
      </trkpt>
      <trkpt lat="45.14154" lon="7.04172">
        <ele>562.99</ele>
        <time>2016-10-05T13:11:35Z</time>
      </trkpt>
      <trkpt lat="45.14145" lon="7.04181">
        <ele>562.51</ele>
        <time>2016-10-05T13:11:36Z</time>
      </trkpt>
      <trkpt lat="45.14134" lon="7.04189">
        <ele>561.55</ele>
        <time>2016-10-05T13:11:37Z</time>
      </trkpt>
      <trkpt lat="45.14123" lon="7.04196">
        <ele>560.59</ele>
        <time>2016-10-05T13:11:38Z</time>
      </trkpt>
      <trkpt lat="45.14112" lon="7.04203">
        <ele>560.59</ele>
        <time>2016-10-05T13:11:39Z</time>
      </trkpt>
      <trkpt lat="45.14058" lon="7.04236">
        <ele>557.22</ele>
        <time>2016-10-05T13:11:44Z</time>
      </trkpt>
      <trkpt lat="45.14028" lon="7.04254">
        <ele>553.38</ele>
        <time>2016-10-05T13:11:47Z</time>
      </trkpt>
      <trkpt lat="45.14" lon="7.04275">
        <ele>548.57</ele>
        <time>2016-10-05T13:11:50Z</time>
      </trkpt>
      <trkpt lat="45.13992" lon="7.04282">
        <ele>548.57</ele>
        <time>2016-10-05T13:11:51Z</time>
      </trkpt>
      <trkpt lat="45.13984" lon="7.04291">
        <ele>545.2</ele>
        <time>2016-10-05T13:11:52Z</time>
      </trkpt>
      <trkpt lat="45.13977" lon="7.04299">
        <ele>546.17</ele>
        <time>2016-10-05T13:11:53Z</time>
      </trkpt>
      <trkpt lat="45.13948" lon="7.04352">
        <ele>545.2</ele>
        <time>2016-10-05T13:11:58Z</time>
      </trkpt>
      <trkpt lat="45.13939" lon="7.04376">
        <ele>543.28</ele>
        <time>2016-10-05T13:12:00Z</time>
      </trkpt>
      <trkpt lat="45.13933" lon="7.04403">
        <ele>540.4</ele>
        <time>2016-10-05T13:12:02Z</time>
      </trkpt>
      <trkpt lat="45.13926" lon="7.04447">
        <ele>537.51</ele>
        <time>2016-10-05T13:12:05Z</time>
      </trkpt>
      <trkpt lat="45.13921" lon="7.04478">
        <ele>536.55</ele>
        <time>2016-10-05T13:12:07Z</time>
      </trkpt>
      <trkpt lat="45.13908" lon="7.04558">
        <ele>532.71</ele>
        <time>2016-10-05T13:12:12Z</time>
      </trkpt>
      <trkpt lat="45.13906" lon="7.04574">
        <ele>533.19</ele>
        <time>2016-10-05T13:12:13Z</time>
      </trkpt>
      <trkpt lat="45.1389" lon="7.04669">
        <ele>530.3</ele>
        <time>2016-10-05T13:12:19Z</time>
      </trkpt>
      <trkpt lat="45.13879" lon="7.0474">
        <ele>526.46</ele>
        <time>2016-10-05T13:12:24Z</time>
      </trkpt>
      <trkpt lat="45.13859" lon="7.04852">
        <ele>524.06</ele>
        <time>2016-10-05T13:12:34Z</time>
      </trkpt>
      <trkpt lat="45.13851" lon="7.04911">
        <ele>524.06</ele>
        <time>2016-10-05T13:12:40Z</time>
      </trkpt>
      <trkpt lat="45.13842" lon="7.04958">
        <ele>522.61</ele>
        <time>2016-10-05T13:12:45Z</time>
      </trkpt>
      <trkpt lat="45.13836" lon="7.05002">
        <ele>521.17</ele>
        <time>2016-10-05T13:12:50Z</time>
      </trkpt>
      <trkpt lat="45.13837" lon="7.05009">
        <ele>520.69</ele>
        <time>2016-10-05T13:12:51Z</time>
      </trkpt>
      <trkpt lat="45.13838" lon="7.05016">
        <ele>521.65</ele>
        <time>2016-10-05T13:12:52Z</time>
      </trkpt>
      <trkpt lat="45.13844" lon="7.05038">
        <ele>520.69</ele>
        <time>2016-10-05T13:12:58Z</time>
      </trkpt>
      <trkpt lat="45.13846" lon="7.05038">
        <ele>520.69</ele>
        <time>2016-10-05T13:12:59Z</time>
      </trkpt>
      <trkpt lat="45.13848" lon="7.05038">
        <ele>520.69</ele>
        <time>2016-10-05T13:13:00Z</time>
      </trkpt>
      <trkpt lat="45.1385" lon="7.05038">
        <ele>521.17</ele>
        <time>2016-10-05T13:13:01Z</time>
      </trkpt>
      <trkpt lat="45.13852" lon="7.05038">
        <ele>521.17</ele>
        <time>2016-10-05T13:13:02Z</time>
      </trkpt>
      <trkpt lat="45.13855" lon="7.05039">
        <ele>520.69</ele>
        <time>2016-10-05T13:13:03Z</time>
      </trkpt>
      <trkpt lat="45.13863" lon="7.05044">
        <ele>520.69</ele>
        <time>2016-10-05T13:13:07Z</time>
      </trkpt>
      <trkpt lat="45.13867" lon="7.05052">
        <ele>520.21</ele>
        <time>2016-10-05T13:13:11Z</time>
      </trkpt>
      <trkpt lat="45.13866" lon="7.05071">
        <ele>520.21</ele>
        <time>2016-10-05T13:13:22Z</time>
      </trkpt>
      <trkpt lat="45.13867" lon="7.05075">
        <ele>519.73</ele>
        <time>2016-10-05T13:13:46Z</time>
      </trkpt>
      <trkpt lat="45.13866" lon="7.05075">
        <ele>519.73</ele>
        <time>2016-10-05T13:14:09Z</time>
      </trkpt>
      <trkpt lat="45.13864" lon="7.05074">
        <ele>519.25</ele>
        <time>2016-10-05T13:14:41Z</time>
      </trkpt>
      <trkpt lat="45.13862" lon="7.05078">
        <ele>518.77</ele>
        <time>2016-10-05T13:15:20Z</time>
      </trkpt>
      <trkpt lat="45.13863" lon="7.05077">
        <ele>518.29</ele>
        <time>2016-10-05T13:15:51Z</time>
      </trkpt>
      <trkpt lat="45.13864" lon="7.05083">
        <ele>518.29</ele>
        <time>2016-10-05T13:16:23Z</time>
      </trkpt>
      <trkpt lat="45.13864" lon="7.05089">
        <ele>518.29</ele>
        <time>2016-10-05T13:16:47Z</time>
      </trkpt>
      <trkpt lat="45.13865" lon="7.05088">
        <ele>517.33</ele>
        <time>2016-10-05T13:17:18Z</time>
      </trkpt>
      <trkpt lat="45.13866" lon="7.05084">
        <ele>517.33</ele>
        <time>2016-10-05T13:17:50Z</time>
      </trkpt>
      <trkpt lat="45.13867" lon="7.05088">
        <ele>517.81</ele>
        <time>2016-10-05T13:18:20Z</time>
      </trkpt>
      <trkpt lat="45.13867" lon="7.0508">
        <ele>516.85</ele>
        <time>2016-10-05T13:18:50Z</time>
      </trkpt>
      <trkpt lat="45.13865" lon="7.05078">
        <ele>516.85</ele>
        <time>2016-10-05T13:19:23Z</time>
      </trkpt>
      <trkpt lat="45.13868" lon="7.05086">
        <ele>516.37</ele>
        <time>2016-10-05T13:19:53Z</time>
      </trkpt>
      <trkpt lat="45.13865" lon="7.05087">
        <ele>515.88</ele>
        <time>2016-10-05T13:20:23Z</time>
      </trkpt>
      <trkpt lat="45.13866" lon="7.05082">
        <ele>515.88</ele>
        <time>2016-10-05T13:20:57Z</time>
      </trkpt>
      <trkpt lat="45.13863" lon="7.05088">
        <ele>516.37</ele>
        <time>2016-10-05T13:21:30Z</time>
      </trkpt>
      <trkpt lat="45.13864" lon="7.05085">
        <ele>515.88</ele>
        <time>2016-10-05T13:22:03Z</time>
      </trkpt>
      <trkpt lat="45.13869" lon="7.05081">
        <ele>515.4</ele>
        <time>2016-10-05T13:22:32Z</time>
      </trkpt>
      <trkpt lat="45.13869" lon="7.05078">
        <ele>515.4</ele>
        <time>2016-10-05T13:23:02Z</time>
      </trkpt>
      <trkpt lat="45.13872" lon="7.05076">
        <ele>514.92</ele>
        <time>2016-10-05T13:23:31Z</time>
      </trkpt>
      <trkpt lat="45.13871" lon="7.05077">
        <ele>514.92</ele>
        <time>2016-10-05T13:23:54Z</time>
      </trkpt>
      <trkpt lat="45.13869" lon="7.05081">
        <ele>513.96</ele>
        <time>2016-10-05T13:24:20Z</time>
      </trkpt>
      <trkpt lat="45.1387" lon="7.05111">
        <ele>513.48</ele>
        <time>2016-10-05T13:24:33Z</time>
      </trkpt>
      <trkpt lat="45.13877" lon="7.05146">
        <ele>512.52</ele>
        <time>2016-10-05T13:24:44Z</time>
      </trkpt>
      <trkpt lat="45.1388" lon="7.05155">
        <ele>512.52</ele>
        <time>2016-10-05T13:24:57Z</time>
      </trkpt>
      <trkpt lat="45.13882" lon="7.05155">
        <ele>512.04</ele>
        <time>2016-10-05T13:24:58Z</time>
      </trkpt>
      <trkpt lat="45.13883" lon="7.05155">
        <ele>512.04</ele>
        <time>2016-10-05T13:24:59Z</time>
      </trkpt>
      <trkpt lat="45.13884" lon="7.05157">
        <ele>512.04</ele>
        <time>2016-10-05T13:25:00Z</time>
      </trkpt>
      <trkpt lat="45.13885" lon="7.05158">
        <ele>512.04</ele>
        <time>2016-10-05T13:25:01Z</time>
      </trkpt>
      <trkpt lat="45.13885" lon="7.05161">
        <ele>511.56</ele>
        <time>2016-10-05T13:25:03Z</time>
      </trkpt>
      <trkpt lat="45.13885" lon="7.05164">
        <ele>512.04</ele>
        <time>2016-10-05T13:25:04Z</time>
      </trkpt>
      <trkpt lat="45.13885" lon="7.05168">
        <ele>512.52</ele>
        <time>2016-10-05T13:25:05Z</time>
      </trkpt>
      <trkpt lat="45.13887" lon="7.05221">
        <ele>512.52</ele>
        <time>2016-10-05T13:25:15Z</time>
      </trkpt>
      <trkpt lat="45.13888" lon="7.05227">
        <ele>513</ele>
        <time>2016-10-05T13:25:16Z</time>
      </trkpt>
      <trkpt lat="45.13889" lon="7.05234">
        <ele>512.52</ele>
        <time>2016-10-05T13:25:17Z</time>
      </trkpt>
      <trkpt lat="45.13898" lon="7.05317">
        <ele>510.6</ele>
        <time>2016-10-05T13:25:29Z</time>
      </trkpt>
      <trkpt lat="45.13909" lon="7.0539">
        <ele>510.6</ele>
        <time>2016-10-05T13:25:39Z</time>
      </trkpt>
      <trkpt lat="45.13916" lon="7.05491">
        <ele>510.6</ele>
        <time>2016-10-05T13:25:52Z</time>
      </trkpt>
      <trkpt lat="45.13917" lon="7.05571">
        <ele>511.56</ele>
        <time>2016-10-05T13:26:02Z</time>
      </trkpt>
      <trkpt lat="45.13925" lon="7.05671">
        <ele>511.08</ele>
        <time>2016-10-05T13:26:17Z</time>
      </trkpt>
      <trkpt lat="45.13925" lon="7.05742">
        <ele>511.56</ele>
        <time>2016-10-05T13:26:31Z</time>
      </trkpt>
      <trkpt lat="45.13923" lon="7.05757">
        <ele>511.08</ele>
        <time>2016-10-05T13:26:33Z</time>
      </trkpt>
      <trkpt lat="45.13922" lon="7.05765">
        <ele>510.12</ele>
        <time>2016-10-05T13:26:34Z</time>
      </trkpt>
      <trkpt lat="45.13919" lon="7.05773">
        <ele>509.64</ele>
        <time>2016-10-05T13:26:35Z</time>
      </trkpt>
      <trkpt lat="45.13907" lon="7.05814">
        <ele>508.67</ele>
        <time>2016-10-05T13:26:41Z</time>
      </trkpt>
      <trkpt lat="45.13877" lon="7.05904">
        <ele>509.64</ele>
        <time>2016-10-05T13:26:55Z</time>
      </trkpt>
      <trkpt lat="45.13854" lon="7.05979">
        <ele>510.12</ele>
        <time>2016-10-05T13:27:07Z</time>
      </trkpt>
      <trkpt lat="45.13852" lon="7.05985">
        <ele>510.12</ele>
        <time>2016-10-05T13:27:08Z</time>
      </trkpt>
      <trkpt lat="45.1385" lon="7.05991">
        <ele>509.64</ele>
        <time>2016-10-05T13:27:09Z</time>
      </trkpt>
      <trkpt lat="45.13844" lon="7.06009">
        <ele>509.64</ele>
        <time>2016-10-05T13:27:12Z</time>
      </trkpt>
      <trkpt lat="45.13829" lon="7.06045">
        <ele>509.16</ele>
        <time>2016-10-05T13:27:18Z</time>
      </trkpt>
      <trkpt lat="45.13807" lon="7.06108">
        <ele>510.12</ele>
        <time>2016-10-05T13:27:30Z</time>
      </trkpt>
      <trkpt lat="45.13789" lon="7.06152">
        <ele>509.16</ele>
        <time>2016-10-05T13:27:38Z</time>
      </trkpt>
      <trkpt lat="45.13787" lon="7.06157">
        <ele>509.16</ele>
        <time>2016-10-05T13:27:39Z</time>
      </trkpt>
      <trkpt lat="45.13784" lon="7.06163">
        <ele>508.67</ele>
        <time>2016-10-05T13:27:40Z</time>
      </trkpt>
      <trkpt lat="45.13758" lon="7.06261">
        <ele>509.64</ele>
        <time>2016-10-05T13:27:54Z</time>
      </trkpt>
      <trkpt lat="45.13746" lon="7.06384">
        <ele>509.16</ele>
        <time>2016-10-05T13:28:11Z</time>
      </trkpt>
      <trkpt lat="45.13736" lon="7.0648">
        <ele>509.16</ele>
        <time>2016-10-05T13:28:24Z</time>
      </trkpt>
      <trkpt lat="45.13734" lon="7.06493">
        <ele>510.12</ele>
        <time>2016-10-05T13:28:26Z</time>
      </trkpt>
      <trkpt lat="45.13734" lon="7.065">
        <ele>509.16</ele>
        <time>2016-10-05T13:28:27Z</time>
      </trkpt>
      <trkpt lat="45.13734" lon="7.06507">
        <ele>509.16</ele>
        <time>2016-10-05T13:28:28Z</time>
      </trkpt>
      <trkpt lat="45.13735" lon="7.06513">
        <ele>509.16</ele>
        <time>2016-10-05T13:28:29Z</time>
      </trkpt>
      <trkpt lat="45.13735" lon="7.06518">
        <ele>509.16</ele>
        <time>2016-10-05T13:28:30Z</time>
      </trkpt>
      <trkpt lat="45.13734" lon="7.06524">
        <ele>509.16</ele>
        <time>2016-10-05T13:28:31Z</time>
      </trkpt>
      <trkpt lat="45.13734" lon="7.0653">
        <ele>509.16</ele>
        <time>2016-10-05T13:28:32Z</time>
      </trkpt>
      <trkpt lat="45.13733" lon="7.06537">
        <ele>509.16</ele>
        <time>2016-10-05T13:28:33Z</time>
      </trkpt>
      <trkpt lat="45.13733" lon="7.06544">
        <ele>508.67</ele>
        <time>2016-10-05T13:28:34Z</time>
      </trkpt>
      <trkpt lat="45.13733" lon="7.06552">
        <ele>508.19</ele>
        <time>2016-10-05T13:28:35Z</time>
      </trkpt>
      <trkpt lat="45.13733" lon="7.06561">
        <ele>507.71</ele>
        <time>2016-10-05T13:28:36Z</time>
      </trkpt>
      <trkpt lat="45.13732" lon="7.06587">
        <ele>505.79</ele>
        <time>2016-10-05T13:28:39Z</time>
      </trkpt>
      <trkpt lat="45.1373" lon="7.06656">
        <ele>501.95</ele>
        <time>2016-10-05T13:28:46Z</time>
      </trkpt>
      <trkpt lat="45.13727" lon="7.06735">
        <ele>499.06</ele>
        <time>2016-10-05T13:28:53Z</time>
      </trkpt>
      <trkpt lat="45.13726" lon="7.06746">
        <ele>498.58</ele>
        <time>2016-10-05T13:28:54Z</time>
      </trkpt>
      <trkpt lat="45.13726" lon="7.06852">
        <ele>495.22</ele>
        <time>2016-10-05T13:29:03Z</time>
      </trkpt>
      <trkpt lat="45.13728" lon="7.06863">
        <ele>495.7</ele>
        <time>2016-10-05T13:29:04Z</time>
      </trkpt>
      <trkpt lat="45.13735" lon="7.06906">
        <ele>492.81</ele>
        <time>2016-10-05T13:29:08Z</time>
      </trkpt>
      <trkpt lat="45.13754" lon="7.07017">
        <ele>492.81</ele>
        <time>2016-10-05T13:29:20Z</time>
      </trkpt>
      <trkpt lat="45.13758" lon="7.07054">
        <ele>493.77</ele>
        <time>2016-10-05T13:29:24Z</time>
      </trkpt>
      <trkpt lat="45.1376" lon="7.07079">
        <ele>492.33</ele>
        <time>2016-10-05T13:29:27Z</time>
      </trkpt>
      <trkpt lat="45.13763" lon="7.07094">
        <ele>492.81</ele>
        <time>2016-10-05T13:29:29Z</time>
      </trkpt>
      <trkpt lat="45.13764" lon="7.07111">
        <ele>492.33</ele>
        <time>2016-10-05T13:29:31Z</time>
      </trkpt>
      <trkpt lat="45.13765" lon="7.0712">
        <ele>492.81</ele>
        <time>2016-10-05T13:29:32Z</time>
      </trkpt>
      <trkpt lat="45.13766" lon="7.07128">
        <ele>492.81</ele>
        <time>2016-10-05T13:29:33Z</time>
      </trkpt>
      <trkpt lat="45.13775" lon="7.07192">
        <ele>491.37</ele>
        <time>2016-10-05T13:29:41Z</time>
      </trkpt>
      <trkpt lat="45.13777" lon="7.07198">
        <ele>491.85</ele>
        <time>2016-10-05T13:29:42Z</time>
      </trkpt>
      <trkpt lat="45.13792" lon="7.07306">
        <ele>493.77</ele>
        <time>2016-10-05T13:29:59Z</time>
      </trkpt>
      <trkpt lat="45.13805" lon="7.07394">
        <ele>493.77</ele>
        <time>2016-10-05T13:30:14Z</time>
      </trkpt>
      <trkpt lat="45.13808" lon="7.07414">
        <ele>492.81</ele>
        <time>2016-10-05T13:30:17Z</time>
      </trkpt>
      <trkpt lat="45.13809" lon="7.07422">
        <ele>492.81</ele>
        <time>2016-10-05T13:30:18Z</time>
      </trkpt>
      <trkpt lat="45.1381" lon="7.0743">
        <ele>492.33</ele>
        <time>2016-10-05T13:30:19Z</time>
      </trkpt>
      <trkpt lat="45.13823" lon="7.07509">
        <ele>490.41</ele>
        <time>2016-10-05T13:30:28Z</time>
      </trkpt>
      <trkpt lat="45.1384" lon="7.07603">
        <ele>487.05</ele>
        <time>2016-10-05T13:30:37Z</time>
      </trkpt>
      <trkpt lat="45.1386" lon="7.07728">
        <ele>484.16</ele>
        <time>2016-10-05T13:30:48Z</time>
      </trkpt>
      <trkpt lat="45.13899" lon="7.07918">
        <ele>482.72</ele>
        <time>2016-10-05T13:31:07Z</time>
      </trkpt>
      <trkpt lat="45.13905" lon="7.07946">
        <ele>481.28</ele>
        <time>2016-10-05T13:31:10Z</time>
      </trkpt>
      <trkpt lat="45.13904" lon="7.07956">
        <ele>481.76</ele>
        <time>2016-10-05T13:31:11Z</time>
      </trkpt>
      <trkpt lat="45.13902" lon="7.07964">
        <ele>481.76</ele>
        <time>2016-10-05T13:31:12Z</time>
      </trkpt>
      <trkpt lat="45.13899" lon="7.07971">
        <ele>482.24</ele>
        <time>2016-10-05T13:31:13Z</time>
      </trkpt>
      <trkpt lat="45.13894" lon="7.07977">
        <ele>481.76</ele>
        <time>2016-10-05T13:31:14Z</time>
      </trkpt>
      <trkpt lat="45.13888" lon="7.07981">
        <ele>481.28</ele>
        <time>2016-10-05T13:31:15Z</time>
      </trkpt>
      <trkpt lat="45.13883" lon="7.07984">
        <ele>481.28</ele>
        <time>2016-10-05T13:31:16Z</time>
      </trkpt>
      <trkpt lat="45.13877" lon="7.07986">
        <ele>482.24</ele>
        <time>2016-10-05T13:31:17Z</time>
      </trkpt>
      <trkpt lat="45.1387" lon="7.07987">
        <ele>482.72</ele>
        <time>2016-10-05T13:31:18Z</time>
      </trkpt>
      <trkpt lat="45.13864" lon="7.07987">
        <ele>482.24</ele>
        <time>2016-10-05T13:31:19Z</time>
      </trkpt>
      <trkpt lat="45.13852" lon="7.07987">
        <ele>482.72</ele>
        <time>2016-10-05T13:31:21Z</time>
      </trkpt>
      <trkpt lat="45.13847" lon="7.07986">
        <ele>483.2</ele>
        <time>2016-10-05T13:31:22Z</time>
      </trkpt>
      <trkpt lat="45.13842" lon="7.07984">
        <ele>483.68</ele>
        <time>2016-10-05T13:31:23Z</time>
      </trkpt>
      <trkpt lat="45.13822" lon="7.07979">
        <ele>484.16</ele>
        <time>2016-10-05T13:31:32Z</time>
      </trkpt>
      <trkpt lat="45.1382" lon="7.07982">
        <ele>484.16</ele>
        <time>2016-10-05T13:31:38Z</time>
      </trkpt>
      <trkpt lat="45.1382" lon="7.07984">
        <ele>484.16</ele>
        <time>2016-10-05T13:31:39Z</time>
      </trkpt>
      <trkpt lat="45.13819" lon="7.07987">
        <ele>484.16</ele>
        <time>2016-10-05T13:31:40Z</time>
      </trkpt>
      <trkpt lat="45.13819" lon="7.0799">
        <ele>483.2</ele>
        <time>2016-10-05T13:31:41Z</time>
      </trkpt>
      <trkpt lat="45.13818" lon="7.07995">
        <ele>484.64</ele>
        <time>2016-10-05T13:31:42Z</time>
      </trkpt>
      <trkpt lat="45.13817" lon="7.08022">
        <ele>483.2</ele>
        <time>2016-10-05T13:31:47Z</time>
      </trkpt>
      <trkpt lat="45.13835" lon="7.08139">
        <ele>481.76</ele>
        <time>2016-10-05T13:32:02Z</time>
      </trkpt>
      <trkpt lat="45.13858" lon="7.08288">
        <ele>481.28</ele>
        <time>2016-10-05T13:32:19Z</time>
      </trkpt>
      <trkpt lat="45.13865" lon="7.08417">
        <ele>481.76</ele>
        <time>2016-10-05T13:32:34Z</time>
      </trkpt>
      <trkpt lat="45.13858" lon="7.08543">
        <ele>477.91</ele>
        <time>2016-10-05T13:32:48Z</time>
      </trkpt>
      <trkpt lat="45.13851" lon="7.0863">
        <ele>477.43</ele>
        <time>2016-10-05T13:32:58Z</time>
      </trkpt>
      <trkpt lat="45.13843" lon="7.08738">
        <ele>476.95</ele>
        <time>2016-10-05T13:33:10Z</time>
      </trkpt>
      <trkpt lat="45.13836" lon="7.08845">
        <ele>478.39</ele>
        <time>2016-10-05T13:33:22Z</time>
      </trkpt>
      <trkpt lat="45.13823" lon="7.09014">
        <ele>476.95</ele>
        <time>2016-10-05T13:33:41Z</time>
      </trkpt>
      <trkpt lat="45.13814" lon="7.09141">
        <ele>475.51</ele>
        <time>2016-10-05T13:33:55Z</time>
      </trkpt>
      <trkpt lat="45.13801" lon="7.09305">
        <ele>472.63</ele>
        <time>2016-10-05T13:34:13Z</time>
      </trkpt>
      <trkpt lat="45.13789" lon="7.09483">
        <ele>475.51</ele>
        <time>2016-10-05T13:34:32Z</time>
      </trkpt>
      <trkpt lat="45.13781" lon="7.09597">
        <ele>471.66</ele>
        <time>2016-10-05T13:34:45Z</time>
      </trkpt>
      <trkpt lat="45.1378" lon="7.09606">
        <ele>472.14</ele>
        <time>2016-10-05T13:34:46Z</time>
      </trkpt>
      <trkpt lat="45.13779" lon="7.09623">
        <ele>473.59</ele>
        <time>2016-10-05T13:34:48Z</time>
      </trkpt>
      <trkpt lat="45.13778" lon="7.09671">
        <ele>473.59</ele>
        <time>2016-10-05T13:34:54Z</time>
      </trkpt>
      <trkpt lat="45.1378" lon="7.09677">
        <ele>472.63</ele>
        <time>2016-10-05T13:34:55Z</time>
      </trkpt>
      <trkpt lat="45.13784" lon="7.09682">
        <ele>472.63</ele>
        <time>2016-10-05T13:34:56Z</time>
      </trkpt>
      <trkpt lat="45.13789" lon="7.09685">
        <ele>471.66</ele>
        <time>2016-10-05T13:34:57Z</time>
      </trkpt>
      <trkpt lat="45.13794" lon="7.09686">
        <ele>470.7</ele>
        <time>2016-10-05T13:34:58Z</time>
      </trkpt>
      <trkpt lat="45.13799" lon="7.09685">
        <ele>471.18</ele>
        <time>2016-10-05T13:34:59Z</time>
      </trkpt>
      <trkpt lat="45.13804" lon="7.09685">
        <ele>471.66</ele>
        <time>2016-10-05T13:35:00Z</time>
      </trkpt>
      <trkpt lat="45.13868" lon="7.09679">
        <ele>473.59</ele>
        <time>2016-10-05T13:35:14Z</time>
      </trkpt>
      <trkpt lat="45.1387" lon="7.09681">
        <ele>472.63</ele>
        <time>2016-10-05T13:35:15Z</time>
      </trkpt>
      <trkpt lat="45.13872" lon="7.09685">
        <ele>472.63</ele>
        <time>2016-10-05T13:35:16Z</time>
      </trkpt>
      <trkpt lat="45.13874" lon="7.09695">
        <ele>471.66</ele>
        <time>2016-10-05T13:35:18Z</time>
      </trkpt>
      <trkpt lat="45.13875" lon="7.09702">
        <ele>471.18</ele>
        <time>2016-10-05T13:35:19Z</time>
      </trkpt>
      <trkpt lat="45.13875" lon="7.09709">
        <ele>470.7</ele>
        <time>2016-10-05T13:35:20Z</time>
      </trkpt>
      <trkpt lat="45.13873" lon="7.09734">
        <ele>470.22</ele>
        <time>2016-10-05T13:35:23Z</time>
      </trkpt>
      <trkpt lat="45.13867" lon="7.09829">
        <ele>470.22</ele>
        <time>2016-10-05T13:35:35Z</time>
      </trkpt>
      <trkpt lat="45.13857" lon="7.09949">
        <ele>469.26</ele>
        <time>2016-10-05T13:35:50Z</time>
      </trkpt>
      <trkpt lat="45.13852" lon="7.09989">
        <ele>470.22</ele>
        <time>2016-10-05T13:35:55Z</time>
      </trkpt>
      <trkpt lat="45.13851" lon="7.09997">
        <ele>470.22</ele>
        <time>2016-10-05T13:35:56Z</time>
      </trkpt>
      <trkpt lat="45.1385" lon="7.10005">
        <ele>470.22</ele>
        <time>2016-10-05T13:35:57Z</time>
      </trkpt>
      <trkpt lat="45.13848" lon="7.10013">
        <ele>468.78</ele>
        <time>2016-10-05T13:35:58Z</time>
      </trkpt>
      <trkpt lat="45.13847" lon="7.1002">
        <ele>468.78</ele>
        <time>2016-10-05T13:35:59Z</time>
      </trkpt>
      <trkpt lat="45.13843" lon="7.10044">
        <ele>468.78</ele>
        <time>2016-10-05T13:36:02Z</time>
      </trkpt>
      <trkpt lat="45.13825" lon="7.10151">
        <ele>468.3</ele>
        <time>2016-10-05T13:36:16Z</time>
      </trkpt>
      <trkpt lat="45.13821" lon="7.10183">
        <ele>468.78</ele>
        <time>2016-10-05T13:36:20Z</time>
      </trkpt>
      <trkpt lat="45.13821" lon="7.10192">
        <ele>468.78</ele>
        <time>2016-10-05T13:36:21Z</time>
      </trkpt>
      <trkpt lat="45.13823" lon="7.102">
        <ele>468.78</ele>
        <time>2016-10-05T13:36:22Z</time>
      </trkpt>
      <trkpt lat="45.13824" lon="7.10207">
        <ele>466.86</ele>
        <time>2016-10-05T13:36:23Z</time>
      </trkpt>
      <trkpt lat="45.13824" lon="7.10215">
        <ele>466.38</ele>
        <time>2016-10-05T13:36:24Z</time>
      </trkpt>
      <trkpt lat="45.13825" lon="7.10223">
        <ele>466.86</ele>
        <time>2016-10-05T13:36:25Z</time>
      </trkpt>
      <trkpt lat="45.13824" lon="7.10231">
        <ele>466.86</ele>
        <time>2016-10-05T13:36:26Z</time>
      </trkpt>
      <trkpt lat="45.13824" lon="7.10247">
        <ele>468.3</ele>
        <time>2016-10-05T13:36:28Z</time>
      </trkpt>
      <trkpt lat="45.13838" lon="7.1035">
        <ele>467.34</ele>
        <time>2016-10-05T13:36:41Z</time>
      </trkpt>
      <trkpt lat="45.13849" lon="7.10434">
        <ele>466.86</ele>
        <time>2016-10-05T13:36:52Z</time>
      </trkpt>
      <trkpt lat="45.13855" lon="7.10476">
        <ele>466.86</ele>
        <time>2016-10-05T13:36:58Z</time>
      </trkpt>
      <trkpt lat="45.13856" lon="7.10483">
        <ele>467.82</ele>
        <time>2016-10-05T13:36:59Z</time>
      </trkpt>
      <trkpt lat="45.13857" lon="7.1049">
        <ele>468.3</ele>
        <time>2016-10-05T13:37:00Z</time>
      </trkpt>
      <trkpt lat="45.13858" lon="7.10504">
        <ele>468.3</ele>
        <time>2016-10-05T13:37:02Z</time>
      </trkpt>
      <trkpt lat="45.13858" lon="7.10525">
        <ele>468.78</ele>
        <time>2016-10-05T13:37:05Z</time>
      </trkpt>
      <trkpt lat="45.13858" lon="7.10532">
        <ele>468.3</ele>
        <time>2016-10-05T13:37:06Z</time>
      </trkpt>
      <trkpt lat="45.13864" lon="7.1056">
        <ele>467.34</ele>
        <time>2016-10-05T13:37:10Z</time>
      </trkpt>
      <trkpt lat="45.13878" lon="7.10636">
        <ele>469.26</ele>
        <time>2016-10-05T13:37:21Z</time>
      </trkpt>
      <trkpt lat="45.13905" lon="7.10725">
        <ele>470.22</ele>
        <time>2016-10-05T13:37:37Z</time>
      </trkpt>
      <trkpt lat="45.13936" lon="7.10803">
        <ele>472.14</ele>
        <time>2016-10-05T13:37:55Z</time>
      </trkpt>
      <trkpt lat="45.13972" lon="7.10876">
        <ele>474.07</ele>
        <time>2016-10-05T13:38:13Z</time>
      </trkpt>
      <trkpt lat="45.13993" lon="7.10913">
        <ele>477.43</ele>
        <time>2016-10-05T13:38:24Z</time>
      </trkpt>
      <trkpt lat="45.14023" lon="7.1097">
        <ele>477.91</ele>
        <time>2016-10-05T13:38:40Z</time>
      </trkpt>
      <trkpt lat="45.1405" lon="7.11028">
        <ele>479.35</ele>
        <time>2016-10-05T13:38:55Z</time>
      </trkpt>
      <trkpt lat="45.14069" lon="7.11074">
        <ele>482.24</ele>
        <time>2016-10-05T13:39:08Z</time>
      </trkpt>
      <trkpt lat="45.1406" lon="7.11125">
        <ele>483.68</ele>
        <time>2016-10-05T13:39:21Z</time>
      </trkpt>
      <trkpt lat="45.14058" lon="7.11178">
        <ele>484.64</ele>
        <time>2016-10-05T13:39:33Z</time>
      </trkpt>
      <trkpt lat="45.14064" lon="7.11242">
        <ele>487.05</ele>
        <time>2016-10-05T13:39:49Z</time>
      </trkpt>
      <trkpt lat="45.14061" lon="7.11268">
        <ele>488.49</ele>
        <time>2016-10-05T13:39:57Z</time>
      </trkpt>
      <trkpt lat="45.14053" lon="7.11324">
        <ele>489.45</ele>
        <time>2016-10-05T13:40:10Z</time>
      </trkpt>
      <trkpt lat="45.1405" lon="7.11379">
        <ele>490.41</ele>
        <time>2016-10-05T13:40:23Z</time>
      </trkpt>
      <trkpt lat="45.14066" lon="7.11423">
        <ele>492.33</ele>
        <time>2016-10-05T13:40:34Z</time>
      </trkpt>
      <trkpt lat="45.14079" lon="7.11483">
        <ele>493.77</ele>
        <time>2016-10-05T13:40:48Z</time>
      </trkpt>
      <trkpt lat="45.1408" lon="7.11548">
        <ele>496.18</ele>
        <time>2016-10-05T13:41:03Z</time>
      </trkpt>
      <trkpt lat="45.14091" lon="7.1161">
        <ele>495.7</ele>
        <time>2016-10-05T13:41:16Z</time>
      </trkpt>
      <trkpt lat="45.14096" lon="7.11632">
        <ele>495.22</ele>
        <time>2016-10-05T13:41:20Z</time>
      </trkpt>
      <trkpt lat="45.14098" lon="7.11636">
        <ele>495.22</ele>
        <time>2016-10-05T13:41:21Z</time>
      </trkpt>
      <trkpt lat="45.14099" lon="7.1164">
        <ele>495.22</ele>
        <time>2016-10-05T13:41:22Z</time>
      </trkpt>
      <trkpt lat="45.14099" lon="7.11645">
        <ele>495.22</ele>
        <time>2016-10-05T13:41:23Z</time>
      </trkpt>
      <trkpt lat="45.141" lon="7.1165">
        <ele>495.7</ele>
        <time>2016-10-05T13:41:24Z</time>
      </trkpt>
      <trkpt lat="45.14123" lon="7.11721">
        <ele>493.77</ele>
        <time>2016-10-05T13:41:37Z</time>
      </trkpt>
      <trkpt lat="45.14127" lon="7.11744">
        <ele>493.29</ele>
        <time>2016-10-05T13:41:40Z</time>
      </trkpt>
      <trkpt lat="45.14135" lon="7.11767">
        <ele>492.81</ele>
        <time>2016-10-05T13:41:43Z</time>
      </trkpt>
      <trkpt lat="45.14164" lon="7.11812">
        <ele>490.41</ele>
        <time>2016-10-05T13:41:50Z</time>
      </trkpt>
      <trkpt lat="45.14167" lon="7.11819">
        <ele>490.41</ele>
        <time>2016-10-05T13:41:51Z</time>
      </trkpt>
      <trkpt lat="45.14168" lon="7.11828">
        <ele>489.45</ele>
        <time>2016-10-05T13:41:52Z</time>
      </trkpt>
      <trkpt lat="45.14169" lon="7.11838">
        <ele>489.45</ele>
        <time>2016-10-05T13:41:53Z</time>
      </trkpt>
      <trkpt lat="45.1417" lon="7.11848">
        <ele>488.97</ele>
        <time>2016-10-05T13:41:54Z</time>
      </trkpt>
      <trkpt lat="45.1417" lon="7.11859">
        <ele>487.53</ele>
        <time>2016-10-05T13:41:55Z</time>
      </trkpt>
      <trkpt lat="45.14166" lon="7.11918">
        <ele>482.72</ele>
        <time>2016-10-05T13:42:00Z</time>
      </trkpt>
      <trkpt lat="45.14165" lon="7.11929">
        <ele>483.68</ele>
        <time>2016-10-05T13:42:01Z</time>
      </trkpt>
      <trkpt lat="45.14159" lon="7.11978">
        <ele>480.32</ele>
        <time>2016-10-05T13:42:06Z</time>
      </trkpt>
      <trkpt lat="45.14158" lon="7.11984">
        <ele>480.32</ele>
        <time>2016-10-05T13:42:07Z</time>
      </trkpt>
      <trkpt lat="45.14158" lon="7.1199">
        <ele>480.32</ele>
        <time>2016-10-05T13:42:08Z</time>
      </trkpt>
      <trkpt lat="45.14159" lon="7.11996">
        <ele>480.32</ele>
        <time>2016-10-05T13:42:09Z</time>
      </trkpt>
      <trkpt lat="45.1416" lon="7.1201">
        <ele>479.35</ele>
        <time>2016-10-05T13:42:11Z</time>
      </trkpt>
      <trkpt lat="45.14162" lon="7.12034">
        <ele>478.39</ele>
        <time>2016-10-05T13:42:14Z</time>
      </trkpt>
      <trkpt lat="45.14167" lon="7.12095">
        <ele>475.03</ele>
        <time>2016-10-05T13:42:20Z</time>
      </trkpt>
      <trkpt lat="45.14168" lon="7.12106">
        <ele>475.03</ele>
        <time>2016-10-05T13:42:21Z</time>
      </trkpt>
      <trkpt lat="45.14173" lon="7.12155">
        <ele>472.14</ele>
        <time>2016-10-05T13:42:25Z</time>
      </trkpt>
      <trkpt lat="45.14177" lon="7.12179">
        <ele>470.7</ele>
        <time>2016-10-05T13:42:27Z</time>
      </trkpt>
      <trkpt lat="45.1419" lon="7.1225">
        <ele>467.34</ele>
        <time>2016-10-05T13:42:33Z</time>
      </trkpt>
      <trkpt lat="45.14197" lon="7.1228">
        <ele>465.9</ele>
        <time>2016-10-05T13:42:36Z</time>
      </trkpt>
      <trkpt lat="45.14203" lon="7.12298">
        <ele>465.42</ele>
        <time>2016-10-05T13:42:38Z</time>
      </trkpt>
      <trkpt lat="45.14205" lon="7.12307">
        <ele>464.93</ele>
        <time>2016-10-05T13:42:39Z</time>
      </trkpt>
      <trkpt lat="45.14212" lon="7.12353">
        <ele>463.01</ele>
        <time>2016-10-05T13:42:47Z</time>
      </trkpt>
      <trkpt lat="45.14219" lon="7.12379">
        <ele>462.05</ele>
        <time>2016-10-05T13:42:51Z</time>
      </trkpt>
      <trkpt lat="45.1422" lon="7.12386">
        <ele>461.57</ele>
        <time>2016-10-05T13:42:52Z</time>
      </trkpt>
      <trkpt lat="45.14235" lon="7.12464">
        <ele>460.13</ele>
        <time>2016-10-05T13:43:03Z</time>
      </trkpt>
      <trkpt lat="45.14269" lon="7.12605">
        <ele>460.13</ele>
        <time>2016-10-05T13:43:21Z</time>
      </trkpt>
      <trkpt lat="45.14279" lon="7.12646">
        <ele>460.13</ele>
        <time>2016-10-05T13:43:26Z</time>
      </trkpt>
      <trkpt lat="45.1428" lon="7.12655">
        <ele>459.65</ele>
        <time>2016-10-05T13:43:27Z</time>
      </trkpt>
      <trkpt lat="45.14275" lon="7.12805">
        <ele>456.76</ele>
        <time>2016-10-05T13:43:43Z</time>
      </trkpt>
      <trkpt lat="45.14269" lon="7.12854">
        <ele>457.24</ele>
        <time>2016-10-05T13:43:48Z</time>
      </trkpt>
      <trkpt lat="45.14261" lon="7.12902">
        <ele>457.24</ele>
        <time>2016-10-05T13:43:53Z</time>
      </trkpt>
      <trkpt lat="45.1424" lon="7.13031">
        <ele>457.72</ele>
        <time>2016-10-05T13:44:08Z</time>
      </trkpt>
      <trkpt lat="45.14235" lon="7.13064">
        <ele>455.8</ele>
        <time>2016-10-05T13:44:12Z</time>
      </trkpt>
      <trkpt lat="45.14213" lon="7.13196">
        <ele>457.24</ele>
        <time>2016-10-05T13:44:29Z</time>
      </trkpt>
      <trkpt lat="45.14188" lon="7.13318">
        <ele>458.69</ele>
        <time>2016-10-05T13:44:47Z</time>
      </trkpt>
      <trkpt lat="45.14179" lon="7.13377">
        <ele>460.13</ele>
        <time>2016-10-05T13:44:57Z</time>
      </trkpt>
      <trkpt lat="45.14175" lon="7.13421">
        <ele>459.65</ele>
        <time>2016-10-05T13:45:05Z</time>
      </trkpt>
      <trkpt lat="45.14167" lon="7.13516">
        <ele>462.53</ele>
        <time>2016-10-05T13:45:23Z</time>
      </trkpt>
      <trkpt lat="45.14163" lon="7.1358">
        <ele>464.93</ele>
        <time>2016-10-05T13:45:38Z</time>
      </trkpt>
      <trkpt lat="45.14153" lon="7.13622">
        <ele>465.42</ele>
        <time>2016-10-05T13:45:50Z</time>
      </trkpt>
      <trkpt lat="45.14135" lon="7.13666">
        <ele>466.86</ele>
        <time>2016-10-05T13:46:02Z</time>
      </trkpt>
      <trkpt lat="45.14114" lon="7.13741">
        <ele>464.93</ele>
        <time>2016-10-05T13:46:15Z</time>
      </trkpt>
      <trkpt lat="45.14113" lon="7.13748">
        <ele>465.42</ele>
        <time>2016-10-05T13:46:16Z</time>
      </trkpt>
      <trkpt lat="45.14111" lon="7.13755">
        <ele>464.93</ele>
        <time>2016-10-05T13:46:17Z</time>
      </trkpt>
      <trkpt lat="45.14105" lon="7.13775">
        <ele>465.42</ele>
        <time>2016-10-05T13:46:20Z</time>
      </trkpt>
      <trkpt lat="45.14076" lon="7.13886">
        <ele>463.01</ele>
        <time>2016-10-05T13:46:36Z</time>
      </trkpt>
      <trkpt lat="45.14061" lon="7.13944">
        <ele>459.65</ele>
        <time>2016-10-05T13:46:43Z</time>
      </trkpt>
      <trkpt lat="45.14057" lon="7.1397">
        <ele>459.65</ele>
        <time>2016-10-05T13:46:46Z</time>
      </trkpt>
      <trkpt lat="45.14057" lon="7.14007">
        <ele>459.65</ele>
        <time>2016-10-05T13:46:50Z</time>
      </trkpt>
      <trkpt lat="45.14058" lon="7.14015">
        <ele>459.65</ele>
        <time>2016-10-05T13:46:51Z</time>
      </trkpt>
      <trkpt lat="45.14062" lon="7.14127">
        <ele>457.72</ele>
        <time>2016-10-05T13:47:04Z</time>
      </trkpt>
      <trkpt lat="45.14061" lon="7.14164">
        <ele>458.21</ele>
        <time>2016-10-05T13:47:09Z</time>
      </trkpt>
      <trkpt lat="45.14059" lon="7.1417">
        <ele>458.21</ele>
        <time>2016-10-05T13:47:10Z</time>
      </trkpt>
      <trkpt lat="45.14055" lon="7.14179">
        <ele>458.21</ele>
        <time>2016-10-05T13:47:12Z</time>
      </trkpt>
      <trkpt lat="45.14043" lon="7.14191">
        <ele>456.76</ele>
        <time>2016-10-05T13:47:15Z</time>
      </trkpt>
      <trkpt lat="45.14039" lon="7.14195">
        <ele>456.76</ele>
        <time>2016-10-05T13:47:16Z</time>
      </trkpt>
      <trkpt lat="45.1403" lon="7.14201">
        <ele>455.32</ele>
        <time>2016-10-05T13:47:18Z</time>
      </trkpt>
      <trkpt lat="45.14022" lon="7.14207">
        <ele>454.84</ele>
        <time>2016-10-05T13:47:20Z</time>
      </trkpt>
      <trkpt lat="45.14017" lon="7.14209">
        <ele>453.4</ele>
        <time>2016-10-05T13:47:21Z</time>
      </trkpt>
      <trkpt lat="45.14012" lon="7.14212">
        <ele>453.88</ele>
        <time>2016-10-05T13:47:22Z</time>
      </trkpt>
      <trkpt lat="45.13977" lon="7.14237">
        <ele>452.44</ele>
        <time>2016-10-05T13:47:30Z</time>
      </trkpt>
      <trkpt lat="45.13976" lon="7.14243">
        <ele>452.44</ele>
        <time>2016-10-05T13:47:31Z</time>
      </trkpt>
      <trkpt lat="45.13974" lon="7.14249">
        <ele>451.96</ele>
        <time>2016-10-05T13:47:32Z</time>
      </trkpt>
      <trkpt lat="45.1397" lon="7.14271">
        <ele>450.52</ele>
        <time>2016-10-05T13:47:35Z</time>
      </trkpt>
      <trkpt lat="45.13973" lon="7.14331">
        <ele>450.03</ele>
        <time>2016-10-05T13:47:45Z</time>
      </trkpt>
      <trkpt lat="45.1398" lon="7.14368">
        <ele>449.55</ele>
        <time>2016-10-05T13:47:51Z</time>
      </trkpt>
      <trkpt lat="45.13996" lon="7.14456">
        <ele>449.55</ele>
        <time>2016-10-05T13:48:05Z</time>
      </trkpt>
      <trkpt lat="45.13996" lon="7.14462">
        <ele>450.03</ele>
        <time>2016-10-05T13:48:06Z</time>
      </trkpt>
      <trkpt lat="45.14002" lon="7.14537">
        <ele>449.07</ele>
        <time>2016-10-05T13:48:19Z</time>
      </trkpt>
      <trkpt lat="45.14001" lon="7.14559">
        <ele>448.59</ele>
        <time>2016-10-05T13:48:22Z</time>
      </trkpt>
      <trkpt lat="45.13995" lon="7.14622">
        <ele>447.15</ele>
        <time>2016-10-05T13:48:30Z</time>
      </trkpt>
      <trkpt lat="45.13995" lon="7.14629">
        <ele>448.11</ele>
        <time>2016-10-05T13:48:31Z</time>
      </trkpt>
      <trkpt lat="45.14007" lon="7.14735">
        <ele>446.67</ele>
        <time>2016-10-05T13:48:45Z</time>
      </trkpt>
      <trkpt lat="45.14012" lon="7.14777">
        <ele>445.71</ele>
        <time>2016-10-05T13:48:50Z</time>
      </trkpt>
      <trkpt lat="45.14013" lon="7.14786">
        <ele>445.71</ele>
        <time>2016-10-05T13:48:51Z</time>
      </trkpt>
      <trkpt lat="45.1402" lon="7.14937">
        <ele>443.31</ele>
        <time>2016-10-05T13:49:07Z</time>
      </trkpt>
      <trkpt lat="45.14018" lon="7.15012">
        <ele>441.38</ele>
        <time>2016-10-05T13:49:15Z</time>
      </trkpt>
      <trkpt lat="45.14018" lon="7.15055">
        <ele>438.02</ele>
        <time>2016-10-05T13:49:20Z</time>
      </trkpt>
      <trkpt lat="45.14019" lon="7.15063">
        <ele>438.02</ele>
        <time>2016-10-05T13:49:21Z</time>
      </trkpt>
      <trkpt lat="45.14022" lon="7.15076">
        <ele>439.46</ele>
        <time>2016-10-05T13:49:23Z</time>
      </trkpt>
      <trkpt lat="45.14023" lon="7.15081">
        <ele>439.46</ele>
        <time>2016-10-05T13:49:24Z</time>
      </trkpt>
      <trkpt lat="45.1402" lon="7.15149">
        <ele>440.9</ele>
        <time>2016-10-05T13:49:36Z</time>
      </trkpt>
      <trkpt lat="45.1402" lon="7.15155">
        <ele>440.9</ele>
        <time>2016-10-05T13:49:37Z</time>
      </trkpt>
      <trkpt lat="45.14019" lon="7.15174">
        <ele>439.94</ele>
        <time>2016-10-05T13:49:40Z</time>
      </trkpt>
      <trkpt lat="45.14014" lon="7.15289">
        <ele>438.98</ele>
        <time>2016-10-05T13:49:57Z</time>
      </trkpt>
      <trkpt lat="45.14014" lon="7.15408">
        <ele>440.42</ele>
        <time>2016-10-05T13:50:15Z</time>
      </trkpt>
      <trkpt lat="45.14028" lon="7.15504">
        <ele>439.94</ele>
        <time>2016-10-05T13:50:29Z</time>
      </trkpt>
      <trkpt lat="45.14035" lon="7.15547">
        <ele>441.38</ele>
        <time>2016-10-05T13:50:35Z</time>
      </trkpt>
      <trkpt lat="45.14061" lon="7.15682">
        <ele>440.9</ele>
        <time>2016-10-05T13:50:54Z</time>
      </trkpt>
      <trkpt lat="45.14071" lon="7.15774">
        <ele>441.86</ele>
        <time>2016-10-05T13:51:07Z</time>
      </trkpt>
      <trkpt lat="45.14079" lon="7.15848">
        <ele>441.86</ele>
        <time>2016-10-05T13:51:18Z</time>
      </trkpt>
      <trkpt lat="45.1408" lon="7.15854">
        <ele>441.86</ele>
        <time>2016-10-05T13:51:19Z</time>
      </trkpt>
      <trkpt lat="45.14082" lon="7.15859">
        <ele>442.82</ele>
        <time>2016-10-05T13:51:20Z</time>
      </trkpt>
      <trkpt lat="45.14096" lon="7.15937">
        <ele>444.75</ele>
        <time>2016-10-05T13:51:36Z</time>
      </trkpt>
      <trkpt lat="45.14101" lon="7.15984">
        <ele>447.15</ele>
        <time>2016-10-05T13:51:50Z</time>
      </trkpt>
      <trkpt lat="45.14106" lon="7.16024">
        <ele>448.59</ele>
        <time>2016-10-05T13:52:05Z</time>
      </trkpt>
      <trkpt lat="45.14109" lon="7.16066">
        <ele>450.03</ele>
        <time>2016-10-05T13:52:21Z</time>
      </trkpt>
      <trkpt lat="45.14117" lon="7.16112">
        <ele>451.48</ele>
        <time>2016-10-05T13:52:35Z</time>
      </trkpt>
      <trkpt lat="45.14125" lon="7.16184">
        <ele>453.4</ele>
        <time>2016-10-05T13:52:55Z</time>
      </trkpt>
      <trkpt lat="45.14127" lon="7.16229">
        <ele>455.32</ele>
        <time>2016-10-05T13:53:09Z</time>
      </trkpt>
      <trkpt lat="45.14132" lon="7.16274">
        <ele>456.28</ele>
        <time>2016-10-05T13:53:23Z</time>
      </trkpt>
      <trkpt lat="45.1414" lon="7.16321">
        <ele>458.69</ele>
        <time>2016-10-05T13:53:38Z</time>
      </trkpt>
      <trkpt lat="45.14146" lon="7.16373">
        <ele>460.61</ele>
        <time>2016-10-05T13:53:56Z</time>
      </trkpt>
      <trkpt lat="45.14148" lon="7.16429">
        <ele>463.49</ele>
        <time>2016-10-05T13:54:15Z</time>
      </trkpt>
      <trkpt lat="45.14146" lon="7.1648">
        <ele>464.93</ele>
        <time>2016-10-05T13:54:33Z</time>
      </trkpt>
      <trkpt lat="45.14143" lon="7.16529">
        <ele>466.38</ele>
        <time>2016-10-05T13:54:49Z</time>
      </trkpt>
      <trkpt lat="45.14142" lon="7.16586">
        <ele>468.3</ele>
        <time>2016-10-05T13:55:08Z</time>
      </trkpt>
      <trkpt lat="45.1414" lon="7.16612">
        <ele>469.26</ele>
        <time>2016-10-05T13:55:24Z</time>
      </trkpt>
      <trkpt lat="45.14144" lon="7.16639">
        <ele>469.74</ele>
        <time>2016-10-05T13:55:35Z</time>
      </trkpt>
      <trkpt lat="45.14149" lon="7.16672">
        <ele>472.63</ele>
        <time>2016-10-05T13:55:49Z</time>
      </trkpt>
      <trkpt lat="45.14157" lon="7.16714">
        <ele>475.99</ele>
        <time>2016-10-05T13:56:09Z</time>
      </trkpt>
      <trkpt lat="45.14164" lon="7.16733">
        <ele>476.95</ele>
        <time>2016-10-05T13:56:21Z</time>
      </trkpt>
      <trkpt lat="45.14164" lon="7.16735">
        <ele>476.95</ele>
        <time>2016-10-05T13:56:22Z</time>
      </trkpt>
      <trkpt lat="45.14163" lon="7.16737">
        <ele>477.43</ele>
        <time>2016-10-05T13:56:23Z</time>
      </trkpt>
      <trkpt lat="45.14162" lon="7.16739">
        <ele>476.95</ele>
        <time>2016-10-05T13:56:24Z</time>
      </trkpt>
      <trkpt lat="45.14162" lon="7.1674">
        <ele>477.43</ele>
        <time>2016-10-05T13:56:25Z</time>
      </trkpt>
      <trkpt lat="45.1416" lon="7.16744">
        <ele>478.39</ele>
        <time>2016-10-05T13:56:27Z</time>
      </trkpt>
      <trkpt lat="45.14159" lon="7.16754">
        <ele>476.95</ele>
        <time>2016-10-05T13:56:30Z</time>
      </trkpt>
      <trkpt lat="45.14155" lon="7.16805">
        <ele>475.99</ele>
        <time>2016-10-05T13:56:39Z</time>
      </trkpt>
      <trkpt lat="45.14154" lon="7.1681">
        <ele>475.99</ele>
        <time>2016-10-05T13:56:40Z</time>
      </trkpt>
      <trkpt lat="45.14148" lon="7.16889">
        <ele>476.47</ele>
        <time>2016-10-05T13:56:56Z</time>
      </trkpt>
      <trkpt lat="45.14149" lon="7.16952">
        <ele>478.39</ele>
        <time>2016-10-05T13:57:11Z</time>
      </trkpt>
      <trkpt lat="45.14142" lon="7.17024">
        <ele>476.47</ele>
        <time>2016-10-05T13:57:21Z</time>
      </trkpt>
      <trkpt lat="45.14137" lon="7.17039">
        <ele>475.03</ele>
        <time>2016-10-05T13:57:23Z</time>
      </trkpt>
      <trkpt lat="45.14135" lon="7.17047">
        <ele>475.03</ele>
        <time>2016-10-05T13:57:24Z</time>
      </trkpt>
      <trkpt lat="45.14135" lon="7.17057">
        <ele>474.07</ele>
        <time>2016-10-05T13:57:25Z</time>
      </trkpt>
      <trkpt lat="45.14135" lon="7.17066">
        <ele>473.59</ele>
        <time>2016-10-05T13:57:26Z</time>
      </trkpt>
      <trkpt lat="45.14136" lon="7.17075">
        <ele>473.11</ele>
        <time>2016-10-05T13:57:27Z</time>
      </trkpt>
      <trkpt lat="45.14138" lon="7.17085">
        <ele>473.11</ele>
        <time>2016-10-05T13:57:28Z</time>
      </trkpt>
      <trkpt lat="45.14151" lon="7.17173">
        <ele>472.14</ele>
        <time>2016-10-05T13:57:37Z</time>
      </trkpt>
      <trkpt lat="45.14151" lon="7.17183">
        <ele>472.63</ele>
        <time>2016-10-05T13:57:38Z</time>
      </trkpt>
      <trkpt lat="45.14151" lon="7.17192">
        <ele>472.14</ele>
        <time>2016-10-05T13:57:39Z</time>
      </trkpt>
      <trkpt lat="45.1415" lon="7.17201">
        <ele>472.14</ele>
        <time>2016-10-05T13:57:40Z</time>
      </trkpt>
      <trkpt lat="45.14149" lon="7.1721">
        <ele>472.14</ele>
        <time>2016-10-05T13:57:41Z</time>
      </trkpt>
      <trkpt lat="45.14146" lon="7.17237">
        <ele>471.66</ele>
        <time>2016-10-05T13:57:44Z</time>
      </trkpt>
      <trkpt lat="45.14143" lon="7.17246">
        <ele>471.66</ele>
        <time>2016-10-05T13:57:45Z</time>
      </trkpt>
      <trkpt lat="45.14133" lon="7.17295">
        <ele>470.7</ele>
        <time>2016-10-05T13:57:50Z</time>
      </trkpt>
      <trkpt lat="45.14132" lon="7.17305">
        <ele>470.7</ele>
        <time>2016-10-05T13:57:51Z</time>
      </trkpt>
      <trkpt lat="45.14133" lon="7.17359">
        <ele>467.34</ele>
        <time>2016-10-05T13:57:56Z</time>
      </trkpt>
      <trkpt lat="45.14133" lon="7.17371">
        <ele>467.34</ele>
        <time>2016-10-05T13:57:57Z</time>
      </trkpt>
      <trkpt lat="45.14141" lon="7.17495">
        <ele>463.97</ele>
        <time>2016-10-05T13:58:07Z</time>
      </trkpt>
      <trkpt lat="45.14139" lon="7.17591">
        <ele>460.61</ele>
        <time>2016-10-05T13:58:15Z</time>
      </trkpt>
      <trkpt lat="45.14141" lon="7.17665">
        <ele>458.21</ele>
        <time>2016-10-05T13:58:24Z</time>
      </trkpt>
      <trkpt lat="45.14144" lon="7.17755">
        <ele>455.32</ele>
        <time>2016-10-05T13:58:33Z</time>
      </trkpt>
      <trkpt lat="45.14144" lon="7.1779">
        <ele>453.88</ele>
        <time>2016-10-05T13:58:36Z</time>
      </trkpt>
      <trkpt lat="45.14146" lon="7.17881">
        <ele>451</ele>
        <time>2016-10-05T13:58:43Z</time>
      </trkpt>
      <trkpt lat="45.14148" lon="7.18011">
        <ele>449.07</ele>
        <time>2016-10-05T13:58:55Z</time>
      </trkpt>
      <trkpt lat="45.1415" lon="7.18102">
        <ele>447.15</ele>
        <time>2016-10-05T13:59:04Z</time>
      </trkpt>
      <trkpt lat="45.14153" lon="7.18185">
        <ele>443.31</ele>
        <time>2016-10-05T13:59:11Z</time>
      </trkpt>
      <trkpt lat="45.14153" lon="7.18197">
        <ele>443.31</ele>
        <time>2016-10-05T13:59:12Z</time>
      </trkpt>
      <trkpt lat="45.14154" lon="7.18325">
        <ele>439.94</ele>
        <time>2016-10-05T13:59:22Z</time>
      </trkpt>
      <trkpt lat="45.14154" lon="7.18417">
        <ele>442.34</ele>
        <time>2016-10-05T13:59:31Z</time>
      </trkpt>
      <trkpt lat="45.14153" lon="7.18451">
        <ele>442.82</ele>
        <time>2016-10-05T13:59:39Z</time>
      </trkpt>
      <trkpt lat="45.1415" lon="7.18451">
        <ele>443.31</ele>
        <time>2016-10-05T14:00:02Z</time>
      </trkpt>
      <trkpt lat="45.14151" lon="7.18451">
        <ele>442.82</ele>
        <time>2016-10-05T14:00:36Z</time>
      </trkpt>
      <trkpt lat="45.14152" lon="7.1845">
        <ele>441.86</ele>
        <time>2016-10-05T14:01:23Z</time>
      </trkpt>
      <trkpt lat="45.14152" lon="7.18451">
        <ele>441.86</ele>
        <time>2016-10-05T14:02:00Z</time>
      </trkpt>
      <trkpt lat="45.14153" lon="7.1845">
        <ele>441.86</ele>
        <time>2016-10-05T14:02:36Z</time>
      </trkpt>
      <trkpt lat="45.14154" lon="7.18451">
        <ele>441.86</ele>
        <time>2016-10-05T14:03:16Z</time>
      </trkpt>
      <trkpt lat="45.14156" lon="7.1845">
        <ele>442.34</ele>
        <time>2016-10-05T14:03:49Z</time>
      </trkpt>
      <trkpt lat="45.14156" lon="7.1845">
        <ele>441.86</ele>
        <time>2016-10-05T14:04:14Z</time>
      </trkpt>
      <trkpt lat="45.14156" lon="7.1845">
        <ele>442.34</ele>
        <time>2016-10-05T14:04:55Z</time>
      </trkpt>
      <trkpt lat="45.14155" lon="7.18452">
        <ele>442.34</ele>
        <time>2016-10-05T14:05:31Z</time>
      </trkpt>
      <trkpt lat="45.14154" lon="7.1845">
        <ele>442.34</ele>
        <time>2016-10-05T14:06:01Z</time>
      </trkpt>
      <trkpt lat="45.14153" lon="7.18449">
        <ele>442.34</ele>
        <time>2016-10-05T14:06:25Z</time>
      </trkpt>
      <trkpt lat="45.14153" lon="7.18451">
        <ele>441.86</ele>
        <time>2016-10-05T14:06:38Z</time>
      </trkpt>
      <trkpt lat="45.14154" lon="7.18453">
        <ele>441.86</ele>
        <time>2016-10-05T14:06:39Z</time>
      </trkpt>
      <trkpt lat="45.14154" lon="7.18455">
        <ele>441.86</ele>
        <time>2016-10-05T14:06:40Z</time>
      </trkpt>
      <trkpt lat="45.14154" lon="7.18458">
        <ele>442.34</ele>
        <time>2016-10-05T14:06:41Z</time>
      </trkpt>
      <trkpt lat="45.14155" lon="7.18461">
        <ele>441.86</ele>
        <time>2016-10-05T14:06:42Z</time>
      </trkpt>
      <trkpt lat="45.14155" lon="7.18522">
        <ele>441.86</ele>
        <time>2016-10-05T14:06:56Z</time>
      </trkpt>
      <trkpt lat="45.14153" lon="7.18592">
        <ele>443.79</ele>
        <time>2016-10-05T14:07:11Z</time>
      </trkpt>
      <trkpt lat="45.14154" lon="7.18658">
        <ele>445.23</ele>
        <time>2016-10-05T14:07:27Z</time>
      </trkpt>
      <trkpt lat="45.14144" lon="7.1873">
        <ele>445.71</ele>
        <time>2016-10-05T14:07:40Z</time>
      </trkpt>
      <trkpt lat="45.14133" lon="7.18804">
        <ele>446.67</ele>
        <time>2016-10-05T14:07:54Z</time>
      </trkpt>
      <trkpt lat="45.14135" lon="7.18906">
        <ele>447.15</ele>
        <time>2016-10-05T14:08:11Z</time>
      </trkpt>
      <trkpt lat="45.14148" lon="7.18952">
        <ele>448.59</ele>
        <time>2016-10-05T14:08:22Z</time>
      </trkpt>
      <trkpt lat="45.14165" lon="7.18974">
        <ele>450.52</ele>
        <time>2016-10-05T14:08:33Z</time>
      </trkpt>
      <trkpt lat="45.14175" lon="7.19011">
        <ele>451.96</ele>
        <time>2016-10-05T14:08:48Z</time>
      </trkpt>
      <trkpt lat="45.14173" lon="7.19042">
        <ele>452.92</ele>
        <time>2016-10-05T14:08:58Z</time>
      </trkpt>
      <trkpt lat="45.14174" lon="7.19093">
        <ele>452.92</ele>
        <time>2016-10-05T14:09:11Z</time>
      </trkpt>
      <trkpt lat="45.14166" lon="7.19147">
        <ele>451.96</ele>
        <time>2016-10-05T14:09:22Z</time>
      </trkpt>
      <trkpt lat="45.1412" lon="7.19221">
        <ele>449.07</ele>
        <time>2016-10-05T14:09:35Z</time>
      </trkpt>
      <trkpt lat="45.14117" lon="7.19226">
        <ele>449.55</ele>
        <time>2016-10-05T14:09:36Z</time>
      </trkpt>
      <trkpt lat="45.14114" lon="7.19232">
        <ele>449.07</ele>
        <time>2016-10-05T14:09:37Z</time>
      </trkpt>
      <trkpt lat="45.14112" lon="7.19238">
        <ele>448.59</ele>
        <time>2016-10-05T14:09:38Z</time>
      </trkpt>
      <trkpt lat="45.14109" lon="7.19244">
        <ele>448.11</ele>
        <time>2016-10-05T14:09:39Z</time>
      </trkpt>
      <trkpt lat="45.14105" lon="7.19251">
        <ele>447.63</ele>
        <time>2016-10-05T14:09:40Z</time>
      </trkpt>
      <trkpt lat="45.14092" lon="7.1927">
        <ele>447.63</ele>
        <time>2016-10-05T14:09:43Z</time>
      </trkpt>
      <trkpt lat="45.14088" lon="7.19278">
        <ele>447.15</ele>
        <time>2016-10-05T14:09:44Z</time>
      </trkpt>
      <trkpt lat="45.14086" lon="7.19287">
        <ele>445.71</ele>
        <time>2016-10-05T14:09:45Z</time>
      </trkpt>
      <trkpt lat="45.14085" lon="7.19296">
        <ele>446.19</ele>
        <time>2016-10-05T14:09:46Z</time>
      </trkpt>
      <trkpt lat="45.14084" lon="7.19305">
        <ele>446.19</ele>
        <time>2016-10-05T14:09:47Z</time>
      </trkpt>
      <trkpt lat="45.14082" lon="7.19385">
        <ele>447.15</ele>
        <time>2016-10-05T14:09:57Z</time>
      </trkpt>
      <trkpt lat="45.14082" lon="7.19393">
        <ele>447.63</ele>
        <time>2016-10-05T14:09:58Z</time>
      </trkpt>
      <trkpt lat="45.14085" lon="7.1947">
        <ele>443.31</ele>
        <time>2016-10-05T14:10:07Z</time>
      </trkpt>
      <trkpt lat="45.14085" lon="7.19478">
        <ele>443.79</ele>
        <time>2016-10-05T14:10:08Z</time>
      </trkpt>
      <trkpt lat="45.1409" lon="7.1952">
        <ele>443.79</ele>
        <time>2016-10-05T14:10:13Z</time>
      </trkpt>
      <trkpt lat="45.14091" lon="7.19537">
        <ele>445.23</ele>
        <time>2016-10-05T14:10:15Z</time>
      </trkpt>
      <trkpt lat="45.14091" lon="7.19561">
        <ele>445.71</ele>
        <time>2016-10-05T14:10:18Z</time>
      </trkpt>
      <trkpt lat="45.14096" lon="7.19659">
        <ele>443.79</ele>
        <time>2016-10-05T14:10:30Z</time>
      </trkpt>
      <trkpt lat="45.14096" lon="7.19676">
        <ele>443.31</ele>
        <time>2016-10-05T14:10:32Z</time>
      </trkpt>
      <trkpt lat="45.14091" lon="7.19699">
        <ele>442.34</ele>
        <time>2016-10-05T14:10:36Z</time>
      </trkpt>
      <trkpt lat="45.14089" lon="7.19702">
        <ele>441.86</ele>
        <time>2016-10-05T14:10:37Z</time>
      </trkpt>
      <trkpt lat="45.14085" lon="7.19704">
        <ele>441.38</ele>
        <time>2016-10-05T14:10:38Z</time>
      </trkpt>
      <trkpt lat="45.14081" lon="7.19705">
        <ele>441.38</ele>
        <time>2016-10-05T14:10:39Z</time>
      </trkpt>
      <trkpt lat="45.14076" lon="7.19705">
        <ele>440.42</ele>
        <time>2016-10-05T14:10:40Z</time>
      </trkpt>
      <trkpt lat="45.14071" lon="7.19705">
        <ele>440.9</ele>
        <time>2016-10-05T14:10:41Z</time>
      </trkpt>
      <trkpt lat="45.14029" lon="7.19708">
        <ele>437.06</ele>
        <time>2016-10-05T14:10:48Z</time>
      </trkpt>
      <trkpt lat="45.14023" lon="7.19711">
        <ele>437.06</ele>
        <time>2016-10-05T14:10:49Z</time>
      </trkpt>
      <trkpt lat="45.13985" lon="7.19731">
        <ele>433.69</ele>
        <time>2016-10-05T14:10:56Z</time>
      </trkpt>
      <trkpt lat="45.13936" lon="7.1976">
        <ele>430.81</ele>
        <time>2016-10-05T14:11:04Z</time>
      </trkpt>
      <trkpt lat="45.13906" lon="7.19775">
        <ele>427.44</ele>
        <time>2016-10-05T14:11:08Z</time>
      </trkpt>
      <trkpt lat="45.13899" lon="7.19778">
        <ele>427.44</ele>
        <time>2016-10-05T14:11:09Z</time>
      </trkpt>
      <trkpt lat="45.13876" lon="7.19786">
        <ele>424.56</ele>
        <time>2016-10-05T14:11:12Z</time>
      </trkpt>
      <trkpt lat="45.13862" lon="7.1979">
        <ele>423.6</ele>
        <time>2016-10-05T14:11:14Z</time>
      </trkpt>
      <trkpt lat="45.13856" lon="7.1979">
        <ele>425.04</ele>
        <time>2016-10-05T14:11:15Z</time>
      </trkpt>
      <trkpt lat="45.13852" lon="7.19791">
        <ele>425.04</ele>
        <time>2016-10-05T14:11:16Z</time>
      </trkpt>
      <trkpt lat="45.13833" lon="7.19797">
        <ele>426.96</ele>
        <time>2016-10-05T14:11:22Z</time>
      </trkpt>
      <trkpt lat="45.1382" lon="7.198">
        <ele>426</ele>
        <time>2016-10-05T14:11:25Z</time>
      </trkpt>
      <trkpt lat="45.138" lon="7.19808">
        <ele>424.08</ele>
        <time>2016-10-05T14:11:29Z</time>
      </trkpt>
      <trkpt lat="45.13782" lon="7.19814">
        <ele>424.56</ele>
        <time>2016-10-05T14:11:32Z</time>
      </trkpt>
      <trkpt lat="45.13746" lon="7.19829">
        <ele>422.16</ele>
        <time>2016-10-05T14:11:38Z</time>
      </trkpt>
      <trkpt lat="45.13732" lon="7.19836">
        <ele>421.19</ele>
        <time>2016-10-05T14:11:41Z</time>
      </trkpt>
      <trkpt lat="45.13728" lon="7.1984">
        <ele>421.19</ele>
        <time>2016-10-05T14:11:42Z</time>
      </trkpt>
      <trkpt lat="45.13727" lon="7.19845">
        <ele>420.23</ele>
        <time>2016-10-05T14:11:43Z</time>
      </trkpt>
      <trkpt lat="45.13728" lon="7.19852">
        <ele>420.23</ele>
        <time>2016-10-05T14:11:44Z</time>
      </trkpt>
      <trkpt lat="45.1373" lon="7.19859">
        <ele>420.71</ele>
        <time>2016-10-05T14:11:45Z</time>
      </trkpt>
      <trkpt lat="45.13731" lon="7.19866">
        <ele>420.71</ele>
        <time>2016-10-05T14:11:46Z</time>
      </trkpt>
      <trkpt lat="45.13733" lon="7.19874">
        <ele>420.23</ele>
        <time>2016-10-05T14:11:47Z</time>
      </trkpt>
      <trkpt lat="45.13735" lon="7.19882">
        <ele>420.23</ele>
        <time>2016-10-05T14:11:48Z</time>
      </trkpt>
      <trkpt lat="45.13774" lon="7.20004">
        <ele>419.75</ele>
        <time>2016-10-05T14:12:03Z</time>
      </trkpt>
      <trkpt lat="45.13827" lon="7.2016">
        <ele>418.31</ele>
        <time>2016-10-05T14:12:25Z</time>
      </trkpt>
      <trkpt lat="45.13858" lon="7.20287">
        <ele>418.79</ele>
        <time>2016-10-05T14:12:41Z</time>
      </trkpt>
      <trkpt lat="45.1387" lon="7.20348">
        <ele>418.79</ele>
        <time>2016-10-05T14:12:48Z</time>
      </trkpt>
      <trkpt lat="45.13893" lon="7.2042">
        <ele>415.91</ele>
        <time>2016-10-05T14:12:57Z</time>
      </trkpt>
      <trkpt lat="45.13898" lon="7.20443">
        <ele>418.31</ele>
        <time>2016-10-05T14:13:00Z</time>
      </trkpt>
      <trkpt lat="45.13898" lon="7.20451">
        <ele>417.35</ele>
        <time>2016-10-05T14:13:01Z</time>
      </trkpt>
      <trkpt lat="45.13898" lon="7.20459">
        <ele>416.39</ele>
        <time>2016-10-05T14:13:02Z</time>
      </trkpt>
      <trkpt lat="45.13897" lon="7.20467">
        <ele>416.87</ele>
        <time>2016-10-05T14:13:03Z</time>
      </trkpt>
      <trkpt lat="45.13895" lon="7.20474">
        <ele>417.35</ele>
        <time>2016-10-05T14:13:04Z</time>
      </trkpt>
      <trkpt lat="45.13888" lon="7.20498">
        <ele>418.31</ele>
        <time>2016-10-05T14:13:08Z</time>
      </trkpt>
      <trkpt lat="45.13876" lon="7.20542">
        <ele>419.27</ele>
        <time>2016-10-05T14:13:15Z</time>
      </trkpt>
      <trkpt lat="45.13862" lon="7.20591">
        <ele>420.23</ele>
        <time>2016-10-05T14:13:23Z</time>
      </trkpt>
      <trkpt lat="45.13859" lon="7.20597">
        <ele>419.75</ele>
        <time>2016-10-05T14:13:24Z</time>
      </trkpt>
      <trkpt lat="45.13857" lon="7.20601">
        <ele>420.23</ele>
        <time>2016-10-05T14:13:25Z</time>
      </trkpt>
      <trkpt lat="45.13834" lon="7.20636">
        <ele>423.12</ele>
        <time>2016-10-05T14:13:36Z</time>
      </trkpt>
      <trkpt lat="45.13801" lon="7.20676">
        <ele>424.56</ele>
        <time>2016-10-05T14:13:51Z</time>
      </trkpt>
      <trkpt lat="45.13779" lon="7.20703">
        <ele>425.04</ele>
        <time>2016-10-05T14:14:00Z</time>
      </trkpt>
      <trkpt lat="45.13775" lon="7.20707">
        <ele>425.04</ele>
        <time>2016-10-05T14:14:01Z</time>
      </trkpt>
      <trkpt lat="45.13772" lon="7.20711">
        <ele>425.04</ele>
        <time>2016-10-05T14:14:02Z</time>
      </trkpt>
      <trkpt lat="45.13768" lon="7.20715">
        <ele>425.04</ele>
        <time>2016-10-05T14:14:03Z</time>
      </trkpt>
      <trkpt lat="45.13765" lon="7.20721">
        <ele>423.6</ele>
        <time>2016-10-05T14:14:04Z</time>
      </trkpt>
      <trkpt lat="45.13762" lon="7.20727">
        <ele>423.6</ele>
        <time>2016-10-05T14:14:05Z</time>
      </trkpt>
      <trkpt lat="45.13757" lon="7.2074">
        <ele>423.6</ele>
        <time>2016-10-05T14:14:07Z</time>
      </trkpt>
      <trkpt lat="45.13729" lon="7.2085">
        <ele>422.16</ele>
        <time>2016-10-05T14:14:22Z</time>
      </trkpt>
      <trkpt lat="45.13724" lon="7.20874">
        <ele>422.64</ele>
        <time>2016-10-05T14:14:25Z</time>
      </trkpt>
      <trkpt lat="45.13723" lon="7.20882">
        <ele>422.16</ele>
        <time>2016-10-05T14:14:26Z</time>
      </trkpt>
      <trkpt lat="45.1372" lon="7.20897">
        <ele>423.12</ele>
        <time>2016-10-05T14:14:28Z</time>
      </trkpt>
      <trkpt lat="45.13715" lon="7.20911">
        <ele>423.6</ele>
        <time>2016-10-05T14:14:30Z</time>
      </trkpt>
      <trkpt lat="45.13714" lon="7.20918">
        <ele>423.12</ele>
        <time>2016-10-05T14:14:31Z</time>
      </trkpt>
      <trkpt lat="45.13684" lon="7.20989">
        <ele>425.04</ele>
        <time>2016-10-05T14:14:44Z</time>
      </trkpt>
      <trkpt lat="45.13662" lon="7.2102">
        <ele>426</ele>
        <time>2016-10-05T14:14:55Z</time>
      </trkpt>
      <trkpt lat="45.13644" lon="7.21048">
        <ele>429.85</ele>
        <time>2016-10-05T14:15:07Z</time>
      </trkpt>
      <trkpt lat="45.1362" lon="7.21077">
        <ele>431.77</ele>
        <time>2016-10-05T14:15:21Z</time>
      </trkpt>
      <trkpt lat="45.13586" lon="7.21107">
        <ele>431.77</ele>
        <time>2016-10-05T14:15:38Z</time>
      </trkpt>
      <trkpt lat="45.13577" lon="7.21117">
        <ele>431.77</ele>
        <time>2016-10-05T14:15:46Z</time>
      </trkpt>
      <trkpt lat="45.13576" lon="7.21118">
        <ele>431.29</ele>
        <time>2016-10-05T14:15:47Z</time>
      </trkpt>
      <trkpt lat="45.13575" lon="7.2112">
        <ele>431.29</ele>
        <time>2016-10-05T14:15:48Z</time>
      </trkpt>
      <trkpt lat="45.13574" lon="7.21122">
        <ele>431.29</ele>
        <time>2016-10-05T14:15:49Z</time>
      </trkpt>
      <trkpt lat="45.13573" lon="7.21126">
        <ele>431.77</ele>
        <time>2016-10-05T14:15:50Z</time>
      </trkpt>
      <trkpt lat="45.13572" lon="7.2113">
        <ele>431.29</ele>
        <time>2016-10-05T14:15:51Z</time>
      </trkpt>
      <trkpt lat="45.13572" lon="7.21134">
        <ele>432.25</ele>
        <time>2016-10-05T14:15:52Z</time>
      </trkpt>
      <trkpt lat="45.13571" lon="7.21138">
        <ele>432.25</ele>
        <time>2016-10-05T14:15:53Z</time>
      </trkpt>
      <trkpt lat="45.13572" lon="7.21184">
        <ele>434.65</ele>
        <time>2016-10-05T14:16:06Z</time>
      </trkpt>
      <trkpt lat="45.13555" lon="7.21233">
        <ele>436.58</ele>
        <time>2016-10-05T14:16:21Z</time>
      </trkpt>
      <trkpt lat="45.13552" lon="7.21249">
        <ele>437.06</ele>
        <time>2016-10-05T14:16:25Z</time>
      </trkpt>
      <trkpt lat="45.13546" lon="7.21314">
        <ele>438.02</ele>
        <time>2016-10-05T14:16:40Z</time>
      </trkpt>
      <trkpt lat="45.13538" lon="7.21377">
        <ele>437.54</ele>
        <time>2016-10-05T14:16:53Z</time>
      </trkpt>
      <trkpt lat="45.13525" lon="7.21453">
        <ele>435.61</ele>
        <time>2016-10-05T14:17:05Z</time>
      </trkpt>
      <trkpt lat="45.1352" lon="7.21527">
        <ele>434.65</ele>
        <time>2016-10-05T14:17:19Z</time>
      </trkpt>
      <trkpt lat="45.13517" lon="7.21531">
        <ele>434.65</ele>
        <time>2016-10-05T14:17:21Z</time>
      </trkpt>
      <trkpt lat="45.13514" lon="7.2153">
        <ele>434.17</ele>
        <time>2016-10-05T14:17:22Z</time>
      </trkpt>
      <trkpt lat="45.13511" lon="7.21529">
        <ele>433.69</ele>
        <time>2016-10-05T14:17:23Z</time>
      </trkpt>
      <trkpt lat="45.13497" lon="7.21524">
        <ele>431.77</ele>
        <time>2016-10-05T14:17:27Z</time>
      </trkpt>
      <trkpt lat="45.13473" lon="7.21525">
        <ele>428.4</ele>
        <time>2016-10-05T14:17:34Z</time>
      </trkpt>
      <trkpt lat="45.13462" lon="7.2153">
        <ele>427.44</ele>
        <time>2016-10-05T14:17:37Z</time>
      </trkpt>
      <trkpt lat="45.13449" lon="7.21543">
        <ele>426</ele>
        <time>2016-10-05T14:17:41Z</time>
      </trkpt>
      <trkpt lat="45.1344" lon="7.21549">
        <ele>424.56</ele>
        <time>2016-10-05T14:17:44Z</time>
      </trkpt>
      <trkpt lat="45.13421" lon="7.21554">
        <ele>423.12</ele>
        <time>2016-10-05T14:17:53Z</time>
      </trkpt>
      <trkpt lat="45.13388" lon="7.21549">
        <ele>420.23</ele>
        <time>2016-10-05T14:18:05Z</time>
      </trkpt>
      <trkpt lat="45.13358" lon="7.21546">
        <ele>417.35</ele>
        <time>2016-10-05T14:18:11Z</time>
      </trkpt>
      <trkpt lat="45.13355" lon="7.21547">
        <ele>417.83</ele>
        <time>2016-10-05T14:18:12Z</time>
      </trkpt>
      <trkpt lat="45.13352" lon="7.21551">
        <ele>417.35</ele>
        <time>2016-10-05T14:18:13Z</time>
      </trkpt>
      <trkpt lat="45.1335" lon="7.21557">
        <ele>415.91</ele>
        <time>2016-10-05T14:18:14Z</time>
      </trkpt>
      <trkpt lat="45.13349" lon="7.21563">
        <ele>415.91</ele>
        <time>2016-10-05T14:18:15Z</time>
      </trkpt>
      <trkpt lat="45.13349" lon="7.21569">
        <ele>416.39</ele>
        <time>2016-10-05T14:18:16Z</time>
      </trkpt>
      <trkpt lat="45.13347" lon="7.21665">
        <ele>413.5</ele>
        <time>2016-10-05T14:18:29Z</time>
      </trkpt>
      <trkpt lat="45.13344" lon="7.21681">
        <ele>413.98</ele>
        <time>2016-10-05T14:18:31Z</time>
      </trkpt>
      <trkpt lat="45.13342" lon="7.21688">
        <ele>413.98</ele>
        <time>2016-10-05T14:18:32Z</time>
      </trkpt>
      <trkpt lat="45.13339" lon="7.21694">
        <ele>413.98</ele>
        <time>2016-10-05T14:18:33Z</time>
      </trkpt>
      <trkpt lat="45.13336" lon="7.21701">
        <ele>413.98</ele>
        <time>2016-10-05T14:18:34Z</time>
      </trkpt>
      <trkpt lat="45.13332" lon="7.21707">
        <ele>413.98</ele>
        <time>2016-10-05T14:18:35Z</time>
      </trkpt>
      <trkpt lat="45.13274" lon="7.21806">
        <ele>412.06</ele>
        <time>2016-10-05T14:18:50Z</time>
      </trkpt>
      <trkpt lat="45.13251" lon="7.21838">
        <ele>413.02</ele>
        <time>2016-10-05T14:18:55Z</time>
      </trkpt>
      <trkpt lat="45.13184" lon="7.21915">
        <ele>412.06</ele>
        <time>2016-10-05T14:19:08Z</time>
      </trkpt>
      <trkpt lat="45.13127" lon="7.21973">
        <ele>411.58</ele>
        <time>2016-10-05T14:19:19Z</time>
      </trkpt>
      <trkpt lat="45.13103" lon="7.22006">
        <ele>411.1</ele>
        <time>2016-10-05T14:19:25Z</time>
      </trkpt>
      <trkpt lat="45.13087" lon="7.2204">
        <ele>413.5</ele>
        <time>2016-10-05T14:19:31Z</time>
      </trkpt>
      <trkpt lat="45.1308" lon="7.22062">
        <ele>413.5</ele>
        <time>2016-10-05T14:19:35Z</time>
      </trkpt>
      <trkpt lat="45.13079" lon="7.22079">
        <ele>412.06</ele>
        <time>2016-10-05T14:19:38Z</time>
      </trkpt>
      <trkpt lat="45.1308" lon="7.22144">
        <ele>413.02</ele>
        <time>2016-10-05T14:19:49Z</time>
      </trkpt>
      <trkpt lat="45.13079" lon="7.22149">
        <ele>413.5</ele>
        <time>2016-10-05T14:19:50Z</time>
      </trkpt>
      <trkpt lat="45.13078" lon="7.22154">
        <ele>413.98</ele>
        <time>2016-10-05T14:19:51Z</time>
      </trkpt>
      <trkpt lat="45.13075" lon="7.2216">
        <ele>413.5</ele>
        <time>2016-10-05T14:19:52Z</time>
      </trkpt>
      <trkpt lat="45.13072" lon="7.22165">
        <ele>413.5</ele>
        <time>2016-10-05T14:19:53Z</time>
      </trkpt>
      <trkpt lat="45.13068" lon="7.22169">
        <ele>413.98</ele>
        <time>2016-10-05T14:19:54Z</time>
      </trkpt>
      <trkpt lat="45.13064" lon="7.22173">
        <ele>413.5</ele>
        <time>2016-10-05T14:19:55Z</time>
      </trkpt>
      <trkpt lat="45.1306" lon="7.22175">
        <ele>413.5</ele>
        <time>2016-10-05T14:19:56Z</time>
      </trkpt>
      <trkpt lat="45.13055" lon="7.22178">
        <ele>413.02</ele>
        <time>2016-10-05T14:19:57Z</time>
      </trkpt>
      <trkpt lat="45.13051" lon="7.2218">
        <ele>413.5</ele>
        <time>2016-10-05T14:19:58Z</time>
      </trkpt>
      <trkpt lat="45.1302" lon="7.22194">
        <ele>413.5</ele>
        <time>2016-10-05T14:20:04Z</time>
      </trkpt>
      <trkpt lat="45.12997" lon="7.22215">
        <ele>410.14</ele>
        <time>2016-10-05T14:20:09Z</time>
      </trkpt>
      <trkpt lat="45.12914" lon="7.223">
        <ele>407.74</ele>
        <time>2016-10-05T14:20:26Z</time>
      </trkpt>
      <trkpt lat="45.12871" lon="7.22375">
        <ele>408.7</ele>
        <time>2016-10-05T14:20:37Z</time>
      </trkpt>
      <trkpt lat="45.12831" lon="7.22413">
        <ele>408.7</ele>
        <time>2016-10-05T14:20:45Z</time>
      </trkpt>
      <trkpt lat="45.1282" lon="7.2242">
        <ele>409.18</ele>
        <time>2016-10-05T14:20:47Z</time>
      </trkpt>
      <trkpt lat="45.1278" lon="7.22462">
        <ele>407.74</ele>
        <time>2016-10-05T14:20:56Z</time>
      </trkpt>
      <trkpt lat="45.12776" lon="7.22468">
        <ele>407.26</ele>
        <time>2016-10-05T14:20:57Z</time>
      </trkpt>
      <trkpt lat="45.12757" lon="7.22518">
        <ele>404.37</ele>
        <time>2016-10-05T14:21:04Z</time>
      </trkpt>
      <trkpt lat="45.12753" lon="7.22534">
        <ele>403.41</ele>
        <time>2016-10-05T14:21:06Z</time>
      </trkpt>
      <trkpt lat="45.12739" lon="7.22597">
        <ele>402.93</ele>
        <time>2016-10-05T14:21:14Z</time>
      </trkpt>
      <trkpt lat="45.12732" lon="7.22619">
        <ele>404.85</ele>
        <time>2016-10-05T14:21:17Z</time>
      </trkpt>
      <trkpt lat="45.12711" lon="7.22759">
        <ele>404.85</ele>
        <time>2016-10-05T14:21:34Z</time>
      </trkpt>
      <trkpt lat="45.12709" lon="7.22792">
        <ele>402.93</ele>
        <time>2016-10-05T14:21:38Z</time>
      </trkpt>
      <trkpt lat="45.12703" lon="7.22814">
        <ele>406.29</ele>
        <time>2016-10-05T14:21:41Z</time>
      </trkpt>
      <trkpt lat="45.1267" lon="7.22888">
        <ele>404.85</ele>
        <time>2016-10-05T14:21:52Z</time>
      </trkpt>
      <trkpt lat="45.12668" lon="7.22896">
        <ele>405.33</ele>
        <time>2016-10-05T14:21:53Z</time>
      </trkpt>
      <trkpt lat="45.12666" lon="7.22905">
        <ele>404.37</ele>
        <time>2016-10-05T14:21:54Z</time>
      </trkpt>
      <trkpt lat="45.12665" lon="7.22913">
        <ele>404.85</ele>
        <time>2016-10-05T14:21:55Z</time>
      </trkpt>
      <trkpt lat="45.12664" lon="7.22921">
        <ele>404.85</ele>
        <time>2016-10-05T14:21:56Z</time>
      </trkpt>
      <trkpt lat="45.12664" lon="7.2293">
        <ele>405.33</ele>
        <time>2016-10-05T14:21:57Z</time>
      </trkpt>
      <trkpt lat="45.12649" lon="7.23028">
        <ele>404.37</ele>
        <time>2016-10-05T14:22:09Z</time>
      </trkpt>
      <trkpt lat="45.12635" lon="7.23056">
        <ele>402.45</ele>
        <time>2016-10-05T14:22:13Z</time>
      </trkpt>
      <trkpt lat="45.12631" lon="7.23063">
        <ele>403.41</ele>
        <time>2016-10-05T14:22:14Z</time>
      </trkpt>
      <trkpt lat="45.12613" lon="7.23095">
        <ele>404.85</ele>
        <time>2016-10-05T14:22:19Z</time>
      </trkpt>
      <trkpt lat="45.12587" lon="7.2316">
        <ele>406.29</ele>
        <time>2016-10-05T14:22:31Z</time>
      </trkpt>
      <trkpt lat="45.1258" lon="7.23176">
        <ele>405.33</ele>
        <time>2016-10-05T14:22:34Z</time>
      </trkpt>
      <trkpt lat="45.12578" lon="7.23181">
        <ele>405.33</ele>
        <time>2016-10-05T14:22:35Z</time>
      </trkpt>
      <trkpt lat="45.12575" lon="7.23186">
        <ele>405.81</ele>
        <time>2016-10-05T14:22:36Z</time>
      </trkpt>
      <trkpt lat="45.12563" lon="7.23215">
        <ele>404.85</ele>
        <time>2016-10-05T14:22:42Z</time>
      </trkpt>
      <trkpt lat="45.12563" lon="7.23221">
        <ele>404.37</ele>
        <time>2016-10-05T14:22:43Z</time>
      </trkpt>
      <trkpt lat="45.12561" lon="7.23227">
        <ele>404.37</ele>
        <time>2016-10-05T14:22:44Z</time>
      </trkpt>
      <trkpt lat="45.1253" lon="7.23354">
        <ele>404.85</ele>
        <time>2016-10-05T14:23:03Z</time>
      </trkpt>
      <trkpt lat="45.12509" lon="7.23422">
        <ele>404.85</ele>
        <time>2016-10-05T14:23:14Z</time>
      </trkpt>
      <trkpt lat="45.12507" lon="7.23428">
        <ele>405.33</ele>
        <time>2016-10-05T14:23:15Z</time>
      </trkpt>
      <trkpt lat="45.12503" lon="7.23441">
        <ele>404.85</ele>
        <time>2016-10-05T14:23:17Z</time>
      </trkpt>
      <trkpt lat="45.12493" lon="7.23468">
        <ele>404.85</ele>
        <time>2016-10-05T14:23:21Z</time>
      </trkpt>
      <trkpt lat="45.1249" lon="7.23474">
        <ele>403.41</ele>
        <time>2016-10-05T14:23:22Z</time>
      </trkpt>
      <trkpt lat="45.12471" lon="7.23507">
        <ele>403.41</ele>
        <time>2016-10-05T14:23:27Z</time>
      </trkpt>
      <trkpt lat="45.12467" lon="7.23512">
        <ele>402.93</ele>
        <time>2016-10-05T14:23:28Z</time>
      </trkpt>
      <trkpt lat="45.12425" lon="7.23548">
        <ele>404.85</ele>
        <time>2016-10-05T14:23:37Z</time>
      </trkpt>
      <trkpt lat="45.12421" lon="7.23552">
        <ele>404.37</ele>
        <time>2016-10-05T14:23:38Z</time>
      </trkpt>
      <trkpt lat="45.12417" lon="7.23557">
        <ele>404.37</ele>
        <time>2016-10-05T14:23:39Z</time>
      </trkpt>
      <trkpt lat="45.12413" lon="7.23561">
        <ele>404.85</ele>
        <time>2016-10-05T14:23:40Z</time>
      </trkpt>
      <trkpt lat="45.12409" lon="7.23565">
        <ele>404.85</ele>
        <time>2016-10-05T14:23:41Z</time>
      </trkpt>
      <trkpt lat="45.12405" lon="7.23568">
        <ele>404.37</ele>
        <time>2016-10-05T14:23:42Z</time>
      </trkpt>
      <trkpt lat="45.124" lon="7.23572">
        <ele>404.85</ele>
        <time>2016-10-05T14:23:43Z</time>
      </trkpt>
      <trkpt lat="45.12387" lon="7.23583">
        <ele>405.33</ele>
        <time>2016-10-05T14:23:46Z</time>
      </trkpt>
      <trkpt lat="45.12383" lon="7.23587">
        <ele>404.85</ele>
        <time>2016-10-05T14:23:47Z</time>
      </trkpt>
      <trkpt lat="45.12349" lon="7.23637">
        <ele>404.85</ele>
        <time>2016-10-05T14:23:58Z</time>
      </trkpt>
      <trkpt lat="45.12339" lon="7.23649">
        <ele>404.85</ele>
        <time>2016-10-05T14:24:01Z</time>
      </trkpt>
      <trkpt lat="45.1233" lon="7.23661">
        <ele>406.77</ele>
        <time>2016-10-05T14:24:04Z</time>
      </trkpt>
      <trkpt lat="45.12305" lon="7.23709">
        <ele>405.33</ele>
        <time>2016-10-05T14:24:14Z</time>
      </trkpt>
      <trkpt lat="45.12261" lon="7.23791">
        <ele>404.85</ele>
        <time>2016-10-05T14:24:31Z</time>
      </trkpt>
      <trkpt lat="45.12254" lon="7.23809">
        <ele>402.93</ele>
        <time>2016-10-05T14:24:34Z</time>
      </trkpt>
      <trkpt lat="45.12241" lon="7.23846">
        <ele>402.93</ele>
        <time>2016-10-05T14:24:40Z</time>
      </trkpt>
      <trkpt lat="45.12241" lon="7.23854">
        <ele>402.93</ele>
        <time>2016-10-05T14:24:41Z</time>
      </trkpt>
      <trkpt lat="45.12241" lon="7.23862">
        <ele>402.45</ele>
        <time>2016-10-05T14:24:42Z</time>
      </trkpt>
      <trkpt lat="45.12242" lon="7.23895">
        <ele>401.01</ele>
        <time>2016-10-05T14:24:46Z</time>
      </trkpt>
      <trkpt lat="45.12242" lon="7.23904">
        <ele>400.53</ele>
        <time>2016-10-05T14:24:47Z</time>
      </trkpt>
      <trkpt lat="45.12249" lon="7.24028">
        <ele>399.08</ele>
        <time>2016-10-05T14:25:02Z</time>
      </trkpt>
      <trkpt lat="45.1225" lon="7.24044">
        <ele>399.08</ele>
        <time>2016-10-05T14:25:04Z</time>
      </trkpt>
      <trkpt lat="45.12252" lon="7.24066">
        <ele>399.08</ele>
        <time>2016-10-05T14:25:07Z</time>
      </trkpt>
      <trkpt lat="45.12254" lon="7.24073">
        <ele>399.08</ele>
        <time>2016-10-05T14:25:08Z</time>
      </trkpt>
      <trkpt lat="45.12262" lon="7.24101">
        <ele>399.57</ele>
        <time>2016-10-05T14:25:12Z</time>
      </trkpt>
      <trkpt lat="45.12268" lon="7.24116">
        <ele>398.6</ele>
        <time>2016-10-05T14:25:14Z</time>
      </trkpt>
      <trkpt lat="45.12272" lon="7.24123">
        <ele>398.6</ele>
        <time>2016-10-05T14:25:15Z</time>
      </trkpt>
      <trkpt lat="45.12274" lon="7.2413">
        <ele>398.12</ele>
        <time>2016-10-05T14:25:16Z</time>
      </trkpt>
      <trkpt lat="45.12275" lon="7.24138">
        <ele>397.64</ele>
        <time>2016-10-05T14:25:17Z</time>
      </trkpt>
      <trkpt lat="45.12275" lon="7.24145">
        <ele>398.12</ele>
        <time>2016-10-05T14:25:18Z</time>
      </trkpt>
      <trkpt lat="45.12274" lon="7.24152">
        <ele>398.12</ele>
        <time>2016-10-05T14:25:19Z</time>
      </trkpt>
      <trkpt lat="45.12273" lon="7.2416">
        <ele>397.64</ele>
        <time>2016-10-05T14:25:20Z</time>
      </trkpt>
      <trkpt lat="45.12271" lon="7.24166">
        <ele>397.64</ele>
        <time>2016-10-05T14:25:21Z</time>
      </trkpt>
      <trkpt lat="45.12271" lon="7.24172">
        <ele>398.12</ele>
        <time>2016-10-05T14:25:22Z</time>
      </trkpt>
      <trkpt lat="45.12271" lon="7.24176">
        <ele>397.64</ele>
        <time>2016-10-05T14:25:23Z</time>
      </trkpt>
      <trkpt lat="45.12271" lon="7.2418">
        <ele>398.12</ele>
        <time>2016-10-05T14:25:24Z</time>
      </trkpt>
      <trkpt lat="45.12271" lon="7.24183">
        <ele>397.64</ele>
        <time>2016-10-05T14:25:35Z</time>
      </trkpt>
      <trkpt lat="45.1227" lon="7.24185">
        <ele>398.12</ele>
        <time>2016-10-05T14:25:37Z</time>
      </trkpt>
      <trkpt lat="45.12269" lon="7.24186">
        <ele>397.64</ele>
        <time>2016-10-05T14:25:38Z</time>
      </trkpt>
      <trkpt lat="45.12268" lon="7.24188">
        <ele>397.64</ele>
        <time>2016-10-05T14:25:39Z</time>
      </trkpt>
      <trkpt lat="45.12255" lon="7.24202">
        <ele>397.64</ele>
        <time>2016-10-05T14:25:45Z</time>
      </trkpt>
      <trkpt lat="45.12252" lon="7.24202">
        <ele>397.16</ele>
        <time>2016-10-05T14:25:46Z</time>
      </trkpt>
      <trkpt lat="45.1225" lon="7.24201">
        <ele>397.64</ele>
        <time>2016-10-05T14:25:47Z</time>
      </trkpt>
      <trkpt lat="45.12248" lon="7.242">
        <ele>398.12</ele>
        <time>2016-10-05T14:25:48Z</time>
      </trkpt>
      <trkpt lat="45.12245" lon="7.24198">
        <ele>397.64</ele>
        <time>2016-10-05T14:25:49Z</time>
      </trkpt>
      <trkpt lat="45.12243" lon="7.24196">
        <ele>398.12</ele>
        <time>2016-10-05T14:25:50Z</time>
      </trkpt>
      <trkpt lat="45.12202" lon="7.24161">
        <ele>398.12</ele>
        <time>2016-10-05T14:26:03Z</time>
      </trkpt>
      <trkpt lat="45.12148" lon="7.24128">
        <ele>399.08</ele>
        <time>2016-10-05T14:26:16Z</time>
      </trkpt>
      <trkpt lat="45.12129" lon="7.24121">
        <ele>398.6</ele>
        <time>2016-10-05T14:26:20Z</time>
      </trkpt>
      <trkpt lat="45.12105" lon="7.24106">
        <ele>398.6</ele>
        <time>2016-10-05T14:26:26Z</time>
      </trkpt>
      <trkpt lat="45.12101" lon="7.24103">
        <ele>399.57</ele>
        <time>2016-10-05T14:26:27Z</time>
      </trkpt>
      <trkpt lat="45.12043" lon="7.24073">
        <ele>399.08</ele>
        <time>2016-10-05T14:26:40Z</time>
      </trkpt>
      <trkpt lat="45.12001" lon="7.24051">
        <ele>400.53</ele>
        <time>2016-10-05T14:26:53Z</time>
      </trkpt>
      <trkpt lat="45.12" lon="7.24054">
        <ele>400.05</ele>
        <time>2016-10-05T14:26:54Z</time>
      </trkpt>
      <trkpt lat="45.11998" lon="7.24056">
        <ele>400.53</ele>
        <time>2016-10-05T14:26:55Z</time>
      </trkpt>
      <trkpt lat="45.11995" lon="7.24059">
        <ele>400.05</ele>
        <time>2016-10-05T14:26:56Z</time>
      </trkpt>
      <trkpt lat="45.11992" lon="7.24061">
        <ele>399.57</ele>
        <time>2016-10-05T14:26:57Z</time>
      </trkpt>
      <trkpt lat="45.11987" lon="7.24063">
        <ele>399.08</ele>
        <time>2016-10-05T14:26:58Z</time>
      </trkpt>
      <trkpt lat="45.11982" lon="7.24064">
        <ele>399.08</ele>
        <time>2016-10-05T14:26:59Z</time>
      </trkpt>
      <trkpt lat="45.11972" lon="7.24068">
        <ele>398.6</ele>
        <time>2016-10-05T14:27:01Z</time>
      </trkpt>
      <trkpt lat="45.11966" lon="7.24072">
        <ele>397.64</ele>
        <time>2016-10-05T14:27:02Z</time>
      </trkpt>
      <trkpt lat="45.11962" lon="7.24076">
        <ele>397.64</ele>
        <time>2016-10-05T14:27:03Z</time>
      </trkpt>
      <trkpt lat="45.11958" lon="7.24081">
        <ele>397.64</ele>
        <time>2016-10-05T14:27:04Z</time>
      </trkpt>
      <trkpt lat="45.11954" lon="7.24086">
        <ele>398.12</ele>
        <time>2016-10-05T14:27:05Z</time>
      </trkpt>
      <trkpt lat="45.1195" lon="7.24091">
        <ele>398.6</ele>
        <time>2016-10-05T14:27:06Z</time>
      </trkpt>
      <trkpt lat="45.11919" lon="7.24141">
        <ele>398.12</ele>
        <time>2016-10-05T14:27:15Z</time>
      </trkpt>
      <trkpt lat="45.11884" lon="7.24245">
        <ele>398.12</ele>
        <time>2016-10-05T14:27:30Z</time>
      </trkpt>
      <trkpt lat="45.11883" lon="7.24356">
        <ele>396.2</ele>
        <time>2016-10-05T14:27:43Z</time>
      </trkpt>
      <trkpt lat="45.11899" lon="7.24438">
        <ele>395.72</ele>
        <time>2016-10-05T14:27:54Z</time>
      </trkpt>
      <trkpt lat="45.11897" lon="7.24442">
        <ele>396.68</ele>
        <time>2016-10-05T14:27:55Z</time>
      </trkpt>
      <trkpt lat="45.11894" lon="7.24445">
        <ele>396.2</ele>
        <time>2016-10-05T14:27:56Z</time>
      </trkpt>
      <trkpt lat="45.11881" lon="7.24452">
        <ele>396.2</ele>
        <time>2016-10-05T14:28:00Z</time>
      </trkpt>
      <trkpt lat="45.11877" lon="7.24451">
        <ele>396.2</ele>
        <time>2016-10-05T14:28:01Z</time>
      </trkpt>
      <trkpt lat="45.11874" lon="7.24448">
        <ele>396.2</ele>
        <time>2016-10-05T14:28:02Z</time>
      </trkpt>
      <trkpt lat="45.11872" lon="7.24445">
        <ele>396.2</ele>
        <time>2016-10-05T14:28:03Z</time>
      </trkpt>
      <trkpt lat="45.11871" lon="7.24443">
        <ele>395.72</ele>
        <time>2016-10-05T14:28:04Z</time>
      </trkpt>
      <trkpt lat="45.1187" lon="7.24441">
        <ele>396.68</ele>
        <time>2016-10-05T14:28:05Z</time>
      </trkpt>
      <trkpt lat="45.1187" lon="7.24438">
        <ele>396.2</ele>
        <time>2016-10-05T14:28:06Z</time>
      </trkpt>
      <trkpt lat="45.11868" lon="7.24435">
        <ele>396.68</ele>
        <time>2016-10-05T14:28:08Z</time>
      </trkpt>
      <trkpt lat="45.11867" lon="7.24434">
        <ele>397.16</ele>
        <time>2016-10-05T14:28:09Z</time>
      </trkpt>
      <trkpt lat="45.11865" lon="7.24435">
        <ele>397.16</ele>
        <time>2016-10-05T14:28:10Z</time>
      </trkpt>
      <trkpt lat="45.11865" lon="7.24437">
        <ele>397.16</ele>
        <time>2016-10-05T14:28:11Z</time>
      </trkpt>
      <trkpt lat="45.11865" lon="7.24439">
        <ele>396.68</ele>
        <time>2016-10-05T14:28:12Z</time>
      </trkpt>
      <trkpt lat="45.11866" lon="7.24441">
        <ele>396.68</ele>
        <time>2016-10-05T14:28:13Z</time>
      </trkpt>
      <trkpt lat="45.11867" lon="7.24443">
        <ele>395.72</ele>
        <time>2016-10-05T14:28:14Z</time>
      </trkpt>
      <trkpt lat="45.11869" lon="7.24444">
        <ele>395.24</ele>
        <time>2016-10-05T14:28:15Z</time>
      </trkpt>
      <trkpt lat="45.11872" lon="7.24445">
        <ele>395.24</ele>
        <time>2016-10-05T14:28:16Z</time>
      </trkpt>
      <trkpt lat="45.11874" lon="7.24446">
        <ele>395.72</ele>
        <time>2016-10-05T14:28:17Z</time>
      </trkpt>
      <trkpt lat="45.11896" lon="7.24444">
        <ele>395.72</ele>
        <time>2016-10-05T14:28:25Z</time>
      </trkpt>
      <trkpt lat="45.11898" lon="7.24445">
        <ele>396.2</ele>
        <time>2016-10-05T14:28:26Z</time>
      </trkpt>
      <trkpt lat="45.119" lon="7.24447">
        <ele>396.2</ele>
        <time>2016-10-05T14:28:27Z</time>
      </trkpt>
      <trkpt lat="45.11901" lon="7.24449">
        <ele>396.2</ele>
        <time>2016-10-05T14:28:28Z</time>
      </trkpt>
      <trkpt lat="45.11903" lon="7.24452">
        <ele>396.2</ele>
        <time>2016-10-05T14:28:29Z</time>
      </trkpt>
      <trkpt lat="45.11904" lon="7.24456">
        <ele>396.2</ele>
        <time>2016-10-05T14:28:30Z</time>
      </trkpt>
      <trkpt lat="45.11905" lon="7.2446">
        <ele>395.72</ele>
        <time>2016-10-05T14:28:31Z</time>
      </trkpt>
      <trkpt lat="45.11905" lon="7.24464">
        <ele>396.2</ele>
        <time>2016-10-05T14:28:32Z</time>
      </trkpt>
      <trkpt lat="45.11914" lon="7.24488">
        <ele>400.05</ele>
        <time>2016-10-05T14:28:38Z</time>
      </trkpt>
      <trkpt lat="45.11917" lon="7.24491">
        <ele>395.72</ele>
        <time>2016-10-05T14:28:39Z</time>
      </trkpt>
      <trkpt lat="45.11952" lon="7.24527">
        <ele>395.24</ele>
        <time>2016-10-05T14:28:53Z</time>
      </trkpt>
      <trkpt lat="45.11996" lon="7.24527">
        <ele>394.76</ele>
        <time>2016-10-05T14:29:05Z</time>
      </trkpt>
      <trkpt lat="45.12037" lon="7.24552">
        <ele>396.2</ele>
        <time>2016-10-05T14:29:15Z</time>
      </trkpt>
      <trkpt lat="45.12111" lon="7.24576">
        <ele>394.76</ele>
        <time>2016-10-05T14:29:31Z</time>
      </trkpt>
      <trkpt lat="45.12114" lon="7.24579">
        <ele>394.28</ele>
        <time>2016-10-05T14:29:32Z</time>
      </trkpt>
      <trkpt lat="45.12117" lon="7.24582">
        <ele>394.76</ele>
        <time>2016-10-05T14:29:33Z</time>
      </trkpt>
      <trkpt lat="45.12119" lon="7.24586">
        <ele>394.76</ele>
        <time>2016-10-05T14:29:34Z</time>
      </trkpt>
      <trkpt lat="45.12121" lon="7.2459">
        <ele>394.76</ele>
        <time>2016-10-05T14:29:35Z</time>
      </trkpt>
      <trkpt lat="45.12122" lon="7.24595">
        <ele>394.76</ele>
        <time>2016-10-05T14:29:36Z</time>
      </trkpt>
      <trkpt lat="45.12122" lon="7.24601">
        <ele>394.28</ele>
        <time>2016-10-05T14:29:37Z</time>
      </trkpt>
      <trkpt lat="45.12121" lon="7.24607">
        <ele>394.76</ele>
        <time>2016-10-05T14:29:38Z</time>
      </trkpt>
      <trkpt lat="45.1212" lon="7.24612">
        <ele>394.76</ele>
        <time>2016-10-05T14:29:39Z</time>
      </trkpt>
      <trkpt lat="45.12118" lon="7.24618">
        <ele>394.76</ele>
        <time>2016-10-05T14:29:40Z</time>
      </trkpt>
      <trkpt lat="45.12117" lon="7.24624">
        <ele>395.72</ele>
        <time>2016-10-05T14:29:41Z</time>
      </trkpt>
      <trkpt lat="45.12091" lon="7.24739">
        <ele>394.76</ele>
        <time>2016-10-05T14:29:58Z</time>
      </trkpt>
      <trkpt lat="45.12055" lon="7.24857">
        <ele>394.76</ele>
        <time>2016-10-05T14:30:15Z</time>
      </trkpt>
      <trkpt lat="45.12007" lon="7.24953">
        <ele>394.28</ele>
        <time>2016-10-05T14:30:31Z</time>
      </trkpt>
      <trkpt lat="45.12" lon="7.24962">
        <ele>394.76</ele>
        <time>2016-10-05T14:30:33Z</time>
      </trkpt>
      <trkpt lat="45.11996" lon="7.24966">
        <ele>395.24</ele>
        <time>2016-10-05T14:30:34Z</time>
      </trkpt>
      <trkpt lat="45.11992" lon="7.24969">
        <ele>394.76</ele>
        <time>2016-10-05T14:30:35Z</time>
      </trkpt>
      <trkpt lat="45.11988" lon="7.24971">
        <ele>394.76</ele>
        <time>2016-10-05T14:30:36Z</time>
      </trkpt>
      <trkpt lat="45.11984" lon="7.24973">
        <ele>394.76</ele>
        <time>2016-10-05T14:30:37Z</time>
      </trkpt>
      <trkpt lat="45.11981" lon="7.24973">
        <ele>394.28</ele>
        <time>2016-10-05T14:30:38Z</time>
      </trkpt>
      <trkpt lat="45.11977" lon="7.24972">
        <ele>395.24</ele>
        <time>2016-10-05T14:30:39Z</time>
      </trkpt>
      <trkpt lat="45.11975" lon="7.24971">
        <ele>395.72</ele>
        <time>2016-10-05T14:30:40Z</time>
      </trkpt>
      <trkpt lat="45.11951" lon="7.24981">
        <ele>394.76</ele>
        <time>2016-10-05T14:30:49Z</time>
      </trkpt>
      <trkpt lat="45.11949" lon="7.24987">
        <ele>395.24</ele>
        <time>2016-10-05T14:30:50Z</time>
      </trkpt>
      <trkpt lat="45.11904" lon="7.25088">
        <ele>393.8</ele>
        <time>2016-10-05T14:31:06Z</time>
      </trkpt>
      <trkpt lat="45.11892" lon="7.25105">
        <ele>394.28</ele>
        <time>2016-10-05T14:31:09Z</time>
      </trkpt>
      <trkpt lat="45.118" lon="7.25223">
        <ele>393.32</ele>
        <time>2016-10-05T14:31:30Z</time>
      </trkpt>
      <trkpt lat="45.11783" lon="7.25247">
        <ele>393.32</ele>
        <time>2016-10-05T14:31:34Z</time>
      </trkpt>
      <trkpt lat="45.11775" lon="7.25258">
        <ele>392.36</ele>
        <time>2016-10-05T14:31:36Z</time>
      </trkpt>
      <trkpt lat="45.11708" lon="7.25343">
        <ele>391.87</ele>
        <time>2016-10-05T14:31:51Z</time>
      </trkpt>
      <trkpt lat="45.11617" lon="7.25461">
        <ele>391.39</ele>
        <time>2016-10-05T14:32:12Z</time>
      </trkpt>
      <trkpt lat="45.11515" lon="7.25592">
        <ele>390.91</ele>
        <time>2016-10-05T14:32:35Z</time>
      </trkpt>
      <trkpt lat="45.11442" lon="7.25724">
        <ele>389.47</ele>
        <time>2016-10-05T14:32:55Z</time>
      </trkpt>
      <trkpt lat="45.11394" lon="7.25876">
        <ele>389.95</ele>
        <time>2016-10-05T14:33:14Z</time>
      </trkpt>
      <trkpt lat="45.11346" lon="7.26028">
        <ele>389.95</ele>
        <time>2016-10-05T14:33:33Z</time>
      </trkpt>
      <trkpt lat="45.11313" lon="7.26166">
        <ele>388.51</ele>
        <time>2016-10-05T14:33:51Z</time>
      </trkpt>
      <trkpt lat="45.11308" lon="7.26299">
        <ele>386.59</ele>
        <time>2016-10-05T14:34:09Z</time>
      </trkpt>
      <trkpt lat="45.11308" lon="7.26321">
        <ele>388.03</ele>
        <time>2016-10-05T14:34:12Z</time>
      </trkpt>
      <trkpt lat="45.11316" lon="7.26475">
        <ele>387.55</ele>
        <time>2016-10-05T14:34:33Z</time>
      </trkpt>
      <trkpt lat="45.11347" lon="7.26594">
        <ele>387.07</ele>
        <time>2016-10-05T14:34:49Z</time>
      </trkpt>
      <trkpt lat="45.11386" lon="7.26704">
        <ele>386.59</ele>
        <time>2016-10-05T14:35:04Z</time>
      </trkpt>
      <trkpt lat="45.11402" lon="7.26752">
        <ele>386.11</ele>
        <time>2016-10-05T14:35:11Z</time>
      </trkpt>
      <trkpt lat="45.11402" lon="7.26759">
        <ele>386.11</ele>
        <time>2016-10-05T14:35:12Z</time>
      </trkpt>
      <trkpt lat="45.11402" lon="7.26765">
        <ele>385.63</ele>
        <time>2016-10-05T14:35:13Z</time>
      </trkpt>
      <trkpt lat="45.11401" lon="7.26771">
        <ele>385.63</ele>
        <time>2016-10-05T14:35:14Z</time>
      </trkpt>
      <trkpt lat="45.11399" lon="7.26776">
        <ele>386.59</ele>
        <time>2016-10-05T14:35:15Z</time>
      </trkpt>
      <trkpt lat="45.11396" lon="7.2678">
        <ele>386.59</ele>
        <time>2016-10-05T14:35:16Z</time>
      </trkpt>
      <trkpt lat="45.11393" lon="7.26783">
        <ele>387.55</ele>
        <time>2016-10-05T14:35:17Z</time>
      </trkpt>
      <trkpt lat="45.1139" lon="7.26785">
        <ele>387.55</ele>
        <time>2016-10-05T14:35:18Z</time>
      </trkpt>
      <trkpt lat="45.11386" lon="7.26787">
        <ele>387.55</ele>
        <time>2016-10-05T14:35:19Z</time>
      </trkpt>
      <trkpt lat="45.11382" lon="7.26788">
        <ele>388.03</ele>
        <time>2016-10-05T14:35:20Z</time>
      </trkpt>
      <trkpt lat="45.11379" lon="7.26788">
        <ele>388.03</ele>
        <time>2016-10-05T14:35:21Z</time>
      </trkpt>
      <trkpt lat="45.11375" lon="7.26789">
        <ele>388.03</ele>
        <time>2016-10-05T14:35:22Z</time>
      </trkpt>
      <trkpt lat="45.11372" lon="7.2679">
        <ele>387.55</ele>
        <time>2016-10-05T14:35:23Z</time>
      </trkpt>
      <trkpt lat="45.11369" lon="7.2679">
        <ele>388.51</ele>
        <time>2016-10-05T14:35:24Z</time>
      </trkpt>
      <trkpt lat="45.11315" lon="7.26804">
        <ele>388.51</ele>
        <time>2016-10-05T14:35:39Z</time>
      </trkpt>
      <trkpt lat="45.11284" lon="7.26813">
        <ele>388.51</ele>
        <time>2016-10-05T14:35:51Z</time>
      </trkpt>
      <trkpt lat="45.1129" lon="7.26811">
        <ele>388.51</ele>
        <time>2016-10-05T14:36:26Z</time>
      </trkpt>
      <trkpt lat="45.11278" lon="7.26817">
        <ele>388.51</ele>
        <time>2016-10-05T14:36:39Z</time>
      </trkpt>
      <trkpt lat="45.11257" lon="7.26812">
        <ele>388.51</ele>
        <time>2016-10-05T14:36:52Z</time>
      </trkpt>
      <trkpt lat="45.11231" lon="7.2683">
        <ele>389.47</ele>
        <time>2016-10-05T14:37:01Z</time>
      </trkpt>
      <trkpt lat="45.11185" lon="7.26861">
        <ele>388.03</ele>
        <time>2016-10-05T14:37:15Z</time>
      </trkpt>
      <trkpt lat="45.11184" lon="7.26874">
        <ele>388.03</ele>
        <time>2016-10-05T14:37:17Z</time>
      </trkpt>
      <trkpt lat="45.11184" lon="7.26882">
        <ele>388.03</ele>
        <time>2016-10-05T14:37:18Z</time>
      </trkpt>
      <trkpt lat="45.11185" lon="7.2689">
        <ele>387.55</ele>
        <time>2016-10-05T14:37:19Z</time>
      </trkpt>
      <trkpt lat="45.11186" lon="7.26898">
        <ele>387.55</ele>
        <time>2016-10-05T14:37:20Z</time>
      </trkpt>
      <trkpt lat="45.11188" lon="7.26905">
        <ele>387.55</ele>
        <time>2016-10-05T14:37:21Z</time>
      </trkpt>
      <trkpt lat="45.11204" lon="7.27041">
        <ele>385.15</ele>
        <time>2016-10-05T14:37:38Z</time>
      </trkpt>
      <trkpt lat="45.11213" lon="7.27146">
        <ele>383.7</ele>
        <time>2016-10-05T14:37:51Z</time>
      </trkpt>
      <trkpt lat="45.11224" lon="7.27273">
        <ele>384.66</ele>
        <time>2016-10-05T14:38:07Z</time>
      </trkpt>
      <trkpt lat="45.11227" lon="7.27427">
        <ele>383.22</ele>
        <time>2016-10-05T14:38:26Z</time>
      </trkpt>
      <trkpt lat="45.1123" lon="7.27596">
        <ele>383.7</ele>
        <time>2016-10-05T14:38:47Z</time>
      </trkpt>
      <trkpt lat="45.11231" lon="7.27763">
        <ele>381.78</ele>
        <time>2016-10-05T14:39:07Z</time>
      </trkpt>
      <trkpt lat="45.11232" lon="7.27947">
        <ele>380.82</ele>
        <time>2016-10-05T14:39:29Z</time>
      </trkpt>
      <trkpt lat="45.1123" lon="7.28054">
        <ele>382.74</ele>
        <time>2016-10-05T14:39:42Z</time>
      </trkpt>
      <trkpt lat="45.11233" lon="7.28135">
        <ele>378.9</ele>
        <time>2016-10-05T14:39:53Z</time>
      </trkpt>
      <trkpt lat="45.11238" lon="7.28179">
        <ele>382.26</ele>
        <time>2016-10-05T14:39:59Z</time>
      </trkpt>
      <trkpt lat="45.11238" lon="7.28186">
        <ele>382.26</ele>
        <time>2016-10-05T14:40:00Z</time>
      </trkpt>
      <trkpt lat="45.11246" lon="7.28294">
        <ele>380.34</ele>
        <time>2016-10-05T14:40:15Z</time>
      </trkpt>
      <trkpt lat="45.11249" lon="7.28434">
        <ele>380.82</ele>
        <time>2016-10-05T14:40:34Z</time>
      </trkpt>
      <trkpt lat="45.11236" lon="7.28575">
        <ele>379.86</ele>
        <time>2016-10-05T14:40:53Z</time>
      </trkpt>
      <trkpt lat="45.11187" lon="7.28657">
        <ele>380.82</ele>
        <time>2016-10-05T14:41:07Z</time>
      </trkpt>
      <trkpt lat="45.1111" lon="7.28691">
        <ele>379.86</ele>
        <time>2016-10-05T14:41:21Z</time>
      </trkpt>
      <trkpt lat="45.11004" lon="7.28689">
        <ele>380.34</ele>
        <time>2016-10-05T14:41:41Z</time>
      </trkpt>
      <trkpt lat="45.10951" lon="7.28705">
        <ele>383.22</ele>
        <time>2016-10-05T14:41:53Z</time>
      </trkpt>
      <trkpt lat="45.10948" lon="7.28706">
        <ele>380.34</ele>
        <time>2016-10-05T14:41:54Z</time>
      </trkpt>
      <trkpt lat="45.10914" lon="7.28725">
        <ele>383.7</ele>
        <time>2016-10-05T14:42:08Z</time>
      </trkpt>
      <trkpt lat="45.10885" lon="7.2874">
        <ele>386.59</ele>
        <time>2016-10-05T14:42:23Z</time>
      </trkpt>
      <trkpt lat="45.10846" lon="7.28763">
        <ele>387.55</ele>
        <time>2016-10-05T14:42:43Z</time>
      </trkpt>
      <trkpt lat="45.10818" lon="7.28797">
        <ele>387.07</ele>
        <time>2016-10-05T14:42:55Z</time>
      </trkpt>
      <trkpt lat="45.10816" lon="7.28804">
        <ele>387.55</ele>
        <time>2016-10-05T14:42:56Z</time>
      </trkpt>
      <trkpt lat="45.10815" lon="7.28812">
        <ele>386.11</ele>
        <time>2016-10-05T14:42:57Z</time>
      </trkpt>
      <trkpt lat="45.10815" lon="7.28821">
        <ele>384.66</ele>
        <time>2016-10-05T14:42:58Z</time>
      </trkpt>
      <trkpt lat="45.10816" lon="7.28831">
        <ele>384.18</ele>
        <time>2016-10-05T14:42:59Z</time>
      </trkpt>
      <trkpt lat="45.10819" lon="7.28864">
        <ele>380.82</ele>
        <time>2016-10-05T14:43:02Z</time>
      </trkpt>
      <trkpt lat="45.10819" lon="7.28875">
        <ele>380.34</ele>
        <time>2016-10-05T14:43:03Z</time>
      </trkpt>
      <trkpt lat="45.10817" lon="7.28886">
        <ele>380.34</ele>
        <time>2016-10-05T14:43:04Z</time>
      </trkpt>
      <trkpt lat="45.10813" lon="7.28896">
        <ele>379.38</ele>
        <time>2016-10-05T14:43:05Z</time>
      </trkpt>
      <trkpt lat="45.10808" lon="7.28904">
        <ele>379.38</ele>
        <time>2016-10-05T14:43:06Z</time>
      </trkpt>
      <trkpt lat="45.10801" lon="7.28908">
        <ele>378.9</ele>
        <time>2016-10-05T14:43:07Z</time>
      </trkpt>
      <trkpt lat="45.10794" lon="7.28911">
        <ele>378.42</ele>
        <time>2016-10-05T14:43:08Z</time>
      </trkpt>
      <trkpt lat="45.10788" lon="7.2891">
        <ele>378.42</ele>
        <time>2016-10-05T14:43:09Z</time>
      </trkpt>
      <trkpt lat="45.10783" lon="7.28909">
        <ele>377.94</ele>
        <time>2016-10-05T14:43:10Z</time>
      </trkpt>
      <trkpt lat="45.10779" lon="7.28908">
        <ele>378.42</ele>
        <time>2016-10-05T14:43:11Z</time>
      </trkpt>
      <trkpt lat="45.10775" lon="7.28906">
        <ele>378.42</ele>
        <time>2016-10-05T14:43:12Z</time>
      </trkpt>
      <trkpt lat="45.10771" lon="7.28904">
        <ele>378.42</ele>
        <time>2016-10-05T14:43:13Z</time>
      </trkpt>
      <trkpt lat="45.10767" lon="7.289">
        <ele>378.9</ele>
        <time>2016-10-05T14:43:14Z</time>
      </trkpt>
      <trkpt lat="45.10764" lon="7.28897">
        <ele>378.9</ele>
        <time>2016-10-05T14:43:15Z</time>
      </trkpt>
      <trkpt lat="45.1076" lon="7.28894">
        <ele>378.9</ele>
        <time>2016-10-05T14:43:16Z</time>
      </trkpt>
      <trkpt lat="45.10756" lon="7.28892">
        <ele>378.9</ele>
        <time>2016-10-05T14:43:17Z</time>
      </trkpt>
      <trkpt lat="45.10752" lon="7.28892">
        <ele>378.9</ele>
        <time>2016-10-05T14:43:18Z</time>
      </trkpt>
      <trkpt lat="45.10747" lon="7.28893">
        <ele>379.38</ele>
        <time>2016-10-05T14:43:19Z</time>
      </trkpt>
      <trkpt lat="45.10743" lon="7.28896">
        <ele>380.34</ele>
        <time>2016-10-05T14:43:20Z</time>
      </trkpt>
      <trkpt lat="45.10739" lon="7.289">
        <ele>378.9</ele>
        <time>2016-10-05T14:43:21Z</time>
      </trkpt>
      <trkpt lat="45.10735" lon="7.28904">
        <ele>379.38</ele>
        <time>2016-10-05T14:43:22Z</time>
      </trkpt>
      <trkpt lat="45.10734" lon="7.2891">
        <ele>378.9</ele>
        <time>2016-10-05T14:43:23Z</time>
      </trkpt>
      <trkpt lat="45.10733" lon="7.28917">
        <ele>378.42</ele>
        <time>2016-10-05T14:43:24Z</time>
      </trkpt>
      <trkpt lat="45.10734" lon="7.28924">
        <ele>377.45</ele>
        <time>2016-10-05T14:43:25Z</time>
      </trkpt>
      <trkpt lat="45.10735" lon="7.2893">
        <ele>376.97</ele>
        <time>2016-10-05T14:43:26Z</time>
      </trkpt>
      <trkpt lat="45.10738" lon="7.28936">
        <ele>377.45</ele>
        <time>2016-10-05T14:43:27Z</time>
      </trkpt>
      <trkpt lat="45.1074" lon="7.28942">
        <ele>376.49</ele>
        <time>2016-10-05T14:43:28Z</time>
      </trkpt>
      <trkpt lat="45.10742" lon="7.28948">
        <ele>377.45</ele>
        <time>2016-10-05T14:43:29Z</time>
      </trkpt>
      <trkpt lat="45.10744" lon="7.28955">
        <ele>378.42</ele>
        <time>2016-10-05T14:43:30Z</time>
      </trkpt>
      <trkpt lat="45.10744" lon="7.28962">
        <ele>378.42</ele>
        <time>2016-10-05T14:43:31Z</time>
      </trkpt>
      <trkpt lat="45.1074" lon="7.29109">
        <ele>377.45</ele>
        <time>2016-10-05T14:43:51Z</time>
      </trkpt>
      <trkpt lat="45.10736" lon="7.29199">
        <ele>376.01</ele>
        <time>2016-10-05T14:44:03Z</time>
      </trkpt>
      <trkpt lat="45.10729" lon="7.29358">
        <ele>376.97</ele>
        <time>2016-10-05T14:44:23Z</time>
      </trkpt>
      <trkpt lat="45.10723" lon="7.29504">
        <ele>375.53</ele>
        <time>2016-10-05T14:44:41Z</time>
      </trkpt>
      <trkpt lat="45.10715" lon="7.29677">
        <ele>376.01</ele>
        <time>2016-10-05T14:45:03Z</time>
      </trkpt>
      <trkpt lat="45.10707" lon="7.29852">
        <ele>374.57</ele>
        <time>2016-10-05T14:45:25Z</time>
      </trkpt>
      <trkpt lat="45.107" lon="7.29998">
        <ele>375.53</ele>
        <time>2016-10-05T14:45:44Z</time>
      </trkpt>
      <trkpt lat="45.10692" lon="7.30157">
        <ele>374.57</ele>
        <time>2016-10-05T14:46:04Z</time>
      </trkpt>
      <trkpt lat="45.10683" lon="7.30336">
        <ele>373.61</ele>
        <time>2016-10-05T14:46:26Z</time>
      </trkpt>
      <trkpt lat="45.10677" lon="7.30479">
        <ele>373.61</ele>
        <time>2016-10-05T14:46:44Z</time>
      </trkpt>
      <trkpt lat="45.10671" lon="7.30603">
        <ele>372.17</ele>
        <time>2016-10-05T14:47:01Z</time>
      </trkpt>
      <trkpt lat="45.10664" lon="7.30733">
        <ele>372.65</ele>
        <time>2016-10-05T14:47:18Z</time>
      </trkpt>
      <trkpt lat="45.10655" lon="7.30914">
        <ele>371.69</ele>
        <time>2016-10-05T14:47:40Z</time>
      </trkpt>
      <trkpt lat="45.10645" lon="7.31093">
        <ele>372.17</ele>
        <time>2016-10-05T14:48:02Z</time>
      </trkpt>
      <trkpt lat="45.10643" lon="7.31101">
        <ele>372.17</ele>
        <time>2016-10-05T14:48:03Z</time>
      </trkpt>
      <trkpt lat="45.10639" lon="7.31107">
        <ele>371.21</ele>
        <time>2016-10-05T14:48:04Z</time>
      </trkpt>
      <trkpt lat="45.10636" lon="7.31113">
        <ele>371.69</ele>
        <time>2016-10-05T14:48:05Z</time>
      </trkpt>
      <trkpt lat="45.10632" lon="7.31119">
        <ele>372.17</ele>
        <time>2016-10-05T14:48:06Z</time>
      </trkpt>
      <trkpt lat="45.1063" lon="7.31126">
        <ele>371.21</ele>
        <time>2016-10-05T14:48:07Z</time>
      </trkpt>
      <trkpt lat="45.10629" lon="7.31134">
        <ele>371.69</ele>
        <time>2016-10-05T14:48:08Z</time>
      </trkpt>
      <trkpt lat="45.1063" lon="7.31142">
        <ele>371.69</ele>
        <time>2016-10-05T14:48:09Z</time>
      </trkpt>
      <trkpt lat="45.10631" lon="7.3115">
        <ele>371.69</ele>
        <time>2016-10-05T14:48:10Z</time>
      </trkpt>
      <trkpt lat="45.10634" lon="7.31157">
        <ele>371.69</ele>
        <time>2016-10-05T14:48:11Z</time>
      </trkpt>
      <trkpt lat="45.10637" lon="7.31164">
        <ele>371.21</ele>
        <time>2016-10-05T14:48:12Z</time>
      </trkpt>
      <trkpt lat="45.10639" lon="7.31172">
        <ele>371.21</ele>
        <time>2016-10-05T14:48:13Z</time>
      </trkpt>
      <trkpt lat="45.1064" lon="7.3118">
        <ele>371.21</ele>
        <time>2016-10-05T14:48:14Z</time>
      </trkpt>
      <trkpt lat="45.1064" lon="7.31189">
        <ele>371.21</ele>
        <time>2016-10-05T14:48:15Z</time>
      </trkpt>
      <trkpt lat="45.10632" lon="7.31355">
        <ele>370.73</ele>
        <time>2016-10-05T14:48:35Z</time>
      </trkpt>
      <trkpt lat="45.10625" lon="7.31508">
        <ele>370.24</ele>
        <time>2016-10-05T14:48:53Z</time>
      </trkpt>
      <trkpt lat="45.10616" lon="7.31665">
        <ele>369.76</ele>
        <time>2016-10-05T14:49:12Z</time>
      </trkpt>
      <trkpt lat="45.10609" lon="7.31795">
        <ele>370.24</ele>
        <time>2016-10-05T14:49:28Z</time>
      </trkpt>
      <trkpt lat="45.10601" lon="7.31931">
        <ele>369.76</ele>
        <time>2016-10-05T14:49:44Z</time>
      </trkpt>
      <trkpt lat="45.10601" lon="7.31948">
        <ele>368.8</ele>
        <time>2016-10-05T14:49:46Z</time>
      </trkpt>
      <trkpt lat="45.10592" lon="7.32105">
        <ele>369.28</ele>
        <time>2016-10-05T14:50:05Z</time>
      </trkpt>
      <trkpt lat="45.1059" lon="7.3217">
        <ele>368.8</ele>
        <time>2016-10-05T14:50:13Z</time>
      </trkpt>
      <trkpt lat="45.10586" lon="7.3222">
        <ele>369.76</ele>
        <time>2016-10-05T14:50:20Z</time>
      </trkpt>
      <trkpt lat="45.10583" lon="7.32225">
        <ele>369.28</ele>
        <time>2016-10-05T14:50:22Z</time>
      </trkpt>
      <trkpt lat="45.10583" lon="7.32227">
        <ele>369.28</ele>
        <time>2016-10-05T14:50:23Z</time>
      </trkpt>
      <trkpt lat="45.10583" lon="7.32227">
        <ele>368.8</ele>
        <time>2016-10-05T14:50:38Z</time>
      </trkpt>
      <trkpt lat="45.10586" lon="7.32231">
        <ele>369.76</ele>
        <time>2016-10-05T14:51:04Z</time>
      </trkpt>
      <trkpt lat="45.10586" lon="7.32233">
        <ele>369.76</ele>
        <time>2016-10-05T14:51:24Z</time>
      </trkpt>
      <trkpt lat="45.10577" lon="7.32232">
        <ele>369.76</ele>
        <time>2016-10-05T14:51:37Z</time>
      </trkpt>
      <trkpt lat="45.10573" lon="7.32234">
        <ele>369.76</ele>
        <time>2016-10-05T14:51:59Z</time>
      </trkpt>
      <trkpt lat="45.10574" lon="7.32234">
        <ele>369.76</ele>
        <time>2016-10-05T14:52:31Z</time>
      </trkpt>
      <trkpt lat="45.10574" lon="7.32232">
        <ele>369.76</ele>
        <time>2016-10-05T14:53:09Z</time>
      </trkpt>
      <trkpt lat="45.10573" lon="7.32238">
        <ele>370.24</ele>
        <time>2016-10-05T14:53:43Z</time>
      </trkpt>
      <trkpt lat="45.10572" lon="7.32239">
        <ele>369.76</ele>
        <time>2016-10-05T14:54:22Z</time>
      </trkpt>
      <trkpt lat="45.10571" lon="7.32239">
        <ele>369.76</ele>
        <time>2016-10-05T14:55:02Z</time>
      </trkpt>
      <trkpt lat="45.10572" lon="7.3224">
        <ele>369.76</ele>
        <time>2016-10-05T14:55:36Z</time>
      </trkpt>
      <trkpt lat="45.10573" lon="7.32241">
        <ele>370.24</ele>
        <time>2016-10-05T14:56:04Z</time>
      </trkpt>
      <trkpt lat="45.10572" lon="7.32244">
        <ele>370.24</ele>
        <time>2016-10-05T14:56:38Z</time>
      </trkpt>
      <trkpt lat="45.10572" lon="7.32244">
        <ele>370.73</ele>
        <time>2016-10-05T14:57:11Z</time>
      </trkpt>
      <trkpt lat="45.10571" lon="7.32246">
        <ele>370.73</ele>
        <time>2016-10-05T14:57:53Z</time>
      </trkpt>
      <trkpt lat="45.10569" lon="7.32245">
        <ele>371.69</ele>
        <time>2016-10-05T14:58:34Z</time>
      </trkpt>
      <trkpt lat="45.10567" lon="7.32243">
        <ele>371.69</ele>
        <time>2016-10-05T14:59:13Z</time>
      </trkpt>
      <trkpt lat="45.10567" lon="7.32244">
        <ele>371.69</ele>
        <time>2016-10-05T14:59:57Z</time>
      </trkpt>
      <trkpt lat="45.1057" lon="7.32242">
        <ele>371.69</ele>
        <time>2016-10-05T15:00:33Z</time>
      </trkpt>
      <trkpt lat="45.10568" lon="7.32245">
        <ele>372.17</ele>
        <time>2016-10-05T15:01:15Z</time>
      </trkpt>
      <trkpt lat="45.10569" lon="7.32244">
        <ele>371.69</ele>
        <time>2016-10-05T15:01:58Z</time>
      </trkpt>
      <trkpt lat="45.10568" lon="7.32248">
        <ele>372.17</ele>
        <time>2016-10-05T15:02:28Z</time>
      </trkpt>
      <trkpt lat="45.10568" lon="7.32248">
        <ele>372.17</ele>
        <time>2016-10-05T15:03:04Z</time>
      </trkpt>
      <trkpt lat="45.10567" lon="7.32243">
        <ele>372.65</ele>
        <time>2016-10-05T15:03:37Z</time>
      </trkpt>
      <trkpt lat="45.10566" lon="7.32243">
        <ele>372.17</ele>
        <time>2016-10-05T15:04:05Z</time>
      </trkpt>
      <trkpt lat="45.10567" lon="7.32249">
        <ele>371.69</ele>
        <time>2016-10-05T15:04:47Z</time>
      </trkpt>
      <trkpt lat="45.10565" lon="7.32248">
        <ele>371.69</ele>
        <time>2016-10-05T15:05:25Z</time>
      </trkpt>
      <trkpt lat="45.10567" lon="7.32243">
        <ele>371.69</ele>
        <time>2016-10-05T15:06:01Z</time>
      </trkpt>
      <trkpt lat="45.10567" lon="7.32238">
        <ele>372.17</ele>
        <time>2016-10-05T15:06:44Z</time>
      </trkpt>
      <trkpt lat="45.10567" lon="7.3224">
        <ele>372.17</ele>
        <time>2016-10-05T15:07:22Z</time>
      </trkpt>
      <trkpt lat="45.10567" lon="7.32237">
        <ele>372.17</ele>
        <time>2016-10-05T15:07:55Z</time>
      </trkpt>
      <trkpt lat="45.10568" lon="7.32237">
        <ele>371.21</ele>
        <time>2016-10-05T15:08:26Z</time>
      </trkpt>
      <trkpt lat="45.10567" lon="7.32242">
        <ele>371.69</ele>
        <time>2016-10-05T15:08:58Z</time>
      </trkpt>
      <trkpt lat="45.10568" lon="7.32241">
        <ele>371.21</ele>
        <time>2016-10-05T15:09:28Z</time>
      </trkpt>
      <trkpt lat="45.10569" lon="7.32246">
        <ele>371.69</ele>
        <time>2016-10-05T15:10:14Z</time>
      </trkpt>
      <trkpt lat="45.10569" lon="7.32247">
        <ele>371.69</ele>
        <time>2016-10-05T15:10:57Z</time>
      </trkpt>
      <trkpt lat="45.10569" lon="7.32248">
        <ele>371.69</ele>
        <time>2016-10-05T15:11:37Z</time>
      </trkpt>
      <trkpt lat="45.10566" lon="7.32247">
        <ele>371.69</ele>
        <time>2016-10-05T15:12:11Z</time>
      </trkpt>
      <trkpt lat="45.10565" lon="7.32246">
        <ele>371.69</ele>
        <time>2016-10-05T15:12:43Z</time>
      </trkpt>
      <trkpt lat="45.10566" lon="7.32245">
        <ele>372.17</ele>
        <time>2016-10-05T15:13:20Z</time>
      </trkpt>
      <trkpt lat="45.10567" lon="7.3225">
        <ele>372.17</ele>
        <time>2016-10-05T15:14:07Z</time>
      </trkpt>
      <trkpt lat="45.10573" lon="7.32247">
        <ele>371.21</ele>
        <time>2016-10-05T15:14:43Z</time>
      </trkpt>
      <trkpt lat="45.10573" lon="7.32245">
        <ele>372.17</ele>
        <time>2016-10-05T15:15:16Z</time>
      </trkpt>
      <trkpt lat="45.10572" lon="7.32243">
        <ele>372.17</ele>
        <time>2016-10-05T15:15:22Z</time>
      </trkpt>
      <trkpt lat="45.10577" lon="7.32241">
        <ele>371.69</ele>
        <time>2016-10-05T15:15:36Z</time>
      </trkpt>
      <trkpt lat="45.1058" lon="7.32241">
        <ele>372.17</ele>
        <time>2016-10-05T15:15:38Z</time>
      </trkpt>
      <trkpt lat="45.10582" lon="7.32242">
        <ele>371.69</ele>
        <time>2016-10-05T15:15:40Z</time>
      </trkpt>
      <trkpt lat="45.10585" lon="7.32246">
        <ele>372.17</ele>
        <time>2016-10-05T15:15:43Z</time>
      </trkpt>
      <trkpt lat="45.10582" lon="7.32309">
        <ele>371.69</ele>
        <time>2016-10-05T15:15:56Z</time>
      </trkpt>
      <trkpt lat="45.1058" lon="7.32366">
        <ele>371.69</ele>
        <time>2016-10-05T15:16:05Z</time>
      </trkpt>
      <trkpt lat="45.1058" lon="7.32372">
        <ele>371.69</ele>
        <time>2016-10-05T15:16:06Z</time>
      </trkpt>
      <trkpt lat="45.10576" lon="7.32479">
        <ele>371.69</ele>
        <time>2016-10-05T15:16:22Z</time>
      </trkpt>
      <trkpt lat="45.10576" lon="7.32497">
        <ele>371.21</ele>
        <time>2016-10-05T15:16:31Z</time>
      </trkpt>
      <trkpt lat="45.10577" lon="7.32506">
        <ele>371.21</ele>
        <time>2016-10-05T15:16:54Z</time>
      </trkpt>
      <trkpt lat="45.10573" lon="7.32536">
        <ele>370.73</ele>
        <time>2016-10-05T15:17:00Z</time>
      </trkpt>
      <trkpt lat="45.10566" lon="7.32646">
        <ele>370.73</ele>
        <time>2016-10-05T15:17:15Z</time>
      </trkpt>
      <trkpt lat="45.10556" lon="7.32803">
        <ele>371.21</ele>
        <time>2016-10-05T15:17:35Z</time>
      </trkpt>
      <trkpt lat="45.10547" lon="7.3297">
        <ele>369.76</ele>
        <time>2016-10-05T15:17:54Z</time>
      </trkpt>
      <trkpt lat="45.10538" lon="7.33168">
        <ele>370.24</ele>
        <time>2016-10-05T15:18:16Z</time>
      </trkpt>
      <trkpt lat="45.10527" lon="7.33368">
        <ele>368.8</ele>
        <time>2016-10-05T15:18:39Z</time>
      </trkpt>
      <trkpt lat="45.10518" lon="7.3351">
        <ele>365.92</ele>
        <time>2016-10-05T15:18:55Z</time>
      </trkpt>
      <trkpt lat="45.10513" lon="7.33617">
        <ele>367.36</ele>
        <time>2016-10-05T15:19:07Z</time>
      </trkpt>
      <trkpt lat="45.10507" lon="7.33708">
        <ele>367.36</ele>
        <time>2016-10-05T15:19:17Z</time>
      </trkpt>
      <trkpt lat="45.10499" lon="7.3386">
        <ele>365.92</ele>
        <time>2016-10-05T15:19:34Z</time>
      </trkpt>
      <trkpt lat="45.1049" lon="7.34041">
        <ele>365.92</ele>
        <time>2016-10-05T15:19:54Z</time>
      </trkpt>
      <trkpt lat="45.10486" lon="7.34105">
        <ele>367.84</ele>
        <time>2016-10-05T15:20:01Z</time>
      </trkpt>
      <trkpt lat="45.10485" lon="7.34132">
        <ele>366.4</ele>
        <time>2016-10-05T15:20:04Z</time>
      </trkpt>
      <trkpt lat="45.10475" lon="7.34322">
        <ele>365.92</ele>
        <time>2016-10-05T15:20:25Z</time>
      </trkpt>
      <trkpt lat="45.10463" lon="7.3453">
        <ele>364.48</ele>
        <time>2016-10-05T15:20:48Z</time>
      </trkpt>
      <trkpt lat="45.10455" lon="7.34682">
        <ele>365.44</ele>
        <time>2016-10-05T15:21:05Z</time>
      </trkpt>
      <trkpt lat="45.10443" lon="7.3488">
        <ele>364.48</ele>
        <time>2016-10-05T15:21:27Z</time>
      </trkpt>
      <trkpt lat="45.10437" lon="7.34922">
        <ele>364.48</ele>
        <time>2016-10-05T15:21:32Z</time>
      </trkpt>
      <trkpt lat="45.10435" lon="7.3493">
        <ele>364.96</ele>
        <time>2016-10-05T15:21:33Z</time>
      </trkpt>
      <trkpt lat="45.10433" lon="7.34937">
        <ele>364.96</ele>
        <time>2016-10-05T15:21:34Z</time>
      </trkpt>
      <trkpt lat="45.1043" lon="7.34945">
        <ele>364.96</ele>
        <time>2016-10-05T15:21:35Z</time>
      </trkpt>
      <trkpt lat="45.10426" lon="7.34952">
        <ele>364.48</ele>
        <time>2016-10-05T15:21:36Z</time>
      </trkpt>
      <trkpt lat="45.10371" lon="7.35034">
        <ele>364</ele>
        <time>2016-10-05T15:21:49Z</time>
      </trkpt>
      <trkpt lat="45.10309" lon="7.35115">
        <ele>363.52</ele>
        <time>2016-10-05T15:22:03Z</time>
      </trkpt>
      <trkpt lat="45.10257" lon="7.35186">
        <ele>364</ele>
        <time>2016-10-05T15:22:15Z</time>
      </trkpt>
      <trkpt lat="45.10252" lon="7.35191">
        <ele>364</ele>
        <time>2016-10-05T15:22:16Z</time>
      </trkpt>
      <trkpt lat="45.10175" lon="7.35293">
        <ele>364.48</ele>
        <time>2016-10-05T15:22:34Z</time>
      </trkpt>
      <trkpt lat="45.1012" lon="7.35365">
        <ele>364</ele>
        <time>2016-10-05T15:22:49Z</time>
      </trkpt>
      <trkpt lat="45.10101" lon="7.35391">
        <ele>363.52</ele>
        <time>2016-10-05T15:22:54Z</time>
      </trkpt>
      <trkpt lat="45.10051" lon="7.35454">
        <ele>361.59</ele>
        <time>2016-10-05T15:23:06Z</time>
      </trkpt>
      <trkpt lat="45.10047" lon="7.35459">
        <ele>361.59</ele>
        <time>2016-10-05T15:23:07Z</time>
      </trkpt>
      <trkpt lat="45.10044" lon="7.35464">
        <ele>361.59</ele>
        <time>2016-10-05T15:23:08Z</time>
      </trkpt>
      <trkpt lat="45.10043" lon="7.3547">
        <ele>361.11</ele>
        <time>2016-10-05T15:23:09Z</time>
      </trkpt>
      <trkpt lat="45.10044" lon="7.35477">
        <ele>361.11</ele>
        <time>2016-10-05T15:23:10Z</time>
      </trkpt>
      <trkpt lat="45.10046" lon="7.35482">
        <ele>361.11</ele>
        <time>2016-10-05T15:23:11Z</time>
      </trkpt>
      <trkpt lat="45.10063" lon="7.35517">
        <ele>362.55</ele>
        <time>2016-10-05T15:23:17Z</time>
      </trkpt>
      <trkpt lat="45.10065" lon="7.35524">
        <ele>361.59</ele>
        <time>2016-10-05T15:23:18Z</time>
      </trkpt>
      <trkpt lat="45.10067" lon="7.35532">
        <ele>362.07</ele>
        <time>2016-10-05T15:23:19Z</time>
      </trkpt>
      <trkpt lat="45.10068" lon="7.35539">
        <ele>361.11</ele>
        <time>2016-10-05T15:23:20Z</time>
      </trkpt>
      <trkpt lat="45.10068" lon="7.35546">
        <ele>361.59</ele>
        <time>2016-10-05T15:23:21Z</time>
      </trkpt>
      <trkpt lat="45.10066" lon="7.35553">
        <ele>361.59</ele>
        <time>2016-10-05T15:23:22Z</time>
      </trkpt>
      <trkpt lat="45.10064" lon="7.35559">
        <ele>361.59</ele>
        <time>2016-10-05T15:23:23Z</time>
      </trkpt>
      <trkpt lat="45.10062" lon="7.35566">
        <ele>361.59</ele>
        <time>2016-10-05T15:23:24Z</time>
      </trkpt>
      <trkpt lat="45.10039" lon="7.35653">
        <ele>362.07</ele>
        <time>2016-10-05T15:23:37Z</time>
      </trkpt>
      <trkpt lat="45.10039" lon="7.35659">
        <ele>361.59</ele>
        <time>2016-10-05T15:23:38Z</time>
      </trkpt>
      <trkpt lat="45.10041" lon="7.35665">
        <ele>361.11</ele>
        <time>2016-10-05T15:23:39Z</time>
      </trkpt>
      <trkpt lat="45.10044" lon="7.35668">
        <ele>361.11</ele>
        <time>2016-10-05T15:23:40Z</time>
      </trkpt>
      <trkpt lat="45.10046" lon="7.35671">
        <ele>361.11</ele>
        <time>2016-10-05T15:23:41Z</time>
      </trkpt>
      <trkpt lat="45.10049" lon="7.35674">
        <ele>361.59</ele>
        <time>2016-10-05T15:23:42Z</time>
      </trkpt>
      <trkpt lat="45.10052" lon="7.35677">
        <ele>361.59</ele>
        <time>2016-10-05T15:23:43Z</time>
      </trkpt>
      <trkpt lat="45.10056" lon="7.35679">
        <ele>360.63</ele>
        <time>2016-10-05T15:23:44Z</time>
      </trkpt>
      <trkpt lat="45.10089" lon="7.35713">
        <ele>359.67</ele>
        <time>2016-10-05T15:23:55Z</time>
      </trkpt>
      <trkpt lat="45.10097" lon="7.35721">
        <ele>364.48</ele>
        <time>2016-10-05T15:23:59Z</time>
      </trkpt>
      <trkpt lat="45.10099" lon="7.35723">
        <ele>360.15</ele>
        <time>2016-10-05T15:24:00Z</time>
      </trkpt>
      <trkpt lat="45.10107" lon="7.35732">
        <ele>360.15</ele>
        <time>2016-10-05T15:24:05Z</time>
      </trkpt>
      <trkpt lat="45.10106" lon="7.35734">
        <ele>359.67</ele>
        <time>2016-10-05T15:24:06Z</time>
      </trkpt>
      <trkpt lat="45.10105" lon="7.35735">
        <ele>359.67</ele>
        <time>2016-10-05T15:24:07Z</time>
      </trkpt>
      <trkpt lat="45.10103" lon="7.35734">
        <ele>359.67</ele>
        <time>2016-10-05T15:24:08Z</time>
      </trkpt>
      <trkpt lat="45.10101" lon="7.35732">
        <ele>359.67</ele>
        <time>2016-10-05T15:24:09Z</time>
      </trkpt>
      <trkpt lat="45.10072" lon="7.35693">
        <ele>360.63</ele>
        <time>2016-10-05T15:24:22Z</time>
      </trkpt>
      <trkpt lat="45.10039" lon="7.35673">
        <ele>360.63</ele>
        <time>2016-10-05T15:24:32Z</time>
      </trkpt>
      <trkpt lat="45.10037" lon="7.35676">
        <ele>360.63</ele>
        <time>2016-10-05T15:24:33Z</time>
      </trkpt>
      <trkpt lat="45.10035" lon="7.35679">
        <ele>360.63</ele>
        <time>2016-10-05T15:24:34Z</time>
      </trkpt>
      <trkpt lat="45.10033" lon="7.35683">
        <ele>360.63</ele>
        <time>2016-10-05T15:24:35Z</time>
      </trkpt>
      <trkpt lat="45.1003" lon="7.35685">
        <ele>360.63</ele>
        <time>2016-10-05T15:24:36Z</time>
      </trkpt>
      <trkpt lat="45.10028" lon="7.35686">
        <ele>361.11</ele>
        <time>2016-10-05T15:24:37Z</time>
      </trkpt>
      <trkpt lat="45.10025" lon="7.35685">
        <ele>360.63</ele>
        <time>2016-10-05T15:24:38Z</time>
      </trkpt>
      <trkpt lat="45.10022" lon="7.35684">
        <ele>360.15</ele>
        <time>2016-10-05T15:24:39Z</time>
      </trkpt>
      <trkpt lat="45.10019" lon="7.35682">
        <ele>361.59</ele>
        <time>2016-10-05T15:24:40Z</time>
      </trkpt>
      <trkpt lat="45.10014" lon="7.35681">
        <ele>361.11</ele>
        <time>2016-10-05T15:24:42Z</time>
      </trkpt>
      <trkpt lat="45.10012" lon="7.35682">
        <ele>361.11</ele>
        <time>2016-10-05T15:24:43Z</time>
      </trkpt>
      <trkpt lat="45.1001" lon="7.35685">
        <ele>360.63</ele>
        <time>2016-10-05T15:24:44Z</time>
      </trkpt>
      <trkpt lat="45.10009" lon="7.35688">
        <ele>360.15</ele>
        <time>2016-10-05T15:24:45Z</time>
      </trkpt>
      <trkpt lat="45.10006" lon="7.35692">
        <ele>360.63</ele>
        <time>2016-10-05T15:24:46Z</time>
      </trkpt>
      <trkpt lat="45.09993" lon="7.35714">
        <ele>360.15</ele>
        <time>2016-10-05T15:24:51Z</time>
      </trkpt>
      <trkpt lat="45.09988" lon="7.35724">
        <ele>360.15</ele>
        <time>2016-10-05T15:24:53Z</time>
      </trkpt>
      <trkpt lat="45.09964" lon="7.3577">
        <ele>360.63</ele>
        <time>2016-10-05T15:25:05Z</time>
      </trkpt>
      <trkpt lat="45.09935" lon="7.35826">
        <ele>359.67</ele>
        <time>2016-10-05T15:25:16Z</time>
      </trkpt>
      <trkpt lat="45.09903" lon="7.35898">
        <ele>358.23</ele>
        <time>2016-10-05T15:25:31Z</time>
      </trkpt>
      <trkpt lat="45.09885" lon="7.35931">
        <ele>358.23</ele>
        <time>2016-10-05T15:25:42Z</time>
      </trkpt>
      <trkpt lat="45.09847" lon="7.35996">
        <ele>358.23</ele>
        <time>2016-10-05T15:25:56Z</time>
      </trkpt>
      <trkpt lat="45.09832" lon="7.36035">
        <ele>357.75</ele>
        <time>2016-10-05T15:26:06Z</time>
      </trkpt>
      <trkpt lat="45.09815" lon="7.36066">
        <ele>356.79</ele>
        <time>2016-10-05T15:26:12Z</time>
      </trkpt>
      <trkpt lat="45.09811" lon="7.36071">
        <ele>357.27</ele>
        <time>2016-10-05T15:26:13Z</time>
      </trkpt>
      <trkpt lat="45.09795" lon="7.36089">
        <ele>356.79</ele>
        <time>2016-10-05T15:26:19Z</time>
      </trkpt>
      <trkpt lat="45.09791" lon="7.36086">
        <ele>357.27</ele>
        <time>2016-10-05T15:26:21Z</time>
      </trkpt>
      <trkpt lat="45.09788" lon="7.36087">
        <ele>357.75</ele>
        <time>2016-10-05T15:26:22Z</time>
      </trkpt>
      <trkpt lat="45.09785" lon="7.36089">
        <ele>357.27</ele>
        <time>2016-10-05T15:26:23Z</time>
      </trkpt>
      <trkpt lat="45.09783" lon="7.36092">
        <ele>356.79</ele>
        <time>2016-10-05T15:26:24Z</time>
      </trkpt>
      <trkpt lat="45.09781" lon="7.36096">
        <ele>356.31</ele>
        <time>2016-10-05T15:26:25Z</time>
      </trkpt>
      <trkpt lat="45.0978" lon="7.361">
        <ele>356.79</ele>
        <time>2016-10-05T15:26:26Z</time>
      </trkpt>
      <trkpt lat="45.09754" lon="7.36188">
        <ele>356.79</ele>
        <time>2016-10-05T15:26:41Z</time>
      </trkpt>
      <trkpt lat="45.09751" lon="7.36201">
        <ele>356.79</ele>
        <time>2016-10-05T15:26:43Z</time>
      </trkpt>
      <trkpt lat="45.09749" lon="7.36206">
        <ele>356.31</ele>
        <time>2016-10-05T15:26:44Z</time>
      </trkpt>
      <trkpt lat="45.09746" lon="7.36211">
        <ele>356.31</ele>
        <time>2016-10-05T15:26:45Z</time>
      </trkpt>
      <trkpt lat="45.09745" lon="7.36216">
        <ele>356.79</ele>
        <time>2016-10-05T15:26:46Z</time>
      </trkpt>
      <trkpt lat="45.09744" lon="7.36222">
        <ele>356.31</ele>
        <time>2016-10-05T15:26:47Z</time>
      </trkpt>
      <trkpt lat="45.09743" lon="7.36227">
        <ele>356.31</ele>
        <time>2016-10-05T15:26:48Z</time>
      </trkpt>
      <trkpt lat="45.09734" lon="7.36266">
        <ele>356.79</ele>
        <time>2016-10-05T15:26:55Z</time>
      </trkpt>
      <trkpt lat="45.09727" lon="7.36285">
        <ele>356.31</ele>
        <time>2016-10-05T15:26:58Z</time>
      </trkpt>
      <trkpt lat="45.09693" lon="7.36402">
        <ele>355.83</ele>
        <time>2016-10-05T15:27:14Z</time>
      </trkpt>
      <trkpt lat="45.09663" lon="7.36509">
        <ele>355.83</ele>
        <time>2016-10-05T15:27:28Z</time>
      </trkpt>
      <trkpt lat="45.09629" lon="7.36619">
        <ele>355.83</ele>
        <time>2016-10-05T15:27:42Z</time>
      </trkpt>
      <trkpt lat="45.09627" lon="7.36627">
        <ele>355.83</ele>
        <time>2016-10-05T15:27:43Z</time>
      </trkpt>
      <trkpt lat="45.09602" lon="7.36705">
        <ele>355.83</ele>
        <time>2016-10-05T15:27:54Z</time>
      </trkpt>
      <trkpt lat="45.096" lon="7.36711">
        <ele>355.34</ele>
        <time>2016-10-05T15:27:55Z</time>
      </trkpt>
      <trkpt lat="45.09598" lon="7.36717">
        <ele>355.83</ele>
        <time>2016-10-05T15:27:56Z</time>
      </trkpt>
      <trkpt lat="45.09597" lon="7.36723">
        <ele>356.31</ele>
        <time>2016-10-05T15:27:57Z</time>
      </trkpt>
      <trkpt lat="45.09595" lon="7.36729">
        <ele>356.31</ele>
        <time>2016-10-05T15:27:58Z</time>
      </trkpt>
      <trkpt lat="45.09593" lon="7.36736">
        <ele>356.31</ele>
        <time>2016-10-05T15:27:59Z</time>
      </trkpt>
      <trkpt lat="45.09576" lon="7.36795">
        <ele>355.83</ele>
        <time>2016-10-05T15:28:08Z</time>
      </trkpt>
      <trkpt lat="45.09572" lon="7.36806">
        <ele>356.31</ele>
        <time>2016-10-05T15:28:10Z</time>
      </trkpt>
      <trkpt lat="45.09565" lon="7.36822">
        <ele>355.83</ele>
        <time>2016-10-05T15:28:13Z</time>
      </trkpt>
      <trkpt lat="45.09531" lon="7.36931">
        <ele>355.83</ele>
        <time>2016-10-05T15:28:29Z</time>
      </trkpt>
      <trkpt lat="45.09526" lon="7.36947">
        <ele>353.9</ele>
        <time>2016-10-05T15:28:31Z</time>
      </trkpt>
      <trkpt lat="45.09524" lon="7.36954">
        <ele>354.86</ele>
        <time>2016-10-05T15:28:32Z</time>
      </trkpt>
      <trkpt lat="45.09482" lon="7.37094">
        <ele>354.86</ele>
        <time>2016-10-05T15:28:50Z</time>
      </trkpt>
      <trkpt lat="45.09452" lon="7.37197">
        <ele>355.34</ele>
        <time>2016-10-05T15:29:05Z</time>
      </trkpt>
      <trkpt lat="45.09421" lon="7.37301">
        <ele>354.38</ele>
        <time>2016-10-05T15:29:20Z</time>
      </trkpt>
      <trkpt lat="45.0937" lon="7.37478">
        <ele>354.38</ele>
        <time>2016-10-05T15:29:42Z</time>
      </trkpt>
      <trkpt lat="45.09319" lon="7.37634">
        <ele>353.9</ele>
        <time>2016-10-05T15:30:01Z</time>
      </trkpt>
      <trkpt lat="45.09271" lon="7.378">
        <ele>353.42</ele>
        <time>2016-10-05T15:30:20Z</time>
      </trkpt>
      <trkpt lat="45.09223" lon="7.37966">
        <ele>352.94</ele>
        <time>2016-10-05T15:30:39Z</time>
      </trkpt>
      <trkpt lat="45.09221" lon="7.37975">
        <ele>352.94</ele>
        <time>2016-10-05T15:30:40Z</time>
      </trkpt>
      <trkpt lat="45.09218" lon="7.37983">
        <ele>352.46</ele>
        <time>2016-10-05T15:30:41Z</time>
      </trkpt>
      <trkpt lat="45.09214" lon="7.37991">
        <ele>352.46</ele>
        <time>2016-10-05T15:30:42Z</time>
      </trkpt>
      <trkpt lat="45.09195" lon="7.38054">
        <ele>351.5</ele>
        <time>2016-10-05T15:30:50Z</time>
      </trkpt>
      <trkpt lat="45.09192" lon="7.38061">
        <ele>351.5</ele>
        <time>2016-10-05T15:30:51Z</time>
      </trkpt>
      <trkpt lat="45.09188" lon="7.38066">
        <ele>351.98</ele>
        <time>2016-10-05T15:30:52Z</time>
      </trkpt>
      <trkpt lat="45.09183" lon="7.38069">
        <ele>351.98</ele>
        <time>2016-10-05T15:30:53Z</time>
      </trkpt>
      <trkpt lat="45.09178" lon="7.38071">
        <ele>352.46</ele>
        <time>2016-10-05T15:30:54Z</time>
      </trkpt>
      <trkpt lat="45.09172" lon="7.38072">
        <ele>352.46</ele>
        <time>2016-10-05T15:30:55Z</time>
      </trkpt>
      <trkpt lat="45.09166" lon="7.38073">
        <ele>352.94</ele>
        <time>2016-10-05T15:30:56Z</time>
      </trkpt>
      <trkpt lat="45.09084" lon="7.3808">
        <ele>351.98</ele>
        <time>2016-10-05T15:31:10Z</time>
      </trkpt>
      <trkpt lat="45.08986" lon="7.38089">
        <ele>351.5</ele>
        <time>2016-10-05T15:31:26Z</time>
      </trkpt>
      <trkpt lat="45.08981" lon="7.3809">
        <ele>351.98</ele>
        <time>2016-10-05T15:31:27Z</time>
      </trkpt>
      <trkpt lat="45.08926" lon="7.38086">
        <ele>352.46</ele>
        <time>2016-10-05T15:31:38Z</time>
      </trkpt>
      <trkpt lat="45.08921" lon="7.38086">
        <ele>352.94</ele>
        <time>2016-10-05T15:31:39Z</time>
      </trkpt>
      <trkpt lat="45.08916" lon="7.38089">
        <ele>351.98</ele>
        <time>2016-10-05T15:31:40Z</time>
      </trkpt>
      <trkpt lat="45.08912" lon="7.38093">
        <ele>352.94</ele>
        <time>2016-10-05T15:31:41Z</time>
      </trkpt>
      <trkpt lat="45.08908" lon="7.38098">
        <ele>351.98</ele>
        <time>2016-10-05T15:31:42Z</time>
      </trkpt>
      <trkpt lat="45.08905" lon="7.38105">
        <ele>352.94</ele>
        <time>2016-10-05T15:31:43Z</time>
      </trkpt>
      <trkpt lat="45.08903" lon="7.38112">
        <ele>351.98</ele>
        <time>2016-10-05T15:31:44Z</time>
      </trkpt>
      <trkpt lat="45.08902" lon="7.38119">
        <ele>351.98</ele>
        <time>2016-10-05T15:31:45Z</time>
      </trkpt>
      <trkpt lat="45.08902" lon="7.38127">
        <ele>351.5</ele>
        <time>2016-10-05T15:31:46Z</time>
      </trkpt>
      <trkpt lat="45.08901" lon="7.38134">
        <ele>351.5</ele>
        <time>2016-10-05T15:31:47Z</time>
      </trkpt>
      <trkpt lat="45.089" lon="7.38141">
        <ele>351.98</ele>
        <time>2016-10-05T15:31:48Z</time>
      </trkpt>
      <trkpt lat="45.08891" lon="7.38271">
        <ele>351.5</ele>
        <time>2016-10-05T15:32:05Z</time>
      </trkpt>
      <trkpt lat="45.08893" lon="7.38303">
        <ele>351.5</ele>
        <time>2016-10-05T15:32:09Z</time>
      </trkpt>
      <trkpt lat="45.08892" lon="7.38311">
        <ele>351.98</ele>
        <time>2016-10-05T15:32:10Z</time>
      </trkpt>
      <trkpt lat="45.08892" lon="7.38319">
        <ele>352.46</ele>
        <time>2016-10-05T15:32:11Z</time>
      </trkpt>
      <trkpt lat="45.08892" lon="7.38327">
        <ele>352.46</ele>
        <time>2016-10-05T15:32:12Z</time>
      </trkpt>
      <trkpt lat="45.08893" lon="7.38336">
        <ele>351.98</ele>
        <time>2016-10-05T15:32:13Z</time>
      </trkpt>
      <trkpt lat="45.08894" lon="7.38344">
        <ele>352.46</ele>
        <time>2016-10-05T15:32:14Z</time>
      </trkpt>
      <trkpt lat="45.08895" lon="7.38352">
        <ele>352.46</ele>
        <time>2016-10-05T15:32:15Z</time>
      </trkpt>
      <trkpt lat="45.08906" lon="7.38421">
        <ele>351.98</ele>
        <time>2016-10-05T15:32:24Z</time>
      </trkpt>
      <trkpt lat="45.08905" lon="7.38428">
        <ele>351.98</ele>
        <time>2016-10-05T15:32:25Z</time>
      </trkpt>
      <trkpt lat="45.08903" lon="7.38434">
        <ele>351.5</ele>
        <time>2016-10-05T15:32:26Z</time>
      </trkpt>
      <trkpt lat="45.08901" lon="7.3844">
        <ele>351.5</ele>
        <time>2016-10-05T15:32:27Z</time>
      </trkpt>
      <trkpt lat="45.08897" lon="7.38445">
        <ele>351.02</ele>
        <time>2016-10-05T15:32:28Z</time>
      </trkpt>
      <trkpt lat="45.08894" lon="7.38449">
        <ele>351.02</ele>
        <time>2016-10-05T15:32:29Z</time>
      </trkpt>
      <trkpt lat="45.08891" lon="7.38454">
        <ele>351.5</ele>
        <time>2016-10-05T15:32:30Z</time>
      </trkpt>
      <trkpt lat="45.08889" lon="7.3846">
        <ele>351.5</ele>
        <time>2016-10-05T15:32:31Z</time>
      </trkpt>
      <trkpt lat="45.08888" lon="7.38466">
        <ele>351.5</ele>
        <time>2016-10-05T15:32:32Z</time>
      </trkpt>
      <trkpt lat="45.08888" lon="7.38472">
        <ele>351.5</ele>
        <time>2016-10-05T15:32:33Z</time>
      </trkpt>
      <trkpt lat="45.0889" lon="7.38479">
        <ele>351.98</ele>
        <time>2016-10-05T15:32:34Z</time>
      </trkpt>
      <trkpt lat="45.08893" lon="7.38485">
        <ele>351.98</ele>
        <time>2016-10-05T15:32:35Z</time>
      </trkpt>
      <trkpt lat="45.08896" lon="7.3849">
        <ele>352.46</ele>
        <time>2016-10-05T15:32:36Z</time>
      </trkpt>
      <trkpt lat="45.08899" lon="7.38495">
        <ele>351.98</ele>
        <time>2016-10-05T15:32:37Z</time>
      </trkpt>
      <trkpt lat="45.08903" lon="7.385">
        <ele>351.5</ele>
        <time>2016-10-05T15:32:38Z</time>
      </trkpt>
      <trkpt lat="45.08905" lon="7.38507">
        <ele>351.02</ele>
        <time>2016-10-05T15:32:39Z</time>
      </trkpt>
      <trkpt lat="45.08906" lon="7.38514">
        <ele>351.98</ele>
        <time>2016-10-05T15:32:40Z</time>
      </trkpt>
      <trkpt lat="45.08905" lon="7.38521">
        <ele>351.98</ele>
        <time>2016-10-05T15:32:41Z</time>
      </trkpt>
      <trkpt lat="45.08905" lon="7.38528">
        <ele>351.98</ele>
        <time>2016-10-05T15:32:42Z</time>
      </trkpt>
      <trkpt lat="45.08896" lon="7.38579">
        <ele>351.02</ele>
        <time>2016-10-05T15:32:49Z</time>
      </trkpt>
      <trkpt lat="45.08894" lon="7.38586">
        <ele>351.98</ele>
        <time>2016-10-05T15:32:50Z</time>
      </trkpt>
      <trkpt lat="45.08891" lon="7.38592">
        <ele>351.98</ele>
        <time>2016-10-05T15:32:51Z</time>
      </trkpt>
      <trkpt lat="45.08887" lon="7.38598">
        <ele>352.46</ele>
        <time>2016-10-05T15:32:52Z</time>
      </trkpt>
      <trkpt lat="45.08884" lon="7.38604">
        <ele>351.98</ele>
        <time>2016-10-05T15:32:53Z</time>
      </trkpt>
      <trkpt lat="45.08815" lon="7.38706">
        <ele>351.5</ele>
        <time>2016-10-05T15:33:10Z</time>
      </trkpt>
      <trkpt lat="45.08736" lon="7.3883">
        <ele>351.98</ele>
        <time>2016-10-05T15:33:30Z</time>
      </trkpt>
      <trkpt lat="45.08734" lon="7.38837">
        <ele>352.94</ele>
        <time>2016-10-05T15:33:31Z</time>
      </trkpt>
      <trkpt lat="45.08732" lon="7.38845">
        <ele>351.98</ele>
        <time>2016-10-05T15:33:32Z</time>
      </trkpt>
      <trkpt lat="45.08731" lon="7.38853">
        <ele>352.46</ele>
        <time>2016-10-05T15:33:33Z</time>
      </trkpt>
      <trkpt lat="45.0873" lon="7.38861">
        <ele>351.98</ele>
        <time>2016-10-05T15:33:34Z</time>
      </trkpt>
      <trkpt lat="45.0873" lon="7.38869">
        <ele>352.46</ele>
        <time>2016-10-05T15:33:35Z</time>
      </trkpt>
      <trkpt lat="45.0873" lon="7.38877">
        <ele>352.46</ele>
        <time>2016-10-05T15:33:36Z</time>
      </trkpt>
      <trkpt lat="45.08732" lon="7.38902">
        <ele>351.5</ele>
        <time>2016-10-05T15:33:39Z</time>
      </trkpt>
      <trkpt lat="45.08733" lon="7.38911">
        <ele>351.98</ele>
        <time>2016-10-05T15:33:40Z</time>
      </trkpt>
      <trkpt lat="45.08735" lon="7.38918">
        <ele>352.46</ele>
        <time>2016-10-05T15:33:41Z</time>
      </trkpt>
      <trkpt lat="45.08739" lon="7.38923">
        <ele>351.98</ele>
        <time>2016-10-05T15:33:42Z</time>
      </trkpt>
      <trkpt lat="45.08743" lon="7.38927">
        <ele>351.5</ele>
        <time>2016-10-05T15:33:43Z</time>
      </trkpt>
      <trkpt lat="45.08747" lon="7.38932">
        <ele>352.46</ele>
        <time>2016-10-05T15:33:44Z</time>
      </trkpt>
      <trkpt lat="45.08812" lon="7.39007">
        <ele>351.02</ele>
        <time>2016-10-05T15:33:58Z</time>
      </trkpt>
      <trkpt lat="45.08857" lon="7.39061">
        <ele>349.1</ele>
        <time>2016-10-05T15:34:08Z</time>
      </trkpt>
      <trkpt lat="45.08859" lon="7.39067">
        <ele>349.1</ele>
        <time>2016-10-05T15:34:09Z</time>
      </trkpt>
      <trkpt lat="45.08859" lon="7.39072">
        <ele>349.1</ele>
        <time>2016-10-05T15:34:10Z</time>
      </trkpt>
      <trkpt lat="45.08857" lon="7.39078">
        <ele>349.1</ele>
        <time>2016-10-05T15:34:11Z</time>
      </trkpt>
      <trkpt lat="45.08855" lon="7.39083">
        <ele>348.62</ele>
        <time>2016-10-05T15:34:12Z</time>
      </trkpt>
      <trkpt lat="45.08852" lon="7.39089">
        <ele>349.1</ele>
        <time>2016-10-05T15:34:13Z</time>
      </trkpt>
      <trkpt lat="45.08808" lon="7.3919">
        <ele>349.1</ele>
        <time>2016-10-05T15:34:29Z</time>
      </trkpt>
      <trkpt lat="45.08767" lon="7.39288">
        <ele>348.62</ele>
        <time>2016-10-05T15:34:45Z</time>
      </trkpt>
      <trkpt lat="45.08768" lon="7.3929">
        <ele>349.1</ele>
        <time>2016-10-05T15:34:56Z</time>
      </trkpt>
      <trkpt lat="45.08767" lon="7.39289">
        <ele>348.62</ele>
        <time>2016-10-05T15:35:28Z</time>
      </trkpt>
      <trkpt lat="45.08767" lon="7.39289">
        <ele>348.62</ele>
        <time>2016-10-05T15:36:04Z</time>
      </trkpt>
      <trkpt lat="45.08761" lon="7.39305">
        <ele>348.62</ele>
        <time>2016-10-05T15:36:16Z</time>
      </trkpt>
      <trkpt lat="45.08731" lon="7.39374">
        <ele>349.1</ele>
        <time>2016-10-05T15:36:31Z</time>
      </trkpt>
      <trkpt lat="45.08695" lon="7.39462">
        <ele>348.62</ele>
        <time>2016-10-05T15:36:47Z</time>
      </trkpt>
      <trkpt lat="45.08687" lon="7.39477">
        <ele>348.62</ele>
        <time>2016-10-05T15:36:50Z</time>
      </trkpt>
      <trkpt lat="45.08661" lon="7.39514">
        <ele>348.62</ele>
        <time>2016-10-05T15:37:02Z</time>
      </trkpt>
      <trkpt lat="45.08654" lon="7.39515">
        <ele>348.62</ele>
        <time>2016-10-05T15:37:15Z</time>
      </trkpt>
      <trkpt lat="45.0865" lon="7.39519">
        <ele>349.1</ele>
        <time>2016-10-05T15:37:29Z</time>
      </trkpt>
      <trkpt lat="45.08651" lon="7.39526">
        <ele>348.62</ele>
        <time>2016-10-05T15:37:32Z</time>
      </trkpt>
      <trkpt lat="45.08652" lon="7.39527">
        <ele>348.62</ele>
        <time>2016-10-05T15:37:33Z</time>
      </trkpt>
      <trkpt lat="45.08654" lon="7.39526">
        <ele>348.62</ele>
        <time>2016-10-05T15:37:34Z</time>
      </trkpt>
      <trkpt lat="45.08655" lon="7.39526">
        <ele>348.62</ele>
        <time>2016-10-05T15:37:35Z</time>
      </trkpt>
      <trkpt lat="45.08683" lon="7.39506">
        <ele>348.62</ele>
        <time>2016-10-05T15:37:46Z</time>
      </trkpt>
      <trkpt lat="45.08688" lon="7.39488">
        <ele>348.62</ele>
        <time>2016-10-05T15:37:55Z</time>
      </trkpt>
      <trkpt lat="45.08686" lon="7.39486">
        <ele>348.13</ele>
        <time>2016-10-05T15:38:06Z</time>
      </trkpt>
      <trkpt lat="45.08684" lon="7.39486">
        <ele>348.62</ele>
        <time>2016-10-05T15:38:07Z</time>
      </trkpt>
      <trkpt lat="45.08682" lon="7.39486">
        <ele>348.13</ele>
        <time>2016-10-05T15:38:08Z</time>
      </trkpt>
      <trkpt lat="45.0868" lon="7.39487">
        <ele>347.65</ele>
        <time>2016-10-05T15:38:09Z</time>
      </trkpt>
      <trkpt lat="45.08677" lon="7.39487">
        <ele>347.65</ele>
        <time>2016-10-05T15:38:10Z</time>
      </trkpt>
      <trkpt lat="45.08674" lon="7.39486">
        <ele>347.17</ele>
        <time>2016-10-05T15:38:11Z</time>
      </trkpt>
      <trkpt lat="45.08671" lon="7.39484">
        <ele>346.69</ele>
        <time>2016-10-05T15:38:12Z</time>
      </trkpt>
      <trkpt lat="45.08658" lon="7.39482">
        <ele>345.73</ele>
        <time>2016-10-05T15:38:17Z</time>
      </trkpt>
      <trkpt lat="45.08657" lon="7.39485">
        <ele>345.25</ele>
        <time>2016-10-05T15:38:18Z</time>
      </trkpt>
      <trkpt lat="45.08658" lon="7.39489">
        <ele>345.25</ele>
        <time>2016-10-05T15:38:19Z</time>
      </trkpt>
      <trkpt lat="45.08659" lon="7.39494">
        <ele>344.77</ele>
        <time>2016-10-05T15:38:20Z</time>
      </trkpt>
      <trkpt lat="45.08662" lon="7.39499">
        <ele>344.29</ele>
        <time>2016-10-05T15:38:21Z</time>
      </trkpt>
      <trkpt lat="45.08666" lon="7.39503">
        <ele>344.29</ele>
        <time>2016-10-05T15:38:22Z</time>
      </trkpt>
      <trkpt lat="45.08719" lon="7.39556">
        <ele>344.29</ele>
        <time>2016-10-05T15:38:36Z</time>
      </trkpt>
      <trkpt lat="45.08733" lon="7.39558">
        <ele>345.73</ele>
        <time>2016-10-05T15:38:45Z</time>
      </trkpt>
      <trkpt lat="45.08734" lon="7.39559">
        <ele>345.73</ele>
        <time>2016-10-05T15:38:46Z</time>
      </trkpt>
      <trkpt lat="45.08735" lon="7.3956">
        <ele>346.21</ele>
        <time>2016-10-05T15:38:47Z</time>
      </trkpt>
      <trkpt lat="45.08735" lon="7.39561">
        <ele>346.21</ele>
        <time>2016-10-05T15:38:48Z</time>
      </trkpt>
      <trkpt lat="45.08734" lon="7.39564">
        <ele>346.21</ele>
        <time>2016-10-05T15:38:49Z</time>
      </trkpt>
      <trkpt lat="45.08734" lon="7.39566">
        <ele>346.21</ele>
        <time>2016-10-05T15:38:50Z</time>
      </trkpt>
      <trkpt lat="45.08733" lon="7.39583">
        <ele>347.17</ele>
        <time>2016-10-05T15:39:03Z</time>
      </trkpt>
      <trkpt lat="45.08731" lon="7.39585">
        <ele>346.69</ele>
        <time>2016-10-05T15:39:29Z</time>
      </trkpt>
      <trkpt lat="45.08733" lon="7.39587">
        <ele>347.17</ele>
        <time>2016-10-05T15:40:02Z</time>
      </trkpt>
      <trkpt lat="45.08737" lon="7.39593">
        <ele>346.69</ele>
        <time>2016-10-05T15:40:30Z</time>
      </trkpt>
      <trkpt lat="45.08726" lon="7.39627">
        <ele>346.69</ele>
        <time>2016-10-05T15:40:41Z</time>
      </trkpt>
      <trkpt lat="45.08698" lon="7.3972">
        <ele>347.17</ele>
        <time>2016-10-05T15:40:57Z</time>
      </trkpt>
      <trkpt lat="45.08671" lon="7.39812">
        <ele>346.69</ele>
        <time>2016-10-05T15:41:11Z</time>
      </trkpt>
      <trkpt lat="45.08656" lon="7.39859">
        <ele>346.69</ele>
        <time>2016-10-05T15:41:18Z</time>
      </trkpt>
      <trkpt lat="45.08616" lon="7.39992">
        <ele>347.17</ele>
        <time>2016-10-05T15:41:37Z</time>
      </trkpt>
      <trkpt lat="45.08596" lon="7.40065">
        <ele>345.73</ele>
        <time>2016-10-05T15:41:47Z</time>
      </trkpt>
      <trkpt lat="45.08594" lon="7.40072">
        <ele>346.21</ele>
        <time>2016-10-05T15:41:48Z</time>
      </trkpt>
      <trkpt lat="45.08591" lon="7.40079">
        <ele>345.73</ele>
        <time>2016-10-05T15:41:49Z</time>
      </trkpt>
      <trkpt lat="45.08554" lon="7.40211">
        <ele>344.77</ele>
        <time>2016-10-05T15:42:07Z</time>
      </trkpt>
      <trkpt lat="45.08541" lon="7.40256">
        <ele>344.77</ele>
        <time>2016-10-05T15:42:13Z</time>
      </trkpt>
      <trkpt lat="45.08539" lon="7.40264">
        <ele>346.69</ele>
        <time>2016-10-05T15:42:14Z</time>
      </trkpt>
      <trkpt lat="45.08532" lon="7.40287">
        <ele>345.25</ele>
        <time>2016-10-05T15:42:17Z</time>
      </trkpt>
      <trkpt lat="45.08489" lon="7.40426">
        <ele>345.25</ele>
        <time>2016-10-05T15:42:35Z</time>
      </trkpt>
      <trkpt lat="45.08446" lon="7.40567">
        <ele>344.77</ele>
        <time>2016-10-05T15:42:53Z</time>
      </trkpt>
      <trkpt lat="45.08413" lon="7.40669">
        <ele>342.37</ele>
        <time>2016-10-05T15:43:06Z</time>
      </trkpt>
      <trkpt lat="45.08409" lon="7.40677">
        <ele>342.85</ele>
        <time>2016-10-05T15:43:07Z</time>
      </trkpt>
      <trkpt lat="45.08406" lon="7.40683">
        <ele>342.37</ele>
        <time>2016-10-05T15:43:08Z</time>
      </trkpt>
      <trkpt lat="45.08403" lon="7.4069">
        <ele>342.37</ele>
        <time>2016-10-05T15:43:09Z</time>
      </trkpt>
      <trkpt lat="45.08402" lon="7.40698">
        <ele>342.37</ele>
        <time>2016-10-05T15:43:10Z</time>
      </trkpt>
      <trkpt lat="45.08401" lon="7.40707">
        <ele>342.37</ele>
        <time>2016-10-05T15:43:11Z</time>
      </trkpt>
      <trkpt lat="45.084" lon="7.40715">
        <ele>342.37</ele>
        <time>2016-10-05T15:43:12Z</time>
      </trkpt>
      <trkpt lat="45.08399" lon="7.40723">
        <ele>342.85</ele>
        <time>2016-10-05T15:43:13Z</time>
      </trkpt>
      <trkpt lat="45.08398" lon="7.4073">
        <ele>342.85</ele>
        <time>2016-10-05T15:43:14Z</time>
      </trkpt>
      <trkpt lat="45.08396" lon="7.40737">
        <ele>342.85</ele>
        <time>2016-10-05T15:43:15Z</time>
      </trkpt>
      <trkpt lat="45.08385" lon="7.4077">
        <ele>343.81</ele>
        <time>2016-10-05T15:43:20Z</time>
      </trkpt>
      <trkpt lat="45.08365" lon="7.40832">
        <ele>344.29</ele>
        <time>2016-10-05T15:43:31Z</time>
      </trkpt>
      <trkpt lat="45.08327" lon="7.40961">
        <ele>343.81</ele>
        <time>2016-10-05T15:43:51Z</time>
      </trkpt>
      <trkpt lat="45.083" lon="7.41084">
        <ele>344.77</ele>
        <time>2016-10-05T15:44:08Z</time>
      </trkpt>
      <trkpt lat="45.08295" lon="7.41105">
        <ele>344.77</ele>
        <time>2016-10-05T15:44:11Z</time>
      </trkpt>
      <trkpt lat="45.08293" lon="7.41112">
        <ele>345.25</ele>
        <time>2016-10-05T15:44:12Z</time>
      </trkpt>
      <trkpt lat="45.08291" lon="7.41118">
        <ele>344.77</ele>
        <time>2016-10-05T15:44:13Z</time>
      </trkpt>
      <trkpt lat="45.08289" lon="7.41124">
        <ele>345.25</ele>
        <time>2016-10-05T15:44:14Z</time>
      </trkpt>
      <trkpt lat="45.08287" lon="7.41131">
        <ele>345.25</ele>
        <time>2016-10-05T15:44:15Z</time>
      </trkpt>
      <trkpt lat="45.08286" lon="7.41137">
        <ele>344.77</ele>
        <time>2016-10-05T15:44:16Z</time>
      </trkpt>
      <trkpt lat="45.08286" lon="7.41143">
        <ele>344.29</ele>
        <time>2016-10-05T15:44:17Z</time>
      </trkpt>
      <trkpt lat="45.08285" lon="7.41149">
        <ele>344.29</ele>
        <time>2016-10-05T15:44:18Z</time>
      </trkpt>
      <trkpt lat="45.08268" lon="7.4124">
        <ele>346.69</ele>
        <time>2016-10-05T15:44:34Z</time>
      </trkpt>
      <trkpt lat="45.0826" lon="7.41319">
        <ele>348.62</ele>
        <time>2016-10-05T15:44:50Z</time>
      </trkpt>
      <trkpt lat="45.0826" lon="7.41337">
        <ele>348.62</ele>
        <time>2016-10-05T15:44:53Z</time>
      </trkpt>
      <trkpt lat="45.08265" lon="7.41405">
        <ele>344.77</ele>
        <time>2016-10-05T15:45:02Z</time>
      </trkpt>
      <trkpt lat="45.08264" lon="7.41445">
        <ele>344.77</ele>
        <time>2016-10-05T15:45:09Z</time>
      </trkpt>
      <trkpt lat="45.08265" lon="7.41447">
        <ele>343.81</ele>
        <time>2016-10-05T15:45:10Z</time>
      </trkpt>
      <trkpt lat="45.08266" lon="7.41449">
        <ele>343.81</ele>
        <time>2016-10-05T15:45:11Z</time>
      </trkpt>
      <trkpt lat="45.08267" lon="7.4145">
        <ele>344.77</ele>
        <time>2016-10-05T15:45:13Z</time>
      </trkpt>
      <trkpt lat="45.08268" lon="7.41452">
        <ele>344.29</ele>
        <time>2016-10-05T15:45:14Z</time>
      </trkpt>
      <trkpt lat="45.08268" lon="7.41454">
        <ele>343.81</ele>
        <time>2016-10-05T15:45:15Z</time>
      </trkpt>
      <trkpt lat="45.08268" lon="7.41457">
        <ele>344.77</ele>
        <time>2016-10-05T15:45:16Z</time>
      </trkpt>
      <trkpt lat="45.08267" lon="7.4146">
        <ele>344.29</ele>
        <time>2016-10-05T15:45:17Z</time>
      </trkpt>
      <trkpt lat="45.08266" lon="7.41463">
        <ele>343.81</ele>
        <time>2016-10-05T15:45:18Z</time>
      </trkpt>
      <trkpt lat="45.08264" lon="7.41467">
        <ele>344.29</ele>
        <time>2016-10-05T15:45:19Z</time>
      </trkpt>
      <trkpt lat="45.08263" lon="7.41471">
        <ele>345.25</ele>
        <time>2016-10-05T15:45:20Z</time>
      </trkpt>
      <trkpt lat="45.08264" lon="7.41506">
        <ele>344.29</ele>
        <time>2016-10-05T15:45:27Z</time>
      </trkpt>
      <trkpt lat="45.08267" lon="7.41511">
        <ele>343.81</ele>
        <time>2016-10-05T15:45:28Z</time>
      </trkpt>
      <trkpt lat="45.08271" lon="7.41514">
        <ele>343.81</ele>
        <time>2016-10-05T15:45:29Z</time>
      </trkpt>
      <trkpt lat="45.08276" lon="7.41517">
        <ele>344.29</ele>
        <time>2016-10-05T15:45:30Z</time>
      </trkpt>
      <trkpt lat="45.0828" lon="7.41519">
        <ele>343.81</ele>
        <time>2016-10-05T15:45:31Z</time>
      </trkpt>
      <trkpt lat="45.08285" lon="7.41522">
        <ele>343.81</ele>
        <time>2016-10-05T15:45:32Z</time>
      </trkpt>
      <trkpt lat="45.08289" lon="7.41526">
        <ele>344.29</ele>
        <time>2016-10-05T15:45:33Z</time>
      </trkpt>
      <trkpt lat="45.08293" lon="7.41531">
        <ele>343.81</ele>
        <time>2016-10-05T15:45:34Z</time>
      </trkpt>
      <trkpt lat="45.08296" lon="7.41537">
        <ele>343.81</ele>
        <time>2016-10-05T15:45:35Z</time>
      </trkpt>
      <trkpt lat="45.083" lon="7.41543">
        <ele>344.29</ele>
        <time>2016-10-05T15:45:36Z</time>
      </trkpt>
      <trkpt lat="45.08323" lon="7.41586">
        <ele>343.33</ele>
        <time>2016-10-05T15:45:43Z</time>
      </trkpt>
      <trkpt lat="45.08326" lon="7.41593">
        <ele>343.33</ele>
        <time>2016-10-05T15:45:44Z</time>
      </trkpt>
      <trkpt lat="45.08327" lon="7.41601">
        <ele>343.33</ele>
        <time>2016-10-05T15:45:45Z</time>
      </trkpt>
      <trkpt lat="45.08329" lon="7.41608">
        <ele>343.33</ele>
        <time>2016-10-05T15:45:46Z</time>
      </trkpt>
      <trkpt lat="45.08329" lon="7.41616">
        <ele>344.29</ele>
        <time>2016-10-05T15:45:47Z</time>
      </trkpt>
      <trkpt lat="45.08329" lon="7.41623">
        <ele>343.81</ele>
        <time>2016-10-05T15:45:48Z</time>
      </trkpt>
      <trkpt lat="45.08329" lon="7.4163">
        <ele>343.81</ele>
        <time>2016-10-05T15:45:49Z</time>
      </trkpt>
      <trkpt lat="45.08328" lon="7.41638">
        <ele>343.33</ele>
        <time>2016-10-05T15:45:50Z</time>
      </trkpt>
      <trkpt lat="45.08326" lon="7.41645">
        <ele>343.33</ele>
        <time>2016-10-05T15:45:51Z</time>
      </trkpt>
      <trkpt lat="45.08324" lon="7.41652">
        <ele>343.81</ele>
        <time>2016-10-05T15:45:52Z</time>
      </trkpt>
      <trkpt lat="45.08322" lon="7.41658">
        <ele>343.81</ele>
        <time>2016-10-05T15:45:53Z</time>
      </trkpt>
      <trkpt lat="45.08299" lon="7.4179">
        <ele>343.33</ele>
        <time>2016-10-05T15:46:11Z</time>
      </trkpt>
      <trkpt lat="45.08296" lon="7.41889">
        <ele>343.33</ele>
        <time>2016-10-05T15:46:24Z</time>
      </trkpt>
      <trkpt lat="45.08293" lon="7.41896">
        <ele>343.33</ele>
        <time>2016-10-05T15:46:25Z</time>
      </trkpt>
      <trkpt lat="45.08289" lon="7.41901">
        <ele>343.33</ele>
        <time>2016-10-05T15:46:26Z</time>
      </trkpt>
      <trkpt lat="45.08281" lon="7.41912">
        <ele>344.29</ele>
        <time>2016-10-05T15:46:28Z</time>
      </trkpt>
      <trkpt lat="45.08278" lon="7.41919">
        <ele>343.81</ele>
        <time>2016-10-05T15:46:29Z</time>
      </trkpt>
      <trkpt lat="45.08276" lon="7.41926">
        <ele>343.33</ele>
        <time>2016-10-05T15:46:30Z</time>
      </trkpt>
      <trkpt lat="45.08275" lon="7.41934">
        <ele>343.33</ele>
        <time>2016-10-05T15:46:31Z</time>
      </trkpt>
      <trkpt lat="45.08275" lon="7.41941">
        <ele>343.33</ele>
        <time>2016-10-05T15:46:32Z</time>
      </trkpt>
      <trkpt lat="45.08276" lon="7.41949">
        <ele>343.33</ele>
        <time>2016-10-05T15:46:33Z</time>
      </trkpt>
      <trkpt lat="45.08278" lon="7.41957">
        <ele>343.33</ele>
        <time>2016-10-05T15:46:34Z</time>
      </trkpt>
      <trkpt lat="45.08281" lon="7.41964">
        <ele>343.33</ele>
        <time>2016-10-05T15:46:35Z</time>
      </trkpt>
      <trkpt lat="45.08284" lon="7.4197">
        <ele>342.85</ele>
        <time>2016-10-05T15:46:36Z</time>
      </trkpt>
      <trkpt lat="45.08288" lon="7.41976">
        <ele>343.81</ele>
        <time>2016-10-05T15:46:37Z</time>
      </trkpt>
      <trkpt lat="45.08292" lon="7.41981">
        <ele>342.85</ele>
        <time>2016-10-05T15:46:38Z</time>
      </trkpt>
      <trkpt lat="45.08296" lon="7.41987">
        <ele>343.33</ele>
        <time>2016-10-05T15:46:39Z</time>
      </trkpt>
      <trkpt lat="45.083" lon="7.41993">
        <ele>343.81</ele>
        <time>2016-10-05T15:46:40Z</time>
      </trkpt>
      <trkpt lat="45.08303" lon="7.42">
        <ele>343.33</ele>
        <time>2016-10-05T15:46:41Z</time>
      </trkpt>
      <trkpt lat="45.08304" lon="7.42008">
        <ele>342.85</ele>
        <time>2016-10-05T15:46:42Z</time>
      </trkpt>
      <trkpt lat="45.08305" lon="7.42016">
        <ele>342.85</ele>
        <time>2016-10-05T15:46:43Z</time>
      </trkpt>
      <trkpt lat="45.08306" lon="7.42024">
        <ele>342.85</ele>
        <time>2016-10-05T15:46:44Z</time>
      </trkpt>
      <trkpt lat="45.08311" lon="7.42185">
        <ele>341.89</ele>
        <time>2016-10-05T15:47:03Z</time>
      </trkpt>
      <trkpt lat="45.08313" lon="7.42253">
        <ele>342.37</ele>
        <time>2016-10-05T15:47:11Z</time>
      </trkpt>
      <trkpt lat="45.08313" lon="7.42261">
        <ele>342.37</ele>
        <time>2016-10-05T15:47:12Z</time>
      </trkpt>
      <trkpt lat="45.08317" lon="7.42436">
        <ele>342.37</ele>
        <time>2016-10-05T15:47:32Z</time>
      </trkpt>
      <trkpt lat="45.08324" lon="7.42579">
        <ele>341.41</ele>
        <time>2016-10-05T15:47:49Z</time>
      </trkpt>
      <trkpt lat="45.08328" lon="7.42657">
        <ele>340.92</ele>
        <time>2016-10-05T15:47:58Z</time>
      </trkpt>
      <trkpt lat="45.08329" lon="7.42665">
        <ele>340.44</ele>
        <time>2016-10-05T15:47:59Z</time>
      </trkpt>
      <trkpt lat="45.08333" lon="7.42822">
        <ele>340.92</ele>
        <time>2016-10-05T15:48:17Z</time>
      </trkpt>
      <trkpt lat="45.08337" lon="7.42941">
        <ele>339.96</ele>
        <time>2016-10-05T15:48:31Z</time>
      </trkpt>
      <trkpt lat="45.08339" lon="7.43099">
        <ele>339.48</ele>
        <time>2016-10-05T15:48:49Z</time>
      </trkpt>
      <trkpt lat="45.0834" lon="7.43169">
        <ele>339.48</ele>
        <time>2016-10-05T15:48:57Z</time>
      </trkpt>
      <trkpt lat="45.08344" lon="7.43299">
        <ele>339.48</ele>
        <time>2016-10-05T15:49:12Z</time>
      </trkpt>
      <trkpt lat="45.08347" lon="7.43445">
        <ele>339.48</ele>
        <time>2016-10-05T15:49:29Z</time>
      </trkpt>
      <trkpt lat="45.0835" lon="7.43561">
        <ele>339.48</ele>
        <time>2016-10-05T15:49:43Z</time>
      </trkpt>
      <trkpt lat="45.08348" lon="7.43707">
        <ele>339.48</ele>
        <time>2016-10-05T15:50:01Z</time>
      </trkpt>
      <trkpt lat="45.08352" lon="7.43914">
        <ele>339</ele>
        <time>2016-10-05T15:50:25Z</time>
      </trkpt>
      <trkpt lat="45.08356" lon="7.44094">
        <ele>338.52</ele>
        <time>2016-10-05T15:50:46Z</time>
      </trkpt>
      <trkpt lat="45.0836" lon="7.44292">
        <ele>339</ele>
        <time>2016-10-05T15:51:09Z</time>
      </trkpt>
      <trkpt lat="45.08366" lon="7.44498">
        <ele>339</ele>
        <time>2016-10-05T15:51:33Z</time>
      </trkpt>
      <trkpt lat="45.08379" lon="7.44672">
        <ele>338.04</ele>
        <time>2016-10-05T15:51:53Z</time>
      </trkpt>
      <trkpt lat="45.0839" lon="7.44829">
        <ele>337.56</ele>
        <time>2016-10-05T15:52:12Z</time>
      </trkpt>
      <trkpt lat="45.0839" lon="7.44836">
        <ele>337.56</ele>
        <time>2016-10-05T15:52:13Z</time>
      </trkpt>
      <trkpt lat="45.08388" lon="7.44864">
        <ele>337.08</ele>
        <time>2016-10-05T15:52:17Z</time>
      </trkpt>
      <trkpt lat="45.08389" lon="7.44871">
        <ele>337.08</ele>
        <time>2016-10-05T15:52:18Z</time>
      </trkpt>
      <trkpt lat="45.0839" lon="7.44879">
        <ele>337.08</ele>
        <time>2016-10-05T15:52:19Z</time>
      </trkpt>
      <trkpt lat="45.08395" lon="7.44913">
        <ele>337.08</ele>
        <time>2016-10-05T15:52:23Z</time>
      </trkpt>
      <trkpt lat="45.08395" lon="7.44921">
        <ele>336.6</ele>
        <time>2016-10-05T15:52:24Z</time>
      </trkpt>
      <trkpt lat="45.0839" lon="7.45154">
        <ele>336.12</ele>
        <time>2016-10-05T15:52:50Z</time>
      </trkpt>
      <trkpt lat="45.08396" lon="7.45403">
        <ele>334.2</ele>
        <time>2016-10-05T15:53:17Z</time>
      </trkpt>
      <trkpt lat="45.08401" lon="7.45608">
        <ele>332.27</ele>
        <time>2016-10-05T15:53:39Z</time>
      </trkpt>
      <trkpt lat="45.08407" lon="7.45824">
        <ele>332.27</ele>
        <time>2016-10-05T15:54:02Z</time>
      </trkpt>
      <trkpt lat="45.08412" lon="7.46029">
        <ele>331.79</ele>
        <time>2016-10-05T15:54:25Z</time>
      </trkpt>
      <trkpt lat="45.08412" lon="7.46224">
        <ele>331.79</ele>
        <time>2016-10-05T15:54:48Z</time>
      </trkpt>
      <trkpt lat="45.08406" lon="7.46256">
        <ele>332.75</ele>
        <time>2016-10-05T15:54:52Z</time>
      </trkpt>
      <trkpt lat="45.08405" lon="7.46264">
        <ele>332.27</ele>
        <time>2016-10-05T15:54:53Z</time>
      </trkpt>
      <trkpt lat="45.08406" lon="7.46272">
        <ele>332.75</ele>
        <time>2016-10-05T15:54:54Z</time>
      </trkpt>
      <trkpt lat="45.08407" lon="7.46281">
        <ele>333.23</ele>
        <time>2016-10-05T15:54:55Z</time>
      </trkpt>
      <trkpt lat="45.0841" lon="7.46289">
        <ele>332.75</ele>
        <time>2016-10-05T15:54:56Z</time>
      </trkpt>
      <trkpt lat="45.08412" lon="7.46297">
        <ele>332.75</ele>
        <time>2016-10-05T15:54:57Z</time>
      </trkpt>
      <trkpt lat="45.08417" lon="7.46313">
        <ele>332.75</ele>
        <time>2016-10-05T15:54:59Z</time>
      </trkpt>
      <trkpt lat="45.08419" lon="7.46321">
        <ele>332.75</ele>
        <time>2016-10-05T15:55:00Z</time>
      </trkpt>
      <trkpt lat="45.0842" lon="7.4633">
        <ele>332.27</ele>
        <time>2016-10-05T15:55:01Z</time>
      </trkpt>
      <trkpt lat="45.08425" lon="7.46375">
        <ele>332.27</ele>
        <time>2016-10-05T15:55:06Z</time>
      </trkpt>
      <trkpt lat="45.08427" lon="7.46551">
        <ele>331.79</ele>
        <time>2016-10-05T15:55:26Z</time>
      </trkpt>
      <trkpt lat="45.08431" lon="7.46695">
        <ele>331.31</ele>
        <time>2016-10-05T15:55:43Z</time>
      </trkpt>
      <trkpt lat="45.08434" lon="7.46866">
        <ele>331.79</ele>
        <time>2016-10-05T15:56:03Z</time>
      </trkpt>
      <trkpt lat="45.08439" lon="7.47022">
        <ele>331.31</ele>
        <time>2016-10-05T15:56:21Z</time>
      </trkpt>
      <trkpt lat="45.08446" lon="7.4721">
        <ele>332.27</ele>
        <time>2016-10-05T15:56:43Z</time>
      </trkpt>
      <trkpt lat="45.08447" lon="7.47364">
        <ele>331.31</ele>
        <time>2016-10-05T15:57:01Z</time>
      </trkpt>
      <trkpt lat="45.08448" lon="7.47433">
        <ele>332.27</ele>
        <time>2016-10-05T15:57:09Z</time>
      </trkpt>
      <trkpt lat="45.08449" lon="7.47441">
        <ele>332.75</ele>
        <time>2016-10-05T15:57:10Z</time>
      </trkpt>
      <trkpt lat="45.08455" lon="7.47575">
        <ele>332.75</ele>
        <time>2016-10-05T15:57:25Z</time>
      </trkpt>
      <trkpt lat="45.0846" lon="7.47739">
        <ele>331.79</ele>
        <time>2016-10-05T15:57:44Z</time>
      </trkpt>
      <trkpt lat="45.08465" lon="7.47904">
        <ele>331.79</ele>
        <time>2016-10-05T15:58:03Z</time>
      </trkpt>
      <trkpt lat="45.08469" lon="7.48056">
        <ele>331.79</ele>
        <time>2016-10-05T15:58:20Z</time>
      </trkpt>
      <trkpt lat="45.08471" lon="7.48128">
        <ele>331.79</ele>
        <time>2016-10-05T15:58:29Z</time>
      </trkpt>
      <trkpt lat="45.0847" lon="7.48136">
        <ele>331.31</ele>
        <time>2016-10-05T15:58:30Z</time>
      </trkpt>
      <trkpt lat="45.08469" lon="7.48143">
        <ele>331.79</ele>
        <time>2016-10-05T15:58:31Z</time>
      </trkpt>
      <trkpt lat="45.08466" lon="7.48149">
        <ele>331.79</ele>
        <time>2016-10-05T15:58:32Z</time>
      </trkpt>
      <trkpt lat="45.08464" lon="7.48156">
        <ele>331.31</ele>
        <time>2016-10-05T15:58:33Z</time>
      </trkpt>
      <trkpt lat="45.08457" lon="7.48175">
        <ele>331.79</ele>
        <time>2016-10-05T15:58:36Z</time>
      </trkpt>
      <trkpt lat="45.08455" lon="7.48182">
        <ele>331.79</ele>
        <time>2016-10-05T15:58:37Z</time>
      </trkpt>
      <trkpt lat="45.08456" lon="7.48189">
        <ele>332.27</ele>
        <time>2016-10-05T15:58:38Z</time>
      </trkpt>
      <trkpt lat="45.08457" lon="7.48197">
        <ele>332.27</ele>
        <time>2016-10-05T15:58:39Z</time>
      </trkpt>
      <trkpt lat="45.08459" lon="7.48205">
        <ele>332.27</ele>
        <time>2016-10-05T15:58:40Z</time>
      </trkpt>
      <trkpt lat="45.08474" lon="7.48305">
        <ele>332.75</ele>
        <time>2016-10-05T15:58:53Z</time>
      </trkpt>
      <trkpt lat="45.08475" lon="7.4832">
        <ele>331.79</ele>
        <time>2016-10-05T15:58:55Z</time>
      </trkpt>
      <trkpt lat="45.08477" lon="7.48451">
        <ele>333.71</ele>
        <time>2016-10-05T15:59:12Z</time>
      </trkpt>
      <trkpt lat="45.0848" lon="7.48623">
        <ele>335.64</ele>
        <time>2016-10-05T15:59:34Z</time>
      </trkpt>
      <trkpt lat="45.08484" lon="7.48776">
        <ele>337.08</ele>
        <time>2016-10-05T15:59:55Z</time>
      </trkpt>
      <trkpt lat="45.08486" lon="7.48918">
        <ele>338.04</ele>
        <time>2016-10-05T16:00:14Z</time>
      </trkpt>
      <trkpt lat="45.0847" lon="7.49026">
        <ele>339</ele>
        <time>2016-10-05T16:00:30Z</time>
      </trkpt>
      <trkpt lat="45.0846" lon="7.4906">
        <ele>339.48</ele>
        <time>2016-10-05T16:00:36Z</time>
      </trkpt>
      <trkpt lat="45.08458" lon="7.49066">
        <ele>339.48</ele>
        <time>2016-10-05T16:00:37Z</time>
      </trkpt>
      <trkpt lat="45.08449" lon="7.49095">
        <ele>339.96</ele>
        <time>2016-10-05T16:00:42Z</time>
      </trkpt>
      <trkpt lat="45.08416" lon="7.49179">
        <ele>340.92</ele>
        <time>2016-10-05T16:00:57Z</time>
      </trkpt>
      <trkpt lat="45.08405" lon="7.49229">
        <ele>341.89</ele>
        <time>2016-10-05T16:01:11Z</time>
      </trkpt>
      <trkpt lat="45.08401" lon="7.4923">
        <ele>342.37</ele>
        <time>2016-10-05T16:01:34Z</time>
      </trkpt>
      <trkpt lat="45.08402" lon="7.49229">
        <ele>341.41</ele>
        <time>2016-10-05T16:02:11Z</time>
      </trkpt>
      <trkpt lat="45.08403" lon="7.49231">
        <ele>341.89</ele>
        <time>2016-10-05T16:02:34Z</time>
      </trkpt>
      <trkpt lat="45.08404" lon="7.49234">
        <ele>342.85</ele>
        <time>2016-10-05T16:02:51Z</time>
      </trkpt>
      <trkpt lat="45.08404" lon="7.49238">
        <ele>341.89</ele>
        <time>2016-10-05T16:03:28Z</time>
      </trkpt>
      <trkpt lat="45.08404" lon="7.49232">
        <ele>341.89</ele>
        <time>2016-10-05T16:03:59Z</time>
      </trkpt>
      <trkpt lat="45.08403" lon="7.49238">
        <ele>341.89</ele>
        <time>2016-10-05T16:04:33Z</time>
      </trkpt>
      <trkpt lat="45.08402" lon="7.49237">
        <ele>340.44</ele>
        <time>2016-10-05T16:04:49Z</time>
      </trkpt>
      <trkpt lat="45.08401" lon="7.49236">
        <ele>341.41</ele>
        <time>2016-10-05T16:04:51Z</time>
      </trkpt>
      <trkpt lat="45.08402" lon="7.49233">
        <ele>341.89</ele>
        <time>2016-10-05T16:05:20Z</time>
      </trkpt>
      <trkpt lat="45.08403" lon="7.49231">
        <ele>340.92</ele>
        <time>2016-10-05T16:05:50Z</time>
      </trkpt>
      <trkpt lat="45.08402" lon="7.49246">
        <ele>341.41</ele>
        <time>2016-10-05T16:06:10Z</time>
      </trkpt>
      <trkpt lat="45.08399" lon="7.49306">
        <ele>341.89</ele>
        <time>2016-10-05T16:06:24Z</time>
      </trkpt>
      <trkpt lat="45.08408" lon="7.49387">
        <ele>343.33</ele>
        <time>2016-10-05T16:06:39Z</time>
      </trkpt>
      <trkpt lat="45.08424" lon="7.49457">
        <ele>344.77</ele>
        <time>2016-10-05T16:06:53Z</time>
      </trkpt>
      <trkpt lat="45.08436" lon="7.49534">
        <ele>346.69</ele>
        <time>2016-10-05T16:07:10Z</time>
      </trkpt>
      <trkpt lat="45.08432" lon="7.49607">
        <ele>349.58</ele>
        <time>2016-10-05T16:07:27Z</time>
      </trkpt>
      <trkpt lat="45.08428" lon="7.4967">
        <ele>351.02</ele>
        <time>2016-10-05T16:07:42Z</time>
      </trkpt>
      <trkpt lat="45.08418" lon="7.49726">
        <ele>352.94</ele>
        <time>2016-10-05T16:07:56Z</time>
      </trkpt>
      <trkpt lat="45.08402" lon="7.49778">
        <ele>354.38</ele>
        <time>2016-10-05T16:08:09Z</time>
      </trkpt>
      <trkpt lat="45.0838" lon="7.4984">
        <ele>355.34</ele>
        <time>2016-10-05T16:08:23Z</time>
      </trkpt>
      <trkpt lat="45.08343" lon="7.4993">
        <ele>355.83</ele>
        <time>2016-10-05T16:08:40Z</time>
      </trkpt>
      <trkpt lat="45.0833" lon="7.49971">
        <ele>355.34</ele>
        <time>2016-10-05T16:08:47Z</time>
      </trkpt>
      <trkpt lat="45.08286" lon="7.50083">
        <ele>356.79</ele>
        <time>2016-10-05T16:09:06Z</time>
      </trkpt>
      <trkpt lat="45.08261" lon="7.50136">
        <ele>357.75</ele>
        <time>2016-10-05T16:09:16Z</time>
      </trkpt>
      <trkpt lat="45.08258" lon="7.50142">
        <ele>357.75</ele>
        <time>2016-10-05T16:09:17Z</time>
      </trkpt>
      <trkpt lat="45.08257" lon="7.50149">
        <ele>357.75</ele>
        <time>2016-10-05T16:09:18Z</time>
      </trkpt>
      <trkpt lat="45.0825" lon="7.50181">
        <ele>356.79</ele>
        <time>2016-10-05T16:09:23Z</time>
      </trkpt>
      <trkpt lat="45.08206" lon="7.50288">
        <ele>355.83</ele>
        <time>2016-10-05T16:09:40Z</time>
      </trkpt>
      <trkpt lat="45.08155" lon="7.50424">
        <ele>355.83</ele>
        <time>2016-10-05T16:09:59Z</time>
      </trkpt>
      <trkpt lat="45.08109" lon="7.50551">
        <ele>355.34</ele>
        <time>2016-10-05T16:10:15Z</time>
      </trkpt>
      <trkpt lat="45.081" lon="7.50574">
        <ele>353.9</ele>
        <time>2016-10-05T16:10:18Z</time>
      </trkpt>
      <trkpt lat="45.08054" lon="7.50699">
        <ele>354.38</ele>
        <time>2016-10-05T16:10:34Z</time>
      </trkpt>
      <trkpt lat="45.08027" lon="7.50776">
        <ele>354.38</ele>
        <time>2016-10-05T16:10:44Z</time>
      </trkpt>
      <trkpt lat="45.08024" lon="7.50782">
        <ele>354.38</ele>
        <time>2016-10-05T16:10:45Z</time>
      </trkpt>
      <trkpt lat="45.08021" lon="7.50787">
        <ele>354.38</ele>
        <time>2016-10-05T16:10:46Z</time>
      </trkpt>
      <trkpt lat="45.08003" lon="7.50814">
        <ele>353.9</ele>
        <time>2016-10-05T16:10:53Z</time>
      </trkpt>
      <trkpt lat="45.08002" lon="7.5082">
        <ele>354.38</ele>
        <time>2016-10-05T16:10:54Z</time>
      </trkpt>
      <trkpt lat="45.08002" lon="7.50826">
        <ele>354.38</ele>
        <time>2016-10-05T16:10:55Z</time>
      </trkpt>
      <trkpt lat="45.08001" lon="7.5084">
        <ele>353.9</ele>
        <time>2016-10-05T16:10:57Z</time>
      </trkpt>
      <trkpt lat="45.08" lon="7.50846">
        <ele>354.38</ele>
        <time>2016-10-05T16:10:58Z</time>
      </trkpt>
      <trkpt lat="45.07979" lon="7.50911">
        <ele>353.42</ele>
        <time>2016-10-05T16:11:11Z</time>
      </trkpt>
      <trkpt lat="45.07951" lon="7.5098">
        <ele>353.42</ele>
        <time>2016-10-05T16:11:24Z</time>
      </trkpt>
      <trkpt lat="45.07944" lon="7.50997">
        <ele>352.94</ele>
        <time>2016-10-05T16:11:27Z</time>
      </trkpt>
      <trkpt lat="45.07943" lon="7.51003">
        <ele>352.94</ele>
        <time>2016-10-05T16:11:28Z</time>
      </trkpt>
      <trkpt lat="45.07941" lon="7.51007">
        <ele>352.46</ele>
        <time>2016-10-05T16:11:29Z</time>
      </trkpt>
      <trkpt lat="45.07939" lon="7.51011">
        <ele>352.94</ele>
        <time>2016-10-05T16:11:30Z</time>
      </trkpt>
      <trkpt lat="45.07936" lon="7.51016">
        <ele>351.98</ele>
        <time>2016-10-05T16:11:31Z</time>
      </trkpt>
      <trkpt lat="45.07931" lon="7.51027">
        <ele>351.98</ele>
        <time>2016-10-05T16:11:33Z</time>
      </trkpt>
      <trkpt lat="45.07896" lon="7.51121">
        <ele>351.98</ele>
        <time>2016-10-05T16:11:47Z</time>
      </trkpt>
      <trkpt lat="45.07869" lon="7.51199">
        <ele>352.46</ele>
        <time>2016-10-05T16:12:01Z</time>
      </trkpt>
      <trkpt lat="45.07864" lon="7.51203">
        <ele>352.46</ele>
        <time>2016-10-05T16:12:08Z</time>
      </trkpt>
      <trkpt lat="45.07863" lon="7.51205">
        <ele>351.98</ele>
        <time>2016-10-05T16:12:09Z</time>
      </trkpt>
      <trkpt lat="45.0785" lon="7.51243">
        <ele>352.46</ele>
        <time>2016-10-05T16:12:20Z</time>
      </trkpt>
      <trkpt lat="45.07818" lon="7.51318">
        <ele>351.98</ele>
        <time>2016-10-05T16:12:33Z</time>
      </trkpt>
      <trkpt lat="45.07803" lon="7.51381">
        <ele>351.5</ele>
        <time>2016-10-05T16:12:45Z</time>
      </trkpt>
      <trkpt lat="45.07802" lon="7.51399">
        <ele>351.98</ele>
        <time>2016-10-05T16:12:50Z</time>
      </trkpt>
      <trkpt lat="45.07799" lon="7.51404">
        <ele>351.5</ele>
        <time>2016-10-05T16:12:51Z</time>
      </trkpt>
      <trkpt lat="45.07798" lon="7.51409">
        <ele>351.5</ele>
        <time>2016-10-05T16:12:52Z</time>
      </trkpt>
      <trkpt lat="45.07796" lon="7.51415">
        <ele>351.5</ele>
        <time>2016-10-05T16:12:53Z</time>
      </trkpt>
      <trkpt lat="45.07795" lon="7.5142">
        <ele>351.02</ele>
        <time>2016-10-05T16:12:54Z</time>
      </trkpt>
      <trkpt lat="45.07787" lon="7.51445">
        <ele>351.5</ele>
        <time>2016-10-05T16:12:58Z</time>
      </trkpt>
      <trkpt lat="45.07754" lon="7.51534">
        <ele>351.02</ele>
        <time>2016-10-05T16:13:13Z</time>
      </trkpt>
      <trkpt lat="45.07732" lon="7.51576">
        <ele>351.5</ele>
        <time>2016-10-05T16:13:23Z</time>
      </trkpt>
      <trkpt lat="45.07721" lon="7.51603">
        <ele>351.02</ele>
        <time>2016-10-05T16:13:28Z</time>
      </trkpt>
      <trkpt lat="45.07718" lon="7.51608">
        <ele>351.02</ele>
        <time>2016-10-05T16:13:29Z</time>
      </trkpt>
      <trkpt lat="45.07716" lon="7.51614">
        <ele>351.5</ele>
        <time>2016-10-05T16:13:30Z</time>
      </trkpt>
      <trkpt lat="45.07711" lon="7.51625">
        <ele>351.5</ele>
        <time>2016-10-05T16:13:32Z</time>
      </trkpt>
      <trkpt lat="45.07709" lon="7.51631">
        <ele>351.02</ele>
        <time>2016-10-05T16:13:33Z</time>
      </trkpt>
      <trkpt lat="45.07707" lon="7.51636">
        <ele>351.02</ele>
        <time>2016-10-05T16:13:34Z</time>
      </trkpt>
      <trkpt lat="45.07704" lon="7.51641">
        <ele>351.5</ele>
        <time>2016-10-05T16:13:35Z</time>
      </trkpt>
      <trkpt lat="45.07702" lon="7.51646">
        <ele>350.54</ele>
        <time>2016-10-05T16:13:36Z</time>
      </trkpt>
      <trkpt lat="45.07696" lon="7.51663">
        <ele>351.02</ele>
        <time>2016-10-05T16:13:39Z</time>
      </trkpt>
      <trkpt lat="45.07664" lon="7.51745">
        <ele>350.54</ele>
        <time>2016-10-05T16:13:52Z</time>
      </trkpt>
      <trkpt lat="45.07635" lon="7.51831">
        <ele>349.58</ele>
        <time>2016-10-05T16:14:04Z</time>
      </trkpt>
      <trkpt lat="45.07632" lon="7.51838">
        <ele>350.54</ele>
        <time>2016-10-05T16:14:05Z</time>
      </trkpt>
      <trkpt lat="45.07576" lon="7.51939">
        <ele>350.06</ele>
        <time>2016-10-05T16:14:21Z</time>
      </trkpt>
      <trkpt lat="45.07554" lon="7.51955">
        <ele>351.02</ele>
        <time>2016-10-05T16:14:27Z</time>
      </trkpt>
      <trkpt lat="45.07551" lon="7.5196">
        <ele>350.54</ele>
        <time>2016-10-05T16:14:28Z</time>
      </trkpt>
      <trkpt lat="45.07549" lon="7.51967">
        <ele>351.02</ele>
        <time>2016-10-05T16:14:29Z</time>
      </trkpt>
      <trkpt lat="45.07549" lon="7.51973">
        <ele>350.54</ele>
        <time>2016-10-05T16:14:30Z</time>
      </trkpt>
      <trkpt lat="45.0755" lon="7.5198">
        <ele>350.54</ele>
        <time>2016-10-05T16:14:31Z</time>
      </trkpt>
      <trkpt lat="45.07551" lon="7.51987">
        <ele>351.02</ele>
        <time>2016-10-05T16:14:32Z</time>
      </trkpt>
      <trkpt lat="45.07553" lon="7.51994">
        <ele>350.06</ele>
        <time>2016-10-05T16:14:33Z</time>
      </trkpt>
      <trkpt lat="45.07554" lon="7.52001">
        <ele>350.54</ele>
        <time>2016-10-05T16:14:34Z</time>
      </trkpt>
      <trkpt lat="45.07555" lon="7.52008">
        <ele>350.54</ele>
        <time>2016-10-05T16:14:35Z</time>
      </trkpt>
      <trkpt lat="45.07555" lon="7.52016">
        <ele>350.54</ele>
        <time>2016-10-05T16:14:36Z</time>
      </trkpt>
      <trkpt lat="45.07535" lon="7.5215">
        <ele>349.1</ele>
        <time>2016-10-05T16:14:51Z</time>
      </trkpt>
      <trkpt lat="45.07502" lon="7.52354">
        <ele>346.69</ele>
        <time>2016-10-05T16:15:11Z</time>
      </trkpt>
      <trkpt lat="45.07481" lon="7.52522">
        <ele>345.25</ele>
        <time>2016-10-05T16:15:28Z</time>
      </trkpt>
      <trkpt lat="45.0747" lon="7.5263">
        <ele>343.81</ele>
        <time>2016-10-05T16:15:38Z</time>
      </trkpt>
      <trkpt lat="45.07467" lon="7.52641">
        <ele>344.29</ele>
        <time>2016-10-05T16:15:39Z</time>
      </trkpt>
      <trkpt lat="45.07463" lon="7.52651">
        <ele>344.29</ele>
        <time>2016-10-05T16:15:40Z</time>
      </trkpt>
      <trkpt lat="45.07424" lon="7.52744">
        <ele>345.25</ele>
        <time>2016-10-05T16:15:52Z</time>
      </trkpt>
      <trkpt lat="45.07394" lon="7.52816">
        <ele>348.62</ele>
        <time>2016-10-05T16:16:05Z</time>
      </trkpt>
      <trkpt lat="45.07355" lon="7.52908">
        <ele>349.1</ele>
        <time>2016-10-05T16:16:21Z</time>
      </trkpt>
      <trkpt lat="45.07305" lon="7.53012">
        <ele>348.13</ele>
        <time>2016-10-05T16:16:37Z</time>
      </trkpt>
      <trkpt lat="45.07301" lon="7.53017">
        <ele>347.65</ele>
        <time>2016-10-05T16:16:38Z</time>
      </trkpt>
      <trkpt lat="45.07295" lon="7.53022">
        <ele>347.65</ele>
        <time>2016-10-05T16:16:39Z</time>
      </trkpt>
      <trkpt lat="45.07289" lon="7.53025">
        <ele>347.17</ele>
        <time>2016-10-05T16:16:40Z</time>
      </trkpt>
      <trkpt lat="45.07283" lon="7.53028">
        <ele>347.17</ele>
        <time>2016-10-05T16:16:41Z</time>
      </trkpt>
      <trkpt lat="45.07276" lon="7.53029">
        <ele>347.65</ele>
        <time>2016-10-05T16:16:42Z</time>
      </trkpt>
      <trkpt lat="45.0727" lon="7.53029">
        <ele>348.13</ele>
        <time>2016-10-05T16:16:43Z</time>
      </trkpt>
      <trkpt lat="45.07264" lon="7.53028">
        <ele>347.17</ele>
        <time>2016-10-05T16:16:44Z</time>
      </trkpt>
      <trkpt lat="45.07258" lon="7.53026">
        <ele>347.17</ele>
        <time>2016-10-05T16:16:45Z</time>
      </trkpt>
      <trkpt lat="45.07251" lon="7.53023">
        <ele>347.65</ele>
        <time>2016-10-05T16:16:46Z</time>
      </trkpt>
      <trkpt lat="45.07246" lon="7.53018">
        <ele>347.65</ele>
        <time>2016-10-05T16:16:47Z</time>
      </trkpt>
      <trkpt lat="45.0724" lon="7.53014">
        <ele>348.13</ele>
        <time>2016-10-05T16:16:48Z</time>
      </trkpt>
      <trkpt lat="45.07136" lon="7.52919">
        <ele>348.62</ele>
        <time>2016-10-05T16:17:08Z</time>
      </trkpt>
      <trkpt lat="45.07114" lon="7.529">
        <ele>348.62</ele>
        <time>2016-10-05T16:17:18Z</time>
      </trkpt>
      <trkpt lat="45.07103" lon="7.5289">
        <ele>349.58</ele>
        <time>2016-10-05T16:17:34Z</time>
      </trkpt>
      <trkpt lat="45.07088" lon="7.52878">
        <ele>349.58</ele>
        <time>2016-10-05T16:17:38Z</time>
      </trkpt>
      <trkpt lat="45.07083" lon="7.52877">
        <ele>349.58</ele>
        <time>2016-10-05T16:17:39Z</time>
      </trkpt>
      <trkpt lat="45.07079" lon="7.52876">
        <ele>350.06</ele>
        <time>2016-10-05T16:17:40Z</time>
      </trkpt>
      <trkpt lat="45.07074" lon="7.52878">
        <ele>350.06</ele>
        <time>2016-10-05T16:17:41Z</time>
      </trkpt>
      <trkpt lat="45.07071" lon="7.52881">
        <ele>349.58</ele>
        <time>2016-10-05T16:17:42Z</time>
      </trkpt>
      <trkpt lat="45.07068" lon="7.52886">
        <ele>351.02</ele>
        <time>2016-10-05T16:17:43Z</time>
      </trkpt>
      <trkpt lat="45.07066" lon="7.52892">
        <ele>350.06</ele>
        <time>2016-10-05T16:17:44Z</time>
      </trkpt>
      <trkpt lat="45.07065" lon="7.52899">
        <ele>349.58</ele>
        <time>2016-10-05T16:17:45Z</time>
      </trkpt>
      <trkpt lat="45.07065" lon="7.52906">
        <ele>349.58</ele>
        <time>2016-10-05T16:17:46Z</time>
      </trkpt>
      <trkpt lat="45.07064" lon="7.52913">
        <ele>350.06</ele>
        <time>2016-10-05T16:17:47Z</time>
      </trkpt>
      <trkpt lat="45.07064" lon="7.5292">
        <ele>350.54</ele>
        <time>2016-10-05T16:17:48Z</time>
      </trkpt>
      <trkpt lat="45.07069" lon="7.53031">
        <ele>351.5</ele>
        <time>2016-10-05T16:18:04Z</time>
      </trkpt>
      <trkpt lat="45.07072" lon="7.53152">
        <ele>350.06</ele>
        <time>2016-10-05T16:18:21Z</time>
      </trkpt>
      <trkpt lat="45.07079" lon="7.5331">
        <ele>346.21</ele>
        <time>2016-10-05T16:18:38Z</time>
      </trkpt>
      <trkpt lat="45.07083" lon="7.53395">
        <ele>343.81</ele>
        <time>2016-10-05T16:18:45Z</time>
      </trkpt>
      <trkpt lat="45.0709" lon="7.53518">
        <ele>339.96</ele>
        <time>2016-10-05T16:18:54Z</time>
      </trkpt>
      <trkpt lat="45.07092" lon="7.53572">
        <ele>338.52</ele>
        <time>2016-10-05T16:18:58Z</time>
      </trkpt>
      <trkpt lat="45.07095" lon="7.5364">
        <ele>339</ele>
        <time>2016-10-05T16:19:03Z</time>
      </trkpt>
      <trkpt lat="45.07096" lon="7.53679">
        <ele>335.64</ele>
        <time>2016-10-05T16:19:06Z</time>
      </trkpt>
      <trkpt lat="45.07107" lon="7.53907">
        <ele>333.23</ele>
        <time>2016-10-05T16:19:24Z</time>
      </trkpt>
      <trkpt lat="45.07107" lon="7.5392">
        <ele>333.23</ele>
        <time>2016-10-05T16:19:25Z</time>
      </trkpt>
      <trkpt lat="45.07114" lon="7.54094">
        <ele>330.83</ele>
        <time>2016-10-05T16:19:40Z</time>
      </trkpt>
      <trkpt lat="45.07121" lon="7.54204">
        <ele>327.95</ele>
        <time>2016-10-05T16:19:50Z</time>
      </trkpt>
      <trkpt lat="45.07123" lon="7.54261">
        <ele>327.95</ele>
        <time>2016-10-05T16:19:59Z</time>
      </trkpt>
      <trkpt lat="45.07125" lon="7.5427">
        <ele>327.95</ele>
        <time>2016-10-05T16:20:03Z</time>
      </trkpt>
      <trkpt lat="45.07124" lon="7.54276">
        <ele>327.47</ele>
        <time>2016-10-05T16:20:17Z</time>
      </trkpt>
      <trkpt lat="45.07122" lon="7.54279">
        <ele>326.99</ele>
        <time>2016-10-05T16:20:39Z</time>
      </trkpt>
      <trkpt lat="45.07123" lon="7.54281">
        <ele>327.95</ele>
        <time>2016-10-05T16:20:40Z</time>
      </trkpt>
      <trkpt lat="45.07124" lon="7.54284">
        <ele>326.99</ele>
        <time>2016-10-05T16:20:41Z</time>
      </trkpt>
      <trkpt lat="45.07123" lon="7.54286">
        <ele>326.99</ele>
        <time>2016-10-05T16:20:42Z</time>
      </trkpt>
      <trkpt lat="45.07124" lon="7.5429">
        <ele>327.47</ele>
        <time>2016-10-05T16:20:43Z</time>
      </trkpt>
      <trkpt lat="45.07124" lon="7.54294">
        <ele>326.99</ele>
        <time>2016-10-05T16:20:44Z</time>
      </trkpt>
      <trkpt lat="45.07129" lon="7.54354">
        <ele>325.54</ele>
        <time>2016-10-05T16:20:53Z</time>
      </trkpt>
      <trkpt lat="45.07136" lon="7.54489">
        <ele>322.18</ele>
        <time>2016-10-05T16:21:07Z</time>
      </trkpt>
      <trkpt lat="45.0714" lon="7.54596">
        <ele>319.78</ele>
        <time>2016-10-05T16:21:16Z</time>
      </trkpt>
      <trkpt lat="45.07146" lon="7.54804">
        <ele>318.81</ele>
        <time>2016-10-05T16:21:34Z</time>
      </trkpt>
      <trkpt lat="45.07151" lon="7.54969">
        <ele>318.33</ele>
        <time>2016-10-05T16:21:50Z</time>
      </trkpt>
      <trkpt lat="45.07154" lon="7.55013">
        <ele>318.81</ele>
        <time>2016-10-05T16:21:55Z</time>
      </trkpt>
      <trkpt lat="45.07156" lon="7.55022">
        <ele>318.33</ele>
        <time>2016-10-05T16:21:56Z</time>
      </trkpt>
      <trkpt lat="45.07158" lon="7.5503">
        <ele>318.81</ele>
        <time>2016-10-05T16:21:57Z</time>
      </trkpt>
      <trkpt lat="45.07159" lon="7.55039">
        <ele>318.81</ele>
        <time>2016-10-05T16:21:58Z</time>
      </trkpt>
      <trkpt lat="45.07159" lon="7.55047">
        <ele>318.33</ele>
        <time>2016-10-05T16:21:59Z</time>
      </trkpt>
      <trkpt lat="45.0716" lon="7.55056">
        <ele>318.33</ele>
        <time>2016-10-05T16:22:00Z</time>
      </trkpt>
      <trkpt lat="45.0716" lon="7.55065">
        <ele>318.33</ele>
        <time>2016-10-05T16:22:01Z</time>
      </trkpt>
      <trkpt lat="45.07161" lon="7.55073">
        <ele>318.81</ele>
        <time>2016-10-05T16:22:02Z</time>
      </trkpt>
      <trkpt lat="45.07164" lon="7.55118">
        <ele>317.85</ele>
        <time>2016-10-05T16:22:08Z</time>
      </trkpt>
      <trkpt lat="45.07165" lon="7.55157">
        <ele>318.81</ele>
        <time>2016-10-05T16:22:16Z</time>
      </trkpt>
      <trkpt lat="45.07165" lon="7.55164">
        <ele>318.81</ele>
        <time>2016-10-05T16:22:17Z</time>
      </trkpt>
      <trkpt lat="45.07165" lon="7.5517">
        <ele>318.33</ele>
        <time>2016-10-05T16:22:18Z</time>
      </trkpt>
      <trkpt lat="45.07167" lon="7.55303">
        <ele>317.37</ele>
        <time>2016-10-05T16:22:34Z</time>
      </trkpt>
      <trkpt lat="45.07172" lon="7.55385">
        <ele>312.57</ele>
        <time>2016-10-05T16:22:42Z</time>
      </trkpt>
      <trkpt lat="45.07172" lon="7.55395">
        <ele>313.05</ele>
        <time>2016-10-05T16:22:43Z</time>
      </trkpt>
      <trkpt lat="45.07175" lon="7.55466">
        <ele>312.57</ele>
        <time>2016-10-05T16:22:49Z</time>
      </trkpt>
      <trkpt lat="45.07179" lon="7.55599">
        <ele>311.6</ele>
        <time>2016-10-05T16:23:02Z</time>
      </trkpt>
      <trkpt lat="45.07176" lon="7.55653">
        <ele>311.6</ele>
        <time>2016-10-05T16:23:13Z</time>
      </trkpt>
      <trkpt lat="45.07177" lon="7.55672">
        <ele>311.12</ele>
        <time>2016-10-05T16:23:16Z</time>
      </trkpt>
      <trkpt lat="45.07183" lon="7.5578">
        <ele>310.64</ele>
        <time>2016-10-05T16:23:29Z</time>
      </trkpt>
      <trkpt lat="45.0719" lon="7.55924">
        <ele>309.68</ele>
        <time>2016-10-05T16:23:44Z</time>
      </trkpt>
      <trkpt lat="45.07198" lon="7.56117">
        <ele>309.2</ele>
        <time>2016-10-05T16:24:03Z</time>
      </trkpt>
      <trkpt lat="45.072" lon="7.56157">
        <ele>308.24</ele>
        <time>2016-10-05T16:24:11Z</time>
      </trkpt>
      <trkpt lat="45.07201" lon="7.56194">
        <ele>308.24</ele>
        <time>2016-10-05T16:24:20Z</time>
      </trkpt>
      <trkpt lat="45.07201" lon="7.562">
        <ele>308.24</ele>
        <time>2016-10-05T16:24:21Z</time>
      </trkpt>
      <trkpt lat="45.07203" lon="7.56265">
        <ele>307.76</ele>
        <time>2016-10-05T16:24:36Z</time>
      </trkpt>
      <trkpt lat="45.07201" lon="7.5627">
        <ele>307.28</ele>
        <time>2016-10-05T16:24:43Z</time>
      </trkpt>
      <trkpt lat="45.07201" lon="7.56273">
        <ele>307.76</ele>
        <time>2016-10-05T16:24:44Z</time>
      </trkpt>
      <trkpt lat="45.07202" lon="7.56297">
        <ele>307.76</ele>
        <time>2016-10-05T16:24:50Z</time>
      </trkpt>
      <trkpt lat="45.07204" lon="7.56393">
        <ele>306.8</ele>
        <time>2016-10-05T16:25:05Z</time>
      </trkpt>
      <trkpt lat="45.07209" lon="7.56471">
        <ele>307.76</ele>
        <time>2016-10-05T16:25:17Z</time>
      </trkpt>
      <trkpt lat="45.0721" lon="7.56472">
        <ele>307.28</ele>
        <time>2016-10-05T16:25:18Z</time>
      </trkpt>
      <trkpt lat="45.07211" lon="7.56475">
        <ele>306.8</ele>
        <time>2016-10-05T16:25:19Z</time>
      </trkpt>
      <trkpt lat="45.07212" lon="7.56478">
        <ele>306.8</ele>
        <time>2016-10-05T16:25:20Z</time>
      </trkpt>
      <trkpt lat="45.07212" lon="7.56482">
        <ele>307.28</ele>
        <time>2016-10-05T16:25:21Z</time>
      </trkpt>
      <trkpt lat="45.07217" lon="7.56563">
        <ele>306.32</ele>
        <time>2016-10-05T16:25:34Z</time>
      </trkpt>
      <trkpt lat="45.0722" lon="7.56604">
        <ele>306.32</ele>
        <time>2016-10-05T16:25:44Z</time>
      </trkpt>
      <trkpt lat="45.07221" lon="7.56613">
        <ele>306.32</ele>
        <time>2016-10-05T16:25:51Z</time>
      </trkpt>
      <trkpt lat="45.07221" lon="7.56615">
        <ele>306.32</ele>
        <time>2016-10-05T16:25:52Z</time>
      </trkpt>
      <trkpt lat="45.07221" lon="7.56617">
        <ele>306.8</ele>
        <time>2016-10-05T16:25:53Z</time>
      </trkpt>
      <trkpt lat="45.07221" lon="7.5662">
        <ele>306.32</ele>
        <time>2016-10-05T16:25:54Z</time>
      </trkpt>
      <trkpt lat="45.07221" lon="7.56623">
        <ele>306.32</ele>
        <time>2016-10-05T16:25:55Z</time>
      </trkpt>
      <trkpt lat="45.0722" lon="7.56646">
        <ele>305.84</ele>
        <time>2016-10-05T16:25:59Z</time>
      </trkpt>
      <trkpt lat="45.0722" lon="7.56653">
        <ele>305.84</ele>
        <time>2016-10-05T16:26:00Z</time>
      </trkpt>
      <trkpt lat="45.07227" lon="7.56778">
        <ele>304.39</ele>
        <time>2016-10-05T16:26:17Z</time>
      </trkpt>
      <trkpt lat="45.07232" lon="7.56908">
        <ele>303.91</ele>
        <time>2016-10-05T16:26:32Z</time>
      </trkpt>
      <trkpt lat="45.07239" lon="7.57026">
        <ele>303.43</ele>
        <time>2016-10-05T16:26:45Z</time>
      </trkpt>
      <trkpt lat="45.07245" lon="7.57178">
        <ele>301.99</ele>
        <time>2016-10-05T16:27:02Z</time>
      </trkpt>
      <trkpt lat="45.07247" lon="7.57239">
        <ele>302.47</ele>
        <time>2016-10-05T16:27:12Z</time>
      </trkpt>
      <trkpt lat="45.07246" lon="7.57243">
        <ele>302.47</ele>
        <time>2016-10-05T16:27:15Z</time>
      </trkpt>
      <trkpt lat="45.07246" lon="7.57245">
        <ele>302.95</ele>
        <time>2016-10-05T16:27:16Z</time>
      </trkpt>
      <trkpt lat="45.07246" lon="7.57248">
        <ele>301.99</ele>
        <time>2016-10-05T16:27:17Z</time>
      </trkpt>
      <trkpt lat="45.07247" lon="7.57251">
        <ele>301.99</ele>
        <time>2016-10-05T16:27:18Z</time>
      </trkpt>
      <trkpt lat="45.07247" lon="7.57253">
        <ele>301.51</ele>
        <time>2016-10-05T16:27:19Z</time>
      </trkpt>
      <trkpt lat="45.07249" lon="7.57262">
        <ele>301.99</ele>
        <time>2016-10-05T16:27:32Z</time>
      </trkpt>
      <trkpt lat="45.07249" lon="7.57294">
        <ele>301.99</ele>
        <time>2016-10-05T16:27:47Z</time>
      </trkpt>
      <trkpt lat="45.07251" lon="7.57305">
        <ele>301.03</ele>
        <time>2016-10-05T16:27:49Z</time>
      </trkpt>
      <trkpt lat="45.07252" lon="7.57311">
        <ele>301.03</ele>
        <time>2016-10-05T16:27:50Z</time>
      </trkpt>
      <trkpt lat="45.07253" lon="7.57317">
        <ele>301.51</ele>
        <time>2016-10-05T16:27:51Z</time>
      </trkpt>
      <trkpt lat="45.07254" lon="7.57345">
        <ele>301.03</ele>
        <time>2016-10-05T16:27:55Z</time>
      </trkpt>
      <trkpt lat="45.07255" lon="7.57386">
        <ele>300.07</ele>
        <time>2016-10-05T16:28:00Z</time>
      </trkpt>
      <trkpt lat="45.07255" lon="7.57394">
        <ele>300.07</ele>
        <time>2016-10-05T16:28:01Z</time>
      </trkpt>
      <trkpt lat="45.07255" lon="7.57403">
        <ele>300.55</ele>
        <time>2016-10-05T16:28:02Z</time>
      </trkpt>
      <trkpt lat="45.07262" lon="7.57518">
        <ele>300.07</ele>
        <time>2016-10-05T16:28:16Z</time>
      </trkpt>
      <trkpt lat="45.07263" lon="7.57536">
        <ele>299.11</ele>
        <time>2016-10-05T16:28:18Z</time>
      </trkpt>
      <trkpt lat="45.07264" lon="7.57545">
        <ele>299.59</ele>
        <time>2016-10-05T16:28:19Z</time>
      </trkpt>
      <trkpt lat="45.07264" lon="7.57554">
        <ele>300.07</ele>
        <time>2016-10-05T16:28:20Z</time>
      </trkpt>
      <trkpt lat="45.07263" lon="7.5764">
        <ele>299.11</ele>
        <time>2016-10-05T16:28:30Z</time>
      </trkpt>
      <trkpt lat="45.07261" lon="7.57661">
        <ele>299.11</ele>
        <time>2016-10-05T16:28:33Z</time>
      </trkpt>
      <trkpt lat="45.07258" lon="7.57698">
        <ele>298.63</ele>
        <time>2016-10-05T16:28:42Z</time>
      </trkpt>
      <trkpt lat="45.07256" lon="7.57705">
        <ele>299.11</ele>
        <time>2016-10-05T16:28:45Z</time>
      </trkpt>
      <trkpt lat="45.07256" lon="7.57709">
        <ele>298.63</ele>
        <time>2016-10-05T16:28:46Z</time>
      </trkpt>
      <trkpt lat="45.07256" lon="7.57712">
        <ele>298.63</ele>
        <time>2016-10-05T16:28:47Z</time>
      </trkpt>
      <trkpt lat="45.07257" lon="7.57745">
        <ele>298.63</ele>
        <time>2016-10-05T16:28:54Z</time>
      </trkpt>
      <trkpt lat="45.07257" lon="7.57752">
        <ele>299.11</ele>
        <time>2016-10-05T16:28:55Z</time>
      </trkpt>
      <trkpt lat="45.07265" lon="7.57867">
        <ele>297.18</ele>
        <time>2016-10-05T16:29:10Z</time>
      </trkpt>
      <trkpt lat="45.07266" lon="7.57875">
        <ele>297.18</ele>
        <time>2016-10-05T16:29:11Z</time>
      </trkpt>
      <trkpt lat="45.07271" lon="7.5799">
        <ele>297.18</ele>
        <time>2016-10-05T16:29:26Z</time>
      </trkpt>
      <trkpt lat="45.07272" lon="7.58036">
        <ele>297.18</ele>
        <time>2016-10-05T16:29:35Z</time>
      </trkpt>
      <trkpt lat="45.07273" lon="7.58041">
        <ele>296.7</ele>
        <time>2016-10-05T16:29:36Z</time>
      </trkpt>
      <trkpt lat="45.07278" lon="7.58074">
        <ele>295.74</ele>
        <time>2016-10-05T16:29:41Z</time>
      </trkpt>
      <trkpt lat="45.07279" lon="7.58082">
        <ele>296.22</ele>
        <time>2016-10-05T16:29:42Z</time>
      </trkpt>
      <trkpt lat="45.07285" lon="7.58186">
        <ele>295.74</ele>
        <time>2016-10-05T16:29:57Z</time>
      </trkpt>
      <trkpt lat="45.07287" lon="7.58215">
        <ele>295.26</ele>
        <time>2016-10-05T16:30:07Z</time>
      </trkpt>
      <trkpt lat="45.07287" lon="7.58219">
        <ele>295.74</ele>
        <time>2016-10-05T16:30:14Z</time>
      </trkpt>
      <trkpt lat="45.07287" lon="7.58221">
        <ele>295.74</ele>
        <time>2016-10-05T16:30:15Z</time>
      </trkpt>
      <trkpt lat="45.07288" lon="7.58223">
        <ele>296.22</ele>
        <time>2016-10-05T16:30:16Z</time>
      </trkpt>
      <trkpt lat="45.07288" lon="7.58227">
        <ele>295.74</ele>
        <time>2016-10-05T16:30:17Z</time>
      </trkpt>
      <trkpt lat="45.07289" lon="7.58231">
        <ele>295.74</ele>
        <time>2016-10-05T16:30:18Z</time>
      </trkpt>
      <trkpt lat="45.07289" lon="7.58235">
        <ele>295.74</ele>
        <time>2016-10-05T16:30:19Z</time>
      </trkpt>
      <trkpt lat="45.07292" lon="7.58316">
        <ele>294.3</ele>
        <time>2016-10-05T16:30:34Z</time>
      </trkpt>
      <trkpt lat="45.0729" lon="7.5838">
        <ele>294.3</ele>
        <time>2016-10-05T16:30:47Z</time>
      </trkpt>
      <trkpt lat="45.0729" lon="7.58415">
        <ele>293.82</ele>
        <time>2016-10-05T16:30:53Z</time>
      </trkpt>
      <trkpt lat="45.07295" lon="7.58525">
        <ele>293.82</ele>
        <time>2016-10-05T16:31:09Z</time>
      </trkpt>
      <trkpt lat="45.07296" lon="7.58533">
        <ele>293.82</ele>
        <time>2016-10-05T16:31:10Z</time>
      </trkpt>
      <trkpt lat="45.07298" lon="7.58655">
        <ele>292.38</ele>
        <time>2016-10-05T16:31:27Z</time>
      </trkpt>
      <trkpt lat="45.073" lon="7.58675">
        <ele>292.86</ele>
        <time>2016-10-05T16:31:30Z</time>
      </trkpt>
      <trkpt lat="45.07298" lon="7.5872">
        <ele>291.9</ele>
        <time>2016-10-05T16:31:37Z</time>
      </trkpt>
      <trkpt lat="45.07297" lon="7.58726">
        <ele>291.9</ele>
        <time>2016-10-05T16:31:38Z</time>
      </trkpt>
      <trkpt lat="45.07295" lon="7.58731">
        <ele>291.9</ele>
        <time>2016-10-05T16:31:39Z</time>
      </trkpt>
      <trkpt lat="45.07293" lon="7.58735">
        <ele>291.9</ele>
        <time>2016-10-05T16:31:40Z</time>
      </trkpt>
      <trkpt lat="45.0729" lon="7.58739">
        <ele>291.42</ele>
        <time>2016-10-05T16:31:41Z</time>
      </trkpt>
      <trkpt lat="45.07287" lon="7.58743">
        <ele>291.42</ele>
        <time>2016-10-05T16:31:42Z</time>
      </trkpt>
      <trkpt lat="45.07236" lon="7.58792">
        <ele>290.94</ele>
        <time>2016-10-05T16:31:56Z</time>
      </trkpt>
      <trkpt lat="45.07213" lon="7.58813">
        <ele>291.42</ele>
        <time>2016-10-05T16:32:09Z</time>
      </trkpt>
      <trkpt lat="45.07213" lon="7.58816">
        <ele>291.9</ele>
        <time>2016-10-05T16:32:18Z</time>
      </trkpt>
      <trkpt lat="45.07212" lon="7.58816">
        <ele>290.94</ele>
        <time>2016-10-05T16:32:56Z</time>
      </trkpt>
      <trkpt lat="45.07214" lon="7.58816">
        <ele>290.94</ele>
        <time>2016-10-05T16:33:16Z</time>
      </trkpt>
      <trkpt lat="45.07212" lon="7.58816">
        <ele>292.38</ele>
        <time>2016-10-05T16:33:23Z</time>
      </trkpt>
      <trkpt lat="45.07212" lon="7.58816">
        <ele>290.94</ele>
        <time>2016-10-05T16:33:25Z</time>
      </trkpt>
      <trkpt lat="45.07209" lon="7.58815">
        <ele>290.94</ele>
        <time>2016-10-05T16:33:49Z</time>
      </trkpt>
      <trkpt lat="45.07208" lon="7.58817">
        <ele>290.94</ele>
        <time>2016-10-05T16:33:55Z</time>
      </trkpt>
      <trkpt lat="45.07186" lon="7.58842">
        <ele>290.94</ele>
        <time>2016-10-05T16:34:05Z</time>
      </trkpt>
      <trkpt lat="45.07125" lon="7.58908">
        <ele>289.97</ele>
        <time>2016-10-05T16:34:21Z</time>
      </trkpt>
      <trkpt lat="45.07104" lon="7.58929">
        <ele>289.97</ele>
        <time>2016-10-05T16:34:26Z</time>
      </trkpt>
      <trkpt lat="45.07101" lon="7.58933">
        <ele>290.46</ele>
        <time>2016-10-05T16:34:27Z</time>
      </trkpt>
      <trkpt lat="45.07072" lon="7.58961">
        <ele>289.97</ele>
        <time>2016-10-05T16:34:38Z</time>
      </trkpt>
      <trkpt lat="45.07069" lon="7.58961">
        <ele>289.97</ele>
        <time>2016-10-05T16:34:39Z</time>
      </trkpt>
      <trkpt lat="45.07068" lon="7.5896">
        <ele>289.49</ele>
        <time>2016-10-05T16:34:40Z</time>
      </trkpt>
      <trkpt lat="45.07066" lon="7.58957">
        <ele>289.49</ele>
        <time>2016-10-05T16:34:41Z</time>
      </trkpt>
      <trkpt lat="45.07065" lon="7.58954">
        <ele>289.97</ele>
        <time>2016-10-05T16:34:42Z</time>
      </trkpt>
      <trkpt lat="45.07064" lon="7.58951">
        <ele>289.49</ele>
        <time>2016-10-05T16:34:43Z</time>
      </trkpt>
      <trkpt lat="45.07064" lon="7.58947">
        <ele>289.49</ele>
        <time>2016-10-05T16:34:44Z</time>
      </trkpt>
      <trkpt lat="45.07063" lon="7.58942">
        <ele>289.49</ele>
        <time>2016-10-05T16:34:45Z</time>
      </trkpt>
      <trkpt lat="45.07063" lon="7.58938">
        <ele>289.49</ele>
        <time>2016-10-05T16:34:46Z</time>
      </trkpt>
      <trkpt lat="45.07062" lon="7.58933">
        <ele>289.49</ele>
        <time>2016-10-05T16:34:47Z</time>
      </trkpt>
      <trkpt lat="45.07061" lon="7.5893">
        <ele>289.97</ele>
        <time>2016-10-05T16:34:48Z</time>
      </trkpt>
      <trkpt lat="45.07059" lon="7.58927">
        <ele>289.97</ele>
        <time>2016-10-05T16:34:49Z</time>
      </trkpt>
      <trkpt lat="45.07057" lon="7.58926">
        <ele>289.49</ele>
        <time>2016-10-05T16:34:50Z</time>
      </trkpt>
      <trkpt lat="45.07053" lon="7.58927">
        <ele>289.49</ele>
        <time>2016-10-05T16:34:51Z</time>
      </trkpt>
      <trkpt lat="45.07049" lon="7.58927">
        <ele>289.97</ele>
        <time>2016-10-05T16:34:52Z</time>
      </trkpt>
      <trkpt lat="45.07025" lon="7.58924">
        <ele>289.97</ele>
        <time>2016-10-05T16:34:58Z</time>
      </trkpt>
      <trkpt lat="45.07021" lon="7.58924">
        <ele>289.49</ele>
        <time>2016-10-05T16:34:59Z</time>
      </trkpt>
      <trkpt lat="45.07017" lon="7.58923">
        <ele>289.97</ele>
        <time>2016-10-05T16:35:00Z</time>
      </trkpt>
      <trkpt lat="45.07013" lon="7.58922">
        <ele>289.49</ele>
        <time>2016-10-05T16:35:01Z</time>
      </trkpt>
      <trkpt lat="45.07009" lon="7.58921">
        <ele>289.97</ele>
        <time>2016-10-05T16:35:02Z</time>
      </trkpt>
      <trkpt lat="45.07002" lon="7.58919">
        <ele>289.97</ele>
        <time>2016-10-05T16:35:04Z</time>
      </trkpt>
      <trkpt lat="45.06997" lon="7.58918">
        <ele>289.97</ele>
        <time>2016-10-05T16:35:05Z</time>
      </trkpt>
      <trkpt lat="45.06992" lon="7.58917">
        <ele>289.49</ele>
        <time>2016-10-05T16:35:06Z</time>
      </trkpt>
      <trkpt lat="45.06987" lon="7.58916">
        <ele>289.49</ele>
        <time>2016-10-05T16:35:07Z</time>
      </trkpt>
      <trkpt lat="45.06982" lon="7.58914">
        <ele>290.46</ele>
        <time>2016-10-05T16:35:08Z</time>
      </trkpt>
      <trkpt lat="45.06972" lon="7.58912">
        <ele>289.97</ele>
        <time>2016-10-05T16:35:10Z</time>
      </trkpt>
      <trkpt lat="45.06968" lon="7.5891">
        <ele>289.97</ele>
        <time>2016-10-05T16:35:11Z</time>
      </trkpt>
      <trkpt lat="45.06963" lon="7.58908">
        <ele>289.97</ele>
        <time>2016-10-05T16:35:12Z</time>
      </trkpt>
      <trkpt lat="45.06953" lon="7.58905">
        <ele>289.97</ele>
        <time>2016-10-05T16:35:14Z</time>
      </trkpt>
      <trkpt lat="45.06947" lon="7.58905">
        <ele>289.97</ele>
        <time>2016-10-05T16:35:15Z</time>
      </trkpt>
      <trkpt lat="45.06942" lon="7.58905">
        <ele>290.46</ele>
        <time>2016-10-05T16:35:16Z</time>
      </trkpt>
      <trkpt lat="45.06932" lon="7.58904">
        <ele>289.97</ele>
        <time>2016-10-05T16:35:18Z</time>
      </trkpt>
      <trkpt lat="45.06865" lon="7.58892">
        <ele>290.46</ele>
        <time>2016-10-05T16:35:32Z</time>
      </trkpt>
      <trkpt lat="45.06805" lon="7.58882">
        <ele>289.97</ele>
        <time>2016-10-05T16:35:44Z</time>
      </trkpt>
      <trkpt lat="45.06801" lon="7.58881">
        <ele>289.49</ele>
        <time>2016-10-05T16:35:45Z</time>
      </trkpt>
      <trkpt lat="45.06735" lon="7.58868">
        <ele>289.97</ele>
        <time>2016-10-05T16:35:59Z</time>
      </trkpt>
      <trkpt lat="45.06655" lon="7.58854">
        <ele>289.49</ele>
        <time>2016-10-05T16:36:15Z</time>
      </trkpt>
      <trkpt lat="45.06575" lon="7.58839">
        <ele>289.01</ele>
        <time>2016-10-05T16:36:31Z</time>
      </trkpt>
      <trkpt lat="45.06474" lon="7.5882">
        <ele>289.49</ele>
        <time>2016-10-05T16:36:52Z</time>
      </trkpt>
      <trkpt lat="45.06469" lon="7.58816">
        <ele>289.01</ele>
        <time>2016-10-05T16:37:01Z</time>
      </trkpt>
      <trkpt lat="45.06462" lon="7.58808">
        <ele>289.49</ele>
        <time>2016-10-05T16:37:04Z</time>
      </trkpt>
      <trkpt lat="45.06458" lon="7.58808">
        <ele>289.49</ele>
        <time>2016-10-05T16:37:05Z</time>
      </trkpt>
      <trkpt lat="45.06454" lon="7.58808">
        <ele>289.49</ele>
        <time>2016-10-05T16:37:06Z</time>
      </trkpt>
      <trkpt lat="45.06451" lon="7.58811">
        <ele>289.49</ele>
        <time>2016-10-05T16:37:07Z</time>
      </trkpt>
      <trkpt lat="45.06448" lon="7.58815">
        <ele>289.49</ele>
        <time>2016-10-05T16:37:08Z</time>
      </trkpt>
      <trkpt lat="45.06445" lon="7.5882">
        <ele>289.01</ele>
        <time>2016-10-05T16:37:09Z</time>
      </trkpt>
      <trkpt lat="45.06445" lon="7.58825">
        <ele>289.49</ele>
        <time>2016-10-05T16:37:10Z</time>
      </trkpt>
      <trkpt lat="45.06445" lon="7.58832">
        <ele>289.49</ele>
        <time>2016-10-05T16:37:11Z</time>
      </trkpt>
      <trkpt lat="45.06445" lon="7.58837">
        <ele>289.49</ele>
        <time>2016-10-05T16:37:12Z</time>
      </trkpt>
      <trkpt lat="45.06445" lon="7.58843">
        <ele>289.49</ele>
        <time>2016-10-05T16:37:13Z</time>
      </trkpt>
      <trkpt lat="45.06445" lon="7.5885">
        <ele>289.49</ele>
        <time>2016-10-05T16:37:14Z</time>
      </trkpt>
      <trkpt lat="45.06444" lon="7.58856">
        <ele>289.49</ele>
        <time>2016-10-05T16:37:15Z</time>
      </trkpt>
      <trkpt lat="45.06442" lon="7.58862">
        <ele>289.01</ele>
        <time>2016-10-05T16:37:16Z</time>
      </trkpt>
      <trkpt lat="45.06441" lon="7.58868">
        <ele>288.53</ele>
        <time>2016-10-05T16:37:17Z</time>
      </trkpt>
      <trkpt lat="45.06418" lon="7.58968">
        <ele>287.57</ele>
        <time>2016-10-05T16:37:31Z</time>
      </trkpt>
      <trkpt lat="45.06399" lon="7.59094">
        <ele>287.57</ele>
        <time>2016-10-05T16:37:46Z</time>
      </trkpt>
      <trkpt lat="45.06394" lon="7.59142">
        <ele>287.09</ele>
        <time>2016-10-05T16:37:52Z</time>
      </trkpt>
      <trkpt lat="45.06391" lon="7.59199">
        <ele>287.57</ele>
        <time>2016-10-05T16:38:00Z</time>
      </trkpt>
      <trkpt lat="45.06392" lon="7.59204">
        <ele>287.09</ele>
        <time>2016-10-05T16:38:01Z</time>
      </trkpt>
      <trkpt lat="45.06394" lon="7.59206">
        <ele>287.57</ele>
        <time>2016-10-05T16:38:02Z</time>
      </trkpt>
      <trkpt lat="45.06397" lon="7.59206">
        <ele>286.61</ele>
        <time>2016-10-05T16:38:03Z</time>
      </trkpt>
      <trkpt lat="45.064" lon="7.59205">
        <ele>286.61</ele>
        <time>2016-10-05T16:38:04Z</time>
      </trkpt>
      <trkpt lat="45.06402" lon="7.59204">
        <ele>286.61</ele>
        <time>2016-10-05T16:38:05Z</time>
      </trkpt>
      <trkpt lat="45.06404" lon="7.59206">
        <ele>286.61</ele>
        <time>2016-10-05T16:38:06Z</time>
      </trkpt>
      <trkpt lat="45.06405" lon="7.59208">
        <ele>287.09</ele>
        <time>2016-10-05T16:38:07Z</time>
      </trkpt>
      <trkpt lat="45.06404" lon="7.59211">
        <ele>286.61</ele>
        <time>2016-10-05T16:38:08Z</time>
      </trkpt>
      <trkpt lat="45.06403" lon="7.59215">
        <ele>286.61</ele>
        <time>2016-10-05T16:38:09Z</time>
      </trkpt>
      <trkpt lat="45.06402" lon="7.59219">
        <ele>286.61</ele>
        <time>2016-10-05T16:38:10Z</time>
      </trkpt>
      <trkpt lat="45.06402" lon="7.59224">
        <ele>287.09</ele>
        <time>2016-10-05T16:38:11Z</time>
      </trkpt>
      <trkpt lat="45.06401" lon="7.5923">
        <ele>286.61</ele>
        <time>2016-10-05T16:38:12Z</time>
      </trkpt>
      <trkpt lat="45.06392" lon="7.59352">
        <ele>286.61</ele>
        <time>2016-10-05T16:38:29Z</time>
      </trkpt>
      <trkpt lat="45.06405" lon="7.59483">
        <ele>287.09</ele>
        <time>2016-10-05T16:38:45Z</time>
      </trkpt>
      <trkpt lat="45.06405" lon="7.59491">
        <ele>286.61</ele>
        <time>2016-10-05T16:38:46Z</time>
      </trkpt>
      <trkpt lat="45.06404" lon="7.59508">
        <ele>286.13</ele>
        <time>2016-10-05T16:38:48Z</time>
      </trkpt>
      <trkpt lat="45.06405" lon="7.59516">
        <ele>286.13</ele>
        <time>2016-10-05T16:38:49Z</time>
      </trkpt>
      <trkpt lat="45.06416" lon="7.59679">
        <ele>285.17</ele>
        <time>2016-10-05T16:39:08Z</time>
      </trkpt>
      <trkpt lat="45.06431" lon="7.59901">
        <ele>283.73</ele>
        <time>2016-10-05T16:39:32Z</time>
      </trkpt>
      <trkpt lat="45.06442" lon="7.60091">
        <ele>282.28</ele>
        <time>2016-10-05T16:39:52Z</time>
      </trkpt>
      <trkpt lat="45.06443" lon="7.601">
        <ele>282.28</ele>
        <time>2016-10-05T16:39:53Z</time>
      </trkpt>
      <trkpt lat="45.06444" lon="7.60154">
        <ele>282.28</ele>
        <time>2016-10-05T16:39:59Z</time>
      </trkpt>
      <trkpt lat="45.06457" lon="7.6031">
        <ele>281.32</ele>
        <time>2016-10-05T16:40:16Z</time>
      </trkpt>
      <trkpt lat="45.06461" lon="7.60361">
        <ele>281.8</ele>
        <time>2016-10-05T16:40:22Z</time>
      </trkpt>
      <trkpt lat="45.06462" lon="7.60368">
        <ele>281.8</ele>
        <time>2016-10-05T16:40:23Z</time>
      </trkpt>
      <trkpt lat="45.06465" lon="7.60375">
        <ele>281.32</ele>
        <time>2016-10-05T16:40:24Z</time>
      </trkpt>
      <trkpt lat="45.06471" lon="7.60388">
        <ele>281.8</ele>
        <time>2016-10-05T16:40:26Z</time>
      </trkpt>
      <trkpt lat="45.06473" lon="7.60395">
        <ele>281.32</ele>
        <time>2016-10-05T16:40:27Z</time>
      </trkpt>
      <trkpt lat="45.06473" lon="7.60402">
        <ele>281.32</ele>
        <time>2016-10-05T16:40:28Z</time>
      </trkpt>
      <trkpt lat="45.06471" lon="7.60409">
        <ele>281.32</ele>
        <time>2016-10-05T16:40:29Z</time>
      </trkpt>
      <trkpt lat="45.06468" lon="7.60415">
        <ele>281.8</ele>
        <time>2016-10-05T16:40:30Z</time>
      </trkpt>
      <trkpt lat="45.06466" lon="7.60422">
        <ele>281.8</ele>
        <time>2016-10-05T16:40:31Z</time>
      </trkpt>
      <trkpt lat="45.06465" lon="7.60429">
        <ele>281.32</ele>
        <time>2016-10-05T16:40:32Z</time>
      </trkpt>
      <trkpt lat="45.06465" lon="7.60435">
        <ele>281.8</ele>
        <time>2016-10-05T16:40:33Z</time>
      </trkpt>
      <trkpt lat="45.06465" lon="7.60442">
        <ele>281.8</ele>
        <time>2016-10-05T16:40:34Z</time>
      </trkpt>
      <trkpt lat="45.06465" lon="7.60449">
        <ele>281.8</ele>
        <time>2016-10-05T16:40:35Z</time>
      </trkpt>
      <trkpt lat="45.06469" lon="7.60519">
        <ele>283.25</ele>
        <time>2016-10-05T16:40:49Z</time>
      </trkpt>
      <trkpt lat="45.06485" lon="7.60592">
        <ele>286.13</ele>
        <time>2016-10-05T16:41:07Z</time>
      </trkpt>
      <trkpt lat="45.06514" lon="7.60643">
        <ele>287.09</ele>
        <time>2016-10-05T16:41:22Z</time>
      </trkpt>
      <trkpt lat="45.0655" lon="7.60695">
        <ele>285.65</ele>
        <time>2016-10-05T16:41:35Z</time>
      </trkpt>
      <trkpt lat="45.06594" lon="7.60733">
        <ele>282.28</ele>
        <time>2016-10-05T16:41:45Z</time>
      </trkpt>
      <trkpt lat="45.06626" lon="7.60759">
        <ele>280.36</ele>
        <time>2016-10-05T16:41:58Z</time>
      </trkpt>
      <trkpt lat="45.06687" lon="7.60803">
        <ele>278.92</ele>
        <time>2016-10-05T16:42:12Z</time>
      </trkpt>
      <trkpt lat="45.06714" lon="7.60813">
        <ele>279.4</ele>
        <time>2016-10-05T16:42:23Z</time>
      </trkpt>
      <trkpt lat="45.06724" lon="7.60803">
        <ele>279.4</ele>
        <time>2016-10-05T16:42:38Z</time>
      </trkpt>
      <trkpt lat="45.06724" lon="7.60805">
        <ele>279.88</ele>
        <time>2016-10-05T16:42:45Z</time>
      </trkpt>
      <trkpt lat="45.06723" lon="7.60806">
        <ele>279.4</ele>
        <time>2016-10-05T16:42:46Z</time>
      </trkpt>
      <trkpt lat="45.06721" lon="7.60808">
        <ele>279.88</ele>
        <time>2016-10-05T16:42:47Z</time>
      </trkpt>
      <trkpt lat="45.06718" lon="7.60811">
        <ele>279.88</ele>
        <time>2016-10-05T16:42:48Z</time>
      </trkpt>
      <trkpt lat="45.06715" lon="7.60814">
        <ele>279.88</ele>
        <time>2016-10-05T16:42:49Z</time>
      </trkpt>
      <trkpt lat="45.06712" lon="7.60818">
        <ele>279.88</ele>
        <time>2016-10-05T16:42:50Z</time>
      </trkpt>
      <trkpt lat="45.06709" lon="7.60823">
        <ele>279.4</ele>
        <time>2016-10-05T16:42:51Z</time>
      </trkpt>
      <trkpt lat="45.06708" lon="7.60829">
        <ele>279.4</ele>
        <time>2016-10-05T16:42:52Z</time>
      </trkpt>
      <trkpt lat="45.06707" lon="7.60836">
        <ele>279.88</ele>
        <time>2016-10-05T16:42:53Z</time>
      </trkpt>
      <trkpt lat="45.06707" lon="7.60843">
        <ele>278.92</ele>
        <time>2016-10-05T16:42:54Z</time>
      </trkpt>
      <trkpt lat="45.06706" lon="7.6085">
        <ele>278.92</ele>
        <time>2016-10-05T16:42:55Z</time>
      </trkpt>
      <trkpt lat="45.06704" lon="7.60857">
        <ele>279.88</ele>
        <time>2016-10-05T16:42:56Z</time>
      </trkpt>
      <trkpt lat="45.06702" lon="7.60864">
        <ele>279.88</ele>
        <time>2016-10-05T16:42:57Z</time>
      </trkpt>
      <trkpt lat="45.0668" lon="7.6094">
        <ele>278.92</ele>
        <time>2016-10-05T16:43:08Z</time>
      </trkpt>
      <trkpt lat="45.06677" lon="7.60947">
        <ele>279.4</ele>
        <time>2016-10-05T16:43:09Z</time>
      </trkpt>
      <trkpt lat="45.06673" lon="7.60954">
        <ele>278.92</ele>
        <time>2016-10-05T16:43:10Z</time>
      </trkpt>
      <trkpt lat="45.0667" lon="7.60961">
        <ele>277.96</ele>
        <time>2016-10-05T16:43:11Z</time>
      </trkpt>
      <trkpt lat="45.06667" lon="7.60968">
        <ele>278.44</ele>
        <time>2016-10-05T16:43:12Z</time>
      </trkpt>
      <trkpt lat="45.06665" lon="7.60976">
        <ele>278.44</ele>
        <time>2016-10-05T16:43:13Z</time>
      </trkpt>
      <trkpt lat="45.06663" lon="7.60982">
        <ele>278.44</ele>
        <time>2016-10-05T16:43:14Z</time>
      </trkpt>
      <trkpt lat="45.0666" lon="7.60988">
        <ele>278.44</ele>
        <time>2016-10-05T16:43:15Z</time>
      </trkpt>
      <trkpt lat="45.06657" lon="7.60993">
        <ele>278.44</ele>
        <time>2016-10-05T16:43:16Z</time>
      </trkpt>
      <trkpt lat="45.06653" lon="7.60999">
        <ele>277.96</ele>
        <time>2016-10-05T16:43:17Z</time>
      </trkpt>
      <trkpt lat="45.06649" lon="7.61004">
        <ele>277.48</ele>
        <time>2016-10-05T16:43:18Z</time>
      </trkpt>
      <trkpt lat="45.06646" lon="7.6101">
        <ele>277.48</ele>
        <time>2016-10-05T16:43:19Z</time>
      </trkpt>
      <trkpt lat="45.06627" lon="7.61069">
        <ele>276.04</ele>
        <time>2016-10-05T16:43:28Z</time>
      </trkpt>
      <trkpt lat="45.06625" lon="7.61076">
        <ele>276.04</ele>
        <time>2016-10-05T16:43:29Z</time>
      </trkpt>
      <trkpt lat="45.06618" lon="7.61095">
        <ele>277</ele>
        <time>2016-10-05T16:43:32Z</time>
      </trkpt>
      <trkpt lat="45.06593" lon="7.6115">
        <ele>277.48</ele>
        <time>2016-10-05T16:43:42Z</time>
      </trkpt>
      <trkpt lat="45.06589" lon="7.61154">
        <ele>277</ele>
        <time>2016-10-05T16:43:43Z</time>
      </trkpt>
      <trkpt lat="45.06584" lon="7.61157">
        <ele>276.52</ele>
        <time>2016-10-05T16:43:44Z</time>
      </trkpt>
      <trkpt lat="45.06578" lon="7.61159">
        <ele>277</ele>
        <time>2016-10-05T16:43:45Z</time>
      </trkpt>
      <trkpt lat="45.06573" lon="7.61161">
        <ele>277.48</ele>
        <time>2016-10-05T16:43:46Z</time>
      </trkpt>
      <trkpt lat="45.06568" lon="7.61165">
        <ele>277.96</ele>
        <time>2016-10-05T16:43:47Z</time>
      </trkpt>
      <trkpt lat="45.06564" lon="7.61171">
        <ele>277.48</ele>
        <time>2016-10-05T16:43:48Z</time>
      </trkpt>
      <trkpt lat="45.06562" lon="7.61179">
        <ele>277.48</ele>
        <time>2016-10-05T16:43:49Z</time>
      </trkpt>
      <trkpt lat="45.06562" lon="7.61188">
        <ele>277.48</ele>
        <time>2016-10-05T16:43:50Z</time>
      </trkpt>
      <trkpt lat="45.06562" lon="7.61196">
        <ele>277.96</ele>
        <time>2016-10-05T16:43:51Z</time>
      </trkpt>
      <trkpt lat="45.06564" lon="7.61205">
        <ele>277.48</ele>
        <time>2016-10-05T16:43:52Z</time>
      </trkpt>
      <trkpt lat="45.06566" lon="7.61213">
        <ele>277.48</ele>
        <time>2016-10-05T16:43:53Z</time>
      </trkpt>
      <trkpt lat="45.06576" lon="7.61273">
        <ele>276.52</ele>
        <time>2016-10-05T16:44:00Z</time>
      </trkpt>
      <trkpt lat="45.06578" lon="7.6129">
        <ele>276.04</ele>
        <time>2016-10-05T16:44:02Z</time>
      </trkpt>
      <trkpt lat="45.06614" lon="7.61429">
        <ele>276.52</ele>
        <time>2016-10-05T16:44:18Z</time>
      </trkpt>
      <trkpt lat="45.06623" lon="7.61542">
        <ele>276.04</ele>
        <time>2016-10-05T16:44:30Z</time>
      </trkpt>
      <trkpt lat="45.06622" lon="7.61551">
        <ele>276.04</ele>
        <time>2016-10-05T16:44:31Z</time>
      </trkpt>
      <trkpt lat="45.0662" lon="7.61559">
        <ele>275.56</ele>
        <time>2016-10-05T16:44:32Z</time>
      </trkpt>
      <trkpt lat="45.06618" lon="7.61568">
        <ele>275.07</ele>
        <time>2016-10-05T16:44:33Z</time>
      </trkpt>
      <trkpt lat="45.06616" lon="7.61576">
        <ele>275.07</ele>
        <time>2016-10-05T16:44:34Z</time>
      </trkpt>
      <trkpt lat="45.06613" lon="7.61584">
        <ele>275.07</ele>
        <time>2016-10-05T16:44:35Z</time>
      </trkpt>
      <trkpt lat="45.06583" lon="7.61657">
        <ele>273.63</ele>
        <time>2016-10-05T16:44:46Z</time>
      </trkpt>
      <trkpt lat="45.06579" lon="7.61666">
        <ele>275.07</ele>
        <time>2016-10-05T16:44:48Z</time>
      </trkpt>
      <trkpt lat="45.06577" lon="7.61672">
        <ele>275.07</ele>
        <time>2016-10-05T16:44:49Z</time>
      </trkpt>
      <trkpt lat="45.06556" lon="7.61716">
        <ele>274.11</ele>
        <time>2016-10-05T16:44:57Z</time>
      </trkpt>
      <trkpt lat="45.0653" lon="7.61768">
        <ele>274.11</ele>
        <time>2016-10-05T16:45:06Z</time>
      </trkpt>
      <trkpt lat="45.06498" lon="7.61818">
        <ele>273.63</ele>
        <time>2016-10-05T16:45:15Z</time>
      </trkpt>
      <trkpt lat="45.0648" lon="7.61853">
        <ele>273.63</ele>
        <time>2016-10-05T16:45:21Z</time>
      </trkpt>
      <trkpt lat="45.06472" lon="7.61883">
        <ele>273.15</ele>
        <time>2016-10-05T16:45:25Z</time>
      </trkpt>
      <trkpt lat="45.0647" lon="7.61891">
        <ele>273.15</ele>
        <time>2016-10-05T16:45:26Z</time>
      </trkpt>
      <trkpt lat="45.06463" lon="7.61946">
        <ele>272.67</ele>
        <time>2016-10-05T16:45:33Z</time>
      </trkpt>
      <trkpt lat="45.06461" lon="7.62023">
        <ele>272.19</ele>
        <time>2016-10-05T16:45:45Z</time>
      </trkpt>
      <trkpt lat="45.06463" lon="7.62025">
        <ele>272.19</ele>
        <time>2016-10-05T16:45:46Z</time>
      </trkpt>
      <trkpt lat="45.06464" lon="7.62028">
        <ele>272.19</ele>
        <time>2016-10-05T16:45:47Z</time>
      </trkpt>
      <trkpt lat="45.06465" lon="7.62031">
        <ele>272.19</ele>
        <time>2016-10-05T16:45:48Z</time>
      </trkpt>
      <trkpt lat="45.06465" lon="7.62033">
        <ele>271.71</ele>
        <time>2016-10-05T16:45:49Z</time>
      </trkpt>
      <trkpt lat="45.06464" lon="7.62037">
        <ele>272.19</ele>
        <time>2016-10-05T16:45:50Z</time>
      </trkpt>
      <trkpt lat="45.06464" lon="7.62041">
        <ele>272.19</ele>
        <time>2016-10-05T16:45:51Z</time>
      </trkpt>
      <trkpt lat="45.06463" lon="7.62044">
        <ele>272.19</ele>
        <time>2016-10-05T16:45:52Z</time>
      </trkpt>
      <trkpt lat="45.06462" lon="7.62048">
        <ele>272.19</ele>
        <time>2016-10-05T16:45:53Z</time>
      </trkpt>
      <trkpt lat="45.06462" lon="7.62053">
        <ele>272.19</ele>
        <time>2016-10-05T16:45:54Z</time>
      </trkpt>
      <trkpt lat="45.06461" lon="7.62058">
        <ele>272.19</ele>
        <time>2016-10-05T16:45:55Z</time>
      </trkpt>
      <trkpt lat="45.06459" lon="7.62091">
        <ele>271.71</ele>
        <time>2016-10-05T16:46:00Z</time>
      </trkpt>
      <trkpt lat="45.06459" lon="7.62098">
        <ele>271.71</ele>
        <time>2016-10-05T16:46:01Z</time>
      </trkpt>
      <trkpt lat="45.06458" lon="7.62113">
        <ele>271.71</ele>
        <time>2016-10-05T16:46:03Z</time>
      </trkpt>
      <trkpt lat="45.0645" lon="7.62172">
        <ele>270.75</ele>
        <time>2016-10-05T16:46:11Z</time>
      </trkpt>
      <trkpt lat="45.06451" lon="7.62179">
        <ele>271.23</ele>
        <time>2016-10-05T16:46:12Z</time>
      </trkpt>
      <trkpt lat="45.06452" lon="7.62187">
        <ele>271.23</ele>
        <time>2016-10-05T16:46:13Z</time>
      </trkpt>
      <trkpt lat="45.06452" lon="7.62195">
        <ele>271.71</ele>
        <time>2016-10-05T16:46:14Z</time>
      </trkpt>
      <trkpt lat="45.06451" lon="7.62202">
        <ele>271.23</ele>
        <time>2016-10-05T16:46:15Z</time>
      </trkpt>
      <trkpt lat="45.0645" lon="7.62245">
        <ele>271.23</ele>
        <time>2016-10-05T16:46:25Z</time>
      </trkpt>
      <trkpt lat="45.06442" lon="7.62284">
        <ele>270.75</ele>
        <time>2016-10-05T16:46:37Z</time>
      </trkpt>
      <trkpt lat="45.06434" lon="7.6232">
        <ele>269.31</ele>
        <time>2016-10-05T16:46:45Z</time>
      </trkpt>
      <trkpt lat="45.06434" lon="7.62326">
        <ele>269.31</ele>
        <time>2016-10-05T16:46:46Z</time>
      </trkpt>
      <trkpt lat="45.06434" lon="7.62332">
        <ele>269.31</ele>
        <time>2016-10-05T16:46:47Z</time>
      </trkpt>
      <trkpt lat="45.06432" lon="7.62408">
        <ele>269.79</ele>
        <time>2016-10-05T16:46:59Z</time>
      </trkpt>
      <trkpt lat="45.06435" lon="7.62454">
        <ele>269.79</ele>
        <time>2016-10-05T16:47:10Z</time>
      </trkpt>
      <trkpt lat="45.06432" lon="7.62548">
        <ele>268.35</ele>
        <time>2016-10-05T16:47:23Z</time>
      </trkpt>
      <trkpt lat="45.0643" lon="7.62553">
        <ele>268.83</ele>
        <time>2016-10-05T16:47:34Z</time>
      </trkpt>
      <trkpt lat="45.06429" lon="7.62554">
        <ele>268.83</ele>
        <time>2016-10-05T16:48:06Z</time>
      </trkpt>
      <trkpt lat="45.06428" lon="7.62575">
        <ele>268.35</ele>
        <time>2016-10-05T16:48:25Z</time>
      </trkpt>
      <trkpt lat="45.06427" lon="7.62635">
        <ele>268.35</ele>
        <time>2016-10-05T16:48:35Z</time>
      </trkpt>
      <trkpt lat="45.06427" lon="7.62642">
        <ele>268.35</ele>
        <time>2016-10-05T16:48:36Z</time>
      </trkpt>
      <trkpt lat="45.06427" lon="7.62655">
        <ele>268.35</ele>
        <time>2016-10-05T16:48:38Z</time>
      </trkpt>
      <trkpt lat="45.06426" lon="7.62662">
        <ele>267.86</ele>
        <time>2016-10-05T16:48:39Z</time>
      </trkpt>
      <trkpt lat="45.06426" lon="7.62669">
        <ele>267.86</ele>
        <time>2016-10-05T16:48:40Z</time>
      </trkpt>
      <trkpt lat="45.06426" lon="7.62676">
        <ele>267.38</ele>
        <time>2016-10-05T16:48:41Z</time>
      </trkpt>
      <trkpt lat="45.06426" lon="7.62684">
        <ele>267.38</ele>
        <time>2016-10-05T16:48:42Z</time>
      </trkpt>
      <trkpt lat="45.06426" lon="7.62698">
        <ele>267.86</ele>
        <time>2016-10-05T16:48:44Z</time>
      </trkpt>
      <trkpt lat="45.06425" lon="7.62705">
        <ele>267.38</ele>
        <time>2016-10-05T16:48:45Z</time>
      </trkpt>
      <trkpt lat="45.06424" lon="7.62732">
        <ele>266.9</ele>
        <time>2016-10-05T16:48:49Z</time>
      </trkpt>
      <trkpt lat="45.06424" lon="7.62739">
        <ele>266.42</ele>
        <time>2016-10-05T16:48:50Z</time>
      </trkpt>
      <trkpt lat="45.06423" lon="7.62745">
        <ele>266.42</ele>
        <time>2016-10-05T16:48:51Z</time>
      </trkpt>
      <trkpt lat="45.06421" lon="7.62812">
        <ele>266.42</ele>
        <time>2016-10-05T16:49:01Z</time>
      </trkpt>
      <trkpt lat="45.0642" lon="7.62819">
        <ele>266.9</ele>
        <time>2016-10-05T16:49:02Z</time>
      </trkpt>
      <trkpt lat="45.0642" lon="7.6283">
        <ele>267.38</ele>
        <time>2016-10-05T16:49:04Z</time>
      </trkpt>
      <trkpt lat="45.06428" lon="7.62872">
        <ele>266.42</ele>
        <time>2016-10-05T16:49:13Z</time>
      </trkpt>
      <trkpt lat="45.06429" lon="7.62878">
        <ele>266.42</ele>
        <time>2016-10-05T16:49:14Z</time>
      </trkpt>
      <trkpt lat="45.06428" lon="7.62885">
        <ele>265.94</ele>
        <time>2016-10-05T16:49:15Z</time>
      </trkpt>
      <trkpt lat="45.06429" lon="7.6291">
        <ele>265.46</ele>
        <time>2016-10-05T16:49:19Z</time>
      </trkpt>
      <trkpt lat="45.0643" lon="7.62917">
        <ele>265.46</ele>
        <time>2016-10-05T16:49:20Z</time>
      </trkpt>
      <trkpt lat="45.06431" lon="7.62923">
        <ele>266.42</ele>
        <time>2016-10-05T16:49:21Z</time>
      </trkpt>
      <trkpt lat="45.06431" lon="7.6293">
        <ele>265.94</ele>
        <time>2016-10-05T16:49:22Z</time>
      </trkpt>
      <trkpt lat="45.06432" lon="7.62937">
        <ele>266.9</ele>
        <time>2016-10-05T16:49:23Z</time>
      </trkpt>
      <trkpt lat="45.06432" lon="7.62951">
        <ele>267.38</ele>
        <time>2016-10-05T16:49:25Z</time>
      </trkpt>
      <trkpt lat="45.06431" lon="7.62965">
        <ele>266.9</ele>
        <time>2016-10-05T16:49:27Z</time>
      </trkpt>
      <trkpt lat="45.06431" lon="7.62973">
        <ele>266.42</ele>
        <time>2016-10-05T16:49:28Z</time>
      </trkpt>
      <trkpt lat="45.06432" lon="7.62986">
        <ele>265.46</ele>
        <time>2016-10-05T16:49:30Z</time>
      </trkpt>
      <trkpt lat="45.06433" lon="7.63007">
        <ele>267.38</ele>
        <time>2016-10-05T16:49:34Z</time>
      </trkpt>
      <trkpt lat="45.06431" lon="7.63036">
        <ele>266.42</ele>
        <time>2016-10-05T16:49:44Z</time>
      </trkpt>
      <trkpt lat="45.06435" lon="7.63102">
        <ele>265.94</ele>
        <time>2016-10-05T16:49:56Z</time>
      </trkpt>
      <trkpt lat="45.06437" lon="7.63115">
        <ele>265.94</ele>
        <time>2016-10-05T16:49:58Z</time>
      </trkpt>
      <trkpt lat="45.06438" lon="7.63128">
        <ele>265.46</ele>
        <time>2016-10-05T16:50:00Z</time>
      </trkpt>
      <trkpt lat="45.06439" lon="7.63147">
        <ele>265.46</ele>
        <time>2016-10-05T16:50:03Z</time>
      </trkpt>
      <trkpt lat="45.0644" lon="7.63153">
        <ele>265.46</ele>
        <time>2016-10-05T16:50:04Z</time>
      </trkpt>
      <trkpt lat="45.0644" lon="7.6316">
        <ele>265.94</ele>
        <time>2016-10-05T16:50:05Z</time>
      </trkpt>
      <trkpt lat="45.0644" lon="7.63167">
        <ele>265.46</ele>
        <time>2016-10-05T16:50:06Z</time>
      </trkpt>
      <trkpt lat="45.0644" lon="7.63174">
        <ele>265.46</ele>
        <time>2016-10-05T16:50:07Z</time>
      </trkpt>
      <trkpt lat="45.0644" lon="7.63181">
        <ele>265.46</ele>
        <time>2016-10-05T16:50:08Z</time>
      </trkpt>
      <trkpt lat="45.06439" lon="7.63203">
        <ele>264.98</ele>
        <time>2016-10-05T16:50:11Z</time>
      </trkpt>
      <trkpt lat="45.06439" lon="7.63211">
        <ele>265.46</ele>
        <time>2016-10-05T16:50:12Z</time>
      </trkpt>
      <trkpt lat="45.06442" lon="7.63281">
        <ele>264.98</ele>
        <time>2016-10-05T16:50:23Z</time>
      </trkpt>
      <trkpt lat="45.06443" lon="7.63288">
        <ele>264.98</ele>
        <time>2016-10-05T16:50:24Z</time>
      </trkpt>
      <trkpt lat="45.06448" lon="7.63393">
        <ele>264.5</ele>
        <time>2016-10-05T16:50:38Z</time>
      </trkpt>
      <trkpt lat="45.06461" lon="7.63486">
        <ele>263.06</ele>
        <time>2016-10-05T16:50:52Z</time>
      </trkpt>
      <trkpt lat="45.06469" lon="7.63515">
        <ele>263.06</ele>
        <time>2016-10-05T16:51:04Z</time>
      </trkpt>
      <trkpt lat="45.06472" lon="7.63564">
        <ele>263.54</ele>
        <time>2016-10-05T16:51:15Z</time>
      </trkpt>
      <trkpt lat="45.06472" lon="7.63571">
        <ele>263.06</ele>
        <time>2016-10-05T16:51:16Z</time>
      </trkpt>
      <trkpt lat="45.06473" lon="7.63578">
        <ele>262.58</ele>
        <time>2016-10-05T16:51:17Z</time>
      </trkpt>
      <trkpt lat="45.06473" lon="7.63585">
        <ele>262.58</ele>
        <time>2016-10-05T16:51:18Z</time>
      </trkpt>
      <trkpt lat="45.06473" lon="7.63593">
        <ele>262.58</ele>
        <time>2016-10-05T16:51:19Z</time>
      </trkpt>
      <trkpt lat="45.06473" lon="7.636">
        <ele>262.58</ele>
        <time>2016-10-05T16:51:20Z</time>
      </trkpt>
      <trkpt lat="45.06472" lon="7.63615">
        <ele>261.62</ele>
        <time>2016-10-05T16:51:22Z</time>
      </trkpt>
      <trkpt lat="45.06471" lon="7.63622">
        <ele>262.58</ele>
        <time>2016-10-05T16:51:23Z</time>
      </trkpt>
      <trkpt lat="45.06469" lon="7.63657">
        <ele>263.06</ele>
        <time>2016-10-05T16:51:28Z</time>
      </trkpt>
      <trkpt lat="45.06473" lon="7.6377">
        <ele>261.62</ele>
        <time>2016-10-05T16:51:44Z</time>
      </trkpt>
      <trkpt lat="45.06472" lon="7.63792">
        <ele>261.14</ele>
        <time>2016-10-05T16:51:47Z</time>
      </trkpt>
      <trkpt lat="45.06473" lon="7.638">
        <ele>261.14</ele>
        <time>2016-10-05T16:51:48Z</time>
      </trkpt>
      <trkpt lat="45.06473" lon="7.63808">
        <ele>261.14</ele>
        <time>2016-10-05T16:51:49Z</time>
      </trkpt>
      <trkpt lat="45.06473" lon="7.6387">
        <ele>261.14</ele>
        <time>2016-10-05T16:52:01Z</time>
      </trkpt>
      <trkpt lat="45.06466" lon="7.63933">
        <ele>259.69</ele>
        <time>2016-10-05T16:52:12Z</time>
      </trkpt>
      <trkpt lat="45.06466" lon="7.63948">
        <ele>260.17</ele>
        <time>2016-10-05T16:52:14Z</time>
      </trkpt>
      <trkpt lat="45.06464" lon="7.64">
        <ele>259.69</ele>
        <time>2016-10-05T16:52:21Z</time>
      </trkpt>
      <trkpt lat="45.06465" lon="7.64007">
        <ele>260.65</ele>
        <time>2016-10-05T16:52:22Z</time>
      </trkpt>
      <trkpt lat="45.06467" lon="7.64014">
        <ele>260.65</ele>
        <time>2016-10-05T16:52:23Z</time>
      </trkpt>
      <trkpt lat="45.06469" lon="7.64022">
        <ele>260.65</ele>
        <time>2016-10-05T16:52:24Z</time>
      </trkpt>
      <trkpt lat="45.06469" lon="7.64029">
        <ele>260.65</ele>
        <time>2016-10-05T16:52:25Z</time>
      </trkpt>
      <trkpt lat="45.06469" lon="7.64036">
        <ele>259.69</ele>
        <time>2016-10-05T16:52:26Z</time>
      </trkpt>
      <trkpt lat="45.06469" lon="7.64043">
        <ele>259.69</ele>
        <time>2016-10-05T16:52:27Z</time>
      </trkpt>
      <trkpt lat="45.06469" lon="7.64064">
        <ele>259.21</ele>
        <time>2016-10-05T16:52:30Z</time>
      </trkpt>
      <trkpt lat="45.0647" lon="7.6407">
        <ele>259.69</ele>
        <time>2016-10-05T16:52:31Z</time>
      </trkpt>
      <trkpt lat="45.06469" lon="7.64077">
        <ele>259.69</ele>
        <time>2016-10-05T16:52:32Z</time>
      </trkpt>
      <trkpt lat="45.06461" lon="7.64163">
        <ele>259.69</ele>
        <time>2016-10-05T16:52:43Z</time>
      </trkpt>
      <trkpt lat="45.06457" lon="7.6427">
        <ele>257.77</ele>
        <time>2016-10-05T16:52:57Z</time>
      </trkpt>
      <trkpt lat="45.06457" lon="7.64279">
        <ele>258.25</ele>
        <time>2016-10-05T16:52:58Z</time>
      </trkpt>
      <trkpt lat="45.06454" lon="7.64427">
        <ele>257.29</ele>
        <time>2016-10-05T16:53:14Z</time>
      </trkpt>
      <trkpt lat="45.06452" lon="7.64471">
        <ele>257.77</ele>
        <time>2016-10-05T16:53:23Z</time>
      </trkpt>
      <trkpt lat="45.06452" lon="7.64477">
        <ele>257.29</ele>
        <time>2016-10-05T16:53:40Z</time>
      </trkpt>
      <trkpt lat="45.06449" lon="7.64478">
        <ele>257.77</ele>
        <time>2016-10-05T16:54:06Z</time>
      </trkpt>
      <trkpt lat="45.06451" lon="7.64511">
        <ele>257.77</ele>
        <time>2016-10-05T16:54:16Z</time>
      </trkpt>
      <trkpt lat="45.06455" lon="7.64542">
        <ele>257.29</ele>
        <time>2016-10-05T16:54:22Z</time>
      </trkpt>
      <trkpt lat="45.06458" lon="7.64586">
        <ele>256.81</ele>
        <time>2016-10-05T16:54:28Z</time>
      </trkpt>
      <trkpt lat="45.0647" lon="7.64711">
        <ele>256.81</ele>
        <time>2016-10-05T16:54:43Z</time>
      </trkpt>
      <trkpt lat="45.06475" lon="7.64763">
        <ele>256.33</ele>
        <time>2016-10-05T16:54:49Z</time>
      </trkpt>
      <trkpt lat="45.06478" lon="7.64825">
        <ele>255.37</ele>
        <time>2016-10-05T16:54:57Z</time>
      </trkpt>
      <trkpt lat="45.06482" lon="7.64859">
        <ele>255.37</ele>
        <time>2016-10-05T16:55:04Z</time>
      </trkpt>
      <trkpt lat="45.06481" lon="7.64864">
        <ele>255.85</ele>
        <time>2016-10-05T16:55:05Z</time>
      </trkpt>
      <trkpt lat="45.06474" lon="7.64875">
        <ele>255.37</ele>
        <time>2016-10-05T16:55:07Z</time>
      </trkpt>
      <trkpt lat="45.06472" lon="7.64881">
        <ele>255.37</ele>
        <time>2016-10-05T16:55:08Z</time>
      </trkpt>
      <trkpt lat="45.0647" lon="7.64894">
        <ele>255.37</ele>
        <time>2016-10-05T16:55:10Z</time>
      </trkpt>
      <trkpt lat="45.06469" lon="7.649">
        <ele>255.37</ele>
        <time>2016-10-05T16:55:11Z</time>
      </trkpt>
      <trkpt lat="45.06465" lon="7.6491">
        <ele>254.89</ele>
        <time>2016-10-05T16:55:13Z</time>
      </trkpt>
      <trkpt lat="45.06462" lon="7.64916">
        <ele>254.89</ele>
        <time>2016-10-05T16:55:14Z</time>
      </trkpt>
      <trkpt lat="45.06455" lon="7.64934">
        <ele>254.89</ele>
        <time>2016-10-05T16:55:17Z</time>
      </trkpt>
      <trkpt lat="45.06455" lon="7.64942">
        <ele>254.41</ele>
        <time>2016-10-05T16:55:18Z</time>
      </trkpt>
      <trkpt lat="45.06455" lon="7.64949">
        <ele>255.37</ele>
        <time>2016-10-05T16:55:19Z</time>
      </trkpt>
      <trkpt lat="45.06457" lon="7.64956">
        <ele>254.89</ele>
        <time>2016-10-05T16:55:20Z</time>
      </trkpt>
      <trkpt lat="45.06459" lon="7.64962">
        <ele>253.93</ele>
        <time>2016-10-05T16:55:21Z</time>
      </trkpt>
      <trkpt lat="45.06462" lon="7.64967">
        <ele>254.89</ele>
        <time>2016-10-05T16:55:22Z</time>
      </trkpt>
      <trkpt lat="45.06466" lon="7.6497">
        <ele>254.89</ele>
        <time>2016-10-05T16:55:23Z</time>
      </trkpt>
      <trkpt lat="45.0647" lon="7.64972">
        <ele>255.37</ele>
        <time>2016-10-05T16:55:24Z</time>
      </trkpt>
      <trkpt lat="45.06473" lon="7.64973">
        <ele>255.37</ele>
        <time>2016-10-05T16:55:25Z</time>
      </trkpt>
      <trkpt lat="45.06477" lon="7.64973">
        <ele>255.85</ele>
        <time>2016-10-05T16:55:26Z</time>
      </trkpt>
      <trkpt lat="45.0648" lon="7.64972">
        <ele>255.37</ele>
        <time>2016-10-05T16:55:27Z</time>
      </trkpt>
      <trkpt lat="45.06483" lon="7.64972">
        <ele>254.89</ele>
        <time>2016-10-05T16:55:28Z</time>
      </trkpt>
      <trkpt lat="45.06488" lon="7.64973">
        <ele>254.89</ele>
        <time>2016-10-05T16:55:30Z</time>
      </trkpt>
      <trkpt lat="45.06493" lon="7.64971">
        <ele>254.89</ele>
        <time>2016-10-05T16:55:32Z</time>
      </trkpt>
      <trkpt lat="45.06496" lon="7.64973">
        <ele>254.89</ele>
        <time>2016-10-05T16:55:33Z</time>
      </trkpt>
      <trkpt lat="45.06497" lon="7.64975">
        <ele>254.89</ele>
        <time>2016-10-05T16:55:34Z</time>
      </trkpt>
      <trkpt lat="45.06498" lon="7.64979">
        <ele>254.89</ele>
        <time>2016-10-05T16:55:35Z</time>
      </trkpt>
      <trkpt lat="45.06498" lon="7.64984">
        <ele>254.41</ele>
        <time>2016-10-05T16:55:36Z</time>
      </trkpt>
      <trkpt lat="45.06499" lon="7.64989">
        <ele>254.41</ele>
        <time>2016-10-05T16:55:37Z</time>
      </trkpt>
      <trkpt lat="45.06504" lon="7.65078">
        <ele>254.89</ele>
        <time>2016-10-05T16:55:50Z</time>
      </trkpt>
      <trkpt lat="45.06506" lon="7.65093">
        <ele>255.37</ele>
        <time>2016-10-05T16:55:52Z</time>
      </trkpt>
      <trkpt lat="45.06506" lon="7.651">
        <ele>254.89</ele>
        <time>2016-10-05T16:55:53Z</time>
      </trkpt>
      <trkpt lat="45.0651" lon="7.65153">
        <ele>253.93</ele>
        <time>2016-10-05T16:56:00Z</time>
      </trkpt>
      <trkpt lat="45.06514" lon="7.65203">
        <ele>254.41</ele>
        <time>2016-10-05T16:56:07Z</time>
      </trkpt>
      <trkpt lat="45.06523" lon="7.65302">
        <ele>253.44</ele>
        <time>2016-10-05T16:56:20Z</time>
      </trkpt>
      <trkpt lat="45.06526" lon="7.65324">
        <ele>253.93</ele>
        <time>2016-10-05T16:56:23Z</time>
      </trkpt>
      <trkpt lat="45.06527" lon="7.65332">
        <ele>253.44</ele>
        <time>2016-10-05T16:56:24Z</time>
      </trkpt>
      <trkpt lat="45.06532" lon="7.65355">
        <ele>252.96</ele>
        <time>2016-10-05T16:56:27Z</time>
      </trkpt>
      <trkpt lat="45.06543" lon="7.65452">
        <ele>252.48</ele>
        <time>2016-10-05T16:56:41Z</time>
      </trkpt>
      <trkpt lat="45.06545" lon="7.65473">
        <ele>252.48</ele>
        <time>2016-10-05T16:56:49Z</time>
      </trkpt>
      <trkpt lat="45.06544" lon="7.65476">
        <ele>252</ele>
        <time>2016-10-05T16:56:50Z</time>
      </trkpt>
      <trkpt lat="45.06544" lon="7.65478">
        <ele>252</ele>
        <time>2016-10-05T16:56:51Z</time>
      </trkpt>
      <trkpt lat="45.06544" lon="7.65481">
        <ele>252.48</ele>
        <time>2016-10-05T16:56:52Z</time>
      </trkpt>
      <trkpt lat="45.06543" lon="7.65483">
        <ele>252.48</ele>
        <time>2016-10-05T16:56:53Z</time>
      </trkpt>
      <trkpt lat="45.06552" lon="7.65498">
        <ele>252.48</ele>
        <time>2016-10-05T16:57:08Z</time>
      </trkpt>
      <trkpt lat="45.06557" lon="7.65498">
        <ele>252.48</ele>
        <time>2016-10-05T16:57:36Z</time>
      </trkpt>
      <trkpt lat="45.0655" lon="7.65502">
        <ele>252.48</ele>
        <time>2016-10-05T16:58:01Z</time>
      </trkpt>
      <trkpt lat="45.0655" lon="7.65505">
        <ele>252.96</ele>
        <time>2016-10-05T16:58:02Z</time>
      </trkpt>
      <trkpt lat="45.0655" lon="7.65508">
        <ele>252.96</ele>
        <time>2016-10-05T16:58:03Z</time>
      </trkpt>
      <trkpt lat="45.0655" lon="7.65512">
        <ele>252.96</ele>
        <time>2016-10-05T16:58:04Z</time>
      </trkpt>
      <trkpt lat="45.06549" lon="7.65517">
        <ele>253.44</ele>
        <time>2016-10-05T16:58:05Z</time>
      </trkpt>
      <trkpt lat="45.06549" lon="7.65522">
        <ele>253.44</ele>
        <time>2016-10-05T16:58:06Z</time>
      </trkpt>
      <trkpt lat="45.06548" lon="7.65544">
        <ele>252.96</ele>
        <time>2016-10-05T16:58:10Z</time>
      </trkpt>
      <trkpt lat="45.06551" lon="7.65585">
        <ele>252.48</ele>
        <time>2016-10-05T16:58:16Z</time>
      </trkpt>
      <trkpt lat="45.06556" lon="7.65655">
        <ele>252</ele>
        <time>2016-10-05T16:58:26Z</time>
      </trkpt>
      <trkpt lat="45.0656" lon="7.65676">
        <ele>251.04</ele>
        <time>2016-10-05T16:58:29Z</time>
      </trkpt>
      <trkpt lat="45.06561" lon="7.6569">
        <ele>251.04</ele>
        <time>2016-10-05T16:58:31Z</time>
      </trkpt>
      <trkpt lat="45.06562" lon="7.65696">
        <ele>252</ele>
        <time>2016-10-05T16:58:32Z</time>
      </trkpt>
      <trkpt lat="45.06565" lon="7.65702">
        <ele>251.52</ele>
        <time>2016-10-05T16:58:33Z</time>
      </trkpt>
      <trkpt lat="45.06568" lon="7.65707">
        <ele>252</ele>
        <time>2016-10-05T16:58:34Z</time>
      </trkpt>
      <trkpt lat="45.06572" lon="7.65711">
        <ele>251.52</ele>
        <time>2016-10-05T16:58:35Z</time>
      </trkpt>
      <trkpt lat="45.06577" lon="7.65715">
        <ele>251.04</ele>
        <time>2016-10-05T16:58:36Z</time>
      </trkpt>
      <trkpt lat="45.06582" lon="7.65718">
        <ele>251.04</ele>
        <time>2016-10-05T16:58:37Z</time>
      </trkpt>
      <trkpt lat="45.06615" lon="7.65735">
        <ele>251.52</ele>
        <time>2016-10-05T16:58:45Z</time>
      </trkpt>
      <trkpt lat="45.06619" lon="7.65737">
        <ele>251.52</ele>
        <time>2016-10-05T16:58:46Z</time>
      </trkpt>
      <trkpt lat="45.06638" lon="7.65748">
        <ele>252</ele>
        <time>2016-10-05T16:58:50Z</time>
      </trkpt>
      <trkpt lat="45.0671" lon="7.65801">
        <ele>251.52</ele>
        <time>2016-10-05T16:59:04Z</time>
      </trkpt>
      <trkpt lat="45.06736" lon="7.65817">
        <ele>251.52</ele>
        <time>2016-10-05T16:59:09Z</time>
      </trkpt>
      <trkpt lat="45.06808" lon="7.65881">
        <ele>251.52</ele>
        <time>2016-10-05T16:59:24Z</time>
      </trkpt>
      <trkpt lat="45.06888" lon="7.65939">
        <ele>251.04</ele>
        <time>2016-10-05T16:59:40Z</time>
      </trkpt>
      <trkpt lat="45.06893" lon="7.65943">
        <ele>251.04</ele>
        <time>2016-10-05T16:59:41Z</time>
      </trkpt>
      <trkpt lat="45.06897" lon="7.65946">
        <ele>251.04</ele>
        <time>2016-10-05T16:59:42Z</time>
      </trkpt>
      <trkpt lat="45.06931" lon="7.65971">
        <ele>250.56</ele>
        <time>2016-10-05T16:59:53Z</time>
      </trkpt>
      <trkpt lat="45.06932" lon="7.65973">
        <ele>250.56</ele>
        <time>2016-10-05T16:59:54Z</time>
      </trkpt>
      <trkpt lat="45.06933" lon="7.65976">
        <ele>250.56</ele>
        <time>2016-10-05T16:59:55Z</time>
      </trkpt>
      <trkpt lat="45.06934" lon="7.65979">
        <ele>251.04</ele>
        <time>2016-10-05T16:59:56Z</time>
      </trkpt>
      <trkpt lat="45.06935" lon="7.65982">
        <ele>250.56</ele>
        <time>2016-10-05T16:59:57Z</time>
      </trkpt>
      <trkpt lat="45.06935" lon="7.65985">
        <ele>250.56</ele>
        <time>2016-10-05T16:59:58Z</time>
      </trkpt>
      <trkpt lat="45.06934" lon="7.65989">
        <ele>251.04</ele>
        <time>2016-10-05T16:59:59Z</time>
      </trkpt>
      <trkpt lat="45.06933" lon="7.65993">
        <ele>250.56</ele>
        <time>2016-10-05T17:00:00Z</time>
      </trkpt>
      <trkpt lat="45.06933" lon="7.65997">
        <ele>250.56</ele>
        <time>2016-10-05T17:00:01Z</time>
      </trkpt>
      <trkpt lat="45.06932" lon="7.66002">
        <ele>250.56</ele>
        <time>2016-10-05T17:00:02Z</time>
      </trkpt>
      <trkpt lat="45.06904" lon="7.66078">
        <ele>250.56</ele>
        <time>2016-10-05T17:00:16Z</time>
      </trkpt>
      <trkpt lat="45.06878" lon="7.66152">
        <ele>249.6</ele>
        <time>2016-10-05T17:00:29Z</time>
      </trkpt>
      <trkpt lat="45.06876" lon="7.66158">
        <ele>249.6</ele>
        <time>2016-10-05T17:00:30Z</time>
      </trkpt>
      <trkpt lat="45.06848" lon="7.66237">
        <ele>250.08</ele>
        <time>2016-10-05T17:00:46Z</time>
      </trkpt>
      <trkpt lat="45.06847" lon="7.66239">
        <ele>249.12</ele>
        <time>2016-10-05T17:00:47Z</time>
      </trkpt>
      <trkpt lat="45.06844" lon="7.66239">
        <ele>249.6</ele>
        <time>2016-10-05T17:00:48Z</time>
      </trkpt>
      <trkpt lat="45.06842" lon="7.66238">
        <ele>249.6</ele>
        <time>2016-10-05T17:00:49Z</time>
      </trkpt>
      <trkpt lat="45.06838" lon="7.66235">
        <ele>250.08</ele>
        <time>2016-10-05T17:00:52Z</time>
      </trkpt>
      <trkpt lat="45.06836" lon="7.66236">
        <ele>249.6</ele>
        <time>2016-10-05T17:00:53Z</time>
      </trkpt>
      <trkpt lat="45.06834" lon="7.66237">
        <ele>249.12</ele>
        <time>2016-10-05T17:00:54Z</time>
      </trkpt>
      <trkpt lat="45.06832" lon="7.66239">
        <ele>249.12</ele>
        <time>2016-10-05T17:00:55Z</time>
      </trkpt>
      <trkpt lat="45.06831" lon="7.66242">
        <ele>249.6</ele>
        <time>2016-10-05T17:00:56Z</time>
      </trkpt>
      <trkpt lat="45.06831" lon="7.66244">
        <ele>249.6</ele>
        <time>2016-10-05T17:00:57Z</time>
      </trkpt>
      <trkpt lat="45.0683" lon="7.66247">
        <ele>249.6</ele>
        <time>2016-10-05T17:00:59Z</time>
      </trkpt>
      <trkpt lat="45.06831" lon="7.66255">
        <ele>249.12</ele>
        <time>2016-10-05T17:01:13Z</time>
      </trkpt>
      <trkpt lat="45.06829" lon="7.6626">
        <ele>249.6</ele>
        <time>2016-10-05T17:01:29Z</time>
      </trkpt>
      <trkpt lat="45.06815" lon="7.66292">
        <ele>249.6</ele>
        <time>2016-10-05T17:01:41Z</time>
      </trkpt>
      <trkpt lat="45.06812" lon="7.66301">
        <ele>249.6</ele>
        <time>2016-10-05T17:01:47Z</time>
      </trkpt>
      <trkpt lat="45.06812" lon="7.66303">
        <ele>249.12</ele>
        <time>2016-10-05T17:01:48Z</time>
      </trkpt>
      <trkpt lat="45.06813" lon="7.66305">
        <ele>248.64</ele>
        <time>2016-10-05T17:01:50Z</time>
      </trkpt>
      <trkpt lat="45.06813" lon="7.66312">
        <ele>248.64</ele>
        <time>2016-10-05T17:01:55Z</time>
      </trkpt>
      <trkpt lat="45.06813" lon="7.66314">
        <ele>248.16</ele>
        <time>2016-10-05T17:01:56Z</time>
      </trkpt>
      <trkpt lat="45.06813" lon="7.66316">
        <ele>247.68</ele>
        <time>2016-10-05T17:01:57Z</time>
      </trkpt>
      <trkpt lat="45.06806" lon="7.6635">
        <ele>247.68</ele>
        <time>2016-10-05T17:02:07Z</time>
      </trkpt>
      <trkpt lat="45.06785" lon="7.66398">
        <ele>247.2</ele>
        <time>2016-10-05T17:02:16Z</time>
      </trkpt>
      <trkpt lat="45.06782" lon="7.66404">
        <ele>247.68</ele>
        <time>2016-10-05T17:02:17Z</time>
      </trkpt>
      <trkpt lat="45.0678" lon="7.66411">
        <ele>247.2</ele>
        <time>2016-10-05T17:02:18Z</time>
      </trkpt>
      <trkpt lat="45.06778" lon="7.66417">
        <ele>248.16</ele>
        <time>2016-10-05T17:02:19Z</time>
      </trkpt>
      <trkpt lat="45.06775" lon="7.66422">
        <ele>247.68</ele>
        <time>2016-10-05T17:02:20Z</time>
      </trkpt>
      <trkpt lat="45.06756" lon="7.66491">
        <ele>247.2</ele>
        <time>2016-10-05T17:02:32Z</time>
      </trkpt>
      <trkpt lat="45.06735" lon="7.66568">
        <ele>246.23</ele>
        <time>2016-10-05T17:02:46Z</time>
      </trkpt>
      <trkpt lat="45.06737" lon="7.66574">
        <ele>246.23</ele>
        <time>2016-10-05T17:03:01Z</time>
      </trkpt>
      <trkpt lat="45.06744" lon="7.66578">
        <ele>246.23</ele>
        <time>2016-10-05T17:03:30Z</time>
      </trkpt>
      <trkpt lat="45.06744" lon="7.66587">
        <ele>246.72</ele>
        <time>2016-10-05T17:03:55Z</time>
      </trkpt>
      <trkpt lat="45.06731" lon="7.66594">
        <ele>246.23</ele>
        <time>2016-10-05T17:03:59Z</time>
      </trkpt>
      <trkpt lat="45.06731" lon="7.66598">
        <ele>245.75</ele>
        <time>2016-10-05T17:04:00Z</time>
      </trkpt>
      <trkpt lat="45.06709" lon="7.66657">
        <ele>245.75</ele>
        <time>2016-10-05T17:04:12Z</time>
      </trkpt>
      <trkpt lat="45.06673" lon="7.66744">
        <ele>244.79</ele>
        <time>2016-10-05T17:04:25Z</time>
      </trkpt>
      <trkpt lat="45.06643" lon="7.6683">
        <ele>245.27</ele>
        <time>2016-10-05T17:04:36Z</time>
      </trkpt>
      <trkpt lat="45.066" lon="7.66959">
        <ele>243.83</ele>
        <time>2016-10-05T17:04:51Z</time>
      </trkpt>
      <trkpt lat="45.0659" lon="7.66985">
        <ele>243.35</ele>
        <time>2016-10-05T17:04:59Z</time>
      </trkpt>
      <trkpt lat="45.0658" lon="7.66997">
        <ele>243.35</ele>
        <time>2016-10-05T17:05:13Z</time>
      </trkpt>
      <trkpt lat="45.06576" lon="7.67008">
        <ele>243.35</ele>
        <time>2016-10-05T17:05:16Z</time>
      </trkpt>
      <trkpt lat="45.06573" lon="7.6701">
        <ele>242.87</ele>
        <time>2016-10-05T17:05:17Z</time>
      </trkpt>
      <trkpt lat="45.0657" lon="7.67012">
        <ele>242.87</ele>
        <time>2016-10-05T17:05:18Z</time>
      </trkpt>
      <trkpt lat="45.06539" lon="7.67024">
        <ele>243.35</ele>
        <time>2016-10-05T17:05:31Z</time>
      </trkpt>
      <trkpt lat="45.0653" lon="7.67023">
        <ele>242.87</ele>
        <time>2016-10-05T17:05:46Z</time>
      </trkpt>
      <trkpt lat="45.0653" lon="7.67022">
        <ele>243.83</ele>
        <time>2016-10-05T17:06:03Z</time>
      </trkpt>
      <trkpt lat="45.06529" lon="7.67023">
        <ele>243.83</ele>
        <time>2016-10-05T17:06:04Z</time>
      </trkpt>
      <trkpt lat="45.06527" lon="7.67025">
        <ele>243.35</ele>
        <time>2016-10-05T17:06:05Z</time>
      </trkpt>
      <trkpt lat="45.06509" lon="7.6706">
        <ele>244.31</ele>
        <time>2016-10-05T17:06:13Z</time>
      </trkpt>
      <trkpt lat="45.06508" lon="7.67067">
        <ele>244.31</ele>
        <time>2016-10-05T17:06:14Z</time>
      </trkpt>
      <trkpt lat="45.06508" lon="7.67074">
        <ele>243.83</ele>
        <time>2016-10-05T17:06:15Z</time>
      </trkpt>
      <trkpt lat="45.06509" lon="7.67081">
        <ele>243.83</ele>
        <time>2016-10-05T17:06:16Z</time>
      </trkpt>
      <trkpt lat="45.06511" lon="7.67087">
        <ele>243.35</ele>
        <time>2016-10-05T17:06:17Z</time>
      </trkpt>
      <trkpt lat="45.06522" lon="7.67143">
        <ele>243.35</ele>
        <time>2016-10-05T17:06:25Z</time>
      </trkpt>
      <trkpt lat="45.06522" lon="7.67149">
        <ele>243.35</ele>
        <time>2016-10-05T17:06:26Z</time>
      </trkpt>
      <trkpt lat="45.06522" lon="7.67156">
        <ele>242.39</ele>
        <time>2016-10-05T17:06:27Z</time>
      </trkpt>
      <trkpt lat="45.06516" lon="7.67174">
        <ele>242.87</ele>
        <time>2016-10-05T17:06:30Z</time>
      </trkpt>
      <trkpt lat="45.06514" lon="7.6718">
        <ele>243.35</ele>
        <time>2016-10-05T17:06:31Z</time>
      </trkpt>
      <trkpt lat="45.06511" lon="7.67187">
        <ele>243.35</ele>
        <time>2016-10-05T17:06:32Z</time>
      </trkpt>
      <trkpt lat="45.06508" lon="7.67193">
        <ele>242.39</ele>
        <time>2016-10-05T17:06:33Z</time>
      </trkpt>
      <trkpt lat="45.06506" lon="7.67199">
        <ele>242.87</ele>
        <time>2016-10-05T17:06:34Z</time>
      </trkpt>
      <trkpt lat="45.06503" lon="7.67205">
        <ele>242.87</ele>
        <time>2016-10-05T17:06:35Z</time>
      </trkpt>
      <trkpt lat="45.06501" lon="7.67211">
        <ele>243.35</ele>
        <time>2016-10-05T17:06:36Z</time>
      </trkpt>
      <trkpt lat="45.06499" lon="7.67217">
        <ele>242.87</ele>
        <time>2016-10-05T17:06:37Z</time>
      </trkpt>
      <trkpt lat="45.06495" lon="7.67229">
        <ele>242.87</ele>
        <time>2016-10-05T17:06:39Z</time>
      </trkpt>
      <trkpt lat="45.06479" lon="7.67283">
        <ele>241.91</ele>
        <time>2016-10-05T17:06:48Z</time>
      </trkpt>
      <trkpt lat="45.0646" lon="7.67341">
        <ele>241.91</ele>
        <time>2016-10-05T17:07:00Z</time>
      </trkpt>
      <trkpt lat="45.06455" lon="7.67351">
        <ele>241.91</ele>
        <time>2016-10-05T17:07:05Z</time>
      </trkpt>
      <trkpt lat="45.06454" lon="7.67352">
        <ele>242.39</ele>
        <time>2016-10-05T17:07:06Z</time>
      </trkpt>
      <trkpt lat="45.06453" lon="7.67352">
        <ele>242.39</ele>
        <time>2016-10-05T17:07:07Z</time>
      </trkpt>
      <trkpt lat="45.06452" lon="7.67353">
        <ele>241.91</ele>
        <time>2016-10-05T17:07:08Z</time>
      </trkpt>
      <trkpt lat="45.06449" lon="7.67355">
        <ele>241.91</ele>
        <time>2016-10-05T17:07:23Z</time>
      </trkpt>
      <trkpt lat="45.06448" lon="7.6736">
        <ele>241.91</ele>
        <time>2016-10-05T17:07:34Z</time>
      </trkpt>
      <trkpt lat="45.06447" lon="7.67362">
        <ele>242.39</ele>
        <time>2016-10-05T17:07:35Z</time>
      </trkpt>
      <trkpt lat="45.06446" lon="7.67365">
        <ele>242.87</ele>
        <time>2016-10-05T17:07:36Z</time>
      </trkpt>
      <trkpt lat="45.06446" lon="7.67368">
        <ele>242.87</ele>
        <time>2016-10-05T17:07:37Z</time>
      </trkpt>
      <trkpt lat="45.06445" lon="7.67371">
        <ele>242.87</ele>
        <time>2016-10-05T17:07:38Z</time>
      </trkpt>
      <trkpt lat="45.06443" lon="7.67374">
        <ele>242.87</ele>
        <time>2016-10-05T17:07:39Z</time>
      </trkpt>
      <trkpt lat="45.06442" lon="7.67377">
        <ele>241.91</ele>
        <time>2016-10-05T17:07:40Z</time>
      </trkpt>
      <trkpt lat="45.06442" lon="7.6738">
        <ele>242.87</ele>
        <time>2016-10-05T17:07:41Z</time>
      </trkpt>
      <trkpt lat="45.06441" lon="7.67384">
        <ele>242.39</ele>
        <time>2016-10-05T17:07:42Z</time>
      </trkpt>
      <trkpt lat="45.06421" lon="7.67447">
        <ele>241.91</ele>
        <time>2016-10-05T17:07:54Z</time>
      </trkpt>
      <trkpt lat="45.06409" lon="7.67493">
        <ele>241.91</ele>
        <time>2016-10-05T17:08:03Z</time>
      </trkpt>
      <trkpt lat="45.06407" lon="7.67499">
        <ele>241.91</ele>
        <time>2016-10-05T17:08:04Z</time>
      </trkpt>
      <trkpt lat="45.06398" lon="7.67529">
        <ele>241.43</ele>
        <time>2016-10-05T17:08:09Z</time>
      </trkpt>
      <trkpt lat="45.06395" lon="7.67535">
        <ele>241.91</ele>
        <time>2016-10-05T17:08:10Z</time>
      </trkpt>
      <trkpt lat="45.0637" lon="7.67603">
        <ele>240.47</ele>
        <time>2016-10-05T17:08:23Z</time>
      </trkpt>
      <trkpt lat="45.06371" lon="7.67613">
        <ele>240.47</ele>
        <time>2016-10-05T17:08:39Z</time>
      </trkpt>
      <trkpt lat="45.06374" lon="7.67618">
        <ele>239.99</ele>
        <time>2016-10-05T17:08:45Z</time>
      </trkpt>
      <trkpt lat="45.06366" lon="7.67659">
        <ele>239.99</ele>
        <time>2016-10-05T17:08:56Z</time>
      </trkpt>
      <trkpt lat="45.06342" lon="7.67718">
        <ele>239.99</ele>
        <time>2016-10-05T17:09:09Z</time>
      </trkpt>
      <trkpt lat="45.06331" lon="7.67748">
        <ele>239.02</ele>
        <time>2016-10-05T17:09:14Z</time>
      </trkpt>
      <trkpt lat="45.06309" lon="7.67794">
        <ele>239.51</ele>
        <time>2016-10-05T17:09:24Z</time>
      </trkpt>
      <trkpt lat="45.06308" lon="7.67799">
        <ele>239.02</ele>
        <time>2016-10-05T17:09:25Z</time>
      </trkpt>
      <trkpt lat="45.06307" lon="7.67803">
        <ele>239.51</ele>
        <time>2016-10-05T17:09:26Z</time>
      </trkpt>
      <trkpt lat="45.06305" lon="7.67806">
        <ele>239.51</ele>
        <time>2016-10-05T17:09:27Z</time>
      </trkpt>
      <trkpt lat="45.06302" lon="7.67809">
        <ele>239.51</ele>
        <time>2016-10-05T17:09:28Z</time>
      </trkpt>
      <trkpt lat="45.06299" lon="7.67812">
        <ele>238.54</ele>
        <time>2016-10-05T17:09:29Z</time>
      </trkpt>
      <trkpt lat="45.0627" lon="7.67887">
        <ele>239.51</ele>
        <time>2016-10-05T17:09:45Z</time>
      </trkpt>
      <trkpt lat="45.06246" lon="7.6795">
        <ele>239.51</ele>
        <time>2016-10-05T17:09:59Z</time>
      </trkpt>
      <trkpt lat="45.06231" lon="7.67972">
        <ele>239.51</ele>
        <time>2016-10-05T17:10:08Z</time>
      </trkpt>
      <trkpt lat="45.0623" lon="7.67972">
        <ele>239.02</ele>
        <time>2016-10-05T17:10:09Z</time>
      </trkpt>
      <trkpt lat="45.06229" lon="7.67974">
        <ele>239.51</ele>
        <time>2016-10-05T17:10:11Z</time>
      </trkpt>
      <trkpt lat="45.06228" lon="7.67975">
        <ele>238.54</ele>
        <time>2016-10-05T17:10:12Z</time>
      </trkpt>
      <trkpt lat="45.06227" lon="7.67978">
        <ele>239.02</ele>
        <time>2016-10-05T17:10:14Z</time>
      </trkpt>
      <trkpt lat="45.06226" lon="7.67979">
        <ele>239.51</ele>
        <time>2016-10-05T17:10:15Z</time>
      </trkpt>
      <trkpt lat="45.06222" lon="7.67986">
        <ele>239.02</ele>
        <time>2016-10-05T17:10:30Z</time>
      </trkpt>
      <trkpt lat="45.06216" lon="7.67997">
        <ele>239.51</ele>
        <time>2016-10-05T17:10:48Z</time>
      </trkpt>
      <trkpt lat="45.06213" lon="7.68005">
        <ele>238.06</ele>
        <time>2016-10-05T17:11:00Z</time>
      </trkpt>
      <trkpt lat="45.06205" lon="7.68012">
        <ele>238.54</ele>
        <time>2016-10-05T17:11:26Z</time>
      </trkpt>
      <trkpt lat="45.06204" lon="7.68012">
        <ele>238.06</ele>
        <time>2016-10-05T17:11:54Z</time>
      </trkpt>
      <trkpt lat="45.06208" lon="7.68015">
        <ele>238.06</ele>
        <time>2016-10-05T17:12:04Z</time>
      </trkpt>
      <trkpt lat="45.06209" lon="7.68016">
        <ele>238.06</ele>
        <time>2016-10-05T17:12:05Z</time>
      </trkpt>
      <trkpt lat="45.06227" lon="7.68029">
        <ele>237.58</ele>
        <time>2016-10-05T17:12:17Z</time>
      </trkpt>
      <trkpt lat="45.0623" lon="7.68033">
        <ele>238.06</ele>
        <time>2016-10-05T17:12:21Z</time>
      </trkpt>
      <trkpt lat="45.0623" lon="7.68035">
        <ele>238.06</ele>
        <time>2016-10-05T17:12:22Z</time>
      </trkpt>
      <trkpt lat="45.0623" lon="7.68036">
        <ele>238.06</ele>
        <time>2016-10-05T17:12:23Z</time>
      </trkpt>
      <trkpt lat="45.06231" lon="7.68037">
        <ele>237.58</ele>
        <time>2016-10-05T17:12:24Z</time>
      </trkpt>
      <trkpt lat="45.06232" lon="7.68037">
        <ele>238.06</ele>
        <time>2016-10-05T17:12:36Z</time>
      </trkpt>
      <trkpt lat="45.06231" lon="7.68036">
        <ele>239.99</ele>
        <time>2016-10-05T17:12:41Z</time>
      </trkpt>
      <trkpt lat="45.06222" lon="7.68026">
        <ele>238.54</ele>
        <time>2016-10-05T17:13:11Z</time>
      </trkpt>
      <trkpt lat="45.06233" lon="7.68039">
        <ele>274.11</ele>
        <time>2016-10-06T07:15:56Z</time>
      </trkpt>
      <trkpt lat="45.06234" lon="7.6804">
        <ele>274.11</ele>
        <time>2016-10-06T07:15:57Z</time>
      </trkpt>
      <trkpt lat="45.06267" lon="7.68048">
        <ele>273.63</ele>
        <time>2016-10-06T07:16:09Z</time>
      </trkpt>
      <trkpt lat="45.06295" lon="7.68063">
        <ele>273.15</ele>
        <time>2016-10-06T07:16:21Z</time>
      </trkpt>
      <trkpt lat="45.06312" lon="7.68073">
        <ele>272.67</ele>
        <time>2016-10-06T07:16:30Z</time>
      </trkpt>
      <trkpt lat="45.06314" lon="7.68073">
        <ele>272.67</ele>
        <time>2016-10-06T07:16:31Z</time>
      </trkpt>
      <trkpt lat="45.06326" lon="7.68075">
        <ele>273.15</ele>
        <time>2016-10-06T07:16:37Z</time>
      </trkpt>
      <trkpt lat="45.06331" lon="7.68075">
        <ele>273.15</ele>
        <time>2016-10-06T07:16:40Z</time>
      </trkpt>
      <trkpt lat="45.06333" lon="7.68076">
        <ele>272.67</ele>
        <time>2016-10-06T07:16:41Z</time>
      </trkpt>
      <trkpt lat="45.06336" lon="7.68077">
        <ele>272.67</ele>
        <time>2016-10-06T07:16:42Z</time>
      </trkpt>
      <trkpt lat="45.06362" lon="7.68107">
        <ele>272.19</ele>
        <time>2016-10-06T07:16:54Z</time>
      </trkpt>
      <trkpt lat="45.06393" lon="7.68136">
        <ele>271.71</ele>
        <time>2016-10-06T07:17:06Z</time>
      </trkpt>
      <trkpt lat="45.0643" lon="7.68177">
        <ele>271.23</ele>
        <time>2016-10-06T07:17:18Z</time>
      </trkpt>
      <trkpt lat="45.06476" lon="7.68204">
        <ele>271.71</ele>
        <time>2016-10-06T07:17:33Z</time>
      </trkpt>
      <trkpt lat="45.0651" lon="7.68222">
        <ele>271.71</ele>
        <time>2016-10-06T07:17:46Z</time>
      </trkpt>
      <trkpt lat="45.06527" lon="7.68234">
        <ele>271.71</ele>
        <time>2016-10-06T07:18:00Z</time>
      </trkpt>
      <trkpt lat="45.06543" lon="7.68256">
        <ele>270.75</ele>
        <time>2016-10-06T07:18:11Z</time>
      </trkpt>
      <trkpt lat="45.06548" lon="7.68262">
        <ele>269.31</ele>
        <time>2016-10-06T07:18:14Z</time>
      </trkpt>
      <trkpt lat="45.06574" lon="7.68276">
        <ele>266.9</ele>
        <time>2016-10-06T07:18:25Z</time>
      </trkpt>
      <trkpt lat="45.06583" lon="7.68286">
        <ele>264.98</ele>
        <time>2016-10-06T07:18:35Z</time>
      </trkpt>
      <trkpt lat="45.06584" lon="7.68282">
        <ele>263.54</ele>
        <time>2016-10-06T07:18:39Z</time>
      </trkpt>
      <trkpt lat="45.06609" lon="7.68248">
        <ele>262.1</ele>
        <time>2016-10-06T07:18:54Z</time>
      </trkpt>
      <trkpt lat="45.06611" lon="7.68241">
        <ele>262.1</ele>
        <time>2016-10-06T07:18:57Z</time>
      </trkpt>
      <trkpt lat="45.06612" lon="7.68238">
        <ele>261.62</ele>
        <time>2016-10-06T07:18:58Z</time>
      </trkpt>
      <trkpt lat="45.06615" lon="7.68229">
        <ele>261.14</ele>
        <time>2016-10-06T07:19:01Z</time>
      </trkpt>
      <trkpt lat="45.06615" lon="7.68227">
        <ele>261.62</ele>
        <time>2016-10-06T07:19:02Z</time>
      </trkpt>
      <trkpt lat="45.06616" lon="7.68224">
        <ele>261.62</ele>
        <time>2016-10-06T07:19:03Z</time>
      </trkpt>
      <trkpt lat="45.06617" lon="7.68221">
        <ele>261.14</ele>
        <time>2016-10-06T07:19:04Z</time>
      </trkpt>
      <trkpt lat="45.06617" lon="7.68219">
        <ele>261.62</ele>
        <time>2016-10-06T07:19:05Z</time>
      </trkpt>
      <trkpt lat="45.06618" lon="7.68216">
        <ele>260.65</ele>
        <time>2016-10-06T07:19:06Z</time>
      </trkpt>
      <trkpt lat="45.06619" lon="7.68214">
        <ele>261.14</ele>
        <time>2016-10-06T07:19:07Z</time>
      </trkpt>
      <trkpt lat="45.0662" lon="7.68213">
        <ele>260.65</ele>
        <time>2016-10-06T07:19:08Z</time>
      </trkpt>
      <trkpt lat="45.0663" lon="7.68213">
        <ele>261.62</ele>
        <time>2016-10-06T07:19:16Z</time>
      </trkpt>
      <trkpt lat="45.06631" lon="7.68215">
        <ele>262.1</ele>
        <time>2016-10-06T07:19:17Z</time>
      </trkpt>
      <trkpt lat="45.06634" lon="7.68216">
        <ele>261.62</ele>
        <time>2016-10-06T07:19:18Z</time>
      </trkpt>
      <trkpt lat="45.06671" lon="7.68241">
        <ele>262.58</ele>
        <time>2016-10-06T07:19:35Z</time>
      </trkpt>
      <trkpt lat="45.06705" lon="7.6827">
        <ele>262.58</ele>
        <time>2016-10-06T07:19:52Z</time>
      </trkpt>
      <trkpt lat="45.06734" lon="7.68293">
        <ele>262.58</ele>
        <time>2016-10-06T07:20:03Z</time>
      </trkpt>
      <trkpt lat="45.06735" lon="7.6829">
        <ele>262.58</ele>
        <time>2016-10-06T07:20:14Z</time>
      </trkpt>
      <trkpt lat="45.06752" lon="7.68257">
        <ele>262.58</ele>
        <time>2016-10-06T07:20:53Z</time>
      </trkpt>
      <trkpt lat="45.06756" lon="7.68254">
        <ele>262.58</ele>
        <time>2016-10-06T07:21:12Z</time>
      </trkpt>
      <trkpt lat="45.06754" lon="7.68255">
        <ele>262.58</ele>
        <time>2016-10-06T07:21:14Z</time>
      </trkpt>
      <trkpt lat="45.06753" lon="7.68256">
        <ele>262.58</ele>
        <time>2016-10-06T07:21:16Z</time>
      </trkpt>
      <trkpt lat="45.06753" lon="7.68257">
        <ele>262.58</ele>
        <time>2016-10-06T07:21:17Z</time>
      </trkpt>
      <trkpt lat="45.06753" lon="7.68258">
        <ele>262.1</ele>
        <time>2016-10-06T07:21:18Z</time>
      </trkpt>
      <trkpt lat="45.06752" lon="7.6826">
        <ele>262.1</ele>
        <time>2016-10-06T07:21:19Z</time>
      </trkpt>
      <trkpt lat="45.06752" lon="7.68261">
        <ele>262.58</ele>
        <time>2016-10-06T07:21:20Z</time>
      </trkpt>
      <trkpt lat="45.06751" lon="7.68263">
        <ele>262.1</ele>
        <time>2016-10-06T07:21:21Z</time>
      </trkpt>
      <trkpt lat="45.06751" lon="7.68264">
        <ele>262.58</ele>
        <time>2016-10-06T07:21:22Z</time>
      </trkpt>
      <trkpt lat="45.0675" lon="7.68266">
        <ele>262.1</ele>
        <time>2016-10-06T07:21:23Z</time>
      </trkpt>
      <trkpt lat="45.0675" lon="7.68268">
        <ele>262.1</ele>
        <time>2016-10-06T07:21:24Z</time>
      </trkpt>
      <trkpt lat="45.0675" lon="7.6827">
        <ele>262.58</ele>
        <time>2016-10-06T07:21:25Z</time>
      </trkpt>
      <trkpt lat="45.0675" lon="7.68273">
        <ele>263.06</ele>
        <time>2016-10-06T07:21:26Z</time>
      </trkpt>
      <trkpt lat="45.06751" lon="7.68281">
        <ele>262.58</ele>
        <time>2016-10-06T07:21:33Z</time>
      </trkpt>
      <trkpt lat="45.0675" lon="7.68281">
        <ele>262.58</ele>
        <time>2016-10-06T07:21:34Z</time>
      </trkpt>
      <trkpt lat="45.06749" lon="7.68282">
        <ele>262.1</ele>
        <time>2016-10-06T07:21:35Z</time>
      </trkpt>
      <trkpt lat="45.06744" lon="7.68284">
        <ele>263.06</ele>
        <time>2016-10-06T07:21:43Z</time>
      </trkpt>
      <trkpt lat="45.06745" lon="7.68285">
        <ele>263.06</ele>
        <time>2016-10-06T07:21:46Z</time>
      </trkpt>
      <trkpt lat="45.06749" lon="7.68284">
        <ele>262.1</ele>
        <time>2016-10-06T07:21:52Z</time>
      </trkpt>
      <trkpt lat="45.06764" lon="7.68279">
        <ele>263.06</ele>
        <time>2016-10-06T07:22:02Z</time>
      </trkpt>
      <trkpt lat="45.06768" lon="7.68279">
        <ele>263.06</ele>
        <time>2016-10-06T07:22:05Z</time>
      </trkpt>
      <trkpt lat="45.0682" lon="7.68311">
        <ele>263.54</ele>
        <time>2016-10-06T07:22:20Z</time>
      </trkpt>
      <trkpt lat="45.06857" lon="7.68335">
        <ele>263.06</ele>
        <time>2016-10-06T07:22:34Z</time>
      </trkpt>
      <trkpt lat="45.06893" lon="7.68357">
        <ele>263.06</ele>
        <time>2016-10-06T07:22:50Z</time>
      </trkpt>
      <trkpt lat="45.06928" lon="7.68384">
        <ele>262.1</ele>
        <time>2016-10-06T07:23:04Z</time>
      </trkpt>
      <trkpt lat="45.06977" lon="7.68413">
        <ele>262.1</ele>
        <time>2016-10-06T07:23:20Z</time>
      </trkpt>
      <trkpt lat="45.06994" lon="7.68428">
        <ele>262.58</ele>
        <time>2016-10-06T07:23:30Z</time>
      </trkpt>
      <trkpt lat="45.06993" lon="7.68425">
        <ele>262.1</ele>
        <time>2016-10-06T07:23:33Z</time>
      </trkpt>
      <trkpt lat="45.06992" lon="7.68423">
        <ele>262.1</ele>
        <time>2016-10-06T07:23:34Z</time>
      </trkpt>
      <trkpt lat="45.06992" lon="7.6842">
        <ele>261.62</ele>
        <time>2016-10-06T07:23:35Z</time>
      </trkpt>
      <trkpt lat="45.06993" lon="7.68413">
        <ele>262.1</ele>
        <time>2016-10-06T07:23:37Z</time>
      </trkpt>
      <trkpt lat="45.06994" lon="7.68408">
        <ele>262.58</ele>
        <time>2016-10-06T07:23:38Z</time>
      </trkpt>
      <trkpt lat="45.06996" lon="7.68404">
        <ele>262.58</ele>
        <time>2016-10-06T07:23:39Z</time>
      </trkpt>
      <trkpt lat="45.07009" lon="7.68368">
        <ele>262.1</ele>
        <time>2016-10-06T07:23:49Z</time>
      </trkpt>
      <trkpt lat="45.07009" lon="7.68365">
        <ele>262.58</ele>
        <time>2016-10-06T07:23:50Z</time>
      </trkpt>
      <trkpt lat="45.07014" lon="7.68356">
        <ele>262.1</ele>
        <time>2016-10-06T07:23:53Z</time>
      </trkpt>
      <trkpt lat="45.07035" lon="7.68303">
        <ele>262.58</ele>
        <time>2016-10-06T07:24:06Z</time>
      </trkpt>
      <trkpt lat="45.07042" lon="7.68289">
        <ele>262.58</ele>
        <time>2016-10-06T07:24:11Z</time>
      </trkpt>
      <trkpt lat="45.07037" lon="7.68275">
        <ele>262.1</ele>
        <time>2016-10-06T07:24:18Z</time>
      </trkpt>
      <trkpt lat="45.07042" lon="7.68272">
        <ele>263.06</ele>
        <time>2016-10-06T07:24:23Z</time>
      </trkpt>
      <trkpt lat="45.07067" lon="7.6823">
        <ele>263.06</ele>
        <time>2016-10-06T07:24:37Z</time>
      </trkpt>
      <trkpt lat="45.07069" lon="7.68222">
        <ele>263.06</ele>
        <time>2016-10-06T07:24:40Z</time>
      </trkpt>
      <trkpt lat="45.07067" lon="7.68217">
        <ele>263.06</ele>
        <time>2016-10-06T07:24:41Z</time>
      </trkpt>
      <trkpt lat="45.07063" lon="7.68191">
        <ele>262.58</ele>
        <time>2016-10-06T07:24:50Z</time>
      </trkpt>
      <trkpt lat="45.07063" lon="7.68182">
        <ele>262.1</ele>
        <time>2016-10-06T07:24:55Z</time>
      </trkpt>
      <trkpt lat="45.07064" lon="7.6818">
        <ele>262.58</ele>
        <time>2016-10-06T07:24:58Z</time>
      </trkpt>
      <trkpt lat="45.07071" lon="7.68174">
        <ele>261.62</ele>
        <time>2016-10-06T07:25:09Z</time>
      </trkpt>
      <trkpt lat="45.07072" lon="7.68172">
        <ele>262.1</ele>
        <time>2016-10-06T07:25:16Z</time>
      </trkpt>
      <trkpt lat="45.07074" lon="7.68172">
        <ele>262.1</ele>
        <time>2016-10-06T07:25:17Z</time>
      </trkpt>
      <trkpt lat="45.07075" lon="7.68173">
        <ele>262.1</ele>
        <time>2016-10-06T07:25:18Z</time>
      </trkpt>
      <trkpt lat="45.0708" lon="7.68178">
        <ele>262.1</ele>
        <time>2016-10-06T07:25:22Z</time>
      </trkpt>
      <trkpt lat="45.07081" lon="7.6818">
        <ele>262.1</ele>
        <time>2016-10-06T07:25:23Z</time>
      </trkpt>
      <trkpt lat="45.07096" lon="7.68197">
        <ele>262.1</ele>
        <time>2016-10-06T07:25:35Z</time>
      </trkpt>
      <trkpt lat="45.07115" lon="7.68208">
        <ele>262.1</ele>
        <time>2016-10-06T07:25:49Z</time>
      </trkpt>
      <trkpt lat="45.07119" lon="7.68208">
        <ele>262.1</ele>
        <time>2016-10-06T07:25:51Z</time>
      </trkpt>
      <trkpt lat="45.07147" lon="7.68233">
        <ele>262.1</ele>
        <time>2016-10-06T07:26:07Z</time>
      </trkpt>
      <trkpt lat="45.07176" lon="7.68243">
        <ele>262.1</ele>
        <time>2016-10-06T07:26:22Z</time>
      </trkpt>
      <trkpt lat="45.072" lon="7.68255">
        <ele>261.62</ele>
        <time>2016-10-06T07:26:36Z</time>
      </trkpt>
      <trkpt lat="45.07199" lon="7.68264">
        <ele>262.1</ele>
        <time>2016-10-06T07:26:41Z</time>
      </trkpt>
      <trkpt lat="45.07202" lon="7.6827">
        <ele>261.62</ele>
        <time>2016-10-06T07:26:49Z</time>
      </trkpt>
      <trkpt lat="45.07206" lon="7.68265">
        <ele>261.62</ele>
        <time>2016-10-06T07:26:53Z</time>
      </trkpt>
      <trkpt lat="45.07231" lon="7.68231">
        <ele>262.1</ele>
        <time>2016-10-06T07:27:08Z</time>
      </trkpt>
      <trkpt lat="45.07254" lon="7.68179">
        <ele>262.1</ele>
        <time>2016-10-06T07:27:28Z</time>
      </trkpt>
      <trkpt lat="45.0725" lon="7.68165">
        <ele>262.1</ele>
        <time>2016-10-06T07:27:37Z</time>
      </trkpt>
      <trkpt lat="45.07204" lon="7.68129">
        <ele>262.1</ele>
        <time>2016-10-06T07:27:57Z</time>
      </trkpt>
      <trkpt lat="45.07174" lon="7.68111">
        <ele>262.1</ele>
        <time>2016-10-06T07:28:18Z</time>
      </trkpt>
      <trkpt lat="45.07154" lon="7.68099">
        <ele>261.62</ele>
        <time>2016-10-06T07:28:33Z</time>
      </trkpt>
      <trkpt lat="45.07111" lon="7.68077">
        <ele>261.14</ele>
        <time>2016-10-06T07:28:46Z</time>
      </trkpt>
      <trkpt lat="45.07108" lon="7.68068">
        <ele>261.14</ele>
        <time>2016-10-06T07:28:53Z</time>
      </trkpt>
      <trkpt lat="45.07108" lon="7.68066">
        <ele>261.62</ele>
        <time>2016-10-06T07:28:54Z</time>
      </trkpt>
      <trkpt lat="45.07082" lon="7.68046">
        <ele>261.62</ele>
        <time>2016-10-06T07:29:08Z</time>
      </trkpt>
      <trkpt lat="45.07052" lon="7.68028">
        <ele>261.62</ele>
        <time>2016-10-06T07:29:24Z</time>
      </trkpt>
      <trkpt lat="45.07059" lon="7.68007">
        <ele>261.14</ele>
        <time>2016-10-06T07:29:42Z</time>
      </trkpt>
      <trkpt lat="45.07063" lon="7.68004">
        <ele>260.65</ele>
        <time>2016-10-06T07:29:44Z</time>
      </trkpt>
      <trkpt lat="45.07065" lon="7.68002">
        <ele>261.14</ele>
        <time>2016-10-06T07:29:45Z</time>
      </trkpt>
      <trkpt lat="45.07067" lon="7.67999">
        <ele>260.65</ele>
        <time>2016-10-06T07:29:46Z</time>
      </trkpt>
      <trkpt lat="45.07087" lon="7.6796">
        <ele>261.14</ele>
        <time>2016-10-06T07:29:58Z</time>
      </trkpt>
      <trkpt lat="45.07111" lon="7.6793">
        <ele>261.14</ele>
        <time>2016-10-06T07:30:11Z</time>
      </trkpt>
      <trkpt lat="45.07116" lon="7.67855">
        <ele>260.65</ele>
        <time>2016-10-06T07:30:27Z</time>
      </trkpt>
      <trkpt lat="45.07139" lon="7.67796">
        <ele>261.14</ele>
        <time>2016-10-06T07:30:42Z</time>
      </trkpt>
      <trkpt lat="45.07142" lon="7.67765">
        <ele>261.14</ele>
        <time>2016-10-06T07:30:56Z</time>
      </trkpt>
      <trkpt lat="45.07141" lon="7.67766">
        <ele>260.65</ele>
        <time>2016-10-06T07:31:01Z</time>
      </trkpt>
      <trkpt lat="45.07145" lon="7.67768">
        <ele>260.65</ele>
        <time>2016-10-06T07:31:02Z</time>
      </trkpt>
      <trkpt lat="45.07149" lon="7.67768">
        <ele>260.65</ele>
        <time>2016-10-06T07:31:03Z</time>
      </trkpt>
      <trkpt lat="45.07151" lon="7.6777">
        <ele>260.17</ele>
        <time>2016-10-06T07:31:04Z</time>
      </trkpt>
      <trkpt lat="45.07153" lon="7.67771">
        <ele>260.17</ele>
        <time>2016-10-06T07:31:05Z</time>
      </trkpt>
      <trkpt lat="45.07155" lon="7.67772">
        <ele>261.14</ele>
        <time>2016-10-06T07:31:06Z</time>
      </trkpt>
      <trkpt lat="45.07157" lon="7.67774">
        <ele>260.65</ele>
        <time>2016-10-06T07:31:07Z</time>
      </trkpt>
      <trkpt lat="45.07179" lon="7.67785">
        <ele>260.65</ele>
        <time>2016-10-06T07:31:16Z</time>
      </trkpt>
      <trkpt lat="45.07181" lon="7.67787">
        <ele>260.17</ele>
        <time>2016-10-06T07:31:17Z</time>
      </trkpt>
      <trkpt lat="45.07198" lon="7.67802">
        <ele>260.65</ele>
        <time>2016-10-06T07:31:28Z</time>
      </trkpt>
      <trkpt lat="45.07223" lon="7.67824">
        <ele>260.65</ele>
        <time>2016-10-06T07:31:42Z</time>
      </trkpt>
      <trkpt lat="45.07226" lon="7.67828">
        <ele>261.14</ele>
        <time>2016-10-06T07:31:43Z</time>
      </trkpt>
      <trkpt lat="45.07229" lon="7.6783">
        <ele>261.14</ele>
        <time>2016-10-06T07:31:44Z</time>
      </trkpt>
      <trkpt lat="45.07232" lon="7.67832">
        <ele>261.62</ele>
        <time>2016-10-06T07:31:45Z</time>
      </trkpt>
      <trkpt lat="45.07234" lon="7.67834">
        <ele>261.62</ele>
        <time>2016-10-06T07:31:46Z</time>
      </trkpt>
      <trkpt lat="45.07247" lon="7.67842">
        <ele>261.62</ele>
        <time>2016-10-06T07:31:51Z</time>
      </trkpt>
      <trkpt lat="45.07248" lon="7.67844">
        <ele>261.62</ele>
        <time>2016-10-06T07:31:52Z</time>
      </trkpt>
      <trkpt lat="45.07272" lon="7.6786">
        <ele>261.62</ele>
        <time>2016-10-06T07:32:05Z</time>
      </trkpt>
      <trkpt lat="45.07307" lon="7.67878">
        <ele>262.1</ele>
        <time>2016-10-06T07:32:21Z</time>
      </trkpt>
      <trkpt lat="45.07317" lon="7.67878">
        <ele>261.62</ele>
        <time>2016-10-06T07:32:27Z</time>
      </trkpt>
      <trkpt lat="45.07319" lon="7.67881">
        <ele>261.62</ele>
        <time>2016-10-06T07:32:28Z</time>
      </trkpt>
      <trkpt lat="45.07322" lon="7.67887">
        <ele>261.62</ele>
        <time>2016-10-06T07:32:31Z</time>
      </trkpt>
      <trkpt lat="45.07324" lon="7.67887">
        <ele>261.62</ele>
        <time>2016-10-06T07:32:32Z</time>
      </trkpt>
      <trkpt lat="45.07325" lon="7.67888">
        <ele>261.62</ele>
        <time>2016-10-06T07:32:33Z</time>
      </trkpt>
      <trkpt lat="45.07327" lon="7.67888">
        <ele>261.62</ele>
        <time>2016-10-06T07:32:34Z</time>
      </trkpt>
      <trkpt lat="45.07328" lon="7.67888">
        <ele>262.1</ele>
        <time>2016-10-06T07:32:35Z</time>
      </trkpt>
      <trkpt lat="45.0733" lon="7.67889">
        <ele>261.62</ele>
        <time>2016-10-06T07:32:36Z</time>
      </trkpt>
      <trkpt lat="45.07368" lon="7.67922">
        <ele>261.62</ele>
        <time>2016-10-06T07:32:52Z</time>
      </trkpt>
      <trkpt lat="45.07407" lon="7.67952">
        <ele>262.58</ele>
        <time>2016-10-06T07:33:06Z</time>
      </trkpt>
      <trkpt lat="45.07413" lon="7.67953">
        <ele>262.1</ele>
        <time>2016-10-06T07:33:13Z</time>
      </trkpt>
      <trkpt lat="45.07414" lon="7.67953">
        <ele>262.1</ele>
        <time>2016-10-06T07:33:14Z</time>
      </trkpt>
      <trkpt lat="45.07425" lon="7.67956">
        <ele>262.1</ele>
        <time>2016-10-06T07:33:26Z</time>
      </trkpt>
      <trkpt lat="45.07434" lon="7.67967">
        <ele>262.1</ele>
        <time>2016-10-06T07:33:32Z</time>
      </trkpt>
      <trkpt lat="45.07454" lon="7.67974">
        <ele>262.1</ele>
        <time>2016-10-06T07:33:38Z</time>
      </trkpt>
      <trkpt lat="45.07464" lon="7.67975">
        <ele>261.62</ele>
        <time>2016-10-06T07:33:42Z</time>
      </trkpt>
      <trkpt lat="45.07487" lon="7.67997">
        <ele>261.62</ele>
        <time>2016-10-06T07:33:56Z</time>
      </trkpt>
      <trkpt lat="45.07506" lon="7.68012">
        <ele>261.14</ele>
        <time>2016-10-06T07:34:03Z</time>
      </trkpt>
      <trkpt lat="45.07508" lon="7.68014">
        <ele>261.14</ele>
        <time>2016-10-06T07:34:04Z</time>
      </trkpt>
      <trkpt lat="45.0751" lon="7.68016">
        <ele>261.62</ele>
        <time>2016-10-06T07:34:05Z</time>
      </trkpt>
      <trkpt lat="45.07534" lon="7.68042">
        <ele>262.1</ele>
        <time>2016-10-06T07:34:17Z</time>
      </trkpt>
      <trkpt lat="45.07557" lon="7.68069">
        <ele>262.1</ele>
        <time>2016-10-06T07:34:29Z</time>
      </trkpt>
      <trkpt lat="45.07576" lon="7.68088">
        <ele>262.58</ele>
        <time>2016-10-06T07:34:40Z</time>
      </trkpt>
      <trkpt lat="45.0759" lon="7.68125">
        <ele>261.62</ele>
        <time>2016-10-06T07:34:50Z</time>
      </trkpt>
      <trkpt lat="45.07592" lon="7.68127">
        <ele>262.1</ele>
        <time>2016-10-06T07:34:51Z</time>
      </trkpt>
      <trkpt lat="45.07597" lon="7.68125">
        <ele>261.14</ele>
        <time>2016-10-06T07:34:53Z</time>
      </trkpt>
      <trkpt lat="45.07599" lon="7.68128">
        <ele>261.62</ele>
        <time>2016-10-06T07:34:54Z</time>
      </trkpt>
      <trkpt lat="45.076" lon="7.68133">
        <ele>261.62</ele>
        <time>2016-10-06T07:34:55Z</time>
      </trkpt>
      <trkpt lat="45.07601" lon="7.6814">
        <ele>261.62</ele>
        <time>2016-10-06T07:34:58Z</time>
      </trkpt>
      <trkpt lat="45.076" lon="7.68142">
        <ele>261.62</ele>
        <time>2016-10-06T07:34:59Z</time>
      </trkpt>
      <trkpt lat="45.07599" lon="7.68144">
        <ele>261.14</ele>
        <time>2016-10-06T07:35:00Z</time>
      </trkpt>
      <trkpt lat="45.07597" lon="7.68146">
        <ele>261.14</ele>
        <time>2016-10-06T07:35:01Z</time>
      </trkpt>
      <trkpt lat="45.07594" lon="7.68149">
        <ele>261.14</ele>
        <time>2016-10-06T07:35:02Z</time>
      </trkpt>
      <trkpt lat="45.07589" lon="7.68152">
        <ele>261.14</ele>
        <time>2016-10-06T07:35:03Z</time>
      </trkpt>
      <trkpt lat="45.07599" lon="7.68174">
        <ele>261.14</ele>
        <time>2016-10-06T07:35:12Z</time>
      </trkpt>
      <trkpt lat="45.07602" lon="7.68195">
        <ele>261.14</ele>
        <time>2016-10-06T07:35:16Z</time>
      </trkpt>
      <trkpt lat="45.07604" lon="7.68199">
        <ele>261.14</ele>
        <time>2016-10-06T07:35:17Z</time>
      </trkpt>
      <trkpt lat="45.07605" lon="7.68203">
        <ele>261.14</ele>
        <time>2016-10-06T07:35:18Z</time>
      </trkpt>
      <trkpt lat="45.07605" lon="7.68207">
        <ele>260.17</ele>
        <time>2016-10-06T07:35:19Z</time>
      </trkpt>
      <trkpt lat="45.07606" lon="7.68211">
        <ele>260.65</ele>
        <time>2016-10-06T07:35:20Z</time>
      </trkpt>
      <trkpt lat="45.07607" lon="7.68213">
        <ele>260.65</ele>
        <time>2016-10-06T07:35:21Z</time>
      </trkpt>
      <trkpt lat="45.07609" lon="7.68219">
        <ele>260.65</ele>
        <time>2016-10-06T07:35:24Z</time>
      </trkpt>
      <trkpt lat="45.07612" lon="7.68221">
        <ele>260.65</ele>
        <time>2016-10-06T07:35:26Z</time>
      </trkpt>
      <trkpt lat="45.07614" lon="7.68226">
        <ele>261.14</ele>
        <time>2016-10-06T07:35:29Z</time>
      </trkpt>
      <trkpt lat="45.07613" lon="7.6823">
        <ele>261.14</ele>
        <time>2016-10-06T07:35:30Z</time>
      </trkpt>
      <trkpt lat="45.07611" lon="7.68239">
        <ele>261.14</ele>
        <time>2016-10-06T07:35:33Z</time>
      </trkpt>
      <trkpt lat="45.07611" lon="7.68241">
        <ele>260.17</ele>
        <time>2016-10-06T07:35:34Z</time>
      </trkpt>
      <trkpt lat="45.0761" lon="7.68244">
        <ele>261.14</ele>
        <time>2016-10-06T07:35:35Z</time>
      </trkpt>
      <trkpt lat="45.07609" lon="7.68246">
        <ele>260.65</ele>
        <time>2016-10-06T07:35:36Z</time>
      </trkpt>
      <trkpt lat="45.07607" lon="7.68249">
        <ele>260.65</ele>
        <time>2016-10-06T07:35:37Z</time>
      </trkpt>
      <trkpt lat="45.07602" lon="7.68251">
        <ele>261.14</ele>
        <time>2016-10-06T07:35:38Z</time>
      </trkpt>
      <trkpt lat="45.07598" lon="7.68253">
        <ele>260.17</ele>
        <time>2016-10-06T07:35:39Z</time>
      </trkpt>
      <trkpt lat="45.07598" lon="7.68255">
        <ele>261.14</ele>
        <time>2016-10-06T07:35:40Z</time>
      </trkpt>
      <trkpt lat="45.07593" lon="7.68271">
        <ele>260.65</ele>
        <time>2016-10-06T07:35:46Z</time>
      </trkpt>
      <trkpt lat="45.07592" lon="7.68272">
        <ele>261.14</ele>
        <time>2016-10-06T07:35:47Z</time>
      </trkpt>
      <trkpt lat="45.07592" lon="7.68274">
        <ele>260.65</ele>
        <time>2016-10-06T07:35:48Z</time>
      </trkpt>
      <trkpt lat="45.07592" lon="7.68275">
        <ele>260.65</ele>
        <time>2016-10-06T07:35:49Z</time>
      </trkpt>
      <trkpt lat="45.0759" lon="7.68284">
        <ele>260.65</ele>
        <time>2016-10-06T07:36:06Z</time>
      </trkpt>
      <trkpt lat="45.07589" lon="7.6829">
        <ele>260.17</ele>
        <time>2016-10-06T07:36:21Z</time>
      </trkpt>
      <trkpt lat="45.07585" lon="7.68302">
        <ele>259.69</ele>
        <time>2016-10-06T07:36:29Z</time>
      </trkpt>
      <trkpt lat="45.07584" lon="7.68306">
        <ele>260.17</ele>
        <time>2016-10-06T07:36:31Z</time>
      </trkpt>
      <trkpt lat="45.07576" lon="7.68334">
        <ele>259.21</ele>
        <time>2016-10-06T07:36:42Z</time>
      </trkpt>
      <trkpt lat="45.07574" lon="7.6834">
        <ele>259.69</ele>
        <time>2016-10-06T07:36:44Z</time>
      </trkpt>
      <trkpt lat="45.07572" lon="7.68343">
        <ele>259.69</ele>
        <time>2016-10-06T07:36:45Z</time>
      </trkpt>
      <trkpt lat="45.07571" lon="7.68346">
        <ele>259.69</ele>
        <time>2016-10-06T07:36:46Z</time>
      </trkpt>
      <trkpt lat="45.07569" lon="7.6835">
        <ele>259.21</ele>
        <time>2016-10-06T07:36:47Z</time>
      </trkpt>
      <trkpt lat="45.07568" lon="7.68354">
        <ele>259.69</ele>
        <time>2016-10-06T07:36:48Z</time>
      </trkpt>
      <trkpt lat="45.07567" lon="7.68356">
        <ele>259.21</ele>
        <time>2016-10-06T07:36:49Z</time>
      </trkpt>
      <trkpt lat="45.07565" lon="7.68358">
        <ele>259.21</ele>
        <time>2016-10-06T07:36:50Z</time>
      </trkpt>
      <trkpt lat="45.07563" lon="7.68361">
        <ele>259.21</ele>
        <time>2016-10-06T07:36:51Z</time>
      </trkpt>
      <trkpt lat="45.07562" lon="7.68364">
        <ele>259.21</ele>
        <time>2016-10-06T07:36:52Z</time>
      </trkpt>
      <trkpt lat="45.0756" lon="7.68366">
        <ele>258.73</ele>
        <time>2016-10-06T07:36:53Z</time>
      </trkpt>
      <trkpt lat="45.07556" lon="7.68372">
        <ele>259.21</ele>
        <time>2016-10-06T07:36:57Z</time>
      </trkpt>
      <trkpt lat="45.07557" lon="7.68374">
        <ele>259.21</ele>
        <time>2016-10-06T07:36:58Z</time>
      </trkpt>
      <trkpt lat="45.07566" lon="7.68386">
        <ele>258.73</ele>
        <time>2016-10-06T07:37:04Z</time>
      </trkpt>
      <trkpt lat="45.07566" lon="7.68384">
        <ele>259.21</ele>
        <time>2016-10-06T07:37:07Z</time>
      </trkpt>
      <trkpt lat="45.07566" lon="7.68377">
        <ele>259.21</ele>
        <time>2016-10-06T07:37:12Z</time>
      </trkpt>
      <trkpt lat="45.07568" lon="7.68375">
        <ele>259.69</ele>
        <time>2016-10-06T07:37:13Z</time>
      </trkpt>
      <trkpt lat="45.0757" lon="7.68372">
        <ele>259.69</ele>
        <time>2016-10-06T07:37:14Z</time>
      </trkpt>
      <trkpt lat="45.07573" lon="7.6837">
        <ele>259.21</ele>
        <time>2016-10-06T07:37:15Z</time>
      </trkpt>
      <trkpt lat="45.07575" lon="7.68368">
        <ele>259.69</ele>
        <time>2016-10-06T07:37:16Z</time>
      </trkpt>
      <trkpt lat="45.07577" lon="7.68367">
        <ele>259.69</ele>
        <time>2016-10-06T07:37:17Z</time>
      </trkpt>
      <trkpt lat="45.07579" lon="7.68365">
        <ele>259.21</ele>
        <time>2016-10-06T07:37:18Z</time>
      </trkpt>
      <trkpt lat="45.0758" lon="7.68364">
        <ele>259.21</ele>
        <time>2016-10-06T07:37:19Z</time>
      </trkpt>
      <trkpt lat="45.07582" lon="7.68362">
        <ele>258.73</ele>
        <time>2016-10-06T07:37:20Z</time>
      </trkpt>
      <trkpt lat="45.07583" lon="7.6836">
        <ele>259.21</ele>
        <time>2016-10-06T07:37:21Z</time>
      </trkpt>
      <trkpt lat="45.07589" lon="7.68355">
        <ele>259.21</ele>
        <time>2016-10-06T07:37:27Z</time>
      </trkpt>
      <trkpt lat="45.07596" lon="7.68359">
        <ele>258.25</ele>
        <time>2016-10-06T07:37:33Z</time>
      </trkpt>
      <trkpt lat="45.07602" lon="7.68361">
        <ele>258.25</ele>
        <time>2016-10-06T07:37:46Z</time>
      </trkpt>
      <trkpt lat="45.07609" lon="7.68365">
        <ele>258.25</ele>
        <time>2016-10-06T07:38:01Z</time>
      </trkpt>
      <trkpt lat="45.07613" lon="7.68373">
        <ele>258.25</ele>
        <time>2016-10-06T07:38:18Z</time>
      </trkpt>
      <trkpt lat="45.07614" lon="7.68373">
        <ele>257.29</ele>
        <time>2016-10-06T07:38:43Z</time>
      </trkpt>
      <trkpt lat="45.07615" lon="7.68384">
        <ele>257.29</ele>
        <time>2016-10-06T07:39:00Z</time>
      </trkpt>
      <trkpt lat="45.07614" lon="7.68391">
        <ele>256.81</ele>
        <time>2016-10-06T07:39:15Z</time>
      </trkpt>
      <trkpt lat="45.07616" lon="7.68391">
        <ele>256.81</ele>
        <time>2016-10-06T07:39:40Z</time>
      </trkpt>
      <trkpt lat="45.07615" lon="7.68392">
        <ele>256.33</ele>
        <time>2016-10-06T07:40:10Z</time>
      </trkpt>
      <trkpt lat="45.07613" lon="7.68389">
        <ele>255.85</ele>
        <time>2016-10-06T07:40:41Z</time>
      </trkpt>
      <trkpt lat="45.07605" lon="7.68392">
        <ele>255.85</ele>
        <time>2016-10-06T07:41:08Z</time>
      </trkpt>
      <trkpt lat="45.07606" lon="7.68391">
        <ele>256.33</ele>
        <time>2016-10-06T07:41:35Z</time>
      </trkpt>
      <trkpt lat="45.07608" lon="7.68391">
        <ele>254.89</ele>
        <time>2016-10-06T07:42:00Z</time>
      </trkpt>
      <trkpt lat="45.0761" lon="7.68391">
        <ele>255.37</ele>
        <time>2016-10-06T07:42:20Z</time>
      </trkpt>
      <trkpt lat="45.07614" lon="7.68395">
        <ele>255.37</ele>
        <time>2016-10-06T07:42:41Z</time>
      </trkpt>
      <trkpt lat="45.07617" lon="7.68401">
        <ele>254.41</ele>
        <time>2016-10-06T07:43:00Z</time>
      </trkpt>
      <trkpt lat="45.07623" lon="7.68413">
        <ele>254.41</ele>
        <time>2016-10-06T07:43:15Z</time>
      </trkpt>
      <trkpt lat="45.07625" lon="7.68417">
        <ele>253.44</ele>
        <time>2016-10-06T07:43:30Z</time>
      </trkpt>
      <trkpt lat="45.07627" lon="7.68423">
        <ele>253.44</ele>
        <time>2016-10-06T07:43:44Z</time>
      </trkpt>
      <trkpt lat="45.07624" lon="7.68431">
        <ele>253.44</ele>
        <time>2016-10-06T07:44:06Z</time>
      </trkpt>
      <trkpt lat="45.07621" lon="7.68438">
        <ele>252.96</ele>
        <time>2016-10-06T07:44:17Z</time>
      </trkpt>
      <trkpt lat="45.0762" lon="7.68446">
        <ele>252.96</ele>
        <time>2016-10-06T07:44:30Z</time>
      </trkpt>
      <trkpt lat="45.0762" lon="7.68457">
        <ele>252.48</ele>
        <time>2016-10-06T07:44:43Z</time>
      </trkpt>
      <trkpt lat="45.07617" lon="7.68463">
        <ele>252.48</ele>
        <time>2016-10-06T07:45:05Z</time>
      </trkpt>
      <trkpt lat="45.07613" lon="7.68466">
        <ele>252</ele>
        <time>2016-10-06T07:45:32Z</time>
      </trkpt>
      <trkpt lat="45.07614" lon="7.68468">
        <ele>252.48</ele>
        <time>2016-10-06T07:45:33Z</time>
      </trkpt>
      <trkpt lat="45.07615" lon="7.6847">
        <ele>252</ele>
        <time>2016-10-06T07:45:34Z</time>
      </trkpt>
      <trkpt lat="45.07616" lon="7.68471">
        <ele>252</ele>
        <time>2016-10-06T07:45:35Z</time>
      </trkpt>
      <trkpt lat="45.07617" lon="7.68471">
        <ele>252</ele>
        <time>2016-10-06T07:45:36Z</time>
      </trkpt>
      <trkpt lat="45.07621" lon="7.68478">
        <ele>251.04</ele>
        <time>2016-10-06T07:45:52Z</time>
      </trkpt>
      <trkpt lat="45.07627" lon="7.68482">
        <ele>251.52</ele>
        <time>2016-10-06T07:46:16Z</time>
      </trkpt>
      <trkpt lat="45.07628" lon="7.68482">
        <ele>251.04</ele>
        <time>2016-10-06T07:46:17Z</time>
      </trkpt>
      <trkpt lat="45.0763" lon="7.68484">
        <ele>250.56</ele>
        <time>2016-10-06T07:46:18Z</time>
      </trkpt>
      <trkpt lat="45.07639" lon="7.6849">
        <ele>250.56</ele>
        <time>2016-10-06T07:46:25Z</time>
      </trkpt>
      <trkpt lat="45.07641" lon="7.68489">
        <ele>250.08</ele>
        <time>2016-10-06T07:46:26Z</time>
      </trkpt>
      <trkpt lat="45.07644" lon="7.68484">
        <ele>250.08</ele>
        <time>2016-10-06T07:46:30Z</time>
      </trkpt>
      <trkpt lat="45.07663" lon="7.68447">
        <ele>250.08</ele>
        <time>2016-10-06T07:46:45Z</time>
      </trkpt>
      <trkpt lat="45.07674" lon="7.68425">
        <ele>249.6</ele>
        <time>2016-10-06T07:46:52Z</time>
      </trkpt>
      <trkpt lat="45.07676" lon="7.68408">
        <ele>250.08</ele>
        <time>2016-10-06T07:47:07Z</time>
      </trkpt>
      <trkpt lat="45.07675" lon="7.68405">
        <ele>251.04</ele>
        <time>2016-10-06T07:47:10Z</time>
      </trkpt>
      <trkpt lat="45.07679" lon="7.68391">
        <ele>250.56</ele>
        <time>2016-10-06T07:47:16Z</time>
      </trkpt>
      <trkpt lat="45.0768" lon="7.68389">
        <ele>250.56</ele>
        <time>2016-10-06T07:47:17Z</time>
      </trkpt>
      <trkpt lat="45.07689" lon="7.68385">
        <ele>250.08</ele>
        <time>2016-10-06T07:47:28Z</time>
      </trkpt>
      <trkpt lat="45.0769" lon="7.68381">
        <ele>250.08</ele>
        <time>2016-10-06T07:47:37Z</time>
      </trkpt>
      <trkpt lat="45.0769" lon="7.68374">
        <ele>250.08</ele>
        <time>2016-10-06T07:47:40Z</time>
      </trkpt>
      <trkpt lat="45.0769" lon="7.68371">
        <ele>250.56</ele>
        <time>2016-10-06T07:47:41Z</time>
      </trkpt>
      <trkpt lat="45.07689" lon="7.68369">
        <ele>250.56</ele>
        <time>2016-10-06T07:47:42Z</time>
      </trkpt>
      <trkpt lat="45.07687" lon="7.68367">
        <ele>250.56</ele>
        <time>2016-10-06T07:47:43Z</time>
      </trkpt>
      <trkpt lat="45.07659" lon="7.68345">
        <ele>251.04</ele>
        <time>2016-10-06T07:47:56Z</time>
      </trkpt>
      <trkpt lat="45.07621" lon="7.68319">
        <ele>251.52</ele>
        <time>2016-10-06T07:48:09Z</time>
      </trkpt>
      <trkpt lat="45.07605" lon="7.68307">
        <ele>252</ele>
        <time>2016-10-06T07:48:15Z</time>
      </trkpt>
      <trkpt lat="45.07603" lon="7.68305">
        <ele>252.96</ele>
        <time>2016-10-06T07:48:16Z</time>
      </trkpt>
      <trkpt lat="45.076" lon="7.68303">
        <ele>252</ele>
        <time>2016-10-06T07:48:17Z</time>
      </trkpt>
      <trkpt lat="45.07557" lon="7.68276">
        <ele>253.93</ele>
        <time>2016-10-06T07:48:30Z</time>
      </trkpt>
      <trkpt lat="45.07514" lon="7.68253">
        <ele>254.41</ele>
        <time>2016-10-06T07:48:43Z</time>
      </trkpt>
      <trkpt lat="45.07482" lon="7.68218">
        <ele>254.41</ele>
        <time>2016-10-06T07:48:57Z</time>
      </trkpt>
      <trkpt lat="45.07444" lon="7.68191">
        <ele>254.89</ele>
        <time>2016-10-06T07:49:10Z</time>
      </trkpt>
      <trkpt lat="45.07406" lon="7.68183">
        <ele>254.41</ele>
        <time>2016-10-06T07:49:22Z</time>
      </trkpt>
      <trkpt lat="45.07366" lon="7.68147">
        <ele>254.89</ele>
        <time>2016-10-06T07:49:37Z</time>
      </trkpt>
      <trkpt lat="45.0733" lon="7.68118">
        <ele>254.89</ele>
        <time>2016-10-06T07:49:51Z</time>
      </trkpt>
      <trkpt lat="45.07297" lon="7.68116">
        <ele>254.89</ele>
        <time>2016-10-06T07:50:01Z</time>
      </trkpt>
      <trkpt lat="45.07294" lon="7.68112">
        <ele>253.93</ele>
        <time>2016-10-06T07:50:04Z</time>
      </trkpt>
      <trkpt lat="45.07299" lon="7.68115">
        <ele>254.89</ele>
        <time>2016-10-06T07:50:06Z</time>
      </trkpt>
      <trkpt lat="45.073" lon="7.68115">
        <ele>254.89</ele>
        <time>2016-10-06T07:50:07Z</time>
      </trkpt>
      <trkpt lat="45.07301" lon="7.68114">
        <ele>254.89</ele>
        <time>2016-10-06T07:50:08Z</time>
      </trkpt>
      <trkpt lat="45.07302" lon="7.68112">
        <ele>254.41</ele>
        <time>2016-10-06T07:50:09Z</time>
      </trkpt>
      <trkpt lat="45.07301" lon="7.6811">
        <ele>254.41</ele>
        <time>2016-10-06T07:50:10Z</time>
      </trkpt>
      <trkpt lat="45.07301" lon="7.68108">
        <ele>254.41</ele>
        <time>2016-10-06T07:50:11Z</time>
      </trkpt>
      <trkpt lat="45.07301" lon="7.68106">
        <ele>253.93</ele>
        <time>2016-10-06T07:50:12Z</time>
      </trkpt>
      <trkpt lat="45.07297" lon="7.68097">
        <ele>254.41</ele>
        <time>2016-10-06T07:50:17Z</time>
      </trkpt>
      <trkpt lat="45.07296" lon="7.68096">
        <ele>253.93</ele>
        <time>2016-10-06T07:50:18Z</time>
      </trkpt>
      <trkpt lat="45.07294" lon="7.68094">
        <ele>254.41</ele>
        <time>2016-10-06T07:50:19Z</time>
      </trkpt>
      <trkpt lat="45.07285" lon="7.68084">
        <ele>253.93</ele>
        <time>2016-10-06T07:50:24Z</time>
      </trkpt>
      <trkpt lat="45.07276" lon="7.68085">
        <ele>253.93</ele>
        <time>2016-10-06T07:50:28Z</time>
      </trkpt>
      <trkpt lat="45.07274" lon="7.68086">
        <ele>253.93</ele>
        <time>2016-10-06T07:50:29Z</time>
      </trkpt>
      <trkpt lat="45.07271" lon="7.68088">
        <ele>254.41</ele>
        <time>2016-10-06T07:50:31Z</time>
      </trkpt>
      <trkpt lat="45.07271" lon="7.6809">
        <ele>254.41</ele>
        <time>2016-10-06T07:50:32Z</time>
      </trkpt>
      <trkpt lat="45.07257" lon="7.68127">
        <ele>253.93</ele>
        <time>2016-10-06T07:50:43Z</time>
      </trkpt>
      <trkpt lat="45.07238" lon="7.68166">
        <ele>253.44</ele>
        <time>2016-10-06T07:50:54Z</time>
      </trkpt>
      <trkpt lat="45.07218" lon="7.68226">
        <ele>252.48</ele>
        <time>2016-10-06T07:51:10Z</time>
      </trkpt>
      <trkpt lat="45.07202" lon="7.68268">
        <ele>252</ele>
        <time>2016-10-06T07:51:22Z</time>
      </trkpt>
      <trkpt lat="45.07193" lon="7.68314">
        <ele>252</ele>
        <time>2016-10-06T07:51:35Z</time>
      </trkpt>
      <trkpt lat="45.07171" lon="7.68352">
        <ele>252.48</ele>
        <time>2016-10-06T07:51:48Z</time>
      </trkpt>
      <trkpt lat="45.07158" lon="7.68385">
        <ele>252</ele>
        <time>2016-10-06T07:52:00Z</time>
      </trkpt>
      <trkpt lat="45.07144" lon="7.68419">
        <ele>252.48</ele>
        <time>2016-10-06T07:52:12Z</time>
      </trkpt>
      <trkpt lat="45.07125" lon="7.68466">
        <ele>252.48</ele>
        <time>2016-10-06T07:52:22Z</time>
      </trkpt>
      <trkpt lat="45.07126" lon="7.68487">
        <ele>252.96</ele>
        <time>2016-10-06T07:52:26Z</time>
      </trkpt>
      <trkpt lat="45.07126" lon="7.6849">
        <ele>252</ele>
        <time>2016-10-06T07:52:27Z</time>
      </trkpt>
      <trkpt lat="45.07126" lon="7.68492">
        <ele>252.48</ele>
        <time>2016-10-06T07:52:28Z</time>
      </trkpt>
      <trkpt lat="45.07138" lon="7.68511">
        <ele>252.48</ele>
        <time>2016-10-06T07:52:36Z</time>
      </trkpt>
      <trkpt lat="45.07136" lon="7.68498">
        <ele>252.48</ele>
        <time>2016-10-06T07:52:48Z</time>
      </trkpt>
      <trkpt lat="45.07139" lon="7.68473">
        <ele>252.48</ele>
        <time>2016-10-06T07:53:28Z</time>
      </trkpt>
      <trkpt lat="45.07138" lon="7.68481">
        <ele>252.96</ele>
        <time>2016-10-06T07:54:00Z</time>
      </trkpt>
      <trkpt lat="45.07136" lon="7.6847">
        <ele>252.96</ele>
        <time>2016-10-06T07:54:09Z</time>
      </trkpt>
      <trkpt lat="45.07128" lon="7.68469">
        <ele>252.48</ele>
        <time>2016-10-06T07:54:21Z</time>
      </trkpt>
      <trkpt lat="45.07124" lon="7.68478">
        <ele>252.96</ele>
        <time>2016-10-06T07:54:40Z</time>
      </trkpt>
      <trkpt lat="45.07118" lon="7.68484">
        <ele>252.96</ele>
        <time>2016-10-06T07:54:52Z</time>
      </trkpt>
      <trkpt lat="45.07116" lon="7.68487">
        <ele>252.96</ele>
        <time>2016-10-06T07:55:03Z</time>
      </trkpt>
      <trkpt lat="45.07132" lon="7.68524">
        <ele>252.96</ele>
        <time>2016-10-06T07:55:16Z</time>
      </trkpt>
      <trkpt lat="45.07143" lon="7.68565">
        <ele>253.44</ele>
        <time>2016-10-06T07:55:29Z</time>
      </trkpt>
      <trkpt lat="45.07141" lon="7.68587">
        <ele>252.96</ele>
        <time>2016-10-06T07:55:35Z</time>
      </trkpt>
      <trkpt lat="45.0714" lon="7.6859">
        <ele>252.96</ele>
        <time>2016-10-06T07:55:36Z</time>
      </trkpt>
      <trkpt lat="45.0714" lon="7.68594">
        <ele>252.96</ele>
        <time>2016-10-06T07:55:37Z</time>
      </trkpt>
      <trkpt lat="45.0714" lon="7.68598">
        <ele>252.96</ele>
        <time>2016-10-06T07:55:38Z</time>
      </trkpt>
      <trkpt lat="45.07139" lon="7.68602">
        <ele>253.93</ele>
        <time>2016-10-06T07:55:39Z</time>
      </trkpt>
      <trkpt lat="45.07121" lon="7.68647">
        <ele>252.48</ele>
        <time>2016-10-06T07:55:51Z</time>
      </trkpt>
      <trkpt lat="45.07104" lon="7.68681">
        <ele>252</ele>
        <time>2016-10-06T07:56:03Z</time>
      </trkpt>
      <trkpt lat="45.07079" lon="7.68666">
        <ele>252.48</ele>
        <time>2016-10-06T07:56:15Z</time>
      </trkpt>
      <trkpt lat="45.07069" lon="7.68656">
        <ele>252.96</ele>
        <time>2016-10-06T07:56:20Z</time>
      </trkpt>
      <trkpt lat="45.07068" lon="7.68655">
        <ele>252</ele>
        <time>2016-10-06T07:56:21Z</time>
      </trkpt>
      <trkpt lat="45.07066" lon="7.68655">
        <ele>252</ele>
        <time>2016-10-06T07:56:22Z</time>
      </trkpt>
      <trkpt lat="45.07065" lon="7.68655">
        <ele>252.48</ele>
        <time>2016-10-06T07:56:23Z</time>
      </trkpt>
      <trkpt lat="45.07064" lon="7.68656">
        <ele>252.48</ele>
        <time>2016-10-06T07:56:24Z</time>
      </trkpt>
      <trkpt lat="45.07063" lon="7.68658">
        <ele>252</ele>
        <time>2016-10-06T07:56:25Z</time>
      </trkpt>
      <trkpt lat="45.07062" lon="7.68659">
        <ele>252</ele>
        <time>2016-10-06T07:56:26Z</time>
      </trkpt>
      <trkpt lat="45.0706" lon="7.6866">
        <ele>252</ele>
        <time>2016-10-06T07:56:27Z</time>
      </trkpt>
      <trkpt lat="45.07058" lon="7.68661">
        <ele>252</ele>
        <time>2016-10-06T07:56:28Z</time>
      </trkpt>
      <trkpt lat="45.07055" lon="7.68662">
        <ele>252</ele>
        <time>2016-10-06T07:56:29Z</time>
      </trkpt>
      <trkpt lat="45.07054" lon="7.68664">
        <ele>252</ele>
        <time>2016-10-06T07:56:30Z</time>
      </trkpt>
      <trkpt lat="45.07053" lon="7.68667">
        <ele>252</ele>
        <time>2016-10-06T07:56:31Z</time>
      </trkpt>
      <trkpt lat="45.07052" lon="7.68669">
        <ele>251.52</ele>
        <time>2016-10-06T07:56:32Z</time>
      </trkpt>
      <trkpt lat="45.07052" lon="7.68699">
        <ele>251.52</ele>
        <time>2016-10-06T07:56:43Z</time>
      </trkpt>
      <trkpt lat="45.07047" lon="7.68695">
        <ele>251.04</ele>
        <time>2016-10-06T07:56:55Z</time>
      </trkpt>
      <trkpt lat="45.07048" lon="7.68688">
        <ele>250.56</ele>
        <time>2016-10-06T07:57:36Z</time>
      </trkpt>
      <trkpt lat="45.07047" lon="7.68677">
        <ele>251.52</ele>
        <time>2016-10-06T07:58:11Z</time>
      </trkpt>
      <trkpt lat="45.07045" lon="7.68678">
        <ele>250.56</ele>
        <time>2016-10-06T07:58:36Z</time>
      </trkpt>
      <trkpt lat="45.0704" lon="7.68685">
        <ele>249.12</ele>
        <time>2016-10-06T07:58:40Z</time>
      </trkpt>
      <trkpt lat="45.0704" lon="7.68686">
        <ele>250.56</ele>
        <time>2016-10-06T07:58:41Z</time>
      </trkpt>
      <trkpt lat="45.07034" lon="7.68703">
        <ele>250.56</ele>
        <time>2016-10-06T07:58:53Z</time>
      </trkpt>
      <trkpt lat="45.07033" lon="7.68747">
        <ele>250.08</ele>
        <time>2016-10-06T07:59:04Z</time>
      </trkpt>
      <trkpt lat="45.07032" lon="7.68749">
        <ele>250.56</ele>
        <time>2016-10-06T07:59:05Z</time>
      </trkpt>
      <trkpt lat="45.07031" lon="7.68751">
        <ele>250.08</ele>
        <time>2016-10-06T07:59:06Z</time>
      </trkpt>
      <trkpt lat="45.0703" lon="7.68753">
        <ele>249.6</ele>
        <time>2016-10-06T07:59:07Z</time>
      </trkpt>
      <trkpt lat="45.07029" lon="7.68755">
        <ele>249.6</ele>
        <time>2016-10-06T07:59:08Z</time>
      </trkpt>
      <trkpt lat="45.07029" lon="7.68759">
        <ele>250.08</ele>
        <time>2016-10-06T07:59:09Z</time>
      </trkpt>
      <trkpt lat="45.07029" lon="7.68762">
        <ele>249.6</ele>
        <time>2016-10-06T07:59:10Z</time>
      </trkpt>
      <trkpt lat="45.07018" lon="7.68817">
        <ele>250.08</ele>
        <time>2016-10-06T07:59:22Z</time>
      </trkpt>
      <trkpt lat="45.07015" lon="7.68823">
        <ele>249.6</ele>
        <time>2016-10-06T07:59:24Z</time>
      </trkpt>
      <trkpt lat="45.07012" lon="7.68825">
        <ele>250.08</ele>
        <time>2016-10-06T07:59:25Z</time>
      </trkpt>
      <trkpt lat="45.07009" lon="7.68827">
        <ele>249.6</ele>
        <time>2016-10-06T07:59:26Z</time>
      </trkpt>
      <trkpt lat="45.07012" lon="7.68831">
        <ele>250.08</ele>
        <time>2016-10-06T07:59:27Z</time>
      </trkpt>
      <trkpt lat="45.07009" lon="7.68833">
        <ele>250.08</ele>
        <time>2016-10-06T07:59:28Z</time>
      </trkpt>
      <trkpt lat="45.07006" lon="7.68833">
        <ele>250.08</ele>
        <time>2016-10-06T07:59:29Z</time>
      </trkpt>
      <trkpt lat="45.07003" lon="7.68833">
        <ele>249.6</ele>
        <time>2016-10-06T07:59:30Z</time>
      </trkpt>
      <trkpt lat="45.07001" lon="7.68832">
        <ele>250.08</ele>
        <time>2016-10-06T07:59:31Z</time>
      </trkpt>
      <trkpt lat="45.06999" lon="7.68831">
        <ele>250.08</ele>
        <time>2016-10-06T07:59:32Z</time>
      </trkpt>
      <trkpt lat="45.06997" lon="7.6883">
        <ele>249.6</ele>
        <time>2016-10-06T07:59:33Z</time>
      </trkpt>
      <trkpt lat="45.06995" lon="7.68828">
        <ele>249.6</ele>
        <time>2016-10-06T07:59:34Z</time>
      </trkpt>
      <trkpt lat="45.06968" lon="7.68813">
        <ele>250.08</ele>
        <time>2016-10-06T07:59:47Z</time>
      </trkpt>
      <trkpt lat="45.06966" lon="7.68813">
        <ele>250.08</ele>
        <time>2016-10-06T07:59:48Z</time>
      </trkpt>
      <trkpt lat="45.06928" lon="7.68838">
        <ele>249.6</ele>
        <time>2016-10-06T07:59:59Z</time>
      </trkpt>
      <trkpt lat="45.06884" lon="7.68888">
        <ele>249.12</ele>
        <time>2016-10-06T08:00:12Z</time>
      </trkpt>
      <trkpt lat="45.06854" lon="7.6893">
        <ele>249.12</ele>
        <time>2016-10-06T08:00:24Z</time>
      </trkpt>
      <trkpt lat="45.0682" lon="7.68986">
        <ele>248.16</ele>
        <time>2016-10-06T08:00:39Z</time>
      </trkpt>
      <trkpt lat="45.0681" lon="7.69003">
        <ele>248.16</ele>
        <time>2016-10-06T08:00:46Z</time>
      </trkpt>
      <trkpt lat="45.06808" lon="7.69009">
        <ele>248.16</ele>
        <time>2016-10-06T08:00:50Z</time>
      </trkpt>
      <trkpt lat="45.06808" lon="7.69011">
        <ele>248.64</ele>
        <time>2016-10-06T08:00:51Z</time>
      </trkpt>
      <trkpt lat="45.06806" lon="7.69017">
        <ele>248.64</ele>
        <time>2016-10-06T08:00:54Z</time>
      </trkpt>
      <trkpt lat="45.06805" lon="7.69019">
        <ele>248.16</ele>
        <time>2016-10-06T08:00:55Z</time>
      </trkpt>
      <trkpt lat="45.06803" lon="7.69021">
        <ele>248.64</ele>
        <time>2016-10-06T08:00:56Z</time>
      </trkpt>
      <trkpt lat="45.06801" lon="7.69024">
        <ele>248.16</ele>
        <time>2016-10-06T08:00:57Z</time>
      </trkpt>
      <trkpt lat="45.06799" lon="7.69026">
        <ele>248.16</ele>
        <time>2016-10-06T08:00:58Z</time>
      </trkpt>
      <trkpt lat="45.06775" lon="7.69063">
        <ele>247.68</ele>
        <time>2016-10-06T08:01:09Z</time>
      </trkpt>
      <trkpt lat="45.06744" lon="7.69103">
        <ele>247.68</ele>
        <time>2016-10-06T08:01:20Z</time>
      </trkpt>
      <trkpt lat="45.06704" lon="7.69169">
        <ele>247.2</ele>
        <time>2016-10-06T08:01:36Z</time>
      </trkpt>
      <trkpt lat="45.06663" lon="7.69223">
        <ele>246.72</ele>
        <time>2016-10-06T08:01:51Z</time>
      </trkpt>
      <trkpt lat="45.06636" lon="7.69279">
        <ele>246.23</ele>
        <time>2016-10-06T08:02:05Z</time>
      </trkpt>
      <trkpt lat="45.06593" lon="7.69348">
        <ele>245.27</ele>
        <time>2016-10-06T08:02:21Z</time>
      </trkpt>
      <trkpt lat="45.06568" lon="7.69396">
        <ele>244.31</ele>
        <time>2016-10-06T08:02:34Z</time>
      </trkpt>
      <trkpt lat="45.06534" lon="7.6944">
        <ele>242.39</ele>
        <time>2016-10-06T08:02:48Z</time>
      </trkpt>
      <trkpt lat="45.06495" lon="7.69495">
        <ele>241.91</ele>
        <time>2016-10-06T08:03:04Z</time>
      </trkpt>
      <trkpt lat="45.0646" lon="7.69544">
        <ele>240.95</ele>
        <time>2016-10-06T08:03:18Z</time>
      </trkpt>
      <trkpt lat="45.06424" lon="7.696">
        <ele>239.51</ele>
        <time>2016-10-06T08:03:33Z</time>
      </trkpt>
      <trkpt lat="45.06415" lon="7.69613">
        <ele>239.02</ele>
        <time>2016-10-06T08:03:45Z</time>
      </trkpt>
      <trkpt lat="45.06402" lon="7.69636">
        <ele>238.06</ele>
        <time>2016-10-06T08:04:02Z</time>
      </trkpt>
      <trkpt lat="45.06394" lon="7.69646">
        <ele>238.06</ele>
        <time>2016-10-06T08:04:12Z</time>
      </trkpt>
      <trkpt lat="45.06379" lon="7.69661">
        <ele>237.58</ele>
        <time>2016-10-06T08:04:23Z</time>
      </trkpt>
      <trkpt lat="45.06377" lon="7.69662">
        <ele>237.58</ele>
        <time>2016-10-06T08:04:54Z</time>
      </trkpt>
      <trkpt lat="45.0638" lon="7.69664">
        <ele>236.62</ele>
        <time>2016-10-06T08:05:29Z</time>
      </trkpt>
      <trkpt lat="45.06377" lon="7.69667">
        <ele>236.62</ele>
        <time>2016-10-06T08:06:08Z</time>
      </trkpt>
      <trkpt lat="45.0638" lon="7.69665">
        <ele>236.14</ele>
        <time>2016-10-06T08:06:34Z</time>
      </trkpt>
      <trkpt lat="45.06378" lon="7.69662">
        <ele>236.62</ele>
        <time>2016-10-06T08:06:52Z</time>
      </trkpt>
      <trkpt lat="45.06377" lon="7.6966">
        <ele>237.1</ele>
        <time>2016-10-06T08:06:53Z</time>
      </trkpt>
      <trkpt lat="45.06375" lon="7.69658">
        <ele>237.1</ele>
        <time>2016-10-06T08:06:54Z</time>
      </trkpt>
      <trkpt lat="45.06373" lon="7.69654">
        <ele>237.1</ele>
        <time>2016-10-06T08:06:55Z</time>
      </trkpt>
      <trkpt lat="45.06371" lon="7.69651">
        <ele>237.1</ele>
        <time>2016-10-06T08:06:56Z</time>
      </trkpt>
      <trkpt lat="45.06369" lon="7.69648">
        <ele>236.62</ele>
        <time>2016-10-06T08:06:57Z</time>
      </trkpt>
      <trkpt lat="45.06367" lon="7.69645">
        <ele>235.66</ele>
        <time>2016-10-06T08:06:58Z</time>
      </trkpt>
      <trkpt lat="45.06365" lon="7.69641">
        <ele>236.62</ele>
        <time>2016-10-06T08:06:59Z</time>
      </trkpt>
      <trkpt lat="45.06362" lon="7.69638">
        <ele>236.14</ele>
        <time>2016-10-06T08:07:00Z</time>
      </trkpt>
      <trkpt lat="45.06359" lon="7.69633">
        <ele>235.18</ele>
        <time>2016-10-06T08:07:01Z</time>
      </trkpt>
      <trkpt lat="45.06356" lon="7.69628">
        <ele>234.7</ele>
        <time>2016-10-06T08:07:02Z</time>
      </trkpt>
      <trkpt lat="45.06327" lon="7.69589">
        <ele>231.81</ele>
        <time>2016-10-06T08:07:08Z</time>
      </trkpt>
      <trkpt lat="45.06285" lon="7.69532">
        <ele>229.41</ele>
        <time>2016-10-06T08:07:17Z</time>
      </trkpt>
      <trkpt lat="45.06276" lon="7.69518">
        <ele>228.93</ele>
        <time>2016-10-06T08:07:20Z</time>
      </trkpt>
      <trkpt lat="45.0627" lon="7.6951">
        <ele>228.93</ele>
        <time>2016-10-06T08:07:22Z</time>
      </trkpt>
      <trkpt lat="45.06267" lon="7.69506">
        <ele>229.41</ele>
        <time>2016-10-06T08:07:23Z</time>
      </trkpt>
      <trkpt lat="45.06265" lon="7.69502">
        <ele>229.41</ele>
        <time>2016-10-06T08:07:24Z</time>
      </trkpt>
      <trkpt lat="45.06237" lon="7.69461">
        <ele>229.41</ele>
        <time>2016-10-06T08:07:34Z</time>
      </trkpt>
      <trkpt lat="45.06187" lon="7.69405">
        <ele>228.93</ele>
        <time>2016-10-06T08:07:50Z</time>
      </trkpt>
      <trkpt lat="45.06152" lon="7.69369">
        <ele>229.41</ele>
        <time>2016-10-06T08:08:06Z</time>
      </trkpt>
      <trkpt lat="45.06121" lon="7.69333">
        <ele>228.45</ele>
        <time>2016-10-06T08:08:22Z</time>
      </trkpt>
      <trkpt lat="45.06097" lon="7.69306">
        <ele>228.45</ele>
        <time>2016-10-06T08:08:30Z</time>
      </trkpt>
      <trkpt lat="45.06053" lon="7.69268">
        <ele>227.49</ele>
        <time>2016-10-06T08:08:42Z</time>
      </trkpt>
      <trkpt lat="45.06045" lon="7.69257">
        <ele>227.97</ele>
        <time>2016-10-06T08:08:45Z</time>
      </trkpt>
      <trkpt lat="45.0604" lon="7.69254">
        <ele>228.45</ele>
        <time>2016-10-06T08:08:46Z</time>
      </trkpt>
      <trkpt lat="45.06036" lon="7.69251">
        <ele>227.49</ele>
        <time>2016-10-06T08:08:47Z</time>
      </trkpt>
      <trkpt lat="45.06032" lon="7.69248">
        <ele>227.97</ele>
        <time>2016-10-06T08:08:48Z</time>
      </trkpt>
      <trkpt lat="45.06028" lon="7.69245">
        <ele>227.97</ele>
        <time>2016-10-06T08:08:49Z</time>
      </trkpt>
      <trkpt lat="45.06024" lon="7.69242">
        <ele>227.97</ele>
        <time>2016-10-06T08:08:50Z</time>
      </trkpt>
      <trkpt lat="45.05994" lon="7.69224">
        <ele>227.49</ele>
        <time>2016-10-06T08:09:01Z</time>
      </trkpt>
      <trkpt lat="45.05944" lon="7.69204">
        <ele>227.49</ele>
        <time>2016-10-06T08:09:18Z</time>
      </trkpt>
      <trkpt lat="45.05873" lon="7.69162">
        <ele>227.49</ele>
        <time>2016-10-06T08:09:37Z</time>
      </trkpt>
      <trkpt lat="45.05863" lon="7.69156">
        <ele>227.49</ele>
        <time>2016-10-06T08:09:48Z</time>
      </trkpt>
      <trkpt lat="45.05865" lon="7.6916">
        <ele>227.01</ele>
        <time>2016-10-06T08:09:59Z</time>
      </trkpt>
      <trkpt lat="45.05867" lon="7.69161">
        <ele>227.01</ele>
        <time>2016-10-06T08:10:16Z</time>
      </trkpt>
      <trkpt lat="45.05866" lon="7.6916">
        <ele>227.49</ele>
        <time>2016-10-06T08:10:51Z</time>
      </trkpt>
      <trkpt lat="45.05865" lon="7.69161">
        <ele>226.53</ele>
        <time>2016-10-06T08:11:08Z</time>
      </trkpt>
      <trkpt lat="45.05893" lon="7.69186">
        <ele>226.05</ele>
        <time>2016-10-06T08:11:22Z</time>
      </trkpt>
      <trkpt lat="45.05938" lon="7.69219">
        <ele>226.05</ele>
        <time>2016-10-06T08:11:38Z</time>
      </trkpt>
      <trkpt lat="45.05982" lon="7.69247">
        <ele>226.53</ele>
        <time>2016-10-06T08:11:53Z</time>
      </trkpt>
      <trkpt lat="45.05984" lon="7.69248">
        <ele>226.05</ele>
        <time>2016-10-06T08:11:54Z</time>
      </trkpt>
      <trkpt lat="45.05992" lon="7.69253">
        <ele>226.05</ele>
        <time>2016-10-06T08:11:58Z</time>
      </trkpt>
      <trkpt lat="45.05993" lon="7.69253">
        <ele>226.05</ele>
        <time>2016-10-06T08:11:59Z</time>
      </trkpt>
      <trkpt lat="45.05994" lon="7.69251">
        <ele>226.53</ele>
        <time>2016-10-06T08:12:00Z</time>
      </trkpt>
      <trkpt lat="45.05993" lon="7.69248">
        <ele>226.53</ele>
        <time>2016-10-06T08:12:01Z</time>
      </trkpt>
      <trkpt lat="45.05992" lon="7.69246">
        <ele>226.53</ele>
        <time>2016-10-06T08:12:02Z</time>
      </trkpt>
      <trkpt lat="45.0599" lon="7.69244">
        <ele>226.05</ele>
        <time>2016-10-06T08:12:03Z</time>
      </trkpt>
      <trkpt lat="45.05987" lon="7.69242">
        <ele>226.53</ele>
        <time>2016-10-06T08:12:04Z</time>
      </trkpt>
      <trkpt lat="45.05985" lon="7.6924">
        <ele>227.01</ele>
        <time>2016-10-06T08:12:05Z</time>
      </trkpt>
      <trkpt lat="45.05984" lon="7.69238">
        <ele>227.01</ele>
        <time>2016-10-06T08:12:06Z</time>
      </trkpt>
      <trkpt lat="45.05983" lon="7.69235">
        <ele>227.01</ele>
        <time>2016-10-06T08:12:07Z</time>
      </trkpt>
      <trkpt lat="45.05981" lon="7.69232">
        <ele>227.49</ele>
        <time>2016-10-06T08:12:08Z</time>
      </trkpt>
      <trkpt lat="45.0598" lon="7.69229">
        <ele>227.49</ele>
        <time>2016-10-06T08:12:09Z</time>
      </trkpt>
      <trkpt lat="45.05978" lon="7.69227">
        <ele>227.97</ele>
        <time>2016-10-06T08:12:10Z</time>
      </trkpt>
      <trkpt lat="45.05976" lon="7.69224">
        <ele>227.97</ele>
        <time>2016-10-06T08:12:11Z</time>
      </trkpt>
      <trkpt lat="45.05974" lon="7.69222">
        <ele>228.45</ele>
        <time>2016-10-06T08:12:12Z</time>
      </trkpt>
      <trkpt lat="45.05972" lon="7.69219">
        <ele>228.45</ele>
        <time>2016-10-06T08:12:13Z</time>
      </trkpt>
      <trkpt lat="45.05934" lon="7.69182">
        <ele>230.85</ele>
        <time>2016-10-06T08:12:30Z</time>
      </trkpt>
      <trkpt lat="45.05903" lon="7.69157">
        <ele>233.26</ele>
        <time>2016-10-06T08:12:47Z</time>
      </trkpt>
      <trkpt lat="45.05883" lon="7.69131">
        <ele>234.7</ele>
        <time>2016-10-06T08:13:01Z</time>
      </trkpt>
      <trkpt lat="45.05873" lon="7.6911">
        <ele>235.66</ele>
        <time>2016-10-06T08:13:11Z</time>
      </trkpt>
      <trkpt lat="45.05871" lon="7.69108">
        <ele>236.14</ele>
        <time>2016-10-06T08:13:12Z</time>
      </trkpt>
      <trkpt lat="45.0587" lon="7.69106">
        <ele>235.66</ele>
        <time>2016-10-06T08:13:13Z</time>
      </trkpt>
      <trkpt lat="45.05867" lon="7.69104">
        <ele>235.66</ele>
        <time>2016-10-06T08:13:14Z</time>
      </trkpt>
      <trkpt lat="45.05865" lon="7.69102">
        <ele>235.66</ele>
        <time>2016-10-06T08:13:15Z</time>
      </trkpt>
      <trkpt lat="45.05863" lon="7.69101">
        <ele>235.18</ele>
        <time>2016-10-06T08:13:16Z</time>
      </trkpt>
      <trkpt lat="45.05861" lon="7.69101">
        <ele>235.66</ele>
        <time>2016-10-06T08:13:17Z</time>
      </trkpt>
      <trkpt lat="45.05859" lon="7.691">
        <ele>235.18</ele>
        <time>2016-10-06T08:13:18Z</time>
      </trkpt>
      <trkpt lat="45.05852" lon="7.69098">
        <ele>235.18</ele>
        <time>2016-10-06T08:13:22Z</time>
      </trkpt>
      <trkpt lat="45.05851" lon="7.69096">
        <ele>235.18</ele>
        <time>2016-10-06T08:13:23Z</time>
      </trkpt>
      <trkpt lat="45.05849" lon="7.69094">
        <ele>234.7</ele>
        <time>2016-10-06T08:13:24Z</time>
      </trkpt>
      <trkpt lat="45.05846" lon="7.69093">
        <ele>235.66</ele>
        <time>2016-10-06T08:13:25Z</time>
      </trkpt>
      <trkpt lat="45.05844" lon="7.69091">
        <ele>235.66</ele>
        <time>2016-10-06T08:13:26Z</time>
      </trkpt>
      <trkpt lat="45.05841" lon="7.6909">
        <ele>235.18</ele>
        <time>2016-10-06T08:13:27Z</time>
      </trkpt>
      <trkpt lat="45.05838" lon="7.6909">
        <ele>235.66</ele>
        <time>2016-10-06T08:13:28Z</time>
      </trkpt>
      <trkpt lat="45.05836" lon="7.6909">
        <ele>235.66</ele>
        <time>2016-10-06T08:13:29Z</time>
      </trkpt>
      <trkpt lat="45.05834" lon="7.69092">
        <ele>235.18</ele>
        <time>2016-10-06T08:13:30Z</time>
      </trkpt>
      <trkpt lat="45.05833" lon="7.69094">
        <ele>235.18</ele>
        <time>2016-10-06T08:13:31Z</time>
      </trkpt>
      <trkpt lat="45.05831" lon="7.69096">
        <ele>235.66</ele>
        <time>2016-10-06T08:13:32Z</time>
      </trkpt>
      <trkpt lat="45.05829" lon="7.69098">
        <ele>235.18</ele>
        <time>2016-10-06T08:13:33Z</time>
      </trkpt>
      <trkpt lat="45.05827" lon="7.69101">
        <ele>235.18</ele>
        <time>2016-10-06T08:13:34Z</time>
      </trkpt>
      <trkpt lat="45.05826" lon="7.69103">
        <ele>235.66</ele>
        <time>2016-10-06T08:13:35Z</time>
      </trkpt>
      <trkpt lat="45.05825" lon="7.69105">
        <ele>235.18</ele>
        <time>2016-10-06T08:13:36Z</time>
      </trkpt>
      <trkpt lat="45.05825" lon="7.69108">
        <ele>235.18</ele>
        <time>2016-10-06T08:13:37Z</time>
      </trkpt>
      <trkpt lat="45.05824" lon="7.69111">
        <ele>234.7</ele>
        <time>2016-10-06T08:13:38Z</time>
      </trkpt>
      <trkpt lat="45.05824" lon="7.69114">
        <ele>235.66</ele>
        <time>2016-10-06T08:13:39Z</time>
      </trkpt>
      <trkpt lat="45.05823" lon="7.69117">
        <ele>235.18</ele>
        <time>2016-10-06T08:13:40Z</time>
      </trkpt>
      <trkpt lat="45.05822" lon="7.69119">
        <ele>235.18</ele>
        <time>2016-10-06T08:13:41Z</time>
      </trkpt>
      <trkpt lat="45.05822" lon="7.69122">
        <ele>235.18</ele>
        <time>2016-10-06T08:13:42Z</time>
      </trkpt>
      <trkpt lat="45.05806" lon="7.6916">
        <ele>234.7</ele>
        <time>2016-10-06T08:13:58Z</time>
      </trkpt>
      <trkpt lat="45.05783" lon="7.69222">
        <ele>234.7</ele>
        <time>2016-10-06T08:14:12Z</time>
      </trkpt>
      <trkpt lat="45.0576" lon="7.69272">
        <ele>233.74</ele>
        <time>2016-10-06T08:14:24Z</time>
      </trkpt>
      <trkpt lat="45.05756" lon="7.69273">
        <ele>233.74</ele>
        <time>2016-10-06T08:14:25Z</time>
      </trkpt>
      <trkpt lat="45.05752" lon="7.69272">
        <ele>233.74</ele>
        <time>2016-10-06T08:14:26Z</time>
      </trkpt>
      <trkpt lat="45.05748" lon="7.69272">
        <ele>233.74</ele>
        <time>2016-10-06T08:14:27Z</time>
      </trkpt>
      <trkpt lat="45.05744" lon="7.69271">
        <ele>233.26</ele>
        <time>2016-10-06T08:14:28Z</time>
      </trkpt>
      <trkpt lat="45.05739" lon="7.69272">
        <ele>233.26</ele>
        <time>2016-10-06T08:14:29Z</time>
      </trkpt>
      <trkpt lat="45.05734" lon="7.69272">
        <ele>232.78</ele>
        <time>2016-10-06T08:14:30Z</time>
      </trkpt>
      <trkpt lat="45.05729" lon="7.69271">
        <ele>232.78</ele>
        <time>2016-10-06T08:14:31Z</time>
      </trkpt>
      <trkpt lat="45.05724" lon="7.69268">
        <ele>231.81</ele>
        <time>2016-10-06T08:14:32Z</time>
      </trkpt>
      <trkpt lat="45.05719" lon="7.69265">
        <ele>232.3</ele>
        <time>2016-10-06T08:14:33Z</time>
      </trkpt>
      <trkpt lat="45.05714" lon="7.69262">
        <ele>231.33</ele>
        <time>2016-10-06T08:14:34Z</time>
      </trkpt>
      <trkpt lat="45.05646" lon="7.69224">
        <ele>232.3</ele>
        <time>2016-10-06T08:14:50Z</time>
      </trkpt>
      <trkpt lat="45.05603" lon="7.692">
        <ele>232.78</ele>
        <time>2016-10-06T08:15:01Z</time>
      </trkpt>
      <trkpt lat="45.05591" lon="7.69194">
        <ele>232.78</ele>
        <time>2016-10-06T08:15:04Z</time>
      </trkpt>
      <trkpt lat="45.05588" lon="7.69192">
        <ele>232.3</ele>
        <time>2016-10-06T08:15:05Z</time>
      </trkpt>
      <trkpt lat="45.05584" lon="7.6919">
        <ele>232.78</ele>
        <time>2016-10-06T08:15:06Z</time>
      </trkpt>
      <trkpt lat="45.05581" lon="7.69188">
        <ele>232.78</ele>
        <time>2016-10-06T08:15:07Z</time>
      </trkpt>
      <trkpt lat="45.05576" lon="7.69186">
        <ele>232.78</ele>
        <time>2016-10-06T08:15:08Z</time>
      </trkpt>
      <trkpt lat="45.0554" lon="7.69169">
        <ele>233.26</ele>
        <time>2016-10-06T08:15:18Z</time>
      </trkpt>
      <trkpt lat="45.05538" lon="7.69167">
        <ele>232.3</ele>
        <time>2016-10-06T08:15:19Z</time>
      </trkpt>
      <trkpt lat="45.05537" lon="7.69165">
        <ele>232.78</ele>
        <time>2016-10-06T08:15:20Z</time>
      </trkpt>
      <trkpt lat="45.05537" lon="7.69162">
        <ele>232.3</ele>
        <time>2016-10-06T08:15:21Z</time>
      </trkpt>
      <trkpt lat="45.05538" lon="7.69159">
        <ele>232.3</ele>
        <time>2016-10-06T08:15:22Z</time>
      </trkpt>
      <trkpt lat="45.05539" lon="7.69156">
        <ele>232.3</ele>
        <time>2016-10-06T08:15:23Z</time>
      </trkpt>
      <trkpt lat="45.0554" lon="7.69153">
        <ele>231.81</ele>
        <time>2016-10-06T08:15:24Z</time>
      </trkpt>
      <trkpt lat="45.05542" lon="7.69149">
        <ele>232.3</ele>
        <time>2016-10-06T08:15:25Z</time>
      </trkpt>
      <trkpt lat="45.05555" lon="7.69117">
        <ele>228.93</ele>
        <time>2016-10-06T08:15:35Z</time>
      </trkpt>
      <trkpt lat="45.05561" lon="7.69107">
        <ele>229.41</ele>
        <time>2016-10-06T08:15:39Z</time>
      </trkpt>
      <trkpt lat="45.05562" lon="7.69104">
        <ele>229.41</ele>
        <time>2016-10-06T08:15:40Z</time>
      </trkpt>
      <trkpt lat="45.05563" lon="7.69101">
        <ele>228.93</ele>
        <time>2016-10-06T08:15:41Z</time>
      </trkpt>
      <trkpt lat="45.05562" lon="7.69098">
        <ele>228.93</ele>
        <time>2016-10-06T08:15:42Z</time>
      </trkpt>
      <trkpt lat="45.05562" lon="7.69097">
        <ele>228.93</ele>
        <time>2016-10-06T08:15:43Z</time>
      </trkpt>
      <trkpt lat="45.05562" lon="7.69095">
        <ele>228.93</ele>
        <time>2016-10-06T08:15:44Z</time>
      </trkpt>
      <trkpt lat="45.05562" lon="7.69093">
        <ele>228.93</ele>
        <time>2016-10-06T08:15:45Z</time>
      </trkpt>
      <trkpt lat="45.05562" lon="7.69086">
        <ele>228.45</ele>
        <time>2016-10-06T08:15:48Z</time>
      </trkpt>
      <trkpt lat="45.05561" lon="7.69084">
        <ele>228.45</ele>
        <time>2016-10-06T08:15:49Z</time>
      </trkpt>
      <trkpt lat="45.05528" lon="7.69039">
        <ele>227.97</ele>
        <time>2016-10-06T08:16:02Z</time>
      </trkpt>
      <trkpt lat="45.05497" lon="7.69007">
        <ele>227.97</ele>
        <time>2016-10-06T08:16:10Z</time>
      </trkpt>
      <trkpt lat="45.05426" lon="7.68965">
        <ele>228.45</ele>
        <time>2016-10-06T08:16:25Z</time>
      </trkpt>
      <trkpt lat="45.05416" lon="7.68958">
        <ele>228.45</ele>
        <time>2016-10-06T08:16:27Z</time>
      </trkpt>
      <trkpt lat="45.0538" lon="7.68923">
        <ele>228.45</ele>
        <time>2016-10-06T08:16:38Z</time>
      </trkpt>
      <trkpt lat="45.05343" lon="7.6891">
        <ele>228.93</ele>
        <time>2016-10-06T08:16:51Z</time>
      </trkpt>
      <trkpt lat="45.05339" lon="7.68898">
        <ele>229.41</ele>
        <time>2016-10-06T08:16:58Z</time>
      </trkpt>
      <trkpt lat="45.05335" lon="7.6889">
        <ele>228.93</ele>
        <time>2016-10-06T08:17:12Z</time>
      </trkpt>
      <trkpt lat="45.0533" lon="7.68889">
        <ele>228.93</ele>
        <time>2016-10-06T08:17:51Z</time>
      </trkpt>
      <trkpt lat="45.05329" lon="7.6889">
        <ele>228.93</ele>
        <time>2016-10-06T08:17:52Z</time>
      </trkpt>
      <trkpt lat="45.05318" lon="7.689">
        <ele>229.41</ele>
        <time>2016-10-06T08:18:08Z</time>
      </trkpt>
      <trkpt lat="45.05312" lon="7.68896">
        <ele>229.41</ele>
        <time>2016-10-06T08:18:20Z</time>
      </trkpt>
      <trkpt lat="45.05311" lon="7.68895">
        <ele>229.41</ele>
        <time>2016-10-06T08:18:21Z</time>
      </trkpt>
      <trkpt lat="45.0531" lon="7.68894">
        <ele>229.41</ele>
        <time>2016-10-06T08:18:22Z</time>
      </trkpt>
      <trkpt lat="45.05281" lon="7.68869">
        <ele>228.93</ele>
        <time>2016-10-06T08:18:34Z</time>
      </trkpt>
      <trkpt lat="45.05235" lon="7.68873">
        <ele>230.37</ele>
        <time>2016-10-06T08:18:45Z</time>
      </trkpt>
      <trkpt lat="45.05198" lon="7.68873">
        <ele>232.3</ele>
        <time>2016-10-06T08:18:57Z</time>
      </trkpt>
      <trkpt lat="45.05167" lon="7.6886">
        <ele>231.81</ele>
        <time>2016-10-06T08:19:09Z</time>
      </trkpt>
      <trkpt lat="45.0512" lon="7.68825">
        <ele>230.37</ele>
        <time>2016-10-06T08:19:21Z</time>
      </trkpt>
      <trkpt lat="45.05116" lon="7.6882">
        <ele>230.37</ele>
        <time>2016-10-06T08:19:22Z</time>
      </trkpt>
      <trkpt lat="45.05106" lon="7.68805">
        <ele>229.89</ele>
        <time>2016-10-06T08:19:25Z</time>
      </trkpt>
      <trkpt lat="45.05103" lon="7.68798">
        <ele>229.41</ele>
        <time>2016-10-06T08:19:26Z</time>
      </trkpt>
      <trkpt lat="45.051" lon="7.68792">
        <ele>229.89</ele>
        <time>2016-10-06T08:19:27Z</time>
      </trkpt>
      <trkpt lat="45.05094" lon="7.68779">
        <ele>229.41</ele>
        <time>2016-10-06T08:19:29Z</time>
      </trkpt>
      <trkpt lat="45.05089" lon="7.68775">
        <ele>229.41</ele>
        <time>2016-10-06T08:19:30Z</time>
      </trkpt>
      <trkpt lat="45.05084" lon="7.68772">
        <ele>228.93</ele>
        <time>2016-10-06T08:19:31Z</time>
      </trkpt>
      <trkpt lat="45.05078" lon="7.6877">
        <ele>229.41</ele>
        <time>2016-10-06T08:19:32Z</time>
      </trkpt>
      <trkpt lat="45.05072" lon="7.68768">
        <ele>228.93</ele>
        <time>2016-10-06T08:19:33Z</time>
      </trkpt>
      <trkpt lat="45.05066" lon="7.68767">
        <ele>229.41</ele>
        <time>2016-10-06T08:19:34Z</time>
      </trkpt>
      <trkpt lat="45.05001" lon="7.68748">
        <ele>228.45</ele>
        <time>2016-10-06T08:19:47Z</time>
      </trkpt>
      <trkpt lat="45.04987" lon="7.68738">
        <ele>228.45</ele>
        <time>2016-10-06T08:19:52Z</time>
      </trkpt>
      <trkpt lat="45.04986" lon="7.68737">
        <ele>228.93</ele>
        <time>2016-10-06T08:19:53Z</time>
      </trkpt>
      <trkpt lat="45.04985" lon="7.68736">
        <ele>228.93</ele>
        <time>2016-10-06T08:19:54Z</time>
      </trkpt>
      <trkpt lat="45.04955" lon="7.68725">
        <ele>228.45</ele>
        <time>2016-10-06T08:20:06Z</time>
      </trkpt>
      <trkpt lat="45.04945" lon="7.68715">
        <ele>228.45</ele>
        <time>2016-10-06T08:20:18Z</time>
      </trkpt>
      <trkpt lat="45.04948" lon="7.68717">
        <ele>228.93</ele>
        <time>2016-10-06T08:21:03Z</time>
      </trkpt>
      <trkpt lat="45.04945" lon="7.68718">
        <ele>228.45</ele>
        <time>2016-10-06T08:21:06Z</time>
      </trkpt>
      <trkpt lat="45.04944" lon="7.68721">
        <ele>228.45</ele>
        <time>2016-10-06T08:21:07Z</time>
      </trkpt>
      <trkpt lat="45.04943" lon="7.68725">
        <ele>227.97</ele>
        <time>2016-10-06T08:21:09Z</time>
      </trkpt>
      <trkpt lat="45.04942" lon="7.68727">
        <ele>228.45</ele>
        <time>2016-10-06T08:21:10Z</time>
      </trkpt>
      <trkpt lat="45.0494" lon="7.68728">
        <ele>228.45</ele>
        <time>2016-10-06T08:21:11Z</time>
      </trkpt>
      <trkpt lat="45.04937" lon="7.68728">
        <ele>228.45</ele>
        <time>2016-10-06T08:21:23Z</time>
      </trkpt>
      <trkpt lat="45.04936" lon="7.68727">
        <ele>227.97</ele>
        <time>2016-10-06T08:21:24Z</time>
      </trkpt>
      <trkpt lat="45.04911" lon="7.68714">
        <ele>226.05</ele>
        <time>2016-10-06T08:21:34Z</time>
      </trkpt>
      <trkpt lat="45.04893" lon="7.68703">
        <ele>225.57</ele>
        <time>2016-10-06T08:21:38Z</time>
      </trkpt>
      <trkpt lat="45.04844" lon="7.68683">
        <ele>224.12</ele>
        <time>2016-10-06T08:21:49Z</time>
      </trkpt>
      <trkpt lat="45.04821" lon="7.6868">
        <ele>224.12</ele>
        <time>2016-10-06T08:21:54Z</time>
      </trkpt>
      <trkpt lat="45.04817" lon="7.68679">
        <ele>224.12</ele>
        <time>2016-10-06T08:21:55Z</time>
      </trkpt>
      <trkpt lat="45.04734" lon="7.68661">
        <ele>224.12</ele>
        <time>2016-10-06T08:22:12Z</time>
      </trkpt>
      <trkpt lat="45.04662" lon="7.68642">
        <ele>224.12</ele>
        <time>2016-10-06T08:22:26Z</time>
      </trkpt>
      <trkpt lat="45.04577" lon="7.68607">
        <ele>224.61</ele>
        <time>2016-10-06T08:22:42Z</time>
      </trkpt>
      <trkpt lat="45.04493" lon="7.6856">
        <ele>223.64</ele>
        <time>2016-10-06T08:22:59Z</time>
      </trkpt>
      <trkpt lat="45.04438" lon="7.68503">
        <ele>225.09</ele>
        <time>2016-10-06T08:23:13Z</time>
      </trkpt>
      <trkpt lat="45.04379" lon="7.68403">
        <ele>225.09</ele>
        <time>2016-10-06T08:23:31Z</time>
      </trkpt>
      <trkpt lat="45.04332" lon="7.68292">
        <ele>225.09</ele>
        <time>2016-10-06T08:23:49Z</time>
      </trkpt>
      <trkpt lat="45.04281" lon="7.68163">
        <ele>224.12</ele>
        <time>2016-10-06T08:24:08Z</time>
      </trkpt>
      <trkpt lat="45.04241" lon="7.68058">
        <ele>224.12</ele>
        <time>2016-10-06T08:24:25Z</time>
      </trkpt>
      <trkpt lat="45.04199" lon="7.67975">
        <ele>224.61</ele>
        <time>2016-10-06T08:24:39Z</time>
      </trkpt>
      <trkpt lat="45.04133" lon="7.67906">
        <ele>224.12</ele>
        <time>2016-10-06T08:24:54Z</time>
      </trkpt>
      <trkpt lat="45.0406" lon="7.67865">
        <ele>224.61</ele>
        <time>2016-10-06T08:25:08Z</time>
      </trkpt>
      <trkpt lat="45.04056" lon="7.67862">
        <ele>225.09</ele>
        <time>2016-10-06T08:25:09Z</time>
      </trkpt>
      <trkpt lat="45.04016" lon="7.67855">
        <ele>226.05</ele>
        <time>2016-10-06T08:25:20Z</time>
      </trkpt>
      <trkpt lat="45.0398" lon="7.67852">
        <ele>227.01</ele>
        <time>2016-10-06T08:25:31Z</time>
      </trkpt>
      <trkpt lat="45.03941" lon="7.67831">
        <ele>227.49</ele>
        <time>2016-10-06T08:25:43Z</time>
      </trkpt>
      <trkpt lat="45.03913" lon="7.67818">
        <ele>227.01</ele>
        <time>2016-10-06T08:25:50Z</time>
      </trkpt>
      <trkpt lat="45.03908" lon="7.67817">
        <ele>226.53</ele>
        <time>2016-10-06T08:25:51Z</time>
      </trkpt>
      <trkpt lat="45.03847" lon="7.67811">
        <ele>226.53</ele>
        <time>2016-10-06T08:26:04Z</time>
      </trkpt>
      <trkpt lat="45.03764" lon="7.67818">
        <ele>227.49</ele>
        <time>2016-10-06T08:26:21Z</time>
      </trkpt>
      <trkpt lat="45.0375" lon="7.67822">
        <ele>227.01</ele>
        <time>2016-10-06T08:26:25Z</time>
      </trkpt>
      <trkpt lat="45.03692" lon="7.67835">
        <ele>227.01</ele>
        <time>2016-10-06T08:26:40Z</time>
      </trkpt>
      <trkpt lat="45.03661" lon="7.6785">
        <ele>227.97</ele>
        <time>2016-10-06T08:26:48Z</time>
      </trkpt>
      <trkpt lat="45.03658" lon="7.67854">
        <ele>227.97</ele>
        <time>2016-10-06T08:26:49Z</time>
      </trkpt>
      <trkpt lat="45.03656" lon="7.67858">
        <ele>227.97</ele>
        <time>2016-10-06T08:26:50Z</time>
      </trkpt>
      <trkpt lat="45.03654" lon="7.67864">
        <ele>228.45</ele>
        <time>2016-10-06T08:26:51Z</time>
      </trkpt>
      <trkpt lat="45.03653" lon="7.67869">
        <ele>228.45</ele>
        <time>2016-10-06T08:26:52Z</time>
      </trkpt>
      <trkpt lat="45.03649" lon="7.67895">
        <ele>228.93</ele>
        <time>2016-10-06T08:27:00Z</time>
      </trkpt>
      <trkpt lat="45.0365" lon="7.67897">
        <ele>228.93</ele>
        <time>2016-10-06T08:27:01Z</time>
      </trkpt>
      <trkpt lat="45.03651" lon="7.67899">
        <ele>229.41</ele>
        <time>2016-10-06T08:27:02Z</time>
      </trkpt>
      <trkpt lat="45.03652" lon="7.67901">
        <ele>229.41</ele>
        <time>2016-10-06T08:27:03Z</time>
      </trkpt>
      <trkpt lat="45.03654" lon="7.67903">
        <ele>228.93</ele>
        <time>2016-10-06T08:27:04Z</time>
      </trkpt>
      <trkpt lat="45.03656" lon="7.67905">
        <ele>228.93</ele>
        <time>2016-10-06T08:27:05Z</time>
      </trkpt>
      <trkpt lat="45.03685" lon="7.67918">
        <ele>228.93</ele>
        <time>2016-10-06T08:27:16Z</time>
      </trkpt>
      <trkpt lat="45.03698" lon="7.67933">
        <ele>229.41</ele>
        <time>2016-10-06T08:27:25Z</time>
      </trkpt>
      <trkpt lat="45.03698" lon="7.67946">
        <ele>229.41</ele>
        <time>2016-10-06T08:27:39Z</time>
      </trkpt>
      <trkpt lat="45.03697" lon="7.67948">
        <ele>228.93</ele>
        <time>2016-10-06T08:27:40Z</time>
      </trkpt>
      <trkpt lat="45.03697" lon="7.67949">
        <ele>229.41</ele>
        <time>2016-10-06T08:27:41Z</time>
      </trkpt>
      <trkpt lat="45.03697" lon="7.67951">
        <ele>229.89</ele>
        <time>2016-10-06T08:27:42Z</time>
      </trkpt>
      <trkpt lat="45.03696" lon="7.67953">
        <ele>229.41</ele>
        <time>2016-10-06T08:27:43Z</time>
      </trkpt>
      <trkpt lat="45.03695" lon="7.67955">
        <ele>229.89</ele>
        <time>2016-10-06T08:27:44Z</time>
      </trkpt>
      <trkpt lat="45.03694" lon="7.67957">
        <ele>229.89</ele>
        <time>2016-10-06T08:27:45Z</time>
      </trkpt>
      <trkpt lat="45.03694" lon="7.67959">
        <ele>229.41</ele>
        <time>2016-10-06T08:27:46Z</time>
      </trkpt>
      <trkpt lat="45.03693" lon="7.67965">
        <ele>229.41</ele>
        <time>2016-10-06T08:27:51Z</time>
      </trkpt>
      <trkpt lat="45.03691" lon="7.67966">
        <ele>227.49</ele>
        <time>2016-10-06T08:27:53Z</time>
      </trkpt>
      <trkpt lat="45.03689" lon="7.67966">
        <ele>229.89</ele>
        <time>2016-10-06T08:27:54Z</time>
      </trkpt>
      <trkpt lat="45.03687" lon="7.67966">
        <ele>229.41</ele>
        <time>2016-10-06T08:27:55Z</time>
      </trkpt>
      <trkpt lat="45.03686" lon="7.67967">
        <ele>228.93</ele>
        <time>2016-10-06T08:27:56Z</time>
      </trkpt>
      <trkpt lat="45.03684" lon="7.67968">
        <ele>229.41</ele>
        <time>2016-10-06T08:27:57Z</time>
      </trkpt>
      <trkpt lat="45.03682" lon="7.67968">
        <ele>229.41</ele>
        <time>2016-10-06T08:27:58Z</time>
      </trkpt>
      <trkpt lat="45.03679" lon="7.67968">
        <ele>229.41</ele>
        <time>2016-10-06T08:27:59Z</time>
      </trkpt>
      <trkpt lat="45.03678" lon="7.67969">
        <ele>229.89</ele>
        <time>2016-10-06T08:28:00Z</time>
      </trkpt>
      <trkpt lat="45.03676" lon="7.67971">
        <ele>229.41</ele>
        <time>2016-10-06T08:28:01Z</time>
      </trkpt>
      <trkpt lat="45.03675" lon="7.67973">
        <ele>228.93</ele>
        <time>2016-10-06T08:28:02Z</time>
      </trkpt>
      <trkpt lat="45.03673" lon="7.67975">
        <ele>229.89</ele>
        <time>2016-10-06T08:28:03Z</time>
      </trkpt>
      <trkpt lat="45.03668" lon="7.67978">
        <ele>230.37</ele>
        <time>2016-10-06T08:28:05Z</time>
      </trkpt>
      <trkpt lat="45.03648" lon="7.68018">
        <ele>231.81</ele>
        <time>2016-10-06T08:28:19Z</time>
      </trkpt>
      <trkpt lat="45.03647" lon="7.6802">
        <ele>231.81</ele>
        <time>2016-10-06T08:28:20Z</time>
      </trkpt>
      <trkpt lat="45.03642" lon="7.68027">
        <ele>231.81</ele>
        <time>2016-10-06T08:28:24Z</time>
      </trkpt>
      <trkpt lat="45.03643" lon="7.68029">
        <ele>231.81</ele>
        <time>2016-10-06T08:28:25Z</time>
      </trkpt>
      <trkpt lat="45.03643" lon="7.68031">
        <ele>231.81</ele>
        <time>2016-10-06T08:28:26Z</time>
      </trkpt>
      <trkpt lat="45.03644" lon="7.68033">
        <ele>232.3</ele>
        <time>2016-10-06T08:28:27Z</time>
      </trkpt>
      <trkpt lat="45.03643" lon="7.68035">
        <ele>231.81</ele>
        <time>2016-10-06T08:28:28Z</time>
      </trkpt>
      <trkpt lat="45.03643" lon="7.68037">
        <ele>231.81</ele>
        <time>2016-10-06T08:28:29Z</time>
      </trkpt>
      <trkpt lat="45.03641" lon="7.68039">
        <ele>232.3</ele>
        <time>2016-10-06T08:28:30Z</time>
      </trkpt>
      <trkpt lat="45.0364" lon="7.68041">
        <ele>232.3</ele>
        <time>2016-10-06T08:28:31Z</time>
      </trkpt>
      <trkpt lat="45.03627" lon="7.68059">
        <ele>234.22</ele>
        <time>2016-10-06T08:28:41Z</time>
      </trkpt>
      <trkpt lat="45.03615" lon="7.68071">
        <ele>234.7</ele>
        <time>2016-10-06T08:28:54Z</time>
      </trkpt>
      <trkpt lat="45.03613" lon="7.6807">
        <ele>234.7</ele>
        <time>2016-10-06T08:28:55Z</time>
      </trkpt>
      <trkpt lat="45.03603" lon="7.68063">
        <ele>235.66</ele>
        <time>2016-10-06T08:29:00Z</time>
      </trkpt>
      <trkpt lat="45.03602" lon="7.68061">
        <ele>234.7</ele>
        <time>2016-10-06T08:29:01Z</time>
      </trkpt>
      <trkpt lat="45.036" lon="7.6806">
        <ele>234.7</ele>
        <time>2016-10-06T08:29:02Z</time>
      </trkpt>
      <trkpt lat="45.03566" lon="7.68048">
        <ele>234.7</ele>
        <time>2016-10-06T08:29:14Z</time>
      </trkpt>
      <trkpt lat="45.03544" lon="7.6804">
        <ele>234.22</ele>
        <time>2016-10-06T08:29:20Z</time>
      </trkpt>
      <trkpt lat="45.03541" lon="7.68037">
        <ele>234.7</ele>
        <time>2016-10-06T08:29:21Z</time>
      </trkpt>
      <trkpt lat="45.03537" lon="7.68034">
        <ele>234.22</ele>
        <time>2016-10-06T08:29:22Z</time>
      </trkpt>
      <trkpt lat="45.03533" lon="7.68031">
        <ele>234.7</ele>
        <time>2016-10-06T08:29:23Z</time>
      </trkpt>
      <trkpt lat="45.03529" lon="7.68028">
        <ele>234.7</ele>
        <time>2016-10-06T08:29:24Z</time>
      </trkpt>
      <trkpt lat="45.03525" lon="7.68027">
        <ele>234.22</ele>
        <time>2016-10-06T08:29:25Z</time>
      </trkpt>
      <trkpt lat="45.03521" lon="7.68026">
        <ele>234.7</ele>
        <time>2016-10-06T08:29:26Z</time>
      </trkpt>
      <trkpt lat="45.03469" lon="7.68006">
        <ele>234.7</ele>
        <time>2016-10-06T08:29:38Z</time>
      </trkpt>
      <trkpt lat="45.03407" lon="7.6798">
        <ele>234.22</ele>
        <time>2016-10-06T08:29:52Z</time>
      </trkpt>
      <trkpt lat="45.03365" lon="7.67962">
        <ele>234.22</ele>
        <time>2016-10-06T08:30:02Z</time>
      </trkpt>
      <trkpt lat="45.0336" lon="7.6796">
        <ele>233.74</ele>
        <time>2016-10-06T08:30:03Z</time>
      </trkpt>
      <trkpt lat="45.03356" lon="7.67959">
        <ele>233.74</ele>
        <time>2016-10-06T08:30:04Z</time>
      </trkpt>
      <trkpt lat="45.03352" lon="7.67957">
        <ele>233.74</ele>
        <time>2016-10-06T08:30:05Z</time>
      </trkpt>
      <trkpt lat="45.03348" lon="7.67955">
        <ele>233.26</ele>
        <time>2016-10-06T08:30:06Z</time>
      </trkpt>
      <trkpt lat="45.03299" lon="7.67932">
        <ele>233.26</ele>
        <time>2016-10-06T08:30:18Z</time>
      </trkpt>
      <trkpt lat="45.03255" lon="7.67913">
        <ele>232.3</ele>
        <time>2016-10-06T08:30:30Z</time>
      </trkpt>
      <trkpt lat="45.03236" lon="7.67905">
        <ele>233.26</ele>
        <time>2016-10-06T08:30:34Z</time>
      </trkpt>
      <trkpt lat="45.03232" lon="7.67903">
        <ele>232.3</ele>
        <time>2016-10-06T08:30:35Z</time>
      </trkpt>
      <trkpt lat="45.03187" lon="7.67882">
        <ele>232.78</ele>
        <time>2016-10-06T08:30:47Z</time>
      </trkpt>
      <trkpt lat="45.03177" lon="7.67876">
        <ele>232.78</ele>
        <time>2016-10-06T08:30:51Z</time>
      </trkpt>
      <trkpt lat="45.03175" lon="7.67877">
        <ele>232.3</ele>
        <time>2016-10-06T08:30:52Z</time>
      </trkpt>
      <trkpt lat="45.03173" lon="7.67877">
        <ele>232.3</ele>
        <time>2016-10-06T08:30:53Z</time>
      </trkpt>
      <trkpt lat="45.03171" lon="7.67876">
        <ele>232.78</ele>
        <time>2016-10-06T08:30:54Z</time>
      </trkpt>
      <trkpt lat="45.03169" lon="7.67875">
        <ele>232.78</ele>
        <time>2016-10-06T08:30:55Z</time>
      </trkpt>
      <trkpt lat="45.03166" lon="7.67875">
        <ele>232.3</ele>
        <time>2016-10-06T08:30:56Z</time>
      </trkpt>
      <trkpt lat="45.03162" lon="7.67874">
        <ele>232.78</ele>
        <time>2016-10-06T08:30:57Z</time>
      </trkpt>
      <trkpt lat="45.03148" lon="7.67867">
        <ele>232.3</ele>
        <time>2016-10-06T08:31:01Z</time>
      </trkpt>
      <trkpt lat="45.0313" lon="7.67859">
        <ele>231.81</ele>
        <time>2016-10-06T08:31:05Z</time>
      </trkpt>
      <trkpt lat="45.03125" lon="7.67856">
        <ele>232.3</ele>
        <time>2016-10-06T08:31:06Z</time>
      </trkpt>
      <trkpt lat="45.0312" lon="7.67854">
        <ele>232.3</ele>
        <time>2016-10-06T08:31:07Z</time>
      </trkpt>
      <trkpt lat="45.03115" lon="7.67852">
        <ele>231.81</ele>
        <time>2016-10-06T08:31:08Z</time>
      </trkpt>
      <trkpt lat="45.0311" lon="7.6785">
        <ele>232.78</ele>
        <time>2016-10-06T08:31:09Z</time>
      </trkpt>
      <trkpt lat="45.03057" lon="7.67828">
        <ele>231.81</ele>
        <time>2016-10-06T08:31:19Z</time>
      </trkpt>
      <trkpt lat="45.03052" lon="7.67826">
        <ele>231.33</ele>
        <time>2016-10-06T08:31:20Z</time>
      </trkpt>
      <trkpt lat="45.03005" lon="7.67806">
        <ele>231.33</ele>
        <time>2016-10-06T08:31:28Z</time>
      </trkpt>
      <trkpt lat="45.02999" lon="7.67805">
        <ele>232.3</ele>
        <time>2016-10-06T08:31:29Z</time>
      </trkpt>
      <trkpt lat="45.02993" lon="7.67803">
        <ele>232.3</ele>
        <time>2016-10-06T08:31:30Z</time>
      </trkpt>
      <trkpt lat="45.02915" lon="7.67764">
        <ele>231.33</ele>
        <time>2016-10-06T08:31:44Z</time>
      </trkpt>
      <trkpt lat="45.02842" lon="7.67729">
        <ele>231.81</ele>
        <time>2016-10-06T08:31:57Z</time>
      </trkpt>
      <trkpt lat="45.02739" lon="7.67683">
        <ele>231.81</ele>
        <time>2016-10-06T08:32:14Z</time>
      </trkpt>
      <trkpt lat="45.02726" lon="7.67678">
        <ele>232.3</ele>
        <time>2016-10-06T08:32:16Z</time>
      </trkpt>
      <trkpt lat="45.0269" lon="7.67662">
        <ele>231.81</ele>
        <time>2016-10-06T08:32:22Z</time>
      </trkpt>
      <trkpt lat="45.02596" lon="7.67621">
        <ele>232.3</ele>
        <time>2016-10-06T08:32:38Z</time>
      </trkpt>
      <trkpt lat="45.02576" lon="7.67616">
        <ele>233.26</ele>
        <time>2016-10-06T08:32:42Z</time>
      </trkpt>
      <trkpt lat="45.02528" lon="7.67608">
        <ele>234.22</ele>
        <time>2016-10-06T08:32:54Z</time>
      </trkpt>
      <trkpt lat="45.02494" lon="7.67597">
        <ele>234.22</ele>
        <time>2016-10-06T08:33:03Z</time>
      </trkpt>
      <trkpt lat="45.02477" lon="7.67596">
        <ele>236.14</ele>
        <time>2016-10-06T08:33:07Z</time>
      </trkpt>
      <trkpt lat="45.02429" lon="7.6761">
        <ele>236.62</ele>
        <time>2016-10-06T08:33:18Z</time>
      </trkpt>
      <trkpt lat="45.02425" lon="7.67612">
        <ele>237.1</ele>
        <time>2016-10-06T08:33:19Z</time>
      </trkpt>
      <trkpt lat="45.02416" lon="7.67617">
        <ele>236.62</ele>
        <time>2016-10-06T08:33:21Z</time>
      </trkpt>
      <trkpt lat="45.02412" lon="7.6762">
        <ele>236.62</ele>
        <time>2016-10-06T08:33:22Z</time>
      </trkpt>
      <trkpt lat="45.02408" lon="7.67623">
        <ele>236.62</ele>
        <time>2016-10-06T08:33:23Z</time>
      </trkpt>
      <trkpt lat="45.02327" lon="7.67669">
        <ele>236.62</ele>
        <time>2016-10-06T08:33:39Z</time>
      </trkpt>
      <trkpt lat="45.02322" lon="7.67672">
        <ele>236.62</ele>
        <time>2016-10-06T08:33:40Z</time>
      </trkpt>
      <trkpt lat="45.023" lon="7.67682">
        <ele>237.1</ele>
        <time>2016-10-06T08:33:44Z</time>
      </trkpt>
      <trkpt lat="45.02224" lon="7.67726">
        <ele>235.18</ele>
        <time>2016-10-06T08:33:58Z</time>
      </trkpt>
      <trkpt lat="45.02149" lon="7.67765">
        <ele>234.22</ele>
        <time>2016-10-06T08:34:11Z</time>
      </trkpt>
      <trkpt lat="45.02084" lon="7.67802">
        <ele>234.22</ele>
        <time>2016-10-06T08:34:23Z</time>
      </trkpt>
      <trkpt lat="45.02014" lon="7.67836">
        <ele>234.22</ele>
        <time>2016-10-06T08:34:36Z</time>
      </trkpt>
      <trkpt lat="45.02003" lon="7.67842">
        <ele>234.7</ele>
        <time>2016-10-06T08:34:38Z</time>
      </trkpt>
      <trkpt lat="45.01998" lon="7.67844">
        <ele>234.22</ele>
        <time>2016-10-06T08:34:39Z</time>
      </trkpt>
      <trkpt lat="45.01992" lon="7.67847">
        <ele>234.22</ele>
        <time>2016-10-06T08:34:40Z</time>
      </trkpt>
      <trkpt lat="45.01987" lon="7.6785">
        <ele>234.22</ele>
        <time>2016-10-06T08:34:41Z</time>
      </trkpt>
      <trkpt lat="45.01981" lon="7.67853">
        <ele>234.22</ele>
        <time>2016-10-06T08:34:42Z</time>
      </trkpt>
      <trkpt lat="45.01911" lon="7.67888">
        <ele>234.7</ele>
        <time>2016-10-06T08:34:55Z</time>
      </trkpt>
      <trkpt lat="45.01827" lon="7.67933">
        <ele>235.18</ele>
        <time>2016-10-06T08:35:10Z</time>
      </trkpt>
      <trkpt lat="45.01815" lon="7.67938">
        <ele>234.22</ele>
        <time>2016-10-06T08:35:12Z</time>
      </trkpt>
      <trkpt lat="45.01753" lon="7.67969">
        <ele>235.18</ele>
        <time>2016-10-06T08:35:23Z</time>
      </trkpt>
      <trkpt lat="45.01689" lon="7.68003">
        <ele>233.26</ele>
        <time>2016-10-06T08:35:34Z</time>
      </trkpt>
      <trkpt lat="45.0159" lon="7.68052">
        <ele>233.26</ele>
        <time>2016-10-06T08:35:51Z</time>
      </trkpt>
      <trkpt lat="45.0158" lon="7.6806">
        <ele>233.74</ele>
        <time>2016-10-06T08:35:53Z</time>
      </trkpt>
      <trkpt lat="45.0157" lon="7.68068">
        <ele>234.7</ele>
        <time>2016-10-06T08:35:55Z</time>
      </trkpt>
      <trkpt lat="45.01514" lon="7.68124">
        <ele>233.74</ele>
        <time>2016-10-06T08:36:08Z</time>
      </trkpt>
      <trkpt lat="45.01506" lon="7.68133">
        <ele>233.26</ele>
        <time>2016-10-06T08:36:22Z</time>
      </trkpt>
      <trkpt lat="45.01505" lon="7.68134">
        <ele>233.26</ele>
        <time>2016-10-06T08:36:23Z</time>
      </trkpt>
      <trkpt lat="45.01504" lon="7.68136">
        <ele>233.26</ele>
        <time>2016-10-06T08:36:24Z</time>
      </trkpt>
      <trkpt lat="45.01502" lon="7.68137">
        <ele>232.78</ele>
        <time>2016-10-06T08:36:25Z</time>
      </trkpt>
      <trkpt lat="45.015" lon="7.6814">
        <ele>233.26</ele>
        <time>2016-10-06T08:36:26Z</time>
      </trkpt>
      <trkpt lat="45.01498" lon="7.68142">
        <ele>233.26</ele>
        <time>2016-10-06T08:36:27Z</time>
      </trkpt>
      <trkpt lat="45.01496" lon="7.68144">
        <ele>233.26</ele>
        <time>2016-10-06T08:36:28Z</time>
      </trkpt>
      <trkpt lat="45.01449" lon="7.6819">
        <ele>233.74</ele>
        <time>2016-10-06T08:36:42Z</time>
      </trkpt>
      <trkpt lat="45.01445" lon="7.68193">
        <ele>233.26</ele>
        <time>2016-10-06T08:36:43Z</time>
      </trkpt>
      <trkpt lat="45.01421" lon="7.68215">
        <ele>234.7</ele>
        <time>2016-10-06T08:36:49Z</time>
      </trkpt>
      <trkpt lat="45.01414" lon="7.68223">
        <ele>233.74</ele>
        <time>2016-10-06T08:36:51Z</time>
      </trkpt>
      <trkpt lat="45.01391" lon="7.68245">
        <ele>234.22</ele>
        <time>2016-10-06T08:36:57Z</time>
      </trkpt>
      <trkpt lat="45.01387" lon="7.68248">
        <ele>233.74</ele>
        <time>2016-10-06T08:36:58Z</time>
      </trkpt>
      <trkpt lat="45.01343" lon="7.6829">
        <ele>234.22</ele>
        <time>2016-10-06T08:37:10Z</time>
      </trkpt>
      <trkpt lat="45.01313" lon="7.68318">
        <ele>235.18</ele>
        <time>2016-10-06T08:37:17Z</time>
      </trkpt>
      <trkpt lat="45.01309" lon="7.68322">
        <ele>235.18</ele>
        <time>2016-10-06T08:37:18Z</time>
      </trkpt>
      <trkpt lat="45.01244" lon="7.68382">
        <ele>235.18</ele>
        <time>2016-10-06T08:37:34Z</time>
      </trkpt>
      <trkpt lat="45.0124" lon="7.68386">
        <ele>236.62</ele>
        <time>2016-10-06T08:37:35Z</time>
      </trkpt>
      <trkpt lat="45.01235" lon="7.68389">
        <ele>235.18</ele>
        <time>2016-10-06T08:37:36Z</time>
      </trkpt>
      <trkpt lat="45.0117" lon="7.68451">
        <ele>237.1</ele>
        <time>2016-10-06T08:37:52Z</time>
      </trkpt>
      <trkpt lat="45.01162" lon="7.68459">
        <ele>237.1</ele>
        <time>2016-10-06T08:37:54Z</time>
      </trkpt>
      <trkpt lat="45.01158" lon="7.68463">
        <ele>236.62</ele>
        <time>2016-10-06T08:37:55Z</time>
      </trkpt>
      <trkpt lat="45.01142" lon="7.68478">
        <ele>237.58</ele>
        <time>2016-10-06T08:37:59Z</time>
      </trkpt>
      <trkpt lat="45.01138" lon="7.68481">
        <ele>238.06</ele>
        <time>2016-10-06T08:38:00Z</time>
      </trkpt>
      <trkpt lat="45.01134" lon="7.68484">
        <ele>237.58</ele>
        <time>2016-10-06T08:38:01Z</time>
      </trkpt>
      <trkpt lat="45.0113" lon="7.68488">
        <ele>237.1</ele>
        <time>2016-10-06T08:38:02Z</time>
      </trkpt>
      <trkpt lat="45.01127" lon="7.68492">
        <ele>238.54</ele>
        <time>2016-10-06T08:38:03Z</time>
      </trkpt>
      <trkpt lat="45.01101" lon="7.68518">
        <ele>238.06</ele>
        <time>2016-10-06T08:38:11Z</time>
      </trkpt>
      <trkpt lat="45.01054" lon="7.68556">
        <ele>238.54</ele>
        <time>2016-10-06T08:38:22Z</time>
      </trkpt>
      <trkpt lat="45.01024" lon="7.6857">
        <ele>238.54</ele>
        <time>2016-10-06T08:38:28Z</time>
      </trkpt>
      <trkpt lat="45.00953" lon="7.68579">
        <ele>237.58</ele>
        <time>2016-10-06T08:38:44Z</time>
      </trkpt>
      <trkpt lat="45.00873" lon="7.68572">
        <ele>237.1</ele>
        <time>2016-10-06T08:38:59Z</time>
      </trkpt>
      <trkpt lat="45.00782" lon="7.68563">
        <ele>236.62</ele>
        <time>2016-10-06T08:39:14Z</time>
      </trkpt>
      <trkpt lat="45.00687" lon="7.68547">
        <ele>236.14</ele>
        <time>2016-10-06T08:39:29Z</time>
      </trkpt>
      <trkpt lat="45.00594" lon="7.68535">
        <ele>235.18</ele>
        <time>2016-10-06T08:39:43Z</time>
      </trkpt>
      <trkpt lat="45.00491" lon="7.68524">
        <ele>234.22</ele>
        <time>2016-10-06T08:39:58Z</time>
      </trkpt>
      <trkpt lat="45.00415" lon="7.68496">
        <ele>234.22</ele>
        <time>2016-10-06T08:40:10Z</time>
      </trkpt>
      <trkpt lat="45.00372" lon="7.68475">
        <ele>233.74</ele>
        <time>2016-10-06T08:40:17Z</time>
      </trkpt>
      <trkpt lat="45.00365" lon="7.68471">
        <ele>233.74</ele>
        <time>2016-10-06T08:40:18Z</time>
      </trkpt>
      <trkpt lat="45.00282" lon="7.6843">
        <ele>233.26</ele>
        <time>2016-10-06T08:40:31Z</time>
      </trkpt>
      <trkpt lat="45.00248" lon="7.68413">
        <ele>233.26</ele>
        <time>2016-10-06T08:40:36Z</time>
      </trkpt>
      <trkpt lat="45.00172" lon="7.68375">
        <ele>233.26</ele>
        <time>2016-10-06T08:40:49Z</time>
      </trkpt>
      <trkpt lat="45.00162" lon="7.68366">
        <ele>232.3</ele>
        <time>2016-10-06T08:40:51Z</time>
      </trkpt>
      <trkpt lat="45.00159" lon="7.68359">
        <ele>232.3</ele>
        <time>2016-10-06T08:40:52Z</time>
      </trkpt>
      <trkpt lat="45.00157" lon="7.68352">
        <ele>232.3</ele>
        <time>2016-10-06T08:40:53Z</time>
      </trkpt>
      <trkpt lat="45.00154" lon="7.68345">
        <ele>232.3</ele>
        <time>2016-10-06T08:40:54Z</time>
      </trkpt>
      <trkpt lat="45.00149" lon="7.6834">
        <ele>231.81</ele>
        <time>2016-10-06T08:40:55Z</time>
      </trkpt>
      <trkpt lat="45.00144" lon="7.68336">
        <ele>232.3</ele>
        <time>2016-10-06T08:40:56Z</time>
      </trkpt>
      <trkpt lat="45.00139" lon="7.68332">
        <ele>231.81</ele>
        <time>2016-10-06T08:40:57Z</time>
      </trkpt>
      <trkpt lat="45.00134" lon="7.68328">
        <ele>231.81</ele>
        <time>2016-10-06T08:40:58Z</time>
      </trkpt>
      <trkpt lat="45.00129" lon="7.68323">
        <ele>232.78</ele>
        <time>2016-10-06T08:40:59Z</time>
      </trkpt>
      <trkpt lat="45.00125" lon="7.68318">
        <ele>231.81</ele>
        <time>2016-10-06T08:41:00Z</time>
      </trkpt>
      <trkpt lat="45.00121" lon="7.68312">
        <ele>231.81</ele>
        <time>2016-10-06T08:41:01Z</time>
      </trkpt>
      <trkpt lat="45.00118" lon="7.68305">
        <ele>232.3</ele>
        <time>2016-10-06T08:41:02Z</time>
      </trkpt>
      <trkpt lat="45.00111" lon="7.68292">
        <ele>231.81</ele>
        <time>2016-10-06T08:41:04Z</time>
      </trkpt>
      <trkpt lat="45.00054" lon="7.68189">
        <ele>231.33</ele>
        <time>2016-10-06T08:41:21Z</time>
      </trkpt>
      <trkpt lat="45.00026" lon="7.68095">
        <ele>231.33</ele>
        <time>2016-10-06T08:41:34Z</time>
      </trkpt>
      <trkpt lat="45.00014" lon="7.68054">
        <ele>231.33</ele>
        <time>2016-10-06T08:41:44Z</time>
      </trkpt>
      <trkpt lat="45.00014" lon="7.68054">
        <ele>231.33</ele>
        <time>2016-10-06T08:42:06Z</time>
      </trkpt>
      <trkpt lat="45.00013" lon="7.68052">
        <ele>231.81</ele>
        <time>2016-10-06T08:42:24Z</time>
      </trkpt>
      <trkpt lat="45.00012" lon="7.6805">
        <ele>231.81</ele>
        <time>2016-10-06T08:42:25Z</time>
      </trkpt>
      <trkpt lat="45.00011" lon="7.68047">
        <ele>231.33</ele>
        <time>2016-10-06T08:42:26Z</time>
      </trkpt>
      <trkpt lat="45.00001" lon="7.6801">
        <ele>231.81</ele>
        <time>2016-10-06T08:42:37Z</time>
      </trkpt>
      <trkpt lat="45" lon="7.68007">
        <ele>231.33</ele>
        <time>2016-10-06T08:42:40Z</time>
      </trkpt>
      <trkpt lat="44.99998" lon="7.68008">
        <ele>231.33</ele>
        <time>2016-10-06T08:42:41Z</time>
      </trkpt>
      <trkpt lat="44.99996" lon="7.6801">
        <ele>231.33</ele>
        <time>2016-10-06T08:42:42Z</time>
      </trkpt>
      <trkpt lat="44.99994" lon="7.68012">
        <ele>231.33</ele>
        <time>2016-10-06T08:42:43Z</time>
      </trkpt>
      <trkpt lat="44.99993" lon="7.68014">
        <ele>231.81</ele>
        <time>2016-10-06T08:42:44Z</time>
      </trkpt>
      <trkpt lat="44.99992" lon="7.68016">
        <ele>231.81</ele>
        <time>2016-10-06T08:42:45Z</time>
      </trkpt>
      <trkpt lat="44.99992" lon="7.68018">
        <ele>231.33</ele>
        <time>2016-10-06T08:42:46Z</time>
      </trkpt>
      <trkpt lat="44.99991" lon="7.6802">
        <ele>231.81</ele>
        <time>2016-10-06T08:42:47Z</time>
      </trkpt>
      <trkpt lat="44.99989" lon="7.68022">
        <ele>232.3</ele>
        <time>2016-10-06T08:42:48Z</time>
      </trkpt>
      <trkpt lat="44.99987" lon="7.68024">
        <ele>232.78</ele>
        <time>2016-10-06T08:42:49Z</time>
      </trkpt>
      <trkpt lat="44.99986" lon="7.68026">
        <ele>233.26</ele>
        <time>2016-10-06T08:42:50Z</time>
      </trkpt>
      <trkpt lat="44.99985" lon="7.68032">
        <ele>233.74</ele>
        <time>2016-10-06T08:42:54Z</time>
      </trkpt>
      <trkpt lat="44.99991" lon="7.68049">
        <ele>234.7</ele>
        <time>2016-10-06T08:43:03Z</time>
      </trkpt>
      <trkpt lat="44.99992" lon="7.6805">
        <ele>235.66</ele>
        <time>2016-10-06T08:43:04Z</time>
      </trkpt>
      <trkpt lat="44.99992" lon="7.68051">
        <ele>236.14</ele>
        <time>2016-10-06T08:43:05Z</time>
      </trkpt>
      <trkpt lat="44.99992" lon="7.68053">
        <ele>235.66</ele>
        <time>2016-10-06T08:43:06Z</time>
      </trkpt>
      <trkpt lat="44.99994" lon="7.68055">
        <ele>235.18</ele>
        <time>2016-10-06T08:43:07Z</time>
      </trkpt>
      <trkpt lat="44.99995" lon="7.68058">
        <ele>235.66</ele>
        <time>2016-10-06T08:43:08Z</time>
      </trkpt>
      <trkpt lat="45.00002" lon="7.68076">
        <ele>238.06</ele>
        <time>2016-10-06T08:43:17Z</time>
      </trkpt>
      <trkpt lat="45.00003" lon="7.68102">
        <ele>239.51</ele>
        <time>2016-10-06T08:43:31Z</time>
      </trkpt>
      <trkpt lat="45.00004" lon="7.68113">
        <ele>240.95</ele>
        <time>2016-10-06T08:43:44Z</time>
      </trkpt>
      <trkpt lat="45.00003" lon="7.68112">
        <ele>240.95</ele>
        <time>2016-10-06T08:43:45Z</time>
      </trkpt>
      <trkpt lat="45.00003" lon="7.6811">
        <ele>240.47</ele>
        <time>2016-10-06T08:43:46Z</time>
      </trkpt>
      <trkpt lat="45.00002" lon="7.68109">
        <ele>240.47</ele>
        <time>2016-10-06T08:43:47Z</time>
      </trkpt>
      <trkpt lat="45" lon="7.68109">
        <ele>240.47</ele>
        <time>2016-10-06T08:43:48Z</time>
      </trkpt>
      <trkpt lat="44.99993" lon="7.68107">
        <ele>239.99</ele>
        <time>2016-10-06T08:43:55Z</time>
      </trkpt>
      <trkpt lat="44.99969" lon="7.68094">
        <ele>239.02</ele>
        <time>2016-10-06T08:44:07Z</time>
      </trkpt>
      <trkpt lat="44.99961" lon="7.68087">
        <ele>237.1</ele>
        <time>2016-10-06T08:44:11Z</time>
      </trkpt>
      <trkpt lat="44.9994" lon="7.68077">
        <ele>234.22</ele>
        <time>2016-10-06T08:44:19Z</time>
      </trkpt>
      <trkpt lat="44.9993" lon="7.68055">
        <ele>231.81</ele>
        <time>2016-10-06T08:44:27Z</time>
      </trkpt>
      <trkpt lat="44.99927" lon="7.68054">
        <ele>231.81</ele>
        <time>2016-10-06T08:44:28Z</time>
      </trkpt>
      <trkpt lat="44.99924" lon="7.68054">
        <ele>231.81</ele>
        <time>2016-10-06T08:44:29Z</time>
      </trkpt>
      <trkpt lat="44.99922" lon="7.68056">
        <ele>231.81</ele>
        <time>2016-10-06T08:44:30Z</time>
      </trkpt>
      <trkpt lat="44.9992" lon="7.68057">
        <ele>231.33</ele>
        <time>2016-10-06T08:44:31Z</time>
      </trkpt>
      <trkpt lat="44.99918" lon="7.68058">
        <ele>230.85</ele>
        <time>2016-10-06T08:44:32Z</time>
      </trkpt>
      <trkpt lat="44.99916" lon="7.68059">
        <ele>231.33</ele>
        <time>2016-10-06T08:44:33Z</time>
      </trkpt>
      <trkpt lat="44.99915" lon="7.68061">
        <ele>231.33</ele>
        <time>2016-10-06T08:44:35Z</time>
      </trkpt>
      <trkpt lat="44.99914" lon="7.68062">
        <ele>231.33</ele>
        <time>2016-10-06T08:44:47Z</time>
      </trkpt>
      <trkpt lat="44.9991" lon="7.68054">
        <ele>231.81</ele>
        <time>2016-10-06T08:45:11Z</time>
      </trkpt>
      <trkpt lat="44.99914" lon="7.68053">
        <ele>231.81</ele>
        <time>2016-10-06T08:45:16Z</time>
      </trkpt>
      <trkpt lat="44.99917" lon="7.68053">
        <ele>231.81</ele>
        <time>2016-10-06T08:45:17Z</time>
      </trkpt>
      <trkpt lat="44.99918" lon="7.68053">
        <ele>231.33</ele>
        <time>2016-10-06T08:45:18Z</time>
      </trkpt>
      <trkpt lat="44.99919" lon="7.68051">
        <ele>232.3</ele>
        <time>2016-10-06T08:45:19Z</time>
      </trkpt>
      <trkpt lat="44.99923" lon="7.68048">
        <ele>232.3</ele>
        <time>2016-10-06T08:45:32Z</time>
      </trkpt>
      <trkpt lat="44.99921" lon="7.68047">
        <ele>231.33</ele>
        <time>2016-10-06T08:45:38Z</time>
      </trkpt>
      <trkpt lat="44.9992" lon="7.68052">
        <ele>231.33</ele>
        <time>2016-10-06T08:45:54Z</time>
      </trkpt>
      <trkpt lat="44.99922" lon="7.68057">
        <ele>232.3</ele>
        <time>2016-10-06T08:46:22Z</time>
      </trkpt>
      <trkpt lat="44.9992" lon="7.68058">
        <ele>232.3</ele>
        <time>2016-10-06T08:46:52Z</time>
      </trkpt>
      <trkpt lat="44.99923" lon="7.68061">
        <ele>233.26</ele>
        <time>2016-10-06T08:47:17Z</time>
      </trkpt>
      <trkpt lat="44.99926" lon="7.68069">
        <ele>233.26</ele>
        <time>2016-10-06T08:47:47Z</time>
      </trkpt>
      <trkpt lat="44.99927" lon="7.68058">
        <ele>233.74</ele>
        <time>2016-10-06T08:48:10Z</time>
      </trkpt>
      <trkpt lat="44.99929" lon="7.68062">
        <ele>234.22</ele>
        <time>2016-10-06T08:48:28Z</time>
      </trkpt>
      <trkpt lat="44.99928" lon="7.68062">
        <ele>233.74</ele>
        <time>2016-10-06T08:48:42Z</time>
      </trkpt>
      <trkpt lat="44.99928" lon="7.6806">
        <ele>232.3</ele>
        <time>2016-10-06T08:48:45Z</time>
      </trkpt>
      <trkpt lat="44.99928" lon="7.68053">
        <ele>234.22</ele>
        <time>2016-10-06T08:49:02Z</time>
      </trkpt>
      <trkpt lat="44.99928" lon="7.68047">
        <ele>234.7</ele>
        <time>2016-10-06T08:49:24Z</time>
      </trkpt>
      <trkpt lat="44.99926" lon="7.68054">
        <ele>234.7</ele>
        <time>2016-10-06T08:49:52Z</time>
      </trkpt>
      <trkpt lat="44.99931" lon="7.68041">
        <ele>235.66</ele>
        <time>2016-10-06T08:50:23Z</time>
      </trkpt>
      <trkpt lat="44.99928" lon="7.68054">
        <ele>235.66</ele>
        <time>2016-10-06T08:50:52Z</time>
      </trkpt>
      <trkpt lat="44.99924" lon="7.68057">
        <ele>235.66</ele>
        <time>2016-10-06T08:51:18Z</time>
      </trkpt>
      <trkpt lat="44.99931" lon="7.68052">
        <ele>235.18</ele>
        <time>2016-10-06T08:51:54Z</time>
      </trkpt>
      <trkpt lat="44.99935" lon="7.68035">
        <ele>236.62</ele>
        <time>2016-10-06T08:52:25Z</time>
      </trkpt>
      <trkpt lat="44.99938" lon="7.68035">
        <ele>237.1</ele>
        <time>2016-10-06T08:52:55Z</time>
      </trkpt>
      <trkpt lat="44.99941" lon="7.68033">
        <ele>236.62</ele>
        <time>2016-10-06T08:53:20Z</time>
      </trkpt>
      <trkpt lat="44.99943" lon="7.68034">
        <ele>238.54</ele>
        <time>2016-10-06T08:53:53Z</time>
      </trkpt>
      <trkpt lat="44.99951" lon="7.68031">
        <ele>238.54</ele>
        <time>2016-10-06T08:54:28Z</time>
      </trkpt>
      <trkpt lat="44.99939" lon="7.68027">
        <ele>239.02</ele>
        <time>2016-10-06T08:55:04Z</time>
      </trkpt>
      <trkpt lat="44.9994" lon="7.6802">
        <ele>239.99</ele>
        <time>2016-10-06T08:55:30Z</time>
      </trkpt>
      <trkpt lat="44.99933" lon="7.68019">
        <ele>239.99</ele>
        <time>2016-10-06T08:56:03Z</time>
      </trkpt>
      <trkpt lat="44.99934" lon="7.68025">
        <ele>240.95</ele>
        <time>2016-10-06T08:56:38Z</time>
      </trkpt>
      <trkpt lat="44.99929" lon="7.68009">
        <ele>241.91</ele>
        <time>2016-10-06T08:57:13Z</time>
      </trkpt>
      <trkpt lat="44.99928" lon="7.68007">
        <ele>241.43</ele>
        <time>2016-10-06T08:57:44Z</time>
      </trkpt>
      <trkpt lat="44.99915" lon="7.68004">
        <ele>242.39</ele>
        <time>2016-10-06T08:58:17Z</time>
      </trkpt>
      <trkpt lat="44.99915" lon="7.68013">
        <ele>241.91</ele>
        <time>2016-10-06T08:58:36Z</time>
      </trkpt>
      <trkpt lat="44.99918" lon="7.68022">
        <ele>242.39</ele>
        <time>2016-10-06T08:58:53Z</time>
      </trkpt>
      <trkpt lat="44.99913" lon="7.68026">
        <ele>241.91</ele>
        <time>2016-10-06T08:59:12Z</time>
      </trkpt>
      <trkpt lat="44.99906" lon="7.6803">
        <ele>242.39</ele>
        <time>2016-10-06T08:59:24Z</time>
      </trkpt>
      <trkpt lat="44.99913" lon="7.68042">
        <ele>243.35</ele>
        <time>2016-10-06T08:59:36Z</time>
      </trkpt>
      <trkpt lat="44.99918" lon="7.68057">
        <ele>243.35</ele>
        <time>2016-10-06T08:59:42Z</time>
      </trkpt>
      <trkpt lat="44.99918" lon="7.68056">
        <ele>242.87</ele>
        <time>2016-10-06T08:59:43Z</time>
      </trkpt>
      <trkpt lat="44.99919" lon="7.68055">
        <ele>242.87</ele>
        <time>2016-10-06T08:59:44Z</time>
      </trkpt>
      <trkpt lat="44.9992" lon="7.68055">
        <ele>243.35</ele>
        <time>2016-10-06T08:59:45Z</time>
      </trkpt>
      <trkpt lat="44.99922" lon="7.68055">
        <ele>242.87</ele>
        <time>2016-10-06T08:59:46Z</time>
      </trkpt>
      <trkpt lat="44.99923" lon="7.68054">
        <ele>243.35</ele>
        <time>2016-10-06T08:59:47Z</time>
      </trkpt>
      <trkpt lat="44.99926" lon="7.68052">
        <ele>243.83</ele>
        <time>2016-10-06T08:59:50Z</time>
      </trkpt>
      <trkpt lat="44.99926" lon="7.6805">
        <ele>243.83</ele>
        <time>2016-10-06T08:59:51Z</time>
      </trkpt>
      <trkpt lat="44.99926" lon="7.68048">
        <ele>243.83</ele>
        <time>2016-10-06T08:59:52Z</time>
      </trkpt>
      <trkpt lat="44.99926" lon="7.68046">
        <ele>243.83</ele>
        <time>2016-10-06T08:59:53Z</time>
      </trkpt>
      <trkpt lat="44.99925" lon="7.68044">
        <ele>243.83</ele>
        <time>2016-10-06T08:59:54Z</time>
      </trkpt>
      <trkpt lat="44.99924" lon="7.68043">
        <ele>242.87</ele>
        <time>2016-10-06T08:59:55Z</time>
      </trkpt>
      <trkpt lat="44.99922" lon="7.68037">
        <ele>243.83</ele>
        <time>2016-10-06T09:00:00Z</time>
      </trkpt>
      <trkpt lat="44.99922" lon="7.68035">
        <ele>243.83</ele>
        <time>2016-10-06T09:00:01Z</time>
      </trkpt>
      <trkpt lat="44.99923" lon="7.68034">
        <ele>243.35</ele>
        <time>2016-10-06T09:00:02Z</time>
      </trkpt>
      <trkpt lat="44.99925" lon="7.68034">
        <ele>243.83</ele>
        <time>2016-10-06T09:00:03Z</time>
      </trkpt>
      <trkpt lat="44.99927" lon="7.68034">
        <ele>243.83</ele>
        <time>2016-10-06T09:00:04Z</time>
      </trkpt>
      <trkpt lat="44.99951" lon="7.68018">
        <ele>243.83</ele>
        <time>2016-10-06T09:00:18Z</time>
      </trkpt>
      <trkpt lat="44.99976" lon="7.68017">
        <ele>244.31</ele>
        <time>2016-10-06T09:00:30Z</time>
      </trkpt>
      <trkpt lat="44.99988" lon="7.68035">
        <ele>245.27</ele>
        <time>2016-10-06T09:00:42Z</time>
      </trkpt>
      <trkpt lat="44.99998" lon="7.68046">
        <ele>245.75</ele>
        <time>2016-10-06T09:00:55Z</time>
      </trkpt>
      <trkpt lat="44.99999" lon="7.68043">
        <ele>245.75</ele>
        <time>2016-10-06T09:01:03Z</time>
      </trkpt>
      <trkpt lat="44.99999" lon="7.6804">
        <ele>245.27</ele>
        <time>2016-10-06T09:01:04Z</time>
      </trkpt>
      <trkpt lat="44.99999" lon="7.68037">
        <ele>245.27</ele>
        <time>2016-10-06T09:01:05Z</time>
      </trkpt>
      <trkpt lat="44.99998" lon="7.68029">
        <ele>245.27</ele>
        <time>2016-10-06T09:01:08Z</time>
      </trkpt>
      <trkpt lat="44.99997" lon="7.68027">
        <ele>245.75</ele>
        <time>2016-10-06T09:01:09Z</time>
      </trkpt>
      <trkpt lat="44.99991" lon="7.68027">
        <ele>246.72</ele>
        <time>2016-10-06T09:01:18Z</time>
      </trkpt>
      <trkpt lat="44.9999" lon="7.68029">
        <ele>247.2</ele>
        <time>2016-10-06T09:01:19Z</time>
      </trkpt>
      <trkpt lat="44.9999" lon="7.6803">
        <ele>247.2</ele>
        <time>2016-10-06T09:01:20Z</time>
      </trkpt>
      <trkpt lat="44.99989" lon="7.68032">
        <ele>247.68</ele>
        <time>2016-10-06T09:01:21Z</time>
      </trkpt>
      <trkpt lat="44.99989" lon="7.68039">
        <ele>247.68</ele>
        <time>2016-10-06T09:01:26Z</time>
      </trkpt>
      <trkpt lat="44.9999" lon="7.68041">
        <ele>248.16</ele>
        <time>2016-10-06T09:01:27Z</time>
      </trkpt>
      <trkpt lat="44.99991" lon="7.68042">
        <ele>248.64</ele>
        <time>2016-10-06T09:01:28Z</time>
      </trkpt>
      <trkpt lat="44.99991" lon="7.68043">
        <ele>248.16</ele>
        <time>2016-10-06T09:01:29Z</time>
      </trkpt>
      <trkpt lat="44.99992" lon="7.68044">
        <ele>248.16</ele>
        <time>2016-10-06T09:01:30Z</time>
      </trkpt>
      <trkpt lat="44.99995" lon="7.68048">
        <ele>249.6</ele>
        <time>2016-10-06T09:01:34Z</time>
      </trkpt>
      <trkpt lat="44.99991" lon="7.68053">
        <ele>249.6</ele>
        <time>2016-10-06T09:01:42Z</time>
      </trkpt>
      <trkpt lat="44.99992" lon="7.68054">
        <ele>249.6</ele>
        <time>2016-10-06T09:01:43Z</time>
      </trkpt>
      <trkpt lat="44.99993" lon="7.68055">
        <ele>250.08</ele>
        <time>2016-10-06T09:01:44Z</time>
      </trkpt>
      <trkpt lat="44.99994" lon="7.68057">
        <ele>250.56</ele>
        <time>2016-10-06T09:01:45Z</time>
      </trkpt>
      <trkpt lat="44.99995" lon="7.68058">
        <ele>250.08</ele>
        <time>2016-10-06T09:01:46Z</time>
      </trkpt>
      <trkpt lat="44.99998" lon="7.68069">
        <ele>251.04</ele>
        <time>2016-10-06T09:01:51Z</time>
      </trkpt>
      <trkpt lat="45.00006" lon="7.681">
        <ele>253.44</ele>
        <time>2016-10-06T09:02:07Z</time>
      </trkpt>
      <trkpt lat="45.00001" lon="7.68117">
        <ele>254.41</ele>
        <time>2016-10-06T09:02:16Z</time>
      </trkpt>
      <trkpt lat="45.00002" lon="7.6812">
        <ele>254.89</ele>
        <time>2016-10-06T09:02:17Z</time>
      </trkpt>
      <trkpt lat="45.00003" lon="7.68122">
        <ele>254.41</ele>
        <time>2016-10-06T09:02:18Z</time>
      </trkpt>
      <trkpt lat="45.00004" lon="7.68128">
        <ele>255.85</ele>
        <time>2016-10-06T09:02:25Z</time>
      </trkpt>
      <trkpt lat="45.00002" lon="7.68129">
        <ele>255.85</ele>
        <time>2016-10-06T09:02:26Z</time>
      </trkpt>
      <trkpt lat="45" lon="7.68129">
        <ele>256.81</ele>
        <time>2016-10-06T09:02:27Z</time>
      </trkpt>
      <trkpt lat="44.99998" lon="7.6813">
        <ele>256.33</ele>
        <time>2016-10-06T09:02:28Z</time>
      </trkpt>
      <trkpt lat="44.99997" lon="7.6813">
        <ele>256.33</ele>
        <time>2016-10-06T09:02:29Z</time>
      </trkpt>
      <trkpt lat="44.99995" lon="7.68131">
        <ele>256.81</ele>
        <time>2016-10-06T09:02:30Z</time>
      </trkpt>
      <trkpt lat="44.99996" lon="7.68138">
        <ele>258.73</ele>
        <time>2016-10-06T09:02:43Z</time>
      </trkpt>
      <trkpt lat="44.99997" lon="7.68148">
        <ele>258.73</ele>
        <time>2016-10-06T09:02:44Z</time>
      </trkpt>
      <trkpt lat="45.00001" lon="7.68167">
        <ele>259.69</ele>
        <time>2016-10-06T09:02:47Z</time>
      </trkpt>
      <trkpt lat="45" lon="7.6817">
        <ele>260.17</ele>
        <time>2016-10-06T09:02:48Z</time>
      </trkpt>
      <trkpt lat="44.99999" lon="7.68172">
        <ele>260.17</ele>
        <time>2016-10-06T09:02:49Z</time>
      </trkpt>
      <trkpt lat="44.99997" lon="7.68175">
        <ele>260.17</ele>
        <time>2016-10-06T09:02:50Z</time>
      </trkpt>
      <trkpt lat="44.99994" lon="7.68177">
        <ele>260.65</ele>
        <time>2016-10-06T09:02:51Z</time>
      </trkpt>
      <trkpt lat="44.99993" lon="7.68179">
        <ele>260.65</ele>
        <time>2016-10-06T09:02:52Z</time>
      </trkpt>
      <trkpt lat="44.99992" lon="7.68191">
        <ele>261.14</ele>
        <time>2016-10-06T09:02:59Z</time>
      </trkpt>
      <trkpt lat="44.99993" lon="7.68193">
        <ele>261.14</ele>
        <time>2016-10-06T09:03:00Z</time>
      </trkpt>
      <trkpt lat="44.99994" lon="7.68195">
        <ele>260.65</ele>
        <time>2016-10-06T09:03:01Z</time>
      </trkpt>
      <trkpt lat="44.99994" lon="7.68197">
        <ele>262.58</ele>
        <time>2016-10-06T09:03:02Z</time>
      </trkpt>
      <trkpt lat="44.99993" lon="7.682">
        <ele>262.1</ele>
        <time>2016-10-06T09:03:03Z</time>
      </trkpt>
      <trkpt lat="44.99989" lon="7.68211">
        <ele>263.06</ele>
        <time>2016-10-06T09:03:10Z</time>
      </trkpt>
      <trkpt lat="44.99991" lon="7.68238">
        <ele>264.02</ele>
        <time>2016-10-06T09:03:24Z</time>
      </trkpt>
      <trkpt lat="45.00009" lon="7.68278">
        <ele>264.98</ele>
        <time>2016-10-06T09:03:42Z</time>
      </trkpt>
      <trkpt lat="45.00026" lon="7.68316">
        <ele>265.46</ele>
        <time>2016-10-06T09:03:58Z</time>
      </trkpt>
      <trkpt lat="45.00029" lon="7.68323">
        <ele>266.42</ele>
        <time>2016-10-06T09:04:01Z</time>
      </trkpt>
      <trkpt lat="45.0003" lon="7.68328">
        <ele>266.42</ele>
        <time>2016-10-06T09:04:03Z</time>
      </trkpt>
      <trkpt lat="45.00031" lon="7.6833">
        <ele>265.94</ele>
        <time>2016-10-06T09:04:04Z</time>
      </trkpt>
      <trkpt lat="45.00032" lon="7.68332">
        <ele>266.42</ele>
        <time>2016-10-06T09:04:05Z</time>
      </trkpt>
      <trkpt lat="45.00048" lon="7.68374">
        <ele>267.38</ele>
        <time>2016-10-06T09:04:20Z</time>
      </trkpt>
      <trkpt lat="45.00062" lon="7.68422">
        <ele>269.31</ele>
        <time>2016-10-06T09:04:38Z</time>
      </trkpt>
      <trkpt lat="45.00064" lon="7.68427">
        <ele>270.27</ele>
        <time>2016-10-06T09:04:43Z</time>
      </trkpt>
      <trkpt lat="45.00064" lon="7.68437">
        <ele>270.75</ele>
        <time>2016-10-06T09:04:49Z</time>
      </trkpt>
      <trkpt lat="45.00062" lon="7.68437">
        <ele>271.23</ele>
        <time>2016-10-06T09:04:50Z</time>
      </trkpt>
      <trkpt lat="45.00061" lon="7.68442">
        <ele>271.71</ele>
        <time>2016-10-06T09:04:53Z</time>
      </trkpt>
      <trkpt lat="45.00062" lon="7.68444">
        <ele>271.71</ele>
        <time>2016-10-06T09:04:54Z</time>
      </trkpt>
      <trkpt lat="45.00064" lon="7.68447">
        <ele>271.71</ele>
        <time>2016-10-06T09:04:55Z</time>
      </trkpt>
      <trkpt lat="45.00076" lon="7.68468">
        <ele>273.15</ele>
        <time>2016-10-06T09:05:05Z</time>
      </trkpt>
      <trkpt lat="45.00077" lon="7.68469">
        <ele>273.63</ele>
        <time>2016-10-06T09:05:06Z</time>
      </trkpt>
      <trkpt lat="45.00079" lon="7.68473">
        <ele>273.63</ele>
        <time>2016-10-06T09:05:09Z</time>
      </trkpt>
      <trkpt lat="45.00079" lon="7.68475">
        <ele>274.11</ele>
        <time>2016-10-06T09:05:10Z</time>
      </trkpt>
      <trkpt lat="45.00081" lon="7.6848">
        <ele>274.59</ele>
        <time>2016-10-06T09:05:13Z</time>
      </trkpt>
      <trkpt lat="45.00084" lon="7.68485">
        <ele>274.59</ele>
        <time>2016-10-06T09:05:16Z</time>
      </trkpt>
      <trkpt lat="45.00083" lon="7.68491">
        <ele>276.52</ele>
        <time>2016-10-06T09:05:27Z</time>
      </trkpt>
      <trkpt lat="45.00084" lon="7.68498">
        <ele>275.56</ele>
        <time>2016-10-06T09:05:33Z</time>
      </trkpt>
      <trkpt lat="45.00085" lon="7.68502">
        <ele>275.07</ele>
        <time>2016-10-06T09:05:34Z</time>
      </trkpt>
      <trkpt lat="45.00085" lon="7.68505">
        <ele>275.07</ele>
        <time>2016-10-06T09:05:35Z</time>
      </trkpt>
      <trkpt lat="45.00085" lon="7.68508">
        <ele>275.07</ele>
        <time>2016-10-06T09:05:36Z</time>
      </trkpt>
      <trkpt lat="45.00084" lon="7.6851">
        <ele>274.59</ele>
        <time>2016-10-06T09:05:37Z</time>
      </trkpt>
      <trkpt lat="45.00082" lon="7.6851">
        <ele>274.59</ele>
        <time>2016-10-06T09:05:38Z</time>
      </trkpt>
      <trkpt lat="45.00062" lon="7.68538">
        <ele>271.71</ele>
        <time>2016-10-06T09:05:51Z</time>
      </trkpt>
      <trkpt lat="45.00079" lon="7.68638">
        <ele>270.27</ele>
        <time>2016-10-06T09:06:00Z</time>
      </trkpt>
      <trkpt lat="45.00075" lon="7.68685">
        <ele>266.9</ele>
        <time>2016-10-06T09:06:08Z</time>
      </trkpt>
      <trkpt lat="45.00073" lon="7.687">
        <ele>266.42</ele>
        <time>2016-10-06T09:06:11Z</time>
      </trkpt>
      <trkpt lat="45.00075" lon="7.68713">
        <ele>265.94</ele>
        <time>2016-10-06T09:06:13Z</time>
      </trkpt>
      <trkpt lat="45.0008" lon="7.68742">
        <ele>265.46</ele>
        <time>2016-10-06T09:06:18Z</time>
      </trkpt>
      <trkpt lat="45.00081" lon="7.68748">
        <ele>265.46</ele>
        <time>2016-10-06T09:06:19Z</time>
      </trkpt>
      <trkpt lat="45.00083" lon="7.68754">
        <ele>264.5</ele>
        <time>2016-10-06T09:06:20Z</time>
      </trkpt>
      <trkpt lat="45.00085" lon="7.6876">
        <ele>264.98</ele>
        <time>2016-10-06T09:06:21Z</time>
      </trkpt>
      <trkpt lat="45.00086" lon="7.68766">
        <ele>264.98</ele>
        <time>2016-10-06T09:06:22Z</time>
      </trkpt>
      <trkpt lat="45.00088" lon="7.6877">
        <ele>264.98</ele>
        <time>2016-10-06T09:06:23Z</time>
      </trkpt>
      <trkpt lat="45.0009" lon="7.68775">
        <ele>264.5</ele>
        <time>2016-10-06T09:06:24Z</time>
      </trkpt>
      <trkpt lat="45.00091" lon="7.68781">
        <ele>264.98</ele>
        <time>2016-10-06T09:06:25Z</time>
      </trkpt>
      <trkpt lat="45.00094" lon="7.68798">
        <ele>264.98</ele>
        <time>2016-10-06T09:06:34Z</time>
      </trkpt>
      <trkpt lat="45.00093" lon="7.68798">
        <ele>264.5</ele>
        <time>2016-10-06T09:07:04Z</time>
      </trkpt>
      <trkpt lat="45.00095" lon="7.68795">
        <ele>264.5</ele>
        <time>2016-10-06T09:07:47Z</time>
      </trkpt>
      <trkpt lat="45.00093" lon="7.68803">
        <ele>264.02</ele>
        <time>2016-10-06T09:08:02Z</time>
      </trkpt>
      <trkpt lat="45.00093" lon="7.68805">
        <ele>263.54</ele>
        <time>2016-10-06T09:08:03Z</time>
      </trkpt>
      <trkpt lat="45.00096" lon="7.68829">
        <ele>262.58</ele>
        <time>2016-10-06T09:08:13Z</time>
      </trkpt>
      <trkpt lat="45.00097" lon="7.68833">
        <ele>262.1</ele>
        <time>2016-10-06T09:08:14Z</time>
      </trkpt>
      <trkpt lat="45.00107" lon="7.689">
        <ele>259.69</ele>
        <time>2016-10-06T09:08:25Z</time>
      </trkpt>
      <trkpt lat="45.00107" lon="7.68912">
        <ele>258.73</ele>
        <time>2016-10-06T09:08:27Z</time>
      </trkpt>
      <trkpt lat="45.00107" lon="7.68939">
        <ele>257.77</ele>
        <time>2016-10-06T09:08:32Z</time>
      </trkpt>
      <trkpt lat="45.00106" lon="7.68954">
        <ele>256.81</ele>
        <time>2016-10-06T09:08:34Z</time>
      </trkpt>
      <trkpt lat="45.00106" lon="7.68961">
        <ele>256.81</ele>
        <time>2016-10-06T09:08:35Z</time>
      </trkpt>
      <trkpt lat="45.00103" lon="7.68984">
        <ele>254.89</ele>
        <time>2016-10-06T09:08:38Z</time>
      </trkpt>
      <trkpt lat="45.00094" lon="7.69042">
        <ele>251.04</ele>
        <time>2016-10-06T09:08:44Z</time>
      </trkpt>
      <trkpt lat="45.00092" lon="7.69053">
        <ele>251.04</ele>
        <time>2016-10-06T09:08:45Z</time>
      </trkpt>
      <trkpt lat="45.00083" lon="7.69092">
        <ele>248.64</ele>
        <time>2016-10-06T09:08:50Z</time>
      </trkpt>
      <trkpt lat="45.00075" lon="7.69128">
        <ele>246.23</ele>
        <time>2016-10-06T09:09:00Z</time>
      </trkpt>
      <trkpt lat="45.00073" lon="7.6915">
        <ele>244.79</ele>
        <time>2016-10-06T09:09:11Z</time>
      </trkpt>
      <trkpt lat="45.00072" lon="7.69158">
        <ele>244.31</ele>
        <time>2016-10-06T09:09:13Z</time>
      </trkpt>
      <trkpt lat="45.00072" lon="7.69162">
        <ele>244.31</ele>
        <time>2016-10-06T09:09:14Z</time>
      </trkpt>
      <trkpt lat="45.00071" lon="7.69168">
        <ele>244.31</ele>
        <time>2016-10-06T09:09:15Z</time>
      </trkpt>
      <trkpt lat="45.00071" lon="7.69174">
        <ele>244.31</ele>
        <time>2016-10-06T09:09:16Z</time>
      </trkpt>
      <trkpt lat="45.0007" lon="7.6918">
        <ele>243.83</ele>
        <time>2016-10-06T09:09:17Z</time>
      </trkpt>
      <trkpt lat="45.00067" lon="7.69192">
        <ele>243.35</ele>
        <time>2016-10-06T09:09:19Z</time>
      </trkpt>
      <trkpt lat="45.00066" lon="7.69206">
        <ele>243.35</ele>
        <time>2016-10-06T09:09:21Z</time>
      </trkpt>
      <trkpt lat="45.00062" lon="7.6924">
        <ele>243.83</ele>
        <time>2016-10-06T09:09:26Z</time>
      </trkpt>
      <trkpt lat="45.0006" lon="7.69247">
        <ele>243.35</ele>
        <time>2016-10-06T09:09:27Z</time>
      </trkpt>
      <trkpt lat="45.00042" lon="7.6932">
        <ele>243.83</ele>
        <time>2016-10-06T09:09:40Z</time>
      </trkpt>
      <trkpt lat="45.0004" lon="7.69363">
        <ele>243.83</ele>
        <time>2016-10-06T09:09:47Z</time>
      </trkpt>
      <trkpt lat="45.00032" lon="7.69424">
        <ele>244.79</ele>
        <time>2016-10-06T09:09:57Z</time>
      </trkpt>
      <trkpt lat="45.00032" lon="7.6943">
        <ele>243.83</ele>
        <time>2016-10-06T09:09:58Z</time>
      </trkpt>
      <trkpt lat="45.00031" lon="7.69437">
        <ele>244.79</ele>
        <time>2016-10-06T09:09:59Z</time>
      </trkpt>
      <trkpt lat="45.00015" lon="7.69516">
        <ele>244.31</ele>
        <time>2016-10-06T09:10:13Z</time>
      </trkpt>
      <trkpt lat="45.00008" lon="7.69539">
        <ele>244.79</ele>
        <time>2016-10-06T09:10:23Z</time>
      </trkpt>
      <trkpt lat="45.00005" lon="7.69551">
        <ele>245.27</ele>
        <time>2016-10-06T09:10:36Z</time>
      </trkpt>
      <trkpt lat="45.00001" lon="7.69568">
        <ele>245.27</ele>
        <time>2016-10-06T09:10:41Z</time>
      </trkpt>
      <trkpt lat="45" lon="7.69569">
        <ele>245.27</ele>
        <time>2016-10-06T09:10:42Z</time>
      </trkpt>
      <trkpt lat="44.99998" lon="7.69574">
        <ele>244.31</ele>
        <time>2016-10-06T09:10:55Z</time>
      </trkpt>
      <trkpt lat="44.99997" lon="7.69577">
        <ele>244.31</ele>
        <time>2016-10-06T09:11:10Z</time>
      </trkpt>
      <trkpt lat="44.99996" lon="7.69579">
        <ele>243.83</ele>
        <time>2016-10-06T09:11:11Z</time>
      </trkpt>
      <trkpt lat="44.99995" lon="7.69581">
        <ele>244.31</ele>
        <time>2016-10-06T09:11:12Z</time>
      </trkpt>
      <trkpt lat="44.99994" lon="7.69584">
        <ele>244.79</ele>
        <time>2016-10-06T09:11:13Z</time>
      </trkpt>
      <trkpt lat="44.99994" lon="7.69586">
        <ele>244.79</ele>
        <time>2016-10-06T09:11:14Z</time>
      </trkpt>
      <trkpt lat="44.99995" lon="7.69588">
        <ele>244.31</ele>
        <time>2016-10-06T09:11:15Z</time>
      </trkpt>
      <trkpt lat="44.99997" lon="7.69591">
        <ele>243.83</ele>
        <time>2016-10-06T09:11:16Z</time>
      </trkpt>
      <trkpt lat="45.00035" lon="7.69637">
        <ele>244.31</ele>
        <time>2016-10-06T09:11:27Z</time>
      </trkpt>
      <trkpt lat="45.00071" lon="7.69685">
        <ele>246.72</ele>
        <time>2016-10-06T09:11:42Z</time>
      </trkpt>
      <trkpt lat="45.00097" lon="7.6973">
        <ele>250.08</ele>
        <time>2016-10-06T09:11:58Z</time>
      </trkpt>
      <trkpt lat="45.00112" lon="7.69775">
        <ele>251.52</ele>
        <time>2016-10-06T09:12:13Z</time>
      </trkpt>
      <trkpt lat="45.00116" lon="7.69842">
        <ele>252.96</ele>
        <time>2016-10-06T09:12:30Z</time>
      </trkpt>
      <trkpt lat="45.00112" lon="7.69897">
        <ele>253.44</ele>
        <time>2016-10-06T09:12:42Z</time>
      </trkpt>
      <trkpt lat="45.00107" lon="7.69956">
        <ele>254.89</ele>
        <time>2016-10-06T09:12:55Z</time>
      </trkpt>
      <trkpt lat="45.00099" lon="7.70024">
        <ele>255.85</ele>
        <time>2016-10-06T09:13:09Z</time>
      </trkpt>
      <trkpt lat="45.00082" lon="7.70086">
        <ele>257.77</ele>
        <time>2016-10-06T09:13:23Z</time>
      </trkpt>
      <trkpt lat="45.00058" lon="7.70145">
        <ele>257.77</ele>
        <time>2016-10-06T09:13:35Z</time>
      </trkpt>
      <trkpt lat="45.00037" lon="7.70196">
        <ele>256.33</ele>
        <time>2016-10-06T09:13:43Z</time>
      </trkpt>
      <trkpt lat="45.00034" lon="7.70203">
        <ele>256.33</ele>
        <time>2016-10-06T09:13:44Z</time>
      </trkpt>
      <trkpt lat="45.00015" lon="7.70253">
        <ele>255.85</ele>
        <time>2016-10-06T09:13:51Z</time>
      </trkpt>
      <trkpt lat="44.99978" lon="7.70351">
        <ele>253.93</ele>
        <time>2016-10-06T09:14:03Z</time>
      </trkpt>
      <trkpt lat="44.9995" lon="7.70458">
        <ele>253.93</ele>
        <time>2016-10-06T09:14:16Z</time>
      </trkpt>
      <trkpt lat="44.99945" lon="7.70484">
        <ele>253.44</ele>
        <time>2016-10-06T09:14:19Z</time>
      </trkpt>
      <trkpt lat="44.99918" lon="7.70572">
        <ele>253.93</ele>
        <time>2016-10-06T09:14:30Z</time>
      </trkpt>
      <trkpt lat="44.99916" lon="7.70578">
        <ele>253.44</ele>
        <time>2016-10-06T09:14:31Z</time>
      </trkpt>
      <trkpt lat="44.99865" lon="7.7069">
        <ele>254.89</ele>
        <time>2016-10-06T09:14:49Z</time>
      </trkpt>
      <trkpt lat="44.99816" lon="7.70802">
        <ele>256.81</ele>
        <time>2016-10-06T09:15:07Z</time>
      </trkpt>
      <trkpt lat="44.99771" lon="7.70907">
        <ele>257.77</ele>
        <time>2016-10-06T09:15:25Z</time>
      </trkpt>
      <trkpt lat="44.99758" lon="7.70933">
        <ele>257.77</ele>
        <time>2016-10-06T09:15:30Z</time>
      </trkpt>
      <trkpt lat="44.99748" lon="7.70954">
        <ele>258.73</ele>
        <time>2016-10-06T09:15:34Z</time>
      </trkpt>
      <trkpt lat="44.99717" lon="7.71035">
        <ele>258.73</ele>
        <time>2016-10-06T09:15:51Z</time>
      </trkpt>
      <trkpt lat="44.99709" lon="7.71103">
        <ele>260.65</ele>
        <time>2016-10-06T09:16:03Z</time>
      </trkpt>
      <trkpt lat="44.99704" lon="7.71119">
        <ele>260.65</ele>
        <time>2016-10-06T09:16:06Z</time>
      </trkpt>
      <trkpt lat="44.99702" lon="7.71124">
        <ele>260.65</ele>
        <time>2016-10-06T09:16:07Z</time>
      </trkpt>
      <trkpt lat="44.99656" lon="7.71228">
        <ele>261.62</ele>
        <time>2016-10-06T09:16:26Z</time>
      </trkpt>
      <trkpt lat="44.99636" lon="7.71298">
        <ele>261.62</ele>
        <time>2016-10-06T09:16:37Z</time>
      </trkpt>
      <trkpt lat="44.99609" lon="7.71385">
        <ele>260.17</ele>
        <time>2016-10-06T09:16:50Z</time>
      </trkpt>
      <trkpt lat="44.99606" lon="7.71393">
        <ele>260.17</ele>
        <time>2016-10-06T09:16:51Z</time>
      </trkpt>
      <trkpt lat="44.99595" lon="7.71424">
        <ele>259.21</ele>
        <time>2016-10-06T09:16:55Z</time>
      </trkpt>
      <trkpt lat="44.99592" lon="7.71433">
        <ele>258.73</ele>
        <time>2016-10-06T09:16:56Z</time>
      </trkpt>
      <trkpt lat="44.99589" lon="7.71441">
        <ele>258.25</ele>
        <time>2016-10-06T09:16:57Z</time>
      </trkpt>
      <trkpt lat="44.99586" lon="7.7145">
        <ele>257.77</ele>
        <time>2016-10-06T09:16:58Z</time>
      </trkpt>
      <trkpt lat="44.99583" lon="7.71459">
        <ele>257.77</ele>
        <time>2016-10-06T09:16:59Z</time>
      </trkpt>
      <trkpt lat="44.99581" lon="7.71468">
        <ele>257.77</ele>
        <time>2016-10-06T09:17:00Z</time>
      </trkpt>
      <trkpt lat="44.99562" lon="7.7154">
        <ele>260.17</ele>
        <time>2016-10-06T09:17:12Z</time>
      </trkpt>
      <trkpt lat="44.99561" lon="7.71542">
        <ele>260.65</ele>
        <time>2016-10-06T09:17:13Z</time>
      </trkpt>
      <trkpt lat="44.99559" lon="7.71544">
        <ele>260.17</ele>
        <time>2016-10-06T09:17:15Z</time>
      </trkpt>
      <trkpt lat="44.99558" lon="7.71545">
        <ele>260.17</ele>
        <time>2016-10-06T09:17:16Z</time>
      </trkpt>
      <trkpt lat="44.99557" lon="7.71547">
        <ele>260.65</ele>
        <time>2016-10-06T09:17:17Z</time>
      </trkpt>
      <trkpt lat="44.99557" lon="7.71549">
        <ele>260.17</ele>
        <time>2016-10-06T09:17:18Z</time>
      </trkpt>
      <trkpt lat="44.99556" lon="7.71552">
        <ele>260.65</ele>
        <time>2016-10-06T09:17:19Z</time>
      </trkpt>
      <trkpt lat="44.99555" lon="7.71554">
        <ele>260.17</ele>
        <time>2016-10-06T09:17:20Z</time>
      </trkpt>
      <trkpt lat="44.99554" lon="7.71557">
        <ele>260.17</ele>
        <time>2016-10-06T09:17:21Z</time>
      </trkpt>
      <trkpt lat="44.99552" lon="7.7156">
        <ele>260.65</ele>
        <time>2016-10-06T09:17:22Z</time>
      </trkpt>
      <trkpt lat="44.99532" lon="7.71613">
        <ele>260.17</ele>
        <time>2016-10-06T09:17:35Z</time>
      </trkpt>
      <trkpt lat="44.99507" lon="7.717">
        <ele>257.29</ele>
        <time>2016-10-06T09:17:47Z</time>
      </trkpt>
      <trkpt lat="44.99504" lon="7.71708">
        <ele>256.81</ele>
        <time>2016-10-06T09:17:48Z</time>
      </trkpt>
      <trkpt lat="44.99481" lon="7.71822">
        <ele>254.89</ele>
        <time>2016-10-06T09:18:00Z</time>
      </trkpt>
      <trkpt lat="44.99475" lon="7.71856">
        <ele>254.41</ele>
        <time>2016-10-06T09:18:04Z</time>
      </trkpt>
      <trkpt lat="44.99472" lon="7.71863">
        <ele>254.41</ele>
        <time>2016-10-06T09:18:05Z</time>
      </trkpt>
      <trkpt lat="44.99468" lon="7.71869">
        <ele>254.41</ele>
        <time>2016-10-06T09:18:06Z</time>
      </trkpt>
      <trkpt lat="44.99464" lon="7.71875">
        <ele>254.41</ele>
        <time>2016-10-06T09:18:07Z</time>
      </trkpt>
      <trkpt lat="44.99459" lon="7.71881">
        <ele>254.41</ele>
        <time>2016-10-06T09:18:08Z</time>
      </trkpt>
      <trkpt lat="44.99455" lon="7.71887">
        <ele>254.41</ele>
        <time>2016-10-06T09:18:09Z</time>
      </trkpt>
      <trkpt lat="44.99451" lon="7.71893">
        <ele>253.93</ele>
        <time>2016-10-06T09:18:10Z</time>
      </trkpt>
      <trkpt lat="44.99446" lon="7.71899">
        <ele>253.93</ele>
        <time>2016-10-06T09:18:11Z</time>
      </trkpt>
      <trkpt lat="44.99427" lon="7.71923">
        <ele>252.96</ele>
        <time>2016-10-06T09:18:15Z</time>
      </trkpt>
      <trkpt lat="44.99399" lon="7.7196">
        <ele>253.93</ele>
        <time>2016-10-06T09:18:21Z</time>
      </trkpt>
      <trkpt lat="44.99353" lon="7.7201">
        <ele>255.37</ele>
        <time>2016-10-06T09:18:33Z</time>
      </trkpt>
      <trkpt lat="44.9933" lon="7.72036">
        <ele>256.33</ele>
        <time>2016-10-06T09:18:40Z</time>
      </trkpt>
      <trkpt lat="44.99323" lon="7.72042">
        <ele>256.33</ele>
        <time>2016-10-06T09:18:42Z</time>
      </trkpt>
      <trkpt lat="44.99282" lon="7.72085">
        <ele>257.77</ele>
        <time>2016-10-06T09:18:55Z</time>
      </trkpt>
      <trkpt lat="44.99274" lon="7.72098">
        <ele>257.29</ele>
        <time>2016-10-06T09:18:58Z</time>
      </trkpt>
      <trkpt lat="44.99248" lon="7.72142">
        <ele>257.29</ele>
        <time>2016-10-06T09:19:11Z</time>
      </trkpt>
      <trkpt lat="44.99233" lon="7.72175">
        <ele>256.81</ele>
        <time>2016-10-06T09:19:21Z</time>
      </trkpt>
      <trkpt lat="44.99228" lon="7.72188">
        <ele>255.85</ele>
        <time>2016-10-06T09:19:23Z</time>
      </trkpt>
      <trkpt lat="44.99188" lon="7.72305">
        <ele>253.93</ele>
        <time>2016-10-06T09:19:37Z</time>
      </trkpt>
      <trkpt lat="44.99163" lon="7.72455">
        <ele>252.48</ele>
        <time>2016-10-06T09:19:53Z</time>
      </trkpt>
      <trkpt lat="44.99108" lon="7.72559">
        <ele>252.48</ele>
        <time>2016-10-06T09:20:07Z</time>
      </trkpt>
      <trkpt lat="44.99065" lon="7.72631">
        <ele>253.44</ele>
        <time>2016-10-06T09:20:19Z</time>
      </trkpt>
      <trkpt lat="44.99027" lon="7.72683">
        <ele>253.93</ele>
        <time>2016-10-06T09:20:30Z</time>
      </trkpt>
      <trkpt lat="44.99024" lon="7.72689">
        <ele>254.41</ele>
        <time>2016-10-06T09:20:31Z</time>
      </trkpt>
      <trkpt lat="44.99018" lon="7.72698">
        <ele>253.93</ele>
        <time>2016-10-06T09:20:33Z</time>
      </trkpt>
      <trkpt lat="44.99015" lon="7.72702">
        <ele>254.41</ele>
        <time>2016-10-06T09:20:34Z</time>
      </trkpt>
      <trkpt lat="44.98968" lon="7.72746">
        <ele>254.89</ele>
        <time>2016-10-06T09:20:45Z</time>
      </trkpt>
      <trkpt lat="44.98953" lon="7.72756">
        <ele>254.89</ele>
        <time>2016-10-06T09:20:48Z</time>
      </trkpt>
      <trkpt lat="44.98884" lon="7.72831">
        <ele>253.44</ele>
        <time>2016-10-06T09:21:03Z</time>
      </trkpt>
      <trkpt lat="44.98813" lon="7.72907">
        <ele>252.96</ele>
        <time>2016-10-06T09:21:18Z</time>
      </trkpt>
      <trkpt lat="44.9875" lon="7.72962">
        <ele>254.41</ele>
        <time>2016-10-06T09:21:32Z</time>
      </trkpt>
      <trkpt lat="44.98725" lon="7.72981">
        <ele>253.44</ele>
        <time>2016-10-06T09:21:38Z</time>
      </trkpt>
      <trkpt lat="44.98721" lon="7.72982">
        <ele>253.44</ele>
        <time>2016-10-06T09:21:39Z</time>
      </trkpt>
      <trkpt lat="44.98713" lon="7.72985">
        <ele>253.93</ele>
        <time>2016-10-06T09:21:41Z</time>
      </trkpt>
      <trkpt lat="44.98658" lon="7.73038">
        <ele>253.93</ele>
        <time>2016-10-06T09:21:55Z</time>
      </trkpt>
      <trkpt lat="44.98624" lon="7.73085">
        <ele>254.41</ele>
        <time>2016-10-06T09:22:06Z</time>
      </trkpt>
      <trkpt lat="44.98621" lon="7.73085">
        <ele>253.93</ele>
        <time>2016-10-06T09:22:07Z</time>
      </trkpt>
      <trkpt lat="44.98617" lon="7.73084">
        <ele>253.93</ele>
        <time>2016-10-06T09:22:08Z</time>
      </trkpt>
      <trkpt lat="44.98614" lon="7.73082">
        <ele>253.93</ele>
        <time>2016-10-06T09:22:09Z</time>
      </trkpt>
      <trkpt lat="44.9861" lon="7.7308">
        <ele>253.93</ele>
        <time>2016-10-06T09:22:10Z</time>
      </trkpt>
      <trkpt lat="44.98606" lon="7.73078">
        <ele>253.93</ele>
        <time>2016-10-06T09:22:11Z</time>
      </trkpt>
      <trkpt lat="44.98603" lon="7.73074">
        <ele>254.41</ele>
        <time>2016-10-06T09:22:12Z</time>
      </trkpt>
      <trkpt lat="44.98597" lon="7.73069">
        <ele>252.96</ele>
        <time>2016-10-06T09:22:14Z</time>
      </trkpt>
      <trkpt lat="44.98592" lon="7.73063">
        <ele>252</ele>
        <time>2016-10-06T09:22:24Z</time>
      </trkpt>
      <trkpt lat="44.98591" lon="7.73062">
        <ele>252.48</ele>
        <time>2016-10-06T09:22:30Z</time>
      </trkpt>
      <trkpt lat="44.98589" lon="7.73061">
        <ele>251.52</ele>
        <time>2016-10-06T09:22:31Z</time>
      </trkpt>
      <trkpt lat="44.98586" lon="7.73062">
        <ele>252</ele>
        <time>2016-10-06T09:22:32Z</time>
      </trkpt>
      <trkpt lat="44.98583" lon="7.73065">
        <ele>252.48</ele>
        <time>2016-10-06T09:22:33Z</time>
      </trkpt>
      <trkpt lat="44.98581" lon="7.73068">
        <ele>252</ele>
        <time>2016-10-06T09:22:34Z</time>
      </trkpt>
      <trkpt lat="44.98579" lon="7.73071">
        <ele>252.48</ele>
        <time>2016-10-06T09:22:35Z</time>
      </trkpt>
      <trkpt lat="44.98577" lon="7.73074">
        <ele>252.48</ele>
        <time>2016-10-06T09:22:36Z</time>
      </trkpt>
      <trkpt lat="44.98557" lon="7.7312">
        <ele>253.93</ele>
        <time>2016-10-06T09:22:51Z</time>
      </trkpt>
      <trkpt lat="44.98543" lon="7.73179">
        <ele>254.89</ele>
        <time>2016-10-06T09:23:06Z</time>
      </trkpt>
      <trkpt lat="44.98534" lon="7.73235">
        <ele>255.37</ele>
        <time>2016-10-06T09:23:18Z</time>
      </trkpt>
      <trkpt lat="44.98519" lon="7.73294">
        <ele>256.33</ele>
        <time>2016-10-06T09:23:30Z</time>
      </trkpt>
      <trkpt lat="44.98514" lon="7.73337">
        <ele>257.29</ele>
        <time>2016-10-06T09:23:38Z</time>
      </trkpt>
      <trkpt lat="44.98512" lon="7.73343">
        <ele>256.81</ele>
        <time>2016-10-06T09:23:39Z</time>
      </trkpt>
      <trkpt lat="44.98497" lon="7.73426">
        <ele>256.81</ele>
        <time>2016-10-06T09:23:54Z</time>
      </trkpt>
      <trkpt lat="44.98496" lon="7.73432">
        <ele>256.81</ele>
        <time>2016-10-06T09:23:55Z</time>
      </trkpt>
      <trkpt lat="44.98495" lon="7.73444">
        <ele>257.77</ele>
        <time>2016-10-06T09:23:57Z</time>
      </trkpt>
      <trkpt lat="44.98494" lon="7.73451">
        <ele>257.29</ele>
        <time>2016-10-06T09:23:58Z</time>
      </trkpt>
      <trkpt lat="44.98491" lon="7.7347">
        <ele>256.81</ele>
        <time>2016-10-06T09:24:01Z</time>
      </trkpt>
      <trkpt lat="44.9849" lon="7.73477">
        <ele>257.29</ele>
        <time>2016-10-06T09:24:02Z</time>
      </trkpt>
      <trkpt lat="44.98489" lon="7.73485">
        <ele>257.29</ele>
        <time>2016-10-06T09:24:03Z</time>
      </trkpt>
      <trkpt lat="44.98479" lon="7.73533">
        <ele>257.29</ele>
        <time>2016-10-06T09:24:10Z</time>
      </trkpt>
      <trkpt lat="44.98478" lon="7.7354">
        <ele>257.29</ele>
        <time>2016-10-06T09:24:11Z</time>
      </trkpt>
      <trkpt lat="44.98476" lon="7.73546">
        <ele>257.29</ele>
        <time>2016-10-06T09:24:12Z</time>
      </trkpt>
      <trkpt lat="44.98474" lon="7.73552">
        <ele>256.81</ele>
        <time>2016-10-06T09:24:13Z</time>
      </trkpt>
      <trkpt lat="44.98473" lon="7.73558">
        <ele>256.81</ele>
        <time>2016-10-06T09:24:14Z</time>
      </trkpt>
      <trkpt lat="44.98472" lon="7.73586">
        <ele>256.81</ele>
        <time>2016-10-06T09:24:23Z</time>
      </trkpt>
      <trkpt lat="44.98469" lon="7.73591">
        <ele>256.81</ele>
        <time>2016-10-06T09:24:30Z</time>
      </trkpt>
      <trkpt lat="44.98468" lon="7.73593">
        <ele>256.33</ele>
        <time>2016-10-06T09:24:31Z</time>
      </trkpt>
      <trkpt lat="44.98468" lon="7.73596">
        <ele>256.33</ele>
        <time>2016-10-06T09:24:32Z</time>
      </trkpt>
      <trkpt lat="44.98468" lon="7.736">
        <ele>256.33</ele>
        <time>2016-10-06T09:24:33Z</time>
      </trkpt>
      <trkpt lat="44.98468" lon="7.73605">
        <ele>256.33</ele>
        <time>2016-10-06T09:24:34Z</time>
      </trkpt>
      <trkpt lat="44.98467" lon="7.7361">
        <ele>256.33</ele>
        <time>2016-10-06T09:24:35Z</time>
      </trkpt>
      <trkpt lat="44.98465" lon="7.73615">
        <ele>256.33</ele>
        <time>2016-10-06T09:24:36Z</time>
      </trkpt>
      <trkpt lat="44.98465" lon="7.73621">
        <ele>256.33</ele>
        <time>2016-10-06T09:24:37Z</time>
      </trkpt>
      <trkpt lat="44.98465" lon="7.73627">
        <ele>256.33</ele>
        <time>2016-10-06T09:24:38Z</time>
      </trkpt>
      <trkpt lat="44.98465" lon="7.73634">
        <ele>256.33</ele>
        <time>2016-10-06T09:24:39Z</time>
      </trkpt>
      <trkpt lat="44.98464" lon="7.7364">
        <ele>256.33</ele>
        <time>2016-10-06T09:24:40Z</time>
      </trkpt>
      <trkpt lat="44.98459" lon="7.7367">
        <ele>255.37</ele>
        <time>2016-10-06T09:24:44Z</time>
      </trkpt>
      <trkpt lat="44.98457" lon="7.73677">
        <ele>255.37</ele>
        <time>2016-10-06T09:24:45Z</time>
      </trkpt>
      <trkpt lat="44.98429" lon="7.73803">
        <ele>254.41</ele>
        <time>2016-10-06T09:25:01Z</time>
      </trkpt>
      <trkpt lat="44.98428" lon="7.7392">
        <ele>253.44</ele>
        <time>2016-10-06T09:25:14Z</time>
      </trkpt>
      <trkpt lat="44.98428" lon="7.73928">
        <ele>252.96</ele>
        <time>2016-10-06T09:25:15Z</time>
      </trkpt>
      <trkpt lat="44.98427" lon="7.73978">
        <ele>253.44</ele>
        <time>2016-10-06T09:25:22Z</time>
      </trkpt>
      <trkpt lat="44.98427" lon="7.73985">
        <ele>252.96</ele>
        <time>2016-10-06T09:25:23Z</time>
      </trkpt>
      <trkpt lat="44.98425" lon="7.74011">
        <ele>253.44</ele>
        <time>2016-10-06T09:25:32Z</time>
      </trkpt>
      <trkpt lat="44.98423" lon="7.74017">
        <ele>253.44</ele>
        <time>2016-10-06T09:25:42Z</time>
      </trkpt>
      <trkpt lat="44.9842" lon="7.74023">
        <ele>253.44</ele>
        <time>2016-10-06T09:25:45Z</time>
      </trkpt>
      <trkpt lat="44.9842" lon="7.74027">
        <ele>253.44</ele>
        <time>2016-10-06T09:25:46Z</time>
      </trkpt>
      <trkpt lat="44.9842" lon="7.7403">
        <ele>252.96</ele>
        <time>2016-10-06T09:25:47Z</time>
      </trkpt>
      <trkpt lat="44.98416" lon="7.74074">
        <ele>253.44</ele>
        <time>2016-10-06T09:25:55Z</time>
      </trkpt>
      <trkpt lat="44.98405" lon="7.74147">
        <ele>253.44</ele>
        <time>2016-10-06T09:26:05Z</time>
      </trkpt>
      <trkpt lat="44.98403" lon="7.74155">
        <ele>252.96</ele>
        <time>2016-10-06T09:26:06Z</time>
      </trkpt>
      <trkpt lat="44.984" lon="7.74162">
        <ele>253.44</ele>
        <time>2016-10-06T09:26:07Z</time>
      </trkpt>
      <trkpt lat="44.98396" lon="7.74168">
        <ele>252.96</ele>
        <time>2016-10-06T09:26:08Z</time>
      </trkpt>
      <trkpt lat="44.98392" lon="7.74175">
        <ele>252.96</ele>
        <time>2016-10-06T09:26:09Z</time>
      </trkpt>
      <trkpt lat="44.98389" lon="7.74181">
        <ele>253.44</ele>
        <time>2016-10-06T09:26:10Z</time>
      </trkpt>
      <trkpt lat="44.98378" lon="7.74199">
        <ele>252.48</ele>
        <time>2016-10-06T09:26:13Z</time>
      </trkpt>
      <trkpt lat="44.98375" lon="7.74205">
        <ele>252.96</ele>
        <time>2016-10-06T09:26:14Z</time>
      </trkpt>
      <trkpt lat="44.98372" lon="7.74212">
        <ele>252.96</ele>
        <time>2016-10-06T09:26:15Z</time>
      </trkpt>
      <trkpt lat="44.98326" lon="7.74293">
        <ele>253.44</ele>
        <time>2016-10-06T09:26:29Z</time>
      </trkpt>
      <trkpt lat="44.98267" lon="7.74386">
        <ele>253.44</ele>
        <time>2016-10-06T09:26:45Z</time>
      </trkpt>
      <trkpt lat="44.98259" lon="7.74397">
        <ele>253.93</ele>
        <time>2016-10-06T09:26:47Z</time>
      </trkpt>
      <trkpt lat="44.982" lon="7.74483">
        <ele>253.44</ele>
        <time>2016-10-06T09:27:02Z</time>
      </trkpt>
      <trkpt lat="44.98196" lon="7.74488">
        <ele>253.44</ele>
        <time>2016-10-06T09:27:03Z</time>
      </trkpt>
      <trkpt lat="44.98187" lon="7.74497">
        <ele>253.44</ele>
        <time>2016-10-06T09:27:05Z</time>
      </trkpt>
      <trkpt lat="44.98184" lon="7.74503">
        <ele>252.48</ele>
        <time>2016-10-06T09:27:06Z</time>
      </trkpt>
      <trkpt lat="44.98182" lon="7.74511">
        <ele>253.44</ele>
        <time>2016-10-06T09:27:07Z</time>
      </trkpt>
      <trkpt lat="44.98181" lon="7.74518">
        <ele>252.96</ele>
        <time>2016-10-06T09:27:08Z</time>
      </trkpt>
      <trkpt lat="44.9818" lon="7.74525">
        <ele>253.44</ele>
        <time>2016-10-06T09:27:09Z</time>
      </trkpt>
      <trkpt lat="44.98179" lon="7.74533">
        <ele>253.44</ele>
        <time>2016-10-06T09:27:10Z</time>
      </trkpt>
      <trkpt lat="44.98154" lon="7.74678">
        <ele>252.96</ele>
        <time>2016-10-06T09:27:28Z</time>
      </trkpt>
      <trkpt lat="44.98151" lon="7.74694">
        <ele>252.96</ele>
        <time>2016-10-06T09:27:30Z</time>
      </trkpt>
      <trkpt lat="44.98143" lon="7.7474">
        <ele>252</ele>
        <time>2016-10-06T09:27:36Z</time>
      </trkpt>
      <trkpt lat="44.98141" lon="7.74748">
        <ele>253.44</ele>
        <time>2016-10-06T09:27:37Z</time>
      </trkpt>
      <trkpt lat="44.98116" lon="7.74895">
        <ele>252.48</ele>
        <time>2016-10-06T09:27:55Z</time>
      </trkpt>
      <trkpt lat="44.98106" lon="7.74944">
        <ele>253.44</ele>
        <time>2016-10-06T09:28:01Z</time>
      </trkpt>
      <trkpt lat="44.98103" lon="7.74951">
        <ele>252.96</ele>
        <time>2016-10-06T09:28:02Z</time>
      </trkpt>
      <trkpt lat="44.98041" lon="7.75051">
        <ele>252</ele>
        <time>2016-10-06T09:28:17Z</time>
      </trkpt>
      <trkpt lat="44.97979" lon="7.75147">
        <ele>252.48</ele>
        <time>2016-10-06T09:28:33Z</time>
      </trkpt>
      <trkpt lat="44.97975" lon="7.75152">
        <ele>252.48</ele>
        <time>2016-10-06T09:28:34Z</time>
      </trkpt>
      <trkpt lat="44.97959" lon="7.75179">
        <ele>252.48</ele>
        <time>2016-10-06T09:28:39Z</time>
      </trkpt>
      <trkpt lat="44.97956" lon="7.75184">
        <ele>252</ele>
        <time>2016-10-06T09:28:40Z</time>
      </trkpt>
      <trkpt lat="44.97927" lon="7.75232">
        <ele>251.52</ele>
        <time>2016-10-06T09:28:52Z</time>
      </trkpt>
      <trkpt lat="44.97909" lon="7.75255">
        <ele>252</ele>
        <time>2016-10-06T09:29:01Z</time>
      </trkpt>
      <trkpt lat="44.97866" lon="7.75317">
        <ele>252</ele>
        <time>2016-10-06T09:29:15Z</time>
      </trkpt>
      <trkpt lat="44.97859" lon="7.75329">
        <ele>252.48</ele>
        <time>2016-10-06T09:29:17Z</time>
      </trkpt>
      <trkpt lat="44.97856" lon="7.75335">
        <ele>252.48</ele>
        <time>2016-10-06T09:29:18Z</time>
      </trkpt>
      <trkpt lat="44.97804" lon="7.75422">
        <ele>252</ele>
        <time>2016-10-06T09:29:33Z</time>
      </trkpt>
      <trkpt lat="44.97748" lon="7.75508">
        <ele>252.48</ele>
        <time>2016-10-06T09:29:48Z</time>
      </trkpt>
      <trkpt lat="44.97691" lon="7.75595">
        <ele>252</ele>
        <time>2016-10-06T09:30:03Z</time>
      </trkpt>
      <trkpt lat="44.97626" lon="7.75694">
        <ele>252.48</ele>
        <time>2016-10-06T09:30:20Z</time>
      </trkpt>
      <trkpt lat="44.97581" lon="7.75759">
        <ele>254.41</ele>
        <time>2016-10-06T09:30:34Z</time>
      </trkpt>
      <trkpt lat="44.97569" lon="7.75775">
        <ele>254.89</ele>
        <time>2016-10-06T09:30:47Z</time>
      </trkpt>
      <trkpt lat="44.97568" lon="7.75775">
        <ele>254.89</ele>
        <time>2016-10-06T09:31:07Z</time>
      </trkpt>
      <trkpt lat="44.97573" lon="7.75779">
        <ele>254.41</ele>
        <time>2016-10-06T09:31:52Z</time>
      </trkpt>
      <trkpt lat="44.97574" lon="7.75778">
        <ele>253.93</ele>
        <time>2016-10-06T09:32:28Z</time>
      </trkpt>
      <trkpt lat="44.9757" lon="7.75779">
        <ele>253.93</ele>
        <time>2016-10-06T09:33:01Z</time>
      </trkpt>
      <trkpt lat="44.97568" lon="7.75784">
        <ele>253.93</ele>
        <time>2016-10-06T09:33:26Z</time>
      </trkpt>
      <trkpt lat="44.97566" lon="7.75785">
        <ele>254.41</ele>
        <time>2016-10-06T09:33:50Z</time>
      </trkpt>
      <trkpt lat="44.97562" lon="7.75783">
        <ele>254.41</ele>
        <time>2016-10-06T09:34:21Z</time>
      </trkpt>
      <trkpt lat="44.97559" lon="7.75786">
        <ele>254.41</ele>
        <time>2016-10-06T09:34:53Z</time>
      </trkpt>
      <trkpt lat="44.9756" lon="7.75788">
        <ele>253.93</ele>
        <time>2016-10-06T09:35:19Z</time>
      </trkpt>
      <trkpt lat="44.97563" lon="7.75791">
        <ele>253.44</ele>
        <time>2016-10-06T09:35:47Z</time>
      </trkpt>
      <trkpt lat="44.97568" lon="7.75792">
        <ele>253.93</ele>
        <time>2016-10-06T09:36:13Z</time>
      </trkpt>
      <trkpt lat="44.97567" lon="7.75787">
        <ele>253.93</ele>
        <time>2016-10-06T09:36:41Z</time>
      </trkpt>
      <trkpt lat="44.97566" lon="7.75788">
        <ele>253.44</ele>
        <time>2016-10-06T09:37:15Z</time>
      </trkpt>
      <trkpt lat="44.97559" lon="7.75801">
        <ele>253.93</ele>
        <time>2016-10-06T09:37:29Z</time>
      </trkpt>
      <trkpt lat="44.97522" lon="7.75857">
        <ele>254.41</ele>
        <time>2016-10-06T09:37:44Z</time>
      </trkpt>
      <trkpt lat="44.97467" lon="7.75938">
        <ele>256.33</ele>
        <time>2016-10-06T09:38:04Z</time>
      </trkpt>
      <trkpt lat="44.97421" lon="7.75986">
        <ele>256.81</ele>
        <time>2016-10-06T09:38:19Z</time>
      </trkpt>
      <trkpt lat="44.97403" lon="7.76028">
        <ele>258.25</ele>
        <time>2016-10-06T09:38:28Z</time>
      </trkpt>
      <trkpt lat="44.97402" lon="7.76033">
        <ele>258.25</ele>
        <time>2016-10-06T09:38:29Z</time>
      </trkpt>
      <trkpt lat="44.97401" lon="7.76038">
        <ele>258.25</ele>
        <time>2016-10-06T09:38:30Z</time>
      </trkpt>
      <trkpt lat="44.97398" lon="7.76043">
        <ele>258.25</ele>
        <time>2016-10-06T09:38:31Z</time>
      </trkpt>
      <trkpt lat="44.97396" lon="7.76048">
        <ele>257.77</ele>
        <time>2016-10-06T09:38:32Z</time>
      </trkpt>
      <trkpt lat="44.97393" lon="7.76052">
        <ele>258.25</ele>
        <time>2016-10-06T09:38:33Z</time>
      </trkpt>
      <trkpt lat="44.97334" lon="7.76145">
        <ele>259.21</ele>
        <time>2016-10-06T09:38:54Z</time>
      </trkpt>
      <trkpt lat="44.97322" lon="7.76163">
        <ele>259.69</ele>
        <time>2016-10-06T09:38:58Z</time>
      </trkpt>
      <trkpt lat="44.97257" lon="7.76263">
        <ele>261.14</ele>
        <time>2016-10-06T09:39:18Z</time>
      </trkpt>
      <trkpt lat="44.9719" lon="7.7637">
        <ele>261.14</ele>
        <time>2016-10-06T09:39:38Z</time>
      </trkpt>
      <trkpt lat="44.97117" lon="7.7648">
        <ele>259.69</ele>
        <time>2016-10-06T09:39:56Z</time>
      </trkpt>
      <trkpt lat="44.97032" lon="7.76614">
        <ele>258.25</ele>
        <time>2016-10-06T09:40:14Z</time>
      </trkpt>
      <trkpt lat="44.96967" lon="7.76714">
        <ele>255.85</ele>
        <time>2016-10-06T09:40:26Z</time>
      </trkpt>
      <trkpt lat="44.96865" lon="7.76872">
        <ele>254.41</ele>
        <time>2016-10-06T09:40:46Z</time>
      </trkpt>
      <trkpt lat="44.96833" lon="7.76921">
        <ele>253.93</ele>
        <time>2016-10-06T09:40:57Z</time>
      </trkpt>
      <trkpt lat="44.96791" lon="7.76987">
        <ele>252.96</ele>
        <time>2016-10-06T09:41:09Z</time>
      </trkpt>
      <trkpt lat="44.96741" lon="7.77063">
        <ele>254.89</ele>
        <time>2016-10-06T09:41:24Z</time>
      </trkpt>
      <trkpt lat="44.96687" lon="7.77151">
        <ele>257.29</ele>
        <time>2016-10-06T09:41:43Z</time>
      </trkpt>
      <trkpt lat="44.96639" lon="7.77216">
        <ele>257.29</ele>
        <time>2016-10-06T09:41:59Z</time>
      </trkpt>
      <trkpt lat="44.96585" lon="7.77306">
        <ele>253.93</ele>
        <time>2016-10-06T09:42:12Z</time>
      </trkpt>
      <trkpt lat="44.9658" lon="7.77314">
        <ele>253.93</ele>
        <time>2016-10-06T09:42:13Z</time>
      </trkpt>
      <trkpt lat="44.96518" lon="7.7741">
        <ele>251.04</ele>
        <time>2016-10-06T09:42:24Z</time>
      </trkpt>
      <trkpt lat="44.96452" lon="7.77509">
        <ele>252</ele>
        <time>2016-10-06T09:42:35Z</time>
      </trkpt>
      <trkpt lat="44.9644" lon="7.77527">
        <ele>250.08</ele>
        <time>2016-10-06T09:42:37Z</time>
      </trkpt>
      <trkpt lat="44.96359" lon="7.77651">
        <ele>248.16</ele>
        <time>2016-10-06T09:42:52Z</time>
      </trkpt>
      <trkpt lat="44.96312" lon="7.77709">
        <ele>247.68</ele>
        <time>2016-10-06T09:43:05Z</time>
      </trkpt>
      <trkpt lat="44.96281" lon="7.77737">
        <ele>248.16</ele>
        <time>2016-10-06T09:43:16Z</time>
      </trkpt>
      <trkpt lat="44.96279" lon="7.77742">
        <ele>248.16</ele>
        <time>2016-10-06T09:43:17Z</time>
      </trkpt>
      <trkpt lat="44.96278" lon="7.77748">
        <ele>248.64</ele>
        <time>2016-10-06T09:43:18Z</time>
      </trkpt>
      <trkpt lat="44.96277" lon="7.7776">
        <ele>247.68</ele>
        <time>2016-10-06T09:43:20Z</time>
      </trkpt>
      <trkpt lat="44.96275" lon="7.77766">
        <ele>248.16</ele>
        <time>2016-10-06T09:43:21Z</time>
      </trkpt>
      <trkpt lat="44.96271" lon="7.77778">
        <ele>247.68</ele>
        <time>2016-10-06T09:43:23Z</time>
      </trkpt>
      <trkpt lat="44.9626" lon="7.778">
        <ele>248.16</ele>
        <time>2016-10-06T09:43:27Z</time>
      </trkpt>
      <trkpt lat="44.96195" lon="7.77901">
        <ele>248.64</ele>
        <time>2016-10-06T09:43:45Z</time>
      </trkpt>
      <trkpt lat="44.96108" lon="7.78031">
        <ele>249.12</ele>
        <time>2016-10-06T09:44:08Z</time>
      </trkpt>
      <trkpt lat="44.96031" lon="7.78154">
        <ele>249.12</ele>
        <time>2016-10-06T09:44:28Z</time>
      </trkpt>
      <trkpt lat="44.9596" lon="7.78264">
        <ele>249.6</ele>
        <time>2016-10-06T09:44:46Z</time>
      </trkpt>
      <trkpt lat="44.95884" lon="7.78381">
        <ele>250.56</ele>
        <time>2016-10-06T09:45:06Z</time>
      </trkpt>
      <trkpt lat="44.95829" lon="7.78467">
        <ele>253.93</ele>
        <time>2016-10-06T09:45:24Z</time>
      </trkpt>
      <trkpt lat="44.95814" lon="7.7849">
        <ele>253.44</ele>
        <time>2016-10-06T09:45:29Z</time>
      </trkpt>
      <trkpt lat="44.9581" lon="7.78494">
        <ele>253.44</ele>
        <time>2016-10-06T09:45:30Z</time>
      </trkpt>
      <trkpt lat="44.95806" lon="7.78497">
        <ele>253.93</ele>
        <time>2016-10-06T09:45:31Z</time>
      </trkpt>
      <trkpt lat="44.95802" lon="7.78502">
        <ele>252.96</ele>
        <time>2016-10-06T09:45:32Z</time>
      </trkpt>
      <trkpt lat="44.95799" lon="7.78506">
        <ele>252.96</ele>
        <time>2016-10-06T09:45:33Z</time>
      </trkpt>
      <trkpt lat="44.95753" lon="7.78594">
        <ele>254.41</ele>
        <time>2016-10-06T09:45:49Z</time>
      </trkpt>
      <trkpt lat="44.95717" lon="7.78673">
        <ele>254.89</ele>
        <time>2016-10-06T09:46:06Z</time>
      </trkpt>
      <trkpt lat="44.95696" lon="7.7872">
        <ele>255.37</ele>
        <time>2016-10-06T09:46:21Z</time>
      </trkpt>
      <trkpt lat="44.95672" lon="7.7873">
        <ele>255.85</ele>
        <time>2016-10-06T09:46:31Z</time>
      </trkpt>
      <trkpt lat="44.95669" lon="7.78733">
        <ele>255.85</ele>
        <time>2016-10-06T09:46:32Z</time>
      </trkpt>
      <trkpt lat="44.95666" lon="7.78737">
        <ele>255.85</ele>
        <time>2016-10-06T09:46:33Z</time>
      </trkpt>
      <trkpt lat="44.95664" lon="7.78742">
        <ele>255.85</ele>
        <time>2016-10-06T09:46:34Z</time>
      </trkpt>
      <trkpt lat="44.95662" lon="7.78748">
        <ele>255.85</ele>
        <time>2016-10-06T09:46:35Z</time>
      </trkpt>
      <trkpt lat="44.95661" lon="7.78754">
        <ele>255.37</ele>
        <time>2016-10-06T09:46:36Z</time>
      </trkpt>
      <trkpt lat="44.95628" lon="7.78853">
        <ele>255.85</ele>
        <time>2016-10-06T09:46:53Z</time>
      </trkpt>
      <trkpt lat="44.95574" lon="7.78959">
        <ele>256.81</ele>
        <time>2016-10-06T09:47:11Z</time>
      </trkpt>
      <trkpt lat="44.95512" lon="7.79083">
        <ele>257.77</ele>
        <time>2016-10-06T09:47:31Z</time>
      </trkpt>
      <trkpt lat="44.95507" lon="7.79096">
        <ele>257.29</ele>
        <time>2016-10-06T09:47:33Z</time>
      </trkpt>
      <trkpt lat="44.95505" lon="7.79103">
        <ele>257.29</ele>
        <time>2016-10-06T09:47:34Z</time>
      </trkpt>
      <trkpt lat="44.95495" lon="7.7912">
        <ele>257.77</ele>
        <time>2016-10-06T09:47:37Z</time>
      </trkpt>
      <trkpt lat="44.95491" lon="7.79124">
        <ele>257.77</ele>
        <time>2016-10-06T09:47:38Z</time>
      </trkpt>
      <trkpt lat="44.95482" lon="7.7913">
        <ele>257.77</ele>
        <time>2016-10-06T09:47:40Z</time>
      </trkpt>
      <trkpt lat="44.95477" lon="7.79134">
        <ele>257.29</ele>
        <time>2016-10-06T09:47:41Z</time>
      </trkpt>
      <trkpt lat="44.95474" lon="7.7914">
        <ele>257.77</ele>
        <time>2016-10-06T09:47:42Z</time>
      </trkpt>
      <trkpt lat="44.95471" lon="7.79145">
        <ele>257.77</ele>
        <time>2016-10-06T09:47:43Z</time>
      </trkpt>
      <trkpt lat="44.9547" lon="7.79152">
        <ele>257.77</ele>
        <time>2016-10-06T09:47:44Z</time>
      </trkpt>
      <trkpt lat="44.95469" lon="7.79159">
        <ele>259.21</ele>
        <time>2016-10-06T09:47:45Z</time>
      </trkpt>
      <trkpt lat="44.95469" lon="7.79166">
        <ele>258.73</ele>
        <time>2016-10-06T09:47:46Z</time>
      </trkpt>
      <trkpt lat="44.95468" lon="7.79173">
        <ele>258.73</ele>
        <time>2016-10-06T09:47:47Z</time>
      </trkpt>
      <trkpt lat="44.95465" lon="7.7918">
        <ele>258.73</ele>
        <time>2016-10-06T09:47:48Z</time>
      </trkpt>
      <trkpt lat="44.95463" lon="7.79186">
        <ele>258.25</ele>
        <time>2016-10-06T09:47:49Z</time>
      </trkpt>
      <trkpt lat="44.9546" lon="7.79192">
        <ele>257.77</ele>
        <time>2016-10-06T09:47:50Z</time>
      </trkpt>
      <trkpt lat="44.95456" lon="7.79198">
        <ele>257.77</ele>
        <time>2016-10-06T09:47:51Z</time>
      </trkpt>
      <trkpt lat="44.95403" lon="7.79303">
        <ele>259.21</ele>
        <time>2016-10-06T09:48:08Z</time>
      </trkpt>
      <trkpt lat="44.95353" lon="7.79404">
        <ele>257.77</ele>
        <time>2016-10-06T09:48:24Z</time>
      </trkpt>
      <trkpt lat="44.95288" lon="7.79531">
        <ele>259.21</ele>
        <time>2016-10-06T09:48:44Z</time>
      </trkpt>
      <trkpt lat="44.95216" lon="7.79674">
        <ele>257.77</ele>
        <time>2016-10-06T09:49:04Z</time>
      </trkpt>
      <trkpt lat="44.95139" lon="7.79828">
        <ele>257.29</ele>
        <time>2016-10-06T09:49:25Z</time>
      </trkpt>
      <trkpt lat="44.9506" lon="7.79986">
        <ele>257.29</ele>
        <time>2016-10-06T09:49:47Z</time>
      </trkpt>
      <trkpt lat="44.95007" lon="7.80089">
        <ele>255.85</ele>
        <time>2016-10-06T09:50:02Z</time>
      </trkpt>
      <trkpt lat="44.94911" lon="7.80279">
        <ele>255.85</ele>
        <time>2016-10-06T09:50:28Z</time>
      </trkpt>
      <trkpt lat="44.94828" lon="7.80444">
        <ele>255.85</ele>
        <time>2016-10-06T09:50:50Z</time>
      </trkpt>
      <trkpt lat="44.94741" lon="7.80616">
        <ele>255.85</ele>
        <time>2016-10-06T09:51:13Z</time>
      </trkpt>
      <trkpt lat="44.94662" lon="7.8077">
        <ele>255.37</ele>
        <time>2016-10-06T09:51:34Z</time>
      </trkpt>
      <trkpt lat="44.94589" lon="7.80919">
        <ele>254.89</ele>
        <time>2016-10-06T09:51:54Z</time>
      </trkpt>
      <trkpt lat="44.94507" lon="7.8108">
        <ele>254.89</ele>
        <time>2016-10-06T09:52:16Z</time>
      </trkpt>
      <trkpt lat="44.94454" lon="7.81185">
        <ele>253.93</ele>
        <time>2016-10-06T09:52:30Z</time>
      </trkpt>
      <trkpt lat="44.94374" lon="7.81345">
        <ele>253.44</ele>
        <time>2016-10-06T09:52:50Z</time>
      </trkpt>
      <trkpt lat="44.94311" lon="7.81466">
        <ele>252</ele>
        <time>2016-10-06T09:53:05Z</time>
      </trkpt>
      <trkpt lat="44.94256" lon="7.81576">
        <ele>252</ele>
        <time>2016-10-06T09:53:18Z</time>
      </trkpt>
      <trkpt lat="44.94189" lon="7.81707">
        <ele>251.04</ele>
        <time>2016-10-06T09:53:33Z</time>
      </trkpt>
      <trkpt lat="44.94109" lon="7.81863">
        <ele>249.6</ele>
        <time>2016-10-06T09:53:51Z</time>
      </trkpt>
      <trkpt lat="44.94037" lon="7.82009">
        <ele>250.08</ele>
        <time>2016-10-06T09:54:09Z</time>
      </trkpt>
      <trkpt lat="44.93985" lon="7.8211">
        <ele>251.52</ele>
        <time>2016-10-06T09:54:23Z</time>
      </trkpt>
      <trkpt lat="44.93929" lon="7.8222">
        <ele>252</ele>
        <time>2016-10-06T09:54:40Z</time>
      </trkpt>
      <trkpt lat="44.93926" lon="7.82225">
        <ele>252</ele>
        <time>2016-10-06T09:54:41Z</time>
      </trkpt>
      <trkpt lat="44.93875" lon="7.82325">
        <ele>250.08</ele>
        <time>2016-10-06T09:54:56Z</time>
      </trkpt>
      <trkpt lat="44.93823" lon="7.82431">
        <ele>249.12</ele>
        <time>2016-10-06T09:55:10Z</time>
      </trkpt>
      <trkpt lat="44.93789" lon="7.82497">
        <ele>247.68</ele>
        <time>2016-10-06T09:55:19Z</time>
      </trkpt>
      <trkpt lat="44.93722" lon="7.82626">
        <ele>246.72</ele>
        <time>2016-10-06T09:55:35Z</time>
      </trkpt>
      <trkpt lat="44.93703" lon="7.82662">
        <ele>244.79</ele>
        <time>2016-10-06T09:55:39Z</time>
      </trkpt>
      <trkpt lat="44.936" lon="7.82798">
        <ele>243.35</ele>
        <time>2016-10-06T09:55:56Z</time>
      </trkpt>
      <trkpt lat="44.93455" lon="7.82956">
        <ele>243.83</ele>
        <time>2016-10-06T09:56:19Z</time>
      </trkpt>
      <trkpt lat="44.93337" lon="7.8306">
        <ele>242.87</ele>
        <time>2016-10-06T09:56:38Z</time>
      </trkpt>
      <trkpt lat="44.93204" lon="7.83174">
        <ele>244.79</ele>
        <time>2016-10-06T09:57:00Z</time>
      </trkpt>
      <trkpt lat="44.93087" lon="7.83274">
        <ele>243.83</ele>
        <time>2016-10-06T09:57:19Z</time>
      </trkpt>
      <trkpt lat="44.92965" lon="7.83379">
        <ele>243.83</ele>
        <time>2016-10-06T09:57:39Z</time>
      </trkpt>
      <trkpt lat="44.92842" lon="7.83482">
        <ele>244.79</ele>
        <time>2016-10-06T09:58:00Z</time>
      </trkpt>
      <trkpt lat="44.92817" lon="7.83507">
        <ele>244.31</ele>
        <time>2016-10-06T09:58:05Z</time>
      </trkpt>
      <trkpt lat="44.92805" lon="7.83525">
        <ele>244.31</ele>
        <time>2016-10-06T09:58:08Z</time>
      </trkpt>
      <trkpt lat="44.928" lon="7.8353">
        <ele>243.83</ele>
        <time>2016-10-06T09:58:09Z</time>
      </trkpt>
      <trkpt lat="44.92795" lon="7.83535">
        <ele>243.83</ele>
        <time>2016-10-06T09:58:10Z</time>
      </trkpt>
      <trkpt lat="44.92785" lon="7.83543">
        <ele>244.31</ele>
        <time>2016-10-06T09:58:12Z</time>
      </trkpt>
      <trkpt lat="44.92779" lon="7.83546">
        <ele>243.83</ele>
        <time>2016-10-06T09:58:13Z</time>
      </trkpt>
      <trkpt lat="44.9275" lon="7.8356">
        <ele>244.31</ele>
        <time>2016-10-06T09:58:18Z</time>
      </trkpt>
      <trkpt lat="44.92641" lon="7.8365">
        <ele>243.83</ele>
        <time>2016-10-06T09:58:38Z</time>
      </trkpt>
      <trkpt lat="44.92533" lon="7.83742">
        <ele>244.79</ele>
        <time>2016-10-06T09:58:59Z</time>
      </trkpt>
      <trkpt lat="44.92473" lon="7.83795">
        <ele>245.27</ele>
        <time>2016-10-06T09:59:13Z</time>
      </trkpt>
      <trkpt lat="44.92469" lon="7.83795">
        <ele>245.75</ele>
        <time>2016-10-06T09:59:14Z</time>
      </trkpt>
      <trkpt lat="44.92464" lon="7.83793">
        <ele>245.75</ele>
        <time>2016-10-06T09:59:15Z</time>
      </trkpt>
      <trkpt lat="44.9246" lon="7.83791">
        <ele>244.79</ele>
        <time>2016-10-06T09:59:16Z</time>
      </trkpt>
      <trkpt lat="44.92456" lon="7.83789">
        <ele>244.79</ele>
        <time>2016-10-06T09:59:17Z</time>
      </trkpt>
      <trkpt lat="44.92447" lon="7.83785">
        <ele>245.27</ele>
        <time>2016-10-06T09:59:19Z</time>
      </trkpt>
      <trkpt lat="44.92442" lon="7.83785">
        <ele>245.27</ele>
        <time>2016-10-06T09:59:20Z</time>
      </trkpt>
      <trkpt lat="44.92437" lon="7.83786">
        <ele>245.27</ele>
        <time>2016-10-06T09:59:21Z</time>
      </trkpt>
      <trkpt lat="44.92433" lon="7.8379">
        <ele>245.27</ele>
        <time>2016-10-06T09:59:22Z</time>
      </trkpt>
      <trkpt lat="44.9243" lon="7.83794">
        <ele>244.79</ele>
        <time>2016-10-06T09:59:23Z</time>
      </trkpt>
      <trkpt lat="44.92427" lon="7.838">
        <ele>244.79</ele>
        <time>2016-10-06T09:59:24Z</time>
      </trkpt>
      <trkpt lat="44.92425" lon="7.83806">
        <ele>243.35</ele>
        <time>2016-10-06T09:59:25Z</time>
      </trkpt>
      <trkpt lat="44.92424" lon="7.83813">
        <ele>243.83</ele>
        <time>2016-10-06T09:59:26Z</time>
      </trkpt>
      <trkpt lat="44.92424" lon="7.8382">
        <ele>244.31</ele>
        <time>2016-10-06T09:59:27Z</time>
      </trkpt>
      <trkpt lat="44.92423" lon="7.83827">
        <ele>243.83</ele>
        <time>2016-10-06T09:59:28Z</time>
      </trkpt>
      <trkpt lat="44.92422" lon="7.83834">
        <ele>243.83</ele>
        <time>2016-10-06T09:59:29Z</time>
      </trkpt>
      <trkpt lat="44.92419" lon="7.8384">
        <ele>244.31</ele>
        <time>2016-10-06T09:59:30Z</time>
      </trkpt>
      <trkpt lat="44.92417" lon="7.83845">
        <ele>244.31</ele>
        <time>2016-10-06T09:59:31Z</time>
      </trkpt>
      <trkpt lat="44.92413" lon="7.8385">
        <ele>244.31</ele>
        <time>2016-10-06T09:59:32Z</time>
      </trkpt>
      <trkpt lat="44.92409" lon="7.83854">
        <ele>244.31</ele>
        <time>2016-10-06T09:59:33Z</time>
      </trkpt>
      <trkpt lat="44.92345" lon="7.83907">
        <ele>243.83</ele>
        <time>2016-10-06T09:59:47Z</time>
      </trkpt>
      <trkpt lat="44.92275" lon="7.83986">
        <ele>244.31</ele>
        <time>2016-10-06T10:00:03Z</time>
      </trkpt>
      <trkpt lat="44.92253" lon="7.84021">
        <ele>244.31</ele>
        <time>2016-10-06T10:00:09Z</time>
      </trkpt>
      <trkpt lat="44.92221" lon="7.8406">
        <ele>244.79</ele>
        <time>2016-10-06T10:00:17Z</time>
      </trkpt>
      <trkpt lat="44.92207" lon="7.84075">
        <ele>245.27</ele>
        <time>2016-10-06T10:00:21Z</time>
      </trkpt>
      <trkpt lat="44.92203" lon="7.84078">
        <ele>245.75</ele>
        <time>2016-10-06T10:00:22Z</time>
      </trkpt>
      <trkpt lat="44.92174" lon="7.84127">
        <ele>247.68</ele>
        <time>2016-10-06T10:00:36Z</time>
      </trkpt>
      <trkpt lat="44.92175" lon="7.8413">
        <ele>247.2</ele>
        <time>2016-10-06T10:00:37Z</time>
      </trkpt>
      <trkpt lat="44.92179" lon="7.84136">
        <ele>247.68</ele>
        <time>2016-10-06T10:00:39Z</time>
      </trkpt>
      <trkpt lat="44.92182" lon="7.84137">
        <ele>248.64</ele>
        <time>2016-10-06T10:00:40Z</time>
      </trkpt>
      <trkpt lat="44.92184" lon="7.84137">
        <ele>247.68</ele>
        <time>2016-10-06T10:00:41Z</time>
      </trkpt>
      <trkpt lat="44.92187" lon="7.84136">
        <ele>247.2</ele>
        <time>2016-10-06T10:00:42Z</time>
      </trkpt>
      <trkpt lat="44.9219" lon="7.84136">
        <ele>247.2</ele>
        <time>2016-10-06T10:00:43Z</time>
      </trkpt>
      <trkpt lat="44.92231" lon="7.84152">
        <ele>247.68</ele>
        <time>2016-10-06T10:00:57Z</time>
      </trkpt>
      <trkpt lat="44.92246" lon="7.84164">
        <ele>247.68</ele>
        <time>2016-10-06T10:01:10Z</time>
      </trkpt>
      <trkpt lat="44.92248" lon="7.84169">
        <ele>247.68</ele>
        <time>2016-10-06T10:01:44Z</time>
      </trkpt>
      <trkpt lat="44.92251" lon="7.84168">
        <ele>247.2</ele>
        <time>2016-10-06T10:02:21Z</time>
      </trkpt>
      <trkpt lat="44.9225" lon="7.84167">
        <ele>247.2</ele>
        <time>2016-10-06T10:03:09Z</time>
      </trkpt>
      <trkpt lat="44.92248" lon="7.84165">
        <ele>246.72</ele>
        <time>2016-10-06T10:03:57Z</time>
      </trkpt>
      <trkpt lat="44.92252" lon="7.84167">
        <ele>245.75</ele>
        <time>2016-10-06T10:04:36Z</time>
      </trkpt>
      <trkpt lat="44.92252" lon="7.84168">
        <ele>245.27</ele>
        <time>2016-10-06T10:05:20Z</time>
      </trkpt>
      <trkpt lat="44.9225" lon="7.84167">
        <ele>245.75</ele>
        <time>2016-10-06T10:05:58Z</time>
      </trkpt>
      <trkpt lat="44.92252" lon="7.84167">
        <ele>246.23</ele>
        <time>2016-10-06T10:06:34Z</time>
      </trkpt>
      <trkpt lat="44.92254" lon="7.84165">
        <ele>245.27</ele>
        <time>2016-10-06T10:07:13Z</time>
      </trkpt>
      <trkpt lat="44.92251" lon="7.84167">
        <ele>245.27</ele>
        <time>2016-10-06T10:07:55Z</time>
      </trkpt>
      <trkpt lat="44.92251" lon="7.84162">
        <ele>245.75</ele>
        <time>2016-10-06T10:08:36Z</time>
      </trkpt>
      <trkpt lat="44.92249" lon="7.84165">
        <ele>245.27</ele>
        <time>2016-10-06T10:09:15Z</time>
      </trkpt>
      <trkpt lat="44.92248" lon="7.84165">
        <ele>245.27</ele>
        <time>2016-10-06T10:09:56Z</time>
      </trkpt>
      <trkpt lat="44.92254" lon="7.84166">
        <ele>245.27</ele>
        <time>2016-10-06T10:10:39Z</time>
      </trkpt>
      <trkpt lat="44.92254" lon="7.84166">
        <ele>244.79</ele>
        <time>2016-10-06T10:11:30Z</time>
      </trkpt>
      <trkpt lat="44.92254" lon="7.84163">
        <ele>244.31</ele>
        <time>2016-10-06T10:12:16Z</time>
      </trkpt>
      <trkpt lat="44.92255" lon="7.84162">
        <ele>244.31</ele>
        <time>2016-10-06T10:12:44Z</time>
      </trkpt>
      <trkpt lat="44.92254" lon="7.8416">
        <ele>244.79</ele>
        <time>2016-10-06T10:12:45Z</time>
      </trkpt>
      <trkpt lat="44.92239" lon="7.84158">
        <ele>244.31</ele>
        <time>2016-10-06T10:12:58Z</time>
      </trkpt>
      <trkpt lat="44.92237" lon="7.84159">
        <ele>244.79</ele>
        <time>2016-10-06T10:13:17Z</time>
      </trkpt>
      <trkpt lat="44.92237" lon="7.84157">
        <ele>243.83</ele>
        <time>2016-10-06T10:13:45Z</time>
      </trkpt>
      <trkpt lat="44.92235" lon="7.84154">
        <ele>243.83</ele>
        <time>2016-10-06T10:14:14Z</time>
      </trkpt>
      <trkpt lat="44.92213" lon="7.84151">
        <ele>244.79</ele>
        <time>2016-10-06T10:14:28Z</time>
      </trkpt>
      <trkpt lat="44.9221" lon="7.8415">
        <ele>244.31</ele>
        <time>2016-10-06T10:14:43Z</time>
      </trkpt>
      <trkpt lat="44.92207" lon="7.84155">
        <ele>244.31</ele>
        <time>2016-10-06T10:15:09Z</time>
      </trkpt>
      <trkpt lat="44.92202" lon="7.84147">
        <ele>243.83</ele>
        <time>2016-10-06T10:15:30Z</time>
      </trkpt>
      <trkpt lat="44.92199" lon="7.8414">
        <ele>243.35</ele>
        <time>2016-10-06T10:15:34Z</time>
      </trkpt>
      <trkpt lat="44.92198" lon="7.8414">
        <ele>243.83</ele>
        <time>2016-10-06T10:15:35Z</time>
      </trkpt>
      <trkpt lat="44.92189" lon="7.84136">
        <ele>244.31</ele>
        <time>2016-10-06T10:15:52Z</time>
      </trkpt>
      <trkpt lat="44.92184" lon="7.84133">
        <ele>244.31</ele>
        <time>2016-10-06T10:16:05Z</time>
      </trkpt>
      <trkpt lat="44.92179" lon="7.84128">
        <ele>243.35</ele>
        <time>2016-10-06T10:16:11Z</time>
      </trkpt>
      <trkpt lat="44.92178" lon="7.84129">
        <ele>243.83</ele>
        <time>2016-10-06T10:16:12Z</time>
      </trkpt>
      <trkpt lat="44.92176" lon="7.84129">
        <ele>243.35</ele>
        <time>2016-10-06T10:16:13Z</time>
      </trkpt>
      <trkpt lat="44.92174" lon="7.84131">
        <ele>243.35</ele>
        <time>2016-10-06T10:16:14Z</time>
      </trkpt>
      <trkpt lat="44.92172" lon="7.84133">
        <ele>243.83</ele>
        <time>2016-10-06T10:16:15Z</time>
      </trkpt>
      <trkpt lat="44.9217" lon="7.84135">
        <ele>243.83</ele>
        <time>2016-10-06T10:16:16Z</time>
      </trkpt>
      <trkpt lat="44.92142" lon="7.84175">
        <ele>246.23</ele>
        <time>2016-10-06T10:16:31Z</time>
      </trkpt>
      <trkpt lat="44.92116" lon="7.84221">
        <ele>247.2</ele>
        <time>2016-10-06T10:16:46Z</time>
      </trkpt>
      <trkpt lat="44.92096" lon="7.8425">
        <ele>248.16</ele>
        <time>2016-10-06T10:16:57Z</time>
      </trkpt>
      <trkpt lat="44.92095" lon="7.84254">
        <ele>247.68</ele>
        <time>2016-10-06T10:16:58Z</time>
      </trkpt>
      <trkpt lat="44.92095" lon="7.84257">
        <ele>248.16</ele>
        <time>2016-10-06T10:16:59Z</time>
      </trkpt>
      <trkpt lat="44.92094" lon="7.84261">
        <ele>248.16</ele>
        <time>2016-10-06T10:17:00Z</time>
      </trkpt>
      <trkpt lat="44.92091" lon="7.84263">
        <ele>248.64</ele>
        <time>2016-10-06T10:17:01Z</time>
      </trkpt>
      <trkpt lat="44.92087" lon="7.84265">
        <ele>248.64</ele>
        <time>2016-10-06T10:17:02Z</time>
      </trkpt>
      <trkpt lat="44.92061" lon="7.84306">
        <ele>249.12</ele>
        <time>2016-10-06T10:17:16Z</time>
      </trkpt>
      <trkpt lat="44.92042" lon="7.84343">
        <ele>249.12</ele>
        <time>2016-10-06T10:17:26Z</time>
      </trkpt>
      <trkpt lat="44.92022" lon="7.84388">
        <ele>250.08</ele>
        <time>2016-10-06T10:17:37Z</time>
      </trkpt>
      <trkpt lat="44.92013" lon="7.84444">
        <ele>250.56</ele>
        <time>2016-10-06T10:17:49Z</time>
      </trkpt>
      <trkpt lat="44.92014" lon="7.84454">
        <ele>250.56</ele>
        <time>2016-10-06T10:17:52Z</time>
      </trkpt>
      <trkpt lat="44.92013" lon="7.84458">
        <ele>251.04</ele>
        <time>2016-10-06T10:17:53Z</time>
      </trkpt>
      <trkpt lat="44.92" lon="7.84515">
        <ele>251.52</ele>
        <time>2016-10-06T10:18:06Z</time>
      </trkpt>
      <trkpt lat="44.9199" lon="7.84566">
        <ele>252.48</ele>
        <time>2016-10-06T10:18:17Z</time>
      </trkpt>
      <trkpt lat="44.9198" lon="7.84622">
        <ele>253.93</ele>
        <time>2016-10-06T10:18:29Z</time>
      </trkpt>
      <trkpt lat="44.91968" lon="7.84698">
        <ele>254.41</ele>
        <time>2016-10-06T10:18:43Z</time>
      </trkpt>
      <trkpt lat="44.91965" lon="7.8472">
        <ele>254.41</ele>
        <time>2016-10-06T10:18:47Z</time>
      </trkpt>
      <trkpt lat="44.91964" lon="7.84726">
        <ele>254.89</ele>
        <time>2016-10-06T10:18:48Z</time>
      </trkpt>
      <trkpt lat="44.91964" lon="7.84732">
        <ele>254.89</ele>
        <time>2016-10-06T10:18:49Z</time>
      </trkpt>
      <trkpt lat="44.91963" lon="7.84738">
        <ele>254.41</ele>
        <time>2016-10-06T10:18:50Z</time>
      </trkpt>
      <trkpt lat="44.91961" lon="7.84743">
        <ele>253.93</ele>
        <time>2016-10-06T10:18:51Z</time>
      </trkpt>
      <trkpt lat="44.9195" lon="7.84796">
        <ele>254.89</ele>
        <time>2016-10-06T10:19:00Z</time>
      </trkpt>
      <trkpt lat="44.91949" lon="7.84803">
        <ele>254.89</ele>
        <time>2016-10-06T10:19:01Z</time>
      </trkpt>
      <trkpt lat="44.91941" lon="7.84822">
        <ele>255.37</ele>
        <time>2016-10-06T10:19:04Z</time>
      </trkpt>
      <trkpt lat="44.91941" lon="7.84828">
        <ele>254.41</ele>
        <time>2016-10-06T10:19:05Z</time>
      </trkpt>
      <trkpt lat="44.91946" lon="7.84929">
        <ele>255.37</ele>
        <time>2016-10-06T10:19:19Z</time>
      </trkpt>
      <trkpt lat="44.91958" lon="7.85032">
        <ele>255.37</ele>
        <time>2016-10-06T10:19:34Z</time>
      </trkpt>
      <trkpt lat="44.9196" lon="7.85066">
        <ele>254.89</ele>
        <time>2016-10-06T10:19:39Z</time>
      </trkpt>
      <trkpt lat="44.91962" lon="7.85087">
        <ele>254.89</ele>
        <time>2016-10-06T10:19:42Z</time>
      </trkpt>
      <trkpt lat="44.91962" lon="7.85094">
        <ele>255.37</ele>
        <time>2016-10-06T10:19:43Z</time>
      </trkpt>
      <trkpt lat="44.91963" lon="7.85101">
        <ele>254.89</ele>
        <time>2016-10-06T10:19:44Z</time>
      </trkpt>
      <trkpt lat="44.91975" lon="7.85236">
        <ele>255.37</ele>
        <time>2016-10-06T10:20:02Z</time>
      </trkpt>
      <trkpt lat="44.91978" lon="7.85259">
        <ele>255.37</ele>
        <time>2016-10-06T10:20:05Z</time>
      </trkpt>
      <trkpt lat="44.9199" lon="7.85384">
        <ele>255.37</ele>
        <time>2016-10-06T10:20:21Z</time>
      </trkpt>
      <trkpt lat="44.92001" lon="7.85507">
        <ele>255.85</ele>
        <time>2016-10-06T10:20:36Z</time>
      </trkpt>
      <trkpt lat="44.92015" lon="7.85647">
        <ele>256.33</ele>
        <time>2016-10-06T10:20:53Z</time>
      </trkpt>
      <trkpt lat="44.92026" lon="7.85773">
        <ele>255.85</ele>
        <time>2016-10-06T10:21:09Z</time>
      </trkpt>
      <trkpt lat="44.92058" lon="7.85932">
        <ele>256.81</ele>
        <time>2016-10-06T10:21:30Z</time>
      </trkpt>
      <trkpt lat="44.92117" lon="7.86109">
        <ele>255.37</ele>
        <time>2016-10-06T10:21:53Z</time>
      </trkpt>
      <trkpt lat="44.92132" lon="7.86155">
        <ele>255.37</ele>
        <time>2016-10-06T10:21:59Z</time>
      </trkpt>
      <trkpt lat="44.92132" lon="7.86163">
        <ele>254.89</ele>
        <time>2016-10-06T10:22:00Z</time>
      </trkpt>
      <trkpt lat="44.92132" lon="7.8618">
        <ele>255.37</ele>
        <time>2016-10-06T10:22:02Z</time>
      </trkpt>
      <trkpt lat="44.92132" lon="7.86188">
        <ele>255.85</ele>
        <time>2016-10-06T10:22:03Z</time>
      </trkpt>
      <trkpt lat="44.92135" lon="7.86196">
        <ele>255.37</ele>
        <time>2016-10-06T10:22:04Z</time>
      </trkpt>
      <trkpt lat="44.92138" lon="7.86204">
        <ele>256.33</ele>
        <time>2016-10-06T10:22:05Z</time>
      </trkpt>
      <trkpt lat="44.92142" lon="7.8621">
        <ele>255.37</ele>
        <time>2016-10-06T10:22:06Z</time>
      </trkpt>
      <trkpt lat="44.92148" lon="7.86214">
        <ele>255.37</ele>
        <time>2016-10-06T10:22:07Z</time>
      </trkpt>
      <trkpt lat="44.92153" lon="7.86219">
        <ele>255.37</ele>
        <time>2016-10-06T10:22:08Z</time>
      </trkpt>
      <trkpt lat="44.92158" lon="7.86224">
        <ele>254.89</ele>
        <time>2016-10-06T10:22:09Z</time>
      </trkpt>
      <trkpt lat="44.92162" lon="7.86232">
        <ele>255.37</ele>
        <time>2016-10-06T10:22:10Z</time>
      </trkpt>
      <trkpt lat="44.92165" lon="7.86239">
        <ele>254.89</ele>
        <time>2016-10-06T10:22:11Z</time>
      </trkpt>
      <trkpt lat="44.92168" lon="7.86247">
        <ele>255.37</ele>
        <time>2016-10-06T10:22:12Z</time>
      </trkpt>
      <trkpt lat="44.92228" lon="7.8642">
        <ele>253.93</ele>
        <time>2016-10-06T10:22:33Z</time>
      </trkpt>
      <trkpt lat="44.92287" lon="7.86585">
        <ele>252.96</ele>
        <time>2016-10-06T10:22:53Z</time>
      </trkpt>
      <trkpt lat="44.92346" lon="7.86752">
        <ele>249.6</ele>
        <time>2016-10-06T10:23:12Z</time>
      </trkpt>
      <trkpt lat="44.92406" lon="7.86922">
        <ele>249.12</ele>
        <time>2016-10-06T10:23:30Z</time>
      </trkpt>
      <trkpt lat="44.92463" lon="7.87084">
        <ele>248.64</ele>
        <time>2016-10-06T10:23:48Z</time>
      </trkpt>
      <trkpt lat="44.92523" lon="7.87252">
        <ele>248.16</ele>
        <time>2016-10-06T10:24:09Z</time>
      </trkpt>
      <trkpt lat="44.92574" lon="7.874">
        <ele>248.64</ele>
        <time>2016-10-06T10:24:28Z</time>
      </trkpt>
      <trkpt lat="44.92643" lon="7.87592">
        <ele>249.12</ele>
        <time>2016-10-06T10:24:51Z</time>
      </trkpt>
      <trkpt lat="44.92722" lon="7.87818">
        <ele>247.2</ele>
        <time>2016-10-06T10:25:15Z</time>
      </trkpt>
      <trkpt lat="44.9279" lon="7.8801">
        <ele>246.23</ele>
        <time>2016-10-06T10:25:37Z</time>
      </trkpt>
      <trkpt lat="44.92863" lon="7.88218">
        <ele>245.27</ele>
        <time>2016-10-06T10:26:02Z</time>
      </trkpt>
      <trkpt lat="44.92909" lon="7.8835">
        <ele>245.75</ele>
        <time>2016-10-06T10:26:18Z</time>
      </trkpt>
      <trkpt lat="44.92977" lon="7.88543">
        <ele>247.2</ele>
        <time>2016-10-06T10:26:42Z</time>
      </trkpt>
      <trkpt lat="44.93026" lon="7.88685">
        <ele>246.72</ele>
        <time>2016-10-06T10:27:00Z</time>
      </trkpt>
      <trkpt lat="44.93085" lon="7.88852">
        <ele>245.75</ele>
        <time>2016-10-06T10:27:21Z</time>
      </trkpt>
      <trkpt lat="44.931" lon="7.88892">
        <ele>245.75</ele>
        <time>2016-10-06T10:27:26Z</time>
      </trkpt>
      <trkpt lat="44.93131" lon="7.88981">
        <ele>247.2</ele>
        <time>2016-10-06T10:27:37Z</time>
      </trkpt>
      <trkpt lat="44.93187" lon="7.89142">
        <ele>246.72</ele>
        <time>2016-10-06T10:27:57Z</time>
      </trkpt>
      <trkpt lat="44.93252" lon="7.89324">
        <ele>246.72</ele>
        <time>2016-10-06T10:28:20Z</time>
      </trkpt>
      <trkpt lat="44.93312" lon="7.89499">
        <ele>248.16</ele>
        <time>2016-10-06T10:28:42Z</time>
      </trkpt>
      <trkpt lat="44.93369" lon="7.89657">
        <ele>246.72</ele>
        <time>2016-10-06T10:29:01Z</time>
      </trkpt>
      <trkpt lat="44.93436" lon="7.89849">
        <ele>246.72</ele>
        <time>2016-10-06T10:29:24Z</time>
      </trkpt>
      <trkpt lat="44.93499" lon="7.90031">
        <ele>247.2</ele>
        <time>2016-10-06T10:29:46Z</time>
      </trkpt>
      <trkpt lat="44.93552" lon="7.90194">
        <ele>248.16</ele>
        <time>2016-10-06T10:30:07Z</time>
      </trkpt>
      <trkpt lat="44.93591" lon="7.90323">
        <ele>251.04</ele>
        <time>2016-10-06T10:30:27Z</time>
      </trkpt>
      <trkpt lat="44.93622" lon="7.90419">
        <ele>252.48</ele>
        <time>2016-10-06T10:30:43Z</time>
      </trkpt>
      <trkpt lat="44.93659" lon="7.90545">
        <ele>252.96</ele>
        <time>2016-10-06T10:31:04Z</time>
      </trkpt>
      <trkpt lat="44.937" lon="7.90678">
        <ele>254.41</ele>
        <time>2016-10-06T10:31:24Z</time>
      </trkpt>
      <trkpt lat="44.9372" lon="7.90746">
        <ele>253.44</ele>
        <time>2016-10-06T10:31:38Z</time>
      </trkpt>
      <trkpt lat="44.93731" lon="7.90785">
        <ele>254.89</ele>
        <time>2016-10-06T10:31:53Z</time>
      </trkpt>
      <trkpt lat="44.9373" lon="7.90785">
        <ele>255.37</ele>
        <time>2016-10-06T10:32:27Z</time>
      </trkpt>
      <trkpt lat="44.93735" lon="7.90798">
        <ele>254.41</ele>
        <time>2016-10-06T10:33:01Z</time>
      </trkpt>
      <trkpt lat="44.93754" lon="7.90859">
        <ele>255.85</ele>
        <time>2016-10-06T10:33:17Z</time>
      </trkpt>
      <trkpt lat="44.93786" lon="7.90963">
        <ele>256.81</ele>
        <time>2016-10-06T10:33:37Z</time>
      </trkpt>
      <trkpt lat="44.93825" lon="7.91094">
        <ele>257.29</ele>
        <time>2016-10-06T10:33:58Z</time>
      </trkpt>
      <trkpt lat="44.93866" lon="7.91231">
        <ele>258.25</ele>
        <time>2016-10-06T10:34:18Z</time>
      </trkpt>
      <trkpt lat="44.93915" lon="7.91391">
        <ele>257.77</ele>
        <time>2016-10-06T10:34:40Z</time>
      </trkpt>
      <trkpt lat="44.93946" lon="7.91494">
        <ele>258.73</ele>
        <time>2016-10-06T10:34:54Z</time>
      </trkpt>
      <trkpt lat="44.93984" lon="7.91623">
        <ele>258.25</ele>
        <time>2016-10-06T10:35:12Z</time>
      </trkpt>
      <trkpt lat="44.94018" lon="7.9177">
        <ele>258.25</ele>
        <time>2016-10-06T10:35:32Z</time>
      </trkpt>
      <trkpt lat="44.94045" lon="7.91897">
        <ele>258.25</ele>
        <time>2016-10-06T10:35:49Z</time>
      </trkpt>
      <trkpt lat="44.94079" lon="7.92064">
        <ele>258.25</ele>
        <time>2016-10-06T10:36:11Z</time>
      </trkpt>
      <trkpt lat="44.94107" lon="7.92201">
        <ele>258.73</ele>
        <time>2016-10-06T10:36:29Z</time>
      </trkpt>
      <trkpt lat="44.94137" lon="7.92336">
        <ele>258.73</ele>
        <time>2016-10-06T10:36:47Z</time>
      </trkpt>
      <trkpt lat="44.94172" lon="7.92502">
        <ele>258.73</ele>
        <time>2016-10-06T10:37:09Z</time>
      </trkpt>
      <trkpt lat="44.94198" lon="7.92623">
        <ele>260.65</ele>
        <time>2016-10-06T10:37:25Z</time>
      </trkpt>
      <trkpt lat="44.94228" lon="7.92768">
        <ele>259.69</ele>
        <time>2016-10-06T10:37:44Z</time>
      </trkpt>
      <trkpt lat="44.94248" lon="7.9292">
        <ele>259.69</ele>
        <time>2016-10-06T10:38:03Z</time>
      </trkpt>
      <trkpt lat="44.94242" lon="7.9306">
        <ele>261.14</ele>
        <time>2016-10-06T10:38:20Z</time>
      </trkpt>
      <trkpt lat="44.94238" lon="7.93199">
        <ele>260.17</ele>
        <time>2016-10-06T10:38:37Z</time>
      </trkpt>
      <trkpt lat="44.94237" lon="7.93208">
        <ele>259.69</ele>
        <time>2016-10-06T10:38:38Z</time>
      </trkpt>
      <trkpt lat="44.94236" lon="7.93215">
        <ele>259.69</ele>
        <time>2016-10-06T10:38:39Z</time>
      </trkpt>
      <trkpt lat="44.94225" lon="7.93253">
        <ele>257.77</ele>
        <time>2016-10-06T10:38:44Z</time>
      </trkpt>
      <trkpt lat="44.94218" lon="7.93271">
        <ele>259.21</ele>
        <time>2016-10-06T10:38:47Z</time>
      </trkpt>
      <trkpt lat="44.94216" lon="7.93277">
        <ele>259.21</ele>
        <time>2016-10-06T10:38:48Z</time>
      </trkpt>
      <trkpt lat="44.94213" lon="7.93282">
        <ele>259.21</ele>
        <time>2016-10-06T10:38:49Z</time>
      </trkpt>
      <trkpt lat="44.94151" lon="7.93365">
        <ele>259.69</ele>
        <time>2016-10-06T10:39:06Z</time>
      </trkpt>
      <trkpt lat="44.94072" lon="7.93463">
        <ele>260.65</ele>
        <time>2016-10-06T10:39:25Z</time>
      </trkpt>
      <trkpt lat="44.94009" lon="7.93579">
        <ele>260.65</ele>
        <time>2016-10-06T10:39:43Z</time>
      </trkpt>
      <trkpt lat="44.93963" lon="7.93742">
        <ele>260.65</ele>
        <time>2016-10-06T10:40:03Z</time>
      </trkpt>
      <trkpt lat="44.93952" lon="7.93829">
        <ele>260.65</ele>
        <time>2016-10-06T10:40:13Z</time>
      </trkpt>
      <trkpt lat="44.9395" lon="7.93944">
        <ele>261.14</ele>
        <time>2016-10-06T10:40:26Z</time>
      </trkpt>
      <trkpt lat="44.93949" lon="7.94118">
        <ele>260.65</ele>
        <time>2016-10-06T10:40:46Z</time>
      </trkpt>
      <trkpt lat="44.93947" lon="7.94252">
        <ele>261.14</ele>
        <time>2016-10-06T10:41:02Z</time>
      </trkpt>
      <trkpt lat="44.93933" lon="7.94342">
        <ele>260.65</ele>
        <time>2016-10-06T10:41:14Z</time>
      </trkpt>
      <trkpt lat="44.93897" lon="7.94464">
        <ele>261.62</ele>
        <time>2016-10-06T10:41:31Z</time>
      </trkpt>
      <trkpt lat="44.93836" lon="7.94585">
        <ele>261.62</ele>
        <time>2016-10-06T10:41:50Z</time>
      </trkpt>
      <trkpt lat="44.93767" lon="7.94712">
        <ele>261.14</ele>
        <time>2016-10-06T10:42:10Z</time>
      </trkpt>
      <trkpt lat="44.93685" lon="7.94864">
        <ele>260.65</ele>
        <time>2016-10-06T10:42:32Z</time>
      </trkpt>
      <trkpt lat="44.93619" lon="7.9498">
        <ele>260.65</ele>
        <time>2016-10-06T10:42:49Z</time>
      </trkpt>
      <trkpt lat="44.93553" lon="7.9511">
        <ele>260.17</ele>
        <time>2016-10-06T10:43:07Z</time>
      </trkpt>
      <trkpt lat="44.9355" lon="7.95117">
        <ele>259.69</ele>
        <time>2016-10-06T10:43:08Z</time>
      </trkpt>
      <trkpt lat="44.93482" lon="7.95241">
        <ele>259.69</ele>
        <time>2016-10-06T10:43:25Z</time>
      </trkpt>
      <trkpt lat="44.93433" lon="7.95329">
        <ele>258.73</ele>
        <time>2016-10-06T10:43:37Z</time>
      </trkpt>
      <trkpt lat="44.93355" lon="7.95471">
        <ele>259.69</ele>
        <time>2016-10-06T10:43:58Z</time>
      </trkpt>
      <trkpt lat="44.93267" lon="7.95634">
        <ele>260.65</ele>
        <time>2016-10-06T10:44:25Z</time>
      </trkpt>
      <trkpt lat="44.93185" lon="7.95784">
        <ele>261.14</ele>
        <time>2016-10-06T10:44:50Z</time>
      </trkpt>
      <trkpt lat="44.93118" lon="7.95908">
        <ele>261.62</ele>
        <time>2016-10-06T10:45:11Z</time>
      </trkpt>
      <trkpt lat="44.93036" lon="7.96057">
        <ele>261.62</ele>
        <time>2016-10-06T10:45:35Z</time>
      </trkpt>
      <trkpt lat="44.92961" lon="7.96199">
        <ele>261.62</ele>
        <time>2016-10-06T10:45:56Z</time>
      </trkpt>
      <trkpt lat="44.92942" lon="7.96234">
        <ele>260.65</ele>
        <time>2016-10-06T10:46:01Z</time>
      </trkpt>
      <trkpt lat="44.92867" lon="7.9637">
        <ele>261.62</ele>
        <time>2016-10-06T10:46:21Z</time>
      </trkpt>
      <trkpt lat="44.92791" lon="7.96509">
        <ele>261.62</ele>
        <time>2016-10-06T10:46:41Z</time>
      </trkpt>
      <trkpt lat="44.92734" lon="7.96613">
        <ele>261.14</ele>
        <time>2016-10-06T10:46:57Z</time>
      </trkpt>
      <trkpt lat="44.92681" lon="7.96701">
        <ele>262.58</ele>
        <time>2016-10-06T10:47:12Z</time>
      </trkpt>
      <trkpt lat="44.92623" lon="7.968">
        <ele>263.54</ele>
        <time>2016-10-06T10:47:29Z</time>
      </trkpt>
      <trkpt lat="44.92545" lon="7.96933">
        <ele>264.5</ele>
        <time>2016-10-06T10:47:52Z</time>
      </trkpt>
      <trkpt lat="44.92457" lon="7.97082">
        <ele>264.98</ele>
        <time>2016-10-06T10:48:17Z</time>
      </trkpt>
      <trkpt lat="44.9238" lon="7.97208">
        <ele>264.5</ele>
        <time>2016-10-06T10:48:37Z</time>
      </trkpt>
      <trkpt lat="44.92329" lon="7.97289">
        <ele>264.98</ele>
        <time>2016-10-06T10:48:52Z</time>
      </trkpt>
      <trkpt lat="44.92317" lon="7.97307">
        <ele>265.46</ele>
        <time>2016-10-06T10:48:56Z</time>
      </trkpt>
      <trkpt lat="44.92277" lon="7.97374">
        <ele>264.98</ele>
        <time>2016-10-06T10:49:12Z</time>
      </trkpt>
      <trkpt lat="44.92271" lon="7.97385">
        <ele>265.46</ele>
        <time>2016-10-06T10:49:14Z</time>
      </trkpt>
      <trkpt lat="44.9223" lon="7.97477">
        <ele>265.46</ele>
        <time>2016-10-06T10:49:29Z</time>
      </trkpt>
      <trkpt lat="44.92216" lon="7.97557">
        <ele>265.94</ele>
        <time>2016-10-06T10:49:40Z</time>
      </trkpt>
      <trkpt lat="44.92199" lon="7.97681">
        <ele>266.42</ele>
        <time>2016-10-06T10:49:56Z</time>
      </trkpt>
      <trkpt lat="44.92198" lon="7.97688">
        <ele>265.46</ele>
        <time>2016-10-06T10:49:57Z</time>
      </trkpt>
      <trkpt lat="44.92176" lon="7.97842">
        <ele>266.42</ele>
        <time>2016-10-06T10:50:17Z</time>
      </trkpt>
      <trkpt lat="44.92169" lon="7.97933">
        <ele>266.9</ele>
        <time>2016-10-06T10:50:29Z</time>
      </trkpt>
      <trkpt lat="44.92169" lon="7.97941">
        <ele>267.38</ele>
        <time>2016-10-06T10:50:30Z</time>
      </trkpt>
      <trkpt lat="44.92188" lon="7.98062">
        <ele>267.38</ele>
        <time>2016-10-06T10:50:46Z</time>
      </trkpt>
      <trkpt lat="44.92193" lon="7.98086">
        <ele>265.94</ele>
        <time>2016-10-06T10:50:49Z</time>
      </trkpt>
      <trkpt lat="44.92205" lon="7.98148">
        <ele>264.98</ele>
        <time>2016-10-06T10:50:57Z</time>
      </trkpt>
      <trkpt lat="44.9223" lon="7.98288">
        <ele>263.54</ele>
        <time>2016-10-06T10:51:14Z</time>
      </trkpt>
      <trkpt lat="44.92261" lon="7.9844">
        <ele>261.62</ele>
        <time>2016-10-06T10:51:31Z</time>
      </trkpt>
      <trkpt lat="44.923" lon="7.9858">
        <ele>260.17</ele>
        <time>2016-10-06T10:51:48Z</time>
      </trkpt>
      <trkpt lat="44.92303" lon="7.98588">
        <ele>259.69</ele>
        <time>2016-10-06T10:51:49Z</time>
      </trkpt>
      <trkpt lat="44.92332" lon="7.98646">
        <ele>256.81</ele>
        <time>2016-10-06T10:51:56Z</time>
      </trkpt>
      <trkpt lat="44.92385" lon="7.98733">
        <ele>253.44</ele>
        <time>2016-10-06T10:52:06Z</time>
      </trkpt>
      <trkpt lat="44.92425" lon="7.98795">
        <ele>251.04</ele>
        <time>2016-10-06T10:52:13Z</time>
      </trkpt>
      <trkpt lat="44.92496" lon="7.98907">
        <ele>247.68</ele>
        <time>2016-10-06T10:52:25Z</time>
      </trkpt>
      <trkpt lat="44.92553" lon="7.98998">
        <ele>244.31</ele>
        <time>2016-10-06T10:52:35Z</time>
      </trkpt>
      <trkpt lat="44.92593" lon="7.99063">
        <ele>241.43</ele>
        <time>2016-10-06T10:52:42Z</time>
      </trkpt>
      <trkpt lat="44.92618" lon="7.99102">
        <ele>239.99</ele>
        <time>2016-10-06T10:52:46Z</time>
      </trkpt>
      <trkpt lat="44.9265" lon="7.99153">
        <ele>235.66</ele>
        <time>2016-10-06T10:52:51Z</time>
      </trkpt>
      <trkpt lat="44.92657" lon="7.99164">
        <ele>236.14</ele>
        <time>2016-10-06T10:52:52Z</time>
      </trkpt>
      <trkpt lat="44.927" lon="7.99229">
        <ele>232.3</ele>
        <time>2016-10-06T10:52:58Z</time>
      </trkpt>
      <trkpt lat="44.92721" lon="7.99263">
        <ele>230.37</ele>
        <time>2016-10-06T10:53:01Z</time>
      </trkpt>
      <trkpt lat="44.92756" lon="7.99325">
        <ele>226.53</ele>
        <time>2016-10-06T10:53:06Z</time>
      </trkpt>
      <trkpt lat="44.9276" lon="7.9934">
        <ele>226.05</ele>
        <time>2016-10-06T10:53:07Z</time>
      </trkpt>
      <trkpt lat="44.92764" lon="7.99356">
        <ele>225.09</ele>
        <time>2016-10-06T10:53:08Z</time>
      </trkpt>
      <trkpt lat="44.92766" lon="7.99372">
        <ele>224.12</ele>
        <time>2016-10-06T10:53:09Z</time>
      </trkpt>
      <trkpt lat="44.92766" lon="7.99389">
        <ele>223.16</ele>
        <time>2016-10-06T10:53:10Z</time>
      </trkpt>
      <trkpt lat="44.92763" lon="7.99406">
        <ele>222.68</ele>
        <time>2016-10-06T10:53:11Z</time>
      </trkpt>
      <trkpt lat="44.92759" lon="7.99422">
        <ele>220.28</ele>
        <time>2016-10-06T10:53:12Z</time>
      </trkpt>
      <trkpt lat="44.92753" lon="7.99437">
        <ele>220.28</ele>
        <time>2016-10-06T10:53:13Z</time>
      </trkpt>
      <trkpt lat="44.92746" lon="7.9945">
        <ele>219.8</ele>
        <time>2016-10-06T10:53:14Z</time>
      </trkpt>
      <trkpt lat="44.92738" lon="7.99464">
        <ele>219.32</ele>
        <time>2016-10-06T10:53:15Z</time>
      </trkpt>
      <trkpt lat="44.9273" lon="7.99476">
        <ele>218.84</ele>
        <time>2016-10-06T10:53:16Z</time>
      </trkpt>
      <trkpt lat="44.92704" lon="7.99513">
        <ele>216.91</ele>
        <time>2016-10-06T10:53:19Z</time>
      </trkpt>
      <trkpt lat="44.92667" lon="7.99562">
        <ele>214.03</ele>
        <time>2016-10-06T10:53:23Z</time>
      </trkpt>
      <trkpt lat="44.92613" lon="7.99635">
        <ele>210.67</ele>
        <time>2016-10-06T10:53:29Z</time>
      </trkpt>
      <trkpt lat="44.92586" lon="7.9967">
        <ele>207.3</ele>
        <time>2016-10-06T10:53:32Z</time>
      </trkpt>
      <trkpt lat="44.92532" lon="7.99742">
        <ele>203.94</ele>
        <time>2016-10-06T10:53:38Z</time>
      </trkpt>
      <trkpt lat="44.9248" lon="7.99812">
        <ele>200.57</ele>
        <time>2016-10-06T10:53:44Z</time>
      </trkpt>
      <trkpt lat="44.92419" lon="7.99892">
        <ele>197.21</ele>
        <time>2016-10-06T10:53:51Z</time>
      </trkpt>
      <trkpt lat="44.92403" lon="7.99915">
        <ele>196.25</ele>
        <time>2016-10-06T10:53:53Z</time>
      </trkpt>
      <trkpt lat="44.9238" lon="7.99951">
        <ele>194.32</ele>
        <time>2016-10-06T10:53:56Z</time>
      </trkpt>
      <trkpt lat="44.92375" lon="7.99964">
        <ele>193.36</ele>
        <time>2016-10-06T10:53:57Z</time>
      </trkpt>
      <trkpt lat="44.92331" lon="8.00088">
        <ele>190</ele>
        <time>2016-10-06T10:54:06Z</time>
      </trkpt>
      <trkpt lat="44.92298" lon="8.00181">
        <ele>187.11</ele>
        <time>2016-10-06T10:54:13Z</time>
      </trkpt>
      <trkpt lat="44.92289" lon="8.00207">
        <ele>186.15</ele>
        <time>2016-10-06T10:54:15Z</time>
      </trkpt>
      <trkpt lat="44.92258" lon="8.00296">
        <ele>184.23</ele>
        <time>2016-10-06T10:54:22Z</time>
      </trkpt>
      <trkpt lat="44.92214" lon="8.00434">
        <ele>180.38</ele>
        <time>2016-10-06T10:54:33Z</time>
      </trkpt>
      <trkpt lat="44.92203" lon="8.00558">
        <ele>177.98</ele>
        <time>2016-10-06T10:54:42Z</time>
      </trkpt>
      <trkpt lat="44.92191" lon="8.00707">
        <ele>174.62</ele>
        <time>2016-10-06T10:54:53Z</time>
      </trkpt>
      <trkpt lat="44.92188" lon="8.00747">
        <ele>173.17</ele>
        <time>2016-10-06T10:54:56Z</time>
      </trkpt>
      <trkpt lat="44.92171" lon="8.00943">
        <ele>172.69</ele>
        <time>2016-10-06T10:55:13Z</time>
      </trkpt>
      <trkpt lat="44.92166" lon="8.0103">
        <ele>172.69</ele>
        <time>2016-10-06T10:55:23Z</time>
      </trkpt>
      <trkpt lat="44.92167" lon="8.01038">
        <ele>172.69</ele>
        <time>2016-10-06T10:55:24Z</time>
      </trkpt>
      <trkpt lat="44.9217" lon="8.01045">
        <ele>172.69</ele>
        <time>2016-10-06T10:55:25Z</time>
      </trkpt>
      <trkpt lat="44.92175" lon="8.01052">
        <ele>171.73</ele>
        <time>2016-10-06T10:55:26Z</time>
      </trkpt>
      <trkpt lat="44.9218" lon="8.01056">
        <ele>172.21</ele>
        <time>2016-10-06T10:55:27Z</time>
      </trkpt>
      <trkpt lat="44.92186" lon="8.0106">
        <ele>171.73</ele>
        <time>2016-10-06T10:55:28Z</time>
      </trkpt>
      <trkpt lat="44.92193" lon="8.01063">
        <ele>171.73</ele>
        <time>2016-10-06T10:55:29Z</time>
      </trkpt>
      <trkpt lat="44.92225" lon="8.01081">
        <ele>171.25</ele>
        <time>2016-10-06T10:55:34Z</time>
      </trkpt>
      <trkpt lat="44.9223" lon="8.01086">
        <ele>171.73</ele>
        <time>2016-10-06T10:55:35Z</time>
      </trkpt>
      <trkpt lat="44.92235" lon="8.01092">
        <ele>171.25</ele>
        <time>2016-10-06T10:55:36Z</time>
      </trkpt>
      <trkpt lat="44.92254" lon="8.01117">
        <ele>170.29</ele>
        <time>2016-10-06T10:55:40Z</time>
      </trkpt>
      <trkpt lat="44.92258" lon="8.01123">
        <ele>170.29</ele>
        <time>2016-10-06T10:55:41Z</time>
      </trkpt>
      <trkpt lat="44.92261" lon="8.0113">
        <ele>170.29</ele>
        <time>2016-10-06T10:55:42Z</time>
      </trkpt>
      <trkpt lat="44.92262" lon="8.01138">
        <ele>170.77</ele>
        <time>2016-10-06T10:55:43Z</time>
      </trkpt>
      <trkpt lat="44.92262" lon="8.01146">
        <ele>170.29</ele>
        <time>2016-10-06T10:55:44Z</time>
      </trkpt>
      <trkpt lat="44.92259" lon="8.01154">
        <ele>169.81</ele>
        <time>2016-10-06T10:55:45Z</time>
      </trkpt>
      <trkpt lat="44.92255" lon="8.01161">
        <ele>169.81</ele>
        <time>2016-10-06T10:55:46Z</time>
      </trkpt>
      <trkpt lat="44.9225" lon="8.01169">
        <ele>170.77</ele>
        <time>2016-10-06T10:55:47Z</time>
      </trkpt>
      <trkpt lat="44.92168" lon="8.01282">
        <ele>170.29</ele>
        <time>2016-10-06T10:56:05Z</time>
      </trkpt>
      <trkpt lat="44.92154" lon="8.01308">
        <ele>170.29</ele>
        <time>2016-10-06T10:56:09Z</time>
      </trkpt>
      <trkpt lat="44.92151" lon="8.01315">
        <ele>170.29</ele>
        <time>2016-10-06T10:56:10Z</time>
      </trkpt>
      <trkpt lat="44.92149" lon="8.01323">
        <ele>169.81</ele>
        <time>2016-10-06T10:56:11Z</time>
      </trkpt>
      <trkpt lat="44.92147" lon="8.01331">
        <ele>170.29</ele>
        <time>2016-10-06T10:56:12Z</time>
      </trkpt>
      <trkpt lat="44.92146" lon="8.01339">
        <ele>169.81</ele>
        <time>2016-10-06T10:56:13Z</time>
      </trkpt>
      <trkpt lat="44.92144" lon="8.01347">
        <ele>170.77</ele>
        <time>2016-10-06T10:56:14Z</time>
      </trkpt>
      <trkpt lat="44.92133" lon="8.01474">
        <ele>170.29</ele>
        <time>2016-10-06T10:56:30Z</time>
      </trkpt>
      <trkpt lat="44.92121" lon="8.01613">
        <ele>171.25</ele>
        <time>2016-10-06T10:56:49Z</time>
      </trkpt>
      <trkpt lat="44.92114" lon="8.01716">
        <ele>171.73</ele>
        <time>2016-10-06T10:57:03Z</time>
      </trkpt>
      <trkpt lat="44.92088" lon="8.0186">
        <ele>171.25</ele>
        <time>2016-10-06T10:57:22Z</time>
      </trkpt>
      <trkpt lat="44.92059" lon="8.01975">
        <ele>170.29</ele>
        <time>2016-10-06T10:57:38Z</time>
      </trkpt>
      <trkpt lat="44.92033" lon="8.02079">
        <ele>170.29</ele>
        <time>2016-10-06T10:57:51Z</time>
      </trkpt>
      <trkpt lat="44.92031" lon="8.02104">
        <ele>169.81</ele>
        <time>2016-10-06T10:57:54Z</time>
      </trkpt>
      <trkpt lat="44.92029" lon="8.02112">
        <ele>169.81</ele>
        <time>2016-10-06T10:57:55Z</time>
      </trkpt>
      <trkpt lat="44.92029" lon="8.02121">
        <ele>169.81</ele>
        <time>2016-10-06T10:57:56Z</time>
      </trkpt>
      <trkpt lat="44.92027" lon="8.02129">
        <ele>169.81</ele>
        <time>2016-10-06T10:57:57Z</time>
      </trkpt>
      <trkpt lat="44.92024" lon="8.02137">
        <ele>169.81</ele>
        <time>2016-10-06T10:57:58Z</time>
      </trkpt>
      <trkpt lat="44.92021" lon="8.02146">
        <ele>169.81</ele>
        <time>2016-10-06T10:57:59Z</time>
      </trkpt>
      <trkpt lat="44.91973" lon="8.02315">
        <ele>168.37</ele>
        <time>2016-10-06T10:58:19Z</time>
      </trkpt>
      <trkpt lat="44.91935" lon="8.02452">
        <ele>168.37</ele>
        <time>2016-10-06T10:58:35Z</time>
      </trkpt>
      <trkpt lat="44.91928" lon="8.02479">
        <ele>167.89</ele>
        <time>2016-10-06T10:58:38Z</time>
      </trkpt>
      <trkpt lat="44.91906" lon="8.02557">
        <ele>168.37</ele>
        <time>2016-10-06T10:58:47Z</time>
      </trkpt>
      <trkpt lat="44.91851" lon="8.02693">
        <ele>166.93</ele>
        <time>2016-10-06T10:59:03Z</time>
      </trkpt>
      <trkpt lat="44.91788" lon="8.02843">
        <ele>166.93</ele>
        <time>2016-10-06T10:59:21Z</time>
      </trkpt>
      <trkpt lat="44.91734" lon="8.0297">
        <ele>166.93</ele>
        <time>2016-10-06T10:59:37Z</time>
      </trkpt>
      <trkpt lat="44.9168" lon="8.03091">
        <ele>166.45</ele>
        <time>2016-10-06T10:59:52Z</time>
      </trkpt>
      <trkpt lat="44.91676" lon="8.03098">
        <ele>165.48</ele>
        <time>2016-10-06T10:59:53Z</time>
      </trkpt>
      <trkpt lat="44.91628" lon="8.03195">
        <ele>165</ele>
        <time>2016-10-06T11:00:06Z</time>
      </trkpt>
      <trkpt lat="44.91624" lon="8.03199">
        <ele>164.52</ele>
        <time>2016-10-06T11:00:07Z</time>
      </trkpt>
      <trkpt lat="44.91618" lon="8.03202">
        <ele>165</ele>
        <time>2016-10-06T11:00:08Z</time>
      </trkpt>
      <trkpt lat="44.91607" lon="8.03206">
        <ele>165</ele>
        <time>2016-10-06T11:00:10Z</time>
      </trkpt>
      <trkpt lat="44.91602" lon="8.03211">
        <ele>165</ele>
        <time>2016-10-06T11:00:11Z</time>
      </trkpt>
      <trkpt lat="44.91597" lon="8.03217">
        <ele>165</ele>
        <time>2016-10-06T11:00:12Z</time>
      </trkpt>
      <trkpt lat="44.91594" lon="8.03224">
        <ele>165</ele>
        <time>2016-10-06T11:00:13Z</time>
      </trkpt>
      <trkpt lat="44.91593" lon="8.03232">
        <ele>165</ele>
        <time>2016-10-06T11:00:14Z</time>
      </trkpt>
      <trkpt lat="44.91592" lon="8.0324">
        <ele>165.96</ele>
        <time>2016-10-06T11:00:15Z</time>
      </trkpt>
      <trkpt lat="44.91592" lon="8.03248">
        <ele>165</ele>
        <time>2016-10-06T11:00:16Z</time>
      </trkpt>
      <trkpt lat="44.91592" lon="8.03256">
        <ele>165</ele>
        <time>2016-10-06T11:00:17Z</time>
      </trkpt>
      <trkpt lat="44.91591" lon="8.03264">
        <ele>165</ele>
        <time>2016-10-06T11:00:18Z</time>
      </trkpt>
      <trkpt lat="44.91589" lon="8.03272">
        <ele>165</ele>
        <time>2016-10-06T11:00:19Z</time>
      </trkpt>
      <trkpt lat="44.91585" lon="8.03279">
        <ele>164.52</ele>
        <time>2016-10-06T11:00:20Z</time>
      </trkpt>
      <trkpt lat="44.91582" lon="8.03286">
        <ele>164.52</ele>
        <time>2016-10-06T11:00:21Z</time>
      </trkpt>
      <trkpt lat="44.91518" lon="8.03421">
        <ele>163.56</ele>
        <time>2016-10-06T11:00:39Z</time>
      </trkpt>
      <trkpt lat="44.9146" lon="8.03536">
        <ele>163.08</ele>
        <time>2016-10-06T11:00:54Z</time>
      </trkpt>
      <trkpt lat="44.91395" lon="8.03646">
        <ele>162.12</ele>
        <time>2016-10-06T11:01:09Z</time>
      </trkpt>
      <trkpt lat="44.91336" lon="8.0373">
        <ele>158.75</ele>
        <time>2016-10-06T11:01:22Z</time>
      </trkpt>
      <trkpt lat="44.91309" lon="8.03768">
        <ele>159.72</ele>
        <time>2016-10-06T11:01:28Z</time>
      </trkpt>
      <trkpt lat="44.9121" lon="8.03915">
        <ele>158.75</ele>
        <time>2016-10-06T11:01:50Z</time>
      </trkpt>
      <trkpt lat="44.9111" lon="8.04065">
        <ele>156.83</ele>
        <time>2016-10-06T11:02:11Z</time>
      </trkpt>
      <trkpt lat="44.9103" lon="8.04194">
        <ele>157.31</ele>
        <time>2016-10-06T11:02:29Z</time>
      </trkpt>
      <trkpt lat="44.90978" lon="8.04333">
        <ele>156.83</ele>
        <time>2016-10-06T11:02:46Z</time>
      </trkpt>
      <trkpt lat="44.9096" lon="8.04397">
        <ele>156.35</ele>
        <time>2016-10-06T11:02:55Z</time>
      </trkpt>
      <trkpt lat="44.90943" lon="8.0445">
        <ele>156.35</ele>
        <time>2016-10-06T11:03:02Z</time>
      </trkpt>
      <trkpt lat="44.90911" lon="8.04555">
        <ele>157.31</ele>
        <time>2016-10-06T11:03:15Z</time>
      </trkpt>
      <trkpt lat="44.90909" lon="8.04564">
        <ele>157.31</ele>
        <time>2016-10-06T11:03:16Z</time>
      </trkpt>
      <trkpt lat="44.90869" lon="8.0469">
        <ele>157.79</ele>
        <time>2016-10-06T11:03:32Z</time>
      </trkpt>
      <trkpt lat="44.90814" lon="8.04853">
        <ele>156.83</ele>
        <time>2016-10-06T11:03:52Z</time>
      </trkpt>
      <trkpt lat="44.90732" lon="8.05006">
        <ele>155.87</ele>
        <time>2016-10-06T11:04:12Z</time>
      </trkpt>
      <trkpt lat="44.90654" lon="8.05146">
        <ele>156.83</ele>
        <time>2016-10-06T11:04:32Z</time>
      </trkpt>
      <trkpt lat="44.90639" lon="8.05173">
        <ele>155.87</ele>
        <time>2016-10-06T11:04:36Z</time>
      </trkpt>
      <trkpt lat="44.90551" lon="8.05336">
        <ele>155.87</ele>
        <time>2016-10-06T11:04:59Z</time>
      </trkpt>
      <trkpt lat="44.90473" lon="8.05473">
        <ele>156.35</ele>
        <time>2016-10-06T11:05:19Z</time>
      </trkpt>
      <trkpt lat="44.90398" lon="8.05609">
        <ele>156.35</ele>
        <time>2016-10-06T11:05:41Z</time>
      </trkpt>
      <trkpt lat="44.90348" lon="8.05697">
        <ele>155.87</ele>
        <time>2016-10-06T11:05:56Z</time>
      </trkpt>
      <trkpt lat="44.90304" lon="8.05775">
        <ele>159.72</ele>
        <time>2016-10-06T11:06:10Z</time>
      </trkpt>
      <trkpt lat="44.90249" lon="8.05874">
        <ele>159.24</ele>
        <time>2016-10-06T11:06:27Z</time>
      </trkpt>
      <trkpt lat="44.90235" lon="8.05897">
        <ele>159.72</ele>
        <time>2016-10-06T11:06:31Z</time>
      </trkpt>
      <trkpt lat="44.90231" lon="8.05903">
        <ele>159.72</ele>
        <time>2016-10-06T11:06:32Z</time>
      </trkpt>
      <trkpt lat="44.90228" lon="8.05909">
        <ele>159.72</ele>
        <time>2016-10-06T11:06:33Z</time>
      </trkpt>
      <trkpt lat="44.90224" lon="8.05915">
        <ele>159.72</ele>
        <time>2016-10-06T11:06:34Z</time>
      </trkpt>
      <trkpt lat="44.90221" lon="8.05921">
        <ele>160.2</ele>
        <time>2016-10-06T11:06:35Z</time>
      </trkpt>
      <trkpt lat="44.90164" lon="8.06025">
        <ele>160.2</ele>
        <time>2016-10-06T11:06:53Z</time>
      </trkpt>
      <trkpt lat="44.90136" lon="8.06083">
        <ele>161.64</ele>
        <time>2016-10-06T11:07:03Z</time>
      </trkpt>
      <trkpt lat="44.90117" lon="8.06199">
        <ele>161.64</ele>
        <time>2016-10-06T11:07:20Z</time>
      </trkpt>
      <trkpt lat="44.90096" lon="8.06349">
        <ele>160.2</ele>
        <time>2016-10-06T11:07:39Z</time>
      </trkpt>
      <trkpt lat="44.90076" lon="8.06499">
        <ele>159.24</ele>
        <time>2016-10-06T11:07:57Z</time>
      </trkpt>
      <trkpt lat="44.90065" lon="8.06638">
        <ele>155.39</ele>
        <time>2016-10-06T11:08:12Z</time>
      </trkpt>
      <trkpt lat="44.90065" lon="8.06649">
        <ele>155.39</ele>
        <time>2016-10-06T11:08:13Z</time>
      </trkpt>
      <trkpt lat="44.9009" lon="8.06837">
        <ele>152.51</ele>
        <time>2016-10-06T11:08:31Z</time>
      </trkpt>
      <trkpt lat="44.90124" lon="8.07041">
        <ele>151.06</ele>
        <time>2016-10-06T11:08:51Z</time>
      </trkpt>
      <trkpt lat="44.90129" lon="8.07071">
        <ele>152.51</ele>
        <time>2016-10-06T11:08:54Z</time>
      </trkpt>
      <trkpt lat="44.90136" lon="8.07223">
        <ele>152.03</ele>
        <time>2016-10-06T11:09:10Z</time>
      </trkpt>
      <trkpt lat="44.90102" lon="8.07408">
        <ele>150.58</ele>
        <time>2016-10-06T11:09:30Z</time>
      </trkpt>
      <trkpt lat="44.90077" lon="8.07554">
        <ele>151.54</ele>
        <time>2016-10-06T11:09:47Z</time>
      </trkpt>
      <trkpt lat="44.90076" lon="8.07563">
        <ele>152.03</ele>
        <time>2016-10-06T11:09:48Z</time>
      </trkpt>
      <trkpt lat="44.90077" lon="8.0758">
        <ele>151.06</ele>
        <time>2016-10-06T11:09:50Z</time>
      </trkpt>
      <trkpt lat="44.90103" lon="8.07742">
        <ele>150.1</ele>
        <time>2016-10-06T11:10:08Z</time>
      </trkpt>
      <trkpt lat="44.90133" lon="8.07931">
        <ele>150.1</ele>
        <time>2016-10-06T11:10:29Z</time>
      </trkpt>
      <trkpt lat="44.90167" lon="8.08134">
        <ele>148.18</ele>
        <time>2016-10-06T11:10:51Z</time>
      </trkpt>
      <trkpt lat="44.90198" lon="8.08322">
        <ele>149.62</ele>
        <time>2016-10-06T11:11:12Z</time>
      </trkpt>
      <trkpt lat="44.90228" lon="8.08514">
        <ele>150.1</ele>
        <time>2016-10-06T11:11:34Z</time>
      </trkpt>
      <trkpt lat="44.90249" lon="8.08653">
        <ele>149.14</ele>
        <time>2016-10-06T11:11:51Z</time>
      </trkpt>
      <trkpt lat="44.90273" lon="8.08811">
        <ele>148.66</ele>
        <time>2016-10-06T11:12:09Z</time>
      </trkpt>
      <trkpt lat="44.90287" lon="8.08904">
        <ele>143.85</ele>
        <time>2016-10-06T11:12:21Z</time>
      </trkpt>
      <trkpt lat="44.90288" lon="8.08911">
        <ele>149.62</ele>
        <time>2016-10-06T11:12:22Z</time>
      </trkpt>
      <trkpt lat="44.90291" lon="8.08924">
        <ele>148.18</ele>
        <time>2016-10-06T11:12:24Z</time>
      </trkpt>
      <trkpt lat="44.90292" lon="8.08931">
        <ele>147.7</ele>
        <time>2016-10-06T11:12:25Z</time>
      </trkpt>
      <trkpt lat="44.90312" lon="8.09047">
        <ele>148.18</ele>
        <time>2016-10-06T11:12:41Z</time>
      </trkpt>
      <trkpt lat="44.90336" lon="8.09193">
        <ele>147.7</ele>
        <time>2016-10-06T11:12:59Z</time>
      </trkpt>
      <trkpt lat="44.90355" lon="8.0932">
        <ele>147.22</ele>
        <time>2016-10-06T11:13:14Z</time>
      </trkpt>
      <trkpt lat="44.90377" lon="8.09464">
        <ele>148.18</ele>
        <time>2016-10-06T11:13:31Z</time>
      </trkpt>
      <trkpt lat="44.904" lon="8.09604">
        <ele>148.18</ele>
        <time>2016-10-06T11:13:48Z</time>
      </trkpt>
      <trkpt lat="44.90421" lon="8.0974">
        <ele>149.14</ele>
        <time>2016-10-06T11:14:06Z</time>
      </trkpt>
      <trkpt lat="44.90426" lon="8.09883">
        <ele>149.14</ele>
        <time>2016-10-06T11:14:25Z</time>
      </trkpt>
      <trkpt lat="44.90392" lon="8.10017">
        <ele>148.18</ele>
        <time>2016-10-06T11:14:43Z</time>
      </trkpt>
      <trkpt lat="44.90344" lon="8.10165">
        <ele>148.66</ele>
        <time>2016-10-06T11:15:03Z</time>
      </trkpt>
      <trkpt lat="44.90319" lon="8.10244">
        <ele>149.62</ele>
        <time>2016-10-06T11:15:14Z</time>
      </trkpt>
      <trkpt lat="44.90316" lon="8.10248">
        <ele>149.62</ele>
        <time>2016-10-06T11:15:15Z</time>
      </trkpt>
      <trkpt lat="44.90312" lon="8.10252">
        <ele>149.62</ele>
        <time>2016-10-06T11:15:16Z</time>
      </trkpt>
      <trkpt lat="44.90308" lon="8.10255">
        <ele>149.62</ele>
        <time>2016-10-06T11:15:17Z</time>
      </trkpt>
      <trkpt lat="44.90303" lon="8.10257">
        <ele>149.62</ele>
        <time>2016-10-06T11:15:18Z</time>
      </trkpt>
      <trkpt lat="44.90295" lon="8.10264">
        <ele>149.62</ele>
        <time>2016-10-06T11:15:20Z</time>
      </trkpt>
      <trkpt lat="44.90291" lon="8.10269">
        <ele>149.62</ele>
        <time>2016-10-06T11:15:21Z</time>
      </trkpt>
      <trkpt lat="44.90288" lon="8.10275">
        <ele>149.62</ele>
        <time>2016-10-06T11:15:22Z</time>
      </trkpt>
      <trkpt lat="44.90287" lon="8.10282">
        <ele>150.1</ele>
        <time>2016-10-06T11:15:23Z</time>
      </trkpt>
      <trkpt lat="44.90286" lon="8.1029">
        <ele>149.62</ele>
        <time>2016-10-06T11:15:24Z</time>
      </trkpt>
      <trkpt lat="44.90287" lon="8.10297">
        <ele>150.1</ele>
        <time>2016-10-06T11:15:25Z</time>
      </trkpt>
      <trkpt lat="44.90289" lon="8.10304">
        <ele>150.58</ele>
        <time>2016-10-06T11:15:26Z</time>
      </trkpt>
      <trkpt lat="44.90291" lon="8.10311">
        <ele>150.1</ele>
        <time>2016-10-06T11:15:27Z</time>
      </trkpt>
      <trkpt lat="44.90294" lon="8.10325">
        <ele>150.58</ele>
        <time>2016-10-06T11:15:29Z</time>
      </trkpt>
      <trkpt lat="44.90294" lon="8.10331">
        <ele>150.1</ele>
        <time>2016-10-06T11:15:30Z</time>
      </trkpt>
      <trkpt lat="44.90292" lon="8.10337">
        <ele>150.1</ele>
        <time>2016-10-06T11:15:31Z</time>
      </trkpt>
      <trkpt lat="44.90266" lon="8.10418">
        <ele>151.54</ele>
        <time>2016-10-06T11:15:47Z</time>
      </trkpt>
      <trkpt lat="44.90235" lon="8.10512">
        <ele>154.43</ele>
        <time>2016-10-06T11:16:07Z</time>
      </trkpt>
      <trkpt lat="44.90213" lon="8.10586">
        <ele>156.83</ele>
        <time>2016-10-06T11:16:24Z</time>
      </trkpt>
      <trkpt lat="44.90188" lon="8.10662">
        <ele>158.75</ele>
        <time>2016-10-06T11:16:42Z</time>
      </trkpt>
      <trkpt lat="44.90163" lon="8.10746">
        <ele>160.2</ele>
        <time>2016-10-06T11:17:01Z</time>
      </trkpt>
      <trkpt lat="44.9014" lon="8.10821">
        <ele>161.16</ele>
        <time>2016-10-06T11:17:17Z</time>
      </trkpt>
      <trkpt lat="44.90109" lon="8.1092">
        <ele>163.56</ele>
        <time>2016-10-06T11:17:37Z</time>
      </trkpt>
      <trkpt lat="44.90076" lon="8.11023">
        <ele>165</ele>
        <time>2016-10-06T11:17:58Z</time>
      </trkpt>
      <trkpt lat="44.90051" lon="8.11099">
        <ele>167.89</ele>
        <time>2016-10-06T11:18:15Z</time>
      </trkpt>
      <trkpt lat="44.90039" lon="8.11142">
        <ele>169.81</ele>
        <time>2016-10-06T11:18:28Z</time>
      </trkpt>
      <trkpt lat="44.90038" lon="8.11145">
        <ele>169.81</ele>
        <time>2016-10-06T11:18:30Z</time>
      </trkpt>
      <trkpt lat="44.90038" lon="8.11147">
        <ele>170.29</ele>
        <time>2016-10-06T11:18:46Z</time>
      </trkpt>
      <trkpt lat="44.90037" lon="8.11151">
        <ele>169.81</ele>
        <time>2016-10-06T11:19:04Z</time>
      </trkpt>
      <trkpt lat="44.90039" lon="8.11155">
        <ele>169.33</ele>
        <time>2016-10-06T11:19:40Z</time>
      </trkpt>
      <trkpt lat="44.90036" lon="8.11155">
        <ele>169.33</ele>
        <time>2016-10-06T11:20:16Z</time>
      </trkpt>
      <trkpt lat="44.90036" lon="8.11153">
        <ele>169.81</ele>
        <time>2016-10-06T11:20:48Z</time>
      </trkpt>
      <trkpt lat="44.90037" lon="8.11151">
        <ele>169.33</ele>
        <time>2016-10-06T11:21:30Z</time>
      </trkpt>
      <trkpt lat="44.90038" lon="8.11152">
        <ele>169.33</ele>
        <time>2016-10-06T11:22:16Z</time>
      </trkpt>
      <trkpt lat="44.90034" lon="8.11151">
        <ele>169.33</ele>
        <time>2016-10-06T11:22:48Z</time>
      </trkpt>
      <trkpt lat="44.90036" lon="8.11153">
        <ele>169.33</ele>
        <time>2016-10-06T11:23:28Z</time>
      </trkpt>
      <trkpt lat="44.90037" lon="8.11153">
        <ele>170.29</ele>
        <time>2016-10-06T11:24:14Z</time>
      </trkpt>
      <trkpt lat="44.90036" lon="8.11152">
        <ele>168.85</ele>
        <time>2016-10-06T11:24:54Z</time>
      </trkpt>
      <trkpt lat="44.90038" lon="8.11153">
        <ele>169.33</ele>
        <time>2016-10-06T11:25:20Z</time>
      </trkpt>
      <trkpt lat="44.90037" lon="8.11152">
        <ele>169.81</ele>
        <time>2016-10-06T11:25:45Z</time>
      </trkpt>
      <trkpt lat="44.90036" lon="8.11147">
        <ele>169.33</ele>
        <time>2016-10-06T11:26:18Z</time>
      </trkpt>
      <trkpt lat="44.90036" lon="8.11148">
        <ele>169.81</ele>
        <time>2016-10-06T11:26:52Z</time>
      </trkpt>
      <trkpt lat="44.90036" lon="8.11151">
        <ele>169.81</ele>
        <time>2016-10-06T11:27:25Z</time>
      </trkpt>
      <trkpt lat="44.90039" lon="8.11153">
        <ele>169.33</ele>
        <time>2016-10-06T11:27:52Z</time>
      </trkpt>
      <trkpt lat="44.90039" lon="8.1115">
        <ele>169.33</ele>
        <time>2016-10-06T11:28:20Z</time>
      </trkpt>
      <trkpt lat="44.90039" lon="8.11151">
        <ele>169.81</ele>
        <time>2016-10-06T11:28:29Z</time>
      </trkpt>
      <trkpt lat="44.9004" lon="8.11153">
        <ele>168.85</ele>
        <time>2016-10-06T11:28:31Z</time>
      </trkpt>
      <trkpt lat="44.90041" lon="8.11154">
        <ele>168.85</ele>
        <time>2016-10-06T11:28:32Z</time>
      </trkpt>
      <trkpt lat="44.90041" lon="8.11156">
        <ele>169.33</ele>
        <time>2016-10-06T11:28:33Z</time>
      </trkpt>
      <trkpt lat="44.90041" lon="8.11159">
        <ele>169.33</ele>
        <time>2016-10-06T11:28:34Z</time>
      </trkpt>
      <trkpt lat="44.90041" lon="8.11161">
        <ele>169.81</ele>
        <time>2016-10-06T11:28:35Z</time>
      </trkpt>
      <trkpt lat="44.9004" lon="8.11164">
        <ele>170.29</ele>
        <time>2016-10-06T11:28:36Z</time>
      </trkpt>
      <trkpt lat="44.9004" lon="8.11168">
        <ele>170.29</ele>
        <time>2016-10-06T11:28:37Z</time>
      </trkpt>
      <trkpt lat="44.9004" lon="8.11171">
        <ele>170.29</ele>
        <time>2016-10-06T11:28:38Z</time>
      </trkpt>
      <trkpt lat="44.9005" lon="8.11253">
        <ele>171.25</ele>
        <time>2016-10-06T11:28:57Z</time>
      </trkpt>
      <trkpt lat="44.90061" lon="8.11334">
        <ele>171.25</ele>
        <time>2016-10-06T11:29:16Z</time>
      </trkpt>
      <trkpt lat="44.90075" lon="8.11436">
        <ele>172.69</ele>
        <time>2016-10-06T11:29:37Z</time>
      </trkpt>
      <trkpt lat="44.90082" lon="8.11487">
        <ele>170.77</ele>
        <time>2016-10-06T11:29:43Z</time>
      </trkpt>
      <trkpt lat="44.90095" lon="8.11574">
        <ele>167.41</ele>
        <time>2016-10-06T11:29:51Z</time>
      </trkpt>
      <trkpt lat="44.901" lon="8.1161">
        <ele>166.45</ele>
        <time>2016-10-06T11:29:54Z</time>
      </trkpt>
      <trkpt lat="44.90107" lon="8.11662">
        <ele>162.6</ele>
        <time>2016-10-06T11:29:58Z</time>
      </trkpt>
      <trkpt lat="44.90109" lon="8.11676">
        <ele>162.6</ele>
        <time>2016-10-06T11:29:59Z</time>
      </trkpt>
      <trkpt lat="44.90123" lon="8.11776">
        <ele>159.24</ele>
        <time>2016-10-06T11:30:06Z</time>
      </trkpt>
      <trkpt lat="44.90148" lon="8.11959">
        <ele>158.75</ele>
        <time>2016-10-06T11:30:20Z</time>
      </trkpt>
      <trkpt lat="44.90155" lon="8.12033">
        <ele>161.64</ele>
        <time>2016-10-06T11:30:29Z</time>
      </trkpt>
      <trkpt lat="44.90154" lon="8.12039">
        <ele>162.12</ele>
        <time>2016-10-06T11:30:30Z</time>
      </trkpt>
      <trkpt lat="44.90138" lon="8.12084">
        <ele>164.52</ele>
        <time>2016-10-06T11:30:43Z</time>
      </trkpt>
      <trkpt lat="44.90112" lon="8.12148">
        <ele>166.93</ele>
        <time>2016-10-06T11:31:03Z</time>
      </trkpt>
      <trkpt lat="44.9009" lon="8.12192">
        <ele>169.33</ele>
        <time>2016-10-06T11:31:18Z</time>
      </trkpt>
      <trkpt lat="44.90069" lon="8.12249">
        <ele>171.73</ele>
        <time>2016-10-06T11:31:35Z</time>
      </trkpt>
      <trkpt lat="44.90046" lon="8.12301">
        <ele>172.21</ele>
        <time>2016-10-06T11:31:49Z</time>
      </trkpt>
      <trkpt lat="44.90008" lon="8.12394">
        <ele>174.14</ele>
        <time>2016-10-06T11:32:12Z</time>
      </trkpt>
      <trkpt lat="44.89967" lon="8.12491">
        <ele>172.69</ele>
        <time>2016-10-06T11:32:29Z</time>
      </trkpt>
      <trkpt lat="44.89913" lon="8.1262">
        <ele>172.21</ele>
        <time>2016-10-06T11:32:48Z</time>
      </trkpt>
      <trkpt lat="44.89863" lon="8.1274">
        <ele>172.21</ele>
        <time>2016-10-06T11:33:05Z</time>
      </trkpt>
      <trkpt lat="44.89812" lon="8.12861">
        <ele>172.21</ele>
        <time>2016-10-06T11:33:22Z</time>
      </trkpt>
      <trkpt lat="44.8975" lon="8.13006">
        <ele>172.69</ele>
        <time>2016-10-06T11:33:43Z</time>
      </trkpt>
      <trkpt lat="44.89713" lon="8.13094">
        <ele>175.1</ele>
        <time>2016-10-06T11:33:57Z</time>
      </trkpt>
      <trkpt lat="44.89706" lon="8.13189">
        <ele>176.06</ele>
        <time>2016-10-06T11:34:11Z</time>
      </trkpt>
      <trkpt lat="44.89723" lon="8.13293">
        <ele>178.46</ele>
        <time>2016-10-06T11:34:28Z</time>
      </trkpt>
      <trkpt lat="44.89744" lon="8.13421">
        <ele>178.46</ele>
        <time>2016-10-06T11:34:47Z</time>
      </trkpt>
      <trkpt lat="44.89763" lon="8.13552">
        <ele>178.46</ele>
        <time>2016-10-06T11:35:05Z</time>
      </trkpt>
      <trkpt lat="44.89781" lon="8.13666">
        <ele>174.62</ele>
        <time>2016-10-06T11:35:18Z</time>
      </trkpt>
      <trkpt lat="44.89792" lon="8.13734">
        <ele>170.29</ele>
        <time>2016-10-06T11:35:24Z</time>
      </trkpt>
      <trkpt lat="44.89794" lon="8.13747">
        <ele>170.29</ele>
        <time>2016-10-06T11:35:25Z</time>
      </trkpt>
      <trkpt lat="44.89817" lon="8.13902">
        <ele>167.41</ele>
        <time>2016-10-06T11:35:37Z</time>
      </trkpt>
      <trkpt lat="44.89847" lon="8.14085">
        <ele>167.41</ele>
        <time>2016-10-06T11:35:53Z</time>
      </trkpt>
      <trkpt lat="44.89853" lon="8.14131">
        <ele>165</ele>
        <time>2016-10-06T11:35:57Z</time>
      </trkpt>
      <trkpt lat="44.89857" lon="8.14157">
        <ele>164.04</ele>
        <time>2016-10-06T11:35:59Z</time>
      </trkpt>
      <trkpt lat="44.89863" lon="8.14197">
        <ele>160.68</ele>
        <time>2016-10-06T11:36:02Z</time>
      </trkpt>
      <trkpt lat="44.89874" lon="8.14267">
        <ele>157.31</ele>
        <time>2016-10-06T11:36:07Z</time>
      </trkpt>
      <trkpt lat="44.89885" lon="8.14339">
        <ele>154.91</ele>
        <time>2016-10-06T11:36:12Z</time>
      </trkpt>
      <trkpt lat="44.89904" lon="8.14449">
        <ele>151.54</ele>
        <time>2016-10-06T11:36:20Z</time>
      </trkpt>
      <trkpt lat="44.89908" lon="8.14482">
        <ele>150.58</ele>
        <time>2016-10-06T11:36:23Z</time>
      </trkpt>
      <trkpt lat="44.89907" lon="8.14493">
        <ele>150.58</ele>
        <time>2016-10-06T11:36:24Z</time>
      </trkpt>
      <trkpt lat="44.89905" lon="8.14503">
        <ele>149.62</ele>
        <time>2016-10-06T11:36:25Z</time>
      </trkpt>
      <trkpt lat="44.89899" lon="8.14525">
        <ele>149.14</ele>
        <time>2016-10-06T11:36:27Z</time>
      </trkpt>
      <trkpt lat="44.89898" lon="8.14536">
        <ele>149.14</ele>
        <time>2016-10-06T11:36:28Z</time>
      </trkpt>
      <trkpt lat="44.89899" lon="8.14547">
        <ele>148.66</ele>
        <time>2016-10-06T11:36:29Z</time>
      </trkpt>
      <trkpt lat="44.89902" lon="8.14558">
        <ele>148.66</ele>
        <time>2016-10-06T11:36:30Z</time>
      </trkpt>
      <trkpt lat="44.89907" lon="8.14567">
        <ele>148.18</ele>
        <time>2016-10-06T11:36:31Z</time>
      </trkpt>
      <trkpt lat="44.89913" lon="8.14574">
        <ele>148.66</ele>
        <time>2016-10-06T11:36:32Z</time>
      </trkpt>
      <trkpt lat="44.89918" lon="8.14581">
        <ele>148.18</ele>
        <time>2016-10-06T11:36:33Z</time>
      </trkpt>
      <trkpt lat="44.89922" lon="8.1459">
        <ele>148.18</ele>
        <time>2016-10-06T11:36:34Z</time>
      </trkpt>
      <trkpt lat="44.89925" lon="8.14599">
        <ele>148.18</ele>
        <time>2016-10-06T11:36:35Z</time>
      </trkpt>
      <trkpt lat="44.89926" lon="8.14609">
        <ele>148.66</ele>
        <time>2016-10-06T11:36:36Z</time>
      </trkpt>
      <trkpt lat="44.89928" lon="8.14618">
        <ele>148.18</ele>
        <time>2016-10-06T11:36:37Z</time>
      </trkpt>
      <trkpt lat="44.89944" lon="8.14731">
        <ele>151.06</ele>
        <time>2016-10-06T11:36:51Z</time>
      </trkpt>
      <trkpt lat="44.89946" lon="8.14737">
        <ele>151.06</ele>
        <time>2016-10-06T11:36:52Z</time>
      </trkpt>
      <trkpt lat="44.89961" lon="8.14826">
        <ele>153.95</ele>
        <time>2016-10-06T11:37:08Z</time>
      </trkpt>
      <trkpt lat="44.89976" lon="8.14922">
        <ele>154.43</ele>
        <time>2016-10-06T11:37:24Z</time>
      </trkpt>
      <trkpt lat="44.89994" lon="8.15048">
        <ele>151.54</ele>
        <time>2016-10-06T11:37:39Z</time>
      </trkpt>
      <trkpt lat="44.90011" lon="8.15166">
        <ele>148.66</ele>
        <time>2016-10-06T11:37:50Z</time>
      </trkpt>
      <trkpt lat="44.90012" lon="8.15274">
        <ele>149.62</ele>
        <time>2016-10-06T11:38:00Z</time>
      </trkpt>
      <trkpt lat="44.90011" lon="8.15402">
        <ele>150.58</ele>
        <time>2016-10-06T11:38:15Z</time>
      </trkpt>
      <trkpt lat="44.90011" lon="8.15529">
        <ele>147.7</ele>
        <time>2016-10-06T11:38:27Z</time>
      </trkpt>
      <trkpt lat="44.9001" lon="8.15703">
        <ele>148.18</ele>
        <time>2016-10-06T11:38:44Z</time>
      </trkpt>
      <trkpt lat="44.90017" lon="8.15872">
        <ele>149.62</ele>
        <time>2016-10-06T11:39:04Z</time>
      </trkpt>
      <trkpt lat="44.90046" lon="8.15995">
        <ele>149.62</ele>
        <time>2016-10-06T11:39:20Z</time>
      </trkpt>
      <trkpt lat="44.90074" lon="8.16117">
        <ele>146.26</ele>
        <time>2016-10-06T11:39:34Z</time>
      </trkpt>
      <trkpt lat="44.90114" lon="8.16299">
        <ele>145.3</ele>
        <time>2016-10-06T11:39:53Z</time>
      </trkpt>
      <trkpt lat="44.90169" lon="8.16546">
        <ele>143.85</ele>
        <time>2016-10-06T11:40:19Z</time>
      </trkpt>
      <trkpt lat="44.9021" lon="8.16736">
        <ele>144.34</ele>
        <time>2016-10-06T11:40:40Z</time>
      </trkpt>
      <trkpt lat="44.90214" lon="8.16754">
        <ele>140.97</ele>
        <time>2016-10-06T11:40:42Z</time>
      </trkpt>
      <trkpt lat="44.90216" lon="8.16764">
        <ele>141.45</ele>
        <time>2016-10-06T11:40:43Z</time>
      </trkpt>
      <trkpt lat="44.90253" lon="8.16938">
        <ele>137.13</ele>
        <time>2016-10-06T11:41:01Z</time>
      </trkpt>
      <trkpt lat="44.903" lon="8.17157">
        <ele>134.24</ele>
        <time>2016-10-06T11:41:23Z</time>
      </trkpt>
      <trkpt lat="44.9032" lon="8.17244">
        <ele>131.84</ele>
        <time>2016-10-06T11:41:31Z</time>
      </trkpt>
      <trkpt lat="44.90358" lon="8.1741">
        <ele>128.95</ele>
        <time>2016-10-06T11:41:46Z</time>
      </trkpt>
      <trkpt lat="44.90396" lon="8.17588">
        <ele>125.59</ele>
        <time>2016-10-06T11:42:02Z</time>
      </trkpt>
      <trkpt lat="44.90435" lon="8.17767">
        <ele>123.67</ele>
        <time>2016-10-06T11:42:20Z</time>
      </trkpt>
      <trkpt lat="44.90468" lon="8.17921">
        <ele>123.67</ele>
        <time>2016-10-06T11:42:37Z</time>
      </trkpt>
      <trkpt lat="44.90496" lon="8.18051">
        <ele>124.63</ele>
        <time>2016-10-06T11:42:53Z</time>
      </trkpt>
      <trkpt lat="44.90496" lon="8.18057">
        <ele>123.67</ele>
        <time>2016-10-06T11:42:54Z</time>
      </trkpt>
      <trkpt lat="44.90496" lon="8.18065">
        <ele>123.67</ele>
        <time>2016-10-06T11:42:55Z</time>
      </trkpt>
      <trkpt lat="44.90495" lon="8.1808">
        <ele>123.67</ele>
        <time>2016-10-06T11:42:57Z</time>
      </trkpt>
      <trkpt lat="44.90495" lon="8.18087">
        <ele>124.15</ele>
        <time>2016-10-06T11:42:58Z</time>
      </trkpt>
      <trkpt lat="44.90497" lon="8.18095">
        <ele>123.67</ele>
        <time>2016-10-06T11:42:59Z</time>
      </trkpt>
      <trkpt lat="44.905" lon="8.18101">
        <ele>124.63</ele>
        <time>2016-10-06T11:43:00Z</time>
      </trkpt>
      <trkpt lat="44.90504" lon="8.18107">
        <ele>124.63</ele>
        <time>2016-10-06T11:43:01Z</time>
      </trkpt>
      <trkpt lat="44.90508" lon="8.18112">
        <ele>123.67</ele>
        <time>2016-10-06T11:43:02Z</time>
      </trkpt>
      <trkpt lat="44.9051" lon="8.18119">
        <ele>124.15</ele>
        <time>2016-10-06T11:43:03Z</time>
      </trkpt>
      <trkpt lat="44.90512" lon="8.18126">
        <ele>124.63</ele>
        <time>2016-10-06T11:43:04Z</time>
      </trkpt>
      <trkpt lat="44.90514" lon="8.18133">
        <ele>124.63</ele>
        <time>2016-10-06T11:43:05Z</time>
      </trkpt>
      <trkpt lat="44.90515" lon="8.18141">
        <ele>124.15</ele>
        <time>2016-10-06T11:43:06Z</time>
      </trkpt>
      <trkpt lat="44.90539" lon="8.18246">
        <ele>123.67</ele>
        <time>2016-10-06T11:43:19Z</time>
      </trkpt>
      <trkpt lat="44.90551" lon="8.18305">
        <ele>123.19</ele>
        <time>2016-10-06T11:43:26Z</time>
      </trkpt>
      <trkpt lat="44.90569" lon="8.18383">
        <ele>124.15</ele>
        <time>2016-10-06T11:43:37Z</time>
      </trkpt>
      <trkpt lat="44.90587" lon="8.18451">
        <ele>127.03</ele>
        <time>2016-10-06T11:43:51Z</time>
      </trkpt>
      <trkpt lat="44.90588" lon="8.18455">
        <ele>127.51</ele>
        <time>2016-10-06T11:43:52Z</time>
      </trkpt>
      <trkpt lat="44.90597" lon="8.18501">
        <ele>127.99</ele>
        <time>2016-10-06T11:44:03Z</time>
      </trkpt>
      <trkpt lat="44.90587" lon="8.18553">
        <ele>128.95</ele>
        <time>2016-10-06T11:44:14Z</time>
      </trkpt>
      <trkpt lat="44.90563" lon="8.18599">
        <ele>129.43</ele>
        <time>2016-10-06T11:44:25Z</time>
      </trkpt>
      <trkpt lat="44.90511" lon="8.18671">
        <ele>129.43</ele>
        <time>2016-10-06T11:44:40Z</time>
      </trkpt>
      <trkpt lat="44.90463" lon="8.18736">
        <ele>128.95</ele>
        <time>2016-10-06T11:44:53Z</time>
      </trkpt>
      <trkpt lat="44.90446" lon="8.18763">
        <ele>128.95</ele>
        <time>2016-10-06T11:44:58Z</time>
      </trkpt>
      <trkpt lat="44.90421" lon="8.18801">
        <ele>128.47</ele>
        <time>2016-10-06T11:45:05Z</time>
      </trkpt>
      <trkpt lat="44.90375" lon="8.18868">
        <ele>129.43</ele>
        <time>2016-10-06T11:45:18Z</time>
      </trkpt>
      <trkpt lat="44.90323" lon="8.18947">
        <ele>127.99</ele>
        <time>2016-10-06T11:45:33Z</time>
      </trkpt>
      <trkpt lat="44.9032" lon="8.18951">
        <ele>128.47</ele>
        <time>2016-10-06T11:45:34Z</time>
      </trkpt>
      <trkpt lat="44.90314" lon="8.18959">
        <ele>128.47</ele>
        <time>2016-10-06T11:45:36Z</time>
      </trkpt>
      <trkpt lat="44.90311" lon="8.18964">
        <ele>127.99</ele>
        <time>2016-10-06T11:45:37Z</time>
      </trkpt>
      <trkpt lat="44.90292" lon="8.18993">
        <ele>128.47</ele>
        <time>2016-10-06T11:45:43Z</time>
      </trkpt>
      <trkpt lat="44.90282" lon="8.19007">
        <ele>127.99</ele>
        <time>2016-10-06T11:45:46Z</time>
      </trkpt>
      <trkpt lat="44.90267" lon="8.19028">
        <ele>128.47</ele>
        <time>2016-10-06T11:45:50Z</time>
      </trkpt>
      <trkpt lat="44.9022" lon="8.19086">
        <ele>127.99</ele>
        <time>2016-10-06T11:46:03Z</time>
      </trkpt>
      <trkpt lat="44.90214" lon="8.19095">
        <ele>127.99</ele>
        <time>2016-10-06T11:46:05Z</time>
      </trkpt>
      <trkpt lat="44.90205" lon="8.19111">
        <ele>127.99</ele>
        <time>2016-10-06T11:46:08Z</time>
      </trkpt>
      <trkpt lat="44.90202" lon="8.19117">
        <ele>127.51</ele>
        <time>2016-10-06T11:46:09Z</time>
      </trkpt>
      <trkpt lat="44.90198" lon="8.19122">
        <ele>127.99</ele>
        <time>2016-10-06T11:46:10Z</time>
      </trkpt>
      <trkpt lat="44.90194" lon="8.19127">
        <ele>128.47</ele>
        <time>2016-10-06T11:46:11Z</time>
      </trkpt>
      <trkpt lat="44.9019" lon="8.19131">
        <ele>127.99</ele>
        <time>2016-10-06T11:46:12Z</time>
      </trkpt>
      <trkpt lat="44.90187" lon="8.19136">
        <ele>127.51</ele>
        <time>2016-10-06T11:46:13Z</time>
      </trkpt>
      <trkpt lat="44.90176" lon="8.19152">
        <ele>127.99</ele>
        <time>2016-10-06T11:46:16Z</time>
      </trkpt>
      <trkpt lat="44.9017" lon="8.19163">
        <ele>127.99</ele>
        <time>2016-10-06T11:46:18Z</time>
      </trkpt>
      <trkpt lat="44.90116" lon="8.19244">
        <ele>127.51</ele>
        <time>2016-10-06T11:46:33Z</time>
      </trkpt>
      <trkpt lat="44.90065" lon="8.19313">
        <ele>127.51</ele>
        <time>2016-10-06T11:46:47Z</time>
      </trkpt>
      <trkpt lat="44.9003" lon="8.19345">
        <ele>126.55</ele>
        <time>2016-10-06T11:46:59Z</time>
      </trkpt>
      <trkpt lat="44.89984" lon="8.19333">
        <ele>126.55</ele>
        <time>2016-10-06T11:47:13Z</time>
      </trkpt>
      <trkpt lat="44.89973" lon="8.19332">
        <ele>126.07</ele>
        <time>2016-10-06T11:47:16Z</time>
      </trkpt>
      <trkpt lat="44.89969" lon="8.19333">
        <ele>126.55</ele>
        <time>2016-10-06T11:47:17Z</time>
      </trkpt>
      <trkpt lat="44.89941" lon="8.19336">
        <ele>125.11</ele>
        <time>2016-10-06T11:47:28Z</time>
      </trkpt>
      <trkpt lat="44.89933" lon="8.19341">
        <ele>125.59</ele>
        <time>2016-10-06T11:47:58Z</time>
      </trkpt>
      <trkpt lat="44.89925" lon="8.19342">
        <ele>125.59</ele>
        <time>2016-10-06T11:48:18Z</time>
      </trkpt>
      <trkpt lat="44.89924" lon="8.19342">
        <ele>126.07</ele>
        <time>2016-10-06T11:48:19Z</time>
      </trkpt>
      <trkpt lat="44.89922" lon="8.19341">
        <ele>125.59</ele>
        <time>2016-10-06T11:48:20Z</time>
      </trkpt>
      <trkpt lat="44.89907" lon="8.19346">
        <ele>125.11</ele>
        <time>2016-10-06T11:48:31Z</time>
      </trkpt>
      <trkpt lat="44.89905" lon="8.19366">
        <ele>125.59</ele>
        <time>2016-10-06T11:48:38Z</time>
      </trkpt>
      <trkpt lat="44.89906" lon="8.19371">
        <ele>126.07</ele>
        <time>2016-10-06T11:48:39Z</time>
      </trkpt>
      <trkpt lat="44.89906" lon="8.19374">
        <ele>125.59</ele>
        <time>2016-10-06T11:48:40Z</time>
      </trkpt>
      <trkpt lat="44.89906" lon="8.19376">
        <ele>126.07</ele>
        <time>2016-10-06T11:48:41Z</time>
      </trkpt>
      <trkpt lat="44.89905" lon="8.19379">
        <ele>126.55</ele>
        <time>2016-10-06T11:48:42Z</time>
      </trkpt>
      <trkpt lat="44.89904" lon="8.19382">
        <ele>126.07</ele>
        <time>2016-10-06T11:48:43Z</time>
      </trkpt>
      <trkpt lat="44.89904" lon="8.19386">
        <ele>126.07</ele>
        <time>2016-10-06T11:48:44Z</time>
      </trkpt>
      <trkpt lat="44.89903" lon="8.19389">
        <ele>126.07</ele>
        <time>2016-10-06T11:48:45Z</time>
      </trkpt>
      <trkpt lat="44.89902" lon="8.19392">
        <ele>126.55</ele>
        <time>2016-10-06T11:48:46Z</time>
      </trkpt>
      <trkpt lat="44.89902" lon="8.19395">
        <ele>126.55</ele>
        <time>2016-10-06T11:48:47Z</time>
      </trkpt>
      <trkpt lat="44.89901" lon="8.19399">
        <ele>125.59</ele>
        <time>2016-10-06T11:48:48Z</time>
      </trkpt>
      <trkpt lat="44.89901" lon="8.19403">
        <ele>126.07</ele>
        <time>2016-10-06T11:48:49Z</time>
      </trkpt>
      <trkpt lat="44.89894" lon="8.19448">
        <ele>127.03</ele>
        <time>2016-10-06T11:49:00Z</time>
      </trkpt>
      <trkpt lat="44.89884" lon="8.19492">
        <ele>127.99</ele>
        <time>2016-10-06T11:49:11Z</time>
      </trkpt>
      <trkpt lat="44.89882" lon="8.19495">
        <ele>127.99</ele>
        <time>2016-10-06T11:49:12Z</time>
      </trkpt>
      <trkpt lat="44.89879" lon="8.19504">
        <ele>128.47</ele>
        <time>2016-10-06T11:49:15Z</time>
      </trkpt>
      <trkpt lat="44.89877" lon="8.19507">
        <ele>128.95</ele>
        <time>2016-10-06T11:49:16Z</time>
      </trkpt>
      <trkpt lat="44.89875" lon="8.1951">
        <ele>128.95</ele>
        <time>2016-10-06T11:49:17Z</time>
      </trkpt>
      <trkpt lat="44.89873" lon="8.19513">
        <ele>128.47</ele>
        <time>2016-10-06T11:49:18Z</time>
      </trkpt>
      <trkpt lat="44.89872" lon="8.19516">
        <ele>128.95</ele>
        <time>2016-10-06T11:49:19Z</time>
      </trkpt>
      <trkpt lat="44.89872" lon="8.19519">
        <ele>128.95</ele>
        <time>2016-10-06T11:49:20Z</time>
      </trkpt>
      <trkpt lat="44.89871" lon="8.19522">
        <ele>128.95</ele>
        <time>2016-10-06T11:49:21Z</time>
      </trkpt>
      <trkpt lat="44.8987" lon="8.19525">
        <ele>129.43</ele>
        <time>2016-10-06T11:49:22Z</time>
      </trkpt>
      <trkpt lat="44.89866" lon="8.19556">
        <ele>130.4</ele>
        <time>2016-10-06T11:49:30Z</time>
      </trkpt>
      <trkpt lat="44.89856" lon="8.19581">
        <ele>130.88</ele>
        <time>2016-10-06T11:49:38Z</time>
      </trkpt>
      <trkpt lat="44.89856" lon="8.19584">
        <ele>130.88</ele>
        <time>2016-10-06T11:49:39Z</time>
      </trkpt>
      <trkpt lat="44.89856" lon="8.19593">
        <ele>131.36</ele>
        <time>2016-10-06T11:49:42Z</time>
      </trkpt>
      <trkpt lat="44.89858" lon="8.19597">
        <ele>131.84</ele>
        <time>2016-10-06T11:49:43Z</time>
      </trkpt>
      <trkpt lat="44.8986" lon="8.196">
        <ele>131.84</ele>
        <time>2016-10-06T11:49:44Z</time>
      </trkpt>
      <trkpt lat="44.89863" lon="8.19603">
        <ele>131.84</ele>
        <time>2016-10-06T11:49:45Z</time>
      </trkpt>
      <trkpt lat="44.89866" lon="8.19605">
        <ele>131.36</ele>
        <time>2016-10-06T11:49:46Z</time>
      </trkpt>
      <trkpt lat="44.89869" lon="8.19606">
        <ele>131.36</ele>
        <time>2016-10-06T11:49:47Z</time>
      </trkpt>
      <trkpt lat="44.89884" lon="8.19612">
        <ele>133.28</ele>
        <time>2016-10-06T11:49:57Z</time>
      </trkpt>
      <trkpt lat="44.89886" lon="8.19612">
        <ele>132.8</ele>
        <time>2016-10-06T11:50:00Z</time>
      </trkpt>
      <trkpt lat="44.8989" lon="8.19613">
        <ele>133.28</ele>
        <time>2016-10-06T11:50:03Z</time>
      </trkpt>
      <trkpt lat="44.89891" lon="8.19614">
        <ele>133.76</ele>
        <time>2016-10-06T11:50:04Z</time>
      </trkpt>
      <trkpt lat="44.89893" lon="8.19615">
        <ele>133.76</ele>
        <time>2016-10-06T11:50:05Z</time>
      </trkpt>
      <trkpt lat="44.89895" lon="8.19615">
        <ele>133.76</ele>
        <time>2016-10-06T11:50:06Z</time>
      </trkpt>
      <trkpt lat="44.89897" lon="8.19616">
        <ele>133.76</ele>
        <time>2016-10-06T11:50:07Z</time>
      </trkpt>
      <trkpt lat="44.89927" lon="8.19638">
        <ele>134.24</ele>
        <time>2016-10-06T11:50:16Z</time>
      </trkpt>
      <trkpt lat="44.8993" lon="8.19639">
        <ele>133.76</ele>
        <time>2016-10-06T11:50:17Z</time>
      </trkpt>
      <trkpt lat="44.89933" lon="8.19639">
        <ele>133.76</ele>
        <time>2016-10-06T11:50:18Z</time>
      </trkpt>
      <trkpt lat="44.89935" lon="8.19641">
        <ele>134.24</ele>
        <time>2016-10-06T11:50:19Z</time>
      </trkpt>
      <trkpt lat="44.89943" lon="8.19669">
        <ele>134.24</ele>
        <time>2016-10-06T11:50:28Z</time>
      </trkpt>
      <trkpt lat="44.89947" lon="8.19714">
        <ele>134.72</ele>
        <time>2016-10-06T11:50:41Z</time>
      </trkpt>
      <trkpt lat="44.89954" lon="8.19745">
        <ele>134.24</ele>
        <time>2016-10-06T11:50:51Z</time>
      </trkpt>
      <trkpt lat="44.89956" lon="8.19752">
        <ele>133.28</ele>
        <time>2016-10-06T11:50:56Z</time>
      </trkpt>
      <trkpt lat="44.89959" lon="8.19756">
        <ele>133.28</ele>
        <time>2016-10-06T11:51:01Z</time>
      </trkpt>
      <trkpt lat="44.90001" lon="8.19745">
        <ele>133.76</ele>
        <time>2016-10-06T11:51:16Z</time>
      </trkpt>
      <trkpt lat="44.90027" lon="8.19762">
        <ele>133.28</ele>
        <time>2016-10-06T11:51:26Z</time>
      </trkpt>
      <trkpt lat="44.90036" lon="8.19771">
        <ele>132.8</ele>
        <time>2016-10-06T11:51:31Z</time>
      </trkpt>
      <trkpt lat="44.90037" lon="8.19773">
        <ele>132.8</ele>
        <time>2016-10-06T11:51:32Z</time>
      </trkpt>
      <trkpt lat="44.90038" lon="8.19776">
        <ele>133.28</ele>
        <time>2016-10-06T11:51:33Z</time>
      </trkpt>
      <trkpt lat="44.90039" lon="8.19778">
        <ele>133.28</ele>
        <time>2016-10-06T11:51:34Z</time>
      </trkpt>
      <trkpt lat="44.9004" lon="8.19781">
        <ele>133.76</ele>
        <time>2016-10-06T11:51:35Z</time>
      </trkpt>
      <trkpt lat="44.90041" lon="8.19784">
        <ele>133.76</ele>
        <time>2016-10-06T11:51:36Z</time>
      </trkpt>
      <trkpt lat="44.90041" lon="8.19788">
        <ele>133.76</ele>
        <time>2016-10-06T11:51:37Z</time>
      </trkpt>
      <trkpt lat="44.90048" lon="8.19833">
        <ele>133.76</ele>
        <time>2016-10-06T11:51:51Z</time>
      </trkpt>
      <trkpt lat="44.90053" lon="8.19858">
        <ele>133.76</ele>
        <time>2016-10-06T11:51:58Z</time>
      </trkpt>
      <trkpt lat="44.90054" lon="8.19859">
        <ele>133.28</ele>
        <time>2016-10-06T11:51:59Z</time>
      </trkpt>
      <trkpt lat="44.90058" lon="8.19859">
        <ele>133.28</ele>
        <time>2016-10-06T11:52:02Z</time>
      </trkpt>
      <trkpt lat="44.90064" lon="8.19864">
        <ele>133.28</ele>
        <time>2016-10-06T11:52:05Z</time>
      </trkpt>
      <trkpt lat="44.90082" lon="8.1991">
        <ele>133.28</ele>
        <time>2016-10-06T11:52:17Z</time>
      </trkpt>
      <trkpt lat="44.90087" lon="8.19922">
        <ele>133.28</ele>
        <time>2016-10-06T11:52:22Z</time>
      </trkpt>
      <trkpt lat="44.90088" lon="8.19925">
        <ele>133.76</ele>
        <time>2016-10-06T11:52:23Z</time>
      </trkpt>
      <trkpt lat="44.9009" lon="8.1993">
        <ele>133.28</ele>
        <time>2016-10-06T11:52:24Z</time>
      </trkpt>
      <trkpt lat="44.90112" lon="8.20006">
        <ele>132.8</ele>
        <time>2016-10-06T11:52:40Z</time>
      </trkpt>
      <trkpt lat="44.90105" lon="8.20015">
        <ele>132.32</ele>
        <time>2016-10-06T11:52:46Z</time>
      </trkpt>
      <trkpt lat="44.90105" lon="8.20017">
        <ele>132.32</ele>
        <time>2016-10-06T11:52:47Z</time>
      </trkpt>
      <trkpt lat="44.90109" lon="8.2005">
        <ele>132.32</ele>
        <time>2016-10-06T11:52:58Z</time>
      </trkpt>
      <trkpt lat="44.90125" lon="8.20128">
        <ele>132.32</ele>
        <time>2016-10-06T11:53:12Z</time>
      </trkpt>
      <trkpt lat="44.90122" lon="8.20136">
        <ele>131.84</ele>
        <time>2016-10-06T11:53:17Z</time>
      </trkpt>
      <trkpt lat="44.90121" lon="8.20136">
        <ele>131.36</ele>
        <time>2016-10-06T11:53:18Z</time>
      </trkpt>
      <trkpt lat="44.90119" lon="8.20136">
        <ele>131.84</ele>
        <time>2016-10-06T11:53:19Z</time>
      </trkpt>
      <trkpt lat="44.90117" lon="8.20136">
        <ele>132.8</ele>
        <time>2016-10-06T11:53:20Z</time>
      </trkpt>
      <trkpt lat="44.90115" lon="8.20137">
        <ele>132.32</ele>
        <time>2016-10-06T11:53:21Z</time>
      </trkpt>
      <trkpt lat="44.90113" lon="8.20137">
        <ele>132.32</ele>
        <time>2016-10-06T11:53:22Z</time>
      </trkpt>
      <trkpt lat="44.90111" lon="8.20139">
        <ele>132.32</ele>
        <time>2016-10-06T11:53:23Z</time>
      </trkpt>
      <trkpt lat="44.90108" lon="8.2014">
        <ele>132.32</ele>
        <time>2016-10-06T11:53:24Z</time>
      </trkpt>
      <trkpt lat="44.90106" lon="8.20141">
        <ele>132.32</ele>
        <time>2016-10-06T11:53:25Z</time>
      </trkpt>
      <trkpt lat="44.9006" lon="8.20153">
        <ele>132.8</ele>
        <time>2016-10-06T11:53:39Z</time>
      </trkpt>
      <trkpt lat="44.90052" lon="8.20152">
        <ele>132.8</ele>
        <time>2016-10-06T11:53:41Z</time>
      </trkpt>
      <trkpt lat="44.90049" lon="8.20152">
        <ele>132.8</ele>
        <time>2016-10-06T11:53:42Z</time>
      </trkpt>
      <trkpt lat="44.90048" lon="8.20154">
        <ele>133.28</ele>
        <time>2016-10-06T11:53:43Z</time>
      </trkpt>
      <trkpt lat="44.90048" lon="8.20157">
        <ele>133.28</ele>
        <time>2016-10-06T11:53:44Z</time>
      </trkpt>
      <trkpt lat="44.90047" lon="8.20162">
        <ele>132.8</ele>
        <time>2016-10-06T11:53:45Z</time>
      </trkpt>
      <trkpt lat="44.90047" lon="8.20168">
        <ele>132.8</ele>
        <time>2016-10-06T11:53:46Z</time>
      </trkpt>
      <trkpt lat="44.90048" lon="8.20173">
        <ele>132.32</ele>
        <time>2016-10-06T11:53:47Z</time>
      </trkpt>
      <trkpt lat="44.90047" lon="8.20184">
        <ele>132.32</ele>
        <time>2016-10-06T11:53:50Z</time>
      </trkpt>
      <trkpt lat="44.90045" lon="8.20186">
        <ele>132.32</ele>
        <time>2016-10-06T11:53:51Z</time>
      </trkpt>
      <trkpt lat="44.90045" lon="8.20189">
        <ele>132.32</ele>
        <time>2016-10-06T11:53:52Z</time>
      </trkpt>
      <trkpt lat="44.90044" lon="8.20192">
        <ele>132.32</ele>
        <time>2016-10-06T11:53:53Z</time>
      </trkpt>
      <trkpt lat="44.90043" lon="8.20194">
        <ele>132.8</ele>
        <time>2016-10-06T11:53:54Z</time>
      </trkpt>
      <trkpt lat="44.90043" lon="8.20196">
        <ele>131.84</ele>
        <time>2016-10-06T11:53:55Z</time>
      </trkpt>
      <trkpt lat="44.90042" lon="8.20199">
        <ele>132.32</ele>
        <time>2016-10-06T11:53:56Z</time>
      </trkpt>
      <trkpt lat="44.90042" lon="8.20201">
        <ele>131.84</ele>
        <time>2016-10-06T11:53:57Z</time>
      </trkpt>
      <trkpt lat="44.90042" lon="8.20205">
        <ele>132.32</ele>
        <time>2016-10-06T11:53:58Z</time>
      </trkpt>
      <trkpt lat="44.90054" lon="8.20252">
        <ele>130.88</ele>
        <time>2016-10-06T11:54:08Z</time>
      </trkpt>
      <trkpt lat="44.90062" lon="8.20306">
        <ele>129.43</ele>
        <time>2016-10-06T11:54:19Z</time>
      </trkpt>
      <trkpt lat="44.9006" lon="8.2031">
        <ele>129.92</ele>
        <time>2016-10-06T11:54:20Z</time>
      </trkpt>
      <trkpt lat="44.90058" lon="8.20313">
        <ele>129.43</ele>
        <time>2016-10-06T11:54:21Z</time>
      </trkpt>
      <trkpt lat="44.90055" lon="8.20317">
        <ele>128.95</ele>
        <time>2016-10-06T11:54:22Z</time>
      </trkpt>
      <trkpt lat="44.90052" lon="8.2032">
        <ele>129.43</ele>
        <time>2016-10-06T11:54:23Z</time>
      </trkpt>
      <trkpt lat="44.90048" lon="8.20321">
        <ele>129.43</ele>
        <time>2016-10-06T11:54:24Z</time>
      </trkpt>
      <trkpt lat="44.90044" lon="8.20323">
        <ele>129.43</ele>
        <time>2016-10-06T11:54:25Z</time>
      </trkpt>
      <trkpt lat="44.9" lon="8.20341">
        <ele>126.55</ele>
        <time>2016-10-06T11:54:39Z</time>
      </trkpt>
      <trkpt lat="44.89989" lon="8.20354">
        <ele>126.55</ele>
        <time>2016-10-06T11:54:49Z</time>
      </trkpt>
      <trkpt lat="44.8999" lon="8.20358">
        <ele>126.55</ele>
        <time>2016-10-06T11:54:50Z</time>
      </trkpt>
      <trkpt lat="44.89991" lon="8.20362">
        <ele>127.03</ele>
        <time>2016-10-06T11:54:51Z</time>
      </trkpt>
      <trkpt lat="44.89993" lon="8.20366">
        <ele>127.03</ele>
        <time>2016-10-06T11:54:52Z</time>
      </trkpt>
      <trkpt lat="44.89995" lon="8.20369">
        <ele>126.07</ele>
        <time>2016-10-06T11:54:53Z</time>
      </trkpt>
      <trkpt lat="44.89995" lon="8.20374">
        <ele>126.55</ele>
        <time>2016-10-06T11:54:55Z</time>
      </trkpt>
      <trkpt lat="44.89995" lon="8.20376">
        <ele>126.55</ele>
        <time>2016-10-06T11:54:56Z</time>
      </trkpt>
      <trkpt lat="44.89996" lon="8.20379">
        <ele>126.07</ele>
        <time>2016-10-06T11:54:57Z</time>
      </trkpt>
      <trkpt lat="44.90001" lon="8.20424">
        <ele>124.63</ele>
        <time>2016-10-06T11:55:10Z</time>
      </trkpt>
      <trkpt lat="44.90003" lon="8.20432">
        <ele>126.07</ele>
        <time>2016-10-06T11:55:13Z</time>
      </trkpt>
      <trkpt lat="44.90003" lon="8.20435">
        <ele>125.11</ele>
        <time>2016-10-06T11:55:14Z</time>
      </trkpt>
      <trkpt lat="44.90003" lon="8.20437">
        <ele>125.11</ele>
        <time>2016-10-06T11:55:15Z</time>
      </trkpt>
      <trkpt lat="44.89991" lon="8.20457">
        <ele>124.63</ele>
        <time>2016-10-06T11:55:26Z</time>
      </trkpt>
      <trkpt lat="44.89967" lon="8.20471">
        <ele>124.15</ele>
        <time>2016-10-06T11:55:40Z</time>
      </trkpt>
      <trkpt lat="44.89963" lon="8.20468">
        <ele>123.67</ele>
        <time>2016-10-06T11:55:43Z</time>
      </trkpt>
      <trkpt lat="44.89948" lon="8.2046">
        <ele>123.67</ele>
        <time>2016-10-06T11:55:53Z</time>
      </trkpt>
      <trkpt lat="44.89948" lon="8.20458">
        <ele>124.15</ele>
        <time>2016-10-06T11:55:54Z</time>
      </trkpt>
      <trkpt lat="44.89949" lon="8.20457">
        <ele>124.15</ele>
        <time>2016-10-06T11:55:55Z</time>
      </trkpt>
      <trkpt lat="44.89949" lon="8.20454">
        <ele>124.15</ele>
        <time>2016-10-06T11:55:56Z</time>
      </trkpt>
      <trkpt lat="44.89949" lon="8.20454">
        <ele>124.15</ele>
        <time>2016-10-06T11:55:57Z</time>
      </trkpt>
      <trkpt lat="44.89948" lon="8.20452">
        <ele>124.15</ele>
        <time>2016-10-06T11:55:58Z</time>
      </trkpt>
      <trkpt lat="44.89948" lon="8.20451">
        <ele>124.63</ele>
        <time>2016-10-06T11:55:59Z</time>
      </trkpt>
      <trkpt lat="44.89947" lon="8.20448">
        <ele>124.15</ele>
        <time>2016-10-06T11:56:00Z</time>
      </trkpt>
      <trkpt lat="44.89946" lon="8.20446">
        <ele>123.67</ele>
        <time>2016-10-06T11:56:01Z</time>
      </trkpt>
      <trkpt lat="44.89944" lon="8.20444">
        <ele>124.15</ele>
        <time>2016-10-06T11:56:02Z</time>
      </trkpt>
      <trkpt lat="44.89943" lon="8.20443">
        <ele>124.15</ele>
        <time>2016-10-06T11:56:03Z</time>
      </trkpt>
      <trkpt lat="44.89942" lon="8.20443">
        <ele>124.15</ele>
        <time>2016-10-06T11:56:04Z</time>
      </trkpt>
      <trkpt lat="44.89934" lon="8.20438">
        <ele>124.15</ele>
        <time>2016-10-06T11:56:13Z</time>
      </trkpt>
      <trkpt lat="44.89925" lon="8.20446">
        <ele>124.15</ele>
        <time>2016-10-06T11:56:39Z</time>
      </trkpt>
      <trkpt lat="44.89929" lon="8.20447">
        <ele>124.15</ele>
        <time>2016-10-06T11:56:51Z</time>
      </trkpt>
      <trkpt lat="44.89936" lon="8.20437">
        <ele>124.63</ele>
        <time>2016-10-06T11:57:03Z</time>
      </trkpt>
      <trkpt lat="44.89932" lon="8.20432">
        <ele>124.63</ele>
        <time>2016-10-06T11:57:15Z</time>
      </trkpt>
      <trkpt lat="44.89931" lon="8.20435">
        <ele>124.15</ele>
        <time>2016-10-06T11:57:20Z</time>
      </trkpt>
      <trkpt lat="44.89933" lon="8.20435">
        <ele>125.11</ele>
        <time>2016-10-06T11:57:22Z</time>
      </trkpt>
      <trkpt lat="44.89941" lon="8.20422">
        <ele>124.15</ele>
        <time>2016-10-06T11:57:37Z</time>
      </trkpt>
      <trkpt lat="44.89943" lon="8.20408">
        <ele>125.11</ele>
        <time>2016-10-06T11:57:50Z</time>
      </trkpt>
      <trkpt lat="44.89942" lon="8.20391">
        <ele>125.59</ele>
        <time>2016-10-06T11:58:05Z</time>
      </trkpt>
      <trkpt lat="44.8994" lon="8.20379">
        <ele>125.11</ele>
        <time>2016-10-06T11:58:18Z</time>
      </trkpt>
      <trkpt lat="44.89932" lon="8.20368">
        <ele>124.63</ele>
        <time>2016-10-06T11:58:31Z</time>
      </trkpt>
      <trkpt lat="44.89933" lon="8.20371">
        <ele>125.11</ele>
        <time>2016-10-06T11:58:44Z</time>
      </trkpt>
      <trkpt lat="44.89934" lon="8.20378">
        <ele>125.59</ele>
        <time>2016-10-06T11:58:58Z</time>
      </trkpt>
      <trkpt lat="44.89937" lon="8.20381">
        <ele>125.11</ele>
        <time>2016-10-06T11:59:10Z</time>
      </trkpt>
      <trkpt lat="44.89947" lon="8.20377">
        <ele>124.63</ele>
        <time>2016-10-06T11:59:23Z</time>
      </trkpt>
      <trkpt lat="44.89963" lon="8.20373">
        <ele>125.11</ele>
        <time>2016-10-06T11:59:37Z</time>
      </trkpt>
      <trkpt lat="44.89977" lon="8.20366">
        <ele>126.55</ele>
        <time>2016-10-06T11:59:55Z</time>
      </trkpt>
      <trkpt lat="44.89991" lon="8.20369">
        <ele>125.59</ele>
        <time>2016-10-06T12:00:08Z</time>
      </trkpt>
      <trkpt lat="44.89991" lon="8.20368">
        <ele>126.07</ele>
        <time>2016-10-06T12:00:25Z</time>
      </trkpt>
      <trkpt lat="44.89992" lon="8.20374">
        <ele>126.55</ele>
        <time>2016-10-06T12:00:36Z</time>
      </trkpt>
      <trkpt lat="44.89992" lon="8.20375">
        <ele>126.55</ele>
        <time>2016-10-06T12:00:37Z</time>
      </trkpt>
      <trkpt lat="44.89998" lon="8.20418">
        <ele>125.11</ele>
        <time>2016-10-06T12:00:51Z</time>
      </trkpt>
      <trkpt lat="44.89997" lon="8.2042">
        <ele>125.11</ele>
        <time>2016-10-06T12:00:52Z</time>
      </trkpt>
      <trkpt lat="44.89969" lon="8.2043">
        <ele>123.67</ele>
        <time>2016-10-06T12:01:04Z</time>
      </trkpt>
      <trkpt lat="44.89943" lon="8.20441">
        <ele>123.19</ele>
        <time>2016-10-06T12:01:13Z</time>
      </trkpt>
      <trkpt lat="44.89942" lon="8.2044">
        <ele>123.19</ele>
        <time>2016-10-06T12:01:14Z</time>
      </trkpt>
      <trkpt lat="44.8994" lon="8.20438">
        <ele>123.19</ele>
        <time>2016-10-06T12:01:15Z</time>
      </trkpt>
      <trkpt lat="44.89939" lon="8.20435">
        <ele>123.67</ele>
        <time>2016-10-06T12:01:16Z</time>
      </trkpt>
      <trkpt lat="44.89939" lon="8.20432">
        <ele>124.15</ele>
        <time>2016-10-06T12:01:17Z</time>
      </trkpt>
      <trkpt lat="44.89936" lon="8.20428">
        <ele>123.67</ele>
        <time>2016-10-06T12:01:19Z</time>
      </trkpt>
      <trkpt lat="44.89935" lon="8.20428">
        <ele>123.67</ele>
        <time>2016-10-06T12:01:20Z</time>
      </trkpt>
      <trkpt lat="44.89933" lon="8.20429">
        <ele>124.15</ele>
        <time>2016-10-06T12:01:21Z</time>
      </trkpt>
      <trkpt lat="44.8993" lon="8.2043">
        <ele>124.15</ele>
        <time>2016-10-06T12:01:22Z</time>
      </trkpt>
      <trkpt lat="44.89928" lon="8.20431">
        <ele>124.15</ele>
        <time>2016-10-06T12:01:23Z</time>
      </trkpt>
      <trkpt lat="44.89925" lon="8.20431">
        <ele>123.67</ele>
        <time>2016-10-06T12:01:24Z</time>
      </trkpt>
      <trkpt lat="44.89923" lon="8.20431">
        <ele>123.67</ele>
        <time>2016-10-06T12:01:25Z</time>
      </trkpt>
      <trkpt lat="44.89917" lon="8.20432">
        <ele>123.67</ele>
        <time>2016-10-06T12:01:28Z</time>
      </trkpt>
      <trkpt lat="44.89915" lon="8.20432">
        <ele>123.67</ele>
        <time>2016-10-06T12:01:29Z</time>
      </trkpt>
      <trkpt lat="44.89909" lon="8.20428">
        <ele>123.19</ele>
        <time>2016-10-06T12:01:35Z</time>
      </trkpt>
      <trkpt lat="44.89906" lon="8.20425">
        <ele>123.19</ele>
        <time>2016-10-06T12:01:36Z</time>
      </trkpt>
      <trkpt lat="44.89905" lon="8.20424">
        <ele>123.19</ele>
        <time>2016-10-06T12:01:37Z</time>
      </trkpt>
      <trkpt lat="44.89901" lon="8.20427">
        <ele>123.67</ele>
        <time>2016-10-06T12:01:40Z</time>
      </trkpt>
      <trkpt lat="44.89894" lon="8.2043">
        <ele>122.71</ele>
        <time>2016-10-06T12:01:49Z</time>
      </trkpt>
      <trkpt lat="44.89892" lon="8.2043">
        <ele>122.71</ele>
        <time>2016-10-06T12:01:50Z</time>
      </trkpt>
      <trkpt lat="44.8987" lon="8.20423">
        <ele>122.22</ele>
        <time>2016-10-06T12:01:57Z</time>
      </trkpt>
      <trkpt lat="44.89867" lon="8.20423">
        <ele>122.71</ele>
        <time>2016-10-06T12:01:58Z</time>
      </trkpt>
      <trkpt lat="44.89865" lon="8.20425">
        <ele>122.71</ele>
        <time>2016-10-06T12:01:59Z</time>
      </trkpt>
      <trkpt lat="44.89863" lon="8.20427">
        <ele>122.71</ele>
        <time>2016-10-06T12:02:00Z</time>
      </trkpt>
      <trkpt lat="44.89862" lon="8.20429">
        <ele>121.74</ele>
        <time>2016-10-06T12:02:01Z</time>
      </trkpt>
      <trkpt lat="44.89861" lon="8.20431">
        <ele>122.22</ele>
        <time>2016-10-06T12:02:02Z</time>
      </trkpt>
      <trkpt lat="44.8986" lon="8.20433">
        <ele>122.22</ele>
        <time>2016-10-06T12:02:03Z</time>
      </trkpt>
      <trkpt lat="44.89859" lon="8.20438">
        <ele>122.22</ele>
        <time>2016-10-06T12:02:05Z</time>
      </trkpt>
      <trkpt lat="44.89859" lon="8.2044">
        <ele>122.22</ele>
        <time>2016-10-06T12:02:06Z</time>
      </trkpt>
      <trkpt lat="44.89859" lon="8.20444">
        <ele>121.74</ele>
        <time>2016-10-06T12:02:12Z</time>
      </trkpt>
      <trkpt lat="44.8986" lon="8.20443">
        <ele>122.22</ele>
        <time>2016-10-06T12:02:13Z</time>
      </trkpt>
      <trkpt lat="44.89862" lon="8.20442">
        <ele>122.22</ele>
        <time>2016-10-06T12:02:14Z</time>
      </trkpt>
      <trkpt lat="44.89865" lon="8.20441">
        <ele>122.71</ele>
        <time>2016-10-06T12:02:15Z</time>
      </trkpt>
      <trkpt lat="44.89867" lon="8.2044">
        <ele>122.71</ele>
        <time>2016-10-06T12:02:16Z</time>
      </trkpt>
      <trkpt lat="44.89869" lon="8.20439">
        <ele>122.22</ele>
        <time>2016-10-06T12:02:17Z</time>
      </trkpt>
      <trkpt lat="44.89871" lon="8.20439">
        <ele>122.22</ele>
        <time>2016-10-06T12:02:18Z</time>
      </trkpt>
      <trkpt lat="44.89873" lon="8.20438">
        <ele>122.71</ele>
        <time>2016-10-06T12:02:19Z</time>
      </trkpt>
      <trkpt lat="44.89877" lon="8.20437">
        <ele>122.71</ele>
        <time>2016-10-06T12:02:21Z</time>
      </trkpt>
      <trkpt lat="44.8988" lon="8.20436">
        <ele>122.71</ele>
        <time>2016-10-06T12:02:23Z</time>
      </trkpt>
      <trkpt lat="44.89882" lon="8.20436">
        <ele>122.71</ele>
        <time>2016-10-06T12:02:24Z</time>
      </trkpt>
      <trkpt lat="44.89895" lon="8.20437">
        <ele>122.71</ele>
        <time>2016-10-06T12:02:32Z</time>
      </trkpt>
      <trkpt lat="44.89897" lon="8.2044">
        <ele>123.19</ele>
        <time>2016-10-06T12:02:33Z</time>
      </trkpt>
      <trkpt lat="44.89898" lon="8.20445">
        <ele>123.67</ele>
        <time>2016-10-06T12:02:34Z</time>
      </trkpt>
      <trkpt lat="44.89903" lon="8.20464">
        <ele>123.19</ele>
        <time>2016-10-06T12:02:45Z</time>
      </trkpt>
      <trkpt lat="44.89908" lon="8.20468">
        <ele>123.19</ele>
        <time>2016-10-06T12:03:14Z</time>
      </trkpt>
      <trkpt lat="44.89911" lon="8.20477">
        <ele>122.71</ele>
        <time>2016-10-06T12:03:20Z</time>
      </trkpt>
      <trkpt lat="44.89912" lon="8.20479">
        <ele>123.19</ele>
        <time>2016-10-06T12:03:21Z</time>
      </trkpt>
      <trkpt lat="44.89913" lon="8.20483">
        <ele>123.19</ele>
        <time>2016-10-06T12:03:22Z</time>
      </trkpt>
      <trkpt lat="44.89918" lon="8.20534">
        <ele>122.22</ele>
        <time>2016-10-06T12:03:35Z</time>
      </trkpt>
      <trkpt lat="44.89926" lon="8.20572">
        <ele>121.74</ele>
        <time>2016-10-06T12:03:45Z</time>
      </trkpt>
      <trkpt lat="44.89926" lon="8.20588">
        <ele>122.22</ele>
        <time>2016-10-06T12:03:50Z</time>
      </trkpt>
      <trkpt lat="44.89926" lon="8.2059">
        <ele>122.22</ele>
        <time>2016-10-06T12:03:51Z</time>
      </trkpt>
      <trkpt lat="44.89925" lon="8.20592">
        <ele>122.22</ele>
        <time>2016-10-06T12:03:52Z</time>
      </trkpt>
      <trkpt lat="44.89925" lon="8.20594">
        <ele>121.74</ele>
        <time>2016-10-06T12:03:53Z</time>
      </trkpt>
      <trkpt lat="44.89925" lon="8.20595">
        <ele>122.22</ele>
        <time>2016-10-06T12:03:54Z</time>
      </trkpt>
      <trkpt lat="44.89925" lon="8.20597">
        <ele>122.71</ele>
        <time>2016-10-06T12:03:55Z</time>
      </trkpt>
      <trkpt lat="44.89926" lon="8.20601">
        <ele>122.22</ele>
        <time>2016-10-06T12:03:58Z</time>
      </trkpt>
      <trkpt lat="44.89927" lon="8.20603">
        <ele>122.71</ele>
        <time>2016-10-06T12:03:59Z</time>
      </trkpt>
      <trkpt lat="44.89927" lon="8.20604">
        <ele>122.71</ele>
        <time>2016-10-06T12:04:00Z</time>
      </trkpt>
      <trkpt lat="44.89928" lon="8.20606">
        <ele>122.71</ele>
        <time>2016-10-06T12:04:01Z</time>
      </trkpt>
      <trkpt lat="44.89929" lon="8.20608">
        <ele>122.71</ele>
        <time>2016-10-06T12:04:02Z</time>
      </trkpt>
      <trkpt lat="44.8993" lon="8.2061">
        <ele>122.22</ele>
        <time>2016-10-06T12:04:03Z</time>
      </trkpt>
      <trkpt lat="44.89931" lon="8.20611">
        <ele>122.71</ele>
        <time>2016-10-06T12:04:04Z</time>
      </trkpt>
      <trkpt lat="44.89933" lon="8.20612">
        <ele>122.22</ele>
        <time>2016-10-06T12:04:05Z</time>
      </trkpt>
      <trkpt lat="44.89934" lon="8.20614">
        <ele>122.22</ele>
        <time>2016-10-06T12:04:06Z</time>
      </trkpt>
      <trkpt lat="44.89936" lon="8.20616">
        <ele>123.19</ele>
        <time>2016-10-06T12:04:07Z</time>
      </trkpt>
      <trkpt lat="44.8994" lon="8.20622">
        <ele>122.71</ele>
        <time>2016-10-06T12:04:10Z</time>
      </trkpt>
      <trkpt lat="44.89939" lon="8.20626">
        <ele>123.19</ele>
        <time>2016-10-06T12:04:11Z</time>
      </trkpt>
      <trkpt lat="44.89935" lon="8.20659">
        <ele>123.19</ele>
        <time>2016-10-06T12:04:25Z</time>
      </trkpt>
      <trkpt lat="44.89936" lon="8.2066">
        <ele>123.67</ele>
        <time>2016-10-06T12:04:28Z</time>
      </trkpt>
      <trkpt lat="44.89943" lon="8.20661">
        <ele>123.19</ele>
        <time>2016-10-06T12:04:34Z</time>
      </trkpt>
      <trkpt lat="44.89946" lon="8.20662">
        <ele>123.19</ele>
        <time>2016-10-06T12:04:38Z</time>
      </trkpt>
      <trkpt lat="44.89954" lon="8.20673">
        <ele>123.19</ele>
        <time>2016-10-06T12:04:54Z</time>
      </trkpt>
      <trkpt lat="44.89955" lon="8.20674">
        <ele>123.19</ele>
        <time>2016-10-06T12:04:55Z</time>
      </trkpt>
      <trkpt lat="44.89964" lon="8.20675">
        <ele>123.19</ele>
        <time>2016-10-06T12:04:59Z</time>
      </trkpt>
      <trkpt lat="44.89973" lon="8.20683">
        <ele>123.67</ele>
        <time>2016-10-06T12:05:08Z</time>
      </trkpt>
      <trkpt lat="44.8999" lon="8.20684">
        <ele>123.19</ele>
        <time>2016-10-06T12:05:17Z</time>
      </trkpt>
      <trkpt lat="44.89992" lon="8.20684">
        <ele>123.67</ele>
        <time>2016-10-06T12:05:18Z</time>
      </trkpt>
      <trkpt lat="44.90004" lon="8.20656">
        <ele>123.19</ele>
        <time>2016-10-06T12:05:31Z</time>
      </trkpt>
      <trkpt lat="44.90009" lon="8.20615">
        <ele>123.19</ele>
        <time>2016-10-06T12:05:49Z</time>
      </trkpt>
      <trkpt lat="44.90006" lon="8.20605">
        <ele>123.67</ele>
        <time>2016-10-06T12:06:06Z</time>
      </trkpt>
      <trkpt lat="44.90005" lon="8.20609">
        <ele>123.67</ele>
        <time>2016-10-06T12:06:37Z</time>
      </trkpt>
      <trkpt lat="44.90003" lon="8.2061">
        <ele>123.19</ele>
        <time>2016-10-06T12:07:00Z</time>
      </trkpt>
      <trkpt lat="44.90004" lon="8.20609">
        <ele>123.67</ele>
        <time>2016-10-06T12:07:14Z</time>
      </trkpt>
      <trkpt lat="44.90006" lon="8.20607">
        <ele>123.19</ele>
        <time>2016-10-06T12:07:38Z</time>
      </trkpt>
      <trkpt lat="44.90004" lon="8.20599">
        <ele>122.71</ele>
        <time>2016-10-06T12:07:59Z</time>
      </trkpt>
      <trkpt lat="44.90003" lon="8.206">
        <ele>123.19</ele>
        <time>2016-10-06T12:08:19Z</time>
      </trkpt>
      <trkpt lat="44.90003" lon="8.20599">
        <ele>122.22</ele>
        <time>2016-10-06T12:08:38Z</time>
      </trkpt>
      <trkpt lat="44.90005" lon="8.20605">
        <ele>122.71</ele>
        <time>2016-10-06T12:09:01Z</time>
      </trkpt>
      <trkpt lat="44.90004" lon="8.20613">
        <ele>121.74</ele>
        <time>2016-10-06T12:09:18Z</time>
      </trkpt>
      <trkpt lat="44.89992" lon="8.20598">
        <ele>121.74</ele>
        <time>2016-10-06T12:58:32Z</time>
      </trkpt>
      <trkpt lat="44.9" lon="8.20599">
        <ele>121.26</ele>
        <time>2016-10-06T12:58:56Z</time>
      </trkpt>
      <trkpt lat="44.89999" lon="8.20599">
        <ele>117.42</ele>
        <time>2016-10-06T12:59:11Z</time>
      </trkpt>
      <trkpt lat="44.89996" lon="8.20599">
        <ele>113.09</ele>
        <time>2016-10-06T12:59:15Z</time>
      </trkpt>
      <trkpt lat="44.89993" lon="8.20601">
        <ele>109.25</ele>
        <time>2016-10-06T12:59:20Z</time>
      </trkpt>
      <trkpt lat="44.89992" lon="8.20602">
        <ele>105.88</ele>
        <time>2016-10-06T12:59:25Z</time>
      </trkpt>
      <trkpt lat="44.89992" lon="8.20602">
        <ele>103.96</ele>
        <time>2016-10-06T12:59:29Z</time>
      </trkpt>
      <trkpt lat="44.89992" lon="8.20602">
        <ele>100.11</ele>
        <time>2016-10-06T12:59:35Z</time>
      </trkpt>
      <trkpt lat="44.89992" lon="8.20602">
        <ele>98.67</ele>
        <time>2016-10-06T12:59:39Z</time>
      </trkpt>
      <trkpt lat="44.89992" lon="8.20603">
        <ele>95.79</ele>
        <time>2016-10-06T12:59:45Z</time>
      </trkpt>
      <trkpt lat="44.89989" lon="8.20604">
        <ele>92.9</ele>
        <time>2016-10-06T12:59:52Z</time>
      </trkpt>
      <trkpt lat="44.89986" lon="8.20605">
        <ele>91.46</ele>
        <time>2016-10-06T12:59:58Z</time>
      </trkpt>
      <trkpt lat="44.89993" lon="8.206">
        <ele>89.54</ele>
        <time>2016-10-06T13:00:23Z</time>
      </trkpt>
      <trkpt lat="44.89993" lon="8.206">
        <ele>89.54</ele>
        <time>2016-10-06T13:00:48Z</time>
      </trkpt>
      <trkpt lat="44.89983" lon="8.20603">
        <ele>89.54</ele>
        <time>2016-10-06T13:01:19Z</time>
      </trkpt>
      <trkpt lat="44.89981" lon="8.20604">
        <ele>89.54</ele>
        <time>2016-10-06T13:01:38Z</time>
      </trkpt>
      <trkpt lat="44.89985" lon="8.20605">
        <ele>89.54</ele>
        <time>2016-10-06T13:02:11Z</time>
      </trkpt>
      <trkpt lat="44.8999" lon="8.20601">
        <ele>90.02</ele>
        <time>2016-10-06T13:02:30Z</time>
      </trkpt>
      <trkpt lat="44.89995" lon="8.20592">
        <ele>90.02</ele>
        <time>2016-10-06T13:02:54Z</time>
      </trkpt>
      <trkpt lat="44.89998" lon="8.20569">
        <ele>90.5</ele>
        <time>2016-10-06T13:03:06Z</time>
      </trkpt>
      <trkpt lat="44.90021" lon="8.20553">
        <ele>90.02</ele>
        <time>2016-10-06T13:03:21Z</time>
      </trkpt>
      <trkpt lat="44.90022" lon="8.20553">
        <ele>90.02</ele>
        <time>2016-10-06T13:03:22Z</time>
      </trkpt>
      <trkpt lat="44.90012" lon="8.20506">
        <ele>90.98</ele>
        <time>2016-10-06T13:03:38Z</time>
      </trkpt>
      <trkpt lat="44.90011" lon="8.20481">
        <ele>91.46</ele>
        <time>2016-10-06T13:03:45Z</time>
      </trkpt>
      <trkpt lat="44.90011" lon="8.20478">
        <ele>90.98</ele>
        <time>2016-10-06T13:03:46Z</time>
      </trkpt>
      <trkpt lat="44.9001" lon="8.20476">
        <ele>91.46</ele>
        <time>2016-10-06T13:03:47Z</time>
      </trkpt>
      <trkpt lat="44.90007" lon="8.20463">
        <ele>91.94</ele>
        <time>2016-10-06T13:03:53Z</time>
      </trkpt>
      <trkpt lat="44.90006" lon="8.20462">
        <ele>91.94</ele>
        <time>2016-10-06T13:03:54Z</time>
      </trkpt>
      <trkpt lat="44.90002" lon="8.20458">
        <ele>90.98</ele>
        <time>2016-10-06T13:04:06Z</time>
      </trkpt>
      <trkpt lat="44.9" lon="8.20458">
        <ele>90.98</ele>
        <time>2016-10-06T13:04:07Z</time>
      </trkpt>
      <trkpt lat="44.89985" lon="8.20467">
        <ele>90.98</ele>
        <time>2016-10-06T13:04:17Z</time>
      </trkpt>
      <trkpt lat="44.89973" lon="8.20466">
        <ele>90.5</ele>
        <time>2016-10-06T13:04:22Z</time>
      </trkpt>
      <trkpt lat="44.8997" lon="8.20465">
        <ele>90.5</ele>
        <time>2016-10-06T13:04:23Z</time>
      </trkpt>
      <trkpt lat="44.89964" lon="8.20466">
        <ele>90.98</ele>
        <time>2016-10-06T13:04:26Z</time>
      </trkpt>
      <trkpt lat="44.89959" lon="8.20462">
        <ele>90.5</ele>
        <time>2016-10-06T13:04:29Z</time>
      </trkpt>
      <trkpt lat="44.89958" lon="8.20459">
        <ele>90.98</ele>
        <time>2016-10-06T13:04:35Z</time>
      </trkpt>
      <trkpt lat="44.89956" lon="8.20458">
        <ele>91.46</ele>
        <time>2016-10-06T13:04:36Z</time>
      </trkpt>
      <trkpt lat="44.89955" lon="8.20461">
        <ele>90.98</ele>
        <time>2016-10-06T13:04:37Z</time>
      </trkpt>
      <trkpt lat="44.89953" lon="8.20462">
        <ele>90.98</ele>
        <time>2016-10-06T13:04:38Z</time>
      </trkpt>
      <trkpt lat="44.89951" lon="8.20462">
        <ele>90.98</ele>
        <time>2016-10-06T13:04:39Z</time>
      </trkpt>
      <trkpt lat="44.89948" lon="8.20464">
        <ele>90.98</ele>
        <time>2016-10-06T13:04:40Z</time>
      </trkpt>
      <trkpt lat="44.89945" lon="8.20464">
        <ele>90.98</ele>
        <time>2016-10-06T13:04:41Z</time>
      </trkpt>
      <trkpt lat="44.89923" lon="8.20468">
        <ele>91.46</ele>
        <time>2016-10-06T13:04:50Z</time>
      </trkpt>
      <trkpt lat="44.89921" lon="8.20479">
        <ele>90.98</ele>
        <time>2016-10-06T13:04:54Z</time>
      </trkpt>
      <trkpt lat="44.89921" lon="8.20482">
        <ele>90.98</ele>
        <time>2016-10-06T13:04:55Z</time>
      </trkpt>
      <trkpt lat="44.89921" lon="8.20485">
        <ele>90.98</ele>
        <time>2016-10-06T13:04:56Z</time>
      </trkpt>
      <trkpt lat="44.89922" lon="8.20489">
        <ele>90.5</ele>
        <time>2016-10-06T13:04:57Z</time>
      </trkpt>
      <trkpt lat="44.89923" lon="8.20493">
        <ele>90.5</ele>
        <time>2016-10-06T13:04:58Z</time>
      </trkpt>
      <trkpt lat="44.89924" lon="8.20496">
        <ele>90.5</ele>
        <time>2016-10-06T13:04:59Z</time>
      </trkpt>
      <trkpt lat="44.89925" lon="8.20497">
        <ele>90.98</ele>
        <time>2016-10-06T13:05:00Z</time>
      </trkpt>
      <trkpt lat="44.89925" lon="8.20499">
        <ele>90.5</ele>
        <time>2016-10-06T13:05:01Z</time>
      </trkpt>
      <trkpt lat="44.89926" lon="8.20501">
        <ele>90.98</ele>
        <time>2016-10-06T13:05:02Z</time>
      </trkpt>
      <trkpt lat="44.89926" lon="8.20504">
        <ele>90.98</ele>
        <time>2016-10-06T13:05:03Z</time>
      </trkpt>
      <trkpt lat="44.89924" lon="8.20508">
        <ele>90.98</ele>
        <time>2016-10-06T13:05:04Z</time>
      </trkpt>
      <trkpt lat="44.89924" lon="8.20512">
        <ele>90.98</ele>
        <time>2016-10-06T13:05:05Z</time>
      </trkpt>
      <trkpt lat="44.89921" lon="8.20546">
        <ele>90.5</ele>
        <time>2016-10-06T13:05:16Z</time>
      </trkpt>
      <trkpt lat="44.89923" lon="8.20552">
        <ele>91.46</ele>
        <time>2016-10-06T13:05:19Z</time>
      </trkpt>
      <trkpt lat="44.89924" lon="8.20557">
        <ele>91.46</ele>
        <time>2016-10-06T13:05:21Z</time>
      </trkpt>
      <trkpt lat="44.89924" lon="8.20561">
        <ele>91.46</ele>
        <time>2016-10-06T13:05:22Z</time>
      </trkpt>
      <trkpt lat="44.89918" lon="8.20572">
        <ele>91.46</ele>
        <time>2016-10-06T13:05:25Z</time>
      </trkpt>
      <trkpt lat="44.89917" lon="8.20576">
        <ele>91.46</ele>
        <time>2016-10-06T13:05:26Z</time>
      </trkpt>
      <trkpt lat="44.89916" lon="8.20579">
        <ele>91.94</ele>
        <time>2016-10-06T13:05:27Z</time>
      </trkpt>
      <trkpt lat="44.8991" lon="8.20644">
        <ele>92.42</ele>
        <time>2016-10-06T13:05:42Z</time>
      </trkpt>
      <trkpt lat="44.89907" lon="8.20651">
        <ele>92.42</ele>
        <time>2016-10-06T13:05:46Z</time>
      </trkpt>
      <trkpt lat="44.89885" lon="8.20674">
        <ele>91.94</ele>
        <time>2016-10-06T13:05:57Z</time>
      </trkpt>
      <trkpt lat="44.89867" lon="8.20733">
        <ele>92.9</ele>
        <time>2016-10-06T13:06:10Z</time>
      </trkpt>
      <trkpt lat="44.89852" lon="8.20781">
        <ele>92.42</ele>
        <time>2016-10-06T13:06:20Z</time>
      </trkpt>
      <trkpt lat="44.89834" lon="8.20776">
        <ele>91.94</ele>
        <time>2016-10-06T13:06:26Z</time>
      </trkpt>
      <trkpt lat="44.89799" lon="8.20718">
        <ele>90.5</ele>
        <time>2016-10-06T13:06:41Z</time>
      </trkpt>
      <trkpt lat="44.89781" lon="8.20683">
        <ele>90.5</ele>
        <time>2016-10-06T13:06:49Z</time>
      </trkpt>
      <trkpt lat="44.89778" lon="8.20679">
        <ele>90.98</ele>
        <time>2016-10-06T13:06:50Z</time>
      </trkpt>
      <trkpt lat="44.89774" lon="8.20675">
        <ele>90.5</ele>
        <time>2016-10-06T13:06:51Z</time>
      </trkpt>
      <trkpt lat="44.89771" lon="8.20671">
        <ele>90.02</ele>
        <time>2016-10-06T13:06:52Z</time>
      </trkpt>
      <trkpt lat="44.89768" lon="8.20669">
        <ele>90.5</ele>
        <time>2016-10-06T13:06:53Z</time>
      </trkpt>
      <trkpt lat="44.89764" lon="8.20669">
        <ele>90.5</ele>
        <time>2016-10-06T13:06:54Z</time>
      </trkpt>
      <trkpt lat="44.8976" lon="8.20672">
        <ele>90.98</ele>
        <time>2016-10-06T13:06:55Z</time>
      </trkpt>
      <trkpt lat="44.89756" lon="8.20676">
        <ele>90.02</ele>
        <time>2016-10-06T13:06:56Z</time>
      </trkpt>
      <trkpt lat="44.89752" lon="8.20679">
        <ele>90.02</ele>
        <time>2016-10-06T13:06:57Z</time>
      </trkpt>
      <trkpt lat="44.89676" lon="8.20727">
        <ele>90.98</ele>
        <time>2016-10-06T13:07:10Z</time>
      </trkpt>
      <trkpt lat="44.89671" lon="8.20729">
        <ele>90.5</ele>
        <time>2016-10-06T13:07:11Z</time>
      </trkpt>
      <trkpt lat="44.89661" lon="8.20735">
        <ele>90.98</ele>
        <time>2016-10-06T13:07:13Z</time>
      </trkpt>
      <trkpt lat="44.89657" lon="8.20738">
        <ele>90.98</ele>
        <time>2016-10-06T13:07:14Z</time>
      </trkpt>
      <trkpt lat="44.89653" lon="8.20741">
        <ele>90.98</ele>
        <time>2016-10-06T13:07:15Z</time>
      </trkpt>
      <trkpt lat="44.89625" lon="8.20754">
        <ele>91.46</ele>
        <time>2016-10-06T13:07:22Z</time>
      </trkpt>
      <trkpt lat="44.89622" lon="8.20759">
        <ele>91.46</ele>
        <time>2016-10-06T13:07:23Z</time>
      </trkpt>
      <trkpt lat="44.89621" lon="8.20764">
        <ele>91.46</ele>
        <time>2016-10-06T13:07:24Z</time>
      </trkpt>
      <trkpt lat="44.89621" lon="8.20769">
        <ele>91.46</ele>
        <time>2016-10-06T13:07:25Z</time>
      </trkpt>
      <trkpt lat="44.89621" lon="8.20775">
        <ele>91.46</ele>
        <time>2016-10-06T13:07:26Z</time>
      </trkpt>
      <trkpt lat="44.89634" lon="8.20848">
        <ele>92.9</ele>
        <time>2016-10-06T13:07:39Z</time>
      </trkpt>
      <trkpt lat="44.89639" lon="8.20927">
        <ele>94.35</ele>
        <time>2016-10-06T13:07:54Z</time>
      </trkpt>
      <trkpt lat="44.8961" lon="8.20942">
        <ele>95.79</ele>
        <time>2016-10-06T13:08:03Z</time>
      </trkpt>
      <trkpt lat="44.89552" lon="8.20959">
        <ele>97.71</ele>
        <time>2016-10-06T13:08:22Z</time>
      </trkpt>
      <trkpt lat="44.89488" lon="8.20974">
        <ele>98.19</ele>
        <time>2016-10-06T13:08:39Z</time>
      </trkpt>
      <trkpt lat="44.89472" lon="8.20978">
        <ele>96.75</ele>
        <time>2016-10-06T13:08:42Z</time>
      </trkpt>
      <trkpt lat="44.89396" lon="8.20998">
        <ele>93.87</ele>
        <time>2016-10-06T13:08:54Z</time>
      </trkpt>
      <trkpt lat="44.89298" lon="8.21022">
        <ele>92.9</ele>
        <time>2016-10-06T13:09:08Z</time>
      </trkpt>
      <trkpt lat="44.8923" lon="8.21034">
        <ele>92.9</ele>
        <time>2016-10-06T13:09:21Z</time>
      </trkpt>
      <trkpt lat="44.89215" lon="8.21034">
        <ele>92.9</ele>
        <time>2016-10-06T13:09:25Z</time>
      </trkpt>
      <trkpt lat="44.89211" lon="8.21037">
        <ele>92.9</ele>
        <time>2016-10-06T13:09:26Z</time>
      </trkpt>
      <trkpt lat="44.89203" lon="8.21043">
        <ele>92.9</ele>
        <time>2016-10-06T13:09:28Z</time>
      </trkpt>
      <trkpt lat="44.89199" lon="8.21044">
        <ele>92.9</ele>
        <time>2016-10-06T13:09:29Z</time>
      </trkpt>
      <trkpt lat="44.89182" lon="8.2105">
        <ele>92.9</ele>
        <time>2016-10-06T13:09:33Z</time>
      </trkpt>
      <trkpt lat="44.89178" lon="8.21051">
        <ele>92.9</ele>
        <time>2016-10-06T13:09:34Z</time>
      </trkpt>
      <trkpt lat="44.8916" lon="8.21056">
        <ele>93.39</ele>
        <time>2016-10-06T13:09:38Z</time>
      </trkpt>
      <trkpt lat="44.89155" lon="8.21057">
        <ele>93.39</ele>
        <time>2016-10-06T13:09:39Z</time>
      </trkpt>
      <trkpt lat="44.8915" lon="8.21058">
        <ele>93.87</ele>
        <time>2016-10-06T13:09:40Z</time>
      </trkpt>
      <trkpt lat="44.89145" lon="8.21059">
        <ele>93.87</ele>
        <time>2016-10-06T13:09:41Z</time>
      </trkpt>
      <trkpt lat="44.8914" lon="8.21059">
        <ele>92.9</ele>
        <time>2016-10-06T13:09:42Z</time>
      </trkpt>
      <trkpt lat="44.89071" lon="8.21071">
        <ele>92.42</ele>
        <time>2016-10-06T13:09:56Z</time>
      </trkpt>
      <trkpt lat="44.89028" lon="8.2108">
        <ele>91.94</ele>
        <time>2016-10-06T13:10:07Z</time>
      </trkpt>
      <trkpt lat="44.89004" lon="8.21087">
        <ele>92.42</ele>
        <time>2016-10-06T13:10:18Z</time>
      </trkpt>
      <trkpt lat="44.88975" lon="8.21093">
        <ele>92.42</ele>
        <time>2016-10-06T13:10:30Z</time>
      </trkpt>
      <trkpt lat="44.88942" lon="8.21105">
        <ele>92.42</ele>
        <time>2016-10-06T13:10:40Z</time>
      </trkpt>
      <trkpt lat="44.8891" lon="8.21111">
        <ele>92.9</ele>
        <time>2016-10-06T13:10:53Z</time>
      </trkpt>
      <trkpt lat="44.88875" lon="8.21123">
        <ele>92.9</ele>
        <time>2016-10-06T13:11:05Z</time>
      </trkpt>
      <trkpt lat="44.88863" lon="8.21128">
        <ele>92.9</ele>
        <time>2016-10-06T13:11:15Z</time>
      </trkpt>
      <trkpt lat="44.88861" lon="8.21128">
        <ele>93.39</ele>
        <time>2016-10-06T13:11:16Z</time>
      </trkpt>
      <trkpt lat="44.8883" lon="8.21131">
        <ele>92.9</ele>
        <time>2016-10-06T13:11:26Z</time>
      </trkpt>
      <trkpt lat="44.8879" lon="8.21141">
        <ele>93.39</ele>
        <time>2016-10-06T13:11:38Z</time>
      </trkpt>
      <trkpt lat="44.88775" lon="8.21145">
        <ele>93.39</ele>
        <time>2016-10-06T13:11:41Z</time>
      </trkpt>
      <trkpt lat="44.88769" lon="8.21146">
        <ele>93.39</ele>
        <time>2016-10-06T13:11:42Z</time>
      </trkpt>
      <trkpt lat="44.88764" lon="8.21147">
        <ele>93.87</ele>
        <time>2016-10-06T13:11:43Z</time>
      </trkpt>
      <trkpt lat="44.88702" lon="8.21164">
        <ele>93.39</ele>
        <time>2016-10-06T13:11:56Z</time>
      </trkpt>
      <trkpt lat="44.887" lon="8.21162">
        <ele>92.9</ele>
        <time>2016-10-06T13:11:57Z</time>
      </trkpt>
      <trkpt lat="44.88688" lon="8.21152">
        <ele>93.87</ele>
        <time>2016-10-06T13:12:01Z</time>
      </trkpt>
      <trkpt lat="44.88684" lon="8.21152">
        <ele>94.35</ele>
        <time>2016-10-06T13:12:02Z</time>
      </trkpt>
      <trkpt lat="44.8868" lon="8.21154">
        <ele>94.35</ele>
        <time>2016-10-06T13:12:03Z</time>
      </trkpt>
      <trkpt lat="44.88677" lon="8.21158">
        <ele>93.87</ele>
        <time>2016-10-06T13:12:04Z</time>
      </trkpt>
      <trkpt lat="44.88674" lon="8.21162">
        <ele>93.87</ele>
        <time>2016-10-06T13:12:05Z</time>
      </trkpt>
      <trkpt lat="44.88671" lon="8.21167">
        <ele>94.35</ele>
        <time>2016-10-06T13:12:06Z</time>
      </trkpt>
      <trkpt lat="44.88668" lon="8.21171">
        <ele>93.87</ele>
        <time>2016-10-06T13:12:07Z</time>
      </trkpt>
      <trkpt lat="44.88664" lon="8.21174">
        <ele>94.35</ele>
        <time>2016-10-06T13:12:08Z</time>
      </trkpt>
      <trkpt lat="44.88659" lon="8.21176">
        <ele>93.87</ele>
        <time>2016-10-06T13:12:09Z</time>
      </trkpt>
      <trkpt lat="44.88655" lon="8.21178">
        <ele>93.39</ele>
        <time>2016-10-06T13:12:10Z</time>
      </trkpt>
      <trkpt lat="44.8865" lon="8.21179">
        <ele>94.35</ele>
        <time>2016-10-06T13:12:11Z</time>
      </trkpt>
      <trkpt lat="44.88562" lon="8.21202">
        <ele>95.79</ele>
        <time>2016-10-06T13:12:29Z</time>
      </trkpt>
      <trkpt lat="44.88538" lon="8.21208">
        <ele>96.27</ele>
        <time>2016-10-06T13:12:34Z</time>
      </trkpt>
      <trkpt lat="44.88533" lon="8.2121">
        <ele>95.79</ele>
        <time>2016-10-06T13:12:35Z</time>
      </trkpt>
      <trkpt lat="44.88439" lon="8.21233">
        <ele>95.79</ele>
        <time>2016-10-06T13:12:53Z</time>
      </trkpt>
      <trkpt lat="44.88329" lon="8.2126">
        <ele>94.83</ele>
        <time>2016-10-06T13:13:11Z</time>
      </trkpt>
      <trkpt lat="44.88197" lon="8.21299">
        <ele>93.87</ele>
        <time>2016-10-06T13:13:31Z</time>
      </trkpt>
      <trkpt lat="44.88089" lon="8.2134">
        <ele>94.35</ele>
        <time>2016-10-06T13:13:48Z</time>
      </trkpt>
      <trkpt lat="44.87989" lon="8.21377">
        <ele>95.31</ele>
        <time>2016-10-06T13:14:04Z</time>
      </trkpt>
      <trkpt lat="44.87881" lon="8.21419">
        <ele>96.27</ele>
        <time>2016-10-06T13:14:22Z</time>
      </trkpt>
      <trkpt lat="44.87767" lon="8.21462">
        <ele>96.75</ele>
        <time>2016-10-06T13:14:42Z</time>
      </trkpt>
      <trkpt lat="44.87667" lon="8.21499">
        <ele>98.19</ele>
        <time>2016-10-06T13:15:00Z</time>
      </trkpt>
      <trkpt lat="44.87638" lon="8.21511">
        <ele>100.6</ele>
        <time>2016-10-06T13:15:08Z</time>
      </trkpt>
      <trkpt lat="44.87585" lon="8.21533">
        <ele>103.48</ele>
        <time>2016-10-06T13:15:25Z</time>
      </trkpt>
      <trkpt lat="44.87531" lon="8.2155">
        <ele>103.96</ele>
        <time>2016-10-06T13:15:41Z</time>
      </trkpt>
      <trkpt lat="44.87527" lon="8.21552">
        <ele>103.96</ele>
        <time>2016-10-06T13:15:42Z</time>
      </trkpt>
      <trkpt lat="44.87523" lon="8.21556">
        <ele>103.96</ele>
        <time>2016-10-06T13:15:43Z</time>
      </trkpt>
      <trkpt lat="44.87518" lon="8.21561">
        <ele>103.96</ele>
        <time>2016-10-06T13:15:44Z</time>
      </trkpt>
      <trkpt lat="44.87514" lon="8.21567">
        <ele>103</ele>
        <time>2016-10-06T13:15:45Z</time>
      </trkpt>
      <trkpt lat="44.87511" lon="8.21575">
        <ele>103.48</ele>
        <time>2016-10-06T13:15:46Z</time>
      </trkpt>
      <trkpt lat="44.87509" lon="8.21583">
        <ele>102.52</ele>
        <time>2016-10-06T13:15:47Z</time>
      </trkpt>
      <trkpt lat="44.87508" lon="8.21591">
        <ele>102.52</ele>
        <time>2016-10-06T13:15:48Z</time>
      </trkpt>
      <trkpt lat="44.87508" lon="8.216">
        <ele>102.04</ele>
        <time>2016-10-06T13:15:49Z</time>
      </trkpt>
      <trkpt lat="44.8751" lon="8.21608">
        <ele>101.56</ele>
        <time>2016-10-06T13:15:50Z</time>
      </trkpt>
      <trkpt lat="44.87512" lon="8.21615">
        <ele>101.08</ele>
        <time>2016-10-06T13:15:51Z</time>
      </trkpt>
      <trkpt lat="44.87515" lon="8.21631">
        <ele>101.56</ele>
        <time>2016-10-06T13:15:53Z</time>
      </trkpt>
      <trkpt lat="44.87516" lon="8.21638">
        <ele>101.08</ele>
        <time>2016-10-06T13:15:54Z</time>
      </trkpt>
      <trkpt lat="44.87519" lon="8.21695">
        <ele>101.08</ele>
        <time>2016-10-06T13:16:02Z</time>
      </trkpt>
      <trkpt lat="44.87516" lon="8.21727">
        <ele>101.56</ele>
        <time>2016-10-06T13:16:07Z</time>
      </trkpt>
      <trkpt lat="44.87517" lon="8.21818">
        <ele>103.48</ele>
        <time>2016-10-06T13:16:22Z</time>
      </trkpt>
      <trkpt lat="44.87529" lon="8.21943">
        <ele>103.96</ele>
        <time>2016-10-06T13:16:41Z</time>
      </trkpt>
      <trkpt lat="44.87544" lon="8.22073">
        <ele>104.92</ele>
        <time>2016-10-06T13:17:00Z</time>
      </trkpt>
      <trkpt lat="44.87556" lon="8.22179">
        <ele>105.4</ele>
        <time>2016-10-06T13:17:15Z</time>
      </trkpt>
      <trkpt lat="44.87575" lon="8.22338">
        <ele>105.4</ele>
        <time>2016-10-06T13:17:37Z</time>
      </trkpt>
      <trkpt lat="44.87589" lon="8.22457">
        <ele>105.88</ele>
        <time>2016-10-06T13:17:53Z</time>
      </trkpt>
      <trkpt lat="44.87601" lon="8.22576">
        <ele>107.32</ele>
        <time>2016-10-06T13:18:09Z</time>
      </trkpt>
      <trkpt lat="44.87617" lon="8.22717">
        <ele>108.77</ele>
        <time>2016-10-06T13:18:28Z</time>
      </trkpt>
      <trkpt lat="44.87617" lon="8.22724">
        <ele>108.77</ele>
        <time>2016-10-06T13:18:29Z</time>
      </trkpt>
      <trkpt lat="44.87618" lon="8.22731">
        <ele>108.29</ele>
        <time>2016-10-06T13:18:30Z</time>
      </trkpt>
      <trkpt lat="44.87648" lon="8.22858">
        <ele>107.32</ele>
        <time>2016-10-06T13:18:46Z</time>
      </trkpt>
      <trkpt lat="44.87671" lon="8.22922">
        <ele>105.88</ele>
        <time>2016-10-06T13:18:54Z</time>
      </trkpt>
      <trkpt lat="44.87701" lon="8.23017">
        <ele>103.96</ele>
        <time>2016-10-06T13:19:05Z</time>
      </trkpt>
      <trkpt lat="44.87702" lon="8.23027">
        <ele>104.44</ele>
        <time>2016-10-06T13:19:06Z</time>
      </trkpt>
      <trkpt lat="44.87703" lon="8.23036">
        <ele>105.4</ele>
        <time>2016-10-06T13:19:07Z</time>
      </trkpt>
      <trkpt lat="44.87701" lon="8.23073">
        <ele>104.44</ele>
        <time>2016-10-06T13:19:11Z</time>
      </trkpt>
      <trkpt lat="44.87663" lon="8.23174">
        <ele>104.92</ele>
        <time>2016-10-06T13:19:24Z</time>
      </trkpt>
      <trkpt lat="44.87661" lon="8.2318">
        <ele>105.4</ele>
        <time>2016-10-06T13:19:25Z</time>
      </trkpt>
      <trkpt lat="44.87659" lon="8.23186">
        <ele>104.92</ele>
        <time>2016-10-06T13:19:26Z</time>
      </trkpt>
      <trkpt lat="44.87655" lon="8.23207">
        <ele>105.4</ele>
        <time>2016-10-06T13:19:29Z</time>
      </trkpt>
      <trkpt lat="44.87652" lon="8.23339">
        <ele>103</ele>
        <time>2016-10-06T13:19:43Z</time>
      </trkpt>
      <trkpt lat="44.87668" lon="8.23477">
        <ele>102.52</ele>
        <time>2016-10-06T13:19:58Z</time>
      </trkpt>
      <trkpt lat="44.87693" lon="8.23643">
        <ele>100.6</ele>
        <time>2016-10-06T13:20:16Z</time>
      </trkpt>
      <trkpt lat="44.87719" lon="8.23814">
        <ele>99.63</ele>
        <time>2016-10-06T13:20:34Z</time>
      </trkpt>
      <trkpt lat="44.87747" lon="8.2399">
        <ele>98.67</ele>
        <time>2016-10-06T13:20:52Z</time>
      </trkpt>
      <trkpt lat="44.87794" lon="8.24181">
        <ele>98.19</ele>
        <time>2016-10-06T13:21:14Z</time>
      </trkpt>
      <trkpt lat="44.87823" lon="8.24326">
        <ele>98.19</ele>
        <time>2016-10-06T13:21:31Z</time>
      </trkpt>
      <trkpt lat="44.87865" lon="8.24483">
        <ele>98.67</ele>
        <time>2016-10-06T13:21:51Z</time>
      </trkpt>
      <trkpt lat="44.87892" lon="8.24584">
        <ele>98.67</ele>
        <time>2016-10-06T13:22:04Z</time>
      </trkpt>
      <trkpt lat="44.87913" lon="8.24724">
        <ele>97.71</ele>
        <time>2016-10-06T13:22:21Z</time>
      </trkpt>
      <trkpt lat="44.87913" lon="8.24732">
        <ele>97.71</ele>
        <time>2016-10-06T13:22:22Z</time>
      </trkpt>
      <trkpt lat="44.87911" lon="8.24747">
        <ele>97.71</ele>
        <time>2016-10-06T13:22:24Z</time>
      </trkpt>
      <trkpt lat="44.8791" lon="8.24754">
        <ele>97.71</ele>
        <time>2016-10-06T13:22:25Z</time>
      </trkpt>
      <trkpt lat="44.87908" lon="8.24759">
        <ele>98.19</ele>
        <time>2016-10-06T13:22:26Z</time>
      </trkpt>
      <trkpt lat="44.87905" lon="8.24763">
        <ele>98.19</ele>
        <time>2016-10-06T13:22:27Z</time>
      </trkpt>
      <trkpt lat="44.879" lon="8.24765">
        <ele>98.19</ele>
        <time>2016-10-06T13:22:28Z</time>
      </trkpt>
      <trkpt lat="44.87895" lon="8.24767">
        <ele>98.19</ele>
        <time>2016-10-06T13:22:29Z</time>
      </trkpt>
      <trkpt lat="44.8789" lon="8.24768">
        <ele>98.19</ele>
        <time>2016-10-06T13:22:30Z</time>
      </trkpt>
      <trkpt lat="44.87857" lon="8.24785">
        <ele>99.15</ele>
        <time>2016-10-06T13:22:37Z</time>
      </trkpt>
      <trkpt lat="44.87819" lon="8.24841">
        <ele>101.08</ele>
        <time>2016-10-06T13:22:49Z</time>
      </trkpt>
      <trkpt lat="44.8779" lon="8.24891">
        <ele>103.48</ele>
        <time>2016-10-06T13:23:02Z</time>
      </trkpt>
      <trkpt lat="44.87768" lon="8.24912">
        <ele>105.4</ele>
        <time>2016-10-06T13:23:15Z</time>
      </trkpt>
      <trkpt lat="44.87741" lon="8.249">
        <ele>108.29</ele>
        <time>2016-10-06T13:23:31Z</time>
      </trkpt>
      <trkpt lat="44.87718" lon="8.24875">
        <ele>109.73</ele>
        <time>2016-10-06T13:23:47Z</time>
      </trkpt>
      <trkpt lat="44.877" lon="8.24881">
        <ele>112.61</ele>
        <time>2016-10-06T13:24:01Z</time>
      </trkpt>
      <trkpt lat="44.87707" lon="8.2492">
        <ele>115.01</ele>
        <time>2016-10-06T13:24:16Z</time>
      </trkpt>
      <trkpt lat="44.87713" lon="8.24977">
        <ele>117.42</ele>
        <time>2016-10-06T13:24:36Z</time>
      </trkpt>
      <trkpt lat="44.87704" lon="8.2502">
        <ele>119.34</ele>
        <time>2016-10-06T13:24:52Z</time>
      </trkpt>
      <trkpt lat="44.87703" lon="8.25021">
        <ele>119.34</ele>
        <time>2016-10-06T13:24:53Z</time>
      </trkpt>
      <trkpt lat="44.87689" lon="8.25053">
        <ele>121.74</ele>
        <time>2016-10-06T13:25:08Z</time>
      </trkpt>
      <trkpt lat="44.87669" lon="8.25086">
        <ele>123.67</ele>
        <time>2016-10-06T13:25:24Z</time>
      </trkpt>
      <trkpt lat="44.87652" lon="8.2512">
        <ele>127.03</ele>
        <time>2016-10-06T13:25:39Z</time>
      </trkpt>
      <trkpt lat="44.87633" lon="8.25143">
        <ele>129.43</ele>
        <time>2016-10-06T13:25:55Z</time>
      </trkpt>
      <trkpt lat="44.87599" lon="8.25169">
        <ele>130.4</ele>
        <time>2016-10-06T13:26:13Z</time>
      </trkpt>
      <trkpt lat="44.87557" lon="8.252">
        <ele>127.03</ele>
        <time>2016-10-06T13:26:22Z</time>
      </trkpt>
      <trkpt lat="44.87535" lon="8.25216">
        <ele>124.63</ele>
        <time>2016-10-06T13:26:27Z</time>
      </trkpt>
      <trkpt lat="44.87531" lon="8.2522">
        <ele>123.67</ele>
        <time>2016-10-06T13:26:37Z</time>
      </trkpt>
      <trkpt lat="44.87529" lon="8.25224">
        <ele>123.67</ele>
        <time>2016-10-06T13:27:01Z</time>
      </trkpt>
      <trkpt lat="44.87525" lon="8.25221">
        <ele>123.67</ele>
        <time>2016-10-06T13:27:39Z</time>
      </trkpt>
      <trkpt lat="44.87528" lon="8.25222">
        <ele>124.15</ele>
        <time>2016-10-06T13:28:13Z</time>
      </trkpt>
      <trkpt lat="44.87528" lon="8.25224">
        <ele>124.15</ele>
        <time>2016-10-06T13:28:32Z</time>
      </trkpt>
      <trkpt lat="44.87527" lon="8.25226">
        <ele>124.63</ele>
        <time>2016-10-06T13:29:03Z</time>
      </trkpt>
      <trkpt lat="44.87502" lon="8.25245">
        <ele>122.71</ele>
        <time>2016-10-06T13:29:12Z</time>
      </trkpt>
      <trkpt lat="44.87464" lon="8.25274">
        <ele>119.34</ele>
        <time>2016-10-06T13:29:18Z</time>
      </trkpt>
      <trkpt lat="44.87457" lon="8.2528">
        <ele>119.34</ele>
        <time>2016-10-06T13:29:19Z</time>
      </trkpt>
      <trkpt lat="44.87435" lon="8.25298">
        <ele>117.42</ele>
        <time>2016-10-06T13:29:22Z</time>
      </trkpt>
      <trkpt lat="44.87406" lon="8.25321">
        <ele>114.53</ele>
        <time>2016-10-06T13:29:26Z</time>
      </trkpt>
      <trkpt lat="44.87377" lon="8.25346">
        <ele>111.65</ele>
        <time>2016-10-06T13:29:31Z</time>
      </trkpt>
      <trkpt lat="44.87373" lon="8.25352">
        <ele>111.17</ele>
        <time>2016-10-06T13:29:32Z</time>
      </trkpt>
      <trkpt lat="44.87371" lon="8.25359">
        <ele>111.17</ele>
        <time>2016-10-06T13:29:33Z</time>
      </trkpt>
      <trkpt lat="44.87371" lon="8.25366">
        <ele>110.69</ele>
        <time>2016-10-06T13:29:34Z</time>
      </trkpt>
      <trkpt lat="44.87372" lon="8.25374">
        <ele>109.73</ele>
        <time>2016-10-06T13:29:35Z</time>
      </trkpt>
      <trkpt lat="44.87375" lon="8.25383">
        <ele>109.25</ele>
        <time>2016-10-06T13:29:36Z</time>
      </trkpt>
      <trkpt lat="44.87379" lon="8.25391">
        <ele>108.77</ele>
        <time>2016-10-06T13:29:37Z</time>
      </trkpt>
      <trkpt lat="44.87402" lon="8.2544">
        <ele>108.77</ele>
        <time>2016-10-06T13:29:43Z</time>
      </trkpt>
      <trkpt lat="44.87407" lon="8.25447">
        <ele>109.25</ele>
        <time>2016-10-06T13:29:44Z</time>
      </trkpt>
      <trkpt lat="44.87411" lon="8.25453">
        <ele>108.77</ele>
        <time>2016-10-06T13:29:45Z</time>
      </trkpt>
      <trkpt lat="44.87416" lon="8.25459">
        <ele>109.73</ele>
        <time>2016-10-06T13:29:46Z</time>
      </trkpt>
      <trkpt lat="44.8742" lon="8.25465">
        <ele>109.73</ele>
        <time>2016-10-06T13:29:47Z</time>
      </trkpt>
      <trkpt lat="44.87426" lon="8.25469">
        <ele>109.25</ele>
        <time>2016-10-06T13:29:48Z</time>
      </trkpt>
      <trkpt lat="44.87445" lon="8.25491">
        <ele>108.29</ele>
        <time>2016-10-06T13:29:52Z</time>
      </trkpt>
      <trkpt lat="44.87473" lon="8.25535">
        <ele>108.29</ele>
        <time>2016-10-06T13:29:59Z</time>
      </trkpt>
      <trkpt lat="44.87484" lon="8.25572">
        <ele>108.29</ele>
        <time>2016-10-06T13:30:04Z</time>
      </trkpt>
      <trkpt lat="44.87487" lon="8.2558">
        <ele>108.29</ele>
        <time>2016-10-06T13:30:05Z</time>
      </trkpt>
      <trkpt lat="44.8749" lon="8.25587">
        <ele>107.32</ele>
        <time>2016-10-06T13:30:06Z</time>
      </trkpt>
      <trkpt lat="44.87493" lon="8.25594">
        <ele>107.32</ele>
        <time>2016-10-06T13:30:07Z</time>
      </trkpt>
      <trkpt lat="44.87497" lon="8.25601">
        <ele>107.32</ele>
        <time>2016-10-06T13:30:08Z</time>
      </trkpt>
      <trkpt lat="44.87504" lon="8.25615">
        <ele>107.32</ele>
        <time>2016-10-06T13:30:10Z</time>
      </trkpt>
      <trkpt lat="44.87507" lon="8.25622">
        <ele>107.32</ele>
        <time>2016-10-06T13:30:11Z</time>
      </trkpt>
      <trkpt lat="44.87563" lon="8.25757">
        <ele>106.36</ele>
        <time>2016-10-06T13:30:28Z</time>
      </trkpt>
      <trkpt lat="44.87623" lon="8.25891">
        <ele>106.36</ele>
        <time>2016-10-06T13:30:46Z</time>
      </trkpt>
      <trkpt lat="44.87658" lon="8.2599">
        <ele>108.29</ele>
        <time>2016-10-06T13:31:02Z</time>
      </trkpt>
      <trkpt lat="44.87704" lon="8.26098">
        <ele>109.25</ele>
        <time>2016-10-06T13:31:21Z</time>
      </trkpt>
      <trkpt lat="44.8773" lon="8.26146">
        <ele>108.77</ele>
        <time>2016-10-06T13:31:30Z</time>
      </trkpt>
      <trkpt lat="44.87731" lon="8.26152">
        <ele>108.29</ele>
        <time>2016-10-06T13:31:31Z</time>
      </trkpt>
      <trkpt lat="44.8773" lon="8.26158">
        <ele>107.81</ele>
        <time>2016-10-06T13:31:32Z</time>
      </trkpt>
      <trkpt lat="44.87728" lon="8.26164">
        <ele>108.29</ele>
        <time>2016-10-06T13:31:33Z</time>
      </trkpt>
      <trkpt lat="44.87724" lon="8.26169">
        <ele>107.81</ele>
        <time>2016-10-06T13:31:34Z</time>
      </trkpt>
      <trkpt lat="44.87719" lon="8.26174">
        <ele>107.81</ele>
        <time>2016-10-06T13:31:35Z</time>
      </trkpt>
      <trkpt lat="44.87652" lon="8.26229">
        <ele>108.77</ele>
        <time>2016-10-06T13:31:49Z</time>
      </trkpt>
      <trkpt lat="44.87629" lon="8.2624">
        <ele>112.13</ele>
        <time>2016-10-06T13:32:00Z</time>
      </trkpt>
      <trkpt lat="44.87603" lon="8.26254">
        <ele>114.05</ele>
        <time>2016-10-06T13:32:16Z</time>
      </trkpt>
      <trkpt lat="44.87571" lon="8.26267">
        <ele>116.94</ele>
        <time>2016-10-06T13:32:34Z</time>
      </trkpt>
      <trkpt lat="44.87539" lon="8.26279">
        <ele>119.34</ele>
        <time>2016-10-06T13:32:53Z</time>
      </trkpt>
      <trkpt lat="44.8752" lon="8.26287">
        <ele>121.26</ele>
        <time>2016-10-06T13:33:06Z</time>
      </trkpt>
      <trkpt lat="44.87493" lon="8.26295">
        <ele>124.15</ele>
        <time>2016-10-06T13:33:24Z</time>
      </trkpt>
      <trkpt lat="44.87468" lon="8.26304">
        <ele>127.03</ele>
        <time>2016-10-06T13:33:42Z</time>
      </trkpt>
      <trkpt lat="44.87448" lon="8.26323">
        <ele>130.4</ele>
        <time>2016-10-06T13:34:00Z</time>
      </trkpt>
      <trkpt lat="44.87465" lon="8.2634">
        <ele>132.32</ele>
        <time>2016-10-06T13:34:14Z</time>
      </trkpt>
      <trkpt lat="44.87483" lon="8.26349">
        <ele>134.24</ele>
        <time>2016-10-06T13:34:25Z</time>
      </trkpt>
      <trkpt lat="44.87516" lon="8.26358">
        <ele>136.16</ele>
        <time>2016-10-06T13:34:44Z</time>
      </trkpt>
      <trkpt lat="44.87546" lon="8.26356">
        <ele>137.61</ele>
        <time>2016-10-06T13:35:00Z</time>
      </trkpt>
      <trkpt lat="44.87583" lon="8.26354">
        <ele>140.01</ele>
        <time>2016-10-06T13:35:19Z</time>
      </trkpt>
      <trkpt lat="44.87611" lon="8.26352">
        <ele>141.93</ele>
        <time>2016-10-06T13:35:35Z</time>
      </trkpt>
      <trkpt lat="44.8761" lon="8.26368">
        <ele>143.85</ele>
        <time>2016-10-06T13:35:47Z</time>
      </trkpt>
      <trkpt lat="44.87587" lon="8.26379">
        <ele>147.22</ele>
        <time>2016-10-06T13:36:05Z</time>
      </trkpt>
      <trkpt lat="44.87564" lon="8.26392">
        <ele>150.58</ele>
        <time>2016-10-06T13:36:22Z</time>
      </trkpt>
      <trkpt lat="44.87544" lon="8.26403">
        <ele>151.54</ele>
        <time>2016-10-06T13:36:37Z</time>
      </trkpt>
      <trkpt lat="44.87522" lon="8.26416">
        <ele>154.43</ele>
        <time>2016-10-06T13:36:53Z</time>
      </trkpt>
      <trkpt lat="44.87501" lon="8.26429">
        <ele>156.83</ele>
        <time>2016-10-06T13:37:08Z</time>
      </trkpt>
      <trkpt lat="44.87479" lon="8.26444">
        <ele>158.27</ele>
        <time>2016-10-06T13:37:23Z</time>
      </trkpt>
      <trkpt lat="44.87461" lon="8.26457">
        <ele>161.16</ele>
        <time>2016-10-06T13:37:36Z</time>
      </trkpt>
      <trkpt lat="44.87439" lon="8.26477">
        <ele>164.04</ele>
        <time>2016-10-06T13:37:53Z</time>
      </trkpt>
      <trkpt lat="44.87417" lon="8.26495">
        <ele>165.96</ele>
        <time>2016-10-06T13:38:11Z</time>
      </trkpt>
      <trkpt lat="44.87409" lon="8.26502">
        <ele>166.93</ele>
        <time>2016-10-06T13:38:18Z</time>
      </trkpt>
      <trkpt lat="44.87391" lon="8.26521">
        <ele>168.85</ele>
        <time>2016-10-06T13:38:34Z</time>
      </trkpt>
      <trkpt lat="44.8738" lon="8.26551">
        <ele>170.29</ele>
        <time>2016-10-06T13:38:50Z</time>
      </trkpt>
      <trkpt lat="44.87378" lon="8.26556">
        <ele>171.73</ele>
        <time>2016-10-06T13:38:53Z</time>
      </trkpt>
      <trkpt lat="44.87374" lon="8.26595">
        <ele>174.62</ele>
        <time>2016-10-06T13:39:11Z</time>
      </trkpt>
      <trkpt lat="44.87372" lon="8.26613">
        <ele>175.58</ele>
        <time>2016-10-06T13:39:20Z</time>
      </trkpt>
      <trkpt lat="44.87373" lon="8.26614">
        <ele>175.58</ele>
        <time>2016-10-06T13:39:21Z</time>
      </trkpt>
      <trkpt lat="44.87375" lon="8.26615">
        <ele>176.06</ele>
        <time>2016-10-06T13:39:22Z</time>
      </trkpt>
      <trkpt lat="44.87396" lon="8.26626">
        <ele>177.5</ele>
        <time>2016-10-06T13:39:36Z</time>
      </trkpt>
      <trkpt lat="44.87419" lon="8.2665">
        <ele>178.94</ele>
        <time>2016-10-06T13:39:53Z</time>
      </trkpt>
      <trkpt lat="44.87427" lon="8.26658">
        <ele>180.38</ele>
        <time>2016-10-06T13:39:58Z</time>
      </trkpt>
      <trkpt lat="44.87428" lon="8.2666">
        <ele>180.38</ele>
        <time>2016-10-06T13:39:59Z</time>
      </trkpt>
      <trkpt lat="44.87428" lon="8.26662">
        <ele>180.38</ele>
        <time>2016-10-06T13:40:00Z</time>
      </trkpt>
      <trkpt lat="44.8744" lon="8.26692">
        <ele>183.27</ele>
        <time>2016-10-06T13:40:17Z</time>
      </trkpt>
      <trkpt lat="44.8746" lon="8.26723">
        <ele>185.67</ele>
        <time>2016-10-06T13:40:37Z</time>
      </trkpt>
      <trkpt lat="44.87476" lon="8.26749">
        <ele>187.59</ele>
        <time>2016-10-06T13:40:52Z</time>
      </trkpt>
      <trkpt lat="44.87477" lon="8.26753">
        <ele>187.59</ele>
        <time>2016-10-06T13:40:54Z</time>
      </trkpt>
      <trkpt lat="44.87479" lon="8.26754">
        <ele>187.59</ele>
        <time>2016-10-06T13:40:55Z</time>
      </trkpt>
      <trkpt lat="44.87481" lon="8.26755">
        <ele>187.59</ele>
        <time>2016-10-06T13:40:56Z</time>
      </trkpt>
      <trkpt lat="44.87482" lon="8.26756">
        <ele>187.11</ele>
        <time>2016-10-06T13:40:57Z</time>
      </trkpt>
      <trkpt lat="44.87485" lon="8.26757">
        <ele>187.59</ele>
        <time>2016-10-06T13:40:58Z</time>
      </trkpt>
      <trkpt lat="44.87487" lon="8.26758">
        <ele>187.11</ele>
        <time>2016-10-06T13:40:59Z</time>
      </trkpt>
      <trkpt lat="44.87501" lon="8.26768">
        <ele>186.15</ele>
        <time>2016-10-06T13:41:04Z</time>
      </trkpt>
      <trkpt lat="44.87533" lon="8.26784">
        <ele>183.75</ele>
        <time>2016-10-06T13:41:10Z</time>
      </trkpt>
      <trkpt lat="44.87546" lon="8.26793">
        <ele>182.79</ele>
        <time>2016-10-06T13:41:12Z</time>
      </trkpt>
      <trkpt lat="44.87585" lon="8.26817">
        <ele>179.42</ele>
        <time>2016-10-06T13:41:18Z</time>
      </trkpt>
      <trkpt lat="44.87604" lon="8.26828">
        <ele>177.5</ele>
        <time>2016-10-06T13:41:21Z</time>
      </trkpt>
      <trkpt lat="44.87608" lon="8.26834">
        <ele>177.02</ele>
        <time>2016-10-06T13:41:22Z</time>
      </trkpt>
      <trkpt lat="44.87612" lon="8.26841">
        <ele>176.06</ele>
        <time>2016-10-06T13:41:23Z</time>
      </trkpt>
      <trkpt lat="44.87613" lon="8.2685">
        <ele>175.58</ele>
        <time>2016-10-06T13:41:24Z</time>
      </trkpt>
      <trkpt lat="44.87614" lon="8.26858">
        <ele>174.14</ele>
        <time>2016-10-06T13:41:25Z</time>
      </trkpt>
      <trkpt lat="44.87614" lon="8.26867">
        <ele>174.14</ele>
        <time>2016-10-06T13:41:26Z</time>
      </trkpt>
      <trkpt lat="44.87613" lon="8.26877">
        <ele>173.66</ele>
        <time>2016-10-06T13:41:27Z</time>
      </trkpt>
      <trkpt lat="44.87612" lon="8.26887">
        <ele>172.69</ele>
        <time>2016-10-06T13:41:28Z</time>
      </trkpt>
      <trkpt lat="44.8761" lon="8.26898">
        <ele>172.21</ele>
        <time>2016-10-06T13:41:29Z</time>
      </trkpt>
      <trkpt lat="44.87601" lon="8.26936">
        <ele>169.81</ele>
        <time>2016-10-06T13:41:32Z</time>
      </trkpt>
      <trkpt lat="44.8759" lon="8.26986">
        <ele>166.93</ele>
        <time>2016-10-06T13:41:36Z</time>
      </trkpt>
      <trkpt lat="44.87582" lon="8.27024">
        <ele>163.56</ele>
        <time>2016-10-06T13:41:39Z</time>
      </trkpt>
      <trkpt lat="44.8758" lon="8.27036">
        <ele>164.04</ele>
        <time>2016-10-06T13:41:40Z</time>
      </trkpt>
      <trkpt lat="44.87573" lon="8.27074">
        <ele>160.2</ele>
        <time>2016-10-06T13:41:43Z</time>
      </trkpt>
      <trkpt lat="44.87571" lon="8.27087">
        <ele>159.72</ele>
        <time>2016-10-06T13:41:44Z</time>
      </trkpt>
      <trkpt lat="44.87569" lon="8.27113">
        <ele>158.75</ele>
        <time>2016-10-06T13:41:46Z</time>
      </trkpt>
      <trkpt lat="44.87567" lon="8.27152">
        <ele>154.91</ele>
        <time>2016-10-06T13:41:49Z</time>
      </trkpt>
      <trkpt lat="44.87566" lon="8.27166">
        <ele>154.91</ele>
        <time>2016-10-06T13:41:50Z</time>
      </trkpt>
      <trkpt lat="44.87565" lon="8.27193">
        <ele>150.58</ele>
        <time>2016-10-06T13:41:52Z</time>
      </trkpt>
      <trkpt lat="44.87553" lon="8.2728">
        <ele>146.26</ele>
        <time>2016-10-06T13:41:58Z</time>
      </trkpt>
      <trkpt lat="44.87549" lon="8.27296">
        <ele>146.74</ele>
        <time>2016-10-06T13:41:59Z</time>
      </trkpt>
      <trkpt lat="44.87538" lon="8.27342">
        <ele>143.37</ele>
        <time>2016-10-06T13:42:02Z</time>
      </trkpt>
      <trkpt lat="44.8753" lon="8.27373">
        <ele>140.01</ele>
        <time>2016-10-06T13:42:04Z</time>
      </trkpt>
      <trkpt lat="44.87522" lon="8.27404">
        <ele>139.05</ele>
        <time>2016-10-06T13:42:06Z</time>
      </trkpt>
      <trkpt lat="44.87518" lon="8.27419">
        <ele>135.68</ele>
        <time>2016-10-06T13:42:07Z</time>
      </trkpt>
      <trkpt lat="44.87495" lon="8.27511">
        <ele>131.84</ele>
        <time>2016-10-06T13:42:13Z</time>
      </trkpt>
      <trkpt lat="44.87488" lon="8.27541">
        <ele>128.47</ele>
        <time>2016-10-06T13:42:15Z</time>
      </trkpt>
      <trkpt lat="44.87477" lon="8.27586">
        <ele>125.59</ele>
        <time>2016-10-06T13:42:18Z</time>
      </trkpt>
      <trkpt lat="44.87463" lon="8.27643">
        <ele>121.74</ele>
        <time>2016-10-06T13:42:22Z</time>
      </trkpt>
      <trkpt lat="44.87452" lon="8.27688">
        <ele>118.38</ele>
        <time>2016-10-06T13:42:25Z</time>
      </trkpt>
      <trkpt lat="44.87448" lon="8.27703">
        <ele>118.38</ele>
        <time>2016-10-06T13:42:26Z</time>
      </trkpt>
      <trkpt lat="44.87439" lon="8.27749">
        <ele>115.5</ele>
        <time>2016-10-06T13:42:29Z</time>
      </trkpt>
      <trkpt lat="44.87437" lon="8.27782">
        <ele>113.57</ele>
        <time>2016-10-06T13:42:31Z</time>
      </trkpt>
      <trkpt lat="44.87438" lon="8.27798">
        <ele>113.09</ele>
        <time>2016-10-06T13:42:32Z</time>
      </trkpt>
      <trkpt lat="44.87441" lon="8.27814">
        <ele>112.13</ele>
        <time>2016-10-06T13:42:33Z</time>
      </trkpt>
      <trkpt lat="44.87446" lon="8.27829">
        <ele>111.65</ele>
        <time>2016-10-06T13:42:34Z</time>
      </trkpt>
      <trkpt lat="44.87452" lon="8.27843">
        <ele>110.69</ele>
        <time>2016-10-06T13:42:35Z</time>
      </trkpt>
      <trkpt lat="44.87459" lon="8.27856">
        <ele>110.21</ele>
        <time>2016-10-06T13:42:36Z</time>
      </trkpt>
      <trkpt lat="44.87466" lon="8.27869">
        <ele>110.21</ele>
        <time>2016-10-06T13:42:37Z</time>
      </trkpt>
      <trkpt lat="44.87473" lon="8.27881">
        <ele>108.77</ele>
        <time>2016-10-06T13:42:38Z</time>
      </trkpt>
      <trkpt lat="44.87481" lon="8.27893">
        <ele>108.77</ele>
        <time>2016-10-06T13:42:39Z</time>
      </trkpt>
      <trkpt lat="44.87511" lon="8.27942">
        <ele>106.36</ele>
        <time>2016-10-06T13:42:43Z</time>
      </trkpt>
      <trkpt lat="44.87516" lon="8.27957">
        <ele>105.88</ele>
        <time>2016-10-06T13:42:44Z</time>
      </trkpt>
      <trkpt lat="44.87518" lon="8.27973">
        <ele>103.96</ele>
        <time>2016-10-06T13:42:45Z</time>
      </trkpt>
      <trkpt lat="44.87519" lon="8.27989">
        <ele>103</ele>
        <time>2016-10-06T13:42:46Z</time>
      </trkpt>
      <trkpt lat="44.8752" lon="8.28005">
        <ele>103</ele>
        <time>2016-10-06T13:42:47Z</time>
      </trkpt>
      <trkpt lat="44.87518" lon="8.2802">
        <ele>101.56</ele>
        <time>2016-10-06T13:42:48Z</time>
      </trkpt>
      <trkpt lat="44.87515" lon="8.28034">
        <ele>101.56</ele>
        <time>2016-10-06T13:42:49Z</time>
      </trkpt>
      <trkpt lat="44.87511" lon="8.28047">
        <ele>101.08</ele>
        <time>2016-10-06T13:42:50Z</time>
      </trkpt>
      <trkpt lat="44.87505" lon="8.28058">
        <ele>100.11</ele>
        <time>2016-10-06T13:42:51Z</time>
      </trkpt>
      <trkpt lat="44.87499" lon="8.28067">
        <ele>100.6</ele>
        <time>2016-10-06T13:42:52Z</time>
      </trkpt>
      <trkpt lat="44.87494" lon="8.28073">
        <ele>100.6</ele>
        <time>2016-10-06T13:42:53Z</time>
      </trkpt>
      <trkpt lat="44.87487" lon="8.28079">
        <ele>100.11</ele>
        <time>2016-10-06T13:42:54Z</time>
      </trkpt>
      <trkpt lat="44.87481" lon="8.28084">
        <ele>100.11</ele>
        <time>2016-10-06T13:42:55Z</time>
      </trkpt>
      <trkpt lat="44.87475" lon="8.28087">
        <ele>100.11</ele>
        <time>2016-10-06T13:42:56Z</time>
      </trkpt>
      <trkpt lat="44.87455" lon="8.28092">
        <ele>101.08</ele>
        <time>2016-10-06T13:43:00Z</time>
      </trkpt>
      <trkpt lat="44.87443" lon="8.28093">
        <ele>102.52</ele>
        <time>2016-10-06T13:43:09Z</time>
      </trkpt>
      <trkpt lat="44.87441" lon="8.28093">
        <ele>102.52</ele>
        <time>2016-10-06T13:43:39Z</time>
      </trkpt>
      <trkpt lat="44.8744" lon="8.28094">
        <ele>102.52</ele>
        <time>2016-10-06T13:43:40Z</time>
      </trkpt>
      <trkpt lat="44.87438" lon="8.28094">
        <ele>103</ele>
        <time>2016-10-06T13:43:41Z</time>
      </trkpt>
      <trkpt lat="44.87437" lon="8.28095">
        <ele>102.52</ele>
        <time>2016-10-06T13:43:42Z</time>
      </trkpt>
      <trkpt lat="44.87435" lon="8.28096">
        <ele>103</ele>
        <time>2016-10-06T13:43:43Z</time>
      </trkpt>
      <trkpt lat="44.87434" lon="8.28097">
        <ele>103</ele>
        <time>2016-10-06T13:43:44Z</time>
      </trkpt>
      <trkpt lat="44.87432" lon="8.28098">
        <ele>103.48</ele>
        <time>2016-10-06T13:43:45Z</time>
      </trkpt>
      <trkpt lat="44.8743" lon="8.28099">
        <ele>103.48</ele>
        <time>2016-10-06T13:43:46Z</time>
      </trkpt>
      <trkpt lat="44.87399" lon="8.28112">
        <ele>105.88</ele>
        <time>2016-10-06T13:44:04Z</time>
      </trkpt>
      <trkpt lat="44.87371" lon="8.2812">
        <ele>108.29</ele>
        <time>2016-10-06T13:44:20Z</time>
      </trkpt>
      <trkpt lat="44.87347" lon="8.28123">
        <ele>110.21</ele>
        <time>2016-10-06T13:44:33Z</time>
      </trkpt>
      <trkpt lat="44.87317" lon="8.28134">
        <ele>111.65</ele>
        <time>2016-10-06T13:44:50Z</time>
      </trkpt>
      <trkpt lat="44.8729" lon="8.28142">
        <ele>114.53</ele>
        <time>2016-10-06T13:45:07Z</time>
      </trkpt>
      <trkpt lat="44.8727" lon="8.28151">
        <ele>115.98</ele>
        <time>2016-10-06T13:45:21Z</time>
      </trkpt>
      <trkpt lat="44.87243" lon="8.28162">
        <ele>118.38</ele>
        <time>2016-10-06T13:45:39Z</time>
      </trkpt>
      <trkpt lat="44.87223" lon="8.28166">
        <ele>120.3</ele>
        <time>2016-10-06T13:45:52Z</time>
      </trkpt>
      <trkpt lat="44.87192" lon="8.2817">
        <ele>122.71</ele>
        <time>2016-10-06T13:46:10Z</time>
      </trkpt>
      <trkpt lat="44.87164" lon="8.28175">
        <ele>125.11</ele>
        <time>2016-10-06T13:46:27Z</time>
      </trkpt>
      <trkpt lat="44.87137" lon="8.2818">
        <ele>127.99</ele>
        <time>2016-10-06T13:46:43Z</time>
      </trkpt>
      <trkpt lat="44.87117" lon="8.28195">
        <ele>129.92</ele>
        <time>2016-10-06T13:46:58Z</time>
      </trkpt>
      <trkpt lat="44.87121" lon="8.28208">
        <ele>130.88</ele>
        <time>2016-10-06T13:47:06Z</time>
      </trkpt>
      <trkpt lat="44.87123" lon="8.28209">
        <ele>130.88</ele>
        <time>2016-10-06T13:47:07Z</time>
      </trkpt>
      <trkpt lat="44.87124" lon="8.28209">
        <ele>131.36</ele>
        <time>2016-10-06T13:47:08Z</time>
      </trkpt>
      <trkpt lat="44.87152" lon="8.28211">
        <ele>133.28</ele>
        <time>2016-10-06T13:47:26Z</time>
      </trkpt>
      <trkpt lat="44.87185" lon="8.28221">
        <ele>136.64</ele>
        <time>2016-10-06T13:47:46Z</time>
      </trkpt>
      <trkpt lat="44.87207" lon="8.28223">
        <ele>138.09</ele>
        <time>2016-10-06T13:48:00Z</time>
      </trkpt>
      <trkpt lat="44.87234" lon="8.28225">
        <ele>141.45</ele>
        <time>2016-10-06T13:48:18Z</time>
      </trkpt>
      <trkpt lat="44.87266" lon="8.28233">
        <ele>143.85</ele>
        <time>2016-10-06T13:48:39Z</time>
      </trkpt>
      <trkpt lat="44.87282" lon="8.28263">
        <ele>145.3</ele>
        <time>2016-10-06T13:48:52Z</time>
      </trkpt>
      <trkpt lat="44.87281" lon="8.28274">
        <ele>146.26</ele>
        <time>2016-10-06T13:48:58Z</time>
      </trkpt>
      <trkpt lat="44.8728" lon="8.28275">
        <ele>146.74</ele>
        <time>2016-10-06T13:48:59Z</time>
      </trkpt>
      <trkpt lat="44.8728" lon="8.28276">
        <ele>146.74</ele>
        <time>2016-10-06T13:49:00Z</time>
      </trkpt>
      <trkpt lat="44.87267" lon="8.28303">
        <ele>149.62</ele>
        <time>2016-10-06T13:49:16Z</time>
      </trkpt>
      <trkpt lat="44.87262" lon="8.28326">
        <ele>150.58</ele>
        <time>2016-10-06T13:49:31Z</time>
      </trkpt>
      <trkpt lat="44.87262" lon="8.28356">
        <ele>153.95</ele>
        <time>2016-10-06T13:49:47Z</time>
      </trkpt>
      <trkpt lat="44.87261" lon="8.28393">
        <ele>155.87</ele>
        <time>2016-10-06T13:50:02Z</time>
      </trkpt>
      <trkpt lat="44.8726" lon="8.28402">
        <ele>156.35</ele>
        <time>2016-10-06T13:50:06Z</time>
      </trkpt>
      <trkpt lat="44.87258" lon="8.28403">
        <ele>156.35</ele>
        <time>2016-10-06T13:50:07Z</time>
      </trkpt>
      <trkpt lat="44.87257" lon="8.28404">
        <ele>156.83</ele>
        <time>2016-10-06T13:50:08Z</time>
      </trkpt>
      <trkpt lat="44.87257" lon="8.28406">
        <ele>156.35</ele>
        <time>2016-10-06T13:50:09Z</time>
      </trkpt>
      <trkpt lat="44.87256" lon="8.28407">
        <ele>156.83</ele>
        <time>2016-10-06T13:50:10Z</time>
      </trkpt>
      <trkpt lat="44.87256" lon="8.28407">
        <ele>157.79</ele>
        <time>2016-10-06T13:50:11Z</time>
      </trkpt>
      <trkpt lat="44.87256" lon="8.28408">
        <ele>157.31</ele>
        <time>2016-10-06T13:50:12Z</time>
      </trkpt>
      <trkpt lat="44.87255" lon="8.28407">
        <ele>157.79</ele>
        <time>2016-10-06T13:50:13Z</time>
      </trkpt>
      <trkpt lat="44.87255" lon="8.28406">
        <ele>158.27</ele>
        <time>2016-10-06T13:50:14Z</time>
      </trkpt>
      <trkpt lat="44.87254" lon="8.28405">
        <ele>158.27</ele>
        <time>2016-10-06T13:50:15Z</time>
      </trkpt>
      <trkpt lat="44.87254" lon="8.28399">
        <ele>158.27</ele>
        <time>2016-10-06T13:50:21Z</time>
      </trkpt>
      <trkpt lat="44.87254" lon="8.28398">
        <ele>158.75</ele>
        <time>2016-10-06T13:50:22Z</time>
      </trkpt>
      <trkpt lat="44.87249" lon="8.28365">
        <ele>160.2</ele>
        <time>2016-10-06T13:50:37Z</time>
      </trkpt>
      <trkpt lat="44.87243" lon="8.2833">
        <ele>161.64</ele>
        <time>2016-10-06T13:50:51Z</time>
      </trkpt>
      <trkpt lat="44.8723" lon="8.28293">
        <ele>163.56</ele>
        <time>2016-10-06T13:51:05Z</time>
      </trkpt>
      <trkpt lat="44.87218" lon="8.28294">
        <ele>164.04</ele>
        <time>2016-10-06T13:51:11Z</time>
      </trkpt>
      <trkpt lat="44.87218" lon="8.28296">
        <ele>164.04</ele>
        <time>2016-10-06T13:51:12Z</time>
      </trkpt>
      <trkpt lat="44.87217" lon="8.28299">
        <ele>164.04</ele>
        <time>2016-10-06T13:51:13Z</time>
      </trkpt>
      <trkpt lat="44.87217" lon="8.28301">
        <ele>164.52</ele>
        <time>2016-10-06T13:51:14Z</time>
      </trkpt>
      <trkpt lat="44.87217" lon="8.28304">
        <ele>164.52</ele>
        <time>2016-10-06T13:51:15Z</time>
      </trkpt>
      <trkpt lat="44.87216" lon="8.28307">
        <ele>165</ele>
        <time>2016-10-06T13:51:16Z</time>
      </trkpt>
      <trkpt lat="44.87216" lon="8.28309">
        <ele>165</ele>
        <time>2016-10-06T13:51:17Z</time>
      </trkpt>
      <trkpt lat="44.87216" lon="8.28312">
        <ele>164.52</ele>
        <time>2016-10-06T13:51:18Z</time>
      </trkpt>
      <trkpt lat="44.87217" lon="8.28314">
        <ele>165</ele>
        <time>2016-10-06T13:51:19Z</time>
      </trkpt>
      <trkpt lat="44.87217" lon="8.28318">
        <ele>165</ele>
        <time>2016-10-06T13:51:20Z</time>
      </trkpt>
      <trkpt lat="44.87221" lon="8.28357">
        <ele>166.93</ele>
        <time>2016-10-06T13:51:35Z</time>
      </trkpt>
      <trkpt lat="44.87221" lon="8.28394">
        <ele>168.37</ele>
        <time>2016-10-06T13:51:48Z</time>
      </trkpt>
      <trkpt lat="44.87219" lon="8.28438">
        <ele>169.81</ele>
        <time>2016-10-06T13:52:02Z</time>
      </trkpt>
      <trkpt lat="44.87217" lon="8.28471">
        <ele>169.81</ele>
        <time>2016-10-06T13:52:12Z</time>
      </trkpt>
      <trkpt lat="44.87217" lon="8.28474">
        <ele>170.77</ele>
        <time>2016-10-06T13:52:13Z</time>
      </trkpt>
      <trkpt lat="44.87218" lon="8.28477">
        <ele>170.29</ele>
        <time>2016-10-06T13:52:14Z</time>
      </trkpt>
      <trkpt lat="44.8722" lon="8.28479">
        <ele>170.29</ele>
        <time>2016-10-06T13:52:15Z</time>
      </trkpt>
      <trkpt lat="44.87221" lon="8.28482">
        <ele>170.29</ele>
        <time>2016-10-06T13:52:16Z</time>
      </trkpt>
      <trkpt lat="44.87222" lon="8.28484">
        <ele>170.29</ele>
        <time>2016-10-06T13:52:17Z</time>
      </trkpt>
      <trkpt lat="44.87221" lon="8.28489">
        <ele>170.29</ele>
        <time>2016-10-06T13:52:24Z</time>
      </trkpt>
      <trkpt lat="44.87222" lon="8.28491">
        <ele>170.29</ele>
        <time>2016-10-06T13:52:25Z</time>
      </trkpt>
      <trkpt lat="44.87224" lon="8.28493">
        <ele>170.29</ele>
        <time>2016-10-06T13:52:26Z</time>
      </trkpt>
      <trkpt lat="44.87225" lon="8.28495">
        <ele>170.77</ele>
        <time>2016-10-06T13:52:27Z</time>
      </trkpt>
      <trkpt lat="44.87226" lon="8.28497">
        <ele>170.29</ele>
        <time>2016-10-06T13:52:28Z</time>
      </trkpt>
      <trkpt lat="44.87228" lon="8.28499">
        <ele>170.77</ele>
        <time>2016-10-06T13:52:29Z</time>
      </trkpt>
      <trkpt lat="44.8723" lon="8.28501">
        <ele>170.77</ele>
        <time>2016-10-06T13:52:30Z</time>
      </trkpt>
      <trkpt lat="44.87275" lon="8.28549">
        <ele>172.69</ele>
        <time>2016-10-06T13:52:46Z</time>
      </trkpt>
      <trkpt lat="44.87286" lon="8.28574">
        <ele>174.62</ele>
        <time>2016-10-06T13:52:54Z</time>
      </trkpt>
      <trkpt lat="44.87287" lon="8.28579">
        <ele>174.62</ele>
        <time>2016-10-06T13:52:56Z</time>
      </trkpt>
      <trkpt lat="44.87288" lon="8.28581">
        <ele>173.66</ele>
        <time>2016-10-06T13:52:57Z</time>
      </trkpt>
      <trkpt lat="44.87289" lon="8.28584">
        <ele>174.14</ele>
        <time>2016-10-06T13:52:58Z</time>
      </trkpt>
      <trkpt lat="44.87291" lon="8.28589">
        <ele>173.66</ele>
        <time>2016-10-06T13:52:59Z</time>
      </trkpt>
      <trkpt lat="44.87294" lon="8.28594">
        <ele>173.17</ele>
        <time>2016-10-06T13:53:00Z</time>
      </trkpt>
      <trkpt lat="44.87298" lon="8.28599">
        <ele>172.69</ele>
        <time>2016-10-06T13:53:01Z</time>
      </trkpt>
      <trkpt lat="44.87301" lon="8.28606">
        <ele>172.69</ele>
        <time>2016-10-06T13:53:02Z</time>
      </trkpt>
      <trkpt lat="44.87304" lon="8.28615">
        <ele>171.73</ele>
        <time>2016-10-06T13:53:03Z</time>
      </trkpt>
      <trkpt lat="44.87305" lon="8.28625">
        <ele>170.77</ele>
        <time>2016-10-06T13:53:04Z</time>
      </trkpt>
      <trkpt lat="44.87307" lon="8.28636">
        <ele>169.81</ele>
        <time>2016-10-06T13:53:05Z</time>
      </trkpt>
      <trkpt lat="44.8731" lon="8.28657">
        <ele>165.96</ele>
        <time>2016-10-06T13:53:07Z</time>
      </trkpt>
      <trkpt lat="44.87313" lon="8.28676">
        <ele>165</ele>
        <time>2016-10-06T13:53:09Z</time>
      </trkpt>
      <trkpt lat="44.87316" lon="8.28684">
        <ele>165.96</ele>
        <time>2016-10-06T13:53:10Z</time>
      </trkpt>
      <trkpt lat="44.87319" lon="8.28692">
        <ele>165.48</ele>
        <time>2016-10-06T13:53:11Z</time>
      </trkpt>
      <trkpt lat="44.87324" lon="8.28699">
        <ele>165</ele>
        <time>2016-10-06T13:53:12Z</time>
      </trkpt>
      <trkpt lat="44.87329" lon="8.28705">
        <ele>164.52</ele>
        <time>2016-10-06T13:53:13Z</time>
      </trkpt>
      <trkpt lat="44.87338" lon="8.28719">
        <ele>163.56</ele>
        <time>2016-10-06T13:53:15Z</time>
      </trkpt>
      <trkpt lat="44.87342" lon="8.28727">
        <ele>163.08</ele>
        <time>2016-10-06T13:53:16Z</time>
      </trkpt>
      <trkpt lat="44.87353" lon="8.28756">
        <ele>161.16</ele>
        <time>2016-10-06T13:53:19Z</time>
      </trkpt>
      <trkpt lat="44.87357" lon="8.28777">
        <ele>160.68</ele>
        <time>2016-10-06T13:53:21Z</time>
      </trkpt>
      <trkpt lat="44.87357" lon="8.28788">
        <ele>160.2</ele>
        <time>2016-10-06T13:53:22Z</time>
      </trkpt>
      <trkpt lat="44.87354" lon="8.28808">
        <ele>159.72</ele>
        <time>2016-10-06T13:53:24Z</time>
      </trkpt>
      <trkpt lat="44.87347" lon="8.28818">
        <ele>159.24</ele>
        <time>2016-10-06T13:53:25Z</time>
      </trkpt>
      <trkpt lat="44.8734" lon="8.28827">
        <ele>158.75</ele>
        <time>2016-10-06T13:53:26Z</time>
      </trkpt>
      <trkpt lat="44.87333" lon="8.28836">
        <ele>158.27</ele>
        <time>2016-10-06T13:53:27Z</time>
      </trkpt>
      <trkpt lat="44.87326" lon="8.28844">
        <ele>157.79</ele>
        <time>2016-10-06T13:53:28Z</time>
      </trkpt>
      <trkpt lat="44.8731" lon="8.28859">
        <ele>155.39</ele>
        <time>2016-10-06T13:53:30Z</time>
      </trkpt>
      <trkpt lat="44.87304" lon="8.28868">
        <ele>154.91</ele>
        <time>2016-10-06T13:53:31Z</time>
      </trkpt>
      <trkpt lat="44.873" lon="8.28878">
        <ele>154.43</ele>
        <time>2016-10-06T13:53:32Z</time>
      </trkpt>
      <trkpt lat="44.87292" lon="8.289">
        <ele>152.99</ele>
        <time>2016-10-06T13:53:34Z</time>
      </trkpt>
      <trkpt lat="44.87283" lon="8.28939">
        <ele>150.58</ele>
        <time>2016-10-06T13:53:37Z</time>
      </trkpt>
      <trkpt lat="44.87281" lon="8.28954">
        <ele>149.62</ele>
        <time>2016-10-06T13:53:38Z</time>
      </trkpt>
      <trkpt lat="44.87281" lon="8.28969">
        <ele>148.66</ele>
        <time>2016-10-06T13:53:39Z</time>
      </trkpt>
      <trkpt lat="44.87282" lon="8.28984">
        <ele>147.22</ele>
        <time>2016-10-06T13:53:40Z</time>
      </trkpt>
      <trkpt lat="44.87283" lon="8.28999">
        <ele>146.26</ele>
        <time>2016-10-06T13:53:41Z</time>
      </trkpt>
      <trkpt lat="44.87285" lon="8.29015">
        <ele>145.3</ele>
        <time>2016-10-06T13:53:42Z</time>
      </trkpt>
      <trkpt lat="44.87291" lon="8.29061">
        <ele>141.93</ele>
        <time>2016-10-06T13:53:45Z</time>
      </trkpt>
      <trkpt lat="44.87299" lon="8.29124">
        <ele>138.57</ele>
        <time>2016-10-06T13:53:49Z</time>
      </trkpt>
      <trkpt lat="44.87304" lon="8.29187">
        <ele>135.2</ele>
        <time>2016-10-06T13:53:53Z</time>
      </trkpt>
      <trkpt lat="44.87299" lon="8.29238">
        <ele>132.8</ele>
        <time>2016-10-06T13:53:56Z</time>
      </trkpt>
      <trkpt lat="44.87292" lon="8.29287">
        <ele>129.43</ele>
        <time>2016-10-06T13:53:59Z</time>
      </trkpt>
      <trkpt lat="44.87291" lon="8.29361">
        <ele>125.59</ele>
        <time>2016-10-06T13:54:04Z</time>
      </trkpt>
      <trkpt lat="44.87289" lon="8.29376">
        <ele>124.63</ele>
        <time>2016-10-06T13:54:05Z</time>
      </trkpt>
      <trkpt lat="44.87287" lon="8.29391">
        <ele>124.63</ele>
        <time>2016-10-06T13:54:06Z</time>
      </trkpt>
      <trkpt lat="44.87284" lon="8.29405">
        <ele>123.19</ele>
        <time>2016-10-06T13:54:07Z</time>
      </trkpt>
      <trkpt lat="44.87266" lon="8.29477">
        <ele>119.82</ele>
        <time>2016-10-06T13:54:12Z</time>
      </trkpt>
      <trkpt lat="44.87264" lon="8.29508">
        <ele>118.86</ele>
        <time>2016-10-06T13:54:14Z</time>
      </trkpt>
      <trkpt lat="44.87264" lon="8.29524">
        <ele>118.38</ele>
        <time>2016-10-06T13:54:15Z</time>
      </trkpt>
      <trkpt lat="44.87266" lon="8.29539">
        <ele>119.82</ele>
        <time>2016-10-06T13:54:16Z</time>
      </trkpt>
      <trkpt lat="44.8727" lon="8.29554">
        <ele>119.34</ele>
        <time>2016-10-06T13:54:17Z</time>
      </trkpt>
      <trkpt lat="44.87274" lon="8.29569">
        <ele>117.9</ele>
        <time>2016-10-06T13:54:18Z</time>
      </trkpt>
      <trkpt lat="44.87279" lon="8.29583">
        <ele>117.42</ele>
        <time>2016-10-06T13:54:19Z</time>
      </trkpt>
      <trkpt lat="44.87285" lon="8.29596">
        <ele>115.5</ele>
        <time>2016-10-06T13:54:20Z</time>
      </trkpt>
      <trkpt lat="44.87292" lon="8.29608">
        <ele>115.98</ele>
        <time>2016-10-06T13:54:21Z</time>
      </trkpt>
      <trkpt lat="44.873" lon="8.29619">
        <ele>115.01</ele>
        <time>2016-10-06T13:54:22Z</time>
      </trkpt>
      <trkpt lat="44.87309" lon="8.29628">
        <ele>114.53</ele>
        <time>2016-10-06T13:54:23Z</time>
      </trkpt>
      <trkpt lat="44.87318" lon="8.29635">
        <ele>114.05</ele>
        <time>2016-10-06T13:54:24Z</time>
      </trkpt>
      <trkpt lat="44.87328" lon="8.29641">
        <ele>113.57</ele>
        <time>2016-10-06T13:54:25Z</time>
      </trkpt>
      <trkpt lat="44.87337" lon="8.29646">
        <ele>112.61</ele>
        <time>2016-10-06T13:54:26Z</time>
      </trkpt>
      <trkpt lat="44.87348" lon="8.2965">
        <ele>111.65</ele>
        <time>2016-10-06T13:54:27Z</time>
      </trkpt>
      <trkpt lat="44.87358" lon="8.29653">
        <ele>111.17</ele>
        <time>2016-10-06T13:54:28Z</time>
      </trkpt>
      <trkpt lat="44.87379" lon="8.29658">
        <ele>110.21</ele>
        <time>2016-10-06T13:54:30Z</time>
      </trkpt>
      <trkpt lat="44.87406" lon="8.29662">
        <ele>107.81</ele>
        <time>2016-10-06T13:54:33Z</time>
      </trkpt>
      <trkpt lat="44.87443" lon="8.29664">
        <ele>105.88</ele>
        <time>2016-10-06T13:54:38Z</time>
      </trkpt>
      <trkpt lat="44.8745" lon="8.29667">
        <ele>105.4</ele>
        <time>2016-10-06T13:54:39Z</time>
      </trkpt>
      <trkpt lat="44.87456" lon="8.29672">
        <ele>104.92</ele>
        <time>2016-10-06T13:54:40Z</time>
      </trkpt>
      <trkpt lat="44.8746" lon="8.2968">
        <ele>103.96</ele>
        <time>2016-10-06T13:54:41Z</time>
      </trkpt>
      <trkpt lat="44.87462" lon="8.2969">
        <ele>103.96</ele>
        <time>2016-10-06T13:54:42Z</time>
      </trkpt>
      <trkpt lat="44.87463" lon="8.29701">
        <ele>103.96</ele>
        <time>2016-10-06T13:54:43Z</time>
      </trkpt>
      <trkpt lat="44.87463" lon="8.29712">
        <ele>103.96</ele>
        <time>2016-10-06T13:54:44Z</time>
      </trkpt>
      <trkpt lat="44.87464" lon="8.29748">
        <ele>103</ele>
        <time>2016-10-06T13:54:48Z</time>
      </trkpt>
      <trkpt lat="44.87462" lon="8.29752">
        <ele>102.52</ele>
        <time>2016-10-06T13:54:49Z</time>
      </trkpt>
      <trkpt lat="44.87459" lon="8.29754">
        <ele>102.52</ele>
        <time>2016-10-06T13:54:50Z</time>
      </trkpt>
      <trkpt lat="44.87455" lon="8.29755">
        <ele>102.52</ele>
        <time>2016-10-06T13:54:51Z</time>
      </trkpt>
      <trkpt lat="44.87451" lon="8.29755">
        <ele>102.04</ele>
        <time>2016-10-06T13:54:52Z</time>
      </trkpt>
      <trkpt lat="44.87446" lon="8.29753">
        <ele>102.52</ele>
        <time>2016-10-06T13:54:53Z</time>
      </trkpt>
      <trkpt lat="44.87442" lon="8.29752">
        <ele>102.04</ele>
        <time>2016-10-06T13:54:54Z</time>
      </trkpt>
      <trkpt lat="44.87438" lon="8.2975">
        <ele>102.04</ele>
        <time>2016-10-06T13:54:55Z</time>
      </trkpt>
      <trkpt lat="44.87434" lon="8.29748">
        <ele>102.04</ele>
        <time>2016-10-06T13:54:56Z</time>
      </trkpt>
      <trkpt lat="44.87347" lon="8.29729">
        <ele>101.56</ele>
        <time>2016-10-06T13:55:15Z</time>
      </trkpt>
      <trkpt lat="44.87333" lon="8.29726">
        <ele>102.04</ele>
        <time>2016-10-06T13:55:18Z</time>
      </trkpt>
      <trkpt lat="44.87261" lon="8.29708">
        <ele>103.96</ele>
        <time>2016-10-06T13:55:34Z</time>
      </trkpt>
      <trkpt lat="44.87258" lon="8.29709">
        <ele>103.96</ele>
        <time>2016-10-06T13:55:35Z</time>
      </trkpt>
      <trkpt lat="44.87256" lon="8.29713">
        <ele>103.96</ele>
        <time>2016-10-06T13:55:36Z</time>
      </trkpt>
      <trkpt lat="44.87254" lon="8.29717">
        <ele>104.44</ele>
        <time>2016-10-06T13:55:37Z</time>
      </trkpt>
      <trkpt lat="44.87253" lon="8.29721">
        <ele>103.96</ele>
        <time>2016-10-06T13:55:38Z</time>
      </trkpt>
      <trkpt lat="44.87251" lon="8.29725">
        <ele>103.96</ele>
        <time>2016-10-06T13:55:39Z</time>
      </trkpt>
      <trkpt lat="44.87229" lon="8.29772">
        <ele>104.92</ele>
        <time>2016-10-06T13:55:53Z</time>
      </trkpt>
      <trkpt lat="44.87214" lon="8.29858">
        <ele>105.88</ele>
        <time>2016-10-06T13:56:09Z</time>
      </trkpt>
      <trkpt lat="44.87212" lon="8.29927">
        <ele>106.36</ele>
        <time>2016-10-06T13:56:23Z</time>
      </trkpt>
      <trkpt lat="44.87203" lon="8.30006">
        <ele>105.88</ele>
        <time>2016-10-06T13:56:36Z</time>
      </trkpt>
      <trkpt lat="44.87199" lon="8.30117">
        <ele>104.44</ele>
        <time>2016-10-06T13:56:52Z</time>
      </trkpt>
      <trkpt lat="44.87211" lon="8.30219">
        <ele>101.08</ele>
        <time>2016-10-06T13:57:04Z</time>
      </trkpt>
      <trkpt lat="44.87214" lon="8.30265">
        <ele>101.56</ele>
        <time>2016-10-06T13:57:10Z</time>
      </trkpt>
      <trkpt lat="44.87215" lon="8.30272">
        <ele>102.52</ele>
        <time>2016-10-06T13:57:11Z</time>
      </trkpt>
      <trkpt lat="44.87237" lon="8.30391">
        <ele>100.11</ele>
        <time>2016-10-06T13:57:27Z</time>
      </trkpt>
      <trkpt lat="44.87237" lon="8.30477">
        <ele>100.11</ele>
        <time>2016-10-06T13:57:38Z</time>
      </trkpt>
      <trkpt lat="44.8724" lon="8.30588">
        <ele>99.63</ele>
        <time>2016-10-06T13:57:54Z</time>
      </trkpt>
      <trkpt lat="44.8723" lon="8.30678">
        <ele>101.08</ele>
        <time>2016-10-06T13:58:10Z</time>
      </trkpt>
      <trkpt lat="44.87216" lon="8.30725">
        <ele>103.96</ele>
        <time>2016-10-06T13:58:24Z</time>
      </trkpt>
      <trkpt lat="44.87215" lon="8.30788">
        <ele>103.96</ele>
        <time>2016-10-06T13:58:39Z</time>
      </trkpt>
      <trkpt lat="44.87212" lon="8.30862">
        <ele>104.44</ele>
        <time>2016-10-06T13:58:53Z</time>
      </trkpt>
      <trkpt lat="44.87209" lon="8.30887">
        <ele>103.96</ele>
        <time>2016-10-06T13:58:57Z</time>
      </trkpt>
      <trkpt lat="44.87204" lon="8.30912">
        <ele>103.48</ele>
        <time>2016-10-06T13:59:01Z</time>
      </trkpt>
      <trkpt lat="44.87201" lon="8.30925">
        <ele>103</ele>
        <time>2016-10-06T13:59:03Z</time>
      </trkpt>
      <trkpt lat="44.87196" lon="8.30937">
        <ele>103</ele>
        <time>2016-10-06T13:59:05Z</time>
      </trkpt>
      <trkpt lat="44.87195" lon="8.30944">
        <ele>103.48</ele>
        <time>2016-10-06T13:59:06Z</time>
      </trkpt>
      <trkpt lat="44.87194" lon="8.30951">
        <ele>103.48</ele>
        <time>2016-10-06T13:59:07Z</time>
      </trkpt>
      <trkpt lat="44.87192" lon="8.30958">
        <ele>103</ele>
        <time>2016-10-06T13:59:08Z</time>
      </trkpt>
      <trkpt lat="44.87191" lon="8.30965">
        <ele>103</ele>
        <time>2016-10-06T13:59:09Z</time>
      </trkpt>
      <trkpt lat="44.87189" lon="8.30971">
        <ele>103.48</ele>
        <time>2016-10-06T13:59:10Z</time>
      </trkpt>
      <trkpt lat="44.87187" lon="8.30978">
        <ele>102.04</ele>
        <time>2016-10-06T13:59:11Z</time>
      </trkpt>
      <trkpt lat="44.87179" lon="8.31004">
        <ele>103</ele>
        <time>2016-10-06T13:59:15Z</time>
      </trkpt>
      <trkpt lat="44.87176" lon="8.3101">
        <ele>103.48</ele>
        <time>2016-10-06T13:59:16Z</time>
      </trkpt>
      <trkpt lat="44.87173" lon="8.31015">
        <ele>103</ele>
        <time>2016-10-06T13:59:17Z</time>
      </trkpt>
      <trkpt lat="44.8717" lon="8.3102">
        <ele>103</ele>
        <time>2016-10-06T13:59:18Z</time>
      </trkpt>
      <trkpt lat="44.87166" lon="8.31024">
        <ele>103.48</ele>
        <time>2016-10-06T13:59:19Z</time>
      </trkpt>
      <trkpt lat="44.87162" lon="8.31028">
        <ele>103.48</ele>
        <time>2016-10-06T13:59:20Z</time>
      </trkpt>
      <trkpt lat="44.87115" lon="8.3107">
        <ele>103.48</ele>
        <time>2016-10-06T13:59:33Z</time>
      </trkpt>
      <trkpt lat="44.87108" lon="8.31079">
        <ele>103</ele>
        <time>2016-10-06T13:59:35Z</time>
      </trkpt>
      <trkpt lat="44.87082" lon="8.31112">
        <ele>103</ele>
        <time>2016-10-06T13:59:42Z</time>
      </trkpt>
      <trkpt lat="44.87079" lon="8.31117">
        <ele>103</ele>
        <time>2016-10-06T13:59:43Z</time>
      </trkpt>
      <trkpt lat="44.87064" lon="8.31145">
        <ele>102.52</ele>
        <time>2016-10-06T13:59:48Z</time>
      </trkpt>
      <trkpt lat="44.87058" lon="8.31156">
        <ele>102.52</ele>
        <time>2016-10-06T13:59:50Z</time>
      </trkpt>
      <trkpt lat="44.87055" lon="8.31162">
        <ele>102.52</ele>
        <time>2016-10-06T13:59:51Z</time>
      </trkpt>
      <trkpt lat="44.87043" lon="8.31184">
        <ele>102.52</ele>
        <time>2016-10-06T13:59:55Z</time>
      </trkpt>
      <trkpt lat="44.8704" lon="8.3119">
        <ele>102.04</ele>
        <time>2016-10-06T13:59:56Z</time>
      </trkpt>
      <trkpt lat="44.87037" lon="8.31195">
        <ele>102.52</ele>
        <time>2016-10-06T13:59:57Z</time>
      </trkpt>
      <trkpt lat="44.8699" lon="8.3126">
        <ele>102.52</ele>
        <time>2016-10-06T14:00:12Z</time>
      </trkpt>
      <trkpt lat="44.86988" lon="8.31265">
        <ele>102.04</ele>
        <time>2016-10-06T14:00:13Z</time>
      </trkpt>
      <trkpt lat="44.86986" lon="8.3127">
        <ele>102.04</ele>
        <time>2016-10-06T14:00:14Z</time>
      </trkpt>
      <trkpt lat="44.86983" lon="8.31276">
        <ele>102.52</ele>
        <time>2016-10-06T14:00:15Z</time>
      </trkpt>
      <trkpt lat="44.86982" lon="8.31282">
        <ele>102.04</ele>
        <time>2016-10-06T14:00:16Z</time>
      </trkpt>
      <trkpt lat="44.86978" lon="8.31295">
        <ele>101.56</ele>
        <time>2016-10-06T14:00:18Z</time>
      </trkpt>
      <trkpt lat="44.86975" lon="8.31315">
        <ele>100.6</ele>
        <time>2016-10-06T14:00:21Z</time>
      </trkpt>
      <trkpt lat="44.86958" lon="8.314">
        <ele>97.71</ele>
        <time>2016-10-06T14:00:33Z</time>
      </trkpt>
      <trkpt lat="44.86951" lon="8.31493">
        <ele>98.19</ele>
        <time>2016-10-06T14:00:47Z</time>
      </trkpt>
      <trkpt lat="44.86952" lon="8.31499">
        <ele>98.19</ele>
        <time>2016-10-06T14:00:48Z</time>
      </trkpt>
      <trkpt lat="44.86953" lon="8.31504">
        <ele>98.19</ele>
        <time>2016-10-06T14:00:49Z</time>
      </trkpt>
      <trkpt lat="44.86955" lon="8.3151">
        <ele>98.19</ele>
        <time>2016-10-06T14:00:50Z</time>
      </trkpt>
      <trkpt lat="44.86957" lon="8.31514">
        <ele>98.19</ele>
        <time>2016-10-06T14:00:51Z</time>
      </trkpt>
      <trkpt lat="44.8696" lon="8.31519">
        <ele>98.19</ele>
        <time>2016-10-06T14:00:52Z</time>
      </trkpt>
      <trkpt lat="44.86968" lon="8.31538">
        <ele>98.67</ele>
        <time>2016-10-06T14:00:56Z</time>
      </trkpt>
      <trkpt lat="44.8697" lon="8.31544">
        <ele>97.23</ele>
        <time>2016-10-06T14:00:57Z</time>
      </trkpt>
      <trkpt lat="44.86973" lon="8.31555">
        <ele>97.71</ele>
        <time>2016-10-06T14:00:59Z</time>
      </trkpt>
      <trkpt lat="44.86976" lon="8.3156">
        <ele>97.23</ele>
        <time>2016-10-06T14:01:00Z</time>
      </trkpt>
      <trkpt lat="44.86979" lon="8.31563">
        <ele>98.67</ele>
        <time>2016-10-06T14:01:01Z</time>
      </trkpt>
      <trkpt lat="44.86982" lon="8.31566">
        <ele>98.19</ele>
        <time>2016-10-06T14:01:02Z</time>
      </trkpt>
      <trkpt lat="44.86986" lon="8.31567">
        <ele>98.67</ele>
        <time>2016-10-06T14:01:03Z</time>
      </trkpt>
      <trkpt lat="44.86989" lon="8.31568">
        <ele>98.19</ele>
        <time>2016-10-06T14:01:04Z</time>
      </trkpt>
      <trkpt lat="44.86993" lon="8.31569">
        <ele>98.19</ele>
        <time>2016-10-06T14:01:05Z</time>
      </trkpt>
      <trkpt lat="44.86996" lon="8.3157">
        <ele>98.67</ele>
        <time>2016-10-06T14:01:06Z</time>
      </trkpt>
      <trkpt lat="44.8702" lon="8.31578">
        <ele>97.71</ele>
        <time>2016-10-06T14:01:12Z</time>
      </trkpt>
      <trkpt lat="44.87024" lon="8.31581">
        <ele>97.23</ele>
        <time>2016-10-06T14:01:13Z</time>
      </trkpt>
      <trkpt lat="44.87027" lon="8.31584">
        <ele>96.75</ele>
        <time>2016-10-06T14:01:14Z</time>
      </trkpt>
      <trkpt lat="44.8703" lon="8.31588">
        <ele>97.23</ele>
        <time>2016-10-06T14:01:15Z</time>
      </trkpt>
      <trkpt lat="44.87033" lon="8.31593">
        <ele>97.23</ele>
        <time>2016-10-06T14:01:16Z</time>
      </trkpt>
      <trkpt lat="44.87036" lon="8.31597">
        <ele>97.71</ele>
        <time>2016-10-06T14:01:17Z</time>
      </trkpt>
      <trkpt lat="44.8704" lon="8.31601">
        <ele>97.23</ele>
        <time>2016-10-06T14:01:18Z</time>
      </trkpt>
      <trkpt lat="44.87043" lon="8.31605">
        <ele>97.23</ele>
        <time>2016-10-06T14:01:19Z</time>
      </trkpt>
      <trkpt lat="44.87094" lon="8.31676">
        <ele>97.23</ele>
        <time>2016-10-06T14:01:35Z</time>
      </trkpt>
      <trkpt lat="44.87097" lon="8.31681">
        <ele>97.71</ele>
        <time>2016-10-06T14:01:36Z</time>
      </trkpt>
      <trkpt lat="44.87101" lon="8.31685">
        <ele>97.23</ele>
        <time>2016-10-06T14:01:37Z</time>
      </trkpt>
      <trkpt lat="44.87109" lon="8.31691">
        <ele>96.75</ele>
        <time>2016-10-06T14:01:39Z</time>
      </trkpt>
      <trkpt lat="44.87112" lon="8.31695">
        <ele>97.23</ele>
        <time>2016-10-06T14:01:40Z</time>
      </trkpt>
      <trkpt lat="44.87115" lon="8.317">
        <ele>97.23</ele>
        <time>2016-10-06T14:01:41Z</time>
      </trkpt>
      <trkpt lat="44.87118" lon="8.31706">
        <ele>96.75</ele>
        <time>2016-10-06T14:01:42Z</time>
      </trkpt>
      <trkpt lat="44.8712" lon="8.31711">
        <ele>97.23</ele>
        <time>2016-10-06T14:01:43Z</time>
      </trkpt>
      <trkpt lat="44.87123" lon="8.31717">
        <ele>97.23</ele>
        <time>2016-10-06T14:01:44Z</time>
      </trkpt>
      <trkpt lat="44.87162" lon="8.31801">
        <ele>99.15</ele>
        <time>2016-10-06T14:02:02Z</time>
      </trkpt>
      <trkpt lat="44.87195" lon="8.31859">
        <ele>99.15</ele>
        <time>2016-10-06T14:02:18Z</time>
      </trkpt>
      <trkpt lat="44.872" lon="8.31926">
        <ele>98.67</ele>
        <time>2016-10-06T14:02:32Z</time>
      </trkpt>
      <trkpt lat="44.87199" lon="8.32014">
        <ele>97.71</ele>
        <time>2016-10-06T14:02:46Z</time>
      </trkpt>
      <trkpt lat="44.87203" lon="8.32041">
        <ele>97.23</ele>
        <time>2016-10-06T14:02:50Z</time>
      </trkpt>
      <trkpt lat="44.87204" lon="8.32054">
        <ele>96.75</ele>
        <time>2016-10-06T14:02:52Z</time>
      </trkpt>
      <trkpt lat="44.87205" lon="8.32061">
        <ele>96.75</ele>
        <time>2016-10-06T14:02:53Z</time>
      </trkpt>
      <trkpt lat="44.87207" lon="8.32108">
        <ele>96.75</ele>
        <time>2016-10-06T14:03:00Z</time>
      </trkpt>
      <trkpt lat="44.87186" lon="8.32196">
        <ele>95.79</ele>
        <time>2016-10-06T14:03:14Z</time>
      </trkpt>
      <trkpt lat="44.87185" lon="8.32202">
        <ele>96.27</ele>
        <time>2016-10-06T14:03:15Z</time>
      </trkpt>
      <trkpt lat="44.87183" lon="8.32208">
        <ele>96.27</ele>
        <time>2016-10-06T14:03:16Z</time>
      </trkpt>
      <trkpt lat="44.87181" lon="8.32214">
        <ele>96.75</ele>
        <time>2016-10-06T14:03:17Z</time>
      </trkpt>
      <trkpt lat="44.87173" lon="8.32243">
        <ele>96.75</ele>
        <time>2016-10-06T14:03:22Z</time>
      </trkpt>
      <trkpt lat="44.87171" lon="8.32263">
        <ele>96.75</ele>
        <time>2016-10-06T14:03:25Z</time>
      </trkpt>
      <trkpt lat="44.8717" lon="8.3227">
        <ele>97.23</ele>
        <time>2016-10-06T14:03:26Z</time>
      </trkpt>
      <trkpt lat="44.87172" lon="8.32297">
        <ele>97.23</ele>
        <time>2016-10-06T14:03:30Z</time>
      </trkpt>
      <trkpt lat="44.87173" lon="8.32303">
        <ele>97.23</ele>
        <time>2016-10-06T14:03:31Z</time>
      </trkpt>
      <trkpt lat="44.87174" lon="8.3231">
        <ele>97.23</ele>
        <time>2016-10-06T14:03:32Z</time>
      </trkpt>
      <trkpt lat="44.87175" lon="8.32316">
        <ele>97.71</ele>
        <time>2016-10-06T14:03:33Z</time>
      </trkpt>
      <trkpt lat="44.87176" lon="8.32322">
        <ele>96.75</ele>
        <time>2016-10-06T14:03:34Z</time>
      </trkpt>
      <trkpt lat="44.87193" lon="8.32391">
        <ele>97.23</ele>
        <time>2016-10-06T14:03:45Z</time>
      </trkpt>
      <trkpt lat="44.87197" lon="8.32404">
        <ele>96.75</ele>
        <time>2016-10-06T14:03:47Z</time>
      </trkpt>
      <trkpt lat="44.872" lon="8.32417">
        <ele>96.27</ele>
        <time>2016-10-06T14:03:49Z</time>
      </trkpt>
      <trkpt lat="44.87209" lon="8.32463">
        <ele>96.27</ele>
        <time>2016-10-06T14:03:56Z</time>
      </trkpt>
      <trkpt lat="44.87213" lon="8.32509">
        <ele>97.23</ele>
        <time>2016-10-06T14:04:03Z</time>
      </trkpt>
      <trkpt lat="44.87214" lon="8.32515">
        <ele>97.71</ele>
        <time>2016-10-06T14:04:04Z</time>
      </trkpt>
      <trkpt lat="44.87236" lon="8.32605">
        <ele>98.19</ele>
        <time>2016-10-06T14:04:19Z</time>
      </trkpt>
      <trkpt lat="44.87254" lon="8.32658">
        <ele>101.56</ele>
        <time>2016-10-06T14:04:32Z</time>
      </trkpt>
      <trkpt lat="44.87256" lon="8.32701">
        <ele>103</ele>
        <time>2016-10-06T14:04:46Z</time>
      </trkpt>
      <trkpt lat="44.87243" lon="8.32735">
        <ele>104.44</ele>
        <time>2016-10-06T14:05:02Z</time>
      </trkpt>
      <trkpt lat="44.87236" lon="8.32745">
        <ele>105.88</ele>
        <time>2016-10-06T14:05:08Z</time>
      </trkpt>
      <trkpt lat="44.87221" lon="8.32771">
        <ele>105.88</ele>
        <time>2016-10-06T14:05:21Z</time>
      </trkpt>
      <trkpt lat="44.87216" lon="8.3278">
        <ele>105.88</ele>
        <time>2016-10-06T14:05:23Z</time>
      </trkpt>
      <trkpt lat="44.87191" lon="8.32823">
        <ele>103.48</ele>
        <time>2016-10-06T14:05:30Z</time>
      </trkpt>
      <trkpt lat="44.87188" lon="8.32831">
        <ele>103</ele>
        <time>2016-10-06T14:05:31Z</time>
      </trkpt>
      <trkpt lat="44.87186" lon="8.32841">
        <ele>102.52</ele>
        <time>2016-10-06T14:05:32Z</time>
      </trkpt>
      <trkpt lat="44.87185" lon="8.32851">
        <ele>102.04</ele>
        <time>2016-10-06T14:05:33Z</time>
      </trkpt>
      <trkpt lat="44.87184" lon="8.32861">
        <ele>102.04</ele>
        <time>2016-10-06T14:05:34Z</time>
      </trkpt>
      <trkpt lat="44.87179" lon="8.32902">
        <ele>100.6</ele>
        <time>2016-10-06T14:05:38Z</time>
      </trkpt>
      <trkpt lat="44.87176" lon="8.32912">
        <ele>101.56</ele>
        <time>2016-10-06T14:05:39Z</time>
      </trkpt>
      <trkpt lat="44.87172" lon="8.32921">
        <ele>101.08</ele>
        <time>2016-10-06T14:05:40Z</time>
      </trkpt>
      <trkpt lat="44.87119" lon="8.33046">
        <ele>100.6</ele>
        <time>2016-10-06T14:05:56Z</time>
      </trkpt>
      <trkpt lat="44.87116" lon="8.33052">
        <ele>101.08</ele>
        <time>2016-10-06T14:05:57Z</time>
      </trkpt>
      <trkpt lat="44.87112" lon="8.33056">
        <ele>101.08</ele>
        <time>2016-10-06T14:05:58Z</time>
      </trkpt>
      <trkpt lat="44.87108" lon="8.3306">
        <ele>101.56</ele>
        <time>2016-10-06T14:05:59Z</time>
      </trkpt>
      <trkpt lat="44.87087" lon="8.33073">
        <ele>101.56</ele>
        <time>2016-10-06T14:06:04Z</time>
      </trkpt>
      <trkpt lat="44.87045" lon="8.33126">
        <ele>103.96</ele>
        <time>2016-10-06T14:06:18Z</time>
      </trkpt>
      <trkpt lat="44.87036" lon="8.33156">
        <ele>103.48</ele>
        <time>2016-10-06T14:06:32Z</time>
      </trkpt>
      <trkpt lat="44.87037" lon="8.33154">
        <ele>103.96</ele>
        <time>2016-10-06T14:06:55Z</time>
      </trkpt>
      <trkpt lat="44.87027" lon="8.33173">
        <ele>103.96</ele>
        <time>2016-10-06T14:07:11Z</time>
      </trkpt>
      <trkpt lat="44.87003" lon="8.33237">
        <ele>102.04</ele>
        <time>2016-10-06T14:07:24Z</time>
      </trkpt>
      <trkpt lat="44.86953" lon="8.33317">
        <ele>103</ele>
        <time>2016-10-06T14:07:40Z</time>
      </trkpt>
      <trkpt lat="44.86889" lon="8.33407">
        <ele>101.56</ele>
        <time>2016-10-06T14:07:58Z</time>
      </trkpt>
      <trkpt lat="44.86883" lon="8.33418">
        <ele>101.56</ele>
        <time>2016-10-06T14:08:00Z</time>
      </trkpt>
      <trkpt lat="44.86851" lon="8.33495">
        <ele>102.04</ele>
        <time>2016-10-06T14:08:15Z</time>
      </trkpt>
      <trkpt lat="44.86824" lon="8.33561">
        <ele>102.52</ele>
        <time>2016-10-06T14:08:30Z</time>
      </trkpt>
      <trkpt lat="44.8679" lon="8.33639">
        <ele>99.63</ele>
        <time>2016-10-06T14:08:44Z</time>
      </trkpt>
      <trkpt lat="44.86779" lon="8.33656">
        <ele>100.11</ele>
        <time>2016-10-06T14:08:47Z</time>
      </trkpt>
      <trkpt lat="44.86775" lon="8.33661">
        <ele>99.15</ele>
        <time>2016-10-06T14:08:48Z</time>
      </trkpt>
      <trkpt lat="44.86722" lon="8.33724">
        <ele>100.11</ele>
        <time>2016-10-06T14:09:01Z</time>
      </trkpt>
      <trkpt lat="44.86719" lon="8.3373">
        <ele>100.11</ele>
        <time>2016-10-06T14:09:02Z</time>
      </trkpt>
      <trkpt lat="44.86716" lon="8.33737">
        <ele>100.6</ele>
        <time>2016-10-06T14:09:03Z</time>
      </trkpt>
      <trkpt lat="44.86713" lon="8.33744">
        <ele>100.11</ele>
        <time>2016-10-06T14:09:04Z</time>
      </trkpt>
      <trkpt lat="44.86711" lon="8.33752">
        <ele>100.11</ele>
        <time>2016-10-06T14:09:05Z</time>
      </trkpt>
      <trkpt lat="44.86701" lon="8.33781">
        <ele>98.19</ele>
        <time>2016-10-06T14:09:09Z</time>
      </trkpt>
      <trkpt lat="44.86675" lon="8.33878">
        <ele>99.63</ele>
        <time>2016-10-06T14:09:22Z</time>
      </trkpt>
      <trkpt lat="44.86671" lon="8.33885">
        <ele>99.63</ele>
        <time>2016-10-06T14:09:23Z</time>
      </trkpt>
      <trkpt lat="44.86652" lon="8.33916">
        <ele>98.67</ele>
        <time>2016-10-06T14:09:28Z</time>
      </trkpt>
      <trkpt lat="44.86628" lon="8.33948">
        <ele>98.67</ele>
        <time>2016-10-06T14:09:34Z</time>
      </trkpt>
      <trkpt lat="44.86554" lon="8.34028">
        <ele>97.71</ele>
        <time>2016-10-06T14:09:49Z</time>
      </trkpt>
      <trkpt lat="44.86517" lon="8.34048">
        <ele>97.23</ele>
        <time>2016-10-06T14:09:56Z</time>
      </trkpt>
      <trkpt lat="44.86456" lon="8.34104">
        <ele>95.79</ele>
        <time>2016-10-06T14:10:10Z</time>
      </trkpt>
      <trkpt lat="44.86393" lon="8.34177">
        <ele>97.71</ele>
        <time>2016-10-06T14:10:25Z</time>
      </trkpt>
      <trkpt lat="44.86364" lon="8.34209">
        <ele>97.71</ele>
        <time>2016-10-06T14:10:33Z</time>
      </trkpt>
      <trkpt lat="44.8629" lon="8.34255">
        <ele>96.27</ele>
        <time>2016-10-06T14:10:49Z</time>
      </trkpt>
      <trkpt lat="44.86223" lon="8.34294">
        <ele>96.75</ele>
        <time>2016-10-06T14:11:04Z</time>
      </trkpt>
      <trkpt lat="44.86164" lon="8.34325">
        <ele>96.75</ele>
        <time>2016-10-06T14:11:16Z</time>
      </trkpt>
      <trkpt lat="44.86159" lon="8.34329">
        <ele>97.23</ele>
        <time>2016-10-06T14:11:17Z</time>
      </trkpt>
      <trkpt lat="44.86146" lon="8.34339">
        <ele>96.75</ele>
        <time>2016-10-06T14:11:20Z</time>
      </trkpt>
      <trkpt lat="44.86142" lon="8.34343">
        <ele>96.75</ele>
        <time>2016-10-06T14:11:21Z</time>
      </trkpt>
      <trkpt lat="44.86139" lon="8.34348">
        <ele>96.27</ele>
        <time>2016-10-06T14:11:22Z</time>
      </trkpt>
      <trkpt lat="44.86131" lon="8.34357">
        <ele>96.75</ele>
        <time>2016-10-06T14:11:24Z</time>
      </trkpt>
      <trkpt lat="44.86069" lon="8.3445">
        <ele>97.23</ele>
        <time>2016-10-06T14:11:41Z</time>
      </trkpt>
      <trkpt lat="44.86003" lon="8.3456">
        <ele>96.75</ele>
        <time>2016-10-06T14:12:00Z</time>
      </trkpt>
      <trkpt lat="44.8596" lon="8.34642">
        <ele>96.75</ele>
        <time>2016-10-06T14:12:14Z</time>
      </trkpt>
      <trkpt lat="44.85919" lon="8.34731">
        <ele>96.75</ele>
        <time>2016-10-06T14:12:28Z</time>
      </trkpt>
      <trkpt lat="44.85876" lon="8.34853">
        <ele>96.27</ele>
        <time>2016-10-06T14:12:45Z</time>
      </trkpt>
      <trkpt lat="44.85837" lon="8.3498">
        <ele>96.27</ele>
        <time>2016-10-06T14:13:02Z</time>
      </trkpt>
      <trkpt lat="44.8578" lon="8.35165">
        <ele>96.27</ele>
        <time>2016-10-06T14:13:27Z</time>
      </trkpt>
      <trkpt lat="44.85727" lon="8.35339">
        <ele>95.79</ele>
        <time>2016-10-06T14:13:50Z</time>
      </trkpt>
      <trkpt lat="44.85677" lon="8.35506">
        <ele>96.27</ele>
        <time>2016-10-06T14:14:12Z</time>
      </trkpt>
      <trkpt lat="44.85627" lon="8.35665">
        <ele>96.27</ele>
        <time>2016-10-06T14:14:33Z</time>
      </trkpt>
      <trkpt lat="44.8557" lon="8.35854">
        <ele>95.79</ele>
        <time>2016-10-06T14:14:58Z</time>
      </trkpt>
      <trkpt lat="44.85517" lon="8.36023">
        <ele>96.75</ele>
        <time>2016-10-06T14:15:22Z</time>
      </trkpt>
      <trkpt lat="44.85472" lon="8.36167">
        <ele>97.71</ele>
        <time>2016-10-06T14:15:44Z</time>
      </trkpt>
      <trkpt lat="44.85462" lon="8.36198">
        <ele>98.19</ele>
        <time>2016-10-06T14:15:49Z</time>
      </trkpt>
      <trkpt lat="44.85461" lon="8.36205">
        <ele>97.71</ele>
        <time>2016-10-06T14:15:50Z</time>
      </trkpt>
      <trkpt lat="44.8546" lon="8.36211">
        <ele>97.71</ele>
        <time>2016-10-06T14:15:51Z</time>
      </trkpt>
      <trkpt lat="44.85461" lon="8.36217">
        <ele>98.19</ele>
        <time>2016-10-06T14:15:52Z</time>
      </trkpt>
      <trkpt lat="44.85462" lon="8.36223">
        <ele>98.19</ele>
        <time>2016-10-06T14:15:53Z</time>
      </trkpt>
      <trkpt lat="44.85463" lon="8.36229">
        <ele>98.19</ele>
        <time>2016-10-06T14:15:54Z</time>
      </trkpt>
      <trkpt lat="44.85464" lon="8.36235">
        <ele>98.19</ele>
        <time>2016-10-06T14:15:55Z</time>
      </trkpt>
      <trkpt lat="44.85471" lon="8.36264">
        <ele>99.15</ele>
        <time>2016-10-06T14:16:00Z</time>
      </trkpt>
      <trkpt lat="44.85509" lon="8.36337">
        <ele>100.6</ele>
        <time>2016-10-06T14:16:16Z</time>
      </trkpt>
      <trkpt lat="44.85577" lon="8.36398">
        <ele>98.19</ele>
        <time>2016-10-06T14:16:31Z</time>
      </trkpt>
      <trkpt lat="44.85593" lon="8.36408">
        <ele>98.67</ele>
        <time>2016-10-06T14:16:34Z</time>
      </trkpt>
      <trkpt lat="44.85598" lon="8.36411">
        <ele>98.67</ele>
        <time>2016-10-06T14:16:35Z</time>
      </trkpt>
      <trkpt lat="44.85604" lon="8.36412">
        <ele>98.19</ele>
        <time>2016-10-06T14:16:36Z</time>
      </trkpt>
      <trkpt lat="44.85695" lon="8.36414">
        <ele>98.19</ele>
        <time>2016-10-06T14:16:51Z</time>
      </trkpt>
      <trkpt lat="44.85795" lon="8.36412">
        <ele>97.23</ele>
        <time>2016-10-06T14:17:08Z</time>
      </trkpt>
      <trkpt lat="44.85877" lon="8.3642">
        <ele>96.75</ele>
        <time>2016-10-06T14:17:23Z</time>
      </trkpt>
      <trkpt lat="44.85961" lon="8.3639">
        <ele>96.75</ele>
        <time>2016-10-06T14:17:38Z</time>
      </trkpt>
      <trkpt lat="44.8599" lon="8.36389">
        <ele>95.79</ele>
        <time>2016-10-06T14:17:43Z</time>
      </trkpt>
      <trkpt lat="44.85995" lon="8.3639">
        <ele>96.27</ele>
        <time>2016-10-06T14:17:44Z</time>
      </trkpt>
      <trkpt lat="44.86095" lon="8.36418">
        <ele>96.27</ele>
        <time>2016-10-06T14:18:01Z</time>
      </trkpt>
      <trkpt lat="44.86147" lon="8.36437">
        <ele>95.79</ele>
        <time>2016-10-06T14:18:10Z</time>
      </trkpt>
      <trkpt lat="44.86152" lon="8.36441">
        <ele>95.79</ele>
        <time>2016-10-06T14:18:11Z</time>
      </trkpt>
      <trkpt lat="44.86157" lon="8.36445">
        <ele>95.31</ele>
        <time>2016-10-06T14:18:12Z</time>
      </trkpt>
      <trkpt lat="44.86161" lon="8.3645">
        <ele>95.31</ele>
        <time>2016-10-06T14:18:13Z</time>
      </trkpt>
      <trkpt lat="44.86165" lon="8.36456">
        <ele>94.83</ele>
        <time>2016-10-06T14:18:14Z</time>
      </trkpt>
      <trkpt lat="44.86168" lon="8.36462">
        <ele>95.79</ele>
        <time>2016-10-06T14:18:15Z</time>
      </trkpt>
      <trkpt lat="44.86171" lon="8.36468">
        <ele>95.79</ele>
        <time>2016-10-06T14:18:16Z</time>
      </trkpt>
      <trkpt lat="44.86173" lon="8.36475">
        <ele>95.79</ele>
        <time>2016-10-06T14:18:17Z</time>
      </trkpt>
      <trkpt lat="44.862" lon="8.36541">
        <ele>98.19</ele>
        <time>2016-10-06T14:18:29Z</time>
      </trkpt>
      <trkpt lat="44.86203" lon="8.36546">
        <ele>98.19</ele>
        <time>2016-10-06T14:18:30Z</time>
      </trkpt>
      <trkpt lat="44.86231" lon="8.36572">
        <ele>98.67</ele>
        <time>2016-10-06T14:18:37Z</time>
      </trkpt>
      <trkpt lat="44.86235" lon="8.36575">
        <ele>97.71</ele>
        <time>2016-10-06T14:18:38Z</time>
      </trkpt>
      <trkpt lat="44.86303" lon="8.36622">
        <ele>96.75</ele>
        <time>2016-10-06T14:18:51Z</time>
      </trkpt>
      <trkpt lat="44.86403" lon="8.36693">
        <ele>95.79</ele>
        <time>2016-10-06T14:19:08Z</time>
      </trkpt>
      <trkpt lat="44.86418" lon="8.36718">
        <ele>95.79</ele>
        <time>2016-10-06T14:19:12Z</time>
      </trkpt>
      <trkpt lat="44.86421" lon="8.36725">
        <ele>95.31</ele>
        <time>2016-10-06T14:19:13Z</time>
      </trkpt>
      <trkpt lat="44.86423" lon="8.36733">
        <ele>95.31</ele>
        <time>2016-10-06T14:19:14Z</time>
      </trkpt>
      <trkpt lat="44.86425" lon="8.36741">
        <ele>95.31</ele>
        <time>2016-10-06T14:19:15Z</time>
      </trkpt>
      <trkpt lat="44.86425" lon="8.3675">
        <ele>95.79</ele>
        <time>2016-10-06T14:19:16Z</time>
      </trkpt>
      <trkpt lat="44.86446" lon="8.36926">
        <ele>96.27</ele>
        <time>2016-10-06T14:19:38Z</time>
      </trkpt>
      <trkpt lat="44.86474" lon="8.3708">
        <ele>96.75</ele>
        <time>2016-10-06T14:19:59Z</time>
      </trkpt>
      <trkpt lat="44.86478" lon="8.37193">
        <ele>96.27</ele>
        <time>2016-10-06T14:20:15Z</time>
      </trkpt>
      <trkpt lat="44.86462" lon="8.37266">
        <ele>98.67</ele>
        <time>2016-10-06T14:20:29Z</time>
      </trkpt>
      <trkpt lat="44.86452" lon="8.37308">
        <ele>101.08</ele>
        <time>2016-10-06T14:20:46Z</time>
      </trkpt>
      <trkpt lat="44.86441" lon="8.37337">
        <ele>103.96</ele>
        <time>2016-10-06T14:21:02Z</time>
      </trkpt>
      <trkpt lat="44.86427" lon="8.37376">
        <ele>106.36</ele>
        <time>2016-10-06T14:21:22Z</time>
      </trkpt>
      <trkpt lat="44.86414" lon="8.37409">
        <ele>108.77</ele>
        <time>2016-10-06T14:21:40Z</time>
      </trkpt>
      <trkpt lat="44.86404" lon="8.37432">
        <ele>111.65</ele>
        <time>2016-10-06T14:21:54Z</time>
      </trkpt>
      <trkpt lat="44.86391" lon="8.3746">
        <ele>113.09</ele>
        <time>2016-10-06T14:22:10Z</time>
      </trkpt>
      <trkpt lat="44.86382" lon="8.37475">
        <ele>115.01</ele>
        <time>2016-10-06T14:22:19Z</time>
      </trkpt>
      <trkpt lat="44.86381" lon="8.37476">
        <ele>115.01</ele>
        <time>2016-10-06T14:22:20Z</time>
      </trkpt>
      <trkpt lat="44.8638" lon="8.37477">
        <ele>115.01</ele>
        <time>2016-10-06T14:22:21Z</time>
      </trkpt>
      <trkpt lat="44.8638" lon="8.37479">
        <ele>115.01</ele>
        <time>2016-10-06T14:22:22Z</time>
      </trkpt>
      <trkpt lat="44.86379" lon="8.37481">
        <ele>115.01</ele>
        <time>2016-10-06T14:22:23Z</time>
      </trkpt>
      <trkpt lat="44.86377" lon="8.37482">
        <ele>115.5</ele>
        <time>2016-10-06T14:22:24Z</time>
      </trkpt>
      <trkpt lat="44.86364" lon="8.37514">
        <ele>117.42</ele>
        <time>2016-10-06T14:22:42Z</time>
      </trkpt>
      <trkpt lat="44.86344" lon="8.37542">
        <ele>120.3</ele>
        <time>2016-10-06T14:23:00Z</time>
      </trkpt>
      <trkpt lat="44.86323" lon="8.37561">
        <ele>122.71</ele>
        <time>2016-10-06T14:23:19Z</time>
      </trkpt>
      <trkpt lat="44.86297" lon="8.37567">
        <ele>124.63</ele>
        <time>2016-10-06T14:23:39Z</time>
      </trkpt>
      <trkpt lat="44.86275" lon="8.37567">
        <ele>127.99</ele>
        <time>2016-10-06T14:23:57Z</time>
      </trkpt>
      <trkpt lat="44.86251" lon="8.37564">
        <ele>129.92</ele>
        <time>2016-10-06T14:24:15Z</time>
      </trkpt>
      <trkpt lat="44.86228" lon="8.37564">
        <ele>132.8</ele>
        <time>2016-10-06T14:24:33Z</time>
      </trkpt>
      <trkpt lat="44.86203" lon="8.37565">
        <ele>134.24</ele>
        <time>2016-10-06T14:24:53Z</time>
      </trkpt>
      <trkpt lat="44.86176" lon="8.3757">
        <ele>137.61</ele>
        <time>2016-10-06T14:25:13Z</time>
      </trkpt>
      <trkpt lat="44.86153" lon="8.37574">
        <ele>139.05</ele>
        <time>2016-10-06T14:25:30Z</time>
      </trkpt>
      <trkpt lat="44.86131" lon="8.37579">
        <ele>141.45</ele>
        <time>2016-10-06T14:25:46Z</time>
      </trkpt>
      <trkpt lat="44.86109" lon="8.37582">
        <ele>143.37</ele>
        <time>2016-10-06T14:26:02Z</time>
      </trkpt>
      <trkpt lat="44.86085" lon="8.37574">
        <ele>145.78</ele>
        <time>2016-10-06T14:26:19Z</time>
      </trkpt>
      <trkpt lat="44.86082" lon="8.37571">
        <ele>146.26</ele>
        <time>2016-10-06T14:26:23Z</time>
      </trkpt>
      <trkpt lat="44.86081" lon="8.37569">
        <ele>146.26</ele>
        <time>2016-10-06T14:26:24Z</time>
      </trkpt>
      <trkpt lat="44.86081" lon="8.37568">
        <ele>146.26</ele>
        <time>2016-10-06T14:26:25Z</time>
      </trkpt>
      <trkpt lat="44.8608" lon="8.37567">
        <ele>146.26</ele>
        <time>2016-10-06T14:26:26Z</time>
      </trkpt>
      <trkpt lat="44.8608" lon="8.37566">
        <ele>146.74</ele>
        <time>2016-10-06T14:26:27Z</time>
      </trkpt>
      <trkpt lat="44.8608" lon="8.37564">
        <ele>146.74</ele>
        <time>2016-10-06T14:26:28Z</time>
      </trkpt>
      <trkpt lat="44.86081" lon="8.3754">
        <ele>149.14</ele>
        <time>2016-10-06T14:26:44Z</time>
      </trkpt>
      <trkpt lat="44.86076" lon="8.37527">
        <ele>150.58</ele>
        <time>2016-10-06T14:26:52Z</time>
      </trkpt>
      <trkpt lat="44.86075" lon="8.37526">
        <ele>151.06</ele>
        <time>2016-10-06T14:26:53Z</time>
      </trkpt>
      <trkpt lat="44.86074" lon="8.37525">
        <ele>150.58</ele>
        <time>2016-10-06T14:26:54Z</time>
      </trkpt>
      <trkpt lat="44.86073" lon="8.37524">
        <ele>151.06</ele>
        <time>2016-10-06T14:26:55Z</time>
      </trkpt>
      <trkpt lat="44.86071" lon="8.37523">
        <ele>151.06</ele>
        <time>2016-10-06T14:26:56Z</time>
      </trkpt>
      <trkpt lat="44.8607" lon="8.37523">
        <ele>151.06</ele>
        <time>2016-10-06T14:26:57Z</time>
      </trkpt>
      <trkpt lat="44.86067" lon="8.37522">
        <ele>151.54</ele>
        <time>2016-10-06T14:26:59Z</time>
      </trkpt>
      <trkpt lat="44.86066" lon="8.37523">
        <ele>151.54</ele>
        <time>2016-10-06T14:27:00Z</time>
      </trkpt>
      <trkpt lat="44.86047" lon="8.37537">
        <ele>154.43</ele>
        <time>2016-10-06T14:27:17Z</time>
      </trkpt>
      <trkpt lat="44.86034" lon="8.3756">
        <ele>155.39</ele>
        <time>2016-10-06T14:27:32Z</time>
      </trkpt>
      <trkpt lat="44.86033" lon="8.37588">
        <ele>157.79</ele>
        <time>2016-10-06T14:27:47Z</time>
      </trkpt>
      <trkpt lat="44.86047" lon="8.37614">
        <ele>159.72</ele>
        <time>2016-10-06T14:28:04Z</time>
      </trkpt>
      <trkpt lat="44.86054" lon="8.3764">
        <ele>162.12</ele>
        <time>2016-10-06T14:28:20Z</time>
      </trkpt>
      <trkpt lat="44.86037" lon="8.37637">
        <ele>165</ele>
        <time>2016-10-06T14:28:35Z</time>
      </trkpt>
      <trkpt lat="44.86012" lon="8.3763">
        <ele>167.41</ele>
        <time>2016-10-06T14:28:54Z</time>
      </trkpt>
      <trkpt lat="44.85993" lon="8.37624">
        <ele>169.81</ele>
        <time>2016-10-06T14:29:10Z</time>
      </trkpt>
      <trkpt lat="44.85972" lon="8.3762">
        <ele>171.25</ele>
        <time>2016-10-06T14:29:26Z</time>
      </trkpt>
      <trkpt lat="44.85947" lon="8.37611">
        <ele>172.21</ele>
        <time>2016-10-06T14:29:43Z</time>
      </trkpt>
      <trkpt lat="44.85923" lon="8.37597">
        <ele>174.14</ele>
        <time>2016-10-06T14:29:59Z</time>
      </trkpt>
      <trkpt lat="44.85898" lon="8.37581">
        <ele>175.58</ele>
        <time>2016-10-06T14:30:14Z</time>
      </trkpt>
      <trkpt lat="44.85866" lon="8.37563">
        <ele>177.5</ele>
        <time>2016-10-06T14:30:32Z</time>
      </trkpt>
      <trkpt lat="44.8584" lon="8.37547">
        <ele>178.94</ele>
        <time>2016-10-06T14:30:47Z</time>
      </trkpt>
      <trkpt lat="44.85811" lon="8.37544">
        <ele>179.9</ele>
        <time>2016-10-06T14:31:02Z</time>
      </trkpt>
      <trkpt lat="44.85773" lon="8.3756">
        <ele>180.38</ele>
        <time>2016-10-06T14:31:17Z</time>
      </trkpt>
      <trkpt lat="44.8574" lon="8.37573">
        <ele>180.87</ele>
        <time>2016-10-06T14:31:30Z</time>
      </trkpt>
      <trkpt lat="44.85684" lon="8.37587">
        <ele>180.87</ele>
        <time>2016-10-06T14:31:46Z</time>
      </trkpt>
      <trkpt lat="44.85616" lon="8.37598">
        <ele>181.35</ele>
        <time>2016-10-06T14:32:03Z</time>
      </trkpt>
      <trkpt lat="44.85596" lon="8.37601">
        <ele>181.35</ele>
        <time>2016-10-06T14:32:08Z</time>
      </trkpt>
      <trkpt lat="44.85505" lon="8.37618">
        <ele>182.31</ele>
        <time>2016-10-06T14:32:30Z</time>
      </trkpt>
      <trkpt lat="44.85434" lon="8.37635">
        <ele>182.31</ele>
        <time>2016-10-06T14:32:47Z</time>
      </trkpt>
      <trkpt lat="44.8536" lon="8.37662">
        <ele>183.27</ele>
        <time>2016-10-06T14:33:06Z</time>
      </trkpt>
      <trkpt lat="44.85343" lon="8.37674">
        <ele>183.75</ele>
        <time>2016-10-06T14:33:12Z</time>
      </trkpt>
      <trkpt lat="44.85342" lon="8.37676">
        <ele>183.75</ele>
        <time>2016-10-06T14:33:13Z</time>
      </trkpt>
      <trkpt lat="44.85341" lon="8.37678">
        <ele>183.75</ele>
        <time>2016-10-06T14:33:14Z</time>
      </trkpt>
      <trkpt lat="44.85343" lon="8.37683">
        <ele>183.75</ele>
        <time>2016-10-06T14:33:30Z</time>
      </trkpt>
      <trkpt lat="44.85339" lon="8.37683">
        <ele>183.75</ele>
        <time>2016-10-06T14:34:03Z</time>
      </trkpt>
      <trkpt lat="44.85336" lon="8.37691">
        <ele>183.75</ele>
        <time>2016-10-06T14:34:45Z</time>
      </trkpt>
      <trkpt lat="44.85337" lon="8.37694">
        <ele>184.23</ele>
        <time>2016-10-06T14:35:27Z</time>
      </trkpt>
      <trkpt lat="44.85339" lon="8.37692">
        <ele>183.75</ele>
        <time>2016-10-06T14:36:00Z</time>
      </trkpt>
      <trkpt lat="44.85341" lon="8.37684">
        <ele>184.23</ele>
        <time>2016-10-06T14:36:30Z</time>
      </trkpt>
      <trkpt lat="44.8534" lon="8.3769">
        <ele>184.23</ele>
        <time>2016-10-06T14:37:15Z</time>
      </trkpt>
      <trkpt lat="44.85338" lon="8.37688">
        <ele>184.23</ele>
        <time>2016-10-06T14:37:39Z</time>
      </trkpt>
      <trkpt lat="44.85336" lon="8.37688">
        <ele>184.23</ele>
        <time>2016-10-06T14:38:10Z</time>
      </trkpt>
      <trkpt lat="44.85319" lon="8.37721">
        <ele>184.23</ele>
        <time>2016-10-06T14:38:25Z</time>
      </trkpt>
      <trkpt lat="44.85303" lon="8.37786">
        <ele>183.75</ele>
        <time>2016-10-06T14:38:40Z</time>
      </trkpt>
      <trkpt lat="44.85327" lon="8.37848">
        <ele>182.31</ele>
        <time>2016-10-06T14:38:53Z</time>
      </trkpt>
      <trkpt lat="44.85368" lon="8.379">
        <ele>182.31</ele>
        <time>2016-10-06T14:39:05Z</time>
      </trkpt>
      <trkpt lat="44.85424" lon="8.37985">
        <ele>180.38</ele>
        <time>2016-10-06T14:39:22Z</time>
      </trkpt>
      <trkpt lat="44.85468" lon="8.38083">
        <ele>179.42</ele>
        <time>2016-10-06T14:39:36Z</time>
      </trkpt>
      <trkpt lat="44.85518" lon="8.38147">
        <ele>179.42</ele>
        <time>2016-10-06T14:39:50Z</time>
      </trkpt>
      <trkpt lat="44.85568" lon="8.38216">
        <ele>177.5</ele>
        <time>2016-10-06T14:40:05Z</time>
      </trkpt>
      <trkpt lat="44.85643" lon="8.38322">
        <ele>174.14</ele>
        <time>2016-10-06T14:40:23Z</time>
      </trkpt>
      <trkpt lat="44.85661" lon="8.38344">
        <ele>174.14</ele>
        <time>2016-10-06T14:40:27Z</time>
      </trkpt>
      <trkpt lat="44.85666" lon="8.38348">
        <ele>174.62</ele>
        <time>2016-10-06T14:40:28Z</time>
      </trkpt>
      <trkpt lat="44.85671" lon="8.38351">
        <ele>174.14</ele>
        <time>2016-10-06T14:40:29Z</time>
      </trkpt>
      <trkpt lat="44.85677" lon="8.38353">
        <ele>174.14</ele>
        <time>2016-10-06T14:40:30Z</time>
      </trkpt>
      <trkpt lat="44.85682" lon="8.38355">
        <ele>174.14</ele>
        <time>2016-10-06T14:40:31Z</time>
      </trkpt>
      <trkpt lat="44.85742" lon="8.38379">
        <ele>175.58</ele>
        <time>2016-10-06T14:40:45Z</time>
      </trkpt>
      <trkpt lat="44.85748" lon="8.38383">
        <ele>175.1</ele>
        <time>2016-10-06T14:40:57Z</time>
      </trkpt>
      <trkpt lat="44.8575" lon="8.38384">
        <ele>175.1</ele>
        <time>2016-10-06T14:41:38Z</time>
      </trkpt>
      <trkpt lat="44.85751" lon="8.38386">
        <ele>175.1</ele>
        <time>2016-10-06T14:42:22Z</time>
      </trkpt>
      <trkpt lat="44.85751" lon="8.38385">
        <ele>175.1</ele>
        <time>2016-10-06T14:43:04Z</time>
      </trkpt>
      <trkpt lat="44.85756" lon="8.38389">
        <ele>174.62</ele>
        <time>2016-10-06T14:43:23Z</time>
      </trkpt>
      <trkpt lat="44.85761" lon="8.38395">
        <ele>174.62</ele>
        <time>2016-10-06T14:43:40Z</time>
      </trkpt>
      <trkpt lat="44.85779" lon="8.38408">
        <ele>173.17</ele>
        <time>2016-10-06T14:43:54Z</time>
      </trkpt>
      <trkpt lat="44.85823" lon="8.38449">
        <ele>171.73</ele>
        <time>2016-10-06T14:44:06Z</time>
      </trkpt>
      <trkpt lat="44.85827" lon="8.38454">
        <ele>171.73</ele>
        <time>2016-10-06T14:44:07Z</time>
      </trkpt>
      <trkpt lat="44.85831" lon="8.3846">
        <ele>171.25</ele>
        <time>2016-10-06T14:44:08Z</time>
      </trkpt>
      <trkpt lat="44.85834" lon="8.38466">
        <ele>170.77</ele>
        <time>2016-10-06T14:44:09Z</time>
      </trkpt>
      <trkpt lat="44.85837" lon="8.38474">
        <ele>170.77</ele>
        <time>2016-10-06T14:44:10Z</time>
      </trkpt>
      <trkpt lat="44.85839" lon="8.38481">
        <ele>170.77</ele>
        <time>2016-10-06T14:44:11Z</time>
      </trkpt>
      <trkpt lat="44.85842" lon="8.38488">
        <ele>170.77</ele>
        <time>2016-10-06T14:44:12Z</time>
      </trkpt>
      <trkpt lat="44.85854" lon="8.38594">
        <ele>169.33</ele>
        <time>2016-10-06T14:44:25Z</time>
      </trkpt>
      <trkpt lat="44.85849" lon="8.38655">
        <ele>169.33</ele>
        <time>2016-10-06T14:44:32Z</time>
      </trkpt>
      <trkpt lat="44.85847" lon="8.38663">
        <ele>168.85</ele>
        <time>2016-10-06T14:44:33Z</time>
      </trkpt>
      <trkpt lat="44.85844" lon="8.3867">
        <ele>168.85</ele>
        <time>2016-10-06T14:44:34Z</time>
      </trkpt>
      <trkpt lat="44.85812" lon="8.38772">
        <ele>169.81</ele>
        <time>2016-10-06T14:44:49Z</time>
      </trkpt>
      <trkpt lat="44.85797" lon="8.38886">
        <ele>168.37</ele>
        <time>2016-10-06T14:45:05Z</time>
      </trkpt>
      <trkpt lat="44.85794" lon="8.38953">
        <ele>166.45</ele>
        <time>2016-10-06T14:45:12Z</time>
      </trkpt>
      <trkpt lat="44.85795" lon="8.38963">
        <ele>166.45</ele>
        <time>2016-10-06T14:45:13Z</time>
      </trkpt>
      <trkpt lat="44.85797" lon="8.38973">
        <ele>165.96</ele>
        <time>2016-10-06T14:45:14Z</time>
      </trkpt>
      <trkpt lat="44.858" lon="8.38983">
        <ele>165.96</ele>
        <time>2016-10-06T14:45:15Z</time>
      </trkpt>
      <trkpt lat="44.85803" lon="8.38992">
        <ele>165.96</ele>
        <time>2016-10-06T14:45:16Z</time>
      </trkpt>
      <trkpt lat="44.85808" lon="8.39001">
        <ele>165.48</ele>
        <time>2016-10-06T14:45:17Z</time>
      </trkpt>
      <trkpt lat="44.85813" lon="8.39008">
        <ele>165</ele>
        <time>2016-10-06T14:45:18Z</time>
      </trkpt>
      <trkpt lat="44.85819" lon="8.39016">
        <ele>165</ele>
        <time>2016-10-06T14:45:19Z</time>
      </trkpt>
      <trkpt lat="44.85825" lon="8.39023">
        <ele>164.52</ele>
        <time>2016-10-06T14:45:20Z</time>
      </trkpt>
      <trkpt lat="44.85905" lon="8.39131">
        <ele>160.68</ele>
        <time>2016-10-06T14:45:34Z</time>
      </trkpt>
      <trkpt lat="44.85957" lon="8.39218">
        <ele>159.24</ele>
        <time>2016-10-06T14:45:44Z</time>
      </trkpt>
      <trkpt lat="44.86014" lon="8.39378">
        <ele>156.35</ele>
        <time>2016-10-06T14:46:00Z</time>
      </trkpt>
      <trkpt lat="44.86057" lon="8.39529">
        <ele>153.95</ele>
        <time>2016-10-06T14:46:15Z</time>
      </trkpt>
      <trkpt lat="44.86071" lon="8.39594">
        <ele>153.95</ele>
        <time>2016-10-06T14:46:22Z</time>
      </trkpt>
      <trkpt lat="44.86074" lon="8.39601">
        <ele>153.95</ele>
        <time>2016-10-06T14:46:23Z</time>
      </trkpt>
      <trkpt lat="44.86079" lon="8.39608">
        <ele>154.43</ele>
        <time>2016-10-06T14:46:24Z</time>
      </trkpt>
      <trkpt lat="44.86084" lon="8.39613">
        <ele>154.43</ele>
        <time>2016-10-06T14:46:25Z</time>
      </trkpt>
      <trkpt lat="44.86089" lon="8.39618">
        <ele>154.43</ele>
        <time>2016-10-06T14:46:26Z</time>
      </trkpt>
      <trkpt lat="44.86095" lon="8.39623">
        <ele>154.43</ele>
        <time>2016-10-06T14:46:27Z</time>
      </trkpt>
      <trkpt lat="44.86184" lon="8.39684">
        <ele>152.99</ele>
        <time>2016-10-06T14:46:41Z</time>
      </trkpt>
      <trkpt lat="44.86254" lon="8.39703">
        <ele>152.03</ele>
        <time>2016-10-06T14:46:55Z</time>
      </trkpt>
      <trkpt lat="44.86262" lon="8.39706">
        <ele>151.54</ele>
        <time>2016-10-06T14:46:57Z</time>
      </trkpt>
      <trkpt lat="44.86266" lon="8.39709">
        <ele>151.06</ele>
        <time>2016-10-06T14:46:58Z</time>
      </trkpt>
      <trkpt lat="44.86269" lon="8.39713">
        <ele>152.03</ele>
        <time>2016-10-06T14:46:59Z</time>
      </trkpt>
      <trkpt lat="44.8627" lon="8.39719">
        <ele>152.03</ele>
        <time>2016-10-06T14:47:00Z</time>
      </trkpt>
      <trkpt lat="44.86271" lon="8.39725">
        <ele>151.54</ele>
        <time>2016-10-06T14:47:01Z</time>
      </trkpt>
      <trkpt lat="44.86271" lon="8.39731">
        <ele>151.54</ele>
        <time>2016-10-06T14:47:02Z</time>
      </trkpt>
      <trkpt lat="44.8627" lon="8.39738">
        <ele>151.54</ele>
        <time>2016-10-06T14:47:03Z</time>
      </trkpt>
      <trkpt lat="44.86273" lon="8.3986">
        <ele>149.62</ele>
        <time>2016-10-06T14:47:18Z</time>
      </trkpt>
      <trkpt lat="44.86279" lon="8.39927">
        <ele>148.66</ele>
        <time>2016-10-06T14:47:26Z</time>
      </trkpt>
      <trkpt lat="44.8628" lon="8.39935">
        <ele>148.66</ele>
        <time>2016-10-06T14:47:27Z</time>
      </trkpt>
      <trkpt lat="44.86299" lon="8.40015">
        <ele>145.78</ele>
        <time>2016-10-06T14:47:36Z</time>
      </trkpt>
      <trkpt lat="44.86311" lon="8.40071">
        <ele>143.37</ele>
        <time>2016-10-06T14:47:41Z</time>
      </trkpt>
      <trkpt lat="44.8635" lon="8.402">
        <ele>143.85</ele>
        <time>2016-10-06T14:47:55Z</time>
      </trkpt>
      <trkpt lat="44.86388" lon="8.40298">
        <ele>143.85</ele>
        <time>2016-10-06T14:48:09Z</time>
      </trkpt>
      <trkpt lat="44.86394" lon="8.40334">
        <ele>142.41</ele>
        <time>2016-10-06T14:48:14Z</time>
      </trkpt>
      <trkpt lat="44.86391" lon="8.40381">
        <ele>141.93</ele>
        <time>2016-10-06T14:48:25Z</time>
      </trkpt>
      <trkpt lat="44.8639" lon="8.40404">
        <ele>141.45</ele>
        <time>2016-10-06T14:48:30Z</time>
      </trkpt>
      <trkpt lat="44.86402" lon="8.40499">
        <ele>138.09</ele>
        <time>2016-10-06T14:48:41Z</time>
      </trkpt>
      <trkpt lat="44.86414" lon="8.40571">
        <ele>136.16</ele>
        <time>2016-10-06T14:48:48Z</time>
      </trkpt>
      <trkpt lat="44.86417" lon="8.4058">
        <ele>135.68</ele>
        <time>2016-10-06T14:48:49Z</time>
      </trkpt>
      <trkpt lat="44.86422" lon="8.40588">
        <ele>135.68</ele>
        <time>2016-10-06T14:48:50Z</time>
      </trkpt>
      <trkpt lat="44.86428" lon="8.40595">
        <ele>135.68</ele>
        <time>2016-10-06T14:48:51Z</time>
      </trkpt>
      <trkpt lat="44.86433" lon="8.40601">
        <ele>134.72</ele>
        <time>2016-10-06T14:48:52Z</time>
      </trkpt>
      <trkpt lat="44.86438" lon="8.40605">
        <ele>134.72</ele>
        <time>2016-10-06T14:48:53Z</time>
      </trkpt>
      <trkpt lat="44.86446" lon="8.40612">
        <ele>134.24</ele>
        <time>2016-10-06T14:48:56Z</time>
      </trkpt>
      <trkpt lat="44.86455" lon="8.40614">
        <ele>133.76</ele>
        <time>2016-10-06T14:49:08Z</time>
      </trkpt>
      <trkpt lat="44.86456" lon="8.40615">
        <ele>134.24</ele>
        <time>2016-10-06T14:49:37Z</time>
      </trkpt>
      <trkpt lat="44.86458" lon="8.40618">
        <ele>134.24</ele>
        <time>2016-10-06T14:50:03Z</time>
      </trkpt>
      <trkpt lat="44.86484" lon="8.40646">
        <ele>134.72</ele>
        <time>2016-10-06T14:50:15Z</time>
      </trkpt>
      <trkpt lat="44.86543" lon="8.40697">
        <ele>135.2</ele>
        <time>2016-10-06T14:50:32Z</time>
      </trkpt>
      <trkpt lat="44.86592" lon="8.40777">
        <ele>135.68</ele>
        <time>2016-10-06T14:50:51Z</time>
      </trkpt>
      <trkpt lat="44.86594" lon="8.40811">
        <ele>135.2</ele>
        <time>2016-10-06T14:50:57Z</time>
      </trkpt>
      <trkpt lat="44.86593" lon="8.40817">
        <ele>135.2</ele>
        <time>2016-10-06T14:50:58Z</time>
      </trkpt>
      <trkpt lat="44.86588" lon="8.40836">
        <ele>134.72</ele>
        <time>2016-10-06T14:51:01Z</time>
      </trkpt>
      <trkpt lat="44.86576" lon="8.4088">
        <ele>133.76</ele>
        <time>2016-10-06T14:51:07Z</time>
      </trkpt>
      <trkpt lat="44.86574" lon="8.40888">
        <ele>133.28</ele>
        <time>2016-10-06T14:51:08Z</time>
      </trkpt>
      <trkpt lat="44.86574" lon="8.40898">
        <ele>132.8</ele>
        <time>2016-10-06T14:51:09Z</time>
      </trkpt>
      <trkpt lat="44.86574" lon="8.40908">
        <ele>132.32</ele>
        <time>2016-10-06T14:51:10Z</time>
      </trkpt>
      <trkpt lat="44.86576" lon="8.40918">
        <ele>131.84</ele>
        <time>2016-10-06T14:51:11Z</time>
      </trkpt>
      <trkpt lat="44.86577" lon="8.40929">
        <ele>131.36</ele>
        <time>2016-10-06T14:51:12Z</time>
      </trkpt>
      <trkpt lat="44.86584" lon="8.40969">
        <ele>127.99</ele>
        <time>2016-10-06T14:51:15Z</time>
      </trkpt>
      <trkpt lat="44.86592" lon="8.41017">
        <ele>124.63</ele>
        <time>2016-10-06T14:51:18Z</time>
      </trkpt>
      <trkpt lat="44.86602" lon="8.41068">
        <ele>121.26</ele>
        <time>2016-10-06T14:51:21Z</time>
      </trkpt>
      <trkpt lat="44.8662" lon="8.41136">
        <ele>115.5</ele>
        <time>2016-10-06T14:51:25Z</time>
      </trkpt>
      <trkpt lat="44.8665" lon="8.41227">
        <ele>112.13</ele>
        <time>2016-10-06T14:51:31Z</time>
      </trkpt>
      <trkpt lat="44.86655" lon="8.41241">
        <ele>112.13</ele>
        <time>2016-10-06T14:51:32Z</time>
      </trkpt>
      <trkpt lat="44.8667" lon="8.41282">
        <ele>109.73</ele>
        <time>2016-10-06T14:51:35Z</time>
      </trkpt>
      <trkpt lat="44.8669" lon="8.41334">
        <ele>106.84</ele>
        <time>2016-10-06T14:51:39Z</time>
      </trkpt>
      <trkpt lat="44.86712" lon="8.41416">
        <ele>103.96</ele>
        <time>2016-10-06T14:51:45Z</time>
      </trkpt>
      <trkpt lat="44.86716" lon="8.41444">
        <ele>103</ele>
        <time>2016-10-06T14:51:47Z</time>
      </trkpt>
      <trkpt lat="44.86734" lon="8.4162">
        <ele>100.11</ele>
        <time>2016-10-06T14:52:02Z</time>
      </trkpt>
      <trkpt lat="44.86736" lon="8.41629">
        <ele>99.63</ele>
        <time>2016-10-06T14:52:03Z</time>
      </trkpt>
      <trkpt lat="44.86737" lon="8.41637">
        <ele>99.63</ele>
        <time>2016-10-06T14:52:04Z</time>
      </trkpt>
      <trkpt lat="44.8674" lon="8.41645">
        <ele>99.63</ele>
        <time>2016-10-06T14:52:05Z</time>
      </trkpt>
      <trkpt lat="44.86744" lon="8.41653">
        <ele>99.63</ele>
        <time>2016-10-06T14:52:06Z</time>
      </trkpt>
      <trkpt lat="44.86748" lon="8.41659">
        <ele>99.63</ele>
        <time>2016-10-06T14:52:07Z</time>
      </trkpt>
      <trkpt lat="44.86753" lon="8.41663">
        <ele>99.15</ele>
        <time>2016-10-06T14:52:08Z</time>
      </trkpt>
      <trkpt lat="44.86758" lon="8.41667">
        <ele>99.15</ele>
        <time>2016-10-06T14:52:09Z</time>
      </trkpt>
      <trkpt lat="44.86801" lon="8.41707">
        <ele>98.67</ele>
        <time>2016-10-06T14:52:18Z</time>
      </trkpt>
      <trkpt lat="44.86806" lon="8.4171">
        <ele>99.15</ele>
        <time>2016-10-06T14:52:19Z</time>
      </trkpt>
      <trkpt lat="44.86833" lon="8.41721">
        <ele>99.63</ele>
        <time>2016-10-06T14:52:24Z</time>
      </trkpt>
      <trkpt lat="44.86901" lon="8.41746">
        <ele>98.67</ele>
        <time>2016-10-06T14:52:37Z</time>
      </trkpt>
      <trkpt lat="44.86905" lon="8.41749">
        <ele>98.67</ele>
        <time>2016-10-06T14:52:38Z</time>
      </trkpt>
      <trkpt lat="44.86909" lon="8.41754">
        <ele>99.15</ele>
        <time>2016-10-06T14:52:39Z</time>
      </trkpt>
      <trkpt lat="44.86912" lon="8.4176">
        <ele>98.67</ele>
        <time>2016-10-06T14:52:40Z</time>
      </trkpt>
      <trkpt lat="44.86913" lon="8.41766">
        <ele>98.19</ele>
        <time>2016-10-06T14:52:41Z</time>
      </trkpt>
      <trkpt lat="44.86913" lon="8.41772">
        <ele>98.19</ele>
        <time>2016-10-06T14:52:42Z</time>
      </trkpt>
      <trkpt lat="44.86912" lon="8.41779">
        <ele>98.19</ele>
        <time>2016-10-06T14:52:43Z</time>
      </trkpt>
      <trkpt lat="44.86911" lon="8.41785">
        <ele>97.71</ele>
        <time>2016-10-06T14:52:44Z</time>
      </trkpt>
      <trkpt lat="44.86899" lon="8.41886">
        <ele>99.15</ele>
        <time>2016-10-06T14:52:58Z</time>
      </trkpt>
      <trkpt lat="44.8688" lon="8.41949">
        <ele>99.15</ele>
        <time>2016-10-06T14:53:07Z</time>
      </trkpt>
      <trkpt lat="44.86857" lon="8.41981">
        <ele>98.67</ele>
        <time>2016-10-06T14:53:13Z</time>
      </trkpt>
      <trkpt lat="44.86852" lon="8.41986">
        <ele>98.67</ele>
        <time>2016-10-06T14:53:14Z</time>
      </trkpt>
      <trkpt lat="44.86847" lon="8.41989">
        <ele>98.67</ele>
        <time>2016-10-06T14:53:15Z</time>
      </trkpt>
      <trkpt lat="44.86745" lon="8.42062">
        <ele>98.67</ele>
        <time>2016-10-06T14:53:35Z</time>
      </trkpt>
      <trkpt lat="44.86654" lon="8.42149">
        <ele>100.6</ele>
        <time>2016-10-06T14:53:55Z</time>
      </trkpt>
      <trkpt lat="44.86597" lon="8.42264">
        <ele>100.11</ele>
        <time>2016-10-06T14:54:13Z</time>
      </trkpt>
      <trkpt lat="44.86597" lon="8.42375">
        <ele>100.6</ele>
        <time>2016-10-06T14:54:27Z</time>
      </trkpt>
      <trkpt lat="44.86601" lon="8.42398">
        <ele>100.6</ele>
        <time>2016-10-06T14:54:30Z</time>
      </trkpt>
      <trkpt lat="44.86603" lon="8.42405">
        <ele>101.08</ele>
        <time>2016-10-06T14:54:31Z</time>
      </trkpt>
      <trkpt lat="44.86606" lon="8.42412">
        <ele>101.08</ele>
        <time>2016-10-06T14:54:32Z</time>
      </trkpt>
      <trkpt lat="44.86615" lon="8.42432">
        <ele>99.63</ele>
        <time>2016-10-06T14:54:35Z</time>
      </trkpt>
      <trkpt lat="44.86677" lon="8.42528">
        <ele>99.15</ele>
        <time>2016-10-06T14:54:51Z</time>
      </trkpt>
      <trkpt lat="44.86735" lon="8.42607">
        <ele>101.08</ele>
        <time>2016-10-06T14:55:07Z</time>
      </trkpt>
      <trkpt lat="44.86773" lon="8.42659">
        <ele>102.04</ele>
        <time>2016-10-06T14:55:18Z</time>
      </trkpt>
      <trkpt lat="44.8678" lon="8.42669">
        <ele>101.08</ele>
        <time>2016-10-06T14:55:20Z</time>
      </trkpt>
      <trkpt lat="44.86835" lon="8.4278">
        <ele>101.08</ele>
        <time>2016-10-06T14:55:39Z</time>
      </trkpt>
      <trkpt lat="44.8686" lon="8.42923">
        <ele>99.63</ele>
        <time>2016-10-06T14:55:56Z</time>
      </trkpt>
      <trkpt lat="44.86853" lon="8.43055">
        <ele>97.71</ele>
        <time>2016-10-06T14:56:10Z</time>
      </trkpt>
      <trkpt lat="44.86863" lon="8.4317">
        <ele>97.71</ele>
        <time>2016-10-06T14:56:22Z</time>
      </trkpt>
      <trkpt lat="44.86908" lon="8.43305">
        <ele>97.71</ele>
        <time>2016-10-06T14:56:39Z</time>
      </trkpt>
      <trkpt lat="44.86944" lon="8.43389">
        <ele>99.63</ele>
        <time>2016-10-06T14:56:54Z</time>
      </trkpt>
      <trkpt lat="44.8698" lon="8.43463">
        <ele>102.04</ele>
        <time>2016-10-06T14:57:11Z</time>
      </trkpt>
      <trkpt lat="44.87016" lon="8.43539">
        <ele>103.96</ele>
        <time>2016-10-06T14:57:30Z</time>
      </trkpt>
      <trkpt lat="44.87059" lon="8.43632">
        <ele>104.44</ele>
        <time>2016-10-06T14:57:49Z</time>
      </trkpt>
      <trkpt lat="44.87101" lon="8.4372">
        <ele>101.08</ele>
        <time>2016-10-06T14:58:02Z</time>
      </trkpt>
      <trkpt lat="44.87165" lon="8.43881">
        <ele>98.67</ele>
        <time>2016-10-06T14:58:20Z</time>
      </trkpt>
      <trkpt lat="44.87197" lon="8.44029">
        <ele>98.67</ele>
        <time>2016-10-06T14:58:38Z</time>
      </trkpt>
      <trkpt lat="44.87207" lon="8.44174">
        <ele>99.63</ele>
        <time>2016-10-06T14:58:57Z</time>
      </trkpt>
      <trkpt lat="44.87214" lon="8.44328">
        <ele>99.63</ele>
        <time>2016-10-06T14:59:17Z</time>
      </trkpt>
      <trkpt lat="44.87244" lon="8.44472">
        <ele>98.67</ele>
        <time>2016-10-06T14:59:35Z</time>
      </trkpt>
      <trkpt lat="44.87294" lon="8.44643">
        <ele>98.67</ele>
        <time>2016-10-06T14:59:58Z</time>
      </trkpt>
      <trkpt lat="44.8734" lon="8.44804">
        <ele>97.23</ele>
        <time>2016-10-06T15:00:19Z</time>
      </trkpt>
      <trkpt lat="44.87356" lon="8.44982">
        <ele>97.71</ele>
        <time>2016-10-06T15:00:41Z</time>
      </trkpt>
      <trkpt lat="44.87351" lon="8.45127">
        <ele>98.67</ele>
        <time>2016-10-06T15:01:00Z</time>
      </trkpt>
      <trkpt lat="44.87346" lon="8.45271">
        <ele>98.19</ele>
        <time>2016-10-06T15:01:19Z</time>
      </trkpt>
      <trkpt lat="44.87339" lon="8.45424">
        <ele>97.71</ele>
        <time>2016-10-06T15:01:38Z</time>
      </trkpt>
      <trkpt lat="44.87313" lon="8.45555">
        <ele>98.67</ele>
        <time>2016-10-06T15:01:56Z</time>
      </trkpt>
      <trkpt lat="44.87262" lon="8.45639">
        <ele>100.6</ele>
        <time>2016-10-06T15:02:15Z</time>
      </trkpt>
      <trkpt lat="44.87222" lon="8.45707">
        <ele>102.04</ele>
        <time>2016-10-06T15:02:33Z</time>
      </trkpt>
      <trkpt lat="44.87188" lon="8.45784">
        <ele>105.4</ele>
        <time>2016-10-06T15:02:54Z</time>
      </trkpt>
      <trkpt lat="44.8716" lon="8.45854">
        <ele>107.81</ele>
        <time>2016-10-06T15:03:13Z</time>
      </trkpt>
      <trkpt lat="44.87125" lon="8.45942">
        <ele>108.29</ele>
        <time>2016-10-06T15:03:32Z</time>
      </trkpt>
      <trkpt lat="44.87088" lon="8.46036">
        <ele>109.73</ele>
        <time>2016-10-06T15:03:52Z</time>
      </trkpt>
      <trkpt lat="44.87058" lon="8.4611">
        <ele>112.13</ele>
        <time>2016-10-06T15:04:10Z</time>
      </trkpt>
      <trkpt lat="44.87025" lon="8.46191">
        <ele>113.09</ele>
        <time>2016-10-06T15:04:30Z</time>
      </trkpt>
      <trkpt lat="44.86994" lon="8.46291">
        <ele>115.5</ele>
        <time>2016-10-06T15:04:53Z</time>
      </trkpt>
      <trkpt lat="44.86981" lon="8.46385">
        <ele>115.5</ele>
        <time>2016-10-06T15:05:09Z</time>
      </trkpt>
      <trkpt lat="44.86967" lon="8.46518">
        <ele>114.05</ele>
        <time>2016-10-06T15:05:28Z</time>
      </trkpt>
      <trkpt lat="44.86966" lon="8.46537">
        <ele>114.53</ele>
        <time>2016-10-06T15:05:31Z</time>
      </trkpt>
      <trkpt lat="44.86943" lon="8.46648">
        <ele>114.05</ele>
        <time>2016-10-06T15:05:47Z</time>
      </trkpt>
      <trkpt lat="44.86907" lon="8.46794">
        <ele>113.09</ele>
        <time>2016-10-06T15:06:06Z</time>
      </trkpt>
      <trkpt lat="44.86843" lon="8.46916">
        <ele>113.57</ele>
        <time>2016-10-06T15:06:25Z</time>
      </trkpt>
      <trkpt lat="44.86775" lon="8.47059">
        <ele>111.65</ele>
        <time>2016-10-06T15:06:44Z</time>
      </trkpt>
      <trkpt lat="44.86742" lon="8.47217">
        <ele>108.77</ele>
        <time>2016-10-06T15:07:00Z</time>
      </trkpt>
      <trkpt lat="44.86713" lon="8.47411">
        <ele>108.77</ele>
        <time>2016-10-06T15:07:21Z</time>
      </trkpt>
      <trkpt lat="44.86698" lon="8.47516">
        <ele>110.21</ele>
        <time>2016-10-06T15:07:36Z</time>
      </trkpt>
      <trkpt lat="44.8668" lon="8.47638">
        <ele>112.13</ele>
        <time>2016-10-06T15:07:56Z</time>
      </trkpt>
      <trkpt lat="44.86658" lon="8.47784">
        <ele>112.61</ele>
        <time>2016-10-06T15:08:19Z</time>
      </trkpt>
      <trkpt lat="44.86633" lon="8.47958">
        <ele>112.13</ele>
        <time>2016-10-06T15:08:42Z</time>
      </trkpt>
      <trkpt lat="44.86606" lon="8.48149">
        <ele>110.69</ele>
        <time>2016-10-06T15:09:06Z</time>
      </trkpt>
      <trkpt lat="44.86567" lon="8.48292">
        <ele>110.69</ele>
        <time>2016-10-06T15:09:25Z</time>
      </trkpt>
      <trkpt lat="44.86509" lon="8.48385">
        <ele>110.21</ele>
        <time>2016-10-06T15:09:41Z</time>
      </trkpt>
      <trkpt lat="44.86441" lon="8.48456">
        <ele>110.21</ele>
        <time>2016-10-06T15:09:58Z</time>
      </trkpt>
      <trkpt lat="44.86365" lon="8.4852">
        <ele>105.88</ele>
        <time>2016-10-06T15:10:13Z</time>
      </trkpt>
      <trkpt lat="44.86359" lon="8.48524">
        <ele>105.4</ele>
        <time>2016-10-06T15:10:14Z</time>
      </trkpt>
      <trkpt lat="44.86279" lon="8.48596">
        <ele>102.52</ele>
        <time>2016-10-06T15:10:28Z</time>
      </trkpt>
      <trkpt lat="44.86231" lon="8.48635">
        <ele>104.92</ele>
        <time>2016-10-06T15:10:40Z</time>
      </trkpt>
      <trkpt lat="44.86198" lon="8.48648">
        <ele>105.88</ele>
        <time>2016-10-06T15:10:53Z</time>
      </trkpt>
      <trkpt lat="44.8618" lon="8.48638">
        <ele>107.81</ele>
        <time>2016-10-06T15:11:08Z</time>
      </trkpt>
      <trkpt lat="44.8618" lon="8.48636">
        <ele>108.29</ele>
        <time>2016-10-06T15:11:09Z</time>
      </trkpt>
      <trkpt lat="44.8618" lon="8.48635">
        <ele>108.77</ele>
        <time>2016-10-06T15:11:10Z</time>
      </trkpt>
      <trkpt lat="44.86179" lon="8.48633">
        <ele>108.29</ele>
        <time>2016-10-06T15:11:11Z</time>
      </trkpt>
      <trkpt lat="44.86179" lon="8.48631">
        <ele>108.77</ele>
        <time>2016-10-06T15:11:12Z</time>
      </trkpt>
      <trkpt lat="44.86178" lon="8.48629">
        <ele>108.77</ele>
        <time>2016-10-06T15:11:13Z</time>
      </trkpt>
      <trkpt lat="44.86178" lon="8.48627">
        <ele>108.77</ele>
        <time>2016-10-06T15:11:14Z</time>
      </trkpt>
      <trkpt lat="44.86177" lon="8.48625">
        <ele>109.25</ele>
        <time>2016-10-06T15:11:15Z</time>
      </trkpt>
      <trkpt lat="44.86177" lon="8.48622">
        <ele>108.77</ele>
        <time>2016-10-06T15:11:16Z</time>
      </trkpt>
      <trkpt lat="44.86177" lon="8.4862">
        <ele>108.77</ele>
        <time>2016-10-06T15:11:17Z</time>
      </trkpt>
      <trkpt lat="44.86176" lon="8.48619">
        <ele>109.25</ele>
        <time>2016-10-06T15:11:18Z</time>
      </trkpt>
      <trkpt lat="44.86176" lon="8.48617">
        <ele>109.25</ele>
        <time>2016-10-06T15:11:19Z</time>
      </trkpt>
      <trkpt lat="44.86175" lon="8.48615">
        <ele>109.25</ele>
        <time>2016-10-06T15:11:20Z</time>
      </trkpt>
      <trkpt lat="44.86175" lon="8.48612">
        <ele>110.21</ele>
        <time>2016-10-06T15:11:21Z</time>
      </trkpt>
      <trkpt lat="44.86163" lon="8.48564">
        <ele>109.73</ele>
        <time>2016-10-06T15:11:38Z</time>
      </trkpt>
      <trkpt lat="44.86161" lon="8.48537">
        <ele>108.29</ele>
        <time>2016-10-06T15:11:43Z</time>
      </trkpt>
      <trkpt lat="44.86158" lon="8.48532">
        <ele>108.77</ele>
        <time>2016-10-06T15:11:44Z</time>
      </trkpt>
      <trkpt lat="44.86155" lon="8.4853">
        <ele>108.29</ele>
        <time>2016-10-06T15:11:45Z</time>
      </trkpt>
      <trkpt lat="44.86152" lon="8.48528">
        <ele>108.29</ele>
        <time>2016-10-06T15:11:46Z</time>
      </trkpt>
      <trkpt lat="44.8615" lon="8.48527">
        <ele>108.77</ele>
        <time>2016-10-06T15:11:47Z</time>
      </trkpt>
      <trkpt lat="44.86147" lon="8.48525">
        <ele>109.25</ele>
        <time>2016-10-06T15:11:48Z</time>
      </trkpt>
      <trkpt lat="44.86144" lon="8.48524">
        <ele>108.77</ele>
        <time>2016-10-06T15:11:49Z</time>
      </trkpt>
      <trkpt lat="44.86099" lon="8.48524">
        <ele>109.25</ele>
        <time>2016-10-06T15:12:06Z</time>
      </trkpt>
      <trkpt lat="44.86092" lon="8.48529">
        <ele>109.25</ele>
        <time>2016-10-06T15:12:20Z</time>
      </trkpt>
      <trkpt lat="44.86092" lon="8.48526">
        <ele>109.25</ele>
        <time>2016-10-06T15:12:34Z</time>
      </trkpt>
      <trkpt lat="44.86092" lon="8.48521">
        <ele>109.25</ele>
        <time>2016-10-06T15:13:17Z</time>
      </trkpt>
      <trkpt lat="44.8609" lon="8.4852">
        <ele>109.25</ele>
        <time>2016-10-06T15:13:47Z</time>
      </trkpt>
      <trkpt lat="44.8609" lon="8.48521">
        <ele>109.73</ele>
        <time>2016-10-06T15:14:22Z</time>
      </trkpt>
      <trkpt lat="44.86092" lon="8.48524">
        <ele>110.21</ele>
        <time>2016-10-06T15:15:06Z</time>
      </trkpt>
      <trkpt lat="44.86091" lon="8.48528">
        <ele>109.73</ele>
        <time>2016-10-06T15:15:51Z</time>
      </trkpt>
      <trkpt lat="44.86092" lon="8.48525">
        <ele>110.21</ele>
        <time>2016-10-06T15:16:25Z</time>
      </trkpt>
      <trkpt lat="44.8609" lon="8.48523">
        <ele>110.21</ele>
        <time>2016-10-06T15:16:58Z</time>
      </trkpt>
      <trkpt lat="44.8609" lon="8.48521">
        <ele>110.21</ele>
        <time>2016-10-06T15:17:46Z</time>
      </trkpt>
      <trkpt lat="44.86093" lon="8.48525">
        <ele>110.69</ele>
        <time>2016-10-06T15:18:19Z</time>
      </trkpt>
      <trkpt lat="44.86093" lon="8.48527">
        <ele>111.17</ele>
        <time>2016-10-06T15:18:56Z</time>
      </trkpt>
      <trkpt lat="44.8609" lon="8.48525">
        <ele>110.69</ele>
        <time>2016-10-06T15:19:31Z</time>
      </trkpt>
      <trkpt lat="44.86092" lon="8.48527">
        <ele>110.69</ele>
        <time>2016-10-06T15:19:59Z</time>
      </trkpt>
      <trkpt lat="44.86091" lon="8.48528">
        <ele>110.69</ele>
        <time>2016-10-06T15:20:37Z</time>
      </trkpt>
      <trkpt lat="44.8609" lon="8.48527">
        <ele>110.69</ele>
        <time>2016-10-06T15:21:04Z</time>
      </trkpt>
      <trkpt lat="44.86091" lon="8.48526">
        <ele>110.69</ele>
        <time>2016-10-06T15:21:38Z</time>
      </trkpt>
      <trkpt lat="44.86089" lon="8.48524">
        <ele>110.69</ele>
        <time>2016-10-06T15:22:10Z</time>
      </trkpt>
      <trkpt lat="44.86091" lon="8.48525">
        <ele>111.17</ele>
        <time>2016-10-06T15:22:47Z</time>
      </trkpt>
      <trkpt lat="44.86091" lon="8.48528">
        <ele>110.69</ele>
        <time>2016-10-06T15:23:13Z</time>
      </trkpt>
      <trkpt lat="44.86094" lon="8.48527">
        <ele>111.17</ele>
        <time>2016-10-06T15:23:45Z</time>
      </trkpt>
      <trkpt lat="44.86092" lon="8.48527">
        <ele>110.69</ele>
        <time>2016-10-06T15:24:18Z</time>
      </trkpt>
      <trkpt lat="44.86092" lon="8.48526">
        <ele>110.69</ele>
        <time>2016-10-06T15:24:46Z</time>
      </trkpt>
      <trkpt lat="44.86091" lon="8.48525">
        <ele>110.69</ele>
        <time>2016-10-06T15:25:20Z</time>
      </trkpt>
      <trkpt lat="44.86092" lon="8.48525">
        <ele>110.69</ele>
        <time>2016-10-06T15:25:47Z</time>
      </trkpt>
      <trkpt lat="44.86093" lon="8.48522">
        <ele>110.69</ele>
        <time>2016-10-06T15:26:29Z</time>
      </trkpt>
      <trkpt lat="44.86094" lon="8.48526">
        <ele>111.17</ele>
        <time>2016-10-06T15:26:58Z</time>
      </trkpt>
      <trkpt lat="44.86094" lon="8.48519">
        <ele>110.69</ele>
        <time>2016-10-06T15:27:32Z</time>
      </trkpt>
      <trkpt lat="44.86091" lon="8.48528">
        <ele>111.17</ele>
        <time>2016-10-06T15:27:46Z</time>
      </trkpt>
      <trkpt lat="44.86092" lon="8.48531">
        <ele>110.69</ele>
        <time>2016-10-06T15:27:47Z</time>
      </trkpt>
      <trkpt lat="44.86096" lon="8.48535">
        <ele>111.17</ele>
        <time>2016-10-06T15:27:59Z</time>
      </trkpt>
      <trkpt lat="44.86097" lon="8.48536">
        <ele>111.17</ele>
        <time>2016-10-06T15:28:02Z</time>
      </trkpt>
      <trkpt lat="44.86098" lon="8.48536">
        <ele>111.17</ele>
        <time>2016-10-06T15:28:03Z</time>
      </trkpt>
      <trkpt lat="44.86099" lon="8.48536">
        <ele>111.65</ele>
        <time>2016-10-06T15:28:04Z</time>
      </trkpt>
      <trkpt lat="44.861" lon="8.48535">
        <ele>111.17</ele>
        <time>2016-10-06T15:28:05Z</time>
      </trkpt>
      <trkpt lat="44.86102" lon="8.48535">
        <ele>111.17</ele>
        <time>2016-10-06T15:28:06Z</time>
      </trkpt>
      <trkpt lat="44.86103" lon="8.48535">
        <ele>111.17</ele>
        <time>2016-10-06T15:28:07Z</time>
      </trkpt>
      <trkpt lat="44.86105" lon="8.48536">
        <ele>110.69</ele>
        <time>2016-10-06T15:28:08Z</time>
      </trkpt>
      <trkpt lat="44.86107" lon="8.48536">
        <ele>110.69</ele>
        <time>2016-10-06T15:28:09Z</time>
      </trkpt>
      <trkpt lat="44.86108" lon="8.48536">
        <ele>110.69</ele>
        <time>2016-10-06T15:28:10Z</time>
      </trkpt>
      <trkpt lat="44.86135" lon="8.48532">
        <ele>111.65</ele>
        <time>2016-10-06T15:28:24Z</time>
      </trkpt>
      <trkpt lat="44.86152" lon="8.4853">
        <ele>110.69</ele>
        <time>2016-10-06T15:28:31Z</time>
      </trkpt>
      <trkpt lat="44.86154" lon="8.48533">
        <ele>110.21</ele>
        <time>2016-10-06T15:28:32Z</time>
      </trkpt>
      <trkpt lat="44.86156" lon="8.48536">
        <ele>110.69</ele>
        <time>2016-10-06T15:28:33Z</time>
      </trkpt>
      <trkpt lat="44.86158" lon="8.4854">
        <ele>110.69</ele>
        <time>2016-10-06T15:28:34Z</time>
      </trkpt>
      <trkpt lat="44.86158" lon="8.48543">
        <ele>110.69</ele>
        <time>2016-10-06T15:28:35Z</time>
      </trkpt>
      <trkpt lat="44.86159" lon="8.48547">
        <ele>110.69</ele>
        <time>2016-10-06T15:28:36Z</time>
      </trkpt>
      <trkpt lat="44.8616" lon="8.48551">
        <ele>111.17</ele>
        <time>2016-10-06T15:28:37Z</time>
      </trkpt>
      <trkpt lat="44.86169" lon="8.48593">
        <ele>112.61</ele>
        <time>2016-10-06T15:28:48Z</time>
      </trkpt>
      <trkpt lat="44.86185" lon="8.48652">
        <ele>109.25</ele>
        <time>2016-10-06T15:29:02Z</time>
      </trkpt>
      <trkpt lat="44.86197" lon="8.48659">
        <ele>108.77</ele>
        <time>2016-10-06T15:29:06Z</time>
      </trkpt>
      <trkpt lat="44.86201" lon="8.48658">
        <ele>107.81</ele>
        <time>2016-10-06T15:29:07Z</time>
      </trkpt>
      <trkpt lat="44.86204" lon="8.48656">
        <ele>108.29</ele>
        <time>2016-10-06T15:29:08Z</time>
      </trkpt>
      <trkpt lat="44.86208" lon="8.48655">
        <ele>108.29</ele>
        <time>2016-10-06T15:29:09Z</time>
      </trkpt>
      <trkpt lat="44.86211" lon="8.48653">
        <ele>108.29</ele>
        <time>2016-10-06T15:29:10Z</time>
      </trkpt>
      <trkpt lat="44.86229" lon="8.48644">
        <ele>107.81</ele>
        <time>2016-10-06T15:29:14Z</time>
      </trkpt>
      <trkpt lat="44.86262" lon="8.48621">
        <ele>105.88</ele>
        <time>2016-10-06T15:29:21Z</time>
      </trkpt>
      <trkpt lat="44.8629" lon="8.48598">
        <ele>105.88</ele>
        <time>2016-10-06T15:29:30Z</time>
      </trkpt>
      <trkpt lat="44.86292" lon="8.48598">
        <ele>105.4</ele>
        <time>2016-10-06T15:29:32Z</time>
      </trkpt>
      <trkpt lat="44.86293" lon="8.48598">
        <ele>105.4</ele>
        <time>2016-10-06T15:29:33Z</time>
      </trkpt>
      <trkpt lat="44.86294" lon="8.48599">
        <ele>104.92</ele>
        <time>2016-10-06T15:29:34Z</time>
      </trkpt>
      <trkpt lat="44.86295" lon="8.48601">
        <ele>105.4</ele>
        <time>2016-10-06T15:29:35Z</time>
      </trkpt>
      <trkpt lat="44.86296" lon="8.48604">
        <ele>105.4</ele>
        <time>2016-10-06T15:29:36Z</time>
      </trkpt>
      <trkpt lat="44.8632" lon="8.48679">
        <ele>104.44</ele>
        <time>2016-10-06T15:29:50Z</time>
      </trkpt>
      <trkpt lat="44.86336" lon="8.48787">
        <ele>103</ele>
        <time>2016-10-06T15:30:05Z</time>
      </trkpt>
      <trkpt lat="44.86336" lon="8.48815">
        <ele>102.52</ele>
        <time>2016-10-06T15:30:09Z</time>
      </trkpt>
      <trkpt lat="44.86336" lon="8.48822">
        <ele>102.04</ele>
        <time>2016-10-06T15:30:10Z</time>
      </trkpt>
      <trkpt lat="44.86328" lon="8.48922">
        <ele>100.6</ele>
        <time>2016-10-06T15:30:22Z</time>
      </trkpt>
      <trkpt lat="44.86323" lon="8.48972">
        <ele>100.11</ele>
        <time>2016-10-06T15:30:27Z</time>
      </trkpt>
      <trkpt lat="44.8632" lon="8.48982">
        <ele>100.6</ele>
        <time>2016-10-06T15:30:28Z</time>
      </trkpt>
      <trkpt lat="44.86317" lon="8.48991">
        <ele>100.6</ele>
        <time>2016-10-06T15:30:29Z</time>
      </trkpt>
      <trkpt lat="44.86312" lon="8.48999">
        <ele>100.11</ele>
        <time>2016-10-06T15:30:30Z</time>
      </trkpt>
      <trkpt lat="44.86308" lon="8.49007">
        <ele>100.6</ele>
        <time>2016-10-06T15:30:31Z</time>
      </trkpt>
      <trkpt lat="44.86303" lon="8.49015">
        <ele>101.08</ele>
        <time>2016-10-06T15:30:32Z</time>
      </trkpt>
      <trkpt lat="44.86218" lon="8.49122">
        <ele>100.11</ele>
        <time>2016-10-06T15:30:50Z</time>
      </trkpt>
      <trkpt lat="44.86126" lon="8.49232">
        <ele>99.63</ele>
        <time>2016-10-06T15:31:10Z</time>
      </trkpt>
      <trkpt lat="44.86057" lon="8.49321">
        <ele>99.63</ele>
        <time>2016-10-06T15:31:26Z</time>
      </trkpt>
      <trkpt lat="44.86054" lon="8.49328">
        <ele>99.63</ele>
        <time>2016-10-06T15:31:27Z</time>
      </trkpt>
      <trkpt lat="44.86052" lon="8.49335">
        <ele>100.11</ele>
        <time>2016-10-06T15:31:28Z</time>
      </trkpt>
      <trkpt lat="44.86051" lon="8.49342">
        <ele>100.11</ele>
        <time>2016-10-06T15:31:29Z</time>
      </trkpt>
      <trkpt lat="44.8605" lon="8.49349">
        <ele>99.15</ele>
        <time>2016-10-06T15:31:30Z</time>
      </trkpt>
      <trkpt lat="44.8605" lon="8.49356">
        <ele>100.11</ele>
        <time>2016-10-06T15:31:31Z</time>
      </trkpt>
      <trkpt lat="44.86049" lon="8.49362">
        <ele>99.63</ele>
        <time>2016-10-06T15:31:32Z</time>
      </trkpt>
      <trkpt lat="44.86046" lon="8.49368">
        <ele>100.11</ele>
        <time>2016-10-06T15:31:33Z</time>
      </trkpt>
      <trkpt lat="44.86006" lon="8.49474">
        <ele>99.63</ele>
        <time>2016-10-06T15:31:49Z</time>
      </trkpt>
      <trkpt lat="44.86004" lon="8.49481">
        <ele>100.11</ele>
        <time>2016-10-06T15:31:50Z</time>
      </trkpt>
      <trkpt lat="44.86002" lon="8.49489">
        <ele>100.11</ele>
        <time>2016-10-06T15:31:51Z</time>
      </trkpt>
      <trkpt lat="44.86001" lon="8.49497">
        <ele>99.63</ele>
        <time>2016-10-06T15:31:52Z</time>
      </trkpt>
      <trkpt lat="44.86002" lon="8.49506">
        <ele>99.63</ele>
        <time>2016-10-06T15:31:53Z</time>
      </trkpt>
      <trkpt lat="44.86004" lon="8.49514">
        <ele>99.63</ele>
        <time>2016-10-06T15:31:54Z</time>
      </trkpt>
      <trkpt lat="44.86007" lon="8.49521">
        <ele>99.15</ele>
        <time>2016-10-06T15:31:55Z</time>
      </trkpt>
      <trkpt lat="44.8601" lon="8.49528">
        <ele>99.15</ele>
        <time>2016-10-06T15:31:56Z</time>
      </trkpt>
      <trkpt lat="44.86014" lon="8.49534">
        <ele>98.67</ele>
        <time>2016-10-06T15:31:57Z</time>
      </trkpt>
      <trkpt lat="44.86068" lon="8.49653">
        <ele>98.67</ele>
        <time>2016-10-06T15:32:14Z</time>
      </trkpt>
      <trkpt lat="44.86111" lon="8.49792">
        <ele>98.67</ele>
        <time>2016-10-06T15:32:33Z</time>
      </trkpt>
      <trkpt lat="44.86161" lon="8.4987">
        <ele>98.19</ele>
        <time>2016-10-06T15:32:46Z</time>
      </trkpt>
      <trkpt lat="44.86182" lon="8.49885">
        <ele>96.27</ele>
        <time>2016-10-06T15:32:50Z</time>
      </trkpt>
      <trkpt lat="44.86187" lon="8.49889">
        <ele>96.27</ele>
        <time>2016-10-06T15:32:51Z</time>
      </trkpt>
      <trkpt lat="44.86198" lon="8.49896">
        <ele>97.23</ele>
        <time>2016-10-06T15:32:53Z</time>
      </trkpt>
      <trkpt lat="44.86292" lon="8.49957">
        <ele>95.31</ele>
        <time>2016-10-06T15:33:11Z</time>
      </trkpt>
      <trkpt lat="44.86406" lon="8.5003">
        <ele>97.23</ele>
        <time>2016-10-06T15:33:33Z</time>
      </trkpt>
      <trkpt lat="44.86517" lon="8.50105">
        <ele>95.31</ele>
        <time>2016-10-06T15:33:55Z</time>
      </trkpt>
      <trkpt lat="44.86638" lon="8.5018">
        <ele>95.31</ele>
        <time>2016-10-06T15:34:19Z</time>
      </trkpt>
      <trkpt lat="44.8672" lon="8.50212">
        <ele>93.87</ele>
        <time>2016-10-06T15:34:34Z</time>
      </trkpt>
      <trkpt lat="44.86862" lon="8.50268">
        <ele>94.83</ele>
        <time>2016-10-06T15:34:59Z</time>
      </trkpt>
      <trkpt lat="44.86963" lon="8.50321">
        <ele>95.31</ele>
        <time>2016-10-06T15:35:18Z</time>
      </trkpt>
      <trkpt lat="44.8707" lon="8.50381">
        <ele>94.83</ele>
        <time>2016-10-06T15:35:38Z</time>
      </trkpt>
      <trkpt lat="44.87137" lon="8.50425">
        <ele>93.87</ele>
        <time>2016-10-06T15:35:51Z</time>
      </trkpt>
      <trkpt lat="44.87199" lon="8.50514">
        <ele>94.83</ele>
        <time>2016-10-06T15:36:07Z</time>
      </trkpt>
      <trkpt lat="44.87236" lon="8.5062">
        <ele>95.31</ele>
        <time>2016-10-06T15:36:24Z</time>
      </trkpt>
      <trkpt lat="44.87271" lon="8.50755">
        <ele>95.31</ele>
        <time>2016-10-06T15:36:45Z</time>
      </trkpt>
      <trkpt lat="44.87299" lon="8.50861">
        <ele>95.79</ele>
        <time>2016-10-06T15:37:02Z</time>
      </trkpt>
      <trkpt lat="44.8733" lon="8.50965">
        <ele>98.67</ele>
        <time>2016-10-06T15:37:22Z</time>
      </trkpt>
      <trkpt lat="44.8737" lon="8.51056">
        <ele>102.04</ele>
        <time>2016-10-06T15:37:44Z</time>
      </trkpt>
      <trkpt lat="44.87422" lon="8.51152">
        <ele>102.04</ele>
        <time>2016-10-06T15:38:06Z</time>
      </trkpt>
      <trkpt lat="44.87495" lon="8.51284">
        <ele>101.56</ele>
        <time>2016-10-06T15:38:30Z</time>
      </trkpt>
      <trkpt lat="44.87532" lon="8.5135">
        <ele>100.6</ele>
        <time>2016-10-06T15:38:41Z</time>
      </trkpt>
      <trkpt lat="44.87604" lon="8.5148">
        <ele>100.6</ele>
        <time>2016-10-06T15:39:02Z</time>
      </trkpt>
      <trkpt lat="44.87695" lon="8.51638">
        <ele>99.63</ele>
        <time>2016-10-06T15:39:27Z</time>
      </trkpt>
      <trkpt lat="44.87784" lon="8.51715">
        <ele>99.15</ele>
        <time>2016-10-06T15:39:45Z</time>
      </trkpt>
      <trkpt lat="44.87899" lon="8.51785">
        <ele>98.19</ele>
        <time>2016-10-06T15:40:06Z</time>
      </trkpt>
      <trkpt lat="44.8792" lon="8.51801">
        <ele>97.23</ele>
        <time>2016-10-06T15:40:10Z</time>
      </trkpt>
      <trkpt lat="44.88028" lon="8.51909">
        <ele>97.23</ele>
        <time>2016-10-06T15:40:32Z</time>
      </trkpt>
      <trkpt lat="44.8812" lon="8.52021">
        <ele>96.75</ele>
        <time>2016-10-06T15:40:53Z</time>
      </trkpt>
      <trkpt lat="44.88221" lon="8.52151">
        <ele>97.23</ele>
        <time>2016-10-06T15:41:17Z</time>
      </trkpt>
      <trkpt lat="44.88225" lon="8.52161">
        <ele>97.71</ele>
        <time>2016-10-06T15:41:25Z</time>
      </trkpt>
      <trkpt lat="44.88225" lon="8.52161">
        <ele>97.71</ele>
        <time>2016-10-06T15:41:59Z</time>
      </trkpt>
      <trkpt lat="44.88226" lon="8.52163">
        <ele>97.71</ele>
        <time>2016-10-06T15:42:37Z</time>
      </trkpt>
      <trkpt lat="44.88228" lon="8.52163">
        <ele>97.23</ele>
        <time>2016-10-06T15:42:59Z</time>
      </trkpt>
      <trkpt lat="44.88249" lon="8.52197">
        <ele>97.71</ele>
        <time>2016-10-06T15:43:11Z</time>
      </trkpt>
      <trkpt lat="44.88294" lon="8.5229">
        <ele>97.71</ele>
        <time>2016-10-06T15:43:29Z</time>
      </trkpt>
      <trkpt lat="44.88345" lon="8.52416">
        <ele>97.23</ele>
        <time>2016-10-06T15:43:50Z</time>
      </trkpt>
      <trkpt lat="44.88378" lon="8.52503">
        <ele>96.75</ele>
        <time>2016-10-06T15:44:04Z</time>
      </trkpt>
      <trkpt lat="44.88407" lon="8.52647">
        <ele>95.79</ele>
        <time>2016-10-06T15:44:23Z</time>
      </trkpt>
      <trkpt lat="44.88452" lon="8.5277">
        <ele>95.31</ele>
        <time>2016-10-06T15:44:40Z</time>
      </trkpt>
      <trkpt lat="44.88525" lon="8.52869">
        <ele>94.35</ele>
        <time>2016-10-06T15:44:57Z</time>
      </trkpt>
      <trkpt lat="44.88548" lon="8.52905">
        <ele>94.83</ele>
        <time>2016-10-06T15:45:03Z</time>
      </trkpt>
      <trkpt lat="44.88551" lon="8.52912">
        <ele>94.35</ele>
        <time>2016-10-06T15:45:04Z</time>
      </trkpt>
      <trkpt lat="44.88554" lon="8.52919">
        <ele>94.83</ele>
        <time>2016-10-06T15:45:05Z</time>
      </trkpt>
      <trkpt lat="44.88592" lon="8.53052">
        <ele>94.35</ele>
        <time>2016-10-06T15:45:22Z</time>
      </trkpt>
      <trkpt lat="44.88616" lon="8.53115">
        <ele>93.87</ele>
        <time>2016-10-06T15:45:31Z</time>
      </trkpt>
      <trkpt lat="44.88619" lon="8.53121">
        <ele>93.87</ele>
        <time>2016-10-06T15:45:32Z</time>
      </trkpt>
      <trkpt lat="44.88622" lon="8.53128">
        <ele>94.35</ele>
        <time>2016-10-06T15:45:33Z</time>
      </trkpt>
      <trkpt lat="44.88646" lon="8.53186">
        <ele>91.94</ele>
        <time>2016-10-06T15:45:42Z</time>
      </trkpt>
      <trkpt lat="44.88649" lon="8.53193">
        <ele>92.9</ele>
        <time>2016-10-06T15:45:43Z</time>
      </trkpt>
      <trkpt lat="44.88655" lon="8.53213">
        <ele>92.9</ele>
        <time>2016-10-06T15:45:46Z</time>
      </trkpt>
      <trkpt lat="44.88659" lon="8.53243">
        <ele>92.42</ele>
        <time>2016-10-06T15:45:50Z</time>
      </trkpt>
      <trkpt lat="44.88662" lon="8.53355">
        <ele>93.39</ele>
        <time>2016-10-06T15:46:05Z</time>
      </trkpt>
      <trkpt lat="44.88663" lon="8.53384">
        <ele>93.87</ele>
        <time>2016-10-06T15:46:09Z</time>
      </trkpt>
      <trkpt lat="44.88679" lon="8.53506">
        <ele>94.83</ele>
        <time>2016-10-06T15:46:27Z</time>
      </trkpt>
      <trkpt lat="44.88686" lon="8.5363">
        <ele>94.35</ele>
        <time>2016-10-06T15:46:43Z</time>
      </trkpt>
      <trkpt lat="44.88695" lon="8.53722">
        <ele>93.87</ele>
        <time>2016-10-06T15:46:54Z</time>
      </trkpt>
      <trkpt lat="44.88702" lon="8.53745">
        <ele>93.87</ele>
        <time>2016-10-06T15:46:57Z</time>
      </trkpt>
      <trkpt lat="44.88768" lon="8.53868">
        <ele>93.87</ele>
        <time>2016-10-06T15:47:16Z</time>
      </trkpt>
      <trkpt lat="44.88841" lon="8.54003">
        <ele>94.83</ele>
        <time>2016-10-06T15:47:39Z</time>
      </trkpt>
      <trkpt lat="44.88928" lon="8.54163">
        <ele>94.35</ele>
        <time>2016-10-06T15:48:06Z</time>
      </trkpt>
      <trkpt lat="44.89005" lon="8.54307">
        <ele>94.35</ele>
        <time>2016-10-06T15:48:29Z</time>
      </trkpt>
      <trkpt lat="44.89083" lon="8.54451">
        <ele>93.39</ele>
        <time>2016-10-06T15:48:51Z</time>
      </trkpt>
      <trkpt lat="44.89166" lon="8.54603">
        <ele>93.39</ele>
        <time>2016-10-06T15:49:15Z</time>
      </trkpt>
      <trkpt lat="44.89252" lon="8.54764">
        <ele>91.94</ele>
        <time>2016-10-06T15:49:39Z</time>
      </trkpt>
      <trkpt lat="44.89344" lon="8.54933">
        <ele>90.98</ele>
        <time>2016-10-06T15:50:04Z</time>
      </trkpt>
      <trkpt lat="44.8942" lon="8.55074">
        <ele>89.06</ele>
        <time>2016-10-06T15:50:25Z</time>
      </trkpt>
      <trkpt lat="44.8946" lon="8.55196">
        <ele>90.02</ele>
        <time>2016-10-06T15:50:41Z</time>
      </trkpt>
      <trkpt lat="44.89496" lon="8.5536">
        <ele>90.5</ele>
        <time>2016-10-06T15:51:03Z</time>
      </trkpt>
      <trkpt lat="44.89531" lon="8.55519">
        <ele>89.06</ele>
        <time>2016-10-06T15:51:24Z</time>
      </trkpt>
      <trkpt lat="44.89545" lon="8.55624">
        <ele>88.1</ele>
        <time>2016-10-06T15:51:40Z</time>
      </trkpt>
      <trkpt lat="44.8955" lon="8.55722">
        <ele>89.06</ele>
        <time>2016-10-06T15:51:56Z</time>
      </trkpt>
      <trkpt lat="44.89584" lon="8.55771">
        <ele>88.58</ele>
        <time>2016-10-06T15:52:07Z</time>
      </trkpt>
      <trkpt lat="44.89638" lon="8.55857">
        <ele>88.1</ele>
        <time>2016-10-06T15:52:23Z</time>
      </trkpt>
      <trkpt lat="44.89673" lon="8.55958">
        <ele>87.62</ele>
        <time>2016-10-06T15:52:38Z</time>
      </trkpt>
      <trkpt lat="44.89715" lon="8.56091">
        <ele>87.62</ele>
        <time>2016-10-06T15:52:57Z</time>
      </trkpt>
      <trkpt lat="44.89739" lon="8.56152">
        <ele>87.14</ele>
        <time>2016-10-06T15:53:07Z</time>
      </trkpt>
      <trkpt lat="44.89784" lon="8.56277">
        <ele>87.14</ele>
        <time>2016-10-06T15:53:26Z</time>
      </trkpt>
      <trkpt lat="44.89811" lon="8.56408">
        <ele>86.66</ele>
        <time>2016-10-06T15:53:44Z</time>
      </trkpt>
      <trkpt lat="44.89812" lon="8.56525">
        <ele>87.14</ele>
        <time>2016-10-06T15:54:00Z</time>
      </trkpt>
      <trkpt lat="44.8983" lon="8.56665">
        <ele>88.1</ele>
        <time>2016-10-06T15:54:20Z</time>
      </trkpt>
      <trkpt lat="44.89843" lon="8.56743">
        <ele>88.1</ele>
        <time>2016-10-06T15:54:31Z</time>
      </trkpt>
      <trkpt lat="44.89851" lon="8.56771">
        <ele>88.58</ele>
        <time>2016-10-06T15:54:35Z</time>
      </trkpt>
      <trkpt lat="44.89853" lon="8.56778">
        <ele>88.58</ele>
        <time>2016-10-06T15:54:36Z</time>
      </trkpt>
      <trkpt lat="44.899" lon="8.56862">
        <ele>87.14</ele>
        <time>2016-10-06T15:54:52Z</time>
      </trkpt>
      <trkpt lat="44.89906" lon="8.56872">
        <ele>87.62</ele>
        <time>2016-10-06T15:54:54Z</time>
      </trkpt>
      <trkpt lat="44.89909" lon="8.56878">
        <ele>87.62</ele>
        <time>2016-10-06T15:54:55Z</time>
      </trkpt>
      <trkpt lat="44.89913" lon="8.56884">
        <ele>87.62</ele>
        <time>2016-10-06T15:54:56Z</time>
      </trkpt>
      <trkpt lat="44.89976" lon="8.56986">
        <ele>88.1</ele>
        <time>2016-10-06T15:55:15Z</time>
      </trkpt>
      <trkpt lat="44.9006" lon="8.57073">
        <ele>89.54</ele>
        <time>2016-10-06T15:55:35Z</time>
      </trkpt>
      <trkpt lat="44.90152" lon="8.57153">
        <ele>88.58</ele>
        <time>2016-10-06T15:55:55Z</time>
      </trkpt>
      <trkpt lat="44.90242" lon="8.57236">
        <ele>88.58</ele>
        <time>2016-10-06T15:56:15Z</time>
      </trkpt>
      <trkpt lat="44.90318" lon="8.57312">
        <ele>88.58</ele>
        <time>2016-10-06T15:56:33Z</time>
      </trkpt>
      <trkpt lat="44.90379" lon="8.57374">
        <ele>87.62</ele>
        <time>2016-10-06T15:56:47Z</time>
      </trkpt>
      <trkpt lat="44.90423" lon="8.57479">
        <ele>88.1</ele>
        <time>2016-10-06T15:57:03Z</time>
      </trkpt>
      <trkpt lat="44.90439" lon="8.57602">
        <ele>88.1</ele>
        <time>2016-10-06T15:57:19Z</time>
      </trkpt>
      <trkpt lat="44.90469" lon="8.57743">
        <ele>87.14</ele>
        <time>2016-10-06T15:57:37Z</time>
      </trkpt>
      <trkpt lat="44.90489" lon="8.57917">
        <ele>87.14</ele>
        <time>2016-10-06T15:57:58Z</time>
      </trkpt>
      <trkpt lat="44.90516" lon="8.58054">
        <ele>87.14</ele>
        <time>2016-10-06T15:58:16Z</time>
      </trkpt>
      <trkpt lat="44.90537" lon="8.58133">
        <ele>87.62</ele>
        <time>2016-10-06T15:58:32Z</time>
      </trkpt>
      <trkpt lat="44.90542" lon="8.58153">
        <ele>87.14</ele>
        <time>2016-10-06T15:58:45Z</time>
      </trkpt>
      <trkpt lat="44.90542" lon="8.58155">
        <ele>87.14</ele>
        <time>2016-10-06T15:59:03Z</time>
      </trkpt>
      <trkpt lat="44.90541" lon="8.58155">
        <ele>87.62</ele>
        <time>2016-10-06T15:59:45Z</time>
      </trkpt>
      <trkpt lat="44.90541" lon="8.58154">
        <ele>86.66</ele>
        <time>2016-10-06T16:00:27Z</time>
      </trkpt>
      <trkpt lat="44.90545" lon="8.58159">
        <ele>87.14</ele>
        <time>2016-10-06T16:00:52Z</time>
      </trkpt>
      <trkpt lat="44.90545" lon="8.5816">
        <ele>87.14</ele>
        <time>2016-10-06T16:00:53Z</time>
      </trkpt>
      <trkpt lat="44.90546" lon="8.58163">
        <ele>87.14</ele>
        <time>2016-10-06T16:00:54Z</time>
      </trkpt>
      <trkpt lat="44.90554" lon="8.58231">
        <ele>86.66</ele>
        <time>2016-10-06T16:01:08Z</time>
      </trkpt>
      <trkpt lat="44.9056" lon="8.58307">
        <ele>86.66</ele>
        <time>2016-10-06T16:01:23Z</time>
      </trkpt>
      <trkpt lat="44.90578" lon="8.58448">
        <ele>85.69</ele>
        <time>2016-10-06T16:01:42Z</time>
      </trkpt>
      <trkpt lat="44.90589" lon="8.58605">
        <ele>85.21</ele>
        <time>2016-10-06T16:02:01Z</time>
      </trkpt>
      <trkpt lat="44.90588" lon="8.58772">
        <ele>84.25</ele>
        <time>2016-10-06T16:02:21Z</time>
      </trkpt>
      <trkpt lat="44.90567" lon="8.58879">
        <ele>85.69</ele>
        <time>2016-10-06T16:02:36Z</time>
      </trkpt>
      <trkpt lat="44.90565" lon="8.58886">
        <ele>85.21</ele>
        <time>2016-10-06T16:02:37Z</time>
      </trkpt>
      <trkpt lat="44.90563" lon="8.58893">
        <ele>85.21</ele>
        <time>2016-10-06T16:02:38Z</time>
      </trkpt>
      <trkpt lat="44.9056" lon="8.589">
        <ele>85.21</ele>
        <time>2016-10-06T16:02:39Z</time>
      </trkpt>
      <trkpt lat="44.90558" lon="8.58908">
        <ele>84.73</ele>
        <time>2016-10-06T16:02:40Z</time>
      </trkpt>
      <trkpt lat="44.9052" lon="8.59036">
        <ele>84.73</ele>
        <time>2016-10-06T16:02:58Z</time>
      </trkpt>
      <trkpt lat="44.90517" lon="8.59064">
        <ele>86.18</ele>
        <time>2016-10-06T16:03:02Z</time>
      </trkpt>
      <trkpt lat="44.90519" lon="8.5907">
        <ele>85.69</ele>
        <time>2016-10-06T16:03:03Z</time>
      </trkpt>
      <trkpt lat="44.90522" lon="8.59076">
        <ele>85.69</ele>
        <time>2016-10-06T16:03:04Z</time>
      </trkpt>
      <trkpt lat="44.90526" lon="8.5908">
        <ele>86.18</ele>
        <time>2016-10-06T16:03:05Z</time>
      </trkpt>
      <trkpt lat="44.9053" lon="8.59083">
        <ele>85.69</ele>
        <time>2016-10-06T16:03:06Z</time>
      </trkpt>
      <trkpt lat="44.90535" lon="8.59085">
        <ele>85.69</ele>
        <time>2016-10-06T16:03:07Z</time>
      </trkpt>
      <trkpt lat="44.9059" lon="8.59125">
        <ele>85.69</ele>
        <time>2016-10-06T16:03:19Z</time>
      </trkpt>
      <trkpt lat="44.90671" lon="8.59192">
        <ele>85.69</ele>
        <time>2016-10-06T16:03:37Z</time>
      </trkpt>
      <trkpt lat="44.90751" lon="8.59269">
        <ele>86.18</ele>
        <time>2016-10-06T16:03:56Z</time>
      </trkpt>
      <trkpt lat="44.90813" lon="8.59359">
        <ele>86.66</ele>
        <time>2016-10-06T16:04:13Z</time>
      </trkpt>
      <trkpt lat="44.90864" lon="8.59484">
        <ele>87.14</ele>
        <time>2016-10-06T16:04:32Z</time>
      </trkpt>
      <trkpt lat="44.90876" lon="8.59584">
        <ele>86.66</ele>
        <time>2016-10-06T16:04:45Z</time>
      </trkpt>
      <trkpt lat="44.90878" lon="8.59639">
        <ele>86.66</ele>
        <time>2016-10-06T16:04:52Z</time>
      </trkpt>
      <trkpt lat="44.90881" lon="8.59655">
        <ele>86.66</ele>
        <time>2016-10-06T16:04:54Z</time>
      </trkpt>
      <trkpt lat="44.90883" lon="8.59662">
        <ele>86.66</ele>
        <time>2016-10-06T16:04:55Z</time>
      </trkpt>
      <trkpt lat="44.90886" lon="8.59669">
        <ele>86.18</ele>
        <time>2016-10-06T16:04:56Z</time>
      </trkpt>
      <trkpt lat="44.90889" lon="8.59675">
        <ele>87.14</ele>
        <time>2016-10-06T16:04:57Z</time>
      </trkpt>
      <trkpt lat="44.90893" lon="8.59681">
        <ele>86.18</ele>
        <time>2016-10-06T16:04:58Z</time>
      </trkpt>
      <trkpt lat="44.90897" lon="8.59687">
        <ele>86.18</ele>
        <time>2016-10-06T16:04:59Z</time>
      </trkpt>
      <trkpt lat="44.90902" lon="8.59691">
        <ele>85.69</ele>
        <time>2016-10-06T16:05:00Z</time>
      </trkpt>
      <trkpt lat="44.90947" lon="8.59733">
        <ele>85.21</ele>
        <time>2016-10-06T16:05:09Z</time>
      </trkpt>
      <trkpt lat="44.90953" lon="8.59736">
        <ele>85.21</ele>
        <time>2016-10-06T16:05:10Z</time>
      </trkpt>
      <trkpt lat="44.90958" lon="8.59738">
        <ele>85.21</ele>
        <time>2016-10-06T16:05:11Z</time>
      </trkpt>
      <trkpt lat="44.91033" lon="8.59758">
        <ele>84.73</ele>
        <time>2016-10-06T16:05:24Z</time>
      </trkpt>
      <trkpt lat="44.91111" lon="8.59779">
        <ele>85.21</ele>
        <time>2016-10-06T16:05:38Z</time>
      </trkpt>
      <trkpt lat="44.91133" lon="8.59786">
        <ele>84.25</ele>
        <time>2016-10-06T16:05:42Z</time>
      </trkpt>
      <trkpt lat="44.91138" lon="8.59789">
        <ele>84.73</ele>
        <time>2016-10-06T16:05:43Z</time>
      </trkpt>
      <trkpt lat="44.91143" lon="8.59793">
        <ele>85.21</ele>
        <time>2016-10-06T16:05:44Z</time>
      </trkpt>
      <trkpt lat="44.91148" lon="8.59799">
        <ele>85.21</ele>
        <time>2016-10-06T16:05:45Z</time>
      </trkpt>
      <trkpt lat="44.91152" lon="8.59804">
        <ele>84.73</ele>
        <time>2016-10-06T16:05:46Z</time>
      </trkpt>
      <trkpt lat="44.91156" lon="8.59811">
        <ele>85.21</ele>
        <time>2016-10-06T16:05:47Z</time>
      </trkpt>
      <trkpt lat="44.9122" lon="8.59923">
        <ele>85.21</ele>
        <time>2016-10-06T16:06:05Z</time>
      </trkpt>
      <trkpt lat="44.91268" lon="8.60028">
        <ele>85.69</ele>
        <time>2016-10-06T16:06:23Z</time>
      </trkpt>
      <trkpt lat="44.91294" lon="8.60118">
        <ele>82.33</ele>
        <time>2016-10-06T16:06:34Z</time>
      </trkpt>
      <trkpt lat="44.91305" lon="8.60143">
        <ele>81.37</ele>
        <time>2016-10-06T16:06:37Z</time>
      </trkpt>
      <trkpt lat="44.91326" lon="8.60179">
        <ele>81.37</ele>
        <time>2016-10-06T16:06:42Z</time>
      </trkpt>
      <trkpt lat="44.91329" lon="8.60186">
        <ele>80.89</ele>
        <time>2016-10-06T16:06:43Z</time>
      </trkpt>
      <trkpt lat="44.91331" lon="8.60194">
        <ele>81.37</ele>
        <time>2016-10-06T16:06:44Z</time>
      </trkpt>
      <trkpt lat="44.91332" lon="8.60203">
        <ele>80.89</ele>
        <time>2016-10-06T16:06:45Z</time>
      </trkpt>
      <trkpt lat="44.91335" lon="8.60211">
        <ele>81.37</ele>
        <time>2016-10-06T16:06:46Z</time>
      </trkpt>
      <trkpt lat="44.91339" lon="8.60218">
        <ele>81.37</ele>
        <time>2016-10-06T16:06:47Z</time>
      </trkpt>
      <trkpt lat="44.91342" lon="8.60224">
        <ele>81.85</ele>
        <time>2016-10-06T16:06:48Z</time>
      </trkpt>
      <trkpt lat="44.91367" lon="8.60272">
        <ele>84.73</ele>
        <time>2016-10-06T16:06:59Z</time>
      </trkpt>
      <trkpt lat="44.91353" lon="8.60303">
        <ele>85.21</ele>
        <time>2016-10-06T16:07:12Z</time>
      </trkpt>
      <trkpt lat="44.91334" lon="8.60321">
        <ele>85.69</ele>
        <time>2016-10-06T16:07:23Z</time>
      </trkpt>
      <trkpt lat="44.913" lon="8.60355">
        <ele>85.69</ele>
        <time>2016-10-06T16:07:36Z</time>
      </trkpt>
      <trkpt lat="44.91249" lon="8.60411">
        <ele>85.69</ele>
        <time>2016-10-06T16:07:53Z</time>
      </trkpt>
      <trkpt lat="44.91224" lon="8.60441">
        <ele>85.69</ele>
        <time>2016-10-06T16:08:03Z</time>
      </trkpt>
      <trkpt lat="44.91197" lon="8.60468">
        <ele>85.69</ele>
        <time>2016-10-06T16:08:14Z</time>
      </trkpt>
      <trkpt lat="44.91151" lon="8.60522">
        <ele>85.69</ele>
        <time>2016-10-06T16:08:30Z</time>
      </trkpt>
      <trkpt lat="44.91129" lon="8.6055">
        <ele>86.18</ele>
        <time>2016-10-06T16:08:41Z</time>
      </trkpt>
      <trkpt lat="44.91124" lon="8.60554">
        <ele>85.69</ele>
        <time>2016-10-06T16:08:46Z</time>
      </trkpt>
      <trkpt lat="44.91123" lon="8.60554">
        <ele>85.69</ele>
        <time>2016-10-06T16:08:47Z</time>
      </trkpt>
      <trkpt lat="44.91122" lon="8.60554">
        <ele>86.18</ele>
        <time>2016-10-06T16:08:48Z</time>
      </trkpt>
      <trkpt lat="44.9112" lon="8.60554">
        <ele>86.18</ele>
        <time>2016-10-06T16:08:49Z</time>
      </trkpt>
      <trkpt lat="44.91119" lon="8.60555">
        <ele>85.69</ele>
        <time>2016-10-06T16:08:50Z</time>
      </trkpt>
      <trkpt lat="44.91117" lon="8.60556">
        <ele>86.18</ele>
        <time>2016-10-06T16:08:51Z</time>
      </trkpt>
      <trkpt lat="44.91115" lon="8.60557">
        <ele>86.18</ele>
        <time>2016-10-06T16:08:52Z</time>
      </trkpt>
      <trkpt lat="44.91075" lon="8.60599">
        <ele>87.14</ele>
        <time>2016-10-06T16:09:06Z</time>
      </trkpt>
      <trkpt lat="44.91034" lon="8.60644">
        <ele>87.14</ele>
        <time>2016-10-06T16:09:21Z</time>
      </trkpt>
      <trkpt lat="44.91015" lon="8.60661">
        <ele>87.14</ele>
        <time>2016-10-06T16:09:33Z</time>
      </trkpt>
      <trkpt lat="44.9101" lon="8.60666">
        <ele>86.66</ele>
        <time>2016-10-06T16:09:37Z</time>
      </trkpt>
      <trkpt lat="44.91008" lon="8.60666">
        <ele>86.66</ele>
        <time>2016-10-06T16:09:38Z</time>
      </trkpt>
      <trkpt lat="44.90999" lon="8.6066">
        <ele>86.66</ele>
        <time>2016-10-06T16:09:44Z</time>
      </trkpt>
      <trkpt lat="44.90998" lon="8.6066">
        <ele>87.62</ele>
        <time>2016-10-06T16:09:45Z</time>
      </trkpt>
      <trkpt lat="44.90997" lon="8.60669">
        <ele>86.18</ele>
        <time>2016-10-06T16:09:56Z</time>
      </trkpt>
      <trkpt lat="44.91003" lon="8.60676">
        <ele>86.18</ele>
        <time>2016-10-06T16:10:02Z</time>
      </trkpt>
      <trkpt lat="44.91005" lon="8.60677">
        <ele>85.69</ele>
        <time>2016-10-06T16:10:03Z</time>
      </trkpt>
      <trkpt lat="44.91007" lon="8.60677">
        <ele>85.69</ele>
        <time>2016-10-06T16:10:04Z</time>
      </trkpt>
      <trkpt lat="44.91009" lon="8.60678">
        <ele>86.18</ele>
        <time>2016-10-06T16:10:05Z</time>
      </trkpt>
      <trkpt lat="44.91014" lon="8.60679">
        <ele>86.18</ele>
        <time>2016-10-06T16:10:09Z</time>
      </trkpt>
      <trkpt lat="44.91017" lon="8.60678">
        <ele>86.66</ele>
        <time>2016-10-06T16:10:10Z</time>
      </trkpt>
      <trkpt lat="44.91019" lon="8.60677">
        <ele>86.18</ele>
        <time>2016-10-06T16:10:11Z</time>
      </trkpt>
      <trkpt lat="44.91021" lon="8.60675">
        <ele>86.66</ele>
        <time>2016-10-06T16:10:12Z</time>
      </trkpt>
      <trkpt lat="44.91023" lon="8.60673">
        <ele>86.66</ele>
        <time>2016-10-06T16:10:13Z</time>
      </trkpt>
      <trkpt lat="44.91031" lon="8.60668">
        <ele>86.18</ele>
        <time>2016-10-06T16:10:20Z</time>
      </trkpt>
      <trkpt lat="44.91031" lon="8.6067">
        <ele>86.18</ele>
        <time>2016-10-06T16:10:21Z</time>
      </trkpt>
      <trkpt lat="44.91031" lon="8.60671">
        <ele>85.69</ele>
        <time>2016-10-06T16:10:22Z</time>
      </trkpt>
      <trkpt lat="44.9103" lon="8.60673">
        <ele>86.18</ele>
        <time>2016-10-06T16:10:24Z</time>
      </trkpt>
      <trkpt lat="44.91029" lon="8.60675">
        <ele>86.18</ele>
        <time>2016-10-06T16:10:25Z</time>
      </trkpt>
      <trkpt lat="44.91028" lon="8.60677">
        <ele>85.69</ele>
        <time>2016-10-06T16:10:26Z</time>
      </trkpt>
      <trkpt lat="44.91018" lon="8.60711">
        <ele>86.18</ele>
        <time>2016-10-06T16:10:35Z</time>
      </trkpt>
      <trkpt lat="44.9102" lon="8.60753">
        <ele>86.18</ele>
        <time>2016-10-06T16:10:45Z</time>
      </trkpt>
      <trkpt lat="44.91013" lon="8.60816">
        <ele>86.18</ele>
        <time>2016-10-06T16:10:57Z</time>
      </trkpt>
      <trkpt lat="44.90997" lon="8.6091">
        <ele>86.66</ele>
        <time>2016-10-06T16:11:13Z</time>
      </trkpt>
      <trkpt lat="44.9099" lon="8.60941">
        <ele>86.18</ele>
        <time>2016-10-06T16:11:18Z</time>
      </trkpt>
      <trkpt lat="44.90988" lon="8.60947">
        <ele>86.66</ele>
        <time>2016-10-06T16:11:19Z</time>
      </trkpt>
      <trkpt lat="44.90987" lon="8.60952">
        <ele>86.66</ele>
        <time>2016-10-06T16:11:20Z</time>
      </trkpt>
      <trkpt lat="44.90987" lon="8.60959">
        <ele>86.18</ele>
        <time>2016-10-06T16:11:21Z</time>
      </trkpt>
      <trkpt lat="44.90987" lon="8.60965">
        <ele>86.18</ele>
        <time>2016-10-06T16:11:22Z</time>
      </trkpt>
      <trkpt lat="44.90986" lon="8.60971">
        <ele>86.18</ele>
        <time>2016-10-06T16:11:23Z</time>
      </trkpt>
      <trkpt lat="44.90979" lon="8.61038">
        <ele>86.66</ele>
        <time>2016-10-06T16:11:35Z</time>
      </trkpt>
      <trkpt lat="44.90977" lon="8.61044">
        <ele>86.66</ele>
        <time>2016-10-06T16:11:36Z</time>
      </trkpt>
      <trkpt lat="44.90976" lon="8.61049">
        <ele>85.69</ele>
        <time>2016-10-06T16:11:37Z</time>
      </trkpt>
      <trkpt lat="44.9097" lon="8.61079">
        <ele>87.62</ele>
        <time>2016-10-06T16:11:43Z</time>
      </trkpt>
      <trkpt lat="44.90972" lon="8.61082">
        <ele>86.66</ele>
        <time>2016-10-06T16:11:44Z</time>
      </trkpt>
      <trkpt lat="44.90973" lon="8.61084">
        <ele>86.18</ele>
        <time>2016-10-06T16:11:45Z</time>
      </trkpt>
      <trkpt lat="44.90975" lon="8.61085">
        <ele>86.66</ele>
        <time>2016-10-06T16:11:46Z</time>
      </trkpt>
      <trkpt lat="44.90977" lon="8.61087">
        <ele>86.18</ele>
        <time>2016-10-06T16:11:47Z</time>
      </trkpt>
      <trkpt lat="44.90979" lon="8.61089">
        <ele>86.66</ele>
        <time>2016-10-06T16:11:48Z</time>
      </trkpt>
      <trkpt lat="44.90981" lon="8.61091">
        <ele>87.14</ele>
        <time>2016-10-06T16:11:49Z</time>
      </trkpt>
      <trkpt lat="44.90984" lon="8.61093">
        <ele>86.66</ele>
        <time>2016-10-06T16:11:50Z</time>
      </trkpt>
      <trkpt lat="44.90986" lon="8.61094">
        <ele>86.18</ele>
        <time>2016-10-06T16:11:51Z</time>
      </trkpt>
      <trkpt lat="44.90988" lon="8.61095">
        <ele>86.66</ele>
        <time>2016-10-06T16:11:52Z</time>
      </trkpt>
      <trkpt lat="44.91018" lon="8.61119">
        <ele>86.18</ele>
        <time>2016-10-06T16:12:04Z</time>
      </trkpt>
      <trkpt lat="44.91044" lon="8.61129">
        <ele>85.69</ele>
        <time>2016-10-06T16:12:13Z</time>
      </trkpt>
      <trkpt lat="44.91046" lon="8.61129">
        <ele>85.69</ele>
        <time>2016-10-06T16:12:14Z</time>
      </trkpt>
      <trkpt lat="44.91048" lon="8.6113">
        <ele>85.69</ele>
        <time>2016-10-06T16:12:15Z</time>
      </trkpt>
      <trkpt lat="44.91088" lon="8.61159">
        <ele>86.18</ele>
        <time>2016-10-06T16:12:30Z</time>
      </trkpt>
      <trkpt lat="44.91139" lon="8.61182">
        <ele>86.18</ele>
        <time>2016-10-06T16:12:46Z</time>
      </trkpt>
      <trkpt lat="44.9116" lon="8.6119">
        <ele>86.18</ele>
        <time>2016-10-06T16:12:54Z</time>
      </trkpt>
      <trkpt lat="44.91162" lon="8.61192">
        <ele>86.18</ele>
        <time>2016-10-06T16:12:55Z</time>
      </trkpt>
      <trkpt lat="44.91226" lon="8.61228">
        <ele>85.69</ele>
        <time>2016-10-06T16:13:12Z</time>
      </trkpt>
      <trkpt lat="44.91233" lon="8.61227">
        <ele>85.69</ele>
        <time>2016-10-06T16:13:14Z</time>
      </trkpt>
      <trkpt lat="44.91282" lon="8.61249">
        <ele>85.21</ele>
        <time>2016-10-06T16:13:29Z</time>
      </trkpt>
      <trkpt lat="44.91304" lon="8.6126">
        <ele>85.21</ele>
        <time>2016-10-06T16:13:40Z</time>
      </trkpt>
      <trkpt lat="44.9131" lon="8.61264">
        <ele>84.25</ele>
        <time>2016-10-06T16:13:47Z</time>
      </trkpt>
      <trkpt lat="44.91309" lon="8.61268">
        <ele>84.73</ele>
        <time>2016-10-06T16:13:48Z</time>
      </trkpt>
      <trkpt lat="44.91307" lon="8.61271">
        <ele>85.21</ele>
        <time>2016-10-06T16:13:49Z</time>
      </trkpt>
      <trkpt lat="44.91306" lon="8.61275">
        <ele>85.21</ele>
        <time>2016-10-06T16:13:50Z</time>
      </trkpt>
      <trkpt lat="44.91305" lon="8.61278">
        <ele>85.21</ele>
        <time>2016-10-06T16:13:51Z</time>
      </trkpt>
      <trkpt lat="44.91295" lon="8.61303">
        <ele>84.73</ele>
        <time>2016-10-06T16:13:59Z</time>
      </trkpt>
      <trkpt lat="44.91292" lon="8.61329">
        <ele>84.73</ele>
        <time>2016-10-06T16:14:09Z</time>
      </trkpt>
      <trkpt lat="44.91292" lon="8.61332">
        <ele>84.73</ele>
        <time>2016-10-06T16:14:10Z</time>
      </trkpt>
      <trkpt lat="44.91285" lon="8.6139">
        <ele>84.73</ele>
        <time>2016-10-06T16:14:25Z</time>
      </trkpt>
      <trkpt lat="44.91274" lon="8.61405">
        <ele>85.21</ele>
        <time>2016-10-06T16:14:36Z</time>
      </trkpt>
      <trkpt lat="44.91276" lon="8.61407">
        <ele>85.69</ele>
        <time>2016-10-06T16:14:38Z</time>
      </trkpt>
      <trkpt lat="44.91312" lon="8.61421">
        <ele>85.69</ele>
        <time>2016-10-06T16:14:55Z</time>
      </trkpt>
      <trkpt lat="44.91349" lon="8.614">
        <ele>85.69</ele>
        <time>2016-10-06T16:15:09Z</time>
      </trkpt>
      <trkpt lat="44.91377" lon="8.61396">
        <ele>85.69</ele>
        <time>2016-10-06T16:15:22Z</time>
      </trkpt>
      <trkpt lat="44.9139" lon="8.61395">
        <ele>86.18</ele>
        <time>2016-10-06T16:15:33Z</time>
      </trkpt>
      <trkpt lat="44.91393" lon="8.61397">
        <ele>86.18</ele>
        <time>2016-10-06T16:15:36Z</time>
      </trkpt>
      <trkpt lat="44.91395" lon="8.61401">
        <ele>86.66</ele>
        <time>2016-10-06T16:15:41Z</time>
      </trkpt>
      <trkpt lat="44.91394" lon="8.61402">
        <ele>86.18</ele>
        <time>2016-10-06T16:15:42Z</time>
      </trkpt>
      <trkpt lat="44.91393" lon="8.61404">
        <ele>86.18</ele>
        <time>2016-10-06T16:15:43Z</time>
      </trkpt>
      <trkpt lat="44.91393" lon="8.61406">
        <ele>86.18</ele>
        <time>2016-10-06T16:15:44Z</time>
      </trkpt>
      <trkpt lat="44.91392" lon="8.61408">
        <ele>86.18</ele>
        <time>2016-10-06T16:15:45Z</time>
      </trkpt>
      <trkpt lat="44.91391" lon="8.61411">
        <ele>86.66</ele>
        <time>2016-10-06T16:15:46Z</time>
      </trkpt>
      <trkpt lat="44.91391" lon="8.61413">
        <ele>86.18</ele>
        <time>2016-10-06T16:15:47Z</time>
      </trkpt>
      <trkpt lat="44.91391" lon="8.6142">
        <ele>86.18</ele>
        <time>2016-10-06T16:15:51Z</time>
      </trkpt>
      <trkpt lat="44.9139" lon="8.61424">
        <ele>86.66</ele>
        <time>2016-10-06T16:15:53Z</time>
      </trkpt>
      <trkpt lat="44.91382" lon="8.61456">
        <ele>87.14</ele>
        <time>2016-10-06T16:16:06Z</time>
      </trkpt>
      <trkpt lat="44.91381" lon="8.61459">
        <ele>86.66</ele>
        <time>2016-10-06T16:16:07Z</time>
      </trkpt>
      <trkpt lat="44.91381" lon="8.61461">
        <ele>86.66</ele>
        <time>2016-10-06T16:16:08Z</time>
      </trkpt>
      <trkpt lat="44.91381" lon="8.61465">
        <ele>86.66</ele>
        <time>2016-10-06T16:16:09Z</time>
      </trkpt>
      <trkpt lat="44.9138" lon="8.61468">
        <ele>87.14</ele>
        <time>2016-10-06T16:16:10Z</time>
      </trkpt>
      <trkpt lat="44.91379" lon="8.61471">
        <ele>87.14</ele>
        <time>2016-10-06T16:16:11Z</time>
      </trkpt>
      <trkpt lat="44.91378" lon="8.61474">
        <ele>87.14</ele>
        <time>2016-10-06T16:16:12Z</time>
      </trkpt>
      <trkpt lat="44.91359" lon="8.61514">
        <ele>87.14</ele>
        <time>2016-10-06T16:16:27Z</time>
      </trkpt>
      <trkpt lat="44.91351" lon="8.61524">
        <ele>87.62</ele>
        <time>2016-10-06T16:16:40Z</time>
      </trkpt>
      <trkpt lat="44.91348" lon="8.61523">
        <ele>87.62</ele>
        <time>2016-10-06T16:16:44Z</time>
      </trkpt>
      <trkpt lat="44.91342" lon="8.61515">
        <ele>88.1</ele>
        <time>2016-10-06T16:16:54Z</time>
      </trkpt>
      <trkpt lat="44.9134" lon="8.61505">
        <ele>88.1</ele>
        <time>2016-10-06T16:17:00Z</time>
      </trkpt>
      <trkpt lat="44.91338" lon="8.61512">
        <ele>88.1</ele>
        <time>2016-10-06T16:17:06Z</time>
      </trkpt>
      <trkpt lat="44.91324" lon="8.61544">
        <ele>87.62</ele>
        <time>2016-10-06T16:17:19Z</time>
      </trkpt>
      <trkpt lat="44.91303" lon="8.61588">
        <ele>87.62</ele>
        <time>2016-10-06T16:17:29Z</time>
      </trkpt>
      <trkpt lat="44.91302" lon="8.61591">
        <ele>87.62</ele>
        <time>2016-10-06T16:17:31Z</time>
      </trkpt>
      <trkpt lat="44.91305" lon="8.61588">
        <ele>87.62</ele>
        <time>2016-10-06T16:17:35Z</time>
      </trkpt>
      <trkpt lat="44.91306" lon="8.61584">
        <ele>87.62</ele>
        <time>2016-10-06T16:17:36Z</time>
      </trkpt>
      <trkpt lat="44.91306" lon="8.6158">
        <ele>87.14</ele>
        <time>2016-10-06T16:17:37Z</time>
      </trkpt>
      <trkpt lat="44.91317" lon="8.61554">
        <ele>87.62</ele>
        <time>2016-10-06T16:17:48Z</time>
      </trkpt>
      <trkpt lat="44.91318" lon="8.61552">
        <ele>87.62</ele>
        <time>2016-10-06T16:17:49Z</time>
      </trkpt>
      <trkpt lat="44.91319" lon="8.61549">
        <ele>87.14</ele>
        <time>2016-10-06T16:17:50Z</time>
      </trkpt>
      <trkpt lat="44.9132" lon="8.61546">
        <ele>87.62</ele>
        <time>2016-10-06T16:17:51Z</time>
      </trkpt>
      <trkpt lat="44.91322" lon="8.61544">
        <ele>87.62</ele>
        <time>2016-10-06T16:17:52Z</time>
      </trkpt>
      <trkpt lat="44.91323" lon="8.61543">
        <ele>88.1</ele>
        <time>2016-10-06T16:17:53Z</time>
      </trkpt>
      <trkpt lat="44.91326" lon="8.61537">
        <ele>88.1</ele>
        <time>2016-10-06T16:18:03Z</time>
      </trkpt>
      <trkpt lat="44.9132" lon="8.6154">
        <ele>88.1</ele>
        <time>2016-10-06T16:18:19Z</time>
      </trkpt>
      <trkpt lat="44.91324" lon="8.61546">
        <ele>88.1</ele>
        <time>2016-10-06T16:18:32Z</time>
      </trkpt>
      <trkpt lat="44.91323" lon="8.61543">
        <ele>88.1</ele>
        <time>2016-10-06T16:18:55Z</time>
      </trkpt>
      <trkpt lat="44.91318" lon="8.61551">
        <ele>88.1</ele>
        <time>2016-10-06T16:19:24Z</time>
      </trkpt>
      <trkpt lat="44.91321" lon="8.61548">
        <ele>88.58</ele>
        <time>2016-10-06T16:19:53Z</time>
      </trkpt>
      <trkpt lat="44.91319" lon="8.6155">
        <ele>88.58</ele>
        <time>2016-10-06T16:20:25Z</time>
      </trkpt>
      <trkpt lat="44.91325" lon="8.61544">
        <ele>88.1</ele>
        <time>2016-10-06T16:21:06Z</time>
      </trkpt>
      <trkpt lat="44.91333" lon="8.61536">
        <ele>88.58</ele>
        <time>2016-10-06T16:21:45Z</time>
      </trkpt>
      <trkpt lat="44.91331" lon="8.6154">
        <ele>88.58</ele>
        <time>2016-10-06T16:22:20Z</time>
      </trkpt>
      <trkpt lat="44.91328" lon="8.61546">
        <ele>89.06</ele>
        <time>2016-10-06T16:22:56Z</time>
      </trkpt>
      <trkpt lat="44.91326" lon="8.61551">
        <ele>88.1</ele>
        <time>2016-10-06T16:23:37Z</time>
      </trkpt>
      <trkpt lat="44.91325" lon="8.6154">
        <ele>87.62</ele>
        <time>2016-10-06T16:24:17Z</time>
      </trkpt>
      <trkpt lat="44.91325" lon="8.61542">
        <ele>87.62</ele>
        <time>2016-10-06T16:24:32Z</time>
      </trkpt>
      <trkpt lat="44.91317" lon="8.61547">
        <ele>88.1</ele>
        <time>2016-10-06T16:25:06Z</time>
      </trkpt>
      <trkpt lat="44.91321" lon="8.61548">
        <ele>87.14</ele>
        <time>2016-10-06T16:25:33Z</time>
      </trkpt>
      <trkpt lat="44.91326" lon="8.61543">
        <ele>87.62</ele>
        <time>2016-10-06T16:25:49Z</time>
      </trkpt>
      <trkpt lat="44.91326" lon="8.61542">
        <ele>86.18</ele>
        <time>2016-10-06T16:26:00Z</time>
      </trkpt>
      <trkpt lat="44.91325" lon="8.61542">
        <ele>87.14</ele>
        <time>2016-10-06T16:26:02Z</time>
      </trkpt>
      <trkpt lat="44.91328" lon="8.61546">
        <ele>85.69</ele>
        <time>2016-10-06T16:26:22Z</time>
      </trkpt>
      <trkpt lat="44.91328" lon="8.61546">
        <ele>90.02</ele>
        <time>2016-10-06T16:26:23Z</time>
      </trkpt>
      <trkpt lat="44.91329" lon="8.61546">
        <ele>87.62</ele>
        <time>2016-10-06T16:26:31Z</time>
      </trkpt>
      <trkpt lat="44.91326" lon="8.6154">
        <ele>87.62</ele>
        <time>2016-10-06T16:26:39Z</time>
      </trkpt>
      <trkpt lat="44.91325" lon="8.61539">
        <ele>87.14</ele>
        <time>2016-10-06T16:26:40Z</time>
      </trkpt>
      <trkpt lat="44.91318" lon="8.61523">
        <ele>86.66</ele>
        <time>2016-10-06T16:26:51Z</time>
      </trkpt>
      <trkpt lat="44.91319" lon="8.61521">
        <ele>86.66</ele>
        <time>2016-10-06T16:26:53Z</time>
      </trkpt>
      <trkpt lat="44.9132" lon="8.61519">
        <ele>86.66</ele>
        <time>2016-10-06T16:26:54Z</time>
      </trkpt>
      <trkpt lat="44.91319" lon="8.61517">
        <ele>86.66</ele>
        <time>2016-10-06T16:26:55Z</time>
      </trkpt>
      <trkpt lat="44.91317" lon="8.61515">
        <ele>85.69</ele>
        <time>2016-10-06T16:26:56Z</time>
      </trkpt>
      <trkpt lat="44.91315" lon="8.61514">
        <ele>86.66</ele>
        <time>2016-10-06T16:26:57Z</time>
      </trkpt>
      <trkpt lat="44.91313" lon="8.61513">
        <ele>87.14</ele>
        <time>2016-10-06T16:26:58Z</time>
      </trkpt>
      <trkpt lat="44.91311" lon="8.61512">
        <ele>86.18</ele>
        <time>2016-10-06T16:26:59Z</time>
      </trkpt>
      <trkpt lat="44.91292" lon="8.61506">
        <ele>87.14</ele>
        <time>2016-10-06T16:27:09Z</time>
      </trkpt>
      <trkpt lat="44.91259" lon="8.6149">
        <ele>86.66</ele>
        <time>2016-10-06T16:27:26Z</time>
      </trkpt>
      <trkpt lat="44.91259" lon="8.61484">
        <ele>86.18</ele>
        <time>2016-10-06T16:27:29Z</time>
      </trkpt>
      <trkpt lat="44.91262" lon="8.61482">
        <ele>86.18</ele>
        <time>2016-10-06T16:27:30Z</time>
      </trkpt>
      <trkpt lat="44.91265" lon="8.6148">
        <ele>86.66</ele>
        <time>2016-10-06T16:27:31Z</time>
      </trkpt>
      <trkpt lat="44.91267" lon="8.61476">
        <ele>86.66</ele>
        <time>2016-10-06T16:27:32Z</time>
      </trkpt>
      <trkpt lat="44.91269" lon="8.61473">
        <ele>86.66</ele>
        <time>2016-10-06T16:27:33Z</time>
      </trkpt>
      <trkpt lat="44.91271" lon="8.61469">
        <ele>86.66</ele>
        <time>2016-10-06T16:27:34Z</time>
      </trkpt>
      <trkpt lat="44.91292" lon="8.61427">
        <ele>85.69</ele>
        <time>2016-10-06T16:27:47Z</time>
      </trkpt>
      <trkpt lat="44.91288" lon="8.61406">
        <ele>85.21</ele>
        <time>2016-10-06T16:27:56Z</time>
      </trkpt>
      <trkpt lat="44.91298" lon="8.6135">
        <ele>86.18</ele>
        <time>2016-10-06T16:28:10Z</time>
      </trkpt>
      <trkpt lat="44.91297" lon="8.61347">
        <ele>86.18</ele>
        <time>2016-10-06T16:28:11Z</time>
      </trkpt>
      <trkpt lat="44.91295" lon="8.61344">
        <ele>85.69</ele>
        <time>2016-10-06T16:28:12Z</time>
      </trkpt>
      <trkpt lat="44.91297" lon="8.6134">
        <ele>85.69</ele>
        <time>2016-10-06T16:28:13Z</time>
      </trkpt>
      <trkpt lat="44.91296" lon="8.61338">
        <ele>85.21</ele>
        <time>2016-10-06T16:28:14Z</time>
      </trkpt>
      <trkpt lat="44.91295" lon="8.61337">
        <ele>85.69</ele>
        <time>2016-10-06T16:28:15Z</time>
      </trkpt>
      <trkpt lat="44.91293" lon="8.61335">
        <ele>86.66</ele>
        <time>2016-10-06T16:28:16Z</time>
      </trkpt>
      <trkpt lat="44.91291" lon="8.61334">
        <ele>86.18</ele>
        <time>2016-10-06T16:28:17Z</time>
      </trkpt>
      <trkpt lat="44.91289" lon="8.61333">
        <ele>86.18</ele>
        <time>2016-10-06T16:28:18Z</time>
      </trkpt>
      <trkpt lat="44.91286" lon="8.61331">
        <ele>86.18</ele>
        <time>2016-10-06T16:28:19Z</time>
      </trkpt>
      <trkpt lat="44.91283" lon="8.6133">
        <ele>86.66</ele>
        <time>2016-10-06T16:28:20Z</time>
      </trkpt>
      <trkpt lat="44.9128" lon="8.61328">
        <ele>86.66</ele>
        <time>2016-10-06T16:28:21Z</time>
      </trkpt>
      <trkpt lat="44.91277" lon="8.61327">
        <ele>86.18</ele>
        <time>2016-10-06T16:28:22Z</time>
      </trkpt>
      <trkpt lat="44.91275" lon="8.61325">
        <ele>85.69</ele>
        <time>2016-10-06T16:28:23Z</time>
      </trkpt>
      <trkpt lat="44.91272" lon="8.61324">
        <ele>85.69</ele>
        <time>2016-10-06T16:28:24Z</time>
      </trkpt>
      <trkpt lat="44.91269" lon="8.61322">
        <ele>86.18</ele>
        <time>2016-10-06T16:28:25Z</time>
      </trkpt>
      <trkpt lat="44.91242" lon="8.61309">
        <ele>86.66</ele>
        <time>2016-10-06T16:28:37Z</time>
      </trkpt>
      <trkpt lat="44.91231" lon="8.61299">
        <ele>87.62</ele>
        <time>2016-10-06T16:28:47Z</time>
      </trkpt>
      <trkpt lat="44.91229" lon="8.61281">
        <ele>87.62</ele>
        <time>2016-10-06T16:28:53Z</time>
      </trkpt>
      <trkpt lat="44.91231" lon="8.61276">
        <ele>86.66</ele>
        <time>2016-10-06T16:28:54Z</time>
      </trkpt>
      <trkpt lat="44.91251" lon="8.61228">
        <ele>87.62</ele>
        <time>2016-10-06T16:29:09Z</time>
      </trkpt>
      <trkpt lat="44.91253" lon="8.61224">
        <ele>87.14</ele>
        <time>2016-10-06T16:29:10Z</time>
      </trkpt>
      <trkpt lat="44.91273" lon="8.61189">
        <ele>87.62</ele>
        <time>2016-10-06T16:29:20Z</time>
      </trkpt>
      <trkpt lat="44.91301" lon="8.61151">
        <ele>87.62</ele>
        <time>2016-10-06T16:29:32Z</time>
      </trkpt>
      <trkpt lat="44.91307" lon="8.61083">
        <ele>88.1</ele>
        <time>2016-10-06T16:29:46Z</time>
      </trkpt>
      <trkpt lat="44.91308" lon="8.61064">
        <ele>87.62</ele>
        <time>2016-10-06T16:29:49Z</time>
      </trkpt>
      <trkpt lat="44.91307" lon="8.6106">
        <ele>87.14</ele>
        <time>2016-10-06T16:29:50Z</time>
      </trkpt>
      <trkpt lat="44.91335" lon="8.61033">
        <ele>87.62</ele>
        <time>2016-10-06T16:30:01Z</time>
      </trkpt>
      <trkpt lat="44.91343" lon="8.61014">
        <ele>87.14</ele>
        <time>2016-10-06T16:30:10Z</time>
      </trkpt>
      <trkpt lat="44.91344" lon="8.61015">
        <ele>87.14</ele>
        <time>2016-10-06T16:30:11Z</time>
      </trkpt>
      <trkpt lat="44.91346" lon="8.61016">
        <ele>87.14</ele>
        <time>2016-10-06T16:30:12Z</time>
      </trkpt>
      <trkpt lat="44.91348" lon="8.61016">
        <ele>87.62</ele>
        <time>2016-10-06T16:30:13Z</time>
      </trkpt>
      <trkpt lat="44.91351" lon="8.61017">
        <ele>87.62</ele>
        <time>2016-10-06T16:30:14Z</time>
      </trkpt>
      <trkpt lat="44.91352" lon="8.61018">
        <ele>87.14</ele>
        <time>2016-10-06T16:30:15Z</time>
      </trkpt>
      <trkpt lat="44.91354" lon="8.61019">
        <ele>87.14</ele>
        <time>2016-10-06T16:30:17Z</time>
      </trkpt>
      <trkpt lat="44.91356" lon="8.61019">
        <ele>86.66</ele>
        <time>2016-10-06T16:30:18Z</time>
      </trkpt>
      <trkpt lat="44.91358" lon="8.61023">
        <ele>87.62</ele>
        <time>2016-10-06T16:30:19Z</time>
      </trkpt>
      <trkpt lat="44.91358" lon="8.61026">
        <ele>86.66</ele>
        <time>2016-10-06T16:30:20Z</time>
      </trkpt>
      <trkpt lat="44.91358" lon="8.61028">
        <ele>87.14</ele>
        <time>2016-10-06T16:30:21Z</time>
      </trkpt>
      <trkpt lat="44.91358" lon="8.6103">
        <ele>86.18</ele>
        <time>2016-10-06T16:30:22Z</time>
      </trkpt>
      <trkpt lat="44.91358" lon="8.61033">
        <ele>87.14</ele>
        <time>2016-10-06T16:30:23Z</time>
      </trkpt>
      <trkpt lat="44.91354" lon="8.6107">
        <ele>87.14</ele>
        <time>2016-10-06T16:30:35Z</time>
      </trkpt>
      <trkpt lat="44.91354" lon="8.61082">
        <ele>87.62</ele>
        <time>2016-10-06T16:30:47Z</time>
      </trkpt>
      <trkpt lat="44.91356" lon="8.61084">
        <ele>87.14</ele>
        <time>2016-10-06T16:30:59Z</time>
      </trkpt>
      <trkpt lat="44.91347" lon="8.61095">
        <ele>87.62</ele>
        <time>2016-10-06T16:31:22Z</time>
      </trkpt>
      <trkpt lat="44.91343" lon="8.6109">
        <ele>88.1</ele>
        <time>2016-10-06T16:31:56Z</time>
      </trkpt>
      <trkpt lat="44.9134" lon="8.6109">
        <ele>87.62</ele>
        <time>2016-10-06T16:32:30Z</time>
      </trkpt>
      <trkpt lat="44.9135" lon="8.61089">
        <ele>88.58</ele>
        <time>2016-10-06T16:33:01Z</time>
      </trkpt>
      <trkpt lat="44.91353" lon="8.61088">
        <ele>88.1</ele>
        <time>2016-10-06T16:33:02Z</time>
      </trkpt>
      <trkpt lat="44.91352" lon="8.61083">
        <ele>87.62</ele>
        <time>2016-10-06T16:33:09Z</time>
      </trkpt>
      <trkpt lat="44.91354" lon="8.61076">
        <ele>89.06</ele>
        <time>2016-10-06T16:33:21Z</time>
      </trkpt>
      <trkpt lat="44.91355" lon="8.61075">
        <ele>89.06</ele>
        <time>2016-10-06T16:33:22Z</time>
      </trkpt>
      <trkpt lat="44.91356" lon="8.61073">
        <ele>88.58</ele>
        <time>2016-10-06T16:33:23Z</time>
      </trkpt>
      <trkpt lat="44.91341" lon="8.61066">
        <ele>88.1</ele>
        <time>2016-10-06T16:33:36Z</time>
      </trkpt>
      <trkpt lat="44.91332" lon="8.61072">
        <ele>85.69</ele>
        <time>2016-10-06T16:33:56Z</time>
      </trkpt>
      <trkpt lat="44.91345" lon="8.61096">
        <ele>34.74</ele>
        <time>2016-10-07T07:16:47Z</time>
      </trkpt>
      <trkpt lat="44.91345" lon="8.61097">
        <ele>34.74</ele>
        <time>2016-10-07T07:16:48Z</time>
      </trkpt>
      <trkpt lat="44.91345" lon="8.61101">
        <ele>34.74</ele>
        <time>2016-10-07T07:16:52Z</time>
      </trkpt>
      <trkpt lat="44.91333" lon="8.61135">
        <ele>35.23</ele>
        <time>2016-10-07T07:17:05Z</time>
      </trkpt>
      <trkpt lat="44.91329" lon="8.61169">
        <ele>35.23</ele>
        <time>2016-10-07T07:17:14Z</time>
      </trkpt>
      <trkpt lat="44.91327" lon="8.61172">
        <ele>35.71</ele>
        <time>2016-10-07T07:17:15Z</time>
      </trkpt>
      <trkpt lat="44.91316" lon="8.61219">
        <ele>35.71</ele>
        <time>2016-10-07T07:17:29Z</time>
      </trkpt>
      <trkpt lat="44.91302" lon="8.61253">
        <ele>35.23</ele>
        <time>2016-10-07T07:17:43Z</time>
      </trkpt>
      <trkpt lat="44.913" lon="8.61256">
        <ele>35.71</ele>
        <time>2016-10-07T07:17:45Z</time>
      </trkpt>
      <trkpt lat="44.91299" lon="8.61258">
        <ele>34.74</ele>
        <time>2016-10-07T07:17:46Z</time>
      </trkpt>
      <trkpt lat="44.91299" lon="8.61261">
        <ele>35.23</ele>
        <time>2016-10-07T07:17:47Z</time>
      </trkpt>
      <trkpt lat="44.91298" lon="8.61263">
        <ele>35.71</ele>
        <time>2016-10-07T07:17:48Z</time>
      </trkpt>
      <trkpt lat="44.91298" lon="8.61267">
        <ele>35.23</ele>
        <time>2016-10-07T07:17:49Z</time>
      </trkpt>
      <trkpt lat="44.91297" lon="8.6127">
        <ele>35.23</ele>
        <time>2016-10-07T07:17:50Z</time>
      </trkpt>
      <trkpt lat="44.91286" lon="8.61301">
        <ele>35.23</ele>
        <time>2016-10-07T07:18:00Z</time>
      </trkpt>
      <trkpt lat="44.91286" lon="8.61306">
        <ele>35.23</ele>
        <time>2016-10-07T07:18:02Z</time>
      </trkpt>
      <trkpt lat="44.91285" lon="8.61316">
        <ele>35.23</ele>
        <time>2016-10-07T07:18:09Z</time>
      </trkpt>
      <trkpt lat="44.91291" lon="8.61324">
        <ele>36.19</ele>
        <time>2016-10-07T07:18:19Z</time>
      </trkpt>
      <trkpt lat="44.91293" lon="8.61326">
        <ele>35.71</ele>
        <time>2016-10-07T07:18:20Z</time>
      </trkpt>
      <trkpt lat="44.91294" lon="8.61327">
        <ele>36.19</ele>
        <time>2016-10-07T07:18:21Z</time>
      </trkpt>
      <trkpt lat="44.91296" lon="8.61329">
        <ele>35.71</ele>
        <time>2016-10-07T07:18:22Z</time>
      </trkpt>
      <trkpt lat="44.91298" lon="8.6133">
        <ele>35.71</ele>
        <time>2016-10-07T07:18:23Z</time>
      </trkpt>
      <trkpt lat="44.913" lon="8.61332">
        <ele>36.19</ele>
        <time>2016-10-07T07:18:24Z</time>
      </trkpt>
      <trkpt lat="44.91328" lon="8.6135">
        <ele>36.67</ele>
        <time>2016-10-07T07:18:36Z</time>
      </trkpt>
      <trkpt lat="44.91332" lon="8.61358">
        <ele>36.67</ele>
        <time>2016-10-07T07:18:39Z</time>
      </trkpt>
      <trkpt lat="44.91332" lon="8.61361">
        <ele>36.19</ele>
        <time>2016-10-07T07:18:40Z</time>
      </trkpt>
      <trkpt lat="44.91332" lon="8.61364">
        <ele>36.67</ele>
        <time>2016-10-07T07:18:41Z</time>
      </trkpt>
      <trkpt lat="44.91333" lon="8.61365">
        <ele>36.19</ele>
        <time>2016-10-07T07:18:42Z</time>
      </trkpt>
      <trkpt lat="44.91334" lon="8.61365">
        <ele>36.67</ele>
        <time>2016-10-07T07:18:43Z</time>
      </trkpt>
      <trkpt lat="44.91334" lon="8.61363">
        <ele>37.15</ele>
        <time>2016-10-07T07:18:44Z</time>
      </trkpt>
      <trkpt lat="44.91335" lon="8.61362">
        <ele>36.67</ele>
        <time>2016-10-07T07:18:45Z</time>
      </trkpt>
      <trkpt lat="44.91336" lon="8.61361">
        <ele>37.15</ele>
        <time>2016-10-07T07:18:46Z</time>
      </trkpt>
      <trkpt lat="44.91338" lon="8.61361">
        <ele>37.15</ele>
        <time>2016-10-07T07:18:47Z</time>
      </trkpt>
      <trkpt lat="44.91339" lon="8.61361">
        <ele>37.15</ele>
        <time>2016-10-07T07:18:48Z</time>
      </trkpt>
      <trkpt lat="44.91341" lon="8.61362">
        <ele>37.63</ele>
        <time>2016-10-07T07:18:49Z</time>
      </trkpt>
      <trkpt lat="44.91343" lon="8.61363">
        <ele>37.15</ele>
        <time>2016-10-07T07:18:50Z</time>
      </trkpt>
      <trkpt lat="44.91346" lon="8.61365">
        <ele>37.63</ele>
        <time>2016-10-07T07:18:53Z</time>
      </trkpt>
      <trkpt lat="44.91357" lon="8.61371">
        <ele>37.63</ele>
        <time>2016-10-07T07:19:05Z</time>
      </trkpt>
      <trkpt lat="44.91365" lon="8.61373">
        <ele>37.63</ele>
        <time>2016-10-07T07:19:20Z</time>
      </trkpt>
      <trkpt lat="44.91385" lon="8.61376">
        <ele>40.03</ele>
        <time>2016-10-07T07:19:57Z</time>
      </trkpt>
      <trkpt lat="44.91399" lon="8.61367">
        <ele>40.99</ele>
        <time>2016-10-07T07:20:27Z</time>
      </trkpt>
      <trkpt lat="44.91404" lon="8.61363">
        <ele>41.47</ele>
        <time>2016-10-07T07:20:58Z</time>
      </trkpt>
      <trkpt lat="44.91405" lon="8.61353">
        <ele>42.92</ele>
        <time>2016-10-07T07:21:30Z</time>
      </trkpt>
      <trkpt lat="44.9141" lon="8.61363">
        <ele>44.36</ele>
        <time>2016-10-07T07:22:03Z</time>
      </trkpt>
      <trkpt lat="44.91411" lon="8.61365">
        <ele>45.32</ele>
        <time>2016-10-07T07:22:39Z</time>
      </trkpt>
      <trkpt lat="44.9141" lon="8.61372">
        <ele>45.32</ele>
        <time>2016-10-07T07:23:05Z</time>
      </trkpt>
      <trkpt lat="44.91411" lon="8.61375">
        <ele>45.8</ele>
        <time>2016-10-07T07:23:06Z</time>
      </trkpt>
      <trkpt lat="44.91444" lon="8.61384">
        <ele>46.28</ele>
        <time>2016-10-07T07:23:25Z</time>
      </trkpt>
      <trkpt lat="44.91451" lon="8.61382">
        <ele>47.24</ele>
        <time>2016-10-07T07:23:36Z</time>
      </trkpt>
      <trkpt lat="44.9145" lon="8.61382">
        <ele>46.76</ele>
        <time>2016-10-07T07:23:37Z</time>
      </trkpt>
      <trkpt lat="44.91449" lon="8.61381">
        <ele>47.24</ele>
        <time>2016-10-07T07:23:38Z</time>
      </trkpt>
      <trkpt lat="44.91448" lon="8.6138">
        <ele>47.24</ele>
        <time>2016-10-07T07:23:39Z</time>
      </trkpt>
      <trkpt lat="44.91447" lon="8.61378">
        <ele>46.76</ele>
        <time>2016-10-07T07:23:40Z</time>
      </trkpt>
      <trkpt lat="44.91435" lon="8.61341">
        <ele>47.72</ele>
        <time>2016-10-07T07:23:52Z</time>
      </trkpt>
      <trkpt lat="44.91438" lon="8.61327">
        <ele>47.24</ele>
        <time>2016-10-07T07:23:55Z</time>
      </trkpt>
      <trkpt lat="44.91438" lon="8.61324">
        <ele>47.24</ele>
        <time>2016-10-07T07:23:56Z</time>
      </trkpt>
      <trkpt lat="44.91438" lon="8.61322">
        <ele>47.24</ele>
        <time>2016-10-07T07:23:57Z</time>
      </trkpt>
      <trkpt lat="44.91437" lon="8.6132">
        <ele>47.24</ele>
        <time>2016-10-07T07:23:58Z</time>
      </trkpt>
      <trkpt lat="44.91436" lon="8.61316">
        <ele>46.76</ele>
        <time>2016-10-07T07:24:05Z</time>
      </trkpt>
      <trkpt lat="44.91434" lon="8.61315">
        <ele>47.24</ele>
        <time>2016-10-07T07:24:06Z</time>
      </trkpt>
      <trkpt lat="44.91431" lon="8.61314">
        <ele>47.24</ele>
        <time>2016-10-07T07:24:07Z</time>
      </trkpt>
      <trkpt lat="44.91429" lon="8.61312">
        <ele>46.76</ele>
        <time>2016-10-07T07:24:08Z</time>
      </trkpt>
      <trkpt lat="44.91427" lon="8.6131">
        <ele>47.72</ele>
        <time>2016-10-07T07:24:09Z</time>
      </trkpt>
      <trkpt lat="44.91425" lon="8.61308">
        <ele>47.24</ele>
        <time>2016-10-07T07:24:10Z</time>
      </trkpt>
      <trkpt lat="44.91423" lon="8.61307">
        <ele>46.76</ele>
        <time>2016-10-07T07:24:11Z</time>
      </trkpt>
      <trkpt lat="44.9142" lon="8.61306">
        <ele>46.76</ele>
        <time>2016-10-07T07:24:12Z</time>
      </trkpt>
      <trkpt lat="44.91417" lon="8.61305">
        <ele>46.76</ele>
        <time>2016-10-07T07:24:13Z</time>
      </trkpt>
      <trkpt lat="44.91415" lon="8.61305">
        <ele>47.24</ele>
        <time>2016-10-07T07:24:14Z</time>
      </trkpt>
      <trkpt lat="44.91396" lon="8.61291">
        <ele>48.68</ele>
        <time>2016-10-07T07:24:22Z</time>
      </trkpt>
      <trkpt lat="44.9133" lon="8.61254">
        <ele>49.16</ele>
        <time>2016-10-07T07:24:39Z</time>
      </trkpt>
      <trkpt lat="44.91313" lon="8.61256">
        <ele>49.16</ele>
        <time>2016-10-07T07:24:47Z</time>
      </trkpt>
      <trkpt lat="44.91305" lon="8.61304">
        <ele>49.16</ele>
        <time>2016-10-07T07:24:59Z</time>
      </trkpt>
      <trkpt lat="44.91301" lon="8.61322">
        <ele>49.16</ele>
        <time>2016-10-07T07:25:08Z</time>
      </trkpt>
      <trkpt lat="44.91299" lon="8.61322">
        <ele>49.16</ele>
        <time>2016-10-07T07:25:11Z</time>
      </trkpt>
      <trkpt lat="44.91298" lon="8.61323">
        <ele>49.16</ele>
        <time>2016-10-07T07:25:12Z</time>
      </trkpt>
      <trkpt lat="44.9125" lon="8.61309">
        <ele>50.61</ele>
        <time>2016-10-07T07:25:29Z</time>
      </trkpt>
      <trkpt lat="44.91207" lon="8.61292">
        <ele>51.09</ele>
        <time>2016-10-07T07:25:44Z</time>
      </trkpt>
      <trkpt lat="44.91176" lon="8.61278">
        <ele>52.05</ele>
        <time>2016-10-07T07:25:59Z</time>
      </trkpt>
      <trkpt lat="44.9115" lon="8.61263">
        <ele>52.05</ele>
        <time>2016-10-07T07:26:10Z</time>
      </trkpt>
      <trkpt lat="44.91096" lon="8.61241">
        <ele>52.53</ele>
        <time>2016-10-07T07:26:26Z</time>
      </trkpt>
      <trkpt lat="44.9105" lon="8.61228">
        <ele>53.49</ele>
        <time>2016-10-07T07:26:43Z</time>
      </trkpt>
      <trkpt lat="44.91043" lon="8.61222">
        <ele>53.01</ele>
        <time>2016-10-07T07:26:55Z</time>
      </trkpt>
      <trkpt lat="44.91045" lon="8.6122">
        <ele>53.01</ele>
        <time>2016-10-07T07:26:56Z</time>
      </trkpt>
      <trkpt lat="44.91046" lon="8.61217">
        <ele>53.01</ele>
        <time>2016-10-07T07:26:57Z</time>
      </trkpt>
      <trkpt lat="44.91047" lon="8.61213">
        <ele>53.01</ele>
        <time>2016-10-07T07:26:58Z</time>
      </trkpt>
      <trkpt lat="44.91049" lon="8.6121">
        <ele>53.49</ele>
        <time>2016-10-07T07:26:59Z</time>
      </trkpt>
      <trkpt lat="44.91064" lon="8.6116">
        <ele>54.45</ele>
        <time>2016-10-07T07:27:17Z</time>
      </trkpt>
      <trkpt lat="44.91061" lon="8.6115">
        <ele>54.93</ele>
        <time>2016-10-07T07:27:20Z</time>
      </trkpt>
      <trkpt lat="44.91065" lon="8.61135">
        <ele>54.93</ele>
        <time>2016-10-07T07:27:32Z</time>
      </trkpt>
      <trkpt lat="44.91052" lon="8.61151">
        <ele>54.45</ele>
        <time>2016-10-07T07:27:43Z</time>
      </trkpt>
      <trkpt lat="44.9104" lon="8.61205">
        <ele>55.41</ele>
        <time>2016-10-07T07:27:55Z</time>
      </trkpt>
      <trkpt lat="44.91037" lon="8.61208">
        <ele>55.89</ele>
        <time>2016-10-07T07:27:56Z</time>
      </trkpt>
      <trkpt lat="44.91034" lon="8.61209">
        <ele>55.41</ele>
        <time>2016-10-07T07:27:57Z</time>
      </trkpt>
      <trkpt lat="44.91032" lon="8.61212">
        <ele>55.41</ele>
        <time>2016-10-07T07:27:58Z</time>
      </trkpt>
      <trkpt lat="44.91032" lon="8.61216">
        <ele>55.41</ele>
        <time>2016-10-07T07:27:59Z</time>
      </trkpt>
      <trkpt lat="44.91032" lon="8.61219">
        <ele>55.41</ele>
        <time>2016-10-07T07:28:00Z</time>
      </trkpt>
      <trkpt lat="44.91032" lon="8.61224">
        <ele>54.93</ele>
        <time>2016-10-07T07:28:01Z</time>
      </trkpt>
      <trkpt lat="44.91032" lon="8.61227">
        <ele>55.41</ele>
        <time>2016-10-07T07:28:02Z</time>
      </trkpt>
      <trkpt lat="44.91026" lon="8.61284">
        <ele>55.41</ele>
        <time>2016-10-07T07:28:16Z</time>
      </trkpt>
      <trkpt lat="44.91025" lon="8.61287">
        <ele>54.93</ele>
        <time>2016-10-07T07:28:17Z</time>
      </trkpt>
      <trkpt lat="44.91025" lon="8.6129">
        <ele>54.93</ele>
        <time>2016-10-07T07:28:18Z</time>
      </trkpt>
      <trkpt lat="44.91025" lon="8.61294">
        <ele>54.93</ele>
        <time>2016-10-07T07:28:19Z</time>
      </trkpt>
      <trkpt lat="44.91025" lon="8.61297">
        <ele>54.93</ele>
        <time>2016-10-07T07:28:20Z</time>
      </trkpt>
      <trkpt lat="44.91025" lon="8.61301">
        <ele>55.89</ele>
        <time>2016-10-07T07:28:21Z</time>
      </trkpt>
      <trkpt lat="44.91025" lon="8.61305">
        <ele>55.41</ele>
        <time>2016-10-07T07:28:22Z</time>
      </trkpt>
      <trkpt lat="44.91024" lon="8.61309">
        <ele>54.93</ele>
        <time>2016-10-07T07:28:23Z</time>
      </trkpt>
      <trkpt lat="44.91022" lon="8.61326">
        <ele>55.41</ele>
        <time>2016-10-07T07:28:30Z</time>
      </trkpt>
      <trkpt lat="44.91021" lon="8.61327">
        <ele>54.93</ele>
        <time>2016-10-07T07:28:31Z</time>
      </trkpt>
      <trkpt lat="44.91003" lon="8.61332">
        <ele>55.89</ele>
        <time>2016-10-07T07:28:42Z</time>
      </trkpt>
      <trkpt lat="44.90982" lon="8.61325">
        <ele>56.37</ele>
        <time>2016-10-07T07:28:55Z</time>
      </trkpt>
      <trkpt lat="44.90935" lon="8.61309">
        <ele>57.34</ele>
        <time>2016-10-07T07:29:09Z</time>
      </trkpt>
      <trkpt lat="44.90923" lon="8.61304">
        <ele>57.34</ele>
        <time>2016-10-07T07:29:15Z</time>
      </trkpt>
      <trkpt lat="44.90921" lon="8.61304">
        <ele>57.34</ele>
        <time>2016-10-07T07:29:16Z</time>
      </trkpt>
      <trkpt lat="44.90912" lon="8.61307">
        <ele>57.82</ele>
        <time>2016-10-07T07:29:22Z</time>
      </trkpt>
      <trkpt lat="44.90911" lon="8.61309">
        <ele>57.82</ele>
        <time>2016-10-07T07:29:23Z</time>
      </trkpt>
      <trkpt lat="44.90909" lon="8.61309">
        <ele>57.82</ele>
        <time>2016-10-07T07:29:24Z</time>
      </trkpt>
      <trkpt lat="44.90907" lon="8.61309">
        <ele>58.3</ele>
        <time>2016-10-07T07:29:25Z</time>
      </trkpt>
      <trkpt lat="44.90905" lon="8.61309">
        <ele>58.3</ele>
        <time>2016-10-07T07:29:26Z</time>
      </trkpt>
      <trkpt lat="44.90903" lon="8.61309">
        <ele>58.3</ele>
        <time>2016-10-07T07:29:27Z</time>
      </trkpt>
      <trkpt lat="44.90901" lon="8.61308">
        <ele>57.82</ele>
        <time>2016-10-07T07:29:28Z</time>
      </trkpt>
      <trkpt lat="44.90881" lon="8.61301">
        <ele>58.78</ele>
        <time>2016-10-07T07:29:41Z</time>
      </trkpt>
      <trkpt lat="44.90872" lon="8.61298">
        <ele>58.3</ele>
        <time>2016-10-07T07:29:47Z</time>
      </trkpt>
      <trkpt lat="44.9087" lon="8.61293">
        <ele>58.3</ele>
        <time>2016-10-07T07:29:51Z</time>
      </trkpt>
      <trkpt lat="44.90873" lon="8.61286">
        <ele>58.3</ele>
        <time>2016-10-07T07:29:55Z</time>
      </trkpt>
      <trkpt lat="44.90872" lon="8.61283">
        <ele>58.3</ele>
        <time>2016-10-07T07:29:57Z</time>
      </trkpt>
      <trkpt lat="44.9087" lon="8.61279">
        <ele>58.3</ele>
        <time>2016-10-07T07:30:07Z</time>
      </trkpt>
      <trkpt lat="44.90869" lon="8.61279">
        <ele>58.78</ele>
        <time>2016-10-07T07:30:08Z</time>
      </trkpt>
      <trkpt lat="44.90868" lon="8.61278">
        <ele>58.78</ele>
        <time>2016-10-07T07:30:09Z</time>
      </trkpt>
      <trkpt lat="44.90867" lon="8.61278">
        <ele>58.78</ele>
        <time>2016-10-07T07:30:10Z</time>
      </trkpt>
      <trkpt lat="44.90865" lon="8.61278">
        <ele>58.3</ele>
        <time>2016-10-07T07:30:11Z</time>
      </trkpt>
      <trkpt lat="44.90863" lon="8.61278">
        <ele>58.3</ele>
        <time>2016-10-07T07:30:12Z</time>
      </trkpt>
      <trkpt lat="44.90862" lon="8.61277">
        <ele>58.3</ele>
        <time>2016-10-07T07:30:13Z</time>
      </trkpt>
      <trkpt lat="44.90826" lon="8.61263">
        <ele>59.74</ele>
        <time>2016-10-07T07:30:26Z</time>
      </trkpt>
      <trkpt lat="44.90824" lon="8.61263">
        <ele>59.26</ele>
        <time>2016-10-07T07:30:27Z</time>
      </trkpt>
      <trkpt lat="44.90821" lon="8.61262">
        <ele>58.78</ele>
        <time>2016-10-07T07:30:28Z</time>
      </trkpt>
      <trkpt lat="44.90819" lon="8.61261">
        <ele>59.74</ele>
        <time>2016-10-07T07:30:29Z</time>
      </trkpt>
      <trkpt lat="44.90786" lon="8.61248">
        <ele>60.7</ele>
        <time>2016-10-07T07:30:38Z</time>
      </trkpt>
      <trkpt lat="44.90746" lon="8.61236">
        <ele>59.26</ele>
        <time>2016-10-07T07:30:47Z</time>
      </trkpt>
      <trkpt lat="44.90742" lon="8.61233">
        <ele>60.22</ele>
        <time>2016-10-07T07:30:49Z</time>
      </trkpt>
      <trkpt lat="44.90742" lon="8.6123">
        <ele>60.22</ele>
        <time>2016-10-07T07:30:50Z</time>
      </trkpt>
      <trkpt lat="44.90741" lon="8.61226">
        <ele>59.74</ele>
        <time>2016-10-07T07:30:51Z</time>
      </trkpt>
      <trkpt lat="44.90741" lon="8.61223">
        <ele>60.22</ele>
        <time>2016-10-07T07:30:52Z</time>
      </trkpt>
      <trkpt lat="44.9074" lon="8.61219">
        <ele>60.22</ele>
        <time>2016-10-07T07:30:53Z</time>
      </trkpt>
      <trkpt lat="44.90737" lon="8.61165">
        <ele>59.74</ele>
        <time>2016-10-07T07:31:04Z</time>
      </trkpt>
      <trkpt lat="44.90736" lon="8.61163">
        <ele>60.22</ele>
        <time>2016-10-07T07:31:05Z</time>
      </trkpt>
      <trkpt lat="44.90733" lon="8.61162">
        <ele>60.22</ele>
        <time>2016-10-07T07:31:06Z</time>
      </trkpt>
      <trkpt lat="44.90728" lon="8.61162">
        <ele>59.74</ele>
        <time>2016-10-07T07:31:07Z</time>
      </trkpt>
      <trkpt lat="44.90724" lon="8.61162">
        <ele>59.74</ele>
        <time>2016-10-07T07:31:08Z</time>
      </trkpt>
      <trkpt lat="44.90719" lon="8.61164">
        <ele>60.22</ele>
        <time>2016-10-07T07:31:09Z</time>
      </trkpt>
      <trkpt lat="44.90715" lon="8.61166">
        <ele>60.22</ele>
        <time>2016-10-07T07:31:10Z</time>
      </trkpt>
      <trkpt lat="44.90711" lon="8.61168">
        <ele>60.7</ele>
        <time>2016-10-07T07:31:11Z</time>
      </trkpt>
      <trkpt lat="44.90707" lon="8.61169">
        <ele>60.7</ele>
        <time>2016-10-07T07:31:12Z</time>
      </trkpt>
      <trkpt lat="44.90702" lon="8.6117">
        <ele>60.7</ele>
        <time>2016-10-07T07:31:13Z</time>
      </trkpt>
      <trkpt lat="44.90661" lon="8.61177">
        <ele>61.66</ele>
        <time>2016-10-07T07:31:24Z</time>
      </trkpt>
      <trkpt lat="44.90619" lon="8.61182">
        <ele>63.58</ele>
        <time>2016-10-07T07:31:36Z</time>
      </trkpt>
      <trkpt lat="44.90573" lon="8.61185">
        <ele>64.55</ele>
        <time>2016-10-07T07:31:49Z</time>
      </trkpt>
      <trkpt lat="44.90521" lon="8.61185">
        <ele>66.47</ele>
        <time>2016-10-07T07:32:03Z</time>
      </trkpt>
      <trkpt lat="44.90479" lon="8.61145">
        <ele>68.39</ele>
        <time>2016-10-07T07:32:18Z</time>
      </trkpt>
      <trkpt lat="44.9044" lon="8.6108">
        <ele>67.91</ele>
        <time>2016-10-07T07:32:34Z</time>
      </trkpt>
      <trkpt lat="44.90432" lon="8.61061">
        <ele>67.43</ele>
        <time>2016-10-07T07:32:38Z</time>
      </trkpt>
      <trkpt lat="44.90395" lon="8.60977">
        <ele>66.47</ele>
        <time>2016-10-07T07:32:54Z</time>
      </trkpt>
      <trkpt lat="44.90346" lon="8.60859">
        <ele>64.55</ele>
        <time>2016-10-07T07:33:10Z</time>
      </trkpt>
      <trkpt lat="44.90339" lon="8.60832">
        <ele>64.55</ele>
        <time>2016-10-07T07:33:13Z</time>
      </trkpt>
      <trkpt lat="44.90338" lon="8.60822">
        <ele>64.55</ele>
        <time>2016-10-07T07:33:14Z</time>
      </trkpt>
      <trkpt lat="44.90337" lon="8.60813">
        <ele>64.07</ele>
        <time>2016-10-07T07:33:15Z</time>
      </trkpt>
      <trkpt lat="44.90337" lon="8.60803">
        <ele>64.07</ele>
        <time>2016-10-07T07:33:16Z</time>
      </trkpt>
      <trkpt lat="44.90338" lon="8.60794">
        <ele>64.07</ele>
        <time>2016-10-07T07:33:17Z</time>
      </trkpt>
      <trkpt lat="44.90359" lon="8.60696">
        <ele>63.1</ele>
        <time>2016-10-07T07:33:28Z</time>
      </trkpt>
      <trkpt lat="44.90357" lon="8.60688">
        <ele>62.62</ele>
        <time>2016-10-07T07:33:29Z</time>
      </trkpt>
      <trkpt lat="44.90355" lon="8.6068">
        <ele>63.1</ele>
        <time>2016-10-07T07:33:30Z</time>
      </trkpt>
      <trkpt lat="44.90352" lon="8.60674">
        <ele>63.1</ele>
        <time>2016-10-07T07:33:31Z</time>
      </trkpt>
      <trkpt lat="44.90348" lon="8.60668">
        <ele>63.1</ele>
        <time>2016-10-07T07:33:32Z</time>
      </trkpt>
      <trkpt lat="44.90343" lon="8.60663">
        <ele>63.1</ele>
        <time>2016-10-07T07:33:33Z</time>
      </trkpt>
      <trkpt lat="44.90338" lon="8.60657">
        <ele>62.62</ele>
        <time>2016-10-07T07:33:34Z</time>
      </trkpt>
      <trkpt lat="44.90278" lon="8.60583">
        <ele>61.66</ele>
        <time>2016-10-07T07:33:48Z</time>
      </trkpt>
      <trkpt lat="44.90275" lon="8.60577">
        <ele>63.1</ele>
        <time>2016-10-07T07:33:49Z</time>
      </trkpt>
      <trkpt lat="44.90271" lon="8.60573">
        <ele>62.62</ele>
        <time>2016-10-07T07:33:50Z</time>
      </trkpt>
      <trkpt lat="44.90267" lon="8.60569">
        <ele>62.62</ele>
        <time>2016-10-07T07:33:51Z</time>
      </trkpt>
      <trkpt lat="44.90265" lon="8.60566">
        <ele>63.1</ele>
        <time>2016-10-07T07:33:52Z</time>
      </trkpt>
      <trkpt lat="44.90263" lon="8.60563">
        <ele>62.14</ele>
        <time>2016-10-07T07:33:53Z</time>
      </trkpt>
      <trkpt lat="44.90261" lon="8.6056">
        <ele>62.62</ele>
        <time>2016-10-07T07:33:54Z</time>
      </trkpt>
      <trkpt lat="44.90225" lon="8.60515">
        <ele>62.14</ele>
        <time>2016-10-07T07:34:07Z</time>
      </trkpt>
      <trkpt lat="44.90182" lon="8.60463">
        <ele>63.1</ele>
        <time>2016-10-07T07:34:19Z</time>
      </trkpt>
      <trkpt lat="44.90154" lon="8.60431">
        <ele>63.1</ele>
        <time>2016-10-07T07:34:26Z</time>
      </trkpt>
      <trkpt lat="44.9015" lon="8.60426">
        <ele>62.62</ele>
        <time>2016-10-07T07:34:27Z</time>
      </trkpt>
      <trkpt lat="44.90117" lon="8.6039">
        <ele>63.1</ele>
        <time>2016-10-07T07:34:35Z</time>
      </trkpt>
      <trkpt lat="44.90086" lon="8.60355">
        <ele>63.1</ele>
        <time>2016-10-07T07:34:43Z</time>
      </trkpt>
      <trkpt lat="44.90082" lon="8.60354">
        <ele>63.1</ele>
        <time>2016-10-07T07:34:44Z</time>
      </trkpt>
      <trkpt lat="44.90079" lon="8.60354">
        <ele>63.1</ele>
        <time>2016-10-07T07:34:45Z</time>
      </trkpt>
      <trkpt lat="44.90076" lon="8.60357">
        <ele>62.62</ele>
        <time>2016-10-07T07:34:46Z</time>
      </trkpt>
      <trkpt lat="44.90074" lon="8.60362">
        <ele>63.1</ele>
        <time>2016-10-07T07:34:47Z</time>
      </trkpt>
      <trkpt lat="44.90072" lon="8.60367">
        <ele>62.62</ele>
        <time>2016-10-07T07:34:48Z</time>
      </trkpt>
      <trkpt lat="44.90069" lon="8.60373">
        <ele>62.62</ele>
        <time>2016-10-07T07:34:49Z</time>
      </trkpt>
      <trkpt lat="44.90067" lon="8.60379">
        <ele>62.14</ele>
        <time>2016-10-07T07:34:50Z</time>
      </trkpt>
      <trkpt lat="44.90065" lon="8.60385">
        <ele>62.14</ele>
        <time>2016-10-07T07:34:51Z</time>
      </trkpt>
      <trkpt lat="44.90051" lon="8.60425">
        <ele>62.62</ele>
        <time>2016-10-07T07:34:57Z</time>
      </trkpt>
      <trkpt lat="44.90018" lon="8.60514">
        <ele>63.1</ele>
        <time>2016-10-07T07:35:11Z</time>
      </trkpt>
      <trkpt lat="44.90013" lon="8.60535">
        <ele>63.1</ele>
        <time>2016-10-07T07:35:14Z</time>
      </trkpt>
      <trkpt lat="44.89979" lon="8.6061">
        <ele>63.58</ele>
        <time>2016-10-07T07:35:26Z</time>
      </trkpt>
      <trkpt lat="44.89975" lon="8.60615">
        <ele>63.58</ele>
        <time>2016-10-07T07:35:27Z</time>
      </trkpt>
      <trkpt lat="44.8997" lon="8.60619">
        <ele>63.58</ele>
        <time>2016-10-07T07:35:28Z</time>
      </trkpt>
      <trkpt lat="44.89966" lon="8.60623">
        <ele>64.07</ele>
        <time>2016-10-07T07:35:29Z</time>
      </trkpt>
      <trkpt lat="44.89961" lon="8.60625">
        <ele>64.07</ele>
        <time>2016-10-07T07:35:30Z</time>
      </trkpt>
      <trkpt lat="44.89956" lon="8.60627">
        <ele>63.58</ele>
        <time>2016-10-07T07:35:31Z</time>
      </trkpt>
      <trkpt lat="44.8995" lon="8.60628">
        <ele>64.07</ele>
        <time>2016-10-07T07:35:32Z</time>
      </trkpt>
      <trkpt lat="44.89945" lon="8.60627">
        <ele>64.07</ele>
        <time>2016-10-07T07:35:33Z</time>
      </trkpt>
      <trkpt lat="44.89939" lon="8.60625">
        <ele>63.58</ele>
        <time>2016-10-07T07:35:34Z</time>
      </trkpt>
      <trkpt lat="44.89934" lon="8.60622">
        <ele>64.07</ele>
        <time>2016-10-07T07:35:35Z</time>
      </trkpt>
      <trkpt lat="44.89919" lon="8.60613">
        <ele>63.58</ele>
        <time>2016-10-07T07:35:38Z</time>
      </trkpt>
      <trkpt lat="44.899" lon="8.60596">
        <ele>64.07</ele>
        <time>2016-10-07T07:35:42Z</time>
      </trkpt>
      <trkpt lat="44.89894" lon="8.60593">
        <ele>63.58</ele>
        <time>2016-10-07T07:35:43Z</time>
      </trkpt>
      <trkpt lat="44.89889" lon="8.6059">
        <ele>63.58</ele>
        <time>2016-10-07T07:35:44Z</time>
      </trkpt>
      <trkpt lat="44.89815" lon="8.60541">
        <ele>64.07</ele>
        <time>2016-10-07T07:35:58Z</time>
      </trkpt>
      <trkpt lat="44.89803" lon="8.60536">
        <ele>63.58</ele>
        <time>2016-10-07T07:36:00Z</time>
      </trkpt>
      <trkpt lat="44.89774" lon="8.60527">
        <ele>64.07</ele>
        <time>2016-10-07T07:36:05Z</time>
      </trkpt>
      <trkpt lat="44.89708" lon="8.60511">
        <ele>64.55</ele>
        <time>2016-10-07T07:36:17Z</time>
      </trkpt>
      <trkpt lat="44.89703" lon="8.60509">
        <ele>64.55</ele>
        <time>2016-10-07T07:36:18Z</time>
      </trkpt>
      <trkpt lat="44.89663" lon="8.60494">
        <ele>65.03</ele>
        <time>2016-10-07T07:36:25Z</time>
      </trkpt>
      <trkpt lat="44.89659" lon="8.6049">
        <ele>65.03</ele>
        <time>2016-10-07T07:36:26Z</time>
      </trkpt>
      <trkpt lat="44.8964" lon="8.60459">
        <ele>64.55</ele>
        <time>2016-10-07T07:36:31Z</time>
      </trkpt>
      <trkpt lat="44.89606" lon="8.60387">
        <ele>65.51</ele>
        <time>2016-10-07T07:36:42Z</time>
      </trkpt>
      <trkpt lat="44.896" lon="8.60374">
        <ele>65.51</ele>
        <time>2016-10-07T07:36:44Z</time>
      </trkpt>
      <trkpt lat="44.89597" lon="8.60368">
        <ele>65.03</ele>
        <time>2016-10-07T07:36:45Z</time>
      </trkpt>
      <trkpt lat="44.8958" lon="8.60336">
        <ele>65.51</ele>
        <time>2016-10-07T07:36:50Z</time>
      </trkpt>
      <trkpt lat="44.89577" lon="8.60329">
        <ele>65.51</ele>
        <time>2016-10-07T07:36:51Z</time>
      </trkpt>
      <trkpt lat="44.89575" lon="8.60323">
        <ele>65.51</ele>
        <time>2016-10-07T07:36:52Z</time>
      </trkpt>
      <trkpt lat="44.89559" lon="8.6029">
        <ele>65.03</ele>
        <time>2016-10-07T07:36:57Z</time>
      </trkpt>
      <trkpt lat="44.89552" lon="8.60278">
        <ele>66.95</ele>
        <time>2016-10-07T07:36:59Z</time>
      </trkpt>
      <trkpt lat="44.89513" lon="8.60198">
        <ele>65.99</ele>
        <time>2016-10-07T07:37:11Z</time>
      </trkpt>
      <trkpt lat="44.89482" lon="8.60134">
        <ele>65.99</ele>
        <time>2016-10-07T07:37:21Z</time>
      </trkpt>
      <trkpt lat="44.89478" lon="8.60128">
        <ele>65.51</ele>
        <time>2016-10-07T07:37:22Z</time>
      </trkpt>
      <trkpt lat="44.89475" lon="8.60123">
        <ele>66.47</ele>
        <time>2016-10-07T07:37:23Z</time>
      </trkpt>
      <trkpt lat="44.89457" lon="8.60095">
        <ele>66.47</ele>
        <time>2016-10-07T07:37:32Z</time>
      </trkpt>
      <trkpt lat="44.89455" lon="8.60095">
        <ele>66.47</ele>
        <time>2016-10-07T07:37:33Z</time>
      </trkpt>
      <trkpt lat="44.89452" lon="8.60096">
        <ele>66.95</ele>
        <time>2016-10-07T07:37:34Z</time>
      </trkpt>
      <trkpt lat="44.89421" lon="8.60131">
        <ele>66.47</ele>
        <time>2016-10-07T07:37:46Z</time>
      </trkpt>
      <trkpt lat="44.89385" lon="8.60174">
        <ele>65.99</ele>
        <time>2016-10-07T07:37:56Z</time>
      </trkpt>
      <trkpt lat="44.89381" lon="8.60178">
        <ele>66.47</ele>
        <time>2016-10-07T07:37:57Z</time>
      </trkpt>
      <trkpt lat="44.89357" lon="8.6019">
        <ele>66.47</ele>
        <time>2016-10-07T07:38:02Z</time>
      </trkpt>
      <trkpt lat="44.89351" lon="8.6019">
        <ele>65.99</ele>
        <time>2016-10-07T07:38:03Z</time>
      </trkpt>
      <trkpt lat="44.89346" lon="8.6019">
        <ele>66.47</ele>
        <time>2016-10-07T07:38:04Z</time>
      </trkpt>
      <trkpt lat="44.89341" lon="8.60189">
        <ele>65.99</ele>
        <time>2016-10-07T07:38:05Z</time>
      </trkpt>
      <trkpt lat="44.89336" lon="8.60187">
        <ele>65.03</ele>
        <time>2016-10-07T07:38:06Z</time>
      </trkpt>
      <trkpt lat="44.89332" lon="8.60185">
        <ele>65.99</ele>
        <time>2016-10-07T07:38:07Z</time>
      </trkpt>
      <trkpt lat="44.89328" lon="8.60183">
        <ele>65.99</ele>
        <time>2016-10-07T07:38:08Z</time>
      </trkpt>
      <trkpt lat="44.89261" lon="8.6016">
        <ele>66.47</ele>
        <time>2016-10-07T07:38:24Z</time>
      </trkpt>
      <trkpt lat="44.89239" lon="8.60156">
        <ele>66.95</ele>
        <time>2016-10-07T07:38:32Z</time>
      </trkpt>
      <trkpt lat="44.89238" lon="8.60154">
        <ele>66.95</ele>
        <time>2016-10-07T07:38:33Z</time>
      </trkpt>
      <trkpt lat="44.89236" lon="8.60153">
        <ele>66.95</ele>
        <time>2016-10-07T07:38:34Z</time>
      </trkpt>
      <trkpt lat="44.89233" lon="8.60152">
        <ele>66.95</ele>
        <time>2016-10-07T07:38:48Z</time>
      </trkpt>
      <trkpt lat="44.89234" lon="8.60152">
        <ele>67.43</ele>
        <time>2016-10-07T07:39:28Z</time>
      </trkpt>
      <trkpt lat="44.89233" lon="8.60159">
        <ele>67.91</ele>
        <time>2016-10-07T07:40:07Z</time>
      </trkpt>
      <trkpt lat="44.89232" lon="8.60162">
        <ele>68.39</ele>
        <time>2016-10-07T07:40:46Z</time>
      </trkpt>
      <trkpt lat="44.89228" lon="8.60157">
        <ele>67.91</ele>
        <time>2016-10-07T07:41:19Z</time>
      </trkpt>
      <trkpt lat="44.89227" lon="8.60155">
        <ele>69.83</ele>
        <time>2016-10-07T07:41:55Z</time>
      </trkpt>
      <trkpt lat="44.89225" lon="8.60153">
        <ele>69.35</ele>
        <time>2016-10-07T07:42:25Z</time>
      </trkpt>
      <trkpt lat="44.89226" lon="8.60152">
        <ele>69.83</ele>
        <time>2016-10-07T07:42:59Z</time>
      </trkpt>
      <trkpt lat="44.89226" lon="8.60152">
        <ele>70.31</ele>
        <time>2016-10-07T07:43:03Z</time>
      </trkpt>
      <trkpt lat="44.89224" lon="8.60152">
        <ele>69.35</ele>
        <time>2016-10-07T07:43:05Z</time>
      </trkpt>
      <trkpt lat="44.89223" lon="8.60151">
        <ele>69.83</ele>
        <time>2016-10-07T07:43:06Z</time>
      </trkpt>
      <trkpt lat="44.89221" lon="8.60151">
        <ele>69.83</ele>
        <time>2016-10-07T07:43:07Z</time>
      </trkpt>
      <trkpt lat="44.89219" lon="8.6015">
        <ele>70.79</ele>
        <time>2016-10-07T07:43:08Z</time>
      </trkpt>
      <trkpt lat="44.89191" lon="8.60142">
        <ele>69.83</ele>
        <time>2016-10-07T07:43:19Z</time>
      </trkpt>
      <trkpt lat="44.89179" lon="8.60137">
        <ele>69.83</ele>
        <time>2016-10-07T07:43:22Z</time>
      </trkpt>
      <trkpt lat="44.89175" lon="8.60134">
        <ele>68.87</ele>
        <time>2016-10-07T07:43:23Z</time>
      </trkpt>
      <trkpt lat="44.89107" lon="8.60081">
        <ele>70.31</ele>
        <time>2016-10-07T07:43:40Z</time>
      </trkpt>
      <trkpt lat="44.89042" lon="8.60029">
        <ele>71.27</ele>
        <time>2016-10-07T07:43:54Z</time>
      </trkpt>
      <trkpt lat="44.88973" lon="8.59975">
        <ele>70.31</ele>
        <time>2016-10-07T07:44:08Z</time>
      </trkpt>
      <trkpt lat="44.88932" lon="8.59941">
        <ele>71.27</ele>
        <time>2016-10-07T07:44:18Z</time>
      </trkpt>
      <trkpt lat="44.88865" lon="8.59888">
        <ele>71.76</ele>
        <time>2016-10-07T07:44:34Z</time>
      </trkpt>
      <trkpt lat="44.88801" lon="8.59835">
        <ele>72.24</ele>
        <time>2016-10-07T07:44:49Z</time>
      </trkpt>
      <trkpt lat="44.88703" lon="8.59759">
        <ele>72.24</ele>
        <time>2016-10-07T07:45:11Z</time>
      </trkpt>
      <trkpt lat="44.88604" lon="8.5968">
        <ele>73.2</ele>
        <time>2016-10-07T07:45:34Z</time>
      </trkpt>
      <trkpt lat="44.88545" lon="8.59642">
        <ele>73.2</ele>
        <time>2016-10-07T07:45:49Z</time>
      </trkpt>
      <trkpt lat="44.8854" lon="8.5964">
        <ele>72.72</ele>
        <time>2016-10-07T07:45:50Z</time>
      </trkpt>
      <trkpt lat="44.88433" lon="8.59625">
        <ele>73.68</ele>
        <time>2016-10-07T07:46:07Z</time>
      </trkpt>
      <trkpt lat="44.88309" lon="8.59611">
        <ele>74.64</ele>
        <time>2016-10-07T07:46:26Z</time>
      </trkpt>
      <trkpt lat="44.88291" lon="8.59604">
        <ele>73.68</ele>
        <time>2016-10-07T07:46:29Z</time>
      </trkpt>
      <trkpt lat="44.88221" lon="8.59548">
        <ele>74.64</ele>
        <time>2016-10-07T07:46:42Z</time>
      </trkpt>
      <trkpt lat="44.88133" lon="8.59484">
        <ele>74.64</ele>
        <time>2016-10-07T07:46:58Z</time>
      </trkpt>
      <trkpt lat="44.88127" lon="8.59482">
        <ele>74.16</ele>
        <time>2016-10-07T07:46:59Z</time>
      </trkpt>
      <trkpt lat="44.88121" lon="8.5948">
        <ele>74.64</ele>
        <time>2016-10-07T07:47:00Z</time>
      </trkpt>
      <trkpt lat="44.88035" lon="8.59494">
        <ele>74.64</ele>
        <time>2016-10-07T07:47:14Z</time>
      </trkpt>
      <trkpt lat="44.8792" lon="8.59561">
        <ele>75.12</ele>
        <time>2016-10-07T07:47:34Z</time>
      </trkpt>
      <trkpt lat="44.87854" lon="8.59595">
        <ele>76.08</ele>
        <time>2016-10-07T07:47:49Z</time>
      </trkpt>
      <trkpt lat="44.87815" lon="8.59621">
        <ele>77.04</ele>
        <time>2016-10-07T07:48:00Z</time>
      </trkpt>
      <trkpt lat="44.87724" lon="8.5968">
        <ele>78.48</ele>
        <time>2016-10-07T07:48:21Z</time>
      </trkpt>
      <trkpt lat="44.87644" lon="8.59748">
        <ele>78.48</ele>
        <time>2016-10-07T07:48:38Z</time>
      </trkpt>
      <trkpt lat="44.87559" lon="8.5985">
        <ele>78.48</ele>
        <time>2016-10-07T07:48:57Z</time>
      </trkpt>
      <trkpt lat="44.87489" lon="8.59992">
        <ele>78.97</ele>
        <time>2016-10-07T07:49:17Z</time>
      </trkpt>
      <trkpt lat="44.87436" lon="8.60106">
        <ele>80.41</ele>
        <time>2016-10-07T07:49:34Z</time>
      </trkpt>
      <trkpt lat="44.87392" lon="8.60202">
        <ele>81.85</ele>
        <time>2016-10-07T07:49:50Z</time>
      </trkpt>
      <trkpt lat="44.87355" lon="8.60271">
        <ele>83.29</ele>
        <time>2016-10-07T07:50:02Z</time>
      </trkpt>
      <trkpt lat="44.87263" lon="8.60381">
        <ele>83.77</ele>
        <time>2016-10-07T07:50:24Z</time>
      </trkpt>
      <trkpt lat="44.87218" lon="8.60431">
        <ele>83.29</ele>
        <time>2016-10-07T07:50:35Z</time>
      </trkpt>
      <trkpt lat="44.87213" lon="8.60434">
        <ele>83.77</ele>
        <time>2016-10-07T07:50:36Z</time>
      </trkpt>
      <trkpt lat="44.87208" lon="8.60435">
        <ele>83.77</ele>
        <time>2016-10-07T07:50:37Z</time>
      </trkpt>
      <trkpt lat="44.87204" lon="8.60434">
        <ele>83.77</ele>
        <time>2016-10-07T07:50:38Z</time>
      </trkpt>
      <trkpt lat="44.87199" lon="8.60432">
        <ele>83.29</ele>
        <time>2016-10-07T07:50:39Z</time>
      </trkpt>
      <trkpt lat="44.87194" lon="8.60429">
        <ele>83.29</ele>
        <time>2016-10-07T07:50:40Z</time>
      </trkpt>
      <trkpt lat="44.8719" lon="8.60425">
        <ele>83.29</ele>
        <time>2016-10-07T07:50:41Z</time>
      </trkpt>
      <trkpt lat="44.87186" lon="8.60421">
        <ele>82.81</ele>
        <time>2016-10-07T07:50:42Z</time>
      </trkpt>
      <trkpt lat="44.87107" lon="8.60324">
        <ele>81.37</ele>
        <time>2016-10-07T07:50:59Z</time>
      </trkpt>
      <trkpt lat="44.87078" lon="8.60288">
        <ele>77.52</ele>
        <time>2016-10-07T07:51:05Z</time>
      </trkpt>
      <trkpt lat="44.87073" lon="8.60282">
        <ele>78.97</ele>
        <time>2016-10-07T07:51:06Z</time>
      </trkpt>
      <trkpt lat="44.87063" lon="8.60271">
        <ele>80.89</ele>
        <time>2016-10-07T07:51:08Z</time>
      </trkpt>
      <trkpt lat="44.87013" lon="8.6021">
        <ele>77.52</ele>
        <time>2016-10-07T07:51:19Z</time>
      </trkpt>
      <trkpt lat="44.86965" lon="8.60151">
        <ele>80.89</ele>
        <time>2016-10-07T07:51:31Z</time>
      </trkpt>
      <trkpt lat="44.86896" lon="8.60071">
        <ele>80.41</ele>
        <time>2016-10-07T07:51:46Z</time>
      </trkpt>
      <trkpt lat="44.86885" lon="8.60062">
        <ele>79.45</ele>
        <time>2016-10-07T07:51:48Z</time>
      </trkpt>
      <trkpt lat="44.8687" lon="8.60048">
        <ele>79.45</ele>
        <time>2016-10-07T07:51:51Z</time>
      </trkpt>
      <trkpt lat="44.86865" lon="8.60045">
        <ele>79.45</ele>
        <time>2016-10-07T07:51:52Z</time>
      </trkpt>
      <trkpt lat="44.86859" lon="8.60043">
        <ele>79.45</ele>
        <time>2016-10-07T07:51:53Z</time>
      </trkpt>
      <trkpt lat="44.8676" lon="8.60032">
        <ele>79.45</ele>
        <time>2016-10-07T07:52:09Z</time>
      </trkpt>
      <trkpt lat="44.8665" lon="8.6">
        <ele>79.45</ele>
        <time>2016-10-07T07:52:27Z</time>
      </trkpt>
      <trkpt lat="44.86548" lon="8.59945">
        <ele>78.97</ele>
        <time>2016-10-07T07:52:44Z</time>
      </trkpt>
      <trkpt lat="44.86441" lon="8.59889">
        <ele>79.45</ele>
        <time>2016-10-07T07:53:03Z</time>
      </trkpt>
      <trkpt lat="44.86318" lon="8.59823">
        <ele>79.45</ele>
        <time>2016-10-07T07:53:25Z</time>
      </trkpt>
      <trkpt lat="44.86207" lon="8.59779">
        <ele>80.41</ele>
        <time>2016-10-07T07:53:44Z</time>
      </trkpt>
      <trkpt lat="44.8611" lon="8.59797">
        <ele>79.93</ele>
        <time>2016-10-07T07:54:00Z</time>
      </trkpt>
      <trkpt lat="44.86013" lon="8.59821">
        <ele>80.89</ele>
        <time>2016-10-07T07:54:16Z</time>
      </trkpt>
      <trkpt lat="44.8591" lon="8.59799">
        <ele>80.89</ele>
        <time>2016-10-07T07:54:33Z</time>
      </trkpt>
      <trkpt lat="44.85815" lon="8.59746">
        <ele>81.85</ele>
        <time>2016-10-07T07:54:50Z</time>
      </trkpt>
      <trkpt lat="44.85694" lon="8.59635">
        <ele>81.37</ele>
        <time>2016-10-07T07:55:14Z</time>
      </trkpt>
      <trkpt lat="44.85594" lon="8.59543">
        <ele>81.37</ele>
        <time>2016-10-07T07:55:34Z</time>
      </trkpt>
      <trkpt lat="44.85542" lon="8.59495">
        <ele>83.77</ele>
        <time>2016-10-07T07:55:47Z</time>
      </trkpt>
      <trkpt lat="44.85505" lon="8.59455">
        <ele>87.14</ele>
        <time>2016-10-07T07:56:01Z</time>
      </trkpt>
      <trkpt lat="44.85477" lon="8.59401">
        <ele>89.54</ele>
        <time>2016-10-07T07:56:16Z</time>
      </trkpt>
      <trkpt lat="44.85459" lon="8.59336">
        <ele>89.54</ele>
        <time>2016-10-07T07:56:30Z</time>
      </trkpt>
      <trkpt lat="44.85449" lon="8.59295">
        <ele>89.06</ele>
        <time>2016-10-07T07:56:36Z</time>
      </trkpt>
      <trkpt lat="44.8545" lon="8.59231">
        <ele>87.14</ele>
        <time>2016-10-07T07:56:43Z</time>
      </trkpt>
      <trkpt lat="44.85455" lon="8.59133">
        <ele>83.77</ele>
        <time>2016-10-07T07:56:52Z</time>
      </trkpt>
      <trkpt lat="44.85465" lon="8.58988">
        <ele>82.81</ele>
        <time>2016-10-07T07:57:05Z</time>
      </trkpt>
      <trkpt lat="44.85472" lon="8.58793">
        <ele>82.81</ele>
        <time>2016-10-07T07:57:26Z</time>
      </trkpt>
      <trkpt lat="44.85474" lon="8.58775">
        <ele>82.81</ele>
        <time>2016-10-07T07:57:28Z</time>
      </trkpt>
      <trkpt lat="44.85475" lon="8.58757">
        <ele>82.33</ele>
        <time>2016-10-07T07:57:30Z</time>
      </trkpt>
      <trkpt lat="44.85464" lon="8.58622">
        <ele>82.81</ele>
        <time>2016-10-07T07:57:46Z</time>
      </trkpt>
      <trkpt lat="44.85437" lon="8.58462">
        <ele>82.33</ele>
        <time>2016-10-07T07:58:05Z</time>
      </trkpt>
      <trkpt lat="44.85408" lon="8.58371">
        <ele>82.81</ele>
        <time>2016-10-07T07:58:17Z</time>
      </trkpt>
      <trkpt lat="44.85405" lon="8.58366">
        <ele>83.29</ele>
        <time>2016-10-07T07:58:18Z</time>
      </trkpt>
      <trkpt lat="44.85355" lon="8.58308">
        <ele>82.81</ele>
        <time>2016-10-07T07:58:29Z</time>
      </trkpt>
      <trkpt lat="44.8535" lon="8.58304">
        <ele>82.81</ele>
        <time>2016-10-07T07:58:30Z</time>
      </trkpt>
      <trkpt lat="44.85345" lon="8.58301">
        <ele>83.29</ele>
        <time>2016-10-07T07:58:31Z</time>
      </trkpt>
      <trkpt lat="44.8534" lon="8.58299">
        <ele>82.33</ele>
        <time>2016-10-07T07:58:32Z</time>
      </trkpt>
      <trkpt lat="44.85335" lon="8.58296">
        <ele>82.81</ele>
        <time>2016-10-07T07:58:33Z</time>
      </trkpt>
      <trkpt lat="44.85288" lon="8.58273">
        <ele>83.77</ele>
        <time>2016-10-07T07:58:42Z</time>
      </trkpt>
      <trkpt lat="44.85246" lon="8.58238">
        <ele>83.77</ele>
        <time>2016-10-07T07:58:51Z</time>
      </trkpt>
      <trkpt lat="44.85164" lon="8.58126">
        <ele>84.25</ele>
        <time>2016-10-07T07:59:12Z</time>
      </trkpt>
      <trkpt lat="44.85122" lon="8.58035">
        <ele>84.25</ele>
        <time>2016-10-07T07:59:26Z</time>
      </trkpt>
      <trkpt lat="44.85079" lon="8.57947">
        <ele>84.73</ele>
        <time>2016-10-07T07:59:40Z</time>
      </trkpt>
      <trkpt lat="44.85075" lon="8.57942">
        <ele>84.25</ele>
        <time>2016-10-07T07:59:41Z</time>
      </trkpt>
      <trkpt lat="44.8507" lon="8.57938">
        <ele>84.25</ele>
        <time>2016-10-07T07:59:42Z</time>
      </trkpt>
      <trkpt lat="44.85065" lon="8.57936">
        <ele>84.25</ele>
        <time>2016-10-07T07:59:43Z</time>
      </trkpt>
      <trkpt lat="44.85059" lon="8.57935">
        <ele>84.25</ele>
        <time>2016-10-07T07:59:44Z</time>
      </trkpt>
      <trkpt lat="44.85053" lon="8.57936">
        <ele>84.73</ele>
        <time>2016-10-07T07:59:45Z</time>
      </trkpt>
      <trkpt lat="44.85047" lon="8.57937">
        <ele>84.73</ele>
        <time>2016-10-07T07:59:46Z</time>
      </trkpt>
      <trkpt lat="44.85042" lon="8.5794">
        <ele>85.21</ele>
        <time>2016-10-07T07:59:47Z</time>
      </trkpt>
      <trkpt lat="44.85037" lon="8.57943">
        <ele>85.21</ele>
        <time>2016-10-07T07:59:48Z</time>
      </trkpt>
      <trkpt lat="44.84961" lon="8.57992">
        <ele>84.73</ele>
        <time>2016-10-07T08:00:03Z</time>
      </trkpt>
      <trkpt lat="44.84956" lon="8.57992">
        <ele>84.25</ele>
        <time>2016-10-07T08:00:04Z</time>
      </trkpt>
      <trkpt lat="44.84951" lon="8.5799">
        <ele>84.25</ele>
        <time>2016-10-07T08:00:05Z</time>
      </trkpt>
      <trkpt lat="44.84946" lon="8.57987">
        <ele>84.25</ele>
        <time>2016-10-07T08:00:06Z</time>
      </trkpt>
      <trkpt lat="44.84942" lon="8.57983">
        <ele>84.25</ele>
        <time>2016-10-07T08:00:07Z</time>
      </trkpt>
      <trkpt lat="44.84938" lon="8.57979">
        <ele>84.25</ele>
        <time>2016-10-07T08:00:08Z</time>
      </trkpt>
      <trkpt lat="44.84935" lon="8.57974">
        <ele>84.73</ele>
        <time>2016-10-07T08:00:09Z</time>
      </trkpt>
      <trkpt lat="44.8491" lon="8.57936">
        <ele>85.21</ele>
        <time>2016-10-07T08:00:16Z</time>
      </trkpt>
      <trkpt lat="44.84877" lon="8.57872">
        <ele>85.21</ele>
        <time>2016-10-07T08:00:27Z</time>
      </trkpt>
      <trkpt lat="44.84829" lon="8.578">
        <ele>85.21</ele>
        <time>2016-10-07T08:00:41Z</time>
      </trkpt>
      <trkpt lat="44.84793" lon="8.57756">
        <ele>85.21</ele>
        <time>2016-10-07T08:00:51Z</time>
      </trkpt>
      <trkpt lat="44.84785" lon="8.57748">
        <ele>84.73</ele>
        <time>2016-10-07T08:00:53Z</time>
      </trkpt>
      <trkpt lat="44.84765" lon="8.57728">
        <ele>84.25</ele>
        <time>2016-10-07T08:00:58Z</time>
      </trkpt>
      <trkpt lat="44.84762" lon="8.57724">
        <ele>84.73</ele>
        <time>2016-10-07T08:00:59Z</time>
      </trkpt>
      <trkpt lat="44.84739" lon="8.57696">
        <ele>85.21</ele>
        <time>2016-10-07T08:01:06Z</time>
      </trkpt>
      <trkpt lat="44.84736" lon="8.57692">
        <ele>86.18</ele>
        <time>2016-10-07T08:01:07Z</time>
      </trkpt>
      <trkpt lat="44.84732" lon="8.57688">
        <ele>85.69</ele>
        <time>2016-10-07T08:01:08Z</time>
      </trkpt>
      <trkpt lat="44.84728" lon="8.57685">
        <ele>85.69</ele>
        <time>2016-10-07T08:01:09Z</time>
      </trkpt>
      <trkpt lat="44.84725" lon="8.57681">
        <ele>85.69</ele>
        <time>2016-10-07T08:01:10Z</time>
      </trkpt>
      <trkpt lat="44.84722" lon="8.57676">
        <ele>85.21</ele>
        <time>2016-10-07T08:01:11Z</time>
      </trkpt>
      <trkpt lat="44.84719" lon="8.57673">
        <ele>85.69</ele>
        <time>2016-10-07T08:01:12Z</time>
      </trkpt>
      <trkpt lat="44.84716" lon="8.57669">
        <ele>85.21</ele>
        <time>2016-10-07T08:01:13Z</time>
      </trkpt>
      <trkpt lat="44.84706" lon="8.57663">
        <ele>86.18</ele>
        <time>2016-10-07T08:01:22Z</time>
      </trkpt>
      <trkpt lat="44.84706" lon="8.57662">
        <ele>86.18</ele>
        <time>2016-10-07T08:01:39Z</time>
      </trkpt>
      <trkpt lat="44.84705" lon="8.57662">
        <ele>86.18</ele>
        <time>2016-10-07T08:01:57Z</time>
      </trkpt>
      <trkpt lat="44.84704" lon="8.57664">
        <ele>86.18</ele>
        <time>2016-10-07T08:02:26Z</time>
      </trkpt>
      <trkpt lat="44.84703" lon="8.57666">
        <ele>86.66</ele>
        <time>2016-10-07T08:02:52Z</time>
      </trkpt>
      <trkpt lat="44.847" lon="8.57667">
        <ele>86.66</ele>
        <time>2016-10-07T08:03:11Z</time>
      </trkpt>
      <trkpt lat="44.84699" lon="8.57672">
        <ele>87.62</ele>
        <time>2016-10-07T08:03:47Z</time>
      </trkpt>
      <trkpt lat="44.84699" lon="8.57674">
        <ele>87.62</ele>
        <time>2016-10-07T08:04:18Z</time>
      </trkpt>
      <trkpt lat="44.84699" lon="8.57675">
        <ele>88.1</ele>
        <time>2016-10-07T08:04:46Z</time>
      </trkpt>
      <trkpt lat="44.84699" lon="8.57671">
        <ele>88.1</ele>
        <time>2016-10-07T08:04:52Z</time>
      </trkpt>
      <trkpt lat="44.84697" lon="8.57671">
        <ele>88.58</ele>
        <time>2016-10-07T08:04:53Z</time>
      </trkpt>
      <trkpt lat="44.84695" lon="8.57672">
        <ele>88.58</ele>
        <time>2016-10-07T08:04:54Z</time>
      </trkpt>
      <trkpt lat="44.84694" lon="8.57673">
        <ele>88.58</ele>
        <time>2016-10-07T08:04:55Z</time>
      </trkpt>
      <trkpt lat="44.84693" lon="8.57675">
        <ele>88.58</ele>
        <time>2016-10-07T08:04:56Z</time>
      </trkpt>
      <trkpt lat="44.84692" lon="8.57676">
        <ele>89.06</ele>
        <time>2016-10-07T08:04:57Z</time>
      </trkpt>
      <trkpt lat="44.84691" lon="8.57678">
        <ele>88.1</ele>
        <time>2016-10-07T08:04:58Z</time>
      </trkpt>
      <trkpt lat="44.84689" lon="8.57679">
        <ele>89.06</ele>
        <time>2016-10-07T08:04:59Z</time>
      </trkpt>
      <trkpt lat="44.84686" lon="8.5768">
        <ele>88.58</ele>
        <time>2016-10-07T08:05:00Z</time>
      </trkpt>
      <trkpt lat="44.84683" lon="8.5768">
        <ele>89.54</ele>
        <time>2016-10-07T08:05:01Z</time>
      </trkpt>
      <trkpt lat="44.8468" lon="8.57681">
        <ele>88.58</ele>
        <time>2016-10-07T08:05:02Z</time>
      </trkpt>
      <trkpt lat="44.84676" lon="8.57682">
        <ele>88.58</ele>
        <time>2016-10-07T08:05:03Z</time>
      </trkpt>
      <trkpt lat="44.84673" lon="8.57684">
        <ele>88.58</ele>
        <time>2016-10-07T08:05:04Z</time>
      </trkpt>
      <trkpt lat="44.84671" lon="8.57686">
        <ele>89.06</ele>
        <time>2016-10-07T08:05:05Z</time>
      </trkpt>
      <trkpt lat="44.84644" lon="8.57705">
        <ele>89.06</ele>
        <time>2016-10-07T08:05:16Z</time>
      </trkpt>
      <trkpt lat="44.84603" lon="8.5772">
        <ele>89.54</ele>
        <time>2016-10-07T08:05:28Z</time>
      </trkpt>
      <trkpt lat="44.8458" lon="8.57718">
        <ele>89.54</ele>
        <time>2016-10-07T08:05:38Z</time>
      </trkpt>
      <trkpt lat="44.84569" lon="8.57692">
        <ele>90.5</ele>
        <time>2016-10-07T08:05:51Z</time>
      </trkpt>
      <trkpt lat="44.84568" lon="8.57692">
        <ele>90.02</ele>
        <time>2016-10-07T08:06:00Z</time>
      </trkpt>
      <trkpt lat="44.84569" lon="8.57694">
        <ele>90.5</ele>
        <time>2016-10-07T08:06:01Z</time>
      </trkpt>
      <trkpt lat="44.8457" lon="8.57697">
        <ele>90.5</ele>
        <time>2016-10-07T08:06:02Z</time>
      </trkpt>
      <trkpt lat="44.84571" lon="8.57699">
        <ele>90.02</ele>
        <time>2016-10-07T08:06:03Z</time>
      </trkpt>
      <trkpt lat="44.84573" lon="8.57701">
        <ele>90.5</ele>
        <time>2016-10-07T08:06:04Z</time>
      </trkpt>
      <trkpt lat="44.84581" lon="8.57717">
        <ele>90.5</ele>
        <time>2016-10-07T08:06:09Z</time>
      </trkpt>
      <trkpt lat="44.8458" lon="8.57722">
        <ele>90.02</ele>
        <time>2016-10-07T08:06:10Z</time>
      </trkpt>
      <trkpt lat="44.84579" lon="8.57726">
        <ele>90.02</ele>
        <time>2016-10-07T08:06:11Z</time>
      </trkpt>
      <trkpt lat="44.84577" lon="8.57729">
        <ele>89.54</ele>
        <time>2016-10-07T08:06:12Z</time>
      </trkpt>
      <trkpt lat="44.84573" lon="8.57732">
        <ele>90.02</ele>
        <time>2016-10-07T08:06:13Z</time>
      </trkpt>
      <trkpt lat="44.84571" lon="8.57736">
        <ele>90.02</ele>
        <time>2016-10-07T08:06:14Z</time>
      </trkpt>
      <trkpt lat="44.84569" lon="8.57738">
        <ele>90.02</ele>
        <time>2016-10-07T08:06:15Z</time>
      </trkpt>
      <trkpt lat="44.84566" lon="8.5774">
        <ele>90.5</ele>
        <time>2016-10-07T08:06:16Z</time>
      </trkpt>
      <trkpt lat="44.84527" lon="8.57775">
        <ele>90.98</ele>
        <time>2016-10-07T08:06:29Z</time>
      </trkpt>
      <trkpt lat="44.84524" lon="8.57779">
        <ele>90.98</ele>
        <time>2016-10-07T08:06:30Z</time>
      </trkpt>
      <trkpt lat="44.84521" lon="8.57784">
        <ele>91.46</ele>
        <time>2016-10-07T08:06:31Z</time>
      </trkpt>
      <trkpt lat="44.84493" lon="8.57813">
        <ele>91.46</ele>
        <time>2016-10-07T08:06:39Z</time>
      </trkpt>
      <trkpt lat="44.84482" lon="8.57826">
        <ele>91.46</ele>
        <time>2016-10-07T08:06:42Z</time>
      </trkpt>
      <trkpt lat="44.84479" lon="8.57832">
        <ele>91.46</ele>
        <time>2016-10-07T08:06:43Z</time>
      </trkpt>
      <trkpt lat="44.84477" lon="8.57838">
        <ele>91.46</ele>
        <time>2016-10-07T08:06:44Z</time>
      </trkpt>
      <trkpt lat="44.84469" lon="8.57857">
        <ele>90.5</ele>
        <time>2016-10-07T08:06:47Z</time>
      </trkpt>
      <trkpt lat="44.84423" lon="8.57937">
        <ele>90.98</ele>
        <time>2016-10-07T08:07:02Z</time>
      </trkpt>
      <trkpt lat="44.8437" lon="8.58023">
        <ele>90.5</ele>
        <time>2016-10-07T08:07:18Z</time>
      </trkpt>
      <trkpt lat="44.84354" lon="8.5805">
        <ele>91.46</ele>
        <time>2016-10-07T08:07:23Z</time>
      </trkpt>
      <trkpt lat="44.84302" lon="8.5814">
        <ele>91.46</ele>
        <time>2016-10-07T08:07:39Z</time>
      </trkpt>
      <trkpt lat="44.84276" lon="8.58179">
        <ele>92.42</ele>
        <time>2016-10-07T08:07:50Z</time>
      </trkpt>
      <trkpt lat="44.84253" lon="8.58207">
        <ele>91.46</ele>
        <time>2016-10-07T08:08:01Z</time>
      </trkpt>
      <trkpt lat="44.84238" lon="8.58232">
        <ele>91.94</ele>
        <time>2016-10-07T08:08:06Z</time>
      </trkpt>
      <trkpt lat="44.84198" lon="8.58316">
        <ele>91.94</ele>
        <time>2016-10-07T08:08:20Z</time>
      </trkpt>
      <trkpt lat="44.84177" lon="8.58368">
        <ele>92.42</ele>
        <time>2016-10-07T08:08:28Z</time>
      </trkpt>
      <trkpt lat="44.84123" lon="8.58443">
        <ele>92.9</ele>
        <time>2016-10-07T08:08:42Z</time>
      </trkpt>
      <trkpt lat="44.84118" lon="8.58447">
        <ele>92.9</ele>
        <time>2016-10-07T08:08:43Z</time>
      </trkpt>
      <trkpt lat="44.84045" lon="8.58502">
        <ele>92.9</ele>
        <time>2016-10-07T08:08:58Z</time>
      </trkpt>
      <trkpt lat="44.83971" lon="8.58559">
        <ele>92.9</ele>
        <time>2016-10-07T08:09:13Z</time>
      </trkpt>
      <trkpt lat="44.83897" lon="8.58635">
        <ele>93.87</ele>
        <time>2016-10-07T08:09:30Z</time>
      </trkpt>
      <trkpt lat="44.83857" lon="8.58706">
        <ele>93.87</ele>
        <time>2016-10-07T08:09:42Z</time>
      </trkpt>
      <trkpt lat="44.83854" lon="8.58709">
        <ele>93.87</ele>
        <time>2016-10-07T08:09:43Z</time>
      </trkpt>
      <trkpt lat="44.83851" lon="8.58712">
        <ele>93.87</ele>
        <time>2016-10-07T08:09:44Z</time>
      </trkpt>
      <trkpt lat="44.83847" lon="8.58715">
        <ele>93.87</ele>
        <time>2016-10-07T08:09:45Z</time>
      </trkpt>
      <trkpt lat="44.83843" lon="8.58717">
        <ele>93.87</ele>
        <time>2016-10-07T08:09:46Z</time>
      </trkpt>
      <trkpt lat="44.83838" lon="8.58719">
        <ele>93.39</ele>
        <time>2016-10-07T08:09:47Z</time>
      </trkpt>
      <trkpt lat="44.83769" lon="8.58762">
        <ele>93.87</ele>
        <time>2016-10-07T08:10:01Z</time>
      </trkpt>
      <trkpt lat="44.83711" lon="8.5883">
        <ele>94.35</ele>
        <time>2016-10-07T08:10:15Z</time>
      </trkpt>
      <trkpt lat="44.83643" lon="8.58936">
        <ele>94.83</ele>
        <time>2016-10-07T08:10:33Z</time>
      </trkpt>
      <trkpt lat="44.83639" lon="8.58941">
        <ele>94.35</ele>
        <time>2016-10-07T08:10:34Z</time>
      </trkpt>
      <trkpt lat="44.83592" lon="8.58999">
        <ele>94.83</ele>
        <time>2016-10-07T08:10:45Z</time>
      </trkpt>
      <trkpt lat="44.83559" lon="8.59063">
        <ele>93.87</ele>
        <time>2016-10-07T08:10:55Z</time>
      </trkpt>
      <trkpt lat="44.83509" lon="8.59132">
        <ele>95.31</ele>
        <time>2016-10-07T08:11:07Z</time>
      </trkpt>
      <trkpt lat="44.83504" lon="8.59136">
        <ele>94.83</ele>
        <time>2016-10-07T08:11:08Z</time>
      </trkpt>
      <trkpt lat="44.83499" lon="8.59141">
        <ele>94.83</ele>
        <time>2016-10-07T08:11:09Z</time>
      </trkpt>
      <trkpt lat="44.83494" lon="8.59144">
        <ele>94.35</ele>
        <time>2016-10-07T08:11:10Z</time>
      </trkpt>
      <trkpt lat="44.83489" lon="8.59147">
        <ele>94.83</ele>
        <time>2016-10-07T08:11:11Z</time>
      </trkpt>
      <trkpt lat="44.83483" lon="8.59149">
        <ele>94.83</ele>
        <time>2016-10-07T08:11:12Z</time>
      </trkpt>
      <trkpt lat="44.83477" lon="8.59151">
        <ele>93.87</ele>
        <time>2016-10-07T08:11:13Z</time>
      </trkpt>
      <trkpt lat="44.83472" lon="8.59152">
        <ele>94.35</ele>
        <time>2016-10-07T08:11:14Z</time>
      </trkpt>
      <trkpt lat="44.83432" lon="8.59164">
        <ele>95.31</ele>
        <time>2016-10-07T08:11:21Z</time>
      </trkpt>
      <trkpt lat="44.83342" lon="8.59204">
        <ele>95.31</ele>
        <time>2016-10-07T08:11:37Z</time>
      </trkpt>
      <trkpt lat="44.83267" lon="8.59227">
        <ele>95.31</ele>
        <time>2016-10-07T08:11:50Z</time>
      </trkpt>
      <trkpt lat="44.83193" lon="8.59267">
        <ele>96.27</ele>
        <time>2016-10-07T08:12:04Z</time>
      </trkpt>
      <trkpt lat="44.83116" lon="8.59342">
        <ele>95.31</ele>
        <time>2016-10-07T08:12:20Z</time>
      </trkpt>
      <trkpt lat="44.83046" lon="8.594">
        <ele>95.31</ele>
        <time>2016-10-07T08:12:34Z</time>
      </trkpt>
      <trkpt lat="44.83003" lon="8.59423">
        <ele>95.79</ele>
        <time>2016-10-07T08:12:42Z</time>
      </trkpt>
      <trkpt lat="44.82985" lon="8.59437">
        <ele>95.79</ele>
        <time>2016-10-07T08:12:45Z</time>
      </trkpt>
      <trkpt lat="44.82982" lon="8.5944">
        <ele>95.31</ele>
        <time>2016-10-07T08:12:46Z</time>
      </trkpt>
      <trkpt lat="44.82888" lon="8.59467">
        <ele>94.83</ele>
        <time>2016-10-07T08:13:03Z</time>
      </trkpt>
      <trkpt lat="44.82823" lon="8.59524">
        <ele>95.31</ele>
        <time>2016-10-07T08:13:16Z</time>
      </trkpt>
      <trkpt lat="44.8274" lon="8.59652">
        <ele>96.75</ele>
        <time>2016-10-07T08:13:37Z</time>
      </trkpt>
      <trkpt lat="44.82688" lon="8.59731">
        <ele>96.75</ele>
        <time>2016-10-07T08:13:53Z</time>
      </trkpt>
      <trkpt lat="44.82688" lon="8.59735">
        <ele>97.71</ele>
        <time>2016-10-07T08:14:04Z</time>
      </trkpt>
      <trkpt lat="44.82692" lon="8.59735">
        <ele>97.23</ele>
        <time>2016-10-07T08:14:59Z</time>
      </trkpt>
      <trkpt lat="44.82689" lon="8.59734">
        <ele>97.23</ele>
        <time>2016-10-07T08:15:44Z</time>
      </trkpt>
      <trkpt lat="44.8269" lon="8.59734">
        <ele>97.23</ele>
        <time>2016-10-07T08:16:30Z</time>
      </trkpt>
      <trkpt lat="44.82689" lon="8.59735">
        <ele>96.75</ele>
        <time>2016-10-07T08:17:13Z</time>
      </trkpt>
      <trkpt lat="44.82689" lon="8.59736">
        <ele>96.75</ele>
        <time>2016-10-07T08:17:57Z</time>
      </trkpt>
      <trkpt lat="44.82687" lon="8.5974">
        <ele>97.23</ele>
        <time>2016-10-07T08:18:18Z</time>
      </trkpt>
      <trkpt lat="44.82655" lon="8.59775">
        <ele>97.23</ele>
        <time>2016-10-07T08:18:34Z</time>
      </trkpt>
      <trkpt lat="44.82633" lon="8.5983">
        <ele>97.23</ele>
        <time>2016-10-07T08:18:47Z</time>
      </trkpt>
      <trkpt lat="44.82629" lon="8.59919">
        <ele>94.83</ele>
        <time>2016-10-07T08:18:58Z</time>
      </trkpt>
      <trkpt lat="44.82631" lon="8.59963">
        <ele>92.9</ele>
        <time>2016-10-07T08:19:02Z</time>
      </trkpt>
      <trkpt lat="44.82634" lon="8.60036">
        <ele>92.9</ele>
        <time>2016-10-07T08:19:09Z</time>
      </trkpt>
      <trkpt lat="44.82633" lon="8.60046">
        <ele>93.39</ele>
        <time>2016-10-07T08:19:10Z</time>
      </trkpt>
      <trkpt lat="44.82616" lon="8.60108">
        <ele>95.79</ele>
        <time>2016-10-07T08:19:20Z</time>
      </trkpt>
      <trkpt lat="44.82588" lon="8.6014">
        <ele>99.15</ele>
        <time>2016-10-07T08:19:31Z</time>
      </trkpt>
      <trkpt lat="44.82528" lon="8.60184">
        <ele>99.15</ele>
        <time>2016-10-07T08:19:48Z</time>
      </trkpt>
      <trkpt lat="44.82441" lon="8.60247">
        <ele>98.67</ele>
        <time>2016-10-07T08:20:06Z</time>
      </trkpt>
      <trkpt lat="44.82339" lon="8.60327">
        <ele>99.15</ele>
        <time>2016-10-07T08:20:27Z</time>
      </trkpt>
      <trkpt lat="44.82335" lon="8.60332">
        <ele>99.15</ele>
        <time>2016-10-07T08:20:28Z</time>
      </trkpt>
      <trkpt lat="44.82286" lon="8.60422">
        <ele>99.15</ele>
        <time>2016-10-07T08:20:43Z</time>
      </trkpt>
      <trkpt lat="44.82267" lon="8.60451">
        <ele>98.67</ele>
        <time>2016-10-07T08:20:48Z</time>
      </trkpt>
      <trkpt lat="44.82263" lon="8.60455">
        <ele>99.15</ele>
        <time>2016-10-07T08:20:49Z</time>
      </trkpt>
      <trkpt lat="44.82248" lon="8.60466">
        <ele>99.15</ele>
        <time>2016-10-07T08:20:52Z</time>
      </trkpt>
      <trkpt lat="44.82174" lon="8.60513">
        <ele>99.63</ele>
        <time>2016-10-07T08:21:07Z</time>
      </trkpt>
      <trkpt lat="44.82091" lon="8.60574">
        <ele>101.56</ele>
        <time>2016-10-07T08:21:26Z</time>
      </trkpt>
      <trkpt lat="44.82083" lon="8.60583">
        <ele>101.56</ele>
        <time>2016-10-07T08:21:28Z</time>
      </trkpt>
      <trkpt lat="44.8208" lon="8.60588">
        <ele>102.04</ele>
        <time>2016-10-07T08:21:29Z</time>
      </trkpt>
      <trkpt lat="44.82077" lon="8.60593">
        <ele>102.52</ele>
        <time>2016-10-07T08:21:30Z</time>
      </trkpt>
      <trkpt lat="44.82074" lon="8.60599">
        <ele>101.56</ele>
        <time>2016-10-07T08:21:31Z</time>
      </trkpt>
      <trkpt lat="44.82072" lon="8.60605">
        <ele>102.04</ele>
        <time>2016-10-07T08:21:32Z</time>
      </trkpt>
      <trkpt lat="44.8207" lon="8.60612">
        <ele>101.56</ele>
        <time>2016-10-07T08:21:33Z</time>
      </trkpt>
      <trkpt lat="44.8203" lon="8.60749">
        <ele>102.52</ele>
        <time>2016-10-07T08:21:53Z</time>
      </trkpt>
      <trkpt lat="44.8198" lon="8.60905">
        <ele>103</ele>
        <time>2016-10-07T08:22:16Z</time>
      </trkpt>
      <trkpt lat="44.81961" lon="8.60957">
        <ele>103.48</ele>
        <time>2016-10-07T08:22:24Z</time>
      </trkpt>
      <trkpt lat="44.81958" lon="8.60963">
        <ele>103.48</ele>
        <time>2016-10-07T08:22:25Z</time>
      </trkpt>
      <trkpt lat="44.81954" lon="8.60968">
        <ele>103.48</ele>
        <time>2016-10-07T08:22:26Z</time>
      </trkpt>
      <trkpt lat="44.8195" lon="8.60973">
        <ele>103.48</ele>
        <time>2016-10-07T08:22:27Z</time>
      </trkpt>
      <trkpt lat="44.81945" lon="8.60976">
        <ele>103.48</ele>
        <time>2016-10-07T08:22:28Z</time>
      </trkpt>
      <trkpt lat="44.8194" lon="8.6098">
        <ele>103.48</ele>
        <time>2016-10-07T08:22:29Z</time>
      </trkpt>
      <trkpt lat="44.81866" lon="8.61048">
        <ele>103.48</ele>
        <time>2016-10-07T08:22:45Z</time>
      </trkpt>
      <trkpt lat="44.81789" lon="8.61096">
        <ele>103.96</ele>
        <time>2016-10-07T08:23:00Z</time>
      </trkpt>
      <trkpt lat="44.81686" lon="8.61142">
        <ele>103.96</ele>
        <time>2016-10-07T08:23:19Z</time>
      </trkpt>
      <trkpt lat="44.8158" lon="8.61207">
        <ele>103.96</ele>
        <time>2016-10-07T08:23:40Z</time>
      </trkpt>
      <trkpt lat="44.81468" lon="8.61297">
        <ele>104.44</ele>
        <time>2016-10-07T08:24:03Z</time>
      </trkpt>
      <trkpt lat="44.81396" lon="8.61346">
        <ele>105.88</ele>
        <time>2016-10-07T08:24:17Z</time>
      </trkpt>
      <trkpt lat="44.81298" lon="8.61403">
        <ele>105.4</ele>
        <time>2016-10-07T08:24:36Z</time>
      </trkpt>
      <trkpt lat="44.812" lon="8.61457">
        <ele>104.92</ele>
        <time>2016-10-07T08:24:55Z</time>
      </trkpt>
      <trkpt lat="44.81105" lon="8.61516">
        <ele>105.4</ele>
        <time>2016-10-07T08:25:14Z</time>
      </trkpt>
      <trkpt lat="44.81014" lon="8.61542">
        <ele>106.36</ele>
        <time>2016-10-07T08:25:31Z</time>
      </trkpt>
      <trkpt lat="44.80983" lon="8.61545">
        <ele>107.32</ele>
        <time>2016-10-07T08:25:37Z</time>
      </trkpt>
      <trkpt lat="44.80926" lon="8.61542">
        <ele>108.29</ele>
        <time>2016-10-07T08:25:48Z</time>
      </trkpt>
      <trkpt lat="44.80915" lon="8.61543">
        <ele>107.81</ele>
        <time>2016-10-07T08:25:50Z</time>
      </trkpt>
      <trkpt lat="44.809" lon="8.61548">
        <ele>108.77</ele>
        <time>2016-10-07T08:25:53Z</time>
      </trkpt>
      <trkpt lat="44.80826" lon="8.61597">
        <ele>108.77</ele>
        <time>2016-10-07T08:26:08Z</time>
      </trkpt>
      <trkpt lat="44.80725" lon="8.61663">
        <ele>109.73</ele>
        <time>2016-10-07T08:26:28Z</time>
      </trkpt>
      <trkpt lat="44.80635" lon="8.61729">
        <ele>110.21</ele>
        <time>2016-10-07T08:26:47Z</time>
      </trkpt>
      <trkpt lat="44.80555" lon="8.61793">
        <ele>110.21</ele>
        <time>2016-10-07T08:27:04Z</time>
      </trkpt>
      <trkpt lat="44.8046" lon="8.61849">
        <ele>111.17</ele>
        <time>2016-10-07T08:27:23Z</time>
      </trkpt>
      <trkpt lat="44.80355" lon="8.61893">
        <ele>111.17</ele>
        <time>2016-10-07T08:27:43Z</time>
      </trkpt>
      <trkpt lat="44.80257" lon="8.61933">
        <ele>111.65</ele>
        <time>2016-10-07T08:28:02Z</time>
      </trkpt>
      <trkpt lat="44.8016" lon="8.61985">
        <ele>113.09</ele>
        <time>2016-10-07T08:28:21Z</time>
      </trkpt>
      <trkpt lat="44.8006" lon="8.62037">
        <ele>114.05</ele>
        <time>2016-10-07T08:28:40Z</time>
      </trkpt>
      <trkpt lat="44.79947" lon="8.62095">
        <ele>114.53</ele>
        <time>2016-10-07T08:29:02Z</time>
      </trkpt>
      <trkpt lat="44.79859" lon="8.62124">
        <ele>116.46</ele>
        <time>2016-10-07T08:29:20Z</time>
      </trkpt>
      <trkpt lat="44.79778" lon="8.62155">
        <ele>117.42</ele>
        <time>2016-10-07T08:29:38Z</time>
      </trkpt>
      <trkpt lat="44.7969" lon="8.62203">
        <ele>115.98</ele>
        <time>2016-10-07T08:29:54Z</time>
      </trkpt>
      <trkpt lat="44.7961" lon="8.62272">
        <ele>115.98</ele>
        <time>2016-10-07T08:30:12Z</time>
      </trkpt>
      <trkpt lat="44.79519" lon="8.62329">
        <ele>116.94</ele>
        <time>2016-10-07T08:30:30Z</time>
      </trkpt>
      <trkpt lat="44.79449" lon="8.62394">
        <ele>116.46</ele>
        <time>2016-10-07T08:30:46Z</time>
      </trkpt>
      <trkpt lat="44.79374" lon="8.62464">
        <ele>117.9</ele>
        <time>2016-10-07T08:31:03Z</time>
      </trkpt>
      <trkpt lat="44.79291" lon="8.62519">
        <ele>118.38</ele>
        <time>2016-10-07T08:31:22Z</time>
      </trkpt>
      <trkpt lat="44.79208" lon="8.62549">
        <ele>119.34</ele>
        <time>2016-10-07T08:31:40Z</time>
      </trkpt>
      <trkpt lat="44.7911" lon="8.62636">
        <ele>119.34</ele>
        <time>2016-10-07T08:32:02Z</time>
      </trkpt>
      <trkpt lat="44.79009" lon="8.62731">
        <ele>119.82</ele>
        <time>2016-10-07T08:32:24Z</time>
      </trkpt>
      <trkpt lat="44.78898" lon="8.62838">
        <ele>119.82</ele>
        <time>2016-10-07T08:32:49Z</time>
      </trkpt>
      <trkpt lat="44.78817" lon="8.62916">
        <ele>119.82</ele>
        <time>2016-10-07T08:33:06Z</time>
      </trkpt>
      <trkpt lat="44.787" lon="8.63028">
        <ele>119.34</ele>
        <time>2016-10-07T08:33:29Z</time>
      </trkpt>
      <trkpt lat="44.78585" lon="8.63138">
        <ele>118.38</ele>
        <time>2016-10-07T08:33:50Z</time>
      </trkpt>
      <trkpt lat="44.78493" lon="8.6323">
        <ele>118.38</ele>
        <time>2016-10-07T08:34:08Z</time>
      </trkpt>
      <trkpt lat="44.78483" lon="8.63251">
        <ele>118.38</ele>
        <time>2016-10-07T08:34:11Z</time>
      </trkpt>
      <trkpt lat="44.78481" lon="8.63258">
        <ele>117.42</ele>
        <time>2016-10-07T08:34:12Z</time>
      </trkpt>
      <trkpt lat="44.78478" lon="8.63266">
        <ele>117.9</ele>
        <time>2016-10-07T08:34:13Z</time>
      </trkpt>
      <trkpt lat="44.78477" lon="8.63275">
        <ele>117.42</ele>
        <time>2016-10-07T08:34:14Z</time>
      </trkpt>
      <trkpt lat="44.78476" lon="8.63283">
        <ele>117.42</ele>
        <time>2016-10-07T08:34:15Z</time>
      </trkpt>
      <trkpt lat="44.78475" lon="8.63291">
        <ele>117.9</ele>
        <time>2016-10-07T08:34:16Z</time>
      </trkpt>
      <trkpt lat="44.78476" lon="8.633">
        <ele>117.42</ele>
        <time>2016-10-07T08:34:17Z</time>
      </trkpt>
      <trkpt lat="44.78496" lon="8.634">
        <ele>116.46</ele>
        <time>2016-10-07T08:34:29Z</time>
      </trkpt>
      <trkpt lat="44.78531" lon="8.63539">
        <ele>116.94</ele>
        <time>2016-10-07T08:34:46Z</time>
      </trkpt>
      <trkpt lat="44.78572" lon="8.63661">
        <ele>116.46</ele>
        <time>2016-10-07T08:35:02Z</time>
      </trkpt>
      <trkpt lat="44.7858" lon="8.63682">
        <ele>116.94</ele>
        <time>2016-10-07T08:35:05Z</time>
      </trkpt>
      <trkpt lat="44.78581" lon="8.63689">
        <ele>116.46</ele>
        <time>2016-10-07T08:35:06Z</time>
      </trkpt>
      <trkpt lat="44.78581" lon="8.63696">
        <ele>116.94</ele>
        <time>2016-10-07T08:35:07Z</time>
      </trkpt>
      <trkpt lat="44.78579" lon="8.63703">
        <ele>116.46</ele>
        <time>2016-10-07T08:35:08Z</time>
      </trkpt>
      <trkpt lat="44.78577" lon="8.63708">
        <ele>116.94</ele>
        <time>2016-10-07T08:35:09Z</time>
      </trkpt>
      <trkpt lat="44.78573" lon="8.63712">
        <ele>116.46</ele>
        <time>2016-10-07T08:35:10Z</time>
      </trkpt>
      <trkpt lat="44.78569" lon="8.63714">
        <ele>116.46</ele>
        <time>2016-10-07T08:35:11Z</time>
      </trkpt>
      <trkpt lat="44.78565" lon="8.63715">
        <ele>116.94</ele>
        <time>2016-10-07T08:35:12Z</time>
      </trkpt>
      <trkpt lat="44.78562" lon="8.63713">
        <ele>116.94</ele>
        <time>2016-10-07T08:35:13Z</time>
      </trkpt>
      <trkpt lat="44.78559" lon="8.63709">
        <ele>116.94</ele>
        <time>2016-10-07T08:35:14Z</time>
      </trkpt>
      <trkpt lat="44.78557" lon="8.63705">
        <ele>116.94</ele>
        <time>2016-10-07T08:35:15Z</time>
      </trkpt>
      <trkpt lat="44.78556" lon="8.63699">
        <ele>116.94</ele>
        <time>2016-10-07T08:35:16Z</time>
      </trkpt>
      <trkpt lat="44.78528" lon="8.636">
        <ele>118.38</ele>
        <time>2016-10-07T08:35:33Z</time>
      </trkpt>
      <trkpt lat="44.78511" lon="8.63542">
        <ele>121.74</ele>
        <time>2016-10-07T08:35:47Z</time>
      </trkpt>
      <trkpt lat="44.78494" lon="8.63484">
        <ele>124.63</ele>
        <time>2016-10-07T08:36:02Z</time>
      </trkpt>
      <trkpt lat="44.78475" lon="8.63417">
        <ele>127.51</ele>
        <time>2016-10-07T08:36:21Z</time>
      </trkpt>
      <trkpt lat="44.78455" lon="8.63347">
        <ele>128.47</ele>
        <time>2016-10-07T08:36:39Z</time>
      </trkpt>
      <trkpt lat="44.78428" lon="8.63247">
        <ele>128.47</ele>
        <time>2016-10-07T08:36:58Z</time>
      </trkpt>
      <trkpt lat="44.784" lon="8.63156">
        <ele>126.07</ele>
        <time>2016-10-07T08:37:10Z</time>
      </trkpt>
      <trkpt lat="44.78358" lon="8.63029">
        <ele>124.63</ele>
        <time>2016-10-07T08:37:24Z</time>
      </trkpt>
      <trkpt lat="44.78353" lon="8.63024">
        <ele>124.63</ele>
        <time>2016-10-07T08:37:25Z</time>
      </trkpt>
      <trkpt lat="44.78348" lon="8.63022">
        <ele>124.15</ele>
        <time>2016-10-07T08:37:26Z</time>
      </trkpt>
      <trkpt lat="44.78343" lon="8.63022">
        <ele>124.63</ele>
        <time>2016-10-07T08:37:27Z</time>
      </trkpt>
      <trkpt lat="44.78337" lon="8.63023">
        <ele>124.63</ele>
        <time>2016-10-07T08:37:28Z</time>
      </trkpt>
      <trkpt lat="44.78332" lon="8.63025">
        <ele>124.15</ele>
        <time>2016-10-07T08:37:29Z</time>
      </trkpt>
      <trkpt lat="44.78221" lon="8.6307">
        <ele>124.15</ele>
        <time>2016-10-07T08:37:48Z</time>
      </trkpt>
      <trkpt lat="44.78146" lon="8.63104">
        <ele>124.15</ele>
        <time>2016-10-07T08:38:01Z</time>
      </trkpt>
      <trkpt lat="44.78131" lon="8.63119">
        <ele>124.15</ele>
        <time>2016-10-07T08:38:04Z</time>
      </trkpt>
      <trkpt lat="44.78117" lon="8.63135">
        <ele>124.15</ele>
        <time>2016-10-07T08:38:07Z</time>
      </trkpt>
      <trkpt lat="44.78112" lon="8.63139">
        <ele>124.15</ele>
        <time>2016-10-07T08:38:08Z</time>
      </trkpt>
      <trkpt lat="44.78107" lon="8.63143">
        <ele>124.15</ele>
        <time>2016-10-07T08:38:09Z</time>
      </trkpt>
      <trkpt lat="44.78101" lon="8.63145">
        <ele>123.67</ele>
        <time>2016-10-07T08:38:10Z</time>
      </trkpt>
      <trkpt lat="44.78095" lon="8.63147">
        <ele>123.67</ele>
        <time>2016-10-07T08:38:11Z</time>
      </trkpt>
      <trkpt lat="44.78089" lon="8.63149">
        <ele>124.15</ele>
        <time>2016-10-07T08:38:12Z</time>
      </trkpt>
      <trkpt lat="44.7796" lon="8.6317">
        <ele>125.11</ele>
        <time>2016-10-07T08:38:35Z</time>
      </trkpt>
      <trkpt lat="44.77856" lon="8.63178">
        <ele>125.59</ele>
        <time>2016-10-07T08:38:55Z</time>
      </trkpt>
      <trkpt lat="44.77761" lon="8.6321">
        <ele>126.07</ele>
        <time>2016-10-07T08:39:14Z</time>
      </trkpt>
      <trkpt lat="44.77649" lon="8.63241">
        <ele>127.03</ele>
        <time>2016-10-07T08:39:36Z</time>
      </trkpt>
      <trkpt lat="44.7754" lon="8.63256">
        <ele>128.95</ele>
        <time>2016-10-07T08:39:57Z</time>
      </trkpt>
      <trkpt lat="44.77463" lon="8.63284">
        <ele>128.47</ele>
        <time>2016-10-07T08:40:12Z</time>
      </trkpt>
      <trkpt lat="44.77353" lon="8.63308">
        <ele>129.92</ele>
        <time>2016-10-07T08:40:33Z</time>
      </trkpt>
      <trkpt lat="44.77332" lon="8.63316">
        <ele>129.43</ele>
        <time>2016-10-07T08:40:37Z</time>
      </trkpt>
      <trkpt lat="44.77328" lon="8.6332">
        <ele>128.95</ele>
        <time>2016-10-07T08:40:38Z</time>
      </trkpt>
      <trkpt lat="44.77324" lon="8.63325">
        <ele>129.92</ele>
        <time>2016-10-07T08:40:39Z</time>
      </trkpt>
      <trkpt lat="44.77322" lon="8.63332">
        <ele>129.43</ele>
        <time>2016-10-07T08:40:40Z</time>
      </trkpt>
      <trkpt lat="44.77319" lon="8.63339">
        <ele>129.43</ele>
        <time>2016-10-07T08:40:41Z</time>
      </trkpt>
      <trkpt lat="44.77318" lon="8.63346">
        <ele>129.43</ele>
        <time>2016-10-07T08:40:42Z</time>
      </trkpt>
      <trkpt lat="44.77293" lon="8.63455">
        <ele>129.92</ele>
        <time>2016-10-07T08:40:58Z</time>
      </trkpt>
      <trkpt lat="44.77291" lon="8.63466">
        <ele>129.43</ele>
        <time>2016-10-07T08:41:00Z</time>
      </trkpt>
      <trkpt lat="44.77289" lon="8.63471">
        <ele>130.4</ele>
        <time>2016-10-07T08:41:01Z</time>
      </trkpt>
      <trkpt lat="44.77286" lon="8.63476">
        <ele>129.92</ele>
        <time>2016-10-07T08:41:02Z</time>
      </trkpt>
      <trkpt lat="44.77283" lon="8.63481">
        <ele>129.43</ele>
        <time>2016-10-07T08:41:03Z</time>
      </trkpt>
      <trkpt lat="44.77279" lon="8.63485">
        <ele>130.4</ele>
        <time>2016-10-07T08:41:04Z</time>
      </trkpt>
      <trkpt lat="44.77214" lon="8.63569">
        <ele>129.43</ele>
        <time>2016-10-07T08:41:21Z</time>
      </trkpt>
      <trkpt lat="44.7713" lon="8.63679">
        <ele>130.4</ele>
        <time>2016-10-07T08:41:42Z</time>
      </trkpt>
      <trkpt lat="44.77058" lon="8.63788">
        <ele>130.4</ele>
        <time>2016-10-07T08:42:01Z</time>
      </trkpt>
      <trkpt lat="44.76987" lon="8.63928">
        <ele>127.03</ele>
        <time>2016-10-07T08:42:18Z</time>
      </trkpt>
      <trkpt lat="44.76973" lon="8.6395">
        <ele>127.51</ele>
        <time>2016-10-07T08:42:21Z</time>
      </trkpt>
      <trkpt lat="44.76968" lon="8.63955">
        <ele>127.51</ele>
        <time>2016-10-07T08:42:22Z</time>
      </trkpt>
      <trkpt lat="44.76963" lon="8.6396">
        <ele>127.99</ele>
        <time>2016-10-07T08:42:23Z</time>
      </trkpt>
      <trkpt lat="44.76859" lon="8.64036">
        <ele>127.99</ele>
        <time>2016-10-07T08:42:41Z</time>
      </trkpt>
      <trkpt lat="44.76738" lon="8.64129">
        <ele>127.99</ele>
        <time>2016-10-07T08:43:04Z</time>
      </trkpt>
      <trkpt lat="44.76634" lon="8.64206">
        <ele>128.47</ele>
        <time>2016-10-07T08:43:24Z</time>
      </trkpt>
      <trkpt lat="44.76576" lon="8.64239">
        <ele>128.95</ele>
        <time>2016-10-07T08:43:35Z</time>
      </trkpt>
      <trkpt lat="44.76571" lon="8.64243">
        <ele>129.43</ele>
        <time>2016-10-07T08:43:36Z</time>
      </trkpt>
      <trkpt lat="44.76563" lon="8.64253">
        <ele>128.95</ele>
        <time>2016-10-07T08:43:38Z</time>
      </trkpt>
      <trkpt lat="44.76487" lon="8.64335">
        <ele>129.43</ele>
        <time>2016-10-07T08:43:56Z</time>
      </trkpt>
      <trkpt lat="44.76403" lon="8.64393">
        <ele>131.84</ele>
        <time>2016-10-07T08:44:15Z</time>
      </trkpt>
      <trkpt lat="44.76381" lon="8.64428">
        <ele>134.24</ele>
        <time>2016-10-07T08:44:29Z</time>
      </trkpt>
      <trkpt lat="44.76366" lon="8.64475">
        <ele>136.16</ele>
        <time>2016-10-07T08:44:45Z</time>
      </trkpt>
      <trkpt lat="44.76353" lon="8.64546">
        <ele>138.09</ele>
        <time>2016-10-07T08:45:07Z</time>
      </trkpt>
      <trkpt lat="44.76342" lon="8.64625">
        <ele>135.2</ele>
        <time>2016-10-07T08:45:18Z</time>
      </trkpt>
      <trkpt lat="44.76342" lon="8.64636">
        <ele>134.24</ele>
        <time>2016-10-07T08:45:19Z</time>
      </trkpt>
      <trkpt lat="44.76344" lon="8.64648">
        <ele>134.24</ele>
        <time>2016-10-07T08:45:20Z</time>
      </trkpt>
      <trkpt lat="44.76355" lon="8.64694">
        <ele>132.32</ele>
        <time>2016-10-07T08:45:24Z</time>
      </trkpt>
      <trkpt lat="44.76409" lon="8.64814">
        <ele>130.4</ele>
        <time>2016-10-07T08:45:36Z</time>
      </trkpt>
      <trkpt lat="44.76451" lon="8.64896">
        <ele>128.47</ele>
        <time>2016-10-07T08:45:46Z</time>
      </trkpt>
      <trkpt lat="44.76453" lon="8.64905">
        <ele>128.47</ele>
        <time>2016-10-07T08:45:47Z</time>
      </trkpt>
      <trkpt lat="44.76453" lon="8.64915">
        <ele>127.99</ele>
        <time>2016-10-07T08:45:48Z</time>
      </trkpt>
      <trkpt lat="44.76452" lon="8.64924">
        <ele>127.51</ele>
        <time>2016-10-07T08:45:49Z</time>
      </trkpt>
      <trkpt lat="44.76449" lon="8.64931">
        <ele>127.51</ele>
        <time>2016-10-07T08:45:50Z</time>
      </trkpt>
      <trkpt lat="44.76444" lon="8.64936">
        <ele>127.99</ele>
        <time>2016-10-07T08:45:51Z</time>
      </trkpt>
      <trkpt lat="44.76439" lon="8.64939">
        <ele>128.47</ele>
        <time>2016-10-07T08:45:52Z</time>
      </trkpt>
      <trkpt lat="44.76433" lon="8.64942">
        <ele>127.51</ele>
        <time>2016-10-07T08:45:53Z</time>
      </trkpt>
      <trkpt lat="44.764" lon="8.64959">
        <ele>128.47</ele>
        <time>2016-10-07T08:45:59Z</time>
      </trkpt>
      <trkpt lat="44.7629" lon="8.64965">
        <ele>128.47</ele>
        <time>2016-10-07T08:46:17Z</time>
      </trkpt>
      <trkpt lat="44.76273" lon="8.64964">
        <ele>128.47</ele>
        <time>2016-10-07T08:46:20Z</time>
      </trkpt>
      <trkpt lat="44.76257" lon="8.6496">
        <ele>129.43</ele>
        <time>2016-10-07T08:46:23Z</time>
      </trkpt>
      <trkpt lat="44.76251" lon="8.64958">
        <ele>128.95</ele>
        <time>2016-10-07T08:46:24Z</time>
      </trkpt>
      <trkpt lat="44.76246" lon="8.64956">
        <ele>129.43</ele>
        <time>2016-10-07T08:46:25Z</time>
      </trkpt>
      <trkpt lat="44.76241" lon="8.64956">
        <ele>129.43</ele>
        <time>2016-10-07T08:46:26Z</time>
      </trkpt>
      <trkpt lat="44.76235" lon="8.64955">
        <ele>128.95</ele>
        <time>2016-10-07T08:46:27Z</time>
      </trkpt>
      <trkpt lat="44.7623" lon="8.64956">
        <ele>128.95</ele>
        <time>2016-10-07T08:46:28Z</time>
      </trkpt>
      <trkpt lat="44.76224" lon="8.64958">
        <ele>129.43</ele>
        <time>2016-10-07T08:46:29Z</time>
      </trkpt>
      <trkpt lat="44.7622" lon="8.64961">
        <ele>128.95</ele>
        <time>2016-10-07T08:46:30Z</time>
      </trkpt>
      <trkpt lat="44.76216" lon="8.64966">
        <ele>129.92</ele>
        <time>2016-10-07T08:46:31Z</time>
      </trkpt>
      <trkpt lat="44.76212" lon="8.64971">
        <ele>129.43</ele>
        <time>2016-10-07T08:46:32Z</time>
      </trkpt>
      <trkpt lat="44.7621" lon="8.64978">
        <ele>129.43</ele>
        <time>2016-10-07T08:46:33Z</time>
      </trkpt>
      <trkpt lat="44.76208" lon="8.64985">
        <ele>129.43</ele>
        <time>2016-10-07T08:46:34Z</time>
      </trkpt>
      <trkpt lat="44.76207" lon="8.64992">
        <ele>129.43</ele>
        <time>2016-10-07T08:46:35Z</time>
      </trkpt>
      <trkpt lat="44.76207" lon="8.65">
        <ele>129.43</ele>
        <time>2016-10-07T08:46:36Z</time>
      </trkpt>
      <trkpt lat="44.76197" lon="8.65068">
        <ele>129.92</ele>
        <time>2016-10-07T08:46:45Z</time>
      </trkpt>
      <trkpt lat="44.76186" lon="8.65102">
        <ele>129.43</ele>
        <time>2016-10-07T08:46:50Z</time>
      </trkpt>
      <trkpt lat="44.76185" lon="8.65109">
        <ele>129.43</ele>
        <time>2016-10-07T08:46:51Z</time>
      </trkpt>
      <trkpt lat="44.76185" lon="8.65117">
        <ele>129.43</ele>
        <time>2016-10-07T08:46:52Z</time>
      </trkpt>
      <trkpt lat="44.76185" lon="8.65124">
        <ele>129.43</ele>
        <time>2016-10-07T08:46:53Z</time>
      </trkpt>
      <trkpt lat="44.76185" lon="8.65132">
        <ele>129.92</ele>
        <time>2016-10-07T08:46:54Z</time>
      </trkpt>
      <trkpt lat="44.76202" lon="8.65272">
        <ele>129.92</ele>
        <time>2016-10-07T08:47:13Z</time>
      </trkpt>
      <trkpt lat="44.76204" lon="8.65309">
        <ele>130.4</ele>
        <time>2016-10-07T08:47:18Z</time>
      </trkpt>
      <trkpt lat="44.76203" lon="8.65317">
        <ele>129.92</ele>
        <time>2016-10-07T08:47:19Z</time>
      </trkpt>
      <trkpt lat="44.76201" lon="8.65325">
        <ele>129.43</ele>
        <time>2016-10-07T08:47:20Z</time>
      </trkpt>
      <trkpt lat="44.76198" lon="8.65332">
        <ele>129.92</ele>
        <time>2016-10-07T08:47:21Z</time>
      </trkpt>
      <trkpt lat="44.76195" lon="8.65339">
        <ele>129.43</ele>
        <time>2016-10-07T08:47:22Z</time>
      </trkpt>
      <trkpt lat="44.76191" lon="8.65345">
        <ele>129.43</ele>
        <time>2016-10-07T08:47:23Z</time>
      </trkpt>
      <trkpt lat="44.76187" lon="8.65351">
        <ele>129.43</ele>
        <time>2016-10-07T08:47:24Z</time>
      </trkpt>
      <trkpt lat="44.76183" lon="8.65357">
        <ele>129.43</ele>
        <time>2016-10-07T08:47:25Z</time>
      </trkpt>
      <trkpt lat="44.76103" lon="8.65452">
        <ele>128.47</ele>
        <time>2016-10-07T08:47:42Z</time>
      </trkpt>
      <trkpt lat="44.761" lon="8.65459">
        <ele>128.47</ele>
        <time>2016-10-07T08:47:43Z</time>
      </trkpt>
      <trkpt lat="44.76057" lon="8.65597">
        <ele>127.99</ele>
        <time>2016-10-07T08:48:00Z</time>
      </trkpt>
      <trkpt lat="44.75999" lon="8.65726">
        <ele>127.51</ele>
        <time>2016-10-07T08:48:17Z</time>
      </trkpt>
      <trkpt lat="44.75965" lon="8.65797">
        <ele>127.51</ele>
        <time>2016-10-07T08:48:28Z</time>
      </trkpt>
      <trkpt lat="44.75961" lon="8.65801">
        <ele>127.99</ele>
        <time>2016-10-07T08:48:29Z</time>
      </trkpt>
      <trkpt lat="44.75956" lon="8.65804">
        <ele>127.99</ele>
        <time>2016-10-07T08:48:30Z</time>
      </trkpt>
      <trkpt lat="44.75952" lon="8.65806">
        <ele>127.99</ele>
        <time>2016-10-07T08:48:31Z</time>
      </trkpt>
      <trkpt lat="44.75947" lon="8.65807">
        <ele>127.99</ele>
        <time>2016-10-07T08:48:32Z</time>
      </trkpt>
      <trkpt lat="44.75889" lon="8.65822">
        <ele>127.99</ele>
        <time>2016-10-07T08:48:44Z</time>
      </trkpt>
      <trkpt lat="44.75884" lon="8.6582">
        <ele>127.99</ele>
        <time>2016-10-07T08:48:45Z</time>
      </trkpt>
      <trkpt lat="44.75879" lon="8.65818">
        <ele>128.47</ele>
        <time>2016-10-07T08:48:46Z</time>
      </trkpt>
      <trkpt lat="44.75871" lon="8.65812">
        <ele>128.47</ele>
        <time>2016-10-07T08:48:48Z</time>
      </trkpt>
      <trkpt lat="44.75866" lon="8.6581">
        <ele>127.99</ele>
        <time>2016-10-07T08:48:49Z</time>
      </trkpt>
      <trkpt lat="44.75862" lon="8.65809">
        <ele>128.47</ele>
        <time>2016-10-07T08:48:50Z</time>
      </trkpt>
      <trkpt lat="44.75858" lon="8.65808">
        <ele>128.47</ele>
        <time>2016-10-07T08:48:51Z</time>
      </trkpt>
      <trkpt lat="44.75855" lon="8.65808">
        <ele>127.99</ele>
        <time>2016-10-07T08:48:52Z</time>
      </trkpt>
      <trkpt lat="44.75852" lon="8.65808">
        <ele>128.47</ele>
        <time>2016-10-07T08:48:53Z</time>
      </trkpt>
      <trkpt lat="44.7585" lon="8.65808">
        <ele>127.99</ele>
        <time>2016-10-07T08:48:54Z</time>
      </trkpt>
      <trkpt lat="44.75851" lon="8.6581">
        <ele>128.47</ele>
        <time>2016-10-07T08:49:05Z</time>
      </trkpt>
      <trkpt lat="44.75851" lon="8.65813">
        <ele>127.99</ele>
        <time>2016-10-07T08:49:30Z</time>
      </trkpt>
      <trkpt lat="44.75851" lon="8.65813">
        <ele>128.47</ele>
        <time>2016-10-07T08:49:49Z</time>
      </trkpt>
      <trkpt lat="44.75849" lon="8.65815">
        <ele>128.95</ele>
        <time>2016-10-07T08:50:09Z</time>
      </trkpt>
      <trkpt lat="44.75848" lon="8.65816">
        <ele>128.95</ele>
        <time>2016-10-07T08:50:10Z</time>
      </trkpt>
      <trkpt lat="44.75848" lon="8.65817">
        <ele>128.95</ele>
        <time>2016-10-07T08:50:11Z</time>
      </trkpt>
      <trkpt lat="44.75847" lon="8.65819">
        <ele>128.95</ele>
        <time>2016-10-07T08:50:12Z</time>
      </trkpt>
      <trkpt lat="44.75845" lon="8.6582">
        <ele>128.95</ele>
        <time>2016-10-07T08:50:13Z</time>
      </trkpt>
      <trkpt lat="44.75844" lon="8.65822">
        <ele>128.47</ele>
        <time>2016-10-07T08:50:14Z</time>
      </trkpt>
      <trkpt lat="44.75843" lon="8.65824">
        <ele>128.95</ele>
        <time>2016-10-07T08:50:15Z</time>
      </trkpt>
      <trkpt lat="44.75841" lon="8.65827">
        <ele>128.47</ele>
        <time>2016-10-07T08:50:16Z</time>
      </trkpt>
      <trkpt lat="44.7584" lon="8.65831">
        <ele>128.47</ele>
        <time>2016-10-07T08:50:17Z</time>
      </trkpt>
      <trkpt lat="44.75839" lon="8.65844">
        <ele>129.43</ele>
        <time>2016-10-07T08:50:20Z</time>
      </trkpt>
      <trkpt lat="44.75842" lon="8.65876">
        <ele>128.95</ele>
        <time>2016-10-07T08:50:26Z</time>
      </trkpt>
      <trkpt lat="44.7584" lon="8.65893">
        <ele>128.95</ele>
        <time>2016-10-07T08:50:29Z</time>
      </trkpt>
      <trkpt lat="44.75838" lon="8.65897">
        <ele>128.95</ele>
        <time>2016-10-07T08:50:30Z</time>
      </trkpt>
      <trkpt lat="44.75837" lon="8.65902">
        <ele>128.95</ele>
        <time>2016-10-07T08:50:31Z</time>
      </trkpt>
      <trkpt lat="44.75835" lon="8.65905">
        <ele>128.95</ele>
        <time>2016-10-07T08:50:32Z</time>
      </trkpt>
      <trkpt lat="44.75793" lon="8.65957">
        <ele>128.95</ele>
        <time>2016-10-07T08:50:45Z</time>
      </trkpt>
      <trkpt lat="44.7576" lon="8.65999">
        <ele>128.95</ele>
        <time>2016-10-07T08:50:54Z</time>
      </trkpt>
      <trkpt lat="44.75757" lon="8.66004">
        <ele>128.95</ele>
        <time>2016-10-07T08:50:55Z</time>
      </trkpt>
      <trkpt lat="44.75755" lon="8.6601">
        <ele>128.95</ele>
        <time>2016-10-07T08:50:56Z</time>
      </trkpt>
      <trkpt lat="44.75753" lon="8.66017">
        <ele>128.95</ele>
        <time>2016-10-07T08:50:57Z</time>
      </trkpt>
      <trkpt lat="44.75752" lon="8.66023">
        <ele>129.43</ele>
        <time>2016-10-07T08:50:58Z</time>
      </trkpt>
      <trkpt lat="44.75751" lon="8.6603">
        <ele>129.43</ele>
        <time>2016-10-07T08:50:59Z</time>
      </trkpt>
      <trkpt lat="44.75751" lon="8.66036">
        <ele>129.43</ele>
        <time>2016-10-07T08:51:00Z</time>
      </trkpt>
      <trkpt lat="44.7574" lon="8.66135">
        <ele>129.43</ele>
        <time>2016-10-07T08:51:16Z</time>
      </trkpt>
      <trkpt lat="44.75728" lon="8.66229">
        <ele>129.43</ele>
        <time>2016-10-07T08:51:29Z</time>
      </trkpt>
      <trkpt lat="44.75737" lon="8.66349">
        <ele>127.51</ele>
        <time>2016-10-07T08:51:45Z</time>
      </trkpt>
      <trkpt lat="44.7574" lon="8.66383">
        <ele>126.55</ele>
        <time>2016-10-07T08:51:49Z</time>
      </trkpt>
      <trkpt lat="44.75751" lon="8.6654">
        <ele>124.63</ele>
        <time>2016-10-07T08:52:06Z</time>
      </trkpt>
      <trkpt lat="44.75767" lon="8.66742">
        <ele>122.71</ele>
        <time>2016-10-07T08:52:26Z</time>
      </trkpt>
      <trkpt lat="44.75781" lon="8.66908">
        <ele>122.71</ele>
        <time>2016-10-07T08:52:46Z</time>
      </trkpt>
      <trkpt lat="44.75792" lon="8.67047">
        <ele>122.71</ele>
        <time>2016-10-07T08:53:05Z</time>
      </trkpt>
      <trkpt lat="44.75803" lon="8.67188">
        <ele>124.15</ele>
        <time>2016-10-07T08:53:25Z</time>
      </trkpt>
      <trkpt lat="44.75812" lon="8.67312">
        <ele>124.63</ele>
        <time>2016-10-07T08:53:44Z</time>
      </trkpt>
      <trkpt lat="44.75823" lon="8.67471">
        <ele>124.15</ele>
        <time>2016-10-07T08:54:05Z</time>
      </trkpt>
      <trkpt lat="44.75837" lon="8.6765">
        <ele>124.63</ele>
        <time>2016-10-07T08:54:27Z</time>
      </trkpt>
      <trkpt lat="44.75852" lon="8.67841">
        <ele>124.15</ele>
        <time>2016-10-07T08:54:49Z</time>
      </trkpt>
      <trkpt lat="44.75867" lon="8.6802">
        <ele>124.63</ele>
        <time>2016-10-07T08:55:11Z</time>
      </trkpt>
      <trkpt lat="44.75873" lon="8.68116">
        <ele>124.15</ele>
        <time>2016-10-07T08:55:23Z</time>
      </trkpt>
      <trkpt lat="44.75874" lon="8.68123">
        <ele>124.15</ele>
        <time>2016-10-07T08:55:24Z</time>
      </trkpt>
      <trkpt lat="44.75882" lon="8.68201">
        <ele>125.11</ele>
        <time>2016-10-07T08:55:38Z</time>
      </trkpt>
      <trkpt lat="44.75913" lon="8.68208">
        <ele>125.59</ele>
        <time>2016-10-07T08:55:47Z</time>
      </trkpt>
      <trkpt lat="44.75931" lon="8.68233">
        <ele>126.07</ele>
        <time>2016-10-07T08:55:55Z</time>
      </trkpt>
      <trkpt lat="44.75929" lon="8.6824">
        <ele>125.59</ele>
        <time>2016-10-07T08:55:57Z</time>
      </trkpt>
      <trkpt lat="44.75927" lon="8.68242">
        <ele>125.59</ele>
        <time>2016-10-07T08:55:58Z</time>
      </trkpt>
      <trkpt lat="44.75925" lon="8.68244">
        <ele>125.59</ele>
        <time>2016-10-07T08:55:59Z</time>
      </trkpt>
      <trkpt lat="44.75922" lon="8.68243">
        <ele>125.59</ele>
        <time>2016-10-07T08:56:00Z</time>
      </trkpt>
      <trkpt lat="44.7592" lon="8.68242">
        <ele>125.59</ele>
        <time>2016-10-07T08:56:01Z</time>
      </trkpt>
      <trkpt lat="44.75898" lon="8.68238">
        <ele>125.59</ele>
        <time>2016-10-07T08:56:12Z</time>
      </trkpt>
      <trkpt lat="44.75896" lon="8.68256">
        <ele>126.07</ele>
        <time>2016-10-07T08:56:20Z</time>
      </trkpt>
      <trkpt lat="44.75895" lon="8.68272">
        <ele>125.11</ele>
        <time>2016-10-07T08:56:25Z</time>
      </trkpt>
      <trkpt lat="44.75895" lon="8.68279">
        <ele>126.07</ele>
        <time>2016-10-07T08:56:28Z</time>
      </trkpt>
      <trkpt lat="44.7589" lon="8.68284">
        <ele>125.59</ele>
        <time>2016-10-07T08:56:32Z</time>
      </trkpt>
      <trkpt lat="44.75888" lon="8.68283">
        <ele>126.07</ele>
        <time>2016-10-07T08:56:48Z</time>
      </trkpt>
      <trkpt lat="44.75893" lon="8.6828">
        <ele>126.55</ele>
        <time>2016-10-07T08:57:19Z</time>
      </trkpt>
      <trkpt lat="44.75899" lon="8.68284">
        <ele>126.55</ele>
        <time>2016-10-07T08:57:47Z</time>
      </trkpt>
      <trkpt lat="44.75896" lon="8.68281">
        <ele>126.55</ele>
        <time>2016-10-07T08:58:21Z</time>
      </trkpt>
      <trkpt lat="44.75897" lon="8.68284">
        <ele>126.07</ele>
        <time>2016-10-07T08:58:59Z</time>
      </trkpt>
      <trkpt lat="44.759" lon="8.68281">
        <ele>127.03</ele>
        <time>2016-10-07T08:59:32Z</time>
      </trkpt>
      <trkpt lat="44.75895" lon="8.68276">
        <ele>127.03</ele>
        <time>2016-10-07T09:00:04Z</time>
      </trkpt>
      <trkpt lat="44.75893" lon="8.6828">
        <ele>127.99</ele>
        <time>2016-10-07T09:00:48Z</time>
      </trkpt>
      <trkpt lat="44.75892" lon="8.68282">
        <ele>127.99</ele>
        <time>2016-10-07T09:01:21Z</time>
      </trkpt>
      <trkpt lat="44.75896" lon="8.68287">
        <ele>128.47</ele>
        <time>2016-10-07T09:02:05Z</time>
      </trkpt>
      <trkpt lat="44.75895" lon="8.68287">
        <ele>127.03</ele>
        <time>2016-10-07T09:02:39Z</time>
      </trkpt>
      <trkpt lat="44.75892" lon="8.68285">
        <ele>128.47</ele>
        <time>2016-10-07T09:03:16Z</time>
      </trkpt>
      <trkpt lat="44.75894" lon="8.6829">
        <ele>127.51</ele>
        <time>2016-10-07T09:03:51Z</time>
      </trkpt>
      <trkpt lat="44.75891" lon="8.68291">
        <ele>127.51</ele>
        <time>2016-10-07T09:04:22Z</time>
      </trkpt>
      <trkpt lat="44.7589" lon="8.68293">
        <ele>127.51</ele>
        <time>2016-10-07T09:05:01Z</time>
      </trkpt>
      <trkpt lat="44.75886" lon="8.68284">
        <ele>127.51</ele>
        <time>2016-10-07T09:05:42Z</time>
      </trkpt>
      <trkpt lat="44.75891" lon="8.68286">
        <ele>126.55</ele>
        <time>2016-10-07T09:06:26Z</time>
      </trkpt>
      <trkpt lat="44.75895" lon="8.68286">
        <ele>127.03</ele>
        <time>2016-10-07T09:07:06Z</time>
      </trkpt>
      <trkpt lat="44.75893" lon="8.68286">
        <ele>127.03</ele>
        <time>2016-10-07T09:07:46Z</time>
      </trkpt>
      <trkpt lat="44.75888" lon="8.68285">
        <ele>127.03</ele>
        <time>2016-10-07T09:08:19Z</time>
      </trkpt>
      <trkpt lat="44.75891" lon="8.68276">
        <ele>126.55</ele>
        <time>2016-10-07T09:09:00Z</time>
      </trkpt>
      <trkpt lat="44.75891" lon="8.68278">
        <ele>126.55</ele>
        <time>2016-10-07T09:09:41Z</time>
      </trkpt>
      <trkpt lat="44.75897" lon="8.68284">
        <ele>126.55</ele>
        <time>2016-10-07T09:10:26Z</time>
      </trkpt>
      <trkpt lat="44.75893" lon="8.68279">
        <ele>127.03</ele>
        <time>2016-10-07T09:11:14Z</time>
      </trkpt>
      <trkpt lat="44.75891" lon="8.68278">
        <ele>127.51</ele>
        <time>2016-10-07T09:11:50Z</time>
      </trkpt>
      <trkpt lat="44.75891" lon="8.68276">
        <ele>128.95</ele>
        <time>2016-10-07T09:12:22Z</time>
      </trkpt>
      <trkpt lat="44.75898" lon="8.68281">
        <ele>128.47</ele>
        <time>2016-10-07T09:12:58Z</time>
      </trkpt>
      <trkpt lat="44.75899" lon="8.68277">
        <ele>129.43</ele>
        <time>2016-10-07T09:13:29Z</time>
      </trkpt>
      <trkpt lat="44.75894" lon="8.6828">
        <ele>129.43</ele>
        <time>2016-10-07T09:14:13Z</time>
      </trkpt>
      <trkpt lat="44.75896" lon="8.68282">
        <ele>129.92</ele>
        <time>2016-10-07T09:14:46Z</time>
      </trkpt>
      <trkpt lat="44.75897" lon="8.68282">
        <ele>129.92</ele>
        <time>2016-10-07T09:15:30Z</time>
      </trkpt>
      <trkpt lat="44.75898" lon="8.68283">
        <ele>130.4</ele>
        <time>2016-10-07T09:16:00Z</time>
      </trkpt>
      <trkpt lat="44.75894" lon="8.68287">
        <ele>130.4</ele>
        <time>2016-10-07T09:16:05Z</time>
      </trkpt>
      <trkpt lat="44.75896" lon="8.68291">
        <ele>129.43</ele>
        <time>2016-10-07T09:16:16Z</time>
      </trkpt>
      <trkpt lat="44.75905" lon="8.68274">
        <ele>129.43</ele>
        <time>2016-10-07T09:16:29Z</time>
      </trkpt>
      <trkpt lat="44.75924" lon="8.68245">
        <ele>129.43</ele>
        <time>2016-10-07T09:16:41Z</time>
      </trkpt>
      <trkpt lat="44.75926" lon="8.68248">
        <ele>129.43</ele>
        <time>2016-10-07T09:16:43Z</time>
      </trkpt>
      <trkpt lat="44.75926" lon="8.6825">
        <ele>129.43</ele>
        <time>2016-10-07T09:16:44Z</time>
      </trkpt>
      <trkpt lat="44.75925" lon="8.68252">
        <ele>129.43</ele>
        <time>2016-10-07T09:16:45Z</time>
      </trkpt>
      <trkpt lat="44.75924" lon="8.68255">
        <ele>129.43</ele>
        <time>2016-10-07T09:16:46Z</time>
      </trkpt>
      <trkpt lat="44.759" lon="8.68315">
        <ele>130.4</ele>
        <time>2016-10-07T09:17:01Z</time>
      </trkpt>
      <trkpt lat="44.7587" lon="8.68402">
        <ele>129.92</ele>
        <time>2016-10-07T09:17:19Z</time>
      </trkpt>
      <trkpt lat="44.75836" lon="8.68489">
        <ele>130.88</ele>
        <time>2016-10-07T09:17:37Z</time>
      </trkpt>
      <trkpt lat="44.75839" lon="8.68489">
        <ele>131.84</ele>
        <time>2016-10-07T09:17:54Z</time>
      </trkpt>
      <trkpt lat="44.75831" lon="8.68494">
        <ele>131.36</ele>
        <time>2016-10-07T09:18:34Z</time>
      </trkpt>
      <trkpt lat="44.75834" lon="8.68486">
        <ele>130.88</ele>
        <time>2016-10-07T09:19:03Z</time>
      </trkpt>
      <trkpt lat="44.75832" lon="8.68496">
        <ele>130.88</ele>
        <time>2016-10-07T09:19:23Z</time>
      </trkpt>
      <trkpt lat="44.75817" lon="8.68533">
        <ele>131.36</ele>
        <time>2016-10-07T09:19:36Z</time>
      </trkpt>
      <trkpt lat="44.75795" lon="8.68601">
        <ele>132.32</ele>
        <time>2016-10-07T09:19:53Z</time>
      </trkpt>
      <trkpt lat="44.75764" lon="8.68647">
        <ele>132.8</ele>
        <time>2016-10-07T09:20:07Z</time>
      </trkpt>
      <trkpt lat="44.75695" lon="8.6868">
        <ele>133.76</ele>
        <time>2016-10-07T09:20:26Z</time>
      </trkpt>
      <trkpt lat="44.75678" lon="8.68695">
        <ele>133.76</ele>
        <time>2016-10-07T09:20:31Z</time>
      </trkpt>
      <trkpt lat="44.75621" lon="8.68775">
        <ele>134.72</ele>
        <time>2016-10-07T09:20:50Z</time>
      </trkpt>
      <trkpt lat="44.7556" lon="8.68826">
        <ele>135.68</ele>
        <time>2016-10-07T09:21:06Z</time>
      </trkpt>
      <trkpt lat="44.7553" lon="8.68838">
        <ele>136.64</ele>
        <time>2016-10-07T09:21:13Z</time>
      </trkpt>
      <trkpt lat="44.75473" lon="8.68878">
        <ele>138.57</ele>
        <time>2016-10-07T09:21:29Z</time>
      </trkpt>
      <trkpt lat="44.75474" lon="8.68882">
        <ele>138.57</ele>
        <time>2016-10-07T09:21:30Z</time>
      </trkpt>
      <trkpt lat="44.75474" lon="8.68886">
        <ele>138.57</ele>
        <time>2016-10-07T09:21:31Z</time>
      </trkpt>
      <trkpt lat="44.75475" lon="8.6889">
        <ele>138.57</ele>
        <time>2016-10-07T09:21:32Z</time>
      </trkpt>
      <trkpt lat="44.7548" lon="8.68907">
        <ele>138.57</ele>
        <time>2016-10-07T09:21:36Z</time>
      </trkpt>
      <trkpt lat="44.75479" lon="8.6891">
        <ele>138.57</ele>
        <time>2016-10-07T09:21:37Z</time>
      </trkpt>
      <trkpt lat="44.75477" lon="8.68914">
        <ele>138.09</ele>
        <time>2016-10-07T09:21:38Z</time>
      </trkpt>
      <trkpt lat="44.75475" lon="8.68916">
        <ele>138.57</ele>
        <time>2016-10-07T09:21:39Z</time>
      </trkpt>
      <trkpt lat="44.75472" lon="8.68919">
        <ele>138.57</ele>
        <time>2016-10-07T09:21:40Z</time>
      </trkpt>
      <trkpt lat="44.75468" lon="8.68921">
        <ele>139.05</ele>
        <time>2016-10-07T09:21:41Z</time>
      </trkpt>
      <trkpt lat="44.75457" lon="8.68927">
        <ele>137.61</ele>
        <time>2016-10-07T09:21:44Z</time>
      </trkpt>
      <trkpt lat="44.75432" lon="8.68962">
        <ele>139.05</ele>
        <time>2016-10-07T09:21:54Z</time>
      </trkpt>
      <trkpt lat="44.75429" lon="8.69006">
        <ele>142.41</ele>
        <time>2016-10-07T09:22:09Z</time>
      </trkpt>
      <trkpt lat="44.75428" lon="8.69038">
        <ele>144.34</ele>
        <time>2016-10-07T09:22:23Z</time>
      </trkpt>
      <trkpt lat="44.75423" lon="8.69068">
        <ele>147.22</ele>
        <time>2016-10-07T09:22:38Z</time>
      </trkpt>
      <trkpt lat="44.75412" lon="8.69104">
        <ele>150.58</ele>
        <time>2016-10-07T09:22:56Z</time>
      </trkpt>
      <trkpt lat="44.75416" lon="8.69139">
        <ele>153.95</ele>
        <time>2016-10-07T09:23:12Z</time>
      </trkpt>
      <trkpt lat="44.75419" lon="8.69172">
        <ele>155.87</ele>
        <time>2016-10-07T09:23:27Z</time>
      </trkpt>
      <trkpt lat="44.7541" lon="8.69205">
        <ele>156.83</ele>
        <time>2016-10-07T09:23:42Z</time>
      </trkpt>
      <trkpt lat="44.75382" lon="8.69258">
        <ele>157.31</ele>
        <time>2016-10-07T09:23:58Z</time>
      </trkpt>
      <trkpt lat="44.75341" lon="8.6933">
        <ele>156.35</ele>
        <time>2016-10-07T09:24:16Z</time>
      </trkpt>
      <trkpt lat="44.75295" lon="8.69422">
        <ele>157.31</ele>
        <time>2016-10-07T09:24:34Z</time>
      </trkpt>
      <trkpt lat="44.75259" lon="8.69526">
        <ele>157.31</ele>
        <time>2016-10-07T09:24:52Z</time>
      </trkpt>
      <trkpt lat="44.75225" lon="8.69622">
        <ele>158.27</ele>
        <time>2016-10-07T09:25:08Z</time>
      </trkpt>
      <trkpt lat="44.75216" lon="8.6965">
        <ele>156.83</ele>
        <time>2016-10-07T09:25:12Z</time>
      </trkpt>
      <trkpt lat="44.75176" lon="8.69722">
        <ele>153.95</ele>
        <time>2016-10-07T09:25:22Z</time>
      </trkpt>
      <trkpt lat="44.7517" lon="8.69731">
        <ele>153.47</ele>
        <time>2016-10-07T09:25:23Z</time>
      </trkpt>
      <trkpt lat="44.75145" lon="8.69764">
        <ele>151.06</ele>
        <time>2016-10-07T09:25:27Z</time>
      </trkpt>
      <trkpt lat="44.75138" lon="8.69771">
        <ele>151.54</ele>
        <time>2016-10-07T09:25:28Z</time>
      </trkpt>
      <trkpt lat="44.75131" lon="8.69777">
        <ele>151.54</ele>
        <time>2016-10-07T09:25:29Z</time>
      </trkpt>
      <trkpt lat="44.75124" lon="8.69782">
        <ele>151.54</ele>
        <time>2016-10-07T09:25:30Z</time>
      </trkpt>
      <trkpt lat="44.75116" lon="8.69785">
        <ele>151.54</ele>
        <time>2016-10-07T09:25:31Z</time>
      </trkpt>
      <trkpt lat="44.75109" lon="8.69788">
        <ele>151.54</ele>
        <time>2016-10-07T09:25:32Z</time>
      </trkpt>
      <trkpt lat="44.75083" lon="8.69799">
        <ele>152.03</ele>
        <time>2016-10-07T09:25:36Z</time>
      </trkpt>
      <trkpt lat="44.75077" lon="8.69804">
        <ele>152.51</ele>
        <time>2016-10-07T09:25:37Z</time>
      </trkpt>
      <trkpt lat="44.75072" lon="8.6981">
        <ele>152.03</ele>
        <time>2016-10-07T09:25:38Z</time>
      </trkpt>
      <trkpt lat="44.75003" lon="8.69899">
        <ele>151.06</ele>
        <time>2016-10-07T09:25:52Z</time>
      </trkpt>
      <trkpt lat="44.74961" lon="8.69948">
        <ele>150.58</ele>
        <time>2016-10-07T09:26:00Z</time>
      </trkpt>
      <trkpt lat="44.74913" lon="8.70066">
        <ele>150.58</ele>
        <time>2016-10-07T09:26:15Z</time>
      </trkpt>
      <trkpt lat="44.74911" lon="8.70073">
        <ele>151.06</ele>
        <time>2016-10-07T09:26:16Z</time>
      </trkpt>
      <trkpt lat="44.74882" lon="8.70191">
        <ele>152.51</ele>
        <time>2016-10-07T09:26:33Z</time>
      </trkpt>
      <trkpt lat="44.74879" lon="8.70196">
        <ele>152.51</ele>
        <time>2016-10-07T09:26:34Z</time>
      </trkpt>
      <trkpt lat="44.74875" lon="8.70201">
        <ele>152.99</ele>
        <time>2016-10-07T09:26:35Z</time>
      </trkpt>
      <trkpt lat="44.74871" lon="8.70205">
        <ele>152.99</ele>
        <time>2016-10-07T09:26:36Z</time>
      </trkpt>
      <trkpt lat="44.74866" lon="8.70208">
        <ele>152.99</ele>
        <time>2016-10-07T09:26:37Z</time>
      </trkpt>
      <trkpt lat="44.74861" lon="8.70209">
        <ele>152.99</ele>
        <time>2016-10-07T09:26:38Z</time>
      </trkpt>
      <trkpt lat="44.74856" lon="8.70209">
        <ele>152.99</ele>
        <time>2016-10-07T09:26:39Z</time>
      </trkpt>
      <trkpt lat="44.74851" lon="8.70208">
        <ele>152.99</ele>
        <time>2016-10-07T09:26:40Z</time>
      </trkpt>
      <trkpt lat="44.74847" lon="8.70206">
        <ele>153.95</ele>
        <time>2016-10-07T09:26:41Z</time>
      </trkpt>
      <trkpt lat="44.74842" lon="8.70203">
        <ele>153.95</ele>
        <time>2016-10-07T09:26:42Z</time>
      </trkpt>
      <trkpt lat="44.74839" lon="8.70201">
        <ele>153.95</ele>
        <time>2016-10-07T09:26:43Z</time>
      </trkpt>
      <trkpt lat="44.74783" lon="8.7019">
        <ele>155.39</ele>
        <time>2016-10-07T09:26:58Z</time>
      </trkpt>
      <trkpt lat="44.74775" lon="8.70194">
        <ele>155.39</ele>
        <time>2016-10-07T09:27:00Z</time>
      </trkpt>
      <trkpt lat="44.74771" lon="8.70197">
        <ele>155.39</ele>
        <time>2016-10-07T09:27:01Z</time>
      </trkpt>
      <trkpt lat="44.74767" lon="8.70201">
        <ele>155.39</ele>
        <time>2016-10-07T09:27:02Z</time>
      </trkpt>
      <trkpt lat="44.74764" lon="8.70206">
        <ele>155.39</ele>
        <time>2016-10-07T09:27:03Z</time>
      </trkpt>
      <trkpt lat="44.74761" lon="8.70211">
        <ele>155.39</ele>
        <time>2016-10-07T09:27:04Z</time>
      </trkpt>
      <trkpt lat="44.74758" lon="8.70217">
        <ele>155.39</ele>
        <time>2016-10-07T09:27:05Z</time>
      </trkpt>
      <trkpt lat="44.74755" lon="8.70223">
        <ele>155.39</ele>
        <time>2016-10-07T09:27:06Z</time>
      </trkpt>
      <trkpt lat="44.74705" lon="8.70354">
        <ele>152.99</ele>
        <time>2016-10-07T09:27:22Z</time>
      </trkpt>
      <trkpt lat="44.74687" lon="8.70437">
        <ele>152.03</ele>
        <time>2016-10-07T09:27:31Z</time>
      </trkpt>
      <trkpt lat="44.74684" lon="8.70446">
        <ele>152.03</ele>
        <time>2016-10-07T09:27:32Z</time>
      </trkpt>
      <trkpt lat="44.74681" lon="8.70455">
        <ele>152.51</ele>
        <time>2016-10-07T09:27:33Z</time>
      </trkpt>
      <trkpt lat="44.74677" lon="8.70463">
        <ele>152.51</ele>
        <time>2016-10-07T09:27:34Z</time>
      </trkpt>
      <trkpt lat="44.74673" lon="8.7047">
        <ele>152.03</ele>
        <time>2016-10-07T09:27:35Z</time>
      </trkpt>
      <trkpt lat="44.74669" lon="8.70478">
        <ele>151.54</ele>
        <time>2016-10-07T09:27:36Z</time>
      </trkpt>
      <trkpt lat="44.74601" lon="8.70589">
        <ele>154.43</ele>
        <time>2016-10-07T09:27:54Z</time>
      </trkpt>
      <trkpt lat="44.74552" lon="8.70669">
        <ele>152.99</ele>
        <time>2016-10-07T09:28:07Z</time>
      </trkpt>
      <trkpt lat="44.74547" lon="8.70684">
        <ele>153.95</ele>
        <time>2016-10-07T09:28:09Z</time>
      </trkpt>
      <trkpt lat="44.74545" lon="8.70692">
        <ele>153.47</ele>
        <time>2016-10-07T09:28:10Z</time>
      </trkpt>
      <trkpt lat="44.74545" lon="8.707">
        <ele>153.47</ele>
        <time>2016-10-07T09:28:11Z</time>
      </trkpt>
      <trkpt lat="44.74545" lon="8.70708">
        <ele>153.47</ele>
        <time>2016-10-07T09:28:12Z</time>
      </trkpt>
      <trkpt lat="44.74545" lon="8.70716">
        <ele>153.95</ele>
        <time>2016-10-07T09:28:13Z</time>
      </trkpt>
      <trkpt lat="44.74546" lon="8.70723">
        <ele>153.95</ele>
        <time>2016-10-07T09:28:14Z</time>
      </trkpt>
      <trkpt lat="44.74548" lon="8.7073">
        <ele>153.95</ele>
        <time>2016-10-07T09:28:15Z</time>
      </trkpt>
      <trkpt lat="44.74549" lon="8.70737">
        <ele>153.47</ele>
        <time>2016-10-07T09:28:16Z</time>
      </trkpt>
      <trkpt lat="44.74549" lon="8.70745">
        <ele>153.47</ele>
        <time>2016-10-07T09:28:17Z</time>
      </trkpt>
      <trkpt lat="44.74549" lon="8.70769">
        <ele>153.47</ele>
        <time>2016-10-07T09:28:20Z</time>
      </trkpt>
      <trkpt lat="44.74548" lon="8.70777">
        <ele>152.99</ele>
        <time>2016-10-07T09:28:21Z</time>
      </trkpt>
      <trkpt lat="44.74546" lon="8.70785">
        <ele>152.99</ele>
        <time>2016-10-07T09:28:22Z</time>
      </trkpt>
      <trkpt lat="44.74544" lon="8.70793">
        <ele>152.51</ele>
        <time>2016-10-07T09:28:23Z</time>
      </trkpt>
      <trkpt lat="44.74542" lon="8.70801">
        <ele>152.51</ele>
        <time>2016-10-07T09:28:24Z</time>
      </trkpt>
      <trkpt lat="44.74489" lon="8.70928">
        <ele>152.99</ele>
        <time>2016-10-07T09:28:42Z</time>
      </trkpt>
      <trkpt lat="44.74443" lon="8.70999">
        <ele>153.47</ele>
        <time>2016-10-07T09:28:54Z</time>
      </trkpt>
      <trkpt lat="44.74377" lon="8.71062">
        <ele>155.39</ele>
        <time>2016-10-07T09:29:09Z</time>
      </trkpt>
      <trkpt lat="44.74299" lon="8.71113">
        <ele>155.39</ele>
        <time>2016-10-07T09:29:25Z</time>
      </trkpt>
      <trkpt lat="44.74235" lon="8.7117">
        <ele>155.39</ele>
        <time>2016-10-07T09:29:39Z</time>
      </trkpt>
      <trkpt lat="44.74149" lon="8.71263">
        <ele>156.83</ele>
        <time>2016-10-07T09:30:02Z</time>
      </trkpt>
      <trkpt lat="44.74064" lon="8.71356">
        <ele>158.27</ele>
        <time>2016-10-07T09:30:24Z</time>
      </trkpt>
      <trkpt lat="44.74" lon="8.71427">
        <ele>158.27</ele>
        <time>2016-10-07T09:30:41Z</time>
      </trkpt>
      <trkpt lat="44.73924" lon="8.71513">
        <ele>159.24</ele>
        <time>2016-10-07T09:31:02Z</time>
      </trkpt>
      <trkpt lat="44.73838" lon="8.71607">
        <ele>160.68</ele>
        <time>2016-10-07T09:31:25Z</time>
      </trkpt>
      <trkpt lat="44.73762" lon="8.7169">
        <ele>162.12</ele>
        <time>2016-10-07T09:31:44Z</time>
      </trkpt>
      <trkpt lat="44.73694" lon="8.71766">
        <ele>163.08</ele>
        <time>2016-10-07T09:32:03Z</time>
      </trkpt>
      <trkpt lat="44.73665" lon="8.71767">
        <ele>164.52</ele>
        <time>2016-10-07T09:32:13Z</time>
      </trkpt>
      <trkpt lat="44.73642" lon="8.71723">
        <ele>167.41</ele>
        <time>2016-10-07T09:32:30Z</time>
      </trkpt>
      <trkpt lat="44.73622" lon="8.71685">
        <ele>169.81</ele>
        <time>2016-10-07T09:32:47Z</time>
      </trkpt>
      <trkpt lat="44.73606" lon="8.71655">
        <ele>173.17</ele>
        <time>2016-10-07T09:33:04Z</time>
      </trkpt>
      <trkpt lat="44.73595" lon="8.71624">
        <ele>175.58</ele>
        <time>2016-10-07T09:33:22Z</time>
      </trkpt>
      <trkpt lat="44.73607" lon="8.71595">
        <ele>178.46</ele>
        <time>2016-10-07T09:33:40Z</time>
      </trkpt>
      <trkpt lat="44.73621" lon="8.71568">
        <ele>181.35</ele>
        <time>2016-10-07T09:33:58Z</time>
      </trkpt>
      <trkpt lat="44.73634" lon="8.7154">
        <ele>183.27</ele>
        <time>2016-10-07T09:34:16Z</time>
      </trkpt>
      <trkpt lat="44.73648" lon="8.71509">
        <ele>186.63</ele>
        <time>2016-10-07T09:34:35Z</time>
      </trkpt>
      <trkpt lat="44.73655" lon="8.7148">
        <ele>190</ele>
        <time>2016-10-07T09:34:52Z</time>
      </trkpt>
      <trkpt lat="44.73655" lon="8.71478">
        <ele>190.48</ele>
        <time>2016-10-07T09:34:53Z</time>
      </trkpt>
      <trkpt lat="44.73651" lon="8.71468">
        <ele>190.48</ele>
        <time>2016-10-07T09:35:00Z</time>
      </trkpt>
      <trkpt lat="44.7365" lon="8.71466">
        <ele>190.48</ele>
        <time>2016-10-07T09:35:01Z</time>
      </trkpt>
      <trkpt lat="44.73649" lon="8.71464">
        <ele>190</ele>
        <time>2016-10-07T09:35:02Z</time>
      </trkpt>
      <trkpt lat="44.73638" lon="8.71443">
        <ele>191.92</ele>
        <time>2016-10-07T09:35:15Z</time>
      </trkpt>
      <trkpt lat="44.73616" lon="8.71394">
        <ele>190.96</ele>
        <time>2016-10-07T09:35:28Z</time>
      </trkpt>
      <trkpt lat="44.73612" lon="8.71387">
        <ele>190.96</ele>
        <time>2016-10-07T09:35:29Z</time>
      </trkpt>
      <trkpt lat="44.73609" lon="8.71382">
        <ele>189.52</ele>
        <time>2016-10-07T09:35:30Z</time>
      </trkpt>
      <trkpt lat="44.73607" lon="8.7138">
        <ele>189.04</ele>
        <time>2016-10-07T09:35:31Z</time>
      </trkpt>
      <trkpt lat="44.73605" lon="8.71379">
        <ele>188.56</ele>
        <time>2016-10-07T09:35:32Z</time>
      </trkpt>
      <trkpt lat="44.73603" lon="8.71379">
        <ele>188.56</ele>
        <time>2016-10-07T09:35:33Z</time>
      </trkpt>
      <trkpt lat="44.73602" lon="8.7138">
        <ele>189.04</ele>
        <time>2016-10-07T09:35:46Z</time>
      </trkpt>
      <trkpt lat="44.736" lon="8.71381">
        <ele>188.56</ele>
        <time>2016-10-07T09:36:25Z</time>
      </trkpt>
      <trkpt lat="44.73601" lon="8.7138">
        <ele>189.04</ele>
        <time>2016-10-07T09:36:59Z</time>
      </trkpt>
      <trkpt lat="44.73601" lon="8.7138">
        <ele>188.56</ele>
        <time>2016-10-07T09:37:31Z</time>
      </trkpt>
      <trkpt lat="44.736" lon="8.71378">
        <ele>188.56</ele>
        <time>2016-10-07T09:37:52Z</time>
      </trkpt>
      <trkpt lat="44.73586" lon="8.71382">
        <ele>188.56</ele>
        <time>2016-10-07T09:38:04Z</time>
      </trkpt>
      <trkpt lat="44.73564" lon="8.71424">
        <ele>189.52</ele>
        <time>2016-10-07T09:38:18Z</time>
      </trkpt>
      <trkpt lat="44.73532" lon="8.71486">
        <ele>190.96</ele>
        <time>2016-10-07T09:38:35Z</time>
      </trkpt>
      <trkpt lat="44.73488" lon="8.71531">
        <ele>192.88</ele>
        <time>2016-10-07T09:38:52Z</time>
      </trkpt>
      <trkpt lat="44.73485" lon="8.7153">
        <ele>192.88</ele>
        <time>2016-10-07T09:38:53Z</time>
      </trkpt>
      <trkpt lat="44.73483" lon="8.71529">
        <ele>193.36</ele>
        <time>2016-10-07T09:38:54Z</time>
      </trkpt>
      <trkpt lat="44.73482" lon="8.71526">
        <ele>193.84</ele>
        <time>2016-10-07T09:38:55Z</time>
      </trkpt>
      <trkpt lat="44.7348" lon="8.71524">
        <ele>193.84</ele>
        <time>2016-10-07T09:38:56Z</time>
      </trkpt>
      <trkpt lat="44.73479" lon="8.71522">
        <ele>193.84</ele>
        <time>2016-10-07T09:38:57Z</time>
      </trkpt>
      <trkpt lat="44.73455" lon="8.71487">
        <ele>196.25</ele>
        <time>2016-10-07T09:39:13Z</time>
      </trkpt>
      <trkpt lat="44.73431" lon="8.71452">
        <ele>199.61</ele>
        <time>2016-10-07T09:39:30Z</time>
      </trkpt>
      <trkpt lat="44.734" lon="8.71409">
        <ele>200.57</ele>
        <time>2016-10-07T09:39:48Z</time>
      </trkpt>
      <trkpt lat="44.73359" lon="8.71345">
        <ele>199.13</ele>
        <time>2016-10-07T09:40:04Z</time>
      </trkpt>
      <trkpt lat="44.73355" lon="8.71341">
        <ele>198.65</ele>
        <time>2016-10-07T09:40:05Z</time>
      </trkpt>
      <trkpt lat="44.73351" lon="8.71337">
        <ele>198.65</ele>
        <time>2016-10-07T09:40:06Z</time>
      </trkpt>
      <trkpt lat="44.73347" lon="8.71335">
        <ele>198.65</ele>
        <time>2016-10-07T09:40:07Z</time>
      </trkpt>
      <trkpt lat="44.73342" lon="8.71334">
        <ele>198.65</ele>
        <time>2016-10-07T09:40:08Z</time>
      </trkpt>
      <trkpt lat="44.73337" lon="8.71333">
        <ele>199.13</ele>
        <time>2016-10-07T09:40:09Z</time>
      </trkpt>
      <trkpt lat="44.73332" lon="8.71335">
        <ele>199.13</ele>
        <time>2016-10-07T09:40:10Z</time>
      </trkpt>
      <trkpt lat="44.73327" lon="8.71338">
        <ele>199.13</ele>
        <time>2016-10-07T09:40:11Z</time>
      </trkpt>
      <trkpt lat="44.73324" lon="8.71342">
        <ele>199.13</ele>
        <time>2016-10-07T09:40:12Z</time>
      </trkpt>
      <trkpt lat="44.7332" lon="8.71345">
        <ele>199.13</ele>
        <time>2016-10-07T09:40:13Z</time>
      </trkpt>
      <trkpt lat="44.73317" lon="8.71349">
        <ele>199.13</ele>
        <time>2016-10-07T09:40:14Z</time>
      </trkpt>
      <trkpt lat="44.7327" lon="8.71397">
        <ele>197.69</ele>
        <time>2016-10-07T09:40:25Z</time>
      </trkpt>
      <trkpt lat="44.73218" lon="8.71431">
        <ele>200.09</ele>
        <time>2016-10-07T09:40:39Z</time>
      </trkpt>
      <trkpt lat="44.73154" lon="8.71467">
        <ele>200.09</ele>
        <time>2016-10-07T09:40:55Z</time>
      </trkpt>
      <trkpt lat="44.7315" lon="8.71467">
        <ele>200.09</ele>
        <time>2016-10-07T09:40:56Z</time>
      </trkpt>
      <trkpt lat="44.73145" lon="8.71467">
        <ele>200.57</ele>
        <time>2016-10-07T09:40:57Z</time>
      </trkpt>
      <trkpt lat="44.73095" lon="8.71469">
        <ele>201.53</ele>
        <time>2016-10-07T09:41:08Z</time>
      </trkpt>
      <trkpt lat="44.73091" lon="8.71471">
        <ele>202.01</ele>
        <time>2016-10-07T09:41:09Z</time>
      </trkpt>
      <trkpt lat="44.73087" lon="8.71474">
        <ele>201.53</ele>
        <time>2016-10-07T09:41:10Z</time>
      </trkpt>
      <trkpt lat="44.73083" lon="8.71477">
        <ele>201.53</ele>
        <time>2016-10-07T09:41:11Z</time>
      </trkpt>
      <trkpt lat="44.73079" lon="8.7148">
        <ele>201.53</ele>
        <time>2016-10-07T09:41:12Z</time>
      </trkpt>
      <trkpt lat="44.73075" lon="8.71484">
        <ele>201.53</ele>
        <time>2016-10-07T09:41:13Z</time>
      </trkpt>
      <trkpt lat="44.73072" lon="8.71488">
        <ele>202.01</ele>
        <time>2016-10-07T09:41:14Z</time>
      </trkpt>
      <trkpt lat="44.7307" lon="8.71494">
        <ele>202.01</ele>
        <time>2016-10-07T09:41:15Z</time>
      </trkpt>
      <trkpt lat="44.73067" lon="8.71499">
        <ele>202.01</ele>
        <time>2016-10-07T09:41:16Z</time>
      </trkpt>
      <trkpt lat="44.73062" lon="8.7151">
        <ele>202.01</ele>
        <time>2016-10-07T09:41:18Z</time>
      </trkpt>
      <trkpt lat="44.73059" lon="8.71515">
        <ele>202.01</ele>
        <time>2016-10-07T09:41:19Z</time>
      </trkpt>
      <trkpt lat="44.73056" lon="8.71519">
        <ele>202.01</ele>
        <time>2016-10-07T09:41:20Z</time>
      </trkpt>
      <trkpt lat="44.73053" lon="8.71523">
        <ele>202.98</ele>
        <time>2016-10-07T09:41:21Z</time>
      </trkpt>
      <trkpt lat="44.73049" lon="8.71526">
        <ele>202.49</ele>
        <time>2016-10-07T09:41:22Z</time>
      </trkpt>
      <trkpt lat="44.73045" lon="8.71529">
        <ele>202.98</ele>
        <time>2016-10-07T09:41:23Z</time>
      </trkpt>
      <trkpt lat="44.72985" lon="8.7157">
        <ele>204.42</ele>
        <time>2016-10-07T09:41:39Z</time>
      </trkpt>
      <trkpt lat="44.72983" lon="8.71568">
        <ele>204.42</ele>
        <time>2016-10-07T09:41:40Z</time>
      </trkpt>
      <trkpt lat="44.72981" lon="8.71565">
        <ele>203.94</ele>
        <time>2016-10-07T09:41:41Z</time>
      </trkpt>
      <trkpt lat="44.72979" lon="8.71562">
        <ele>203.46</ele>
        <time>2016-10-07T09:41:42Z</time>
      </trkpt>
      <trkpt lat="44.72978" lon="8.71558">
        <ele>203.94</ele>
        <time>2016-10-07T09:41:43Z</time>
      </trkpt>
      <trkpt lat="44.72976" lon="8.71555">
        <ele>203.94</ele>
        <time>2016-10-07T09:41:44Z</time>
      </trkpt>
      <trkpt lat="44.72974" lon="8.71551">
        <ele>204.42</ele>
        <time>2016-10-07T09:41:45Z</time>
      </trkpt>
      <trkpt lat="44.7295" lon="8.71492">
        <ele>204.42</ele>
        <time>2016-10-07T09:41:59Z</time>
      </trkpt>
      <trkpt lat="44.72918" lon="8.71419">
        <ele>206.34</ele>
        <time>2016-10-07T09:42:17Z</time>
      </trkpt>
      <trkpt lat="44.72896" lon="8.71368">
        <ele>209.22</ele>
        <time>2016-10-07T09:42:32Z</time>
      </trkpt>
      <trkpt lat="44.7288" lon="8.71338">
        <ele>211.15</ele>
        <time>2016-10-07T09:42:45Z</time>
      </trkpt>
      <trkpt lat="44.72859" lon="8.71304">
        <ele>214.03</ele>
        <time>2016-10-07T09:43:03Z</time>
      </trkpt>
      <trkpt lat="44.72846" lon="8.71286">
        <ele>216.43</ele>
        <time>2016-10-07T09:43:14Z</time>
      </trkpt>
      <trkpt lat="44.72845" lon="8.71284">
        <ele>215.95</ele>
        <time>2016-10-07T09:43:15Z</time>
      </trkpt>
      <trkpt lat="44.72828" lon="8.71255">
        <ele>218.36</ele>
        <time>2016-10-07T09:43:29Z</time>
      </trkpt>
      <trkpt lat="44.72821" lon="8.71247">
        <ele>218.36</ele>
        <time>2016-10-07T09:43:33Z</time>
      </trkpt>
      <trkpt lat="44.72819" lon="8.71247">
        <ele>218.84</ele>
        <time>2016-10-07T09:43:34Z</time>
      </trkpt>
      <trkpt lat="44.72817" lon="8.71247">
        <ele>218.36</ele>
        <time>2016-10-07T09:43:35Z</time>
      </trkpt>
      <trkpt lat="44.72814" lon="8.71248">
        <ele>218.84</ele>
        <time>2016-10-07T09:43:36Z</time>
      </trkpt>
      <trkpt lat="44.72812" lon="8.71249">
        <ele>218.36</ele>
        <time>2016-10-07T09:43:37Z</time>
      </trkpt>
      <trkpt lat="44.72758" lon="8.71279">
        <ele>218.84</ele>
        <time>2016-10-07T09:43:55Z</time>
      </trkpt>
      <trkpt lat="44.72708" lon="8.7134">
        <ele>220.28</ele>
        <time>2016-10-07T09:44:15Z</time>
      </trkpt>
      <trkpt lat="44.72661" lon="8.71396">
        <ele>221.72</ele>
        <time>2016-10-07T09:44:32Z</time>
      </trkpt>
      <trkpt lat="44.72614" lon="8.71452">
        <ele>224.12</ele>
        <time>2016-10-07T09:44:49Z</time>
      </trkpt>
      <trkpt lat="44.72574" lon="8.71508">
        <ele>224.61</ele>
        <time>2016-10-07T09:45:05Z</time>
      </trkpt>
      <trkpt lat="44.72575" lon="8.71508">
        <ele>224.12</ele>
        <time>2016-10-07T09:45:21Z</time>
      </trkpt>
      <trkpt lat="44.72576" lon="8.71508">
        <ele>224.61</ele>
        <time>2016-10-07T09:45:52Z</time>
      </trkpt>
      <trkpt lat="44.72574" lon="8.71512">
        <ele>225.09</ele>
        <time>2016-10-07T09:46:17Z</time>
      </trkpt>
      <trkpt lat="44.72549" lon="8.71542">
        <ele>225.09</ele>
        <time>2016-10-07T09:46:31Z</time>
      </trkpt>
      <trkpt lat="44.72504" lon="8.71611">
        <ele>225.57</ele>
        <time>2016-10-07T09:46:50Z</time>
      </trkpt>
      <trkpt lat="44.72464" lon="8.71713">
        <ele>226.05</ele>
        <time>2016-10-07T09:47:09Z</time>
      </trkpt>
      <trkpt lat="44.72458" lon="8.71732">
        <ele>226.53</ele>
        <time>2016-10-07T09:47:12Z</time>
      </trkpt>
      <trkpt lat="44.72456" lon="8.71738">
        <ele>227.01</ele>
        <time>2016-10-07T09:47:13Z</time>
      </trkpt>
      <trkpt lat="44.72454" lon="8.71744">
        <ele>226.05</ele>
        <time>2016-10-07T09:47:14Z</time>
      </trkpt>
      <trkpt lat="44.72452" lon="8.7175">
        <ele>225.57</ele>
        <time>2016-10-07T09:47:15Z</time>
      </trkpt>
      <trkpt lat="44.7245" lon="8.71756">
        <ele>226.05</ele>
        <time>2016-10-07T09:47:16Z</time>
      </trkpt>
      <trkpt lat="44.72449" lon="8.71762">
        <ele>226.05</ele>
        <time>2016-10-07T09:47:17Z</time>
      </trkpt>
      <trkpt lat="44.72414" lon="8.71844">
        <ele>227.49</ele>
        <time>2016-10-07T09:47:32Z</time>
      </trkpt>
      <trkpt lat="44.72375" lon="8.71889">
        <ele>229.41</ele>
        <time>2016-10-07T09:47:47Z</time>
      </trkpt>
      <trkpt lat="44.72319" lon="8.71952">
        <ele>229.89</ele>
        <time>2016-10-07T09:48:06Z</time>
      </trkpt>
      <trkpt lat="44.72256" lon="8.72016">
        <ele>231.81</ele>
        <time>2016-10-07T09:48:26Z</time>
      </trkpt>
      <trkpt lat="44.72223" lon="8.72044">
        <ele>231.33</ele>
        <time>2016-10-07T09:48:35Z</time>
      </trkpt>
      <trkpt lat="44.72218" lon="8.72047">
        <ele>231.81</ele>
        <time>2016-10-07T09:48:36Z</time>
      </trkpt>
      <trkpt lat="44.72154" lon="8.72094">
        <ele>233.26</ele>
        <time>2016-10-07T09:48:52Z</time>
      </trkpt>
      <trkpt lat="44.7209" lon="8.72166">
        <ele>233.74</ele>
        <time>2016-10-07T09:49:10Z</time>
      </trkpt>
      <trkpt lat="44.72026" lon="8.72211">
        <ele>233.26</ele>
        <time>2016-10-07T09:49:25Z</time>
      </trkpt>
      <trkpt lat="44.71945" lon="8.72241">
        <ele>234.22</ele>
        <time>2016-10-07T09:49:43Z</time>
      </trkpt>
      <trkpt lat="44.7187" lon="8.72284">
        <ele>235.66</ele>
        <time>2016-10-07T09:49:59Z</time>
      </trkpt>
      <trkpt lat="44.71822" lon="8.72326">
        <ele>239.02</ele>
        <time>2016-10-07T09:50:16Z</time>
      </trkpt>
      <trkpt lat="44.71771" lon="8.72369">
        <ele>241.43</ele>
        <time>2016-10-07T09:50:34Z</time>
      </trkpt>
      <trkpt lat="44.71719" lon="8.72412">
        <ele>242.87</ele>
        <time>2016-10-07T09:50:52Z</time>
      </trkpt>
      <trkpt lat="44.71659" lon="8.72452">
        <ele>244.31</ele>
        <time>2016-10-07T09:51:11Z</time>
      </trkpt>
      <trkpt lat="44.71589" lon="8.72484">
        <ele>246.72</ele>
        <time>2016-10-07T09:51:31Z</time>
      </trkpt>
      <trkpt lat="44.71514" lon="8.72523">
        <ele>249.12</ele>
        <time>2016-10-07T09:51:52Z</time>
      </trkpt>
      <trkpt lat="44.71442" lon="8.72561">
        <ele>251.04</ele>
        <time>2016-10-07T09:52:12Z</time>
      </trkpt>
      <trkpt lat="44.71378" lon="8.72581">
        <ele>251.04</ele>
        <time>2016-10-07T09:52:29Z</time>
      </trkpt>
      <trkpt lat="44.71371" lon="8.72584">
        <ele>252</ele>
        <time>2016-10-07T09:52:31Z</time>
      </trkpt>
      <trkpt lat="44.71367" lon="8.72586">
        <ele>251.52</ele>
        <time>2016-10-07T09:52:32Z</time>
      </trkpt>
      <trkpt lat="44.71298" lon="8.72644">
        <ele>252.96</ele>
        <time>2016-10-07T09:52:50Z</time>
      </trkpt>
      <trkpt lat="44.71228" lon="8.7271">
        <ele>253.93</ele>
        <time>2016-10-07T09:53:10Z</time>
      </trkpt>
      <trkpt lat="44.71161" lon="8.72778">
        <ele>254.41</ele>
        <time>2016-10-07T09:53:30Z</time>
      </trkpt>
      <trkpt lat="44.71088" lon="8.72849">
        <ele>254.89</ele>
        <time>2016-10-07T09:53:49Z</time>
      </trkpt>
      <trkpt lat="44.71001" lon="8.72934">
        <ele>256.33</ele>
        <time>2016-10-07T09:54:12Z</time>
      </trkpt>
      <trkpt lat="44.70921" lon="8.7301">
        <ele>257.29</ele>
        <time>2016-10-07T09:54:32Z</time>
      </trkpt>
      <trkpt lat="44.70845" lon="8.73086">
        <ele>257.77</ele>
        <time>2016-10-07T09:54:51Z</time>
      </trkpt>
      <trkpt lat="44.7079" lon="8.7314">
        <ele>258.73</ele>
        <time>2016-10-07T09:55:07Z</time>
      </trkpt>
      <trkpt lat="44.70767" lon="8.73208">
        <ele>260.17</ele>
        <time>2016-10-07T09:55:21Z</time>
      </trkpt>
      <trkpt lat="44.70741" lon="8.73274">
        <ele>262.1</ele>
        <time>2016-10-07T09:55:36Z</time>
      </trkpt>
      <trkpt lat="44.70668" lon="8.73322">
        <ele>262.1</ele>
        <time>2016-10-07T09:55:56Z</time>
      </trkpt>
      <trkpt lat="44.70594" lon="8.7339">
        <ele>262.58</ele>
        <time>2016-10-07T09:56:15Z</time>
      </trkpt>
      <trkpt lat="44.70553" lon="8.7343">
        <ele>264.02</ele>
        <time>2016-10-07T09:56:26Z</time>
      </trkpt>
      <trkpt lat="44.70497" lon="8.73518">
        <ele>264.5</ele>
        <time>2016-10-07T09:56:45Z</time>
      </trkpt>
      <trkpt lat="44.70434" lon="8.73606">
        <ele>266.42</ele>
        <time>2016-10-07T09:57:06Z</time>
      </trkpt>
      <trkpt lat="44.7038" lon="8.73637">
        <ele>268.35</ele>
        <time>2016-10-07T09:57:22Z</time>
      </trkpt>
      <trkpt lat="44.70348" lon="8.73682">
        <ele>269.31</ele>
        <time>2016-10-07T09:57:35Z</time>
      </trkpt>
      <trkpt lat="44.70343" lon="8.73707">
        <ele>269.79</ele>
        <time>2016-10-07T09:57:40Z</time>
      </trkpt>
      <trkpt lat="44.70344" lon="8.73712">
        <ele>269.31</ele>
        <time>2016-10-07T09:57:41Z</time>
      </trkpt>
      <trkpt lat="44.70346" lon="8.73717">
        <ele>269.79</ele>
        <time>2016-10-07T09:57:42Z</time>
      </trkpt>
      <trkpt lat="44.70348" lon="8.73722">
        <ele>269.31</ele>
        <time>2016-10-07T09:57:43Z</time>
      </trkpt>
      <trkpt lat="44.70351" lon="8.73726">
        <ele>269.31</ele>
        <time>2016-10-07T09:57:44Z</time>
      </trkpt>
      <trkpt lat="44.70359" lon="8.73739">
        <ele>269.79</ele>
        <time>2016-10-07T09:57:47Z</time>
      </trkpt>
      <trkpt lat="44.7036" lon="8.73744">
        <ele>269.79</ele>
        <time>2016-10-07T09:57:48Z</time>
      </trkpt>
      <trkpt lat="44.70361" lon="8.7375">
        <ele>269.79</ele>
        <time>2016-10-07T09:57:49Z</time>
      </trkpt>
      <trkpt lat="44.70361" lon="8.73755">
        <ele>269.31</ele>
        <time>2016-10-07T09:57:50Z</time>
      </trkpt>
      <trkpt lat="44.7036" lon="8.73761">
        <ele>269.79</ele>
        <time>2016-10-07T09:57:51Z</time>
      </trkpt>
      <trkpt lat="44.70359" lon="8.73767">
        <ele>269.79</ele>
        <time>2016-10-07T09:57:52Z</time>
      </trkpt>
      <trkpt lat="44.70357" lon="8.73772">
        <ele>269.79</ele>
        <time>2016-10-07T09:57:53Z</time>
      </trkpt>
      <trkpt lat="44.70354" lon="8.73777">
        <ele>269.79</ele>
        <time>2016-10-07T09:57:54Z</time>
      </trkpt>
      <trkpt lat="44.70305" lon="8.73846">
        <ele>269.79</ele>
        <time>2016-10-07T09:58:10Z</time>
      </trkpt>
      <trkpt lat="44.70299" lon="8.73852">
        <ele>269.79</ele>
        <time>2016-10-07T09:58:12Z</time>
      </trkpt>
      <trkpt lat="44.70295" lon="8.73854">
        <ele>269.79</ele>
        <time>2016-10-07T09:58:13Z</time>
      </trkpt>
      <trkpt lat="44.70284" lon="8.73861">
        <ele>269.79</ele>
        <time>2016-10-07T09:58:16Z</time>
      </trkpt>
      <trkpt lat="44.70233" lon="8.73893">
        <ele>268.83</ele>
        <time>2016-10-07T09:58:28Z</time>
      </trkpt>
      <trkpt lat="44.70229" lon="8.73897">
        <ele>268.83</ele>
        <time>2016-10-07T09:58:29Z</time>
      </trkpt>
      <trkpt lat="44.70222" lon="8.73904">
        <ele>269.31</ele>
        <time>2016-10-07T09:58:31Z</time>
      </trkpt>
      <trkpt lat="44.70192" lon="8.73945">
        <ele>268.35</ele>
        <time>2016-10-07T09:58:41Z</time>
      </trkpt>
      <trkpt lat="44.70189" lon="8.7395">
        <ele>269.31</ele>
        <time>2016-10-07T09:58:42Z</time>
      </trkpt>
      <trkpt lat="44.70187" lon="8.73955">
        <ele>268.83</ele>
        <time>2016-10-07T09:58:43Z</time>
      </trkpt>
      <trkpt lat="44.70177" lon="8.73981">
        <ele>268.35</ele>
        <time>2016-10-07T09:58:53Z</time>
      </trkpt>
      <trkpt lat="44.70176" lon="8.73982">
        <ele>269.31</ele>
        <time>2016-10-07T09:59:28Z</time>
      </trkpt>
      <trkpt lat="44.70173" lon="8.73982">
        <ele>269.79</ele>
        <time>2016-10-07T10:00:24Z</time>
      </trkpt>
      <trkpt lat="44.70174" lon="8.73982">
        <ele>269.79</ele>
        <time>2016-10-07T10:01:21Z</time>
      </trkpt>
      <trkpt lat="44.70174" lon="8.73981">
        <ele>269.31</ele>
        <time>2016-10-07T10:02:09Z</time>
      </trkpt>
      <trkpt lat="44.70177" lon="8.73984">
        <ele>269.79</ele>
        <time>2016-10-07T10:03:05Z</time>
      </trkpt>
      <trkpt lat="44.70176" lon="8.73982">
        <ele>268.35</ele>
        <time>2016-10-07T10:03:50Z</time>
      </trkpt>
      <trkpt lat="44.70175" lon="8.73983">
        <ele>269.31</ele>
        <time>2016-10-07T10:04:49Z</time>
      </trkpt>
      <trkpt lat="44.70174" lon="8.73984">
        <ele>268.83</ele>
        <time>2016-10-07T10:05:22Z</time>
      </trkpt>
      <trkpt lat="44.70162" lon="8.74012">
        <ele>269.31</ele>
        <time>2016-10-07T10:05:36Z</time>
      </trkpt>
      <trkpt lat="44.70121" lon="8.74058">
        <ele>269.79</ele>
        <time>2016-10-07T10:05:53Z</time>
      </trkpt>
      <trkpt lat="44.70104" lon="8.74081">
        <ele>270.75</ele>
        <time>2016-10-07T10:06:00Z</time>
      </trkpt>
      <trkpt lat="44.70074" lon="8.74109">
        <ele>269.79</ele>
        <time>2016-10-07T10:06:10Z</time>
      </trkpt>
      <trkpt lat="44.7007" lon="8.7411">
        <ele>270.27</ele>
        <time>2016-10-07T10:06:11Z</time>
      </trkpt>
      <trkpt lat="44.70002" lon="8.74121">
        <ele>272.67</ele>
        <time>2016-10-07T10:06:29Z</time>
      </trkpt>
      <trkpt lat="44.69934" lon="8.74118">
        <ele>273.63</ele>
        <time>2016-10-07T10:06:46Z</time>
      </trkpt>
      <trkpt lat="44.69855" lon="8.74144">
        <ele>273.15</ele>
        <time>2016-10-07T10:07:03Z</time>
      </trkpt>
      <trkpt lat="44.69827" lon="8.74162">
        <ele>273.15</ele>
        <time>2016-10-07T10:07:09Z</time>
      </trkpt>
      <trkpt lat="44.69754" lon="8.74218">
        <ele>274.11</ele>
        <time>2016-10-07T10:07:25Z</time>
      </trkpt>
      <trkpt lat="44.69738" lon="8.74239">
        <ele>274.11</ele>
        <time>2016-10-07T10:07:29Z</time>
      </trkpt>
      <trkpt lat="44.69735" lon="8.74246">
        <ele>274.11</ele>
        <time>2016-10-07T10:07:30Z</time>
      </trkpt>
      <trkpt lat="44.69733" lon="8.74253">
        <ele>273.63</ele>
        <time>2016-10-07T10:07:31Z</time>
      </trkpt>
      <trkpt lat="44.6973" lon="8.7426">
        <ele>275.07</ele>
        <time>2016-10-07T10:07:32Z</time>
      </trkpt>
      <trkpt lat="44.69729" lon="8.74267">
        <ele>274.11</ele>
        <time>2016-10-07T10:07:33Z</time>
      </trkpt>
      <trkpt lat="44.69714" lon="8.74303">
        <ele>274.11</ele>
        <time>2016-10-07T10:07:39Z</time>
      </trkpt>
      <trkpt lat="44.69711" lon="8.74308">
        <ele>275.07</ele>
        <time>2016-10-07T10:07:40Z</time>
      </trkpt>
      <trkpt lat="44.6965" lon="8.74384">
        <ele>275.56</ele>
        <time>2016-10-07T10:07:58Z</time>
      </trkpt>
      <trkpt lat="44.69646" lon="8.74387">
        <ele>276.04</ele>
        <time>2016-10-07T10:07:59Z</time>
      </trkpt>
      <trkpt lat="44.69633" lon="8.74395">
        <ele>275.56</ele>
        <time>2016-10-07T10:08:02Z</time>
      </trkpt>
      <trkpt lat="44.69582" lon="8.744">
        <ele>276.04</ele>
        <time>2016-10-07T10:08:13Z</time>
      </trkpt>
      <trkpt lat="44.69577" lon="8.74401">
        <ele>276.52</ele>
        <time>2016-10-07T10:08:14Z</time>
      </trkpt>
      <trkpt lat="44.69534" lon="8.74423">
        <ele>276.52</ele>
        <time>2016-10-07T10:08:24Z</time>
      </trkpt>
      <trkpt lat="44.6953" lon="8.74427">
        <ele>277</ele>
        <time>2016-10-07T10:08:25Z</time>
      </trkpt>
      <trkpt lat="44.69526" lon="8.74432">
        <ele>276.52</ele>
        <time>2016-10-07T10:08:26Z</time>
      </trkpt>
      <trkpt lat="44.69523" lon="8.74437">
        <ele>277</ele>
        <time>2016-10-07T10:08:27Z</time>
      </trkpt>
      <trkpt lat="44.6952" lon="8.74442">
        <ele>277</ele>
        <time>2016-10-07T10:08:28Z</time>
      </trkpt>
      <trkpt lat="44.69517" lon="8.74448">
        <ele>277</ele>
        <time>2016-10-07T10:08:29Z</time>
      </trkpt>
      <trkpt lat="44.69501" lon="8.7448">
        <ele>277</ele>
        <time>2016-10-07T10:08:35Z</time>
      </trkpt>
      <trkpt lat="44.69465" lon="8.74553">
        <ele>279.88</ele>
        <time>2016-10-07T10:08:52Z</time>
      </trkpt>
      <trkpt lat="44.69438" lon="8.74611">
        <ele>281.8</ele>
        <time>2016-10-07T10:09:08Z</time>
      </trkpt>
      <trkpt lat="44.69428" lon="8.74635">
        <ele>280.84</ele>
        <time>2016-10-07T10:09:13Z</time>
      </trkpt>
      <trkpt lat="44.69424" lon="8.74639">
        <ele>280.84</ele>
        <time>2016-10-07T10:09:14Z</time>
      </trkpt>
      <trkpt lat="44.6942" lon="8.74644">
        <ele>280.84</ele>
        <time>2016-10-07T10:09:15Z</time>
      </trkpt>
      <trkpt lat="44.69383" lon="8.74714">
        <ele>277</ele>
        <time>2016-10-07T10:09:26Z</time>
      </trkpt>
      <trkpt lat="44.6938" lon="8.74722">
        <ele>277.96</ele>
        <time>2016-10-07T10:09:27Z</time>
      </trkpt>
      <trkpt lat="44.69377" lon="8.7473">
        <ele>277.48</ele>
        <time>2016-10-07T10:09:28Z</time>
      </trkpt>
      <trkpt lat="44.69374" lon="8.7474">
        <ele>276.04</ele>
        <time>2016-10-07T10:09:29Z</time>
      </trkpt>
      <trkpt lat="44.6937" lon="8.74749">
        <ele>275.56</ele>
        <time>2016-10-07T10:09:30Z</time>
      </trkpt>
      <trkpt lat="44.69354" lon="8.74799">
        <ele>279.4</ele>
        <time>2016-10-07T10:09:36Z</time>
      </trkpt>
      <trkpt lat="44.69351" lon="8.74808">
        <ele>280.36</ele>
        <time>2016-10-07T10:09:38Z</time>
      </trkpt>
      <trkpt lat="44.69339" lon="8.74836">
        <ele>282.28</ele>
        <time>2016-10-07T10:09:47Z</time>
      </trkpt>
      <trkpt lat="44.69337" lon="8.74839">
        <ele>281.8</ele>
        <time>2016-10-07T10:09:48Z</time>
      </trkpt>
      <trkpt lat="44.69336" lon="8.74842">
        <ele>282.28</ele>
        <time>2016-10-07T10:09:49Z</time>
      </trkpt>
      <trkpt lat="44.69335" lon="8.74845">
        <ele>282.28</ele>
        <time>2016-10-07T10:09:50Z</time>
      </trkpt>
      <trkpt lat="44.69333" lon="8.74848">
        <ele>282.77</ele>
        <time>2016-10-07T10:09:51Z</time>
      </trkpt>
      <trkpt lat="44.69315" lon="8.74876">
        <ele>283.73</ele>
        <time>2016-10-07T10:10:04Z</time>
      </trkpt>
      <trkpt lat="44.69292" lon="8.74893">
        <ele>286.13</ele>
        <time>2016-10-07T10:10:18Z</time>
      </trkpt>
      <trkpt lat="44.69269" lon="8.74908">
        <ele>288.53</ele>
        <time>2016-10-07T10:10:32Z</time>
      </trkpt>
      <trkpt lat="44.6925" lon="8.74919">
        <ele>289.97</ele>
        <time>2016-10-07T10:10:45Z</time>
      </trkpt>
      <trkpt lat="44.6925" lon="8.74922">
        <ele>290.46</ele>
        <time>2016-10-07T10:10:46Z</time>
      </trkpt>
      <trkpt lat="44.6925" lon="8.74925">
        <ele>289.97</ele>
        <time>2016-10-07T10:10:47Z</time>
      </trkpt>
      <trkpt lat="44.69251" lon="8.74974">
        <ele>290.94</ele>
        <time>2016-10-07T10:11:02Z</time>
      </trkpt>
      <trkpt lat="44.6925" lon="8.75009">
        <ele>292.86</ele>
        <time>2016-10-07T10:11:14Z</time>
      </trkpt>
      <trkpt lat="44.69249" lon="8.75011">
        <ele>292.86</ele>
        <time>2016-10-07T10:11:15Z</time>
      </trkpt>
      <trkpt lat="44.69249" lon="8.75014">
        <ele>293.34</ele>
        <time>2016-10-07T10:11:16Z</time>
      </trkpt>
      <trkpt lat="44.69248" lon="8.75036">
        <ele>294.3</ele>
        <time>2016-10-07T10:11:24Z</time>
      </trkpt>
      <trkpt lat="44.69247" lon="8.75038">
        <ele>294.78</ele>
        <time>2016-10-07T10:11:25Z</time>
      </trkpt>
      <trkpt lat="44.69246" lon="8.75055">
        <ele>294.78</ele>
        <time>2016-10-07T10:11:31Z</time>
      </trkpt>
      <trkpt lat="44.69247" lon="8.75058">
        <ele>295.26</ele>
        <time>2016-10-07T10:11:32Z</time>
      </trkpt>
      <trkpt lat="44.69247" lon="8.75061">
        <ele>295.74</ele>
        <time>2016-10-07T10:11:33Z</time>
      </trkpt>
      <trkpt lat="44.69247" lon="8.75063">
        <ele>296.7</ele>
        <time>2016-10-07T10:11:34Z</time>
      </trkpt>
      <trkpt lat="44.69247" lon="8.75066">
        <ele>295.74</ele>
        <time>2016-10-07T10:11:35Z</time>
      </trkpt>
      <trkpt lat="44.69246" lon="8.75069">
        <ele>295.74</ele>
        <time>2016-10-07T10:11:36Z</time>
      </trkpt>
      <trkpt lat="44.69247" lon="8.75073">
        <ele>296.22</ele>
        <time>2016-10-07T10:11:37Z</time>
      </trkpt>
      <trkpt lat="44.69247" lon="8.75076">
        <ele>295.74</ele>
        <time>2016-10-07T10:11:38Z</time>
      </trkpt>
      <trkpt lat="44.69248" lon="8.7508">
        <ele>295.26</ele>
        <time>2016-10-07T10:11:39Z</time>
      </trkpt>
      <trkpt lat="44.69252" lon="8.75113">
        <ele>297.18</ele>
        <time>2016-10-07T10:11:50Z</time>
      </trkpt>
      <trkpt lat="44.69253" lon="8.75158">
        <ele>298.63</ele>
        <time>2016-10-07T10:12:04Z</time>
      </trkpt>
      <trkpt lat="44.69252" lon="8.752">
        <ele>299.11</ele>
        <time>2016-10-07T10:12:19Z</time>
      </trkpt>
      <trkpt lat="44.69256" lon="8.75243">
        <ele>298.63</ele>
        <time>2016-10-07T10:12:31Z</time>
      </trkpt>
      <trkpt lat="44.69255" lon="8.75262">
        <ele>298.15</ele>
        <time>2016-10-07T10:12:34Z</time>
      </trkpt>
      <trkpt lat="44.69255" lon="8.75268">
        <ele>297.67</ele>
        <time>2016-10-07T10:12:35Z</time>
      </trkpt>
      <trkpt lat="44.69255" lon="8.75275">
        <ele>297.67</ele>
        <time>2016-10-07T10:12:36Z</time>
      </trkpt>
      <trkpt lat="44.69256" lon="8.7529">
        <ele>297.18</ele>
        <time>2016-10-07T10:12:38Z</time>
      </trkpt>
      <trkpt lat="44.69255" lon="8.75297">
        <ele>297.18</ele>
        <time>2016-10-07T10:12:39Z</time>
      </trkpt>
      <trkpt lat="44.69253" lon="8.75304">
        <ele>296.7</ele>
        <time>2016-10-07T10:12:40Z</time>
      </trkpt>
      <trkpt lat="44.69251" lon="8.75312">
        <ele>295.74</ele>
        <time>2016-10-07T10:12:41Z</time>
      </trkpt>
      <trkpt lat="44.69248" lon="8.7532">
        <ele>294.78</ele>
        <time>2016-10-07T10:12:42Z</time>
      </trkpt>
      <trkpt lat="44.69245" lon="8.75329">
        <ele>294.3</ele>
        <time>2016-10-07T10:12:43Z</time>
      </trkpt>
      <trkpt lat="44.69186" lon="8.75431">
        <ele>292.86</ele>
        <time>2016-10-07T10:12:56Z</time>
      </trkpt>
      <trkpt lat="44.69176" lon="8.75444">
        <ele>291.9</ele>
        <time>2016-10-07T10:12:58Z</time>
      </trkpt>
      <trkpt lat="44.69163" lon="8.75466">
        <ele>291.9</ele>
        <time>2016-10-07T10:13:01Z</time>
      </trkpt>
      <trkpt lat="44.6915" lon="8.75506">
        <ele>289.49</ele>
        <time>2016-10-07T10:13:05Z</time>
      </trkpt>
      <trkpt lat="44.69149" lon="8.75518">
        <ele>289.01</ele>
        <time>2016-10-07T10:13:06Z</time>
      </trkpt>
      <trkpt lat="44.6915" lon="8.7553">
        <ele>288.53</ele>
        <time>2016-10-07T10:13:07Z</time>
      </trkpt>
      <trkpt lat="44.69152" lon="8.75543">
        <ele>287.57</ele>
        <time>2016-10-07T10:13:08Z</time>
      </trkpt>
      <trkpt lat="44.69156" lon="8.75555">
        <ele>286.61</ele>
        <time>2016-10-07T10:13:09Z</time>
      </trkpt>
      <trkpt lat="44.6916" lon="8.75567">
        <ele>286.13</ele>
        <time>2016-10-07T10:13:10Z</time>
      </trkpt>
      <trkpt lat="44.69185" lon="8.75641">
        <ele>283.25</ele>
        <time>2016-10-07T10:13:16Z</time>
      </trkpt>
      <trkpt lat="44.69189" lon="8.75654">
        <ele>283.25</ele>
        <time>2016-10-07T10:13:17Z</time>
      </trkpt>
      <trkpt lat="44.69215" lon="8.75766">
        <ele>282.77</ele>
        <time>2016-10-07T10:13:26Z</time>
      </trkpt>
      <trkpt lat="44.69214" lon="8.75779">
        <ele>282.28</ele>
        <time>2016-10-07T10:13:27Z</time>
      </trkpt>
      <trkpt lat="44.69212" lon="8.7579">
        <ele>282.28</ele>
        <time>2016-10-07T10:13:28Z</time>
      </trkpt>
      <trkpt lat="44.692" lon="8.75832">
        <ele>281.32</ele>
        <time>2016-10-07T10:13:32Z</time>
      </trkpt>
      <trkpt lat="44.69158" lon="8.75982">
        <ele>278.44</ele>
        <time>2016-10-07T10:13:47Z</time>
      </trkpt>
      <trkpt lat="44.69154" lon="8.75993">
        <ele>278.44</ele>
        <time>2016-10-07T10:13:48Z</time>
      </trkpt>
      <trkpt lat="44.69133" lon="8.76041">
        <ele>275.56</ele>
        <time>2016-10-07T10:13:53Z</time>
      </trkpt>
      <trkpt lat="44.69133" lon="8.76049">
        <ele>276.04</ele>
        <time>2016-10-07T10:13:54Z</time>
      </trkpt>
      <trkpt lat="44.69134" lon="8.76058">
        <ele>276.04</ele>
        <time>2016-10-07T10:13:55Z</time>
      </trkpt>
      <trkpt lat="44.69136" lon="8.76067">
        <ele>275.56</ele>
        <time>2016-10-07T10:13:56Z</time>
      </trkpt>
      <trkpt lat="44.69138" lon="8.76076">
        <ele>274.11</ele>
        <time>2016-10-07T10:13:57Z</time>
      </trkpt>
      <trkpt lat="44.69142" lon="8.76085">
        <ele>274.11</ele>
        <time>2016-10-07T10:13:58Z</time>
      </trkpt>
      <trkpt lat="44.69146" lon="8.76093">
        <ele>274.11</ele>
        <time>2016-10-07T10:13:59Z</time>
      </trkpt>
      <trkpt lat="44.69151" lon="8.76099">
        <ele>273.15</ele>
        <time>2016-10-07T10:14:00Z</time>
      </trkpt>
      <trkpt lat="44.69157" lon="8.76103">
        <ele>273.15</ele>
        <time>2016-10-07T10:14:01Z</time>
      </trkpt>
      <trkpt lat="44.69163" lon="8.76104">
        <ele>271.71</ele>
        <time>2016-10-07T10:14:02Z</time>
      </trkpt>
      <trkpt lat="44.69169" lon="8.76103">
        <ele>271.71</ele>
        <time>2016-10-07T10:14:03Z</time>
      </trkpt>
      <trkpt lat="44.69176" lon="8.76101">
        <ele>270.27</ele>
        <time>2016-10-07T10:14:04Z</time>
      </trkpt>
      <trkpt lat="44.6919" lon="8.76099">
        <ele>269.79</ele>
        <time>2016-10-07T10:14:06Z</time>
      </trkpt>
      <trkpt lat="44.69197" lon="8.76102">
        <ele>269.31</ele>
        <time>2016-10-07T10:14:07Z</time>
      </trkpt>
      <trkpt lat="44.69202" lon="8.76108">
        <ele>268.35</ele>
        <time>2016-10-07T10:14:08Z</time>
      </trkpt>
      <trkpt lat="44.69206" lon="8.76116">
        <ele>268.35</ele>
        <time>2016-10-07T10:14:09Z</time>
      </trkpt>
      <trkpt lat="44.69209" lon="8.76126">
        <ele>267.38</ele>
        <time>2016-10-07T10:14:10Z</time>
      </trkpt>
      <trkpt lat="44.69212" lon="8.76135">
        <ele>267.38</ele>
        <time>2016-10-07T10:14:11Z</time>
      </trkpt>
      <trkpt lat="44.69216" lon="8.76145">
        <ele>266.9</ele>
        <time>2016-10-07T10:14:12Z</time>
      </trkpt>
      <trkpt lat="44.69221" lon="8.76152">
        <ele>266.9</ele>
        <time>2016-10-07T10:14:13Z</time>
      </trkpt>
      <trkpt lat="44.69226" lon="8.76157">
        <ele>266.42</ele>
        <time>2016-10-07T10:14:14Z</time>
      </trkpt>
      <trkpt lat="44.69232" lon="8.76159">
        <ele>266.42</ele>
        <time>2016-10-07T10:14:15Z</time>
      </trkpt>
      <trkpt lat="44.69237" lon="8.76159">
        <ele>265.94</ele>
        <time>2016-10-07T10:14:16Z</time>
      </trkpt>
      <trkpt lat="44.69242" lon="8.76155">
        <ele>264.98</ele>
        <time>2016-10-07T10:14:17Z</time>
      </trkpt>
      <trkpt lat="44.69247" lon="8.76148">
        <ele>264.02</ele>
        <time>2016-10-07T10:14:18Z</time>
      </trkpt>
      <trkpt lat="44.69261" lon="8.76133">
        <ele>262.58</ele>
        <time>2016-10-07T10:14:20Z</time>
      </trkpt>
      <trkpt lat="44.69268" lon="8.76128">
        <ele>262.1</ele>
        <time>2016-10-07T10:14:21Z</time>
      </trkpt>
      <trkpt lat="44.69274" lon="8.76125">
        <ele>260.65</ele>
        <time>2016-10-07T10:14:22Z</time>
      </trkpt>
      <trkpt lat="44.6928" lon="8.76125">
        <ele>261.14</ele>
        <time>2016-10-07T10:14:23Z</time>
      </trkpt>
      <trkpt lat="44.69285" lon="8.76127">
        <ele>259.69</ele>
        <time>2016-10-07T10:14:24Z</time>
      </trkpt>
      <trkpt lat="44.69287" lon="8.76132">
        <ele>259.69</ele>
        <time>2016-10-07T10:14:25Z</time>
      </trkpt>
      <trkpt lat="44.69288" lon="8.76139">
        <ele>258.73</ele>
        <time>2016-10-07T10:14:26Z</time>
      </trkpt>
      <trkpt lat="44.69287" lon="8.76146">
        <ele>258.25</ele>
        <time>2016-10-07T10:14:27Z</time>
      </trkpt>
      <trkpt lat="44.69285" lon="8.76154">
        <ele>257.29</ele>
        <time>2016-10-07T10:14:28Z</time>
      </trkpt>
      <trkpt lat="44.69282" lon="8.76163">
        <ele>256.81</ele>
        <time>2016-10-07T10:14:29Z</time>
      </trkpt>
      <trkpt lat="44.69281" lon="8.76173">
        <ele>255.37</ele>
        <time>2016-10-07T10:14:30Z</time>
      </trkpt>
      <trkpt lat="44.69282" lon="8.76184">
        <ele>254.89</ele>
        <time>2016-10-07T10:14:31Z</time>
      </trkpt>
      <trkpt lat="44.69284" lon="8.76194">
        <ele>254.41</ele>
        <time>2016-10-07T10:14:32Z</time>
      </trkpt>
      <trkpt lat="44.69285" lon="8.76212">
        <ele>252.96</ele>
        <time>2016-10-07T10:14:34Z</time>
      </trkpt>
      <trkpt lat="44.69284" lon="8.76222">
        <ele>252</ele>
        <time>2016-10-07T10:14:35Z</time>
      </trkpt>
      <trkpt lat="44.69282" lon="8.7623">
        <ele>251.52</ele>
        <time>2016-10-07T10:14:36Z</time>
      </trkpt>
      <trkpt lat="44.69278" lon="8.76238">
        <ele>250.08</ele>
        <time>2016-10-07T10:14:37Z</time>
      </trkpt>
      <trkpt lat="44.69272" lon="8.76246">
        <ele>249.6</ele>
        <time>2016-10-07T10:14:38Z</time>
      </trkpt>
      <trkpt lat="44.69268" lon="8.76255">
        <ele>248.16</ele>
        <time>2016-10-07T10:14:39Z</time>
      </trkpt>
      <trkpt lat="44.69265" lon="8.76266">
        <ele>247.68</ele>
        <time>2016-10-07T10:14:40Z</time>
      </trkpt>
      <trkpt lat="44.69263" lon="8.76277">
        <ele>246.23</ele>
        <time>2016-10-07T10:14:41Z</time>
      </trkpt>
      <trkpt lat="44.69263" lon="8.7629">
        <ele>244.79</ele>
        <time>2016-10-07T10:14:42Z</time>
      </trkpt>
      <trkpt lat="44.69265" lon="8.76302">
        <ele>244.31</ele>
        <time>2016-10-07T10:14:43Z</time>
      </trkpt>
      <trkpt lat="44.69267" lon="8.76315">
        <ele>244.31</ele>
        <time>2016-10-07T10:14:44Z</time>
      </trkpt>
      <trkpt lat="44.69273" lon="8.76366">
        <ele>240.95</ele>
        <time>2016-10-07T10:14:48Z</time>
      </trkpt>
      <trkpt lat="44.69273" lon="8.76379">
        <ele>240.47</ele>
        <time>2016-10-07T10:14:49Z</time>
      </trkpt>
      <trkpt lat="44.69271" lon="8.76392">
        <ele>239.99</ele>
        <time>2016-10-07T10:14:50Z</time>
      </trkpt>
      <trkpt lat="44.69269" lon="8.76404">
        <ele>239.51</ele>
        <time>2016-10-07T10:14:51Z</time>
      </trkpt>
      <trkpt lat="44.69266" lon="8.76415">
        <ele>239.02</ele>
        <time>2016-10-07T10:14:52Z</time>
      </trkpt>
      <trkpt lat="44.69263" lon="8.76424">
        <ele>238.54</ele>
        <time>2016-10-07T10:14:53Z</time>
      </trkpt>
      <trkpt lat="44.6926" lon="8.76432">
        <ele>238.06</ele>
        <time>2016-10-07T10:14:54Z</time>
      </trkpt>
      <trkpt lat="44.6926" lon="8.7644">
        <ele>238.54</ele>
        <time>2016-10-07T10:14:55Z</time>
      </trkpt>
      <trkpt lat="44.69263" lon="8.76448">
        <ele>238.06</ele>
        <time>2016-10-07T10:14:56Z</time>
      </trkpt>
      <trkpt lat="44.69266" lon="8.76454">
        <ele>237.58</ele>
        <time>2016-10-07T10:14:57Z</time>
      </trkpt>
      <trkpt lat="44.69271" lon="8.76457">
        <ele>236.14</ele>
        <time>2016-10-07T10:14:58Z</time>
      </trkpt>
      <trkpt lat="44.69275" lon="8.7646">
        <ele>235.66</ele>
        <time>2016-10-07T10:14:59Z</time>
      </trkpt>
      <trkpt lat="44.69281" lon="8.76461">
        <ele>235.18</ele>
        <time>2016-10-07T10:15:00Z</time>
      </trkpt>
      <trkpt lat="44.69286" lon="8.76463">
        <ele>234.7</ele>
        <time>2016-10-07T10:15:01Z</time>
      </trkpt>
      <trkpt lat="44.6929" lon="8.76467">
        <ele>233.74</ele>
        <time>2016-10-07T10:15:02Z</time>
      </trkpt>
      <trkpt lat="44.69292" lon="8.76474">
        <ele>233.74</ele>
        <time>2016-10-07T10:15:03Z</time>
      </trkpt>
      <trkpt lat="44.69292" lon="8.76482">
        <ele>233.26</ele>
        <time>2016-10-07T10:15:04Z</time>
      </trkpt>
      <trkpt lat="44.69291" lon="8.76492">
        <ele>232.3</ele>
        <time>2016-10-07T10:15:05Z</time>
      </trkpt>
      <trkpt lat="44.69288" lon="8.76502">
        <ele>230.85</ele>
        <time>2016-10-07T10:15:06Z</time>
      </trkpt>
      <trkpt lat="44.69286" lon="8.76513">
        <ele>230.37</ele>
        <time>2016-10-07T10:15:07Z</time>
      </trkpt>
      <trkpt lat="44.69271" lon="8.76557">
        <ele>226.53</ele>
        <time>2016-10-07T10:15:11Z</time>
      </trkpt>
      <trkpt lat="44.69266" lon="8.76569">
        <ele>226.05</ele>
        <time>2016-10-07T10:15:12Z</time>
      </trkpt>
      <trkpt lat="44.69249" lon="8.76618">
        <ele>221.72</ele>
        <time>2016-10-07T10:15:16Z</time>
      </trkpt>
      <trkpt lat="44.69224" lon="8.76682">
        <ele>218.36</ele>
        <time>2016-10-07T10:15:21Z</time>
      </trkpt>
      <trkpt lat="44.69189" lon="8.76757">
        <ele>214.99</ele>
        <time>2016-10-07T10:15:27Z</time>
      </trkpt>
      <trkpt lat="44.69186" lon="8.76771">
        <ele>214.51</ele>
        <time>2016-10-07T10:15:28Z</time>
      </trkpt>
      <trkpt lat="44.69184" lon="8.76785">
        <ele>214.03</ele>
        <time>2016-10-07T10:15:29Z</time>
      </trkpt>
      <trkpt lat="44.69185" lon="8.768">
        <ele>213.07</ele>
        <time>2016-10-07T10:15:30Z</time>
      </trkpt>
      <trkpt lat="44.69186" lon="8.76815">
        <ele>212.11</ele>
        <time>2016-10-07T10:15:31Z</time>
      </trkpt>
      <trkpt lat="44.69189" lon="8.76829">
        <ele>211.63</ele>
        <time>2016-10-07T10:15:32Z</time>
      </trkpt>
      <trkpt lat="44.69193" lon="8.76843">
        <ele>209.7</ele>
        <time>2016-10-07T10:15:33Z</time>
      </trkpt>
      <trkpt lat="44.69198" lon="8.76857">
        <ele>209.7</ele>
        <time>2016-10-07T10:15:34Z</time>
      </trkpt>
      <trkpt lat="44.69202" lon="8.76872">
        <ele>209.22</ele>
        <time>2016-10-07T10:15:35Z</time>
      </trkpt>
      <trkpt lat="44.69204" lon="8.76887">
        <ele>208.74</ele>
        <time>2016-10-07T10:15:36Z</time>
      </trkpt>
      <trkpt lat="44.69205" lon="8.76903">
        <ele>208.74</ele>
        <time>2016-10-07T10:15:37Z</time>
      </trkpt>
      <trkpt lat="44.69203" lon="8.76917">
        <ele>209.22</ele>
        <time>2016-10-07T10:15:38Z</time>
      </trkpt>
      <trkpt lat="44.69201" lon="8.76932">
        <ele>208.74</ele>
        <time>2016-10-07T10:15:39Z</time>
      </trkpt>
      <trkpt lat="44.69197" lon="8.76945">
        <ele>208.26</ele>
        <time>2016-10-07T10:15:40Z</time>
      </trkpt>
      <trkpt lat="44.69193" lon="8.76958">
        <ele>208.74</ele>
        <time>2016-10-07T10:15:41Z</time>
      </trkpt>
      <trkpt lat="44.69155" lon="8.7709">
        <ele>208.74</ele>
        <time>2016-10-07T10:15:53Z</time>
      </trkpt>
      <trkpt lat="44.69138" lon="8.77214">
        <ele>208.26</ele>
        <time>2016-10-07T10:16:07Z</time>
      </trkpt>
      <trkpt lat="44.69119" lon="8.77333">
        <ele>209.7</ele>
        <time>2016-10-07T10:16:25Z</time>
      </trkpt>
      <trkpt lat="44.69117" lon="8.77349">
        <ele>209.22</ele>
        <time>2016-10-07T10:16:30Z</time>
      </trkpt>
      <trkpt lat="44.69115" lon="8.77351">
        <ele>209.7</ele>
        <time>2016-10-07T10:16:31Z</time>
      </trkpt>
      <trkpt lat="44.69113" lon="8.77354">
        <ele>210.19</ele>
        <time>2016-10-07T10:16:32Z</time>
      </trkpt>
      <trkpt lat="44.69112" lon="8.77358">
        <ele>209.22</ele>
        <time>2016-10-07T10:16:33Z</time>
      </trkpt>
      <trkpt lat="44.6911" lon="8.77363">
        <ele>210.19</ele>
        <time>2016-10-07T10:16:34Z</time>
      </trkpt>
      <trkpt lat="44.69109" lon="8.77368">
        <ele>209.7</ele>
        <time>2016-10-07T10:16:35Z</time>
      </trkpt>
      <trkpt lat="44.69088" lon="8.77468">
        <ele>210.67</ele>
        <time>2016-10-07T10:16:53Z</time>
      </trkpt>
      <trkpt lat="44.6908" lon="8.77528">
        <ele>211.63</ele>
        <time>2016-10-07T10:17:03Z</time>
      </trkpt>
      <trkpt lat="44.69071" lon="8.77611">
        <ele>213.55</ele>
        <time>2016-10-07T10:17:20Z</time>
      </trkpt>
      <trkpt lat="44.69064" lon="8.77681">
        <ele>213.55</ele>
        <time>2016-10-07T10:17:36Z</time>
      </trkpt>
      <trkpt lat="44.69059" lon="8.77794">
        <ele>214.99</ele>
        <time>2016-10-07T10:17:57Z</time>
      </trkpt>
      <trkpt lat="44.69057" lon="8.77912">
        <ele>214.03</ele>
        <time>2016-10-07T10:18:14Z</time>
      </trkpt>
      <trkpt lat="44.69057" lon="8.77934">
        <ele>214.51</ele>
        <time>2016-10-07T10:18:17Z</time>
      </trkpt>
      <trkpt lat="44.69057" lon="8.78054">
        <ele>215.47</ele>
        <time>2016-10-07T10:18:36Z</time>
      </trkpt>
      <trkpt lat="44.69073" lon="8.7812">
        <ele>217.4</ele>
        <time>2016-10-07T10:18:51Z</time>
      </trkpt>
      <trkpt lat="44.69094" lon="8.7817">
        <ele>214.99</ele>
        <time>2016-10-07T10:19:00Z</time>
      </trkpt>
      <trkpt lat="44.69154" lon="8.78279">
        <ele>214.03</ele>
        <time>2016-10-07T10:19:17Z</time>
      </trkpt>
      <trkpt lat="44.69188" lon="8.78349">
        <ele>213.07</ele>
        <time>2016-10-07T10:19:26Z</time>
      </trkpt>
      <trkpt lat="44.69192" lon="8.78357">
        <ele>213.07</ele>
        <time>2016-10-07T10:19:27Z</time>
      </trkpt>
      <trkpt lat="44.69197" lon="8.78364">
        <ele>212.59</ele>
        <time>2016-10-07T10:19:28Z</time>
      </trkpt>
      <trkpt lat="44.69207" lon="8.78377">
        <ele>212.59</ele>
        <time>2016-10-07T10:19:30Z</time>
      </trkpt>
      <trkpt lat="44.69213" lon="8.78383">
        <ele>213.07</ele>
        <time>2016-10-07T10:19:31Z</time>
      </trkpt>
      <trkpt lat="44.6924" lon="8.78413">
        <ele>212.59</ele>
        <time>2016-10-07T10:19:36Z</time>
      </trkpt>
      <trkpt lat="44.69245" lon="8.78421">
        <ele>211.63</ele>
        <time>2016-10-07T10:19:37Z</time>
      </trkpt>
      <trkpt lat="44.69248" lon="8.78428">
        <ele>212.11</ele>
        <time>2016-10-07T10:19:38Z</time>
      </trkpt>
      <trkpt lat="44.69284" lon="8.78529">
        <ele>211.63</ele>
        <time>2016-10-07T10:19:51Z</time>
      </trkpt>
      <trkpt lat="44.69288" lon="8.78535">
        <ele>212.59</ele>
        <time>2016-10-07T10:19:52Z</time>
      </trkpt>
      <trkpt lat="44.69292" lon="8.78541">
        <ele>212.11</ele>
        <time>2016-10-07T10:19:53Z</time>
      </trkpt>
      <trkpt lat="44.69296" lon="8.78547">
        <ele>211.63</ele>
        <time>2016-10-07T10:19:54Z</time>
      </trkpt>
      <trkpt lat="44.69321" lon="8.78582">
        <ele>212.11</ele>
        <time>2016-10-07T10:20:00Z</time>
      </trkpt>
      <trkpt lat="44.69324" lon="8.78588">
        <ele>213.07</ele>
        <time>2016-10-07T10:20:01Z</time>
      </trkpt>
      <trkpt lat="44.69352" lon="8.78674">
        <ele>213.55</ele>
        <time>2016-10-07T10:20:16Z</time>
      </trkpt>
      <trkpt lat="44.6938" lon="8.78749">
        <ele>215.95</ele>
        <time>2016-10-07T10:20:32Z</time>
      </trkpt>
      <trkpt lat="44.694" lon="8.78845">
        <ele>215.95</ele>
        <time>2016-10-07T10:20:49Z</time>
      </trkpt>
      <trkpt lat="44.69429" lon="8.78939">
        <ele>215.95</ele>
        <time>2016-10-07T10:21:05Z</time>
      </trkpt>
      <trkpt lat="44.69438" lon="8.78975">
        <ele>215.95</ele>
        <time>2016-10-07T10:21:11Z</time>
      </trkpt>
      <trkpt lat="44.69455" lon="8.79067">
        <ele>217.88</ele>
        <time>2016-10-07T10:21:28Z</time>
      </trkpt>
      <trkpt lat="44.69456" lon="8.7916">
        <ele>219.32</ele>
        <time>2016-10-07T10:21:46Z</time>
      </trkpt>
      <trkpt lat="44.69432" lon="8.79217">
        <ele>219.8</ele>
        <time>2016-10-07T10:21:59Z</time>
      </trkpt>
      <trkpt lat="44.69423" lon="8.79236">
        <ele>220.76</ele>
        <time>2016-10-07T10:22:03Z</time>
      </trkpt>
      <trkpt lat="44.69397" lon="8.79319">
        <ele>221.24</ele>
        <time>2016-10-07T10:22:18Z</time>
      </trkpt>
      <trkpt lat="44.69382" lon="8.79355">
        <ele>220.76</ele>
        <time>2016-10-07T10:22:24Z</time>
      </trkpt>
      <trkpt lat="44.6933" lon="8.79459">
        <ele>217.88</ele>
        <time>2016-10-07T10:22:38Z</time>
      </trkpt>
      <trkpt lat="44.69326" lon="8.79468">
        <ele>217.88</ele>
        <time>2016-10-07T10:22:39Z</time>
      </trkpt>
      <trkpt lat="44.69322" lon="8.79478">
        <ele>216.91</ele>
        <time>2016-10-07T10:22:40Z</time>
      </trkpt>
      <trkpt lat="44.6932" lon="8.79489">
        <ele>217.4</ele>
        <time>2016-10-07T10:22:41Z</time>
      </trkpt>
      <trkpt lat="44.69319" lon="8.795">
        <ele>216.91</ele>
        <time>2016-10-07T10:22:42Z</time>
      </trkpt>
      <trkpt lat="44.69318" lon="8.79511">
        <ele>216.43</ele>
        <time>2016-10-07T10:22:43Z</time>
      </trkpt>
      <trkpt lat="44.69319" lon="8.79523">
        <ele>216.43</ele>
        <time>2016-10-07T10:22:44Z</time>
      </trkpt>
      <trkpt lat="44.6932" lon="8.79588">
        <ele>216.43</ele>
        <time>2016-10-07T10:22:50Z</time>
      </trkpt>
      <trkpt lat="44.69318" lon="8.79597">
        <ele>215.95</ele>
        <time>2016-10-07T10:22:51Z</time>
      </trkpt>
      <trkpt lat="44.69315" lon="8.79606">
        <ele>215.95</ele>
        <time>2016-10-07T10:22:52Z</time>
      </trkpt>
      <trkpt lat="44.69304" lon="8.79638">
        <ele>217.4</ele>
        <time>2016-10-07T10:22:56Z</time>
      </trkpt>
      <trkpt lat="44.69279" lon="8.79729">
        <ele>219.8</ele>
        <time>2016-10-07T10:23:10Z</time>
      </trkpt>
      <trkpt lat="44.69258" lon="8.79798">
        <ele>221.24</ele>
        <time>2016-10-07T10:23:23Z</time>
      </trkpt>
      <trkpt lat="44.69227" lon="8.79864">
        <ele>221.72</ele>
        <time>2016-10-07T10:23:38Z</time>
      </trkpt>
      <trkpt lat="44.69214" lon="8.79892">
        <ele>221.72</ele>
        <time>2016-10-07T10:23:44Z</time>
      </trkpt>
      <trkpt lat="44.69201" lon="8.79971">
        <ele>220.76</ele>
        <time>2016-10-07T10:23:56Z</time>
      </trkpt>
      <trkpt lat="44.69201" lon="8.79988">
        <ele>220.76</ele>
        <time>2016-10-07T10:24:00Z</time>
      </trkpt>
      <trkpt lat="44.69199" lon="8.79991">
        <ele>219.8</ele>
        <time>2016-10-07T10:24:01Z</time>
      </trkpt>
      <trkpt lat="44.69196" lon="8.79994">
        <ele>219.32</ele>
        <time>2016-10-07T10:24:02Z</time>
      </trkpt>
      <trkpt lat="44.69193" lon="8.79996">
        <ele>219.8</ele>
        <time>2016-10-07T10:24:03Z</time>
      </trkpt>
      <trkpt lat="44.69189" lon="8.79997">
        <ele>219.32</ele>
        <time>2016-10-07T10:24:04Z</time>
      </trkpt>
      <trkpt lat="44.69185" lon="8.79998">
        <ele>219.32</ele>
        <time>2016-10-07T10:24:05Z</time>
      </trkpt>
      <trkpt lat="44.6918" lon="8.79998">
        <ele>218.84</ele>
        <time>2016-10-07T10:24:06Z</time>
      </trkpt>
      <trkpt lat="44.69136" lon="8.79996">
        <ele>218.84</ele>
        <time>2016-10-07T10:24:15Z</time>
      </trkpt>
      <trkpt lat="44.69132" lon="8.79995">
        <ele>218.36</ele>
        <time>2016-10-07T10:24:16Z</time>
      </trkpt>
      <trkpt lat="44.69128" lon="8.79994">
        <ele>218.84</ele>
        <time>2016-10-07T10:24:17Z</time>
      </trkpt>
      <trkpt lat="44.69124" lon="8.79993">
        <ele>218.84</ele>
        <time>2016-10-07T10:24:18Z</time>
      </trkpt>
      <trkpt lat="44.69121" lon="8.79991">
        <ele>219.32</ele>
        <time>2016-10-07T10:24:19Z</time>
      </trkpt>
      <trkpt lat="44.69076" lon="8.79983">
        <ele>220.76</ele>
        <time>2016-10-07T10:24:32Z</time>
      </trkpt>
      <trkpt lat="44.69064" lon="8.79988">
        <ele>219.8</ele>
        <time>2016-10-07T10:24:35Z</time>
      </trkpt>
      <trkpt lat="44.69045" lon="8.80001">
        <ele>218.84</ele>
        <time>2016-10-07T10:24:40Z</time>
      </trkpt>
      <trkpt lat="44.69041" lon="8.80002">
        <ele>219.32</ele>
        <time>2016-10-07T10:24:41Z</time>
      </trkpt>
      <trkpt lat="44.69036" lon="8.80002">
        <ele>218.84</ele>
        <time>2016-10-07T10:24:42Z</time>
      </trkpt>
      <trkpt lat="44.69023" lon="8.80001">
        <ele>218.36</ele>
        <time>2016-10-07T10:24:45Z</time>
      </trkpt>
      <trkpt lat="44.69017" lon="8.80006">
        <ele>218.36</ele>
        <time>2016-10-07T10:24:46Z</time>
      </trkpt>
      <trkpt lat="44.69013" lon="8.8001">
        <ele>218.36</ele>
        <time>2016-10-07T10:24:47Z</time>
      </trkpt>
      <trkpt lat="44.69009" lon="8.80013">
        <ele>217.88</ele>
        <time>2016-10-07T10:24:48Z</time>
      </trkpt>
      <trkpt lat="44.69005" lon="8.80015">
        <ele>218.36</ele>
        <time>2016-10-07T10:24:49Z</time>
      </trkpt>
      <trkpt lat="44.68998" lon="8.80022">
        <ele>218.84</ele>
        <time>2016-10-07T10:24:51Z</time>
      </trkpt>
      <trkpt lat="44.68961" lon="8.80084">
        <ele>219.8</ele>
        <time>2016-10-07T10:25:05Z</time>
      </trkpt>
      <trkpt lat="44.68947" lon="8.80145">
        <ele>220.76</ele>
        <time>2016-10-07T10:25:17Z</time>
      </trkpt>
      <trkpt lat="44.68906" lon="8.80198">
        <ele>221.24</ele>
        <time>2016-10-07T10:25:33Z</time>
      </trkpt>
      <trkpt lat="44.68882" lon="8.80234">
        <ele>222.68</ele>
        <time>2016-10-07T10:25:44Z</time>
      </trkpt>
      <trkpt lat="44.68865" lon="8.80262">
        <ele>223.64</ele>
        <time>2016-10-07T10:25:56Z</time>
      </trkpt>
      <trkpt lat="44.68843" lon="8.80313">
        <ele>224.12</ele>
        <time>2016-10-07T10:26:11Z</time>
      </trkpt>
      <trkpt lat="44.68825" lon="8.80359">
        <ele>226.05</ele>
        <time>2016-10-07T10:26:24Z</time>
      </trkpt>
      <trkpt lat="44.68807" lon="8.80373">
        <ele>226.53</ele>
        <time>2016-10-07T10:26:37Z</time>
      </trkpt>
      <trkpt lat="44.68806" lon="8.80382">
        <ele>225.57</ele>
        <time>2016-10-07T10:26:46Z</time>
      </trkpt>
      <trkpt lat="44.68806" lon="8.80384">
        <ele>226.05</ele>
        <time>2016-10-07T10:26:47Z</time>
      </trkpt>
      <trkpt lat="44.68806" lon="8.80386">
        <ele>226.05</ele>
        <time>2016-10-07T10:26:48Z</time>
      </trkpt>
      <trkpt lat="44.68805" lon="8.80389">
        <ele>226.05</ele>
        <time>2016-10-07T10:26:49Z</time>
      </trkpt>
      <trkpt lat="44.68805" lon="8.80391">
        <ele>226.53</ele>
        <time>2016-10-07T10:26:50Z</time>
      </trkpt>
      <trkpt lat="44.68806" lon="8.80404">
        <ele>226.53</ele>
        <time>2016-10-07T10:26:55Z</time>
      </trkpt>
      <trkpt lat="44.68805" lon="8.80406">
        <ele>226.53</ele>
        <time>2016-10-07T10:26:56Z</time>
      </trkpt>
      <trkpt lat="44.68805" lon="8.80408">
        <ele>226.53</ele>
        <time>2016-10-07T10:26:57Z</time>
      </trkpt>
      <trkpt lat="44.68806" lon="8.80412">
        <ele>226.05</ele>
        <time>2016-10-07T10:26:58Z</time>
      </trkpt>
      <trkpt lat="44.68807" lon="8.80416">
        <ele>226.05</ele>
        <time>2016-10-07T10:26:59Z</time>
      </trkpt>
      <trkpt lat="44.68807" lon="8.8042">
        <ele>225.57</ele>
        <time>2016-10-07T10:27:00Z</time>
      </trkpt>
      <trkpt lat="44.68808" lon="8.80425">
        <ele>226.05</ele>
        <time>2016-10-07T10:27:01Z</time>
      </trkpt>
      <trkpt lat="44.6881" lon="8.8043">
        <ele>226.53</ele>
        <time>2016-10-07T10:27:02Z</time>
      </trkpt>
      <trkpt lat="44.68811" lon="8.80436">
        <ele>226.53</ele>
        <time>2016-10-07T10:27:03Z</time>
      </trkpt>
      <trkpt lat="44.68813" lon="8.80442">
        <ele>226.53</ele>
        <time>2016-10-07T10:27:04Z</time>
      </trkpt>
      <trkpt lat="44.68815" lon="8.80448">
        <ele>226.53</ele>
        <time>2016-10-07T10:27:05Z</time>
      </trkpt>
      <trkpt lat="44.68822" lon="8.80516">
        <ele>227.97</ele>
        <time>2016-10-07T10:27:21Z</time>
      </trkpt>
      <trkpt lat="44.68829" lon="8.80541">
        <ele>228.93</ele>
        <time>2016-10-07T10:27:28Z</time>
      </trkpt>
      <trkpt lat="44.6883" lon="8.80544">
        <ele>228.93</ele>
        <time>2016-10-07T10:27:29Z</time>
      </trkpt>
      <trkpt lat="44.6883" lon="8.80547">
        <ele>228.93</ele>
        <time>2016-10-07T10:27:30Z</time>
      </trkpt>
      <trkpt lat="44.68826" lon="8.80551">
        <ele>228.93</ele>
        <time>2016-10-07T10:27:31Z</time>
      </trkpt>
      <trkpt lat="44.6882" lon="8.80555">
        <ele>228.93</ele>
        <time>2016-10-07T10:27:32Z</time>
      </trkpt>
      <trkpt lat="44.68817" lon="8.80559">
        <ele>228.45</ele>
        <time>2016-10-07T10:27:33Z</time>
      </trkpt>
      <trkpt lat="44.68817" lon="8.80563">
        <ele>228.93</ele>
        <time>2016-10-07T10:27:34Z</time>
      </trkpt>
      <trkpt lat="44.68826" lon="8.80606">
        <ele>229.41</ele>
        <time>2016-10-07T10:27:45Z</time>
      </trkpt>
      <trkpt lat="44.68829" lon="8.8063">
        <ele>229.89</ele>
        <time>2016-10-07T10:27:52Z</time>
      </trkpt>
      <trkpt lat="44.6883" lon="8.80633">
        <ele>230.37</ele>
        <time>2016-10-07T10:27:53Z</time>
      </trkpt>
      <trkpt lat="44.6883" lon="8.80637">
        <ele>230.37</ele>
        <time>2016-10-07T10:27:54Z</time>
      </trkpt>
      <trkpt lat="44.68828" lon="8.80677">
        <ele>230.85</ele>
        <time>2016-10-07T10:28:07Z</time>
      </trkpt>
      <trkpt lat="44.68812" lon="8.8071">
        <ele>231.81</ele>
        <time>2016-10-07T10:28:18Z</time>
      </trkpt>
      <trkpt lat="44.68817" lon="8.80723">
        <ele>232.3</ele>
        <time>2016-10-07T10:28:28Z</time>
      </trkpt>
      <trkpt lat="44.6882" lon="8.80705">
        <ele>231.81</ele>
        <time>2016-10-07T10:28:34Z</time>
      </trkpt>
      <trkpt lat="44.68819" lon="8.80703">
        <ele>231.81</ele>
        <time>2016-10-07T10:28:35Z</time>
      </trkpt>
      <trkpt lat="44.68818" lon="8.80705">
        <ele>231.81</ele>
        <time>2016-10-07T10:28:36Z</time>
      </trkpt>
      <trkpt lat="44.68816" lon="8.80707">
        <ele>231.81</ele>
        <time>2016-10-07T10:28:37Z</time>
      </trkpt>
      <trkpt lat="44.68813" lon="8.8071">
        <ele>231.81</ele>
        <time>2016-10-07T10:28:38Z</time>
      </trkpt>
      <trkpt lat="44.68812" lon="8.80714">
        <ele>231.33</ele>
        <time>2016-10-07T10:28:39Z</time>
      </trkpt>
      <trkpt lat="44.6881" lon="8.80718">
        <ele>231.81</ele>
        <time>2016-10-07T10:28:40Z</time>
      </trkpt>
      <trkpt lat="44.68809" lon="8.80721">
        <ele>231.81</ele>
        <time>2016-10-07T10:28:41Z</time>
      </trkpt>
      <trkpt lat="44.68808" lon="8.80725">
        <ele>231.81</ele>
        <time>2016-10-07T10:28:42Z</time>
      </trkpt>
      <trkpt lat="44.68807" lon="8.80728">
        <ele>230.85</ele>
        <time>2016-10-07T10:28:43Z</time>
      </trkpt>
      <trkpt lat="44.68805" lon="8.80733">
        <ele>231.81</ele>
        <time>2016-10-07T10:28:45Z</time>
      </trkpt>
      <trkpt lat="44.68804" lon="8.80735">
        <ele>232.3</ele>
        <time>2016-10-07T10:28:56Z</time>
      </trkpt>
      <trkpt lat="44.68801" lon="8.80735">
        <ele>231.81</ele>
        <time>2016-10-07T10:29:13Z</time>
      </trkpt>
      <trkpt lat="44.688" lon="8.80735">
        <ele>232.3</ele>
        <time>2016-10-07T10:29:33Z</time>
      </trkpt>
      <trkpt lat="44.68803" lon="8.80734">
        <ele>231.81</ele>
        <time>2016-10-07T10:30:10Z</time>
      </trkpt>
      <trkpt lat="44.68807" lon="8.80733">
        <ele>231.81</ele>
        <time>2016-10-07T10:30:44Z</time>
      </trkpt>
      <trkpt lat="44.68807" lon="8.80736">
        <ele>231.81</ele>
        <time>2016-10-07T10:31:20Z</time>
      </trkpt>
      <trkpt lat="44.68803" lon="8.80728">
        <ele>230.85</ele>
        <time>2016-10-07T10:31:58Z</time>
      </trkpt>
      <trkpt lat="44.68804" lon="8.8074">
        <ele>231.81</ele>
        <time>2016-10-07T10:32:31Z</time>
      </trkpt>
      <trkpt lat="44.68803" lon="8.80743">
        <ele>231.33</ele>
        <time>2016-10-07T10:33:06Z</time>
      </trkpt>
      <trkpt lat="44.68803" lon="8.80752">
        <ele>230.37</ele>
        <time>2016-10-07T10:33:45Z</time>
      </trkpt>
      <trkpt lat="44.68802" lon="8.8075">
        <ele>230.85</ele>
        <time>2016-10-07T10:34:21Z</time>
      </trkpt>
      <trkpt lat="44.68805" lon="8.80742">
        <ele>230.85</ele>
        <time>2016-10-07T10:34:33Z</time>
      </trkpt>
      <trkpt lat="44.68802" lon="8.80741">
        <ele>230.85</ele>
        <time>2016-10-07T10:34:49Z</time>
      </trkpt>
      <trkpt lat="44.68801" lon="8.80745">
        <ele>231.33</ele>
        <time>2016-10-07T10:35:07Z</time>
      </trkpt>
      <trkpt lat="44.68803" lon="8.80747">
        <ele>230.85</ele>
        <time>2016-10-07T10:35:30Z</time>
      </trkpt>
      <trkpt lat="44.68801" lon="8.80753">
        <ele>231.33</ele>
        <time>2016-10-07T10:36:00Z</time>
      </trkpt>
      <trkpt lat="44.68801" lon="8.80754">
        <ele>230.85</ele>
        <time>2016-10-07T10:36:31Z</time>
      </trkpt>
      <trkpt lat="44.68803" lon="8.80762">
        <ele>230.85</ele>
        <time>2016-10-07T10:37:01Z</time>
      </trkpt>
      <trkpt lat="44.68802" lon="8.80759">
        <ele>230.85</ele>
        <time>2016-10-07T10:37:32Z</time>
      </trkpt>
      <trkpt lat="44.68801" lon="8.80745">
        <ele>230.85</ele>
        <time>2016-10-07T10:38:11Z</time>
      </trkpt>
      <trkpt lat="44.68802" lon="8.80749">
        <ele>231.33</ele>
        <time>2016-10-07T10:38:42Z</time>
      </trkpt>
      <trkpt lat="44.68795" lon="8.80746">
        <ele>231.81</ele>
        <time>2016-10-07T10:39:02Z</time>
      </trkpt>
      <trkpt lat="44.68801" lon="8.80754">
        <ele>231.33</ele>
        <time>2016-10-07T10:39:29Z</time>
      </trkpt>
      <trkpt lat="44.68804" lon="8.80755">
        <ele>231.33</ele>
        <time>2016-10-07T10:39:50Z</time>
      </trkpt>
      <trkpt lat="44.68809" lon="8.80749">
        <ele>231.33</ele>
        <time>2016-10-07T10:40:25Z</time>
      </trkpt>
      <trkpt lat="44.6881" lon="8.80746">
        <ele>231.33</ele>
        <time>2016-10-07T10:41:02Z</time>
      </trkpt>
      <trkpt lat="44.68808" lon="8.80743">
        <ele>231.81</ele>
        <time>2016-10-07T10:41:41Z</time>
      </trkpt>
      <trkpt lat="44.68804" lon="8.80739">
        <ele>231.33</ele>
        <time>2016-10-07T10:42:20Z</time>
      </trkpt>
      <trkpt lat="44.68808" lon="8.80742">
        <ele>231.81</ele>
        <time>2016-10-07T10:42:57Z</time>
      </trkpt>
      <trkpt lat="44.68809" lon="8.80741">
        <ele>231.33</ele>
        <time>2016-10-07T10:43:38Z</time>
      </trkpt>
      <trkpt lat="44.68806" lon="8.80744">
        <ele>231.33</ele>
        <time>2016-10-07T10:44:13Z</time>
      </trkpt>
      <trkpt lat="44.68813" lon="8.80743">
        <ele>230.85</ele>
        <time>2016-10-07T10:44:44Z</time>
      </trkpt>
      <trkpt lat="44.68812" lon="8.80749">
        <ele>230.85</ele>
        <time>2016-10-07T10:45:11Z</time>
      </trkpt>
      <trkpt lat="44.68811" lon="8.80743">
        <ele>230.85</ele>
        <time>2016-10-07T10:45:33Z</time>
      </trkpt>
      <trkpt lat="44.68807" lon="8.80741">
        <ele>230.37</ele>
        <time>2016-10-07T10:45:57Z</time>
      </trkpt>
      <trkpt lat="44.68807" lon="8.80741">
        <ele>231.33</ele>
        <time>2016-10-07T10:46:22Z</time>
      </trkpt>
      <trkpt lat="44.68801" lon="8.80742">
        <ele>230.85</ele>
        <time>2016-10-07T10:46:52Z</time>
      </trkpt>
      <trkpt lat="44.68801" lon="8.80743">
        <ele>231.33</ele>
        <time>2016-10-07T10:47:20Z</time>
      </trkpt>
      <trkpt lat="44.68802" lon="8.80746">
        <ele>230.37</ele>
        <time>2016-10-07T10:47:48Z</time>
      </trkpt>
      <trkpt lat="44.68802" lon="8.8074">
        <ele>230.37</ele>
        <time>2016-10-07T10:48:14Z</time>
      </trkpt>
      <trkpt lat="44.68804" lon="8.80743">
        <ele>230.37</ele>
        <time>2016-10-07T10:48:44Z</time>
      </trkpt>
      <trkpt lat="44.68802" lon="8.8074">
        <ele>230.37</ele>
        <time>2016-10-07T10:49:19Z</time>
      </trkpt>
      <trkpt lat="44.688" lon="8.80733">
        <ele>230.37</ele>
        <time>2016-10-07T10:49:52Z</time>
      </trkpt>
      <trkpt lat="44.68797" lon="8.80733">
        <ele>230.37</ele>
        <time>2016-10-07T10:50:26Z</time>
      </trkpt>
      <trkpt lat="44.68799" lon="8.80746">
        <ele>230.85</ele>
        <time>2016-10-07T10:51:00Z</time>
      </trkpt>
      <trkpt lat="44.688" lon="8.80742">
        <ele>230.37</ele>
        <time>2016-10-07T10:51:25Z</time>
      </trkpt>
      <trkpt lat="44.68799" lon="8.8074">
        <ele>231.33</ele>
        <time>2016-10-07T10:51:57Z</time>
      </trkpt>
      <trkpt lat="44.68798" lon="8.80735">
        <ele>230.37</ele>
        <time>2016-10-07T10:52:18Z</time>
      </trkpt>
      <trkpt lat="44.68799" lon="8.80732">
        <ele>230.85</ele>
        <time>2016-10-07T10:52:50Z</time>
      </trkpt>
      <trkpt lat="44.688" lon="8.80734">
        <ele>230.85</ele>
        <time>2016-10-07T10:53:26Z</time>
      </trkpt>
      <trkpt lat="44.688" lon="8.80741">
        <ele>231.81</ele>
        <time>2016-10-07T10:53:58Z</time>
      </trkpt>
      <trkpt lat="44.68804" lon="8.80741">
        <ele>231.33</ele>
        <time>2016-10-07T10:54:18Z</time>
      </trkpt>
      <trkpt lat="44.68804" lon="8.80741">
        <ele>231.33</ele>
        <time>2016-10-07T10:54:32Z</time>
      </trkpt>
      <trkpt lat="44.68805" lon="8.80739">
        <ele>230.85</ele>
        <time>2016-10-07T10:54:40Z</time>
      </trkpt>
      <trkpt lat="44.68806" lon="8.80739">
        <ele>231.33</ele>
        <time>2016-10-07T10:54:41Z</time>
      </trkpt>
      <trkpt lat="44.68816" lon="8.80719">
        <ele>231.33</ele>
        <time>2016-10-07T10:54:51Z</time>
      </trkpt>
      <trkpt lat="44.68818" lon="8.80717">
        <ele>231.33</ele>
        <time>2016-10-07T10:54:52Z</time>
      </trkpt>
      <trkpt lat="44.68819" lon="8.80716">
        <ele>230.37</ele>
        <time>2016-10-07T10:54:53Z</time>
      </trkpt>
      <trkpt lat="44.6882" lon="8.80715">
        <ele>230.85</ele>
        <time>2016-10-07T10:54:54Z</time>
      </trkpt>
      <trkpt lat="44.68822" lon="8.80714">
        <ele>230.85</ele>
        <time>2016-10-07T10:54:55Z</time>
      </trkpt>
      <trkpt lat="44.68823" lon="8.80712">
        <ele>231.33</ele>
        <time>2016-10-07T10:54:56Z</time>
      </trkpt>
      <trkpt lat="44.68825" lon="8.80711">
        <ele>231.33</ele>
        <time>2016-10-07T10:54:57Z</time>
      </trkpt>
      <trkpt lat="44.68826" lon="8.80708">
        <ele>232.3</ele>
        <time>2016-10-07T10:54:58Z</time>
      </trkpt>
      <trkpt lat="44.68827" lon="8.80706">
        <ele>231.81</ele>
        <time>2016-10-07T10:54:59Z</time>
      </trkpt>
      <trkpt lat="44.68835" lon="8.80665">
        <ele>229.89</ele>
        <time>2016-10-07T10:55:10Z</time>
      </trkpt>
      <trkpt lat="44.68847" lon="8.80621">
        <ele>231.33</ele>
        <time>2016-10-07T10:55:20Z</time>
      </trkpt>
      <trkpt lat="44.68849" lon="8.80616">
        <ele>231.81</ele>
        <time>2016-10-07T10:55:22Z</time>
      </trkpt>
      <trkpt lat="44.68851" lon="8.80595">
        <ele>231.33</ele>
        <time>2016-10-07T10:55:30Z</time>
      </trkpt>
      <trkpt lat="44.68852" lon="8.80593">
        <ele>231.33</ele>
        <time>2016-10-07T10:55:31Z</time>
      </trkpt>
      <trkpt lat="44.68852" lon="8.8059">
        <ele>231.81</ele>
        <time>2016-10-07T10:55:32Z</time>
      </trkpt>
      <trkpt lat="44.68853" lon="8.80588">
        <ele>231.33</ele>
        <time>2016-10-07T10:55:33Z</time>
      </trkpt>
      <trkpt lat="44.68853" lon="8.80586">
        <ele>231.33</ele>
        <time>2016-10-07T10:55:34Z</time>
      </trkpt>
      <trkpt lat="44.68853" lon="8.80583">
        <ele>230.85</ele>
        <time>2016-10-07T10:55:35Z</time>
      </trkpt>
      <trkpt lat="44.68853" lon="8.80581">
        <ele>230.37</ele>
        <time>2016-10-07T10:55:36Z</time>
      </trkpt>
      <trkpt lat="44.68853" lon="8.80578">
        <ele>231.33</ele>
        <time>2016-10-07T10:55:37Z</time>
      </trkpt>
      <trkpt lat="44.68853" lon="8.80572">
        <ele>230.85</ele>
        <time>2016-10-07T10:55:39Z</time>
      </trkpt>
      <trkpt lat="44.68852" lon="8.80567">
        <ele>230.37</ele>
        <time>2016-10-07T10:55:41Z</time>
      </trkpt>
      <trkpt lat="44.6885" lon="8.80566">
        <ele>229.89</ele>
        <time>2016-10-07T10:55:42Z</time>
      </trkpt>
      <trkpt lat="44.68832" lon="8.80563">
        <ele>228.45</ele>
        <time>2016-10-07T10:55:48Z</time>
      </trkpt>
      <trkpt lat="44.68829" lon="8.80564">
        <ele>228.45</ele>
        <time>2016-10-07T10:55:49Z</time>
      </trkpt>
      <trkpt lat="44.68826" lon="8.80566">
        <ele>228.45</ele>
        <time>2016-10-07T10:55:50Z</time>
      </trkpt>
      <trkpt lat="44.68823" lon="8.8057">
        <ele>228.45</ele>
        <time>2016-10-07T10:55:51Z</time>
      </trkpt>
      <trkpt lat="44.68821" lon="8.80576">
        <ele>227.97</ele>
        <time>2016-10-07T10:55:52Z</time>
      </trkpt>
      <trkpt lat="44.68819" lon="8.80583">
        <ele>227.49</ele>
        <time>2016-10-07T10:55:53Z</time>
      </trkpt>
      <trkpt lat="44.68816" lon="8.80591">
        <ele>226.53</ele>
        <time>2016-10-07T10:55:54Z</time>
      </trkpt>
      <trkpt lat="44.68813" lon="8.80599">
        <ele>226.05</ele>
        <time>2016-10-07T10:55:55Z</time>
      </trkpt>
      <trkpt lat="44.6881" lon="8.80608">
        <ele>226.05</ele>
        <time>2016-10-07T10:55:56Z</time>
      </trkpt>
      <trkpt lat="44.68797" lon="8.80647">
        <ele>222.68</ele>
        <time>2016-10-07T10:56:00Z</time>
      </trkpt>
      <trkpt lat="44.68791" lon="8.80668">
        <ele>221.24</ele>
        <time>2016-10-07T10:56:02Z</time>
      </trkpt>
      <trkpt lat="44.68785" lon="8.80685">
        <ele>219.8</ele>
        <time>2016-10-07T10:56:04Z</time>
      </trkpt>
      <trkpt lat="44.68779" lon="8.80699">
        <ele>218.84</ele>
        <time>2016-10-07T10:56:06Z</time>
      </trkpt>
      <trkpt lat="44.68771" lon="8.80721">
        <ele>216.43</ele>
        <time>2016-10-07T10:56:10Z</time>
      </trkpt>
      <trkpt lat="44.68769" lon="8.80722">
        <ele>215.95</ele>
        <time>2016-10-07T10:56:11Z</time>
      </trkpt>
      <trkpt lat="44.68765" lon="8.80719">
        <ele>215.95</ele>
        <time>2016-10-07T10:56:12Z</time>
      </trkpt>
      <trkpt lat="44.68756" lon="8.80711">
        <ele>214.99</ele>
        <time>2016-10-07T10:56:13Z</time>
      </trkpt>
      <trkpt lat="44.68744" lon="8.80702">
        <ele>215.47</ele>
        <time>2016-10-07T10:56:14Z</time>
      </trkpt>
      <trkpt lat="44.68731" lon="8.80691">
        <ele>214.99</ele>
        <time>2016-10-07T10:56:15Z</time>
      </trkpt>
      <trkpt lat="44.68695" lon="8.80665">
        <ele>216.43</ele>
        <time>2016-10-07T10:56:18Z</time>
      </trkpt>
      <trkpt lat="44.68685" lon="8.80661">
        <ele>216.43</ele>
        <time>2016-10-07T10:56:19Z</time>
      </trkpt>
      <trkpt lat="44.68676" lon="8.80658">
        <ele>216.43</ele>
        <time>2016-10-07T10:56:20Z</time>
      </trkpt>
      <trkpt lat="44.68669" lon="8.80657">
        <ele>216.43</ele>
        <time>2016-10-07T10:56:21Z</time>
      </trkpt>
      <trkpt lat="44.68662" lon="8.80657">
        <ele>215.95</ele>
        <time>2016-10-07T10:56:22Z</time>
      </trkpt>
      <trkpt lat="44.68564" lon="8.80657">
        <ele>216.91</ele>
        <time>2016-10-07T10:56:37Z</time>
      </trkpt>
      <trkpt lat="44.68474" lon="8.80696">
        <ele>217.88</ele>
        <time>2016-10-07T10:56:56Z</time>
      </trkpt>
      <trkpt lat="44.6841" lon="8.80735">
        <ele>218.36</ele>
        <time>2016-10-07T10:57:11Z</time>
      </trkpt>
      <trkpt lat="44.68336" lon="8.80762">
        <ele>219.8</ele>
        <time>2016-10-07T10:57:27Z</time>
      </trkpt>
      <trkpt lat="44.68244" lon="8.80792">
        <ele>220.76</ele>
        <time>2016-10-07T10:57:47Z</time>
      </trkpt>
      <trkpt lat="44.68231" lon="8.80804">
        <ele>221.24</ele>
        <time>2016-10-07T10:57:50Z</time>
      </trkpt>
      <trkpt lat="44.68227" lon="8.80809">
        <ele>220.76</ele>
        <time>2016-10-07T10:57:51Z</time>
      </trkpt>
      <trkpt lat="44.68166" lon="8.80914">
        <ele>221.24</ele>
        <time>2016-10-07T10:58:09Z</time>
      </trkpt>
      <trkpt lat="44.68103" lon="8.8103">
        <ele>221.72</ele>
        <time>2016-10-07T10:58:28Z</time>
      </trkpt>
      <trkpt lat="44.6805" lon="8.81119">
        <ele>222.2</ele>
        <time>2016-10-07T10:58:43Z</time>
      </trkpt>
      <trkpt lat="44.68001" lon="8.81218">
        <ele>223.16</ele>
        <time>2016-10-07T10:59:01Z</time>
      </trkpt>
      <trkpt lat="44.6798" lon="8.81289">
        <ele>225.57</ele>
        <time>2016-10-07T10:59:15Z</time>
      </trkpt>
      <trkpt lat="44.67962" lon="8.81379">
        <ele>227.49</ele>
        <time>2016-10-07T10:59:34Z</time>
      </trkpt>
      <trkpt lat="44.67958" lon="8.81396">
        <ele>230.85</ele>
        <time>2016-10-07T10:59:38Z</time>
      </trkpt>
      <trkpt lat="44.67932" lon="8.81442">
        <ele>229.41</ele>
        <time>2016-10-07T10:59:53Z</time>
      </trkpt>
      <trkpt lat="44.67882" lon="8.81426">
        <ele>229.41</ele>
        <time>2016-10-07T11:00:06Z</time>
      </trkpt>
      <trkpt lat="44.67803" lon="8.81401">
        <ele>229.41</ele>
        <time>2016-10-07T11:00:22Z</time>
      </trkpt>
      <trkpt lat="44.67797" lon="8.81402">
        <ele>228.93</ele>
        <time>2016-10-07T11:00:23Z</time>
      </trkpt>
      <trkpt lat="44.67792" lon="8.81404">
        <ele>228.45</ele>
        <time>2016-10-07T11:00:24Z</time>
      </trkpt>
      <trkpt lat="44.67787" lon="8.81406">
        <ele>229.41</ele>
        <time>2016-10-07T11:00:25Z</time>
      </trkpt>
      <trkpt lat="44.67782" lon="8.81409">
        <ele>229.41</ele>
        <time>2016-10-07T11:00:26Z</time>
      </trkpt>
      <trkpt lat="44.67778" lon="8.81413">
        <ele>228.93</ele>
        <time>2016-10-07T11:00:27Z</time>
      </trkpt>
      <trkpt lat="44.67773" lon="8.81417">
        <ele>228.45</ele>
        <time>2016-10-07T11:00:28Z</time>
      </trkpt>
      <trkpt lat="44.67698" lon="8.81493">
        <ele>228.45</ele>
        <time>2016-10-07T11:00:44Z</time>
      </trkpt>
      <trkpt lat="44.67632" lon="8.81564">
        <ele>231.81</ele>
        <time>2016-10-07T11:01:01Z</time>
      </trkpt>
      <trkpt lat="44.67604" lon="8.81593">
        <ele>235.18</ele>
        <time>2016-10-07T11:01:16Z</time>
      </trkpt>
      <trkpt lat="44.67571" lon="8.81631">
        <ele>237.58</ele>
        <time>2016-10-07T11:01:37Z</time>
      </trkpt>
      <trkpt lat="44.6754" lon="8.81678">
        <ele>239.99</ele>
        <time>2016-10-07T11:01:57Z</time>
      </trkpt>
      <trkpt lat="44.67501" lon="8.8174">
        <ele>240.47</ele>
        <time>2016-10-07T11:02:16Z</time>
      </trkpt>
      <trkpt lat="44.67454" lon="8.81814">
        <ele>241.43</ele>
        <time>2016-10-07T11:02:34Z</time>
      </trkpt>
      <trkpt lat="44.67389" lon="8.81886">
        <ele>242.39</ele>
        <time>2016-10-07T11:02:53Z</time>
      </trkpt>
      <trkpt lat="44.6731" lon="8.81924">
        <ele>243.83</ele>
        <time>2016-10-07T11:03:13Z</time>
      </trkpt>
      <trkpt lat="44.67261" lon="8.81938">
        <ele>246.72</ele>
        <time>2016-10-07T11:03:28Z</time>
      </trkpt>
      <trkpt lat="44.67201" lon="8.81957">
        <ele>249.12</ele>
        <time>2016-10-07T11:03:47Z</time>
      </trkpt>
      <trkpt lat="44.67139" lon="8.81975">
        <ele>251.04</ele>
        <time>2016-10-07T11:04:06Z</time>
      </trkpt>
      <trkpt lat="44.67062" lon="8.82">
        <ele>252.48</ele>
        <time>2016-10-07T11:04:28Z</time>
      </trkpt>
      <trkpt lat="44.66976" lon="8.82024">
        <ele>253.44</ele>
        <time>2016-10-07T11:04:48Z</time>
      </trkpt>
      <trkpt lat="44.66887" lon="8.82072">
        <ele>253.44</ele>
        <time>2016-10-07T11:05:08Z</time>
      </trkpt>
      <trkpt lat="44.66816" lon="8.82138">
        <ele>253.93</ele>
        <time>2016-10-07T11:05:23Z</time>
      </trkpt>
      <trkpt lat="44.66754" lon="8.82189">
        <ele>254.89</ele>
        <time>2016-10-07T11:05:40Z</time>
      </trkpt>
      <trkpt lat="44.66743" lon="8.82197">
        <ele>256.33</ele>
        <time>2016-10-07T11:05:43Z</time>
      </trkpt>
      <trkpt lat="44.66673" lon="8.8226">
        <ele>257.77</ele>
        <time>2016-10-07T11:06:04Z</time>
      </trkpt>
      <trkpt lat="44.66609" lon="8.82346">
        <ele>257.29</ele>
        <time>2016-10-07T11:06:22Z</time>
      </trkpt>
      <trkpt lat="44.66538" lon="8.82408">
        <ele>258.25</ele>
        <time>2016-10-07T11:06:37Z</time>
      </trkpt>
      <trkpt lat="44.6646" lon="8.82463">
        <ele>259.21</ele>
        <time>2016-10-07T11:06:54Z</time>
      </trkpt>
      <trkpt lat="44.664" lon="8.82502">
        <ele>262.58</ele>
        <time>2016-10-07T11:07:11Z</time>
      </trkpt>
      <trkpt lat="44.66344" lon="8.82536">
        <ele>259.21</ele>
        <time>2016-10-07T11:07:22Z</time>
      </trkpt>
      <trkpt lat="44.66299" lon="8.82563">
        <ele>256.81</ele>
        <time>2016-10-07T11:07:28Z</time>
      </trkpt>
      <trkpt lat="44.66282" lon="8.82574">
        <ele>255.37</ele>
        <time>2016-10-07T11:07:30Z</time>
      </trkpt>
      <trkpt lat="44.66274" lon="8.82581">
        <ele>254.41</ele>
        <time>2016-10-07T11:07:31Z</time>
      </trkpt>
      <trkpt lat="44.66267" lon="8.8259">
        <ele>253.93</ele>
        <time>2016-10-07T11:07:32Z</time>
      </trkpt>
      <trkpt lat="44.6626" lon="8.82599">
        <ele>253.44</ele>
        <time>2016-10-07T11:07:33Z</time>
      </trkpt>
      <trkpt lat="44.66253" lon="8.8261">
        <ele>252.96</ele>
        <time>2016-10-07T11:07:34Z</time>
      </trkpt>
      <trkpt lat="44.66247" lon="8.82621">
        <ele>252.48</ele>
        <time>2016-10-07T11:07:35Z</time>
      </trkpt>
      <trkpt lat="44.66242" lon="8.82633">
        <ele>251.04</ele>
        <time>2016-10-07T11:07:36Z</time>
      </trkpt>
      <trkpt lat="44.66237" lon="8.82645">
        <ele>250.08</ele>
        <time>2016-10-07T11:07:37Z</time>
      </trkpt>
      <trkpt lat="44.66232" lon="8.82658">
        <ele>250.08</ele>
        <time>2016-10-07T11:07:38Z</time>
      </trkpt>
      <trkpt lat="44.66213" lon="8.82713">
        <ele>247.68</ele>
        <time>2016-10-07T11:07:42Z</time>
      </trkpt>
      <trkpt lat="44.66199" lon="8.82754">
        <ele>245.27</ele>
        <time>2016-10-07T11:07:45Z</time>
      </trkpt>
      <trkpt lat="44.66153" lon="8.82873">
        <ele>248.16</ele>
        <time>2016-10-07T11:07:56Z</time>
      </trkpt>
      <trkpt lat="44.66143" lon="8.82899">
        <ele>249.12</ele>
        <time>2016-10-07T11:07:59Z</time>
      </trkpt>
      <trkpt lat="44.66139" lon="8.82907">
        <ele>248.64</ele>
        <time>2016-10-07T11:08:00Z</time>
      </trkpt>
      <trkpt lat="44.66123" lon="8.82944">
        <ele>250.08</ele>
        <time>2016-10-07T11:08:05Z</time>
      </trkpt>
      <trkpt lat="44.66068" lon="8.83019">
        <ele>252</ele>
        <time>2016-10-07T11:08:20Z</time>
      </trkpt>
      <trkpt lat="44.66038" lon="8.83054">
        <ele>254.41</ele>
        <time>2016-10-07T11:08:35Z</time>
      </trkpt>
      <trkpt lat="44.66022" lon="8.83074">
        <ele>255.37</ele>
        <time>2016-10-07T11:08:49Z</time>
      </trkpt>
      <trkpt lat="44.66004" lon="8.83098">
        <ele>257.29</ele>
        <time>2016-10-07T11:09:04Z</time>
      </trkpt>
      <trkpt lat="44.66001" lon="8.83104">
        <ele>257.29</ele>
        <time>2016-10-07T11:09:09Z</time>
      </trkpt>
      <trkpt lat="44.66003" lon="8.83104">
        <ele>257.29</ele>
        <time>2016-10-07T11:09:10Z</time>
      </trkpt>
      <trkpt lat="44.66004" lon="8.83102">
        <ele>257.29</ele>
        <time>2016-10-07T11:09:11Z</time>
      </trkpt>
      <trkpt lat="44.66006" lon="8.83101">
        <ele>257.77</ele>
        <time>2016-10-07T11:09:12Z</time>
      </trkpt>
      <trkpt lat="44.66008" lon="8.83101">
        <ele>257.29</ele>
        <time>2016-10-07T11:09:13Z</time>
      </trkpt>
      <trkpt lat="44.66009" lon="8.83102">
        <ele>256.81</ele>
        <time>2016-10-07T11:09:14Z</time>
      </trkpt>
      <trkpt lat="44.6601" lon="8.83104">
        <ele>256.81</ele>
        <time>2016-10-07T11:09:15Z</time>
      </trkpt>
      <trkpt lat="44.66009" lon="8.83106">
        <ele>256.81</ele>
        <time>2016-10-07T11:09:16Z</time>
      </trkpt>
      <trkpt lat="44.66008" lon="8.83108">
        <ele>256.33</ele>
        <time>2016-10-07T11:09:17Z</time>
      </trkpt>
      <trkpt lat="44.66006" lon="8.8311">
        <ele>256.33</ele>
        <time>2016-10-07T11:09:18Z</time>
      </trkpt>
      <trkpt lat="44.65984" lon="8.83146">
        <ele>254.89</ele>
        <time>2016-10-07T11:09:27Z</time>
      </trkpt>
      <trkpt lat="44.65982" lon="8.83152">
        <ele>254.89</ele>
        <time>2016-10-07T11:09:28Z</time>
      </trkpt>
      <trkpt lat="44.65981" lon="8.83158">
        <ele>254.41</ele>
        <time>2016-10-07T11:09:29Z</time>
      </trkpt>
      <trkpt lat="44.65981" lon="8.83164">
        <ele>254.41</ele>
        <time>2016-10-07T11:09:30Z</time>
      </trkpt>
      <trkpt lat="44.65982" lon="8.8317">
        <ele>253.93</ele>
        <time>2016-10-07T11:09:31Z</time>
      </trkpt>
      <trkpt lat="44.65984" lon="8.83175">
        <ele>254.41</ele>
        <time>2016-10-07T11:09:32Z</time>
      </trkpt>
      <trkpt lat="44.65986" lon="8.8318">
        <ele>254.89</ele>
        <time>2016-10-07T11:09:33Z</time>
      </trkpt>
      <trkpt lat="44.65988" lon="8.83183">
        <ele>254.89</ele>
        <time>2016-10-07T11:09:34Z</time>
      </trkpt>
      <trkpt lat="44.65991" lon="8.83187">
        <ele>254.41</ele>
        <time>2016-10-07T11:09:35Z</time>
      </trkpt>
      <trkpt lat="44.66015" lon="8.83234">
        <ele>254.89</ele>
        <time>2016-10-07T11:09:48Z</time>
      </trkpt>
      <trkpt lat="44.66014" lon="8.83237">
        <ele>254.89</ele>
        <time>2016-10-07T11:09:49Z</time>
      </trkpt>
      <trkpt lat="44.66012" lon="8.83238">
        <ele>254.41</ele>
        <time>2016-10-07T11:09:50Z</time>
      </trkpt>
      <trkpt lat="44.6599" lon="8.83251">
        <ele>257.29</ele>
        <time>2016-10-07T11:10:03Z</time>
      </trkpt>
      <trkpt lat="44.65986" lon="8.83251">
        <ele>257.29</ele>
        <time>2016-10-07T11:10:06Z</time>
      </trkpt>
      <trkpt lat="44.65983" lon="8.83251">
        <ele>257.77</ele>
        <time>2016-10-07T11:10:08Z</time>
      </trkpt>
      <trkpt lat="44.65982" lon="8.83251">
        <ele>258.73</ele>
        <time>2016-10-07T11:10:09Z</time>
      </trkpt>
      <trkpt lat="44.6598" lon="8.83252">
        <ele>258.25</ele>
        <time>2016-10-07T11:10:10Z</time>
      </trkpt>
      <trkpt lat="44.65979" lon="8.83252">
        <ele>258.73</ele>
        <time>2016-10-07T11:10:11Z</time>
      </trkpt>
      <trkpt lat="44.6596" lon="8.83261">
        <ele>261.62</ele>
        <time>2016-10-07T11:10:24Z</time>
      </trkpt>
      <trkpt lat="44.6595" lon="8.83248">
        <ele>263.06</ele>
        <time>2016-10-07T11:10:35Z</time>
      </trkpt>
      <trkpt lat="44.65925" lon="8.83246">
        <ele>265.46</ele>
        <time>2016-10-07T11:10:52Z</time>
      </trkpt>
      <trkpt lat="44.65914" lon="8.83246">
        <ele>265.46</ele>
        <time>2016-10-07T11:11:00Z</time>
      </trkpt>
      <trkpt lat="44.65913" lon="8.83246">
        <ele>264.98</ele>
        <time>2016-10-07T11:11:01Z</time>
      </trkpt>
      <trkpt lat="44.65888" lon="8.83244">
        <ele>264.5</ele>
        <time>2016-10-07T11:11:11Z</time>
      </trkpt>
      <trkpt lat="44.65855" lon="8.83223">
        <ele>265.46</ele>
        <time>2016-10-07T11:11:20Z</time>
      </trkpt>
      <trkpt lat="44.65823" lon="8.83202">
        <ele>267.86</ele>
        <time>2016-10-07T11:11:31Z</time>
      </trkpt>
      <trkpt lat="44.65796" lon="8.8316">
        <ele>269.31</ele>
        <time>2016-10-07T11:11:44Z</time>
      </trkpt>
      <trkpt lat="44.65771" lon="8.83115">
        <ele>268.83</ele>
        <time>2016-10-07T11:11:57Z</time>
      </trkpt>
      <trkpt lat="44.65767" lon="8.83113">
        <ele>268.35</ele>
        <time>2016-10-07T11:11:58Z</time>
      </trkpt>
      <trkpt lat="44.65764" lon="8.83112">
        <ele>268.35</ele>
        <time>2016-10-07T11:11:59Z</time>
      </trkpt>
      <trkpt lat="44.65716" lon="8.83096">
        <ele>270.27</ele>
        <time>2016-10-07T11:12:12Z</time>
      </trkpt>
      <trkpt lat="44.6567" lon="8.83096">
        <ele>271.71</ele>
        <time>2016-10-07T11:12:26Z</time>
      </trkpt>
      <trkpt lat="44.65668" lon="8.83097">
        <ele>271.71</ele>
        <time>2016-10-07T11:12:27Z</time>
      </trkpt>
      <trkpt lat="44.65665" lon="8.831">
        <ele>272.19</ele>
        <time>2016-10-07T11:12:28Z</time>
      </trkpt>
      <trkpt lat="44.65633" lon="8.83168">
        <ele>271.71</ele>
        <time>2016-10-07T11:12:42Z</time>
      </trkpt>
      <trkpt lat="44.65631" lon="8.83174">
        <ele>271.71</ele>
        <time>2016-10-07T11:12:43Z</time>
      </trkpt>
      <trkpt lat="44.65628" lon="8.83178">
        <ele>271.23</ele>
        <time>2016-10-07T11:12:44Z</time>
      </trkpt>
      <trkpt lat="44.65624" lon="8.83181">
        <ele>271.23</ele>
        <time>2016-10-07T11:12:45Z</time>
      </trkpt>
      <trkpt lat="44.6562" lon="8.83184">
        <ele>271.71</ele>
        <time>2016-10-07T11:12:46Z</time>
      </trkpt>
      <trkpt lat="44.65616" lon="8.83187">
        <ele>271.71</ele>
        <time>2016-10-07T11:12:47Z</time>
      </trkpt>
      <trkpt lat="44.65553" lon="8.83206">
        <ele>272.67</ele>
        <time>2016-10-07T11:13:02Z</time>
      </trkpt>
      <trkpt lat="44.655" lon="8.83203">
        <ele>274.11</ele>
        <time>2016-10-07T11:13:18Z</time>
      </trkpt>
      <trkpt lat="44.65442" lon="8.83191">
        <ele>276.52</ele>
        <time>2016-10-07T11:13:35Z</time>
      </trkpt>
      <trkpt lat="44.65376" lon="8.8316">
        <ele>277.48</ele>
        <time>2016-10-07T11:13:53Z</time>
      </trkpt>
      <trkpt lat="44.65358" lon="8.83144">
        <ele>277</ele>
        <time>2016-10-07T11:13:58Z</time>
      </trkpt>
      <trkpt lat="44.65356" lon="8.83139">
        <ele>276.52</ele>
        <time>2016-10-07T11:13:59Z</time>
      </trkpt>
      <trkpt lat="44.65347" lon="8.83124">
        <ele>277</ele>
        <time>2016-10-07T11:14:02Z</time>
      </trkpt>
      <trkpt lat="44.65345" lon="8.8312">
        <ele>277</ele>
        <time>2016-10-07T11:14:03Z</time>
      </trkpt>
      <trkpt lat="44.65334" lon="8.831">
        <ele>277</ele>
        <time>2016-10-07T11:14:07Z</time>
      </trkpt>
      <trkpt lat="44.65331" lon="8.83096">
        <ele>277.48</ele>
        <time>2016-10-07T11:14:08Z</time>
      </trkpt>
      <trkpt lat="44.65328" lon="8.83091">
        <ele>277.96</ele>
        <time>2016-10-07T11:14:09Z</time>
      </trkpt>
      <trkpt lat="44.65306" lon="8.8305">
        <ele>279.4</ele>
        <time>2016-10-07T11:14:21Z</time>
      </trkpt>
      <trkpt lat="44.65288" lon="8.83031">
        <ele>279.4</ele>
        <time>2016-10-07T11:14:30Z</time>
      </trkpt>
      <trkpt lat="44.65236" lon="8.83033">
        <ele>278.92</ele>
        <time>2016-10-07T11:14:42Z</time>
      </trkpt>
      <trkpt lat="44.65209" lon="8.83037">
        <ele>278.44</ele>
        <time>2016-10-07T11:14:47Z</time>
      </trkpt>
      <trkpt lat="44.65203" lon="8.8304">
        <ele>277.96</ele>
        <time>2016-10-07T11:14:48Z</time>
      </trkpt>
      <trkpt lat="44.65198" lon="8.83042">
        <ele>279.4</ele>
        <time>2016-10-07T11:14:49Z</time>
      </trkpt>
      <trkpt lat="44.65194" lon="8.83045">
        <ele>278.92</ele>
        <time>2016-10-07T11:14:50Z</time>
      </trkpt>
      <trkpt lat="44.65189" lon="8.83047">
        <ele>278.92</ele>
        <time>2016-10-07T11:14:51Z</time>
      </trkpt>
      <trkpt lat="44.65158" lon="8.83065">
        <ele>281.8</ele>
        <time>2016-10-07T11:15:00Z</time>
      </trkpt>
      <trkpt lat="44.65118" lon="8.83099">
        <ele>284.21</ele>
        <time>2016-10-07T11:15:16Z</time>
      </trkpt>
      <trkpt lat="44.65059" lon="8.83144">
        <ele>284.21</ele>
        <time>2016-10-07T11:15:33Z</time>
      </trkpt>
      <trkpt lat="44.64999" lon="8.83177">
        <ele>284.69</ele>
        <time>2016-10-07T11:15:47Z</time>
      </trkpt>
      <trkpt lat="44.6492" lon="8.83224">
        <ele>285.17</ele>
        <time>2016-10-07T11:16:05Z</time>
      </trkpt>
      <trkpt lat="44.64916" lon="8.83225">
        <ele>285.17</ele>
        <time>2016-10-07T11:16:06Z</time>
      </trkpt>
      <trkpt lat="44.64912" lon="8.83225">
        <ele>285.17</ele>
        <time>2016-10-07T11:16:07Z</time>
      </trkpt>
      <trkpt lat="44.64907" lon="8.83225">
        <ele>284.69</ele>
        <time>2016-10-07T11:16:08Z</time>
      </trkpt>
      <trkpt lat="44.64903" lon="8.83223">
        <ele>284.69</ele>
        <time>2016-10-07T11:16:09Z</time>
      </trkpt>
      <trkpt lat="44.64898" lon="8.83219">
        <ele>284.69</ele>
        <time>2016-10-07T11:16:10Z</time>
      </trkpt>
      <trkpt lat="44.64894" lon="8.83214">
        <ele>284.21</ele>
        <time>2016-10-07T11:16:11Z</time>
      </trkpt>
      <trkpt lat="44.6489" lon="8.83208">
        <ele>284.21</ele>
        <time>2016-10-07T11:16:12Z</time>
      </trkpt>
      <trkpt lat="44.64886" lon="8.83201">
        <ele>284.21</ele>
        <time>2016-10-07T11:16:13Z</time>
      </trkpt>
      <trkpt lat="44.64871" lon="8.83171">
        <ele>282.77</ele>
        <time>2016-10-07T11:16:17Z</time>
      </trkpt>
      <trkpt lat="44.64865" lon="8.83164">
        <ele>282.77</ele>
        <time>2016-10-07T11:16:18Z</time>
      </trkpt>
      <trkpt lat="44.64859" lon="8.83157">
        <ele>281.8</ele>
        <time>2016-10-07T11:16:19Z</time>
      </trkpt>
      <trkpt lat="44.64851" lon="8.83153">
        <ele>281.32</ele>
        <time>2016-10-07T11:16:20Z</time>
      </trkpt>
      <trkpt lat="44.64842" lon="8.8315">
        <ele>280.84</ele>
        <time>2016-10-07T11:16:21Z</time>
      </trkpt>
      <trkpt lat="44.64833" lon="8.83148">
        <ele>279.4</ele>
        <time>2016-10-07T11:16:22Z</time>
      </trkpt>
      <trkpt lat="44.64804" lon="8.83144">
        <ele>277.96</ele>
        <time>2016-10-07T11:16:25Z</time>
      </trkpt>
      <trkpt lat="44.64771" lon="8.83142">
        <ele>274.59</ele>
        <time>2016-10-07T11:16:28Z</time>
      </trkpt>
      <trkpt lat="44.64759" lon="8.83142">
        <ele>273.63</ele>
        <time>2016-10-07T11:16:29Z</time>
      </trkpt>
      <trkpt lat="44.64747" lon="8.83144">
        <ele>272.67</ele>
        <time>2016-10-07T11:16:30Z</time>
      </trkpt>
      <trkpt lat="44.64736" lon="8.83148">
        <ele>272.67</ele>
        <time>2016-10-07T11:16:31Z</time>
      </trkpt>
      <trkpt lat="44.64634" lon="8.83189">
        <ele>269.31</ele>
        <time>2016-10-07T11:16:41Z</time>
      </trkpt>
      <trkpt lat="44.64602" lon="8.83194">
        <ele>272.67</ele>
        <time>2016-10-07T11:16:45Z</time>
      </trkpt>
      <trkpt lat="44.64579" lon="8.83203">
        <ele>274.59</ele>
        <time>2016-10-07T11:16:49Z</time>
      </trkpt>
      <trkpt lat="44.64553" lon="8.83214">
        <ele>277.96</ele>
        <time>2016-10-07T11:16:56Z</time>
      </trkpt>
      <trkpt lat="44.64508" lon="8.8324">
        <ele>280.84</ele>
        <time>2016-10-07T11:17:15Z</time>
      </trkpt>
      <trkpt lat="44.64469" lon="8.83268">
        <ele>283.73</ele>
        <time>2016-10-07T11:17:35Z</time>
      </trkpt>
      <trkpt lat="44.6444" lon="8.83284">
        <ele>286.61</ele>
        <time>2016-10-07T11:17:52Z</time>
      </trkpt>
      <trkpt lat="44.64414" lon="8.83293">
        <ele>289.49</ele>
        <time>2016-10-07T11:18:08Z</time>
      </trkpt>
      <trkpt lat="44.64389" lon="8.83301">
        <ele>291.42</ele>
        <time>2016-10-07T11:18:22Z</time>
      </trkpt>
      <trkpt lat="44.6435" lon="8.83313">
        <ele>293.82</ele>
        <time>2016-10-07T11:18:40Z</time>
      </trkpt>
      <trkpt lat="44.64313" lon="8.83326">
        <ele>295.74</ele>
        <time>2016-10-07T11:18:57Z</time>
      </trkpt>
      <trkpt lat="44.64279" lon="8.8334">
        <ele>297.67</ele>
        <time>2016-10-07T11:19:14Z</time>
      </trkpt>
      <trkpt lat="44.64245" lon="8.83356">
        <ele>299.59</ele>
        <time>2016-10-07T11:19:30Z</time>
      </trkpt>
      <trkpt lat="44.64198" lon="8.83383">
        <ele>300.07</ele>
        <time>2016-10-07T11:19:48Z</time>
      </trkpt>
      <trkpt lat="44.64193" lon="8.83387">
        <ele>301.51</ele>
        <time>2016-10-07T11:19:50Z</time>
      </trkpt>
      <trkpt lat="44.64158" lon="8.8341">
        <ele>303.91</ele>
        <time>2016-10-07T11:20:07Z</time>
      </trkpt>
      <trkpt lat="44.64132" lon="8.8342">
        <ele>306.32</ele>
        <time>2016-10-07T11:20:23Z</time>
      </trkpt>
      <trkpt lat="44.64109" lon="8.83436">
        <ele>307.28</ele>
        <time>2016-10-07T11:20:37Z</time>
      </trkpt>
      <trkpt lat="44.64083" lon="8.83446">
        <ele>310.16</ele>
        <time>2016-10-07T11:20:53Z</time>
      </trkpt>
      <trkpt lat="44.64061" lon="8.83445">
        <ele>313.05</ele>
        <time>2016-10-07T11:21:09Z</time>
      </trkpt>
      <trkpt lat="44.64043" lon="8.83437">
        <ele>314.97</ele>
        <time>2016-10-07T11:21:25Z</time>
      </trkpt>
      <trkpt lat="44.6402" lon="8.83431">
        <ele>318.33</ele>
        <time>2016-10-07T11:21:41Z</time>
      </trkpt>
      <trkpt lat="44.63992" lon="8.83439">
        <ele>319.3</ele>
        <time>2016-10-07T11:21:57Z</time>
      </trkpt>
      <trkpt lat="44.63956" lon="8.83467">
        <ele>319.78</ele>
        <time>2016-10-07T11:22:13Z</time>
      </trkpt>
      <trkpt lat="44.63936" lon="8.83497">
        <ele>318.33</ele>
        <time>2016-10-07T11:22:21Z</time>
      </trkpt>
      <trkpt lat="44.63932" lon="8.83502">
        <ele>317.85</ele>
        <time>2016-10-07T11:22:22Z</time>
      </trkpt>
      <trkpt lat="44.63927" lon="8.83507">
        <ele>318.33</ele>
        <time>2016-10-07T11:22:23Z</time>
      </trkpt>
      <trkpt lat="44.63922" lon="8.83511">
        <ele>317.85</ele>
        <time>2016-10-07T11:22:24Z</time>
      </trkpt>
      <trkpt lat="44.63917" lon="8.83514">
        <ele>317.85</ele>
        <time>2016-10-07T11:22:25Z</time>
      </trkpt>
      <trkpt lat="44.63911" lon="8.83517">
        <ele>317.37</ele>
        <time>2016-10-07T11:22:26Z</time>
      </trkpt>
      <trkpt lat="44.63852" lon="8.83547">
        <ele>319.3</ele>
        <time>2016-10-07T11:22:40Z</time>
      </trkpt>
      <trkpt lat="44.63846" lon="8.83547">
        <ele>319.3</ele>
        <time>2016-10-07T11:22:52Z</time>
      </trkpt>
      <trkpt lat="44.63847" lon="8.8355">
        <ele>318.81</ele>
        <time>2016-10-07T11:23:16Z</time>
      </trkpt>
      <trkpt lat="44.63847" lon="8.83553">
        <ele>319.78</ele>
        <time>2016-10-07T11:23:49Z</time>
      </trkpt>
      <trkpt lat="44.63847" lon="8.83553">
        <ele>319.3</ele>
        <time>2016-10-07T11:24:15Z</time>
      </trkpt>
      <trkpt lat="44.63848" lon="8.8355">
        <ele>319.78</ele>
        <time>2016-10-07T11:24:47Z</time>
      </trkpt>
      <trkpt lat="44.63845" lon="8.83556">
        <ele>318.81</ele>
        <time>2016-10-07T11:25:07Z</time>
      </trkpt>
      <trkpt lat="44.63847" lon="8.83557">
        <ele>319.78</ele>
        <time>2016-10-07T11:25:19Z</time>
      </trkpt>
      <trkpt lat="44.63847" lon="8.83558">
        <ele>319.3</ele>
        <time>2016-10-07T11:25:20Z</time>
      </trkpt>
      <trkpt lat="44.63841" lon="8.836">
        <ele>319.78</ele>
        <time>2016-10-07T11:25:32Z</time>
      </trkpt>
      <trkpt lat="44.63818" lon="8.8368">
        <ele>318.81</ele>
        <time>2016-10-07T11:25:48Z</time>
      </trkpt>
      <trkpt lat="44.63769" lon="8.83798">
        <ele>317.37</ele>
        <time>2016-10-07T11:26:05Z</time>
      </trkpt>
      <trkpt lat="44.63756" lon="8.83824">
        <ele>317.85</ele>
        <time>2016-10-07T11:26:09Z</time>
      </trkpt>
      <trkpt lat="44.63746" lon="8.83857">
        <ele>317.85</ele>
        <time>2016-10-07T11:26:14Z</time>
      </trkpt>
      <trkpt lat="44.63744" lon="8.83864">
        <ele>318.81</ele>
        <time>2016-10-07T11:26:15Z</time>
      </trkpt>
      <trkpt lat="44.63737" lon="8.83889">
        <ele>318.33</ele>
        <time>2016-10-07T11:26:19Z</time>
      </trkpt>
      <trkpt lat="44.63727" lon="8.83911">
        <ele>318.81</ele>
        <time>2016-10-07T11:26:23Z</time>
      </trkpt>
      <trkpt lat="44.63723" lon="8.83917">
        <ele>318.81</ele>
        <time>2016-10-07T11:26:24Z</time>
      </trkpt>
      <trkpt lat="44.6365" lon="8.84021">
        <ele>320.26</ele>
        <time>2016-10-07T11:26:44Z</time>
      </trkpt>
      <trkpt lat="44.63612" lon="8.84071">
        <ele>322.66</ele>
        <time>2016-10-07T11:26:57Z</time>
      </trkpt>
      <trkpt lat="44.63573" lon="8.84141">
        <ele>324.58</ele>
        <time>2016-10-07T11:27:15Z</time>
      </trkpt>
      <trkpt lat="44.63544" lon="8.842">
        <ele>326.5</ele>
        <time>2016-10-07T11:27:31Z</time>
      </trkpt>
      <trkpt lat="44.63502" lon="8.84241">
        <ele>326.5</ele>
        <time>2016-10-07T11:27:47Z</time>
      </trkpt>
      <trkpt lat="44.63449" lon="8.8426">
        <ele>328.43</ele>
        <time>2016-10-07T11:28:04Z</time>
      </trkpt>
      <trkpt lat="44.63394" lon="8.84278">
        <ele>330.83</ele>
        <time>2016-10-07T11:28:23Z</time>
      </trkpt>
      <trkpt lat="44.63348" lon="8.84282">
        <ele>331.31</ele>
        <time>2016-10-07T11:28:39Z</time>
      </trkpt>
      <trkpt lat="44.63309" lon="8.84299">
        <ele>332.27</ele>
        <time>2016-10-07T11:28:53Z</time>
      </trkpt>
      <trkpt lat="44.63271" lon="8.84309">
        <ele>334.2</ele>
        <time>2016-10-07T11:29:09Z</time>
      </trkpt>
      <trkpt lat="44.63253" lon="8.84294">
        <ele>332.75</ele>
        <time>2016-10-07T11:29:15Z</time>
      </trkpt>
      <trkpt lat="44.63251" lon="8.84289">
        <ele>332.27</ele>
        <time>2016-10-07T11:29:16Z</time>
      </trkpt>
      <trkpt lat="44.6325" lon="8.84284">
        <ele>331.79</ele>
        <time>2016-10-07T11:29:17Z</time>
      </trkpt>
      <trkpt lat="44.63249" lon="8.84279">
        <ele>330.83</ele>
        <time>2016-10-07T11:29:18Z</time>
      </trkpt>
      <trkpt lat="44.63248" lon="8.84273">
        <ele>330.83</ele>
        <time>2016-10-07T11:29:19Z</time>
      </trkpt>
      <trkpt lat="44.63248" lon="8.84266">
        <ele>330.35</ele>
        <time>2016-10-07T11:29:20Z</time>
      </trkpt>
      <trkpt lat="44.63249" lon="8.84259">
        <ele>329.39</ele>
        <time>2016-10-07T11:29:21Z</time>
      </trkpt>
      <trkpt lat="44.63251" lon="8.84222">
        <ele>326.99</ele>
        <time>2016-10-07T11:29:26Z</time>
      </trkpt>
      <trkpt lat="44.6325" lon="8.84214">
        <ele>326.02</ele>
        <time>2016-10-07T11:29:27Z</time>
      </trkpt>
      <trkpt lat="44.63247" lon="8.84207">
        <ele>324.58</ele>
        <time>2016-10-07T11:29:28Z</time>
      </trkpt>
      <trkpt lat="44.63244" lon="8.842">
        <ele>325.06</ele>
        <time>2016-10-07T11:29:29Z</time>
      </trkpt>
      <trkpt lat="44.6324" lon="8.84194">
        <ele>324.1</ele>
        <time>2016-10-07T11:29:30Z</time>
      </trkpt>
      <trkpt lat="44.63235" lon="8.84188">
        <ele>323.14</ele>
        <time>2016-10-07T11:29:31Z</time>
      </trkpt>
      <trkpt lat="44.6323" lon="8.84183">
        <ele>324.1</ele>
        <time>2016-10-07T11:29:32Z</time>
      </trkpt>
      <trkpt lat="44.63219" lon="8.84175">
        <ele>323.14</ele>
        <time>2016-10-07T11:29:34Z</time>
      </trkpt>
      <trkpt lat="44.63213" lon="8.84171">
        <ele>324.1</ele>
        <time>2016-10-07T11:29:35Z</time>
      </trkpt>
      <trkpt lat="44.63207" lon="8.84167">
        <ele>323.62</ele>
        <time>2016-10-07T11:29:36Z</time>
      </trkpt>
      <trkpt lat="44.632" lon="8.84166">
        <ele>322.66</ele>
        <time>2016-10-07T11:29:37Z</time>
      </trkpt>
      <trkpt lat="44.63193" lon="8.84166">
        <ele>322.66</ele>
        <time>2016-10-07T11:29:38Z</time>
      </trkpt>
      <trkpt lat="44.63187" lon="8.84168">
        <ele>322.66</ele>
        <time>2016-10-07T11:29:39Z</time>
      </trkpt>
      <trkpt lat="44.6318" lon="8.8417">
        <ele>322.18</ele>
        <time>2016-10-07T11:29:40Z</time>
      </trkpt>
      <trkpt lat="44.63174" lon="8.84172">
        <ele>322.66</ele>
        <time>2016-10-07T11:29:41Z</time>
      </trkpt>
      <trkpt lat="44.63084" lon="8.8421">
        <ele>324.1</ele>
        <time>2016-10-07T11:29:56Z</time>
      </trkpt>
      <trkpt lat="44.63079" lon="8.84211">
        <ele>323.62</ele>
        <time>2016-10-07T11:29:57Z</time>
      </trkpt>
      <trkpt lat="44.63066" lon="8.84211">
        <ele>324.1</ele>
        <time>2016-10-07T11:30:00Z</time>
      </trkpt>
      <trkpt lat="44.63057" lon="8.84209">
        <ele>324.58</ele>
        <time>2016-10-07T11:30:02Z</time>
      </trkpt>
      <trkpt lat="44.63034" lon="8.842">
        <ele>325.06</ele>
        <time>2016-10-07T11:30:07Z</time>
      </trkpt>
      <trkpt lat="44.63029" lon="8.84199">
        <ele>324.58</ele>
        <time>2016-10-07T11:30:08Z</time>
      </trkpt>
      <trkpt lat="44.63024" lon="8.84198">
        <ele>325.06</ele>
        <time>2016-10-07T11:30:09Z</time>
      </trkpt>
      <trkpt lat="44.63019" lon="8.84199">
        <ele>325.06</ele>
        <time>2016-10-07T11:30:10Z</time>
      </trkpt>
      <trkpt lat="44.63014" lon="8.842">
        <ele>325.06</ele>
        <time>2016-10-07T11:30:11Z</time>
      </trkpt>
      <trkpt lat="44.63009" lon="8.84202">
        <ele>325.06</ele>
        <time>2016-10-07T11:30:12Z</time>
      </trkpt>
      <trkpt lat="44.62952" lon="8.84238">
        <ele>325.54</ele>
        <time>2016-10-07T11:30:26Z</time>
      </trkpt>
      <trkpt lat="44.62906" lon="8.84265">
        <ele>324.1</ele>
        <time>2016-10-07T11:30:35Z</time>
      </trkpt>
      <trkpt lat="44.62823" lon="8.84269">
        <ele>324.1</ele>
        <time>2016-10-07T11:30:49Z</time>
      </trkpt>
      <trkpt lat="44.6275" lon="8.84283">
        <ele>326.5</ele>
        <time>2016-10-07T11:31:07Z</time>
      </trkpt>
      <trkpt lat="44.62715" lon="8.84292">
        <ele>331.79</ele>
        <time>2016-10-07T11:31:17Z</time>
      </trkpt>
      <trkpt lat="44.62711" lon="8.84293">
        <ele>327.47</ele>
        <time>2016-10-07T11:31:18Z</time>
      </trkpt>
      <trkpt lat="44.62673" lon="8.84307">
        <ele>327.95</ele>
        <time>2016-10-07T11:31:28Z</time>
      </trkpt>
      <trkpt lat="44.6265" lon="8.84324">
        <ele>327.47</ele>
        <time>2016-10-07T11:31:34Z</time>
      </trkpt>
      <trkpt lat="44.62647" lon="8.84327">
        <ele>327.47</ele>
        <time>2016-10-07T11:31:35Z</time>
      </trkpt>
      <trkpt lat="44.62591" lon="8.84389">
        <ele>326.99</ele>
        <time>2016-10-07T11:31:50Z</time>
      </trkpt>
      <trkpt lat="44.62522" lon="8.84479">
        <ele>326.5</ele>
        <time>2016-10-07T11:32:08Z</time>
      </trkpt>
      <trkpt lat="44.62487" lon="8.84522">
        <ele>323.62</ele>
        <time>2016-10-07T11:32:14Z</time>
      </trkpt>
      <trkpt lat="44.62451" lon="8.84568">
        <ele>320.26</ele>
        <time>2016-10-07T11:32:19Z</time>
      </trkpt>
      <trkpt lat="44.62435" lon="8.84588">
        <ele>318.81</ele>
        <time>2016-10-07T11:32:21Z</time>
      </trkpt>
      <trkpt lat="44.62381" lon="8.84646">
        <ele>317.85</ele>
        <time>2016-10-07T11:32:28Z</time>
      </trkpt>
      <trkpt lat="44.62372" lon="8.84651">
        <ele>318.33</ele>
        <time>2016-10-07T11:32:29Z</time>
      </trkpt>
      <trkpt lat="44.62364" lon="8.84655">
        <ele>318.33</ele>
        <time>2016-10-07T11:32:30Z</time>
      </trkpt>
      <trkpt lat="44.62352" lon="8.84658">
        <ele>317.85</ele>
        <time>2016-10-07T11:32:31Z</time>
      </trkpt>
      <trkpt lat="44.62346" lon="8.84659">
        <ele>318.33</ele>
        <time>2016-10-07T11:32:32Z</time>
      </trkpt>
      <trkpt lat="44.62338" lon="8.8466">
        <ele>317.85</ele>
        <time>2016-10-07T11:32:33Z</time>
      </trkpt>
      <trkpt lat="44.62329" lon="8.8466">
        <ele>317.85</ele>
        <time>2016-10-07T11:32:34Z</time>
      </trkpt>
      <trkpt lat="44.62321" lon="8.8466">
        <ele>318.33</ele>
        <time>2016-10-07T11:32:35Z</time>
      </trkpt>
      <trkpt lat="44.62313" lon="8.84659">
        <ele>318.33</ele>
        <time>2016-10-07T11:32:36Z</time>
      </trkpt>
      <trkpt lat="44.62305" lon="8.84657">
        <ele>318.33</ele>
        <time>2016-10-07T11:32:37Z</time>
      </trkpt>
      <trkpt lat="44.62297" lon="8.84654">
        <ele>318.33</ele>
        <time>2016-10-07T11:32:38Z</time>
      </trkpt>
      <trkpt lat="44.62289" lon="8.8465">
        <ele>318.33</ele>
        <time>2016-10-07T11:32:39Z</time>
      </trkpt>
      <trkpt lat="44.62281" lon="8.84645">
        <ele>318.33</ele>
        <time>2016-10-07T11:32:40Z</time>
      </trkpt>
      <trkpt lat="44.62274" lon="8.8464">
        <ele>317.85</ele>
        <time>2016-10-07T11:32:41Z</time>
      </trkpt>
      <trkpt lat="44.62139" lon="8.84547">
        <ele>317.37</ele>
        <time>2016-10-07T11:33:01Z</time>
      </trkpt>
      <trkpt lat="44.62036" lon="8.84506">
        <ele>318.33</ele>
        <time>2016-10-07T11:33:18Z</time>
      </trkpt>
      <trkpt lat="44.62025" lon="8.845">
        <ele>319.3</ele>
        <time>2016-10-07T11:33:23Z</time>
      </trkpt>
      <trkpt lat="44.62025" lon="8.84499">
        <ele>319.3</ele>
        <time>2016-10-07T11:33:24Z</time>
      </trkpt>
      <trkpt lat="44.62025" lon="8.84497">
        <ele>319.78</ele>
        <time>2016-10-07T11:33:25Z</time>
      </trkpt>
      <trkpt lat="44.62026" lon="8.84495">
        <ele>319.3</ele>
        <time>2016-10-07T11:33:26Z</time>
      </trkpt>
      <trkpt lat="44.62027" lon="8.84493">
        <ele>318.81</ele>
        <time>2016-10-07T11:33:27Z</time>
      </trkpt>
      <trkpt lat="44.62028" lon="8.8449">
        <ele>318.33</ele>
        <time>2016-10-07T11:33:28Z</time>
      </trkpt>
      <trkpt lat="44.62028" lon="8.84488">
        <ele>318.33</ele>
        <time>2016-10-07T11:33:29Z</time>
      </trkpt>
      <trkpt lat="44.62029" lon="8.84486">
        <ele>318.33</ele>
        <time>2016-10-07T11:33:30Z</time>
      </trkpt>
      <trkpt lat="44.62036" lon="8.8447">
        <ele>317.37</ele>
        <time>2016-10-07T11:33:44Z</time>
      </trkpt>
      <trkpt lat="44.62037" lon="8.84467">
        <ele>317.37</ele>
        <time>2016-10-07T11:33:46Z</time>
      </trkpt>
      <trkpt lat="44.62038" lon="8.84467">
        <ele>317.85</ele>
        <time>2016-10-07T11:33:47Z</time>
      </trkpt>
      <trkpt lat="44.6204" lon="8.84467">
        <ele>316.41</ele>
        <time>2016-10-07T11:33:48Z</time>
      </trkpt>
      <trkpt lat="44.62044" lon="8.84487">
        <ele>316.41</ele>
        <time>2016-10-07T11:33:55Z</time>
      </trkpt>
      <trkpt lat="44.62047" lon="8.8448">
        <ele>315.93</ele>
        <time>2016-10-07T11:33:59Z</time>
      </trkpt>
      <trkpt lat="44.62044" lon="8.84468">
        <ele>315.93</ele>
        <time>2016-10-07T11:34:19Z</time>
      </trkpt>
      <trkpt lat="44.62045" lon="8.84466">
        <ele>315.93</ele>
        <time>2016-10-07T11:35:05Z</time>
      </trkpt>
      <trkpt lat="44.62038" lon="8.84458">
        <ele>316.89</ele>
        <time>2016-10-07T11:35:23Z</time>
      </trkpt>
      <trkpt lat="44.62037" lon="8.84459">
        <ele>317.37</ele>
        <time>2016-10-07T11:35:24Z</time>
      </trkpt>
      <trkpt lat="44.62036" lon="8.84461">
        <ele>317.37</ele>
        <time>2016-10-07T11:35:25Z</time>
      </trkpt>
      <trkpt lat="44.62035" lon="8.84463">
        <ele>317.37</ele>
        <time>2016-10-07T11:35:26Z</time>
      </trkpt>
      <trkpt lat="44.62034" lon="8.84465">
        <ele>317.37</ele>
        <time>2016-10-07T11:35:27Z</time>
      </trkpt>
      <trkpt lat="44.62022" lon="8.84499">
        <ele>319.78</ele>
        <time>2016-10-07T11:35:44Z</time>
      </trkpt>
      <trkpt lat="44.6202" lon="8.845">
        <ele>320.26</ele>
        <time>2016-10-07T11:35:47Z</time>
      </trkpt>
      <trkpt lat="44.62019" lon="8.84501">
        <ele>319.78</ele>
        <time>2016-10-07T11:35:48Z</time>
      </trkpt>
      <trkpt lat="44.61996" lon="8.84491">
        <ele>322.18</ele>
        <time>2016-10-07T11:36:05Z</time>
      </trkpt>
      <trkpt lat="44.61972" lon="8.84481">
        <ele>323.14</ele>
        <time>2016-10-07T11:36:20Z</time>
      </trkpt>
      <trkpt lat="44.61937" lon="8.84466">
        <ele>325.54</ele>
        <time>2016-10-07T11:36:40Z</time>
      </trkpt>
      <trkpt lat="44.61904" lon="8.84458">
        <ele>328.43</ele>
        <time>2016-10-07T11:36:59Z</time>
      </trkpt>
      <trkpt lat="44.61873" lon="8.84465">
        <ele>328.43</ele>
        <time>2016-10-07T11:37:13Z</time>
      </trkpt>
      <trkpt lat="44.61844" lon="8.84483">
        <ele>330.35</ele>
        <time>2016-10-07T11:37:26Z</time>
      </trkpt>
      <trkpt lat="44.61819" lon="8.84507">
        <ele>332.75</ele>
        <time>2016-10-07T11:37:41Z</time>
      </trkpt>
      <trkpt lat="44.61797" lon="8.84522">
        <ele>334.2</ele>
        <time>2016-10-07T11:37:54Z</time>
      </trkpt>
      <trkpt lat="44.61764" lon="8.84526">
        <ele>337.08</ele>
        <time>2016-10-07T11:38:09Z</time>
      </trkpt>
      <trkpt lat="44.61739" lon="8.84517">
        <ele>339</ele>
        <time>2016-10-07T11:38:24Z</time>
      </trkpt>
      <trkpt lat="44.61711" lon="8.84504">
        <ele>340.44</ele>
        <time>2016-10-07T11:38:39Z</time>
      </trkpt>
      <trkpt lat="44.61675" lon="8.84487">
        <ele>342.85</ele>
        <time>2016-10-07T11:38:56Z</time>
      </trkpt>
      <trkpt lat="44.61631" lon="8.84468">
        <ele>344.29</ele>
        <time>2016-10-07T11:39:14Z</time>
      </trkpt>
      <trkpt lat="44.61586" lon="8.84466">
        <ele>345.25</ele>
        <time>2016-10-07T11:39:31Z</time>
      </trkpt>
      <trkpt lat="44.61549" lon="8.84488">
        <ele>345.73</ele>
        <time>2016-10-07T11:39:46Z</time>
      </trkpt>
      <trkpt lat="44.61552" lon="8.84508">
        <ele>345.25</ele>
        <time>2016-10-07T11:39:50Z</time>
      </trkpt>
      <trkpt lat="44.61582" lon="8.8453">
        <ele>347.17</ele>
        <time>2016-10-07T11:40:01Z</time>
      </trkpt>
      <trkpt lat="44.61604" lon="8.8455">
        <ele>349.58</ele>
        <time>2016-10-07T11:40:16Z</time>
      </trkpt>
      <trkpt lat="44.61632" lon="8.84557">
        <ele>351.98</ele>
        <time>2016-10-07T11:40:35Z</time>
      </trkpt>
      <trkpt lat="44.61664" lon="8.84549">
        <ele>353.42</ele>
        <time>2016-10-07T11:40:54Z</time>
      </trkpt>
      <trkpt lat="44.61698" lon="8.84562">
        <ele>355.34</ele>
        <time>2016-10-07T11:41:12Z</time>
      </trkpt>
      <trkpt lat="44.61704" lon="8.84588">
        <ele>358.23</ele>
        <time>2016-10-07T11:41:27Z</time>
      </trkpt>
      <trkpt lat="44.61691" lon="8.84606">
        <ele>359.67</ele>
        <time>2016-10-07T11:41:42Z</time>
      </trkpt>
      <trkpt lat="44.61667" lon="8.84612">
        <ele>363.04</ele>
        <time>2016-10-07T11:42:00Z</time>
      </trkpt>
      <trkpt lat="44.61641" lon="8.84621">
        <ele>364.96</ele>
        <time>2016-10-07T11:42:18Z</time>
      </trkpt>
      <trkpt lat="44.61617" lon="8.84634">
        <ele>366.4</ele>
        <time>2016-10-07T11:42:33Z</time>
      </trkpt>
      <trkpt lat="44.61591" lon="8.84653">
        <ele>369.28</ele>
        <time>2016-10-07T11:42:49Z</time>
      </trkpt>
      <trkpt lat="44.61566" lon="8.84681">
        <ele>371.21</ele>
        <time>2016-10-07T11:43:08Z</time>
      </trkpt>
      <trkpt lat="44.61543" lon="8.84705">
        <ele>374.09</ele>
        <time>2016-10-07T11:43:26Z</time>
      </trkpt>
      <trkpt lat="44.61515" lon="8.84712">
        <ele>376.01</ele>
        <time>2016-10-07T11:43:43Z</time>
      </trkpt>
      <trkpt lat="44.61481" lon="8.84717">
        <ele>378.42</ele>
        <time>2016-10-07T11:44:04Z</time>
      </trkpt>
      <trkpt lat="44.61454" lon="8.84723">
        <ele>381.3</ele>
        <time>2016-10-07T11:44:21Z</time>
      </trkpt>
      <trkpt lat="44.61427" lon="8.84732">
        <ele>383.7</ele>
        <time>2016-10-07T11:44:37Z</time>
      </trkpt>
      <trkpt lat="44.61397" lon="8.84746">
        <ele>386.11</ele>
        <time>2016-10-07T11:44:55Z</time>
      </trkpt>
      <trkpt lat="44.61373" lon="8.84779">
        <ele>388.99</ele>
        <time>2016-10-07T11:45:14Z</time>
      </trkpt>
      <trkpt lat="44.61354" lon="8.8482">
        <ele>391.87</ele>
        <time>2016-10-07T11:45:35Z</time>
      </trkpt>
      <trkpt lat="44.61349" lon="8.84867">
        <ele>394.28</ele>
        <time>2016-10-07T11:45:54Z</time>
      </trkpt>
      <trkpt lat="44.61337" lon="8.84904">
        <ele>396.68</ele>
        <time>2016-10-07T11:46:12Z</time>
      </trkpt>
      <trkpt lat="44.61303" lon="8.84906">
        <ele>399.08</ele>
        <time>2016-10-07T11:46:32Z</time>
      </trkpt>
      <trkpt lat="44.61273" lon="8.84906">
        <ele>401.49</ele>
        <time>2016-10-07T11:46:51Z</time>
      </trkpt>
      <trkpt lat="44.61243" lon="8.84923">
        <ele>402.45</ele>
        <time>2016-10-07T11:47:05Z</time>
      </trkpt>
      <trkpt lat="44.61224" lon="8.8494">
        <ele>403.89</ele>
        <time>2016-10-07T11:47:17Z</time>
      </trkpt>
      <trkpt lat="44.61205" lon="8.84963">
        <ele>406.77</ele>
        <time>2016-10-07T11:47:34Z</time>
      </trkpt>
      <trkpt lat="44.61186" lon="8.8498">
        <ele>408.7</ele>
        <time>2016-10-07T11:47:51Z</time>
      </trkpt>
      <trkpt lat="44.61169" lon="8.84992">
        <ele>410.14</ele>
        <time>2016-10-07T11:48:04Z</time>
      </trkpt>
      <trkpt lat="44.61168" lon="8.84993">
        <ele>410.62</ele>
        <time>2016-10-07T11:48:05Z</time>
      </trkpt>
      <trkpt lat="44.61162" lon="8.84999">
        <ele>410.62</ele>
        <time>2016-10-07T11:48:10Z</time>
      </trkpt>
      <trkpt lat="44.61143" lon="8.85028">
        <ele>411.58</ele>
        <time>2016-10-07T11:48:25Z</time>
      </trkpt>
      <trkpt lat="44.61125" lon="8.85061">
        <ele>414.47</ele>
        <time>2016-10-07T11:48:42Z</time>
      </trkpt>
      <trkpt lat="44.6111" lon="8.85101">
        <ele>415.43</ele>
        <time>2016-10-07T11:48:58Z</time>
      </trkpt>
      <trkpt lat="44.61094" lon="8.85137">
        <ele>417.83</ele>
        <time>2016-10-07T11:49:14Z</time>
      </trkpt>
      <trkpt lat="44.6108" lon="8.85192">
        <ele>418.79</ele>
        <time>2016-10-07T11:49:32Z</time>
      </trkpt>
      <trkpt lat="44.61066" lon="8.85213">
        <ele>421.68</ele>
        <time>2016-10-07T11:49:47Z</time>
      </trkpt>
      <trkpt lat="44.61053" lon="8.8522">
        <ele>425.04</ele>
        <time>2016-10-07T11:49:58Z</time>
      </trkpt>
      <trkpt lat="44.61036" lon="8.85231">
        <ele>427.92</ele>
        <time>2016-10-07T11:50:12Z</time>
      </trkpt>
      <trkpt lat="44.61027" lon="8.85237">
        <ele>428.89</ele>
        <time>2016-10-07T11:50:19Z</time>
      </trkpt>
      <trkpt lat="44.61006" lon="8.85251">
        <ele>431.29</ele>
        <time>2016-10-07T11:50:37Z</time>
      </trkpt>
      <trkpt lat="44.60989" lon="8.85268">
        <ele>433.21</ele>
        <time>2016-10-07T11:50:54Z</time>
      </trkpt>
      <trkpt lat="44.60979" lon="8.85302">
        <ele>435.13</ele>
        <time>2016-10-07T11:51:13Z</time>
      </trkpt>
      <trkpt lat="44.60972" lon="8.85334">
        <ele>437.06</ele>
        <time>2016-10-07T11:51:29Z</time>
      </trkpt>
      <trkpt lat="44.60968" lon="8.8536">
        <ele>438.98</ele>
        <time>2016-10-07T11:51:43Z</time>
      </trkpt>
      <trkpt lat="44.60959" lon="8.85389">
        <ele>439.94</ele>
        <time>2016-10-07T11:51:59Z</time>
      </trkpt>
      <trkpt lat="44.60943" lon="8.85415">
        <ele>441.86</ele>
        <time>2016-10-07T11:52:15Z</time>
      </trkpt>
      <trkpt lat="44.6092" lon="8.85438">
        <ele>443.79</ele>
        <time>2016-10-07T11:52:34Z</time>
      </trkpt>
      <trkpt lat="44.60904" lon="8.85458">
        <ele>446.19</ele>
        <time>2016-10-07T11:52:49Z</time>
      </trkpt>
      <trkpt lat="44.60885" lon="8.85475">
        <ele>447.63</ele>
        <time>2016-10-07T11:53:05Z</time>
      </trkpt>
      <trkpt lat="44.60863" lon="8.85499">
        <ele>450.03</ele>
        <time>2016-10-07T11:53:24Z</time>
      </trkpt>
      <trkpt lat="44.60844" lon="8.85518">
        <ele>451.96</ele>
        <time>2016-10-07T11:53:40Z</time>
      </trkpt>
      <trkpt lat="44.60824" lon="8.85541">
        <ele>453.88</ele>
        <time>2016-10-07T11:53:57Z</time>
      </trkpt>
      <trkpt lat="44.60807" lon="8.85571">
        <ele>455.8</ele>
        <time>2016-10-07T11:54:16Z</time>
      </trkpt>
      <trkpt lat="44.60786" lon="8.85592">
        <ele>457.72</ele>
        <time>2016-10-07T11:54:34Z</time>
      </trkpt>
      <trkpt lat="44.60766" lon="8.85603">
        <ele>460.13</ele>
        <time>2016-10-07T11:54:51Z</time>
      </trkpt>
      <trkpt lat="44.6075" lon="8.8561">
        <ele>461.57</ele>
        <time>2016-10-07T11:55:03Z</time>
      </trkpt>
      <trkpt lat="44.6073" lon="8.85625">
        <ele>463.97</ele>
        <time>2016-10-07T11:55:19Z</time>
      </trkpt>
      <trkpt lat="44.60707" lon="8.85648">
        <ele>465.42</ele>
        <time>2016-10-07T11:55:38Z</time>
      </trkpt>
      <trkpt lat="44.60683" lon="8.85657">
        <ele>468.78</ele>
        <time>2016-10-07T11:55:56Z</time>
      </trkpt>
      <trkpt lat="44.60656" lon="8.85674">
        <ele>470.22</ele>
        <time>2016-10-07T11:56:16Z</time>
      </trkpt>
      <trkpt lat="44.60643" lon="8.8571">
        <ele>472.63</ele>
        <time>2016-10-07T11:56:34Z</time>
      </trkpt>
      <trkpt lat="44.60628" lon="8.85735">
        <ele>475.03</ele>
        <time>2016-10-07T11:56:49Z</time>
      </trkpt>
      <trkpt lat="44.60604" lon="8.85756">
        <ele>477.43</ele>
        <time>2016-10-07T11:57:08Z</time>
      </trkpt>
      <trkpt lat="44.60584" lon="8.85778">
        <ele>479.35</ele>
        <time>2016-10-07T11:57:25Z</time>
      </trkpt>
      <trkpt lat="44.60572" lon="8.85814">
        <ele>481.28</ele>
        <time>2016-10-07T11:57:44Z</time>
      </trkpt>
      <trkpt lat="44.60565" lon="8.85849">
        <ele>483.2</ele>
        <time>2016-10-07T11:58:01Z</time>
      </trkpt>
      <trkpt lat="44.60554" lon="8.85869">
        <ele>484.64</ele>
        <time>2016-10-07T11:58:14Z</time>
      </trkpt>
      <trkpt lat="44.60553" lon="8.8587">
        <ele>485.12</ele>
        <time>2016-10-07T11:58:15Z</time>
      </trkpt>
      <trkpt lat="44.60552" lon="8.85871">
        <ele>484.64</ele>
        <time>2016-10-07T11:58:16Z</time>
      </trkpt>
      <trkpt lat="44.60551" lon="8.85872">
        <ele>485.12</ele>
        <time>2016-10-07T11:58:17Z</time>
      </trkpt>
      <trkpt lat="44.6055" lon="8.85874">
        <ele>485.12</ele>
        <time>2016-10-07T11:58:18Z</time>
      </trkpt>
      <trkpt lat="44.60535" lon="8.85891">
        <ele>486.56</ele>
        <time>2016-10-07T11:58:33Z</time>
      </trkpt>
      <trkpt lat="44.60518" lon="8.85912">
        <ele>488.01</ele>
        <time>2016-10-07T11:58:50Z</time>
      </trkpt>
      <trkpt lat="44.60511" lon="8.85921">
        <ele>488.49</ele>
        <time>2016-10-07T11:58:57Z</time>
      </trkpt>
      <trkpt lat="44.6051" lon="8.85922">
        <ele>488.97</ele>
        <time>2016-10-07T11:58:58Z</time>
      </trkpt>
      <trkpt lat="44.60509" lon="8.85923">
        <ele>489.45</ele>
        <time>2016-10-07T11:58:59Z</time>
      </trkpt>
      <trkpt lat="44.60508" lon="8.85924">
        <ele>488.97</ele>
        <time>2016-10-07T11:59:00Z</time>
      </trkpt>
      <trkpt lat="44.60507" lon="8.85924">
        <ele>488.97</ele>
        <time>2016-10-07T11:59:01Z</time>
      </trkpt>
      <trkpt lat="44.60506" lon="8.85925">
        <ele>489.45</ele>
        <time>2016-10-07T11:59:02Z</time>
      </trkpt>
      <trkpt lat="44.60504" lon="8.85926">
        <ele>489.45</ele>
        <time>2016-10-07T11:59:03Z</time>
      </trkpt>
      <trkpt lat="44.60503" lon="8.85927">
        <ele>489.93</ele>
        <time>2016-10-07T11:59:04Z</time>
      </trkpt>
      <trkpt lat="44.60502" lon="8.85927">
        <ele>489.45</ele>
        <time>2016-10-07T11:59:05Z</time>
      </trkpt>
      <trkpt lat="44.60501" lon="8.85929">
        <ele>490.41</ele>
        <time>2016-10-07T11:59:06Z</time>
      </trkpt>
      <trkpt lat="44.605" lon="8.8593">
        <ele>489.93</ele>
        <time>2016-10-07T11:59:07Z</time>
      </trkpt>
      <trkpt lat="44.60483" lon="8.85941">
        <ele>491.37</ele>
        <time>2016-10-07T11:59:21Z</time>
      </trkpt>
      <trkpt lat="44.60478" lon="8.85944">
        <ele>491.85</ele>
        <time>2016-10-07T11:59:25Z</time>
      </trkpt>
      <trkpt lat="44.60476" lon="8.85945">
        <ele>492.33</ele>
        <time>2016-10-07T11:59:26Z</time>
      </trkpt>
      <trkpt lat="44.60475" lon="8.85945">
        <ele>492.33</ele>
        <time>2016-10-07T11:59:27Z</time>
      </trkpt>
      <trkpt lat="44.60474" lon="8.85946">
        <ele>492.33</ele>
        <time>2016-10-07T11:59:28Z</time>
      </trkpt>
      <trkpt lat="44.60473" lon="8.85947">
        <ele>492.33</ele>
        <time>2016-10-07T11:59:29Z</time>
      </trkpt>
      <trkpt lat="44.60472" lon="8.85948">
        <ele>492.33</ele>
        <time>2016-10-07T11:59:30Z</time>
      </trkpt>
      <trkpt lat="44.60468" lon="8.85955">
        <ele>492.81</ele>
        <time>2016-10-07T11:59:45Z</time>
      </trkpt>
      <trkpt lat="44.60473" lon="8.85958">
        <ele>493.77</ele>
        <time>2016-10-07T12:00:15Z</time>
      </trkpt>
      <trkpt lat="44.60469" lon="8.85959">
        <ele>493.77</ele>
        <time>2016-10-07T12:00:45Z</time>
      </trkpt>
      <trkpt lat="44.60471" lon="8.85958">
        <ele>494.74</ele>
        <time>2016-10-07T12:01:13Z</time>
      </trkpt>
      <trkpt lat="44.60472" lon="8.85953">
        <ele>493.29</ele>
        <time>2016-10-07T12:01:30Z</time>
      </trkpt>
      <trkpt lat="44.6047" lon="8.85951">
        <ele>493.77</ele>
        <time>2016-10-07T12:01:59Z</time>
      </trkpt>
      <trkpt lat="44.60469" lon="8.85953">
        <ele>492.81</ele>
        <time>2016-10-07T12:02:28Z</time>
      </trkpt>
      <trkpt lat="44.6047" lon="8.85955">
        <ele>493.29</ele>
        <time>2016-10-07T12:03:08Z</time>
      </trkpt>
      <trkpt lat="44.6047" lon="8.85953">
        <ele>493.77</ele>
        <time>2016-10-07T12:03:46Z</time>
      </trkpt>
      <trkpt lat="44.6047" lon="8.85952">
        <ele>491.85</ele>
        <time>2016-10-07T12:03:58Z</time>
      </trkpt>
      <trkpt lat="44.6047" lon="8.85952">
        <ele>495.22</ele>
        <time>2016-10-07T12:03:59Z</time>
      </trkpt>
      <trkpt lat="44.6047" lon="8.85952">
        <ele>490.89</ele>
        <time>2016-10-07T12:04:00Z</time>
      </trkpt>
      <trkpt lat="44.6047" lon="8.85952">
        <ele>494.26</ele>
        <time>2016-10-07T12:04:01Z</time>
      </trkpt>
      <trkpt lat="44.6047" lon="8.85953">
        <ele>493.29</ele>
        <time>2016-10-07T12:04:38Z</time>
      </trkpt>
      <trkpt lat="44.60469" lon="8.85955">
        <ele>492.81</ele>
        <time>2016-10-07T12:04:56Z</time>
      </trkpt>
      <trkpt lat="44.60469" lon="8.85955">
        <ele>493.29</ele>
        <time>2016-10-07T12:05:25Z</time>
      </trkpt>
      <trkpt lat="44.6047" lon="8.85959">
        <ele>490.41</ele>
        <time>2016-10-07T12:05:36Z</time>
      </trkpt>
      <trkpt lat="44.6047" lon="8.85959">
        <ele>491.37</ele>
        <time>2016-10-07T12:05:37Z</time>
      </trkpt>
      <trkpt lat="44.60471" lon="8.8596">
        <ele>492.81</ele>
        <time>2016-10-07T12:06:06Z</time>
      </trkpt>
      <trkpt lat="44.60471" lon="8.8596">
        <ele>493.29</ele>
        <time>2016-10-07T12:06:18Z</time>
      </trkpt>
      <trkpt lat="44.60471" lon="8.85961">
        <ele>492.81</ele>
        <time>2016-10-07T12:06:19Z</time>
      </trkpt>
      <trkpt lat="44.6047" lon="8.85963">
        <ele>493.29</ele>
        <time>2016-10-07T12:06:20Z</time>
      </trkpt>
      <trkpt lat="44.60471" lon="8.85995">
        <ele>495.22</ele>
        <time>2016-10-07T12:06:37Z</time>
      </trkpt>
      <trkpt lat="44.60471" lon="8.86021">
        <ele>496.66</ele>
        <time>2016-10-07T12:06:50Z</time>
      </trkpt>
      <trkpt lat="44.6047" lon="8.86023">
        <ele>496.66</ele>
        <time>2016-10-07T12:06:51Z</time>
      </trkpt>
      <trkpt lat="44.60469" lon="8.86024">
        <ele>496.66</ele>
        <time>2016-10-07T12:06:52Z</time>
      </trkpt>
      <trkpt lat="44.60468" lon="8.86025">
        <ele>496.66</ele>
        <time>2016-10-07T12:06:53Z</time>
      </trkpt>
      <trkpt lat="44.60467" lon="8.86026">
        <ele>496.66</ele>
        <time>2016-10-07T12:06:54Z</time>
      </trkpt>
      <trkpt lat="44.60466" lon="8.86026">
        <ele>496.66</ele>
        <time>2016-10-07T12:06:55Z</time>
      </trkpt>
      <trkpt lat="44.60464" lon="8.86028">
        <ele>497.14</ele>
        <time>2016-10-07T12:06:56Z</time>
      </trkpt>
      <trkpt lat="44.60458" lon="8.86031">
        <ele>497.62</ele>
        <time>2016-10-07T12:07:02Z</time>
      </trkpt>
      <trkpt lat="44.60456" lon="8.86032">
        <ele>498.1</ele>
        <time>2016-10-07T12:07:03Z</time>
      </trkpt>
      <trkpt lat="44.60455" lon="8.86033">
        <ele>498.1</ele>
        <time>2016-10-07T12:07:04Z</time>
      </trkpt>
      <trkpt lat="44.60432" lon="8.86044">
        <ele>499.54</ele>
        <time>2016-10-07T12:07:20Z</time>
      </trkpt>
      <trkpt lat="44.60423" lon="8.86047">
        <ele>500.02</ele>
        <time>2016-10-07T12:07:27Z</time>
      </trkpt>
      <trkpt lat="44.60422" lon="8.86047">
        <ele>500.02</ele>
        <time>2016-10-07T12:07:28Z</time>
      </trkpt>
      <trkpt lat="44.6042" lon="8.86047">
        <ele>500.02</ele>
        <time>2016-10-07T12:07:29Z</time>
      </trkpt>
      <trkpt lat="44.60419" lon="8.86048">
        <ele>500.5</ele>
        <time>2016-10-07T12:07:30Z</time>
      </trkpt>
      <trkpt lat="44.60417" lon="8.86048">
        <ele>500.98</ele>
        <time>2016-10-07T12:07:31Z</time>
      </trkpt>
      <trkpt lat="44.60416" lon="8.86049">
        <ele>500.98</ele>
        <time>2016-10-07T12:07:32Z</time>
      </trkpt>
      <trkpt lat="44.60415" lon="8.86049">
        <ele>501.46</ele>
        <time>2016-10-07T12:07:33Z</time>
      </trkpt>
      <trkpt lat="44.60404" lon="8.86052">
        <ele>501.46</ele>
        <time>2016-10-07T12:07:40Z</time>
      </trkpt>
      <trkpt lat="44.60402" lon="8.86052">
        <ele>501.95</ele>
        <time>2016-10-07T12:07:41Z</time>
      </trkpt>
      <trkpt lat="44.60401" lon="8.86053">
        <ele>502.43</ele>
        <time>2016-10-07T12:07:42Z</time>
      </trkpt>
      <trkpt lat="44.60399" lon="8.86053">
        <ele>502.43</ele>
        <time>2016-10-07T12:07:43Z</time>
      </trkpt>
      <trkpt lat="44.60385" lon="8.86058">
        <ele>503.39</ele>
        <time>2016-10-07T12:07:53Z</time>
      </trkpt>
      <trkpt lat="44.60384" lon="8.86059">
        <ele>503.87</ele>
        <time>2016-10-07T12:07:54Z</time>
      </trkpt>
      <trkpt lat="44.60371" lon="8.86077">
        <ele>504.83</ele>
        <time>2016-10-07T12:08:07Z</time>
      </trkpt>
      <trkpt lat="44.60367" lon="8.86107">
        <ele>506.75</ele>
        <time>2016-10-07T12:08:22Z</time>
      </trkpt>
      <trkpt lat="44.60371" lon="8.86139">
        <ele>508.19</ele>
        <time>2016-10-07T12:08:39Z</time>
      </trkpt>
      <trkpt lat="44.60371" lon="8.86141">
        <ele>508.67</ele>
        <time>2016-10-07T12:08:40Z</time>
      </trkpt>
      <trkpt lat="44.60372" lon="8.86143">
        <ele>508.67</ele>
        <time>2016-10-07T12:08:41Z</time>
      </trkpt>
      <trkpt lat="44.60372" lon="8.86145">
        <ele>508.67</ele>
        <time>2016-10-07T12:08:42Z</time>
      </trkpt>
      <trkpt lat="44.6038" lon="8.86175">
        <ele>510.12</ele>
        <time>2016-10-07T12:08:58Z</time>
      </trkpt>
      <trkpt lat="44.6039" lon="8.86207">
        <ele>511.56</ele>
        <time>2016-10-07T12:09:14Z</time>
      </trkpt>
      <trkpt lat="44.60411" lon="8.86233">
        <ele>514.44</ele>
        <time>2016-10-07T12:09:32Z</time>
      </trkpt>
      <trkpt lat="44.6043" lon="8.86268">
        <ele>516.85</ele>
        <time>2016-10-07T12:09:51Z</time>
      </trkpt>
      <trkpt lat="44.6043" lon="8.86309">
        <ele>517.81</ele>
        <time>2016-10-07T12:10:07Z</time>
      </trkpt>
      <trkpt lat="44.60417" lon="8.86371">
        <ele>517.33</ele>
        <time>2016-10-07T12:10:26Z</time>
      </trkpt>
      <trkpt lat="44.60393" lon="8.864">
        <ele>519.73</ele>
        <time>2016-10-07T12:10:39Z</time>
      </trkpt>
      <trkpt lat="44.60373" lon="8.86417">
        <ele>521.65</ele>
        <time>2016-10-07T12:10:52Z</time>
      </trkpt>
      <trkpt lat="44.60361" lon="8.8645">
        <ele>523.58</ele>
        <time>2016-10-07T12:11:06Z</time>
      </trkpt>
      <trkpt lat="44.60353" lon="8.86495">
        <ele>525.02</ele>
        <time>2016-10-07T12:11:23Z</time>
      </trkpt>
      <trkpt lat="44.60346" lon="8.8654">
        <ele>526.94</ele>
        <time>2016-10-07T12:11:41Z</time>
      </trkpt>
      <trkpt lat="44.60327" lon="8.86564">
        <ele>528.86</ele>
        <time>2016-10-07T12:11:57Z</time>
      </trkpt>
      <trkpt lat="44.60302" lon="8.86586">
        <ele>531.27</ele>
        <time>2016-10-07T12:12:15Z</time>
      </trkpt>
      <trkpt lat="44.60275" lon="8.86607">
        <ele>532.71</ele>
        <time>2016-10-07T12:12:33Z</time>
      </trkpt>
      <trkpt lat="44.60251" lon="8.8663">
        <ele>535.59</ele>
        <time>2016-10-07T12:12:50Z</time>
      </trkpt>
      <trkpt lat="44.60229" lon="8.86655">
        <ele>537.03</ele>
        <time>2016-10-07T12:13:07Z</time>
      </trkpt>
      <trkpt lat="44.60203" lon="8.86689">
        <ele>538.96</ele>
        <time>2016-10-07T12:13:27Z</time>
      </trkpt>
      <trkpt lat="44.60176" lon="8.86721">
        <ele>540.4</ele>
        <time>2016-10-07T12:13:45Z</time>
      </trkpt>
      <trkpt lat="44.60158" lon="8.86742">
        <ele>542.32</ele>
        <time>2016-10-07T12:13:56Z</time>
      </trkpt>
      <trkpt lat="44.6013" lon="8.86771">
        <ele>543.28</ele>
        <time>2016-10-07T12:14:12Z</time>
      </trkpt>
      <trkpt lat="44.60097" lon="8.86774">
        <ele>544.24</ele>
        <time>2016-10-07T12:14:29Z</time>
      </trkpt>
      <trkpt lat="44.60064" lon="8.86762">
        <ele>546.17</ele>
        <time>2016-10-07T12:14:45Z</time>
      </trkpt>
      <trkpt lat="44.60026" lon="8.86753">
        <ele>547.61</ele>
        <time>2016-10-07T12:15:01Z</time>
      </trkpt>
      <trkpt lat="44.59995" lon="8.86768">
        <ele>548.09</ele>
        <time>2016-10-07T12:15:13Z</time>
      </trkpt>
      <trkpt lat="44.59962" lon="8.868">
        <ele>549.05</ele>
        <time>2016-10-07T12:15:26Z</time>
      </trkpt>
      <trkpt lat="44.5993" lon="8.86833">
        <ele>549.53</ele>
        <time>2016-10-07T12:15:40Z</time>
      </trkpt>
      <trkpt lat="44.59921" lon="8.86878">
        <ele>550.97</ele>
        <time>2016-10-07T12:15:53Z</time>
      </trkpt>
      <trkpt lat="44.5992" lon="8.86941">
        <ele>552.41</ele>
        <time>2016-10-07T12:16:10Z</time>
      </trkpt>
      <trkpt lat="44.59903" lon="8.86982">
        <ele>554.34</ele>
        <time>2016-10-07T12:16:26Z</time>
      </trkpt>
      <trkpt lat="44.59876" lon="8.87001">
        <ele>557.22</ele>
        <time>2016-10-07T12:16:42Z</time>
      </trkpt>
      <trkpt lat="44.59857" lon="8.87021">
        <ele>558.18</ele>
        <time>2016-10-07T12:16:55Z</time>
      </trkpt>
      <trkpt lat="44.59844" lon="8.87061">
        <ele>558.18</ele>
        <time>2016-10-07T12:17:09Z</time>
      </trkpt>
      <trkpt lat="44.59833" lon="8.87118">
        <ele>559.14</ele>
        <time>2016-10-07T12:17:25Z</time>
      </trkpt>
      <trkpt lat="44.59819" lon="8.87163">
        <ele>561.55</ele>
        <time>2016-10-07T12:17:44Z</time>
      </trkpt>
      <trkpt lat="44.59802" lon="8.87202">
        <ele>562.99</ele>
        <time>2016-10-07T12:18:00Z</time>
      </trkpt>
      <trkpt lat="44.59795" lon="8.87247">
        <ele>564.91</ele>
        <time>2016-10-07T12:18:15Z</time>
      </trkpt>
      <trkpt lat="44.59789" lon="8.87299">
        <ele>566.35</ele>
        <time>2016-10-07T12:18:31Z</time>
      </trkpt>
      <trkpt lat="44.59792" lon="8.8735">
        <ele>566.35</ele>
        <time>2016-10-07T12:18:44Z</time>
      </trkpt>
      <trkpt lat="44.59778" lon="8.87401">
        <ele>567.8</ele>
        <time>2016-10-07T12:18:57Z</time>
      </trkpt>
      <trkpt lat="44.59754" lon="8.87457">
        <ele>567.8</ele>
        <time>2016-10-07T12:19:12Z</time>
      </trkpt>
      <trkpt lat="44.5977" lon="8.87516">
        <ele>566.35</ele>
        <time>2016-10-07T12:19:24Z</time>
      </trkpt>
      <trkpt lat="44.59806" lon="8.87537">
        <ele>566.83</ele>
        <time>2016-10-07T12:19:34Z</time>
      </trkpt>
      <trkpt lat="44.59825" lon="8.87544">
        <ele>566.35</ele>
        <time>2016-10-07T12:19:39Z</time>
      </trkpt>
      <trkpt lat="44.59829" lon="8.87548">
        <ele>566.83</ele>
        <time>2016-10-07T12:19:40Z</time>
      </trkpt>
      <trkpt lat="44.59835" lon="8.87558">
        <ele>566.35</ele>
        <time>2016-10-07T12:19:42Z</time>
      </trkpt>
      <trkpt lat="44.59837" lon="8.87564">
        <ele>566.35</ele>
        <time>2016-10-07T12:19:43Z</time>
      </trkpt>
      <trkpt lat="44.59837" lon="8.87571">
        <ele>566.35</ele>
        <time>2016-10-07T12:19:44Z</time>
      </trkpt>
      <trkpt lat="44.59837" lon="8.87577">
        <ele>566.35</ele>
        <time>2016-10-07T12:19:45Z</time>
      </trkpt>
      <trkpt lat="44.59836" lon="8.87584">
        <ele>566.35</ele>
        <time>2016-10-07T12:19:46Z</time>
      </trkpt>
      <trkpt lat="44.59835" lon="8.87592">
        <ele>566.35</ele>
        <time>2016-10-07T12:19:47Z</time>
      </trkpt>
      <trkpt lat="44.59834" lon="8.87599">
        <ele>565.39</ele>
        <time>2016-10-07T12:19:48Z</time>
      </trkpt>
      <trkpt lat="44.59831" lon="8.87619">
        <ele>565.87</ele>
        <time>2016-10-07T12:19:51Z</time>
      </trkpt>
      <trkpt lat="44.59821" lon="8.87688">
        <ele>566.35</ele>
        <time>2016-10-07T12:20:01Z</time>
      </trkpt>
      <trkpt lat="44.59822" lon="8.87695">
        <ele>565.87</ele>
        <time>2016-10-07T12:20:02Z</time>
      </trkpt>
      <trkpt lat="44.59823" lon="8.87702">
        <ele>565.39</ele>
        <time>2016-10-07T12:20:03Z</time>
      </trkpt>
      <trkpt lat="44.59825" lon="8.87709">
        <ele>565.87</ele>
        <time>2016-10-07T12:20:04Z</time>
      </trkpt>
      <trkpt lat="44.59827" lon="8.87716">
        <ele>565.87</ele>
        <time>2016-10-07T12:20:05Z</time>
      </trkpt>
      <trkpt lat="44.59829" lon="8.87723">
        <ele>565.39</ele>
        <time>2016-10-07T12:20:06Z</time>
      </trkpt>
      <trkpt lat="44.59833" lon="8.87735">
        <ele>566.35</ele>
        <time>2016-10-07T12:20:08Z</time>
      </trkpt>
      <trkpt lat="44.59837" lon="8.87747">
        <ele>567.32</ele>
        <time>2016-10-07T12:20:10Z</time>
      </trkpt>
      <trkpt lat="44.59839" lon="8.87752">
        <ele>567.8</ele>
        <time>2016-10-07T12:20:11Z</time>
      </trkpt>
      <trkpt lat="44.59845" lon="8.8777">
        <ele>566.83</ele>
        <time>2016-10-07T12:20:14Z</time>
      </trkpt>
      <trkpt lat="44.59864" lon="8.87854">
        <ele>568.28</ele>
        <time>2016-10-07T12:20:29Z</time>
      </trkpt>
      <trkpt lat="44.59893" lon="8.87911">
        <ele>568.76</ele>
        <time>2016-10-07T12:20:42Z</time>
      </trkpt>
      <trkpt lat="44.59907" lon="8.87957">
        <ele>568.28</ele>
        <time>2016-10-07T12:20:51Z</time>
      </trkpt>
      <trkpt lat="44.59909" lon="8.87962">
        <ele>567.8</ele>
        <time>2016-10-07T12:20:52Z</time>
      </trkpt>
      <trkpt lat="44.59935" lon="8.88001">
        <ele>567.8</ele>
        <time>2016-10-07T12:21:00Z</time>
      </trkpt>
      <trkpt lat="44.59965" lon="8.88036">
        <ele>566.35</ele>
        <time>2016-10-07T12:21:07Z</time>
      </trkpt>
      <trkpt lat="44.59969" lon="8.88042">
        <ele>566.35</ele>
        <time>2016-10-07T12:21:08Z</time>
      </trkpt>
      <trkpt lat="44.59972" lon="8.88048">
        <ele>565.87</ele>
        <time>2016-10-07T12:21:09Z</time>
      </trkpt>
      <trkpt lat="44.59975" lon="8.88055">
        <ele>566.35</ele>
        <time>2016-10-07T12:21:10Z</time>
      </trkpt>
      <trkpt lat="44.59977" lon="8.88063">
        <ele>565.87</ele>
        <time>2016-10-07T12:21:11Z</time>
      </trkpt>
      <trkpt lat="44.59983" lon="8.88077">
        <ele>566.35</ele>
        <time>2016-10-07T12:21:13Z</time>
      </trkpt>
      <trkpt lat="44.59987" lon="8.88084">
        <ele>565.87</ele>
        <time>2016-10-07T12:21:14Z</time>
      </trkpt>
      <trkpt lat="44.59992" lon="8.88089">
        <ele>565.87</ele>
        <time>2016-10-07T12:21:15Z</time>
      </trkpt>
      <trkpt lat="44.59997" lon="8.88092">
        <ele>565.39</ele>
        <time>2016-10-07T12:21:16Z</time>
      </trkpt>
      <trkpt lat="44.60003" lon="8.88095">
        <ele>565.39</ele>
        <time>2016-10-07T12:21:17Z</time>
      </trkpt>
      <trkpt lat="44.60009" lon="8.88097">
        <ele>565.87</ele>
        <time>2016-10-07T12:21:18Z</time>
      </trkpt>
      <trkpt lat="44.60015" lon="8.88098">
        <ele>564.91</ele>
        <time>2016-10-07T12:21:19Z</time>
      </trkpt>
      <trkpt lat="44.6002" lon="8.88099">
        <ele>564.43</ele>
        <time>2016-10-07T12:21:20Z</time>
      </trkpt>
      <trkpt lat="44.60037" lon="8.88104">
        <ele>565.39</ele>
        <time>2016-10-07T12:21:23Z</time>
      </trkpt>
      <trkpt lat="44.60042" lon="8.88106">
        <ele>565.39</ele>
        <time>2016-10-07T12:21:24Z</time>
      </trkpt>
      <trkpt lat="44.60047" lon="8.88111">
        <ele>565.39</ele>
        <time>2016-10-07T12:21:25Z</time>
      </trkpt>
      <trkpt lat="44.60051" lon="8.88117">
        <ele>564.91</ele>
        <time>2016-10-07T12:21:26Z</time>
      </trkpt>
      <trkpt lat="44.60055" lon="8.88123">
        <ele>565.39</ele>
        <time>2016-10-07T12:21:27Z</time>
      </trkpt>
      <trkpt lat="44.60058" lon="8.88129">
        <ele>565.39</ele>
        <time>2016-10-07T12:21:28Z</time>
      </trkpt>
      <trkpt lat="44.6006" lon="8.88136">
        <ele>565.39</ele>
        <time>2016-10-07T12:21:29Z</time>
      </trkpt>
      <trkpt lat="44.60062" lon="8.88143">
        <ele>565.87</ele>
        <time>2016-10-07T12:21:30Z</time>
      </trkpt>
      <trkpt lat="44.60064" lon="8.8815">
        <ele>565.39</ele>
        <time>2016-10-07T12:21:31Z</time>
      </trkpt>
      <trkpt lat="44.60079" lon="8.882">
        <ele>566.83</ele>
        <time>2016-10-07T12:21:43Z</time>
      </trkpt>
      <trkpt lat="44.6008" lon="8.88198">
        <ele>566.83</ele>
        <time>2016-10-07T12:22:07Z</time>
      </trkpt>
      <trkpt lat="44.60082" lon="8.88205">
        <ele>567.32</ele>
        <time>2016-10-07T12:22:43Z</time>
      </trkpt>
      <trkpt lat="44.6009" lon="8.88243">
        <ele>567.8</ele>
        <time>2016-10-07T12:22:56Z</time>
      </trkpt>
      <trkpt lat="44.60078" lon="8.88297">
        <ele>568.76</ele>
        <time>2016-10-07T12:23:09Z</time>
      </trkpt>
      <trkpt lat="44.60053" lon="8.8835">
        <ele>570.2</ele>
        <time>2016-10-07T12:23:24Z</time>
      </trkpt>
      <trkpt lat="44.60031" lon="8.88403">
        <ele>571.64</ele>
        <time>2016-10-07T12:23:40Z</time>
      </trkpt>
      <trkpt lat="44.60008" lon="8.88458">
        <ele>573.08</ele>
        <time>2016-10-07T12:23:56Z</time>
      </trkpt>
      <trkpt lat="44.5997" lon="8.88514">
        <ele>573.56</ele>
        <time>2016-10-07T12:24:11Z</time>
      </trkpt>
      <trkpt lat="44.59946" lon="8.88533">
        <ele>573.08</ele>
        <time>2016-10-07T12:24:17Z</time>
      </trkpt>
      <trkpt lat="44.59942" lon="8.88536">
        <ele>573.08</ele>
        <time>2016-10-07T12:24:18Z</time>
      </trkpt>
      <trkpt lat="44.59932" lon="8.88549">
        <ele>573.08</ele>
        <time>2016-10-07T12:24:21Z</time>
      </trkpt>
      <trkpt lat="44.5993" lon="8.88555">
        <ele>573.08</ele>
        <time>2016-10-07T12:24:22Z</time>
      </trkpt>
      <trkpt lat="44.59925" lon="8.88566">
        <ele>573.56</ele>
        <time>2016-10-07T12:24:24Z</time>
      </trkpt>
      <trkpt lat="44.59923" lon="8.88572">
        <ele>573.08</ele>
        <time>2016-10-07T12:24:25Z</time>
      </trkpt>
      <trkpt lat="44.5992" lon="8.88577">
        <ele>572.6</ele>
        <time>2016-10-07T12:24:26Z</time>
      </trkpt>
      <trkpt lat="44.59916" lon="8.88581">
        <ele>572.6</ele>
        <time>2016-10-07T12:24:27Z</time>
      </trkpt>
      <trkpt lat="44.59912" lon="8.88585">
        <ele>573.08</ele>
        <time>2016-10-07T12:24:28Z</time>
      </trkpt>
      <trkpt lat="44.59907" lon="8.88588">
        <ele>573.08</ele>
        <time>2016-10-07T12:24:29Z</time>
      </trkpt>
      <trkpt lat="44.59902" lon="8.8859">
        <ele>573.08</ele>
        <time>2016-10-07T12:24:30Z</time>
      </trkpt>
      <trkpt lat="44.59873" lon="8.88603">
        <ele>573.08</ele>
        <time>2016-10-07T12:24:36Z</time>
      </trkpt>
      <trkpt lat="44.59825" lon="8.88637">
        <ele>573.56</ele>
        <time>2016-10-07T12:24:47Z</time>
      </trkpt>
      <trkpt lat="44.59822" lon="8.88641">
        <ele>573.56</ele>
        <time>2016-10-07T12:24:48Z</time>
      </trkpt>
      <trkpt lat="44.59808" lon="8.88665">
        <ele>573.08</ele>
        <time>2016-10-07T12:24:53Z</time>
      </trkpt>
      <trkpt lat="44.59776" lon="8.88751">
        <ele>573.08</ele>
        <time>2016-10-07T12:25:08Z</time>
      </trkpt>
      <trkpt lat="44.5974" lon="8.88815">
        <ele>573.08</ele>
        <time>2016-10-07T12:25:20Z</time>
      </trkpt>
      <trkpt lat="44.59737" lon="8.88821">
        <ele>573.08</ele>
        <time>2016-10-07T12:25:21Z</time>
      </trkpt>
      <trkpt lat="44.59735" lon="8.88828">
        <ele>573.56</ele>
        <time>2016-10-07T12:25:22Z</time>
      </trkpt>
      <trkpt lat="44.59734" lon="8.88835">
        <ele>572.12</ele>
        <time>2016-10-07T12:25:23Z</time>
      </trkpt>
      <trkpt lat="44.59733" lon="8.88844">
        <ele>572.12</ele>
        <time>2016-10-07T12:25:24Z</time>
      </trkpt>
      <trkpt lat="44.59733" lon="8.88853">
        <ele>571.16</ele>
        <time>2016-10-07T12:25:25Z</time>
      </trkpt>
      <trkpt lat="44.59735" lon="8.88863">
        <ele>571.16</ele>
        <time>2016-10-07T12:25:26Z</time>
      </trkpt>
      <trkpt lat="44.59738" lon="8.88873">
        <ele>570.2</ele>
        <time>2016-10-07T12:25:27Z</time>
      </trkpt>
      <trkpt lat="44.59741" lon="8.88883">
        <ele>568.76</ele>
        <time>2016-10-07T12:25:28Z</time>
      </trkpt>
      <trkpt lat="44.59747" lon="8.88905">
        <ele>567.32</ele>
        <time>2016-10-07T12:25:30Z</time>
      </trkpt>
      <trkpt lat="44.59748" lon="8.88918">
        <ele>566.83</ele>
        <time>2016-10-07T12:25:31Z</time>
      </trkpt>
      <trkpt lat="44.59748" lon="8.8893">
        <ele>565.39</ele>
        <time>2016-10-07T12:25:32Z</time>
      </trkpt>
      <trkpt lat="44.59748" lon="8.88944">
        <ele>564.91</ele>
        <time>2016-10-07T12:25:33Z</time>
      </trkpt>
      <trkpt lat="44.59747" lon="8.88957">
        <ele>564.43</ele>
        <time>2016-10-07T12:25:34Z</time>
      </trkpt>
      <trkpt lat="44.59744" lon="8.88984">
        <ele>563.47</ele>
        <time>2016-10-07T12:25:36Z</time>
      </trkpt>
      <trkpt lat="44.59738" lon="8.8902">
        <ele>561.55</ele>
        <time>2016-10-07T12:25:39Z</time>
      </trkpt>
      <trkpt lat="44.59735" lon="8.89031">
        <ele>561.07</ele>
        <time>2016-10-07T12:25:40Z</time>
      </trkpt>
      <trkpt lat="44.5973" lon="8.89041">
        <ele>559.62</ele>
        <time>2016-10-07T12:25:41Z</time>
      </trkpt>
      <trkpt lat="44.59724" lon="8.89051">
        <ele>559.14</ele>
        <time>2016-10-07T12:25:42Z</time>
      </trkpt>
      <trkpt lat="44.59718" lon="8.89061">
        <ele>558.66</ele>
        <time>2016-10-07T12:25:43Z</time>
      </trkpt>
      <trkpt lat="44.59712" lon="8.89071">
        <ele>557.7</ele>
        <time>2016-10-07T12:25:44Z</time>
      </trkpt>
      <trkpt lat="44.59707" lon="8.89082">
        <ele>557.7</ele>
        <time>2016-10-07T12:25:45Z</time>
      </trkpt>
      <trkpt lat="44.59694" lon="8.89116">
        <ele>554.82</ele>
        <time>2016-10-07T12:25:48Z</time>
      </trkpt>
      <trkpt lat="44.59687" lon="8.8914">
        <ele>553.86</ele>
        <time>2016-10-07T12:25:50Z</time>
      </trkpt>
      <trkpt lat="44.59685" lon="8.89153">
        <ele>552.9</ele>
        <time>2016-10-07T12:25:51Z</time>
      </trkpt>
      <trkpt lat="44.59679" lon="8.89201">
        <ele>550.49</ele>
        <time>2016-10-07T12:25:55Z</time>
      </trkpt>
      <trkpt lat="44.59678" lon="8.89224">
        <ele>549.53</ele>
        <time>2016-10-07T12:25:57Z</time>
      </trkpt>
      <trkpt lat="44.59679" lon="8.89236">
        <ele>549.05</ele>
        <time>2016-10-07T12:25:58Z</time>
      </trkpt>
      <trkpt lat="44.59681" lon="8.89247">
        <ele>547.61</ele>
        <time>2016-10-07T12:25:59Z</time>
      </trkpt>
      <trkpt lat="44.59684" lon="8.89258">
        <ele>546.65</ele>
        <time>2016-10-07T12:26:00Z</time>
      </trkpt>
      <trkpt lat="44.59689" lon="8.89269">
        <ele>545.69</ele>
        <time>2016-10-07T12:26:01Z</time>
      </trkpt>
      <trkpt lat="44.59693" lon="8.89279">
        <ele>545.2</ele>
        <time>2016-10-07T12:26:02Z</time>
      </trkpt>
      <trkpt lat="44.59698" lon="8.89289">
        <ele>544.24</ele>
        <time>2016-10-07T12:26:03Z</time>
      </trkpt>
      <trkpt lat="44.5971" lon="8.89306">
        <ele>543.28</ele>
        <time>2016-10-07T12:26:05Z</time>
      </trkpt>
      <trkpt lat="44.59717" lon="8.89312">
        <ele>543.28</ele>
        <time>2016-10-07T12:26:06Z</time>
      </trkpt>
      <trkpt lat="44.59724" lon="8.89317">
        <ele>542.32</ele>
        <time>2016-10-07T12:26:07Z</time>
      </trkpt>
      <trkpt lat="44.59733" lon="8.89321">
        <ele>541.36</ele>
        <time>2016-10-07T12:26:08Z</time>
      </trkpt>
      <trkpt lat="44.59743" lon="8.89325">
        <ele>539.44</ele>
        <time>2016-10-07T12:26:09Z</time>
      </trkpt>
      <trkpt lat="44.59762" lon="8.89333">
        <ele>536.55</ele>
        <time>2016-10-07T12:26:11Z</time>
      </trkpt>
      <trkpt lat="44.59772" lon="8.89339">
        <ele>537.03</ele>
        <time>2016-10-07T12:26:12Z</time>
      </trkpt>
      <trkpt lat="44.59781" lon="8.89347">
        <ele>537.99</ele>
        <time>2016-10-07T12:26:13Z</time>
      </trkpt>
      <trkpt lat="44.59789" lon="8.89356">
        <ele>537.99</ele>
        <time>2016-10-07T12:26:14Z</time>
      </trkpt>
      <trkpt lat="44.59797" lon="8.89366">
        <ele>536.55</ele>
        <time>2016-10-07T12:26:15Z</time>
      </trkpt>
      <trkpt lat="44.59821" lon="8.89392">
        <ele>531.75</ele>
        <time>2016-10-07T12:26:18Z</time>
      </trkpt>
      <trkpt lat="44.59829" lon="8.89401">
        <ele>533.67</ele>
        <time>2016-10-07T12:26:19Z</time>
      </trkpt>
      <trkpt lat="44.59851" lon="8.89428">
        <ele>529.34</ele>
        <time>2016-10-07T12:26:22Z</time>
      </trkpt>
      <trkpt lat="44.59858" lon="8.89438">
        <ele>529.34</ele>
        <time>2016-10-07T12:26:23Z</time>
      </trkpt>
      <trkpt lat="44.59862" lon="8.89449">
        <ele>527.9</ele>
        <time>2016-10-07T12:26:24Z</time>
      </trkpt>
      <trkpt lat="44.59866" lon="8.89461">
        <ele>527.42</ele>
        <time>2016-10-07T12:26:25Z</time>
      </trkpt>
      <trkpt lat="44.5987" lon="8.89474">
        <ele>525.98</ele>
        <time>2016-10-07T12:26:26Z</time>
      </trkpt>
      <trkpt lat="44.59874" lon="8.89485">
        <ele>525.02</ele>
        <time>2016-10-07T12:26:27Z</time>
      </trkpt>
      <trkpt lat="44.5988" lon="8.89496">
        <ele>524.06</ele>
        <time>2016-10-07T12:26:28Z</time>
      </trkpt>
      <trkpt lat="44.59887" lon="8.89505">
        <ele>523.58</ele>
        <time>2016-10-07T12:26:29Z</time>
      </trkpt>
      <trkpt lat="44.59895" lon="8.89513">
        <ele>524.06</ele>
        <time>2016-10-07T12:26:30Z</time>
      </trkpt>
      <trkpt lat="44.59904" lon="8.8952">
        <ele>524.06</ele>
        <time>2016-10-07T12:26:31Z</time>
      </trkpt>
      <trkpt lat="44.59912" lon="8.89528">
        <ele>521.17</ele>
        <time>2016-10-07T12:26:32Z</time>
      </trkpt>
      <trkpt lat="44.5992" lon="8.89538">
        <ele>521.17</ele>
        <time>2016-10-07T12:26:33Z</time>
      </trkpt>
      <trkpt lat="44.59927" lon="8.8955">
        <ele>520.69</ele>
        <time>2016-10-07T12:26:34Z</time>
      </trkpt>
      <trkpt lat="44.59933" lon="8.89562">
        <ele>519.73</ele>
        <time>2016-10-07T12:26:35Z</time>
      </trkpt>
      <trkpt lat="44.59938" lon="8.89574">
        <ele>518.77</ele>
        <time>2016-10-07T12:26:36Z</time>
      </trkpt>
      <trkpt lat="44.59945" lon="8.89601">
        <ele>515.88</ele>
        <time>2016-10-07T12:26:38Z</time>
      </trkpt>
      <trkpt lat="44.59948" lon="8.89614">
        <ele>515.4</ele>
        <time>2016-10-07T12:26:39Z</time>
      </trkpt>
      <trkpt lat="44.59948" lon="8.89628">
        <ele>514.92</ele>
        <time>2016-10-07T12:26:40Z</time>
      </trkpt>
      <trkpt lat="44.59948" lon="8.89642">
        <ele>514.44</ele>
        <time>2016-10-07T12:26:41Z</time>
      </trkpt>
      <trkpt lat="44.59945" lon="8.89656">
        <ele>513</ele>
        <time>2016-10-07T12:26:42Z</time>
      </trkpt>
      <trkpt lat="44.59942" lon="8.89669">
        <ele>513.48</ele>
        <time>2016-10-07T12:26:43Z</time>
      </trkpt>
      <trkpt lat="44.59937" lon="8.89683">
        <ele>509.64</ele>
        <time>2016-10-07T12:26:44Z</time>
      </trkpt>
      <trkpt lat="44.59933" lon="8.89695">
        <ele>508.67</ele>
        <time>2016-10-07T12:26:45Z</time>
      </trkpt>
      <trkpt lat="44.59923" lon="8.89716">
        <ele>507.71</ele>
        <time>2016-10-07T12:26:47Z</time>
      </trkpt>
      <trkpt lat="44.5992" lon="8.89726">
        <ele>507.71</ele>
        <time>2016-10-07T12:26:48Z</time>
      </trkpt>
      <trkpt lat="44.59917" lon="8.89737">
        <ele>508.67</ele>
        <time>2016-10-07T12:26:49Z</time>
      </trkpt>
      <trkpt lat="44.59917" lon="8.89748">
        <ele>508.19</ele>
        <time>2016-10-07T12:26:50Z</time>
      </trkpt>
      <trkpt lat="44.59919" lon="8.89759">
        <ele>507.71</ele>
        <time>2016-10-07T12:26:51Z</time>
      </trkpt>
      <trkpt lat="44.59923" lon="8.89769">
        <ele>507.23</ele>
        <time>2016-10-07T12:26:52Z</time>
      </trkpt>
      <trkpt lat="44.59928" lon="8.89779">
        <ele>507.23</ele>
        <time>2016-10-07T12:26:53Z</time>
      </trkpt>
      <trkpt lat="44.59933" lon="8.89789">
        <ele>506.75</ele>
        <time>2016-10-07T12:26:54Z</time>
      </trkpt>
      <trkpt lat="44.59936" lon="8.898">
        <ele>504.83</ele>
        <time>2016-10-07T12:26:55Z</time>
      </trkpt>
      <trkpt lat="44.59936" lon="8.89812">
        <ele>503.39</ele>
        <time>2016-10-07T12:26:56Z</time>
      </trkpt>
      <trkpt lat="44.59935" lon="8.89825">
        <ele>501.95</ele>
        <time>2016-10-07T12:26:57Z</time>
      </trkpt>
      <trkpt lat="44.59935" lon="8.89839">
        <ele>502.91</ele>
        <time>2016-10-07T12:26:58Z</time>
      </trkpt>
      <trkpt lat="44.59935" lon="8.89853">
        <ele>501.95</ele>
        <time>2016-10-07T12:26:59Z</time>
      </trkpt>
      <trkpt lat="44.59936" lon="8.89868">
        <ele>500.98</ele>
        <time>2016-10-07T12:27:00Z</time>
      </trkpt>
      <trkpt lat="44.59939" lon="8.89883">
        <ele>499.54</ele>
        <time>2016-10-07T12:27:01Z</time>
      </trkpt>
      <trkpt lat="44.59943" lon="8.89898">
        <ele>499.54</ele>
        <time>2016-10-07T12:27:02Z</time>
      </trkpt>
      <trkpt lat="44.59947" lon="8.89912">
        <ele>498.58</ele>
        <time>2016-10-07T12:27:03Z</time>
      </trkpt>
      <trkpt lat="44.59976" lon="8.89998">
        <ele>495.7</ele>
        <time>2016-10-07T12:27:10Z</time>
      </trkpt>
      <trkpt lat="44.59981" lon="8.90007">
        <ele>495.7</ele>
        <time>2016-10-07T12:27:11Z</time>
      </trkpt>
      <trkpt lat="44.59988" lon="8.90014">
        <ele>495.7</ele>
        <time>2016-10-07T12:27:12Z</time>
      </trkpt>
      <trkpt lat="44.59995" lon="8.90019">
        <ele>495.22</ele>
        <time>2016-10-07T12:27:13Z</time>
      </trkpt>
      <trkpt lat="44.60002" lon="8.90022">
        <ele>493.77</ele>
        <time>2016-10-07T12:27:14Z</time>
      </trkpt>
      <trkpt lat="44.6001" lon="8.90023">
        <ele>493.29</ele>
        <time>2016-10-07T12:27:15Z</time>
      </trkpt>
      <trkpt lat="44.60017" lon="8.90022">
        <ele>492.81</ele>
        <time>2016-10-07T12:27:16Z</time>
      </trkpt>
      <trkpt lat="44.60024" lon="8.90023">
        <ele>491.85</ele>
        <time>2016-10-07T12:27:17Z</time>
      </trkpt>
      <trkpt lat="44.6003" lon="8.90026">
        <ele>491.37</ele>
        <time>2016-10-07T12:27:18Z</time>
      </trkpt>
      <trkpt lat="44.60034" lon="8.90032">
        <ele>490.41</ele>
        <time>2016-10-07T12:27:19Z</time>
      </trkpt>
      <trkpt lat="44.60036" lon="8.9004">
        <ele>489.93</ele>
        <time>2016-10-07T12:27:20Z</time>
      </trkpt>
      <trkpt lat="44.60036" lon="8.90048">
        <ele>488.97</ele>
        <time>2016-10-07T12:27:21Z</time>
      </trkpt>
      <trkpt lat="44.60032" lon="8.90056">
        <ele>488.49</ele>
        <time>2016-10-07T12:27:22Z</time>
      </trkpt>
      <trkpt lat="44.60026" lon="8.90062">
        <ele>487.53</ele>
        <time>2016-10-07T12:27:23Z</time>
      </trkpt>
      <trkpt lat="44.60019" lon="8.90065">
        <ele>486.56</ele>
        <time>2016-10-07T12:27:24Z</time>
      </trkpt>
      <trkpt lat="44.6001" lon="8.90068">
        <ele>486.08</ele>
        <time>2016-10-07T12:27:25Z</time>
      </trkpt>
      <trkpt lat="44.59985" lon="8.90075">
        <ele>484.16</ele>
        <time>2016-10-07T12:27:28Z</time>
      </trkpt>
      <trkpt lat="44.59941" lon="8.90088">
        <ele>481.28</ele>
        <time>2016-10-07T12:27:33Z</time>
      </trkpt>
      <trkpt lat="44.59932" lon="8.90088">
        <ele>480.32</ele>
        <time>2016-10-07T12:27:34Z</time>
      </trkpt>
      <trkpt lat="44.59923" lon="8.90086">
        <ele>479.35</ele>
        <time>2016-10-07T12:27:35Z</time>
      </trkpt>
      <trkpt lat="44.59916" lon="8.9008">
        <ele>478.87</ele>
        <time>2016-10-07T12:27:36Z</time>
      </trkpt>
      <trkpt lat="44.59909" lon="8.90073">
        <ele>478.39</ele>
        <time>2016-10-07T12:27:37Z</time>
      </trkpt>
      <trkpt lat="44.59903" lon="8.90063">
        <ele>477.43</ele>
        <time>2016-10-07T12:27:38Z</time>
      </trkpt>
      <trkpt lat="44.59899" lon="8.90051">
        <ele>476.47</ele>
        <time>2016-10-07T12:27:39Z</time>
      </trkpt>
      <trkpt lat="44.59897" lon="8.90038">
        <ele>476.47</ele>
        <time>2016-10-07T12:27:40Z</time>
      </trkpt>
      <trkpt lat="44.59896" lon="8.90024">
        <ele>475.03</ele>
        <time>2016-10-07T12:27:41Z</time>
      </trkpt>
      <trkpt lat="44.59897" lon="8.90011">
        <ele>474.07</ele>
        <time>2016-10-07T12:27:42Z</time>
      </trkpt>
      <trkpt lat="44.59897" lon="8.89997">
        <ele>473.59</ele>
        <time>2016-10-07T12:27:43Z</time>
      </trkpt>
      <trkpt lat="44.59898" lon="8.89972">
        <ele>474.07</ele>
        <time>2016-10-07T12:27:45Z</time>
      </trkpt>
      <trkpt lat="44.59897" lon="8.8996">
        <ele>473.11</ele>
        <time>2016-10-07T12:27:46Z</time>
      </trkpt>
      <trkpt lat="44.59895" lon="8.89949">
        <ele>472.14</ele>
        <time>2016-10-07T12:27:47Z</time>
      </trkpt>
      <trkpt lat="44.59893" lon="8.8994">
        <ele>471.66</ele>
        <time>2016-10-07T12:27:48Z</time>
      </trkpt>
      <trkpt lat="44.59887" lon="8.89935">
        <ele>470.7</ele>
        <time>2016-10-07T12:27:49Z</time>
      </trkpt>
      <trkpt lat="44.59879" lon="8.89934">
        <ele>470.22</ele>
        <time>2016-10-07T12:27:50Z</time>
      </trkpt>
      <trkpt lat="44.5987" lon="8.89938">
        <ele>469.26</ele>
        <time>2016-10-07T12:27:51Z</time>
      </trkpt>
      <trkpt lat="44.59862" lon="8.89944">
        <ele>468.78</ele>
        <time>2016-10-07T12:27:52Z</time>
      </trkpt>
      <trkpt lat="44.59855" lon="8.89954">
        <ele>467.82</ele>
        <time>2016-10-07T12:27:53Z</time>
      </trkpt>
      <trkpt lat="44.5985" lon="8.89966">
        <ele>466.86</ele>
        <time>2016-10-07T12:27:54Z</time>
      </trkpt>
      <trkpt lat="44.59847" lon="8.8998">
        <ele>465.42</ele>
        <time>2016-10-07T12:27:55Z</time>
      </trkpt>
      <trkpt lat="44.59847" lon="8.89995">
        <ele>464.45</ele>
        <time>2016-10-07T12:27:56Z</time>
      </trkpt>
      <trkpt lat="44.5985" lon="8.90011">
        <ele>463.01</ele>
        <time>2016-10-07T12:27:57Z</time>
      </trkpt>
      <trkpt lat="44.59854" lon="8.90025">
        <ele>462.53</ele>
        <time>2016-10-07T12:27:58Z</time>
      </trkpt>
      <trkpt lat="44.59858" lon="8.9004">
        <ele>461.57</ele>
        <time>2016-10-07T12:27:59Z</time>
      </trkpt>
      <trkpt lat="44.59865" lon="8.9007">
        <ele>460.13</ele>
        <time>2016-10-07T12:28:01Z</time>
      </trkpt>
      <trkpt lat="44.59866" lon="8.90086">
        <ele>460.13</ele>
        <time>2016-10-07T12:28:02Z</time>
      </trkpt>
      <trkpt lat="44.59866" lon="8.90101">
        <ele>459.65</ele>
        <time>2016-10-07T12:28:03Z</time>
      </trkpt>
      <trkpt lat="44.59861" lon="8.90148">
        <ele>456.28</ele>
        <time>2016-10-07T12:28:06Z</time>
      </trkpt>
      <trkpt lat="44.59856" lon="8.90178">
        <ele>455.8</ele>
        <time>2016-10-07T12:28:08Z</time>
      </trkpt>
      <trkpt lat="44.59842" lon="8.90233">
        <ele>452.44</ele>
        <time>2016-10-07T12:28:12Z</time>
      </trkpt>
      <trkpt lat="44.59838" lon="8.90256">
        <ele>450.52</ele>
        <time>2016-10-07T12:28:14Z</time>
      </trkpt>
      <trkpt lat="44.59838" lon="8.90267">
        <ele>450.03</ele>
        <time>2016-10-07T12:28:15Z</time>
      </trkpt>
      <trkpt lat="44.59842" lon="8.90277">
        <ele>449.55</ele>
        <time>2016-10-07T12:28:16Z</time>
      </trkpt>
      <trkpt lat="44.59848" lon="8.90285">
        <ele>448.59</ele>
        <time>2016-10-07T12:28:17Z</time>
      </trkpt>
      <trkpt lat="44.59856" lon="8.9029">
        <ele>447.15</ele>
        <time>2016-10-07T12:28:18Z</time>
      </trkpt>
      <trkpt lat="44.59865" lon="8.90291">
        <ele>446.19</ele>
        <time>2016-10-07T12:28:19Z</time>
      </trkpt>
      <trkpt lat="44.59874" lon="8.90289">
        <ele>445.23</ele>
        <time>2016-10-07T12:28:20Z</time>
      </trkpt>
      <trkpt lat="44.59884" lon="8.90286">
        <ele>443.31</ele>
        <time>2016-10-07T12:28:21Z</time>
      </trkpt>
      <trkpt lat="44.59893" lon="8.90282">
        <ele>441.38</ele>
        <time>2016-10-07T12:28:22Z</time>
      </trkpt>
      <trkpt lat="44.59913" lon="8.90276">
        <ele>440.42</ele>
        <time>2016-10-07T12:28:24Z</time>
      </trkpt>
      <trkpt lat="44.59923" lon="8.90276">
        <ele>440.9</ele>
        <time>2016-10-07T12:28:25Z</time>
      </trkpt>
      <trkpt lat="44.59933" lon="8.90278">
        <ele>440.42</ele>
        <time>2016-10-07T12:28:26Z</time>
      </trkpt>
      <trkpt lat="44.59944" lon="8.90284">
        <ele>440.9</ele>
        <time>2016-10-07T12:28:27Z</time>
      </trkpt>
      <trkpt lat="44.59953" lon="8.90291">
        <ele>438.98</ele>
        <time>2016-10-07T12:28:28Z</time>
      </trkpt>
      <trkpt lat="44.59961" lon="8.903">
        <ele>437.06</ele>
        <time>2016-10-07T12:28:29Z</time>
      </trkpt>
      <trkpt lat="44.59967" lon="8.90311">
        <ele>437.06</ele>
        <time>2016-10-07T12:28:30Z</time>
      </trkpt>
      <trkpt lat="44.5997" lon="8.90324">
        <ele>435.13</ele>
        <time>2016-10-07T12:28:31Z</time>
      </trkpt>
      <trkpt lat="44.59972" lon="8.90336">
        <ele>435.13</ele>
        <time>2016-10-07T12:28:32Z</time>
      </trkpt>
      <trkpt lat="44.59972" lon="8.90349">
        <ele>434.17</ele>
        <time>2016-10-07T12:28:33Z</time>
      </trkpt>
      <trkpt lat="44.59971" lon="8.9036">
        <ele>433.21</ele>
        <time>2016-10-07T12:28:34Z</time>
      </trkpt>
      <trkpt lat="44.59968" lon="8.9037">
        <ele>433.69</ele>
        <time>2016-10-07T12:28:35Z</time>
      </trkpt>
      <trkpt lat="44.59963" lon="8.90378">
        <ele>433.69</ele>
        <time>2016-10-07T12:28:36Z</time>
      </trkpt>
      <trkpt lat="44.59957" lon="8.90384">
        <ele>432.25</ele>
        <time>2016-10-07T12:28:37Z</time>
      </trkpt>
      <trkpt lat="44.59949" lon="8.90389">
        <ele>431.29</ele>
        <time>2016-10-07T12:28:38Z</time>
      </trkpt>
      <trkpt lat="44.59941" lon="8.90393">
        <ele>430.33</ele>
        <time>2016-10-07T12:28:39Z</time>
      </trkpt>
      <trkpt lat="44.59932" lon="8.90397">
        <ele>430.81</ele>
        <time>2016-10-07T12:28:40Z</time>
      </trkpt>
      <trkpt lat="44.59924" lon="8.90402">
        <ele>431.29</ele>
        <time>2016-10-07T12:28:41Z</time>
      </trkpt>
      <trkpt lat="44.59916" lon="8.90409">
        <ele>430.81</ele>
        <time>2016-10-07T12:28:42Z</time>
      </trkpt>
      <trkpt lat="44.59908" lon="8.90418">
        <ele>429.37</ele>
        <time>2016-10-07T12:28:43Z</time>
      </trkpt>
      <trkpt lat="44.59902" lon="8.90428">
        <ele>428.4</ele>
        <time>2016-10-07T12:28:44Z</time>
      </trkpt>
      <trkpt lat="44.59897" lon="8.9044">
        <ele>427.92</ele>
        <time>2016-10-07T12:28:45Z</time>
      </trkpt>
      <trkpt lat="44.59894" lon="8.90453">
        <ele>427.44</ele>
        <time>2016-10-07T12:28:46Z</time>
      </trkpt>
      <trkpt lat="44.59892" lon="8.90467">
        <ele>426.48</ele>
        <time>2016-10-07T12:28:47Z</time>
      </trkpt>
      <trkpt lat="44.59892" lon="8.90481">
        <ele>425.52</ele>
        <time>2016-10-07T12:28:48Z</time>
      </trkpt>
      <trkpt lat="44.59892" lon="8.90497">
        <ele>424.56</ele>
        <time>2016-10-07T12:28:49Z</time>
      </trkpt>
      <trkpt lat="44.59894" lon="8.90554">
        <ele>420.23</ele>
        <time>2016-10-07T12:28:53Z</time>
      </trkpt>
      <trkpt lat="44.59893" lon="8.90567">
        <ele>417.83</ele>
        <time>2016-10-07T12:28:54Z</time>
      </trkpt>
      <trkpt lat="44.59891" lon="8.90579">
        <ele>417.35</ele>
        <time>2016-10-07T12:28:55Z</time>
      </trkpt>
      <trkpt lat="44.59889" lon="8.90591">
        <ele>417.83</ele>
        <time>2016-10-07T12:28:56Z</time>
      </trkpt>
      <trkpt lat="44.59887" lon="8.90603">
        <ele>418.31</ele>
        <time>2016-10-07T12:28:57Z</time>
      </trkpt>
      <trkpt lat="44.59886" lon="8.90616">
        <ele>416.87</ele>
        <time>2016-10-07T12:28:58Z</time>
      </trkpt>
      <trkpt lat="44.59886" lon="8.90629">
        <ele>416.39</ele>
        <time>2016-10-07T12:28:59Z</time>
      </trkpt>
      <trkpt lat="44.59886" lon="8.90641">
        <ele>416.39</ele>
        <time>2016-10-07T12:29:00Z</time>
      </trkpt>
      <trkpt lat="44.59891" lon="8.90734">
        <ele>414.95</ele>
        <time>2016-10-07T12:29:09Z</time>
      </trkpt>
      <trkpt lat="44.59889" lon="8.90752">
        <ele>414.47</ele>
        <time>2016-10-07T12:29:11Z</time>
      </trkpt>
      <trkpt lat="44.59871" lon="8.90878">
        <ele>411.1</ele>
        <time>2016-10-07T12:29:22Z</time>
      </trkpt>
      <trkpt lat="44.59867" lon="8.90902">
        <ele>410.62</ele>
        <time>2016-10-07T12:29:24Z</time>
      </trkpt>
      <trkpt lat="44.59839" lon="8.91048">
        <ele>409.66</ele>
        <time>2016-10-07T12:29:37Z</time>
      </trkpt>
      <trkpt lat="44.59781" lon="8.91154">
        <ele>407.74</ele>
        <time>2016-10-07T12:29:50Z</time>
      </trkpt>
      <trkpt lat="44.59744" lon="8.91212">
        <ele>405.81</ele>
        <time>2016-10-07T12:29:57Z</time>
      </trkpt>
      <trkpt lat="44.59723" lon="8.91245">
        <ele>402.93</ele>
        <time>2016-10-07T12:30:01Z</time>
      </trkpt>
      <trkpt lat="44.5966" lon="8.91341">
        <ele>401.49</ele>
        <time>2016-10-07T12:30:12Z</time>
      </trkpt>
      <trkpt lat="44.59635" lon="8.91373">
        <ele>400.53</ele>
        <time>2016-10-07T12:30:16Z</time>
      </trkpt>
      <trkpt lat="44.59627" lon="8.91378">
        <ele>400.05</ele>
        <time>2016-10-07T12:30:17Z</time>
      </trkpt>
      <trkpt lat="44.59619" lon="8.91383">
        <ele>400.05</ele>
        <time>2016-10-07T12:30:18Z</time>
      </trkpt>
      <trkpt lat="44.59612" lon="8.91387">
        <ele>399.57</ele>
        <time>2016-10-07T12:30:19Z</time>
      </trkpt>
      <trkpt lat="44.59603" lon="8.91389">
        <ele>400.05</ele>
        <time>2016-10-07T12:30:20Z</time>
      </trkpt>
      <trkpt lat="44.59595" lon="8.91392">
        <ele>400.05</ele>
        <time>2016-10-07T12:30:21Z</time>
      </trkpt>
      <trkpt lat="44.59565" lon="8.91404">
        <ele>399.08</ele>
        <time>2016-10-07T12:30:25Z</time>
      </trkpt>
      <trkpt lat="44.59558" lon="8.91409">
        <ele>398.6</ele>
        <time>2016-10-07T12:30:26Z</time>
      </trkpt>
      <trkpt lat="44.59551" lon="8.91416">
        <ele>398.6</ele>
        <time>2016-10-07T12:30:27Z</time>
      </trkpt>
      <trkpt lat="44.59546" lon="8.91425">
        <ele>397.64</ele>
        <time>2016-10-07T12:30:28Z</time>
      </trkpt>
      <trkpt lat="44.59541" lon="8.91434">
        <ele>397.16</ele>
        <time>2016-10-07T12:30:29Z</time>
      </trkpt>
      <trkpt lat="44.59537" lon="8.91445">
        <ele>397.16</ele>
        <time>2016-10-07T12:30:30Z</time>
      </trkpt>
      <trkpt lat="44.59534" lon="8.91455">
        <ele>395.72</ele>
        <time>2016-10-07T12:30:31Z</time>
      </trkpt>
      <trkpt lat="44.59531" lon="8.91467">
        <ele>394.76</ele>
        <time>2016-10-07T12:30:32Z</time>
      </trkpt>
      <trkpt lat="44.59529" lon="8.91479">
        <ele>394.28</ele>
        <time>2016-10-07T12:30:33Z</time>
      </trkpt>
      <trkpt lat="44.59528" lon="8.91491">
        <ele>395.24</ele>
        <time>2016-10-07T12:30:34Z</time>
      </trkpt>
      <trkpt lat="44.59518" lon="8.91548">
        <ele>394.28</ele>
        <time>2016-10-07T12:30:39Z</time>
      </trkpt>
      <trkpt lat="44.59514" lon="8.91558">
        <ele>394.28</ele>
        <time>2016-10-07T12:30:40Z</time>
      </trkpt>
      <trkpt lat="44.59496" lon="8.91595">
        <ele>394.28</ele>
        <time>2016-10-07T12:30:44Z</time>
      </trkpt>
      <trkpt lat="44.59472" lon="8.9165">
        <ele>393.8</ele>
        <time>2016-10-07T12:30:50Z</time>
      </trkpt>
      <trkpt lat="44.59467" lon="8.91658">
        <ele>393.8</ele>
        <time>2016-10-07T12:30:51Z</time>
      </trkpt>
      <trkpt lat="44.59395" lon="8.91745">
        <ele>390.43</ele>
        <time>2016-10-07T12:31:03Z</time>
      </trkpt>
      <trkpt lat="44.59329" lon="8.91825">
        <ele>388.03</ele>
        <time>2016-10-07T12:31:13Z</time>
      </trkpt>
      <trkpt lat="44.59324" lon="8.91835">
        <ele>387.07</ele>
        <time>2016-10-07T12:31:14Z</time>
      </trkpt>
      <trkpt lat="44.5932" lon="8.91847">
        <ele>386.59</ele>
        <time>2016-10-07T12:31:15Z</time>
      </trkpt>
      <trkpt lat="44.59318" lon="8.91859">
        <ele>386.11</ele>
        <time>2016-10-07T12:31:16Z</time>
      </trkpt>
      <trkpt lat="44.59316" lon="8.91872">
        <ele>386.59</ele>
        <time>2016-10-07T12:31:17Z</time>
      </trkpt>
      <trkpt lat="44.59317" lon="8.91885">
        <ele>385.63</ele>
        <time>2016-10-07T12:31:18Z</time>
      </trkpt>
      <trkpt lat="44.59318" lon="8.91898">
        <ele>385.15</ele>
        <time>2016-10-07T12:31:19Z</time>
      </trkpt>
      <trkpt lat="44.5932" lon="8.91911">
        <ele>385.15</ele>
        <time>2016-10-07T12:31:20Z</time>
      </trkpt>
      <trkpt lat="44.59326" lon="8.9195">
        <ele>384.18</ele>
        <time>2016-10-07T12:31:23Z</time>
      </trkpt>
      <trkpt lat="44.59326" lon="8.91962">
        <ele>384.18</ele>
        <time>2016-10-07T12:31:24Z</time>
      </trkpt>
      <trkpt lat="44.59325" lon="8.91975">
        <ele>384.18</ele>
        <time>2016-10-07T12:31:25Z</time>
      </trkpt>
      <trkpt lat="44.59323" lon="8.91988">
        <ele>383.7</ele>
        <time>2016-10-07T12:31:26Z</time>
      </trkpt>
      <trkpt lat="44.59319" lon="8.92">
        <ele>383.22</ele>
        <time>2016-10-07T12:31:27Z</time>
      </trkpt>
      <trkpt lat="44.59314" lon="8.92012">
        <ele>383.22</ele>
        <time>2016-10-07T12:31:28Z</time>
      </trkpt>
      <trkpt lat="44.59308" lon="8.92023">
        <ele>381.78</ele>
        <time>2016-10-07T12:31:29Z</time>
      </trkpt>
      <trkpt lat="44.59298" lon="8.92046">
        <ele>382.74</ele>
        <time>2016-10-07T12:31:31Z</time>
      </trkpt>
      <trkpt lat="44.5929" lon="8.9207">
        <ele>381.3</ele>
        <time>2016-10-07T12:31:33Z</time>
      </trkpt>
      <trkpt lat="44.59284" lon="8.92096">
        <ele>380.82</ele>
        <time>2016-10-07T12:31:35Z</time>
      </trkpt>
      <trkpt lat="44.59267" lon="8.92183">
        <ele>378.9</ele>
        <time>2016-10-07T12:31:42Z</time>
      </trkpt>
      <trkpt lat="44.59222" lon="8.92395">
        <ele>376.01</ele>
        <time>2016-10-07T12:32:00Z</time>
      </trkpt>
      <trkpt lat="44.59214" lon="8.92427">
        <ele>375.53</ele>
        <time>2016-10-07T12:32:03Z</time>
      </trkpt>
      <trkpt lat="44.59203" lon="8.92454">
        <ele>376.97</ele>
        <time>2016-10-07T12:32:06Z</time>
      </trkpt>
      <trkpt lat="44.59198" lon="8.92461">
        <ele>376.97</ele>
        <time>2016-10-07T12:32:07Z</time>
      </trkpt>
      <trkpt lat="44.59194" lon="8.92468">
        <ele>377.45</ele>
        <time>2016-10-07T12:32:08Z</time>
      </trkpt>
      <trkpt lat="44.59188" lon="8.92474">
        <ele>377.45</ele>
        <time>2016-10-07T12:32:09Z</time>
      </trkpt>
      <trkpt lat="44.59183" lon="8.92479">
        <ele>377.45</ele>
        <time>2016-10-07T12:32:10Z</time>
      </trkpt>
      <trkpt lat="44.59162" lon="8.925">
        <ele>376.97</ele>
        <time>2016-10-07T12:32:14Z</time>
      </trkpt>
      <trkpt lat="44.59152" lon="8.92512">
        <ele>376.01</ele>
        <time>2016-10-07T12:32:16Z</time>
      </trkpt>
      <trkpt lat="44.59147" lon="8.9252">
        <ele>376.01</ele>
        <time>2016-10-07T12:32:17Z</time>
      </trkpt>
      <trkpt lat="44.59143" lon="8.92528">
        <ele>376.49</ele>
        <time>2016-10-07T12:32:18Z</time>
      </trkpt>
      <trkpt lat="44.5914" lon="8.92537">
        <ele>375.53</ele>
        <time>2016-10-07T12:32:19Z</time>
      </trkpt>
      <trkpt lat="44.59137" lon="8.92547">
        <ele>375.05</ele>
        <time>2016-10-07T12:32:20Z</time>
      </trkpt>
      <trkpt lat="44.59134" lon="8.92557">
        <ele>374.57</ele>
        <time>2016-10-07T12:32:21Z</time>
      </trkpt>
      <trkpt lat="44.59126" lon="8.92591">
        <ele>373.13</ele>
        <time>2016-10-07T12:32:24Z</time>
      </trkpt>
      <trkpt lat="44.59117" lon="8.92626">
        <ele>371.21</ele>
        <time>2016-10-07T12:32:27Z</time>
      </trkpt>
      <trkpt lat="44.59101" lon="8.927">
        <ele>367.36</ele>
        <time>2016-10-07T12:32:33Z</time>
      </trkpt>
      <trkpt lat="44.59097" lon="8.92713">
        <ele>367.84</ele>
        <time>2016-10-07T12:32:34Z</time>
      </trkpt>
      <trkpt lat="44.59093" lon="8.92724">
        <ele>367.84</ele>
        <time>2016-10-07T12:32:35Z</time>
      </trkpt>
      <trkpt lat="44.59088" lon="8.92735">
        <ele>367.36</ele>
        <time>2016-10-07T12:32:36Z</time>
      </trkpt>
      <trkpt lat="44.59081" lon="8.92743">
        <ele>368.32</ele>
        <time>2016-10-07T12:32:37Z</time>
      </trkpt>
      <trkpt lat="44.59075" lon="8.92751">
        <ele>367.84</ele>
        <time>2016-10-07T12:32:38Z</time>
      </trkpt>
      <trkpt lat="44.59068" lon="8.92758">
        <ele>367.36</ele>
        <time>2016-10-07T12:32:39Z</time>
      </trkpt>
      <trkpt lat="44.5904" lon="8.92799">
        <ele>368.32</ele>
        <time>2016-10-07T12:32:44Z</time>
      </trkpt>
      <trkpt lat="44.59036" lon="8.92808">
        <ele>368.32</ele>
        <time>2016-10-07T12:32:45Z</time>
      </trkpt>
      <trkpt lat="44.59034" lon="8.92818">
        <ele>367.36</ele>
        <time>2016-10-07T12:32:46Z</time>
      </trkpt>
      <trkpt lat="44.59032" lon="8.92828">
        <ele>367.84</ele>
        <time>2016-10-07T12:32:47Z</time>
      </trkpt>
      <trkpt lat="44.5903" lon="8.92839">
        <ele>367.36</ele>
        <time>2016-10-07T12:32:48Z</time>
      </trkpt>
      <trkpt lat="44.5903" lon="8.92849">
        <ele>367.84</ele>
        <time>2016-10-07T12:32:49Z</time>
      </trkpt>
      <trkpt lat="44.5903" lon="8.9286">
        <ele>367.84</ele>
        <time>2016-10-07T12:32:50Z</time>
      </trkpt>
      <trkpt lat="44.5903" lon="8.9287">
        <ele>367.84</ele>
        <time>2016-10-07T12:32:51Z</time>
      </trkpt>
      <trkpt lat="44.5904" lon="8.93055">
        <ele>364.96</ele>
        <time>2016-10-07T12:33:09Z</time>
      </trkpt>
      <trkpt lat="44.5904" lon="8.93078">
        <ele>364</ele>
        <time>2016-10-07T12:33:11Z</time>
      </trkpt>
      <trkpt lat="44.5904" lon="8.93104">
        <ele>363.04</ele>
        <time>2016-10-07T12:33:13Z</time>
      </trkpt>
      <trkpt lat="44.5904" lon="8.93175">
        <ele>358.71</ele>
        <time>2016-10-07T12:33:18Z</time>
      </trkpt>
      <trkpt lat="44.59041" lon="8.9319">
        <ele>358.71</ele>
        <time>2016-10-07T12:33:19Z</time>
      </trkpt>
      <trkpt lat="44.59041" lon="8.9325">
        <ele>356.31</ele>
        <time>2016-10-07T12:33:23Z</time>
      </trkpt>
      <trkpt lat="44.59039" lon="8.93264">
        <ele>356.79</ele>
        <time>2016-10-07T12:33:24Z</time>
      </trkpt>
      <trkpt lat="44.59038" lon="8.93277">
        <ele>356.31</ele>
        <time>2016-10-07T12:33:25Z</time>
      </trkpt>
      <trkpt lat="44.59035" lon="8.93291">
        <ele>355.83</ele>
        <time>2016-10-07T12:33:26Z</time>
      </trkpt>
      <trkpt lat="44.59031" lon="8.93303">
        <ele>355.34</ele>
        <time>2016-10-07T12:33:27Z</time>
      </trkpt>
      <trkpt lat="44.58986" lon="8.93419">
        <ele>351.98</ele>
        <time>2016-10-07T12:33:37Z</time>
      </trkpt>
      <trkpt lat="44.58976" lon="8.93451">
        <ele>352.46</ele>
        <time>2016-10-07T12:33:40Z</time>
      </trkpt>
      <trkpt lat="44.58973" lon="8.93462">
        <ele>353.42</ele>
        <time>2016-10-07T12:33:41Z</time>
      </trkpt>
      <trkpt lat="44.58971" lon="8.93473">
        <ele>352.94</ele>
        <time>2016-10-07T12:33:42Z</time>
      </trkpt>
      <trkpt lat="44.58969" lon="8.93497">
        <ele>351.98</ele>
        <time>2016-10-07T12:33:44Z</time>
      </trkpt>
      <trkpt lat="44.58952" lon="8.93632">
        <ele>351.5</ele>
        <time>2016-10-07T12:33:57Z</time>
      </trkpt>
      <trkpt lat="44.58938" lon="8.93727">
        <ele>350.54</ele>
        <time>2016-10-07T12:34:10Z</time>
      </trkpt>
      <trkpt lat="44.58933" lon="8.93731">
        <ele>350.06</ele>
        <time>2016-10-07T12:34:23Z</time>
      </trkpt>
      <trkpt lat="44.58931" lon="8.93732">
        <ele>349.58</ele>
        <time>2016-10-07T12:34:24Z</time>
      </trkpt>
      <trkpt lat="44.5893" lon="8.93733">
        <ele>349.58</ele>
        <time>2016-10-07T12:34:25Z</time>
      </trkpt>
      <trkpt lat="44.58896" lon="8.93742">
        <ele>351.02</ele>
        <time>2016-10-07T12:34:38Z</time>
      </trkpt>
      <trkpt lat="44.58838" lon="8.93755">
        <ele>352.46</ele>
        <time>2016-10-07T12:34:53Z</time>
      </trkpt>
      <trkpt lat="44.58786" lon="8.93771">
        <ele>353.42</ele>
        <time>2016-10-07T12:35:07Z</time>
      </trkpt>
      <trkpt lat="44.58731" lon="8.93788">
        <ele>354.86</ele>
        <time>2016-10-07T12:35:21Z</time>
      </trkpt>
      <trkpt lat="44.58686" lon="8.93791">
        <ele>353.9</ele>
        <time>2016-10-07T12:35:34Z</time>
      </trkpt>
      <trkpt lat="44.58649" lon="8.93793">
        <ele>354.38</ele>
        <time>2016-10-07T12:35:47Z</time>
      </trkpt>
      <trkpt lat="44.58617" lon="8.93803">
        <ele>354.86</ele>
        <time>2016-10-07T12:35:59Z</time>
      </trkpt>
      <trkpt lat="44.58609" lon="8.93804">
        <ele>353.9</ele>
        <time>2016-10-07T12:36:12Z</time>
      </trkpt>
      <trkpt lat="44.58607" lon="8.93804">
        <ele>354.38</ele>
        <time>2016-10-07T12:36:13Z</time>
      </trkpt>
      <trkpt lat="44.58593" lon="8.93807">
        <ele>354.38</ele>
        <time>2016-10-07T12:36:24Z</time>
      </trkpt>
      <trkpt lat="44.58586" lon="8.93809">
        <ele>354.38</ele>
        <time>2016-10-07T12:36:43Z</time>
      </trkpt>
      <trkpt lat="44.58556" lon="8.93818">
        <ele>354.86</ele>
        <time>2016-10-07T12:36:54Z</time>
      </trkpt>
      <trkpt lat="44.58496" lon="8.93831">
        <ele>354.38</ele>
        <time>2016-10-07T12:37:10Z</time>
      </trkpt>
      <trkpt lat="44.58449" lon="8.93844">
        <ele>355.34</ele>
        <time>2016-10-07T12:37:21Z</time>
      </trkpt>
      <trkpt lat="44.58445" lon="8.93846">
        <ele>355.34</ele>
        <time>2016-10-07T12:37:22Z</time>
      </trkpt>
      <trkpt lat="44.58376" lon="8.93861">
        <ele>354.86</ele>
        <time>2016-10-07T12:37:37Z</time>
      </trkpt>
      <trkpt lat="44.583" lon="8.93875">
        <ele>355.83</ele>
        <time>2016-10-07T12:37:54Z</time>
      </trkpt>
      <trkpt lat="44.58194" lon="8.93891">
        <ele>356.31</ele>
        <time>2016-10-07T12:38:15Z</time>
      </trkpt>
      <trkpt lat="44.58157" lon="8.93893">
        <ele>356.79</ele>
        <time>2016-10-07T12:38:22Z</time>
      </trkpt>
      <trkpt lat="44.58099" lon="8.93887">
        <ele>357.75</ele>
        <time>2016-10-07T12:38:33Z</time>
      </trkpt>
      <trkpt lat="44.5802" lon="8.93924">
        <ele>356.79</ele>
        <time>2016-10-07T12:38:49Z</time>
      </trkpt>
      <trkpt lat="44.57926" lon="8.93991">
        <ele>357.27</ele>
        <time>2016-10-07T12:39:09Z</time>
      </trkpt>
      <trkpt lat="44.57847" lon="8.94049">
        <ele>357.75</ele>
        <time>2016-10-07T12:39:26Z</time>
      </trkpt>
      <trkpt lat="44.57781" lon="8.94096">
        <ele>357.75</ele>
        <time>2016-10-07T12:39:40Z</time>
      </trkpt>
      <trkpt lat="44.57698" lon="8.94157">
        <ele>359.67</ele>
        <time>2016-10-07T12:39:58Z</time>
      </trkpt>
      <trkpt lat="44.57685" lon="8.9417">
        <ele>358.71</ele>
        <time>2016-10-07T12:40:01Z</time>
      </trkpt>
      <trkpt lat="44.57628" lon="8.94261">
        <ele>359.19</ele>
        <time>2016-10-07T12:40:17Z</time>
      </trkpt>
      <trkpt lat="44.57624" lon="8.94266">
        <ele>359.67</ele>
        <time>2016-10-07T12:40:18Z</time>
      </trkpt>
      <trkpt lat="44.57619" lon="8.94271">
        <ele>359.67</ele>
        <time>2016-10-07T12:40:19Z</time>
      </trkpt>
      <trkpt lat="44.57615" lon="8.94276">
        <ele>359.19</ele>
        <time>2016-10-07T12:40:20Z</time>
      </trkpt>
      <trkpt lat="44.5761" lon="8.94279">
        <ele>359.19</ele>
        <time>2016-10-07T12:40:21Z</time>
      </trkpt>
      <trkpt lat="44.57605" lon="8.94282">
        <ele>360.15</ele>
        <time>2016-10-07T12:40:22Z</time>
      </trkpt>
      <trkpt lat="44.5755" lon="8.94308">
        <ele>358.23</ele>
        <time>2016-10-07T12:40:32Z</time>
      </trkpt>
      <trkpt lat="44.57545" lon="8.9431">
        <ele>358.71</ele>
        <time>2016-10-07T12:40:33Z</time>
      </trkpt>
      <trkpt lat="44.57465" lon="8.9435">
        <ele>358.23</ele>
        <time>2016-10-07T12:40:48Z</time>
      </trkpt>
      <trkpt lat="44.57444" lon="8.94361">
        <ele>358.71</ele>
        <time>2016-10-07T12:40:52Z</time>
      </trkpt>
      <trkpt lat="44.5744" lon="8.94364">
        <ele>358.71</ele>
        <time>2016-10-07T12:40:53Z</time>
      </trkpt>
      <trkpt lat="44.57435" lon="8.94366">
        <ele>359.19</ele>
        <time>2016-10-07T12:40:54Z</time>
      </trkpt>
      <trkpt lat="44.57355" lon="8.94404">
        <ele>358.23</ele>
        <time>2016-10-07T12:41:09Z</time>
      </trkpt>
      <trkpt lat="44.5729" lon="8.94437">
        <ele>358.71</ele>
        <time>2016-10-07T12:41:21Z</time>
      </trkpt>
      <trkpt lat="44.57212" lon="8.94477">
        <ele>358.23</ele>
        <time>2016-10-07T12:41:36Z</time>
      </trkpt>
      <trkpt lat="44.5714" lon="8.94514">
        <ele>359.19</ele>
        <time>2016-10-07T12:41:50Z</time>
      </trkpt>
      <trkpt lat="44.57135" lon="8.94515">
        <ele>359.67</ele>
        <time>2016-10-07T12:41:51Z</time>
      </trkpt>
      <trkpt lat="44.57085" lon="8.94538">
        <ele>360.15</ele>
        <time>2016-10-07T12:42:04Z</time>
      </trkpt>
      <trkpt lat="44.5708" lon="8.94536">
        <ele>360.63</ele>
        <time>2016-10-07T12:42:15Z</time>
      </trkpt>
      <trkpt lat="44.57088" lon="8.9454">
        <ele>361.11</ele>
        <time>2016-10-07T12:42:29Z</time>
      </trkpt>
      <trkpt lat="44.5709" lon="8.94545">
        <ele>361.11</ele>
        <time>2016-10-07T12:42:57Z</time>
      </trkpt>
      <trkpt lat="44.57093" lon="8.94545">
        <ele>361.59</ele>
        <time>2016-10-07T12:43:17Z</time>
      </trkpt>
      <trkpt lat="44.57093" lon="8.94544">
        <ele>360.63</ele>
        <time>2016-10-07T12:43:31Z</time>
      </trkpt>
      <trkpt lat="44.57093" lon="8.94544">
        <ele>361.59</ele>
        <time>2016-10-07T12:43:48Z</time>
      </trkpt>
      <trkpt lat="44.57094" lon="8.94547">
        <ele>360.63</ele>
        <time>2016-10-07T12:44:15Z</time>
      </trkpt>
      <trkpt lat="44.5709" lon="8.94546">
        <ele>361.11</ele>
        <time>2016-10-07T12:44:47Z</time>
      </trkpt>
      <trkpt lat="44.57091" lon="8.94541">
        <ele>362.07</ele>
        <time>2016-10-07T12:45:12Z</time>
      </trkpt>
      <trkpt lat="44.57091" lon="8.94542">
        <ele>362.07</ele>
        <time>2016-10-07T12:45:38Z</time>
      </trkpt>
      <trkpt lat="44.57091" lon="8.94544">
        <ele>362.55</ele>
        <time>2016-10-07T12:46:08Z</time>
      </trkpt>
      <trkpt lat="44.57092" lon="8.94544">
        <ele>363.04</ele>
        <time>2016-10-07T12:46:28Z</time>
      </trkpt>
      <trkpt lat="44.57088" lon="8.94542">
        <ele>362.55</ele>
        <time>2016-10-07T12:46:52Z</time>
      </trkpt>
      <trkpt lat="44.57089" lon="8.94537">
        <ele>362.55</ele>
        <time>2016-10-07T12:47:04Z</time>
      </trkpt>
      <trkpt lat="44.57087" lon="8.94539">
        <ele>363.04</ele>
        <time>2016-10-07T12:47:20Z</time>
      </trkpt>
      <trkpt lat="44.57087" lon="8.94537">
        <ele>363.52</ele>
        <time>2016-10-07T12:47:33Z</time>
      </trkpt>
      <trkpt lat="44.5709" lon="8.94533">
        <ele>363.52</ele>
        <time>2016-10-07T12:48:01Z</time>
      </trkpt>
      <trkpt lat="44.57091" lon="8.94531">
        <ele>363.52</ele>
        <time>2016-10-07T12:48:26Z</time>
      </trkpt>
      <trkpt lat="44.57091" lon="8.94532">
        <ele>363.04</ele>
        <time>2016-10-07T12:48:50Z</time>
      </trkpt>
      <trkpt lat="44.57092" lon="8.94534">
        <ele>363.04</ele>
        <time>2016-10-07T12:49:10Z</time>
      </trkpt>
      <trkpt lat="44.57091" lon="8.94533">
        <ele>363.52</ele>
        <time>2016-10-07T12:49:34Z</time>
      </trkpt>
      <trkpt lat="44.57091" lon="8.94534">
        <ele>363.52</ele>
        <time>2016-10-07T12:49:56Z</time>
      </trkpt>
      <trkpt lat="44.57088" lon="8.94535">
        <ele>364</ele>
        <time>2016-10-07T12:50:21Z</time>
      </trkpt>
      <trkpt lat="44.57088" lon="8.94536">
        <ele>363.52</ele>
        <time>2016-10-07T12:50:49Z</time>
      </trkpt>
      <trkpt lat="44.5709" lon="8.94539">
        <ele>363.04</ele>
        <time>2016-10-07T12:51:09Z</time>
      </trkpt>
      <trkpt lat="44.5709" lon="8.94537">
        <ele>364</ele>
        <time>2016-10-07T12:51:29Z</time>
      </trkpt>
      <trkpt lat="44.57092" lon="8.94537">
        <ele>363.52</ele>
        <time>2016-10-07T12:51:54Z</time>
      </trkpt>
      <trkpt lat="44.5709" lon="8.94536">
        <ele>363.04</ele>
        <time>2016-10-07T12:52:11Z</time>
      </trkpt>
      <trkpt lat="44.5709" lon="8.94534">
        <ele>363.52</ele>
        <time>2016-10-07T12:52:45Z</time>
      </trkpt>
      <trkpt lat="44.57092" lon="8.94528">
        <ele>363.52</ele>
        <time>2016-10-07T12:53:17Z</time>
      </trkpt>
      <trkpt lat="44.57091" lon="8.94515">
        <ele>364</ele>
        <time>2016-10-07T12:53:54Z</time>
      </trkpt>
      <trkpt lat="44.57092" lon="8.94524">
        <ele>364</ele>
        <time>2016-10-07T12:54:25Z</time>
      </trkpt>
      <trkpt lat="44.57091" lon="8.94525">
        <ele>364.48</ele>
        <time>2016-10-07T12:54:57Z</time>
      </trkpt>
      <trkpt lat="44.57092" lon="8.94523">
        <ele>364.96</ele>
        <time>2016-10-07T12:55:32Z</time>
      </trkpt>
      <trkpt lat="44.57088" lon="8.94524">
        <ele>364.96</ele>
        <time>2016-10-07T12:55:58Z</time>
      </trkpt>
      <trkpt lat="44.57078" lon="8.94524">
        <ele>365.44</ele>
        <time>2016-10-07T12:56:41Z</time>
      </trkpt>
      <trkpt lat="44.57081" lon="8.94527">
        <ele>365.92</ele>
        <time>2016-10-07T12:57:13Z</time>
      </trkpt>
      <trkpt lat="44.57079" lon="8.94531">
        <ele>366.4</ele>
        <time>2016-10-07T12:57:48Z</time>
      </trkpt>
      <trkpt lat="44.57092" lon="8.94531">
        <ele>366.88</ele>
        <time>2016-10-07T12:58:18Z</time>
      </trkpt>
      <trkpt lat="44.57098" lon="8.94531">
        <ele>366.88</ele>
        <time>2016-10-07T12:58:46Z</time>
      </trkpt>
      <trkpt lat="44.57092" lon="8.94533">
        <ele>366.88</ele>
        <time>2016-10-07T12:59:14Z</time>
      </trkpt>
      <trkpt lat="44.57093" lon="8.94537">
        <ele>366.4</ele>
        <time>2016-10-07T12:59:28Z</time>
      </trkpt>
      <trkpt lat="44.5709" lon="8.94537">
        <ele>368.32</ele>
        <time>2016-10-07T13:00:03Z</time>
      </trkpt>
      <trkpt lat="44.57089" lon="8.94535">
        <ele>367.84</ele>
        <time>2016-10-07T13:00:35Z</time>
      </trkpt>
      <trkpt lat="44.57087" lon="8.94535">
        <ele>367.84</ele>
        <time>2016-10-07T13:01:03Z</time>
      </trkpt>
      <trkpt lat="44.57089" lon="8.94533">
        <ele>367.84</ele>
        <time>2016-10-07T13:01:27Z</time>
      </trkpt>
      <trkpt lat="44.57086" lon="8.94537">
        <ele>367.84</ele>
        <time>2016-10-07T13:01:35Z</time>
      </trkpt>
      <trkpt lat="44.57083" lon="8.94542">
        <ele>367.84</ele>
        <time>2016-10-07T13:01:38Z</time>
      </trkpt>
      <trkpt lat="44.57081" lon="8.94544">
        <ele>367.84</ele>
        <time>2016-10-07T13:01:39Z</time>
      </trkpt>
      <trkpt lat="44.57079" lon="8.94545">
        <ele>367.84</ele>
        <time>2016-10-07T13:01:40Z</time>
      </trkpt>
      <trkpt lat="44.57077" lon="8.94547">
        <ele>368.32</ele>
        <time>2016-10-07T13:01:41Z</time>
      </trkpt>
      <trkpt lat="44.57075" lon="8.94548">
        <ele>367.84</ele>
        <time>2016-10-07T13:01:42Z</time>
      </trkpt>
      <trkpt lat="44.57073" lon="8.9455">
        <ele>368.32</ele>
        <time>2016-10-07T13:01:43Z</time>
      </trkpt>
      <trkpt lat="44.5707" lon="8.94551">
        <ele>368.32</ele>
        <time>2016-10-07T13:01:44Z</time>
      </trkpt>
      <trkpt lat="44.57068" lon="8.94552">
        <ele>368.32</ele>
        <time>2016-10-07T13:01:45Z</time>
      </trkpt>
      <trkpt lat="44.57065" lon="8.94553">
        <ele>368.8</ele>
        <time>2016-10-07T13:01:46Z</time>
      </trkpt>
      <trkpt lat="44.57043" lon="8.94565">
        <ele>368.32</ele>
        <time>2016-10-07T13:01:55Z</time>
      </trkpt>
      <trkpt lat="44.57037" lon="8.94577">
        <ele>367.84</ele>
        <time>2016-10-07T13:02:00Z</time>
      </trkpt>
      <trkpt lat="44.57034" lon="8.94579">
        <ele>368.8</ele>
        <time>2016-10-07T13:02:02Z</time>
      </trkpt>
      <trkpt lat="44.57032" lon="8.94581">
        <ele>368.32</ele>
        <time>2016-10-07T13:02:03Z</time>
      </trkpt>
      <trkpt lat="44.56998" lon="8.94613">
        <ele>368.32</ele>
        <time>2016-10-07T13:02:15Z</time>
      </trkpt>
      <trkpt lat="44.56968" lon="8.94642">
        <ele>367.84</ele>
        <time>2016-10-07T13:02:23Z</time>
      </trkpt>
      <trkpt lat="44.56964" lon="8.94647">
        <ele>366.88</ele>
        <time>2016-10-07T13:02:24Z</time>
      </trkpt>
      <trkpt lat="44.56928" lon="8.94699">
        <ele>366.4</ele>
        <time>2016-10-07T13:02:35Z</time>
      </trkpt>
      <trkpt lat="44.56916" lon="8.94706">
        <ele>365.92</ele>
        <time>2016-10-07T13:02:37Z</time>
      </trkpt>
      <trkpt lat="44.5691" lon="8.94709">
        <ele>365.92</ele>
        <time>2016-10-07T13:02:38Z</time>
      </trkpt>
      <trkpt lat="44.56903" lon="8.94712">
        <ele>365.44</ele>
        <time>2016-10-07T13:02:39Z</time>
      </trkpt>
      <trkpt lat="44.56897" lon="8.94714">
        <ele>365.44</ele>
        <time>2016-10-07T13:02:40Z</time>
      </trkpt>
      <trkpt lat="44.56892" lon="8.94718">
        <ele>365.92</ele>
        <time>2016-10-07T13:02:41Z</time>
      </trkpt>
      <trkpt lat="44.56887" lon="8.94722">
        <ele>364.96</ele>
        <time>2016-10-07T13:02:42Z</time>
      </trkpt>
      <trkpt lat="44.56867" lon="8.94736">
        <ele>365.92</ele>
        <time>2016-10-07T13:02:46Z</time>
      </trkpt>
      <trkpt lat="44.56821" lon="8.94777">
        <ele>366.88</ele>
        <time>2016-10-07T13:02:57Z</time>
      </trkpt>
      <trkpt lat="44.5681" lon="8.9479">
        <ele>366.88</ele>
        <time>2016-10-07T13:03:00Z</time>
      </trkpt>
      <trkpt lat="44.56807" lon="8.94796">
        <ele>366.4</ele>
        <time>2016-10-07T13:03:01Z</time>
      </trkpt>
      <trkpt lat="44.56798" lon="8.94811">
        <ele>366.4</ele>
        <time>2016-10-07T13:03:04Z</time>
      </trkpt>
      <trkpt lat="44.56795" lon="8.94814">
        <ele>366.4</ele>
        <time>2016-10-07T13:03:05Z</time>
      </trkpt>
      <trkpt lat="44.56791" lon="8.94819">
        <ele>366.88</ele>
        <time>2016-10-07T13:03:06Z</time>
      </trkpt>
      <trkpt lat="44.56789" lon="8.94824">
        <ele>366.88</ele>
        <time>2016-10-07T13:03:07Z</time>
      </trkpt>
      <trkpt lat="44.56787" lon="8.94829">
        <ele>367.36</ele>
        <time>2016-10-07T13:03:08Z</time>
      </trkpt>
      <trkpt lat="44.56785" lon="8.94835">
        <ele>367.36</ele>
        <time>2016-10-07T13:03:09Z</time>
      </trkpt>
      <trkpt lat="44.56784" lon="8.94841">
        <ele>367.36</ele>
        <time>2016-10-07T13:03:10Z</time>
      </trkpt>
      <trkpt lat="44.56775" lon="8.94878">
        <ele>368.8</ele>
        <time>2016-10-07T13:03:17Z</time>
      </trkpt>
      <trkpt lat="44.56775" lon="8.94883">
        <ele>368.32</ele>
        <time>2016-10-07T13:03:18Z</time>
      </trkpt>
      <trkpt lat="44.56774" lon="8.94889">
        <ele>368.32</ele>
        <time>2016-10-07T13:03:19Z</time>
      </trkpt>
      <trkpt lat="44.56764" lon="8.94937">
        <ele>367.84</ele>
        <time>2016-10-07T13:03:28Z</time>
      </trkpt>
      <trkpt lat="44.5676" lon="8.94984">
        <ele>367.36</ele>
        <time>2016-10-07T13:03:35Z</time>
      </trkpt>
      <trkpt lat="44.56758" lon="8.94991">
        <ele>367.36</ele>
        <time>2016-10-07T13:03:36Z</time>
      </trkpt>
      <trkpt lat="44.56754" lon="8.95016">
        <ele>367.84</ele>
        <time>2016-10-07T13:03:40Z</time>
      </trkpt>
      <trkpt lat="44.56752" lon="8.95023">
        <ele>367.36</ele>
        <time>2016-10-07T13:03:41Z</time>
      </trkpt>
      <trkpt lat="44.5675" lon="8.95032">
        <ele>367.36</ele>
        <time>2016-10-07T13:03:42Z</time>
      </trkpt>
      <trkpt lat="44.5675" lon="8.9504">
        <ele>367.36</ele>
        <time>2016-10-07T13:03:43Z</time>
      </trkpt>
      <trkpt lat="44.56749" lon="8.95048">
        <ele>367.36</ele>
        <time>2016-10-07T13:03:44Z</time>
      </trkpt>
      <trkpt lat="44.5675" lon="8.95055">
        <ele>367.84</ele>
        <time>2016-10-07T13:03:45Z</time>
      </trkpt>
      <trkpt lat="44.56749" lon="8.95063">
        <ele>366.88</ele>
        <time>2016-10-07T13:03:46Z</time>
      </trkpt>
      <trkpt lat="44.56749" lon="8.95072">
        <ele>367.36</ele>
        <time>2016-10-07T13:03:47Z</time>
      </trkpt>
      <trkpt lat="44.56749" lon="8.95081">
        <ele>366.88</ele>
        <time>2016-10-07T13:03:48Z</time>
      </trkpt>
      <trkpt lat="44.56749" lon="8.9509">
        <ele>366.88</ele>
        <time>2016-10-07T13:03:49Z</time>
      </trkpt>
      <trkpt lat="44.56744" lon="8.95207">
        <ele>367.36</ele>
        <time>2016-10-07T13:04:04Z</time>
      </trkpt>
      <trkpt lat="44.56735" lon="8.95294">
        <ele>369.76</ele>
        <time>2016-10-07T13:04:20Z</time>
      </trkpt>
      <trkpt lat="44.56732" lon="8.95348">
        <ele>371.21</ele>
        <time>2016-10-07T13:04:33Z</time>
      </trkpt>
      <trkpt lat="44.5673" lon="8.95415">
        <ele>372.65</ele>
        <time>2016-10-07T13:04:48Z</time>
      </trkpt>
      <trkpt lat="44.56728" lon="8.95476">
        <ele>373.61</ele>
        <time>2016-10-07T13:05:02Z</time>
      </trkpt>
      <trkpt lat="44.56724" lon="8.95541">
        <ele>374.09</ele>
        <time>2016-10-07T13:05:15Z</time>
      </trkpt>
      <trkpt lat="44.56729" lon="8.95613">
        <ele>376.01</ele>
        <time>2016-10-07T13:05:29Z</time>
      </trkpt>
      <trkpt lat="44.56741" lon="8.95695">
        <ele>378.9</ele>
        <time>2016-10-07T13:05:48Z</time>
      </trkpt>
      <trkpt lat="44.5675" lon="8.95793">
        <ele>379.86</ele>
        <time>2016-10-07T13:06:11Z</time>
      </trkpt>
      <trkpt lat="44.56754" lon="8.95881">
        <ele>382.26</ele>
        <time>2016-10-07T13:06:31Z</time>
      </trkpt>
      <trkpt lat="44.56742" lon="8.95953">
        <ele>382.74</ele>
        <time>2016-10-07T13:06:46Z</time>
      </trkpt>
      <trkpt lat="44.5671" lon="8.96046">
        <ele>382.26</ele>
        <time>2016-10-07T13:07:03Z</time>
      </trkpt>
      <trkpt lat="44.56695" lon="8.96089">
        <ele>381.3</ele>
        <time>2016-10-07T13:07:14Z</time>
      </trkpt>
      <trkpt lat="44.56692" lon="8.96098">
        <ele>381.3</ele>
        <time>2016-10-07T13:07:17Z</time>
      </trkpt>
      <trkpt lat="44.56692" lon="8.96101">
        <ele>381.78</ele>
        <time>2016-10-07T13:07:18Z</time>
      </trkpt>
      <trkpt lat="44.56692" lon="8.96105">
        <ele>381.78</ele>
        <time>2016-10-07T13:07:19Z</time>
      </trkpt>
      <trkpt lat="44.56683" lon="8.96148">
        <ele>381.3</ele>
        <time>2016-10-07T13:07:27Z</time>
      </trkpt>
      <trkpt lat="44.56676" lon="8.96165">
        <ele>380.82</ele>
        <time>2016-10-07T13:07:30Z</time>
      </trkpt>
      <trkpt lat="44.56655" lon="8.96237">
        <ele>382.74</ele>
        <time>2016-10-07T13:07:43Z</time>
      </trkpt>
      <trkpt lat="44.5665" lon="8.96261">
        <ele>382.26</ele>
        <time>2016-10-07T13:07:47Z</time>
      </trkpt>
      <trkpt lat="44.56629" lon="8.96348">
        <ele>383.7</ele>
        <time>2016-10-07T13:08:02Z</time>
      </trkpt>
      <trkpt lat="44.56628" lon="8.96354">
        <ele>383.7</ele>
        <time>2016-10-07T13:08:03Z</time>
      </trkpt>
      <trkpt lat="44.56623" lon="8.96389">
        <ele>384.18</ele>
        <time>2016-10-07T13:08:09Z</time>
      </trkpt>
      <trkpt lat="44.56621" lon="8.96395">
        <ele>384.18</ele>
        <time>2016-10-07T13:08:10Z</time>
      </trkpt>
      <trkpt lat="44.56607" lon="8.96431">
        <ele>384.66</ele>
        <time>2016-10-07T13:08:16Z</time>
      </trkpt>
      <trkpt lat="44.56605" lon="8.96438">
        <ele>384.66</ele>
        <time>2016-10-07T13:08:17Z</time>
      </trkpt>
      <trkpt lat="44.56602" lon="8.96443">
        <ele>384.66</ele>
        <time>2016-10-07T13:08:18Z</time>
      </trkpt>
      <trkpt lat="44.566" lon="8.96449">
        <ele>384.18</ele>
        <time>2016-10-07T13:08:19Z</time>
      </trkpt>
      <trkpt lat="44.56598" lon="8.96455">
        <ele>385.15</ele>
        <time>2016-10-07T13:08:20Z</time>
      </trkpt>
      <trkpt lat="44.56586" lon="8.96486">
        <ele>384.66</ele>
        <time>2016-10-07T13:08:26Z</time>
      </trkpt>
      <trkpt lat="44.56584" lon="8.96491">
        <ele>385.15</ele>
        <time>2016-10-07T13:08:27Z</time>
      </trkpt>
      <trkpt lat="44.56581" lon="8.96495">
        <ele>385.15</ele>
        <time>2016-10-07T13:08:28Z</time>
      </trkpt>
      <trkpt lat="44.56536" lon="8.9654">
        <ele>386.59</ele>
        <time>2016-10-07T13:08:42Z</time>
      </trkpt>
      <trkpt lat="44.56532" lon="8.96542">
        <ele>386.59</ele>
        <time>2016-10-07T13:08:43Z</time>
      </trkpt>
      <trkpt lat="44.56528" lon="8.96544">
        <ele>386.59</ele>
        <time>2016-10-07T13:08:44Z</time>
      </trkpt>
      <trkpt lat="44.56499" lon="8.96549">
        <ele>387.07</ele>
        <time>2016-10-07T13:08:50Z</time>
      </trkpt>
      <trkpt lat="44.56482" lon="8.96546">
        <ele>387.55</ele>
        <time>2016-10-07T13:08:54Z</time>
      </trkpt>
      <trkpt lat="44.56396" lon="8.96512">
        <ele>387.55</ele>
        <time>2016-10-07T13:09:14Z</time>
      </trkpt>
      <trkpt lat="44.56353" lon="8.96513">
        <ele>388.03</ele>
        <time>2016-10-07T13:09:23Z</time>
      </trkpt>
      <trkpt lat="44.56348" lon="8.96516">
        <ele>387.07</ele>
        <time>2016-10-07T13:09:24Z</time>
      </trkpt>
      <trkpt lat="44.56343" lon="8.96519">
        <ele>387.07</ele>
        <time>2016-10-07T13:09:25Z</time>
      </trkpt>
      <trkpt lat="44.56339" lon="8.96523">
        <ele>386.59</ele>
        <time>2016-10-07T13:09:26Z</time>
      </trkpt>
      <trkpt lat="44.56334" lon="8.96529">
        <ele>386.59</ele>
        <time>2016-10-07T13:09:27Z</time>
      </trkpt>
      <trkpt lat="44.56329" lon="8.96535">
        <ele>386.11</ele>
        <time>2016-10-07T13:09:28Z</time>
      </trkpt>
      <trkpt lat="44.56289" lon="8.9659">
        <ele>382.74</ele>
        <time>2016-10-07T13:09:36Z</time>
      </trkpt>
      <trkpt lat="44.56283" lon="8.96597">
        <ele>382.26</ele>
        <time>2016-10-07T13:09:37Z</time>
      </trkpt>
      <trkpt lat="44.56261" lon="8.96627">
        <ele>381.78</ele>
        <time>2016-10-07T13:09:41Z</time>
      </trkpt>
      <trkpt lat="44.56256" lon="8.96635">
        <ele>382.26</ele>
        <time>2016-10-07T13:09:42Z</time>
      </trkpt>
      <trkpt lat="44.56219" lon="8.96705">
        <ele>380.82</ele>
        <time>2016-10-07T13:09:51Z</time>
      </trkpt>
      <trkpt lat="44.56215" lon="8.96712">
        <ele>380.34</ele>
        <time>2016-10-07T13:09:52Z</time>
      </trkpt>
      <trkpt lat="44.56209" lon="8.96719">
        <ele>380.34</ele>
        <time>2016-10-07T13:09:53Z</time>
      </trkpt>
      <trkpt lat="44.56131" lon="8.96818">
        <ele>379.38</ele>
        <time>2016-10-07T13:10:07Z</time>
      </trkpt>
      <trkpt lat="44.5611" lon="8.9686">
        <ele>382.74</ele>
        <time>2016-10-07T13:10:14Z</time>
      </trkpt>
      <trkpt lat="44.56067" lon="8.9697">
        <ele>382.26</ele>
        <time>2016-10-07T13:10:31Z</time>
      </trkpt>
      <trkpt lat="44.56027" lon="8.97076">
        <ele>381.78</ele>
        <time>2016-10-07T13:10:46Z</time>
      </trkpt>
      <trkpt lat="44.55979" lon="8.97198">
        <ele>382.26</ele>
        <time>2016-10-07T13:11:04Z</time>
      </trkpt>
      <trkpt lat="44.55932" lon="8.97319">
        <ele>381.78</ele>
        <time>2016-10-07T13:11:21Z</time>
      </trkpt>
      <trkpt lat="44.55929" lon="8.97326">
        <ele>382.26</ele>
        <time>2016-10-07T13:11:22Z</time>
      </trkpt>
      <trkpt lat="44.55868" lon="8.97486">
        <ele>381.78</ele>
        <time>2016-10-07T13:11:43Z</time>
      </trkpt>
      <trkpt lat="44.55856" lon="8.97514">
        <ele>381.78</ele>
        <time>2016-10-07T13:11:51Z</time>
      </trkpt>
      <trkpt lat="44.55856" lon="8.97517">
        <ele>382.26</ele>
        <time>2016-10-07T13:11:52Z</time>
      </trkpt>
      <trkpt lat="44.55855" lon="8.97519">
        <ele>382.26</ele>
        <time>2016-10-07T13:11:53Z</time>
      </trkpt>
      <trkpt lat="44.55853" lon="8.97522">
        <ele>382.26</ele>
        <time>2016-10-07T13:11:54Z</time>
      </trkpt>
      <trkpt lat="44.55852" lon="8.97525">
        <ele>382.26</ele>
        <time>2016-10-07T13:11:55Z</time>
      </trkpt>
      <trkpt lat="44.5585" lon="8.9753">
        <ele>381.78</ele>
        <time>2016-10-07T13:11:56Z</time>
      </trkpt>
      <trkpt lat="44.55818" lon="8.9761">
        <ele>382.74</ele>
        <time>2016-10-07T13:12:10Z</time>
      </trkpt>
      <trkpt lat="44.5576" lon="8.97706">
        <ele>382.26</ele>
        <time>2016-10-07T13:12:27Z</time>
      </trkpt>
      <trkpt lat="44.55698" lon="8.97781">
        <ele>382.74</ele>
        <time>2016-10-07T13:12:43Z</time>
      </trkpt>
      <trkpt lat="44.55641" lon="8.97848">
        <ele>383.22</ele>
        <time>2016-10-07T13:12:58Z</time>
      </trkpt>
      <trkpt lat="44.55623" lon="8.97866">
        <ele>383.7</ele>
        <time>2016-10-07T13:13:07Z</time>
      </trkpt>
      <trkpt lat="44.55623" lon="8.97868">
        <ele>383.22</ele>
        <time>2016-10-07T13:13:19Z</time>
      </trkpt>
      <trkpt lat="44.55621" lon="8.97869">
        <ele>383.7</ele>
        <time>2016-10-07T13:13:20Z</time>
      </trkpt>
      <trkpt lat="44.5562" lon="8.97871">
        <ele>383.22</ele>
        <time>2016-10-07T13:13:21Z</time>
      </trkpt>
      <trkpt lat="44.5562" lon="8.97874">
        <ele>383.7</ele>
        <time>2016-10-07T13:13:22Z</time>
      </trkpt>
      <trkpt lat="44.5562" lon="8.97877">
        <ele>383.22</ele>
        <time>2016-10-07T13:13:23Z</time>
      </trkpt>
      <trkpt lat="44.5562" lon="8.97881">
        <ele>383.7</ele>
        <time>2016-10-07T13:13:24Z</time>
      </trkpt>
      <trkpt lat="44.55622" lon="8.97885">
        <ele>383.7</ele>
        <time>2016-10-07T13:13:25Z</time>
      </trkpt>
      <trkpt lat="44.55624" lon="8.97889">
        <ele>383.7</ele>
        <time>2016-10-07T13:13:26Z</time>
      </trkpt>
      <trkpt lat="44.55626" lon="8.97893">
        <ele>383.22</ele>
        <time>2016-10-07T13:13:27Z</time>
      </trkpt>
      <trkpt lat="44.55646" lon="8.97967">
        <ele>384.18</ele>
        <time>2016-10-07T13:13:42Z</time>
      </trkpt>
      <trkpt lat="44.55651" lon="8.97986">
        <ele>382.26</ele>
        <time>2016-10-07T13:13:46Z</time>
      </trkpt>
      <trkpt lat="44.55651" lon="8.97991">
        <ele>381.78</ele>
        <time>2016-10-07T13:13:47Z</time>
      </trkpt>
      <trkpt lat="44.55649" lon="8.97995">
        <ele>381.78</ele>
        <time>2016-10-07T13:13:48Z</time>
      </trkpt>
      <trkpt lat="44.55647" lon="8.97999">
        <ele>381.3</ele>
        <time>2016-10-07T13:13:49Z</time>
      </trkpt>
      <trkpt lat="44.55644" lon="8.98002">
        <ele>381.78</ele>
        <time>2016-10-07T13:13:50Z</time>
      </trkpt>
      <trkpt lat="44.55641" lon="8.98004">
        <ele>382.26</ele>
        <time>2016-10-07T13:13:51Z</time>
      </trkpt>
      <trkpt lat="44.55637" lon="8.98006">
        <ele>382.26</ele>
        <time>2016-10-07T13:13:52Z</time>
      </trkpt>
      <trkpt lat="44.55633" lon="8.98007">
        <ele>382.26</ele>
        <time>2016-10-07T13:13:53Z</time>
      </trkpt>
      <trkpt lat="44.5563" lon="8.98008">
        <ele>382.26</ele>
        <time>2016-10-07T13:13:54Z</time>
      </trkpt>
      <trkpt lat="44.55626" lon="8.9801">
        <ele>382.74</ele>
        <time>2016-10-07T13:13:55Z</time>
      </trkpt>
      <trkpt lat="44.55623" lon="8.98012">
        <ele>382.74</ele>
        <time>2016-10-07T13:13:56Z</time>
      </trkpt>
      <trkpt lat="44.55619" lon="8.98014">
        <ele>382.74</ele>
        <time>2016-10-07T13:13:57Z</time>
      </trkpt>
      <trkpt lat="44.55616" lon="8.98016">
        <ele>382.26</ele>
        <time>2016-10-07T13:13:58Z</time>
      </trkpt>
      <trkpt lat="44.55569" lon="8.98046">
        <ele>383.22</ele>
        <time>2016-10-07T13:14:11Z</time>
      </trkpt>
      <trkpt lat="44.55514" lon="8.98074">
        <ele>382.74</ele>
        <time>2016-10-07T13:14:23Z</time>
      </trkpt>
      <trkpt lat="44.55509" lon="8.98073">
        <ele>381.78</ele>
        <time>2016-10-07T13:14:24Z</time>
      </trkpt>
      <trkpt lat="44.55504" lon="8.98071">
        <ele>382.26</ele>
        <time>2016-10-07T13:14:25Z</time>
      </trkpt>
      <trkpt lat="44.55447" lon="8.98042">
        <ele>382.74</ele>
        <time>2016-10-07T13:14:38Z</time>
      </trkpt>
      <trkpt lat="44.55443" lon="8.9804">
        <ele>382.74</ele>
        <time>2016-10-07T13:14:39Z</time>
      </trkpt>
      <trkpt lat="44.55422" lon="8.98027">
        <ele>382.74</ele>
        <time>2016-10-07T13:14:44Z</time>
      </trkpt>
      <trkpt lat="44.55417" lon="8.98025">
        <ele>383.22</ele>
        <time>2016-10-07T13:14:45Z</time>
      </trkpt>
      <trkpt lat="44.55358" lon="8.97989">
        <ele>385.15</ele>
        <time>2016-10-07T13:15:01Z</time>
      </trkpt>
      <trkpt lat="44.55308" lon="8.9796">
        <ele>387.07</ele>
        <time>2016-10-07T13:15:18Z</time>
      </trkpt>
      <trkpt lat="44.55278" lon="8.97932">
        <ele>388.03</ele>
        <time>2016-10-07T13:15:28Z</time>
      </trkpt>
      <trkpt lat="44.55241" lon="8.97896">
        <ele>388.51</ele>
        <time>2016-10-07T13:15:40Z</time>
      </trkpt>
      <trkpt lat="44.55189" lon="8.97851">
        <ele>389.47</ele>
        <time>2016-10-07T13:15:56Z</time>
      </trkpt>
      <trkpt lat="44.55133" lon="8.97814">
        <ele>389.47</ele>
        <time>2016-10-07T13:16:13Z</time>
      </trkpt>
      <trkpt lat="44.55099" lon="8.97804">
        <ele>392.36</ele>
        <time>2016-10-07T13:16:27Z</time>
      </trkpt>
      <trkpt lat="44.55066" lon="8.978">
        <ele>393.8</ele>
        <time>2016-10-07T13:16:43Z</time>
      </trkpt>
      <trkpt lat="44.55039" lon="8.97799">
        <ele>395.72</ele>
        <time>2016-10-07T13:16:57Z</time>
      </trkpt>
      <trkpt lat="44.5501" lon="8.97801">
        <ele>397.16</ele>
        <time>2016-10-07T13:17:13Z</time>
      </trkpt>
      <trkpt lat="44.54992" lon="8.97806">
        <ele>398.6</ele>
        <time>2016-10-07T13:17:23Z</time>
      </trkpt>
      <trkpt lat="44.54991" lon="8.97806">
        <ele>398.6</ele>
        <time>2016-10-07T13:17:24Z</time>
      </trkpt>
      <trkpt lat="44.54989" lon="8.97806">
        <ele>399.08</ele>
        <time>2016-10-07T13:17:25Z</time>
      </trkpt>
      <trkpt lat="44.54987" lon="8.97806">
        <ele>398.6</ele>
        <time>2016-10-07T13:17:26Z</time>
      </trkpt>
      <trkpt lat="44.54985" lon="8.97807">
        <ele>399.08</ele>
        <time>2016-10-07T13:17:27Z</time>
      </trkpt>
      <trkpt lat="44.54984" lon="8.97807">
        <ele>399.08</ele>
        <time>2016-10-07T13:17:28Z</time>
      </trkpt>
      <trkpt lat="44.54958" lon="8.97817">
        <ele>401.01</ele>
        <time>2016-10-07T13:17:43Z</time>
      </trkpt>
      <trkpt lat="44.54922" lon="8.97825">
        <ele>401.49</ele>
        <time>2016-10-07T13:17:57Z</time>
      </trkpt>
      <trkpt lat="44.54883" lon="8.97841">
        <ele>401.49</ele>
        <time>2016-10-07T13:18:08Z</time>
      </trkpt>
      <trkpt lat="44.54855" lon="8.97865">
        <ele>402.45</ele>
        <time>2016-10-07T13:18:18Z</time>
      </trkpt>
      <trkpt lat="44.54831" lon="8.97891">
        <ele>401.01</ele>
        <time>2016-10-07T13:18:29Z</time>
      </trkpt>
      <trkpt lat="44.54822" lon="8.97895">
        <ele>401.01</ele>
        <time>2016-10-07T13:18:31Z</time>
      </trkpt>
      <trkpt lat="44.54817" lon="8.97896">
        <ele>400.53</ele>
        <time>2016-10-07T13:18:32Z</time>
      </trkpt>
      <trkpt lat="44.54807" lon="8.97896">
        <ele>400.53</ele>
        <time>2016-10-07T13:18:34Z</time>
      </trkpt>
      <trkpt lat="44.54786" lon="8.97899">
        <ele>399.08</ele>
        <time>2016-10-07T13:18:37Z</time>
      </trkpt>
      <trkpt lat="44.54771" lon="8.97902">
        <ele>398.6</ele>
        <time>2016-10-07T13:18:39Z</time>
      </trkpt>
      <trkpt lat="44.54751" lon="8.97909">
        <ele>397.64</ele>
        <time>2016-10-07T13:18:42Z</time>
      </trkpt>
      <trkpt lat="44.54689" lon="8.97958">
        <ele>395.72</ele>
        <time>2016-10-07T13:18:51Z</time>
      </trkpt>
      <trkpt lat="44.54674" lon="8.97979">
        <ele>396.2</ele>
        <time>2016-10-07T13:18:54Z</time>
      </trkpt>
      <trkpt lat="44.5467" lon="8.97986">
        <ele>395.24</ele>
        <time>2016-10-07T13:18:55Z</time>
      </trkpt>
      <trkpt lat="44.54666" lon="8.97994">
        <ele>395.72</ele>
        <time>2016-10-07T13:18:56Z</time>
      </trkpt>
      <trkpt lat="44.54653" lon="8.98036">
        <ele>395.72</ele>
        <time>2016-10-07T13:19:05Z</time>
      </trkpt>
      <trkpt lat="44.5465" lon="8.98041">
        <ele>395.72</ele>
        <time>2016-10-07T13:19:20Z</time>
      </trkpt>
      <trkpt lat="44.54646" lon="8.98047">
        <ele>395.24</ele>
        <time>2016-10-07T13:19:57Z</time>
      </trkpt>
      <trkpt lat="44.54644" lon="8.98056">
        <ele>395.72</ele>
        <time>2016-10-07T13:20:17Z</time>
      </trkpt>
      <trkpt lat="44.54637" lon="8.98098">
        <ele>396.2</ele>
        <time>2016-10-07T13:20:31Z</time>
      </trkpt>
      <trkpt lat="44.54638" lon="8.98103">
        <ele>395.72</ele>
        <time>2016-10-07T13:20:33Z</time>
      </trkpt>
      <trkpt lat="44.54637" lon="8.98107">
        <ele>395.24</ele>
        <time>2016-10-07T13:20:34Z</time>
      </trkpt>
      <trkpt lat="44.54632" lon="8.98114">
        <ele>395.24</ele>
        <time>2016-10-07T13:20:36Z</time>
      </trkpt>
      <trkpt lat="44.54629" lon="8.98119">
        <ele>395.24</ele>
        <time>2016-10-07T13:20:37Z</time>
      </trkpt>
      <trkpt lat="44.54625" lon="8.98125">
        <ele>395.24</ele>
        <time>2016-10-07T13:20:38Z</time>
      </trkpt>
      <trkpt lat="44.54623" lon="8.98132">
        <ele>395.24</ele>
        <time>2016-10-07T13:20:39Z</time>
      </trkpt>
      <trkpt lat="44.54621" lon="8.98139">
        <ele>395.24</ele>
        <time>2016-10-07T13:20:40Z</time>
      </trkpt>
      <trkpt lat="44.5462" lon="8.98145">
        <ele>395.24</ele>
        <time>2016-10-07T13:20:41Z</time>
      </trkpt>
      <trkpt lat="44.54614" lon="8.9821">
        <ele>395.72</ele>
        <time>2016-10-07T13:20:50Z</time>
      </trkpt>
      <trkpt lat="44.54616" lon="8.98229">
        <ele>395.72</ele>
        <time>2016-10-07T13:20:53Z</time>
      </trkpt>
      <trkpt lat="44.54615" lon="8.98235">
        <ele>396.2</ele>
        <time>2016-10-07T13:20:54Z</time>
      </trkpt>
      <trkpt lat="44.54614" lon="8.98241">
        <ele>396.2</ele>
        <time>2016-10-07T13:20:55Z</time>
      </trkpt>
      <trkpt lat="44.54599" lon="8.98285">
        <ele>396.2</ele>
        <time>2016-10-07T13:21:03Z</time>
      </trkpt>
      <trkpt lat="44.54581" lon="8.98355">
        <ele>396.68</ele>
        <time>2016-10-07T13:21:15Z</time>
      </trkpt>
      <trkpt lat="44.54554" lon="8.98382">
        <ele>398.6</ele>
        <time>2016-10-07T13:21:26Z</time>
      </trkpt>
      <trkpt lat="44.5452" lon="8.98406">
        <ele>398.6</ele>
        <time>2016-10-07T13:21:38Z</time>
      </trkpt>
      <trkpt lat="44.54482" lon="8.9845">
        <ele>400.05</ele>
        <time>2016-10-07T13:21:52Z</time>
      </trkpt>
      <trkpt lat="44.54453" lon="8.98467">
        <ele>397.16</ele>
        <time>2016-10-07T13:21:58Z</time>
      </trkpt>
      <trkpt lat="44.54401" lon="8.98484">
        <ele>396.2</ele>
        <time>2016-10-07T13:22:07Z</time>
      </trkpt>
      <trkpt lat="44.54396" lon="8.98487">
        <ele>396.2</ele>
        <time>2016-10-07T13:22:08Z</time>
      </trkpt>
      <trkpt lat="44.54363" lon="8.98513">
        <ele>393.32</ele>
        <time>2016-10-07T13:22:13Z</time>
      </trkpt>
      <trkpt lat="44.54338" lon="8.98535">
        <ele>391.87</ele>
        <time>2016-10-07T13:22:17Z</time>
      </trkpt>
      <trkpt lat="44.54332" lon="8.98539">
        <ele>389.95</ele>
        <time>2016-10-07T13:22:18Z</time>
      </trkpt>
      <trkpt lat="44.54323" lon="8.98546">
        <ele>392.36</ele>
        <time>2016-10-07T13:22:20Z</time>
      </trkpt>
      <trkpt lat="44.54318" lon="8.98548">
        <ele>391.87</ele>
        <time>2016-10-07T13:22:21Z</time>
      </trkpt>
      <trkpt lat="44.54315" lon="8.98549">
        <ele>392.36</ele>
        <time>2016-10-07T13:22:22Z</time>
      </trkpt>
      <trkpt lat="44.54312" lon="8.98551">
        <ele>392.36</ele>
        <time>2016-10-07T13:22:23Z</time>
      </trkpt>
      <trkpt lat="44.54311" lon="8.98551">
        <ele>392.84</ele>
        <time>2016-10-07T13:22:24Z</time>
      </trkpt>
      <trkpt lat="44.54307" lon="8.98551">
        <ele>393.32</ele>
        <time>2016-10-07T13:22:28Z</time>
      </trkpt>
      <trkpt lat="44.54305" lon="8.98551">
        <ele>392.84</ele>
        <time>2016-10-07T13:22:29Z</time>
      </trkpt>
      <trkpt lat="44.54272" lon="8.98569">
        <ele>393.32</ele>
        <time>2016-10-07T13:22:40Z</time>
      </trkpt>
      <trkpt lat="44.54213" lon="8.98622">
        <ele>392.84</ele>
        <time>2016-10-07T13:22:56Z</time>
      </trkpt>
      <trkpt lat="44.54161" lon="8.98715">
        <ele>393.8</ele>
        <time>2016-10-07T13:23:13Z</time>
      </trkpt>
      <trkpt lat="44.54116" lon="8.98802">
        <ele>394.28</ele>
        <time>2016-10-07T13:23:28Z</time>
      </trkpt>
      <trkpt lat="44.5407" lon="8.98897">
        <ele>394.76</ele>
        <time>2016-10-07T13:23:44Z</time>
      </trkpt>
      <trkpt lat="44.54052" lon="8.98932">
        <ele>395.24</ele>
        <time>2016-10-07T13:23:50Z</time>
      </trkpt>
      <trkpt lat="44.54021" lon="8.98982">
        <ele>395.72</ele>
        <time>2016-10-07T13:23:59Z</time>
      </trkpt>
      <trkpt lat="44.53958" lon="8.99055">
        <ele>396.2</ele>
        <time>2016-10-07T13:24:15Z</time>
      </trkpt>
      <trkpt lat="44.53882" lon="8.99129">
        <ele>396.68</ele>
        <time>2016-10-07T13:24:33Z</time>
      </trkpt>
      <trkpt lat="44.53854" lon="8.99155">
        <ele>397.16</ele>
        <time>2016-10-07T13:24:43Z</time>
      </trkpt>
      <trkpt lat="44.53844" lon="8.99195">
        <ele>396.68</ele>
        <time>2016-10-07T13:24:51Z</time>
      </trkpt>
      <trkpt lat="44.53842" lon="8.99201">
        <ele>397.16</ele>
        <time>2016-10-07T13:24:52Z</time>
      </trkpt>
      <trkpt lat="44.53839" lon="8.99212">
        <ele>397.16</ele>
        <time>2016-10-07T13:24:54Z</time>
      </trkpt>
      <trkpt lat="44.53837" lon="8.99217">
        <ele>397.16</ele>
        <time>2016-10-07T13:24:55Z</time>
      </trkpt>
      <trkpt lat="44.53834" lon="8.99221">
        <ele>397.64</ele>
        <time>2016-10-07T13:24:56Z</time>
      </trkpt>
      <trkpt lat="44.53792" lon="8.99285">
        <ele>398.6</ele>
        <time>2016-10-07T13:25:11Z</time>
      </trkpt>
      <trkpt lat="44.53741" lon="8.99308">
        <ele>400.53</ele>
        <time>2016-10-07T13:25:26Z</time>
      </trkpt>
      <trkpt lat="44.53714" lon="8.99352">
        <ele>402.93</ele>
        <time>2016-10-07T13:25:40Z</time>
      </trkpt>
      <trkpt lat="44.53696" lon="8.99402">
        <ele>404.85</ele>
        <time>2016-10-07T13:25:57Z</time>
      </trkpt>
      <trkpt lat="44.53674" lon="8.9943">
        <ele>407.74</ele>
        <time>2016-10-07T13:26:13Z</time>
      </trkpt>
      <trkpt lat="44.53647" lon="8.99469">
        <ele>409.18</ele>
        <time>2016-10-07T13:26:30Z</time>
      </trkpt>
      <trkpt lat="44.53629" lon="8.99516">
        <ele>409.18</ele>
        <time>2016-10-07T13:26:41Z</time>
      </trkpt>
      <trkpt lat="44.53626" lon="8.99522">
        <ele>409.18</ele>
        <time>2016-10-07T13:26:42Z</time>
      </trkpt>
      <trkpt lat="44.53601" lon="8.99578">
        <ele>410.14</ele>
        <time>2016-10-07T13:26:52Z</time>
      </trkpt>
      <trkpt lat="44.536" lon="8.99585">
        <ele>409.66</ele>
        <time>2016-10-07T13:26:53Z</time>
      </trkpt>
      <trkpt lat="44.5359" lon="8.99644">
        <ele>410.62</ele>
        <time>2016-10-07T13:27:04Z</time>
      </trkpt>
      <trkpt lat="44.53575" lon="8.9968">
        <ele>410.14</ele>
        <time>2016-10-07T13:27:11Z</time>
      </trkpt>
      <trkpt lat="44.5356" lon="8.99711">
        <ele>410.14</ele>
        <time>2016-10-07T13:27:18Z</time>
      </trkpt>
      <trkpt lat="44.53557" lon="8.99716">
        <ele>410.62</ele>
        <time>2016-10-07T13:27:19Z</time>
      </trkpt>
      <trkpt lat="44.53554" lon="8.99721">
        <ele>410.62</ele>
        <time>2016-10-07T13:27:20Z</time>
      </trkpt>
      <trkpt lat="44.53552" lon="8.99725">
        <ele>410.62</ele>
        <time>2016-10-07T13:27:21Z</time>
      </trkpt>
      <trkpt lat="44.5355" lon="8.9973">
        <ele>410.62</ele>
        <time>2016-10-07T13:27:22Z</time>
      </trkpt>
      <trkpt lat="44.53547" lon="8.99735">
        <ele>410.62</ele>
        <time>2016-10-07T13:27:23Z</time>
      </trkpt>
      <trkpt lat="44.53536" lon="8.99754">
        <ele>411.58</ele>
        <time>2016-10-07T13:27:27Z</time>
      </trkpt>
      <trkpt lat="44.53533" lon="8.9976">
        <ele>411.1</ele>
        <time>2016-10-07T13:27:28Z</time>
      </trkpt>
      <trkpt lat="44.53514" lon="8.99798">
        <ele>410.62</ele>
        <time>2016-10-07T13:27:35Z</time>
      </trkpt>
      <trkpt lat="44.5351" lon="8.99803">
        <ele>411.1</ele>
        <time>2016-10-07T13:27:36Z</time>
      </trkpt>
      <trkpt lat="44.53498" lon="8.99832">
        <ele>411.1</ele>
        <time>2016-10-07T13:27:41Z</time>
      </trkpt>
      <trkpt lat="44.53496" lon="8.99838">
        <ele>411.1</ele>
        <time>2016-10-07T13:27:42Z</time>
      </trkpt>
      <trkpt lat="44.53494" lon="8.99851">
        <ele>411.58</ele>
        <time>2016-10-07T13:27:44Z</time>
      </trkpt>
      <trkpt lat="44.53493" lon="8.99857">
        <ele>411.58</ele>
        <time>2016-10-07T13:27:45Z</time>
      </trkpt>
      <trkpt lat="44.53493" lon="8.99864">
        <ele>412.06</ele>
        <time>2016-10-07T13:27:46Z</time>
      </trkpt>
      <trkpt lat="44.53494" lon="8.9987">
        <ele>411.58</ele>
        <time>2016-10-07T13:27:47Z</time>
      </trkpt>
      <trkpt lat="44.53496" lon="8.99877">
        <ele>411.1</ele>
        <time>2016-10-07T13:27:48Z</time>
      </trkpt>
      <trkpt lat="44.53497" lon="8.99883">
        <ele>411.58</ele>
        <time>2016-10-07T13:27:49Z</time>
      </trkpt>
      <trkpt lat="44.53517" lon="8.99965">
        <ele>412.06</ele>
        <time>2016-10-07T13:28:03Z</time>
      </trkpt>
      <trkpt lat="44.53522" lon="8.9999">
        <ele>412.54</ele>
        <time>2016-10-07T13:28:07Z</time>
      </trkpt>
      <trkpt lat="44.53522" lon="8.99996">
        <ele>412.54</ele>
        <time>2016-10-07T13:28:08Z</time>
      </trkpt>
      <trkpt lat="44.53521" lon="9.00002">
        <ele>412.06</ele>
        <time>2016-10-07T13:28:09Z</time>
      </trkpt>
      <trkpt lat="44.5352" lon="9.00008">
        <ele>412.54</ele>
        <time>2016-10-07T13:28:10Z</time>
      </trkpt>
      <trkpt lat="44.53519" lon="9.00015">
        <ele>412.54</ele>
        <time>2016-10-07T13:28:11Z</time>
      </trkpt>
      <trkpt lat="44.53483" lon="9.00129">
        <ele>413.98</ele>
        <time>2016-10-07T13:28:29Z</time>
      </trkpt>
      <trkpt lat="44.53454" lon="9.00213">
        <ele>414.95</ele>
        <time>2016-10-07T13:28:43Z</time>
      </trkpt>
      <trkpt lat="44.53452" lon="9.00219">
        <ele>415.43</ele>
        <time>2016-10-07T13:28:44Z</time>
      </trkpt>
      <trkpt lat="44.53443" lon="9.00244">
        <ele>415.91</ele>
        <time>2016-10-07T13:28:48Z</time>
      </trkpt>
      <trkpt lat="44.53431" lon="9.00321">
        <ele>415.91</ele>
        <time>2016-10-07T13:28:59Z</time>
      </trkpt>
      <trkpt lat="44.53431" lon="9.00329">
        <ele>416.39</ele>
        <time>2016-10-07T13:29:00Z</time>
      </trkpt>
      <trkpt lat="44.53434" lon="9.00388">
        <ele>415.43</ele>
        <time>2016-10-07T13:29:08Z</time>
      </trkpt>
      <trkpt lat="44.53433" lon="9.00396">
        <ele>415.43</ele>
        <time>2016-10-07T13:29:09Z</time>
      </trkpt>
      <trkpt lat="44.53431" lon="9.00411">
        <ele>415.91</ele>
        <time>2016-10-07T13:29:11Z</time>
      </trkpt>
      <trkpt lat="44.53428" lon="9.00417">
        <ele>416.39</ele>
        <time>2016-10-07T13:29:12Z</time>
      </trkpt>
      <trkpt lat="44.53392" lon="9.00505">
        <ele>415.91</ele>
        <time>2016-10-07T13:29:26Z</time>
      </trkpt>
      <trkpt lat="44.53346" lon="9.00582">
        <ele>417.35</ele>
        <time>2016-10-07T13:29:40Z</time>
      </trkpt>
      <trkpt lat="44.53289" lon="9.00659">
        <ele>416.87</ele>
        <time>2016-10-07T13:29:56Z</time>
      </trkpt>
      <trkpt lat="44.53225" lon="9.00708">
        <ele>417.83</ele>
        <time>2016-10-07T13:30:11Z</time>
      </trkpt>
      <trkpt lat="44.53219" lon="9.00717">
        <ele>418.31</ele>
        <time>2016-10-07T13:30:13Z</time>
      </trkpt>
      <trkpt lat="44.53209" lon="9.00736">
        <ele>417.83</ele>
        <time>2016-10-07T13:30:17Z</time>
      </trkpt>
      <trkpt lat="44.53205" lon="9.0074">
        <ele>417.35</ele>
        <time>2016-10-07T13:30:18Z</time>
      </trkpt>
      <trkpt lat="44.53202" lon="9.00743">
        <ele>417.83</ele>
        <time>2016-10-07T13:30:19Z</time>
      </trkpt>
      <trkpt lat="44.53189" lon="9.00757">
        <ele>417.83</ele>
        <time>2016-10-07T13:30:23Z</time>
      </trkpt>
      <trkpt lat="44.53188" lon="9.00762">
        <ele>417.83</ele>
        <time>2016-10-07T13:30:24Z</time>
      </trkpt>
      <trkpt lat="44.53188" lon="9.00768">
        <ele>417.83</ele>
        <time>2016-10-07T13:30:25Z</time>
      </trkpt>
      <trkpt lat="44.53189" lon="9.00774">
        <ele>417.83</ele>
        <time>2016-10-07T13:30:26Z</time>
      </trkpt>
      <trkpt lat="44.53191" lon="9.0078">
        <ele>418.31</ele>
        <time>2016-10-07T13:30:27Z</time>
      </trkpt>
      <trkpt lat="44.53192" lon="9.00786">
        <ele>417.83</ele>
        <time>2016-10-07T13:30:28Z</time>
      </trkpt>
      <trkpt lat="44.53194" lon="9.00791">
        <ele>418.31</ele>
        <time>2016-10-07T13:30:29Z</time>
      </trkpt>
      <trkpt lat="44.53227" lon="9.00888">
        <ele>417.83</ele>
        <time>2016-10-07T13:30:44Z</time>
      </trkpt>
      <trkpt lat="44.53263" lon="9.01002">
        <ele>418.31</ele>
        <time>2016-10-07T13:31:01Z</time>
      </trkpt>
      <trkpt lat="44.53265" lon="9.01009">
        <ele>417.35</ele>
        <time>2016-10-07T13:31:02Z</time>
      </trkpt>
      <trkpt lat="44.53266" lon="9.01016">
        <ele>417.83</ele>
        <time>2016-10-07T13:31:03Z</time>
      </trkpt>
      <trkpt lat="44.53266" lon="9.01024">
        <ele>417.83</ele>
        <time>2016-10-07T13:31:04Z</time>
      </trkpt>
      <trkpt lat="44.53266" lon="9.0103">
        <ele>417.35</ele>
        <time>2016-10-07T13:31:05Z</time>
      </trkpt>
      <trkpt lat="44.53266" lon="9.01036">
        <ele>417.35</ele>
        <time>2016-10-07T13:31:06Z</time>
      </trkpt>
      <trkpt lat="44.53253" lon="9.01121">
        <ele>416.87</ele>
        <time>2016-10-07T13:31:19Z</time>
      </trkpt>
      <trkpt lat="44.53252" lon="9.01128">
        <ele>415.91</ele>
        <time>2016-10-07T13:31:20Z</time>
      </trkpt>
      <trkpt lat="44.53248" lon="9.01173">
        <ele>416.39</ele>
        <time>2016-10-07T13:31:26Z</time>
      </trkpt>
      <trkpt lat="44.53249" lon="9.01181">
        <ele>416.39</ele>
        <time>2016-10-07T13:31:27Z</time>
      </trkpt>
      <trkpt lat="44.53251" lon="9.01188">
        <ele>415.91</ele>
        <time>2016-10-07T13:31:28Z</time>
      </trkpt>
      <trkpt lat="44.53272" lon="9.01265">
        <ele>416.39</ele>
        <time>2016-10-07T13:31:39Z</time>
      </trkpt>
      <trkpt lat="44.53272" lon="9.01271">
        <ele>416.39</ele>
        <time>2016-10-07T13:31:40Z</time>
      </trkpt>
      <trkpt lat="44.5327" lon="9.01278">
        <ele>416.87</ele>
        <time>2016-10-07T13:31:41Z</time>
      </trkpt>
      <trkpt lat="44.53268" lon="9.01283">
        <ele>416.39</ele>
        <time>2016-10-07T13:31:42Z</time>
      </trkpt>
      <trkpt lat="44.53265" lon="9.01289">
        <ele>415.91</ele>
        <time>2016-10-07T13:31:43Z</time>
      </trkpt>
      <trkpt lat="44.5326" lon="9.01293">
        <ele>416.39</ele>
        <time>2016-10-07T13:31:44Z</time>
      </trkpt>
      <trkpt lat="44.53257" lon="9.01297">
        <ele>416.39</ele>
        <time>2016-10-07T13:31:45Z</time>
      </trkpt>
      <trkpt lat="44.53253" lon="9.01301">
        <ele>416.87</ele>
        <time>2016-10-07T13:31:46Z</time>
      </trkpt>
      <trkpt lat="44.53249" lon="9.01304">
        <ele>417.83</ele>
        <time>2016-10-07T13:31:47Z</time>
      </trkpt>
      <trkpt lat="44.53203" lon="9.01343">
        <ele>415.91</ele>
        <time>2016-10-07T13:31:57Z</time>
      </trkpt>
      <trkpt lat="44.53198" lon="9.01344">
        <ele>414.95</ele>
        <time>2016-10-07T13:31:58Z</time>
      </trkpt>
      <trkpt lat="44.53194" lon="9.01344">
        <ele>415.43</ele>
        <time>2016-10-07T13:31:59Z</time>
      </trkpt>
      <trkpt lat="44.53188" lon="9.01343">
        <ele>414.95</ele>
        <time>2016-10-07T13:32:00Z</time>
      </trkpt>
      <trkpt lat="44.53183" lon="9.01341">
        <ele>414.47</ele>
        <time>2016-10-07T13:32:01Z</time>
      </trkpt>
      <trkpt lat="44.53177" lon="9.01338">
        <ele>413.98</ele>
        <time>2016-10-07T13:32:02Z</time>
      </trkpt>
      <trkpt lat="44.53083" lon="9.01319">
        <ele>414.95</ele>
        <time>2016-10-07T13:32:19Z</time>
      </trkpt>
      <trkpt lat="44.53042" lon="9.01308">
        <ele>413.98</ele>
        <time>2016-10-07T13:32:26Z</time>
      </trkpt>
      <trkpt lat="44.52965" lon="9.0126">
        <ele>414.47</ele>
        <time>2016-10-07T13:32:41Z</time>
      </trkpt>
      <trkpt lat="44.5296" lon="9.01259">
        <ele>414.95</ele>
        <time>2016-10-07T13:32:42Z</time>
      </trkpt>
      <trkpt lat="44.52925" lon="9.01255">
        <ele>414.95</ele>
        <time>2016-10-07T13:32:53Z</time>
      </trkpt>
      <trkpt lat="44.52902" lon="9.01247">
        <ele>414.47</ele>
        <time>2016-10-07T13:33:05Z</time>
      </trkpt>
      <trkpt lat="44.52853" lon="9.01231">
        <ele>414.95</ele>
        <time>2016-10-07T13:33:20Z</time>
      </trkpt>
      <trkpt lat="44.52837" lon="9.01232">
        <ele>413.98</ele>
        <time>2016-10-07T13:33:24Z</time>
      </trkpt>
      <trkpt lat="44.52829" lon="9.01235">
        <ele>413.98</ele>
        <time>2016-10-07T13:33:26Z</time>
      </trkpt>
      <trkpt lat="44.52761" lon="9.01282">
        <ele>414.47</ele>
        <time>2016-10-07T13:33:41Z</time>
      </trkpt>
      <trkpt lat="44.52725" lon="9.01318">
        <ele>413.5</ele>
        <time>2016-10-07T13:33:49Z</time>
      </trkpt>
      <trkpt lat="44.52698" lon="9.01348">
        <ele>413.98</ele>
        <time>2016-10-07T13:33:55Z</time>
      </trkpt>
      <trkpt lat="44.52693" lon="9.01349">
        <ele>413.02</ele>
        <time>2016-10-07T13:33:56Z</time>
      </trkpt>
      <trkpt lat="44.52687" lon="9.01349">
        <ele>413.98</ele>
        <time>2016-10-07T13:33:57Z</time>
      </trkpt>
      <trkpt lat="44.52682" lon="9.01347">
        <ele>414.47</ele>
        <time>2016-10-07T13:33:58Z</time>
      </trkpt>
      <trkpt lat="44.52677" lon="9.01343">
        <ele>413.98</ele>
        <time>2016-10-07T13:33:59Z</time>
      </trkpt>
      <trkpt lat="44.52673" lon="9.01338">
        <ele>414.47</ele>
        <time>2016-10-07T13:34:00Z</time>
      </trkpt>
      <trkpt lat="44.52663" lon="9.01329">
        <ele>415.43</ele>
        <time>2016-10-07T13:34:02Z</time>
      </trkpt>
      <trkpt lat="44.52623" lon="9.01295">
        <ele>413.98</ele>
        <time>2016-10-07T13:34:10Z</time>
      </trkpt>
      <trkpt lat="44.52617" lon="9.01292">
        <ele>413.98</ele>
        <time>2016-10-07T13:34:11Z</time>
      </trkpt>
      <trkpt lat="44.52612" lon="9.01291">
        <ele>413.98</ele>
        <time>2016-10-07T13:34:12Z</time>
      </trkpt>
      <trkpt lat="44.52607" lon="9.0129">
        <ele>414.47</ele>
        <time>2016-10-07T13:34:13Z</time>
      </trkpt>
      <trkpt lat="44.52601" lon="9.01291">
        <ele>414.47</ele>
        <time>2016-10-07T13:34:14Z</time>
      </trkpt>
      <trkpt lat="44.52596" lon="9.01292">
        <ele>414.47</ele>
        <time>2016-10-07T13:34:15Z</time>
      </trkpt>
      <trkpt lat="44.52591" lon="9.01294">
        <ele>414.95</ele>
        <time>2016-10-07T13:34:16Z</time>
      </trkpt>
      <trkpt lat="44.52586" lon="9.01296">
        <ele>415.43</ele>
        <time>2016-10-07T13:34:17Z</time>
      </trkpt>
      <trkpt lat="44.52577" lon="9.01301">
        <ele>413.98</ele>
        <time>2016-10-07T13:34:19Z</time>
      </trkpt>
      <trkpt lat="44.52573" lon="9.01305">
        <ele>414.47</ele>
        <time>2016-10-07T13:34:20Z</time>
      </trkpt>
      <trkpt lat="44.52517" lon="9.01381">
        <ele>415.91</ele>
        <time>2016-10-07T13:34:35Z</time>
      </trkpt>
      <trkpt lat="44.5247" lon="9.01448">
        <ele>416.39</ele>
        <time>2016-10-07T13:34:48Z</time>
      </trkpt>
      <trkpt lat="44.52401" lon="9.0152">
        <ele>416.87</ele>
        <time>2016-10-07T13:35:05Z</time>
      </trkpt>
      <trkpt lat="44.52298" lon="9.01581">
        <ele>417.35</ele>
        <time>2016-10-07T13:35:27Z</time>
      </trkpt>
      <trkpt lat="44.52239" lon="9.01638">
        <ele>418.79</ele>
        <time>2016-10-07T13:35:41Z</time>
      </trkpt>
      <trkpt lat="44.52206" lon="9.01681">
        <ele>418.31</ele>
        <time>2016-10-07T13:35:50Z</time>
      </trkpt>
      <trkpt lat="44.52144" lon="9.01773">
        <ele>419.75</ele>
        <time>2016-10-07T13:36:08Z</time>
      </trkpt>
      <trkpt lat="44.52085" lon="9.01831">
        <ele>421.19</ele>
        <time>2016-10-07T13:36:23Z</time>
      </trkpt>
      <trkpt lat="44.52004" lon="9.01899">
        <ele>422.64</ele>
        <time>2016-10-07T13:36:43Z</time>
      </trkpt>
      <trkpt lat="44.51998" lon="9.01908">
        <ele>422.64</ele>
        <time>2016-10-07T13:36:45Z</time>
      </trkpt>
      <trkpt lat="44.51984" lon="9.01932">
        <ele>423.12</ele>
        <time>2016-10-07T13:36:50Z</time>
      </trkpt>
      <trkpt lat="44.51936" lon="9.02002">
        <ele>424.08</ele>
        <time>2016-10-07T13:37:06Z</time>
      </trkpt>
      <trkpt lat="44.51902" lon="9.02032">
        <ele>424.56</ele>
        <time>2016-10-07T13:37:15Z</time>
      </trkpt>
      <trkpt lat="44.51845" lon="9.02076">
        <ele>425.04</ele>
        <time>2016-10-07T13:37:30Z</time>
      </trkpt>
      <trkpt lat="44.51794" lon="9.02108">
        <ele>425.52</ele>
        <time>2016-10-07T13:37:43Z</time>
      </trkpt>
      <trkpt lat="44.51736" lon="9.02177">
        <ele>426</ele>
        <time>2016-10-07T13:37:59Z</time>
      </trkpt>
      <trkpt lat="44.51732" lon="9.02181">
        <ele>426</ele>
        <time>2016-10-07T13:38:00Z</time>
      </trkpt>
      <trkpt lat="44.51728" lon="9.02186">
        <ele>425.52</ele>
        <time>2016-10-07T13:38:01Z</time>
      </trkpt>
      <trkpt lat="44.517" lon="9.02219">
        <ele>425.52</ele>
        <time>2016-10-07T13:38:08Z</time>
      </trkpt>
      <trkpt lat="44.51664" lon="9.02284">
        <ele>425.52</ele>
        <time>2016-10-07T13:38:19Z</time>
      </trkpt>
      <trkpt lat="44.51658" lon="9.02298">
        <ele>426</ele>
        <time>2016-10-07T13:38:21Z</time>
      </trkpt>
      <trkpt lat="44.51657" lon="9.02305">
        <ele>426</ele>
        <time>2016-10-07T13:38:22Z</time>
      </trkpt>
      <trkpt lat="44.51646" lon="9.02365">
        <ele>426</ele>
        <time>2016-10-07T13:38:30Z</time>
      </trkpt>
      <trkpt lat="44.51644" lon="9.02372">
        <ele>426.48</ele>
        <time>2016-10-07T13:38:31Z</time>
      </trkpt>
      <trkpt lat="44.51641" lon="9.02379">
        <ele>426</ele>
        <time>2016-10-07T13:38:32Z</time>
      </trkpt>
      <trkpt lat="44.51638" lon="9.02386">
        <ele>426.48</ele>
        <time>2016-10-07T13:38:33Z</time>
      </trkpt>
      <trkpt lat="44.51634" lon="9.02391">
        <ele>426</ele>
        <time>2016-10-07T13:38:34Z</time>
      </trkpt>
      <trkpt lat="44.5163" lon="9.02397">
        <ele>426.48</ele>
        <time>2016-10-07T13:38:35Z</time>
      </trkpt>
      <trkpt lat="44.51626" lon="9.02401">
        <ele>426</ele>
        <time>2016-10-07T13:38:36Z</time>
      </trkpt>
      <trkpt lat="44.51622" lon="9.02405">
        <ele>426</ele>
        <time>2016-10-07T13:38:37Z</time>
      </trkpt>
      <trkpt lat="44.51583" lon="9.02437">
        <ele>425.52</ele>
        <time>2016-10-07T13:38:45Z</time>
      </trkpt>
      <trkpt lat="44.5155" lon="9.02471">
        <ele>426.48</ele>
        <time>2016-10-07T13:38:52Z</time>
      </trkpt>
      <trkpt lat="44.51547" lon="9.02477">
        <ele>426.48</ele>
        <time>2016-10-07T13:38:53Z</time>
      </trkpt>
      <trkpt lat="44.51544" lon="9.02484">
        <ele>426</ele>
        <time>2016-10-07T13:38:54Z</time>
      </trkpt>
      <trkpt lat="44.51543" lon="9.02492">
        <ele>426</ele>
        <time>2016-10-07T13:38:55Z</time>
      </trkpt>
      <trkpt lat="44.51542" lon="9.02499">
        <ele>426.48</ele>
        <time>2016-10-07T13:38:56Z</time>
      </trkpt>
      <trkpt lat="44.51542" lon="9.02507">
        <ele>426</ele>
        <time>2016-10-07T13:38:57Z</time>
      </trkpt>
      <trkpt lat="44.51543" lon="9.02516">
        <ele>426</ele>
        <time>2016-10-07T13:38:58Z</time>
      </trkpt>
      <trkpt lat="44.5154" lon="9.02648">
        <ele>426.48</ele>
        <time>2016-10-07T13:39:14Z</time>
      </trkpt>
      <trkpt lat="44.51526" lon="9.02721">
        <ele>428.4</ele>
        <time>2016-10-07T13:39:25Z</time>
      </trkpt>
      <trkpt lat="44.51525" lon="9.02727">
        <ele>427.92</ele>
        <time>2016-10-07T13:39:26Z</time>
      </trkpt>
      <trkpt lat="44.51498" lon="9.02878">
        <ele>429.85</ele>
        <time>2016-10-07T13:39:51Z</time>
      </trkpt>
      <trkpt lat="44.51476" lon="9.03002">
        <ele>431.77</ele>
        <time>2016-10-07T13:40:12Z</time>
      </trkpt>
      <trkpt lat="44.51461" lon="9.03063">
        <ele>432.73</ele>
        <time>2016-10-07T13:40:25Z</time>
      </trkpt>
      <trkpt lat="44.5144" lon="9.03107">
        <ele>434.65</ele>
        <time>2016-10-07T13:40:37Z</time>
      </trkpt>
      <trkpt lat="44.51401" lon="9.03152">
        <ele>436.58</ele>
        <time>2016-10-07T13:40:52Z</time>
      </trkpt>
      <trkpt lat="44.51367" lon="9.03201">
        <ele>438.02</ele>
        <time>2016-10-07T13:41:07Z</time>
      </trkpt>
      <trkpt lat="44.51335" lon="9.0325">
        <ele>438.98</ele>
        <time>2016-10-07T13:41:22Z</time>
      </trkpt>
      <trkpt lat="44.51299" lon="9.03307">
        <ele>440.42</ele>
        <time>2016-10-07T13:41:39Z</time>
      </trkpt>
      <trkpt lat="44.51282" lon="9.03355">
        <ele>442.34</ele>
        <time>2016-10-07T13:41:52Z</time>
      </trkpt>
      <trkpt lat="44.51292" lon="9.03416">
        <ele>442.82</ele>
        <time>2016-10-07T13:42:07Z</time>
      </trkpt>
      <trkpt lat="44.51324" lon="9.03466">
        <ele>444.27</ele>
        <time>2016-10-07T13:42:22Z</time>
      </trkpt>
      <trkpt lat="44.51347" lon="9.03537">
        <ele>446.19</ele>
        <time>2016-10-07T13:42:39Z</time>
      </trkpt>
      <trkpt lat="44.51361" lon="9.03599">
        <ele>447.63</ele>
        <time>2016-10-07T13:42:53Z</time>
      </trkpt>
      <trkpt lat="44.51364" lon="9.0366">
        <ele>449.07</ele>
        <time>2016-10-07T13:43:08Z</time>
      </trkpt>
      <trkpt lat="44.51386" lon="9.03708">
        <ele>449.55</ele>
        <time>2016-10-07T13:43:21Z</time>
      </trkpt>
      <trkpt lat="44.514" lon="9.03775">
        <ele>451.48</ele>
        <time>2016-10-07T13:43:38Z</time>
      </trkpt>
      <trkpt lat="44.51377" lon="9.0382">
        <ele>453.4</ele>
        <time>2016-10-07T13:43:53Z</time>
      </trkpt>
      <trkpt lat="44.51338" lon="9.03831">
        <ele>454.84</ele>
        <time>2016-10-07T13:44:08Z</time>
      </trkpt>
      <trkpt lat="44.51285" lon="9.03806">
        <ele>455.32</ele>
        <time>2016-10-07T13:44:24Z</time>
      </trkpt>
      <trkpt lat="44.51261" lon="9.03835">
        <ele>454.36</ele>
        <time>2016-10-07T13:44:33Z</time>
      </trkpt>
      <trkpt lat="44.51259" lon="9.03841">
        <ele>454.36</ele>
        <time>2016-10-07T13:44:34Z</time>
      </trkpt>
      <trkpt lat="44.51258" lon="9.03847">
        <ele>454.84</ele>
        <time>2016-10-07T13:44:35Z</time>
      </trkpt>
      <trkpt lat="44.51258" lon="9.03854">
        <ele>454.84</ele>
        <time>2016-10-07T13:44:36Z</time>
      </trkpt>
      <trkpt lat="44.51258" lon="9.03861">
        <ele>454.36</ele>
        <time>2016-10-07T13:44:37Z</time>
      </trkpt>
      <trkpt lat="44.51259" lon="9.03868">
        <ele>455.32</ele>
        <time>2016-10-07T13:44:38Z</time>
      </trkpt>
      <trkpt lat="44.5126" lon="9.03876">
        <ele>454.84</ele>
        <time>2016-10-07T13:44:39Z</time>
      </trkpt>
      <trkpt lat="44.51262" lon="9.03883">
        <ele>453.88</ele>
        <time>2016-10-07T13:44:40Z</time>
      </trkpt>
      <trkpt lat="44.51264" lon="9.03891">
        <ele>453.4</ele>
        <time>2016-10-07T13:44:41Z</time>
      </trkpt>
      <trkpt lat="44.51267" lon="9.03898">
        <ele>452.44</ele>
        <time>2016-10-07T13:44:42Z</time>
      </trkpt>
      <trkpt lat="44.5127" lon="9.03906">
        <ele>452.44</ele>
        <time>2016-10-07T13:44:43Z</time>
      </trkpt>
      <trkpt lat="44.51306" lon="9.03958">
        <ele>448.59</ele>
        <time>2016-10-07T13:44:50Z</time>
      </trkpt>
      <trkpt lat="44.51311" lon="9.03968">
        <ele>449.07</ele>
        <time>2016-10-07T13:44:51Z</time>
      </trkpt>
      <trkpt lat="44.51315" lon="9.03978">
        <ele>448.11</ele>
        <time>2016-10-07T13:44:52Z</time>
      </trkpt>
      <trkpt lat="44.51318" lon="9.03989">
        <ele>447.15</ele>
        <time>2016-10-07T13:44:53Z</time>
      </trkpt>
      <trkpt lat="44.51321" lon="9.04001">
        <ele>447.15</ele>
        <time>2016-10-07T13:44:54Z</time>
      </trkpt>
      <trkpt lat="44.51324" lon="9.04011">
        <ele>445.71</ele>
        <time>2016-10-07T13:44:55Z</time>
      </trkpt>
      <trkpt lat="44.51328" lon="9.04022">
        <ele>446.19</ele>
        <time>2016-10-07T13:44:56Z</time>
      </trkpt>
      <trkpt lat="44.51344" lon="9.04079">
        <ele>445.71</ele>
        <time>2016-10-07T13:45:01Z</time>
      </trkpt>
      <trkpt lat="44.51345" lon="9.04091">
        <ele>444.27</ele>
        <time>2016-10-07T13:45:02Z</time>
      </trkpt>
      <trkpt lat="44.51343" lon="9.04104">
        <ele>444.75</ele>
        <time>2016-10-07T13:45:03Z</time>
      </trkpt>
      <trkpt lat="44.5134" lon="9.04116">
        <ele>443.79</ele>
        <time>2016-10-07T13:45:04Z</time>
      </trkpt>
      <trkpt lat="44.51337" lon="9.04129">
        <ele>443.79</ele>
        <time>2016-10-07T13:45:05Z</time>
      </trkpt>
      <trkpt lat="44.5133" lon="9.04153">
        <ele>441.86</ele>
        <time>2016-10-07T13:45:07Z</time>
      </trkpt>
      <trkpt lat="44.51329" lon="9.04166">
        <ele>441.38</ele>
        <time>2016-10-07T13:45:08Z</time>
      </trkpt>
      <trkpt lat="44.51329" lon="9.04177">
        <ele>440.9</ele>
        <time>2016-10-07T13:45:09Z</time>
      </trkpt>
      <trkpt lat="44.51331" lon="9.04189">
        <ele>440.9</ele>
        <time>2016-10-07T13:45:10Z</time>
      </trkpt>
      <trkpt lat="44.51334" lon="9.042">
        <ele>440.9</ele>
        <time>2016-10-07T13:45:11Z</time>
      </trkpt>
      <trkpt lat="44.51338" lon="9.0421">
        <ele>439.94</ele>
        <time>2016-10-07T13:45:12Z</time>
      </trkpt>
      <trkpt lat="44.51343" lon="9.0422">
        <ele>438.5</ele>
        <time>2016-10-07T13:45:13Z</time>
      </trkpt>
      <trkpt lat="44.51347" lon="9.04231">
        <ele>438.5</ele>
        <time>2016-10-07T13:45:14Z</time>
      </trkpt>
      <trkpt lat="44.51383" lon="9.04364">
        <ele>436.58</ele>
        <time>2016-10-07T13:45:26Z</time>
      </trkpt>
      <trkpt lat="44.51385" lon="9.04387">
        <ele>436.58</ele>
        <time>2016-10-07T13:45:28Z</time>
      </trkpt>
      <trkpt lat="44.51388" lon="9.04399">
        <ele>435.61</ele>
        <time>2016-10-07T13:45:29Z</time>
      </trkpt>
      <trkpt lat="44.51394" lon="9.04421">
        <ele>435.13</ele>
        <time>2016-10-07T13:45:31Z</time>
      </trkpt>
      <trkpt lat="44.51421" lon="9.04553">
        <ele>434.17</ele>
        <time>2016-10-07T13:45:43Z</time>
      </trkpt>
      <trkpt lat="44.5143" lon="9.04619">
        <ele>434.17</ele>
        <time>2016-10-07T13:45:50Z</time>
      </trkpt>
      <trkpt lat="44.51436" lon="9.04652">
        <ele>435.61</ele>
        <time>2016-10-07T13:45:54Z</time>
      </trkpt>
      <trkpt lat="44.51457" lon="9.04736">
        <ele>436.1</ele>
        <time>2016-10-07T13:46:06Z</time>
      </trkpt>
      <trkpt lat="44.51473" lon="9.04785">
        <ele>438.02</ele>
        <time>2016-10-07T13:46:14Z</time>
      </trkpt>
      <trkpt lat="44.51475" lon="9.0479">
        <ele>437.54</ele>
        <time>2016-10-07T13:46:15Z</time>
      </trkpt>
      <trkpt lat="44.51478" lon="9.04794">
        <ele>438.02</ele>
        <time>2016-10-07T13:46:16Z</time>
      </trkpt>
      <trkpt lat="44.51481" lon="9.04799">
        <ele>437.54</ele>
        <time>2016-10-07T13:46:17Z</time>
      </trkpt>
      <trkpt lat="44.51484" lon="9.04803">
        <ele>437.54</ele>
        <time>2016-10-07T13:46:18Z</time>
      </trkpt>
      <trkpt lat="44.51487" lon="9.04805">
        <ele>438.5</ele>
        <time>2016-10-07T13:46:19Z</time>
      </trkpt>
      <trkpt lat="44.5149" lon="9.04806">
        <ele>437.54</ele>
        <time>2016-10-07T13:46:20Z</time>
      </trkpt>
      <trkpt lat="44.51494" lon="9.04807">
        <ele>438.02</ele>
        <time>2016-10-07T13:46:21Z</time>
      </trkpt>
      <trkpt lat="44.51499" lon="9.04808">
        <ele>437.54</ele>
        <time>2016-10-07T13:46:22Z</time>
      </trkpt>
      <trkpt lat="44.51504" lon="9.04808">
        <ele>437.54</ele>
        <time>2016-10-07T13:46:23Z</time>
      </trkpt>
      <trkpt lat="44.51509" lon="9.04807">
        <ele>438.02</ele>
        <time>2016-10-07T13:46:24Z</time>
      </trkpt>
      <trkpt lat="44.51514" lon="9.04805">
        <ele>438.02</ele>
        <time>2016-10-07T13:46:25Z</time>
      </trkpt>
      <trkpt lat="44.5152" lon="9.04802">
        <ele>438.5</ele>
        <time>2016-10-07T13:46:26Z</time>
      </trkpt>
      <trkpt lat="44.51611" lon="9.0477">
        <ele>438.02</ele>
        <time>2016-10-07T13:46:43Z</time>
      </trkpt>
      <trkpt lat="44.51622" lon="9.04768">
        <ele>438.02</ele>
        <time>2016-10-07T13:46:45Z</time>
      </trkpt>
      <trkpt lat="44.51627" lon="9.0477">
        <ele>438.02</ele>
        <time>2016-10-07T13:46:46Z</time>
      </trkpt>
      <trkpt lat="44.51632" lon="9.04772">
        <ele>438.02</ele>
        <time>2016-10-07T13:46:47Z</time>
      </trkpt>
      <trkpt lat="44.51636" lon="9.04775">
        <ele>438.02</ele>
        <time>2016-10-07T13:46:48Z</time>
      </trkpt>
      <trkpt lat="44.51641" lon="9.04778">
        <ele>438.02</ele>
        <time>2016-10-07T13:46:49Z</time>
      </trkpt>
      <trkpt lat="44.51655" lon="9.04794">
        <ele>438.02</ele>
        <time>2016-10-07T13:46:53Z</time>
      </trkpt>
      <trkpt lat="44.51658" lon="9.048">
        <ele>437.54</ele>
        <time>2016-10-07T13:46:54Z</time>
      </trkpt>
      <trkpt lat="44.51661" lon="9.04805">
        <ele>438.02</ele>
        <time>2016-10-07T13:46:55Z</time>
      </trkpt>
      <trkpt lat="44.51664" lon="9.04811">
        <ele>438.5</ele>
        <time>2016-10-07T13:46:56Z</time>
      </trkpt>
      <trkpt lat="44.51667" lon="9.04818">
        <ele>438.5</ele>
        <time>2016-10-07T13:46:57Z</time>
      </trkpt>
      <trkpt lat="44.51679" lon="9.04863">
        <ele>439.46</ele>
        <time>2016-10-07T13:47:04Z</time>
      </trkpt>
      <trkpt lat="44.51681" lon="9.04869">
        <ele>438.98</ele>
        <time>2016-10-07T13:47:05Z</time>
      </trkpt>
      <trkpt lat="44.51685" lon="9.0488">
        <ele>439.94</ele>
        <time>2016-10-07T13:47:07Z</time>
      </trkpt>
      <trkpt lat="44.5169" lon="9.04892">
        <ele>439.94</ele>
        <time>2016-10-07T13:47:09Z</time>
      </trkpt>
      <trkpt lat="44.51715" lon="9.04935">
        <ele>440.42</ele>
        <time>2016-10-07T13:47:18Z</time>
      </trkpt>
      <trkpt lat="44.51738" lon="9.0496">
        <ele>439.94</ele>
        <time>2016-10-07T13:47:25Z</time>
      </trkpt>
      <trkpt lat="44.51742" lon="9.04964">
        <ele>440.42</ele>
        <time>2016-10-07T13:47:26Z</time>
      </trkpt>
      <trkpt lat="44.51745" lon="9.04967">
        <ele>440.42</ele>
        <time>2016-10-07T13:47:27Z</time>
      </trkpt>
      <trkpt lat="44.51747" lon="9.04971">
        <ele>440.42</ele>
        <time>2016-10-07T13:47:28Z</time>
      </trkpt>
      <trkpt lat="44.51749" lon="9.04976">
        <ele>440.42</ele>
        <time>2016-10-07T13:47:29Z</time>
      </trkpt>
      <trkpt lat="44.51751" lon="9.04982">
        <ele>440.42</ele>
        <time>2016-10-07T13:47:30Z</time>
      </trkpt>
      <trkpt lat="44.51751" lon="9.04988">
        <ele>440.42</ele>
        <time>2016-10-07T13:47:31Z</time>
      </trkpt>
      <trkpt lat="44.51752" lon="9.04994">
        <ele>440.9</ele>
        <time>2016-10-07T13:47:32Z</time>
      </trkpt>
      <trkpt lat="44.51753" lon="9.04999">
        <ele>441.38</ele>
        <time>2016-10-07T13:47:33Z</time>
      </trkpt>
      <trkpt lat="44.51754" lon="9.05029">
        <ele>440.42</ele>
        <time>2016-10-07T13:47:38Z</time>
      </trkpt>
      <trkpt lat="44.51753" lon="9.05058">
        <ele>441.38</ele>
        <time>2016-10-07T13:47:43Z</time>
      </trkpt>
      <trkpt lat="44.51752" lon="9.051">
        <ele>441.38</ele>
        <time>2016-10-07T13:47:50Z</time>
      </trkpt>
      <trkpt lat="44.51753" lon="9.05106">
        <ele>441.38</ele>
        <time>2016-10-07T13:47:51Z</time>
      </trkpt>
      <trkpt lat="44.51761" lon="9.05167">
        <ele>442.82</ele>
        <time>2016-10-07T13:48:01Z</time>
      </trkpt>
      <trkpt lat="44.51764" lon="9.05178">
        <ele>442.34</ele>
        <time>2016-10-07T13:48:03Z</time>
      </trkpt>
      <trkpt lat="44.51766" lon="9.05184">
        <ele>441.86</ele>
        <time>2016-10-07T13:48:04Z</time>
      </trkpt>
      <trkpt lat="44.51794" lon="9.05229">
        <ele>442.82</ele>
        <time>2016-10-07T13:48:13Z</time>
      </trkpt>
      <trkpt lat="44.51807" lon="9.05257">
        <ele>442.82</ele>
        <time>2016-10-07T13:48:18Z</time>
      </trkpt>
      <trkpt lat="44.5181" lon="9.05263">
        <ele>442.34</ele>
        <time>2016-10-07T13:48:19Z</time>
      </trkpt>
      <trkpt lat="44.51812" lon="9.05269">
        <ele>442.34</ele>
        <time>2016-10-07T13:48:20Z</time>
      </trkpt>
      <trkpt lat="44.51815" lon="9.05275">
        <ele>442.82</ele>
        <time>2016-10-07T13:48:21Z</time>
      </trkpt>
      <trkpt lat="44.51818" lon="9.0528">
        <ele>442.82</ele>
        <time>2016-10-07T13:48:22Z</time>
      </trkpt>
      <trkpt lat="44.51837" lon="9.05333">
        <ele>442.82</ele>
        <time>2016-10-07T13:48:31Z</time>
      </trkpt>
      <trkpt lat="44.5184" lon="9.05358">
        <ele>443.79</ele>
        <time>2016-10-07T13:48:35Z</time>
      </trkpt>
      <trkpt lat="44.51842" lon="9.05384">
        <ele>444.75</ele>
        <time>2016-10-07T13:48:39Z</time>
      </trkpt>
      <trkpt lat="44.51845" lon="9.05395">
        <ele>443.31</ele>
        <time>2016-10-07T13:48:41Z</time>
      </trkpt>
      <trkpt lat="44.51847" lon="9.054">
        <ele>443.79</ele>
        <time>2016-10-07T13:48:42Z</time>
      </trkpt>
      <trkpt lat="44.51854" lon="9.05417">
        <ele>444.27</ele>
        <time>2016-10-07T13:48:45Z</time>
      </trkpt>
      <trkpt lat="44.51882" lon="9.05466">
        <ele>444.27</ele>
        <time>2016-10-07T13:48:55Z</time>
      </trkpt>
      <trkpt lat="44.51906" lon="9.05512">
        <ele>444.75</ele>
        <time>2016-10-07T13:49:04Z</time>
      </trkpt>
      <trkpt lat="44.51923" lon="9.0559">
        <ele>445.23</ele>
        <time>2016-10-07T13:49:17Z</time>
      </trkpt>
      <trkpt lat="44.51924" lon="9.0562">
        <ele>445.71</ele>
        <time>2016-10-07T13:49:22Z</time>
      </trkpt>
      <trkpt lat="44.51923" lon="9.05626">
        <ele>445.71</ele>
        <time>2016-10-07T13:49:23Z</time>
      </trkpt>
      <trkpt lat="44.51921" lon="9.05631">
        <ele>445.71</ele>
        <time>2016-10-07T13:49:24Z</time>
      </trkpt>
      <trkpt lat="44.51918" lon="9.05635">
        <ele>444.75</ele>
        <time>2016-10-07T13:49:25Z</time>
      </trkpt>
      <trkpt lat="44.51914" lon="9.05638">
        <ele>444.75</ele>
        <time>2016-10-07T13:49:26Z</time>
      </trkpt>
      <trkpt lat="44.5191" lon="9.0564">
        <ele>445.23</ele>
        <time>2016-10-07T13:49:27Z</time>
      </trkpt>
      <trkpt lat="44.51905" lon="9.05642">
        <ele>445.71</ele>
        <time>2016-10-07T13:49:28Z</time>
      </trkpt>
      <trkpt lat="44.519" lon="9.05643">
        <ele>445.71</ele>
        <time>2016-10-07T13:49:29Z</time>
      </trkpt>
      <trkpt lat="44.51894" lon="9.05644">
        <ele>445.23</ele>
        <time>2016-10-07T13:49:30Z</time>
      </trkpt>
      <trkpt lat="44.51868" lon="9.05648">
        <ele>445.71</ele>
        <time>2016-10-07T13:49:35Z</time>
      </trkpt>
      <trkpt lat="44.51862" lon="9.05649">
        <ele>446.19</ele>
        <time>2016-10-07T13:49:36Z</time>
      </trkpt>
      <trkpt lat="44.5177" lon="9.05665">
        <ele>445.71</ele>
        <time>2016-10-07T13:49:55Z</time>
      </trkpt>
      <trkpt lat="44.5175" lon="9.05671">
        <ele>444.75</ele>
        <time>2016-10-07T13:49:59Z</time>
      </trkpt>
      <trkpt lat="44.51742" lon="9.05677">
        <ele>445.71</ele>
        <time>2016-10-07T13:50:01Z</time>
      </trkpt>
      <trkpt lat="44.51739" lon="9.05681">
        <ele>445.23</ele>
        <time>2016-10-07T13:50:02Z</time>
      </trkpt>
      <trkpt lat="44.51732" lon="9.05691">
        <ele>445.71</ele>
        <time>2016-10-07T13:50:04Z</time>
      </trkpt>
      <trkpt lat="44.5173" lon="9.05697">
        <ele>446.19</ele>
        <time>2016-10-07T13:50:05Z</time>
      </trkpt>
      <trkpt lat="44.51728" lon="9.05703">
        <ele>446.19</ele>
        <time>2016-10-07T13:50:06Z</time>
      </trkpt>
      <trkpt lat="44.51727" lon="9.05709">
        <ele>446.19</ele>
        <time>2016-10-07T13:50:07Z</time>
      </trkpt>
      <trkpt lat="44.51726" lon="9.05714">
        <ele>445.71</ele>
        <time>2016-10-07T13:50:08Z</time>
      </trkpt>
      <trkpt lat="44.51722" lon="9.05731">
        <ele>447.15</ele>
        <time>2016-10-07T13:50:12Z</time>
      </trkpt>
      <trkpt lat="44.51721" lon="9.05734">
        <ele>446.67</ele>
        <time>2016-10-07T13:50:13Z</time>
      </trkpt>
      <trkpt lat="44.51719" lon="9.05738">
        <ele>447.15</ele>
        <time>2016-10-07T13:50:14Z</time>
      </trkpt>
      <trkpt lat="44.51707" lon="9.05777">
        <ele>448.59</ele>
        <time>2016-10-07T13:50:25Z</time>
      </trkpt>
      <trkpt lat="44.51692" lon="9.05806">
        <ele>450.03</ele>
        <time>2016-10-07T13:50:36Z</time>
      </trkpt>
      <trkpt lat="44.51672" lon="9.05855">
        <ele>451.48</ele>
        <time>2016-10-07T13:50:52Z</time>
      </trkpt>
      <trkpt lat="44.51654" lon="9.059">
        <ele>452.44</ele>
        <time>2016-10-07T13:51:08Z</time>
      </trkpt>
      <trkpt lat="44.51634" lon="9.05952">
        <ele>454.84</ele>
        <time>2016-10-07T13:51:25Z</time>
      </trkpt>
      <trkpt lat="44.5161" lon="9.05993">
        <ele>455.8</ele>
        <time>2016-10-07T13:51:40Z</time>
      </trkpt>
      <trkpt lat="44.51576" lon="9.06023">
        <ele>457.72</ele>
        <time>2016-10-07T13:51:56Z</time>
      </trkpt>
      <trkpt lat="44.51554" lon="9.06073">
        <ele>458.69</ele>
        <time>2016-10-07T13:52:12Z</time>
      </trkpt>
      <trkpt lat="44.51538" lon="9.06116">
        <ele>459.65</ele>
        <time>2016-10-07T13:52:23Z</time>
      </trkpt>
      <trkpt lat="44.5153" lon="9.06185">
        <ele>461.09</ele>
        <time>2016-10-07T13:52:37Z</time>
      </trkpt>
      <trkpt lat="44.51519" lon="9.06252">
        <ele>462.53</ele>
        <time>2016-10-07T13:52:51Z</time>
      </trkpt>
      <trkpt lat="44.51521" lon="9.06279">
        <ele>463.01</ele>
        <time>2016-10-07T13:53:01Z</time>
      </trkpt>
      <trkpt lat="44.51524" lon="9.06282">
        <ele>462.05</ele>
        <time>2016-10-07T13:53:26Z</time>
      </trkpt>
      <trkpt lat="44.51525" lon="9.06284">
        <ele>462.53</ele>
        <time>2016-10-07T13:54:02Z</time>
      </trkpt>
      <trkpt lat="44.51526" lon="9.0627">
        <ele>463.49</ele>
        <time>2016-10-07T13:54:41Z</time>
      </trkpt>
      <trkpt lat="44.51528" lon="9.06279">
        <ele>463.01</ele>
        <time>2016-10-07T13:55:16Z</time>
      </trkpt>
      <trkpt lat="44.51527" lon="9.0628">
        <ele>462.53</ele>
        <time>2016-10-07T13:55:32Z</time>
      </trkpt>
      <trkpt lat="44.5152" lon="9.06291">
        <ele>462.53</ele>
        <time>2016-10-07T13:55:43Z</time>
      </trkpt>
      <trkpt lat="44.51519" lon="9.06293">
        <ele>462.53</ele>
        <time>2016-10-07T13:55:44Z</time>
      </trkpt>
      <trkpt lat="44.51518" lon="9.06296">
        <ele>462.53</ele>
        <time>2016-10-07T13:55:45Z</time>
      </trkpt>
      <trkpt lat="44.51518" lon="9.06299">
        <ele>462.53</ele>
        <time>2016-10-07T13:55:46Z</time>
      </trkpt>
      <trkpt lat="44.51517" lon="9.06302">
        <ele>463.01</ele>
        <time>2016-10-07T13:55:47Z</time>
      </trkpt>
      <trkpt lat="44.5151" lon="9.06341">
        <ele>463.49</ele>
        <time>2016-10-07T13:56:00Z</time>
      </trkpt>
      <trkpt lat="44.51499" lon="9.06409">
        <ele>464.93</ele>
        <time>2016-10-07T13:56:16Z</time>
      </trkpt>
      <trkpt lat="44.51489" lon="9.06454">
        <ele>464.45</ele>
        <time>2016-10-07T13:56:31Z</time>
      </trkpt>
      <trkpt lat="44.51468" lon="9.06507">
        <ele>465.42</ele>
        <time>2016-10-07T13:56:45Z</time>
      </trkpt>
      <trkpt lat="44.51451" lon="9.06569">
        <ele>465.9</ele>
        <time>2016-10-07T13:56:58Z</time>
      </trkpt>
      <trkpt lat="44.51441" lon="9.06592">
        <ele>465.9</ele>
        <time>2016-10-07T13:57:03Z</time>
      </trkpt>
      <trkpt lat="44.51437" lon="9.06596">
        <ele>465.9</ele>
        <time>2016-10-07T13:57:04Z</time>
      </trkpt>
      <trkpt lat="44.51434" lon="9.06599">
        <ele>465.9</ele>
        <time>2016-10-07T13:57:05Z</time>
      </trkpt>
      <trkpt lat="44.51412" lon="9.06612">
        <ele>465.9</ele>
        <time>2016-10-07T13:57:11Z</time>
      </trkpt>
      <trkpt lat="44.51344" lon="9.066">
        <ele>466.86</ele>
        <time>2016-10-07T13:57:28Z</time>
      </trkpt>
      <trkpt lat="44.51282" lon="9.06582">
        <ele>467.34</ele>
        <time>2016-10-07T13:57:44Z</time>
      </trkpt>
      <trkpt lat="44.51241" lon="9.06601">
        <ele>468.3</ele>
        <time>2016-10-07T13:57:56Z</time>
      </trkpt>
      <trkpt lat="44.51228" lon="9.06623">
        <ele>469.26</ele>
        <time>2016-10-07T13:58:01Z</time>
      </trkpt>
      <trkpt lat="44.51217" lon="9.06658">
        <ele>469.26</ele>
        <time>2016-10-07T13:58:08Z</time>
      </trkpt>
      <trkpt lat="44.51215" lon="9.06664">
        <ele>468.78</ele>
        <time>2016-10-07T13:58:09Z</time>
      </trkpt>
      <trkpt lat="44.51201" lon="9.0671">
        <ele>468.78</ele>
        <time>2016-10-07T13:58:17Z</time>
      </trkpt>
      <trkpt lat="44.51198" lon="9.06734">
        <ele>470.22</ele>
        <time>2016-10-07T13:58:21Z</time>
      </trkpt>
      <trkpt lat="44.51198" lon="9.0674">
        <ele>469.74</ele>
        <time>2016-10-07T13:58:22Z</time>
      </trkpt>
      <trkpt lat="44.51199" lon="9.06746">
        <ele>469.74</ele>
        <time>2016-10-07T13:58:23Z</time>
      </trkpt>
      <trkpt lat="44.51202" lon="9.06764">
        <ele>469.74</ele>
        <time>2016-10-07T13:58:26Z</time>
      </trkpt>
      <trkpt lat="44.51223" lon="9.06832">
        <ele>470.22</ele>
        <time>2016-10-07T13:58:38Z</time>
      </trkpt>
      <trkpt lat="44.51224" lon="9.06838">
        <ele>470.22</ele>
        <time>2016-10-07T13:58:39Z</time>
      </trkpt>
      <trkpt lat="44.51229" lon="9.06855">
        <ele>470.7</ele>
        <time>2016-10-07T13:58:42Z</time>
      </trkpt>
      <trkpt lat="44.5123" lon="9.06861">
        <ele>470.7</ele>
        <time>2016-10-07T13:58:43Z</time>
      </trkpt>
      <trkpt lat="44.51233" lon="9.06873">
        <ele>471.18</ele>
        <time>2016-10-07T13:58:45Z</time>
      </trkpt>
      <trkpt lat="44.51254" lon="9.06971">
        <ele>470.7</ele>
        <time>2016-10-07T13:59:01Z</time>
      </trkpt>
      <trkpt lat="44.51257" lon="9.07061">
        <ele>471.18</ele>
        <time>2016-10-07T13:59:14Z</time>
      </trkpt>
      <trkpt lat="44.51256" lon="9.07082">
        <ele>471.66</ele>
        <time>2016-10-07T13:59:17Z</time>
      </trkpt>
      <trkpt lat="44.51256" lon="9.07089">
        <ele>471.66</ele>
        <time>2016-10-07T13:59:18Z</time>
      </trkpt>
      <trkpt lat="44.51253" lon="9.07124">
        <ele>471.18</ele>
        <time>2016-10-07T13:59:23Z</time>
      </trkpt>
      <trkpt lat="44.5125" lon="9.07138">
        <ele>471.66</ele>
        <time>2016-10-07T13:59:25Z</time>
      </trkpt>
      <trkpt lat="44.51235" lon="9.07179">
        <ele>472.14</ele>
        <time>2016-10-07T13:59:31Z</time>
      </trkpt>
      <trkpt lat="44.51233" lon="9.07185">
        <ele>471.66</ele>
        <time>2016-10-07T13:59:32Z</time>
      </trkpt>
      <trkpt lat="44.5123" lon="9.07199">
        <ele>472.14</ele>
        <time>2016-10-07T13:59:34Z</time>
      </trkpt>
      <trkpt lat="44.51228" lon="9.07213">
        <ele>472.14</ele>
        <time>2016-10-07T13:59:36Z</time>
      </trkpt>
      <trkpt lat="44.51228" lon="9.0722">
        <ele>472.14</ele>
        <time>2016-10-07T13:59:37Z</time>
      </trkpt>
      <trkpt lat="44.51229" lon="9.07227">
        <ele>473.11</ele>
        <time>2016-10-07T13:59:38Z</time>
      </trkpt>
      <trkpt lat="44.51231" lon="9.07234">
        <ele>472.14</ele>
        <time>2016-10-07T13:59:39Z</time>
      </trkpt>
      <trkpt lat="44.51233" lon="9.0724">
        <ele>472.14</ele>
        <time>2016-10-07T13:59:40Z</time>
      </trkpt>
      <trkpt lat="44.51235" lon="9.07246">
        <ele>471.66</ele>
        <time>2016-10-07T13:59:41Z</time>
      </trkpt>
      <trkpt lat="44.51237" lon="9.07253">
        <ele>472.63</ele>
        <time>2016-10-07T13:59:42Z</time>
      </trkpt>
      <trkpt lat="44.51241" lon="9.07259">
        <ele>472.14</ele>
        <time>2016-10-07T13:59:43Z</time>
      </trkpt>
      <trkpt lat="44.51244" lon="9.07265">
        <ele>472.14</ele>
        <time>2016-10-07T13:59:44Z</time>
      </trkpt>
      <trkpt lat="44.51248" lon="9.07271">
        <ele>472.14</ele>
        <time>2016-10-07T13:59:45Z</time>
      </trkpt>
      <trkpt lat="44.51259" lon="9.07288">
        <ele>472.14</ele>
        <time>2016-10-07T13:59:48Z</time>
      </trkpt>
      <trkpt lat="44.51262" lon="9.07294">
        <ele>472.14</ele>
        <time>2016-10-07T13:59:49Z</time>
      </trkpt>
      <trkpt lat="44.51265" lon="9.073">
        <ele>471.66</ele>
        <time>2016-10-07T13:59:50Z</time>
      </trkpt>
      <trkpt lat="44.51277" lon="9.07343">
        <ele>472.14</ele>
        <time>2016-10-07T13:59:56Z</time>
      </trkpt>
      <trkpt lat="44.51277" lon="9.0735">
        <ele>472.63</ele>
        <time>2016-10-07T13:59:57Z</time>
      </trkpt>
      <trkpt lat="44.51277" lon="9.07358">
        <ele>472.63</ele>
        <time>2016-10-07T13:59:58Z</time>
      </trkpt>
      <trkpt lat="44.51275" lon="9.07396">
        <ele>472.63</ele>
        <time>2016-10-07T14:00:03Z</time>
      </trkpt>
      <trkpt lat="44.51273" lon="9.07403">
        <ele>472.14</ele>
        <time>2016-10-07T14:00:04Z</time>
      </trkpt>
      <trkpt lat="44.51264" lon="9.07445">
        <ele>472.63</ele>
        <time>2016-10-07T14:00:10Z</time>
      </trkpt>
      <trkpt lat="44.5124" lon="9.07521">
        <ele>473.59</ele>
        <time>2016-10-07T14:00:22Z</time>
      </trkpt>
      <trkpt lat="44.51238" lon="9.07527">
        <ele>473.59</ele>
        <time>2016-10-07T14:00:23Z</time>
      </trkpt>
      <trkpt lat="44.51216" lon="9.07606">
        <ele>475.03</ele>
        <time>2016-10-07T14:00:37Z</time>
      </trkpt>
      <trkpt lat="44.51209" lon="9.07634">
        <ele>475.03</ele>
        <time>2016-10-07T14:00:42Z</time>
      </trkpt>
      <trkpt lat="44.51182" lon="9.07699">
        <ele>476.47</ele>
        <time>2016-10-07T14:00:56Z</time>
      </trkpt>
      <trkpt lat="44.51154" lon="9.07743">
        <ele>476.95</ele>
        <time>2016-10-07T14:01:07Z</time>
      </trkpt>
      <trkpt lat="44.51127" lon="9.0781">
        <ele>478.39</ele>
        <time>2016-10-07T14:01:21Z</time>
      </trkpt>
      <trkpt lat="44.51106" lon="9.07853">
        <ele>478.87</ele>
        <time>2016-10-07T14:01:31Z</time>
      </trkpt>
      <trkpt lat="44.5108" lon="9.07916">
        <ele>480.32</ele>
        <time>2016-10-07T14:01:45Z</time>
      </trkpt>
      <trkpt lat="44.51075" lon="9.07931">
        <ele>480.32</ele>
        <time>2016-10-07T14:01:48Z</time>
      </trkpt>
      <trkpt lat="44.5107" lon="9.08003">
        <ele>479.84</ele>
        <time>2016-10-07T14:02:00Z</time>
      </trkpt>
      <trkpt lat="44.51068" lon="9.08009">
        <ele>479.84</ele>
        <time>2016-10-07T14:02:01Z</time>
      </trkpt>
      <trkpt lat="44.51066" lon="9.08014">
        <ele>479.35</ele>
        <time>2016-10-07T14:02:02Z</time>
      </trkpt>
      <trkpt lat="44.51063" lon="9.08018">
        <ele>479.84</ele>
        <time>2016-10-07T14:02:03Z</time>
      </trkpt>
      <trkpt lat="44.51059" lon="9.08023">
        <ele>480.32</ele>
        <time>2016-10-07T14:02:04Z</time>
      </trkpt>
      <trkpt lat="44.51055" lon="9.08027">
        <ele>480.32</ele>
        <time>2016-10-07T14:02:05Z</time>
      </trkpt>
      <trkpt lat="44.51051" lon="9.0803">
        <ele>480.32</ele>
        <time>2016-10-07T14:02:06Z</time>
      </trkpt>
      <trkpt lat="44.51033" lon="9.08049">
        <ele>480.32</ele>
        <time>2016-10-07T14:02:11Z</time>
      </trkpt>
      <trkpt lat="44.5102" lon="9.08069">
        <ele>480.32</ele>
        <time>2016-10-07T14:02:15Z</time>
      </trkpt>
      <trkpt lat="44.51017" lon="9.08074">
        <ele>480.32</ele>
        <time>2016-10-07T14:02:16Z</time>
      </trkpt>
      <trkpt lat="44.51014" lon="9.0808">
        <ele>480.32</ele>
        <time>2016-10-07T14:02:17Z</time>
      </trkpt>
      <trkpt lat="44.50987" lon="9.08129">
        <ele>480.32</ele>
        <time>2016-10-07T14:02:27Z</time>
      </trkpt>
      <trkpt lat="44.50985" lon="9.08134">
        <ele>480.8</ele>
        <time>2016-10-07T14:02:28Z</time>
      </trkpt>
      <trkpt lat="44.50983" lon="9.0814">
        <ele>481.28</ele>
        <time>2016-10-07T14:02:29Z</time>
      </trkpt>
      <trkpt lat="44.50981" lon="9.08146">
        <ele>481.28</ele>
        <time>2016-10-07T14:02:30Z</time>
      </trkpt>
      <trkpt lat="44.50979" lon="9.08152">
        <ele>481.28</ele>
        <time>2016-10-07T14:02:31Z</time>
      </trkpt>
      <trkpt lat="44.50966" lon="9.08227">
        <ele>481.28</ele>
        <time>2016-10-07T14:02:44Z</time>
      </trkpt>
      <trkpt lat="44.50962" lon="9.08261">
        <ele>482.24</ele>
        <time>2016-10-07T14:02:50Z</time>
      </trkpt>
      <trkpt lat="44.5096" lon="9.08266">
        <ele>482.24</ele>
        <time>2016-10-07T14:02:51Z</time>
      </trkpt>
      <trkpt lat="44.50957" lon="9.08271">
        <ele>482.24</ele>
        <time>2016-10-07T14:02:52Z</time>
      </trkpt>
      <trkpt lat="44.5093" lon="9.08336">
        <ele>483.68</ele>
        <time>2016-10-07T14:03:06Z</time>
      </trkpt>
      <trkpt lat="44.50949" lon="9.08392">
        <ele>484.64</ele>
        <time>2016-10-07T14:03:18Z</time>
      </trkpt>
      <trkpt lat="44.50992" lon="9.08414">
        <ele>484.64</ele>
        <time>2016-10-07T14:03:30Z</time>
      </trkpt>
      <trkpt lat="44.51034" lon="9.08456">
        <ele>486.08</ele>
        <time>2016-10-07T14:03:43Z</time>
      </trkpt>
      <trkpt lat="44.5104" lon="9.08508">
        <ele>487.53</ele>
        <time>2016-10-07T14:03:54Z</time>
      </trkpt>
      <trkpt lat="44.51046" lon="9.08572">
        <ele>488.97</ele>
        <time>2016-10-07T14:04:10Z</time>
      </trkpt>
      <trkpt lat="44.51078" lon="9.08588">
        <ele>489.93</ele>
        <time>2016-10-07T14:04:22Z</time>
      </trkpt>
      <trkpt lat="44.51126" lon="9.08594">
        <ele>491.37</ele>
        <time>2016-10-07T14:04:39Z</time>
      </trkpt>
      <trkpt lat="44.51157" lon="9.08601">
        <ele>491.85</ele>
        <time>2016-10-07T14:04:51Z</time>
      </trkpt>
      <trkpt lat="44.51159" lon="9.0863">
        <ele>492.33</ele>
        <time>2016-10-07T14:04:59Z</time>
      </trkpt>
      <trkpt lat="44.51157" lon="9.08633">
        <ele>492.33</ele>
        <time>2016-10-07T14:05:00Z</time>
      </trkpt>
      <trkpt lat="44.51155" lon="9.08635">
        <ele>493.29</ele>
        <time>2016-10-07T14:05:01Z</time>
      </trkpt>
      <trkpt lat="44.51153" lon="9.08637">
        <ele>493.29</ele>
        <time>2016-10-07T14:05:02Z</time>
      </trkpt>
      <trkpt lat="44.51151" lon="9.0864">
        <ele>493.29</ele>
        <time>2016-10-07T14:05:03Z</time>
      </trkpt>
      <trkpt lat="44.51139" lon="9.08682">
        <ele>494.26</ele>
        <time>2016-10-07T14:05:15Z</time>
      </trkpt>
      <trkpt lat="44.51138" lon="9.08736">
        <ele>495.22</ele>
        <time>2016-10-07T14:05:26Z</time>
      </trkpt>
      <trkpt lat="44.51118" lon="9.08778">
        <ele>495.7</ele>
        <time>2016-10-07T14:05:37Z</time>
      </trkpt>
      <trkpt lat="44.51073" lon="9.08807">
        <ele>497.14</ele>
        <time>2016-10-07T14:05:52Z</time>
      </trkpt>
      <trkpt lat="44.51028" lon="9.08822">
        <ele>498.1</ele>
        <time>2016-10-07T14:06:05Z</time>
      </trkpt>
      <trkpt lat="44.51006" lon="9.0883">
        <ele>498.58</ele>
        <time>2016-10-07T14:06:12Z</time>
      </trkpt>
      <trkpt lat="44.51004" lon="9.08832">
        <ele>498.1</ele>
        <time>2016-10-07T14:06:13Z</time>
      </trkpt>
      <trkpt lat="44.51001" lon="9.08834">
        <ele>498.58</ele>
        <time>2016-10-07T14:06:14Z</time>
      </trkpt>
      <trkpt lat="44.50999" lon="9.08837">
        <ele>498.58</ele>
        <time>2016-10-07T14:06:15Z</time>
      </trkpt>
      <trkpt lat="44.50997" lon="9.08839">
        <ele>499.06</ele>
        <time>2016-10-07T14:06:16Z</time>
      </trkpt>
      <trkpt lat="44.50963" lon="9.08858">
        <ele>499.06</ele>
        <time>2016-10-07T14:06:25Z</time>
      </trkpt>
      <trkpt lat="44.50941" lon="9.08892">
        <ele>501.46</ele>
        <time>2016-10-07T14:06:35Z</time>
      </trkpt>
      <trkpt lat="44.50967" lon="9.08912">
        <ele>501.46</ele>
        <time>2016-10-07T14:06:44Z</time>
      </trkpt>
      <trkpt lat="44.51013" lon="9.08919">
        <ele>502.91</ele>
        <time>2016-10-07T14:06:59Z</time>
      </trkpt>
      <trkpt lat="44.51046" lon="9.08965">
        <ele>503.39</ele>
        <time>2016-10-07T14:07:13Z</time>
      </trkpt>
      <trkpt lat="44.5105" lon="9.0904">
        <ele>504.35</ele>
        <time>2016-10-07T14:07:28Z</time>
      </trkpt>
      <trkpt lat="44.51059" lon="9.09111">
        <ele>504.83</ele>
        <time>2016-10-07T14:07:42Z</time>
      </trkpt>
      <trkpt lat="44.51051" lon="9.09155">
        <ele>505.31</ele>
        <time>2016-10-07T14:07:52Z</time>
      </trkpt>
      <trkpt lat="44.51024" lon="9.09178">
        <ele>507.23</ele>
        <time>2016-10-07T14:08:02Z</time>
      </trkpt>
      <trkpt lat="44.51017" lon="9.09233">
        <ele>506.27</ele>
        <time>2016-10-07T14:08:14Z</time>
      </trkpt>
      <trkpt lat="44.51019" lon="9.09285">
        <ele>508.19</ele>
        <time>2016-10-07T14:08:25Z</time>
      </trkpt>
      <trkpt lat="44.51012" lon="9.09328">
        <ele>508.19</ele>
        <time>2016-10-07T14:08:34Z</time>
      </trkpt>
      <trkpt lat="44.51011" lon="9.09334">
        <ele>507.23</ele>
        <time>2016-10-07T14:08:35Z</time>
      </trkpt>
      <trkpt lat="44.5101" lon="9.0934">
        <ele>506.75</ele>
        <time>2016-10-07T14:08:36Z</time>
      </trkpt>
      <trkpt lat="44.51008" lon="9.09346">
        <ele>506.75</ele>
        <time>2016-10-07T14:08:37Z</time>
      </trkpt>
      <trkpt lat="44.51005" lon="9.09351">
        <ele>506.75</ele>
        <time>2016-10-07T14:08:38Z</time>
      </trkpt>
      <trkpt lat="44.51002" lon="9.09356">
        <ele>506.75</ele>
        <time>2016-10-07T14:08:39Z</time>
      </trkpt>
      <trkpt lat="44.50998" lon="9.09361">
        <ele>506.75</ele>
        <time>2016-10-07T14:08:40Z</time>
      </trkpt>
      <trkpt lat="44.50995" lon="9.09366">
        <ele>506.75</ele>
        <time>2016-10-07T14:08:41Z</time>
      </trkpt>
      <trkpt lat="44.50961" lon="9.09392">
        <ele>505.79</ele>
        <time>2016-10-07T14:08:49Z</time>
      </trkpt>
      <trkpt lat="44.50955" lon="9.09394">
        <ele>505.31</ele>
        <time>2016-10-07T14:08:50Z</time>
      </trkpt>
      <trkpt lat="44.50901" lon="9.09397">
        <ele>506.27</ele>
        <time>2016-10-07T14:09:00Z</time>
      </trkpt>
      <trkpt lat="44.50855" lon="9.09378">
        <ele>506.27</ele>
        <time>2016-10-07T14:09:09Z</time>
      </trkpt>
      <trkpt lat="44.50834" lon="9.09377">
        <ele>506.27</ele>
        <time>2016-10-07T14:09:13Z</time>
      </trkpt>
      <trkpt lat="44.50829" lon="9.09378">
        <ele>506.27</ele>
        <time>2016-10-07T14:09:14Z</time>
      </trkpt>
      <trkpt lat="44.50824" lon="9.09379">
        <ele>506.27</ele>
        <time>2016-10-07T14:09:15Z</time>
      </trkpt>
      <trkpt lat="44.50819" lon="9.09382">
        <ele>506.27</ele>
        <time>2016-10-07T14:09:16Z</time>
      </trkpt>
      <trkpt lat="44.50815" lon="9.09385">
        <ele>506.27</ele>
        <time>2016-10-07T14:09:17Z</time>
      </trkpt>
      <trkpt lat="44.50811" lon="9.09389">
        <ele>506.75</ele>
        <time>2016-10-07T14:09:18Z</time>
      </trkpt>
      <trkpt lat="44.50807" lon="9.09393">
        <ele>506.75</ele>
        <time>2016-10-07T14:09:19Z</time>
      </trkpt>
      <trkpt lat="44.50803" lon="9.09397">
        <ele>506.27</ele>
        <time>2016-10-07T14:09:20Z</time>
      </trkpt>
      <trkpt lat="44.50785" lon="9.09419">
        <ele>505.79</ele>
        <time>2016-10-07T14:09:25Z</time>
      </trkpt>
      <trkpt lat="44.50781" lon="9.09424">
        <ele>505.79</ele>
        <time>2016-10-07T14:09:26Z</time>
      </trkpt>
      <trkpt lat="44.50777" lon="9.09428">
        <ele>506.75</ele>
        <time>2016-10-07T14:09:27Z</time>
      </trkpt>
      <trkpt lat="44.50774" lon="9.09434">
        <ele>506.27</ele>
        <time>2016-10-07T14:09:28Z</time>
      </trkpt>
      <trkpt lat="44.5077" lon="9.09439">
        <ele>506.27</ele>
        <time>2016-10-07T14:09:29Z</time>
      </trkpt>
      <trkpt lat="44.50767" lon="9.09444">
        <ele>506.75</ele>
        <time>2016-10-07T14:09:30Z</time>
      </trkpt>
      <trkpt lat="44.50718" lon="9.09506">
        <ele>507.23</ele>
        <time>2016-10-07T14:09:43Z</time>
      </trkpt>
      <trkpt lat="44.50716" lon="9.09511">
        <ele>507.71</ele>
        <time>2016-10-07T14:09:44Z</time>
      </trkpt>
      <trkpt lat="44.50714" lon="9.09517">
        <ele>507.23</ele>
        <time>2016-10-07T14:09:45Z</time>
      </trkpt>
      <trkpt lat="44.50712" lon="9.09523">
        <ele>507.23</ele>
        <time>2016-10-07T14:09:46Z</time>
      </trkpt>
      <trkpt lat="44.50711" lon="9.09529">
        <ele>507.23</ele>
        <time>2016-10-07T14:09:47Z</time>
      </trkpt>
      <trkpt lat="44.5071" lon="9.09536">
        <ele>507.23</ele>
        <time>2016-10-07T14:09:48Z</time>
      </trkpt>
      <trkpt lat="44.5071" lon="9.09543">
        <ele>507.23</ele>
        <time>2016-10-07T14:09:49Z</time>
      </trkpt>
      <trkpt lat="44.5071" lon="9.09557">
        <ele>507.71</ele>
        <time>2016-10-07T14:09:51Z</time>
      </trkpt>
      <trkpt lat="44.50709" lon="9.09564">
        <ele>507.71</ele>
        <time>2016-10-07T14:09:52Z</time>
      </trkpt>
      <trkpt lat="44.50709" lon="9.09571">
        <ele>507.23</ele>
        <time>2016-10-07T14:09:53Z</time>
      </trkpt>
      <trkpt lat="44.50708" lon="9.09578">
        <ele>507.23</ele>
        <time>2016-10-07T14:09:54Z</time>
      </trkpt>
      <trkpt lat="44.50708" lon="9.09585">
        <ele>507.23</ele>
        <time>2016-10-07T14:09:55Z</time>
      </trkpt>
      <trkpt lat="44.50708" lon="9.09599">
        <ele>507.23</ele>
        <time>2016-10-07T14:09:57Z</time>
      </trkpt>
      <trkpt lat="44.50706" lon="9.09606">
        <ele>507.23</ele>
        <time>2016-10-07T14:09:58Z</time>
      </trkpt>
      <trkpt lat="44.50704" lon="9.09613">
        <ele>506.75</ele>
        <time>2016-10-07T14:09:59Z</time>
      </trkpt>
      <trkpt lat="44.50699" lon="9.09626">
        <ele>507.71</ele>
        <time>2016-10-07T14:10:01Z</time>
      </trkpt>
      <trkpt lat="44.50678" lon="9.09674">
        <ele>508.19</ele>
        <time>2016-10-07T14:10:09Z</time>
      </trkpt>
      <trkpt lat="44.5066" lon="9.09743">
        <ele>508.67</ele>
        <time>2016-10-07T14:10:20Z</time>
      </trkpt>
      <trkpt lat="44.50633" lon="9.09785">
        <ele>509.16</ele>
        <time>2016-10-07T14:10:28Z</time>
      </trkpt>
      <trkpt lat="44.5063" lon="9.09789">
        <ele>509.16</ele>
        <time>2016-10-07T14:10:29Z</time>
      </trkpt>
      <trkpt lat="44.50619" lon="9.09799">
        <ele>509.64</ele>
        <time>2016-10-07T14:10:32Z</time>
      </trkpt>
      <trkpt lat="44.5056" lon="9.09833">
        <ele>510.6</ele>
        <time>2016-10-07T14:10:46Z</time>
      </trkpt>
      <trkpt lat="44.50535" lon="9.09836">
        <ele>510.6</ele>
        <time>2016-10-07T14:10:52Z</time>
      </trkpt>
      <trkpt lat="44.50531" lon="9.09837">
        <ele>510.6</ele>
        <time>2016-10-07T14:10:53Z</time>
      </trkpt>
      <trkpt lat="44.50527" lon="9.09839">
        <ele>510.6</ele>
        <time>2016-10-07T14:10:54Z</time>
      </trkpt>
      <trkpt lat="44.50523" lon="9.09841">
        <ele>510.6</ele>
        <time>2016-10-07T14:10:55Z</time>
      </trkpt>
      <trkpt lat="44.50519" lon="9.09844">
        <ele>510.6</ele>
        <time>2016-10-07T14:10:56Z</time>
      </trkpt>
      <trkpt lat="44.50515" lon="9.09847">
        <ele>511.56</ele>
        <time>2016-10-07T14:10:57Z</time>
      </trkpt>
      <trkpt lat="44.5047" lon="9.09897">
        <ele>511.08</ele>
        <time>2016-10-07T14:11:10Z</time>
      </trkpt>
      <trkpt lat="44.50468" lon="9.09901">
        <ele>511.08</ele>
        <time>2016-10-07T14:11:11Z</time>
      </trkpt>
      <trkpt lat="44.50465" lon="9.09906">
        <ele>511.56</ele>
        <time>2016-10-07T14:11:12Z</time>
      </trkpt>
      <trkpt lat="44.50463" lon="9.09911">
        <ele>511.08</ele>
        <time>2016-10-07T14:11:13Z</time>
      </trkpt>
      <trkpt lat="44.50462" lon="9.09917">
        <ele>511.08</ele>
        <time>2016-10-07T14:11:14Z</time>
      </trkpt>
      <trkpt lat="44.50462" lon="9.09923">
        <ele>511.56</ele>
        <time>2016-10-07T14:11:15Z</time>
      </trkpt>
      <trkpt lat="44.50461" lon="9.09929">
        <ele>512.04</ele>
        <time>2016-10-07T14:11:16Z</time>
      </trkpt>
      <trkpt lat="44.50459" lon="9.09954">
        <ele>512.52</ele>
        <time>2016-10-07T14:11:20Z</time>
      </trkpt>
      <trkpt lat="44.50451" lon="9.10033">
        <ele>513</ele>
        <time>2016-10-07T14:11:33Z</time>
      </trkpt>
      <trkpt lat="44.50447" lon="9.10104">
        <ele>513.48</ele>
        <time>2016-10-07T14:11:45Z</time>
      </trkpt>
      <trkpt lat="44.50453" lon="9.1018">
        <ele>514.44</ele>
        <time>2016-10-07T14:11:58Z</time>
      </trkpt>
      <trkpt lat="44.5046" lon="9.1024">
        <ele>514.44</ele>
        <time>2016-10-07T14:12:10Z</time>
      </trkpt>
      <trkpt lat="44.50453" lon="9.10276">
        <ele>515.4</ele>
        <time>2016-10-07T14:12:17Z</time>
      </trkpt>
      <trkpt lat="44.5045" lon="9.10282">
        <ele>515.4</ele>
        <time>2016-10-07T14:12:18Z</time>
      </trkpt>
      <trkpt lat="44.50413" lon="9.10344">
        <ele>514.92</ele>
        <time>2016-10-07T14:12:32Z</time>
      </trkpt>
      <trkpt lat="44.50408" lon="9.10344">
        <ele>514.92</ele>
        <time>2016-10-07T14:12:33Z</time>
      </trkpt>
      <trkpt lat="44.50342" lon="9.10349">
        <ele>515.4</ele>
        <time>2016-10-07T14:12:49Z</time>
      </trkpt>
      <trkpt lat="44.50285" lon="9.10358">
        <ele>516.37</ele>
        <time>2016-10-07T14:13:04Z</time>
      </trkpt>
      <trkpt lat="44.50255" lon="9.10372">
        <ele>518.77</ele>
        <time>2016-10-07T14:13:15Z</time>
      </trkpt>
      <trkpt lat="44.50221" lon="9.10403">
        <ele>520.69</ele>
        <time>2016-10-07T14:13:34Z</time>
      </trkpt>
      <trkpt lat="44.50202" lon="9.10445">
        <ele>522.13</ele>
        <time>2016-10-07T14:13:50Z</time>
      </trkpt>
      <trkpt lat="44.50186" lon="9.10484">
        <ele>523.58</ele>
        <time>2016-10-07T14:14:05Z</time>
      </trkpt>
      <trkpt lat="44.50158" lon="9.10513">
        <ele>525.02</ele>
        <time>2016-10-07T14:14:21Z</time>
      </trkpt>
      <trkpt lat="44.50132" lon="9.10531">
        <ele>526.94</ele>
        <time>2016-10-07T14:14:35Z</time>
      </trkpt>
      <trkpt lat="44.50102" lon="9.10533">
        <ele>527.9</ele>
        <time>2016-10-07T14:14:47Z</time>
      </trkpt>
      <trkpt lat="44.50076" lon="9.1054">
        <ele>529.34</ele>
        <time>2016-10-07T14:14:58Z</time>
      </trkpt>
      <trkpt lat="44.50057" lon="9.10553">
        <ele>530.79</ele>
        <time>2016-10-07T14:15:07Z</time>
      </trkpt>
      <trkpt lat="44.50046" lon="9.10584">
        <ele>531.75</ele>
        <time>2016-10-07T14:15:20Z</time>
      </trkpt>
      <trkpt lat="44.50046" lon="9.10615">
        <ele>532.71</ele>
        <time>2016-10-07T14:15:30Z</time>
      </trkpt>
      <trkpt lat="44.50044" lon="9.10652">
        <ele>534.15</ele>
        <time>2016-10-07T14:15:43Z</time>
      </trkpt>
      <trkpt lat="44.50045" lon="9.10682">
        <ele>535.59</ele>
        <time>2016-10-07T14:15:53Z</time>
      </trkpt>
      <trkpt lat="44.50049" lon="9.10719">
        <ele>536.55</ele>
        <time>2016-10-07T14:16:05Z</time>
      </trkpt>
      <trkpt lat="44.50046" lon="9.1075">
        <ele>537.51</ele>
        <time>2016-10-07T14:16:16Z</time>
      </trkpt>
      <trkpt lat="44.50031" lon="9.10783">
        <ele>540.4</ele>
        <time>2016-10-07T14:16:29Z</time>
      </trkpt>
      <trkpt lat="44.50014" lon="9.10806">
        <ele>540.88</ele>
        <time>2016-10-07T14:16:41Z</time>
      </trkpt>
      <trkpt lat="44.50013" lon="9.10806">
        <ele>541.36</ele>
        <time>2016-10-07T14:16:42Z</time>
      </trkpt>
      <trkpt lat="44.49984" lon="9.10806">
        <ele>543.28</ele>
        <time>2016-10-07T14:16:57Z</time>
      </trkpt>
      <trkpt lat="44.49961" lon="9.10816">
        <ele>544.24</ele>
        <time>2016-10-07T14:17:08Z</time>
      </trkpt>
      <trkpt lat="44.49943" lon="9.10841">
        <ele>546.65</ele>
        <time>2016-10-07T14:17:21Z</time>
      </trkpt>
      <trkpt lat="44.49935" lon="9.10883">
        <ele>547.61</ele>
        <time>2016-10-07T14:17:36Z</time>
      </trkpt>
      <trkpt lat="44.49922" lon="9.10923">
        <ele>549.53</ele>
        <time>2016-10-07T14:17:52Z</time>
      </trkpt>
      <trkpt lat="44.49926" lon="9.10976">
        <ele>550.97</ele>
        <time>2016-10-07T14:18:10Z</time>
      </trkpt>
      <trkpt lat="44.49922" lon="9.1102">
        <ele>552.9</ele>
        <time>2016-10-07T14:18:26Z</time>
      </trkpt>
      <trkpt lat="44.49898" lon="9.11049">
        <ele>554.82</ele>
        <time>2016-10-07T14:18:42Z</time>
      </trkpt>
      <trkpt lat="44.49897" lon="9.11087">
        <ele>556.26</ele>
        <time>2016-10-07T14:18:55Z</time>
      </trkpt>
      <trkpt lat="44.49908" lon="9.11131">
        <ele>557.7</ele>
        <time>2016-10-07T14:19:09Z</time>
      </trkpt>
      <trkpt lat="44.49915" lon="9.11186">
        <ele>557.7</ele>
        <time>2016-10-07T14:19:22Z</time>
      </trkpt>
      <trkpt lat="44.49917" lon="9.11229">
        <ele>558.18</ele>
        <time>2016-10-07T14:19:35Z</time>
      </trkpt>
      <trkpt lat="44.499" lon="9.11282">
        <ele>558.18</ele>
        <time>2016-10-07T14:19:48Z</time>
      </trkpt>
      <trkpt lat="44.49864" lon="9.11331">
        <ele>559.62</ele>
        <time>2016-10-07T14:20:02Z</time>
      </trkpt>
      <trkpt lat="44.49859" lon="9.11378">
        <ele>560.11</ele>
        <time>2016-10-07T14:20:11Z</time>
      </trkpt>
      <trkpt lat="44.49854" lon="9.11424">
        <ele>561.07</ele>
        <time>2016-10-07T14:20:21Z</time>
      </trkpt>
      <trkpt lat="44.49851" lon="9.11465">
        <ele>562.51</ele>
        <time>2016-10-07T14:20:32Z</time>
      </trkpt>
      <trkpt lat="44.49852" lon="9.11504">
        <ele>563.95</ele>
        <time>2016-10-07T14:20:45Z</time>
      </trkpt>
      <trkpt lat="44.49852" lon="9.1155">
        <ele>564.91</ele>
        <time>2016-10-07T14:21:00Z</time>
      </trkpt>
      <trkpt lat="44.49841" lon="9.11583">
        <ele>566.35</ele>
        <time>2016-10-07T14:21:12Z</time>
      </trkpt>
      <trkpt lat="44.4983" lon="9.11627">
        <ele>568.76</ele>
        <time>2016-10-07T14:21:28Z</time>
      </trkpt>
      <trkpt lat="44.49819" lon="9.11672">
        <ele>570.68</ele>
        <time>2016-10-07T14:21:43Z</time>
      </trkpt>
      <trkpt lat="44.49799" lon="9.11716">
        <ele>572.6</ele>
        <time>2016-10-07T14:22:00Z</time>
      </trkpt>
      <trkpt lat="44.49782" lon="9.11751">
        <ele>574.53</ele>
        <time>2016-10-07T14:22:14Z</time>
      </trkpt>
      <trkpt lat="44.4977" lon="9.11764">
        <ele>575.49</ele>
        <time>2016-10-07T14:22:23Z</time>
      </trkpt>
      <trkpt lat="44.49749" lon="9.11775">
        <ele>576.45</ele>
        <time>2016-10-07T14:22:34Z</time>
      </trkpt>
      <trkpt lat="44.49732" lon="9.11781">
        <ele>577.41</ele>
        <time>2016-10-07T14:22:42Z</time>
      </trkpt>
      <trkpt lat="44.49707" lon="9.11807">
        <ele>577.89</ele>
        <time>2016-10-07T14:22:56Z</time>
      </trkpt>
      <trkpt lat="44.49694" lon="9.11839">
        <ele>580.29</ele>
        <time>2016-10-07T14:23:10Z</time>
      </trkpt>
      <trkpt lat="44.4969" lon="9.1187">
        <ele>582.22</ele>
        <time>2016-10-07T14:23:22Z</time>
      </trkpt>
      <trkpt lat="44.49712" lon="9.11892">
        <ele>582.22</ele>
        <time>2016-10-07T14:23:35Z</time>
      </trkpt>
      <trkpt lat="44.49737" lon="9.11907">
        <ele>584.14</ele>
        <time>2016-10-07T14:23:49Z</time>
      </trkpt>
      <trkpt lat="44.49752" lon="9.11937">
        <ele>585.58</ele>
        <time>2016-10-07T14:24:01Z</time>
      </trkpt>
      <trkpt lat="44.4975" lon="9.11978">
        <ele>587.5</ele>
        <time>2016-10-07T14:24:16Z</time>
      </trkpt>
      <trkpt lat="44.49746" lon="9.12023">
        <ele>588.46</ele>
        <time>2016-10-07T14:24:31Z</time>
      </trkpt>
      <trkpt lat="44.49725" lon="9.12053">
        <ele>590.39</ele>
        <time>2016-10-07T14:24:45Z</time>
      </trkpt>
      <trkpt lat="44.49701" lon="9.12087">
        <ele>593.27</ele>
        <time>2016-10-07T14:25:02Z</time>
      </trkpt>
      <trkpt lat="44.49702" lon="9.12134">
        <ele>593.75</ele>
        <time>2016-10-07T14:25:17Z</time>
      </trkpt>
      <trkpt lat="44.49715" lon="9.12174">
        <ele>593.75</ele>
        <time>2016-10-07T14:25:27Z</time>
      </trkpt>
      <trkpt lat="44.49718" lon="9.1218">
        <ele>591.83</ele>
        <time>2016-10-07T14:25:28Z</time>
      </trkpt>
      <trkpt lat="44.49746" lon="9.1222">
        <ele>590.87</ele>
        <time>2016-10-07T14:25:35Z</time>
      </trkpt>
      <trkpt lat="44.49787" lon="9.12286">
        <ele>587.5</ele>
        <time>2016-10-07T14:25:44Z</time>
      </trkpt>
      <trkpt lat="44.49809" lon="9.12321">
        <ele>585.1</ele>
        <time>2016-10-07T14:25:48Z</time>
      </trkpt>
      <trkpt lat="44.49816" lon="9.12329">
        <ele>584.62</ele>
        <time>2016-10-07T14:25:49Z</time>
      </trkpt>
      <trkpt lat="44.49823" lon="9.12336">
        <ele>583.66</ele>
        <time>2016-10-07T14:25:50Z</time>
      </trkpt>
      <trkpt lat="44.49829" lon="9.12345">
        <ele>583.18</ele>
        <time>2016-10-07T14:25:51Z</time>
      </trkpt>
      <trkpt lat="44.49835" lon="9.12355">
        <ele>582.22</ele>
        <time>2016-10-07T14:25:52Z</time>
      </trkpt>
      <trkpt lat="44.4984" lon="9.12366">
        <ele>581.73</ele>
        <time>2016-10-07T14:25:53Z</time>
      </trkpt>
      <trkpt lat="44.49843" lon="9.12378">
        <ele>581.73</ele>
        <time>2016-10-07T14:25:54Z</time>
      </trkpt>
      <trkpt lat="44.49846" lon="9.1239">
        <ele>580.77</ele>
        <time>2016-10-07T14:25:55Z</time>
      </trkpt>
      <trkpt lat="44.49848" lon="9.12403">
        <ele>580.29</ele>
        <time>2016-10-07T14:25:56Z</time>
      </trkpt>
      <trkpt lat="44.49854" lon="9.12441">
        <ele>578.85</ele>
        <time>2016-10-07T14:25:59Z</time>
      </trkpt>
      <trkpt lat="44.49855" lon="9.12454">
        <ele>578.37</ele>
        <time>2016-10-07T14:26:00Z</time>
      </trkpt>
      <trkpt lat="44.49854" lon="9.12466">
        <ele>577.89</ele>
        <time>2016-10-07T14:26:01Z</time>
      </trkpt>
      <trkpt lat="44.49852" lon="9.12478">
        <ele>577.41</ele>
        <time>2016-10-07T14:26:02Z</time>
      </trkpt>
      <trkpt lat="44.4985" lon="9.1249">
        <ele>576.93</ele>
        <time>2016-10-07T14:26:03Z</time>
      </trkpt>
      <trkpt lat="44.49847" lon="9.12502">
        <ele>576.93</ele>
        <time>2016-10-07T14:26:04Z</time>
      </trkpt>
      <trkpt lat="44.49834" lon="9.12546">
        <ele>577.89</ele>
        <time>2016-10-07T14:26:08Z</time>
      </trkpt>
      <trkpt lat="44.49829" lon="9.12555">
        <ele>577.41</ele>
        <time>2016-10-07T14:26:09Z</time>
      </trkpt>
      <trkpt lat="44.49823" lon="9.12564">
        <ele>578.37</ele>
        <time>2016-10-07T14:26:10Z</time>
      </trkpt>
      <trkpt lat="44.49817" lon="9.1257">
        <ele>577.89</ele>
        <time>2016-10-07T14:26:11Z</time>
      </trkpt>
      <trkpt lat="44.4981" lon="9.12575">
        <ele>577.89</ele>
        <time>2016-10-07T14:26:12Z</time>
      </trkpt>
      <trkpt lat="44.49803" lon="9.12579">
        <ele>578.37</ele>
        <time>2016-10-07T14:26:13Z</time>
      </trkpt>
      <trkpt lat="44.49796" lon="9.1258">
        <ele>578.37</ele>
        <time>2016-10-07T14:26:14Z</time>
      </trkpt>
      <trkpt lat="44.4979" lon="9.12579">
        <ele>578.85</ele>
        <time>2016-10-07T14:26:15Z</time>
      </trkpt>
      <trkpt lat="44.49783" lon="9.12578">
        <ele>578.85</ele>
        <time>2016-10-07T14:26:16Z</time>
      </trkpt>
      <trkpt lat="44.49777" lon="9.12575">
        <ele>580.29</ele>
        <time>2016-10-07T14:26:17Z</time>
      </trkpt>
      <trkpt lat="44.49772" lon="9.12571">
        <ele>579.81</ele>
        <time>2016-10-07T14:26:18Z</time>
      </trkpt>
      <trkpt lat="44.49767" lon="9.12566">
        <ele>579.81</ele>
        <time>2016-10-07T14:26:19Z</time>
      </trkpt>
      <trkpt lat="44.49763" lon="9.12561">
        <ele>579.81</ele>
        <time>2016-10-07T14:26:20Z</time>
      </trkpt>
      <trkpt lat="44.49759" lon="9.12555">
        <ele>580.29</ele>
        <time>2016-10-07T14:26:21Z</time>
      </trkpt>
      <trkpt lat="44.49756" lon="9.12549">
        <ele>580.29</ele>
        <time>2016-10-07T14:26:22Z</time>
      </trkpt>
      <trkpt lat="44.49753" lon="9.12543">
        <ele>580.77</ele>
        <time>2016-10-07T14:26:23Z</time>
      </trkpt>
      <trkpt lat="44.49748" lon="9.12532">
        <ele>581.25</ele>
        <time>2016-10-07T14:26:25Z</time>
      </trkpt>
      <trkpt lat="44.49746" lon="9.12526">
        <ele>581.73</ele>
        <time>2016-10-07T14:26:26Z</time>
      </trkpt>
      <trkpt lat="44.49745" lon="9.1252">
        <ele>581.73</ele>
        <time>2016-10-07T14:26:27Z</time>
      </trkpt>
      <trkpt lat="44.49739" lon="9.12466">
        <ele>583.66</ele>
        <time>2016-10-07T14:26:39Z</time>
      </trkpt>
      <trkpt lat="44.49725" lon="9.12422">
        <ele>585.58</ele>
        <time>2016-10-07T14:26:53Z</time>
      </trkpt>
      <trkpt lat="44.49707" lon="9.12389">
        <ele>587.02</ele>
        <time>2016-10-07T14:27:08Z</time>
      </trkpt>
      <trkpt lat="44.49685" lon="9.12364">
        <ele>588.46</ele>
        <time>2016-10-07T14:27:20Z</time>
      </trkpt>
      <trkpt lat="44.49655" lon="9.12354">
        <ele>590.39</ele>
        <time>2016-10-07T14:27:33Z</time>
      </trkpt>
      <trkpt lat="44.49638" lon="9.12354">
        <ele>590.87</ele>
        <time>2016-10-07T14:27:41Z</time>
      </trkpt>
      <trkpt lat="44.49636" lon="9.12355">
        <ele>590.87</ele>
        <time>2016-10-07T14:27:42Z</time>
      </trkpt>
      <trkpt lat="44.49634" lon="9.12356">
        <ele>591.35</ele>
        <time>2016-10-07T14:27:43Z</time>
      </trkpt>
      <trkpt lat="44.49609" lon="9.12384">
        <ele>592.31</ele>
        <time>2016-10-07T14:27:57Z</time>
      </trkpt>
      <trkpt lat="44.49588" lon="9.12419">
        <ele>593.75</ele>
        <time>2016-10-07T14:28:11Z</time>
      </trkpt>
      <trkpt lat="44.49587" lon="9.12421">
        <ele>594.23</ele>
        <time>2016-10-07T14:28:12Z</time>
      </trkpt>
      <trkpt lat="44.49562" lon="9.12465">
        <ele>595.67</ele>
        <time>2016-10-07T14:28:28Z</time>
      </trkpt>
      <trkpt lat="44.49535" lon="9.12488">
        <ele>598.08</ele>
        <time>2016-10-07T14:28:42Z</time>
      </trkpt>
      <trkpt lat="44.49525" lon="9.12517">
        <ele>598.56</ele>
        <time>2016-10-07T14:28:53Z</time>
      </trkpt>
      <trkpt lat="44.4955" lon="9.12551">
        <ele>599.04</ele>
        <time>2016-10-07T14:29:04Z</time>
      </trkpt>
      <trkpt lat="44.49591" lon="9.12594">
        <ele>599.52</ele>
        <time>2016-10-07T14:29:19Z</time>
      </trkpt>
      <trkpt lat="44.49593" lon="9.12643">
        <ele>600</ele>
        <time>2016-10-07T14:29:29Z</time>
      </trkpt>
      <trkpt lat="44.49569" lon="9.12686">
        <ele>600.48</ele>
        <time>2016-10-07T14:29:41Z</time>
      </trkpt>
      <trkpt lat="44.49547" lon="9.1275">
        <ele>601.44</ele>
        <time>2016-10-07T14:29:55Z</time>
      </trkpt>
      <trkpt lat="44.49544" lon="9.12811">
        <ele>601.92</ele>
        <time>2016-10-07T14:30:08Z</time>
      </trkpt>
      <trkpt lat="44.49527" lon="9.12852">
        <ele>601.92</ele>
        <time>2016-10-07T14:30:19Z</time>
      </trkpt>
      <trkpt lat="44.49497" lon="9.12893">
        <ele>602.4</ele>
        <time>2016-10-07T14:30:31Z</time>
      </trkpt>
      <trkpt lat="44.49469" lon="9.12917">
        <ele>604.81</ele>
        <time>2016-10-07T14:30:43Z</time>
      </trkpt>
      <trkpt lat="44.4945" lon="9.12936">
        <ele>606.25</ele>
        <time>2016-10-07T14:30:54Z</time>
      </trkpt>
      <trkpt lat="44.49424" lon="9.12983">
        <ele>608.65</ele>
        <time>2016-10-07T14:31:13Z</time>
      </trkpt>
      <trkpt lat="44.49396" lon="9.13018">
        <ele>610.57</ele>
        <time>2016-10-07T14:31:30Z</time>
      </trkpt>
      <trkpt lat="44.49358" lon="9.13041">
        <ele>612.02</ele>
        <time>2016-10-07T14:31:47Z</time>
      </trkpt>
      <trkpt lat="44.4931" lon="9.1305">
        <ele>613.46</ele>
        <time>2016-10-07T14:32:06Z</time>
      </trkpt>
      <trkpt lat="44.49256" lon="9.13058">
        <ele>614.42</ele>
        <time>2016-10-07T14:32:27Z</time>
      </trkpt>
      <trkpt lat="44.49208" lon="9.13063">
        <ele>616.34</ele>
        <time>2016-10-07T14:32:44Z</time>
      </trkpt>
      <trkpt lat="44.49148" lon="9.13073">
        <ele>617.78</ele>
        <time>2016-10-07T14:33:04Z</time>
      </trkpt>
      <trkpt lat="44.49085" lon="9.13079">
        <ele>619.71</ele>
        <time>2016-10-07T14:33:25Z</time>
      </trkpt>
      <trkpt lat="44.49038" lon="9.13083">
        <ele>621.63</ele>
        <time>2016-10-07T14:33:42Z</time>
      </trkpt>
      <trkpt lat="44.48977" lon="9.13086">
        <ele>623.07</ele>
        <time>2016-10-07T14:34:00Z</time>
      </trkpt>
      <trkpt lat="44.48921" lon="9.13093">
        <ele>624.03</ele>
        <time>2016-10-07T14:34:15Z</time>
      </trkpt>
      <trkpt lat="44.48867" lon="9.1309">
        <ele>624.99</ele>
        <time>2016-10-07T14:34:30Z</time>
      </trkpt>
      <trkpt lat="44.48794" lon="9.13058">
        <ele>625.96</ele>
        <time>2016-10-07T14:34:48Z</time>
      </trkpt>
      <trkpt lat="44.48772" lon="9.13046">
        <ele>625.96</ele>
        <time>2016-10-07T14:34:54Z</time>
      </trkpt>
      <trkpt lat="44.48769" lon="9.13045">
        <ele>624.99</ele>
        <time>2016-10-07T14:34:55Z</time>
      </trkpt>
      <trkpt lat="44.48765" lon="9.13042">
        <ele>625.96</ele>
        <time>2016-10-07T14:34:56Z</time>
      </trkpt>
      <trkpt lat="44.48692" lon="9.12993">
        <ele>626.44</ele>
        <time>2016-10-07T14:35:14Z</time>
      </trkpt>
      <trkpt lat="44.4863" lon="9.1295">
        <ele>627.4</ele>
        <time>2016-10-07T14:35:28Z</time>
      </trkpt>
      <trkpt lat="44.48583" lon="9.12881">
        <ele>627.4</ele>
        <time>2016-10-07T14:35:43Z</time>
      </trkpt>
      <trkpt lat="44.48569" lon="9.12851">
        <ele>627.4</ele>
        <time>2016-10-07T14:35:54Z</time>
      </trkpt>
      <trkpt lat="44.48571" lon="9.12849">
        <ele>630.28</ele>
        <time>2016-10-07T14:36:09Z</time>
      </trkpt>
      <trkpt lat="44.48572" lon="9.12851">
        <ele>626.92</ele>
        <time>2016-10-07T14:36:18Z</time>
      </trkpt>
      <trkpt lat="44.48569" lon="9.12847">
        <ele>626.92</ele>
        <time>2016-10-07T14:36:25Z</time>
      </trkpt>
      <trkpt lat="44.48544" lon="9.12848">
        <ele>626.92</ele>
        <time>2016-10-07T14:36:35Z</time>
      </trkpt>
      <trkpt lat="44.48536" lon="9.1285">
        <ele>626.44</ele>
        <time>2016-10-07T14:36:37Z</time>
      </trkpt>
      <trkpt lat="44.48531" lon="9.1285">
        <ele>625.47</ele>
        <time>2016-10-07T14:36:38Z</time>
      </trkpt>
      <trkpt lat="44.48525" lon="9.12849">
        <ele>625.47</ele>
        <time>2016-10-07T14:36:39Z</time>
      </trkpt>
      <trkpt lat="44.4852" lon="9.12848">
        <ele>624.99</ele>
        <time>2016-10-07T14:36:40Z</time>
      </trkpt>
      <trkpt lat="44.48515" lon="9.12846">
        <ele>624.99</ele>
        <time>2016-10-07T14:36:41Z</time>
      </trkpt>
      <trkpt lat="44.4851" lon="9.12843">
        <ele>624.99</ele>
        <time>2016-10-07T14:36:42Z</time>
      </trkpt>
      <trkpt lat="44.48505" lon="9.12839">
        <ele>624.99</ele>
        <time>2016-10-07T14:36:43Z</time>
      </trkpt>
      <trkpt lat="44.485" lon="9.12835">
        <ele>624.99</ele>
        <time>2016-10-07T14:36:44Z</time>
      </trkpt>
      <trkpt lat="44.4849" lon="9.1283">
        <ele>625.47</ele>
        <time>2016-10-07T14:36:46Z</time>
      </trkpt>
      <trkpt lat="44.48485" lon="9.12828">
        <ele>625.96</ele>
        <time>2016-10-07T14:36:47Z</time>
      </trkpt>
      <trkpt lat="44.48456" lon="9.12819">
        <ele>628.36</ele>
        <time>2016-10-07T14:36:58Z</time>
      </trkpt>
      <trkpt lat="44.48422" lon="9.12821">
        <ele>630.76</ele>
        <time>2016-10-07T14:37:15Z</time>
      </trkpt>
      <trkpt lat="44.4842" lon="9.1282">
        <ele>630.76</ele>
        <time>2016-10-07T14:37:16Z</time>
      </trkpt>
      <trkpt lat="44.48418" lon="9.1282">
        <ele>630.76</ele>
        <time>2016-10-07T14:37:17Z</time>
      </trkpt>
      <trkpt lat="44.48408" lon="9.12798">
        <ele>631.72</ele>
        <time>2016-10-07T14:37:26Z</time>
      </trkpt>
      <trkpt lat="44.4841" lon="9.12791">
        <ele>631.72</ele>
        <time>2016-10-07T14:37:29Z</time>
      </trkpt>
      <trkpt lat="44.48438" lon="9.12759">
        <ele>633.17</ele>
        <time>2016-10-07T14:37:43Z</time>
      </trkpt>
      <trkpt lat="44.48459" lon="9.12714">
        <ele>635.09</ele>
        <time>2016-10-07T14:38:00Z</time>
      </trkpt>
      <trkpt lat="44.48434" lon="9.12669">
        <ele>635.57</ele>
        <time>2016-10-07T14:38:14Z</time>
      </trkpt>
      <trkpt lat="44.48413" lon="9.1265">
        <ele>637.01</ele>
        <time>2016-10-07T14:38:28Z</time>
      </trkpt>
      <trkpt lat="44.48412" lon="9.12649">
        <ele>637.01</ele>
        <time>2016-10-07T14:38:47Z</time>
      </trkpt>
      <trkpt lat="44.48411" lon="9.12652">
        <ele>636.53</ele>
        <time>2016-10-07T14:39:01Z</time>
      </trkpt>
      <trkpt lat="44.48412" lon="9.12646">
        <ele>636.53</ele>
        <time>2016-10-07T14:39:49Z</time>
      </trkpt>
      <trkpt lat="44.48411" lon="9.12654">
        <ele>637.49</ele>
        <time>2016-10-07T14:40:25Z</time>
      </trkpt>
      <trkpt lat="44.48412" lon="9.12646">
        <ele>637.01</ele>
        <time>2016-10-07T14:41:01Z</time>
      </trkpt>
      <trkpt lat="44.48408" lon="9.12644">
        <ele>637.01</ele>
        <time>2016-10-07T14:41:11Z</time>
      </trkpt>
      <trkpt lat="44.48406" lon="9.12645">
        <ele>637.01</ele>
        <time>2016-10-07T14:41:12Z</time>
      </trkpt>
      <trkpt lat="44.48405" lon="9.12646">
        <ele>637.01</ele>
        <time>2016-10-07T14:41:13Z</time>
      </trkpt>
      <trkpt lat="44.48403" lon="9.12646">
        <ele>637.01</ele>
        <time>2016-10-07T14:41:14Z</time>
      </trkpt>
      <trkpt lat="44.48401" lon="9.12646">
        <ele>637.01</ele>
        <time>2016-10-07T14:41:15Z</time>
      </trkpt>
      <trkpt lat="44.48399" lon="9.12645">
        <ele>637.49</ele>
        <time>2016-10-07T14:41:16Z</time>
      </trkpt>
      <trkpt lat="44.48373" lon="9.12646">
        <ele>637.97</ele>
        <time>2016-10-07T14:41:29Z</time>
      </trkpt>
      <trkpt lat="44.48339" lon="9.12652">
        <ele>638.93</ele>
        <time>2016-10-07T14:41:43Z</time>
      </trkpt>
      <trkpt lat="44.48304" lon="9.12657">
        <ele>640.38</ele>
        <time>2016-10-07T14:41:56Z</time>
      </trkpt>
      <trkpt lat="44.48298" lon="9.12652">
        <ele>640.86</ele>
        <time>2016-10-07T14:42:00Z</time>
      </trkpt>
      <trkpt lat="44.48298" lon="9.12649">
        <ele>641.34</ele>
        <time>2016-10-07T14:42:01Z</time>
      </trkpt>
      <trkpt lat="44.48305" lon="9.1261">
        <ele>642.3</ele>
        <time>2016-10-07T14:42:14Z</time>
      </trkpt>
      <trkpt lat="44.48335" lon="9.12584">
        <ele>643.26</ele>
        <time>2016-10-07T14:42:29Z</time>
      </trkpt>
      <trkpt lat="44.48357" lon="9.12541">
        <ele>645.18</ele>
        <time>2016-10-07T14:42:44Z</time>
      </trkpt>
      <trkpt lat="44.48342" lon="9.12502">
        <ele>646.14</ele>
        <time>2016-10-07T14:42:56Z</time>
      </trkpt>
      <trkpt lat="44.48306" lon="9.12471">
        <ele>647.1</ele>
        <time>2016-10-07T14:43:11Z</time>
      </trkpt>
      <trkpt lat="44.48299" lon="9.12458">
        <ele>648.07</ele>
        <time>2016-10-07T14:43:16Z</time>
      </trkpt>
      <trkpt lat="44.48299" lon="9.12455">
        <ele>648.55</ele>
        <time>2016-10-07T14:43:17Z</time>
      </trkpt>
      <trkpt lat="44.48281" lon="9.12416">
        <ele>649.99</ele>
        <time>2016-10-07T14:43:30Z</time>
      </trkpt>
      <trkpt lat="44.48252" lon="9.12386">
        <ele>650.95</ele>
        <time>2016-10-07T14:43:43Z</time>
      </trkpt>
      <trkpt lat="44.48223" lon="9.12368">
        <ele>652.39</ele>
        <time>2016-10-07T14:43:57Z</time>
      </trkpt>
      <trkpt lat="44.48217" lon="9.1234">
        <ele>653.35</ele>
        <time>2016-10-07T14:44:06Z</time>
      </trkpt>
      <trkpt lat="44.48215" lon="9.12301">
        <ele>654.31</ele>
        <time>2016-10-07T14:44:18Z</time>
      </trkpt>
      <trkpt lat="44.48204" lon="9.12251">
        <ele>656.24</ele>
        <time>2016-10-07T14:44:32Z</time>
      </trkpt>
      <trkpt lat="44.48188" lon="9.12213">
        <ele>657.68</ele>
        <time>2016-10-07T14:44:45Z</time>
      </trkpt>
      <trkpt lat="44.48158" lon="9.12173">
        <ele>657.68</ele>
        <time>2016-10-07T14:44:59Z</time>
      </trkpt>
      <trkpt lat="44.48117" lon="9.12155">
        <ele>659.6</ele>
        <time>2016-10-07T14:45:13Z</time>
      </trkpt>
      <trkpt lat="44.48086" lon="9.12145">
        <ele>661.52</ele>
        <time>2016-10-07T14:45:25Z</time>
      </trkpt>
      <trkpt lat="44.48082" lon="9.12143">
        <ele>662.01</ele>
        <time>2016-10-07T14:45:27Z</time>
      </trkpt>
      <trkpt lat="44.48081" lon="9.12141">
        <ele>662.01</ele>
        <time>2016-10-07T14:45:28Z</time>
      </trkpt>
      <trkpt lat="44.4808" lon="9.12139">
        <ele>662.01</ele>
        <time>2016-10-07T14:45:29Z</time>
      </trkpt>
      <trkpt lat="44.48079" lon="9.12136">
        <ele>662.01</ele>
        <time>2016-10-07T14:45:30Z</time>
      </trkpt>
      <trkpt lat="44.48079" lon="9.12134">
        <ele>662.49</ele>
        <time>2016-10-07T14:45:31Z</time>
      </trkpt>
      <trkpt lat="44.48079" lon="9.12132">
        <ele>662.97</ele>
        <time>2016-10-07T14:45:32Z</time>
      </trkpt>
      <trkpt lat="44.48079" lon="9.1213">
        <ele>662.97</ele>
        <time>2016-10-07T14:45:33Z</time>
      </trkpt>
      <trkpt lat="44.48081" lon="9.12125">
        <ele>662.01</ele>
        <time>2016-10-07T14:45:36Z</time>
      </trkpt>
      <trkpt lat="44.48083" lon="9.12125">
        <ele>662.49</ele>
        <time>2016-10-07T14:45:37Z</time>
      </trkpt>
      <trkpt lat="44.48084" lon="9.12124">
        <ele>662.97</ele>
        <time>2016-10-07T14:45:38Z</time>
      </trkpt>
      <trkpt lat="44.48085" lon="9.12124">
        <ele>662.49</ele>
        <time>2016-10-07T14:45:39Z</time>
      </trkpt>
      <trkpt lat="44.48087" lon="9.12124">
        <ele>662.97</ele>
        <time>2016-10-07T14:45:40Z</time>
      </trkpt>
      <trkpt lat="44.48088" lon="9.12123">
        <ele>662.97</ele>
        <time>2016-10-07T14:45:41Z</time>
      </trkpt>
      <trkpt lat="44.48089" lon="9.12122">
        <ele>662.97</ele>
        <time>2016-10-07T14:45:42Z</time>
      </trkpt>
      <trkpt lat="44.48091" lon="9.12121">
        <ele>662.97</ele>
        <time>2016-10-07T14:45:43Z</time>
      </trkpt>
      <trkpt lat="44.48092" lon="9.1212">
        <ele>662.97</ele>
        <time>2016-10-07T14:45:44Z</time>
      </trkpt>
      <trkpt lat="44.48093" lon="9.12119">
        <ele>662.97</ele>
        <time>2016-10-07T14:45:45Z</time>
      </trkpt>
      <trkpt lat="44.48094" lon="9.12119">
        <ele>662.97</ele>
        <time>2016-10-07T14:45:46Z</time>
      </trkpt>
      <trkpt lat="44.48095" lon="9.12118">
        <ele>662.97</ele>
        <time>2016-10-07T14:45:47Z</time>
      </trkpt>
      <trkpt lat="44.48094" lon="9.12116">
        <ele>662.97</ele>
        <time>2016-10-07T14:46:02Z</time>
      </trkpt>
      <trkpt lat="44.48097" lon="9.12115">
        <ele>662.97</ele>
        <time>2016-10-07T14:46:26Z</time>
      </trkpt>
      <trkpt lat="44.48096" lon="9.12115">
        <ele>663.45</ele>
        <time>2016-10-07T14:46:27Z</time>
      </trkpt>
      <trkpt lat="44.48094" lon="9.12116">
        <ele>663.93</ele>
        <time>2016-10-07T14:46:28Z</time>
      </trkpt>
      <trkpt lat="44.48073" lon="9.12133">
        <ele>662.97</ele>
        <time>2016-10-07T14:46:41Z</time>
      </trkpt>
      <trkpt lat="44.48071" lon="9.12136">
        <ele>663.45</ele>
        <time>2016-10-07T14:46:55Z</time>
      </trkpt>
      <trkpt lat="44.48065" lon="9.12142">
        <ele>662.49</ele>
        <time>2016-10-07T14:47:10Z</time>
      </trkpt>
      <trkpt lat="44.48063" lon="9.12142">
        <ele>662.97</ele>
        <time>2016-10-07T14:47:11Z</time>
      </trkpt>
      <trkpt lat="44.48054" lon="9.12147">
        <ele>664.41</ele>
        <time>2016-10-07T14:47:17Z</time>
      </trkpt>
      <trkpt lat="44.48048" lon="9.12152">
        <ele>663.45</ele>
        <time>2016-10-07T14:47:21Z</time>
      </trkpt>
      <trkpt lat="44.48059" lon="9.12162">
        <ele>665.85</ele>
        <time>2016-10-07T14:47:31Z</time>
      </trkpt>
      <trkpt lat="44.48064" lon="9.12164">
        <ele>666.33</ele>
        <time>2016-10-07T14:47:34Z</time>
      </trkpt>
      <trkpt lat="44.48087" lon="9.12172">
        <ele>668.25</ele>
        <time>2016-10-07T14:47:48Z</time>
      </trkpt>
      <trkpt lat="44.48117" lon="9.12188">
        <ele>670.18</ele>
        <time>2016-10-07T14:48:05Z</time>
      </trkpt>
      <trkpt lat="44.48137" lon="9.12214">
        <ele>672.58</ele>
        <time>2016-10-07T14:48:21Z</time>
      </trkpt>
      <trkpt lat="44.48145" lon="9.12249">
        <ele>674.5</ele>
        <time>2016-10-07T14:48:37Z</time>
      </trkpt>
      <trkpt lat="44.48149" lon="9.12275">
        <ele>675.46</ele>
        <time>2016-10-07T14:48:50Z</time>
      </trkpt>
      <trkpt lat="44.48152" lon="9.12301">
        <ele>677.87</ele>
        <time>2016-10-07T14:49:02Z</time>
      </trkpt>
      <trkpt lat="44.48152" lon="9.12335">
        <ele>678.83</ele>
        <time>2016-10-07T14:49:18Z</time>
      </trkpt>
      <trkpt lat="44.4815" lon="9.12346">
        <ele>680.75</ele>
        <time>2016-10-07T14:49:25Z</time>
      </trkpt>
      <trkpt lat="44.48149" lon="9.12349">
        <ele>681.23</ele>
        <time>2016-10-07T14:49:27Z</time>
      </trkpt>
      <trkpt lat="44.48148" lon="9.12351">
        <ele>680.75</ele>
        <time>2016-10-07T14:49:28Z</time>
      </trkpt>
      <trkpt lat="44.48139" lon="9.12364">
        <ele>682.19</ele>
        <time>2016-10-07T14:49:41Z</time>
      </trkpt>
      <trkpt lat="44.48139" lon="9.12369">
        <ele>682.67</ele>
        <time>2016-10-07T14:49:44Z</time>
      </trkpt>
      <trkpt lat="44.48137" lon="9.12383">
        <ele>684.12</ele>
        <time>2016-10-07T14:49:52Z</time>
      </trkpt>
      <trkpt lat="44.48139" lon="9.12398">
        <ele>685.08</ele>
        <time>2016-10-07T14:50:01Z</time>
      </trkpt>
      <trkpt lat="44.4814" lon="9.124">
        <ele>685.08</ele>
        <time>2016-10-07T14:50:02Z</time>
      </trkpt>
      <trkpt lat="44.48149" lon="9.12415">
        <ele>687</ele>
        <time>2016-10-07T14:50:16Z</time>
      </trkpt>
      <trkpt lat="44.48156" lon="9.12425">
        <ele>688.44</ele>
        <time>2016-10-07T14:50:23Z</time>
      </trkpt>
      <trkpt lat="44.48178" lon="9.12442">
        <ele>689.88</ele>
        <time>2016-10-07T14:50:37Z</time>
      </trkpt>
      <trkpt lat="44.48196" lon="9.12471">
        <ele>691.33</ele>
        <time>2016-10-07T14:50:51Z</time>
      </trkpt>
      <trkpt lat="44.48205" lon="9.12489">
        <ele>692.29</ele>
        <time>2016-10-07T14:50:59Z</time>
      </trkpt>
      <trkpt lat="44.48216" lon="9.12506">
        <ele>693.25</ele>
        <time>2016-10-07T14:51:08Z</time>
      </trkpt>
      <trkpt lat="44.48218" lon="9.12509">
        <ele>693.73</ele>
        <time>2016-10-07T14:51:10Z</time>
      </trkpt>
      <trkpt lat="44.48233" lon="9.12531">
        <ele>694.69</ele>
        <time>2016-10-07T14:51:21Z</time>
      </trkpt>
      <trkpt lat="44.48235" lon="9.12533">
        <ele>694.69</ele>
        <time>2016-10-07T14:51:22Z</time>
      </trkpt>
      <trkpt lat="44.48241" lon="9.12552">
        <ele>695.65</ele>
        <time>2016-10-07T14:51:32Z</time>
      </trkpt>
      <trkpt lat="44.4824" lon="9.12554">
        <ele>695.65</ele>
        <time>2016-10-07T14:51:33Z</time>
      </trkpt>
      <trkpt lat="44.48239" lon="9.12554">
        <ele>696.13</ele>
        <time>2016-10-07T14:51:34Z</time>
      </trkpt>
      <trkpt lat="44.48238" lon="9.12554">
        <ele>696.61</ele>
        <time>2016-10-07T14:51:35Z</time>
      </trkpt>
      <trkpt lat="44.48238" lon="9.12554">
        <ele>696.61</ele>
        <time>2016-10-07T14:51:36Z</time>
      </trkpt>
      <trkpt lat="44.48237" lon="9.12553">
        <ele>696.61</ele>
        <time>2016-10-07T14:51:37Z</time>
      </trkpt>
      <trkpt lat="44.48236" lon="9.12552">
        <ele>697.09</ele>
        <time>2016-10-07T14:51:38Z</time>
      </trkpt>
      <trkpt lat="44.48235" lon="9.1255">
        <ele>697.09</ele>
        <time>2016-10-07T14:51:39Z</time>
      </trkpt>
      <trkpt lat="44.48228" lon="9.12531">
        <ele>698.53</ele>
        <time>2016-10-07T14:51:52Z</time>
      </trkpt>
      <trkpt lat="44.48216" lon="9.1252">
        <ele>699.5</ele>
        <time>2016-10-07T14:52:02Z</time>
      </trkpt>
      <trkpt lat="44.48215" lon="9.12519">
        <ele>699.5</ele>
        <time>2016-10-07T14:52:03Z</time>
      </trkpt>
      <trkpt lat="44.48213" lon="9.12518">
        <ele>699.5</ele>
        <time>2016-10-07T14:52:04Z</time>
      </trkpt>
      <trkpt lat="44.48212" lon="9.12517">
        <ele>700.46</ele>
        <time>2016-10-07T14:52:05Z</time>
      </trkpt>
      <trkpt lat="44.48211" lon="9.12517">
        <ele>699.98</ele>
        <time>2016-10-07T14:52:06Z</time>
      </trkpt>
      <trkpt lat="44.48205" lon="9.12513">
        <ele>699.98</ele>
        <time>2016-10-07T14:52:10Z</time>
      </trkpt>
      <trkpt lat="44.48204" lon="9.12513">
        <ele>700.46</ele>
        <time>2016-10-07T14:52:11Z</time>
      </trkpt>
      <trkpt lat="44.48202" lon="9.12512">
        <ele>700.46</ele>
        <time>2016-10-07T14:52:12Z</time>
      </trkpt>
      <trkpt lat="44.48192" lon="9.12502">
        <ele>701.9</ele>
        <time>2016-10-07T14:52:21Z</time>
      </trkpt>
      <trkpt lat="44.48191" lon="9.125">
        <ele>702.38</ele>
        <time>2016-10-07T14:52:22Z</time>
      </trkpt>
      <trkpt lat="44.48179" lon="9.12494">
        <ele>702.86</ele>
        <time>2016-10-07T14:52:30Z</time>
      </trkpt>
      <trkpt lat="44.48177" lon="9.12493">
        <ele>702.86</ele>
        <time>2016-10-07T14:52:31Z</time>
      </trkpt>
      <trkpt lat="44.48176" lon="9.12492">
        <ele>703.34</ele>
        <time>2016-10-07T14:52:32Z</time>
      </trkpt>
      <trkpt lat="44.48174" lon="9.12491">
        <ele>703.34</ele>
        <time>2016-10-07T14:52:33Z</time>
      </trkpt>
      <trkpt lat="44.48173" lon="9.1249">
        <ele>702.86</ele>
        <time>2016-10-07T14:52:34Z</time>
      </trkpt>
      <trkpt lat="44.48162" lon="9.12485">
        <ele>704.3</ele>
        <time>2016-10-07T14:52:41Z</time>
      </trkpt>
      <trkpt lat="44.48142" lon="9.12473">
        <ele>705.75</ele>
        <time>2016-10-07T14:52:54Z</time>
      </trkpt>
      <trkpt lat="44.48119" lon="9.12467">
        <ele>708.15</ele>
        <time>2016-10-07T14:53:10Z</time>
      </trkpt>
      <trkpt lat="44.48107" lon="9.1246">
        <ele>709.11</ele>
        <time>2016-10-07T14:53:19Z</time>
      </trkpt>
      <trkpt lat="44.48092" lon="9.12453">
        <ele>709.59</ele>
        <time>2016-10-07T14:53:31Z</time>
      </trkpt>
      <trkpt lat="44.48083" lon="9.12447">
        <ele>710.55</ele>
        <time>2016-10-07T14:53:37Z</time>
      </trkpt>
      <trkpt lat="44.48082" lon="9.12449">
        <ele>711.03</ele>
        <time>2016-10-07T14:53:38Z</time>
      </trkpt>
      <trkpt lat="44.48081" lon="9.1245">
        <ele>711.03</ele>
        <time>2016-10-07T14:53:39Z</time>
      </trkpt>
      <trkpt lat="44.48081" lon="9.12452">
        <ele>711.03</ele>
        <time>2016-10-07T14:53:40Z</time>
      </trkpt>
      <trkpt lat="44.48085" lon="9.1246">
        <ele>711.99</ele>
        <time>2016-10-07T14:53:49Z</time>
      </trkpt>
      <trkpt lat="44.48102" lon="9.12479">
        <ele>713.44</ele>
        <time>2016-10-07T14:54:01Z</time>
      </trkpt>
      <trkpt lat="44.48116" lon="9.12495">
        <ele>714.4</ele>
        <time>2016-10-07T14:54:11Z</time>
      </trkpt>
      <trkpt lat="44.48117" lon="9.12496">
        <ele>714.88</ele>
        <time>2016-10-07T14:54:12Z</time>
      </trkpt>
      <trkpt lat="44.48128" lon="9.12513">
        <ele>715.36</ele>
        <time>2016-10-07T14:54:22Z</time>
      </trkpt>
      <trkpt lat="44.4813" lon="9.12514">
        <ele>715.84</ele>
        <time>2016-10-07T14:54:23Z</time>
      </trkpt>
      <trkpt lat="44.48131" lon="9.12515">
        <ele>715.84</ele>
        <time>2016-10-07T14:54:24Z</time>
      </trkpt>
      <trkpt lat="44.48133" lon="9.12516">
        <ele>716.32</ele>
        <time>2016-10-07T14:54:25Z</time>
      </trkpt>
      <trkpt lat="44.48157" lon="9.12524">
        <ele>717.28</ele>
        <time>2016-10-07T14:54:40Z</time>
      </trkpt>
      <trkpt lat="44.48168" lon="9.12533">
        <ele>718.24</ele>
        <time>2016-10-07T14:54:47Z</time>
      </trkpt>
      <trkpt lat="44.48169" lon="9.12535">
        <ele>718.72</ele>
        <time>2016-10-07T14:54:48Z</time>
      </trkpt>
      <trkpt lat="44.4817" lon="9.12538">
        <ele>719.2</ele>
        <time>2016-10-07T14:54:50Z</time>
      </trkpt>
      <trkpt lat="44.48168" lon="9.12542">
        <ele>720.16</ele>
        <time>2016-10-07T14:54:54Z</time>
      </trkpt>
      <trkpt lat="44.48167" lon="9.12542">
        <ele>719.68</ele>
        <time>2016-10-07T14:54:55Z</time>
      </trkpt>
      <trkpt lat="44.48149" lon="9.1254">
        <ele>722.09</ele>
        <time>2016-10-07T14:55:10Z</time>
      </trkpt>
      <trkpt lat="44.48139" lon="9.12541">
        <ele>722.57</ele>
        <time>2016-10-07T14:55:17Z</time>
      </trkpt>
      <trkpt lat="44.48121" lon="9.12542">
        <ele>724.01</ele>
        <time>2016-10-07T14:55:31Z</time>
      </trkpt>
      <trkpt lat="44.48102" lon="9.1254">
        <ele>726.41</ele>
        <time>2016-10-07T14:55:45Z</time>
      </trkpt>
      <trkpt lat="44.48078" lon="9.12552">
        <ele>727.37</ele>
        <time>2016-10-07T14:56:02Z</time>
      </trkpt>
      <trkpt lat="44.48061" lon="9.12562">
        <ele>728.82</ele>
        <time>2016-10-07T14:56:13Z</time>
      </trkpt>
      <trkpt lat="44.48058" lon="9.12563">
        <ele>728.82</ele>
        <time>2016-10-07T14:56:15Z</time>
      </trkpt>
      <trkpt lat="44.48057" lon="9.12563">
        <ele>729.78</ele>
        <time>2016-10-07T14:56:16Z</time>
      </trkpt>
      <trkpt lat="44.48035" lon="9.12568">
        <ele>731.7</ele>
        <time>2016-10-07T14:56:31Z</time>
      </trkpt>
      <trkpt lat="44.48024" lon="9.12581">
        <ele>733.14</ele>
        <time>2016-10-07T14:56:42Z</time>
      </trkpt>
      <trkpt lat="44.48013" lon="9.12598">
        <ele>734.58</ele>
        <time>2016-10-07T14:56:56Z</time>
      </trkpt>
      <trkpt lat="44.48012" lon="9.126">
        <ele>735.07</ele>
        <time>2016-10-07T14:56:57Z</time>
      </trkpt>
      <trkpt lat="44.48008" lon="9.1261">
        <ele>735.07</ele>
        <time>2016-10-07T14:57:03Z</time>
      </trkpt>
      <trkpt lat="44.48007" lon="9.12612">
        <ele>735.07</ele>
        <time>2016-10-07T14:57:04Z</time>
      </trkpt>
      <trkpt lat="44.48006" lon="9.12613">
        <ele>736.03</ele>
        <time>2016-10-07T14:57:05Z</time>
      </trkpt>
      <trkpt lat="44.48006" lon="9.12615">
        <ele>736.03</ele>
        <time>2016-10-07T14:57:06Z</time>
      </trkpt>
      <trkpt lat="44.48005" lon="9.12617">
        <ele>736.03</ele>
        <time>2016-10-07T14:57:07Z</time>
      </trkpt>
      <trkpt lat="44.48005" lon="9.12619">
        <ele>736.03</ele>
        <time>2016-10-07T14:57:08Z</time>
      </trkpt>
      <trkpt lat="44.48004" lon="9.12621">
        <ele>736.03</ele>
        <time>2016-10-07T14:57:09Z</time>
      </trkpt>
      <trkpt lat="44.48004" lon="9.12624">
        <ele>736.03</ele>
        <time>2016-10-07T14:57:10Z</time>
      </trkpt>
      <trkpt lat="44.48" lon="9.12631">
        <ele>736.99</ele>
        <time>2016-10-07T14:57:14Z</time>
      </trkpt>
      <trkpt lat="44.48" lon="9.12633">
        <ele>736.99</ele>
        <time>2016-10-07T14:57:15Z</time>
      </trkpt>
      <trkpt lat="44.47999" lon="9.12635">
        <ele>736.99</ele>
        <time>2016-10-07T14:57:16Z</time>
      </trkpt>
      <trkpt lat="44.47989" lon="9.12662">
        <ele>738.91</ele>
        <time>2016-10-07T14:57:29Z</time>
      </trkpt>
      <trkpt lat="44.47977" lon="9.12685">
        <ele>739.87</ele>
        <time>2016-10-07T14:57:42Z</time>
      </trkpt>
      <trkpt lat="44.47969" lon="9.12698">
        <ele>740.35</ele>
        <time>2016-10-07T14:57:49Z</time>
      </trkpt>
      <trkpt lat="44.47951" lon="9.12717">
        <ele>742.28</ele>
        <time>2016-10-07T14:58:03Z</time>
      </trkpt>
      <trkpt lat="44.47932" lon="9.12732">
        <ele>744.2</ele>
        <time>2016-10-07T14:58:16Z</time>
      </trkpt>
      <trkpt lat="44.47926" lon="9.12738">
        <ele>744.68</ele>
        <time>2016-10-07T14:58:22Z</time>
      </trkpt>
      <trkpt lat="44.47924" lon="9.12739">
        <ele>744.2</ele>
        <time>2016-10-07T14:58:23Z</time>
      </trkpt>
      <trkpt lat="44.47921" lon="9.12739">
        <ele>745.16</ele>
        <time>2016-10-07T14:58:25Z</time>
      </trkpt>
      <trkpt lat="44.47915" lon="9.12746">
        <ele>746.12</ele>
        <time>2016-10-07T14:58:32Z</time>
      </trkpt>
      <trkpt lat="44.47914" lon="9.12747">
        <ele>746.12</ele>
        <time>2016-10-07T14:58:33Z</time>
      </trkpt>
      <trkpt lat="44.47911" lon="9.12763">
        <ele>747.08</ele>
        <time>2016-10-07T14:58:43Z</time>
      </trkpt>
      <trkpt lat="44.47912" lon="9.12765">
        <ele>747.08</ele>
        <time>2016-10-07T14:58:44Z</time>
      </trkpt>
      <trkpt lat="44.47914" lon="9.12769">
        <ele>747.56</ele>
        <time>2016-10-07T14:58:47Z</time>
      </trkpt>
      <trkpt lat="44.47915" lon="9.1277">
        <ele>747.56</ele>
        <time>2016-10-07T14:58:48Z</time>
      </trkpt>
      <trkpt lat="44.47916" lon="9.12771">
        <ele>747.56</ele>
        <time>2016-10-07T14:58:49Z</time>
      </trkpt>
      <trkpt lat="44.47917" lon="9.12774">
        <ele>748.04</ele>
        <time>2016-10-07T14:58:50Z</time>
      </trkpt>
      <trkpt lat="44.47918" lon="9.12776">
        <ele>748.04</ele>
        <time>2016-10-07T14:58:51Z</time>
      </trkpt>
      <trkpt lat="44.47919" lon="9.12776">
        <ele>748.52</ele>
        <time>2016-10-07T14:58:52Z</time>
      </trkpt>
      <trkpt lat="44.47936" lon="9.12782">
        <ele>749.49</ele>
        <time>2016-10-07T14:59:05Z</time>
      </trkpt>
      <trkpt lat="44.47944" lon="9.12785">
        <ele>750.45</ele>
        <time>2016-10-07T14:59:09Z</time>
      </trkpt>
      <trkpt lat="44.47964" lon="9.12802">
        <ele>751.89</ele>
        <time>2016-10-07T14:59:22Z</time>
      </trkpt>
      <trkpt lat="44.4797" lon="9.12821">
        <ele>754.29</ele>
        <time>2016-10-07T14:59:33Z</time>
      </trkpt>
      <trkpt lat="44.47974" lon="9.12842">
        <ele>755.25</ele>
        <time>2016-10-07T14:59:45Z</time>
      </trkpt>
      <trkpt lat="44.47975" lon="9.12843">
        <ele>755.25</ele>
        <time>2016-10-07T14:59:46Z</time>
      </trkpt>
      <trkpt lat="44.47976" lon="9.12845">
        <ele>755.25</ele>
        <time>2016-10-07T14:59:47Z</time>
      </trkpt>
      <trkpt lat="44.47978" lon="9.12846">
        <ele>755.73</ele>
        <time>2016-10-07T14:59:48Z</time>
      </trkpt>
      <trkpt lat="44.47996" lon="9.12862">
        <ele>757.66</ele>
        <time>2016-10-07T15:00:02Z</time>
      </trkpt>
      <trkpt lat="44.48" lon="9.12874">
        <ele>758.62</ele>
        <time>2016-10-07T15:00:09Z</time>
      </trkpt>
      <trkpt lat="44.48001" lon="9.12876">
        <ele>759.1</ele>
        <time>2016-10-07T15:00:10Z</time>
      </trkpt>
      <trkpt lat="44.48015" lon="9.12893">
        <ele>760.54</ele>
        <time>2016-10-07T15:00:23Z</time>
      </trkpt>
      <trkpt lat="44.48016" lon="9.12893">
        <ele>760.54</ele>
        <time>2016-10-07T15:00:24Z</time>
      </trkpt>
      <trkpt lat="44.48018" lon="9.12893">
        <ele>760.54</ele>
        <time>2016-10-07T15:00:25Z</time>
      </trkpt>
      <trkpt lat="44.48019" lon="9.12892">
        <ele>760.06</ele>
        <time>2016-10-07T15:00:26Z</time>
      </trkpt>
      <trkpt lat="44.4802" lon="9.12891">
        <ele>761.02</ele>
        <time>2016-10-07T15:00:27Z</time>
      </trkpt>
      <trkpt lat="44.4804" lon="9.12896">
        <ele>761.98</ele>
        <time>2016-10-07T15:00:39Z</time>
      </trkpt>
      <trkpt lat="44.48066" lon="9.12909">
        <ele>763.9</ele>
        <time>2016-10-07T15:00:55Z</time>
      </trkpt>
      <trkpt lat="44.4809" lon="9.12913">
        <ele>766.31</ele>
        <time>2016-10-07T15:01:11Z</time>
      </trkpt>
      <trkpt lat="44.48101" lon="9.12918">
        <ele>767.27</ele>
        <time>2016-10-07T15:01:19Z</time>
      </trkpt>
      <trkpt lat="44.48102" lon="9.12918">
        <ele>767.27</ele>
        <time>2016-10-07T15:01:20Z</time>
      </trkpt>
      <trkpt lat="44.48104" lon="9.12918">
        <ele>767.75</ele>
        <time>2016-10-07T15:01:21Z</time>
      </trkpt>
      <trkpt lat="44.48105" lon="9.12917">
        <ele>767.75</ele>
        <time>2016-10-07T15:01:22Z</time>
      </trkpt>
      <trkpt lat="44.48107" lon="9.12917">
        <ele>767.75</ele>
        <time>2016-10-07T15:01:23Z</time>
      </trkpt>
      <trkpt lat="44.48126" lon="9.12912">
        <ele>768.71</ele>
        <time>2016-10-07T15:01:35Z</time>
      </trkpt>
      <trkpt lat="44.48127" lon="9.12914">
        <ele>769.19</ele>
        <time>2016-10-07T15:01:36Z</time>
      </trkpt>
      <trkpt lat="44.48129" lon="9.12915">
        <ele>769.19</ele>
        <time>2016-10-07T15:01:37Z</time>
      </trkpt>
      <trkpt lat="44.48138" lon="9.12931">
        <ele>771.11</ele>
        <time>2016-10-07T15:01:46Z</time>
      </trkpt>
      <trkpt lat="44.48138" lon="9.12932">
        <ele>770.63</ele>
        <time>2016-10-07T15:01:47Z</time>
      </trkpt>
      <trkpt lat="44.48129" lon="9.12955">
        <ele>772.56</ele>
        <time>2016-10-07T15:02:02Z</time>
      </trkpt>
      <trkpt lat="44.48112" lon="9.12981">
        <ele>775.44</ele>
        <time>2016-10-07T15:02:18Z</time>
      </trkpt>
      <trkpt lat="44.48093" lon="9.13002">
        <ele>777.36</ele>
        <time>2016-10-07T15:02:34Z</time>
      </trkpt>
      <trkpt lat="44.48078" lon="9.13016">
        <ele>778.81</ele>
        <time>2016-10-07T15:02:46Z</time>
      </trkpt>
      <trkpt lat="44.4806" lon="9.13033">
        <ele>780.25</ele>
        <time>2016-10-07T15:03:00Z</time>
      </trkpt>
      <trkpt lat="44.48036" lon="9.13056">
        <ele>782.17</ele>
        <time>2016-10-07T15:03:15Z</time>
      </trkpt>
      <trkpt lat="44.48024" lon="9.13078">
        <ele>784.09</ele>
        <time>2016-10-07T15:03:29Z</time>
      </trkpt>
      <trkpt lat="44.48022" lon="9.13087">
        <ele>784.09</ele>
        <time>2016-10-07T15:03:34Z</time>
      </trkpt>
      <trkpt lat="44.48022" lon="9.13093">
        <ele>784.57</ele>
        <time>2016-10-07T15:03:37Z</time>
      </trkpt>
      <trkpt lat="44.4802" lon="9.13102">
        <ele>785.53</ele>
        <time>2016-10-07T15:03:42Z</time>
      </trkpt>
      <trkpt lat="44.4802" lon="9.13104">
        <ele>785.05</ele>
        <time>2016-10-07T15:03:43Z</time>
      </trkpt>
      <trkpt lat="44.48019" lon="9.13106">
        <ele>785.53</ele>
        <time>2016-10-07T15:03:44Z</time>
      </trkpt>
      <trkpt lat="44.48018" lon="9.13109">
        <ele>786.02</ele>
        <time>2016-10-07T15:03:45Z</time>
      </trkpt>
      <trkpt lat="44.48018" lon="9.13111">
        <ele>786.02</ele>
        <time>2016-10-07T15:03:46Z</time>
      </trkpt>
      <trkpt lat="44.48016" lon="9.13117">
        <ele>786.02</ele>
        <time>2016-10-07T15:03:49Z</time>
      </trkpt>
      <trkpt lat="44.48015" lon="9.13119">
        <ele>786.5</ele>
        <time>2016-10-07T15:03:50Z</time>
      </trkpt>
      <trkpt lat="44.48013" lon="9.13121">
        <ele>786.02</ele>
        <time>2016-10-07T15:03:51Z</time>
      </trkpt>
      <trkpt lat="44.48012" lon="9.13123">
        <ele>786.02</ele>
        <time>2016-10-07T15:03:52Z</time>
      </trkpt>
      <trkpt lat="44.4801" lon="9.13125">
        <ele>786.02</ele>
        <time>2016-10-07T15:03:53Z</time>
      </trkpt>
      <trkpt lat="44.48008" lon="9.13126">
        <ele>786.5</ele>
        <time>2016-10-07T15:03:54Z</time>
      </trkpt>
      <trkpt lat="44.48006" lon="9.13127">
        <ele>786.98</ele>
        <time>2016-10-07T15:03:55Z</time>
      </trkpt>
      <trkpt lat="44.48005" lon="9.13128">
        <ele>787.46</ele>
        <time>2016-10-07T15:03:56Z</time>
      </trkpt>
      <trkpt lat="44.48004" lon="9.13129">
        <ele>786.98</ele>
        <time>2016-10-07T15:03:57Z</time>
      </trkpt>
      <trkpt lat="44.48002" lon="9.1313">
        <ele>786.98</ele>
        <time>2016-10-07T15:03:58Z</time>
      </trkpt>
      <trkpt lat="44.47997" lon="9.13136">
        <ele>787.94</ele>
        <time>2016-10-07T15:04:03Z</time>
      </trkpt>
      <trkpt lat="44.47996" lon="9.13137">
        <ele>787.94</ele>
        <time>2016-10-07T15:04:04Z</time>
      </trkpt>
      <trkpt lat="44.47995" lon="9.13138">
        <ele>787.94</ele>
        <time>2016-10-07T15:04:05Z</time>
      </trkpt>
      <trkpt lat="44.47993" lon="9.13139">
        <ele>788.42</ele>
        <time>2016-10-07T15:04:06Z</time>
      </trkpt>
      <trkpt lat="44.4799" lon="9.13152">
        <ele>789.86</ele>
        <time>2016-10-07T15:04:14Z</time>
      </trkpt>
      <trkpt lat="44.4799" lon="9.13155">
        <ele>789.38</ele>
        <time>2016-10-07T15:04:15Z</time>
      </trkpt>
      <trkpt lat="44.47991" lon="9.13157">
        <ele>788.9</ele>
        <time>2016-10-07T15:04:16Z</time>
      </trkpt>
      <trkpt lat="44.47991" lon="9.1316">
        <ele>789.86</ele>
        <time>2016-10-07T15:04:17Z</time>
      </trkpt>
      <trkpt lat="44.47992" lon="9.13162">
        <ele>789.86</ele>
        <time>2016-10-07T15:04:18Z</time>
      </trkpt>
      <trkpt lat="44.48001" lon="9.13172">
        <ele>791.78</ele>
        <time>2016-10-07T15:04:29Z</time>
      </trkpt>
      <trkpt lat="44.48004" lon="9.13174">
        <ele>790.82</ele>
        <time>2016-10-07T15:04:31Z</time>
      </trkpt>
      <trkpt lat="44.48016" lon="9.13194">
        <ele>792.74</ele>
        <time>2016-10-07T15:04:43Z</time>
      </trkpt>
      <trkpt lat="44.48026" lon="9.13227">
        <ele>794.67</ele>
        <time>2016-10-07T15:04:59Z</time>
      </trkpt>
      <trkpt lat="44.48026" lon="9.13229">
        <ele>794.19</ele>
        <time>2016-10-07T15:05:00Z</time>
      </trkpt>
      <trkpt lat="44.48031" lon="9.13256">
        <ele>796.11</ele>
        <time>2016-10-07T15:05:15Z</time>
      </trkpt>
      <trkpt lat="44.48051" lon="9.13281">
        <ele>798.99</ele>
        <time>2016-10-07T15:05:34Z</time>
      </trkpt>
      <trkpt lat="44.48053" lon="9.13282">
        <ele>798.51</ele>
        <time>2016-10-07T15:05:36Z</time>
      </trkpt>
      <trkpt lat="44.48054" lon="9.13283">
        <ele>798.51</ele>
        <time>2016-10-07T15:05:37Z</time>
      </trkpt>
      <trkpt lat="44.48072" lon="9.13297">
        <ele>799.95</ele>
        <time>2016-10-07T15:05:52Z</time>
      </trkpt>
      <trkpt lat="44.48076" lon="9.13312">
        <ele>801.4</ele>
        <time>2016-10-07T15:06:02Z</time>
      </trkpt>
      <trkpt lat="44.48072" lon="9.1331">
        <ele>801.4</ele>
        <time>2016-10-07T15:06:06Z</time>
      </trkpt>
      <trkpt lat="44.48071" lon="9.13309">
        <ele>801.88</ele>
        <time>2016-10-07T15:06:07Z</time>
      </trkpt>
      <trkpt lat="44.4807" lon="9.13308">
        <ele>801.88</ele>
        <time>2016-10-07T15:06:08Z</time>
      </trkpt>
      <trkpt lat="44.4807" lon="9.13306">
        <ele>801.88</ele>
        <time>2016-10-07T15:06:09Z</time>
      </trkpt>
      <trkpt lat="44.48069" lon="9.13304">
        <ele>801.88</ele>
        <time>2016-10-07T15:06:10Z</time>
      </trkpt>
      <trkpt lat="44.4805" lon="9.13289">
        <ele>803.32</ele>
        <time>2016-10-07T15:06:23Z</time>
      </trkpt>
      <trkpt lat="44.48024" lon="9.13272">
        <ele>805.24</ele>
        <time>2016-10-07T15:06:40Z</time>
      </trkpt>
      <trkpt lat="44.48011" lon="9.13247">
        <ele>807.16</ele>
        <time>2016-10-07T15:06:57Z</time>
      </trkpt>
      <trkpt lat="44.48008" lon="9.13241">
        <ele>808.13</ele>
        <time>2016-10-07T15:07:02Z</time>
      </trkpt>
      <trkpt lat="44.48007" lon="9.1324">
        <ele>808.13</ele>
        <time>2016-10-07T15:07:03Z</time>
      </trkpt>
      <trkpt lat="44.48006" lon="9.1324">
        <ele>808.13</ele>
        <time>2016-10-07T15:07:04Z</time>
      </trkpt>
      <trkpt lat="44.48004" lon="9.13241">
        <ele>808.13</ele>
        <time>2016-10-07T15:07:05Z</time>
      </trkpt>
      <trkpt lat="44.48003" lon="9.13242">
        <ele>808.61</ele>
        <time>2016-10-07T15:07:06Z</time>
      </trkpt>
      <trkpt lat="44.48002" lon="9.13244">
        <ele>808.13</ele>
        <time>2016-10-07T15:07:07Z</time>
      </trkpt>
      <trkpt lat="44.48001" lon="9.13245">
        <ele>808.61</ele>
        <time>2016-10-07T15:07:08Z</time>
      </trkpt>
      <trkpt lat="44.48001" lon="9.13247">
        <ele>809.09</ele>
        <time>2016-10-07T15:07:09Z</time>
      </trkpt>
      <trkpt lat="44.48001" lon="9.13249">
        <ele>809.57</ele>
        <time>2016-10-07T15:07:10Z</time>
      </trkpt>
      <trkpt lat="44.48001" lon="9.13251">
        <ele>809.57</ele>
        <time>2016-10-07T15:07:11Z</time>
      </trkpt>
      <trkpt lat="44.48002" lon="9.13253">
        <ele>809.57</ele>
        <time>2016-10-07T15:07:12Z</time>
      </trkpt>
      <trkpt lat="44.48002" lon="9.13255">
        <ele>809.57</ele>
        <time>2016-10-07T15:07:13Z</time>
      </trkpt>
      <trkpt lat="44.48003" lon="9.13256">
        <ele>809.57</ele>
        <time>2016-10-07T15:07:14Z</time>
      </trkpt>
      <trkpt lat="44.48004" lon="9.13258">
        <ele>810.05</ele>
        <time>2016-10-07T15:07:15Z</time>
      </trkpt>
      <trkpt lat="44.48005" lon="9.13259">
        <ele>810.05</ele>
        <time>2016-10-07T15:07:16Z</time>
      </trkpt>
      <trkpt lat="44.48006" lon="9.1326">
        <ele>810.05</ele>
        <time>2016-10-07T15:07:17Z</time>
      </trkpt>
      <trkpt lat="44.48007" lon="9.13262">
        <ele>810.05</ele>
        <time>2016-10-07T15:07:18Z</time>
      </trkpt>
      <trkpt lat="44.48016" lon="9.13279">
        <ele>811.97</ele>
        <time>2016-10-07T15:07:29Z</time>
      </trkpt>
      <trkpt lat="44.48031" lon="9.13307">
        <ele>812.45</ele>
        <time>2016-10-07T15:07:46Z</time>
      </trkpt>
      <trkpt lat="44.48043" lon="9.13328">
        <ele>814.37</ele>
        <time>2016-10-07T15:08:00Z</time>
      </trkpt>
      <trkpt lat="44.48049" lon="9.13353">
        <ele>815.82</ele>
        <time>2016-10-07T15:08:14Z</time>
      </trkpt>
      <trkpt lat="44.48048" lon="9.13362">
        <ele>816.78</ele>
        <time>2016-10-07T15:08:19Z</time>
      </trkpt>
      <trkpt lat="44.48034" lon="9.13386">
        <ele>819.18</ele>
        <time>2016-10-07T15:08:36Z</time>
      </trkpt>
      <trkpt lat="44.48025" lon="9.13405">
        <ele>821.58</ele>
        <time>2016-10-07T15:08:52Z</time>
      </trkpt>
      <trkpt lat="44.48019" lon="9.13419">
        <ele>822.55</ele>
        <time>2016-10-07T15:09:03Z</time>
      </trkpt>
      <trkpt lat="44.48012" lon="9.13451">
        <ele>824.95</ele>
        <time>2016-10-07T15:09:20Z</time>
      </trkpt>
      <trkpt lat="44.48004" lon="9.1347">
        <ele>826.87</ele>
        <time>2016-10-07T15:09:35Z</time>
      </trkpt>
      <trkpt lat="44.47993" lon="9.13487">
        <ele>827.35</ele>
        <time>2016-10-07T15:09:44Z</time>
      </trkpt>
      <trkpt lat="44.47993" lon="9.13489">
        <ele>827.83</ele>
        <time>2016-10-07T15:09:45Z</time>
      </trkpt>
      <trkpt lat="44.47992" lon="9.13491">
        <ele>827.83</ele>
        <time>2016-10-07T15:09:46Z</time>
      </trkpt>
      <trkpt lat="44.47992" lon="9.13493">
        <ele>828.31</ele>
        <time>2016-10-07T15:09:47Z</time>
      </trkpt>
      <trkpt lat="44.47991" lon="9.13523">
        <ele>830.24</ele>
        <time>2016-10-07T15:10:01Z</time>
      </trkpt>
      <trkpt lat="44.4799" lon="9.13532">
        <ele>831.2</ele>
        <time>2016-10-07T15:10:06Z</time>
      </trkpt>
      <trkpt lat="44.47989" lon="9.13534">
        <ele>831.68</ele>
        <time>2016-10-07T15:10:07Z</time>
      </trkpt>
      <trkpt lat="44.47987" lon="9.13536">
        <ele>832.16</ele>
        <time>2016-10-07T15:10:08Z</time>
      </trkpt>
      <trkpt lat="44.47986" lon="9.13538">
        <ele>832.16</ele>
        <time>2016-10-07T15:10:09Z</time>
      </trkpt>
      <trkpt lat="44.47983" lon="9.13559">
        <ele>832.16</ele>
        <time>2016-10-07T15:10:21Z</time>
      </trkpt>
      <trkpt lat="44.47982" lon="9.13561">
        <ele>834.56</ele>
        <time>2016-10-07T15:10:22Z</time>
      </trkpt>
      <trkpt lat="44.47982" lon="9.13563">
        <ele>834.08</ele>
        <time>2016-10-07T15:10:23Z</time>
      </trkpt>
      <trkpt lat="44.47981" lon="9.13565">
        <ele>834.08</ele>
        <time>2016-10-07T15:10:24Z</time>
      </trkpt>
      <trkpt lat="44.47979" lon="9.13573">
        <ele>834.56</ele>
        <time>2016-10-07T15:10:28Z</time>
      </trkpt>
      <trkpt lat="44.47978" lon="9.13575">
        <ele>834.56</ele>
        <time>2016-10-07T15:10:29Z</time>
      </trkpt>
      <trkpt lat="44.47978" lon="9.13576">
        <ele>834.56</ele>
        <time>2016-10-07T15:10:30Z</time>
      </trkpt>
      <trkpt lat="44.47977" lon="9.13578">
        <ele>835.04</ele>
        <time>2016-10-07T15:10:31Z</time>
      </trkpt>
      <trkpt lat="44.47976" lon="9.1358">
        <ele>834.56</ele>
        <time>2016-10-07T15:10:32Z</time>
      </trkpt>
      <trkpt lat="44.47975" lon="9.13582">
        <ele>834.56</ele>
        <time>2016-10-07T15:10:33Z</time>
      </trkpt>
      <trkpt lat="44.47967" lon="9.13602">
        <ele>836.48</ele>
        <time>2016-10-07T15:10:47Z</time>
      </trkpt>
      <trkpt lat="44.47959" lon="9.13623">
        <ele>837.93</ele>
        <time>2016-10-07T15:10:59Z</time>
      </trkpt>
      <trkpt lat="44.47956" lon="9.13655">
        <ele>840.81</ele>
        <time>2016-10-07T15:11:16Z</time>
      </trkpt>
      <trkpt lat="44.47952" lon="9.13666">
        <ele>841.29</ele>
        <time>2016-10-07T15:11:22Z</time>
      </trkpt>
      <trkpt lat="44.47938" lon="9.13682">
        <ele>841.77</ele>
        <time>2016-10-07T15:11:36Z</time>
      </trkpt>
      <trkpt lat="44.47931" lon="9.137">
        <ele>842.25</ele>
        <time>2016-10-07T15:11:51Z</time>
      </trkpt>
      <trkpt lat="44.47929" lon="9.13702">
        <ele>842.25</ele>
        <time>2016-10-07T15:12:06Z</time>
      </trkpt>
      <trkpt lat="44.47927" lon="9.13705">
        <ele>842.25</ele>
        <time>2016-10-07T15:12:39Z</time>
      </trkpt>
      <trkpt lat="44.47926" lon="9.13709">
        <ele>842.25</ele>
        <time>2016-10-07T15:13:09Z</time>
      </trkpt>
      <trkpt lat="44.47928" lon="9.13712">
        <ele>841.77</ele>
        <time>2016-10-07T15:13:41Z</time>
      </trkpt>
      <trkpt lat="44.47928" lon="9.13708">
        <ele>842.73</ele>
        <time>2016-10-07T15:14:13Z</time>
      </trkpt>
      <trkpt lat="44.47931" lon="9.13704">
        <ele>842.73</ele>
        <time>2016-10-07T15:15:00Z</time>
      </trkpt>
      <trkpt lat="44.47928" lon="9.13701">
        <ele>842.25</ele>
        <time>2016-10-07T15:15:34Z</time>
      </trkpt>
      <trkpt lat="44.47928" lon="9.13702">
        <ele>842.25</ele>
        <time>2016-10-07T15:16:04Z</time>
      </trkpt>
      <trkpt lat="44.4793" lon="9.13705">
        <ele>841.77</ele>
        <time>2016-10-07T15:16:41Z</time>
      </trkpt>
      <trkpt lat="44.47924" lon="9.1371">
        <ele>841.77</ele>
        <time>2016-10-07T15:17:18Z</time>
      </trkpt>
      <trkpt lat="44.47925" lon="9.13709">
        <ele>841.77</ele>
        <time>2016-10-07T15:17:45Z</time>
      </trkpt>
      <trkpt lat="44.47924" lon="9.13703">
        <ele>841.77</ele>
        <time>2016-10-07T15:18:24Z</time>
      </trkpt>
      <trkpt lat="44.47927" lon="9.13702">
        <ele>842.25</ele>
        <time>2016-10-07T15:18:57Z</time>
      </trkpt>
      <trkpt lat="44.47928" lon="9.13705">
        <ele>841.29</ele>
        <time>2016-10-07T15:19:22Z</time>
      </trkpt>
      <trkpt lat="44.47928" lon="9.13704">
        <ele>841.77</ele>
        <time>2016-10-07T15:19:47Z</time>
      </trkpt>
      <trkpt lat="44.47928" lon="9.13705">
        <ele>841.77</ele>
        <time>2016-10-07T15:20:14Z</time>
      </trkpt>
      <trkpt lat="44.47927" lon="9.13704">
        <ele>841.77</ele>
        <time>2016-10-07T15:20:46Z</time>
      </trkpt>
      <trkpt lat="44.47928" lon="9.13706">
        <ele>841.77</ele>
        <time>2016-10-07T15:21:21Z</time>
      </trkpt>
      <trkpt lat="44.47928" lon="9.13705">
        <ele>841.77</ele>
        <time>2016-10-07T15:21:54Z</time>
      </trkpt>
      <trkpt lat="44.47929" lon="9.13702">
        <ele>841.77</ele>
        <time>2016-10-07T15:22:24Z</time>
      </trkpt>
      <trkpt lat="44.4793" lon="9.13702">
        <ele>840.81</ele>
        <time>2016-10-07T15:22:53Z</time>
      </trkpt>
      <trkpt lat="44.4793" lon="9.137">
        <ele>840.33</ele>
        <time>2016-10-07T15:23:28Z</time>
      </trkpt>
      <trkpt lat="44.47927" lon="9.13702">
        <ele>840.33</ele>
        <time>2016-10-07T15:23:56Z</time>
      </trkpt>
      <trkpt lat="44.47927" lon="9.13704">
        <ele>840.81</ele>
        <time>2016-10-07T15:24:29Z</time>
      </trkpt>
      <trkpt lat="44.47927" lon="9.13701">
        <ele>840.81</ele>
        <time>2016-10-07T15:25:02Z</time>
      </trkpt>
      <trkpt lat="44.47927" lon="9.13704">
        <ele>840.33</ele>
        <time>2016-10-07T15:25:38Z</time>
      </trkpt>
      <trkpt lat="44.47928" lon="9.13705">
        <ele>841.29</ele>
        <time>2016-10-07T15:26:07Z</time>
      </trkpt>
      <trkpt lat="44.47931" lon="9.1371">
        <ele>841.29</ele>
        <time>2016-10-07T15:26:30Z</time>
      </trkpt>
      <trkpt lat="44.4793" lon="9.13705">
        <ele>840.81</ele>
        <time>2016-10-07T15:27:07Z</time>
      </trkpt>
      <trkpt lat="44.4793" lon="9.13705">
        <ele>840.33</ele>
        <time>2016-10-07T15:27:43Z</time>
      </trkpt>
      <trkpt lat="44.47929" lon="9.13708">
        <ele>840.33</ele>
        <time>2016-10-07T15:28:10Z</time>
      </trkpt>
      <trkpt lat="44.47929" lon="9.13709">
        <ele>839.85</ele>
        <time>2016-10-07T15:28:24Z</time>
      </trkpt>
      <trkpt lat="44.47929" lon="9.13711">
        <ele>840.33</ele>
        <time>2016-10-07T15:28:25Z</time>
      </trkpt>
      <trkpt lat="44.4793" lon="9.13713">
        <ele>840.33</ele>
        <time>2016-10-07T15:28:26Z</time>
      </trkpt>
      <trkpt lat="44.47934" lon="9.13731">
        <ele>839.37</ele>
        <time>2016-10-07T15:28:30Z</time>
      </trkpt>
      <trkpt lat="44.47947" lon="9.13772">
        <ele>836</ele>
        <time>2016-10-07T15:28:37Z</time>
      </trkpt>
      <trkpt lat="44.4795" lon="9.13777">
        <ele>835.52</ele>
        <time>2016-10-07T15:28:38Z</time>
      </trkpt>
      <trkpt lat="44.47961" lon="9.13795">
        <ele>834.08</ele>
        <time>2016-10-07T15:28:42Z</time>
      </trkpt>
      <trkpt lat="44.47975" lon="9.13827">
        <ele>832.16</ele>
        <time>2016-10-07T15:28:52Z</time>
      </trkpt>
      <trkpt lat="44.47985" lon="9.13877">
        <ele>828.79</ele>
        <time>2016-10-07T15:28:59Z</time>
      </trkpt>
      <trkpt lat="44.47992" lon="9.13911">
        <ele>826.39</ele>
        <time>2016-10-07T15:29:03Z</time>
      </trkpt>
      <trkpt lat="44.47999" lon="9.13937">
        <ele>824.95</ele>
        <time>2016-10-07T15:29:06Z</time>
      </trkpt>
      <trkpt lat="44.48003" lon="9.13945">
        <ele>823.51</ele>
        <time>2016-10-07T15:29:07Z</time>
      </trkpt>
      <trkpt lat="44.48008" lon="9.13951">
        <ele>822.55</ele>
        <time>2016-10-07T15:29:08Z</time>
      </trkpt>
      <trkpt lat="44.48013" lon="9.13956">
        <ele>821.58</ele>
        <time>2016-10-07T15:29:09Z</time>
      </trkpt>
      <trkpt lat="44.48018" lon="9.13961">
        <ele>821.58</ele>
        <time>2016-10-07T15:29:10Z</time>
      </trkpt>
      <trkpt lat="44.48023" lon="9.13966">
        <ele>820.62</ele>
        <time>2016-10-07T15:29:11Z</time>
      </trkpt>
      <trkpt lat="44.48028" lon="9.13972">
        <ele>820.62</ele>
        <time>2016-10-07T15:29:12Z</time>
      </trkpt>
      <trkpt lat="44.48033" lon="9.1398">
        <ele>819.66</ele>
        <time>2016-10-07T15:29:13Z</time>
      </trkpt>
      <trkpt lat="44.48037" lon="9.13987">
        <ele>819.18</ele>
        <time>2016-10-07T15:29:14Z</time>
      </trkpt>
      <trkpt lat="44.48041" lon="9.13996">
        <ele>818.22</ele>
        <time>2016-10-07T15:29:15Z</time>
      </trkpt>
      <trkpt lat="44.48057" lon="9.14028">
        <ele>814.37</ele>
        <time>2016-10-07T15:29:19Z</time>
      </trkpt>
      <trkpt lat="44.48063" lon="9.14043">
        <ele>813.89</ele>
        <time>2016-10-07T15:29:21Z</time>
      </trkpt>
      <trkpt lat="44.48064" lon="9.14052">
        <ele>812.45</ele>
        <time>2016-10-07T15:29:22Z</time>
      </trkpt>
      <trkpt lat="44.48065" lon="9.1406">
        <ele>811.97</ele>
        <time>2016-10-07T15:29:23Z</time>
      </trkpt>
      <trkpt lat="44.48067" lon="9.14068">
        <ele>811.01</ele>
        <time>2016-10-07T15:29:24Z</time>
      </trkpt>
      <trkpt lat="44.48069" lon="9.14075">
        <ele>810.53</ele>
        <time>2016-10-07T15:29:25Z</time>
      </trkpt>
      <trkpt lat="44.48072" lon="9.14081">
        <ele>810.05</ele>
        <time>2016-10-07T15:29:26Z</time>
      </trkpt>
      <trkpt lat="44.48076" lon="9.14086">
        <ele>809.57</ele>
        <time>2016-10-07T15:29:27Z</time>
      </trkpt>
      <trkpt lat="44.48081" lon="9.1409">
        <ele>809.09</ele>
        <time>2016-10-07T15:29:28Z</time>
      </trkpt>
      <trkpt lat="44.48085" lon="9.14095">
        <ele>808.13</ele>
        <time>2016-10-07T15:29:29Z</time>
      </trkpt>
      <trkpt lat="44.48089" lon="9.14101">
        <ele>807.64</ele>
        <time>2016-10-07T15:29:30Z</time>
      </trkpt>
      <trkpt lat="44.48091" lon="9.14107">
        <ele>806.68</ele>
        <time>2016-10-07T15:29:31Z</time>
      </trkpt>
      <trkpt lat="44.48094" lon="9.14115">
        <ele>805.72</ele>
        <time>2016-10-07T15:29:32Z</time>
      </trkpt>
      <trkpt lat="44.48096" lon="9.14123">
        <ele>805.24</ele>
        <time>2016-10-07T15:29:33Z</time>
      </trkpt>
      <trkpt lat="44.48097" lon="9.14132">
        <ele>804.76</ele>
        <time>2016-10-07T15:29:34Z</time>
      </trkpt>
      <trkpt lat="44.48097" lon="9.1414">
        <ele>802.84</ele>
        <time>2016-10-07T15:29:35Z</time>
      </trkpt>
      <trkpt lat="44.48098" lon="9.14149">
        <ele>802.84</ele>
        <time>2016-10-07T15:29:36Z</time>
      </trkpt>
      <trkpt lat="44.48099" lon="9.14158">
        <ele>801.88</ele>
        <time>2016-10-07T15:29:37Z</time>
      </trkpt>
      <trkpt lat="44.48101" lon="9.14166">
        <ele>800.92</ele>
        <time>2016-10-07T15:29:38Z</time>
      </trkpt>
      <trkpt lat="44.48111" lon="9.14191">
        <ele>799.47</ele>
        <time>2016-10-07T15:29:41Z</time>
      </trkpt>
      <trkpt lat="44.48114" lon="9.14199">
        <ele>798.51</ele>
        <time>2016-10-07T15:29:42Z</time>
      </trkpt>
      <trkpt lat="44.48117" lon="9.14209">
        <ele>797.55</ele>
        <time>2016-10-07T15:29:43Z</time>
      </trkpt>
      <trkpt lat="44.48124" lon="9.14262">
        <ele>794.19</ele>
        <time>2016-10-07T15:29:48Z</time>
      </trkpt>
      <trkpt lat="44.48127" lon="9.14294">
        <ele>791.3</ele>
        <time>2016-10-07T15:29:51Z</time>
      </trkpt>
      <trkpt lat="44.48128" lon="9.14305">
        <ele>790.82</ele>
        <time>2016-10-07T15:29:52Z</time>
      </trkpt>
      <trkpt lat="44.48134" lon="9.1434">
        <ele>787.46</ele>
        <time>2016-10-07T15:29:55Z</time>
      </trkpt>
      <trkpt lat="44.48136" lon="9.14352">
        <ele>786.98</ele>
        <time>2016-10-07T15:29:56Z</time>
      </trkpt>
      <trkpt lat="44.48146" lon="9.14403">
        <ele>785.53</ele>
        <time>2016-10-07T15:30:01Z</time>
      </trkpt>
      <trkpt lat="44.48147" lon="9.14413">
        <ele>785.53</ele>
        <time>2016-10-07T15:30:02Z</time>
      </trkpt>
      <trkpt lat="44.48148" lon="9.14441">
        <ele>783.61</ele>
        <time>2016-10-07T15:30:05Z</time>
      </trkpt>
      <trkpt lat="44.48149" lon="9.14449">
        <ele>783.13</ele>
        <time>2016-10-07T15:30:06Z</time>
      </trkpt>
      <trkpt lat="44.48152" lon="9.14458">
        <ele>781.69</ele>
        <time>2016-10-07T15:30:07Z</time>
      </trkpt>
      <trkpt lat="44.48164" lon="9.14489">
        <ele>779.77</ele>
        <time>2016-10-07T15:30:11Z</time>
      </trkpt>
      <trkpt lat="44.48165" lon="9.14497">
        <ele>778.32</ele>
        <time>2016-10-07T15:30:12Z</time>
      </trkpt>
      <trkpt lat="44.48167" lon="9.14514">
        <ele>777.84</ele>
        <time>2016-10-07T15:30:14Z</time>
      </trkpt>
      <trkpt lat="44.4817" lon="9.14522">
        <ele>776.88</ele>
        <time>2016-10-07T15:30:15Z</time>
      </trkpt>
      <trkpt lat="44.48177" lon="9.14538">
        <ele>775.92</ele>
        <time>2016-10-07T15:30:17Z</time>
      </trkpt>
      <trkpt lat="44.48179" lon="9.14547">
        <ele>774.96</ele>
        <time>2016-10-07T15:30:18Z</time>
      </trkpt>
      <trkpt lat="44.48184" lon="9.14571">
        <ele>773.04</ele>
        <time>2016-10-07T15:30:21Z</time>
      </trkpt>
      <trkpt lat="44.48185" lon="9.14579">
        <ele>772.08</ele>
        <time>2016-10-07T15:30:22Z</time>
      </trkpt>
      <trkpt lat="44.48184" lon="9.14588">
        <ele>771.6</ele>
        <time>2016-10-07T15:30:23Z</time>
      </trkpt>
      <trkpt lat="44.48181" lon="9.14597">
        <ele>770.63</ele>
        <time>2016-10-07T15:30:24Z</time>
      </trkpt>
      <trkpt lat="44.48178" lon="9.14606">
        <ele>769.67</ele>
        <time>2016-10-07T15:30:25Z</time>
      </trkpt>
      <trkpt lat="44.48174" lon="9.14614">
        <ele>768.71</ele>
        <time>2016-10-07T15:30:26Z</time>
      </trkpt>
      <trkpt lat="44.48164" lon="9.14635">
        <ele>767.27</ele>
        <time>2016-10-07T15:30:29Z</time>
      </trkpt>
      <trkpt lat="44.48162" lon="9.14642">
        <ele>766.31</ele>
        <time>2016-10-07T15:30:30Z</time>
      </trkpt>
      <trkpt lat="44.4816" lon="9.14649">
        <ele>765.83</ele>
        <time>2016-10-07T15:30:31Z</time>
      </trkpt>
      <trkpt lat="44.48157" lon="9.14681">
        <ele>763.42</ele>
        <time>2016-10-07T15:30:35Z</time>
      </trkpt>
      <trkpt lat="44.48157" lon="9.14689">
        <ele>763.42</ele>
        <time>2016-10-07T15:30:36Z</time>
      </trkpt>
      <trkpt lat="44.48158" lon="9.14697">
        <ele>762.94</ele>
        <time>2016-10-07T15:30:37Z</time>
      </trkpt>
      <trkpt lat="44.48161" lon="9.14704">
        <ele>761.98</ele>
        <time>2016-10-07T15:30:38Z</time>
      </trkpt>
      <trkpt lat="44.48165" lon="9.14712">
        <ele>761.5</ele>
        <time>2016-10-07T15:30:39Z</time>
      </trkpt>
      <trkpt lat="44.48173" lon="9.1473">
        <ele>760.06</ele>
        <time>2016-10-07T15:30:41Z</time>
      </trkpt>
      <trkpt lat="44.48176" lon="9.14739">
        <ele>759.1</ele>
        <time>2016-10-07T15:30:42Z</time>
      </trkpt>
      <trkpt lat="44.48181" lon="9.14755">
        <ele>758.14</ele>
        <time>2016-10-07T15:30:44Z</time>
      </trkpt>
      <trkpt lat="44.48184" lon="9.14762">
        <ele>757.18</ele>
        <time>2016-10-07T15:30:45Z</time>
      </trkpt>
      <trkpt lat="44.48187" lon="9.14769">
        <ele>757.18</ele>
        <time>2016-10-07T15:30:46Z</time>
      </trkpt>
      <trkpt lat="44.4819" lon="9.14776">
        <ele>756.69</ele>
        <time>2016-10-07T15:30:47Z</time>
      </trkpt>
      <trkpt lat="44.4819" lon="9.14784">
        <ele>755.73</ele>
        <time>2016-10-07T15:30:48Z</time>
      </trkpt>
      <trkpt lat="44.48189" lon="9.14791">
        <ele>755.25</ele>
        <time>2016-10-07T15:30:49Z</time>
      </trkpt>
      <trkpt lat="44.48186" lon="9.14797">
        <ele>755.25</ele>
        <time>2016-10-07T15:30:50Z</time>
      </trkpt>
      <trkpt lat="44.48183" lon="9.14804">
        <ele>754.29</ele>
        <time>2016-10-07T15:30:51Z</time>
      </trkpt>
      <trkpt lat="44.48182" lon="9.14811">
        <ele>753.81</ele>
        <time>2016-10-07T15:30:52Z</time>
      </trkpt>
      <trkpt lat="44.4817" lon="9.14851">
        <ele>751.89</ele>
        <time>2016-10-07T15:30:58Z</time>
      </trkpt>
      <trkpt lat="44.48167" lon="9.14857">
        <ele>751.41</ele>
        <time>2016-10-07T15:30:59Z</time>
      </trkpt>
      <trkpt lat="44.48164" lon="9.14862">
        <ele>751.41</ele>
        <time>2016-10-07T15:31:00Z</time>
      </trkpt>
      <trkpt lat="44.48157" lon="9.14872">
        <ele>750.45</ele>
        <time>2016-10-07T15:31:02Z</time>
      </trkpt>
      <trkpt lat="44.48144" lon="9.14887">
        <ele>748.52</ele>
        <time>2016-10-07T15:31:05Z</time>
      </trkpt>
      <trkpt lat="44.48134" lon="9.14895">
        <ele>747.56</ele>
        <time>2016-10-07T15:31:07Z</time>
      </trkpt>
      <trkpt lat="44.48128" lon="9.14898">
        <ele>747.56</ele>
        <time>2016-10-07T15:31:08Z</time>
      </trkpt>
      <trkpt lat="44.48117" lon="9.14904">
        <ele>746.12</ele>
        <time>2016-10-07T15:31:10Z</time>
      </trkpt>
      <trkpt lat="44.48112" lon="9.14908">
        <ele>745.16</ele>
        <time>2016-10-07T15:31:11Z</time>
      </trkpt>
      <trkpt lat="44.48107" lon="9.14913">
        <ele>744.2</ele>
        <time>2016-10-07T15:31:12Z</time>
      </trkpt>
      <trkpt lat="44.48103" lon="9.14919">
        <ele>744.68</ele>
        <time>2016-10-07T15:31:13Z</time>
      </trkpt>
      <trkpt lat="44.481" lon="9.14925">
        <ele>744.2</ele>
        <time>2016-10-07T15:31:14Z</time>
      </trkpt>
      <trkpt lat="44.48093" lon="9.14938">
        <ele>743.72</ele>
        <time>2016-10-07T15:31:16Z</time>
      </trkpt>
      <trkpt lat="44.48081" lon="9.14957">
        <ele>742.28</ele>
        <time>2016-10-07T15:31:19Z</time>
      </trkpt>
      <trkpt lat="44.48077" lon="9.14965">
        <ele>741.31</ele>
        <time>2016-10-07T15:31:20Z</time>
      </trkpt>
      <trkpt lat="44.48073" lon="9.14972">
        <ele>740.83</ele>
        <time>2016-10-07T15:31:21Z</time>
      </trkpt>
      <trkpt lat="44.48071" lon="9.14979">
        <ele>740.83</ele>
        <time>2016-10-07T15:31:22Z</time>
      </trkpt>
      <trkpt lat="44.48069" lon="9.14985">
        <ele>740.35</ele>
        <time>2016-10-07T15:31:23Z</time>
      </trkpt>
      <trkpt lat="44.48068" lon="9.14993">
        <ele>739.39</ele>
        <time>2016-10-07T15:31:24Z</time>
      </trkpt>
      <trkpt lat="44.48068" lon="9.15">
        <ele>739.39</ele>
        <time>2016-10-07T15:31:25Z</time>
      </trkpt>
      <trkpt lat="44.4807" lon="9.15007">
        <ele>738.43</ele>
        <time>2016-10-07T15:31:26Z</time>
      </trkpt>
      <trkpt lat="44.48072" lon="9.15014">
        <ele>738.43</ele>
        <time>2016-10-07T15:31:27Z</time>
      </trkpt>
      <trkpt lat="44.48078" lon="9.15028">
        <ele>736.99</ele>
        <time>2016-10-07T15:31:29Z</time>
      </trkpt>
      <trkpt lat="44.48083" lon="9.15044">
        <ele>736.03</ele>
        <time>2016-10-07T15:31:31Z</time>
      </trkpt>
      <trkpt lat="44.48098" lon="9.15079">
        <ele>733.14</ele>
        <time>2016-10-07T15:31:36Z</time>
      </trkpt>
      <trkpt lat="44.48099" lon="9.15086">
        <ele>733.62</ele>
        <time>2016-10-07T15:31:37Z</time>
      </trkpt>
      <trkpt lat="44.48099" lon="9.15093">
        <ele>732.66</ele>
        <time>2016-10-07T15:31:38Z</time>
      </trkpt>
      <trkpt lat="44.48097" lon="9.15099">
        <ele>732.18</ele>
        <time>2016-10-07T15:31:39Z</time>
      </trkpt>
      <trkpt lat="44.48093" lon="9.15104">
        <ele>731.7</ele>
        <time>2016-10-07T15:31:40Z</time>
      </trkpt>
      <trkpt lat="44.48088" lon="9.15108">
        <ele>730.26</ele>
        <time>2016-10-07T15:31:41Z</time>
      </trkpt>
      <trkpt lat="44.48084" lon="9.15111">
        <ele>729.78</ele>
        <time>2016-10-07T15:31:42Z</time>
      </trkpt>
      <trkpt lat="44.48079" lon="9.15115">
        <ele>730.26</ele>
        <time>2016-10-07T15:31:43Z</time>
      </trkpt>
      <trkpt lat="44.48074" lon="9.1512">
        <ele>729.3</ele>
        <time>2016-10-07T15:31:44Z</time>
      </trkpt>
      <trkpt lat="44.48069" lon="9.15126">
        <ele>728.34</ele>
        <time>2016-10-07T15:31:45Z</time>
      </trkpt>
      <trkpt lat="44.48065" lon="9.15131">
        <ele>727.86</ele>
        <time>2016-10-07T15:31:46Z</time>
      </trkpt>
      <trkpt lat="44.48061" lon="9.15138">
        <ele>726.89</ele>
        <time>2016-10-07T15:31:47Z</time>
      </trkpt>
      <trkpt lat="44.48058" lon="9.15146">
        <ele>725.93</ele>
        <time>2016-10-07T15:31:48Z</time>
      </trkpt>
      <trkpt lat="44.48055" lon="9.15154">
        <ele>725.45</ele>
        <time>2016-10-07T15:31:49Z</time>
      </trkpt>
      <trkpt lat="44.48052" lon="9.15163">
        <ele>724.97</ele>
        <time>2016-10-07T15:31:50Z</time>
      </trkpt>
      <trkpt lat="44.48037" lon="9.15217">
        <ele>722.09</ele>
        <time>2016-10-07T15:31:56Z</time>
      </trkpt>
      <trkpt lat="44.4803" lon="9.15241">
        <ele>719.68</ele>
        <time>2016-10-07T15:31:59Z</time>
      </trkpt>
      <trkpt lat="44.48029" lon="9.15248">
        <ele>720.16</ele>
        <time>2016-10-07T15:32:00Z</time>
      </trkpt>
      <trkpt lat="44.48029" lon="9.15255">
        <ele>719.68</ele>
        <time>2016-10-07T15:32:01Z</time>
      </trkpt>
      <trkpt lat="44.4803" lon="9.15263">
        <ele>718.72</ele>
        <time>2016-10-07T15:32:02Z</time>
      </trkpt>
      <trkpt lat="44.48033" lon="9.1527">
        <ele>718.24</ele>
        <time>2016-10-07T15:32:03Z</time>
      </trkpt>
      <trkpt lat="44.48036" lon="9.15276">
        <ele>718.24</ele>
        <time>2016-10-07T15:32:04Z</time>
      </trkpt>
      <trkpt lat="44.4804" lon="9.15282">
        <ele>717.28</ele>
        <time>2016-10-07T15:32:05Z</time>
      </trkpt>
      <trkpt lat="44.48046" lon="9.15287">
        <ele>717.28</ele>
        <time>2016-10-07T15:32:06Z</time>
      </trkpt>
      <trkpt lat="44.48069" lon="9.15319">
        <ele>713.92</ele>
        <time>2016-10-07T15:32:11Z</time>
      </trkpt>
      <trkpt lat="44.48073" lon="9.15325">
        <ele>713.92</ele>
        <time>2016-10-07T15:32:12Z</time>
      </trkpt>
      <trkpt lat="44.48075" lon="9.15332">
        <ele>713.92</ele>
        <time>2016-10-07T15:32:13Z</time>
      </trkpt>
      <trkpt lat="44.48077" lon="9.15339">
        <ele>712.95</ele>
        <time>2016-10-07T15:32:14Z</time>
      </trkpt>
      <trkpt lat="44.4808" lon="9.15365">
        <ele>711.03</ele>
        <time>2016-10-07T15:32:17Z</time>
      </trkpt>
      <trkpt lat="44.4808" lon="9.15381">
        <ele>710.55</ele>
        <time>2016-10-07T15:32:19Z</time>
      </trkpt>
      <trkpt lat="44.48084" lon="9.15403">
        <ele>709.11</ele>
        <time>2016-10-07T15:32:22Z</time>
      </trkpt>
      <trkpt lat="44.48086" lon="9.1541">
        <ele>708.15</ele>
        <time>2016-10-07T15:32:23Z</time>
      </trkpt>
      <trkpt lat="44.4809" lon="9.15416">
        <ele>708.15</ele>
        <time>2016-10-07T15:32:24Z</time>
      </trkpt>
      <trkpt lat="44.48095" lon="9.15421">
        <ele>707.19</ele>
        <time>2016-10-07T15:32:25Z</time>
      </trkpt>
      <trkpt lat="44.481" lon="9.15424">
        <ele>706.71</ele>
        <time>2016-10-07T15:32:26Z</time>
      </trkpt>
      <trkpt lat="44.48106" lon="9.15427">
        <ele>707.19</ele>
        <time>2016-10-07T15:32:27Z</time>
      </trkpt>
      <trkpt lat="44.48112" lon="9.15429">
        <ele>706.23</ele>
        <time>2016-10-07T15:32:28Z</time>
      </trkpt>
      <trkpt lat="44.48117" lon="9.1543">
        <ele>704.78</ele>
        <time>2016-10-07T15:32:29Z</time>
      </trkpt>
      <trkpt lat="44.48123" lon="9.15431">
        <ele>704.78</ele>
        <time>2016-10-07T15:32:30Z</time>
      </trkpt>
      <trkpt lat="44.48127" lon="9.15433">
        <ele>704.3</ele>
        <time>2016-10-07T15:32:31Z</time>
      </trkpt>
      <trkpt lat="44.48131" lon="9.15437">
        <ele>703.82</ele>
        <time>2016-10-07T15:32:32Z</time>
      </trkpt>
      <trkpt lat="44.48133" lon="9.15442">
        <ele>703.34</ele>
        <time>2016-10-07T15:32:33Z</time>
      </trkpt>
      <trkpt lat="44.48133" lon="9.15449">
        <ele>702.86</ele>
        <time>2016-10-07T15:32:34Z</time>
      </trkpt>
      <trkpt lat="44.48131" lon="9.15455">
        <ele>702.38</ele>
        <time>2016-10-07T15:32:35Z</time>
      </trkpt>
      <trkpt lat="44.48128" lon="9.15462">
        <ele>701.9</ele>
        <time>2016-10-07T15:32:36Z</time>
      </trkpt>
      <trkpt lat="44.48126" lon="9.15471">
        <ele>701.9</ele>
        <time>2016-10-07T15:32:37Z</time>
      </trkpt>
      <trkpt lat="44.48125" lon="9.1548">
        <ele>700.94</ele>
        <time>2016-10-07T15:32:38Z</time>
      </trkpt>
      <trkpt lat="44.48126" lon="9.15489">
        <ele>700.46</ele>
        <time>2016-10-07T15:32:39Z</time>
      </trkpt>
      <trkpt lat="44.48127" lon="9.15498">
        <ele>699.5</ele>
        <time>2016-10-07T15:32:40Z</time>
      </trkpt>
      <trkpt lat="44.48126" lon="9.15507">
        <ele>699.02</ele>
        <time>2016-10-07T15:32:41Z</time>
      </trkpt>
      <trkpt lat="44.48124" lon="9.15515">
        <ele>698.05</ele>
        <time>2016-10-07T15:32:42Z</time>
      </trkpt>
      <trkpt lat="44.48121" lon="9.15522">
        <ele>698.53</ele>
        <time>2016-10-07T15:32:43Z</time>
      </trkpt>
      <trkpt lat="44.48116" lon="9.15526">
        <ele>698.53</ele>
        <time>2016-10-07T15:32:44Z</time>
      </trkpt>
      <trkpt lat="44.48111" lon="9.15528">
        <ele>698.05</ele>
        <time>2016-10-07T15:32:45Z</time>
      </trkpt>
      <trkpt lat="44.48105" lon="9.15528">
        <ele>698.05</ele>
        <time>2016-10-07T15:32:46Z</time>
      </trkpt>
      <trkpt lat="44.48099" lon="9.15526">
        <ele>697.09</ele>
        <time>2016-10-07T15:32:47Z</time>
      </trkpt>
      <trkpt lat="44.48094" lon="9.15522">
        <ele>696.61</ele>
        <time>2016-10-07T15:32:48Z</time>
      </trkpt>
      <trkpt lat="44.48088" lon="9.15518">
        <ele>696.13</ele>
        <time>2016-10-07T15:32:49Z</time>
      </trkpt>
      <trkpt lat="44.48069" lon="9.15507">
        <ele>697.57</ele>
        <time>2016-10-07T15:32:53Z</time>
      </trkpt>
      <trkpt lat="44.48052" lon="9.15504">
        <ele>697.57</ele>
        <time>2016-10-07T15:32:56Z</time>
      </trkpt>
      <trkpt lat="44.48045" lon="9.15505">
        <ele>696.61</ele>
        <time>2016-10-07T15:32:57Z</time>
      </trkpt>
      <trkpt lat="44.48039" lon="9.15508">
        <ele>697.09</ele>
        <time>2016-10-07T15:32:58Z</time>
      </trkpt>
      <trkpt lat="44.48033" lon="9.15511">
        <ele>696.13</ele>
        <time>2016-10-07T15:32:59Z</time>
      </trkpt>
      <trkpt lat="44.48027" lon="9.15515">
        <ele>695.17</ele>
        <time>2016-10-07T15:33:00Z</time>
      </trkpt>
      <trkpt lat="44.48021" lon="9.15519">
        <ele>695.65</ele>
        <time>2016-10-07T15:33:01Z</time>
      </trkpt>
      <trkpt lat="44.48015" lon="9.15521">
        <ele>695.17</ele>
        <time>2016-10-07T15:33:02Z</time>
      </trkpt>
      <trkpt lat="44.4801" lon="9.1552">
        <ele>695.17</ele>
        <time>2016-10-07T15:33:03Z</time>
      </trkpt>
      <trkpt lat="44.48005" lon="9.15516">
        <ele>694.69</ele>
        <time>2016-10-07T15:33:04Z</time>
      </trkpt>
      <trkpt lat="44.48002" lon="9.15511">
        <ele>695.65</ele>
        <time>2016-10-07T15:33:05Z</time>
      </trkpt>
      <trkpt lat="44.48001" lon="9.15505">
        <ele>695.65</ele>
        <time>2016-10-07T15:33:06Z</time>
      </trkpt>
      <trkpt lat="44.48002" lon="9.15499">
        <ele>696.13</ele>
        <time>2016-10-07T15:33:07Z</time>
      </trkpt>
      <trkpt lat="44.48002" lon="9.15493">
        <ele>695.65</ele>
        <time>2016-10-07T15:33:08Z</time>
      </trkpt>
      <trkpt lat="44.48003" lon="9.15487">
        <ele>696.61</ele>
        <time>2016-10-07T15:33:09Z</time>
      </trkpt>
      <trkpt lat="44.48004" lon="9.15481">
        <ele>696.61</ele>
        <time>2016-10-07T15:33:10Z</time>
      </trkpt>
      <trkpt lat="44.48004" lon="9.15476">
        <ele>697.09</ele>
        <time>2016-10-07T15:33:11Z</time>
      </trkpt>
      <trkpt lat="44.48004" lon="9.1546">
        <ele>697.09</ele>
        <time>2016-10-07T15:33:14Z</time>
      </trkpt>
      <trkpt lat="44.48001" lon="9.15456">
        <ele>697.09</ele>
        <time>2016-10-07T15:33:15Z</time>
      </trkpt>
      <trkpt lat="44.47999" lon="9.15453">
        <ele>697.09</ele>
        <time>2016-10-07T15:33:16Z</time>
      </trkpt>
      <trkpt lat="44.47996" lon="9.1545">
        <ele>697.09</ele>
        <time>2016-10-07T15:33:17Z</time>
      </trkpt>
      <trkpt lat="44.47993" lon="9.15448">
        <ele>696.61</ele>
        <time>2016-10-07T15:33:18Z</time>
      </trkpt>
      <trkpt lat="44.47978" lon="9.15444">
        <ele>697.09</ele>
        <time>2016-10-07T15:33:22Z</time>
      </trkpt>
      <trkpt lat="44.47937" lon="9.15453">
        <ele>695.65</ele>
        <time>2016-10-07T15:33:31Z</time>
      </trkpt>
      <trkpt lat="44.47919" lon="9.1547">
        <ele>695.65</ele>
        <time>2016-10-07T15:33:35Z</time>
      </trkpt>
      <trkpt lat="44.47915" lon="9.1547">
        <ele>694.69</ele>
        <time>2016-10-07T15:33:36Z</time>
      </trkpt>
      <trkpt lat="44.47911" lon="9.15469">
        <ele>695.17</ele>
        <time>2016-10-07T15:33:37Z</time>
      </trkpt>
      <trkpt lat="44.47907" lon="9.15465">
        <ele>694.69</ele>
        <time>2016-10-07T15:33:38Z</time>
      </trkpt>
      <trkpt lat="44.47905" lon="9.15459">
        <ele>694.69</ele>
        <time>2016-10-07T15:33:39Z</time>
      </trkpt>
      <trkpt lat="44.47904" lon="9.15454">
        <ele>694.69</ele>
        <time>2016-10-07T15:33:40Z</time>
      </trkpt>
      <trkpt lat="44.47903" lon="9.15448">
        <ele>694.69</ele>
        <time>2016-10-07T15:33:41Z</time>
      </trkpt>
      <trkpt lat="44.47902" lon="9.15442">
        <ele>694.21</ele>
        <time>2016-10-07T15:33:42Z</time>
      </trkpt>
      <trkpt lat="44.47898" lon="9.15437">
        <ele>694.21</ele>
        <time>2016-10-07T15:33:43Z</time>
      </trkpt>
      <trkpt lat="44.47894" lon="9.15432">
        <ele>693.73</ele>
        <time>2016-10-07T15:33:44Z</time>
      </trkpt>
      <trkpt lat="44.47888" lon="9.15428">
        <ele>693.73</ele>
        <time>2016-10-07T15:33:45Z</time>
      </trkpt>
      <trkpt lat="44.47881" lon="9.15426">
        <ele>692.77</ele>
        <time>2016-10-07T15:33:46Z</time>
      </trkpt>
      <trkpt lat="44.47874" lon="9.15424">
        <ele>691.81</ele>
        <time>2016-10-07T15:33:47Z</time>
      </trkpt>
      <trkpt lat="44.47868" lon="9.1542">
        <ele>691.33</ele>
        <time>2016-10-07T15:33:48Z</time>
      </trkpt>
      <trkpt lat="44.47862" lon="9.15416">
        <ele>691.81</ele>
        <time>2016-10-07T15:33:49Z</time>
      </trkpt>
      <trkpt lat="44.47857" lon="9.15411">
        <ele>691.81</ele>
        <time>2016-10-07T15:33:50Z</time>
      </trkpt>
      <trkpt lat="44.47853" lon="9.15405">
        <ele>691.81</ele>
        <time>2016-10-07T15:33:51Z</time>
      </trkpt>
      <trkpt lat="44.4785" lon="9.15397">
        <ele>690.84</ele>
        <time>2016-10-07T15:33:52Z</time>
      </trkpt>
      <trkpt lat="44.47847" lon="9.15389">
        <ele>690.84</ele>
        <time>2016-10-07T15:33:53Z</time>
      </trkpt>
      <trkpt lat="44.47838" lon="9.15364">
        <ele>689.88</ele>
        <time>2016-10-07T15:33:56Z</time>
      </trkpt>
      <trkpt lat="44.47834" lon="9.15356">
        <ele>689.4</ele>
        <time>2016-10-07T15:33:57Z</time>
      </trkpt>
      <trkpt lat="44.47829" lon="9.1535">
        <ele>689.4</ele>
        <time>2016-10-07T15:33:58Z</time>
      </trkpt>
      <trkpt lat="44.47823" lon="9.15345">
        <ele>689.88</ele>
        <time>2016-10-07T15:33:59Z</time>
      </trkpt>
      <trkpt lat="44.47818" lon="9.1534">
        <ele>689.4</ele>
        <time>2016-10-07T15:34:00Z</time>
      </trkpt>
      <trkpt lat="44.47813" lon="9.15336">
        <ele>688.92</ele>
        <time>2016-10-07T15:34:01Z</time>
      </trkpt>
      <trkpt lat="44.47809" lon="9.15332">
        <ele>688.92</ele>
        <time>2016-10-07T15:34:02Z</time>
      </trkpt>
      <trkpt lat="44.47758" lon="9.15272">
        <ele>687.96</ele>
        <time>2016-10-07T15:34:14Z</time>
      </trkpt>
      <trkpt lat="44.47757" lon="9.15264">
        <ele>688.44</ele>
        <time>2016-10-07T15:34:15Z</time>
      </trkpt>
      <trkpt lat="44.47757" lon="9.15257">
        <ele>688.44</ele>
        <time>2016-10-07T15:34:16Z</time>
      </trkpt>
      <trkpt lat="44.47758" lon="9.15249">
        <ele>687.96</ele>
        <time>2016-10-07T15:34:17Z</time>
      </trkpt>
      <trkpt lat="44.47761" lon="9.15242">
        <ele>687.48</ele>
        <time>2016-10-07T15:34:18Z</time>
      </trkpt>
      <trkpt lat="44.47767" lon="9.15217">
        <ele>687.96</ele>
        <time>2016-10-07T15:34:22Z</time>
      </trkpt>
      <trkpt lat="44.47767" lon="9.1521">
        <ele>688.44</ele>
        <time>2016-10-07T15:34:23Z</time>
      </trkpt>
      <trkpt lat="44.47767" lon="9.15203">
        <ele>687.96</ele>
        <time>2016-10-07T15:34:24Z</time>
      </trkpt>
      <trkpt lat="44.47766" lon="9.15196">
        <ele>687.96</ele>
        <time>2016-10-07T15:34:25Z</time>
      </trkpt>
      <trkpt lat="44.47764" lon="9.1519">
        <ele>687.48</ele>
        <time>2016-10-07T15:34:26Z</time>
      </trkpt>
      <trkpt lat="44.47759" lon="9.15184">
        <ele>687.48</ele>
        <time>2016-10-07T15:34:27Z</time>
      </trkpt>
      <trkpt lat="44.47754" lon="9.15179">
        <ele>687.48</ele>
        <time>2016-10-07T15:34:28Z</time>
      </trkpt>
      <trkpt lat="44.47748" lon="9.15175">
        <ele>687.48</ele>
        <time>2016-10-07T15:34:29Z</time>
      </trkpt>
      <trkpt lat="44.47743" lon="9.15171">
        <ele>687.48</ele>
        <time>2016-10-07T15:34:30Z</time>
      </trkpt>
      <trkpt lat="44.47737" lon="9.15166">
        <ele>686.52</ele>
        <time>2016-10-07T15:34:31Z</time>
      </trkpt>
      <trkpt lat="44.47733" lon="9.1516">
        <ele>686.52</ele>
        <time>2016-10-07T15:34:32Z</time>
      </trkpt>
      <trkpt lat="44.47729" lon="9.15154">
        <ele>686.52</ele>
        <time>2016-10-07T15:34:33Z</time>
      </trkpt>
      <trkpt lat="44.47726" lon="9.15147">
        <ele>686.04</ele>
        <time>2016-10-07T15:34:34Z</time>
      </trkpt>
      <trkpt lat="44.47723" lon="9.1514">
        <ele>686.52</ele>
        <time>2016-10-07T15:34:35Z</time>
      </trkpt>
      <trkpt lat="44.47711" lon="9.15114">
        <ele>686.52</ele>
        <time>2016-10-07T15:34:39Z</time>
      </trkpt>
      <trkpt lat="44.47707" lon="9.15108">
        <ele>687</ele>
        <time>2016-10-07T15:34:40Z</time>
      </trkpt>
      <trkpt lat="44.47703" lon="9.15104">
        <ele>686.04</ele>
        <time>2016-10-07T15:34:41Z</time>
      </trkpt>
      <trkpt lat="44.47699" lon="9.151">
        <ele>686.52</ele>
        <time>2016-10-07T15:34:42Z</time>
      </trkpt>
      <trkpt lat="44.47695" lon="9.15098">
        <ele>686.52</ele>
        <time>2016-10-07T15:34:43Z</time>
      </trkpt>
      <trkpt lat="44.47691" lon="9.15097">
        <ele>687.48</ele>
        <time>2016-10-07T15:34:44Z</time>
      </trkpt>
      <trkpt lat="44.47687" lon="9.15097">
        <ele>687.96</ele>
        <time>2016-10-07T15:34:45Z</time>
      </trkpt>
      <trkpt lat="44.47683" lon="9.15097">
        <ele>687.48</ele>
        <time>2016-10-07T15:34:46Z</time>
      </trkpt>
      <trkpt lat="44.47641" lon="9.15109">
        <ele>687.48</ele>
        <time>2016-10-07T15:34:57Z</time>
      </trkpt>
      <trkpt lat="44.47632" lon="9.15111">
        <ele>687</ele>
        <time>2016-10-07T15:34:59Z</time>
      </trkpt>
      <trkpt lat="44.47627" lon="9.15111">
        <ele>687</ele>
        <time>2016-10-07T15:35:00Z</time>
      </trkpt>
      <trkpt lat="44.47618" lon="9.1511">
        <ele>686.52</ele>
        <time>2016-10-07T15:35:02Z</time>
      </trkpt>
      <trkpt lat="44.47614" lon="9.1511">
        <ele>686.52</ele>
        <time>2016-10-07T15:35:03Z</time>
      </trkpt>
      <trkpt lat="44.4761" lon="9.15111">
        <ele>686.52</ele>
        <time>2016-10-07T15:35:04Z</time>
      </trkpt>
      <trkpt lat="44.47606" lon="9.15115">
        <ele>686.52</ele>
        <time>2016-10-07T15:35:05Z</time>
      </trkpt>
      <trkpt lat="44.47603" lon="9.15118">
        <ele>686.04</ele>
        <time>2016-10-07T15:35:06Z</time>
      </trkpt>
      <trkpt lat="44.47599" lon="9.1512">
        <ele>686.52</ele>
        <time>2016-10-07T15:35:07Z</time>
      </trkpt>
      <trkpt lat="44.47595" lon="9.15121">
        <ele>686.52</ele>
        <time>2016-10-07T15:35:08Z</time>
      </trkpt>
      <trkpt lat="44.47567" lon="9.15113">
        <ele>685.56</ele>
        <time>2016-10-07T15:35:15Z</time>
      </trkpt>
      <trkpt lat="44.47552" lon="9.15099">
        <ele>685.56</ele>
        <time>2016-10-07T15:35:19Z</time>
      </trkpt>
      <trkpt lat="44.47548" lon="9.15094">
        <ele>684.6</ele>
        <time>2016-10-07T15:35:20Z</time>
      </trkpt>
      <trkpt lat="44.4753" lon="9.15074">
        <ele>684.6</ele>
        <time>2016-10-07T15:35:24Z</time>
      </trkpt>
      <trkpt lat="44.47525" lon="9.15071">
        <ele>684.12</ele>
        <time>2016-10-07T15:35:25Z</time>
      </trkpt>
      <trkpt lat="44.47519" lon="9.15068">
        <ele>684.12</ele>
        <time>2016-10-07T15:35:26Z</time>
      </trkpt>
      <trkpt lat="44.47514" lon="9.15066">
        <ele>683.63</ele>
        <time>2016-10-07T15:35:27Z</time>
      </trkpt>
      <trkpt lat="44.47508" lon="9.15067">
        <ele>683.63</ele>
        <time>2016-10-07T15:35:28Z</time>
      </trkpt>
      <trkpt lat="44.47502" lon="9.15068">
        <ele>683.15</ele>
        <time>2016-10-07T15:35:29Z</time>
      </trkpt>
      <trkpt lat="44.47496" lon="9.15071">
        <ele>682.67</ele>
        <time>2016-10-07T15:35:30Z</time>
      </trkpt>
      <trkpt lat="44.4749" lon="9.15076">
        <ele>682.67</ele>
        <time>2016-10-07T15:35:31Z</time>
      </trkpt>
      <trkpt lat="44.47454" lon="9.15102">
        <ele>680.75</ele>
        <time>2016-10-07T15:35:37Z</time>
      </trkpt>
      <trkpt lat="44.47447" lon="9.15105">
        <ele>680.75</ele>
        <time>2016-10-07T15:35:38Z</time>
      </trkpt>
      <trkpt lat="44.4744" lon="9.15107">
        <ele>680.27</ele>
        <time>2016-10-07T15:35:39Z</time>
      </trkpt>
      <trkpt lat="44.47433" lon="9.15108">
        <ele>679.79</ele>
        <time>2016-10-07T15:35:40Z</time>
      </trkpt>
      <trkpt lat="44.47426" lon="9.15109">
        <ele>679.79</ele>
        <time>2016-10-07T15:35:41Z</time>
      </trkpt>
      <trkpt lat="44.47415" lon="9.15109">
        <ele>680.27</ele>
        <time>2016-10-07T15:35:43Z</time>
      </trkpt>
      <trkpt lat="44.4741" lon="9.15108">
        <ele>680.75</ele>
        <time>2016-10-07T15:35:44Z</time>
      </trkpt>
      <trkpt lat="44.47405" lon="9.15106">
        <ele>680.27</ele>
        <time>2016-10-07T15:35:45Z</time>
      </trkpt>
      <trkpt lat="44.47402" lon="9.15101">
        <ele>679.79</ele>
        <time>2016-10-07T15:35:46Z</time>
      </trkpt>
      <trkpt lat="44.47398" lon="9.15096">
        <ele>680.27</ele>
        <time>2016-10-07T15:35:47Z</time>
      </trkpt>
      <trkpt lat="44.47395" lon="9.15089">
        <ele>679.79</ele>
        <time>2016-10-07T15:35:48Z</time>
      </trkpt>
      <trkpt lat="44.47374" lon="9.15057">
        <ele>678.35</ele>
        <time>2016-10-07T15:35:53Z</time>
      </trkpt>
      <trkpt lat="44.4737" lon="9.15052">
        <ele>677.87</ele>
        <time>2016-10-07T15:35:54Z</time>
      </trkpt>
      <trkpt lat="44.47364" lon="9.15048">
        <ele>678.83</ele>
        <time>2016-10-07T15:35:55Z</time>
      </trkpt>
      <trkpt lat="44.47358" lon="9.15047">
        <ele>676.91</ele>
        <time>2016-10-07T15:35:56Z</time>
      </trkpt>
      <trkpt lat="44.47352" lon="9.15046">
        <ele>676.91</ele>
        <time>2016-10-07T15:35:57Z</time>
      </trkpt>
      <trkpt lat="44.47345" lon="9.15046">
        <ele>677.39</ele>
        <time>2016-10-07T15:35:58Z</time>
      </trkpt>
      <trkpt lat="44.4731" lon="9.15048">
        <ele>675.94</ele>
        <time>2016-10-07T15:36:03Z</time>
      </trkpt>
      <trkpt lat="44.47304" lon="9.1505">
        <ele>675.94</ele>
        <time>2016-10-07T15:36:04Z</time>
      </trkpt>
      <trkpt lat="44.47299" lon="9.15054">
        <ele>675.46</ele>
        <time>2016-10-07T15:36:05Z</time>
      </trkpt>
      <trkpt lat="44.47295" lon="9.1506">
        <ele>674.98</ele>
        <time>2016-10-07T15:36:06Z</time>
      </trkpt>
      <trkpt lat="44.47291" lon="9.15066">
        <ele>674.5</ele>
        <time>2016-10-07T15:36:07Z</time>
      </trkpt>
      <trkpt lat="44.47287" lon="9.1507">
        <ele>674.5</ele>
        <time>2016-10-07T15:36:08Z</time>
      </trkpt>
      <trkpt lat="44.47281" lon="9.15072">
        <ele>674.98</ele>
        <time>2016-10-07T15:36:09Z</time>
      </trkpt>
      <trkpt lat="44.47276" lon="9.15072">
        <ele>674.5</ele>
        <time>2016-10-07T15:36:10Z</time>
      </trkpt>
      <trkpt lat="44.47271" lon="9.15071">
        <ele>674.98</ele>
        <time>2016-10-07T15:36:11Z</time>
      </trkpt>
      <trkpt lat="44.47265" lon="9.15068">
        <ele>674.02</ele>
        <time>2016-10-07T15:36:12Z</time>
      </trkpt>
      <trkpt lat="44.4726" lon="9.15065">
        <ele>674.02</ele>
        <time>2016-10-07T15:36:13Z</time>
      </trkpt>
      <trkpt lat="44.47254" lon="9.15061">
        <ele>674.02</ele>
        <time>2016-10-07T15:36:14Z</time>
      </trkpt>
      <trkpt lat="44.47248" lon="9.15057">
        <ele>673.06</ele>
        <time>2016-10-07T15:36:15Z</time>
      </trkpt>
      <trkpt lat="44.47236" lon="9.15047">
        <ele>672.58</ele>
        <time>2016-10-07T15:36:17Z</time>
      </trkpt>
      <trkpt lat="44.47231" lon="9.15043">
        <ele>672.1</ele>
        <time>2016-10-07T15:36:18Z</time>
      </trkpt>
      <trkpt lat="44.47215" lon="9.15036">
        <ele>672.1</ele>
        <time>2016-10-07T15:36:21Z</time>
      </trkpt>
      <trkpt lat="44.4721" lon="9.15037">
        <ele>671.62</ele>
        <time>2016-10-07T15:36:22Z</time>
      </trkpt>
      <trkpt lat="44.47205" lon="9.15039">
        <ele>671.14</ele>
        <time>2016-10-07T15:36:23Z</time>
      </trkpt>
      <trkpt lat="44.472" lon="9.1504">
        <ele>671.14</ele>
        <time>2016-10-07T15:36:24Z</time>
      </trkpt>
      <trkpt lat="44.47194" lon="9.15038">
        <ele>670.66</ele>
        <time>2016-10-07T15:36:25Z</time>
      </trkpt>
      <trkpt lat="44.47189" lon="9.15035">
        <ele>668.73</ele>
        <time>2016-10-07T15:36:26Z</time>
      </trkpt>
      <trkpt lat="44.47184" lon="9.1503">
        <ele>669.7</ele>
        <time>2016-10-07T15:36:27Z</time>
      </trkpt>
      <trkpt lat="44.4718" lon="9.15024">
        <ele>669.22</ele>
        <time>2016-10-07T15:36:28Z</time>
      </trkpt>
      <trkpt lat="44.47166" lon="9.14997">
        <ele>667.29</ele>
        <time>2016-10-07T15:36:32Z</time>
      </trkpt>
      <trkpt lat="44.47164" lon="9.14988">
        <ele>666.81</ele>
        <time>2016-10-07T15:36:33Z</time>
      </trkpt>
      <trkpt lat="44.47163" lon="9.1498">
        <ele>666.81</ele>
        <time>2016-10-07T15:36:34Z</time>
      </trkpt>
      <trkpt lat="44.47163" lon="9.14971">
        <ele>665.85</ele>
        <time>2016-10-07T15:36:35Z</time>
      </trkpt>
      <trkpt lat="44.47163" lon="9.14963">
        <ele>665.85</ele>
        <time>2016-10-07T15:36:36Z</time>
      </trkpt>
      <trkpt lat="44.47163" lon="9.14955">
        <ele>665.37</ele>
        <time>2016-10-07T15:36:37Z</time>
      </trkpt>
      <trkpt lat="44.47162" lon="9.14948">
        <ele>664.89</ele>
        <time>2016-10-07T15:36:38Z</time>
      </trkpt>
      <trkpt lat="44.47161" lon="9.14942">
        <ele>664.89</ele>
        <time>2016-10-07T15:36:39Z</time>
      </trkpt>
      <trkpt lat="44.47159" lon="9.14936">
        <ele>664.41</ele>
        <time>2016-10-07T15:36:40Z</time>
      </trkpt>
      <trkpt lat="44.47156" lon="9.14931">
        <ele>663.93</ele>
        <time>2016-10-07T15:36:41Z</time>
      </trkpt>
      <trkpt lat="44.47152" lon="9.14925">
        <ele>662.97</ele>
        <time>2016-10-07T15:36:42Z</time>
      </trkpt>
      <trkpt lat="44.47147" lon="9.1492">
        <ele>662.97</ele>
        <time>2016-10-07T15:36:43Z</time>
      </trkpt>
      <trkpt lat="44.47141" lon="9.14916">
        <ele>662.49</ele>
        <time>2016-10-07T15:36:44Z</time>
      </trkpt>
      <trkpt lat="44.47136" lon="9.14912">
        <ele>662.01</ele>
        <time>2016-10-07T15:36:45Z</time>
      </trkpt>
      <trkpt lat="44.4713" lon="9.14911">
        <ele>662.01</ele>
        <time>2016-10-07T15:36:46Z</time>
      </trkpt>
      <trkpt lat="44.47124" lon="9.14911">
        <ele>662.01</ele>
        <time>2016-10-07T15:36:47Z</time>
      </trkpt>
      <trkpt lat="44.47118" lon="9.14915">
        <ele>661.52</ele>
        <time>2016-10-07T15:36:48Z</time>
      </trkpt>
      <trkpt lat="44.47113" lon="9.1492">
        <ele>662.01</ele>
        <time>2016-10-07T15:36:49Z</time>
      </trkpt>
      <trkpt lat="44.47108" lon="9.14926">
        <ele>662.01</ele>
        <time>2016-10-07T15:36:50Z</time>
      </trkpt>
      <trkpt lat="44.47097" lon="9.14937">
        <ele>661.04</ele>
        <time>2016-10-07T15:36:52Z</time>
      </trkpt>
      <trkpt lat="44.47092" lon="9.14941">
        <ele>660.08</ele>
        <time>2016-10-07T15:36:53Z</time>
      </trkpt>
      <trkpt lat="44.47086" lon="9.14941">
        <ele>660.08</ele>
        <time>2016-10-07T15:36:54Z</time>
      </trkpt>
      <trkpt lat="44.47081" lon="9.1494">
        <ele>659.12</ele>
        <time>2016-10-07T15:36:55Z</time>
      </trkpt>
      <trkpt lat="44.47076" lon="9.14937">
        <ele>659.6</ele>
        <time>2016-10-07T15:36:56Z</time>
      </trkpt>
      <trkpt lat="44.47072" lon="9.14931">
        <ele>658.64</ele>
        <time>2016-10-07T15:36:57Z</time>
      </trkpt>
      <trkpt lat="44.47069" lon="9.14924">
        <ele>658.16</ele>
        <time>2016-10-07T15:36:58Z</time>
      </trkpt>
      <trkpt lat="44.47067" lon="9.14916">
        <ele>658.16</ele>
        <time>2016-10-07T15:36:59Z</time>
      </trkpt>
      <trkpt lat="44.47065" lon="9.14908">
        <ele>658.16</ele>
        <time>2016-10-07T15:37:00Z</time>
      </trkpt>
      <trkpt lat="44.47062" lon="9.149">
        <ele>657.2</ele>
        <time>2016-10-07T15:37:01Z</time>
      </trkpt>
      <trkpt lat="44.47059" lon="9.14892">
        <ele>657.2</ele>
        <time>2016-10-07T15:37:02Z</time>
      </trkpt>
      <trkpt lat="44.47054" lon="9.14884">
        <ele>656.72</ele>
        <time>2016-10-07T15:37:03Z</time>
      </trkpt>
      <trkpt lat="44.47049" lon="9.14878">
        <ele>655.76</ele>
        <time>2016-10-07T15:37:04Z</time>
      </trkpt>
      <trkpt lat="44.47044" lon="9.14873">
        <ele>655.28</ele>
        <time>2016-10-07T15:37:05Z</time>
      </trkpt>
      <trkpt lat="44.47034" lon="9.1486">
        <ele>653.83</ele>
        <time>2016-10-07T15:37:07Z</time>
      </trkpt>
      <trkpt lat="44.4703" lon="9.14852">
        <ele>653.35</ele>
        <time>2016-10-07T15:37:08Z</time>
      </trkpt>
      <trkpt lat="44.47027" lon="9.14842">
        <ele>653.35</ele>
        <time>2016-10-07T15:37:09Z</time>
      </trkpt>
      <trkpt lat="44.47018" lon="9.14804">
        <ele>651.43</ele>
        <time>2016-10-07T15:37:13Z</time>
      </trkpt>
      <trkpt lat="44.47014" lon="9.14786">
        <ele>650.47</ele>
        <time>2016-10-07T15:37:15Z</time>
      </trkpt>
      <trkpt lat="44.47001" lon="9.14749">
        <ele>648.55</ele>
        <time>2016-10-07T15:37:20Z</time>
      </trkpt>
      <trkpt lat="44.46993" lon="9.14728">
        <ele>648.07</ele>
        <time>2016-10-07T15:37:24Z</time>
      </trkpt>
      <trkpt lat="44.46989" lon="9.14724">
        <ele>647.1</ele>
        <time>2016-10-07T15:37:25Z</time>
      </trkpt>
      <trkpt lat="44.46984" lon="9.14721">
        <ele>647.1</ele>
        <time>2016-10-07T15:37:26Z</time>
      </trkpt>
      <trkpt lat="44.46978" lon="9.14719">
        <ele>646.62</ele>
        <time>2016-10-07T15:37:27Z</time>
      </trkpt>
      <trkpt lat="44.46972" lon="9.14717">
        <ele>646.14</ele>
        <time>2016-10-07T15:37:28Z</time>
      </trkpt>
      <trkpt lat="44.46967" lon="9.14718">
        <ele>646.62</ele>
        <time>2016-10-07T15:37:29Z</time>
      </trkpt>
      <trkpt lat="44.46961" lon="9.1472">
        <ele>645.66</ele>
        <time>2016-10-07T15:37:30Z</time>
      </trkpt>
      <trkpt lat="44.46955" lon="9.14722">
        <ele>646.14</ele>
        <time>2016-10-07T15:37:31Z</time>
      </trkpt>
      <trkpt lat="44.46926" lon="9.14731">
        <ele>645.66</ele>
        <time>2016-10-07T15:37:36Z</time>
      </trkpt>
      <trkpt lat="44.46908" lon="9.14733">
        <ele>646.14</ele>
        <time>2016-10-07T15:37:39Z</time>
      </trkpt>
      <trkpt lat="44.46903" lon="9.14736">
        <ele>645.66</ele>
        <time>2016-10-07T15:37:40Z</time>
      </trkpt>
      <trkpt lat="44.46899" lon="9.14739">
        <ele>646.14</ele>
        <time>2016-10-07T15:37:41Z</time>
      </trkpt>
      <trkpt lat="44.46877" lon="9.14757">
        <ele>645.66</ele>
        <time>2016-10-07T15:37:46Z</time>
      </trkpt>
      <trkpt lat="44.46872" lon="9.14757">
        <ele>645.18</ele>
        <time>2016-10-07T15:37:47Z</time>
      </trkpt>
      <trkpt lat="44.46867" lon="9.14755">
        <ele>644.7</ele>
        <time>2016-10-07T15:37:48Z</time>
      </trkpt>
      <trkpt lat="44.46862" lon="9.14752">
        <ele>644.22</ele>
        <time>2016-10-07T15:37:49Z</time>
      </trkpt>
      <trkpt lat="44.46856" lon="9.14749">
        <ele>644.22</ele>
        <time>2016-10-07T15:37:50Z</time>
      </trkpt>
      <trkpt lat="44.46851" lon="9.14746">
        <ele>643.74</ele>
        <time>2016-10-07T15:37:51Z</time>
      </trkpt>
      <trkpt lat="44.46833" lon="9.14733">
        <ele>643.26</ele>
        <time>2016-10-07T15:37:54Z</time>
      </trkpt>
      <trkpt lat="44.46827" lon="9.1473">
        <ele>643.74</ele>
        <time>2016-10-07T15:37:55Z</time>
      </trkpt>
      <trkpt lat="44.46821" lon="9.14729">
        <ele>643.26</ele>
        <time>2016-10-07T15:37:56Z</time>
      </trkpt>
      <trkpt lat="44.46815" lon="9.14728">
        <ele>643.26</ele>
        <time>2016-10-07T15:37:57Z</time>
      </trkpt>
      <trkpt lat="44.46809" lon="9.14728">
        <ele>643.26</ele>
        <time>2016-10-07T15:37:58Z</time>
      </trkpt>
      <trkpt lat="44.46803" lon="9.14729">
        <ele>643.74</ele>
        <time>2016-10-07T15:37:59Z</time>
      </trkpt>
      <trkpt lat="44.46797" lon="9.14731">
        <ele>643.74</ele>
        <time>2016-10-07T15:38:00Z</time>
      </trkpt>
      <trkpt lat="44.46791" lon="9.14734">
        <ele>643.26</ele>
        <time>2016-10-07T15:38:01Z</time>
      </trkpt>
      <trkpt lat="44.46785" lon="9.14737">
        <ele>642.78</ele>
        <time>2016-10-07T15:38:02Z</time>
      </trkpt>
      <trkpt lat="44.46758" lon="9.14746">
        <ele>644.22</ele>
        <time>2016-10-07T15:38:07Z</time>
      </trkpt>
      <trkpt lat="44.46747" lon="9.14747">
        <ele>643.74</ele>
        <time>2016-10-07T15:38:09Z</time>
      </trkpt>
      <trkpt lat="44.46742" lon="9.14747">
        <ele>643.74</ele>
        <time>2016-10-07T15:38:10Z</time>
      </trkpt>
      <trkpt lat="44.46695" lon="9.14737">
        <ele>646.62</ele>
        <time>2016-10-07T15:38:22Z</time>
      </trkpt>
      <trkpt lat="44.46647" lon="9.14748">
        <ele>648.07</ele>
        <time>2016-10-07T15:38:39Z</time>
      </trkpt>
      <trkpt lat="44.46644" lon="9.14754">
        <ele>648.55</ele>
        <time>2016-10-07T15:38:41Z</time>
      </trkpt>
      <trkpt lat="44.46645" lon="9.14758">
        <ele>649.03</ele>
        <time>2016-10-07T15:38:42Z</time>
      </trkpt>
      <trkpt lat="44.46646" lon="9.14762">
        <ele>648.55</ele>
        <time>2016-10-07T15:38:43Z</time>
      </trkpt>
      <trkpt lat="44.46649" lon="9.14767">
        <ele>649.03</ele>
        <time>2016-10-07T15:38:44Z</time>
      </trkpt>
      <trkpt lat="44.46652" lon="9.14772">
        <ele>648.07</ele>
        <time>2016-10-07T15:38:45Z</time>
      </trkpt>
      <trkpt lat="44.46656" lon="9.14776">
        <ele>647.59</ele>
        <time>2016-10-07T15:38:46Z</time>
      </trkpt>
      <trkpt lat="44.4666" lon="9.1478">
        <ele>646.62</ele>
        <time>2016-10-07T15:38:47Z</time>
      </trkpt>
      <trkpt lat="44.46665" lon="9.14783">
        <ele>646.62</ele>
        <time>2016-10-07T15:38:48Z</time>
      </trkpt>
      <trkpt lat="44.46684" lon="9.14804">
        <ele>645.18</ele>
        <time>2016-10-07T15:38:52Z</time>
      </trkpt>
      <trkpt lat="44.46688" lon="9.1481">
        <ele>644.22</ele>
        <time>2016-10-07T15:38:53Z</time>
      </trkpt>
      <trkpt lat="44.46692" lon="9.14818">
        <ele>643.26</ele>
        <time>2016-10-07T15:38:54Z</time>
      </trkpt>
      <trkpt lat="44.46696" lon="9.14825">
        <ele>643.26</ele>
        <time>2016-10-07T15:38:55Z</time>
      </trkpt>
      <trkpt lat="44.46699" lon="9.14832">
        <ele>643.74</ele>
        <time>2016-10-07T15:38:56Z</time>
      </trkpt>
      <trkpt lat="44.46709" lon="9.14855">
        <ele>640.38</ele>
        <time>2016-10-07T15:38:59Z</time>
      </trkpt>
      <trkpt lat="44.46713" lon="9.14862">
        <ele>639.89</ele>
        <time>2016-10-07T15:39:00Z</time>
      </trkpt>
      <trkpt lat="44.46717" lon="9.14868">
        <ele>638.93</ele>
        <time>2016-10-07T15:39:01Z</time>
      </trkpt>
      <trkpt lat="44.46722" lon="9.14874">
        <ele>639.41</ele>
        <time>2016-10-07T15:39:02Z</time>
      </trkpt>
      <trkpt lat="44.46727" lon="9.1488">
        <ele>638.45</ele>
        <time>2016-10-07T15:39:03Z</time>
      </trkpt>
      <trkpt lat="44.4673" lon="9.14886">
        <ele>638.45</ele>
        <time>2016-10-07T15:39:04Z</time>
      </trkpt>
      <trkpt lat="44.46732" lon="9.14893">
        <ele>637.97</ele>
        <time>2016-10-07T15:39:05Z</time>
      </trkpt>
      <trkpt lat="44.46732" lon="9.14902">
        <ele>637.01</ele>
        <time>2016-10-07T15:39:06Z</time>
      </trkpt>
      <trkpt lat="44.46731" lon="9.14911">
        <ele>636.53</ele>
        <time>2016-10-07T15:39:07Z</time>
      </trkpt>
      <trkpt lat="44.4673" lon="9.14918">
        <ele>636.05</ele>
        <time>2016-10-07T15:39:08Z</time>
      </trkpt>
      <trkpt lat="44.46728" lon="9.14925">
        <ele>635.57</ele>
        <time>2016-10-07T15:39:09Z</time>
      </trkpt>
      <trkpt lat="44.46727" lon="9.14932">
        <ele>635.09</ele>
        <time>2016-10-07T15:39:10Z</time>
      </trkpt>
      <trkpt lat="44.46727" lon="9.14939">
        <ele>634.61</ele>
        <time>2016-10-07T15:39:11Z</time>
      </trkpt>
      <trkpt lat="44.46728" lon="9.14947">
        <ele>634.13</ele>
        <time>2016-10-07T15:39:12Z</time>
      </trkpt>
      <trkpt lat="44.4673" lon="9.14955">
        <ele>633.65</ele>
        <time>2016-10-07T15:39:13Z</time>
      </trkpt>
      <trkpt lat="44.46733" lon="9.14964">
        <ele>633.17</ele>
        <time>2016-10-07T15:39:14Z</time>
      </trkpt>
      <trkpt lat="44.46734" lon="9.14973">
        <ele>633.17</ele>
        <time>2016-10-07T15:39:15Z</time>
      </trkpt>
      <trkpt lat="44.46733" lon="9.14981">
        <ele>632.68</ele>
        <time>2016-10-07T15:39:16Z</time>
      </trkpt>
      <trkpt lat="44.4673" lon="9.1499">
        <ele>632.2</ele>
        <time>2016-10-07T15:39:17Z</time>
      </trkpt>
      <trkpt lat="44.46727" lon="9.14999">
        <ele>631.72</ele>
        <time>2016-10-07T15:39:18Z</time>
      </trkpt>
      <trkpt lat="44.46723" lon="9.15006">
        <ele>630.76</ele>
        <time>2016-10-07T15:39:19Z</time>
      </trkpt>
      <trkpt lat="44.4672" lon="9.15014">
        <ele>630.76</ele>
        <time>2016-10-07T15:39:20Z</time>
      </trkpt>
      <trkpt lat="44.46714" lon="9.15027">
        <ele>629.32</ele>
        <time>2016-10-07T15:39:22Z</time>
      </trkpt>
      <trkpt lat="44.46713" lon="9.15035">
        <ele>628.84</ele>
        <time>2016-10-07T15:39:23Z</time>
      </trkpt>
      <trkpt lat="44.46713" lon="9.15042">
        <ele>628.36</ele>
        <time>2016-10-07T15:39:24Z</time>
      </trkpt>
      <trkpt lat="44.46716" lon="9.15049">
        <ele>627.88</ele>
        <time>2016-10-07T15:39:25Z</time>
      </trkpt>
      <trkpt lat="44.4672" lon="9.15057">
        <ele>626.92</ele>
        <time>2016-10-07T15:39:26Z</time>
      </trkpt>
      <trkpt lat="44.46724" lon="9.15064">
        <ele>626.92</ele>
        <time>2016-10-07T15:39:27Z</time>
      </trkpt>
      <trkpt lat="44.46728" lon="9.1507">
        <ele>625.47</ele>
        <time>2016-10-07T15:39:28Z</time>
      </trkpt>
      <trkpt lat="44.46733" lon="9.15076">
        <ele>625.96</ele>
        <time>2016-10-07T15:39:29Z</time>
      </trkpt>
      <trkpt lat="44.46744" lon="9.15087">
        <ele>624.99</ele>
        <time>2016-10-07T15:39:31Z</time>
      </trkpt>
      <trkpt lat="44.4675" lon="9.1509">
        <ele>624.51</ele>
        <time>2016-10-07T15:39:32Z</time>
      </trkpt>
      <trkpt lat="44.46756" lon="9.15091">
        <ele>624.03</ele>
        <time>2016-10-07T15:39:33Z</time>
      </trkpt>
      <trkpt lat="44.46762" lon="9.15092">
        <ele>623.55</ele>
        <time>2016-10-07T15:39:34Z</time>
      </trkpt>
      <trkpt lat="44.46767" lon="9.15093">
        <ele>624.03</ele>
        <time>2016-10-07T15:39:35Z</time>
      </trkpt>
      <trkpt lat="44.46772" lon="9.15095">
        <ele>623.55</ele>
        <time>2016-10-07T15:39:36Z</time>
      </trkpt>
      <trkpt lat="44.46775" lon="9.15099">
        <ele>622.59</ele>
        <time>2016-10-07T15:39:37Z</time>
      </trkpt>
      <trkpt lat="44.46777" lon="9.15106">
        <ele>622.11</ele>
        <time>2016-10-07T15:39:38Z</time>
      </trkpt>
      <trkpt lat="44.46777" lon="9.15114">
        <ele>619.71</ele>
        <time>2016-10-07T15:39:39Z</time>
      </trkpt>
      <trkpt lat="44.46775" lon="9.15122">
        <ele>620.67</ele>
        <time>2016-10-07T15:39:40Z</time>
      </trkpt>
      <trkpt lat="44.46772" lon="9.15129">
        <ele>619.23</ele>
        <time>2016-10-07T15:39:41Z</time>
      </trkpt>
      <trkpt lat="44.46767" lon="9.15144">
        <ele>618.75</ele>
        <time>2016-10-07T15:39:43Z</time>
      </trkpt>
      <trkpt lat="44.46766" lon="9.15152">
        <ele>617.78</ele>
        <time>2016-10-07T15:39:44Z</time>
      </trkpt>
      <trkpt lat="44.46765" lon="9.1516">
        <ele>616.82</ele>
        <time>2016-10-07T15:39:45Z</time>
      </trkpt>
      <trkpt lat="44.46765" lon="9.15169">
        <ele>616.34</ele>
        <time>2016-10-07T15:39:46Z</time>
      </trkpt>
      <trkpt lat="44.46767" lon="9.15178">
        <ele>615.86</ele>
        <time>2016-10-07T15:39:47Z</time>
      </trkpt>
      <trkpt lat="44.4677" lon="9.15207">
        <ele>614.9</ele>
        <time>2016-10-07T15:39:50Z</time>
      </trkpt>
      <trkpt lat="44.46773" lon="9.15217">
        <ele>614.42</ele>
        <time>2016-10-07T15:39:51Z</time>
      </trkpt>
      <trkpt lat="44.46776" lon="9.15227">
        <ele>613.94</ele>
        <time>2016-10-07T15:39:52Z</time>
      </trkpt>
      <trkpt lat="44.46778" lon="9.15237">
        <ele>612.98</ele>
        <time>2016-10-07T15:39:53Z</time>
      </trkpt>
      <trkpt lat="44.46779" lon="9.15247">
        <ele>612.5</ele>
        <time>2016-10-07T15:39:54Z</time>
      </trkpt>
      <trkpt lat="44.46779" lon="9.15256">
        <ele>612.02</ele>
        <time>2016-10-07T15:39:55Z</time>
      </trkpt>
      <trkpt lat="44.46778" lon="9.15266">
        <ele>611.06</ele>
        <time>2016-10-07T15:39:56Z</time>
      </trkpt>
      <trkpt lat="44.46775" lon="9.15274">
        <ele>611.06</ele>
        <time>2016-10-07T15:39:57Z</time>
      </trkpt>
      <trkpt lat="44.46769" lon="9.15281">
        <ele>610.09</ele>
        <time>2016-10-07T15:39:58Z</time>
      </trkpt>
      <trkpt lat="44.46763" lon="9.15287">
        <ele>610.09</ele>
        <time>2016-10-07T15:39:59Z</time>
      </trkpt>
      <trkpt lat="44.46757" lon="9.15291">
        <ele>609.13</ele>
        <time>2016-10-07T15:40:00Z</time>
      </trkpt>
      <trkpt lat="44.46731" lon="9.1531">
        <ele>606.25</ele>
        <time>2016-10-07T15:40:04Z</time>
      </trkpt>
      <trkpt lat="44.46726" lon="9.15316">
        <ele>604.81</ele>
        <time>2016-10-07T15:40:05Z</time>
      </trkpt>
      <trkpt lat="44.46722" lon="9.15324">
        <ele>604.33</ele>
        <time>2016-10-07T15:40:06Z</time>
      </trkpt>
      <trkpt lat="44.46712" lon="9.15339">
        <ele>602.88</ele>
        <time>2016-10-07T15:40:08Z</time>
      </trkpt>
      <trkpt lat="44.46707" lon="9.15346">
        <ele>602.88</ele>
        <time>2016-10-07T15:40:09Z</time>
      </trkpt>
      <trkpt lat="44.46701" lon="9.1535">
        <ele>600.96</ele>
        <time>2016-10-07T15:40:10Z</time>
      </trkpt>
      <trkpt lat="44.46694" lon="9.15354">
        <ele>600.48</ele>
        <time>2016-10-07T15:40:11Z</time>
      </trkpt>
      <trkpt lat="44.46688" lon="9.15356">
        <ele>599.04</ele>
        <time>2016-10-07T15:40:12Z</time>
      </trkpt>
      <trkpt lat="44.46681" lon="9.15356">
        <ele>598.08</ele>
        <time>2016-10-07T15:40:13Z</time>
      </trkpt>
      <trkpt lat="44.46675" lon="9.15356">
        <ele>596.15</ele>
        <time>2016-10-07T15:40:14Z</time>
      </trkpt>
      <trkpt lat="44.46662" lon="9.15358">
        <ele>594.23</ele>
        <time>2016-10-07T15:40:16Z</time>
      </trkpt>
      <trkpt lat="44.46656" lon="9.1536">
        <ele>594.23</ele>
        <time>2016-10-07T15:40:17Z</time>
      </trkpt>
      <trkpt lat="44.46649" lon="9.15364">
        <ele>593.75</ele>
        <time>2016-10-07T15:40:18Z</time>
      </trkpt>
      <trkpt lat="44.46631" lon="9.15375">
        <ele>590.39</ele>
        <time>2016-10-07T15:40:21Z</time>
      </trkpt>
      <trkpt lat="44.46625" lon="9.15377">
        <ele>589.91</ele>
        <time>2016-10-07T15:40:22Z</time>
      </trkpt>
      <trkpt lat="44.46619" lon="9.15377">
        <ele>589.43</ele>
        <time>2016-10-07T15:40:23Z</time>
      </trkpt>
      <trkpt lat="44.46613" lon="9.15377">
        <ele>587.98</ele>
        <time>2016-10-07T15:40:24Z</time>
      </trkpt>
      <trkpt lat="44.46607" lon="9.15375">
        <ele>587.98</ele>
        <time>2016-10-07T15:40:25Z</time>
      </trkpt>
      <trkpt lat="44.466" lon="9.15373">
        <ele>587.02</ele>
        <time>2016-10-07T15:40:26Z</time>
      </trkpt>
      <trkpt lat="44.46593" lon="9.15374">
        <ele>586.54</ele>
        <time>2016-10-07T15:40:27Z</time>
      </trkpt>
      <trkpt lat="44.46586" lon="9.15376">
        <ele>585.58</ele>
        <time>2016-10-07T15:40:28Z</time>
      </trkpt>
      <trkpt lat="44.4658" lon="9.1538">
        <ele>584.14</ele>
        <time>2016-10-07T15:40:29Z</time>
      </trkpt>
      <trkpt lat="44.46575" lon="9.15385">
        <ele>583.66</ele>
        <time>2016-10-07T15:40:30Z</time>
      </trkpt>
      <trkpt lat="44.4657" lon="9.15392">
        <ele>582.22</ele>
        <time>2016-10-07T15:40:31Z</time>
      </trkpt>
      <trkpt lat="44.46565" lon="9.154">
        <ele>582.22</ele>
        <time>2016-10-07T15:40:32Z</time>
      </trkpt>
      <trkpt lat="44.46561" lon="9.15407">
        <ele>582.22</ele>
        <time>2016-10-07T15:40:33Z</time>
      </trkpt>
      <trkpt lat="44.46556" lon="9.15414">
        <ele>581.73</ele>
        <time>2016-10-07T15:40:34Z</time>
      </trkpt>
      <trkpt lat="44.46546" lon="9.15426">
        <ele>580.77</ele>
        <time>2016-10-07T15:40:36Z</time>
      </trkpt>
      <trkpt lat="44.46541" lon="9.15431">
        <ele>580.29</ele>
        <time>2016-10-07T15:40:37Z</time>
      </trkpt>
      <trkpt lat="44.46524" lon="9.15444">
        <ele>579.81</ele>
        <time>2016-10-07T15:40:40Z</time>
      </trkpt>
      <trkpt lat="44.46519" lon="9.15449">
        <ele>579.81</ele>
        <time>2016-10-07T15:40:41Z</time>
      </trkpt>
      <trkpt lat="44.46514" lon="9.15456">
        <ele>580.29</ele>
        <time>2016-10-07T15:40:42Z</time>
      </trkpt>
      <trkpt lat="44.4651" lon="9.15463">
        <ele>580.77</ele>
        <time>2016-10-07T15:40:43Z</time>
      </trkpt>
      <trkpt lat="44.46506" lon="9.1547">
        <ele>580.29</ele>
        <time>2016-10-07T15:40:44Z</time>
      </trkpt>
      <trkpt lat="44.46503" lon="9.15477">
        <ele>580.29</ele>
        <time>2016-10-07T15:40:45Z</time>
      </trkpt>
      <trkpt lat="44.46488" lon="9.15501">
        <ele>580.77</ele>
        <time>2016-10-07T15:40:49Z</time>
      </trkpt>
      <trkpt lat="44.46485" lon="9.15506">
        <ele>579.81</ele>
        <time>2016-10-07T15:40:50Z</time>
      </trkpt>
      <trkpt lat="44.46481" lon="9.1551">
        <ele>579.81</ele>
        <time>2016-10-07T15:40:51Z</time>
      </trkpt>
      <trkpt lat="44.46478" lon="9.15514">
        <ele>580.77</ele>
        <time>2016-10-07T15:40:52Z</time>
      </trkpt>
      <trkpt lat="44.46475" lon="9.1552">
        <ele>579.81</ele>
        <time>2016-10-07T15:40:53Z</time>
      </trkpt>
      <trkpt lat="44.46474" lon="9.15526">
        <ele>580.77</ele>
        <time>2016-10-07T15:40:54Z</time>
      </trkpt>
      <trkpt lat="44.46472" lon="9.15532">
        <ele>580.29</ele>
        <time>2016-10-07T15:40:55Z</time>
      </trkpt>
      <trkpt lat="44.4647" lon="9.15546">
        <ele>578.85</ele>
        <time>2016-10-07T15:40:57Z</time>
      </trkpt>
      <trkpt lat="44.46469" lon="9.15553">
        <ele>579.33</ele>
        <time>2016-10-07T15:40:58Z</time>
      </trkpt>
      <trkpt lat="44.46465" lon="9.15577">
        <ele>578.37</ele>
        <time>2016-10-07T15:41:01Z</time>
      </trkpt>
      <trkpt lat="44.46463" lon="9.15585">
        <ele>578.37</ele>
        <time>2016-10-07T15:41:02Z</time>
      </trkpt>
      <trkpt lat="44.4646" lon="9.15593">
        <ele>578.37</ele>
        <time>2016-10-07T15:41:03Z</time>
      </trkpt>
      <trkpt lat="44.46456" lon="9.15601">
        <ele>577.89</ele>
        <time>2016-10-07T15:41:04Z</time>
      </trkpt>
      <trkpt lat="44.46452" lon="9.15608">
        <ele>576.45</ele>
        <time>2016-10-07T15:41:05Z</time>
      </trkpt>
      <trkpt lat="44.46448" lon="9.15615">
        <ele>576.45</ele>
        <time>2016-10-07T15:41:06Z</time>
      </trkpt>
      <trkpt lat="44.46445" lon="9.15621">
        <ele>575.97</ele>
        <time>2016-10-07T15:41:07Z</time>
      </trkpt>
      <trkpt lat="44.46443" lon="9.15628">
        <ele>577.41</ele>
        <time>2016-10-07T15:41:08Z</time>
      </trkpt>
      <trkpt lat="44.46442" lon="9.15635">
        <ele>576.93</ele>
        <time>2016-10-07T15:41:09Z</time>
      </trkpt>
      <trkpt lat="44.46442" lon="9.15642">
        <ele>576.45</ele>
        <time>2016-10-07T15:41:10Z</time>
      </trkpt>
      <trkpt lat="44.46442" lon="9.15648">
        <ele>577.41</ele>
        <time>2016-10-07T15:41:11Z</time>
      </trkpt>
      <trkpt lat="44.46441" lon="9.15654">
        <ele>576.45</ele>
        <time>2016-10-07T15:41:12Z</time>
      </trkpt>
      <trkpt lat="44.46439" lon="9.15659">
        <ele>576.93</ele>
        <time>2016-10-07T15:41:13Z</time>
      </trkpt>
      <trkpt lat="44.46437" lon="9.15664">
        <ele>576.93</ele>
        <time>2016-10-07T15:41:14Z</time>
      </trkpt>
      <trkpt lat="44.46434" lon="9.15668">
        <ele>576.93</ele>
        <time>2016-10-07T15:41:15Z</time>
      </trkpt>
      <trkpt lat="44.46431" lon="9.15671">
        <ele>577.41</ele>
        <time>2016-10-07T15:41:16Z</time>
      </trkpt>
      <trkpt lat="44.46429" lon="9.15674">
        <ele>577.89</ele>
        <time>2016-10-07T15:41:17Z</time>
      </trkpt>
      <trkpt lat="44.46426" lon="9.15677">
        <ele>577.41</ele>
        <time>2016-10-07T15:41:18Z</time>
      </trkpt>
      <trkpt lat="44.46423" lon="9.1568">
        <ele>577.41</ele>
        <time>2016-10-07T15:41:19Z</time>
      </trkpt>
      <trkpt lat="44.46416" lon="9.15717">
        <ele>577.89</ele>
        <time>2016-10-07T15:41:28Z</time>
      </trkpt>
      <trkpt lat="44.46423" lon="9.15729">
        <ele>577.89</ele>
        <time>2016-10-07T15:41:31Z</time>
      </trkpt>
      <trkpt lat="44.46427" lon="9.1573">
        <ele>577.41</ele>
        <time>2016-10-07T15:41:32Z</time>
      </trkpt>
      <trkpt lat="44.46432" lon="9.15729">
        <ele>577.41</ele>
        <time>2016-10-07T15:41:33Z</time>
      </trkpt>
      <trkpt lat="44.46436" lon="9.15729">
        <ele>576.45</ele>
        <time>2016-10-07T15:41:34Z</time>
      </trkpt>
      <trkpt lat="44.46441" lon="9.15728">
        <ele>575.49</ele>
        <time>2016-10-07T15:41:35Z</time>
      </trkpt>
      <trkpt lat="44.46459" lon="9.15723">
        <ele>574.04</ele>
        <time>2016-10-07T15:41:39Z</time>
      </trkpt>
      <trkpt lat="44.46475" lon="9.1572">
        <ele>573.08</ele>
        <time>2016-10-07T15:41:42Z</time>
      </trkpt>
      <trkpt lat="44.4648" lon="9.15721">
        <ele>572.12</ele>
        <time>2016-10-07T15:41:43Z</time>
      </trkpt>
      <trkpt lat="44.46486" lon="9.15723">
        <ele>571.64</ele>
        <time>2016-10-07T15:41:44Z</time>
      </trkpt>
      <trkpt lat="44.46516" lon="9.1574">
        <ele>568.76</ele>
        <time>2016-10-07T15:41:49Z</time>
      </trkpt>
      <trkpt lat="44.46575" lon="9.15778">
        <ele>565.39</ele>
        <time>2016-10-07T15:41:58Z</time>
      </trkpt>
      <trkpt lat="44.46601" lon="9.15796">
        <ele>563.95</ele>
        <time>2016-10-07T15:42:02Z</time>
      </trkpt>
      <trkpt lat="44.46639" lon="9.1583">
        <ele>561.55</ele>
        <time>2016-10-07T15:42:08Z</time>
      </trkpt>
      <trkpt lat="44.46646" lon="9.15834">
        <ele>561.55</ele>
        <time>2016-10-07T15:42:09Z</time>
      </trkpt>
      <trkpt lat="44.46667" lon="9.15844">
        <ele>560.11</ele>
        <time>2016-10-07T15:42:12Z</time>
      </trkpt>
      <trkpt lat="44.46674" lon="9.15846">
        <ele>560.59</ele>
        <time>2016-10-07T15:42:13Z</time>
      </trkpt>
      <trkpt lat="44.46686" lon="9.15849">
        <ele>559.14</ele>
        <time>2016-10-07T15:42:15Z</time>
      </trkpt>
      <trkpt lat="44.46691" lon="9.15853">
        <ele>559.14</ele>
        <time>2016-10-07T15:42:16Z</time>
      </trkpt>
      <trkpt lat="44.46695" lon="9.15859">
        <ele>559.14</ele>
        <time>2016-10-07T15:42:17Z</time>
      </trkpt>
      <trkpt lat="44.46697" lon="9.15866">
        <ele>559.14</ele>
        <time>2016-10-07T15:42:18Z</time>
      </trkpt>
      <trkpt lat="44.46699" lon="9.15873">
        <ele>557.7</ele>
        <time>2016-10-07T15:42:19Z</time>
      </trkpt>
      <trkpt lat="44.46702" lon="9.1588">
        <ele>557.7</ele>
        <time>2016-10-07T15:42:20Z</time>
      </trkpt>
      <trkpt lat="44.46706" lon="9.15886">
        <ele>557.22</ele>
        <time>2016-10-07T15:42:21Z</time>
      </trkpt>
      <trkpt lat="44.4671" lon="9.1589">
        <ele>556.74</ele>
        <time>2016-10-07T15:42:22Z</time>
      </trkpt>
      <trkpt lat="44.46715" lon="9.15892">
        <ele>557.22</ele>
        <time>2016-10-07T15:42:23Z</time>
      </trkpt>
      <trkpt lat="44.46721" lon="9.15895">
        <ele>556.26</ele>
        <time>2016-10-07T15:42:24Z</time>
      </trkpt>
      <trkpt lat="44.46725" lon="9.15898">
        <ele>556.26</ele>
        <time>2016-10-07T15:42:25Z</time>
      </trkpt>
      <trkpt lat="44.46729" lon="9.15902">
        <ele>555.78</ele>
        <time>2016-10-07T15:42:26Z</time>
      </trkpt>
      <trkpt lat="44.4673" lon="9.15906">
        <ele>555.3</ele>
        <time>2016-10-07T15:42:27Z</time>
      </trkpt>
      <trkpt lat="44.46731" lon="9.15908">
        <ele>555.3</ele>
        <time>2016-10-07T15:42:28Z</time>
      </trkpt>
      <trkpt lat="44.46734" lon="9.15906">
        <ele>555.3</ele>
        <time>2016-10-07T15:42:44Z</time>
      </trkpt>
      <trkpt lat="44.46734" lon="9.15932">
        <ele>554.82</ele>
        <time>2016-10-07T15:42:58Z</time>
      </trkpt>
      <trkpt lat="44.46735" lon="9.15937">
        <ele>554.34</ele>
        <time>2016-10-07T15:42:59Z</time>
      </trkpt>
      <trkpt lat="44.46737" lon="9.15943">
        <ele>553.86</ele>
        <time>2016-10-07T15:43:00Z</time>
      </trkpt>
      <trkpt lat="44.4674" lon="9.15947">
        <ele>553.86</ele>
        <time>2016-10-07T15:43:01Z</time>
      </trkpt>
      <trkpt lat="44.46744" lon="9.15951">
        <ele>553.86</ele>
        <time>2016-10-07T15:43:02Z</time>
      </trkpt>
      <trkpt lat="44.46748" lon="9.15955">
        <ele>553.38</ele>
        <time>2016-10-07T15:43:03Z</time>
      </trkpt>
      <trkpt lat="44.46753" lon="9.15957">
        <ele>552.41</ele>
        <time>2016-10-07T15:43:04Z</time>
      </trkpt>
      <trkpt lat="44.46758" lon="9.15959">
        <ele>552.9</ele>
        <time>2016-10-07T15:43:05Z</time>
      </trkpt>
      <trkpt lat="44.46767" lon="9.15964">
        <ele>551.45</ele>
        <time>2016-10-07T15:43:07Z</time>
      </trkpt>
      <trkpt lat="44.4677" lon="9.15969">
        <ele>550.97</ele>
        <time>2016-10-07T15:43:08Z</time>
      </trkpt>
      <trkpt lat="44.46772" lon="9.15974">
        <ele>550.97</ele>
        <time>2016-10-07T15:43:09Z</time>
      </trkpt>
      <trkpt lat="44.46772" lon="9.15982">
        <ele>550.49</ele>
        <time>2016-10-07T15:43:10Z</time>
      </trkpt>
      <trkpt lat="44.46771" lon="9.15989">
        <ele>550.49</ele>
        <time>2016-10-07T15:43:11Z</time>
      </trkpt>
      <trkpt lat="44.46769" lon="9.15996">
        <ele>549.53</ele>
        <time>2016-10-07T15:43:12Z</time>
      </trkpt>
      <trkpt lat="44.46757" lon="9.16048">
        <ele>548.57</ele>
        <time>2016-10-07T15:43:19Z</time>
      </trkpt>
      <trkpt lat="44.46757" lon="9.16055">
        <ele>548.09</ele>
        <time>2016-10-07T15:43:20Z</time>
      </trkpt>
      <trkpt lat="44.46758" lon="9.16063">
        <ele>547.61</ele>
        <time>2016-10-07T15:43:21Z</time>
      </trkpt>
      <trkpt lat="44.46761" lon="9.16069">
        <ele>547.61</ele>
        <time>2016-10-07T15:43:22Z</time>
      </trkpt>
      <trkpt lat="44.46764" lon="9.16076">
        <ele>546.65</ele>
        <time>2016-10-07T15:43:23Z</time>
      </trkpt>
      <trkpt lat="44.46768" lon="9.16082">
        <ele>546.17</ele>
        <time>2016-10-07T15:43:24Z</time>
      </trkpt>
      <trkpt lat="44.46773" lon="9.16088">
        <ele>546.17</ele>
        <time>2016-10-07T15:43:25Z</time>
      </trkpt>
      <trkpt lat="44.46819" lon="9.16131">
        <ele>542.32</ele>
        <time>2016-10-07T15:43:33Z</time>
      </trkpt>
      <trkpt lat="44.46825" lon="9.16136">
        <ele>541.84</ele>
        <time>2016-10-07T15:43:34Z</time>
      </trkpt>
      <trkpt lat="44.46829" lon="9.16143">
        <ele>541.84</ele>
        <time>2016-10-07T15:43:35Z</time>
      </trkpt>
      <trkpt lat="44.46831" lon="9.16151">
        <ele>540.88</ele>
        <time>2016-10-07T15:43:36Z</time>
      </trkpt>
      <trkpt lat="44.46832" lon="9.16159">
        <ele>541.36</ele>
        <time>2016-10-07T15:43:37Z</time>
      </trkpt>
      <trkpt lat="44.4683" lon="9.16167">
        <ele>540.4</ele>
        <time>2016-10-07T15:43:38Z</time>
      </trkpt>
      <trkpt lat="44.46826" lon="9.16174">
        <ele>540.4</ele>
        <time>2016-10-07T15:43:39Z</time>
      </trkpt>
      <trkpt lat="44.46821" lon="9.1618">
        <ele>539.92</ele>
        <time>2016-10-07T15:43:40Z</time>
      </trkpt>
      <trkpt lat="44.46816" lon="9.16185">
        <ele>540.4</ele>
        <time>2016-10-07T15:43:41Z</time>
      </trkpt>
      <trkpt lat="44.46811" lon="9.16191">
        <ele>540.4</ele>
        <time>2016-10-07T15:43:42Z</time>
      </trkpt>
      <trkpt lat="44.46802" lon="9.16206">
        <ele>539.44</ele>
        <time>2016-10-07T15:43:44Z</time>
      </trkpt>
      <trkpt lat="44.46777" lon="9.16262">
        <ele>537.99</ele>
        <time>2016-10-07T15:43:51Z</time>
      </trkpt>
      <trkpt lat="44.46774" lon="9.1627">
        <ele>537.99</ele>
        <time>2016-10-07T15:43:52Z</time>
      </trkpt>
      <trkpt lat="44.46772" lon="9.16279">
        <ele>537.51</ele>
        <time>2016-10-07T15:43:53Z</time>
      </trkpt>
      <trkpt lat="44.46768" lon="9.16286">
        <ele>537.03</ele>
        <time>2016-10-07T15:43:54Z</time>
      </trkpt>
      <trkpt lat="44.46763" lon="9.16291">
        <ele>537.03</ele>
        <time>2016-10-07T15:43:55Z</time>
      </trkpt>
      <trkpt lat="44.46756" lon="9.16294">
        <ele>536.55</ele>
        <time>2016-10-07T15:43:56Z</time>
      </trkpt>
      <trkpt lat="44.4675" lon="9.16294">
        <ele>536.55</ele>
        <time>2016-10-07T15:43:57Z</time>
      </trkpt>
      <trkpt lat="44.46743" lon="9.16294">
        <ele>537.03</ele>
        <time>2016-10-07T15:43:58Z</time>
      </trkpt>
      <trkpt lat="44.46725" lon="9.16296">
        <ele>536.55</ele>
        <time>2016-10-07T15:44:01Z</time>
      </trkpt>
      <trkpt lat="44.4672" lon="9.163">
        <ele>536.55</ele>
        <time>2016-10-07T15:44:02Z</time>
      </trkpt>
      <trkpt lat="44.46715" lon="9.16305">
        <ele>536.55</ele>
        <time>2016-10-07T15:44:03Z</time>
      </trkpt>
      <trkpt lat="44.46702" lon="9.16327">
        <ele>535.59</ele>
        <time>2016-10-07T15:44:06Z</time>
      </trkpt>
      <trkpt lat="44.46695" lon="9.16343">
        <ele>535.11</ele>
        <time>2016-10-07T15:44:08Z</time>
      </trkpt>
      <trkpt lat="44.4669" lon="9.16349">
        <ele>534.63</ele>
        <time>2016-10-07T15:44:09Z</time>
      </trkpt>
      <trkpt lat="44.46685" lon="9.16352">
        <ele>534.63</ele>
        <time>2016-10-07T15:44:10Z</time>
      </trkpt>
      <trkpt lat="44.46679" lon="9.16352">
        <ele>534.63</ele>
        <time>2016-10-07T15:44:11Z</time>
      </trkpt>
      <trkpt lat="44.46674" lon="9.16349">
        <ele>534.63</ele>
        <time>2016-10-07T15:44:12Z</time>
      </trkpt>
      <trkpt lat="44.46668" lon="9.16345">
        <ele>534.15</ele>
        <time>2016-10-07T15:44:13Z</time>
      </trkpt>
      <trkpt lat="44.46662" lon="9.1634">
        <ele>534.15</ele>
        <time>2016-10-07T15:44:14Z</time>
      </trkpt>
      <trkpt lat="44.46656" lon="9.16337">
        <ele>533.19</ele>
        <time>2016-10-07T15:44:15Z</time>
      </trkpt>
      <trkpt lat="44.4665" lon="9.16333">
        <ele>532.71</ele>
        <time>2016-10-07T15:44:16Z</time>
      </trkpt>
      <trkpt lat="44.46626" lon="9.1632">
        <ele>533.19</ele>
        <time>2016-10-07T15:44:20Z</time>
      </trkpt>
      <trkpt lat="44.4662" lon="9.16319">
        <ele>533.67</ele>
        <time>2016-10-07T15:44:21Z</time>
      </trkpt>
      <trkpt lat="44.46614" lon="9.16319">
        <ele>532.71</ele>
        <time>2016-10-07T15:44:22Z</time>
      </trkpt>
      <trkpt lat="44.46608" lon="9.16323">
        <ele>533.67</ele>
        <time>2016-10-07T15:44:23Z</time>
      </trkpt>
      <trkpt lat="44.46602" lon="9.16327">
        <ele>533.19</ele>
        <time>2016-10-07T15:44:24Z</time>
      </trkpt>
      <trkpt lat="44.46597" lon="9.16333">
        <ele>533.19</ele>
        <time>2016-10-07T15:44:25Z</time>
      </trkpt>
      <trkpt lat="44.46591" lon="9.16339">
        <ele>532.23</ele>
        <time>2016-10-07T15:44:26Z</time>
      </trkpt>
      <trkpt lat="44.46586" lon="9.16344">
        <ele>531.75</ele>
        <time>2016-10-07T15:44:27Z</time>
      </trkpt>
      <trkpt lat="44.4658" lon="9.16348">
        <ele>531.75</ele>
        <time>2016-10-07T15:44:28Z</time>
      </trkpt>
      <trkpt lat="44.46575" lon="9.16351">
        <ele>531.27</ele>
        <time>2016-10-07T15:44:29Z</time>
      </trkpt>
      <trkpt lat="44.46569" lon="9.16352">
        <ele>531.75</ele>
        <time>2016-10-07T15:44:30Z</time>
      </trkpt>
      <trkpt lat="44.46563" lon="9.16352">
        <ele>531.75</ele>
        <time>2016-10-07T15:44:31Z</time>
      </trkpt>
      <trkpt lat="44.46557" lon="9.16352">
        <ele>530.79</ele>
        <time>2016-10-07T15:44:32Z</time>
      </trkpt>
      <trkpt lat="44.46551" lon="9.1635">
        <ele>531.27</ele>
        <time>2016-10-07T15:44:33Z</time>
      </trkpt>
      <trkpt lat="44.46544" lon="9.16348">
        <ele>531.27</ele>
        <time>2016-10-07T15:44:34Z</time>
      </trkpt>
      <trkpt lat="44.4653" lon="9.16345">
        <ele>531.27</ele>
        <time>2016-10-07T15:44:36Z</time>
      </trkpt>
      <trkpt lat="44.46524" lon="9.16345">
        <ele>531.75</ele>
        <time>2016-10-07T15:44:37Z</time>
      </trkpt>
      <trkpt lat="44.46505" lon="9.16348">
        <ele>530.79</ele>
        <time>2016-10-07T15:44:40Z</time>
      </trkpt>
      <trkpt lat="44.46499" lon="9.16351">
        <ele>530.79</ele>
        <time>2016-10-07T15:44:41Z</time>
      </trkpt>
      <trkpt lat="44.46493" lon="9.16355">
        <ele>530.79</ele>
        <time>2016-10-07T15:44:42Z</time>
      </trkpt>
      <trkpt lat="44.46489" lon="9.1636">
        <ele>530.3</ele>
        <time>2016-10-07T15:44:43Z</time>
      </trkpt>
      <trkpt lat="44.46485" lon="9.16366">
        <ele>530.79</ele>
        <time>2016-10-07T15:44:44Z</time>
      </trkpt>
      <trkpt lat="44.46482" lon="9.16373">
        <ele>531.27</ele>
        <time>2016-10-07T15:44:45Z</time>
      </trkpt>
      <trkpt lat="44.46482" lon="9.16381">
        <ele>531.75</ele>
        <time>2016-10-07T15:44:46Z</time>
      </trkpt>
      <trkpt lat="44.46482" lon="9.16388">
        <ele>530.79</ele>
        <time>2016-10-07T15:44:47Z</time>
      </trkpt>
      <trkpt lat="44.46483" lon="9.16395">
        <ele>531.75</ele>
        <time>2016-10-07T15:44:48Z</time>
      </trkpt>
      <trkpt lat="44.46484" lon="9.16401">
        <ele>531.75</ele>
        <time>2016-10-07T15:44:49Z</time>
      </trkpt>
      <trkpt lat="44.46493" lon="9.16441">
        <ele>532.23</ele>
        <time>2016-10-07T15:44:56Z</time>
      </trkpt>
      <trkpt lat="44.46487" lon="9.16509">
        <ele>534.15</ele>
        <time>2016-10-07T15:45:09Z</time>
      </trkpt>
      <trkpt lat="44.46471" lon="9.16556">
        <ele>535.11</ele>
        <time>2016-10-07T15:45:19Z</time>
      </trkpt>
      <trkpt lat="44.46441" lon="9.16599">
        <ele>536.07</ele>
        <time>2016-10-07T15:45:32Z</time>
      </trkpt>
      <trkpt lat="44.46421" lon="9.16622">
        <ele>536.55</ele>
        <time>2016-10-07T15:45:39Z</time>
      </trkpt>
      <trkpt lat="44.46391" lon="9.16638">
        <ele>537.51</ele>
        <time>2016-10-07T15:45:49Z</time>
      </trkpt>
      <trkpt lat="44.46357" lon="9.16634">
        <ele>538.96</ele>
        <time>2016-10-07T15:45:59Z</time>
      </trkpt>
      <trkpt lat="44.46323" lon="9.16641">
        <ele>539.92</ele>
        <time>2016-10-07T15:46:10Z</time>
      </trkpt>
      <trkpt lat="44.46289" lon="9.16662">
        <ele>541.84</ele>
        <time>2016-10-07T15:46:22Z</time>
      </trkpt>
      <trkpt lat="44.46275" lon="9.16723">
        <ele>542.8</ele>
        <time>2016-10-07T15:46:38Z</time>
      </trkpt>
      <trkpt lat="44.46251" lon="9.16775">
        <ele>542.8</ele>
        <time>2016-10-07T15:46:50Z</time>
      </trkpt>
      <trkpt lat="44.46248" lon="9.1678">
        <ele>542.8</ele>
        <time>2016-10-07T15:46:51Z</time>
      </trkpt>
      <trkpt lat="44.46232" lon="9.16803">
        <ele>545.69</ele>
        <time>2016-10-07T15:47:01Z</time>
      </trkpt>
      <trkpt lat="44.46211" lon="9.16811">
        <ele>547.61</ele>
        <time>2016-10-07T15:47:13Z</time>
      </trkpt>
      <trkpt lat="44.46191" lon="9.16818">
        <ele>549.53</ele>
        <time>2016-10-07T15:47:26Z</time>
      </trkpt>
      <trkpt lat="44.46168" lon="9.16819">
        <ele>552.41</ele>
        <time>2016-10-07T15:47:43Z</time>
      </trkpt>
      <trkpt lat="44.46147" lon="9.16823">
        <ele>554.34</ele>
        <time>2016-10-07T15:47:55Z</time>
      </trkpt>
      <trkpt lat="44.46126" lon="9.16831">
        <ele>557.22</ele>
        <time>2016-10-07T15:48:10Z</time>
      </trkpt>
      <trkpt lat="44.46122" lon="9.16833">
        <ele>557.7</ele>
        <time>2016-10-07T15:48:13Z</time>
      </trkpt>
      <trkpt lat="44.46121" lon="9.16834">
        <ele>557.7</ele>
        <time>2016-10-07T15:48:14Z</time>
      </trkpt>
      <trkpt lat="44.4612" lon="9.16835">
        <ele>557.7</ele>
        <time>2016-10-07T15:48:15Z</time>
      </trkpt>
      <trkpt lat="44.46119" lon="9.16835">
        <ele>557.7</ele>
        <time>2016-10-07T15:48:16Z</time>
      </trkpt>
      <trkpt lat="44.46118" lon="9.16836">
        <ele>557.7</ele>
        <time>2016-10-07T15:48:17Z</time>
      </trkpt>
      <trkpt lat="44.46093" lon="9.16833">
        <ele>561.07</ele>
        <time>2016-10-07T15:48:33Z</time>
      </trkpt>
      <trkpt lat="44.4606" lon="9.16831">
        <ele>562.51</ele>
        <time>2016-10-07T15:48:49Z</time>
      </trkpt>
      <trkpt lat="44.46015" lon="9.16821">
        <ele>562.03</ele>
        <time>2016-10-07T15:49:05Z</time>
      </trkpt>
      <trkpt lat="44.45985" lon="9.16812">
        <ele>561.07</ele>
        <time>2016-10-07T15:49:12Z</time>
      </trkpt>
      <trkpt lat="44.45962" lon="9.16805">
        <ele>559.62</ele>
        <time>2016-10-07T15:49:17Z</time>
      </trkpt>
      <trkpt lat="44.45958" lon="9.16802">
        <ele>558.18</ele>
        <time>2016-10-07T15:49:18Z</time>
      </trkpt>
      <trkpt lat="44.45956" lon="9.16797">
        <ele>558.18</ele>
        <time>2016-10-07T15:49:19Z</time>
      </trkpt>
      <trkpt lat="44.45952" lon="9.16786">
        <ele>557.22</ele>
        <time>2016-10-07T15:49:21Z</time>
      </trkpt>
      <trkpt lat="44.45948" lon="9.16782">
        <ele>557.7</ele>
        <time>2016-10-07T15:49:22Z</time>
      </trkpt>
      <trkpt lat="44.45943" lon="9.1678">
        <ele>556.26</ele>
        <time>2016-10-07T15:49:23Z</time>
      </trkpt>
      <trkpt lat="44.45938" lon="9.1678">
        <ele>555.3</ele>
        <time>2016-10-07T15:49:24Z</time>
      </trkpt>
      <trkpt lat="44.45933" lon="9.1678">
        <ele>555.3</ele>
        <time>2016-10-07T15:49:25Z</time>
      </trkpt>
      <trkpt lat="44.45927" lon="9.16782">
        <ele>555.3</ele>
        <time>2016-10-07T15:49:26Z</time>
      </trkpt>
      <trkpt lat="44.4591" lon="9.16785">
        <ele>554.34</ele>
        <time>2016-10-07T15:49:29Z</time>
      </trkpt>
      <trkpt lat="44.45904" lon="9.16785">
        <ele>553.86</ele>
        <time>2016-10-07T15:49:30Z</time>
      </trkpt>
      <trkpt lat="44.45898" lon="9.16783">
        <ele>552.41</ele>
        <time>2016-10-07T15:49:31Z</time>
      </trkpt>
      <trkpt lat="44.45892" lon="9.16781">
        <ele>552.41</ele>
        <time>2016-10-07T15:49:32Z</time>
      </trkpt>
      <trkpt lat="44.45887" lon="9.16779">
        <ele>552.41</ele>
        <time>2016-10-07T15:49:33Z</time>
      </trkpt>
      <trkpt lat="44.45882" lon="9.16779">
        <ele>551.93</ele>
        <time>2016-10-07T15:49:34Z</time>
      </trkpt>
      <trkpt lat="44.45876" lon="9.16781">
        <ele>551.45</ele>
        <time>2016-10-07T15:49:35Z</time>
      </trkpt>
      <trkpt lat="44.4587" lon="9.16785">
        <ele>550.97</ele>
        <time>2016-10-07T15:49:36Z</time>
      </trkpt>
      <trkpt lat="44.45865" lon="9.1679">
        <ele>550.49</ele>
        <time>2016-10-07T15:49:37Z</time>
      </trkpt>
      <trkpt lat="44.45859" lon="9.16795">
        <ele>550.49</ele>
        <time>2016-10-07T15:49:38Z</time>
      </trkpt>
      <trkpt lat="44.45834" lon="9.1682">
        <ele>547.61</ele>
        <time>2016-10-07T15:49:43Z</time>
      </trkpt>
      <trkpt lat="44.45829" lon="9.16825">
        <ele>547.61</ele>
        <time>2016-10-07T15:49:44Z</time>
      </trkpt>
      <trkpt lat="44.4581" lon="9.16842">
        <ele>545.2</ele>
        <time>2016-10-07T15:49:48Z</time>
      </trkpt>
      <trkpt lat="44.45805" lon="9.16844">
        <ele>544.72</ele>
        <time>2016-10-07T15:49:49Z</time>
      </trkpt>
      <trkpt lat="44.458" lon="9.16846">
        <ele>543.76</ele>
        <time>2016-10-07T15:49:50Z</time>
      </trkpt>
      <trkpt lat="44.45794" lon="9.16845">
        <ele>543.76</ele>
        <time>2016-10-07T15:49:51Z</time>
      </trkpt>
      <trkpt lat="44.45789" lon="9.16844">
        <ele>543.28</ele>
        <time>2016-10-07T15:49:52Z</time>
      </trkpt>
      <trkpt lat="44.45784" lon="9.16844">
        <ele>542.8</ele>
        <time>2016-10-07T15:49:53Z</time>
      </trkpt>
      <trkpt lat="44.45779" lon="9.16844">
        <ele>541.84</ele>
        <time>2016-10-07T15:49:54Z</time>
      </trkpt>
      <trkpt lat="44.45775" lon="9.16843">
        <ele>541.36</ele>
        <time>2016-10-07T15:49:55Z</time>
      </trkpt>
      <trkpt lat="44.45772" lon="9.16839">
        <ele>540.4</ele>
        <time>2016-10-07T15:49:56Z</time>
      </trkpt>
      <trkpt lat="44.45771" lon="9.16835">
        <ele>540.4</ele>
        <time>2016-10-07T15:49:57Z</time>
      </trkpt>
      <trkpt lat="44.45772" lon="9.1683">
        <ele>539.92</ele>
        <time>2016-10-07T15:49:58Z</time>
      </trkpt>
      <trkpt lat="44.45775" lon="9.16827">
        <ele>539.92</ele>
        <time>2016-10-07T15:49:59Z</time>
      </trkpt>
      <trkpt lat="44.45779" lon="9.16827">
        <ele>539.44</ele>
        <time>2016-10-07T15:50:00Z</time>
      </trkpt>
      <trkpt lat="44.45784" lon="9.16829">
        <ele>539.44</ele>
        <time>2016-10-07T15:50:01Z</time>
      </trkpt>
      <trkpt lat="44.45789" lon="9.1683">
        <ele>538.96</ele>
        <time>2016-10-07T15:50:02Z</time>
      </trkpt>
      <trkpt lat="44.45795" lon="9.1683">
        <ele>538.48</ele>
        <time>2016-10-07T15:50:03Z</time>
      </trkpt>
      <trkpt lat="44.458" lon="9.16827">
        <ele>537.99</ele>
        <time>2016-10-07T15:50:04Z</time>
      </trkpt>
      <trkpt lat="44.45805" lon="9.16823">
        <ele>537.99</ele>
        <time>2016-10-07T15:50:05Z</time>
      </trkpt>
      <trkpt lat="44.45809" lon="9.16817">
        <ele>537.03</ele>
        <time>2016-10-07T15:50:06Z</time>
      </trkpt>
      <trkpt lat="44.45813" lon="9.16809">
        <ele>536.55</ele>
        <time>2016-10-07T15:50:07Z</time>
      </trkpt>
      <trkpt lat="44.45816" lon="9.16802">
        <ele>536.07</ele>
        <time>2016-10-07T15:50:08Z</time>
      </trkpt>
      <trkpt lat="44.45828" lon="9.16773">
        <ele>532.71</ele>
        <time>2016-10-07T15:50:12Z</time>
      </trkpt>
      <trkpt lat="44.45832" lon="9.16767">
        <ele>532.71</ele>
        <time>2016-10-07T15:50:13Z</time>
      </trkpt>
      <trkpt lat="44.45836" lon="9.16763">
        <ele>532.23</ele>
        <time>2016-10-07T15:50:14Z</time>
      </trkpt>
      <trkpt lat="44.45842" lon="9.16759">
        <ele>532.23</ele>
        <time>2016-10-07T15:50:15Z</time>
      </trkpt>
      <trkpt lat="44.45847" lon="9.16756">
        <ele>531.75</ele>
        <time>2016-10-07T15:50:16Z</time>
      </trkpt>
      <trkpt lat="44.45853" lon="9.16754">
        <ele>531.27</ele>
        <time>2016-10-07T15:50:17Z</time>
      </trkpt>
      <trkpt lat="44.45863" lon="9.16749">
        <ele>530.3</ele>
        <time>2016-10-07T15:50:19Z</time>
      </trkpt>
      <trkpt lat="44.45868" lon="9.16744">
        <ele>529.34</ele>
        <time>2016-10-07T15:50:20Z</time>
      </trkpt>
      <trkpt lat="44.45869" lon="9.16738">
        <ele>527.9</ele>
        <time>2016-10-07T15:50:21Z</time>
      </trkpt>
      <trkpt lat="44.45867" lon="9.16732">
        <ele>529.82</ele>
        <time>2016-10-07T15:50:22Z</time>
      </trkpt>
      <trkpt lat="44.45863" lon="9.16728">
        <ele>528.38</ele>
        <time>2016-10-07T15:50:23Z</time>
      </trkpt>
      <trkpt lat="44.45857" lon="9.16728">
        <ele>527.9</ele>
        <time>2016-10-07T15:50:24Z</time>
      </trkpt>
      <trkpt lat="44.45852" lon="9.1673">
        <ele>527.42</ele>
        <time>2016-10-07T15:50:25Z</time>
      </trkpt>
      <trkpt lat="44.45847" lon="9.16734">
        <ele>526.46</ele>
        <time>2016-10-07T15:50:26Z</time>
      </trkpt>
      <trkpt lat="44.45842" lon="9.16739">
        <ele>525.98</ele>
        <time>2016-10-07T15:50:27Z</time>
      </trkpt>
      <trkpt lat="44.45838" lon="9.16744">
        <ele>525.98</ele>
        <time>2016-10-07T15:50:28Z</time>
      </trkpt>
      <trkpt lat="44.45832" lon="9.16749">
        <ele>524.54</ele>
        <time>2016-10-07T15:50:29Z</time>
      </trkpt>
      <trkpt lat="44.45827" lon="9.16753">
        <ele>524.54</ele>
        <time>2016-10-07T15:50:30Z</time>
      </trkpt>
      <trkpt lat="44.45821" lon="9.16756">
        <ele>524.54</ele>
        <time>2016-10-07T15:50:31Z</time>
      </trkpt>
      <trkpt lat="44.45817" lon="9.16759">
        <ele>524.06</ele>
        <time>2016-10-07T15:50:32Z</time>
      </trkpt>
      <trkpt lat="44.45812" lon="9.16762">
        <ele>524.06</ele>
        <time>2016-10-07T15:50:33Z</time>
      </trkpt>
      <trkpt lat="44.45808" lon="9.16766">
        <ele>523.58</ele>
        <time>2016-10-07T15:50:34Z</time>
      </trkpt>
      <trkpt lat="44.45801" lon="9.16778">
        <ele>522.13</ele>
        <time>2016-10-07T15:50:36Z</time>
      </trkpt>
      <trkpt lat="44.45797" lon="9.16784">
        <ele>522.13</ele>
        <time>2016-10-07T15:50:37Z</time>
      </trkpt>
      <trkpt lat="44.45792" lon="9.16788">
        <ele>521.65</ele>
        <time>2016-10-07T15:50:38Z</time>
      </trkpt>
      <trkpt lat="44.45786" lon="9.1679">
        <ele>520.21</ele>
        <time>2016-10-07T15:50:39Z</time>
      </trkpt>
      <trkpt lat="44.4578" lon="9.16792">
        <ele>520.21</ele>
        <time>2016-10-07T15:50:40Z</time>
      </trkpt>
      <trkpt lat="44.45762" lon="9.16797">
        <ele>519.25</ele>
        <time>2016-10-07T15:50:43Z</time>
      </trkpt>
      <trkpt lat="44.45756" lon="9.16795">
        <ele>518.29</ele>
        <time>2016-10-07T15:50:44Z</time>
      </trkpt>
      <trkpt lat="44.45751" lon="9.1679">
        <ele>517.81</ele>
        <time>2016-10-07T15:50:45Z</time>
      </trkpt>
      <trkpt lat="44.45742" lon="9.16779">
        <ele>516.85</ele>
        <time>2016-10-07T15:50:47Z</time>
      </trkpt>
      <trkpt lat="44.45727" lon="9.16763">
        <ele>514.92</ele>
        <time>2016-10-07T15:50:50Z</time>
      </trkpt>
      <trkpt lat="44.45721" lon="9.16758">
        <ele>513.96</ele>
        <time>2016-10-07T15:50:51Z</time>
      </trkpt>
      <trkpt lat="44.45716" lon="9.16754">
        <ele>513.96</ele>
        <time>2016-10-07T15:50:52Z</time>
      </trkpt>
      <trkpt lat="44.4571" lon="9.16753">
        <ele>513.48</ele>
        <time>2016-10-07T15:50:53Z</time>
      </trkpt>
      <trkpt lat="44.45704" lon="9.16755">
        <ele>512.52</ele>
        <time>2016-10-07T15:50:54Z</time>
      </trkpt>
      <trkpt lat="44.45697" lon="9.16759">
        <ele>512.04</ele>
        <time>2016-10-07T15:50:55Z</time>
      </trkpt>
      <trkpt lat="44.45692" lon="9.16765">
        <ele>512.04</ele>
        <time>2016-10-07T15:50:56Z</time>
      </trkpt>
      <trkpt lat="44.45687" lon="9.16773">
        <ele>511.56</ele>
        <time>2016-10-07T15:50:57Z</time>
      </trkpt>
      <trkpt lat="44.45682" lon="9.16781">
        <ele>510.6</ele>
        <time>2016-10-07T15:50:58Z</time>
      </trkpt>
      <trkpt lat="44.45667" lon="9.16804">
        <ele>508.19</ele>
        <time>2016-10-07T15:51:01Z</time>
      </trkpt>
      <trkpt lat="44.45661" lon="9.16811">
        <ele>507.71</ele>
        <time>2016-10-07T15:51:02Z</time>
      </trkpt>
      <trkpt lat="44.45654" lon="9.16818">
        <ele>507.23</ele>
        <time>2016-10-07T15:51:03Z</time>
      </trkpt>
      <trkpt lat="44.4563" lon="9.16839">
        <ele>505.31</ele>
        <time>2016-10-07T15:51:07Z</time>
      </trkpt>
      <trkpt lat="44.45625" lon="9.16846">
        <ele>504.35</ele>
        <time>2016-10-07T15:51:08Z</time>
      </trkpt>
      <trkpt lat="44.45621" lon="9.16854">
        <ele>503.87</ele>
        <time>2016-10-07T15:51:09Z</time>
      </trkpt>
      <trkpt lat="44.45619" lon="9.16864">
        <ele>502.91</ele>
        <time>2016-10-07T15:51:10Z</time>
      </trkpt>
      <trkpt lat="44.45617" lon="9.16874">
        <ele>502.43</ele>
        <time>2016-10-07T15:51:11Z</time>
      </trkpt>
      <trkpt lat="44.45615" lon="9.16884">
        <ele>501.46</ele>
        <time>2016-10-07T15:51:12Z</time>
      </trkpt>
      <trkpt lat="44.45612" lon="9.16893">
        <ele>500.5</ele>
        <time>2016-10-07T15:51:13Z</time>
      </trkpt>
      <trkpt lat="44.45607" lon="9.16902">
        <ele>500.02</ele>
        <time>2016-10-07T15:51:14Z</time>
      </trkpt>
      <trkpt lat="44.45601" lon="9.16909">
        <ele>500.02</ele>
        <time>2016-10-07T15:51:15Z</time>
      </trkpt>
      <trkpt lat="44.45595" lon="9.16916">
        <ele>498.58</ele>
        <time>2016-10-07T15:51:16Z</time>
      </trkpt>
      <trkpt lat="44.45589" lon="9.16922">
        <ele>499.06</ele>
        <time>2016-10-07T15:51:17Z</time>
      </trkpt>
      <trkpt lat="44.45582" lon="9.16927">
        <ele>498.1</ele>
        <time>2016-10-07T15:51:18Z</time>
      </trkpt>
      <trkpt lat="44.45576" lon="9.16931">
        <ele>497.62</ele>
        <time>2016-10-07T15:51:19Z</time>
      </trkpt>
      <trkpt lat="44.45568" lon="9.16934">
        <ele>496.18</ele>
        <time>2016-10-07T15:51:20Z</time>
      </trkpt>
      <trkpt lat="44.45561" lon="9.16935">
        <ele>495.7</ele>
        <time>2016-10-07T15:51:21Z</time>
      </trkpt>
      <trkpt lat="44.45554" lon="9.16933">
        <ele>495.22</ele>
        <time>2016-10-07T15:51:22Z</time>
      </trkpt>
      <trkpt lat="44.45547" lon="9.16928">
        <ele>493.77</ele>
        <time>2016-10-07T15:51:23Z</time>
      </trkpt>
      <trkpt lat="44.45543" lon="9.1692">
        <ele>493.29</ele>
        <time>2016-10-07T15:51:24Z</time>
      </trkpt>
      <trkpt lat="44.45541" lon="9.1691">
        <ele>492.81</ele>
        <time>2016-10-07T15:51:25Z</time>
      </trkpt>
      <trkpt lat="44.45539" lon="9.169">
        <ele>492.33</ele>
        <time>2016-10-07T15:51:26Z</time>
      </trkpt>
      <trkpt lat="44.45538" lon="9.1689">
        <ele>491.37</ele>
        <time>2016-10-07T15:51:27Z</time>
      </trkpt>
      <trkpt lat="44.45536" lon="9.16881">
        <ele>490.41</ele>
        <time>2016-10-07T15:51:28Z</time>
      </trkpt>
      <trkpt lat="44.45533" lon="9.16872">
        <ele>489.93</ele>
        <time>2016-10-07T15:51:29Z</time>
      </trkpt>
      <trkpt lat="44.45529" lon="9.16864">
        <ele>489.93</ele>
        <time>2016-10-07T15:51:30Z</time>
      </trkpt>
      <trkpt lat="44.45526" lon="9.16858">
        <ele>488.49</ele>
        <time>2016-10-07T15:51:31Z</time>
      </trkpt>
      <trkpt lat="44.45518" lon="9.16846">
        <ele>487.53</ele>
        <time>2016-10-07T15:51:34Z</time>
      </trkpt>
      <trkpt lat="44.45513" lon="9.16848">
        <ele>486.56</ele>
        <time>2016-10-07T15:51:35Z</time>
      </trkpt>
      <trkpt lat="44.45506" lon="9.16851">
        <ele>486.56</ele>
        <time>2016-10-07T15:51:36Z</time>
      </trkpt>
      <trkpt lat="44.45496" lon="9.16853">
        <ele>486.08</ele>
        <time>2016-10-07T15:51:37Z</time>
      </trkpt>
      <trkpt lat="44.45491" lon="9.16849">
        <ele>485.6</ele>
        <time>2016-10-07T15:51:38Z</time>
      </trkpt>
      <trkpt lat="44.45486" lon="9.16843">
        <ele>485.6</ele>
        <time>2016-10-07T15:51:39Z</time>
      </trkpt>
      <trkpt lat="44.45482" lon="9.16836">
        <ele>485.12</ele>
        <time>2016-10-07T15:51:40Z</time>
      </trkpt>
      <trkpt lat="44.45478" lon="9.1683">
        <ele>486.08</ele>
        <time>2016-10-07T15:51:41Z</time>
      </trkpt>
      <trkpt lat="44.4547" lon="9.16818">
        <ele>485.6</ele>
        <time>2016-10-07T15:51:43Z</time>
      </trkpt>
      <trkpt lat="44.45466" lon="9.16813">
        <ele>486.08</ele>
        <time>2016-10-07T15:51:44Z</time>
      </trkpt>
      <trkpt lat="44.45457" lon="9.16805">
        <ele>486.56</ele>
        <time>2016-10-07T15:51:46Z</time>
      </trkpt>
      <trkpt lat="44.45453" lon="9.16801">
        <ele>486.56</ele>
        <time>2016-10-07T15:51:47Z</time>
      </trkpt>
      <trkpt lat="44.4545" lon="9.16796">
        <ele>486.56</ele>
        <time>2016-10-07T15:51:48Z</time>
      </trkpt>
      <trkpt lat="44.45449" lon="9.16791">
        <ele>487.53</ele>
        <time>2016-10-07T15:51:49Z</time>
      </trkpt>
      <trkpt lat="44.45447" lon="9.16786">
        <ele>487.05</ele>
        <time>2016-10-07T15:51:50Z</time>
      </trkpt>
      <trkpt lat="44.45446" lon="9.1678">
        <ele>487.53</ele>
        <time>2016-10-07T15:51:51Z</time>
      </trkpt>
      <trkpt lat="44.45436" lon="9.16736">
        <ele>489.93</ele>
        <time>2016-10-07T15:52:01Z</time>
      </trkpt>
      <trkpt lat="44.45434" lon="9.16729">
        <ele>489.93</ele>
        <time>2016-10-07T15:52:03Z</time>
      </trkpt>
      <trkpt lat="44.45434" lon="9.16726">
        <ele>490.41</ele>
        <time>2016-10-07T15:52:04Z</time>
      </trkpt>
      <trkpt lat="44.45421" lon="9.16682">
        <ele>491.85</ele>
        <time>2016-10-07T15:52:16Z</time>
      </trkpt>
      <trkpt lat="44.45411" lon="9.16662">
        <ele>493.29</ele>
        <time>2016-10-07T15:52:22Z</time>
      </trkpt>
      <trkpt lat="44.45402" lon="9.16635">
        <ele>493.29</ele>
        <time>2016-10-07T15:52:30Z</time>
      </trkpt>
      <trkpt lat="44.45396" lon="9.16624">
        <ele>493.77</ele>
        <time>2016-10-07T15:52:33Z</time>
      </trkpt>
      <trkpt lat="44.45395" lon="9.16619">
        <ele>493.77</ele>
        <time>2016-10-07T15:52:34Z</time>
      </trkpt>
      <trkpt lat="44.4539" lon="9.16575">
        <ele>495.22</ele>
        <time>2016-10-07T15:52:47Z</time>
      </trkpt>
      <trkpt lat="44.45383" lon="9.16549">
        <ele>496.18</ele>
        <time>2016-10-07T15:52:57Z</time>
      </trkpt>
      <trkpt lat="44.45377" lon="9.16515">
        <ele>496.66</ele>
        <time>2016-10-07T15:53:08Z</time>
      </trkpt>
      <trkpt lat="44.45361" lon="9.16484">
        <ele>497.62</ele>
        <time>2016-10-07T15:53:19Z</time>
      </trkpt>
      <trkpt lat="44.45352" lon="9.16465">
        <ele>499.06</ele>
        <time>2016-10-07T15:53:27Z</time>
      </trkpt>
      <trkpt lat="44.45351" lon="9.16462">
        <ele>499.06</ele>
        <time>2016-10-07T15:53:28Z</time>
      </trkpt>
      <trkpt lat="44.45348" lon="9.16412">
        <ele>500.98</ele>
        <time>2016-10-07T15:53:39Z</time>
      </trkpt>
      <trkpt lat="44.45325" lon="9.16369">
        <ele>502.43</ele>
        <time>2016-10-07T15:53:52Z</time>
      </trkpt>
      <trkpt lat="44.45298" lon="9.16349">
        <ele>501.95</ele>
        <time>2016-10-07T15:54:03Z</time>
      </trkpt>
      <trkpt lat="44.45258" lon="9.16348">
        <ele>500.02</ele>
        <time>2016-10-07T15:54:12Z</time>
      </trkpt>
      <trkpt lat="44.45253" lon="9.16345">
        <ele>500.02</ele>
        <time>2016-10-07T15:54:13Z</time>
      </trkpt>
      <trkpt lat="44.45247" lon="9.16342">
        <ele>499.54</ele>
        <time>2016-10-07T15:54:14Z</time>
      </trkpt>
      <trkpt lat="44.45244" lon="9.16337">
        <ele>499.06</ele>
        <time>2016-10-07T15:54:15Z</time>
      </trkpt>
      <trkpt lat="44.45241" lon="9.1633">
        <ele>498.58</ele>
        <time>2016-10-07T15:54:16Z</time>
      </trkpt>
      <trkpt lat="44.45239" lon="9.16322">
        <ele>498.58</ele>
        <time>2016-10-07T15:54:17Z</time>
      </trkpt>
      <trkpt lat="44.45236" lon="9.16305">
        <ele>498.58</ele>
        <time>2016-10-07T15:54:19Z</time>
      </trkpt>
      <trkpt lat="44.45233" lon="9.16296">
        <ele>498.1</ele>
        <time>2016-10-07T15:54:20Z</time>
      </trkpt>
      <trkpt lat="44.45228" lon="9.16281">
        <ele>498.1</ele>
        <time>2016-10-07T15:54:22Z</time>
      </trkpt>
      <trkpt lat="44.45227" lon="9.16272">
        <ele>498.1</ele>
        <time>2016-10-07T15:54:23Z</time>
      </trkpt>
      <trkpt lat="44.4522" lon="9.16228">
        <ele>497.14</ele>
        <time>2016-10-07T15:54:28Z</time>
      </trkpt>
      <trkpt lat="44.45217" lon="9.16221">
        <ele>497.62</ele>
        <time>2016-10-07T15:54:29Z</time>
      </trkpt>
      <trkpt lat="44.45214" lon="9.16216">
        <ele>497.62</ele>
        <time>2016-10-07T15:54:30Z</time>
      </trkpt>
      <trkpt lat="44.45209" lon="9.16214">
        <ele>497.62</ele>
        <time>2016-10-07T15:54:31Z</time>
      </trkpt>
      <trkpt lat="44.45204" lon="9.16214">
        <ele>497.62</ele>
        <time>2016-10-07T15:54:32Z</time>
      </trkpt>
      <trkpt lat="44.45199" lon="9.16215">
        <ele>497.62</ele>
        <time>2016-10-07T15:54:33Z</time>
      </trkpt>
      <trkpt lat="44.45195" lon="9.16218">
        <ele>497.62</ele>
        <time>2016-10-07T15:54:34Z</time>
      </trkpt>
      <trkpt lat="44.45191" lon="9.16221">
        <ele>497.62</ele>
        <time>2016-10-07T15:54:35Z</time>
      </trkpt>
      <trkpt lat="44.45187" lon="9.16224">
        <ele>497.14</ele>
        <time>2016-10-07T15:54:36Z</time>
      </trkpt>
      <trkpt lat="44.45183" lon="9.16227">
        <ele>497.62</ele>
        <time>2016-10-07T15:54:37Z</time>
      </trkpt>
      <trkpt lat="44.4516" lon="9.16244">
        <ele>496.66</ele>
        <time>2016-10-07T15:54:43Z</time>
      </trkpt>
      <trkpt lat="44.45152" lon="9.16251">
        <ele>497.62</ele>
        <time>2016-10-07T15:54:45Z</time>
      </trkpt>
      <trkpt lat="44.45147" lon="9.16253">
        <ele>496.66</ele>
        <time>2016-10-07T15:54:46Z</time>
      </trkpt>
      <trkpt lat="44.45142" lon="9.16254">
        <ele>496.66</ele>
        <time>2016-10-07T15:54:47Z</time>
      </trkpt>
      <trkpt lat="44.45131" lon="9.16255">
        <ele>495.22</ele>
        <time>2016-10-07T15:54:49Z</time>
      </trkpt>
      <trkpt lat="44.45125" lon="9.16253">
        <ele>495.7</ele>
        <time>2016-10-07T15:54:50Z</time>
      </trkpt>
      <trkpt lat="44.45103" lon="9.16247">
        <ele>496.18</ele>
        <time>2016-10-07T15:54:54Z</time>
      </trkpt>
      <trkpt lat="44.45097" lon="9.16247">
        <ele>495.7</ele>
        <time>2016-10-07T15:54:55Z</time>
      </trkpt>
      <trkpt lat="44.45092" lon="9.16247">
        <ele>495.7</ele>
        <time>2016-10-07T15:54:56Z</time>
      </trkpt>
      <trkpt lat="44.45087" lon="9.16248">
        <ele>495.7</ele>
        <time>2016-10-07T15:54:57Z</time>
      </trkpt>
      <trkpt lat="44.45082" lon="9.16248">
        <ele>495.22</ele>
        <time>2016-10-07T15:54:58Z</time>
      </trkpt>
      <trkpt lat="44.45078" lon="9.16245">
        <ele>494.74</ele>
        <time>2016-10-07T15:54:59Z</time>
      </trkpt>
      <trkpt lat="44.45074" lon="9.1624">
        <ele>493.77</ele>
        <time>2016-10-07T15:55:00Z</time>
      </trkpt>
      <trkpt lat="44.45072" lon="9.16234">
        <ele>494.74</ele>
        <time>2016-10-07T15:55:01Z</time>
      </trkpt>
      <trkpt lat="44.4507" lon="9.16227">
        <ele>494.74</ele>
        <time>2016-10-07T15:55:02Z</time>
      </trkpt>
      <trkpt lat="44.45068" lon="9.1622">
        <ele>494.74</ele>
        <time>2016-10-07T15:55:03Z</time>
      </trkpt>
      <trkpt lat="44.45066" lon="9.16213">
        <ele>494.26</ele>
        <time>2016-10-07T15:55:04Z</time>
      </trkpt>
      <trkpt lat="44.45062" lon="9.16206">
        <ele>494.74</ele>
        <time>2016-10-07T15:55:05Z</time>
      </trkpt>
      <trkpt lat="44.45043" lon="9.16172">
        <ele>492.33</ele>
        <time>2016-10-07T15:55:10Z</time>
      </trkpt>
      <trkpt lat="44.45025" lon="9.16145">
        <ele>492.33</ele>
        <time>2016-10-07T15:55:14Z</time>
      </trkpt>
      <trkpt lat="44.4502" lon="9.16139">
        <ele>491.85</ele>
        <time>2016-10-07T15:55:15Z</time>
      </trkpt>
      <trkpt lat="44.44991" lon="9.16114">
        <ele>488.97</ele>
        <time>2016-10-07T15:55:20Z</time>
      </trkpt>
      <trkpt lat="44.44964" lon="9.16101">
        <ele>487.53</ele>
        <time>2016-10-07T15:55:24Z</time>
      </trkpt>
      <trkpt lat="44.44937" lon="9.16087">
        <ele>485.12</ele>
        <time>2016-10-07T15:55:28Z</time>
      </trkpt>
      <trkpt lat="44.44931" lon="9.16081">
        <ele>483.68</ele>
        <time>2016-10-07T15:55:29Z</time>
      </trkpt>
      <trkpt lat="44.44927" lon="9.16074">
        <ele>483.68</ele>
        <time>2016-10-07T15:55:30Z</time>
      </trkpt>
      <trkpt lat="44.44922" lon="9.16066">
        <ele>483.2</ele>
        <time>2016-10-07T15:55:31Z</time>
      </trkpt>
      <trkpt lat="44.44919" lon="9.16058">
        <ele>482.24</ele>
        <time>2016-10-07T15:55:32Z</time>
      </trkpt>
      <trkpt lat="44.44915" lon="9.1605">
        <ele>481.28</ele>
        <time>2016-10-07T15:55:33Z</time>
      </trkpt>
      <trkpt lat="44.44897" lon="9.16019">
        <ele>479.84</ele>
        <time>2016-10-07T15:55:37Z</time>
      </trkpt>
      <trkpt lat="44.44892" lon="9.16013">
        <ele>479.84</ele>
        <time>2016-10-07T15:55:38Z</time>
      </trkpt>
      <trkpt lat="44.44886" lon="9.16007">
        <ele>478.87</ele>
        <time>2016-10-07T15:55:39Z</time>
      </trkpt>
      <trkpt lat="44.44881" lon="9.16003">
        <ele>478.87</ele>
        <time>2016-10-07T15:55:40Z</time>
      </trkpt>
      <trkpt lat="44.44875" lon="9.16001">
        <ele>478.87</ele>
        <time>2016-10-07T15:55:41Z</time>
      </trkpt>
      <trkpt lat="44.44869" lon="9.16001">
        <ele>478.87</ele>
        <time>2016-10-07T15:55:42Z</time>
      </trkpt>
      <trkpt lat="44.44863" lon="9.16004">
        <ele>478.87</ele>
        <time>2016-10-07T15:55:43Z</time>
      </trkpt>
      <trkpt lat="44.44859" lon="9.16009">
        <ele>478.39</ele>
        <time>2016-10-07T15:55:44Z</time>
      </trkpt>
      <trkpt lat="44.44855" lon="9.16015">
        <ele>477.43</ele>
        <time>2016-10-07T15:55:45Z</time>
      </trkpt>
      <trkpt lat="44.44852" lon="9.16023">
        <ele>477.43</ele>
        <time>2016-10-07T15:55:46Z</time>
      </trkpt>
      <trkpt lat="44.44831" lon="9.16071">
        <ele>473.59</ele>
        <time>2016-10-07T15:55:52Z</time>
      </trkpt>
      <trkpt lat="44.44827" lon="9.1608">
        <ele>473.11</ele>
        <time>2016-10-07T15:55:53Z</time>
      </trkpt>
      <trkpt lat="44.44802" lon="9.16169">
        <ele>469.26</ele>
        <time>2016-10-07T15:56:02Z</time>
      </trkpt>
      <trkpt lat="44.44797" lon="9.16188">
        <ele>468.3</ele>
        <time>2016-10-07T15:56:04Z</time>
      </trkpt>
      <trkpt lat="44.44794" lon="9.16197">
        <ele>467.34</ele>
        <time>2016-10-07T15:56:05Z</time>
      </trkpt>
      <trkpt lat="44.44791" lon="9.16205">
        <ele>466.86</ele>
        <time>2016-10-07T15:56:06Z</time>
      </trkpt>
      <trkpt lat="44.44787" lon="9.16213">
        <ele>466.86</ele>
        <time>2016-10-07T15:56:07Z</time>
      </trkpt>
      <trkpt lat="44.44783" lon="9.16219">
        <ele>466.38</ele>
        <time>2016-10-07T15:56:08Z</time>
      </trkpt>
      <trkpt lat="44.44778" lon="9.16224">
        <ele>466.38</ele>
        <time>2016-10-07T15:56:09Z</time>
      </trkpt>
      <trkpt lat="44.44772" lon="9.16226">
        <ele>465.42</ele>
        <time>2016-10-07T15:56:10Z</time>
      </trkpt>
      <trkpt lat="44.44767" lon="9.16226">
        <ele>465.42</ele>
        <time>2016-10-07T15:56:11Z</time>
      </trkpt>
      <trkpt lat="44.44761" lon="9.16222">
        <ele>464.45</ele>
        <time>2016-10-07T15:56:12Z</time>
      </trkpt>
      <trkpt lat="44.44754" lon="9.16219">
        <ele>463.49</ele>
        <time>2016-10-07T15:56:13Z</time>
      </trkpt>
      <trkpt lat="44.44748" lon="9.16216">
        <ele>463.49</ele>
        <time>2016-10-07T15:56:14Z</time>
      </trkpt>
      <trkpt lat="44.44741" lon="9.16216">
        <ele>463.01</ele>
        <time>2016-10-07T15:56:15Z</time>
      </trkpt>
      <trkpt lat="44.44734" lon="9.16217">
        <ele>462.05</ele>
        <time>2016-10-07T15:56:16Z</time>
      </trkpt>
      <trkpt lat="44.44728" lon="9.1622">
        <ele>460.61</ele>
        <time>2016-10-07T15:56:17Z</time>
      </trkpt>
      <trkpt lat="44.44721" lon="9.16223">
        <ele>460.61</ele>
        <time>2016-10-07T15:56:18Z</time>
      </trkpt>
      <trkpt lat="44.44714" lon="9.16225">
        <ele>460.13</ele>
        <time>2016-10-07T15:56:19Z</time>
      </trkpt>
      <trkpt lat="44.44708" lon="9.16225">
        <ele>459.65</ele>
        <time>2016-10-07T15:56:20Z</time>
      </trkpt>
      <trkpt lat="44.44701" lon="9.16223">
        <ele>459.17</ele>
        <time>2016-10-07T15:56:21Z</time>
      </trkpt>
      <trkpt lat="44.44694" lon="9.16222">
        <ele>458.69</ele>
        <time>2016-10-07T15:56:22Z</time>
      </trkpt>
      <trkpt lat="44.44688" lon="9.16223">
        <ele>458.21</ele>
        <time>2016-10-07T15:56:23Z</time>
      </trkpt>
      <trkpt lat="44.44656" lon="9.16228">
        <ele>455.32</ele>
        <time>2016-10-07T15:56:28Z</time>
      </trkpt>
      <trkpt lat="44.44651" lon="9.16225">
        <ele>454.36</ele>
        <time>2016-10-07T15:56:29Z</time>
      </trkpt>
      <trkpt lat="44.44646" lon="9.1622">
        <ele>453.88</ele>
        <time>2016-10-07T15:56:30Z</time>
      </trkpt>
      <trkpt lat="44.44641" lon="9.16215">
        <ele>453.88</ele>
        <time>2016-10-07T15:56:31Z</time>
      </trkpt>
      <trkpt lat="44.44638" lon="9.16209">
        <ele>452.44</ele>
        <time>2016-10-07T15:56:32Z</time>
      </trkpt>
      <trkpt lat="44.44633" lon="9.16204">
        <ele>452.44</ele>
        <time>2016-10-07T15:56:33Z</time>
      </trkpt>
      <trkpt lat="44.44629" lon="9.162">
        <ele>451.96</ele>
        <time>2016-10-07T15:56:34Z</time>
      </trkpt>
      <trkpt lat="44.44624" lon="9.16198">
        <ele>451.48</ele>
        <time>2016-10-07T15:56:35Z</time>
      </trkpt>
      <trkpt lat="44.44618" lon="9.16199">
        <ele>450.52</ele>
        <time>2016-10-07T15:56:36Z</time>
      </trkpt>
      <trkpt lat="44.44612" lon="9.16202">
        <ele>450.52</ele>
        <time>2016-10-07T15:56:37Z</time>
      </trkpt>
      <trkpt lat="44.44606" lon="9.16206">
        <ele>449.55</ele>
        <time>2016-10-07T15:56:38Z</time>
      </trkpt>
      <trkpt lat="44.446" lon="9.16213">
        <ele>449.07</ele>
        <time>2016-10-07T15:56:39Z</time>
      </trkpt>
      <trkpt lat="44.44595" lon="9.1622">
        <ele>448.59</ele>
        <time>2016-10-07T15:56:40Z</time>
      </trkpt>
      <trkpt lat="44.44591" lon="9.16227">
        <ele>448.11</ele>
        <time>2016-10-07T15:56:41Z</time>
      </trkpt>
      <trkpt lat="44.44586" lon="9.16234">
        <ele>448.11</ele>
        <time>2016-10-07T15:56:42Z</time>
      </trkpt>
      <trkpt lat="44.44581" lon="9.16239">
        <ele>447.63</ele>
        <time>2016-10-07T15:56:43Z</time>
      </trkpt>
      <trkpt lat="44.44574" lon="9.16241">
        <ele>447.15</ele>
        <time>2016-10-07T15:56:44Z</time>
      </trkpt>
      <trkpt lat="44.44567" lon="9.16241">
        <ele>446.67</ele>
        <time>2016-10-07T15:56:45Z</time>
      </trkpt>
      <trkpt lat="44.4456" lon="9.16238">
        <ele>445.71</ele>
        <time>2016-10-07T15:56:46Z</time>
      </trkpt>
      <trkpt lat="44.44554" lon="9.16234">
        <ele>445.71</ele>
        <time>2016-10-07T15:56:47Z</time>
      </trkpt>
      <trkpt lat="44.44546" lon="9.16231">
        <ele>445.23</ele>
        <time>2016-10-07T15:56:48Z</time>
      </trkpt>
      <trkpt lat="44.44539" lon="9.1623">
        <ele>445.23</ele>
        <time>2016-10-07T15:56:49Z</time>
      </trkpt>
      <trkpt lat="44.44525" lon="9.16229">
        <ele>443.31</ele>
        <time>2016-10-07T15:56:51Z</time>
      </trkpt>
      <trkpt lat="44.44519" lon="9.16228">
        <ele>442.34</ele>
        <time>2016-10-07T15:56:52Z</time>
      </trkpt>
      <trkpt lat="44.44511" lon="9.16227">
        <ele>441.86</ele>
        <time>2016-10-07T15:56:53Z</time>
      </trkpt>
      <trkpt lat="44.44484" lon="9.16225">
        <ele>438.98</ele>
        <time>2016-10-07T15:56:57Z</time>
      </trkpt>
      <trkpt lat="44.44477" lon="9.16226">
        <ele>438.98</ele>
        <time>2016-10-07T15:56:58Z</time>
      </trkpt>
      <trkpt lat="44.4447" lon="9.16229">
        <ele>438.02</ele>
        <time>2016-10-07T15:56:59Z</time>
      </trkpt>
      <trkpt lat="44.44458" lon="9.16235">
        <ele>436.58</ele>
        <time>2016-10-07T15:57:01Z</time>
      </trkpt>
      <trkpt lat="44.44452" lon="9.16234">
        <ele>435.61</ele>
        <time>2016-10-07T15:57:02Z</time>
      </trkpt>
      <trkpt lat="44.44446" lon="9.16232">
        <ele>435.13</ele>
        <time>2016-10-07T15:57:03Z</time>
      </trkpt>
      <trkpt lat="44.44439" lon="9.1623">
        <ele>435.13</ele>
        <time>2016-10-07T15:57:04Z</time>
      </trkpt>
      <trkpt lat="44.44433" lon="9.1623">
        <ele>434.17</ele>
        <time>2016-10-07T15:57:05Z</time>
      </trkpt>
      <trkpt lat="44.44426" lon="9.1623">
        <ele>433.69</ele>
        <time>2016-10-07T15:57:06Z</time>
      </trkpt>
      <trkpt lat="44.44419" lon="9.16231">
        <ele>433.21</ele>
        <time>2016-10-07T15:57:07Z</time>
      </trkpt>
      <trkpt lat="44.44413" lon="9.1623">
        <ele>432.25</ele>
        <time>2016-10-07T15:57:08Z</time>
      </trkpt>
      <trkpt lat="44.44407" lon="9.16226">
        <ele>431.77</ele>
        <time>2016-10-07T15:57:09Z</time>
      </trkpt>
      <trkpt lat="44.44401" lon="9.16221">
        <ele>431.29</ele>
        <time>2016-10-07T15:57:10Z</time>
      </trkpt>
      <trkpt lat="44.44396" lon="9.16215">
        <ele>430.81</ele>
        <time>2016-10-07T15:57:11Z</time>
      </trkpt>
      <trkpt lat="44.4439" lon="9.1621">
        <ele>430.81</ele>
        <time>2016-10-07T15:57:12Z</time>
      </trkpt>
      <trkpt lat="44.44386" lon="9.16207">
        <ele>430.33</ele>
        <time>2016-10-07T15:57:13Z</time>
      </trkpt>
      <trkpt lat="44.4438" lon="9.16204">
        <ele>430.33</ele>
        <time>2016-10-07T15:57:14Z</time>
      </trkpt>
      <trkpt lat="44.44375" lon="9.16205">
        <ele>430.33</ele>
        <time>2016-10-07T15:57:15Z</time>
      </trkpt>
      <trkpt lat="44.44369" lon="9.16206">
        <ele>430.33</ele>
        <time>2016-10-07T15:57:16Z</time>
      </trkpt>
      <trkpt lat="44.44363" lon="9.16208">
        <ele>429.37</ele>
        <time>2016-10-07T15:57:17Z</time>
      </trkpt>
      <trkpt lat="44.44352" lon="9.16213">
        <ele>428.4</ele>
        <time>2016-10-07T15:57:19Z</time>
      </trkpt>
      <trkpt lat="44.44348" lon="9.16219">
        <ele>429.37</ele>
        <time>2016-10-07T15:57:20Z</time>
      </trkpt>
      <trkpt lat="44.44346" lon="9.16225">
        <ele>428.89</ele>
        <time>2016-10-07T15:57:21Z</time>
      </trkpt>
      <trkpt lat="44.44345" lon="9.16233">
        <ele>428.4</ele>
        <time>2016-10-07T15:57:22Z</time>
      </trkpt>
      <trkpt lat="44.44346" lon="9.16241">
        <ele>427.92</ele>
        <time>2016-10-07T15:57:23Z</time>
      </trkpt>
      <trkpt lat="44.44348" lon="9.16249">
        <ele>426.96</ele>
        <time>2016-10-07T15:57:24Z</time>
      </trkpt>
      <trkpt lat="44.44351" lon="9.16257">
        <ele>426.96</ele>
        <time>2016-10-07T15:57:25Z</time>
      </trkpt>
      <trkpt lat="44.44354" lon="9.16264">
        <ele>426</ele>
        <time>2016-10-07T15:57:26Z</time>
      </trkpt>
      <trkpt lat="44.44379" lon="9.16324">
        <ele>424.08</ele>
        <time>2016-10-07T15:57:33Z</time>
      </trkpt>
      <trkpt lat="44.44381" lon="9.16334">
        <ele>424.08</ele>
        <time>2016-10-07T15:57:34Z</time>
      </trkpt>
      <trkpt lat="44.44382" lon="9.16344">
        <ele>423.12</ele>
        <time>2016-10-07T15:57:35Z</time>
      </trkpt>
      <trkpt lat="44.44383" lon="9.16355">
        <ele>423.12</ele>
        <time>2016-10-07T15:57:36Z</time>
      </trkpt>
      <trkpt lat="44.44382" lon="9.16366">
        <ele>422.16</ele>
        <time>2016-10-07T15:57:37Z</time>
      </trkpt>
      <trkpt lat="44.44381" lon="9.16377">
        <ele>422.16</ele>
        <time>2016-10-07T15:57:38Z</time>
      </trkpt>
      <trkpt lat="44.44378" lon="9.16388">
        <ele>422.16</ele>
        <time>2016-10-07T15:57:39Z</time>
      </trkpt>
      <trkpt lat="44.44375" lon="9.16399">
        <ele>420.71</ele>
        <time>2016-10-07T15:57:40Z</time>
      </trkpt>
      <trkpt lat="44.44372" lon="9.1641">
        <ele>420.71</ele>
        <time>2016-10-07T15:57:41Z</time>
      </trkpt>
      <trkpt lat="44.44358" lon="9.16451">
        <ele>421.19</ele>
        <time>2016-10-07T15:57:45Z</time>
      </trkpt>
      <trkpt lat="44.44353" lon="9.16459">
        <ele>420.71</ele>
        <time>2016-10-07T15:57:46Z</time>
      </trkpt>
      <trkpt lat="44.44338" lon="9.16483">
        <ele>420.23</ele>
        <time>2016-10-07T15:57:49Z</time>
      </trkpt>
      <trkpt lat="44.44307" lon="9.16549">
        <ele>417.35</ele>
        <time>2016-10-07T15:57:57Z</time>
      </trkpt>
      <trkpt lat="44.44302" lon="9.16555">
        <ele>417.35</ele>
        <time>2016-10-07T15:57:58Z</time>
      </trkpt>
      <trkpt lat="44.44295" lon="9.16561">
        <ele>416.87</ele>
        <time>2016-10-07T15:57:59Z</time>
      </trkpt>
      <trkpt lat="44.44274" lon="9.16572">
        <ele>415.43</ele>
        <time>2016-10-07T15:58:02Z</time>
      </trkpt>
      <trkpt lat="44.44266" lon="9.16573">
        <ele>415.43</ele>
        <time>2016-10-07T15:58:03Z</time>
      </trkpt>
      <trkpt lat="44.44258" lon="9.16573">
        <ele>414.95</ele>
        <time>2016-10-07T15:58:04Z</time>
      </trkpt>
      <trkpt lat="44.44251" lon="9.16572">
        <ele>413.98</ele>
        <time>2016-10-07T15:58:05Z</time>
      </trkpt>
      <trkpt lat="44.44243" lon="9.1657">
        <ele>413.98</ele>
        <time>2016-10-07T15:58:06Z</time>
      </trkpt>
      <trkpt lat="44.44236" lon="9.16568">
        <ele>413.02</ele>
        <time>2016-10-07T15:58:07Z</time>
      </trkpt>
      <trkpt lat="44.44223" lon="9.16566">
        <ele>413.5</ele>
        <time>2016-10-07T15:58:09Z</time>
      </trkpt>
      <trkpt lat="44.44216" lon="9.16568">
        <ele>413.02</ele>
        <time>2016-10-07T15:58:10Z</time>
      </trkpt>
      <trkpt lat="44.44211" lon="9.16572">
        <ele>412.06</ele>
        <time>2016-10-07T15:58:11Z</time>
      </trkpt>
      <trkpt lat="44.44208" lon="9.16577">
        <ele>412.06</ele>
        <time>2016-10-07T15:58:12Z</time>
      </trkpt>
      <trkpt lat="44.44206" lon="9.16584">
        <ele>411.58</ele>
        <time>2016-10-07T15:58:13Z</time>
      </trkpt>
      <trkpt lat="44.44204" lon="9.1659">
        <ele>411.58</ele>
        <time>2016-10-07T15:58:14Z</time>
      </trkpt>
      <trkpt lat="44.44204" lon="9.16599">
        <ele>411.58</ele>
        <time>2016-10-07T15:58:15Z</time>
      </trkpt>
      <trkpt lat="44.44205" lon="9.16608">
        <ele>410.62</ele>
        <time>2016-10-07T15:58:16Z</time>
      </trkpt>
      <trkpt lat="44.44206" lon="9.16618">
        <ele>410.14</ele>
        <time>2016-10-07T15:58:17Z</time>
      </trkpt>
      <trkpt lat="44.44209" lon="9.16638">
        <ele>409.66</ele>
        <time>2016-10-07T15:58:19Z</time>
      </trkpt>
      <trkpt lat="44.44212" lon="9.16685">
        <ele>406.77</ele>
        <time>2016-10-07T15:58:24Z</time>
      </trkpt>
      <trkpt lat="44.44208" lon="9.16732">
        <ele>404.37</ele>
        <time>2016-10-07T15:58:29Z</time>
      </trkpt>
      <trkpt lat="44.44207" lon="9.16742">
        <ele>403.89</ele>
        <time>2016-10-07T15:58:30Z</time>
      </trkpt>
      <trkpt lat="44.44205" lon="9.16751">
        <ele>403.41</ele>
        <time>2016-10-07T15:58:31Z</time>
      </trkpt>
      <trkpt lat="44.44202" lon="9.1676">
        <ele>402.93</ele>
        <time>2016-10-07T15:58:32Z</time>
      </trkpt>
      <trkpt lat="44.44198" lon="9.16769">
        <ele>402.93</ele>
        <time>2016-10-07T15:58:33Z</time>
      </trkpt>
      <trkpt lat="44.44193" lon="9.16776">
        <ele>401.49</ele>
        <time>2016-10-07T15:58:34Z</time>
      </trkpt>
      <trkpt lat="44.44187" lon="9.16783">
        <ele>401.49</ele>
        <time>2016-10-07T15:58:35Z</time>
      </trkpt>
      <trkpt lat="44.44182" lon="9.16789">
        <ele>401.01</ele>
        <time>2016-10-07T15:58:36Z</time>
      </trkpt>
      <trkpt lat="44.44162" lon="9.16808">
        <ele>399.57</ele>
        <time>2016-10-07T15:58:40Z</time>
      </trkpt>
      <trkpt lat="44.44159" lon="9.16815">
        <ele>399.08</ele>
        <time>2016-10-07T15:58:41Z</time>
      </trkpt>
      <trkpt lat="44.44156" lon="9.16822">
        <ele>399.57</ele>
        <time>2016-10-07T15:58:42Z</time>
      </trkpt>
      <trkpt lat="44.44155" lon="9.16829">
        <ele>398.12</ele>
        <time>2016-10-07T15:58:43Z</time>
      </trkpt>
      <trkpt lat="44.44155" lon="9.16838">
        <ele>398.12</ele>
        <time>2016-10-07T15:58:44Z</time>
      </trkpt>
      <trkpt lat="44.4415" lon="9.16862">
        <ele>397.64</ele>
        <time>2016-10-07T15:58:47Z</time>
      </trkpt>
      <trkpt lat="44.44147" lon="9.16869">
        <ele>397.64</ele>
        <time>2016-10-07T15:58:48Z</time>
      </trkpt>
      <trkpt lat="44.4413" lon="9.169">
        <ele>395.24</ele>
        <time>2016-10-07T15:58:52Z</time>
      </trkpt>
      <trkpt lat="44.44108" lon="9.16927">
        <ele>394.28</ele>
        <time>2016-10-07T15:58:56Z</time>
      </trkpt>
      <trkpt lat="44.44102" lon="9.16932">
        <ele>393.8</ele>
        <time>2016-10-07T15:58:57Z</time>
      </trkpt>
      <trkpt lat="44.44096" lon="9.16936">
        <ele>393.32</ele>
        <time>2016-10-07T15:58:58Z</time>
      </trkpt>
      <trkpt lat="44.44083" lon="9.16942">
        <ele>391.87</ele>
        <time>2016-10-07T15:59:00Z</time>
      </trkpt>
      <trkpt lat="44.44077" lon="9.16946">
        <ele>390.91</ele>
        <time>2016-10-07T15:59:01Z</time>
      </trkpt>
      <trkpt lat="44.44062" lon="9.16958">
        <ele>389.47</ele>
        <time>2016-10-07T15:59:04Z</time>
      </trkpt>
      <trkpt lat="44.44058" lon="9.16964">
        <ele>388.99</ele>
        <time>2016-10-07T15:59:05Z</time>
      </trkpt>
      <trkpt lat="44.44055" lon="9.16971">
        <ele>388.51</ele>
        <time>2016-10-07T15:59:06Z</time>
      </trkpt>
      <trkpt lat="44.44047" lon="9.16992">
        <ele>386.59</ele>
        <time>2016-10-07T15:59:09Z</time>
      </trkpt>
      <trkpt lat="44.44045" lon="9.17001">
        <ele>386.59</ele>
        <time>2016-10-07T15:59:10Z</time>
      </trkpt>
      <trkpt lat="44.44042" lon="9.17008">
        <ele>386.59</ele>
        <time>2016-10-07T15:59:11Z</time>
      </trkpt>
      <trkpt lat="44.44028" lon="9.17037">
        <ele>384.18</ele>
        <time>2016-10-07T15:59:15Z</time>
      </trkpt>
      <trkpt lat="44.44024" lon="9.17044">
        <ele>384.18</ele>
        <time>2016-10-07T15:59:16Z</time>
      </trkpt>
      <trkpt lat="44.44021" lon="9.17052">
        <ele>384.18</ele>
        <time>2016-10-07T15:59:17Z</time>
      </trkpt>
      <trkpt lat="44.4402" lon="9.1706">
        <ele>382.74</ele>
        <time>2016-10-07T15:59:18Z</time>
      </trkpt>
      <trkpt lat="44.4402" lon="9.17068">
        <ele>382.26</ele>
        <time>2016-10-07T15:59:19Z</time>
      </trkpt>
      <trkpt lat="44.44021" lon="9.17074">
        <ele>382.26</ele>
        <time>2016-10-07T15:59:20Z</time>
      </trkpt>
      <trkpt lat="44.44022" lon="9.1708">
        <ele>381.78</ele>
        <time>2016-10-07T15:59:21Z</time>
      </trkpt>
      <trkpt lat="44.44023" lon="9.17085">
        <ele>381.78</ele>
        <time>2016-10-07T15:59:22Z</time>
      </trkpt>
      <trkpt lat="44.44024" lon="9.17088">
        <ele>381.3</ele>
        <time>2016-10-07T15:59:23Z</time>
      </trkpt>
      <trkpt lat="44.44017" lon="9.17106">
        <ele>380.34</ele>
        <time>2016-10-07T15:59:35Z</time>
      </trkpt>
      <trkpt lat="44.44015" lon="9.17111">
        <ele>379.86</ele>
        <time>2016-10-07T16:00:05Z</time>
      </trkpt>
      <trkpt lat="44.44014" lon="9.1711">
        <ele>379.86</ele>
        <time>2016-10-07T16:00:06Z</time>
      </trkpt>
      <trkpt lat="44.44013" lon="9.17108">
        <ele>379.38</ele>
        <time>2016-10-07T16:00:07Z</time>
      </trkpt>
      <trkpt lat="44.44007" lon="9.17075">
        <ele>378.42</ele>
        <time>2016-10-07T16:00:14Z</time>
      </trkpt>
      <trkpt lat="44.44007" lon="9.17069">
        <ele>377.94</ele>
        <time>2016-10-07T16:00:15Z</time>
      </trkpt>
      <trkpt lat="44.44007" lon="9.17061">
        <ele>377.94</ele>
        <time>2016-10-07T16:00:16Z</time>
      </trkpt>
      <trkpt lat="44.44008" lon="9.17054">
        <ele>377.45</ele>
        <time>2016-10-07T16:00:17Z</time>
      </trkpt>
      <trkpt lat="44.4401" lon="9.17047">
        <ele>376.97</ele>
        <time>2016-10-07T16:00:18Z</time>
      </trkpt>
      <trkpt lat="44.44036" lon="9.1697">
        <ele>373.61</ele>
        <time>2016-10-07T16:00:28Z</time>
      </trkpt>
      <trkpt lat="44.44051" lon="9.1693">
        <ele>371.69</ele>
        <time>2016-10-07T16:00:33Z</time>
      </trkpt>
      <trkpt lat="44.44055" lon="9.16924">
        <ele>371.21</ele>
        <time>2016-10-07T16:00:34Z</time>
      </trkpt>
      <trkpt lat="44.44059" lon="9.16918">
        <ele>370.73</ele>
        <time>2016-10-07T16:00:35Z</time>
      </trkpt>
      <trkpt lat="44.44086" lon="9.16892">
        <ele>367.84</ele>
        <time>2016-10-07T16:00:40Z</time>
      </trkpt>
      <trkpt lat="44.44091" lon="9.16887">
        <ele>367.36</ele>
        <time>2016-10-07T16:00:41Z</time>
      </trkpt>
      <trkpt lat="44.44095" lon="9.16881">
        <ele>366.88</ele>
        <time>2016-10-07T16:00:42Z</time>
      </trkpt>
      <trkpt lat="44.44097" lon="9.16874">
        <ele>365.92</ele>
        <time>2016-10-07T16:00:43Z</time>
      </trkpt>
      <trkpt lat="44.44098" lon="9.16866">
        <ele>365.44</ele>
        <time>2016-10-07T16:00:44Z</time>
      </trkpt>
      <trkpt lat="44.44097" lon="9.16857">
        <ele>364.96</ele>
        <time>2016-10-07T16:00:45Z</time>
      </trkpt>
      <trkpt lat="44.44096" lon="9.1685">
        <ele>364</ele>
        <time>2016-10-07T16:00:46Z</time>
      </trkpt>
      <trkpt lat="44.44093" lon="9.16842">
        <ele>364</ele>
        <time>2016-10-07T16:00:47Z</time>
      </trkpt>
      <trkpt lat="44.44088" lon="9.16836">
        <ele>363.52</ele>
        <time>2016-10-07T16:00:48Z</time>
      </trkpt>
      <trkpt lat="44.44079" lon="9.16826">
        <ele>362.55</ele>
        <time>2016-10-07T16:00:50Z</time>
      </trkpt>
      <trkpt lat="44.44075" lon="9.1682">
        <ele>362.07</ele>
        <time>2016-10-07T16:00:51Z</time>
      </trkpt>
      <trkpt lat="44.44074" lon="9.16812">
        <ele>362.07</ele>
        <time>2016-10-07T16:00:52Z</time>
      </trkpt>
      <trkpt lat="44.44073" lon="9.16803">
        <ele>361.59</ele>
        <time>2016-10-07T16:00:53Z</time>
      </trkpt>
      <trkpt lat="44.44072" lon="9.16795">
        <ele>360.63</ele>
        <time>2016-10-07T16:00:54Z</time>
      </trkpt>
      <trkpt lat="44.44073" lon="9.16787">
        <ele>359.67</ele>
        <time>2016-10-07T16:00:55Z</time>
      </trkpt>
      <trkpt lat="44.44075" lon="9.1678">
        <ele>359.67</ele>
        <time>2016-10-07T16:00:56Z</time>
      </trkpt>
      <trkpt lat="44.44075" lon="9.1676">
        <ele>359.19</ele>
        <time>2016-10-07T16:01:00Z</time>
      </trkpt>
      <trkpt lat="44.44073" lon="9.16756">
        <ele>358.23</ele>
        <time>2016-10-07T16:01:01Z</time>
      </trkpt>
      <trkpt lat="44.44071" lon="9.16756">
        <ele>357.75</ele>
        <time>2016-10-07T16:01:02Z</time>
      </trkpt>
      <trkpt lat="44.4407" lon="9.16759">
        <ele>357.75</ele>
        <time>2016-10-07T16:01:03Z</time>
      </trkpt>
      <trkpt lat="44.44068" lon="9.16765">
        <ele>357.27</ele>
        <time>2016-10-07T16:01:04Z</time>
      </trkpt>
      <trkpt lat="44.44066" lon="9.16773">
        <ele>357.27</ele>
        <time>2016-10-07T16:01:05Z</time>
      </trkpt>
      <trkpt lat="44.44065" lon="9.16782">
        <ele>356.31</ele>
        <time>2016-10-07T16:01:06Z</time>
      </trkpt>
      <trkpt lat="44.4406" lon="9.16819">
        <ele>355.34</ele>
        <time>2016-10-07T16:01:10Z</time>
      </trkpt>
      <trkpt lat="44.44061" lon="9.16827">
        <ele>354.86</ele>
        <time>2016-10-07T16:01:11Z</time>
      </trkpt>
      <trkpt lat="44.44064" lon="9.16834">
        <ele>354.38</ele>
        <time>2016-10-07T16:01:12Z</time>
      </trkpt>
      <trkpt lat="44.44071" lon="9.16847">
        <ele>352.94</ele>
        <time>2016-10-07T16:01:14Z</time>
      </trkpt>
      <trkpt lat="44.44074" lon="9.16854">
        <ele>352.94</ele>
        <time>2016-10-07T16:01:15Z</time>
      </trkpt>
      <trkpt lat="44.44073" lon="9.16863">
        <ele>351.5</ele>
        <time>2016-10-07T16:01:16Z</time>
      </trkpt>
      <trkpt lat="44.44068" lon="9.16869">
        <ele>351.02</ele>
        <time>2016-10-07T16:01:17Z</time>
      </trkpt>
      <trkpt lat="44.44061" lon="9.16873">
        <ele>351.5</ele>
        <time>2016-10-07T16:01:18Z</time>
      </trkpt>
      <trkpt lat="44.44053" lon="9.16877">
        <ele>350.54</ele>
        <time>2016-10-07T16:01:19Z</time>
      </trkpt>
      <trkpt lat="44.44045" lon="9.16879">
        <ele>350.06</ele>
        <time>2016-10-07T16:01:20Z</time>
      </trkpt>
      <trkpt lat="44.44037" lon="9.1688">
        <ele>349.58</ele>
        <time>2016-10-07T16:01:21Z</time>
      </trkpt>
      <trkpt lat="44.44021" lon="9.16885">
        <ele>348.62</ele>
        <time>2016-10-07T16:01:23Z</time>
      </trkpt>
      <trkpt lat="44.44013" lon="9.1689">
        <ele>348.13</ele>
        <time>2016-10-07T16:01:24Z</time>
      </trkpt>
      <trkpt lat="44.44005" lon="9.16896">
        <ele>346.69</ele>
        <time>2016-10-07T16:01:25Z</time>
      </trkpt>
      <trkpt lat="44.43985" lon="9.16915">
        <ele>344.77</ele>
        <time>2016-10-07T16:01:28Z</time>
      </trkpt>
      <trkpt lat="44.43954" lon="9.16949">
        <ele>341.41</ele>
        <time>2016-10-07T16:01:33Z</time>
      </trkpt>
      <trkpt lat="44.43941" lon="9.16962">
        <ele>340.92</ele>
        <time>2016-10-07T16:01:35Z</time>
      </trkpt>
      <trkpt lat="44.43929" lon="9.16977">
        <ele>339.48</ele>
        <time>2016-10-07T16:01:37Z</time>
      </trkpt>
      <trkpt lat="44.43924" lon="9.16986">
        <ele>338.52</ele>
        <time>2016-10-07T16:01:38Z</time>
      </trkpt>
      <trkpt lat="44.43919" lon="9.16995">
        <ele>338.04</ele>
        <time>2016-10-07T16:01:39Z</time>
      </trkpt>
      <trkpt lat="44.43915" lon="9.17005">
        <ele>337.56</ele>
        <time>2016-10-07T16:01:40Z</time>
      </trkpt>
      <trkpt lat="44.43913" lon="9.17015">
        <ele>337.08</ele>
        <time>2016-10-07T16:01:41Z</time>
      </trkpt>
      <trkpt lat="44.43912" lon="9.17026">
        <ele>337.08</ele>
        <time>2016-10-07T16:01:42Z</time>
      </trkpt>
      <trkpt lat="44.43911" lon="9.17036">
        <ele>336.6</ele>
        <time>2016-10-07T16:01:43Z</time>
      </trkpt>
      <trkpt lat="44.43908" lon="9.17055">
        <ele>335.16</ele>
        <time>2016-10-07T16:01:45Z</time>
      </trkpt>
      <trkpt lat="44.43906" lon="9.17065">
        <ele>334.68</ele>
        <time>2016-10-07T16:01:46Z</time>
      </trkpt>
      <trkpt lat="44.43906" lon="9.17074">
        <ele>335.16</ele>
        <time>2016-10-07T16:01:47Z</time>
      </trkpt>
      <trkpt lat="44.43906" lon="9.17081">
        <ele>334.68</ele>
        <time>2016-10-07T16:01:48Z</time>
      </trkpt>
      <trkpt lat="44.43905" lon="9.17088">
        <ele>334.2</ele>
        <time>2016-10-07T16:01:49Z</time>
      </trkpt>
      <trkpt lat="44.43904" lon="9.17091">
        <ele>333.71</ele>
        <time>2016-10-07T16:01:50Z</time>
      </trkpt>
      <trkpt lat="44.43901" lon="9.17093">
        <ele>333.71</ele>
        <time>2016-10-07T16:01:51Z</time>
      </trkpt>
      <trkpt lat="44.43898" lon="9.17092">
        <ele>333.71</ele>
        <time>2016-10-07T16:01:52Z</time>
      </trkpt>
      <trkpt lat="44.43895" lon="9.17089">
        <ele>332.75</ele>
        <time>2016-10-07T16:01:53Z</time>
      </trkpt>
      <trkpt lat="44.43894" lon="9.17085">
        <ele>332.75</ele>
        <time>2016-10-07T16:01:54Z</time>
      </trkpt>
      <trkpt lat="44.43894" lon="9.17079">
        <ele>333.23</ele>
        <time>2016-10-07T16:01:55Z</time>
      </trkpt>
      <trkpt lat="44.43894" lon="9.17073">
        <ele>333.23</ele>
        <time>2016-10-07T16:01:56Z</time>
      </trkpt>
      <trkpt lat="44.43894" lon="9.17067">
        <ele>332.75</ele>
        <time>2016-10-07T16:01:57Z</time>
      </trkpt>
      <trkpt lat="44.43894" lon="9.17061">
        <ele>332.27</ele>
        <time>2016-10-07T16:01:58Z</time>
      </trkpt>
      <trkpt lat="44.43894" lon="9.17054">
        <ele>331.79</ele>
        <time>2016-10-07T16:01:59Z</time>
      </trkpt>
      <trkpt lat="44.43894" lon="9.17025">
        <ele>331.31</ele>
        <time>2016-10-07T16:02:03Z</time>
      </trkpt>
      <trkpt lat="44.43895" lon="9.17017">
        <ele>330.83</ele>
        <time>2016-10-07T16:02:04Z</time>
      </trkpt>
      <trkpt lat="44.43909" lon="9.16947">
        <ele>327.47</ele>
        <time>2016-10-07T16:02:12Z</time>
      </trkpt>
      <trkpt lat="44.43911" lon="9.16937">
        <ele>327.47</ele>
        <time>2016-10-07T16:02:13Z</time>
      </trkpt>
      <trkpt lat="44.43925" lon="9.16902">
        <ele>325.06</ele>
        <time>2016-10-07T16:02:17Z</time>
      </trkpt>
      <trkpt lat="44.43937" lon="9.16879">
        <ele>323.62</ele>
        <time>2016-10-07T16:02:20Z</time>
      </trkpt>
      <trkpt lat="44.43942" lon="9.16872">
        <ele>322.18</ele>
        <time>2016-10-07T16:02:21Z</time>
      </trkpt>
      <trkpt lat="44.43952" lon="9.16859">
        <ele>321.22</ele>
        <time>2016-10-07T16:02:23Z</time>
      </trkpt>
      <trkpt lat="44.4397" lon="9.16842">
        <ele>318.81</ele>
        <time>2016-10-07T16:02:26Z</time>
      </trkpt>
      <trkpt lat="44.43974" lon="9.16837">
        <ele>318.81</ele>
        <time>2016-10-07T16:02:27Z</time>
      </trkpt>
      <trkpt lat="44.43978" lon="9.16831">
        <ele>317.85</ele>
        <time>2016-10-07T16:02:28Z</time>
      </trkpt>
      <trkpt lat="44.43979" lon="9.16823">
        <ele>316.89</ele>
        <time>2016-10-07T16:02:29Z</time>
      </trkpt>
      <trkpt lat="44.43979" lon="9.16815">
        <ele>316.41</ele>
        <time>2016-10-07T16:02:30Z</time>
      </trkpt>
      <trkpt lat="44.43978" lon="9.16808">
        <ele>315.93</ele>
        <time>2016-10-07T16:02:31Z</time>
      </trkpt>
      <trkpt lat="44.43975" lon="9.16803">
        <ele>315.45</ele>
        <time>2016-10-07T16:02:32Z</time>
      </trkpt>
      <trkpt lat="44.43971" lon="9.16797">
        <ele>314.49</ele>
        <time>2016-10-07T16:02:33Z</time>
      </trkpt>
      <trkpt lat="44.43965" lon="9.16792">
        <ele>313.53</ele>
        <time>2016-10-07T16:02:34Z</time>
      </trkpt>
      <trkpt lat="44.43959" lon="9.16786">
        <ele>312.57</ele>
        <time>2016-10-07T16:02:35Z</time>
      </trkpt>
      <trkpt lat="44.43952" lon="9.16781">
        <ele>312.57</ele>
        <time>2016-10-07T16:02:36Z</time>
      </trkpt>
      <trkpt lat="44.43927" lon="9.16756">
        <ele>310.64</ele>
        <time>2016-10-07T16:02:40Z</time>
      </trkpt>
      <trkpt lat="44.43925" lon="9.16749">
        <ele>310.64</ele>
        <time>2016-10-07T16:02:41Z</time>
      </trkpt>
      <trkpt lat="44.43926" lon="9.16741">
        <ele>309.68</ele>
        <time>2016-10-07T16:02:42Z</time>
      </trkpt>
      <trkpt lat="44.43936" lon="9.167">
        <ele>306.8</ele>
        <time>2016-10-07T16:02:46Z</time>
      </trkpt>
      <trkpt lat="44.43939" lon="9.16689">
        <ele>306.32</ele>
        <time>2016-10-07T16:02:47Z</time>
      </trkpt>
      <trkpt lat="44.43944" lon="9.16679">
        <ele>305.84</ele>
        <time>2016-10-07T16:02:48Z</time>
      </trkpt>
      <trkpt lat="44.43948" lon="9.16669">
        <ele>305.36</ele>
        <time>2016-10-07T16:02:49Z</time>
      </trkpt>
      <trkpt lat="44.43953" lon="9.1666">
        <ele>304.88</ele>
        <time>2016-10-07T16:02:50Z</time>
      </trkpt>
      <trkpt lat="44.43959" lon="9.16652">
        <ele>304.39</ele>
        <time>2016-10-07T16:02:51Z</time>
      </trkpt>
      <trkpt lat="44.43974" lon="9.16624">
        <ele>302.47</ele>
        <time>2016-10-07T16:02:54Z</time>
      </trkpt>
      <trkpt lat="44.43983" lon="9.16606">
        <ele>300.55</ele>
        <time>2016-10-07T16:02:56Z</time>
      </trkpt>
      <trkpt lat="44.43989" lon="9.16597">
        <ele>299.59</ele>
        <time>2016-10-07T16:02:57Z</time>
      </trkpt>
      <trkpt lat="44.43996" lon="9.16589">
        <ele>299.11</ele>
        <time>2016-10-07T16:02:58Z</time>
      </trkpt>
      <trkpt lat="44.44011" lon="9.16574">
        <ele>297.67</ele>
        <time>2016-10-07T16:03:00Z</time>
      </trkpt>
      <trkpt lat="44.44017" lon="9.16564">
        <ele>297.67</ele>
        <time>2016-10-07T16:03:01Z</time>
      </trkpt>
      <trkpt lat="44.44027" lon="9.16544">
        <ele>295.74</ele>
        <time>2016-10-07T16:03:03Z</time>
      </trkpt>
      <trkpt lat="44.44043" lon="9.16513">
        <ele>293.82</ele>
        <time>2016-10-07T16:03:06Z</time>
      </trkpt>
      <trkpt lat="44.44046" lon="9.16502">
        <ele>292.86</ele>
        <time>2016-10-07T16:03:07Z</time>
      </trkpt>
      <trkpt lat="44.44049" lon="9.16489">
        <ele>291.9</ele>
        <time>2016-10-07T16:03:08Z</time>
      </trkpt>
      <trkpt lat="44.44051" lon="9.16477">
        <ele>291.9</ele>
        <time>2016-10-07T16:03:09Z</time>
      </trkpt>
      <trkpt lat="44.44051" lon="9.16464">
        <ele>290.46</ele>
        <time>2016-10-07T16:03:10Z</time>
      </trkpt>
      <trkpt lat="44.4405" lon="9.16452">
        <ele>289.97</ele>
        <time>2016-10-07T16:03:11Z</time>
      </trkpt>
      <trkpt lat="44.44046" lon="9.1644">
        <ele>289.01</ele>
        <time>2016-10-07T16:03:12Z</time>
      </trkpt>
      <trkpt lat="44.4404" lon="9.16429">
        <ele>287.57</ele>
        <time>2016-10-07T16:03:13Z</time>
      </trkpt>
      <trkpt lat="44.44035" lon="9.16418">
        <ele>287.09</ele>
        <time>2016-10-07T16:03:14Z</time>
      </trkpt>
      <trkpt lat="44.44017" lon="9.16386">
        <ele>284.21</ele>
        <time>2016-10-07T16:03:17Z</time>
      </trkpt>
      <trkpt lat="44.43995" lon="9.16346">
        <ele>280.84</ele>
        <time>2016-10-07T16:03:21Z</time>
      </trkpt>
      <trkpt lat="44.43982" lon="9.16319">
        <ele>277.48</ele>
        <time>2016-10-07T16:03:24Z</time>
      </trkpt>
      <trkpt lat="44.43979" lon="9.16309">
        <ele>276.52</ele>
        <time>2016-10-07T16:03:25Z</time>
      </trkpt>
      <trkpt lat="44.43977" lon="9.16299">
        <ele>276.52</ele>
        <time>2016-10-07T16:03:26Z</time>
      </trkpt>
      <trkpt lat="44.43978" lon="9.16289">
        <ele>275.56</ele>
        <time>2016-10-07T16:03:27Z</time>
      </trkpt>
      <trkpt lat="44.4398" lon="9.16278">
        <ele>275.07</ele>
        <time>2016-10-07T16:03:28Z</time>
      </trkpt>
      <trkpt lat="44.43982" lon="9.16267">
        <ele>274.59</ele>
        <time>2016-10-07T16:03:29Z</time>
      </trkpt>
      <trkpt lat="44.43982" lon="9.16256">
        <ele>273.63</ele>
        <time>2016-10-07T16:03:30Z</time>
      </trkpt>
      <trkpt lat="44.43981" lon="9.16224">
        <ele>271.23</ele>
        <time>2016-10-07T16:03:33Z</time>
      </trkpt>
      <trkpt lat="44.43982" lon="9.16214">
        <ele>270.27</ele>
        <time>2016-10-07T16:03:34Z</time>
      </trkpt>
      <trkpt lat="44.43985" lon="9.16205">
        <ele>268.83</ele>
        <time>2016-10-07T16:03:35Z</time>
      </trkpt>
      <trkpt lat="44.4399" lon="9.16196">
        <ele>269.31</ele>
        <time>2016-10-07T16:03:36Z</time>
      </trkpt>
      <trkpt lat="44.43993" lon="9.16185">
        <ele>268.35</ele>
        <time>2016-10-07T16:03:37Z</time>
      </trkpt>
      <trkpt lat="44.43996" lon="9.16164">
        <ele>266.42</ele>
        <time>2016-10-07T16:03:39Z</time>
      </trkpt>
      <trkpt lat="44.43993" lon="9.16143">
        <ele>264.98</ele>
        <time>2016-10-07T16:03:41Z</time>
      </trkpt>
      <trkpt lat="44.43989" lon="9.16135">
        <ele>263.54</ele>
        <time>2016-10-07T16:03:42Z</time>
      </trkpt>
      <trkpt lat="44.43984" lon="9.16128">
        <ele>262.58</ele>
        <time>2016-10-07T16:03:43Z</time>
      </trkpt>
      <trkpt lat="44.43958" lon="9.16107">
        <ele>260.65</ele>
        <time>2016-10-07T16:03:47Z</time>
      </trkpt>
      <trkpt lat="44.43953" lon="9.16098">
        <ele>259.21</ele>
        <time>2016-10-07T16:03:48Z</time>
      </trkpt>
      <trkpt lat="44.43949" lon="9.16087">
        <ele>258.25</ele>
        <time>2016-10-07T16:03:49Z</time>
      </trkpt>
      <trkpt lat="44.43948" lon="9.16076">
        <ele>257.77</ele>
        <time>2016-10-07T16:03:50Z</time>
      </trkpt>
      <trkpt lat="44.43947" lon="9.16065">
        <ele>256.81</ele>
        <time>2016-10-07T16:03:51Z</time>
      </trkpt>
      <trkpt lat="44.43945" lon="9.16043">
        <ele>255.37</ele>
        <time>2016-10-07T16:03:53Z</time>
      </trkpt>
      <trkpt lat="44.43945" lon="9.15999">
        <ele>252.96</ele>
        <time>2016-10-07T16:03:57Z</time>
      </trkpt>
      <trkpt lat="44.43942" lon="9.15988">
        <ele>251.52</ele>
        <time>2016-10-07T16:03:58Z</time>
      </trkpt>
      <trkpt lat="44.43937" lon="9.15979">
        <ele>250.56</ele>
        <time>2016-10-07T16:03:59Z</time>
      </trkpt>
      <trkpt lat="44.4393" lon="9.15971">
        <ele>250.08</ele>
        <time>2016-10-07T16:04:00Z</time>
      </trkpt>
      <trkpt lat="44.43923" lon="9.15963">
        <ele>249.12</ele>
        <time>2016-10-07T16:04:01Z</time>
      </trkpt>
      <trkpt lat="44.43896" lon="9.15939">
        <ele>245.75</ele>
        <time>2016-10-07T16:04:05Z</time>
      </trkpt>
      <trkpt lat="44.43889" lon="9.15932">
        <ele>245.27</ele>
        <time>2016-10-07T16:04:06Z</time>
      </trkpt>
      <trkpt lat="44.43883" lon="9.15926">
        <ele>243.83</ele>
        <time>2016-10-07T16:04:07Z</time>
      </trkpt>
      <trkpt lat="44.43879" lon="9.15919">
        <ele>243.83</ele>
        <time>2016-10-07T16:04:08Z</time>
      </trkpt>
      <trkpt lat="44.43875" lon="9.15912">
        <ele>242.39</ele>
        <time>2016-10-07T16:04:09Z</time>
      </trkpt>
      <trkpt lat="44.43871" lon="9.15907">
        <ele>242.87</ele>
        <time>2016-10-07T16:04:10Z</time>
      </trkpt>
      <trkpt lat="44.43866" lon="9.15906">
        <ele>241.91</ele>
        <time>2016-10-07T16:04:11Z</time>
      </trkpt>
      <trkpt lat="44.43861" lon="9.1591">
        <ele>240.95</ele>
        <time>2016-10-07T16:04:12Z</time>
      </trkpt>
      <trkpt lat="44.43857" lon="9.15916">
        <ele>240.95</ele>
        <time>2016-10-07T16:04:13Z</time>
      </trkpt>
      <trkpt lat="44.43857" lon="9.15924">
        <ele>240.95</ele>
        <time>2016-10-07T16:04:14Z</time>
      </trkpt>
      <trkpt lat="44.43859" lon="9.15932">
        <ele>239.99</ele>
        <time>2016-10-07T16:04:15Z</time>
      </trkpt>
      <trkpt lat="44.43863" lon="9.1594">
        <ele>239.51</ele>
        <time>2016-10-07T16:04:16Z</time>
      </trkpt>
      <trkpt lat="44.43879" lon="9.1597">
        <ele>237.1</ele>
        <time>2016-10-07T16:04:20Z</time>
      </trkpt>
      <trkpt lat="44.43882" lon="9.15975">
        <ele>237.1</ele>
        <time>2016-10-07T16:04:21Z</time>
      </trkpt>
      <trkpt lat="44.43881" lon="9.15981">
        <ele>236.14</ele>
        <time>2016-10-07T16:04:22Z</time>
      </trkpt>
      <trkpt lat="44.43879" lon="9.15985">
        <ele>235.66</ele>
        <time>2016-10-07T16:04:23Z</time>
      </trkpt>
      <trkpt lat="44.43874" lon="9.15985">
        <ele>234.7</ele>
        <time>2016-10-07T16:04:24Z</time>
      </trkpt>
      <trkpt lat="44.4387" lon="9.15983">
        <ele>233.74</ele>
        <time>2016-10-07T16:04:25Z</time>
      </trkpt>
      <trkpt lat="44.43865" lon="9.15979">
        <ele>234.22</ele>
        <time>2016-10-07T16:04:26Z</time>
      </trkpt>
      <trkpt lat="44.4386" lon="9.15974">
        <ele>233.26</ele>
        <time>2016-10-07T16:04:27Z</time>
      </trkpt>
      <trkpt lat="44.43854" lon="9.1597">
        <ele>233.74</ele>
        <time>2016-10-07T16:04:28Z</time>
      </trkpt>
      <trkpt lat="44.43844" lon="9.1596">
        <ele>232.3</ele>
        <time>2016-10-07T16:04:30Z</time>
      </trkpt>
      <trkpt lat="44.43839" lon="9.15953">
        <ele>232.3</ele>
        <time>2016-10-07T16:04:31Z</time>
      </trkpt>
      <trkpt lat="44.43835" lon="9.15946">
        <ele>231.81</ele>
        <time>2016-10-07T16:04:32Z</time>
      </trkpt>
      <trkpt lat="44.43832" lon="9.15938">
        <ele>231.33</ele>
        <time>2016-10-07T16:04:33Z</time>
      </trkpt>
      <trkpt lat="44.43828" lon="9.1593">
        <ele>231.33</ele>
        <time>2016-10-07T16:04:34Z</time>
      </trkpt>
      <trkpt lat="44.43825" lon="9.1592">
        <ele>230.37</ele>
        <time>2016-10-07T16:04:35Z</time>
      </trkpt>
      <trkpt lat="44.43804" lon="9.1586">
        <ele>226.05</ele>
        <time>2016-10-07T16:04:41Z</time>
      </trkpt>
      <trkpt lat="44.43796" lon="9.15831">
        <ele>224.61</ele>
        <time>2016-10-07T16:04:44Z</time>
      </trkpt>
      <trkpt lat="44.43792" lon="9.15812">
        <ele>222.68</ele>
        <time>2016-10-07T16:04:46Z</time>
      </trkpt>
      <trkpt lat="44.43789" lon="9.15803">
        <ele>222.2</ele>
        <time>2016-10-07T16:04:47Z</time>
      </trkpt>
      <trkpt lat="44.43785" lon="9.15795">
        <ele>221.72</ele>
        <time>2016-10-07T16:04:48Z</time>
      </trkpt>
      <trkpt lat="44.43775" lon="9.15777">
        <ele>220.28</ele>
        <time>2016-10-07T16:04:50Z</time>
      </trkpt>
      <trkpt lat="44.4376" lon="9.15752">
        <ele>216.91</ele>
        <time>2016-10-07T16:04:53Z</time>
      </trkpt>
      <trkpt lat="44.43736" lon="9.15714">
        <ele>213.55</ele>
        <time>2016-10-07T16:04:58Z</time>
      </trkpt>
      <trkpt lat="44.43718" lon="9.15685">
        <ele>210.19</ele>
        <time>2016-10-07T16:05:02Z</time>
      </trkpt>
      <trkpt lat="44.43714" lon="9.15678">
        <ele>209.7</ele>
        <time>2016-10-07T16:05:03Z</time>
      </trkpt>
      <trkpt lat="44.43713" lon="9.15668">
        <ele>208.26</ele>
        <time>2016-10-07T16:05:04Z</time>
      </trkpt>
      <trkpt lat="44.43714" lon="9.1566">
        <ele>207.78</ele>
        <time>2016-10-07T16:05:05Z</time>
      </trkpt>
      <trkpt lat="44.43715" lon="9.15651">
        <ele>206.82</ele>
        <time>2016-10-07T16:05:06Z</time>
      </trkpt>
      <trkpt lat="44.43718" lon="9.15644">
        <ele>206.34</ele>
        <time>2016-10-07T16:05:07Z</time>
      </trkpt>
      <trkpt lat="44.43722" lon="9.15637">
        <ele>205.38</ele>
        <time>2016-10-07T16:05:08Z</time>
      </trkpt>
      <trkpt lat="44.43727" lon="9.15632">
        <ele>205.38</ele>
        <time>2016-10-07T16:05:09Z</time>
      </trkpt>
      <trkpt lat="44.43732" lon="9.15629">
        <ele>204.42</ele>
        <time>2016-10-07T16:05:10Z</time>
      </trkpt>
      <trkpt lat="44.43748" lon="9.15619">
        <ele>202.49</ele>
        <time>2016-10-07T16:05:13Z</time>
      </trkpt>
      <trkpt lat="44.43763" lon="9.1561">
        <ele>200.57</ele>
        <time>2016-10-07T16:05:16Z</time>
      </trkpt>
      <trkpt lat="44.43774" lon="9.15604">
        <ele>199.13</ele>
        <time>2016-10-07T16:05:20Z</time>
      </trkpt>
      <trkpt lat="44.43803" lon="9.15592">
        <ele>197.21</ele>
        <time>2016-10-07T16:05:30Z</time>
      </trkpt>
      <trkpt lat="44.43831" lon="9.15579">
        <ele>194.32</ele>
        <time>2016-10-07T16:05:35Z</time>
      </trkpt>
      <trkpt lat="44.43846" lon="9.15575">
        <ele>192.4</ele>
        <time>2016-10-07T16:05:38Z</time>
      </trkpt>
      <trkpt lat="44.43851" lon="9.15575">
        <ele>191.92</ele>
        <time>2016-10-07T16:05:39Z</time>
      </trkpt>
      <trkpt lat="44.43855" lon="9.15575">
        <ele>190.48</ele>
        <time>2016-10-07T16:05:40Z</time>
      </trkpt>
      <trkpt lat="44.43859" lon="9.15575">
        <ele>190.48</ele>
        <time>2016-10-07T16:05:41Z</time>
      </trkpt>
      <trkpt lat="44.43863" lon="9.15574">
        <ele>190.48</ele>
        <time>2016-10-07T16:05:42Z</time>
      </trkpt>
      <trkpt lat="44.43877" lon="9.15557">
        <ele>190</ele>
        <time>2016-10-07T16:05:51Z</time>
      </trkpt>
      <trkpt lat="44.43876" lon="9.15553">
        <ele>189.52</ele>
        <time>2016-10-07T16:06:12Z</time>
      </trkpt>
      <trkpt lat="44.43878" lon="9.15551">
        <ele>190</ele>
        <time>2016-10-07T16:06:46Z</time>
      </trkpt>
      <trkpt lat="44.43879" lon="9.15549">
        <ele>189.52</ele>
        <time>2016-10-07T16:07:10Z</time>
      </trkpt>
      <trkpt lat="44.4388" lon="9.15545">
        <ele>190</ele>
        <time>2016-10-07T16:07:37Z</time>
      </trkpt>
      <trkpt lat="44.43878" lon="9.15542">
        <ele>189.52</ele>
        <time>2016-10-07T16:08:06Z</time>
      </trkpt>
      <trkpt lat="44.43878" lon="9.15548">
        <ele>190</ele>
        <time>2016-10-07T16:08:36Z</time>
      </trkpt>
      <trkpt lat="44.43878" lon="9.15547">
        <ele>189.52</ele>
        <time>2016-10-07T16:09:04Z</time>
      </trkpt>
      <trkpt lat="44.43877" lon="9.15545">
        <ele>189.52</ele>
        <time>2016-10-07T16:09:30Z</time>
      </trkpt>
      <trkpt lat="44.43878" lon="9.15543">
        <ele>189.52</ele>
        <time>2016-10-07T16:10:02Z</time>
      </trkpt>
      <trkpt lat="44.43878" lon="9.15543">
        <ele>189.52</ele>
        <time>2016-10-07T16:10:30Z</time>
      </trkpt>
      <trkpt lat="44.4388" lon="9.15548">
        <ele>190</ele>
        <time>2016-10-07T16:10:55Z</time>
      </trkpt>
      <trkpt lat="44.4388" lon="9.15549">
        <ele>189.52</ele>
        <time>2016-10-07T16:11:22Z</time>
      </trkpt>
      <trkpt lat="44.4388" lon="9.15549">
        <ele>190.48</ele>
        <time>2016-10-07T16:11:42Z</time>
      </trkpt>
      <trkpt lat="44.4388" lon="9.15549">
        <ele>189.52</ele>
        <time>2016-10-07T16:12:00Z</time>
      </trkpt>
      <trkpt lat="44.43879" lon="9.15547">
        <ele>189.04</ele>
        <time>2016-10-07T16:12:01Z</time>
      </trkpt>
      <trkpt lat="44.43878" lon="9.15546">
        <ele>189.52</ele>
        <time>2016-10-07T16:12:02Z</time>
      </trkpt>
      <trkpt lat="44.43876" lon="9.15544">
        <ele>189.52</ele>
        <time>2016-10-07T16:12:03Z</time>
      </trkpt>
      <trkpt lat="44.43873" lon="9.15544">
        <ele>190</ele>
        <time>2016-10-07T16:12:04Z</time>
      </trkpt>
      <trkpt lat="44.4387" lon="9.15544">
        <ele>189.52</ele>
        <time>2016-10-07T16:12:05Z</time>
      </trkpt>
      <trkpt lat="44.43867" lon="9.15545">
        <ele>189.04</ele>
        <time>2016-10-07T16:12:06Z</time>
      </trkpt>
      <trkpt lat="44.43864" lon="9.15546">
        <ele>189.04</ele>
        <time>2016-10-07T16:12:07Z</time>
      </trkpt>
      <trkpt lat="44.4386" lon="9.15547">
        <ele>189.04</ele>
        <time>2016-10-07T16:12:08Z</time>
      </trkpt>
      <trkpt lat="44.43857" lon="9.15547">
        <ele>189.04</ele>
        <time>2016-10-07T16:12:09Z</time>
      </trkpt>
      <trkpt lat="44.43853" lon="9.15548">
        <ele>189.04</ele>
        <time>2016-10-07T16:12:10Z</time>
      </trkpt>
      <trkpt lat="44.43849" lon="9.15548">
        <ele>189.04</ele>
        <time>2016-10-07T16:12:11Z</time>
      </trkpt>
      <trkpt lat="44.43782" lon="9.15562">
        <ele>187.11</ele>
        <time>2016-10-07T16:12:24Z</time>
      </trkpt>
      <trkpt lat="44.43776" lon="9.15563">
        <ele>186.15</ele>
        <time>2016-10-07T16:12:25Z</time>
      </trkpt>
      <trkpt lat="44.43701" lon="9.1557">
        <ele>184.71</ele>
        <time>2016-10-07T16:12:37Z</time>
      </trkpt>
      <trkpt lat="44.43674" lon="9.15574">
        <ele>184.23</ele>
        <time>2016-10-07T16:12:41Z</time>
      </trkpt>
      <trkpt lat="44.43668" lon="9.15577">
        <ele>184.23</ele>
        <time>2016-10-07T16:12:42Z</time>
      </trkpt>
      <trkpt lat="44.43661" lon="9.15582">
        <ele>184.23</ele>
        <time>2016-10-07T16:12:43Z</time>
      </trkpt>
      <trkpt lat="44.43656" lon="9.15589">
        <ele>183.75</ele>
        <time>2016-10-07T16:12:44Z</time>
      </trkpt>
      <trkpt lat="44.43652" lon="9.15596">
        <ele>183.27</ele>
        <time>2016-10-07T16:12:45Z</time>
      </trkpt>
      <trkpt lat="44.43648" lon="9.15605">
        <ele>183.75</ele>
        <time>2016-10-07T16:12:46Z</time>
      </trkpt>
      <trkpt lat="44.43646" lon="9.15614">
        <ele>183.75</ele>
        <time>2016-10-07T16:12:47Z</time>
      </trkpt>
      <trkpt lat="44.43644" lon="9.15623">
        <ele>184.23</ele>
        <time>2016-10-07T16:12:48Z</time>
      </trkpt>
      <trkpt lat="44.43642" lon="9.15633">
        <ele>183.27</ele>
        <time>2016-10-07T16:12:49Z</time>
      </trkpt>
      <trkpt lat="44.43642" lon="9.15643">
        <ele>183.27</ele>
        <time>2016-10-07T16:12:50Z</time>
      </trkpt>
      <trkpt lat="44.43642" lon="9.15653">
        <ele>183.27</ele>
        <time>2016-10-07T16:12:51Z</time>
      </trkpt>
      <trkpt lat="44.43643" lon="9.15663">
        <ele>182.31</ele>
        <time>2016-10-07T16:12:52Z</time>
      </trkpt>
      <trkpt lat="44.43647" lon="9.15692">
        <ele>182.79</ele>
        <time>2016-10-07T16:12:55Z</time>
      </trkpt>
      <trkpt lat="44.4365" lon="9.15701">
        <ele>182.31</ele>
        <time>2016-10-07T16:12:56Z</time>
      </trkpt>
      <trkpt lat="44.43702" lon="9.15784">
        <ele>181.83</ele>
        <time>2016-10-07T16:13:07Z</time>
      </trkpt>
      <trkpt lat="44.43725" lon="9.15811">
        <ele>180.38</ele>
        <time>2016-10-07T16:13:11Z</time>
      </trkpt>
      <trkpt lat="44.43744" lon="9.15843">
        <ele>180.38</ele>
        <time>2016-10-07T16:13:15Z</time>
      </trkpt>
      <trkpt lat="44.43747" lon="9.15852">
        <ele>180.38</ele>
        <time>2016-10-07T16:13:16Z</time>
      </trkpt>
      <trkpt lat="44.43749" lon="9.15861">
        <ele>179.9</ele>
        <time>2016-10-07T16:13:17Z</time>
      </trkpt>
      <trkpt lat="44.43752" lon="9.15902">
        <ele>179.42</ele>
        <time>2016-10-07T16:13:21Z</time>
      </trkpt>
      <trkpt lat="44.43751" lon="9.15913">
        <ele>179.9</ele>
        <time>2016-10-07T16:13:22Z</time>
      </trkpt>
      <trkpt lat="44.43749" lon="9.15923">
        <ele>179.42</ele>
        <time>2016-10-07T16:13:23Z</time>
      </trkpt>
      <trkpt lat="44.43747" lon="9.15933">
        <ele>178.94</ele>
        <time>2016-10-07T16:13:24Z</time>
      </trkpt>
      <trkpt lat="44.43744" lon="9.15942">
        <ele>178.94</ele>
        <time>2016-10-07T16:13:25Z</time>
      </trkpt>
      <trkpt lat="44.4374" lon="9.15951">
        <ele>178.46</ele>
        <time>2016-10-07T16:13:26Z</time>
      </trkpt>
      <trkpt lat="44.43736" lon="9.1596">
        <ele>178.94</ele>
        <time>2016-10-07T16:13:27Z</time>
      </trkpt>
      <trkpt lat="44.43725" lon="9.15989">
        <ele>178.46</ele>
        <time>2016-10-07T16:13:30Z</time>
      </trkpt>
      <trkpt lat="44.43722" lon="9.16">
        <ele>177.98</ele>
        <time>2016-10-07T16:13:31Z</time>
      </trkpt>
      <trkpt lat="44.43712" lon="9.16042">
        <ele>177.5</ele>
        <time>2016-10-07T16:13:35Z</time>
      </trkpt>
      <trkpt lat="44.43708" lon="9.16053">
        <ele>177.02</ele>
        <time>2016-10-07T16:13:36Z</time>
      </trkpt>
      <trkpt lat="44.43703" lon="9.16062">
        <ele>177.5</ele>
        <time>2016-10-07T16:13:37Z</time>
      </trkpt>
      <trkpt lat="44.43676" lon="9.16143">
        <ele>175.58</ele>
        <time>2016-10-07T16:13:45Z</time>
      </trkpt>
      <trkpt lat="44.43676" lon="9.16154">
        <ele>176.06</ele>
        <time>2016-10-07T16:13:46Z</time>
      </trkpt>
      <trkpt lat="44.43677" lon="9.16165">
        <ele>175.1</ele>
        <time>2016-10-07T16:13:47Z</time>
      </trkpt>
      <trkpt lat="44.4368" lon="9.16176">
        <ele>175.1</ele>
        <time>2016-10-07T16:13:48Z</time>
      </trkpt>
      <trkpt lat="44.43683" lon="9.16186">
        <ele>175.1</ele>
        <time>2016-10-07T16:13:49Z</time>
      </trkpt>
      <trkpt lat="44.43687" lon="9.16195">
        <ele>174.62</ele>
        <time>2016-10-07T16:13:50Z</time>
      </trkpt>
      <trkpt lat="44.43693" lon="9.16204">
        <ele>174.62</ele>
        <time>2016-10-07T16:13:51Z</time>
      </trkpt>
      <trkpt lat="44.43698" lon="9.16213">
        <ele>174.62</ele>
        <time>2016-10-07T16:13:52Z</time>
      </trkpt>
      <trkpt lat="44.43702" lon="9.16224">
        <ele>174.62</ele>
        <time>2016-10-07T16:13:53Z</time>
      </trkpt>
      <trkpt lat="44.43703" lon="9.16235">
        <ele>174.14</ele>
        <time>2016-10-07T16:13:54Z</time>
      </trkpt>
      <trkpt lat="44.43703" lon="9.16246">
        <ele>174.14</ele>
        <time>2016-10-07T16:13:55Z</time>
      </trkpt>
      <trkpt lat="44.43702" lon="9.16257">
        <ele>173.66</ele>
        <time>2016-10-07T16:13:56Z</time>
      </trkpt>
      <trkpt lat="44.43699" lon="9.16267">
        <ele>173.66</ele>
        <time>2016-10-07T16:13:57Z</time>
      </trkpt>
      <trkpt lat="44.43694" lon="9.16275">
        <ele>173.66</ele>
        <time>2016-10-07T16:13:58Z</time>
      </trkpt>
      <trkpt lat="44.43689" lon="9.16284">
        <ele>174.14</ele>
        <time>2016-10-07T16:13:59Z</time>
      </trkpt>
      <trkpt lat="44.43646" lon="9.16331">
        <ele>172.21</ele>
        <time>2016-10-07T16:14:06Z</time>
      </trkpt>
      <trkpt lat="44.43638" lon="9.16335">
        <ele>171.73</ele>
        <time>2016-10-07T16:14:07Z</time>
      </trkpt>
      <trkpt lat="44.43599" lon="9.16352">
        <ele>171.25</ele>
        <time>2016-10-07T16:14:12Z</time>
      </trkpt>
      <trkpt lat="44.43592" lon="9.16358">
        <ele>170.29</ele>
        <time>2016-10-07T16:14:13Z</time>
      </trkpt>
      <trkpt lat="44.43586" lon="9.16367">
        <ele>169.81</ele>
        <time>2016-10-07T16:14:14Z</time>
      </trkpt>
      <trkpt lat="44.43581" lon="9.16376">
        <ele>170.29</ele>
        <time>2016-10-07T16:14:15Z</time>
      </trkpt>
      <trkpt lat="44.43577" lon="9.16386">
        <ele>169.81</ele>
        <time>2016-10-07T16:14:16Z</time>
      </trkpt>
      <trkpt lat="44.43573" lon="9.16396">
        <ele>169.81</ele>
        <time>2016-10-07T16:14:17Z</time>
      </trkpt>
      <trkpt lat="44.43509" lon="9.16596">
        <ele>168.37</ele>
        <time>2016-10-07T16:14:36Z</time>
      </trkpt>
      <trkpt lat="44.43456" lon="9.16777">
        <ele>166.45</ele>
        <time>2016-10-07T16:14:54Z</time>
      </trkpt>
      <trkpt lat="44.43429" lon="9.16949">
        <ele>163.56</ele>
        <time>2016-10-07T16:15:10Z</time>
      </trkpt>
      <trkpt lat="44.43414" lon="9.17049">
        <ele>162.6</ele>
        <time>2016-10-07T16:15:19Z</time>
      </trkpt>
      <trkpt lat="44.43415" lon="9.17061">
        <ele>162.12</ele>
        <time>2016-10-07T16:15:20Z</time>
      </trkpt>
      <trkpt lat="44.43415" lon="9.17072">
        <ele>162.12</ele>
        <time>2016-10-07T16:15:21Z</time>
      </trkpt>
      <trkpt lat="44.43429" lon="9.17193">
        <ele>160.68</ele>
        <time>2016-10-07T16:15:32Z</time>
      </trkpt>
      <trkpt lat="44.43436" lon="9.1733">
        <ele>158.75</ele>
        <time>2016-10-07T16:15:44Z</time>
      </trkpt>
      <trkpt lat="44.43434" lon="9.17341">
        <ele>158.27</ele>
        <time>2016-10-07T16:15:45Z</time>
      </trkpt>
      <trkpt lat="44.43429" lon="9.17363">
        <ele>157.79</ele>
        <time>2016-10-07T16:15:47Z</time>
      </trkpt>
      <trkpt lat="44.43426" lon="9.17373">
        <ele>157.79</ele>
        <time>2016-10-07T16:15:48Z</time>
      </trkpt>
      <trkpt lat="44.43421" lon="9.17382">
        <ele>157.31</ele>
        <time>2016-10-07T16:15:49Z</time>
      </trkpt>
      <trkpt lat="44.43416" lon="9.17391">
        <ele>158.27</ele>
        <time>2016-10-07T16:15:50Z</time>
      </trkpt>
      <trkpt lat="44.4341" lon="9.17399">
        <ele>157.79</ele>
        <time>2016-10-07T16:15:51Z</time>
      </trkpt>
      <trkpt lat="44.43403" lon="9.17406">
        <ele>157.31</ele>
        <time>2016-10-07T16:15:52Z</time>
      </trkpt>
      <trkpt lat="44.43395" lon="9.1741">
        <ele>155.87</ele>
        <time>2016-10-07T16:15:53Z</time>
      </trkpt>
      <trkpt lat="44.43388" lon="9.17412">
        <ele>155.87</ele>
        <time>2016-10-07T16:15:54Z</time>
      </trkpt>
      <trkpt lat="44.43379" lon="9.17411">
        <ele>156.35</ele>
        <time>2016-10-07T16:15:55Z</time>
      </trkpt>
      <trkpt lat="44.43372" lon="9.17409">
        <ele>155.87</ele>
        <time>2016-10-07T16:15:56Z</time>
      </trkpt>
      <trkpt lat="44.43364" lon="9.17406">
        <ele>155.87</ele>
        <time>2016-10-07T16:15:57Z</time>
      </trkpt>
      <trkpt lat="44.43348" lon="9.17402">
        <ele>155.87</ele>
        <time>2016-10-07T16:15:59Z</time>
      </trkpt>
      <trkpt lat="44.43326" lon="9.17402">
        <ele>155.87</ele>
        <time>2016-10-07T16:16:02Z</time>
      </trkpt>
      <trkpt lat="44.43319" lon="9.17405">
        <ele>155.87</ele>
        <time>2016-10-07T16:16:03Z</time>
      </trkpt>
      <trkpt lat="44.43313" lon="9.1741">
        <ele>155.87</ele>
        <time>2016-10-07T16:16:04Z</time>
      </trkpt>
      <trkpt lat="44.43307" lon="9.17417">
        <ele>155.87</ele>
        <time>2016-10-07T16:16:05Z</time>
      </trkpt>
      <trkpt lat="44.43303" lon="9.17427">
        <ele>155.87</ele>
        <time>2016-10-07T16:16:06Z</time>
      </trkpt>
      <trkpt lat="44.43301" lon="9.17436">
        <ele>155.39</ele>
        <time>2016-10-07T16:16:07Z</time>
      </trkpt>
      <trkpt lat="44.433" lon="9.17446">
        <ele>153.95</ele>
        <time>2016-10-07T16:16:08Z</time>
      </trkpt>
      <trkpt lat="44.43299" lon="9.17456">
        <ele>154.43</ele>
        <time>2016-10-07T16:16:09Z</time>
      </trkpt>
      <trkpt lat="44.43287" lon="9.17574">
        <ele>152.99</ele>
        <time>2016-10-07T16:16:22Z</time>
      </trkpt>
      <trkpt lat="44.43306" lon="9.17705">
        <ele>151.54</ele>
        <time>2016-10-07T16:16:36Z</time>
      </trkpt>
      <trkpt lat="44.43307" lon="9.17714">
        <ele>151.06</ele>
        <time>2016-10-07T16:16:37Z</time>
      </trkpt>
      <trkpt lat="44.43308" lon="9.17724">
        <ele>151.06</ele>
        <time>2016-10-07T16:16:38Z</time>
      </trkpt>
      <trkpt lat="44.43311" lon="9.17814">
        <ele>150.58</ele>
        <time>2016-10-07T16:16:47Z</time>
      </trkpt>
      <trkpt lat="44.43309" lon="9.17822">
        <ele>150.58</ele>
        <time>2016-10-07T16:16:48Z</time>
      </trkpt>
      <trkpt lat="44.43304" lon="9.17829">
        <ele>150.58</ele>
        <time>2016-10-07T16:16:49Z</time>
      </trkpt>
      <trkpt lat="44.4327" lon="9.17864">
        <ele>150.58</ele>
        <time>2016-10-07T16:16:55Z</time>
      </trkpt>
      <trkpt lat="44.43264" lon="9.17868">
        <ele>150.58</ele>
        <time>2016-10-07T16:16:56Z</time>
      </trkpt>
      <trkpt lat="44.43179" lon="9.17927">
        <ele>150.1</ele>
        <time>2016-10-07T16:17:10Z</time>
      </trkpt>
      <trkpt lat="44.43142" lon="9.17962">
        <ele>149.62</ele>
        <time>2016-10-07T16:17:17Z</time>
      </trkpt>
      <trkpt lat="44.43112" lon="9.18008">
        <ele>148.18</ele>
        <time>2016-10-07T16:17:26Z</time>
      </trkpt>
      <trkpt lat="44.43058" lon="9.181">
        <ele>148.66</ele>
        <time>2016-10-07T16:17:41Z</time>
      </trkpt>
      <trkpt lat="44.43052" lon="9.18152">
        <ele>149.14</ele>
        <time>2016-10-07T16:17:47Z</time>
      </trkpt>
      <trkpt lat="44.43052" lon="9.18161">
        <ele>148.66</ele>
        <time>2016-10-07T16:17:48Z</time>
      </trkpt>
      <trkpt lat="44.43053" lon="9.18187">
        <ele>148.18</ele>
        <time>2016-10-07T16:17:51Z</time>
      </trkpt>
      <trkpt lat="44.43052" lon="9.18196">
        <ele>147.22</ele>
        <time>2016-10-07T16:17:52Z</time>
      </trkpt>
      <trkpt lat="44.4305" lon="9.18203">
        <ele>147.22</ele>
        <time>2016-10-07T16:17:53Z</time>
      </trkpt>
      <trkpt lat="44.43047" lon="9.18209">
        <ele>146.74</ele>
        <time>2016-10-07T16:17:54Z</time>
      </trkpt>
      <trkpt lat="44.43043" lon="9.18213">
        <ele>146.74</ele>
        <time>2016-10-07T16:17:55Z</time>
      </trkpt>
      <trkpt lat="44.43038" lon="9.18216">
        <ele>147.22</ele>
        <time>2016-10-07T16:17:56Z</time>
      </trkpt>
      <trkpt lat="44.43035" lon="9.18219">
        <ele>147.7</ele>
        <time>2016-10-07T16:17:57Z</time>
      </trkpt>
      <trkpt lat="44.43032" lon="9.18221">
        <ele>147.7</ele>
        <time>2016-10-07T16:17:58Z</time>
      </trkpt>
      <trkpt lat="44.4303" lon="9.18222">
        <ele>148.18</ele>
        <time>2016-10-07T16:17:59Z</time>
      </trkpt>
      <trkpt lat="44.43028" lon="9.18223">
        <ele>147.7</ele>
        <time>2016-10-07T16:18:00Z</time>
      </trkpt>
      <trkpt lat="44.43026" lon="9.18225">
        <ele>147.7</ele>
        <time>2016-10-07T16:18:01Z</time>
      </trkpt>
      <trkpt lat="44.42989" lon="9.18247">
        <ele>147.7</ele>
        <time>2016-10-07T16:18:14Z</time>
      </trkpt>
      <trkpt lat="44.42985" lon="9.18248">
        <ele>147.7</ele>
        <time>2016-10-07T16:18:15Z</time>
      </trkpt>
      <trkpt lat="44.42981" lon="9.18251">
        <ele>147.22</ele>
        <time>2016-10-07T16:18:16Z</time>
      </trkpt>
      <trkpt lat="44.42977" lon="9.18254">
        <ele>147.7</ele>
        <time>2016-10-07T16:18:17Z</time>
      </trkpt>
      <trkpt lat="44.42972" lon="9.18256">
        <ele>147.7</ele>
        <time>2016-10-07T16:18:18Z</time>
      </trkpt>
      <trkpt lat="44.42967" lon="9.18258">
        <ele>146.74</ele>
        <time>2016-10-07T16:18:19Z</time>
      </trkpt>
      <trkpt lat="44.42963" lon="9.18262">
        <ele>146.26</ele>
        <time>2016-10-07T16:18:20Z</time>
      </trkpt>
      <trkpt lat="44.42958" lon="9.18267">
        <ele>145.78</ele>
        <time>2016-10-07T16:18:21Z</time>
      </trkpt>
      <trkpt lat="44.42954" lon="9.18272">
        <ele>145.78</ele>
        <time>2016-10-07T16:18:22Z</time>
      </trkpt>
      <trkpt lat="44.4295" lon="9.18278">
        <ele>145.78</ele>
        <time>2016-10-07T16:18:23Z</time>
      </trkpt>
      <trkpt lat="44.42933" lon="9.18305">
        <ele>144.34</ele>
        <time>2016-10-07T16:18:27Z</time>
      </trkpt>
      <trkpt lat="44.42929" lon="9.18313">
        <ele>143.85</ele>
        <time>2016-10-07T16:18:28Z</time>
      </trkpt>
      <trkpt lat="44.42918" lon="9.18338">
        <ele>143.37</ele>
        <time>2016-10-07T16:18:31Z</time>
      </trkpt>
      <trkpt lat="44.42916" lon="9.18347">
        <ele>143.37</ele>
        <time>2016-10-07T16:18:32Z</time>
      </trkpt>
      <trkpt lat="44.42914" lon="9.18356">
        <ele>142.89</ele>
        <time>2016-10-07T16:18:33Z</time>
      </trkpt>
      <trkpt lat="44.42913" lon="9.18366">
        <ele>142.41</ele>
        <time>2016-10-07T16:18:34Z</time>
      </trkpt>
      <trkpt lat="44.42912" lon="9.18375">
        <ele>141.93</ele>
        <time>2016-10-07T16:18:35Z</time>
      </trkpt>
      <trkpt lat="44.42911" lon="9.18384">
        <ele>141.93</ele>
        <time>2016-10-07T16:18:36Z</time>
      </trkpt>
      <trkpt lat="44.42912" lon="9.18471">
        <ele>140.97</ele>
        <time>2016-10-07T16:18:48Z</time>
      </trkpt>
      <trkpt lat="44.42915" lon="9.18483">
        <ele>143.37</ele>
        <time>2016-10-07T16:19:01Z</time>
      </trkpt>
      <trkpt lat="44.42915" lon="9.18484">
        <ele>140.97</ele>
        <time>2016-10-07T16:19:06Z</time>
      </trkpt>
      <trkpt lat="44.42914" lon="9.18484">
        <ele>135.2</ele>
        <time>2016-10-07T16:19:08Z</time>
      </trkpt>
      <trkpt lat="44.42914" lon="9.18484">
        <ele>142.41</ele>
        <time>2016-10-07T16:19:09Z</time>
      </trkpt>
      <trkpt lat="44.42914" lon="9.18484">
        <ele>136.64</ele>
        <time>2016-10-07T16:19:10Z</time>
      </trkpt>
      <trkpt lat="44.42914" lon="9.18484">
        <ele>142.41</ele>
        <time>2016-10-07T16:19:11Z</time>
      </trkpt>
      <trkpt lat="44.42918" lon="9.18491">
        <ele>140.49</ele>
        <time>2016-10-07T16:19:23Z</time>
      </trkpt>
      <trkpt lat="44.42918" lon="9.18494">
        <ele>140.01</ele>
        <time>2016-10-07T16:19:24Z</time>
      </trkpt>
      <trkpt lat="44.42919" lon="9.18497">
        <ele>140.97</ele>
        <time>2016-10-07T16:19:25Z</time>
      </trkpt>
      <trkpt lat="44.42921" lon="9.18501">
        <ele>140.01</ele>
        <time>2016-10-07T16:19:26Z</time>
      </trkpt>
      <trkpt lat="44.42922" lon="9.18506">
        <ele>139.53</ele>
        <time>2016-10-07T16:19:27Z</time>
      </trkpt>
      <trkpt lat="44.42923" lon="9.18511">
        <ele>140.97</ele>
        <time>2016-10-07T16:19:28Z</time>
      </trkpt>
      <trkpt lat="44.42923" lon="9.18517">
        <ele>140.49</ele>
        <time>2016-10-07T16:19:29Z</time>
      </trkpt>
      <trkpt lat="44.42922" lon="9.18523">
        <ele>139.53</ele>
        <time>2016-10-07T16:19:30Z</time>
      </trkpt>
      <trkpt lat="44.42923" lon="9.18528">
        <ele>140.01</ele>
        <time>2016-10-07T16:19:31Z</time>
      </trkpt>
      <trkpt lat="44.42925" lon="9.18562">
        <ele>140.01</ele>
        <time>2016-10-07T16:19:36Z</time>
      </trkpt>
      <trkpt lat="44.42927" lon="9.18575">
        <ele>140.01</ele>
        <time>2016-10-07T16:19:38Z</time>
      </trkpt>
      <trkpt lat="44.42933" lon="9.18601">
        <ele>139.53</ele>
        <time>2016-10-07T16:19:42Z</time>
      </trkpt>
      <trkpt lat="44.42935" lon="9.18608">
        <ele>139.05</ele>
        <time>2016-10-07T16:19:43Z</time>
      </trkpt>
      <trkpt lat="44.42937" lon="9.18615">
        <ele>139.53</ele>
        <time>2016-10-07T16:19:44Z</time>
      </trkpt>
      <trkpt lat="44.42938" lon="9.18642">
        <ele>140.01</ele>
        <time>2016-10-07T16:19:48Z</time>
      </trkpt>
      <trkpt lat="44.4294" lon="9.18648">
        <ele>139.53</ele>
        <time>2016-10-07T16:19:49Z</time>
      </trkpt>
      <trkpt lat="44.4294" lon="9.18654">
        <ele>139.53</ele>
        <time>2016-10-07T16:19:50Z</time>
      </trkpt>
      <trkpt lat="44.4294" lon="9.1866">
        <ele>139.53</ele>
        <time>2016-10-07T16:19:51Z</time>
      </trkpt>
      <trkpt lat="44.4294" lon="9.18666">
        <ele>139.53</ele>
        <time>2016-10-07T16:19:52Z</time>
      </trkpt>
      <trkpt lat="44.42943" lon="9.18687">
        <ele>140.01</ele>
        <time>2016-10-07T16:19:55Z</time>
      </trkpt>
      <trkpt lat="44.42948" lon="9.18737">
        <ele>140.01</ele>
        <time>2016-10-07T16:20:02Z</time>
      </trkpt>
      <trkpt lat="44.42949" lon="9.18745">
        <ele>139.05</ele>
        <time>2016-10-07T16:20:03Z</time>
      </trkpt>
      <trkpt lat="44.42953" lon="9.18767">
        <ele>139.53</ele>
        <time>2016-10-07T16:20:06Z</time>
      </trkpt>
      <trkpt lat="44.42953" lon="9.18783">
        <ele>139.05</ele>
        <time>2016-10-07T16:20:08Z</time>
      </trkpt>
      <trkpt lat="44.42952" lon="9.18791">
        <ele>139.05</ele>
        <time>2016-10-07T16:20:09Z</time>
      </trkpt>
      <trkpt lat="44.42952" lon="9.18824">
        <ele>138.57</ele>
        <time>2016-10-07T16:20:13Z</time>
      </trkpt>
      <trkpt lat="44.42952" lon="9.18832">
        <ele>139.05</ele>
        <time>2016-10-07T16:20:14Z</time>
      </trkpt>
      <trkpt lat="44.4294" lon="9.18946">
        <ele>140.01</ele>
        <time>2016-10-07T16:20:28Z</time>
      </trkpt>
      <trkpt lat="44.42938" lon="9.18954">
        <ele>140.01</ele>
        <time>2016-10-07T16:20:29Z</time>
      </trkpt>
      <trkpt lat="44.42893" lon="9.19054">
        <ele>139.05</ele>
        <time>2016-10-07T16:20:43Z</time>
      </trkpt>
      <trkpt lat="44.42888" lon="9.19061">
        <ele>138.57</ele>
        <time>2016-10-07T16:20:44Z</time>
      </trkpt>
      <trkpt lat="44.42883" lon="9.19067">
        <ele>138.09</ele>
        <time>2016-10-07T16:20:45Z</time>
      </trkpt>
      <trkpt lat="44.42877" lon="9.19073">
        <ele>138.57</ele>
        <time>2016-10-07T16:20:46Z</time>
      </trkpt>
      <trkpt lat="44.42872" lon="9.19078">
        <ele>138.09</ele>
        <time>2016-10-07T16:20:47Z</time>
      </trkpt>
      <trkpt lat="44.42834" lon="9.19109">
        <ele>136.16</ele>
        <time>2016-10-07T16:20:53Z</time>
      </trkpt>
      <trkpt lat="44.42827" lon="9.19112">
        <ele>136.16</ele>
        <time>2016-10-07T16:20:54Z</time>
      </trkpt>
      <trkpt lat="44.4282" lon="9.19114">
        <ele>136.16</ele>
        <time>2016-10-07T16:20:55Z</time>
      </trkpt>
      <trkpt lat="44.42805" lon="9.19117">
        <ele>135.2</ele>
        <time>2016-10-07T16:20:57Z</time>
      </trkpt>
      <trkpt lat="44.42798" lon="9.19117">
        <ele>135.68</ele>
        <time>2016-10-07T16:20:58Z</time>
      </trkpt>
      <trkpt lat="44.4279" lon="9.19116">
        <ele>135.2</ele>
        <time>2016-10-07T16:20:59Z</time>
      </trkpt>
      <trkpt lat="44.42781" lon="9.19115">
        <ele>135.68</ele>
        <time>2016-10-07T16:21:00Z</time>
      </trkpt>
      <trkpt lat="44.42773" lon="9.19112">
        <ele>134.72</ele>
        <time>2016-10-07T16:21:01Z</time>
      </trkpt>
      <trkpt lat="44.42765" lon="9.19108">
        <ele>134.72</ele>
        <time>2016-10-07T16:21:02Z</time>
      </trkpt>
      <trkpt lat="44.42758" lon="9.19103">
        <ele>134.24</ele>
        <time>2016-10-07T16:21:03Z</time>
      </trkpt>
      <trkpt lat="44.42751" lon="9.19097">
        <ele>134.24</ele>
        <time>2016-10-07T16:21:04Z</time>
      </trkpt>
      <trkpt lat="44.42744" lon="9.1909">
        <ele>133.28</ele>
        <time>2016-10-07T16:21:05Z</time>
      </trkpt>
      <trkpt lat="44.42731" lon="9.19077">
        <ele>135.2</ele>
        <time>2016-10-07T16:21:07Z</time>
      </trkpt>
      <trkpt lat="44.42723" lon="9.19072">
        <ele>132.8</ele>
        <time>2016-10-07T16:21:08Z</time>
      </trkpt>
      <trkpt lat="44.42716" lon="9.19067">
        <ele>133.28</ele>
        <time>2016-10-07T16:21:09Z</time>
      </trkpt>
      <trkpt lat="44.42708" lon="9.19063">
        <ele>132.8</ele>
        <time>2016-10-07T16:21:10Z</time>
      </trkpt>
      <trkpt lat="44.42699" lon="9.19061">
        <ele>132.32</ele>
        <time>2016-10-07T16:21:11Z</time>
      </trkpt>
      <trkpt lat="44.42691" lon="9.19059">
        <ele>132.32</ele>
        <time>2016-10-07T16:21:12Z</time>
      </trkpt>
      <trkpt lat="44.42682" lon="9.19058">
        <ele>130.88</ele>
        <time>2016-10-07T16:21:13Z</time>
      </trkpt>
      <trkpt lat="44.42578" lon="9.19058">
        <ele>131.36</ele>
        <time>2016-10-07T16:21:26Z</time>
      </trkpt>
      <trkpt lat="44.42527" lon="9.19065">
        <ele>131.36</ele>
        <time>2016-10-07T16:21:33Z</time>
      </trkpt>
      <trkpt lat="44.4252" lon="9.19068">
        <ele>131.84</ele>
        <time>2016-10-07T16:21:34Z</time>
      </trkpt>
      <trkpt lat="44.42514" lon="9.19072">
        <ele>131.36</ele>
        <time>2016-10-07T16:21:35Z</time>
      </trkpt>
      <trkpt lat="44.42507" lon="9.19076">
        <ele>131.36</ele>
        <time>2016-10-07T16:21:36Z</time>
      </trkpt>
      <trkpt lat="44.42502" lon="9.19081">
        <ele>130.88</ele>
        <time>2016-10-07T16:21:37Z</time>
      </trkpt>
      <trkpt lat="44.42497" lon="9.19087">
        <ele>131.84</ele>
        <time>2016-10-07T16:21:38Z</time>
      </trkpt>
      <trkpt lat="44.42492" lon="9.19093">
        <ele>131.36</ele>
        <time>2016-10-07T16:21:39Z</time>
      </trkpt>
      <trkpt lat="44.42489" lon="9.191">
        <ele>132.32</ele>
        <time>2016-10-07T16:21:40Z</time>
      </trkpt>
      <trkpt lat="44.42486" lon="9.19107">
        <ele>132.32</ele>
        <time>2016-10-07T16:21:41Z</time>
      </trkpt>
      <trkpt lat="44.4248" lon="9.19122">
        <ele>132.32</ele>
        <time>2016-10-07T16:21:43Z</time>
      </trkpt>
      <trkpt lat="44.42474" lon="9.19147">
        <ele>131.84</ele>
        <time>2016-10-07T16:21:46Z</time>
      </trkpt>
      <trkpt lat="44.42474" lon="9.19156">
        <ele>131.84</ele>
        <time>2016-10-07T16:21:47Z</time>
      </trkpt>
      <trkpt lat="44.42474" lon="9.19165">
        <ele>131.84</ele>
        <time>2016-10-07T16:21:48Z</time>
      </trkpt>
      <trkpt lat="44.42474" lon="9.19173">
        <ele>131.84</ele>
        <time>2016-10-07T16:21:49Z</time>
      </trkpt>
      <trkpt lat="44.42474" lon="9.19182">
        <ele>132.32</ele>
        <time>2016-10-07T16:21:50Z</time>
      </trkpt>
      <trkpt lat="44.42481" lon="9.19318">
        <ele>130.88</ele>
        <time>2016-10-07T16:22:06Z</time>
      </trkpt>
      <trkpt lat="44.42506" lon="9.19425">
        <ele>129.92</ele>
        <time>2016-10-07T16:22:19Z</time>
      </trkpt>
      <trkpt lat="44.4254" lon="9.19534">
        <ele>129.43</ele>
        <time>2016-10-07T16:22:32Z</time>
      </trkpt>
      <trkpt lat="44.42541" lon="9.19542">
        <ele>129.92</ele>
        <time>2016-10-07T16:22:33Z</time>
      </trkpt>
      <trkpt lat="44.42542" lon="9.19552">
        <ele>129.92</ele>
        <time>2016-10-07T16:22:34Z</time>
      </trkpt>
      <trkpt lat="44.42542" lon="9.19561">
        <ele>129.92</ele>
        <time>2016-10-07T16:22:35Z</time>
      </trkpt>
      <trkpt lat="44.42542" lon="9.1957">
        <ele>129.92</ele>
        <time>2016-10-07T16:22:36Z</time>
      </trkpt>
      <trkpt lat="44.42541" lon="9.19579">
        <ele>129.92</ele>
        <time>2016-10-07T16:22:37Z</time>
      </trkpt>
      <trkpt lat="44.4254" lon="9.19589">
        <ele>129.92</ele>
        <time>2016-10-07T16:22:38Z</time>
      </trkpt>
      <trkpt lat="44.42534" lon="9.19662">
        <ele>129.43</ele>
        <time>2016-10-07T16:22:46Z</time>
      </trkpt>
      <trkpt lat="44.42494" lon="9.19768">
        <ele>129.43</ele>
        <time>2016-10-07T16:22:59Z</time>
      </trkpt>
      <trkpt lat="44.4249" lon="9.19774">
        <ele>129.43</ele>
        <time>2016-10-07T16:23:00Z</time>
      </trkpt>
      <trkpt lat="44.42484" lon="9.19779">
        <ele>128.47</ele>
        <time>2016-10-07T16:23:01Z</time>
      </trkpt>
      <trkpt lat="44.42478" lon="9.19782">
        <ele>128.47</ele>
        <time>2016-10-07T16:23:02Z</time>
      </trkpt>
      <trkpt lat="44.42449" lon="9.19794">
        <ele>127.99</ele>
        <time>2016-10-07T16:23:06Z</time>
      </trkpt>
      <trkpt lat="44.42413" lon="9.19815">
        <ele>126.07</ele>
        <time>2016-10-07T16:23:11Z</time>
      </trkpt>
      <trkpt lat="44.42405" lon="9.19818">
        <ele>126.07</ele>
        <time>2016-10-07T16:23:12Z</time>
      </trkpt>
      <trkpt lat="44.42398" lon="9.19819">
        <ele>125.59</ele>
        <time>2016-10-07T16:23:13Z</time>
      </trkpt>
      <trkpt lat="44.42381" lon="9.19822">
        <ele>125.59</ele>
        <time>2016-10-07T16:23:15Z</time>
      </trkpt>
      <trkpt lat="44.42374" lon="9.19828">
        <ele>125.59</ele>
        <time>2016-10-07T16:23:16Z</time>
      </trkpt>
      <trkpt lat="44.42368" lon="9.19835">
        <ele>125.59</ele>
        <time>2016-10-07T16:23:17Z</time>
      </trkpt>
      <trkpt lat="44.42364" lon="9.19844">
        <ele>124.63</ele>
        <time>2016-10-07T16:23:18Z</time>
      </trkpt>
      <trkpt lat="44.42359" lon="9.19854">
        <ele>123.67</ele>
        <time>2016-10-07T16:23:19Z</time>
      </trkpt>
      <trkpt lat="44.42356" lon="9.19864">
        <ele>124.15</ele>
        <time>2016-10-07T16:23:20Z</time>
      </trkpt>
      <trkpt lat="44.42331" lon="9.19984">
        <ele>121.74</ele>
        <time>2016-10-07T16:23:31Z</time>
      </trkpt>
      <trkpt lat="44.42332" lon="9.19995">
        <ele>121.74</ele>
        <time>2016-10-07T16:23:32Z</time>
      </trkpt>
      <trkpt lat="44.42334" lon="9.20005">
        <ele>121.26</ele>
        <time>2016-10-07T16:23:33Z</time>
      </trkpt>
      <trkpt lat="44.42337" lon="9.20016">
        <ele>120.78</ele>
        <time>2016-10-07T16:23:34Z</time>
      </trkpt>
      <trkpt lat="44.4234" lon="9.20026">
        <ele>120.78</ele>
        <time>2016-10-07T16:23:35Z</time>
      </trkpt>
      <trkpt lat="44.42389" lon="9.2018">
        <ele>118.38</ele>
        <time>2016-10-07T16:23:50Z</time>
      </trkpt>
      <trkpt lat="44.42429" lon="9.20329">
        <ele>115.98</ele>
        <time>2016-10-07T16:24:04Z</time>
      </trkpt>
      <trkpt lat="44.42429" lon="9.2034">
        <ele>115.98</ele>
        <time>2016-10-07T16:24:05Z</time>
      </trkpt>
      <trkpt lat="44.42428" lon="9.20351">
        <ele>116.46</ele>
        <time>2016-10-07T16:24:06Z</time>
      </trkpt>
      <trkpt lat="44.42427" lon="9.20361">
        <ele>115.98</ele>
        <time>2016-10-07T16:24:07Z</time>
      </trkpt>
      <trkpt lat="44.42426" lon="9.20372">
        <ele>116.46</ele>
        <time>2016-10-07T16:24:08Z</time>
      </trkpt>
      <trkpt lat="44.42424" lon="9.20382">
        <ele>115.98</ele>
        <time>2016-10-07T16:24:09Z</time>
      </trkpt>
      <trkpt lat="44.42423" lon="9.20414">
        <ele>115.98</ele>
        <time>2016-10-07T16:24:12Z</time>
      </trkpt>
      <trkpt lat="44.42423" lon="9.20424">
        <ele>116.46</ele>
        <time>2016-10-07T16:24:13Z</time>
      </trkpt>
      <trkpt lat="44.42425" lon="9.20434">
        <ele>115.98</ele>
        <time>2016-10-07T16:24:14Z</time>
      </trkpt>
      <trkpt lat="44.4243" lon="9.20473">
        <ele>114.53</ele>
        <time>2016-10-07T16:24:18Z</time>
      </trkpt>
      <trkpt lat="44.42428" lon="9.20482">
        <ele>114.05</ele>
        <time>2016-10-07T16:24:19Z</time>
      </trkpt>
      <trkpt lat="44.42425" lon="9.20491">
        <ele>115.01</ele>
        <time>2016-10-07T16:24:20Z</time>
      </trkpt>
      <trkpt lat="44.42421" lon="9.20498">
        <ele>115.01</ele>
        <time>2016-10-07T16:24:21Z</time>
      </trkpt>
      <trkpt lat="44.42417" lon="9.20506">
        <ele>115.01</ele>
        <time>2016-10-07T16:24:22Z</time>
      </trkpt>
      <trkpt lat="44.42412" lon="9.20513">
        <ele>115.5</ele>
        <time>2016-10-07T16:24:23Z</time>
      </trkpt>
      <trkpt lat="44.42408" lon="9.20519">
        <ele>115.01</ele>
        <time>2016-10-07T16:24:24Z</time>
      </trkpt>
      <trkpt lat="44.42403" lon="9.20523">
        <ele>115.5</ele>
        <time>2016-10-07T16:24:25Z</time>
      </trkpt>
      <trkpt lat="44.42396" lon="9.20527">
        <ele>115.5</ele>
        <time>2016-10-07T16:24:26Z</time>
      </trkpt>
      <trkpt lat="44.42361" lon="9.20547">
        <ele>115.5</ele>
        <time>2016-10-07T16:24:32Z</time>
      </trkpt>
      <trkpt lat="44.42282" lon="9.20586">
        <ele>115.5</ele>
        <time>2016-10-07T16:24:46Z</time>
      </trkpt>
      <trkpt lat="44.42223" lon="9.20607">
        <ele>115.5</ele>
        <time>2016-10-07T16:24:56Z</time>
      </trkpt>
      <trkpt lat="44.42194" lon="9.20654">
        <ele>115.01</ele>
        <time>2016-10-07T16:25:07Z</time>
      </trkpt>
      <trkpt lat="44.42173" lon="9.20708">
        <ele>114.53</ele>
        <time>2016-10-07T16:25:18Z</time>
      </trkpt>
      <trkpt lat="44.42171" lon="9.20713">
        <ele>114.53</ele>
        <time>2016-10-07T16:25:19Z</time>
      </trkpt>
      <trkpt lat="44.4217" lon="9.20718">
        <ele>114.53</ele>
        <time>2016-10-07T16:25:20Z</time>
      </trkpt>
      <trkpt lat="44.42168" lon="9.20722">
        <ele>114.05</ele>
        <time>2016-10-07T16:25:21Z</time>
      </trkpt>
      <trkpt lat="44.42166" lon="9.20726">
        <ele>114.05</ele>
        <time>2016-10-07T16:25:22Z</time>
      </trkpt>
      <trkpt lat="44.42164" lon="9.20729">
        <ele>114.05</ele>
        <time>2016-10-07T16:25:23Z</time>
      </trkpt>
      <trkpt lat="44.42162" lon="9.20733">
        <ele>114.05</ele>
        <time>2016-10-07T16:25:24Z</time>
      </trkpt>
      <trkpt lat="44.42161" lon="9.20737">
        <ele>114.53</ele>
        <time>2016-10-07T16:25:25Z</time>
      </trkpt>
      <trkpt lat="44.42159" lon="9.20741">
        <ele>114.53</ele>
        <time>2016-10-07T16:25:26Z</time>
      </trkpt>
      <trkpt lat="44.42141" lon="9.20785">
        <ele>114.53</ele>
        <time>2016-10-07T16:25:37Z</time>
      </trkpt>
      <trkpt lat="44.42112" lon="9.20856">
        <ele>115.01</ele>
        <time>2016-10-07T16:25:51Z</time>
      </trkpt>
      <trkpt lat="44.42104" lon="9.2087">
        <ele>115.5</ele>
        <time>2016-10-07T16:25:54Z</time>
      </trkpt>
      <trkpt lat="44.42074" lon="9.20941">
        <ele>117.42</ele>
        <time>2016-10-07T16:26:09Z</time>
      </trkpt>
      <trkpt lat="44.42054" lon="9.20975">
        <ele>117.42</ele>
        <time>2016-10-07T16:26:20Z</time>
      </trkpt>
      <trkpt lat="44.4205" lon="9.20979">
        <ele>116.94</ele>
        <time>2016-10-07T16:26:34Z</time>
      </trkpt>
      <trkpt lat="44.4205" lon="9.2098">
        <ele>120.78</ele>
        <time>2016-10-07T16:26:57Z</time>
      </trkpt>
      <trkpt lat="44.4205" lon="9.2098">
        <ele>116.94</ele>
        <time>2016-10-07T16:26:58Z</time>
      </trkpt>
      <trkpt lat="44.42047" lon="9.20988">
        <ele>117.42</ele>
        <time>2016-10-07T16:27:28Z</time>
      </trkpt>
      <trkpt lat="44.42048" lon="9.20986">
        <ele>117.42</ele>
        <time>2016-10-07T16:27:49Z</time>
      </trkpt>
      <trkpt lat="44.42047" lon="9.20984">
        <ele>117.42</ele>
        <time>2016-10-07T16:28:17Z</time>
      </trkpt>
      <trkpt lat="44.42049" lon="9.20986">
        <ele>117.42</ele>
        <time>2016-10-07T16:28:38Z</time>
      </trkpt>
      <trkpt lat="44.42049" lon="9.20988">
        <ele>117.9</ele>
        <time>2016-10-07T16:28:39Z</time>
      </trkpt>
      <trkpt lat="44.42048" lon="9.20991">
        <ele>117.42</ele>
        <time>2016-10-07T16:28:40Z</time>
      </trkpt>
      <trkpt lat="44.42047" lon="9.20993">
        <ele>117.42</ele>
        <time>2016-10-07T16:28:41Z</time>
      </trkpt>
      <trkpt lat="44.42045" lon="9.20996">
        <ele>117.42</ele>
        <time>2016-10-07T16:28:42Z</time>
      </trkpt>
      <trkpt lat="44.42044" lon="9.21">
        <ele>117.9</ele>
        <time>2016-10-07T16:28:43Z</time>
      </trkpt>
      <trkpt lat="44.42042" lon="9.21004">
        <ele>118.38</ele>
        <time>2016-10-07T16:28:44Z</time>
      </trkpt>
      <trkpt lat="44.42041" lon="9.21008">
        <ele>118.38</ele>
        <time>2016-10-07T16:28:45Z</time>
      </trkpt>
      <trkpt lat="44.42039" lon="9.21012">
        <ele>117.9</ele>
        <time>2016-10-07T16:28:46Z</time>
      </trkpt>
      <trkpt lat="44.42033" lon="9.21074">
        <ele>118.86</ele>
        <time>2016-10-07T16:28:59Z</time>
      </trkpt>
      <trkpt lat="44.42028" lon="9.21125">
        <ele>121.74</ele>
        <time>2016-10-07T16:29:12Z</time>
      </trkpt>
      <trkpt lat="44.42019" lon="9.21175">
        <ele>122.71</ele>
        <time>2016-10-07T16:29:24Z</time>
      </trkpt>
      <trkpt lat="44.42018" lon="9.21183">
        <ele>123.67</ele>
        <time>2016-10-07T16:29:26Z</time>
      </trkpt>
      <trkpt lat="44.42003" lon="9.21221">
        <ele>122.71</ele>
        <time>2016-10-07T16:29:38Z</time>
      </trkpt>
      <trkpt lat="44.41966" lon="9.21256">
        <ele>120.78</ele>
        <time>2016-10-07T16:29:49Z</time>
      </trkpt>
      <trkpt lat="44.41909" lon="9.21315">
        <ele>116.94</ele>
        <time>2016-10-07T16:29:59Z</time>
      </trkpt>
      <trkpt lat="44.41874" lon="9.21348">
        <ele>115.01</ele>
        <time>2016-10-07T16:30:08Z</time>
      </trkpt>
      <trkpt lat="44.41832" lon="9.21391">
        <ele>111.65</ele>
        <time>2016-10-07T16:30:17Z</time>
      </trkpt>
      <trkpt lat="44.41796" lon="9.2143">
        <ele>108.29</ele>
        <time>2016-10-07T16:30:25Z</time>
      </trkpt>
      <trkpt lat="44.41788" lon="9.21448">
        <ele>107.32</ele>
        <time>2016-10-07T16:30:34Z</time>
      </trkpt>
      <trkpt lat="44.41774" lon="9.21495">
        <ele>106.36</ele>
        <time>2016-10-07T16:30:42Z</time>
      </trkpt>
      <trkpt lat="44.41753" lon="9.2161">
        <ele>105.4</ele>
        <time>2016-10-07T16:30:56Z</time>
      </trkpt>
      <trkpt lat="44.41752" lon="9.21619">
        <ele>105.4</ele>
        <time>2016-10-07T16:30:57Z</time>
      </trkpt>
      <trkpt lat="44.41753" lon="9.21627">
        <ele>105.4</ele>
        <time>2016-10-07T16:30:58Z</time>
      </trkpt>
      <trkpt lat="44.41755" lon="9.21635">
        <ele>104.92</ele>
        <time>2016-10-07T16:30:59Z</time>
      </trkpt>
      <trkpt lat="44.41757" lon="9.21642">
        <ele>104.92</ele>
        <time>2016-10-07T16:31:00Z</time>
      </trkpt>
      <trkpt lat="44.4176" lon="9.2165">
        <ele>104.92</ele>
        <time>2016-10-07T16:31:01Z</time>
      </trkpt>
      <trkpt lat="44.41773" lon="9.21682">
        <ele>103</ele>
        <time>2016-10-07T16:31:05Z</time>
      </trkpt>
      <trkpt lat="44.41775" lon="9.21691">
        <ele>103.48</ele>
        <time>2016-10-07T16:31:06Z</time>
      </trkpt>
      <trkpt lat="44.41776" lon="9.21699">
        <ele>103</ele>
        <time>2016-10-07T16:31:07Z</time>
      </trkpt>
      <trkpt lat="44.41777" lon="9.21708">
        <ele>103.48</ele>
        <time>2016-10-07T16:31:08Z</time>
      </trkpt>
      <trkpt lat="44.41778" lon="9.21717">
        <ele>102.52</ele>
        <time>2016-10-07T16:31:09Z</time>
      </trkpt>
      <trkpt lat="44.4178" lon="9.21756">
        <ele>101.56</ele>
        <time>2016-10-07T16:31:13Z</time>
      </trkpt>
      <trkpt lat="44.41778" lon="9.21766">
        <ele>101.56</ele>
        <time>2016-10-07T16:31:14Z</time>
      </trkpt>
      <trkpt lat="44.41773" lon="9.21785">
        <ele>100.6</ele>
        <time>2016-10-07T16:31:16Z</time>
      </trkpt>
      <trkpt lat="44.41769" lon="9.21794">
        <ele>100.11</ele>
        <time>2016-10-07T16:31:17Z</time>
      </trkpt>
      <trkpt lat="44.41765" lon="9.21801">
        <ele>99.63</ele>
        <time>2016-10-07T16:31:18Z</time>
      </trkpt>
      <trkpt lat="44.41761" lon="9.21808">
        <ele>99.63</ele>
        <time>2016-10-07T16:31:19Z</time>
      </trkpt>
      <trkpt lat="44.41756" lon="9.21813">
        <ele>100.11</ele>
        <time>2016-10-07T16:31:20Z</time>
      </trkpt>
      <trkpt lat="44.4175" lon="9.21817">
        <ele>99.15</ele>
        <time>2016-10-07T16:31:21Z</time>
      </trkpt>
      <trkpt lat="44.41744" lon="9.2182">
        <ele>99.63</ele>
        <time>2016-10-07T16:31:22Z</time>
      </trkpt>
      <trkpt lat="44.4173" lon="9.21827">
        <ele>99.15</ele>
        <time>2016-10-07T16:31:24Z</time>
      </trkpt>
      <trkpt lat="44.41611" lon="9.21851">
        <ele>97.23</ele>
        <time>2016-10-07T16:31:35Z</time>
      </trkpt>
      <trkpt lat="44.41561" lon="9.21865">
        <ele>96.75</ele>
        <time>2016-10-07T16:31:41Z</time>
      </trkpt>
      <trkpt lat="44.41553" lon="9.21865">
        <ele>96.75</ele>
        <time>2016-10-07T16:31:42Z</time>
      </trkpt>
      <trkpt lat="44.41545" lon="9.21863">
        <ele>96.27</ele>
        <time>2016-10-07T16:31:43Z</time>
      </trkpt>
      <trkpt lat="44.41538" lon="9.2186">
        <ele>97.23</ele>
        <time>2016-10-07T16:31:44Z</time>
      </trkpt>
      <trkpt lat="44.41531" lon="9.21856">
        <ele>96.27</ele>
        <time>2016-10-07T16:31:45Z</time>
      </trkpt>
      <trkpt lat="44.41525" lon="9.21852">
        <ele>96.27</ele>
        <time>2016-10-07T16:31:46Z</time>
      </trkpt>
      <trkpt lat="44.41519" lon="9.21847">
        <ele>97.23</ele>
        <time>2016-10-07T16:31:47Z</time>
      </trkpt>
      <trkpt lat="44.41513" lon="9.21842">
        <ele>97.23</ele>
        <time>2016-10-07T16:31:48Z</time>
      </trkpt>
      <trkpt lat="44.41476" lon="9.21818">
        <ele>97.71</ele>
        <time>2016-10-07T16:31:54Z</time>
      </trkpt>
      <trkpt lat="44.4147" lon="9.21816">
        <ele>97.23</ele>
        <time>2016-10-07T16:31:55Z</time>
      </trkpt>
      <trkpt lat="44.41463" lon="9.21815">
        <ele>97.23</ele>
        <time>2016-10-07T16:31:56Z</time>
      </trkpt>
      <trkpt lat="44.4139" lon="9.21822">
        <ele>97.71</ele>
        <time>2016-10-07T16:32:08Z</time>
      </trkpt>
      <trkpt lat="44.41317" lon="9.21876">
        <ele>97.23</ele>
        <time>2016-10-07T16:32:21Z</time>
      </trkpt>
      <trkpt lat="44.41236" lon="9.21961">
        <ele>97.23</ele>
        <time>2016-10-07T16:32:37Z</time>
      </trkpt>
      <trkpt lat="44.41232" lon="9.21968">
        <ele>97.23</ele>
        <time>2016-10-07T16:32:38Z</time>
      </trkpt>
      <trkpt lat="44.41201" lon="9.22077">
        <ele>97.23</ele>
        <time>2016-10-07T16:32:51Z</time>
      </trkpt>
      <trkpt lat="44.4118" lon="9.22218">
        <ele>96.27</ele>
        <time>2016-10-07T16:33:06Z</time>
      </trkpt>
      <trkpt lat="44.41194" lon="9.22359">
        <ele>94.35</ele>
        <time>2016-10-07T16:33:20Z</time>
      </trkpt>
      <trkpt lat="44.4121" lon="9.22486">
        <ele>92.9</ele>
        <time>2016-10-07T16:33:32Z</time>
      </trkpt>
      <trkpt lat="44.4122" lon="9.22538">
        <ele>91.46</ele>
        <time>2016-10-07T16:33:37Z</time>
      </trkpt>
      <trkpt lat="44.41221" lon="9.22549">
        <ele>91.94</ele>
        <time>2016-10-07T16:33:38Z</time>
      </trkpt>
      <trkpt lat="44.4122" lon="9.2256">
        <ele>91.46</ele>
        <time>2016-10-07T16:33:39Z</time>
      </trkpt>
      <trkpt lat="44.41219" lon="9.2257">
        <ele>90.02</ele>
        <time>2016-10-07T16:33:40Z</time>
      </trkpt>
      <trkpt lat="44.41216" lon="9.2258">
        <ele>91.46</ele>
        <time>2016-10-07T16:33:41Z</time>
      </trkpt>
      <trkpt lat="44.41211" lon="9.22589">
        <ele>91.94</ele>
        <time>2016-10-07T16:33:42Z</time>
      </trkpt>
      <trkpt lat="44.41206" lon="9.22596">
        <ele>91.46</ele>
        <time>2016-10-07T16:33:43Z</time>
      </trkpt>
      <trkpt lat="44.412" lon="9.22603">
        <ele>91.94</ele>
        <time>2016-10-07T16:33:44Z</time>
      </trkpt>
      <trkpt lat="44.41193" lon="9.22608">
        <ele>92.42</ele>
        <time>2016-10-07T16:33:45Z</time>
      </trkpt>
      <trkpt lat="44.41148" lon="9.22654">
        <ele>90.5</ele>
        <time>2016-10-07T16:33:52Z</time>
      </trkpt>
      <trkpt lat="44.41144" lon="9.22663">
        <ele>90.5</ele>
        <time>2016-10-07T16:33:53Z</time>
      </trkpt>
      <trkpt lat="44.4114" lon="9.22673">
        <ele>90.02</ele>
        <time>2016-10-07T16:33:54Z</time>
      </trkpt>
      <trkpt lat="44.41137" lon="9.22684">
        <ele>90.98</ele>
        <time>2016-10-07T16:33:55Z</time>
      </trkpt>
      <trkpt lat="44.41136" lon="9.22695">
        <ele>89.54</ele>
        <time>2016-10-07T16:33:56Z</time>
      </trkpt>
      <trkpt lat="44.41135" lon="9.22706">
        <ele>90.02</ele>
        <time>2016-10-07T16:33:57Z</time>
      </trkpt>
      <trkpt lat="44.41135" lon="9.22717">
        <ele>90.02</ele>
        <time>2016-10-07T16:33:58Z</time>
      </trkpt>
      <trkpt lat="44.41138" lon="9.22872">
        <ele>87.62</ele>
        <time>2016-10-07T16:34:13Z</time>
      </trkpt>
      <trkpt lat="44.41142" lon="9.2303">
        <ele>86.18</ele>
        <time>2016-10-07T16:34:29Z</time>
      </trkpt>
      <trkpt lat="44.41139" lon="9.23061">
        <ele>84.73</ele>
        <time>2016-10-07T16:34:32Z</time>
      </trkpt>
      <trkpt lat="44.41131" lon="9.23112">
        <ele>84.73</ele>
        <time>2016-10-07T16:34:37Z</time>
      </trkpt>
      <trkpt lat="44.41102" lon="9.23286">
        <ele>81.85</ele>
        <time>2016-10-07T16:34:54Z</time>
      </trkpt>
      <trkpt lat="44.41082" lon="9.23392">
        <ele>81.85</ele>
        <time>2016-10-07T16:35:05Z</time>
      </trkpt>
      <trkpt lat="44.41074" lon="9.23418">
        <ele>80.89</ele>
        <time>2016-10-07T16:35:08Z</time>
      </trkpt>
      <trkpt lat="44.4104" lon="9.23527">
        <ele>78.97</ele>
        <time>2016-10-07T16:35:20Z</time>
      </trkpt>
      <trkpt lat="44.41015" lon="9.23593">
        <ele>77.04</ele>
        <time>2016-10-07T16:35:29Z</time>
      </trkpt>
      <trkpt lat="44.41011" lon="9.23597">
        <ele>76.08</ele>
        <time>2016-10-07T16:35:30Z</time>
      </trkpt>
      <trkpt lat="44.41007" lon="9.236">
        <ele>76.08</ele>
        <time>2016-10-07T16:35:31Z</time>
      </trkpt>
      <trkpt lat="44.41003" lon="9.23605">
        <ele>76.08</ele>
        <time>2016-10-07T16:35:32Z</time>
      </trkpt>
      <trkpt lat="44.41" lon="9.23615">
        <ele>77.04</ele>
        <time>2016-10-07T16:35:34Z</time>
      </trkpt>
      <trkpt lat="44.40989" lon="9.23654">
        <ele>77.52</ele>
        <time>2016-10-07T16:35:41Z</time>
      </trkpt>
      <trkpt lat="44.40987" lon="9.2366">
        <ele>77.04</ele>
        <time>2016-10-07T16:35:42Z</time>
      </trkpt>
      <trkpt lat="44.40983" lon="9.23671">
        <ele>77.04</ele>
        <time>2016-10-07T16:35:44Z</time>
      </trkpt>
      <trkpt lat="44.40956" lon="9.23743">
        <ele>77.52</ele>
        <time>2016-10-07T16:35:58Z</time>
      </trkpt>
      <trkpt lat="44.40954" lon="9.23748">
        <ele>77.52</ele>
        <time>2016-10-07T16:35:59Z</time>
      </trkpt>
      <trkpt lat="44.40951" lon="9.23753">
        <ele>77.52</ele>
        <time>2016-10-07T16:36:00Z</time>
      </trkpt>
      <trkpt lat="44.40944" lon="9.23763">
        <ele>77.52</ele>
        <time>2016-10-07T16:36:02Z</time>
      </trkpt>
      <trkpt lat="44.40936" lon="9.2378">
        <ele>78.48</ele>
        <time>2016-10-07T16:36:05Z</time>
      </trkpt>
      <trkpt lat="44.40868" lon="9.23857">
        <ele>77.52</ele>
        <time>2016-10-07T16:36:21Z</time>
      </trkpt>
      <trkpt lat="44.40785" lon="9.23943">
        <ele>78.48</ele>
        <time>2016-10-07T16:36:39Z</time>
      </trkpt>
      <trkpt lat="44.4078" lon="9.23949">
        <ele>78.48</ele>
        <time>2016-10-07T16:36:40Z</time>
      </trkpt>
      <trkpt lat="44.40775" lon="9.23954">
        <ele>78.97</ele>
        <time>2016-10-07T16:36:41Z</time>
      </trkpt>
      <trkpt lat="44.40698" lon="9.24034">
        <ele>79.45</ele>
        <time>2016-10-07T16:36:57Z</time>
      </trkpt>
      <trkpt lat="44.40624" lon="9.2411">
        <ele>78</ele>
        <time>2016-10-07T16:37:12Z</time>
      </trkpt>
      <trkpt lat="44.40596" lon="9.24144">
        <ele>78</ele>
        <time>2016-10-07T16:37:18Z</time>
      </trkpt>
      <trkpt lat="44.40591" lon="9.24151">
        <ele>78</ele>
        <time>2016-10-07T16:37:19Z</time>
      </trkpt>
      <trkpt lat="44.40547" lon="9.24259">
        <ele>76.56</ele>
        <time>2016-10-07T16:37:34Z</time>
      </trkpt>
      <trkpt lat="44.40515" lon="9.24346">
        <ele>75.12</ele>
        <time>2016-10-07T16:37:46Z</time>
      </trkpt>
      <trkpt lat="44.40512" lon="9.24353">
        <ele>75.12</ele>
        <time>2016-10-07T16:37:47Z</time>
      </trkpt>
      <trkpt lat="44.40454" lon="9.24505">
        <ele>74.16</ele>
        <time>2016-10-07T16:38:06Z</time>
      </trkpt>
      <trkpt lat="44.4041" lon="9.24621">
        <ele>71.27</ele>
        <time>2016-10-07T16:38:20Z</time>
      </trkpt>
      <trkpt lat="44.40369" lon="9.24723">
        <ele>70.79</ele>
        <time>2016-10-07T16:38:33Z</time>
      </trkpt>
      <trkpt lat="44.40334" lon="9.24809">
        <ele>70.79</ele>
        <time>2016-10-07T16:38:45Z</time>
      </trkpt>
      <trkpt lat="44.40318" lon="9.24859">
        <ele>69.83</ele>
        <time>2016-10-07T16:38:53Z</time>
      </trkpt>
      <trkpt lat="44.4031" lon="9.24878">
        <ele>69.83</ele>
        <time>2016-10-07T16:38:56Z</time>
      </trkpt>
      <trkpt lat="44.40308" lon="9.24885">
        <ele>69.35</ele>
        <time>2016-10-07T16:38:57Z</time>
      </trkpt>
      <trkpt lat="44.40265" lon="9.24997">
        <ele>67.91</ele>
        <time>2016-10-07T16:39:11Z</time>
      </trkpt>
      <trkpt lat="44.40259" lon="9.25015">
        <ele>67.91</ele>
        <time>2016-10-07T16:39:13Z</time>
      </trkpt>
      <trkpt lat="44.40228" lon="9.25106">
        <ele>67.91</ele>
        <time>2016-10-07T16:39:23Z</time>
      </trkpt>
      <trkpt lat="44.40226" lon="9.25114">
        <ele>67.43</ele>
        <time>2016-10-07T16:39:24Z</time>
      </trkpt>
      <trkpt lat="44.40181" lon="9.25242">
        <ele>68.39</ele>
        <time>2016-10-07T16:39:40Z</time>
      </trkpt>
      <trkpt lat="44.40159" lon="9.2531">
        <ele>68.39</ele>
        <time>2016-10-07T16:39:49Z</time>
      </trkpt>
      <trkpt lat="44.40157" lon="9.25318">
        <ele>68.39</ele>
        <time>2016-10-07T16:39:50Z</time>
      </trkpt>
      <trkpt lat="44.40154" lon="9.25325">
        <ele>68.39</ele>
        <time>2016-10-07T16:39:51Z</time>
      </trkpt>
      <trkpt lat="44.4011" lon="9.25448">
        <ele>67.91</ele>
        <time>2016-10-07T16:40:07Z</time>
      </trkpt>
      <trkpt lat="44.4008" lon="9.25526">
        <ele>66.47</ele>
        <time>2016-10-07T16:40:17Z</time>
      </trkpt>
      <trkpt lat="44.40077" lon="9.25534">
        <ele>66.47</ele>
        <time>2016-10-07T16:40:18Z</time>
      </trkpt>
      <trkpt lat="44.40074" lon="9.25543">
        <ele>65.99</ele>
        <time>2016-10-07T16:40:19Z</time>
      </trkpt>
      <trkpt lat="44.40072" lon="9.25551">
        <ele>66.47</ele>
        <time>2016-10-07T16:40:20Z</time>
      </trkpt>
      <trkpt lat="44.40072" lon="9.2556">
        <ele>66.47</ele>
        <time>2016-10-07T16:40:21Z</time>
      </trkpt>
      <trkpt lat="44.40073" lon="9.25569">
        <ele>66.47</ele>
        <time>2016-10-07T16:40:22Z</time>
      </trkpt>
      <trkpt lat="44.40075" lon="9.25579">
        <ele>65.99</ele>
        <time>2016-10-07T16:40:23Z</time>
      </trkpt>
      <trkpt lat="44.40076" lon="9.25588">
        <ele>66.47</ele>
        <time>2016-10-07T16:40:24Z</time>
      </trkpt>
      <trkpt lat="44.40088" lon="9.25634">
        <ele>65.51</ele>
        <time>2016-10-07T16:40:29Z</time>
      </trkpt>
      <trkpt lat="44.40113" lon="9.2575">
        <ele>65.03</ele>
        <time>2016-10-07T16:40:42Z</time>
      </trkpt>
      <trkpt lat="44.40113" lon="9.2576">
        <ele>64.07</ele>
        <time>2016-10-07T16:40:43Z</time>
      </trkpt>
      <trkpt lat="44.40113" lon="9.25769">
        <ele>64.55</ele>
        <time>2016-10-07T16:40:44Z</time>
      </trkpt>
      <trkpt lat="44.40112" lon="9.25778">
        <ele>64.07</ele>
        <time>2016-10-07T16:40:45Z</time>
      </trkpt>
      <trkpt lat="44.40111" lon="9.25787">
        <ele>64.55</ele>
        <time>2016-10-07T16:40:46Z</time>
      </trkpt>
      <trkpt lat="44.40109" lon="9.25796">
        <ele>64.07</ele>
        <time>2016-10-07T16:40:47Z</time>
      </trkpt>
      <trkpt lat="44.40106" lon="9.25805">
        <ele>64.07</ele>
        <time>2016-10-07T16:40:48Z</time>
      </trkpt>
      <trkpt lat="44.40104" lon="9.25813">
        <ele>65.03</ele>
        <time>2016-10-07T16:40:49Z</time>
      </trkpt>
      <trkpt lat="44.401" lon="9.25821">
        <ele>64.55</ele>
        <time>2016-10-07T16:40:50Z</time>
      </trkpt>
      <trkpt lat="44.40096" lon="9.25828">
        <ele>64.07</ele>
        <time>2016-10-07T16:40:51Z</time>
      </trkpt>
      <trkpt lat="44.40045" lon="9.25914">
        <ele>65.03</ele>
        <time>2016-10-07T16:41:03Z</time>
      </trkpt>
      <trkpt lat="44.4004" lon="9.2592">
        <ele>65.03</ele>
        <time>2016-10-07T16:41:04Z</time>
      </trkpt>
      <trkpt lat="44.40035" lon="9.25925">
        <ele>64.55</ele>
        <time>2016-10-07T16:41:05Z</time>
      </trkpt>
      <trkpt lat="44.40029" lon="9.2593">
        <ele>64.07</ele>
        <time>2016-10-07T16:41:06Z</time>
      </trkpt>
      <trkpt lat="44.40022" lon="9.25933">
        <ele>65.03</ele>
        <time>2016-10-07T16:41:07Z</time>
      </trkpt>
      <trkpt lat="44.40015" lon="9.25935">
        <ele>64.55</ele>
        <time>2016-10-07T16:41:08Z</time>
      </trkpt>
      <trkpt lat="44.40008" lon="9.25938">
        <ele>64.55</ele>
        <time>2016-10-07T16:41:09Z</time>
      </trkpt>
      <trkpt lat="44.39919" lon="9.25964">
        <ele>64.07</ele>
        <time>2016-10-07T16:41:22Z</time>
      </trkpt>
      <trkpt lat="44.39891" lon="9.25971">
        <ele>63.58</ele>
        <time>2016-10-07T16:41:26Z</time>
      </trkpt>
      <trkpt lat="44.39885" lon="9.2597">
        <ele>63.1</ele>
        <time>2016-10-07T16:41:27Z</time>
      </trkpt>
      <trkpt lat="44.39878" lon="9.25968">
        <ele>63.58</ele>
        <time>2016-10-07T16:41:28Z</time>
      </trkpt>
      <trkpt lat="44.39871" lon="9.25965">
        <ele>63.1</ele>
        <time>2016-10-07T16:41:29Z</time>
      </trkpt>
      <trkpt lat="44.39865" lon="9.2596">
        <ele>63.58</ele>
        <time>2016-10-07T16:41:30Z</time>
      </trkpt>
      <trkpt lat="44.39858" lon="9.25956">
        <ele>63.58</ele>
        <time>2016-10-07T16:41:31Z</time>
      </trkpt>
      <trkpt lat="44.39835" lon="9.25943">
        <ele>63.58</ele>
        <time>2016-10-07T16:41:35Z</time>
      </trkpt>
      <trkpt lat="44.3974" lon="9.25922">
        <ele>61.66</ele>
        <time>2016-10-07T16:41:50Z</time>
      </trkpt>
      <trkpt lat="44.39729" lon="9.2592">
        <ele>61.66</ele>
        <time>2016-10-07T16:41:52Z</time>
      </trkpt>
      <trkpt lat="44.39703" lon="9.25915">
        <ele>61.66</ele>
        <time>2016-10-07T16:41:57Z</time>
      </trkpt>
      <trkpt lat="44.39699" lon="9.25915">
        <ele>62.62</ele>
        <time>2016-10-07T16:41:58Z</time>
      </trkpt>
      <trkpt lat="44.39697" lon="9.25916">
        <ele>62.14</ele>
        <time>2016-10-07T16:41:59Z</time>
      </trkpt>
      <trkpt lat="44.39694" lon="9.25917">
        <ele>62.14</ele>
        <time>2016-10-07T16:42:00Z</time>
      </trkpt>
      <trkpt lat="44.39692" lon="9.25917">
        <ele>62.14</ele>
        <time>2016-10-07T16:42:01Z</time>
      </trkpt>
      <trkpt lat="44.3969" lon="9.25919">
        <ele>61.66</ele>
        <time>2016-10-07T16:42:02Z</time>
      </trkpt>
      <trkpt lat="44.39687" lon="9.25921">
        <ele>61.18</ele>
        <time>2016-10-07T16:42:03Z</time>
      </trkpt>
      <trkpt lat="44.39679" lon="9.25924">
        <ele>61.18</ele>
        <time>2016-10-07T16:42:05Z</time>
      </trkpt>
      <trkpt lat="44.39674" lon="9.25923">
        <ele>61.66</ele>
        <time>2016-10-07T16:42:06Z</time>
      </trkpt>
      <trkpt lat="44.39669" lon="9.25925">
        <ele>62.14</ele>
        <time>2016-10-07T16:42:07Z</time>
      </trkpt>
      <trkpt lat="44.39622" lon="9.25943">
        <ele>61.66</ele>
        <time>2016-10-07T16:42:14Z</time>
      </trkpt>
      <trkpt lat="44.39616" lon="9.25945">
        <ele>61.66</ele>
        <time>2016-10-07T16:42:15Z</time>
      </trkpt>
      <trkpt lat="44.39563" lon="9.25967">
        <ele>62.62</ele>
        <time>2016-10-07T16:42:25Z</time>
      </trkpt>
      <trkpt lat="44.39524" lon="9.26016">
        <ele>63.1</ele>
        <time>2016-10-07T16:42:35Z</time>
      </trkpt>
      <trkpt lat="44.39488" lon="9.26122">
        <ele>62.62</ele>
        <time>2016-10-07T16:42:50Z</time>
      </trkpt>
      <trkpt lat="44.39467" lon="9.26186">
        <ele>62.62</ele>
        <time>2016-10-07T16:42:59Z</time>
      </trkpt>
      <trkpt lat="44.39465" lon="9.26194">
        <ele>62.62</ele>
        <time>2016-10-07T16:43:00Z</time>
      </trkpt>
      <trkpt lat="44.39457" lon="9.26232">
        <ele>63.1</ele>
        <time>2016-10-07T16:43:05Z</time>
      </trkpt>
      <trkpt lat="44.39456" lon="9.2624">
        <ele>63.1</ele>
        <time>2016-10-07T16:43:06Z</time>
      </trkpt>
      <trkpt lat="44.39456" lon="9.26256">
        <ele>63.1</ele>
        <time>2016-10-07T16:43:08Z</time>
      </trkpt>
      <trkpt lat="44.39465" lon="9.26313">
        <ele>63.1</ele>
        <time>2016-10-07T16:43:15Z</time>
      </trkpt>
      <trkpt lat="44.39499" lon="9.26415">
        <ele>63.1</ele>
        <time>2016-10-07T16:43:28Z</time>
      </trkpt>
      <trkpt lat="44.39501" lon="9.26424">
        <ele>63.58</ele>
        <time>2016-10-07T16:43:29Z</time>
      </trkpt>
      <trkpt lat="44.39502" lon="9.26432">
        <ele>63.58</ele>
        <time>2016-10-07T16:43:30Z</time>
      </trkpt>
      <trkpt lat="44.39503" lon="9.26458">
        <ele>62.62</ele>
        <time>2016-10-07T16:43:33Z</time>
      </trkpt>
      <trkpt lat="44.39503" lon="9.26466">
        <ele>63.1</ele>
        <time>2016-10-07T16:43:34Z</time>
      </trkpt>
      <trkpt lat="44.39502" lon="9.26475">
        <ele>62.62</ele>
        <time>2016-10-07T16:43:35Z</time>
      </trkpt>
      <trkpt lat="44.395" lon="9.26484">
        <ele>62.62</ele>
        <time>2016-10-07T16:43:36Z</time>
      </trkpt>
      <trkpt lat="44.39499" lon="9.26493">
        <ele>63.58</ele>
        <time>2016-10-07T16:43:37Z</time>
      </trkpt>
      <trkpt lat="44.39477" lon="9.26633">
        <ele>64.07</ele>
        <time>2016-10-07T16:43:54Z</time>
      </trkpt>
      <trkpt lat="44.39472" lon="9.26666">
        <ele>62.14</ele>
        <time>2016-10-07T16:43:58Z</time>
      </trkpt>
      <trkpt lat="44.39462" lon="9.26781">
        <ele>64.07</ele>
        <time>2016-10-07T16:44:14Z</time>
      </trkpt>
      <trkpt lat="44.39449" lon="9.26875">
        <ele>65.03</ele>
        <time>2016-10-07T16:44:27Z</time>
      </trkpt>
      <trkpt lat="44.39446" lon="9.26897">
        <ele>64.55</ele>
        <time>2016-10-07T16:44:30Z</time>
      </trkpt>
      <trkpt lat="44.39443" lon="9.26921">
        <ele>64.07</ele>
        <time>2016-10-07T16:44:33Z</time>
      </trkpt>
      <trkpt lat="44.39442" lon="9.2693">
        <ele>64.07</ele>
        <time>2016-10-07T16:44:34Z</time>
      </trkpt>
      <trkpt lat="44.39406" lon="9.27038">
        <ele>63.1</ele>
        <time>2016-10-07T16:44:48Z</time>
      </trkpt>
      <trkpt lat="44.39359" lon="9.27172">
        <ele>62.62</ele>
        <time>2016-10-07T16:45:05Z</time>
      </trkpt>
      <trkpt lat="44.39348" lon="9.27193">
        <ele>61.66</ele>
        <time>2016-10-07T16:45:08Z</time>
      </trkpt>
      <trkpt lat="44.39344" lon="9.272">
        <ele>61.66</ele>
        <time>2016-10-07T16:45:09Z</time>
      </trkpt>
      <trkpt lat="44.39338" lon="9.27204">
        <ele>61.66</ele>
        <time>2016-10-07T16:45:10Z</time>
      </trkpt>
      <trkpt lat="44.39332" lon="9.27208">
        <ele>60.7</ele>
        <time>2016-10-07T16:45:11Z</time>
      </trkpt>
      <trkpt lat="44.39325" lon="9.27211">
        <ele>60.7</ele>
        <time>2016-10-07T16:45:12Z</time>
      </trkpt>
      <trkpt lat="44.39318" lon="9.27213">
        <ele>60.7</ele>
        <time>2016-10-07T16:45:13Z</time>
      </trkpt>
      <trkpt lat="44.3924" lon="9.27236">
        <ele>59.26</ele>
        <time>2016-10-07T16:45:24Z</time>
      </trkpt>
      <trkpt lat="44.39227" lon="9.27243">
        <ele>58.78</ele>
        <time>2016-10-07T16:45:26Z</time>
      </trkpt>
      <trkpt lat="44.39215" lon="9.27253">
        <ele>58.3</ele>
        <time>2016-10-07T16:45:28Z</time>
      </trkpt>
      <trkpt lat="44.39209" lon="9.2726">
        <ele>57.34</ele>
        <time>2016-10-07T16:45:29Z</time>
      </trkpt>
      <trkpt lat="44.39204" lon="9.27267">
        <ele>57.82</ele>
        <time>2016-10-07T16:45:30Z</time>
      </trkpt>
      <trkpt lat="44.39199" lon="9.27274">
        <ele>56.86</ele>
        <time>2016-10-07T16:45:31Z</time>
      </trkpt>
      <trkpt lat="44.39194" lon="9.27283">
        <ele>57.34</ele>
        <time>2016-10-07T16:45:32Z</time>
      </trkpt>
      <trkpt lat="44.39152" lon="9.27361">
        <ele>54.45</ele>
        <time>2016-10-07T16:45:41Z</time>
      </trkpt>
      <trkpt lat="44.39101" lon="9.2748">
        <ele>51.09</ele>
        <time>2016-10-07T16:45:53Z</time>
      </trkpt>
      <trkpt lat="44.39069" lon="9.27589">
        <ele>48.68</ele>
        <time>2016-10-07T16:46:03Z</time>
      </trkpt>
      <trkpt lat="44.39057" lon="9.27624">
        <ele>48.68</ele>
        <time>2016-10-07T16:46:07Z</time>
      </trkpt>
      <trkpt lat="44.39053" lon="9.27632">
        <ele>48.2</ele>
        <time>2016-10-07T16:46:08Z</time>
      </trkpt>
      <trkpt lat="44.39048" lon="9.27638">
        <ele>47.72</ele>
        <time>2016-10-07T16:46:09Z</time>
      </trkpt>
      <trkpt lat="44.39044" lon="9.27645">
        <ele>48.68</ele>
        <time>2016-10-07T16:46:10Z</time>
      </trkpt>
      <trkpt lat="44.39039" lon="9.27651">
        <ele>49.16</ele>
        <time>2016-10-07T16:46:11Z</time>
      </trkpt>
      <trkpt lat="44.39034" lon="9.27658">
        <ele>48.2</ele>
        <time>2016-10-07T16:46:12Z</time>
      </trkpt>
      <trkpt lat="44.38983" lon="9.27743">
        <ele>47.72</ele>
        <time>2016-10-07T16:46:23Z</time>
      </trkpt>
      <trkpt lat="44.38965" lon="9.27789">
        <ele>47.24</ele>
        <time>2016-10-07T16:46:28Z</time>
      </trkpt>
      <trkpt lat="44.38961" lon="9.27797">
        <ele>47.72</ele>
        <time>2016-10-07T16:46:29Z</time>
      </trkpt>
      <trkpt lat="44.38956" lon="9.27804">
        <ele>47.24</ele>
        <time>2016-10-07T16:46:30Z</time>
      </trkpt>
      <trkpt lat="44.38924" lon="9.27859">
        <ele>46.76</ele>
        <time>2016-10-07T16:46:37Z</time>
      </trkpt>
      <trkpt lat="44.38907" lon="9.27903">
        <ele>46.28</ele>
        <time>2016-10-07T16:46:42Z</time>
      </trkpt>
      <trkpt lat="44.38902" lon="9.2791">
        <ele>46.76</ele>
        <time>2016-10-07T16:46:43Z</time>
      </trkpt>
      <trkpt lat="44.38897" lon="9.27917">
        <ele>46.76</ele>
        <time>2016-10-07T16:46:44Z</time>
      </trkpt>
      <trkpt lat="44.38818" lon="9.27996">
        <ele>44.84</ele>
        <time>2016-10-07T16:46:58Z</time>
      </trkpt>
      <trkpt lat="44.38761" lon="9.28057">
        <ele>44.36</ele>
        <time>2016-10-07T16:47:08Z</time>
      </trkpt>
      <trkpt lat="44.38755" lon="9.28062">
        <ele>44.36</ele>
        <time>2016-10-07T16:47:09Z</time>
      </trkpt>
      <trkpt lat="44.38748" lon="9.28066">
        <ele>44.36</ele>
        <time>2016-10-07T16:47:10Z</time>
      </trkpt>
      <trkpt lat="44.38742" lon="9.28069">
        <ele>43.4</ele>
        <time>2016-10-07T16:47:11Z</time>
      </trkpt>
      <trkpt lat="44.38735" lon="9.28071">
        <ele>43.4</ele>
        <time>2016-10-07T16:47:12Z</time>
      </trkpt>
      <trkpt lat="44.38728" lon="9.28073">
        <ele>43.4</ele>
        <time>2016-10-07T16:47:13Z</time>
      </trkpt>
      <trkpt lat="44.38722" lon="9.28074">
        <ele>43.4</ele>
        <time>2016-10-07T16:47:14Z</time>
      </trkpt>
      <trkpt lat="44.38634" lon="9.28093">
        <ele>43.88</ele>
        <time>2016-10-07T16:47:29Z</time>
      </trkpt>
      <trkpt lat="44.38624" lon="9.281">
        <ele>44.36</ele>
        <time>2016-10-07T16:47:31Z</time>
      </trkpt>
      <trkpt lat="44.38592" lon="9.28133">
        <ele>44.36</ele>
        <time>2016-10-07T16:47:38Z</time>
      </trkpt>
      <trkpt lat="44.38587" lon="9.28138">
        <ele>43.88</ele>
        <time>2016-10-07T16:47:39Z</time>
      </trkpt>
      <trkpt lat="44.38505" lon="9.28219">
        <ele>43.4</ele>
        <time>2016-10-07T16:47:56Z</time>
      </trkpt>
      <trkpt lat="44.38458" lon="9.28287">
        <ele>43.88</ele>
        <time>2016-10-07T16:48:07Z</time>
      </trkpt>
      <trkpt lat="44.38422" lon="9.28341">
        <ele>42.92</ele>
        <time>2016-10-07T16:48:15Z</time>
      </trkpt>
      <trkpt lat="44.38417" lon="9.28348">
        <ele>43.4</ele>
        <time>2016-10-07T16:48:16Z</time>
      </trkpt>
      <trkpt lat="44.38341" lon="9.28433">
        <ele>43.4</ele>
        <time>2016-10-07T16:48:30Z</time>
      </trkpt>
      <trkpt lat="44.38281" lon="9.2849">
        <ele>42.44</ele>
        <time>2016-10-07T16:48:42Z</time>
      </trkpt>
      <trkpt lat="44.3824" lon="9.28531">
        <ele>43.4</ele>
        <time>2016-10-07T16:48:55Z</time>
      </trkpt>
      <trkpt lat="44.3819" lon="9.28602">
        <ele>42.44</ele>
        <time>2016-10-07T16:49:10Z</time>
      </trkpt>
      <trkpt lat="44.38132" lon="9.28664">
        <ele>40.99</ele>
        <time>2016-10-07T16:49:22Z</time>
      </trkpt>
      <trkpt lat="44.38039" lon="9.28729">
        <ele>40.03</ele>
        <time>2016-10-07T16:49:37Z</time>
      </trkpt>
      <trkpt lat="44.38015" lon="9.2875">
        <ele>40.03</ele>
        <time>2016-10-07T16:49:41Z</time>
      </trkpt>
      <trkpt lat="44.37955" lon="9.2881">
        <ele>40.03</ele>
        <time>2016-10-07T16:49:54Z</time>
      </trkpt>
      <trkpt lat="44.37919" lon="9.28847">
        <ele>41.47</ele>
        <time>2016-10-07T16:50:07Z</time>
      </trkpt>
      <trkpt lat="44.37916" lon="9.28851">
        <ele>41.47</ele>
        <time>2016-10-07T16:50:08Z</time>
      </trkpt>
      <trkpt lat="44.37866" lon="9.28927">
        <ele>42.44</ele>
        <time>2016-10-07T16:50:24Z</time>
      </trkpt>
      <trkpt lat="44.37833" lon="9.28989">
        <ele>42.92</ele>
        <time>2016-10-07T16:50:36Z</time>
      </trkpt>
      <trkpt lat="44.37829" lon="9.29001">
        <ele>43.88</ele>
        <time>2016-10-07T16:50:38Z</time>
      </trkpt>
      <trkpt lat="44.37812" lon="9.29041">
        <ele>44.84</ele>
        <time>2016-10-07T16:50:45Z</time>
      </trkpt>
      <trkpt lat="44.37809" lon="9.29047">
        <ele>44.36</ele>
        <time>2016-10-07T16:50:46Z</time>
      </trkpt>
      <trkpt lat="44.37769" lon="9.2915">
        <ele>43.4</ele>
        <time>2016-10-07T16:51:02Z</time>
      </trkpt>
      <trkpt lat="44.37732" lon="9.29245">
        <ele>43.4</ele>
        <time>2016-10-07T16:51:16Z</time>
      </trkpt>
      <trkpt lat="44.37677" lon="9.29364">
        <ele>40.51</ele>
        <time>2016-10-07T16:51:31Z</time>
      </trkpt>
      <trkpt lat="44.37584" lon="9.29518">
        <ele>37.15</ele>
        <time>2016-10-07T16:51:49Z</time>
      </trkpt>
      <trkpt lat="44.37496" lon="9.29674">
        <ele>35.23</ele>
        <time>2016-10-07T16:52:06Z</time>
      </trkpt>
      <trkpt lat="44.37461" lon="9.29824">
        <ele>35.23</ele>
        <time>2016-10-07T16:52:22Z</time>
      </trkpt>
      <trkpt lat="44.37427" lon="9.29949">
        <ele>36.19</ele>
        <time>2016-10-07T16:52:37Z</time>
      </trkpt>
      <trkpt lat="44.37384" lon="9.30106">
        <ele>35.71</ele>
        <time>2016-10-07T16:52:56Z</time>
      </trkpt>
      <trkpt lat="44.37348" lon="9.30273">
        <ele>35.71</ele>
        <time>2016-10-07T16:53:15Z</time>
      </trkpt>
      <trkpt lat="44.37297" lon="9.30377">
        <ele>35.23</ele>
        <time>2016-10-07T16:53:29Z</time>
      </trkpt>
      <trkpt lat="44.37215" lon="9.30436">
        <ele>34.26</ele>
        <time>2016-10-07T16:53:42Z</time>
      </trkpt>
      <trkpt lat="44.37132" lon="9.30509">
        <ele>34.74</ele>
        <time>2016-10-07T16:53:56Z</time>
      </trkpt>
      <trkpt lat="44.37061" lon="9.30617">
        <ele>32.82</ele>
        <time>2016-10-07T16:54:10Z</time>
      </trkpt>
      <trkpt lat="44.37049" lon="9.30683">
        <ele>31.86</ele>
        <time>2016-10-07T16:54:16Z</time>
      </trkpt>
      <trkpt lat="44.3705" lon="9.30716">
        <ele>31.38</ele>
        <time>2016-10-07T16:54:19Z</time>
      </trkpt>
      <trkpt lat="44.37052" lon="9.30739">
        <ele>31.86</ele>
        <time>2016-10-07T16:54:21Z</time>
      </trkpt>
      <trkpt lat="44.37057" lon="9.3076">
        <ele>30.9</ele>
        <time>2016-10-07T16:54:23Z</time>
      </trkpt>
      <trkpt lat="44.3706" lon="9.3077">
        <ele>30.9</ele>
        <time>2016-10-07T16:54:24Z</time>
      </trkpt>
      <trkpt lat="44.37115" lon="9.30898">
        <ele>30.9</ele>
        <time>2016-10-07T16:54:39Z</time>
      </trkpt>
      <trkpt lat="44.37157" lon="9.30999">
        <ele>31.86</ele>
        <time>2016-10-07T16:54:53Z</time>
      </trkpt>
      <trkpt lat="44.3716" lon="9.31006">
        <ele>32.82</ele>
        <time>2016-10-07T16:54:54Z</time>
      </trkpt>
      <trkpt lat="44.37163" lon="9.31014">
        <ele>32.34</ele>
        <time>2016-10-07T16:54:55Z</time>
      </trkpt>
      <trkpt lat="44.37179" lon="9.31057">
        <ele>32.34</ele>
        <time>2016-10-07T16:55:01Z</time>
      </trkpt>
      <trkpt lat="44.37181" lon="9.31065">
        <ele>32.82</ele>
        <time>2016-10-07T16:55:02Z</time>
      </trkpt>
      <trkpt lat="44.37183" lon="9.31072">
        <ele>32.82</ele>
        <time>2016-10-07T16:55:03Z</time>
      </trkpt>
      <trkpt lat="44.37184" lon="9.3108">
        <ele>32.34</ele>
        <time>2016-10-07T16:55:04Z</time>
      </trkpt>
      <trkpt lat="44.37184" lon="9.31088">
        <ele>33.3</ele>
        <time>2016-10-07T16:55:05Z</time>
      </trkpt>
      <trkpt lat="44.37184" lon="9.31096">
        <ele>32.34</ele>
        <time>2016-10-07T16:55:06Z</time>
      </trkpt>
      <trkpt lat="44.37184" lon="9.31105">
        <ele>32.82</ele>
        <time>2016-10-07T16:55:07Z</time>
      </trkpt>
      <trkpt lat="44.37183" lon="9.31113">
        <ele>32.34</ele>
        <time>2016-10-07T16:55:08Z</time>
      </trkpt>
      <trkpt lat="44.37175" lon="9.31193">
        <ele>33.3</ele>
        <time>2016-10-07T16:55:18Z</time>
      </trkpt>
      <trkpt lat="44.37175" lon="9.31201">
        <ele>32.82</ele>
        <time>2016-10-07T16:55:19Z</time>
      </trkpt>
      <trkpt lat="44.37174" lon="9.31208">
        <ele>33.78</ele>
        <time>2016-10-07T16:55:20Z</time>
      </trkpt>
      <trkpt lat="44.37173" lon="9.31247">
        <ele>33.78</ele>
        <time>2016-10-07T16:55:25Z</time>
      </trkpt>
      <trkpt lat="44.37172" lon="9.31263">
        <ele>33.3</ele>
        <time>2016-10-07T16:55:27Z</time>
      </trkpt>
      <trkpt lat="44.37152" lon="9.31403">
        <ele>33.78</ele>
        <time>2016-10-07T16:55:45Z</time>
      </trkpt>
      <trkpt lat="44.3711" lon="9.3149">
        <ele>32.34</ele>
        <time>2016-10-07T16:55:57Z</time>
      </trkpt>
      <trkpt lat="44.37024" lon="9.31577">
        <ele>31.38</ele>
        <time>2016-10-07T16:56:13Z</time>
      </trkpt>
      <trkpt lat="44.36949" lon="9.31627">
        <ele>30.9</ele>
        <time>2016-10-07T16:56:26Z</time>
      </trkpt>
      <trkpt lat="44.36927" lon="9.31629">
        <ele>29.94</ele>
        <time>2016-10-07T16:56:33Z</time>
      </trkpt>
      <trkpt lat="44.36923" lon="9.31633">
        <ele>30.42</ele>
        <time>2016-10-07T16:56:36Z</time>
      </trkpt>
      <trkpt lat="44.36925" lon="9.31637">
        <ele>30.9</ele>
        <time>2016-10-07T16:56:39Z</time>
      </trkpt>
      <trkpt lat="44.36927" lon="9.31638">
        <ele>30.42</ele>
        <time>2016-10-07T16:56:40Z</time>
      </trkpt>
      <trkpt lat="44.36929" lon="9.31638">
        <ele>30.42</ele>
        <time>2016-10-07T16:56:41Z</time>
      </trkpt>
      <trkpt lat="44.36931" lon="9.31638">
        <ele>30.42</ele>
        <time>2016-10-07T16:56:42Z</time>
      </trkpt>
      <trkpt lat="44.36933" lon="9.31637">
        <ele>30.9</ele>
        <time>2016-10-07T16:56:43Z</time>
      </trkpt>
      <trkpt lat="44.36938" lon="9.3163">
        <ele>30.9</ele>
        <time>2016-10-07T16:56:48Z</time>
      </trkpt>
      <trkpt lat="44.36938" lon="9.31628">
        <ele>29.94</ele>
        <time>2016-10-07T16:56:49Z</time>
      </trkpt>
      <trkpt lat="44.36936" lon="9.31623">
        <ele>29.94</ele>
        <time>2016-10-07T16:57:06Z</time>
      </trkpt>
      <trkpt lat="44.36936" lon="9.31618">
        <ele>30.42</ele>
        <time>2016-10-07T16:57:32Z</time>
      </trkpt>
      <trkpt lat="44.36934" lon="9.31617">
        <ele>30.9</ele>
        <time>2016-10-07T16:57:33Z</time>
      </trkpt>
      <trkpt lat="44.36933" lon="9.31618">
        <ele>30.42</ele>
        <time>2016-10-07T16:57:34Z</time>
      </trkpt>
      <trkpt lat="44.36933" lon="9.3162">
        <ele>30.42</ele>
        <time>2016-10-07T16:57:35Z</time>
      </trkpt>
      <trkpt lat="44.36934" lon="9.31622">
        <ele>30.42</ele>
        <time>2016-10-07T16:57:36Z</time>
      </trkpt>
      <trkpt lat="44.36934" lon="9.31624">
        <ele>29.94</ele>
        <time>2016-10-07T16:57:37Z</time>
      </trkpt>
      <trkpt lat="44.36933" lon="9.31626">
        <ele>30.42</ele>
        <time>2016-10-07T16:57:38Z</time>
      </trkpt>
      <trkpt lat="44.36931" lon="9.31628">
        <ele>30.42</ele>
        <time>2016-10-07T16:57:39Z</time>
      </trkpt>
      <trkpt lat="44.36929" lon="9.3163">
        <ele>29.94</ele>
        <time>2016-10-07T16:57:40Z</time>
      </trkpt>
      <trkpt lat="44.36926" lon="9.31631">
        <ele>30.42</ele>
        <time>2016-10-07T16:57:41Z</time>
      </trkpt>
      <trkpt lat="44.36923" lon="9.31632">
        <ele>30.42</ele>
        <time>2016-10-07T16:57:42Z</time>
      </trkpt>
      <trkpt lat="44.36886" lon="9.31649">
        <ele>29.94</ele>
        <time>2016-10-07T16:57:53Z</time>
      </trkpt>
      <trkpt lat="44.36881" lon="9.31651">
        <ele>29.46</ele>
        <time>2016-10-07T16:57:54Z</time>
      </trkpt>
      <trkpt lat="44.36877" lon="9.31655">
        <ele>29.94</ele>
        <time>2016-10-07T16:57:55Z</time>
      </trkpt>
      <trkpt lat="44.36873" lon="9.3166">
        <ele>29.94</ele>
        <time>2016-10-07T16:57:56Z</time>
      </trkpt>
      <trkpt lat="44.36869" lon="9.31665">
        <ele>28.98</ele>
        <time>2016-10-07T16:57:57Z</time>
      </trkpt>
      <trkpt lat="44.36864" lon="9.3167">
        <ele>29.46</ele>
        <time>2016-10-07T16:57:58Z</time>
      </trkpt>
      <trkpt lat="44.3686" lon="9.31675">
        <ele>28.98</ele>
        <time>2016-10-07T16:57:59Z</time>
      </trkpt>
      <trkpt lat="44.36774" lon="9.31771">
        <ele>28.5</ele>
        <time>2016-10-07T16:58:16Z</time>
      </trkpt>
      <trkpt lat="44.36675" lon="9.31827">
        <ele>28.5</ele>
        <time>2016-10-07T16:58:32Z</time>
      </trkpt>
      <trkpt lat="44.36595" lon="9.31891">
        <ele>29.46</ele>
        <time>2016-10-07T16:58:46Z</time>
      </trkpt>
      <trkpt lat="44.36527" lon="9.31968">
        <ele>28.02</ele>
        <time>2016-10-07T16:58:59Z</time>
      </trkpt>
      <trkpt lat="44.36522" lon="9.31975">
        <ele>28.02</ele>
        <time>2016-10-07T16:59:00Z</time>
      </trkpt>
      <trkpt lat="44.36518" lon="9.31982">
        <ele>28.5</ele>
        <time>2016-10-07T16:59:01Z</time>
      </trkpt>
      <trkpt lat="44.36508" lon="9.32006">
        <ele>28.98</ele>
        <time>2016-10-07T16:59:04Z</time>
      </trkpt>
      <trkpt lat="44.365" lon="9.32042">
        <ele>28.98</ele>
        <time>2016-10-07T16:59:08Z</time>
      </trkpt>
      <trkpt lat="44.36499" lon="9.32051">
        <ele>28.5</ele>
        <time>2016-10-07T16:59:09Z</time>
      </trkpt>
      <trkpt lat="44.36495" lon="9.32176">
        <ele>28.98</ele>
        <time>2016-10-07T16:59:22Z</time>
      </trkpt>
      <trkpt lat="44.36497" lon="9.32301">
        <ele>29.46</ele>
        <time>2016-10-07T16:59:35Z</time>
      </trkpt>
      <trkpt lat="44.36539" lon="9.3246">
        <ele>28.5</ele>
        <time>2016-10-07T16:59:53Z</time>
      </trkpt>
      <trkpt lat="44.36541" lon="9.32469">
        <ele>28.02</ele>
        <time>2016-10-07T16:59:54Z</time>
      </trkpt>
      <trkpt lat="44.36547" lon="9.32497">
        <ele>28.02</ele>
        <time>2016-10-07T16:59:57Z</time>
      </trkpt>
      <trkpt lat="44.36548" lon="9.32506">
        <ele>28.02</ele>
        <time>2016-10-07T16:59:58Z</time>
      </trkpt>
      <trkpt lat="44.36544" lon="9.32558">
        <ele>28.98</ele>
        <time>2016-10-07T17:00:04Z</time>
      </trkpt>
      <trkpt lat="44.36543" lon="9.32574">
        <ele>29.46</ele>
        <time>2016-10-07T17:00:06Z</time>
      </trkpt>
      <trkpt lat="44.36543" lon="9.32582">
        <ele>29.46</ele>
        <time>2016-10-07T17:00:07Z</time>
      </trkpt>
      <trkpt lat="44.36545" lon="9.32597">
        <ele>29.94</ele>
        <time>2016-10-07T17:00:09Z</time>
      </trkpt>
      <trkpt lat="44.36547" lon="9.32604">
        <ele>29.94</ele>
        <time>2016-10-07T17:00:10Z</time>
      </trkpt>
      <trkpt lat="44.36549" lon="9.32611">
        <ele>29.94</ele>
        <time>2016-10-07T17:00:11Z</time>
      </trkpt>
      <trkpt lat="44.36552" lon="9.32618">
        <ele>29.46</ele>
        <time>2016-10-07T17:00:12Z</time>
      </trkpt>
      <trkpt lat="44.36555" lon="9.32625">
        <ele>29.94</ele>
        <time>2016-10-07T17:00:13Z</time>
      </trkpt>
      <trkpt lat="44.36585" lon="9.32692">
        <ele>29.94</ele>
        <time>2016-10-07T17:00:23Z</time>
      </trkpt>
      <trkpt lat="44.36589" lon="9.32698">
        <ele>30.42</ele>
        <time>2016-10-07T17:00:24Z</time>
      </trkpt>
      <trkpt lat="44.36628" lon="9.32743">
        <ele>30.42</ele>
        <time>2016-10-07T17:00:33Z</time>
      </trkpt>
      <trkpt lat="44.36632" lon="9.32749">
        <ele>30.42</ele>
        <time>2016-10-07T17:00:34Z</time>
      </trkpt>
      <trkpt lat="44.36634" lon="9.32756">
        <ele>30.42</ele>
        <time>2016-10-07T17:00:35Z</time>
      </trkpt>
      <trkpt lat="44.36637" lon="9.32764">
        <ele>30.42</ele>
        <time>2016-10-07T17:00:36Z</time>
      </trkpt>
      <trkpt lat="44.36639" lon="9.32772">
        <ele>29.94</ele>
        <time>2016-10-07T17:00:37Z</time>
      </trkpt>
      <trkpt lat="44.36665" lon="9.32896">
        <ele>27.53</ele>
        <time>2016-10-07T17:00:50Z</time>
      </trkpt>
      <trkpt lat="44.36667" lon="9.32919">
        <ele>26.57</ele>
        <time>2016-10-07T17:00:52Z</time>
      </trkpt>
      <trkpt lat="44.36663" lon="9.33083">
        <ele>26.57</ele>
        <time>2016-10-07T17:01:07Z</time>
      </trkpt>
      <trkpt lat="44.3666" lon="9.33102">
        <ele>26.09</ele>
        <time>2016-10-07T17:01:09Z</time>
      </trkpt>
      <trkpt lat="44.36657" lon="9.33112">
        <ele>26.09</ele>
        <time>2016-10-07T17:01:10Z</time>
      </trkpt>
      <trkpt lat="44.36611" lon="9.33255">
        <ele>25.13</ele>
        <time>2016-10-07T17:01:25Z</time>
      </trkpt>
      <trkpt lat="44.36591" lon="9.33332">
        <ele>24.17</ele>
        <time>2016-10-07T17:01:33Z</time>
      </trkpt>
      <trkpt lat="44.36587" lon="9.3334">
        <ele>25.13</ele>
        <time>2016-10-07T17:01:34Z</time>
      </trkpt>
      <trkpt lat="44.36583" lon="9.33348">
        <ele>25.13</ele>
        <time>2016-10-07T17:01:35Z</time>
      </trkpt>
      <trkpt lat="44.36578" lon="9.33356">
        <ele>25.61</ele>
        <time>2016-10-07T17:01:36Z</time>
      </trkpt>
      <trkpt lat="44.36573" lon="9.33363">
        <ele>25.13</ele>
        <time>2016-10-07T17:01:37Z</time>
      </trkpt>
      <trkpt lat="44.36567" lon="9.33369">
        <ele>25.13</ele>
        <time>2016-10-07T17:01:38Z</time>
      </trkpt>
      <trkpt lat="44.36561" lon="9.33374">
        <ele>25.13</ele>
        <time>2016-10-07T17:01:39Z</time>
      </trkpt>
      <trkpt lat="44.36455" lon="9.33444">
        <ele>24.65</ele>
        <time>2016-10-07T17:01:55Z</time>
      </trkpt>
      <trkpt lat="44.36383" lon="9.33468">
        <ele>24.65</ele>
        <time>2016-10-07T17:02:06Z</time>
      </trkpt>
      <trkpt lat="44.36364" lon="9.33478">
        <ele>24.65</ele>
        <time>2016-10-07T17:02:09Z</time>
      </trkpt>
      <trkpt lat="44.36248" lon="9.3353">
        <ele>25.13</ele>
        <time>2016-10-07T17:02:28Z</time>
      </trkpt>
      <trkpt lat="44.36173" lon="9.33577">
        <ele>25.13</ele>
        <time>2016-10-07T17:02:41Z</time>
      </trkpt>
      <trkpt lat="44.36169" lon="9.33582">
        <ele>25.13</ele>
        <time>2016-10-07T17:02:42Z</time>
      </trkpt>
      <trkpt lat="44.36164" lon="9.33587">
        <ele>24.65</ele>
        <time>2016-10-07T17:02:43Z</time>
      </trkpt>
      <trkpt lat="44.3616" lon="9.33594">
        <ele>24.65</ele>
        <time>2016-10-07T17:02:44Z</time>
      </trkpt>
      <trkpt lat="44.36156" lon="9.336">
        <ele>25.13</ele>
        <time>2016-10-07T17:02:45Z</time>
      </trkpt>
      <trkpt lat="44.36152" lon="9.33608">
        <ele>25.13</ele>
        <time>2016-10-07T17:02:46Z</time>
      </trkpt>
      <trkpt lat="44.36149" lon="9.33615">
        <ele>25.13</ele>
        <time>2016-10-07T17:02:47Z</time>
      </trkpt>
      <trkpt lat="44.36132" lon="9.33683">
        <ele>24.17</ele>
        <time>2016-10-07T17:02:55Z</time>
      </trkpt>
      <trkpt lat="44.36132" lon="9.33701">
        <ele>25.61</ele>
        <time>2016-10-07T17:02:57Z</time>
      </trkpt>
      <trkpt lat="44.36134" lon="9.33709">
        <ele>25.13</ele>
        <time>2016-10-07T17:02:58Z</time>
      </trkpt>
      <trkpt lat="44.36136" lon="9.33717">
        <ele>24.65</ele>
        <time>2016-10-07T17:02:59Z</time>
      </trkpt>
      <trkpt lat="44.36138" lon="9.33725">
        <ele>24.65</ele>
        <time>2016-10-07T17:03:00Z</time>
      </trkpt>
      <trkpt lat="44.36141" lon="9.33733">
        <ele>24.65</ele>
        <time>2016-10-07T17:03:01Z</time>
      </trkpt>
      <trkpt lat="44.362" lon="9.33864">
        <ele>24.17</ele>
        <time>2016-10-07T17:03:18Z</time>
      </trkpt>
      <trkpt lat="44.36251" lon="9.33985">
        <ele>24.17</ele>
        <time>2016-10-07T17:03:33Z</time>
      </trkpt>
      <trkpt lat="44.36253" lon="9.33994">
        <ele>23.21</ele>
        <time>2016-10-07T17:03:34Z</time>
      </trkpt>
      <trkpt lat="44.36254" lon="9.34003">
        <ele>23.21</ele>
        <time>2016-10-07T17:03:35Z</time>
      </trkpt>
      <trkpt lat="44.36254" lon="9.34012">
        <ele>23.69</ele>
        <time>2016-10-07T17:03:36Z</time>
      </trkpt>
      <trkpt lat="44.36253" lon="9.34021">
        <ele>24.17</ele>
        <time>2016-10-07T17:03:37Z</time>
      </trkpt>
      <trkpt lat="44.36251" lon="9.3403">
        <ele>23.69</ele>
        <time>2016-10-07T17:03:38Z</time>
      </trkpt>
      <trkpt lat="44.36248" lon="9.34038">
        <ele>24.65</ele>
        <time>2016-10-07T17:03:39Z</time>
      </trkpt>
      <trkpt lat="44.36245" lon="9.34044">
        <ele>24.65</ele>
        <time>2016-10-07T17:03:40Z</time>
      </trkpt>
      <trkpt lat="44.36241" lon="9.34051">
        <ele>25.13</ele>
        <time>2016-10-07T17:03:41Z</time>
      </trkpt>
      <trkpt lat="44.36237" lon="9.34057">
        <ele>24.65</ele>
        <time>2016-10-07T17:03:42Z</time>
      </trkpt>
      <trkpt lat="44.362" lon="9.34103">
        <ele>26.09</ele>
        <time>2016-10-07T17:03:51Z</time>
      </trkpt>
      <trkpt lat="44.36197" lon="9.34109">
        <ele>25.61</ele>
        <time>2016-10-07T17:03:52Z</time>
      </trkpt>
      <trkpt lat="44.36195" lon="9.34115">
        <ele>25.61</ele>
        <time>2016-10-07T17:03:53Z</time>
      </trkpt>
      <trkpt lat="44.36193" lon="9.34122">
        <ele>25.61</ele>
        <time>2016-10-07T17:03:54Z</time>
      </trkpt>
      <trkpt lat="44.36192" lon="9.34129">
        <ele>26.09</ele>
        <time>2016-10-07T17:03:55Z</time>
      </trkpt>
      <trkpt lat="44.3619" lon="9.34136">
        <ele>26.09</ele>
        <time>2016-10-07T17:03:56Z</time>
      </trkpt>
      <trkpt lat="44.36189" lon="9.34143">
        <ele>26.09</ele>
        <time>2016-10-07T17:03:57Z</time>
      </trkpt>
      <trkpt lat="44.36189" lon="9.34149">
        <ele>26.09</ele>
        <time>2016-10-07T17:03:58Z</time>
      </trkpt>
      <trkpt lat="44.3619" lon="9.34156">
        <ele>26.09</ele>
        <time>2016-10-07T17:03:59Z</time>
      </trkpt>
      <trkpt lat="44.36192" lon="9.34163">
        <ele>26.09</ele>
        <time>2016-10-07T17:04:00Z</time>
      </trkpt>
      <trkpt lat="44.36194" lon="9.34171">
        <ele>26.09</ele>
        <time>2016-10-07T17:04:01Z</time>
      </trkpt>
      <trkpt lat="44.36195" lon="9.34178">
        <ele>26.09</ele>
        <time>2016-10-07T17:04:02Z</time>
      </trkpt>
      <trkpt lat="44.36196" lon="9.34186">
        <ele>25.61</ele>
        <time>2016-10-07T17:04:03Z</time>
      </trkpt>
      <trkpt lat="44.36196" lon="9.34194">
        <ele>26.09</ele>
        <time>2016-10-07T17:04:04Z</time>
      </trkpt>
      <trkpt lat="44.36192" lon="9.34231">
        <ele>26.57</ele>
        <time>2016-10-07T17:04:09Z</time>
      </trkpt>
      <trkpt lat="44.36191" lon="9.34239">
        <ele>27.05</ele>
        <time>2016-10-07T17:04:10Z</time>
      </trkpt>
      <trkpt lat="44.36185" lon="9.34297">
        <ele>27.53</ele>
        <time>2016-10-07T17:04:18Z</time>
      </trkpt>
      <trkpt lat="44.36182" lon="9.34303">
        <ele>28.02</ele>
        <time>2016-10-07T17:04:19Z</time>
      </trkpt>
      <trkpt lat="44.36179" lon="9.34309">
        <ele>27.53</ele>
        <time>2016-10-07T17:04:20Z</time>
      </trkpt>
      <trkpt lat="44.36176" lon="9.34315">
        <ele>27.05</ele>
        <time>2016-10-07T17:04:21Z</time>
      </trkpt>
      <trkpt lat="44.36172" lon="9.34321">
        <ele>27.05</ele>
        <time>2016-10-07T17:04:22Z</time>
      </trkpt>
      <trkpt lat="44.36167" lon="9.34327">
        <ele>26.57</ele>
        <time>2016-10-07T17:04:23Z</time>
      </trkpt>
      <trkpt lat="44.36158" lon="9.34338">
        <ele>27.05</ele>
        <time>2016-10-07T17:04:25Z</time>
      </trkpt>
      <trkpt lat="44.36153" lon="9.34343">
        <ele>26.57</ele>
        <time>2016-10-07T17:04:26Z</time>
      </trkpt>
      <trkpt lat="44.36109" lon="9.34382">
        <ele>26.09</ele>
        <time>2016-10-07T17:04:34Z</time>
      </trkpt>
      <trkpt lat="44.36102" lon="9.34385">
        <ele>26.09</ele>
        <time>2016-10-07T17:04:35Z</time>
      </trkpt>
      <trkpt lat="44.36059" lon="9.344">
        <ele>24.65</ele>
        <time>2016-10-07T17:04:41Z</time>
      </trkpt>
      <trkpt lat="44.35931" lon="9.34391">
        <ele>22.73</ele>
        <time>2016-10-07T17:04:57Z</time>
      </trkpt>
      <trkpt lat="44.35798" lon="9.34338">
        <ele>22.25</ele>
        <time>2016-10-07T17:05:15Z</time>
      </trkpt>
      <trkpt lat="44.35707" lon="9.34325">
        <ele>22.25</ele>
        <time>2016-10-07T17:05:27Z</time>
      </trkpt>
      <trkpt lat="44.3558" lon="9.3431">
        <ele>21.29</ele>
        <time>2016-10-07T17:05:44Z</time>
      </trkpt>
      <trkpt lat="44.35492" lon="9.34305">
        <ele>20.81</ele>
        <time>2016-10-07T17:05:57Z</time>
      </trkpt>
      <trkpt lat="44.35391" lon="9.34314">
        <ele>21.77</ele>
        <time>2016-10-07T17:06:13Z</time>
      </trkpt>
      <trkpt lat="44.35288" lon="9.34336">
        <ele>21.77</ele>
        <time>2016-10-07T17:06:32Z</time>
      </trkpt>
      <trkpt lat="44.35223" lon="9.34348">
        <ele>19.84</ele>
        <time>2016-10-07T17:06:44Z</time>
      </trkpt>
      <trkpt lat="44.35217" lon="9.34347">
        <ele>20.32</ele>
        <time>2016-10-07T17:06:45Z</time>
      </trkpt>
      <trkpt lat="44.35212" lon="9.34345">
        <ele>19.84</ele>
        <time>2016-10-07T17:06:46Z</time>
      </trkpt>
      <trkpt lat="44.35206" lon="9.34343">
        <ele>20.81</ele>
        <time>2016-10-07T17:06:47Z</time>
      </trkpt>
      <trkpt lat="44.352" lon="9.34339">
        <ele>19.84</ele>
        <time>2016-10-07T17:06:48Z</time>
      </trkpt>
      <trkpt lat="44.35104" lon="9.34279">
        <ele>18.88</ele>
        <time>2016-10-07T17:07:04Z</time>
      </trkpt>
      <trkpt lat="44.35091" lon="9.34274">
        <ele>18.88</ele>
        <time>2016-10-07T17:07:06Z</time>
      </trkpt>
      <trkpt lat="44.35083" lon="9.34273">
        <ele>18.88</ele>
        <time>2016-10-07T17:07:07Z</time>
      </trkpt>
      <trkpt lat="44.35076" lon="9.34273">
        <ele>18.4</ele>
        <time>2016-10-07T17:07:08Z</time>
      </trkpt>
      <trkpt lat="44.35069" lon="9.34273">
        <ele>18.4</ele>
        <time>2016-10-07T17:07:09Z</time>
      </trkpt>
      <trkpt lat="44.35062" lon="9.34275">
        <ele>18.88</ele>
        <time>2016-10-07T17:07:10Z</time>
      </trkpt>
      <trkpt lat="44.35056" lon="9.34278">
        <ele>18.4</ele>
        <time>2016-10-07T17:07:11Z</time>
      </trkpt>
      <trkpt lat="44.35049" lon="9.34282">
        <ele>18.4</ele>
        <time>2016-10-07T17:07:12Z</time>
      </trkpt>
      <trkpt lat="44.35043" lon="9.34287">
        <ele>18.4</ele>
        <time>2016-10-07T17:07:13Z</time>
      </trkpt>
      <trkpt lat="44.35037" lon="9.34292">
        <ele>17.92</ele>
        <time>2016-10-07T17:07:14Z</time>
      </trkpt>
      <trkpt lat="44.35032" lon="9.34297">
        <ele>17.92</ele>
        <time>2016-10-07T17:07:15Z</time>
      </trkpt>
      <trkpt lat="44.35027" lon="9.34303">
        <ele>17.92</ele>
        <time>2016-10-07T17:07:16Z</time>
      </trkpt>
      <trkpt lat="44.35023" lon="9.3431">
        <ele>17.44</ele>
        <time>2016-10-07T17:07:17Z</time>
      </trkpt>
      <trkpt lat="44.3502" lon="9.34317">
        <ele>17.92</ele>
        <time>2016-10-07T17:07:18Z</time>
      </trkpt>
      <trkpt lat="44.35016" lon="9.34324">
        <ele>18.4</ele>
        <time>2016-10-07T17:07:19Z</time>
      </trkpt>
      <trkpt lat="44.35014" lon="9.34331">
        <ele>18.4</ele>
        <time>2016-10-07T17:07:20Z</time>
      </trkpt>
      <trkpt lat="44.35012" lon="9.34339">
        <ele>17.92</ele>
        <time>2016-10-07T17:07:21Z</time>
      </trkpt>
      <trkpt lat="44.35011" lon="9.34347">
        <ele>18.4</ele>
        <time>2016-10-07T17:07:22Z</time>
      </trkpt>
      <trkpt lat="44.35008" lon="9.34383">
        <ele>16.48</ele>
        <time>2016-10-07T17:07:27Z</time>
      </trkpt>
      <trkpt lat="44.35008" lon="9.34432">
        <ele>16.96</ele>
        <time>2016-10-07T17:07:39Z</time>
      </trkpt>
      <trkpt lat="44.35005" lon="9.34458">
        <ele>16.96</ele>
        <time>2016-10-07T17:07:51Z</time>
      </trkpt>
      <trkpt lat="44.35013" lon="9.34466">
        <ele>16.96</ele>
        <time>2016-10-07T17:08:14Z</time>
      </trkpt>
      <trkpt lat="44.35013" lon="9.34467">
        <ele>16.96</ele>
        <time>2016-10-07T17:08:23Z</time>
      </trkpt>
      <trkpt lat="44.35013" lon="9.34471">
        <ele>16.96</ele>
        <time>2016-10-07T17:08:26Z</time>
      </trkpt>
      <trkpt lat="44.35013" lon="9.34474">
        <ele>16.96</ele>
        <time>2016-10-07T17:08:27Z</time>
      </trkpt>
      <trkpt lat="44.35007" lon="9.34526">
        <ele>16.96</ele>
        <time>2016-10-07T17:08:37Z</time>
      </trkpt>
      <trkpt lat="44.35006" lon="9.34532">
        <ele>16.96</ele>
        <time>2016-10-07T17:08:38Z</time>
      </trkpt>
      <trkpt lat="44.35005" lon="9.3455">
        <ele>16.96</ele>
        <time>2016-10-07T17:08:41Z</time>
      </trkpt>
      <trkpt lat="44.35005" lon="9.34557">
        <ele>16.96</ele>
        <time>2016-10-07T17:08:42Z</time>
      </trkpt>
      <trkpt lat="44.35005" lon="9.34564">
        <ele>16.96</ele>
        <time>2016-10-07T17:08:43Z</time>
      </trkpt>
      <trkpt lat="44.35004" lon="9.34571">
        <ele>16.48</ele>
        <time>2016-10-07T17:08:44Z</time>
      </trkpt>
      <trkpt lat="44.35004" lon="9.34578">
        <ele>16.48</ele>
        <time>2016-10-07T17:08:45Z</time>
      </trkpt>
      <trkpt lat="44.34982" lon="9.34706">
        <ele>15.52</ele>
        <time>2016-10-07T17:09:02Z</time>
      </trkpt>
      <trkpt lat="44.34981" lon="9.34714">
        <ele>15.52</ele>
        <time>2016-10-07T17:09:03Z</time>
      </trkpt>
      <trkpt lat="44.34978" lon="9.34722">
        <ele>15.52</ele>
        <time>2016-10-07T17:09:04Z</time>
      </trkpt>
      <trkpt lat="44.34975" lon="9.34729">
        <ele>15.04</ele>
        <time>2016-10-07T17:09:05Z</time>
      </trkpt>
      <trkpt lat="44.34971" lon="9.34735">
        <ele>15.52</ele>
        <time>2016-10-07T17:09:06Z</time>
      </trkpt>
      <trkpt lat="44.34966" lon="9.3474">
        <ele>15.52</ele>
        <time>2016-10-07T17:09:07Z</time>
      </trkpt>
      <trkpt lat="44.34962" lon="9.34744">
        <ele>15.52</ele>
        <time>2016-10-07T17:09:08Z</time>
      </trkpt>
      <trkpt lat="44.34956" lon="9.34747">
        <ele>15.52</ele>
        <time>2016-10-07T17:09:09Z</time>
      </trkpt>
      <trkpt lat="44.3495" lon="9.34749">
        <ele>15.52</ele>
        <time>2016-10-07T17:09:10Z</time>
      </trkpt>
      <trkpt lat="44.34944" lon="9.3475">
        <ele>15.52</ele>
        <time>2016-10-07T17:09:11Z</time>
      </trkpt>
      <trkpt lat="44.34924" lon="9.34754">
        <ele>15.52</ele>
        <time>2016-10-07T17:09:14Z</time>
      </trkpt>
      <trkpt lat="44.34918" lon="9.34755">
        <ele>15.04</ele>
        <time>2016-10-07T17:09:15Z</time>
      </trkpt>
      <trkpt lat="44.34798" lon="9.34782">
        <ele>15.52</ele>
        <time>2016-10-07T17:09:34Z</time>
      </trkpt>
      <trkpt lat="44.34698" lon="9.34805">
        <ele>16.48</ele>
        <time>2016-10-07T17:09:52Z</time>
      </trkpt>
      <trkpt lat="44.34612" lon="9.34827">
        <ele>17.92</ele>
        <time>2016-10-07T17:10:09Z</time>
      </trkpt>
      <trkpt lat="44.34552" lon="9.34841">
        <ele>18.88</ele>
        <time>2016-10-07T17:10:21Z</time>
      </trkpt>
      <trkpt lat="44.34543" lon="9.34842">
        <ele>18.88</ele>
        <time>2016-10-07T17:10:23Z</time>
      </trkpt>
      <trkpt lat="44.34539" lon="9.34845">
        <ele>18.88</ele>
        <time>2016-10-07T17:10:24Z</time>
      </trkpt>
      <trkpt lat="44.34535" lon="9.34849">
        <ele>19.36</ele>
        <time>2016-10-07T17:10:25Z</time>
      </trkpt>
      <trkpt lat="44.34532" lon="9.34853">
        <ele>19.36</ele>
        <time>2016-10-07T17:10:26Z</time>
      </trkpt>
      <trkpt lat="44.34529" lon="9.34859">
        <ele>19.36</ele>
        <time>2016-10-07T17:10:27Z</time>
      </trkpt>
      <trkpt lat="44.34517" lon="9.34882">
        <ele>19.36</ele>
        <time>2016-10-07T17:10:31Z</time>
      </trkpt>
      <trkpt lat="44.34513" lon="9.34887">
        <ele>19.36</ele>
        <time>2016-10-07T17:10:32Z</time>
      </trkpt>
      <trkpt lat="44.34509" lon="9.34891">
        <ele>19.36</ele>
        <time>2016-10-07T17:10:33Z</time>
      </trkpt>
      <trkpt lat="44.34494" lon="9.34909">
        <ele>19.84</ele>
        <time>2016-10-07T17:10:37Z</time>
      </trkpt>
      <trkpt lat="44.34491" lon="9.34913">
        <ele>20.32</ele>
        <time>2016-10-07T17:10:38Z</time>
      </trkpt>
      <trkpt lat="44.34472" lon="9.34933">
        <ele>20.32</ele>
        <time>2016-10-07T17:10:43Z</time>
      </trkpt>
      <trkpt lat="44.34468" lon="9.34936">
        <ele>20.32</ele>
        <time>2016-10-07T17:10:44Z</time>
      </trkpt>
      <trkpt lat="44.34463" lon="9.34938">
        <ele>20.32</ele>
        <time>2016-10-07T17:10:45Z</time>
      </trkpt>
      <trkpt lat="44.34408" lon="9.34959">
        <ele>23.21</ele>
        <time>2016-10-07T17:10:59Z</time>
      </trkpt>
      <trkpt lat="44.34353" lon="9.34979">
        <ele>25.13</ele>
        <time>2016-10-07T17:11:15Z</time>
      </trkpt>
      <trkpt lat="44.34292" lon="9.35003">
        <ele>26.09</ele>
        <time>2016-10-07T17:11:31Z</time>
      </trkpt>
      <trkpt lat="44.34273" lon="9.35011">
        <ele>24.65</ele>
        <time>2016-10-07T17:11:35Z</time>
      </trkpt>
      <trkpt lat="44.34267" lon="9.3501">
        <ele>25.13</ele>
        <time>2016-10-07T17:11:36Z</time>
      </trkpt>
      <trkpt lat="44.34261" lon="9.3501">
        <ele>24.65</ele>
        <time>2016-10-07T17:11:37Z</time>
      </trkpt>
      <trkpt lat="44.34256" lon="9.35008">
        <ele>24.65</ele>
        <time>2016-10-07T17:11:38Z</time>
      </trkpt>
      <trkpt lat="44.34251" lon="9.35005">
        <ele>24.17</ele>
        <time>2016-10-07T17:11:39Z</time>
      </trkpt>
      <trkpt lat="44.34246" lon="9.35001">
        <ele>23.69</ele>
        <time>2016-10-07T17:11:40Z</time>
      </trkpt>
      <trkpt lat="44.34241" lon="9.34996">
        <ele>23.21</ele>
        <time>2016-10-07T17:11:41Z</time>
      </trkpt>
      <trkpt lat="44.34206" lon="9.34958">
        <ele>21.29</ele>
        <time>2016-10-07T17:11:47Z</time>
      </trkpt>
      <trkpt lat="44.34183" lon="9.34929">
        <ele>19.36</ele>
        <time>2016-10-07T17:11:51Z</time>
      </trkpt>
      <trkpt lat="44.34178" lon="9.34921">
        <ele>18.4</ele>
        <time>2016-10-07T17:11:52Z</time>
      </trkpt>
      <trkpt lat="44.34174" lon="9.34911">
        <ele>18.4</ele>
        <time>2016-10-07T17:11:53Z</time>
      </trkpt>
      <trkpt lat="44.34159" lon="9.34878">
        <ele>17.44</ele>
        <time>2016-10-07T17:11:57Z</time>
      </trkpt>
      <trkpt lat="44.34154" lon="9.34872">
        <ele>16.96</ele>
        <time>2016-10-07T17:11:58Z</time>
      </trkpt>
      <trkpt lat="44.34148" lon="9.34866">
        <ele>16</ele>
        <time>2016-10-07T17:11:59Z</time>
      </trkpt>
      <trkpt lat="44.34141" lon="9.34864">
        <ele>16</ele>
        <time>2016-10-07T17:12:00Z</time>
      </trkpt>
      <trkpt lat="44.34135" lon="9.34866">
        <ele>16</ele>
        <time>2016-10-07T17:12:01Z</time>
      </trkpt>
      <trkpt lat="44.34128" lon="9.3487">
        <ele>15.52</ele>
        <time>2016-10-07T17:12:02Z</time>
      </trkpt>
      <trkpt lat="44.34122" lon="9.34877">
        <ele>14.56</ele>
        <time>2016-10-07T17:12:03Z</time>
      </trkpt>
      <trkpt lat="44.34118" lon="9.34886">
        <ele>15.04</ele>
        <time>2016-10-07T17:12:04Z</time>
      </trkpt>
      <trkpt lat="44.34115" lon="9.34895">
        <ele>14.56</ele>
        <time>2016-10-07T17:12:05Z</time>
      </trkpt>
      <trkpt lat="44.34114" lon="9.34905">
        <ele>13.6</ele>
        <time>2016-10-07T17:12:06Z</time>
      </trkpt>
      <trkpt lat="44.34114" lon="9.34916">
        <ele>13.6</ele>
        <time>2016-10-07T17:12:07Z</time>
      </trkpt>
      <trkpt lat="44.34116" lon="9.34927">
        <ele>13.6</ele>
        <time>2016-10-07T17:12:08Z</time>
      </trkpt>
      <trkpt lat="44.34124" lon="9.34984">
        <ele>11.67</ele>
        <time>2016-10-07T17:12:13Z</time>
      </trkpt>
      <trkpt lat="44.34124" lon="9.34995">
        <ele>11.67</ele>
        <time>2016-10-07T17:12:14Z</time>
      </trkpt>
      <trkpt lat="44.34121" lon="9.35005">
        <ele>11.19</ele>
        <time>2016-10-07T17:12:15Z</time>
      </trkpt>
      <trkpt lat="44.34117" lon="9.35013">
        <ele>10.23</ele>
        <time>2016-10-07T17:12:16Z</time>
      </trkpt>
      <trkpt lat="44.34113" lon="9.35018">
        <ele>9.27</ele>
        <time>2016-10-07T17:12:17Z</time>
      </trkpt>
      <trkpt lat="44.34107" lon="9.35021">
        <ele>8.79</ele>
        <time>2016-10-07T17:12:18Z</time>
      </trkpt>
      <trkpt lat="44.341" lon="9.35021">
        <ele>8.79</ele>
        <time>2016-10-07T17:12:19Z</time>
      </trkpt>
      <trkpt lat="44.34092" lon="9.35018">
        <ele>8.79</ele>
        <time>2016-10-07T17:12:20Z</time>
      </trkpt>
      <trkpt lat="44.34085" lon="9.35014">
        <ele>8.31</ele>
        <time>2016-10-07T17:12:21Z</time>
      </trkpt>
      <trkpt lat="44.34071" lon="9.35006">
        <ele>7.35</ele>
        <time>2016-10-07T17:12:23Z</time>
      </trkpt>
      <trkpt lat="44.34043" lon="9.34986">
        <ele>6.39</ele>
        <time>2016-10-07T17:12:27Z</time>
      </trkpt>
      <trkpt lat="44.34037" lon="9.34979">
        <ele>6.39</ele>
        <time>2016-10-07T17:12:28Z</time>
      </trkpt>
      <trkpt lat="44.3398" lon="9.34913">
        <ele>5.42</ele>
        <time>2016-10-07T17:12:38Z</time>
      </trkpt>
      <trkpt lat="44.33973" lon="9.34909">
        <ele>5.91</ele>
        <time>2016-10-07T17:12:39Z</time>
      </trkpt>
      <trkpt lat="44.33866" lon="9.3488">
        <ele>5.91</ele>
        <time>2016-10-07T17:12:54Z</time>
      </trkpt>
      <trkpt lat="44.33839" lon="9.34871">
        <ele>5.91</ele>
        <time>2016-10-07T17:12:58Z</time>
      </trkpt>
      <trkpt lat="44.33832" lon="9.34868">
        <ele>5.42</ele>
        <time>2016-10-07T17:12:59Z</time>
      </trkpt>
      <trkpt lat="44.33826" lon="9.34865">
        <ele>5.91</ele>
        <time>2016-10-07T17:13:00Z</time>
      </trkpt>
      <trkpt lat="44.33819" lon="9.34863">
        <ele>5.91</ele>
        <time>2016-10-07T17:13:01Z</time>
      </trkpt>
      <trkpt lat="44.33812" lon="9.34863">
        <ele>6.39</ele>
        <time>2016-10-07T17:13:02Z</time>
      </trkpt>
      <trkpt lat="44.33785" lon="9.3486">
        <ele>5.42</ele>
        <time>2016-10-07T17:13:06Z</time>
      </trkpt>
      <trkpt lat="44.337" lon="9.34834">
        <ele>4.94</ele>
        <time>2016-10-07T17:13:20Z</time>
      </trkpt>
      <trkpt lat="44.33654" lon="9.34803">
        <ele>4.94</ele>
        <time>2016-10-07T17:13:28Z</time>
      </trkpt>
      <trkpt lat="44.33577" lon="9.34751">
        <ele>5.42</ele>
        <time>2016-10-07T17:13:41Z</time>
      </trkpt>
      <trkpt lat="44.33561" lon="9.34735">
        <ele>4.46</ele>
        <time>2016-10-07T17:13:44Z</time>
      </trkpt>
      <trkpt lat="44.33556" lon="9.34728">
        <ele>4.94</ele>
        <time>2016-10-07T17:13:45Z</time>
      </trkpt>
      <trkpt lat="44.33517" lon="9.3466">
        <ele>5.42</ele>
        <time>2016-10-07T17:13:55Z</time>
      </trkpt>
      <trkpt lat="44.33508" lon="9.34649">
        <ele>5.91</ele>
        <time>2016-10-07T17:13:57Z</time>
      </trkpt>
      <trkpt lat="44.33498" lon="9.34638">
        <ele>5.42</ele>
        <time>2016-10-07T17:13:59Z</time>
      </trkpt>
      <trkpt lat="44.33492" lon="9.34634">
        <ele>6.39</ele>
        <time>2016-10-07T17:14:00Z</time>
      </trkpt>
      <trkpt lat="44.33452" lon="9.3461">
        <ele>5.91</ele>
        <time>2016-10-07T17:14:07Z</time>
      </trkpt>
      <trkpt lat="44.33446" lon="9.34607">
        <ele>5.42</ele>
        <time>2016-10-07T17:14:08Z</time>
      </trkpt>
      <trkpt lat="44.33405" lon="9.34583">
        <ele>5.91</ele>
        <time>2016-10-07T17:14:15Z</time>
      </trkpt>
      <trkpt lat="44.33394" lon="9.34575">
        <ele>4.94</ele>
        <time>2016-10-07T17:14:17Z</time>
      </trkpt>
      <trkpt lat="44.33377" lon="9.34566">
        <ele>5.42</ele>
        <time>2016-10-07T17:14:20Z</time>
      </trkpt>
      <trkpt lat="44.33372" lon="9.34564">
        <ele>5.42</ele>
        <time>2016-10-07T17:14:21Z</time>
      </trkpt>
      <trkpt lat="44.33367" lon="9.34563">
        <ele>4.46</ele>
        <time>2016-10-07T17:14:22Z</time>
      </trkpt>
      <trkpt lat="44.33362" lon="9.3456">
        <ele>4.94</ele>
        <time>2016-10-07T17:14:23Z</time>
      </trkpt>
      <trkpt lat="44.33357" lon="9.34558">
        <ele>5.42</ele>
        <time>2016-10-07T17:14:24Z</time>
      </trkpt>
      <trkpt lat="44.33337" lon="9.34551">
        <ele>6.39</ele>
        <time>2016-10-07T17:14:28Z</time>
      </trkpt>
      <trkpt lat="44.33331" lon="9.3455">
        <ele>5.42</ele>
        <time>2016-10-07T17:14:29Z</time>
      </trkpt>
      <trkpt lat="44.3332" lon="9.34549">
        <ele>5.42</ele>
        <time>2016-10-07T17:14:31Z</time>
      </trkpt>
      <trkpt lat="44.33314" lon="9.3455">
        <ele>5.91</ele>
        <time>2016-10-07T17:14:32Z</time>
      </trkpt>
      <trkpt lat="44.33244" lon="9.34557">
        <ele>4.94</ele>
        <time>2016-10-07T17:14:43Z</time>
      </trkpt>
      <trkpt lat="44.3317" lon="9.34542">
        <ele>4.94</ele>
        <time>2016-10-07T17:14:54Z</time>
      </trkpt>
      <trkpt lat="44.33157" lon="9.3454">
        <ele>4.94</ele>
        <time>2016-10-07T17:14:56Z</time>
      </trkpt>
      <trkpt lat="44.33081" lon="9.34537">
        <ele>4.94</ele>
        <time>2016-10-07T17:15:08Z</time>
      </trkpt>
      <trkpt lat="44.33075" lon="9.34537">
        <ele>4.94</ele>
        <time>2016-10-07T17:15:09Z</time>
      </trkpt>
      <trkpt lat="44.33068" lon="9.34537">
        <ele>3.98</ele>
        <time>2016-10-07T17:15:10Z</time>
      </trkpt>
      <trkpt lat="44.33062" lon="9.34538">
        <ele>3.98</ele>
        <time>2016-10-07T17:15:11Z</time>
      </trkpt>
      <trkpt lat="44.33055" lon="9.3454">
        <ele>4.94</ele>
        <time>2016-10-07T17:15:12Z</time>
      </trkpt>
      <trkpt lat="44.33016" lon="9.34546">
        <ele>4.94</ele>
        <time>2016-10-07T17:15:18Z</time>
      </trkpt>
      <trkpt lat="44.33009" lon="9.34544">
        <ele>4.46</ele>
        <time>2016-10-07T17:15:19Z</time>
      </trkpt>
      <trkpt lat="44.33002" lon="9.34542">
        <ele>4.46</ele>
        <time>2016-10-07T17:15:20Z</time>
      </trkpt>
      <trkpt lat="44.32995" lon="9.3454">
        <ele>4.46</ele>
        <time>2016-10-07T17:15:21Z</time>
      </trkpt>
      <trkpt lat="44.32989" lon="9.34539">
        <ele>3.98</ele>
        <time>2016-10-07T17:15:22Z</time>
      </trkpt>
      <trkpt lat="44.32969" lon="9.34536">
        <ele>4.46</ele>
        <time>2016-10-07T17:15:25Z</time>
      </trkpt>
      <trkpt lat="44.32946" lon="9.34539">
        <ele>4.46</ele>
        <time>2016-10-07T17:15:29Z</time>
      </trkpt>
      <trkpt lat="44.32941" lon="9.34541">
        <ele>4.46</ele>
        <time>2016-10-07T17:15:30Z</time>
      </trkpt>
      <trkpt lat="44.32936" lon="9.34543">
        <ele>4.46</ele>
        <time>2016-10-07T17:15:31Z</time>
      </trkpt>
      <trkpt lat="44.3293" lon="9.34544">
        <ele>4.46</ele>
        <time>2016-10-07T17:15:32Z</time>
      </trkpt>
      <trkpt lat="44.32926" lon="9.34546">
        <ele>4.46</ele>
        <time>2016-10-07T17:15:33Z</time>
      </trkpt>
      <trkpt lat="44.32903" lon="9.34557">
        <ele>4.46</ele>
        <time>2016-10-07T17:15:37Z</time>
      </trkpt>
      <trkpt lat="44.32898" lon="9.34561">
        <ele>4.46</ele>
        <time>2016-10-07T17:15:38Z</time>
      </trkpt>
      <trkpt lat="44.32859" lon="9.34586">
        <ele>4.46</ele>
        <time>2016-10-07T17:15:45Z</time>
      </trkpt>
      <trkpt lat="44.32853" lon="9.34586">
        <ele>4.94</ele>
        <time>2016-10-07T17:15:46Z</time>
      </trkpt>
      <trkpt lat="44.32772" lon="9.34578">
        <ele>3.98</ele>
        <time>2016-10-07T17:15:59Z</time>
      </trkpt>
      <trkpt lat="44.3276" lon="9.34579">
        <ele>3.98</ele>
        <time>2016-10-07T17:16:01Z</time>
      </trkpt>
      <trkpt lat="44.32747" lon="9.34579">
        <ele>3.98</ele>
        <time>2016-10-07T17:16:03Z</time>
      </trkpt>
      <trkpt lat="44.32734" lon="9.34577">
        <ele>3.98</ele>
        <time>2016-10-07T17:16:05Z</time>
      </trkpt>
      <trkpt lat="44.32727" lon="9.34576">
        <ele>3.5</ele>
        <time>2016-10-07T17:16:06Z</time>
      </trkpt>
      <trkpt lat="44.3272" lon="9.34574">
        <ele>3.5</ele>
        <time>2016-10-07T17:16:07Z</time>
      </trkpt>
      <trkpt lat="44.32714" lon="9.34572">
        <ele>3.98</ele>
        <time>2016-10-07T17:16:08Z</time>
      </trkpt>
      <trkpt lat="44.32707" lon="9.3457">
        <ele>3.5</ele>
        <time>2016-10-07T17:16:09Z</time>
      </trkpt>
      <trkpt lat="44.32622" lon="9.34535">
        <ele>4.46</ele>
        <time>2016-10-07T17:16:23Z</time>
      </trkpt>
      <trkpt lat="44.32527" lon="9.3449">
        <ele>4.46</ele>
        <time>2016-10-07T17:16:39Z</time>
      </trkpt>
      <trkpt lat="44.32442" lon="9.34459">
        <ele>3.98</ele>
        <time>2016-10-07T17:16:53Z</time>
      </trkpt>
      <trkpt lat="44.3242" lon="9.34449">
        <ele>4.46</ele>
        <time>2016-10-07T17:16:57Z</time>
      </trkpt>
      <trkpt lat="44.32372" lon="9.34434">
        <ele>4.46</ele>
        <time>2016-10-07T17:17:05Z</time>
      </trkpt>
      <trkpt lat="44.32361" lon="9.34432">
        <ele>3.98</ele>
        <time>2016-10-07T17:17:07Z</time>
      </trkpt>
      <trkpt lat="44.32293" lon="9.34386">
        <ele>3.98</ele>
        <time>2016-10-07T17:17:20Z</time>
      </trkpt>
      <trkpt lat="44.32271" lon="9.34373">
        <ele>3.98</ele>
        <time>2016-10-07T17:17:24Z</time>
      </trkpt>
      <trkpt lat="44.32266" lon="9.34369">
        <ele>3.98</ele>
        <time>2016-10-07T17:17:25Z</time>
      </trkpt>
      <trkpt lat="44.32261" lon="9.34364">
        <ele>3.98</ele>
        <time>2016-10-07T17:17:26Z</time>
      </trkpt>
      <trkpt lat="44.32256" lon="9.34359">
        <ele>3.98</ele>
        <time>2016-10-07T17:17:27Z</time>
      </trkpt>
      <trkpt lat="44.32252" lon="9.34354">
        <ele>4.46</ele>
        <time>2016-10-07T17:17:28Z</time>
      </trkpt>
      <trkpt lat="44.32248" lon="9.34349">
        <ele>3.98</ele>
        <time>2016-10-07T17:17:29Z</time>
      </trkpt>
      <trkpt lat="44.32243" lon="9.34344">
        <ele>3.98</ele>
        <time>2016-10-07T17:17:30Z</time>
      </trkpt>
      <trkpt lat="44.32238" lon="9.3434">
        <ele>4.46</ele>
        <time>2016-10-07T17:17:31Z</time>
      </trkpt>
      <trkpt lat="44.32201" lon="9.34322">
        <ele>3.98</ele>
        <time>2016-10-07T17:17:37Z</time>
      </trkpt>
      <trkpt lat="44.32195" lon="9.34319">
        <ele>3.98</ele>
        <time>2016-10-07T17:17:38Z</time>
      </trkpt>
      <trkpt lat="44.3218" lon="9.34308">
        <ele>3.5</ele>
        <time>2016-10-07T17:17:41Z</time>
      </trkpt>
      <trkpt lat="44.32176" lon="9.34303">
        <ele>3.5</ele>
        <time>2016-10-07T17:17:42Z</time>
      </trkpt>
      <trkpt lat="44.32124" lon="9.34236">
        <ele>3.5</ele>
        <time>2016-10-07T17:17:55Z</time>
      </trkpt>
      <trkpt lat="44.32081" lon="9.34204">
        <ele>3.02</ele>
        <time>2016-10-07T17:18:03Z</time>
      </trkpt>
      <trkpt lat="44.32075" lon="9.342">
        <ele>3.02</ele>
        <time>2016-10-07T17:18:04Z</time>
      </trkpt>
      <trkpt lat="44.32007" lon="9.34137">
        <ele>2.06</ele>
        <time>2016-10-07T17:18:18Z</time>
      </trkpt>
      <trkpt lat="44.32" lon="9.3413">
        <ele>2.54</ele>
        <time>2016-10-07T17:18:20Z</time>
      </trkpt>
      <trkpt lat="44.31997" lon="9.34127">
        <ele>2.54</ele>
        <time>2016-10-07T17:18:21Z</time>
      </trkpt>
      <trkpt lat="44.31993" lon="9.34123">
        <ele>2.54</ele>
        <time>2016-10-07T17:18:22Z</time>
      </trkpt>
      <trkpt lat="44.3199" lon="9.3412">
        <ele>3.02</ele>
        <time>2016-10-07T17:18:23Z</time>
      </trkpt>
      <trkpt lat="44.31987" lon="9.34117">
        <ele>3.02</ele>
        <time>2016-10-07T17:18:24Z</time>
      </trkpt>
      <trkpt lat="44.31982" lon="9.34115">
        <ele>2.54</ele>
        <time>2016-10-07T17:18:25Z</time>
      </trkpt>
      <trkpt lat="44.31977" lon="9.34113">
        <ele>3.02</ele>
        <time>2016-10-07T17:18:26Z</time>
      </trkpt>
      <trkpt lat="44.31971" lon="9.34111">
        <ele>2.54</ele>
        <time>2016-10-07T17:18:27Z</time>
      </trkpt>
      <trkpt lat="44.31944" lon="9.34092">
        <ele>3.02</ele>
        <time>2016-10-07T17:18:33Z</time>
      </trkpt>
      <trkpt lat="44.31941" lon="9.34085">
        <ele>3.02</ele>
        <time>2016-10-07T17:18:34Z</time>
      </trkpt>
      <trkpt lat="44.31937" lon="9.34081">
        <ele>3.02</ele>
        <time>2016-10-07T17:18:35Z</time>
      </trkpt>
      <trkpt lat="44.31929" lon="9.34073">
        <ele>3.5</ele>
        <time>2016-10-07T17:18:37Z</time>
      </trkpt>
      <trkpt lat="44.31926" lon="9.34069">
        <ele>3.98</ele>
        <time>2016-10-07T17:18:38Z</time>
      </trkpt>
      <trkpt lat="44.31923" lon="9.34065">
        <ele>3.5</ele>
        <time>2016-10-07T17:18:39Z</time>
      </trkpt>
      <trkpt lat="44.3192" lon="9.34062">
        <ele>3.02</ele>
        <time>2016-10-07T17:18:40Z</time>
      </trkpt>
      <trkpt lat="44.31918" lon="9.3406">
        <ele>3.5</ele>
        <time>2016-10-07T17:18:41Z</time>
      </trkpt>
      <trkpt lat="44.31915" lon="9.34058">
        <ele>3.02</ele>
        <time>2016-10-07T17:18:42Z</time>
      </trkpt>
      <trkpt lat="44.3187" lon="9.34044">
        <ele>2.06</ele>
        <time>2016-10-07T17:18:52Z</time>
      </trkpt>
      <trkpt lat="44.3186" lon="9.34042">
        <ele>2.06</ele>
        <time>2016-10-07T17:18:55Z</time>
      </trkpt>
      <trkpt lat="44.31857" lon="9.34042">
        <ele>2.06</ele>
        <time>2016-10-07T17:18:56Z</time>
      </trkpt>
      <trkpt lat="44.31854" lon="9.34041">
        <ele>2.54</ele>
        <time>2016-10-07T17:18:57Z</time>
      </trkpt>
      <trkpt lat="44.31852" lon="9.34039">
        <ele>2.54</ele>
        <time>2016-10-07T17:18:58Z</time>
      </trkpt>
      <trkpt lat="44.3185" lon="9.34036">
        <ele>2.54</ele>
        <time>2016-10-07T17:18:59Z</time>
      </trkpt>
      <trkpt lat="44.31848" lon="9.34033">
        <ele>1.58</ele>
        <time>2016-10-07T17:19:00Z</time>
      </trkpt>
      <trkpt lat="44.31847" lon="9.3403">
        <ele>2.06</ele>
        <time>2016-10-07T17:19:01Z</time>
      </trkpt>
      <trkpt lat="44.31844" lon="9.34026">
        <ele>1.58</ele>
        <time>2016-10-07T17:19:02Z</time>
      </trkpt>
      <trkpt lat="44.31823" lon="9.33983">
        <ele>1.58</ele>
        <time>2016-10-07T17:19:13Z</time>
      </trkpt>
      <trkpt lat="44.31796" lon="9.33931">
        <ele>2.06</ele>
        <time>2016-10-07T17:19:22Z</time>
      </trkpt>
      <trkpt lat="44.31777" lon="9.3387">
        <ele>2.54</ele>
        <time>2016-10-07T17:19:32Z</time>
      </trkpt>
      <trkpt lat="44.31775" lon="9.3385">
        <ele>2.06</ele>
        <time>2016-10-07T17:19:35Z</time>
      </trkpt>
      <trkpt lat="44.3177" lon="9.33802">
        <ele>1.58</ele>
        <time>2016-10-07T17:19:47Z</time>
      </trkpt>
      <trkpt lat="44.31768" lon="9.33797">
        <ele>3.5</ele>
        <time>2016-10-07T17:20:01Z</time>
      </trkpt>
      <trkpt lat="44.31768" lon="9.3379">
        <ele>2.54</ele>
        <time>2016-10-07T17:20:20Z</time>
      </trkpt>
      <trkpt lat="44.31766" lon="9.33786">
        <ele>2.54</ele>
        <time>2016-10-07T17:20:45Z</time>
      </trkpt>
      <trkpt lat="44.31771" lon="9.33787">
        <ele>2.54</ele>
        <time>2016-10-07T17:21:01Z</time>
      </trkpt>
      <trkpt lat="44.31774" lon="9.33792">
        <ele>3.98</ele>
        <time>2016-10-07T17:21:29Z</time>
      </trkpt>
      <trkpt lat="44.31776" lon="9.33784">
        <ele>3.02</ele>
        <time>2016-10-07T17:21:51Z</time>
      </trkpt>
      <trkpt lat="44.31772" lon="9.33771">
        <ele>3.5</ele>
        <time>2016-10-07T17:21:55Z</time>
      </trkpt>
      <trkpt lat="44.31769" lon="9.33769">
        <ele>2.54</ele>
        <time>2016-10-07T17:21:56Z</time>
      </trkpt>
      <trkpt lat="44.31751" lon="9.3372">
        <ele>3.02</ele>
        <time>2016-10-07T17:22:06Z</time>
      </trkpt>
      <trkpt lat="44.31744" lon="9.33698">
        <ele>2.54</ele>
        <time>2016-10-07T17:22:10Z</time>
      </trkpt>
      <trkpt lat="44.3172" lon="9.33613">
        <ele>2.54</ele>
        <time>2016-10-07T17:22:24Z</time>
      </trkpt>
      <trkpt lat="44.31709" lon="9.33581">
        <ele>2.06</ele>
        <time>2016-10-07T17:22:29Z</time>
      </trkpt>
      <trkpt lat="44.31704" lon="9.3357">
        <ele>2.54</ele>
        <time>2016-10-07T17:22:31Z</time>
      </trkpt>
      <trkpt lat="44.31655" lon="9.3349">
        <ele>2.54</ele>
        <time>2016-10-07T17:22:46Z</time>
      </trkpt>
      <trkpt lat="44.31617" lon="9.33438">
        <ele>2.06</ele>
        <time>2016-10-07T17:22:57Z</time>
      </trkpt>
      <trkpt lat="44.31614" lon="9.33433">
        <ele>2.06</ele>
        <time>2016-10-07T17:22:58Z</time>
      </trkpt>
      <trkpt lat="44.3155" lon="9.33366">
        <ele>1.58</ele>
        <time>2016-10-07T17:23:13Z</time>
      </trkpt>
      <trkpt lat="44.3155" lon="9.33357">
        <ele>2.06</ele>
        <time>2016-10-07T17:23:14Z</time>
      </trkpt>
      <trkpt lat="44.31549" lon="9.33352">
        <ele>2.06</ele>
        <time>2016-10-07T17:23:15Z</time>
      </trkpt>
      <trkpt lat="44.3155" lon="9.33346">
        <ele>2.06</ele>
        <time>2016-10-07T17:23:16Z</time>
      </trkpt>
      <trkpt lat="44.31551" lon="9.33343">
        <ele>2.06</ele>
        <time>2016-10-07T17:23:17Z</time>
      </trkpt>
      <trkpt lat="44.31555" lon="9.33293">
        <ele>3.02</ele>
        <time>2016-10-07T17:23:29Z</time>
      </trkpt>
      <trkpt lat="44.31553" lon="9.33285">
        <ele>2.54</ele>
        <time>2016-10-07T17:23:31Z</time>
      </trkpt>
      <trkpt lat="44.31553" lon="9.33281">
        <ele>2.54</ele>
        <time>2016-10-07T17:23:32Z</time>
      </trkpt>
      <trkpt lat="44.31527" lon="9.33253">
        <ele>2.06</ele>
        <time>2016-10-07T17:23:42Z</time>
      </trkpt>
      <trkpt lat="44.31509" lon="9.33242">
        <ele>2.54</ele>
        <time>2016-10-07T17:23:48Z</time>
      </trkpt>
      <trkpt lat="44.31509" lon="9.33239">
        <ele>2.54</ele>
        <time>2016-10-07T17:23:49Z</time>
      </trkpt>
      <trkpt lat="44.31506" lon="9.33237">
        <ele>2.06</ele>
        <time>2016-10-07T17:23:50Z</time>
      </trkpt>
      <trkpt lat="44.31504" lon="9.33236">
        <ele>2.54</ele>
        <time>2016-10-07T17:23:51Z</time>
      </trkpt>
      <trkpt lat="44.31496" lon="9.33233">
        <ele>2.06</ele>
        <time>2016-10-07T17:23:52Z</time>
      </trkpt>
      <trkpt lat="44.31479" lon="9.33218">
        <ele>2.54</ele>
        <time>2016-10-07T17:23:57Z</time>
      </trkpt>
      <trkpt lat="44.31478" lon="9.33216">
        <ele>2.54</ele>
        <time>2016-10-07T17:23:58Z</time>
      </trkpt>
      <trkpt lat="44.31477" lon="9.33213">
        <ele>2.54</ele>
        <time>2016-10-07T17:23:59Z</time>
      </trkpt>
      <trkpt lat="44.31477" lon="9.33211">
        <ele>2.54</ele>
        <time>2016-10-07T17:24:00Z</time>
      </trkpt>
      <trkpt lat="44.31476" lon="9.33208">
        <ele>2.06</ele>
        <time>2016-10-07T17:24:01Z</time>
      </trkpt>
      <trkpt lat="44.31478" lon="9.332">
        <ele>2.06</ele>
        <time>2016-10-07T17:24:05Z</time>
      </trkpt>
      <trkpt lat="44.31475" lon="9.33196">
        <ele>2.06</ele>
        <time>2016-10-07T17:24:10Z</time>
      </trkpt>
      <trkpt lat="44.31472" lon="9.33189">
        <ele>2.06</ele>
        <time>2016-10-07T17:24:16Z</time>
      </trkpt>
      <trkpt lat="44.31472" lon="9.33186">
        <ele>2.06</ele>
        <time>2016-10-07T17:24:17Z</time>
      </trkpt>
      <trkpt lat="44.31472" lon="9.33183">
        <ele>2.54</ele>
        <time>2016-10-07T17:24:18Z</time>
      </trkpt>
      <trkpt lat="44.31472" lon="9.3318">
        <ele>2.54</ele>
        <time>2016-10-07T17:24:19Z</time>
      </trkpt>
      <trkpt lat="44.31472" lon="9.33176">
        <ele>2.54</ele>
        <time>2016-10-07T17:24:20Z</time>
      </trkpt>
      <trkpt lat="44.31472" lon="9.33173">
        <ele>2.54</ele>
        <time>2016-10-07T17:24:21Z</time>
      </trkpt>
      <trkpt lat="44.31472" lon="9.33169">
        <ele>2.54</ele>
        <time>2016-10-07T17:24:22Z</time>
      </trkpt>
      <trkpt lat="44.31473" lon="9.33165">
        <ele>3.02</ele>
        <time>2016-10-07T17:24:23Z</time>
      </trkpt>
      <trkpt lat="44.31488" lon="9.33126">
        <ele>3.02</ele>
        <time>2016-10-07T17:24:31Z</time>
      </trkpt>
      <trkpt lat="44.31508" lon="9.33083">
        <ele>3.02</ele>
        <time>2016-10-07T17:24:39Z</time>
      </trkpt>
      <trkpt lat="44.3151" lon="9.33077">
        <ele>3.02</ele>
        <time>2016-10-07T17:24:40Z</time>
      </trkpt>
      <trkpt lat="44.31511" lon="9.33072">
        <ele>2.06</ele>
        <time>2016-10-07T17:24:41Z</time>
      </trkpt>
      <trkpt lat="44.31518" lon="9.33048">
        <ele>2.54</ele>
        <time>2016-10-07T17:24:45Z</time>
      </trkpt>
      <trkpt lat="44.31523" lon="9.33036">
        <ele>1.58</ele>
        <time>2016-10-07T17:24:47Z</time>
      </trkpt>
      <trkpt lat="44.31526" lon="9.33025">
        <ele>2.54</ele>
        <time>2016-10-07T17:24:49Z</time>
      </trkpt>
      <trkpt lat="44.31529" lon="9.3302">
        <ele>2.06</ele>
        <time>2016-10-07T17:24:50Z</time>
      </trkpt>
      <trkpt lat="44.31552" lon="9.32983">
        <ele>1.58</ele>
        <time>2016-10-07T17:25:00Z</time>
      </trkpt>
      <trkpt lat="44.31553" lon="9.3298">
        <ele>2.06</ele>
        <time>2016-10-07T17:25:01Z</time>
      </trkpt>
      <trkpt lat="44.31553" lon="9.32977">
        <ele>1.58</ele>
        <time>2016-10-07T17:25:02Z</time>
      </trkpt>
      <trkpt lat="44.31554" lon="9.32975">
        <ele>2.06</ele>
        <time>2016-10-07T17:25:03Z</time>
      </trkpt>
      <trkpt lat="44.31554" lon="9.32972">
        <ele>2.06</ele>
        <time>2016-10-07T17:25:04Z</time>
      </trkpt>
      <trkpt lat="44.31555" lon="9.32969">
        <ele>1.58</ele>
        <time>2016-10-07T17:25:05Z</time>
      </trkpt>
      <trkpt lat="44.31555" lon="9.32965">
        <ele>1.58</ele>
        <time>2016-10-07T17:25:06Z</time>
      </trkpt>
      <trkpt lat="44.31567" lon="9.32931">
        <ele>1.58</ele>
        <time>2016-10-07T17:25:17Z</time>
      </trkpt>
      <trkpt lat="44.31577" lon="9.3291">
        <ele>0.62</ele>
        <time>2016-10-07T17:25:28Z</time>
      </trkpt>
      <trkpt lat="44.3158" lon="9.32903">
        <ele>1.1</ele>
        <time>2016-10-07T17:25:33Z</time>
      </trkpt>
      <trkpt lat="44.31582" lon="9.32904">
        <ele>1.1</ele>
        <time>2016-10-07T17:25:34Z</time>
      </trkpt>
      <trkpt lat="44.31604" lon="9.32924">
        <ele>1.58</ele>
        <time>2016-10-07T17:25:47Z</time>
      </trkpt>
      <trkpt lat="44.31605" lon="9.32923">
        <ele>1.58</ele>
        <time>2016-10-07T17:25:48Z</time>
      </trkpt>
      <trkpt lat="44.31616" lon="9.32884">
        <ele>1.1</ele>
        <time>2016-10-07T17:26:00Z</time>
      </trkpt>
      <trkpt lat="44.31639" lon="9.32828">
        <ele>1.1</ele>
        <time>2016-10-07T17:26:13Z</time>
      </trkpt>
      <trkpt lat="44.31664" lon="9.32773">
        <ele>2.06</ele>
        <time>2016-10-07T17:26:27Z</time>
      </trkpt>
      <trkpt lat="44.31669" lon="9.32759">
        <ele>1.58</ele>
        <time>2016-10-07T17:26:31Z</time>
      </trkpt>
      <trkpt lat="44.31669" lon="9.32756">
        <ele>1.1</ele>
        <time>2016-10-07T17:26:32Z</time>
      </trkpt>
      <trkpt lat="44.3167" lon="9.32752">
        <ele>1.58</ele>
        <time>2016-10-07T17:26:33Z</time>
      </trkpt>
      <trkpt lat="44.31671" lon="9.32748">
        <ele>1.58</ele>
        <time>2016-10-07T17:26:34Z</time>
      </trkpt>
      <trkpt lat="44.31672" lon="9.32745">
        <ele>1.1</ele>
        <time>2016-10-07T17:26:35Z</time>
      </trkpt>
      <trkpt lat="44.31674" lon="9.32741">
        <ele>1.58</ele>
        <time>2016-10-07T17:26:36Z</time>
      </trkpt>
      <trkpt lat="44.31673" lon="9.32739">
        <ele>2.06</ele>
        <time>2016-10-07T17:26:37Z</time>
      </trkpt>
      <trkpt lat="44.31671" lon="9.32737">
        <ele>1.58</ele>
        <time>2016-10-07T17:26:38Z</time>
      </trkpt>
      <trkpt lat="44.31669" lon="9.32735">
        <ele>2.06</ele>
        <time>2016-10-07T17:26:39Z</time>
      </trkpt>
      <trkpt lat="44.31668" lon="9.32734">
        <ele>2.06</ele>
        <time>2016-10-07T17:26:40Z</time>
      </trkpt>
      <trkpt lat="44.31666" lon="9.32732">
        <ele>1.1</ele>
        <time>2016-10-07T17:26:41Z</time>
      </trkpt>
      <trkpt lat="44.31664" lon="9.3273">
        <ele>1.58</ele>
        <time>2016-10-07T17:26:42Z</time>
      </trkpt>
      <trkpt lat="44.31649" lon="9.32715">
        <ele>2.06</ele>
        <time>2016-10-07T17:26:51Z</time>
      </trkpt>
      <trkpt lat="44.31648" lon="9.3271">
        <ele>1.58</ele>
        <time>2016-10-07T17:26:55Z</time>
      </trkpt>
      <trkpt lat="44.31645" lon="9.32705">
        <ele>1.58</ele>
        <time>2016-10-07T17:27:10Z</time>
      </trkpt>
      <trkpt lat="44.31643" lon="9.32699">
        <ele>1.58</ele>
        <time>2016-10-07T17:27:28Z</time>
      </trkpt>
      <trkpt lat="44.31639" lon="9.327">
        <ele>1.1</ele>
        <time>2016-10-07T17:27:52Z</time>
      </trkpt>
      <trkpt lat="44.31638" lon="9.32705">
        <ele>1.1</ele>
        <time>2016-10-07T17:28:16Z</time>
      </trkpt>
      <trkpt lat="44.31635" lon="9.32714">
        <ele>1.58</ele>
        <time>2016-10-07T17:28:48Z</time>
      </trkpt>
      <trkpt lat="44.31636" lon="9.32719">
        <ele>1.58</ele>
        <time>2016-10-07T17:29:20Z</time>
      </trkpt>
      <trkpt lat="44.31634" lon="9.32723">
        <ele>2.06</ele>
        <time>2016-10-07T17:29:57Z</time>
      </trkpt>
      <trkpt lat="44.31632" lon="9.32721">
        <ele>2.54</ele>
        <time>2016-10-07T17:30:30Z</time>
      </trkpt>
      <trkpt lat="44.31625" lon="9.3273">
        <ele>2.54</ele>
        <time>2016-10-07T17:30:55Z</time>
      </trkpt>
      <trkpt lat="44.31625" lon="9.32737">
        <ele>3.02</ele>
        <time>2016-10-07T17:31:21Z</time>
      </trkpt>
      <trkpt lat="44.31625" lon="9.32735">
        <ele>3.98</ele>
        <time>2016-10-07T17:31:42Z</time>
      </trkpt>
      <trkpt lat="44.31622" lon="9.32731">
        <ele>4.46</ele>
        <time>2016-10-07T17:32:09Z</time>
      </trkpt>
      <trkpt lat="44.31618" lon="9.32735">
        <ele>5.42</ele>
        <time>2016-10-07T17:32:36Z</time>
      </trkpt>
      <trkpt lat="44.31624" lon="9.32737">
        <ele>5.42</ele>
        <time>2016-10-07T17:33:09Z</time>
      </trkpt>
      <trkpt lat="44.31626" lon="9.32738">
        <ele>9.27</ele>
        <time>2016-10-07T17:33:23Z</time>
      </trkpt>
      <trkpt lat="44.31626" lon="9.32738">
        <ele>5.91</ele>
        <time>2016-10-07T17:33:24Z</time>
      </trkpt>
      <trkpt lat="44.31624" lon="9.32749">
        <ele>6.87</ele>
        <time>2016-10-07T17:33:51Z</time>
      </trkpt>
      <trkpt lat="44.31623" lon="9.32742">
        <ele>7.83</ele>
        <time>2016-10-07T17:34:18Z</time>
      </trkpt>
      <trkpt lat="44.31624" lon="9.3274">
        <ele>7.35</ele>
        <time>2016-10-07T17:34:32Z</time>
      </trkpt>
      <trkpt lat="44.31622" lon="9.32739">
        <ele>7.35</ele>
        <time>2016-10-07T17:34:41Z</time>
      </trkpt>
      <trkpt lat="44.3162" lon="9.32738">
        <ele>7.35</ele>
        <time>2016-10-07T17:34:42Z</time>
      </trkpt>
      <trkpt lat="44.31618" lon="9.32736">
        <ele>7.83</ele>
        <time>2016-10-07T17:34:44Z</time>
      </trkpt>
      <trkpt lat="44.31617" lon="9.32736">
        <ele>7.83</ele>
        <time>2016-10-07T17:34:45Z</time>
      </trkpt>
      <trkpt lat="44.31602" lon="9.3273">
        <ele>8.31</ele>
        <time>2016-10-07T17:34:57Z</time>
      </trkpt>
      <trkpt lat="44.31592" lon="9.32716">
        <ele>8.79</ele>
        <time>2016-10-07T17:35:05Z</time>
      </trkpt>
      <trkpt lat="44.3156" lon="9.32684">
        <ele>8.31</ele>
        <time>2016-10-07T17:35:17Z</time>
      </trkpt>
      <trkpt lat="44.31531" lon="9.32662">
        <ele>8.79</ele>
        <time>2016-10-07T17:35:27Z</time>
      </trkpt>
      <trkpt lat="44.31491" lon="9.32631">
        <ele>9.27</ele>
        <time>2016-10-07T17:35:41Z</time>
      </trkpt>
      <trkpt lat="44.31459" lon="9.32605">
        <ele>9.27</ele>
        <time>2016-10-07T17:35:50Z</time>
      </trkpt>
      <trkpt lat="44.31422" lon="9.32589">
        <ele>10.23</ele>
        <time>2016-10-07T17:36:01Z</time>
      </trkpt>
      <trkpt lat="44.31419" lon="9.32587">
        <ele>10.23</ele>
        <time>2016-10-07T17:36:02Z</time>
      </trkpt>
      <trkpt lat="44.31418" lon="9.32588">
        <ele>9.75</ele>
        <time>2016-10-07T17:36:03Z</time>
      </trkpt>
      <trkpt lat="44.31417" lon="9.3258">
        <ele>10.23</ele>
        <time>2016-10-07T17:36:11Z</time>
      </trkpt>
      <trkpt lat="44.31417" lon="9.32581">
        <ele>9.75</ele>
        <time>2016-10-07T17:36:12Z</time>
      </trkpt>
      <trkpt lat="44.31413" lon="9.32583">
        <ele>10.23</ele>
        <time>2016-10-07T17:36:13Z</time>
      </trkpt>
      <trkpt lat="44.3141" lon="9.32586">
        <ele>9.75</ele>
        <time>2016-10-07T17:36:14Z</time>
      </trkpt>
      <trkpt lat="44.31407" lon="9.32588">
        <ele>9.75</ele>
        <time>2016-10-07T17:36:15Z</time>
      </trkpt>
      <trkpt lat="44.31405" lon="9.32592">
        <ele>10.23</ele>
        <time>2016-10-07T17:36:16Z</time>
      </trkpt>
      <trkpt lat="44.31402" lon="9.32595">
        <ele>10.23</ele>
        <time>2016-10-07T17:36:17Z</time>
      </trkpt>
      <trkpt lat="44.31379" lon="9.32627">
        <ele>9.75</ele>
        <time>2016-10-07T17:36:29Z</time>
      </trkpt>
      <trkpt lat="44.31371" lon="9.32649">
        <ele>10.71</ele>
        <time>2016-10-07T17:36:40Z</time>
      </trkpt>
      <trkpt lat="44.31367" lon="9.32657">
        <ele>10.23</ele>
        <time>2016-10-07T17:36:43Z</time>
      </trkpt>
      <trkpt lat="44.31366" lon="9.32659">
        <ele>10.23</ele>
        <time>2016-10-07T17:36:44Z</time>
      </trkpt>
      <trkpt lat="44.31364" lon="9.32662">
        <ele>9.27</ele>
        <time>2016-10-07T17:36:45Z</time>
      </trkpt>
      <trkpt lat="44.31363" lon="9.32665">
        <ele>10.71</ele>
        <time>2016-10-07T17:36:46Z</time>
      </trkpt>
      <trkpt lat="44.31361" lon="9.32668">
        <ele>9.75</ele>
        <time>2016-10-07T17:36:47Z</time>
      </trkpt>
      <trkpt lat="44.31336" lon="9.32701">
        <ele>10.23</ele>
        <time>2016-10-07T17:36:59Z</time>
      </trkpt>
      <trkpt lat="44.31331" lon="9.3271">
        <ele>10.71</ele>
        <time>2016-10-07T17:37:12Z</time>
      </trkpt>
      <trkpt lat="44.31331" lon="9.32741">
        <ele>10.23</ele>
        <time>2016-10-07T17:37:37Z</time>
      </trkpt>
      <trkpt lat="44.31341" lon="9.32757">
        <ele>10.71</ele>
        <time>2016-10-07T17:37:56Z</time>
      </trkpt>
      <trkpt lat="44.31341" lon="9.32756">
        <ele>10.23</ele>
        <time>2016-10-07T17:38:02Z</time>
      </trkpt>
      <trkpt lat="44.31333" lon="9.32759">
        <ele>14.56</ele>
        <time>2016-10-07T17:49:39Z</time>
      </trkpt>
      <trkpt lat="44.31336" lon="9.32759">
        <ele>15.04</ele>
        <time>2016-10-07T17:49:56Z</time>
      </trkpt>
      <trkpt lat="44.31331" lon="9.3277">
        <ele>7.83</ele>
        <time>2016-10-07T20:26:37Z</time>
      </trkpt>
      <trkpt lat="44.31334" lon="9.32771">
        <ele>7.83</ele>
        <time>2016-10-07T20:26:44Z</time>
      </trkpt>
      <trkpt lat="44.31344" lon="9.32738">
        <ele>13.12</ele>
        <time>2016-10-08T07:36:51Z</time>
      </trkpt>
      <trkpt lat="44.31344" lon="9.32735">
        <ele>9.75</ele>
        <time>2016-10-08T07:37:24Z</time>
      </trkpt>
      <trkpt lat="44.31342" lon="9.32734">
        <ele>4.94</ele>
        <time>2016-10-08T07:37:32Z</time>
      </trkpt>
      <trkpt lat="44.31342" lon="9.32733">
        <ele>1.58</ele>
        <time>2016-10-08T07:38:02Z</time>
      </trkpt>
      <trkpt lat="44.31345" lon="9.32745">
        <ele>5</ele>
        <time>2016-10-08T07:38:27Z</time>
      </trkpt>
      <trkpt lat="44.31345" lon="9.32747">
        <ele>0.62</ele>
        <time>2016-10-08T07:38:29Z</time>
      </trkpt>
      <trkpt lat="44.31346" lon="9.32746">
        <ele>1.1</ele>
        <time>2016-10-08T07:38:49Z</time>
      </trkpt>
      <trkpt lat="44.31346" lon="9.32753">
        <ele>0.62</ele>
        <time>2016-10-08T07:38:53Z</time>
      </trkpt>
      <trkpt lat="44.31372" lon="9.32778">
        <ele>1.1</ele>
        <time>2016-10-08T07:39:06Z</time>
      </trkpt>
      <trkpt lat="44.31409" lon="9.32805">
        <ele>0.62</ele>
        <time>2016-10-08T07:39:18Z</time>
      </trkpt>
      <trkpt lat="44.31425" lon="9.32816">
        <ele>0.14</ele>
        <time>2016-10-08T07:39:25Z</time>
      </trkpt>
      <trkpt lat="44.31427" lon="9.32817">
        <ele>0.14</ele>
        <time>2016-10-08T07:39:26Z</time>
      </trkpt>
      <trkpt lat="44.31439" lon="9.3283">
        <ele>0.62</ele>
        <time>2016-10-08T07:39:39Z</time>
      </trkpt>
      <trkpt lat="44.31442" lon="9.3283">
        <ele>0.62</ele>
        <time>2016-10-08T07:39:45Z</time>
      </trkpt>
      <trkpt lat="44.31443" lon="9.32828">
        <ele>0.62</ele>
        <time>2016-10-08T07:39:46Z</time>
      </trkpt>
      <trkpt lat="44.31443" lon="9.32826">
        <ele>0.62</ele>
        <time>2016-10-08T07:39:47Z</time>
      </trkpt>
      <trkpt lat="44.31444" lon="9.32816">
        <ele>0.62</ele>
        <time>2016-10-08T07:39:55Z</time>
      </trkpt>
      <trkpt lat="44.31445" lon="9.32814">
        <ele>0.62</ele>
        <time>2016-10-08T07:39:56Z</time>
      </trkpt>
      <trkpt lat="44.31446" lon="9.32813">
        <ele>0.62</ele>
        <time>2016-10-08T07:39:57Z</time>
      </trkpt>
      <trkpt lat="44.31449" lon="9.32814">
        <ele>0.62</ele>
        <time>2016-10-08T07:40:00Z</time>
      </trkpt>
      <trkpt lat="44.31451" lon="9.32818">
        <ele>1.1</ele>
        <time>2016-10-08T07:40:01Z</time>
      </trkpt>
      <trkpt lat="44.31454" lon="9.32821">
        <ele>0.62</ele>
        <time>2016-10-08T07:40:02Z</time>
      </trkpt>
      <trkpt lat="44.31457" lon="9.32825">
        <ele>0.62</ele>
        <time>2016-10-08T07:40:03Z</time>
      </trkpt>
      <trkpt lat="44.3146" lon="9.32829">
        <ele>0.62</ele>
        <time>2016-10-08T07:40:04Z</time>
      </trkpt>
      <trkpt lat="44.31529" lon="9.32875">
        <ele>0.14</ele>
        <time>2016-10-08T07:40:17Z</time>
      </trkpt>
      <trkpt lat="44.31532" lon="9.32874">
        <ele>0.62</ele>
        <time>2016-10-08T07:40:18Z</time>
      </trkpt>
      <trkpt lat="44.31535" lon="9.32873">
        <ele>0.62</ele>
        <time>2016-10-08T07:40:19Z</time>
      </trkpt>
      <trkpt lat="44.31547" lon="9.32866">
        <ele>0.62</ele>
        <time>2016-10-08T07:40:32Z</time>
      </trkpt>
      <trkpt lat="44.31553" lon="9.3287">
        <ele>0.14</ele>
        <time>2016-10-08T07:40:52Z</time>
      </trkpt>
      <trkpt lat="44.31564" lon="9.32892">
        <ele>0.14</ele>
        <time>2016-10-08T07:41:11Z</time>
      </trkpt>
      <trkpt lat="44.31571" lon="9.32892">
        <ele>0.14</ele>
        <time>2016-10-08T07:41:21Z</time>
      </trkpt>
      <trkpt lat="44.31581" lon="9.32885">
        <ele>0.62</ele>
        <time>2016-10-08T07:41:35Z</time>
      </trkpt>
      <trkpt lat="44.3158" lon="9.32879">
        <ele>0.62</ele>
        <time>2016-10-08T07:41:40Z</time>
      </trkpt>
      <trkpt lat="44.3158" lon="9.32878">
        <ele>0.62</ele>
        <time>2016-10-08T07:41:41Z</time>
      </trkpt>
      <trkpt lat="44.31579" lon="9.32877">
        <ele>0.62</ele>
        <time>2016-10-08T07:41:42Z</time>
      </trkpt>
      <trkpt lat="44.31586" lon="9.32863">
        <ele>0.62</ele>
        <time>2016-10-08T07:41:58Z</time>
      </trkpt>
      <trkpt lat="44.31601" lon="9.32841">
        <ele>1.1</ele>
        <time>2016-10-08T07:42:16Z</time>
      </trkpt>
      <trkpt lat="44.31607" lon="9.32816">
        <ele>1.1</ele>
        <time>2016-10-08T07:42:34Z</time>
      </trkpt>
      <trkpt lat="44.31618" lon="9.32797">
        <ele>1.58</ele>
        <time>2016-10-08T07:42:53Z</time>
      </trkpt>
      <trkpt lat="44.31626" lon="9.3277">
        <ele>2.06</ele>
        <time>2016-10-08T07:43:13Z</time>
      </trkpt>
      <trkpt lat="44.31637" lon="9.32753">
        <ele>2.06</ele>
        <time>2016-10-08T07:43:28Z</time>
      </trkpt>
      <trkpt lat="44.31648" lon="9.32745">
        <ele>1.58</ele>
        <time>2016-10-08T07:43:40Z</time>
      </trkpt>
      <trkpt lat="44.31626" lon="9.32718">
        <ele>2.54</ele>
        <time>2016-10-08T07:43:54Z</time>
      </trkpt>
      <trkpt lat="44.31621" lon="9.32696">
        <ele>2.54</ele>
        <time>2016-10-08T07:44:21Z</time>
      </trkpt>
      <trkpt lat="44.31622" lon="9.32707">
        <ele>2.54</ele>
        <time>2016-10-08T07:44:50Z</time>
      </trkpt>
      <trkpt lat="44.31625" lon="9.32711">
        <ele>2.54</ele>
        <time>2016-10-08T07:45:10Z</time>
      </trkpt>
      <trkpt lat="44.31628" lon="9.32714">
        <ele>2.06</ele>
        <time>2016-10-08T07:45:46Z</time>
      </trkpt>
      <trkpt lat="44.31625" lon="9.32709">
        <ele>2.06</ele>
        <time>2016-10-08T07:46:07Z</time>
      </trkpt>
      <trkpt lat="44.31625" lon="9.32713">
        <ele>2.54</ele>
        <time>2016-10-08T07:46:28Z</time>
      </trkpt>
      <trkpt lat="44.31627" lon="9.32713">
        <ele>2.54</ele>
        <time>2016-10-08T07:47:02Z</time>
      </trkpt>
      <trkpt lat="44.31631" lon="9.32711">
        <ele>3.02</ele>
        <time>2016-10-08T07:47:26Z</time>
      </trkpt>
      <trkpt lat="44.31628" lon="9.32701">
        <ele>3.02</ele>
        <time>2016-10-08T07:47:32Z</time>
      </trkpt>
      <trkpt lat="44.3163" lon="9.32709">
        <ele>3.02</ele>
        <time>2016-10-08T07:47:38Z</time>
      </trkpt>
      <trkpt lat="44.31646" lon="9.32724">
        <ele>3.02</ele>
        <time>2016-10-08T07:47:53Z</time>
      </trkpt>
      <trkpt lat="44.31665" lon="9.32733">
        <ele>2.54</ele>
        <time>2016-10-08T07:48:06Z</time>
      </trkpt>
      <trkpt lat="44.31673" lon="9.32733">
        <ele>2.54</ele>
        <time>2016-10-08T07:48:10Z</time>
      </trkpt>
      <trkpt lat="44.31674" lon="9.32731">
        <ele>2.54</ele>
        <time>2016-10-08T07:48:11Z</time>
      </trkpt>
      <trkpt lat="44.31677" lon="9.32729">
        <ele>2.54</ele>
        <time>2016-10-08T07:48:12Z</time>
      </trkpt>
      <trkpt lat="44.31703" lon="9.32697">
        <ele>3.02</ele>
        <time>2016-10-08T07:48:26Z</time>
      </trkpt>
      <trkpt lat="44.31702" lon="9.32682">
        <ele>2.54</ele>
        <time>2016-10-08T07:48:30Z</time>
      </trkpt>
      <trkpt lat="44.31703" lon="9.3268">
        <ele>3.02</ele>
        <time>2016-10-08T07:48:31Z</time>
      </trkpt>
      <trkpt lat="44.31705" lon="9.32679">
        <ele>3.02</ele>
        <time>2016-10-08T07:48:32Z</time>
      </trkpt>
      <trkpt lat="44.31708" lon="9.32677">
        <ele>3.5</ele>
        <time>2016-10-08T07:48:33Z</time>
      </trkpt>
      <trkpt lat="44.3171" lon="9.32675">
        <ele>3.5</ele>
        <time>2016-10-08T07:48:34Z</time>
      </trkpt>
      <trkpt lat="44.31712" lon="9.32672">
        <ele>3.5</ele>
        <time>2016-10-08T07:48:35Z</time>
      </trkpt>
      <trkpt lat="44.31713" lon="9.32669">
        <ele>3.02</ele>
        <time>2016-10-08T07:48:36Z</time>
      </trkpt>
      <trkpt lat="44.31715" lon="9.32666">
        <ele>3.5</ele>
        <time>2016-10-08T07:48:37Z</time>
      </trkpt>
      <trkpt lat="44.31716" lon="9.32663">
        <ele>3.5</ele>
        <time>2016-10-08T07:48:38Z</time>
      </trkpt>
      <trkpt lat="44.31721" lon="9.32653">
        <ele>3.02</ele>
        <time>2016-10-08T07:48:42Z</time>
      </trkpt>
      <trkpt lat="44.31727" lon="9.32644">
        <ele>3.5</ele>
        <time>2016-10-08T07:48:46Z</time>
      </trkpt>
      <trkpt lat="44.31749" lon="9.32612">
        <ele>3.98</ele>
        <time>2016-10-08T07:48:58Z</time>
      </trkpt>
      <trkpt lat="44.3175" lon="9.3261">
        <ele>3.5</ele>
        <time>2016-10-08T07:48:59Z</time>
      </trkpt>
      <trkpt lat="44.31753" lon="9.326">
        <ele>3.5</ele>
        <time>2016-10-08T07:49:04Z</time>
      </trkpt>
      <trkpt lat="44.31752" lon="9.32599">
        <ele>3.5</ele>
        <time>2016-10-08T07:49:05Z</time>
      </trkpt>
      <trkpt lat="44.31751" lon="9.32596">
        <ele>3.5</ele>
        <time>2016-10-08T07:49:07Z</time>
      </trkpt>
      <trkpt lat="44.31759" lon="9.32592">
        <ele>3.5</ele>
        <time>2016-10-08T07:49:13Z</time>
      </trkpt>
      <trkpt lat="44.3176" lon="9.3259">
        <ele>3.5</ele>
        <time>2016-10-08T07:49:14Z</time>
      </trkpt>
      <trkpt lat="44.31761" lon="9.32586">
        <ele>3.5</ele>
        <time>2016-10-08T07:49:15Z</time>
      </trkpt>
      <trkpt lat="44.31762" lon="9.32582">
        <ele>3.98</ele>
        <time>2016-10-08T07:49:16Z</time>
      </trkpt>
      <trkpt lat="44.31762" lon="9.32578">
        <ele>3.98</ele>
        <time>2016-10-08T07:49:17Z</time>
      </trkpt>
      <trkpt lat="44.31762" lon="9.32573">
        <ele>3.5</ele>
        <time>2016-10-08T07:49:18Z</time>
      </trkpt>
      <trkpt lat="44.31763" lon="9.32552">
        <ele>3.5</ele>
        <time>2016-10-08T07:49:30Z</time>
      </trkpt>
      <trkpt lat="44.31767" lon="9.32543">
        <ele>3.5</ele>
        <time>2016-10-08T07:49:41Z</time>
      </trkpt>
      <trkpt lat="44.31772" lon="9.32539">
        <ele>3.5</ele>
        <time>2016-10-08T07:50:06Z</time>
      </trkpt>
      <trkpt lat="44.3179" lon="9.32527">
        <ele>3.02</ele>
        <time>2016-10-08T07:50:28Z</time>
      </trkpt>
      <trkpt lat="44.31779" lon="9.32514">
        <ele>3.5</ele>
        <time>2016-10-08T07:50:43Z</time>
      </trkpt>
      <trkpt lat="44.31781" lon="9.32504">
        <ele>3.5</ele>
        <time>2016-10-08T07:51:00Z</time>
      </trkpt>
      <trkpt lat="44.31783" lon="9.32472">
        <ele>3.5</ele>
        <time>2016-10-08T07:51:17Z</time>
      </trkpt>
      <trkpt lat="44.31783" lon="9.32466">
        <ele>4.46</ele>
        <time>2016-10-08T07:51:24Z</time>
      </trkpt>
      <trkpt lat="44.31776" lon="9.32473">
        <ele>3.98</ele>
        <time>2016-10-08T07:51:37Z</time>
      </trkpt>
      <trkpt lat="44.31779" lon="9.32476">
        <ele>3.98</ele>
        <time>2016-10-08T07:51:42Z</time>
      </trkpt>
      <trkpt lat="44.31793" lon="9.3247">
        <ele>4.46</ele>
        <time>2016-10-08T07:51:55Z</time>
      </trkpt>
      <trkpt lat="44.31778" lon="9.32463">
        <ele>3.98</ele>
        <time>2016-10-08T07:52:00Z</time>
      </trkpt>
      <trkpt lat="44.31763" lon="9.32453">
        <ele>3.98</ele>
        <time>2016-10-08T07:52:19Z</time>
      </trkpt>
      <trkpt lat="44.31756" lon="9.32455">
        <ele>3.98</ele>
        <time>2016-10-08T07:52:35Z</time>
      </trkpt>
      <trkpt lat="44.31745" lon="9.32448">
        <ele>3.98</ele>
        <time>2016-10-08T07:52:50Z</time>
      </trkpt>
      <trkpt lat="44.3174" lon="9.32446">
        <ele>3.98</ele>
        <time>2016-10-08T07:53:10Z</time>
      </trkpt>
      <trkpt lat="44.31738" lon="9.32443">
        <ele>3.98</ele>
        <time>2016-10-08T07:53:30Z</time>
      </trkpt>
      <trkpt lat="44.31733" lon="9.32433">
        <ele>4.46</ele>
        <time>2016-10-08T07:53:46Z</time>
      </trkpt>
      <trkpt lat="44.3173" lon="9.32431">
        <ele>3.98</ele>
        <time>2016-10-08T07:54:05Z</time>
      </trkpt>
      <trkpt lat="44.31727" lon="9.32433">
        <ele>4.46</ele>
        <time>2016-10-08T07:54:33Z</time>
      </trkpt>
      <trkpt lat="44.31729" lon="9.3243">
        <ele>3.98</ele>
        <time>2016-10-08T07:54:55Z</time>
      </trkpt>
      <trkpt lat="44.31728" lon="9.3243">
        <ele>3.98</ele>
        <time>2016-10-08T07:54:56Z</time>
      </trkpt>
      <trkpt lat="44.31727" lon="9.32427">
        <ele>4.46</ele>
        <time>2016-10-08T07:54:59Z</time>
      </trkpt>
      <trkpt lat="44.31726" lon="9.32425">
        <ele>3.98</ele>
        <time>2016-10-08T07:55:00Z</time>
      </trkpt>
      <trkpt lat="44.31726" lon="9.32424">
        <ele>3.98</ele>
        <time>2016-10-08T07:55:01Z</time>
      </trkpt>
      <trkpt lat="44.31725" lon="9.32423">
        <ele>3.98</ele>
        <time>2016-10-08T07:55:02Z</time>
      </trkpt>
      <trkpt lat="44.31723" lon="9.32422">
        <ele>4.46</ele>
        <time>2016-10-08T07:55:03Z</time>
      </trkpt>
      <trkpt lat="44.31722" lon="9.32421">
        <ele>4.46</ele>
        <time>2016-10-08T07:55:04Z</time>
      </trkpt>
      <trkpt lat="44.31722" lon="9.32419">
        <ele>3.5</ele>
        <time>2016-10-08T07:55:05Z</time>
      </trkpt>
      <trkpt lat="44.31721" lon="9.32418">
        <ele>4.46</ele>
        <time>2016-10-08T07:55:06Z</time>
      </trkpt>
      <trkpt lat="44.31721" lon="9.32416">
        <ele>4.46</ele>
        <time>2016-10-08T07:55:07Z</time>
      </trkpt>
      <trkpt lat="44.31719" lon="9.32409">
        <ele>3.5</ele>
        <time>2016-10-08T07:55:10Z</time>
      </trkpt>
      <trkpt lat="44.31688" lon="9.32389">
        <ele>4.46</ele>
        <time>2016-10-08T07:55:23Z</time>
      </trkpt>
      <trkpt lat="44.31662" lon="9.32369">
        <ele>4.46</ele>
        <time>2016-10-08T07:55:35Z</time>
      </trkpt>
      <trkpt lat="44.31641" lon="9.32349">
        <ele>4.94</ele>
        <time>2016-10-08T07:55:47Z</time>
      </trkpt>
      <trkpt lat="44.31616" lon="9.32328">
        <ele>4.46</ele>
        <time>2016-10-08T07:55:58Z</time>
      </trkpt>
      <trkpt lat="44.31585" lon="9.32305">
        <ele>3.98</ele>
        <time>2016-10-08T07:56:10Z</time>
      </trkpt>
      <trkpt lat="44.31557" lon="9.3228">
        <ele>3.5</ele>
        <time>2016-10-08T07:56:23Z</time>
      </trkpt>
      <trkpt lat="44.31551" lon="9.32271">
        <ele>4.46</ele>
        <time>2016-10-08T07:56:30Z</time>
      </trkpt>
      <trkpt lat="44.31549" lon="9.32272">
        <ele>3.98</ele>
        <time>2016-10-08T07:56:31Z</time>
      </trkpt>
      <trkpt lat="44.31547" lon="9.32275">
        <ele>4.46</ele>
        <time>2016-10-08T07:56:32Z</time>
      </trkpt>
      <trkpt lat="44.31546" lon="9.32278">
        <ele>4.46</ele>
        <time>2016-10-08T07:56:33Z</time>
      </trkpt>
      <trkpt lat="44.31544" lon="9.32281">
        <ele>3.98</ele>
        <time>2016-10-08T07:56:34Z</time>
      </trkpt>
      <trkpt lat="44.31541" lon="9.32285">
        <ele>3.5</ele>
        <time>2016-10-08T07:56:35Z</time>
      </trkpt>
      <trkpt lat="44.31516" lon="9.32339">
        <ele>3.5</ele>
        <time>2016-10-08T07:56:47Z</time>
      </trkpt>
      <trkpt lat="44.31502" lon="9.32372">
        <ele>3.5</ele>
        <time>2016-10-08T07:56:54Z</time>
      </trkpt>
      <trkpt lat="44.31471" lon="9.32441">
        <ele>3.5</ele>
        <time>2016-10-08T07:57:07Z</time>
      </trkpt>
      <trkpt lat="44.31467" lon="9.32453">
        <ele>3.5</ele>
        <time>2016-10-08T07:57:09Z</time>
      </trkpt>
      <trkpt lat="44.31465" lon="9.32459">
        <ele>3.5</ele>
        <time>2016-10-08T07:57:10Z</time>
      </trkpt>
      <trkpt lat="44.31464" lon="9.32465">
        <ele>4.46</ele>
        <time>2016-10-08T07:57:11Z</time>
      </trkpt>
      <trkpt lat="44.31462" lon="9.32471">
        <ele>3.98</ele>
        <time>2016-10-08T07:57:12Z</time>
      </trkpt>
      <trkpt lat="44.3146" lon="9.32477">
        <ele>3.5</ele>
        <time>2016-10-08T07:57:13Z</time>
      </trkpt>
      <trkpt lat="44.31458" lon="9.32482">
        <ele>3.5</ele>
        <time>2016-10-08T07:57:14Z</time>
      </trkpt>
      <trkpt lat="44.31433" lon="9.32531">
        <ele>3.5</ele>
        <time>2016-10-08T07:57:23Z</time>
      </trkpt>
      <trkpt lat="44.31402" lon="9.32598">
        <ele>3.5</ele>
        <time>2016-10-08T07:57:36Z</time>
      </trkpt>
      <trkpt lat="44.31398" lon="9.32609">
        <ele>3.02</ele>
        <time>2016-10-08T07:57:38Z</time>
      </trkpt>
      <trkpt lat="44.31383" lon="9.32646">
        <ele>3.98</ele>
        <time>2016-10-08T07:57:44Z</time>
      </trkpt>
      <trkpt lat="44.31381" lon="9.32652">
        <ele>3.02</ele>
        <time>2016-10-08T07:57:45Z</time>
      </trkpt>
      <trkpt lat="44.3138" lon="9.32658">
        <ele>3.5</ele>
        <time>2016-10-08T07:57:46Z</time>
      </trkpt>
      <trkpt lat="44.31349" lon="9.32728">
        <ele>3.02</ele>
        <time>2016-10-08T07:57:57Z</time>
      </trkpt>
      <trkpt lat="44.31346" lon="9.32733">
        <ele>3.02</ele>
        <time>2016-10-08T07:57:58Z</time>
      </trkpt>
      <trkpt lat="44.31311" lon="9.32803">
        <ele>2.54</ele>
        <time>2016-10-08T07:58:10Z</time>
      </trkpt>
      <trkpt lat="44.31309" lon="9.32808">
        <ele>2.54</ele>
        <time>2016-10-08T07:58:11Z</time>
      </trkpt>
      <trkpt lat="44.31301" lon="9.32832">
        <ele>3.02</ele>
        <time>2016-10-08T07:58:15Z</time>
      </trkpt>
      <trkpt lat="44.31298" lon="9.32838">
        <ele>3.5</ele>
        <time>2016-10-08T07:58:16Z</time>
      </trkpt>
      <trkpt lat="44.31291" lon="9.32857">
        <ele>3.02</ele>
        <time>2016-10-08T07:58:19Z</time>
      </trkpt>
      <trkpt lat="44.31289" lon="9.32864">
        <ele>3.02</ele>
        <time>2016-10-08T07:58:20Z</time>
      </trkpt>
      <trkpt lat="44.31287" lon="9.32871">
        <ele>3.02</ele>
        <time>2016-10-08T07:58:21Z</time>
      </trkpt>
      <trkpt lat="44.31266" lon="9.32976">
        <ele>3.02</ele>
        <time>2016-10-08T07:58:36Z</time>
      </trkpt>
      <trkpt lat="44.31242" lon="9.33079">
        <ele>2.06</ele>
        <time>2016-10-08T07:58:51Z</time>
      </trkpt>
      <trkpt lat="44.3124" lon="9.33086">
        <ele>3.02</ele>
        <time>2016-10-08T07:58:52Z</time>
      </trkpt>
      <trkpt lat="44.31239" lon="9.33093">
        <ele>2.06</ele>
        <time>2016-10-08T07:58:53Z</time>
      </trkpt>
      <trkpt lat="44.31214" lon="9.33203">
        <ele>3.5</ele>
        <time>2016-10-08T07:59:10Z</time>
      </trkpt>
      <trkpt lat="44.31197" lon="9.33265">
        <ele>5.42</ele>
        <time>2016-10-08T07:59:24Z</time>
      </trkpt>
      <trkpt lat="44.31168" lon="9.33349">
        <ele>6.39</ele>
        <time>2016-10-08T07:59:43Z</time>
      </trkpt>
      <trkpt lat="44.31124" lon="9.33471">
        <ele>5.42</ele>
        <time>2016-10-08T08:00:05Z</time>
      </trkpt>
      <trkpt lat="44.31119" lon="9.33481">
        <ele>5.91</ele>
        <time>2016-10-08T08:00:07Z</time>
      </trkpt>
      <trkpt lat="44.3107" lon="9.33569">
        <ele>4.94</ele>
        <time>2016-10-08T08:00:23Z</time>
      </trkpt>
      <trkpt lat="44.3104" lon="9.33648">
        <ele>1.58</ele>
        <time>2016-10-08T08:00:33Z</time>
      </trkpt>
      <trkpt lat="44.30992" lon="9.33778">
        <ele>1.58</ele>
        <time>2016-10-08T08:00:50Z</time>
      </trkpt>
      <trkpt lat="44.30945" lon="9.3391">
        <ele>2.06</ele>
        <time>2016-10-08T08:01:08Z</time>
      </trkpt>
      <trkpt lat="44.30896" lon="9.34036">
        <ele>1.1</ele>
        <time>2016-10-08T08:01:26Z</time>
      </trkpt>
      <trkpt lat="44.30843" lon="9.34164">
        <ele>1.58</ele>
        <time>2016-10-08T08:01:45Z</time>
      </trkpt>
      <trkpt lat="44.3078" lon="9.34278">
        <ele>2.06</ele>
        <time>2016-10-08T08:02:05Z</time>
      </trkpt>
      <trkpt lat="44.30734" lon="9.34341">
        <ele>3.02</ele>
        <time>2016-10-08T08:02:20Z</time>
      </trkpt>
      <trkpt lat="44.30668" lon="9.34441">
        <ele>3.02</ele>
        <time>2016-10-08T08:02:40Z</time>
      </trkpt>
      <trkpt lat="44.30658" lon="9.34459">
        <ele>3.02</ele>
        <time>2016-10-08T08:02:43Z</time>
      </trkpt>
      <trkpt lat="44.30627" lon="9.34535">
        <ele>3.5</ele>
        <time>2016-10-08T08:02:55Z</time>
      </trkpt>
      <trkpt lat="44.30624" lon="9.34541">
        <ele>3.5</ele>
        <time>2016-10-08T08:02:56Z</time>
      </trkpt>
      <trkpt lat="44.30615" lon="9.34566">
        <ele>3.5</ele>
        <time>2016-10-08T08:03:00Z</time>
      </trkpt>
      <trkpt lat="44.30612" lon="9.34579">
        <ele>3.5</ele>
        <time>2016-10-08T08:03:02Z</time>
      </trkpt>
      <trkpt lat="44.3061" lon="9.34586">
        <ele>3.98</ele>
        <time>2016-10-08T08:03:03Z</time>
      </trkpt>
      <trkpt lat="44.30592" lon="9.34642">
        <ele>4.46</ele>
        <time>2016-10-08T08:03:15Z</time>
      </trkpt>
      <trkpt lat="44.30578" lon="9.34674">
        <ele>4.46</ele>
        <time>2016-10-08T08:03:23Z</time>
      </trkpt>
      <trkpt lat="44.30577" lon="9.34679">
        <ele>4.46</ele>
        <time>2016-10-08T08:03:24Z</time>
      </trkpt>
      <trkpt lat="44.30573" lon="9.3469">
        <ele>4.94</ele>
        <time>2016-10-08T08:03:26Z</time>
      </trkpt>
      <trkpt lat="44.30524" lon="9.34808">
        <ele>4.46</ele>
        <time>2016-10-08T08:03:45Z</time>
      </trkpt>
      <trkpt lat="44.30475" lon="9.34925">
        <ele>4.46</ele>
        <time>2016-10-08T08:04:03Z</time>
      </trkpt>
      <trkpt lat="44.30398" lon="9.35056">
        <ele>4.46</ele>
        <time>2016-10-08T08:04:25Z</time>
      </trkpt>
      <trkpt lat="44.30338" lon="9.35183">
        <ele>4.46</ele>
        <time>2016-10-08T08:04:45Z</time>
      </trkpt>
      <trkpt lat="44.30267" lon="9.35348">
        <ele>4.46</ele>
        <time>2016-10-08T08:05:10Z</time>
      </trkpt>
      <trkpt lat="44.30199" lon="9.35508">
        <ele>4.94</ele>
        <time>2016-10-08T08:05:34Z</time>
      </trkpt>
      <trkpt lat="44.3014" lon="9.35647">
        <ele>4.46</ele>
        <time>2016-10-08T08:05:55Z</time>
      </trkpt>
      <trkpt lat="44.30079" lon="9.35788">
        <ele>3.98</ele>
        <time>2016-10-08T08:06:16Z</time>
      </trkpt>
      <trkpt lat="44.30029" lon="9.35902">
        <ele>4.46</ele>
        <time>2016-10-08T08:06:33Z</time>
      </trkpt>
      <trkpt lat="44.29973" lon="9.36032">
        <ele>3.98</ele>
        <time>2016-10-08T08:06:52Z</time>
      </trkpt>
      <trkpt lat="44.2991" lon="9.3617">
        <ele>3.98</ele>
        <time>2016-10-08T08:07:12Z</time>
      </trkpt>
      <trkpt lat="44.2986" lon="9.36273">
        <ele>3.98</ele>
        <time>2016-10-08T08:07:29Z</time>
      </trkpt>
      <trkpt lat="44.29799" lon="9.36408">
        <ele>3.98</ele>
        <time>2016-10-08T08:07:49Z</time>
      </trkpt>
      <trkpt lat="44.29738" lon="9.36538">
        <ele>3.98</ele>
        <time>2016-10-08T08:08:08Z</time>
      </trkpt>
      <trkpt lat="44.29664" lon="9.36691">
        <ele>3.98</ele>
        <time>2016-10-08T08:08:30Z</time>
      </trkpt>
      <trkpt lat="44.29594" lon="9.36833">
        <ele>4.46</ele>
        <time>2016-10-08T08:08:51Z</time>
      </trkpt>
      <trkpt lat="44.29533" lon="9.36959">
        <ele>3.5</ele>
        <time>2016-10-08T08:09:10Z</time>
      </trkpt>
      <trkpt lat="44.29474" lon="9.37078">
        <ele>4.46</ele>
        <time>2016-10-08T08:09:28Z</time>
      </trkpt>
      <trkpt lat="44.29454" lon="9.37118">
        <ele>3.98</ele>
        <time>2016-10-08T08:09:34Z</time>
      </trkpt>
      <trkpt lat="44.29451" lon="9.37124">
        <ele>4.46</ele>
        <time>2016-10-08T08:09:35Z</time>
      </trkpt>
      <trkpt lat="44.29401" lon="9.3722">
        <ele>3.98</ele>
        <time>2016-10-08T08:09:50Z</time>
      </trkpt>
      <trkpt lat="44.2935" lon="9.3731">
        <ele>4.46</ele>
        <time>2016-10-08T08:10:05Z</time>
      </trkpt>
      <trkpt lat="44.29343" lon="9.37321">
        <ele>4.46</ele>
        <time>2016-10-08T08:10:07Z</time>
      </trkpt>
      <trkpt lat="44.29307" lon="9.37386">
        <ele>7.35</ele>
        <time>2016-10-08T08:10:21Z</time>
      </trkpt>
      <trkpt lat="44.29271" lon="9.37447">
        <ele>9.75</ele>
        <time>2016-10-08T08:10:38Z</time>
      </trkpt>
      <trkpt lat="44.29237" lon="9.37508">
        <ele>11.19</ele>
        <time>2016-10-08T08:10:55Z</time>
      </trkpt>
      <trkpt lat="44.29211" lon="9.37553">
        <ele>12.63</ele>
        <time>2016-10-08T08:11:08Z</time>
      </trkpt>
      <trkpt lat="44.29183" lon="9.37613">
        <ele>13.6</ele>
        <time>2016-10-08T08:11:23Z</time>
      </trkpt>
      <trkpt lat="44.29165" lon="9.37633">
        <ele>13.6</ele>
        <time>2016-10-08T08:11:33Z</time>
      </trkpt>
      <trkpt lat="44.29163" lon="9.37635">
        <ele>13.6</ele>
        <time>2016-10-08T08:11:48Z</time>
      </trkpt>
      <trkpt lat="44.29161" lon="9.37635">
        <ele>13.6</ele>
        <time>2016-10-08T08:11:59Z</time>
      </trkpt>
      <trkpt lat="44.2916" lon="9.37637">
        <ele>13.6</ele>
        <time>2016-10-08T08:12:00Z</time>
      </trkpt>
      <trkpt lat="44.29159" lon="9.37639">
        <ele>13.6</ele>
        <time>2016-10-08T08:12:01Z</time>
      </trkpt>
      <trkpt lat="44.29159" lon="9.37641">
        <ele>13.6</ele>
        <time>2016-10-08T08:12:02Z</time>
      </trkpt>
      <trkpt lat="44.29157" lon="9.37643">
        <ele>13.6</ele>
        <time>2016-10-08T08:12:03Z</time>
      </trkpt>
      <trkpt lat="44.29157" lon="9.37645">
        <ele>14.08</ele>
        <time>2016-10-08T08:12:04Z</time>
      </trkpt>
      <trkpt lat="44.29156" lon="9.37648">
        <ele>13.6</ele>
        <time>2016-10-08T08:12:05Z</time>
      </trkpt>
      <trkpt lat="44.29155" lon="9.3765">
        <ele>14.08</ele>
        <time>2016-10-08T08:12:06Z</time>
      </trkpt>
      <trkpt lat="44.29155" lon="9.37652">
        <ele>13.12</ele>
        <time>2016-10-08T08:12:07Z</time>
      </trkpt>
      <trkpt lat="44.29154" lon="9.37654">
        <ele>13.12</ele>
        <time>2016-10-08T08:12:08Z</time>
      </trkpt>
      <trkpt lat="44.29154" lon="9.37657">
        <ele>14.08</ele>
        <time>2016-10-08T08:12:09Z</time>
      </trkpt>
      <trkpt lat="44.29152" lon="9.3766">
        <ele>13.6</ele>
        <time>2016-10-08T08:12:10Z</time>
      </trkpt>
      <trkpt lat="44.2915" lon="9.37663">
        <ele>12.63</ele>
        <time>2016-10-08T08:12:11Z</time>
      </trkpt>
      <trkpt lat="44.29148" lon="9.37666">
        <ele>13.6</ele>
        <time>2016-10-08T08:12:12Z</time>
      </trkpt>
      <trkpt lat="44.29133" lon="9.37689">
        <ele>11.67</ele>
        <time>2016-10-08T08:12:17Z</time>
      </trkpt>
      <trkpt lat="44.29129" lon="9.37693">
        <ele>12.15</ele>
        <time>2016-10-08T08:12:18Z</time>
      </trkpt>
      <trkpt lat="44.29074" lon="9.37745">
        <ele>8.79</ele>
        <time>2016-10-08T08:12:28Z</time>
      </trkpt>
      <trkpt lat="44.29062" lon="9.3776">
        <ele>7.83</ele>
        <time>2016-10-08T08:12:30Z</time>
      </trkpt>
      <trkpt lat="44.28985" lon="9.37876">
        <ele>6.39</ele>
        <time>2016-10-08T08:12:44Z</time>
      </trkpt>
      <trkpt lat="44.289" lon="9.37997">
        <ele>8.79</ele>
        <time>2016-10-08T08:13:03Z</time>
      </trkpt>
      <trkpt lat="44.28864" lon="9.3805">
        <ele>11.67</ele>
        <time>2016-10-08T08:13:19Z</time>
      </trkpt>
      <trkpt lat="44.28827" lon="9.381">
        <ele>14.56</ele>
        <time>2016-10-08T08:13:38Z</time>
      </trkpt>
      <trkpt lat="44.28791" lon="9.38123">
        <ele>16</ele>
        <time>2016-10-08T08:13:51Z</time>
      </trkpt>
      <trkpt lat="44.28743" lon="9.38138">
        <ele>14.56</ele>
        <time>2016-10-08T08:14:03Z</time>
      </trkpt>
      <trkpt lat="44.2869" lon="9.38144">
        <ele>11.19</ele>
        <time>2016-10-08T08:14:11Z</time>
      </trkpt>
      <trkpt lat="44.28599" lon="9.38192">
        <ele>8.79</ele>
        <time>2016-10-08T08:14:23Z</time>
      </trkpt>
      <trkpt lat="44.28592" lon="9.38198">
        <ele>8.79</ele>
        <time>2016-10-08T08:14:24Z</time>
      </trkpt>
      <trkpt lat="44.28587" lon="9.38206">
        <ele>8.31</ele>
        <time>2016-10-08T08:14:25Z</time>
      </trkpt>
      <trkpt lat="44.28582" lon="9.38214">
        <ele>8.79</ele>
        <time>2016-10-08T08:14:26Z</time>
      </trkpt>
      <trkpt lat="44.28578" lon="9.38224">
        <ele>8.31</ele>
        <time>2016-10-08T08:14:27Z</time>
      </trkpt>
      <trkpt lat="44.28574" lon="9.38234">
        <ele>8.79</ele>
        <time>2016-10-08T08:14:28Z</time>
      </trkpt>
      <trkpt lat="44.28529" lon="9.38368">
        <ele>10.71</ele>
        <time>2016-10-08T08:14:43Z</time>
      </trkpt>
      <trkpt lat="44.28519" lon="9.38402">
        <ele>12.15</ele>
        <time>2016-10-08T08:14:51Z</time>
      </trkpt>
      <trkpt lat="44.28504" lon="9.38437">
        <ele>14.08</ele>
        <time>2016-10-08T08:14:59Z</time>
      </trkpt>
      <trkpt lat="44.28484" lon="9.38476">
        <ele>15.04</ele>
        <time>2016-10-08T08:15:10Z</time>
      </trkpt>
      <trkpt lat="44.28468" lon="9.38511">
        <ele>15.52</ele>
        <time>2016-10-08T08:15:18Z</time>
      </trkpt>
      <trkpt lat="44.28465" lon="9.38524">
        <ele>15.04</ele>
        <time>2016-10-08T08:15:20Z</time>
      </trkpt>
      <trkpt lat="44.28458" lon="9.38535">
        <ele>15.04</ele>
        <time>2016-10-08T08:15:22Z</time>
      </trkpt>
      <trkpt lat="44.28429" lon="9.38609">
        <ele>15.04</ele>
        <time>2016-10-08T08:15:36Z</time>
      </trkpt>
      <trkpt lat="44.28417" lon="9.38625">
        <ele>15.04</ele>
        <time>2016-10-08T08:15:48Z</time>
      </trkpt>
      <trkpt lat="44.28397" lon="9.38639">
        <ele>11.67</ele>
        <time>2016-10-08T08:16:07Z</time>
      </trkpt>
      <trkpt lat="44.2825" lon="9.38823">
        <ele>10.71</ele>
        <time>2016-10-08T08:16:11Z</time>
      </trkpt>
      <trkpt lat="44.28206" lon="9.38894">
        <ele>7.35</ele>
        <time>2016-10-08T08:16:19Z</time>
      </trkpt>
      <trkpt lat="44.28146" lon="9.39011">
        <ele>5.42</ele>
        <time>2016-10-08T08:16:31Z</time>
      </trkpt>
      <trkpt lat="44.28091" lon="9.3909">
        <ele>5.42</ele>
        <time>2016-10-08T08:16:42Z</time>
      </trkpt>
      <trkpt lat="44.28085" lon="9.39094">
        <ele>5.42</ele>
        <time>2016-10-08T08:16:43Z</time>
      </trkpt>
      <trkpt lat="44.28079" lon="9.39097">
        <ele>4.94</ele>
        <time>2016-10-08T08:16:44Z</time>
      </trkpt>
      <trkpt lat="44.28073" lon="9.391">
        <ele>5.42</ele>
        <time>2016-10-08T08:16:45Z</time>
      </trkpt>
      <trkpt lat="44.28067" lon="9.39105">
        <ele>5.42</ele>
        <time>2016-10-08T08:16:46Z</time>
      </trkpt>
      <trkpt lat="44.28063" lon="9.39111">
        <ele>4.94</ele>
        <time>2016-10-08T08:16:47Z</time>
      </trkpt>
      <trkpt lat="44.28059" lon="9.39118">
        <ele>4.94</ele>
        <time>2016-10-08T08:16:48Z</time>
      </trkpt>
      <trkpt lat="44.28056" lon="9.39126">
        <ele>4.46</ele>
        <time>2016-10-08T08:16:49Z</time>
      </trkpt>
      <trkpt lat="44.28051" lon="9.39133">
        <ele>4.94</ele>
        <time>2016-10-08T08:16:50Z</time>
      </trkpt>
      <trkpt lat="44.28046" lon="9.39138">
        <ele>4.94</ele>
        <time>2016-10-08T08:16:51Z</time>
      </trkpt>
      <trkpt lat="44.28041" lon="9.39142">
        <ele>4.46</ele>
        <time>2016-10-08T08:16:52Z</time>
      </trkpt>
      <trkpt lat="44.28035" lon="9.39146">
        <ele>4.94</ele>
        <time>2016-10-08T08:16:53Z</time>
      </trkpt>
      <trkpt lat="44.27997" lon="9.39171">
        <ele>4.94</ele>
        <time>2016-10-08T08:17:00Z</time>
      </trkpt>
      <trkpt lat="44.27988" lon="9.39174">
        <ele>4.94</ele>
        <time>2016-10-08T08:17:02Z</time>
      </trkpt>
      <trkpt lat="44.27983" lon="9.39177">
        <ele>4.94</ele>
        <time>2016-10-08T08:17:03Z</time>
      </trkpt>
      <trkpt lat="44.27899" lon="9.39238">
        <ele>4.94</ele>
        <time>2016-10-08T08:17:22Z</time>
      </trkpt>
      <trkpt lat="44.27828" lon="9.3929">
        <ele>4.46</ele>
        <time>2016-10-08T08:17:38Z</time>
      </trkpt>
      <trkpt lat="44.27824" lon="9.39292">
        <ele>5.42</ele>
        <time>2016-10-08T08:17:39Z</time>
      </trkpt>
      <trkpt lat="44.27819" lon="9.39292">
        <ele>4.94</ele>
        <time>2016-10-08T08:17:40Z</time>
      </trkpt>
      <trkpt lat="44.27814" lon="9.39291">
        <ele>4.94</ele>
        <time>2016-10-08T08:17:41Z</time>
      </trkpt>
      <trkpt lat="44.2781" lon="9.39289">
        <ele>4.94</ele>
        <time>2016-10-08T08:17:42Z</time>
      </trkpt>
      <trkpt lat="44.27806" lon="9.39286">
        <ele>4.94</ele>
        <time>2016-10-08T08:17:43Z</time>
      </trkpt>
      <trkpt lat="44.27801" lon="9.39283">
        <ele>5.42</ele>
        <time>2016-10-08T08:17:44Z</time>
      </trkpt>
      <trkpt lat="44.27797" lon="9.39281">
        <ele>4.46</ele>
        <time>2016-10-08T08:17:45Z</time>
      </trkpt>
      <trkpt lat="44.27792" lon="9.39281">
        <ele>4.94</ele>
        <time>2016-10-08T08:17:46Z</time>
      </trkpt>
      <trkpt lat="44.27787" lon="9.39284">
        <ele>4.94</ele>
        <time>2016-10-08T08:17:47Z</time>
      </trkpt>
      <trkpt lat="44.27782" lon="9.39288">
        <ele>4.46</ele>
        <time>2016-10-08T08:17:48Z</time>
      </trkpt>
      <trkpt lat="44.27779" lon="9.39293">
        <ele>4.46</ele>
        <time>2016-10-08T08:17:49Z</time>
      </trkpt>
      <trkpt lat="44.27774" lon="9.39296">
        <ele>4.46</ele>
        <time>2016-10-08T08:17:50Z</time>
      </trkpt>
      <trkpt lat="44.27769" lon="9.39299">
        <ele>3.98</ele>
        <time>2016-10-08T08:17:51Z</time>
      </trkpt>
      <trkpt lat="44.27741" lon="9.39316">
        <ele>4.46</ele>
        <time>2016-10-08T08:17:57Z</time>
      </trkpt>
      <trkpt lat="44.27736" lon="9.39319">
        <ele>3.98</ele>
        <time>2016-10-08T08:17:58Z</time>
      </trkpt>
      <trkpt lat="44.27671" lon="9.39359">
        <ele>3.98</ele>
        <time>2016-10-08T08:18:12Z</time>
      </trkpt>
      <trkpt lat="44.27627" lon="9.39384">
        <ele>3.5</ele>
        <time>2016-10-08T08:18:22Z</time>
      </trkpt>
      <trkpt lat="44.27622" lon="9.39386">
        <ele>3.5</ele>
        <time>2016-10-08T08:18:23Z</time>
      </trkpt>
      <trkpt lat="44.27618" lon="9.39388">
        <ele>3.5</ele>
        <time>2016-10-08T08:18:24Z</time>
      </trkpt>
      <trkpt lat="44.27547" lon="9.39432">
        <ele>3.5</ele>
        <time>2016-10-08T08:18:40Z</time>
      </trkpt>
      <trkpt lat="44.27537" lon="9.39435">
        <ele>3.5</ele>
        <time>2016-10-08T08:18:42Z</time>
      </trkpt>
      <trkpt lat="44.27508" lon="9.39439">
        <ele>3.5</ele>
        <time>2016-10-08T08:18:48Z</time>
      </trkpt>
      <trkpt lat="44.27503" lon="9.39438">
        <ele>3.5</ele>
        <time>2016-10-08T08:18:49Z</time>
      </trkpt>
      <trkpt lat="44.27499" lon="9.39435">
        <ele>3.98</ele>
        <time>2016-10-08T08:18:50Z</time>
      </trkpt>
      <trkpt lat="44.27496" lon="9.39434">
        <ele>3.5</ele>
        <time>2016-10-08T08:18:51Z</time>
      </trkpt>
      <trkpt lat="44.27492" lon="9.39433">
        <ele>3.5</ele>
        <time>2016-10-08T08:18:52Z</time>
      </trkpt>
      <trkpt lat="44.27488" lon="9.39433">
        <ele>3.5</ele>
        <time>2016-10-08T08:18:53Z</time>
      </trkpt>
      <trkpt lat="44.27485" lon="9.39432">
        <ele>3.02</ele>
        <time>2016-10-08T08:18:54Z</time>
      </trkpt>
      <trkpt lat="44.27477" lon="9.39431">
        <ele>3.5</ele>
        <time>2016-10-08T08:18:56Z</time>
      </trkpt>
      <trkpt lat="44.27473" lon="9.39431">
        <ele>3.02</ele>
        <time>2016-10-08T08:18:57Z</time>
      </trkpt>
      <trkpt lat="44.27468" lon="9.39432">
        <ele>3.5</ele>
        <time>2016-10-08T08:18:58Z</time>
      </trkpt>
      <trkpt lat="44.27463" lon="9.39433">
        <ele>3.02</ele>
        <time>2016-10-08T08:18:59Z</time>
      </trkpt>
      <trkpt lat="44.27458" lon="9.39435">
        <ele>3.5</ele>
        <time>2016-10-08T08:19:00Z</time>
      </trkpt>
      <trkpt lat="44.27453" lon="9.39436">
        <ele>3.5</ele>
        <time>2016-10-08T08:19:01Z</time>
      </trkpt>
      <trkpt lat="44.27449" lon="9.39436">
        <ele>3.5</ele>
        <time>2016-10-08T08:19:02Z</time>
      </trkpt>
      <trkpt lat="44.2743" lon="9.39432">
        <ele>3.5</ele>
        <time>2016-10-08T08:19:07Z</time>
      </trkpt>
      <trkpt lat="44.27426" lon="9.39433">
        <ele>3.5</ele>
        <time>2016-10-08T08:19:08Z</time>
      </trkpt>
      <trkpt lat="44.27397" lon="9.39437">
        <ele>3.5</ele>
        <time>2016-10-08T08:19:15Z</time>
      </trkpt>
      <trkpt lat="44.27347" lon="9.39429">
        <ele>3.02</ele>
        <time>2016-10-08T08:19:30Z</time>
      </trkpt>
      <trkpt lat="44.2732" lon="9.39424">
        <ele>2.06</ele>
        <time>2016-10-08T08:19:40Z</time>
      </trkpt>
      <trkpt lat="44.27296" lon="9.39412">
        <ele>2.06</ele>
        <time>2016-10-08T08:19:49Z</time>
      </trkpt>
      <trkpt lat="44.27262" lon="9.39417">
        <ele>2.06</ele>
        <time>2016-10-08T08:19:58Z</time>
      </trkpt>
      <trkpt lat="44.27242" lon="9.39408">
        <ele>2.06</ele>
        <time>2016-10-08T08:20:07Z</time>
      </trkpt>
      <trkpt lat="44.27227" lon="9.39413">
        <ele>1.58</ele>
        <time>2016-10-08T08:20:14Z</time>
      </trkpt>
      <trkpt lat="44.27226" lon="9.39415">
        <ele>1.58</ele>
        <time>2016-10-08T08:20:15Z</time>
      </trkpt>
      <trkpt lat="44.27224" lon="9.39423">
        <ele>2.06</ele>
        <time>2016-10-08T08:20:18Z</time>
      </trkpt>
      <trkpt lat="44.27219" lon="9.39442">
        <ele>1.58</ele>
        <time>2016-10-08T08:20:25Z</time>
      </trkpt>
      <trkpt lat="44.27201" lon="9.39468">
        <ele>0.62</ele>
        <time>2016-10-08T08:20:38Z</time>
      </trkpt>
      <trkpt lat="44.27179" lon="9.39529">
        <ele>0.62</ele>
        <time>2016-10-08T08:20:53Z</time>
      </trkpt>
      <trkpt lat="44.27169" lon="9.39568">
        <ele>1.1</ele>
        <time>2016-10-08T08:21:08Z</time>
      </trkpt>
      <trkpt lat="44.27168" lon="9.39569">
        <ele>1.1</ele>
        <time>2016-10-08T08:21:11Z</time>
      </trkpt>
      <trkpt lat="44.27166" lon="9.39567">
        <ele>1.58</ele>
        <time>2016-10-08T08:21:12Z</time>
      </trkpt>
      <trkpt lat="44.27153" lon="9.39559">
        <ele>1.1</ele>
        <time>2016-10-08T08:21:26Z</time>
      </trkpt>
      <trkpt lat="44.27152" lon="9.3956">
        <ele>1.1</ele>
        <time>2016-10-08T08:21:27Z</time>
      </trkpt>
      <trkpt lat="44.27133" lon="9.39558">
        <ele>1.1</ele>
        <time>2016-10-08T08:21:40Z</time>
      </trkpt>
      <trkpt lat="44.27114" lon="9.39552">
        <ele>1.1</ele>
        <time>2016-10-08T08:21:52Z</time>
      </trkpt>
      <trkpt lat="44.27098" lon="9.39532">
        <ele>1.58</ele>
        <time>2016-10-08T08:22:06Z</time>
      </trkpt>
      <trkpt lat="44.2709" lon="9.39508">
        <ele>2.06</ele>
        <time>2016-10-08T08:22:23Z</time>
      </trkpt>
      <trkpt lat="44.27078" lon="9.39501">
        <ele>2.06</ele>
        <time>2016-10-08T08:22:38Z</time>
      </trkpt>
      <trkpt lat="44.27075" lon="9.3949">
        <ele>2.06</ele>
        <time>2016-10-08T08:22:53Z</time>
      </trkpt>
      <trkpt lat="44.27071" lon="9.39475">
        <ele>2.06</ele>
        <time>2016-10-08T08:23:11Z</time>
      </trkpt>
      <trkpt lat="44.27062" lon="9.39461">
        <ele>1.1</ele>
        <time>2016-10-08T08:23:21Z</time>
      </trkpt>
      <trkpt lat="44.27062" lon="9.39458">
        <ele>1.1</ele>
        <time>2016-10-08T08:23:22Z</time>
      </trkpt>
      <trkpt lat="44.27061" lon="9.39456">
        <ele>1.1</ele>
        <time>2016-10-08T08:23:23Z</time>
      </trkpt>
      <trkpt lat="44.2706" lon="9.39454">
        <ele>1.1</ele>
        <time>2016-10-08T08:23:24Z</time>
      </trkpt>
      <trkpt lat="44.2706" lon="9.39452">
        <ele>1.58</ele>
        <time>2016-10-08T08:23:25Z</time>
      </trkpt>
      <trkpt lat="44.27059" lon="9.3945">
        <ele>1.1</ele>
        <time>2016-10-08T08:23:26Z</time>
      </trkpt>
      <trkpt lat="44.27059" lon="9.39448">
        <ele>1.58</ele>
        <time>2016-10-08T08:23:27Z</time>
      </trkpt>
      <trkpt lat="44.27051" lon="9.39425">
        <ele>1.58</ele>
        <time>2016-10-08T08:23:40Z</time>
      </trkpt>
      <trkpt lat="44.27041" lon="9.394">
        <ele>1.58</ele>
        <time>2016-10-08T08:23:52Z</time>
      </trkpt>
      <trkpt lat="44.2704" lon="9.39398">
        <ele>1.58</ele>
        <time>2016-10-08T08:23:53Z</time>
      </trkpt>
      <trkpt lat="44.27039" lon="9.39394">
        <ele>1.58</ele>
        <time>2016-10-08T08:23:56Z</time>
      </trkpt>
      <trkpt lat="44.2703" lon="9.39396">
        <ele>2.06</ele>
        <time>2016-10-08T08:24:00Z</time>
      </trkpt>
      <trkpt lat="44.27028" lon="9.39397">
        <ele>2.54</ele>
        <time>2016-10-08T08:24:01Z</time>
      </trkpt>
      <trkpt lat="44.27025" lon="9.39398">
        <ele>2.06</ele>
        <time>2016-10-08T08:24:02Z</time>
      </trkpt>
      <trkpt lat="44.27023" lon="9.39399">
        <ele>2.06</ele>
        <time>2016-10-08T08:24:03Z</time>
      </trkpt>
      <trkpt lat="44.27019" lon="9.394">
        <ele>2.06</ele>
        <time>2016-10-08T08:24:04Z</time>
      </trkpt>
      <trkpt lat="44.27016" lon="9.39401">
        <ele>2.06</ele>
        <time>2016-10-08T08:24:05Z</time>
      </trkpt>
      <trkpt lat="44.27013" lon="9.39402">
        <ele>2.06</ele>
        <time>2016-10-08T08:24:06Z</time>
      </trkpt>
      <trkpt lat="44.26992" lon="9.39413">
        <ele>3.5</ele>
        <time>2016-10-08T08:24:18Z</time>
      </trkpt>
      <trkpt lat="44.26991" lon="9.39415">
        <ele>2.54</ele>
        <time>2016-10-08T08:24:19Z</time>
      </trkpt>
      <trkpt lat="44.26991" lon="9.39418">
        <ele>2.54</ele>
        <time>2016-10-08T08:24:20Z</time>
      </trkpt>
      <trkpt lat="44.26976" lon="9.39447">
        <ele>2.54</ele>
        <time>2016-10-08T08:24:34Z</time>
      </trkpt>
      <trkpt lat="44.26962" lon="9.39463">
        <ele>2.54</ele>
        <time>2016-10-08T08:24:45Z</time>
      </trkpt>
      <trkpt lat="44.26946" lon="9.39478">
        <ele>2.06</ele>
        <time>2016-10-08T08:24:56Z</time>
      </trkpt>
      <trkpt lat="44.26946" lon="9.39479">
        <ele>1.58</ele>
        <time>2016-10-08T08:25:09Z</time>
      </trkpt>
      <trkpt lat="44.26952" lon="9.39486">
        <ele>2.54</ele>
        <time>2016-10-08T08:25:45Z</time>
      </trkpt>
      <trkpt lat="44.26954" lon="9.39484">
        <ele>2.06</ele>
        <time>2016-10-08T08:26:31Z</time>
      </trkpt>
      <trkpt lat="44.26952" lon="9.39491">
        <ele>2.54</ele>
        <time>2016-10-08T08:27:02Z</time>
      </trkpt>
      <trkpt lat="44.26952" lon="9.39491">
        <ele>2.06</ele>
        <time>2016-10-08T08:27:31Z</time>
      </trkpt>
      <trkpt lat="44.26952" lon="9.39492">
        <ele>1.58</ele>
        <time>2016-10-08T08:27:43Z</time>
      </trkpt>
      <trkpt lat="44.26953" lon="9.39493">
        <ele>2.06</ele>
        <time>2016-10-08T08:27:57Z</time>
      </trkpt>
      <trkpt lat="44.26955" lon="9.39496">
        <ele>1.58</ele>
        <time>2016-10-08T08:28:17Z</time>
      </trkpt>
      <trkpt lat="44.26959" lon="9.39495">
        <ele>1.58</ele>
        <time>2016-10-08T08:28:44Z</time>
      </trkpt>
      <trkpt lat="44.26963" lon="9.39495">
        <ele>1.58</ele>
        <time>2016-10-08T08:28:50Z</time>
      </trkpt>
      <trkpt lat="44.26964" lon="9.39494">
        <ele>1.1</ele>
        <time>2016-10-08T08:28:51Z</time>
      </trkpt>
      <trkpt lat="44.26971" lon="9.39485">
        <ele>1.58</ele>
        <time>2016-10-08T08:28:57Z</time>
      </trkpt>
      <trkpt lat="44.26982" lon="9.39447">
        <ele>1.58</ele>
        <time>2016-10-08T08:29:11Z</time>
      </trkpt>
      <trkpt lat="44.26985" lon="9.3944">
        <ele>2.06</ele>
        <time>2016-10-08T08:29:17Z</time>
      </trkpt>
      <trkpt lat="44.26986" lon="9.39438">
        <ele>1.58</ele>
        <time>2016-10-08T08:29:18Z</time>
      </trkpt>
      <trkpt lat="44.26987" lon="9.39436">
        <ele>2.06</ele>
        <time>2016-10-08T08:29:19Z</time>
      </trkpt>
      <trkpt lat="44.26992" lon="9.39426">
        <ele>1.58</ele>
        <time>2016-10-08T08:29:23Z</time>
      </trkpt>
      <trkpt lat="44.26992" lon="9.39424">
        <ele>2.06</ele>
        <time>2016-10-08T08:29:24Z</time>
      </trkpt>
      <trkpt lat="44.26994" lon="9.39411">
        <ele>2.06</ele>
        <time>2016-10-08T08:29:30Z</time>
      </trkpt>
      <trkpt lat="44.26998" lon="9.39409">
        <ele>1.58</ele>
        <time>2016-10-08T08:29:31Z</time>
      </trkpt>
      <trkpt lat="44.27023" lon="9.39389">
        <ele>0.62</ele>
        <time>2016-10-08T08:29:45Z</time>
      </trkpt>
      <trkpt lat="44.27034" lon="9.3939">
        <ele>0.62</ele>
        <time>2016-10-08T08:29:53Z</time>
      </trkpt>
      <trkpt lat="44.27035" lon="9.39392">
        <ele>0.62</ele>
        <time>2016-10-08T08:29:54Z</time>
      </trkpt>
      <trkpt lat="44.2704" lon="9.39395">
        <ele>1.1</ele>
        <time>2016-10-08T08:30:00Z</time>
      </trkpt>
      <trkpt lat="44.27042" lon="9.39395">
        <ele>1.1</ele>
        <time>2016-10-08T08:30:01Z</time>
      </trkpt>
      <trkpt lat="44.27043" lon="9.39394">
        <ele>1.1</ele>
        <time>2016-10-08T08:30:02Z</time>
      </trkpt>
      <trkpt lat="44.27064" lon="9.39375">
        <ele>1.1</ele>
        <time>2016-10-08T08:30:16Z</time>
      </trkpt>
      <trkpt lat="44.27081" lon="9.39359">
        <ele>1.58</ele>
        <time>2016-10-08T08:30:24Z</time>
      </trkpt>
      <trkpt lat="44.27085" lon="9.39361">
        <ele>1.58</ele>
        <time>2016-10-08T08:30:26Z</time>
      </trkpt>
      <trkpt lat="44.27087" lon="9.39364">
        <ele>1.1</ele>
        <time>2016-10-08T08:30:27Z</time>
      </trkpt>
      <trkpt lat="44.27123" lon="9.39392">
        <ele>1.58</ele>
        <time>2016-10-08T08:30:40Z</time>
      </trkpt>
      <trkpt lat="44.2715" lon="9.39409">
        <ele>1.58</ele>
        <time>2016-10-08T08:30:48Z</time>
      </trkpt>
      <trkpt lat="44.27154" lon="9.3941">
        <ele>1.1</ele>
        <time>2016-10-08T08:30:49Z</time>
      </trkpt>
      <trkpt lat="44.27157" lon="9.39412">
        <ele>1.1</ele>
        <time>2016-10-08T08:30:50Z</time>
      </trkpt>
      <trkpt lat="44.27173" lon="9.39422">
        <ele>1.1</ele>
        <time>2016-10-08T08:30:54Z</time>
      </trkpt>
      <trkpt lat="44.27232" lon="9.39438">
        <ele>1.1</ele>
        <time>2016-10-08T08:31:09Z</time>
      </trkpt>
      <trkpt lat="44.27253" lon="9.39447">
        <ele>1.1</ele>
        <time>2016-10-08T08:31:15Z</time>
      </trkpt>
      <trkpt lat="44.27257" lon="9.3945">
        <ele>1.1</ele>
        <time>2016-10-08T08:31:16Z</time>
      </trkpt>
      <trkpt lat="44.2726" lon="9.39454">
        <ele>1.1</ele>
        <time>2016-10-08T08:31:17Z</time>
      </trkpt>
      <trkpt lat="44.27263" lon="9.39459">
        <ele>1.1</ele>
        <time>2016-10-08T08:31:18Z</time>
      </trkpt>
      <trkpt lat="44.27265" lon="9.39464">
        <ele>0.62</ele>
        <time>2016-10-08T08:31:19Z</time>
      </trkpt>
      <trkpt lat="44.27267" lon="9.3947">
        <ele>1.1</ele>
        <time>2016-10-08T08:31:20Z</time>
      </trkpt>
      <trkpt lat="44.27269" lon="9.39475">
        <ele>1.1</ele>
        <time>2016-10-08T08:31:21Z</time>
      </trkpt>
      <trkpt lat="44.27271" lon="9.39481">
        <ele>1.1</ele>
        <time>2016-10-08T08:31:22Z</time>
      </trkpt>
      <trkpt lat="44.27272" lon="9.39486">
        <ele>1.1</ele>
        <time>2016-10-08T08:31:23Z</time>
      </trkpt>
      <trkpt lat="44.2728" lon="9.3953">
        <ele>1.1</ele>
        <time>2016-10-08T08:31:31Z</time>
      </trkpt>
      <trkpt lat="44.27282" lon="9.39549">
        <ele>1.1</ele>
        <time>2016-10-08T08:31:34Z</time>
      </trkpt>
      <trkpt lat="44.27296" lon="9.39636">
        <ele>1.58</ele>
        <time>2016-10-08T08:31:48Z</time>
      </trkpt>
      <trkpt lat="44.27298" lon="9.39682">
        <ele>1.58</ele>
        <time>2016-10-08T08:31:59Z</time>
      </trkpt>
      <trkpt lat="44.27297" lon="9.39685">
        <ele>1.58</ele>
        <time>2016-10-08T08:32:00Z</time>
      </trkpt>
      <trkpt lat="44.27296" lon="9.39692">
        <ele>2.06</ele>
        <time>2016-10-08T08:32:02Z</time>
      </trkpt>
      <trkpt lat="44.27294" lon="9.39694">
        <ele>1.58</ele>
        <time>2016-10-08T08:32:03Z</time>
      </trkpt>
      <trkpt lat="44.27292" lon="9.39697">
        <ele>1.58</ele>
        <time>2016-10-08T08:32:04Z</time>
      </trkpt>
      <trkpt lat="44.27261" lon="9.3973">
        <ele>1.58</ele>
        <time>2016-10-08T08:32:15Z</time>
      </trkpt>
      <trkpt lat="44.27249" lon="9.39752">
        <ele>1.58</ele>
        <time>2016-10-08T08:32:25Z</time>
      </trkpt>
      <trkpt lat="44.27237" lon="9.39786">
        <ele>1.58</ele>
        <time>2016-10-08T08:32:34Z</time>
      </trkpt>
      <trkpt lat="44.27234" lon="9.39789">
        <ele>1.58</ele>
        <time>2016-10-08T08:32:35Z</time>
      </trkpt>
      <trkpt lat="44.27216" lon="9.39858">
        <ele>1.1</ele>
        <time>2016-10-08T08:32:49Z</time>
      </trkpt>
      <trkpt lat="44.27216" lon="9.39863">
        <ele>1.58</ele>
        <time>2016-10-08T08:32:50Z</time>
      </trkpt>
      <trkpt lat="44.27204" lon="9.39932">
        <ele>2.06</ele>
        <time>2016-10-08T08:33:04Z</time>
      </trkpt>
      <trkpt lat="44.27194" lon="9.39978">
        <ele>2.06</ele>
        <time>2016-10-08T08:33:15Z</time>
      </trkpt>
      <trkpt lat="44.27187" lon="9.40034">
        <ele>2.54</ele>
        <time>2016-10-08T08:33:25Z</time>
      </trkpt>
      <trkpt lat="44.27169" lon="9.40143">
        <ele>2.54</ele>
        <time>2016-10-08T08:33:43Z</time>
      </trkpt>
      <trkpt lat="44.27156" lon="9.40242">
        <ele>3.5</ele>
        <time>2016-10-08T08:34:00Z</time>
      </trkpt>
      <trkpt lat="44.27147" lon="9.40301">
        <ele>3.98</ele>
        <time>2016-10-08T08:34:14Z</time>
      </trkpt>
      <trkpt lat="44.27143" lon="9.40332">
        <ele>4.46</ele>
        <time>2016-10-08T08:34:21Z</time>
      </trkpt>
      <trkpt lat="44.27145" lon="9.40337">
        <ele>3.98</ele>
        <time>2016-10-08T08:34:22Z</time>
      </trkpt>
      <trkpt lat="44.27148" lon="9.40339">
        <ele>4.46</ele>
        <time>2016-10-08T08:34:23Z</time>
      </trkpt>
      <trkpt lat="44.27151" lon="9.40342">
        <ele>3.98</ele>
        <time>2016-10-08T08:34:24Z</time>
      </trkpt>
      <trkpt lat="44.27154" lon="9.40345">
        <ele>3.5</ele>
        <time>2016-10-08T08:34:25Z</time>
      </trkpt>
      <trkpt lat="44.27157" lon="9.40347">
        <ele>4.46</ele>
        <time>2016-10-08T08:34:26Z</time>
      </trkpt>
      <trkpt lat="44.27159" lon="9.4035">
        <ele>4.94</ele>
        <time>2016-10-08T08:34:27Z</time>
      </trkpt>
      <trkpt lat="44.27167" lon="9.40356">
        <ele>4.94</ele>
        <time>2016-10-08T08:34:31Z</time>
      </trkpt>
      <trkpt lat="44.27166" lon="9.40357">
        <ele>4.46</ele>
        <time>2016-10-08T08:34:35Z</time>
      </trkpt>
      <trkpt lat="44.27153" lon="9.40358">
        <ele>4.94</ele>
        <time>2016-10-08T08:34:42Z</time>
      </trkpt>
      <trkpt lat="44.27153" lon="9.40361">
        <ele>4.46</ele>
        <time>2016-10-08T08:34:43Z</time>
      </trkpt>
      <trkpt lat="44.27152" lon="9.40364">
        <ele>4.94</ele>
        <time>2016-10-08T08:34:44Z</time>
      </trkpt>
      <trkpt lat="44.27152" lon="9.40367">
        <ele>4.46</ele>
        <time>2016-10-08T08:34:45Z</time>
      </trkpt>
      <trkpt lat="44.27151" lon="9.40371">
        <ele>4.94</ele>
        <time>2016-10-08T08:34:46Z</time>
      </trkpt>
      <trkpt lat="44.2714" lon="9.40446">
        <ele>4.46</ele>
        <time>2016-10-08T08:35:00Z</time>
      </trkpt>
      <trkpt lat="44.27131" lon="9.40504">
        <ele>3.98</ele>
        <time>2016-10-08T08:35:11Z</time>
      </trkpt>
      <trkpt lat="44.27129" lon="9.40506">
        <ele>4.94</ele>
        <time>2016-10-08T08:35:12Z</time>
      </trkpt>
      <trkpt lat="44.27126" lon="9.40507">
        <ele>3.98</ele>
        <time>2016-10-08T08:35:13Z</time>
      </trkpt>
      <trkpt lat="44.27123" lon="9.4051">
        <ele>3.98</ele>
        <time>2016-10-08T08:35:14Z</time>
      </trkpt>
      <trkpt lat="44.27122" lon="9.40513">
        <ele>4.46</ele>
        <time>2016-10-08T08:35:15Z</time>
      </trkpt>
      <trkpt lat="44.27121" lon="9.40517">
        <ele>3.98</ele>
        <time>2016-10-08T08:35:16Z</time>
      </trkpt>
      <trkpt lat="44.2712" lon="9.4052">
        <ele>3.98</ele>
        <time>2016-10-08T08:35:17Z</time>
      </trkpt>
      <trkpt lat="44.27113" lon="9.40555">
        <ele>4.46</ele>
        <time>2016-10-08T08:35:27Z</time>
      </trkpt>
      <trkpt lat="44.27102" lon="9.40593">
        <ele>4.46</ele>
        <time>2016-10-08T08:35:39Z</time>
      </trkpt>
      <trkpt lat="44.27102" lon="9.40595">
        <ele>4.46</ele>
        <time>2016-10-08T08:35:40Z</time>
      </trkpt>
      <trkpt lat="44.27092" lon="9.40657">
        <ele>4.46</ele>
        <time>2016-10-08T08:35:55Z</time>
      </trkpt>
      <trkpt lat="44.27082" lon="9.40744">
        <ele>4.94</ele>
        <time>2016-10-08T08:36:10Z</time>
      </trkpt>
      <trkpt lat="44.2707" lon="9.40828">
        <ele>5.91</ele>
        <time>2016-10-08T08:36:26Z</time>
      </trkpt>
      <trkpt lat="44.27064" lon="9.40833">
        <ele>5.42</ele>
        <time>2016-10-08T08:36:36Z</time>
      </trkpt>
      <trkpt lat="44.27065" lon="9.40835">
        <ele>5.91</ele>
        <time>2016-10-08T08:36:51Z</time>
      </trkpt>
      <trkpt lat="44.27058" lon="9.40858">
        <ele>5.91</ele>
        <time>2016-10-08T08:37:04Z</time>
      </trkpt>
      <trkpt lat="44.27053" lon="9.40908">
        <ele>6.39</ele>
        <time>2016-10-08T08:37:15Z</time>
      </trkpt>
      <trkpt lat="44.27045" lon="9.40964">
        <ele>6.87</ele>
        <time>2016-10-08T08:37:26Z</time>
      </trkpt>
      <trkpt lat="44.27044" lon="9.40976">
        <ele>6.87</ele>
        <time>2016-10-08T08:37:28Z</time>
      </trkpt>
      <trkpt lat="44.27044" lon="9.40982">
        <ele>6.87</ele>
        <time>2016-10-08T08:37:29Z</time>
      </trkpt>
      <trkpt lat="44.27044" lon="9.40989">
        <ele>6.39</ele>
        <time>2016-10-08T08:37:30Z</time>
      </trkpt>
      <trkpt lat="44.27043" lon="9.40995">
        <ele>6.39</ele>
        <time>2016-10-08T08:37:31Z</time>
      </trkpt>
      <trkpt lat="44.27042" lon="9.41001">
        <ele>7.35</ele>
        <time>2016-10-08T08:37:32Z</time>
      </trkpt>
      <trkpt lat="44.27041" lon="9.41007">
        <ele>6.87</ele>
        <time>2016-10-08T08:37:33Z</time>
      </trkpt>
      <trkpt lat="44.2703" lon="9.41067">
        <ele>7.35</ele>
        <time>2016-10-08T08:37:43Z</time>
      </trkpt>
      <trkpt lat="44.2703" lon="9.41073">
        <ele>6.87</ele>
        <time>2016-10-08T08:37:44Z</time>
      </trkpt>
      <trkpt lat="44.27029" lon="9.41079">
        <ele>6.87</ele>
        <time>2016-10-08T08:37:45Z</time>
      </trkpt>
      <trkpt lat="44.27027" lon="9.41084">
        <ele>6.87</ele>
        <time>2016-10-08T08:37:46Z</time>
      </trkpt>
      <trkpt lat="44.27025" lon="9.4109">
        <ele>7.35</ele>
        <time>2016-10-08T08:37:47Z</time>
      </trkpt>
      <trkpt lat="44.26993" lon="9.41195">
        <ele>6.87</ele>
        <time>2016-10-08T08:38:04Z</time>
      </trkpt>
      <trkpt lat="44.26964" lon="9.41288">
        <ele>7.35</ele>
        <time>2016-10-08T08:38:20Z</time>
      </trkpt>
      <trkpt lat="44.26957" lon="9.41313">
        <ele>6.87</ele>
        <time>2016-10-08T08:38:27Z</time>
      </trkpt>
      <trkpt lat="44.26957" lon="9.41315">
        <ele>7.35</ele>
        <time>2016-10-08T08:38:28Z</time>
      </trkpt>
      <trkpt lat="44.26957" lon="9.41318">
        <ele>7.35</ele>
        <time>2016-10-08T08:38:41Z</time>
      </trkpt>
      <trkpt lat="44.26955" lon="9.41331">
        <ele>7.83</ele>
        <time>2016-10-08T08:38:46Z</time>
      </trkpt>
      <trkpt lat="44.26953" lon="9.41335">
        <ele>7.35</ele>
        <time>2016-10-08T08:38:47Z</time>
      </trkpt>
      <trkpt lat="44.26937" lon="9.41377">
        <ele>7.35</ele>
        <time>2016-10-08T08:38:55Z</time>
      </trkpt>
      <trkpt lat="44.26934" lon="9.41381">
        <ele>6.87</ele>
        <time>2016-10-08T08:38:56Z</time>
      </trkpt>
      <trkpt lat="44.26931" lon="9.41385">
        <ele>6.87</ele>
        <time>2016-10-08T08:38:57Z</time>
      </trkpt>
      <trkpt lat="44.26928" lon="9.4139">
        <ele>7.35</ele>
        <time>2016-10-08T08:38:58Z</time>
      </trkpt>
      <trkpt lat="44.26925" lon="9.41396">
        <ele>7.35</ele>
        <time>2016-10-08T08:38:59Z</time>
      </trkpt>
      <trkpt lat="44.26923" lon="9.41401">
        <ele>7.35</ele>
        <time>2016-10-08T08:39:00Z</time>
      </trkpt>
      <trkpt lat="44.2689" lon="9.41492">
        <ele>7.35</ele>
        <time>2016-10-08T08:39:15Z</time>
      </trkpt>
      <trkpt lat="44.26881" lon="9.41516">
        <ele>7.83</ele>
        <time>2016-10-08T08:39:19Z</time>
      </trkpt>
      <trkpt lat="44.26877" lon="9.41535">
        <ele>7.83</ele>
        <time>2016-10-08T08:39:22Z</time>
      </trkpt>
      <trkpt lat="44.26876" lon="9.41564">
        <ele>7.35</ele>
        <time>2016-10-08T08:39:27Z</time>
      </trkpt>
      <trkpt lat="44.26879" lon="9.41582">
        <ele>6.87</ele>
        <time>2016-10-08T08:39:30Z</time>
      </trkpt>
      <trkpt lat="44.26878" lon="9.41588">
        <ele>7.35</ele>
        <time>2016-10-08T08:39:31Z</time>
      </trkpt>
      <trkpt lat="44.26877" lon="9.41594">
        <ele>7.35</ele>
        <time>2016-10-08T08:39:32Z</time>
      </trkpt>
      <trkpt lat="44.26867" lon="9.4163">
        <ele>7.35</ele>
        <time>2016-10-08T08:39:38Z</time>
      </trkpt>
      <trkpt lat="44.26862" lon="9.41659">
        <ele>7.35</ele>
        <time>2016-10-08T08:39:43Z</time>
      </trkpt>
      <trkpt lat="44.26862" lon="9.41665">
        <ele>7.35</ele>
        <time>2016-10-08T08:39:44Z</time>
      </trkpt>
      <trkpt lat="44.26849" lon="9.41707">
        <ele>8.31</ele>
        <time>2016-10-08T08:39:53Z</time>
      </trkpt>
      <trkpt lat="44.26833" lon="9.41794">
        <ele>8.31</ele>
        <time>2016-10-08T08:40:08Z</time>
      </trkpt>
      <trkpt lat="44.26811" lon="9.41902">
        <ele>9.27</ele>
        <time>2016-10-08T08:40:25Z</time>
      </trkpt>
      <trkpt lat="44.26794" lon="9.41993">
        <ele>9.27</ele>
        <time>2016-10-08T08:40:40Z</time>
      </trkpt>
      <trkpt lat="44.26794" lon="9.42">
        <ele>9.27</ele>
        <time>2016-10-08T08:40:41Z</time>
      </trkpt>
      <trkpt lat="44.26794" lon="9.42006">
        <ele>9.27</ele>
        <time>2016-10-08T08:40:42Z</time>
      </trkpt>
      <trkpt lat="44.26794" lon="9.42012">
        <ele>9.27</ele>
        <time>2016-10-08T08:40:43Z</time>
      </trkpt>
      <trkpt lat="44.26792" lon="9.42019">
        <ele>9.27</ele>
        <time>2016-10-08T08:40:44Z</time>
      </trkpt>
      <trkpt lat="44.2679" lon="9.42025">
        <ele>9.27</ele>
        <time>2016-10-08T08:40:45Z</time>
      </trkpt>
      <trkpt lat="44.26768" lon="9.42129">
        <ele>9.75</ele>
        <time>2016-10-08T08:41:01Z</time>
      </trkpt>
      <trkpt lat="44.26746" lon="9.42231">
        <ele>9.75</ele>
        <time>2016-10-08T08:41:17Z</time>
      </trkpt>
      <trkpt lat="44.26742" lon="9.42243">
        <ele>9.75</ele>
        <time>2016-10-08T08:41:19Z</time>
      </trkpt>
      <trkpt lat="44.2674" lon="9.42248">
        <ele>9.75</ele>
        <time>2016-10-08T08:41:20Z</time>
      </trkpt>
      <trkpt lat="44.26707" lon="9.4231">
        <ele>9.75</ele>
        <time>2016-10-08T08:41:32Z</time>
      </trkpt>
      <trkpt lat="44.26699" lon="9.42324">
        <ele>10.23</ele>
        <time>2016-10-08T08:41:35Z</time>
      </trkpt>
      <trkpt lat="44.26696" lon="9.42329">
        <ele>10.23</ele>
        <time>2016-10-08T08:41:36Z</time>
      </trkpt>
      <trkpt lat="44.26669" lon="9.4243">
        <ele>9.75</ele>
        <time>2016-10-08T08:41:53Z</time>
      </trkpt>
      <trkpt lat="44.26661" lon="9.42468">
        <ele>10.23</ele>
        <time>2016-10-08T08:41:59Z</time>
      </trkpt>
      <trkpt lat="44.26656" lon="9.42506">
        <ele>9.75</ele>
        <time>2016-10-08T08:42:10Z</time>
      </trkpt>
      <trkpt lat="44.26658" lon="9.42508">
        <ele>9.75</ele>
        <time>2016-10-08T08:42:32Z</time>
      </trkpt>
      <trkpt lat="44.2665" lon="9.42522">
        <ele>10.23</ele>
        <time>2016-10-08T08:42:50Z</time>
      </trkpt>
      <trkpt lat="44.26654" lon="9.42525">
        <ele>10.23</ele>
        <time>2016-10-08T08:42:52Z</time>
      </trkpt>
      <trkpt lat="44.2668" lon="9.42525">
        <ele>11.67</ele>
        <time>2016-10-08T08:43:04Z</time>
      </trkpt>
      <trkpt lat="44.26688" lon="9.42531">
        <ele>12.15</ele>
        <time>2016-10-08T08:43:21Z</time>
      </trkpt>
      <trkpt lat="44.26688" lon="9.42532">
        <ele>12.15</ele>
        <time>2016-10-08T08:43:33Z</time>
      </trkpt>
      <trkpt lat="44.26683" lon="9.42543">
        <ele>13.12</ele>
        <time>2016-10-08T08:43:38Z</time>
      </trkpt>
      <trkpt lat="44.2666" lon="9.42591">
        <ele>14.08</ele>
        <time>2016-10-08T08:43:55Z</time>
      </trkpt>
      <trkpt lat="44.26641" lon="9.42626">
        <ele>14.56</ele>
        <time>2016-10-08T08:44:09Z</time>
      </trkpt>
      <trkpt lat="44.26643" lon="9.42628">
        <ele>15.04</ele>
        <time>2016-10-08T08:44:11Z</time>
      </trkpt>
      <trkpt lat="44.26645" lon="9.42627">
        <ele>15.04</ele>
        <time>2016-10-08T08:44:12Z</time>
      </trkpt>
      <trkpt lat="44.26648" lon="9.42624">
        <ele>14.56</ele>
        <time>2016-10-08T08:44:13Z</time>
      </trkpt>
      <trkpt lat="44.2665" lon="9.4262">
        <ele>14.56</ele>
        <time>2016-10-08T08:44:14Z</time>
      </trkpt>
      <trkpt lat="44.26652" lon="9.42616">
        <ele>14.08</ele>
        <time>2016-10-08T08:44:15Z</time>
      </trkpt>
      <trkpt lat="44.26696" lon="9.42532">
        <ele>14.56</ele>
        <time>2016-10-08T08:44:32Z</time>
      </trkpt>
      <trkpt lat="44.26698" lon="9.42528">
        <ele>13.6</ele>
        <time>2016-10-08T08:44:33Z</time>
      </trkpt>
      <trkpt lat="44.26701" lon="9.42524">
        <ele>13.12</ele>
        <time>2016-10-08T08:44:34Z</time>
      </trkpt>
      <trkpt lat="44.26704" lon="9.42522">
        <ele>13.6</ele>
        <time>2016-10-08T08:44:35Z</time>
      </trkpt>
      <trkpt lat="44.26708" lon="9.4252">
        <ele>13.12</ele>
        <time>2016-10-08T08:44:36Z</time>
      </trkpt>
      <trkpt lat="44.26712" lon="9.42519">
        <ele>13.6</ele>
        <time>2016-10-08T08:44:37Z</time>
      </trkpt>
      <trkpt lat="44.26717" lon="9.42519">
        <ele>12.63</ele>
        <time>2016-10-08T08:44:38Z</time>
      </trkpt>
      <trkpt lat="44.26721" lon="9.4252">
        <ele>13.6</ele>
        <time>2016-10-08T08:44:39Z</time>
      </trkpt>
      <trkpt lat="44.26755" lon="9.42522">
        <ele>13.6</ele>
        <time>2016-10-08T08:44:46Z</time>
      </trkpt>
      <trkpt lat="44.26794" lon="9.42523">
        <ele>12.63</ele>
        <time>2016-10-08T08:44:54Z</time>
      </trkpt>
      <trkpt lat="44.26798" lon="9.42524">
        <ele>12.63</ele>
        <time>2016-10-08T08:44:55Z</time>
      </trkpt>
      <trkpt lat="44.26803" lon="9.42526">
        <ele>13.12</ele>
        <time>2016-10-08T08:44:56Z</time>
      </trkpt>
      <trkpt lat="44.26831" lon="9.42536">
        <ele>13.12</ele>
        <time>2016-10-08T08:45:02Z</time>
      </trkpt>
      <trkpt lat="44.26839" lon="9.42539">
        <ele>13.6</ele>
        <time>2016-10-08T08:45:04Z</time>
      </trkpt>
      <trkpt lat="44.26908" lon="9.42572">
        <ele>14.08</ele>
        <time>2016-10-08T08:45:20Z</time>
      </trkpt>
      <trkpt lat="44.26952" lon="9.42595">
        <ele>13.6</ele>
        <time>2016-10-08T08:45:32Z</time>
      </trkpt>
      <trkpt lat="44.26961" lon="9.426">
        <ele>13.12</ele>
        <time>2016-10-08T08:45:34Z</time>
      </trkpt>
      <trkpt lat="44.26965" lon="9.42601">
        <ele>13.12</ele>
        <time>2016-10-08T08:45:35Z</time>
      </trkpt>
      <trkpt lat="44.27008" lon="9.42606">
        <ele>12.63</ele>
        <time>2016-10-08T08:45:48Z</time>
      </trkpt>
      <trkpt lat="44.27012" lon="9.42606">
        <ele>12.63</ele>
        <time>2016-10-08T08:45:51Z</time>
      </trkpt>
      <trkpt lat="44.27013" lon="9.42607">
        <ele>13.12</ele>
        <time>2016-10-08T08:45:52Z</time>
      </trkpt>
      <trkpt lat="44.27015" lon="9.42608">
        <ele>12.63</ele>
        <time>2016-10-08T08:45:53Z</time>
      </trkpt>
      <trkpt lat="44.27016" lon="9.42609">
        <ele>13.12</ele>
        <time>2016-10-08T08:45:54Z</time>
      </trkpt>
      <trkpt lat="44.27019" lon="9.42613">
        <ele>12.63</ele>
        <time>2016-10-08T08:45:55Z</time>
      </trkpt>
      <trkpt lat="44.27025" lon="9.42666">
        <ele>13.12</ele>
        <time>2016-10-08T08:46:05Z</time>
      </trkpt>
      <trkpt lat="44.27027" lon="9.42726">
        <ele>13.6</ele>
        <time>2016-10-08T08:46:18Z</time>
      </trkpt>
      <trkpt lat="44.27033" lon="9.42784">
        <ele>14.08</ele>
        <time>2016-10-08T08:46:28Z</time>
      </trkpt>
      <trkpt lat="44.2704" lon="9.42868">
        <ele>15.52</ele>
        <time>2016-10-08T08:46:43Z</time>
      </trkpt>
      <trkpt lat="44.27041" lon="9.42943">
        <ele>15.04</ele>
        <time>2016-10-08T08:46:57Z</time>
      </trkpt>
      <trkpt lat="44.27042" lon="9.43041">
        <ele>15.52</ele>
        <time>2016-10-08T08:47:12Z</time>
      </trkpt>
      <trkpt lat="44.27049" lon="9.43161">
        <ele>15.04</ele>
        <time>2016-10-08T08:47:30Z</time>
      </trkpt>
      <trkpt lat="44.27049" lon="9.43189">
        <ele>16.48</ele>
        <time>2016-10-08T08:47:36Z</time>
      </trkpt>
      <trkpt lat="44.27051" lon="9.43236">
        <ele>16</ele>
        <time>2016-10-08T08:47:48Z</time>
      </trkpt>
      <trkpt lat="44.27049" lon="9.43241">
        <ele>15.52</ele>
        <time>2016-10-08T08:47:49Z</time>
      </trkpt>
      <trkpt lat="44.27046" lon="9.43246">
        <ele>15.52</ele>
        <time>2016-10-08T08:47:50Z</time>
      </trkpt>
      <trkpt lat="44.27043" lon="9.4325">
        <ele>15.52</ele>
        <time>2016-10-08T08:47:51Z</time>
      </trkpt>
      <trkpt lat="44.27041" lon="9.43255">
        <ele>15.52</ele>
        <time>2016-10-08T08:47:52Z</time>
      </trkpt>
      <trkpt lat="44.27039" lon="9.4326">
        <ele>16</ele>
        <time>2016-10-08T08:47:53Z</time>
      </trkpt>
      <trkpt lat="44.27037" lon="9.43265">
        <ele>15.52</ele>
        <time>2016-10-08T08:47:54Z</time>
      </trkpt>
      <trkpt lat="44.27036" lon="9.43271">
        <ele>15.52</ele>
        <time>2016-10-08T08:47:55Z</time>
      </trkpt>
      <trkpt lat="44.27035" lon="9.43278">
        <ele>15.52</ele>
        <time>2016-10-08T08:47:56Z</time>
      </trkpt>
      <trkpt lat="44.27022" lon="9.43386">
        <ele>15.04</ele>
        <time>2016-10-08T08:48:12Z</time>
      </trkpt>
      <trkpt lat="44.27017" lon="9.43411">
        <ele>15.52</ele>
        <time>2016-10-08T08:48:16Z</time>
      </trkpt>
      <trkpt lat="44.27016" lon="9.43417">
        <ele>15.52</ele>
        <time>2016-10-08T08:48:17Z</time>
      </trkpt>
      <trkpt lat="44.27011" lon="9.43519">
        <ele>16</ele>
        <time>2016-10-08T08:48:32Z</time>
      </trkpt>
      <trkpt lat="44.27003" lon="9.43643">
        <ele>16.48</ele>
        <time>2016-10-08T08:48:51Z</time>
      </trkpt>
      <trkpt lat="44.26996" lon="9.43734">
        <ele>16.96</ele>
        <time>2016-10-08T08:49:06Z</time>
      </trkpt>
      <trkpt lat="44.26987" lon="9.43853">
        <ele>18.4</ele>
        <time>2016-10-08T08:49:25Z</time>
      </trkpt>
      <trkpt lat="44.26978" lon="9.43979">
        <ele>18.88</ele>
        <time>2016-10-08T08:49:45Z</time>
      </trkpt>
      <trkpt lat="44.26983" lon="9.44108">
        <ele>19.36</ele>
        <time>2016-10-08T08:50:06Z</time>
      </trkpt>
      <trkpt lat="44.26993" lon="9.44176">
        <ele>19.84</ele>
        <time>2016-10-08T08:50:21Z</time>
      </trkpt>
      <trkpt lat="44.2699" lon="9.44182">
        <ele>20.32</ele>
        <time>2016-10-08T08:50:32Z</time>
      </trkpt>
      <trkpt lat="44.26989" lon="9.44186">
        <ele>20.32</ele>
        <time>2016-10-08T08:50:45Z</time>
      </trkpt>
      <trkpt lat="44.26998" lon="9.44223">
        <ele>20.32</ele>
        <time>2016-10-08T08:50:57Z</time>
      </trkpt>
      <trkpt lat="44.27024" lon="9.44304">
        <ele>20.81</ele>
        <time>2016-10-08T08:51:14Z</time>
      </trkpt>
      <trkpt lat="44.27047" lon="9.44373">
        <ele>21.77</ele>
        <time>2016-10-08T08:51:28Z</time>
      </trkpt>
      <trkpt lat="44.27049" lon="9.44379">
        <ele>21.77</ele>
        <time>2016-10-08T08:51:29Z</time>
      </trkpt>
      <trkpt lat="44.27051" lon="9.44384">
        <ele>21.77</ele>
        <time>2016-10-08T08:51:30Z</time>
      </trkpt>
      <trkpt lat="44.27087" lon="9.44486">
        <ele>22.25</ele>
        <time>2016-10-08T08:51:48Z</time>
      </trkpt>
      <trkpt lat="44.27122" lon="9.44581">
        <ele>22.73</ele>
        <time>2016-10-08T08:52:05Z</time>
      </trkpt>
      <trkpt lat="44.27165" lon="9.44709">
        <ele>23.21</ele>
        <time>2016-10-08T08:52:28Z</time>
      </trkpt>
      <trkpt lat="44.27176" lon="9.44744">
        <ele>23.69</ele>
        <time>2016-10-08T08:52:34Z</time>
      </trkpt>
      <trkpt lat="44.27178" lon="9.4475">
        <ele>24.17</ele>
        <time>2016-10-08T08:52:35Z</time>
      </trkpt>
      <trkpt lat="44.27208" lon="9.44839">
        <ele>23.69</ele>
        <time>2016-10-08T08:52:51Z</time>
      </trkpt>
      <trkpt lat="44.27233" lon="9.44907">
        <ele>25.61</ele>
        <time>2016-10-08T08:53:07Z</time>
      </trkpt>
      <trkpt lat="44.27242" lon="9.44955">
        <ele>26.09</ele>
        <time>2016-10-08T08:53:18Z</time>
      </trkpt>
      <trkpt lat="44.27259" lon="9.45004">
        <ele>26.57</ele>
        <time>2016-10-08T08:53:29Z</time>
      </trkpt>
      <trkpt lat="44.27266" lon="9.45033">
        <ele>27.05</ele>
        <time>2016-10-08T08:53:40Z</time>
      </trkpt>
      <trkpt lat="44.27279" lon="9.45085">
        <ele>27.05</ele>
        <time>2016-10-08T08:53:52Z</time>
      </trkpt>
      <trkpt lat="44.27298" lon="9.4516">
        <ele>28.02</ele>
        <time>2016-10-08T08:54:08Z</time>
      </trkpt>
      <trkpt lat="44.27315" lon="9.4522">
        <ele>28.5</ele>
        <time>2016-10-08T08:54:25Z</time>
      </trkpt>
      <trkpt lat="44.27319" lon="9.45224">
        <ele>28.98</ele>
        <time>2016-10-08T08:54:27Z</time>
      </trkpt>
      <trkpt lat="44.2735" lon="9.45231">
        <ele>28.5</ele>
        <time>2016-10-08T08:54:38Z</time>
      </trkpt>
      <trkpt lat="44.27385" lon="9.45266">
        <ele>28.5</ele>
        <time>2016-10-08T08:54:52Z</time>
      </trkpt>
      <trkpt lat="44.27398" lon="9.45303">
        <ele>29.46</ele>
        <time>2016-10-08T08:55:01Z</time>
      </trkpt>
      <trkpt lat="44.27409" lon="9.45351">
        <ele>30.42</ele>
        <time>2016-10-08T08:55:13Z</time>
      </trkpt>
      <trkpt lat="44.2741" lon="9.45352">
        <ele>30.42</ele>
        <time>2016-10-08T08:55:14Z</time>
      </trkpt>
      <trkpt lat="44.27412" lon="9.45352">
        <ele>30.42</ele>
        <time>2016-10-08T08:55:15Z</time>
      </trkpt>
      <trkpt lat="44.27413" lon="9.45351">
        <ele>29.94</ele>
        <time>2016-10-08T08:55:16Z</time>
      </trkpt>
      <trkpt lat="44.27415" lon="9.4535">
        <ele>29.46</ele>
        <time>2016-10-08T08:55:17Z</time>
      </trkpt>
      <trkpt lat="44.27417" lon="9.45349">
        <ele>30.42</ele>
        <time>2016-10-08T08:55:18Z</time>
      </trkpt>
      <trkpt lat="44.2742" lon="9.45347">
        <ele>30.42</ele>
        <time>2016-10-08T08:55:19Z</time>
      </trkpt>
      <trkpt lat="44.27447" lon="9.45356">
        <ele>28.98</ele>
        <time>2016-10-08T08:55:28Z</time>
      </trkpt>
      <trkpt lat="44.27458" lon="9.45376">
        <ele>28.98</ele>
        <time>2016-10-08T08:55:33Z</time>
      </trkpt>
      <trkpt lat="44.27461" lon="9.45376">
        <ele>28.98</ele>
        <time>2016-10-08T08:55:34Z</time>
      </trkpt>
      <trkpt lat="44.27463" lon="9.45375">
        <ele>28.98</ele>
        <time>2016-10-08T08:55:35Z</time>
      </trkpt>
      <trkpt lat="44.27504" lon="9.45379">
        <ele>29.46</ele>
        <time>2016-10-08T08:55:48Z</time>
      </trkpt>
      <trkpt lat="44.27536" lon="9.45384">
        <ele>29.94</ele>
        <time>2016-10-08T08:55:58Z</time>
      </trkpt>
      <trkpt lat="44.27538" lon="9.45385">
        <ele>30.42</ele>
        <time>2016-10-08T08:55:59Z</time>
      </trkpt>
      <trkpt lat="44.27537" lon="9.45378">
        <ele>29.46</ele>
        <time>2016-10-08T08:56:06Z</time>
      </trkpt>
      <trkpt lat="44.27535" lon="9.45379">
        <ele>30.42</ele>
        <time>2016-10-08T08:56:07Z</time>
      </trkpt>
      <trkpt lat="44.2752" lon="9.4538">
        <ele>30.42</ele>
        <time>2016-10-08T08:56:12Z</time>
      </trkpt>
      <trkpt lat="44.27514" lon="9.45377">
        <ele>29.94</ele>
        <time>2016-10-08T08:56:14Z</time>
      </trkpt>
      <trkpt lat="44.27483" lon="9.45365">
        <ele>29.46</ele>
        <time>2016-10-08T08:56:23Z</time>
      </trkpt>
      <trkpt lat="44.27471" lon="9.45327">
        <ele>29.94</ele>
        <time>2016-10-08T08:56:31Z</time>
      </trkpt>
      <trkpt lat="44.27467" lon="9.45325">
        <ele>29.94</ele>
        <time>2016-10-08T08:56:32Z</time>
      </trkpt>
      <trkpt lat="44.27463" lon="9.45325">
        <ele>29.94</ele>
        <time>2016-10-08T08:56:33Z</time>
      </trkpt>
      <trkpt lat="44.27423" lon="9.45334">
        <ele>30.42</ele>
        <time>2016-10-08T08:56:44Z</time>
      </trkpt>
      <trkpt lat="44.27407" lon="9.45339">
        <ele>31.38</ele>
        <time>2016-10-08T08:56:53Z</time>
      </trkpt>
      <trkpt lat="44.27406" lon="9.45342">
        <ele>30.9</ele>
        <time>2016-10-08T08:56:54Z</time>
      </trkpt>
      <trkpt lat="44.27405" lon="9.45345">
        <ele>31.38</ele>
        <time>2016-10-08T08:56:55Z</time>
      </trkpt>
      <trkpt lat="44.27406" lon="9.45349">
        <ele>31.38</ele>
        <time>2016-10-08T08:56:56Z</time>
      </trkpt>
      <trkpt lat="44.27406" lon="9.45352">
        <ele>31.38</ele>
        <time>2016-10-08T08:56:57Z</time>
      </trkpt>
      <trkpt lat="44.27407" lon="9.45356">
        <ele>31.86</ele>
        <time>2016-10-08T08:56:58Z</time>
      </trkpt>
      <trkpt lat="44.27409" lon="9.45361">
        <ele>31.86</ele>
        <time>2016-10-08T08:56:59Z</time>
      </trkpt>
      <trkpt lat="44.2741" lon="9.45366">
        <ele>31.86</ele>
        <time>2016-10-08T08:57:00Z</time>
      </trkpt>
      <trkpt lat="44.27423" lon="9.45411">
        <ele>31.38</ele>
        <time>2016-10-08T08:57:09Z</time>
      </trkpt>
      <trkpt lat="44.27425" lon="9.45417">
        <ele>31.38</ele>
        <time>2016-10-08T08:57:10Z</time>
      </trkpt>
      <trkpt lat="44.27427" lon="9.45423">
        <ele>31.38</ele>
        <time>2016-10-08T08:57:11Z</time>
      </trkpt>
      <trkpt lat="44.27431" lon="9.45434">
        <ele>30.9</ele>
        <time>2016-10-08T08:57:13Z</time>
      </trkpt>
      <trkpt lat="44.27441" lon="9.45462">
        <ele>30.9</ele>
        <time>2016-10-08T08:57:18Z</time>
      </trkpt>
      <trkpt lat="44.27449" lon="9.45478">
        <ele>30.9</ele>
        <time>2016-10-08T08:57:21Z</time>
      </trkpt>
      <trkpt lat="44.27452" lon="9.45483">
        <ele>31.38</ele>
        <time>2016-10-08T08:57:22Z</time>
      </trkpt>
      <trkpt lat="44.27475" lon="9.45553">
        <ele>33.78</ele>
        <time>2016-10-08T08:57:37Z</time>
      </trkpt>
      <trkpt lat="44.27482" lon="9.45612">
        <ele>34.26</ele>
        <time>2016-10-08T08:57:50Z</time>
      </trkpt>
      <trkpt lat="44.2748" lon="9.45669">
        <ele>35.23</ele>
        <time>2016-10-08T08:58:02Z</time>
      </trkpt>
      <trkpt lat="44.27487" lon="9.45726">
        <ele>34.74</ele>
        <time>2016-10-08T08:58:14Z</time>
      </trkpt>
      <trkpt lat="44.27489" lon="9.45727">
        <ele>34.26</ele>
        <time>2016-10-08T08:58:15Z</time>
      </trkpt>
      <trkpt lat="44.27492" lon="9.45729">
        <ele>35.23</ele>
        <time>2016-10-08T08:58:18Z</time>
      </trkpt>
      <trkpt lat="44.2749" lon="9.45731">
        <ele>35.71</ele>
        <time>2016-10-08T08:58:31Z</time>
      </trkpt>
      <trkpt lat="44.27494" lon="9.45725">
        <ele>36.67</ele>
        <time>2016-10-08T08:58:44Z</time>
      </trkpt>
      <trkpt lat="44.27489" lon="9.45719">
        <ele>36.19</ele>
        <time>2016-10-08T08:58:59Z</time>
      </trkpt>
      <trkpt lat="44.27484" lon="9.45717">
        <ele>36.67</ele>
        <time>2016-10-08T08:59:08Z</time>
      </trkpt>
      <trkpt lat="44.27482" lon="9.45718">
        <ele>35.71</ele>
        <time>2016-10-08T08:59:19Z</time>
      </trkpt>
      <trkpt lat="44.2748" lon="9.45721">
        <ele>36.19</ele>
        <time>2016-10-08T08:59:45Z</time>
      </trkpt>
      <trkpt lat="44.27477" lon="9.45726">
        <ele>37.15</ele>
        <time>2016-10-08T09:00:19Z</time>
      </trkpt>
      <trkpt lat="44.27477" lon="9.45728">
        <ele>37.15</ele>
        <time>2016-10-08T09:00:46Z</time>
      </trkpt>
      <trkpt lat="44.27481" lon="9.45715">
        <ele>37.63</ele>
        <time>2016-10-08T09:01:16Z</time>
      </trkpt>
      <trkpt lat="44.27481" lon="9.45718">
        <ele>37.63</ele>
        <time>2016-10-08T09:01:39Z</time>
      </trkpt>
      <trkpt lat="44.27478" lon="9.45716">
        <ele>38.59</ele>
        <time>2016-10-08T09:02:04Z</time>
      </trkpt>
      <trkpt lat="44.2748" lon="9.45723">
        <ele>38.59</ele>
        <time>2016-10-08T09:02:32Z</time>
      </trkpt>
      <trkpt lat="44.27481" lon="9.45726">
        <ele>39.55</ele>
        <time>2016-10-08T09:03:01Z</time>
      </trkpt>
      <trkpt lat="44.2748" lon="9.45721">
        <ele>39.55</ele>
        <time>2016-10-08T09:03:24Z</time>
      </trkpt>
      <trkpt lat="44.27484" lon="9.45723">
        <ele>40.03</ele>
        <time>2016-10-08T09:03:52Z</time>
      </trkpt>
      <trkpt lat="44.27484" lon="9.45724">
        <ele>40.51</ele>
        <time>2016-10-08T09:04:15Z</time>
      </trkpt>
      <trkpt lat="44.2748" lon="9.45727">
        <ele>40.99</ele>
        <time>2016-10-08T09:04:45Z</time>
      </trkpt>
      <trkpt lat="44.27479" lon="9.45723">
        <ele>40.51</ele>
        <time>2016-10-08T09:05:09Z</time>
      </trkpt>
      <trkpt lat="44.27479" lon="9.45721">
        <ele>40.03</ele>
        <time>2016-10-08T09:05:18Z</time>
      </trkpt>
      <trkpt lat="44.27477" lon="9.45718">
        <ele>40.99</ele>
        <time>2016-10-08T09:05:40Z</time>
      </trkpt>
      <trkpt lat="44.27476" lon="9.45717">
        <ele>40.99</ele>
        <time>2016-10-08T09:06:12Z</time>
      </trkpt>
      <trkpt lat="44.27476" lon="9.45715">
        <ele>40.99</ele>
        <time>2016-10-08T09:06:38Z</time>
      </trkpt>
      <trkpt lat="44.2748" lon="9.4572">
        <ele>40.51</ele>
        <time>2016-10-08T09:07:19Z</time>
      </trkpt>
      <trkpt lat="44.2748" lon="9.45721">
        <ele>41.47</ele>
        <time>2016-10-08T09:07:47Z</time>
      </trkpt>
      <trkpt lat="44.27482" lon="9.45722">
        <ele>41.95</ele>
        <time>2016-10-08T09:08:14Z</time>
      </trkpt>
      <trkpt lat="44.27481" lon="9.45719">
        <ele>40.99</ele>
        <time>2016-10-08T09:08:39Z</time>
      </trkpt>
      <trkpt lat="44.27482" lon="9.45719">
        <ele>41.95</ele>
        <time>2016-10-08T09:09:02Z</time>
      </trkpt>
      <trkpt lat="44.27481" lon="9.4572">
        <ele>41.47</ele>
        <time>2016-10-08T09:09:26Z</time>
      </trkpt>
      <trkpt lat="44.2748" lon="9.45714">
        <ele>41.95</ele>
        <time>2016-10-08T09:09:50Z</time>
      </trkpt>
      <trkpt lat="44.27483" lon="9.45711">
        <ele>41.47</ele>
        <time>2016-10-08T09:10:05Z</time>
      </trkpt>
      <trkpt lat="44.2748" lon="9.45715">
        <ele>41.95</ele>
        <time>2016-10-08T09:10:23Z</time>
      </trkpt>
      <trkpt lat="44.27481" lon="9.45713">
        <ele>41.95</ele>
        <time>2016-10-08T09:10:43Z</time>
      </trkpt>
      <trkpt lat="44.2748" lon="9.45717">
        <ele>41.95</ele>
        <time>2016-10-08T09:11:08Z</time>
      </trkpt>
      <trkpt lat="44.27479" lon="9.45719">
        <ele>40.99</ele>
        <time>2016-10-08T09:11:29Z</time>
      </trkpt>
      <trkpt lat="44.27481" lon="9.45722">
        <ele>41.95</ele>
        <time>2016-10-08T09:11:54Z</time>
      </trkpt>
      <trkpt lat="44.27481" lon="9.45721">
        <ele>41.95</ele>
        <time>2016-10-08T09:12:18Z</time>
      </trkpt>
      <trkpt lat="44.2748" lon="9.45722">
        <ele>41.95</ele>
        <time>2016-10-08T09:12:39Z</time>
      </trkpt>
      <trkpt lat="44.27476" lon="9.45725">
        <ele>41.95</ele>
        <time>2016-10-08T09:12:57Z</time>
      </trkpt>
      <trkpt lat="44.27479" lon="9.45722">
        <ele>41.95</ele>
        <time>2016-10-08T09:13:17Z</time>
      </trkpt>
      <trkpt lat="44.2748" lon="9.45721">
        <ele>41.95</ele>
        <time>2016-10-08T09:13:44Z</time>
      </trkpt>
      <trkpt lat="44.27478" lon="9.45718">
        <ele>41.95</ele>
        <time>2016-10-08T09:14:10Z</time>
      </trkpt>
      <trkpt lat="44.27479" lon="9.45719">
        <ele>42.44</ele>
        <time>2016-10-08T09:14:47Z</time>
      </trkpt>
      <trkpt lat="44.27478" lon="9.45716">
        <ele>42.92</ele>
        <time>2016-10-08T09:15:16Z</time>
      </trkpt>
      <trkpt lat="44.27479" lon="9.45715">
        <ele>43.4</ele>
        <time>2016-10-08T09:15:42Z</time>
      </trkpt>
      <trkpt lat="44.27479" lon="9.45715">
        <ele>42.44</ele>
        <time>2016-10-08T09:16:05Z</time>
      </trkpt>
      <trkpt lat="44.27482" lon="9.45718">
        <ele>43.4</ele>
        <time>2016-10-08T09:16:20Z</time>
      </trkpt>
      <trkpt lat="44.27483" lon="9.4572">
        <ele>42.92</ele>
        <time>2016-10-08T09:16:34Z</time>
      </trkpt>
      <trkpt lat="44.27481" lon="9.45721">
        <ele>42.92</ele>
        <time>2016-10-08T09:16:47Z</time>
      </trkpt>
      <trkpt lat="44.2748" lon="9.45721">
        <ele>42.92</ele>
        <time>2016-10-08T09:16:49Z</time>
      </trkpt>
      <trkpt lat="44.27479" lon="9.45721">
        <ele>42.44</ele>
        <time>2016-10-08T09:16:50Z</time>
      </trkpt>
      <trkpt lat="44.27479" lon="9.45723">
        <ele>42.44</ele>
        <time>2016-10-08T09:16:51Z</time>
      </trkpt>
      <trkpt lat="44.27478" lon="9.45726">
        <ele>41.95</ele>
        <time>2016-10-08T09:16:52Z</time>
      </trkpt>
      <trkpt lat="44.27479" lon="9.45729">
        <ele>41.95</ele>
        <time>2016-10-08T09:16:53Z</time>
      </trkpt>
      <trkpt lat="44.2748" lon="9.45733">
        <ele>42.92</ele>
        <time>2016-10-08T09:16:54Z</time>
      </trkpt>
      <trkpt lat="44.27481" lon="9.45737">
        <ele>42.92</ele>
        <time>2016-10-08T09:16:55Z</time>
      </trkpt>
      <trkpt lat="44.27482" lon="9.45741">
        <ele>42.44</ele>
        <time>2016-10-08T09:16:56Z</time>
      </trkpt>
      <trkpt lat="44.27491" lon="9.45786">
        <ele>43.88</ele>
        <time>2016-10-08T09:17:07Z</time>
      </trkpt>
      <trkpt lat="44.27498" lon="9.45842">
        <ele>44.36</ele>
        <time>2016-10-08T09:17:21Z</time>
      </trkpt>
      <trkpt lat="44.275" lon="9.45893">
        <ele>45.32</ele>
        <time>2016-10-08T09:17:33Z</time>
      </trkpt>
      <trkpt lat="44.27502" lon="9.45969">
        <ele>45.8</ele>
        <time>2016-10-08T09:17:48Z</time>
      </trkpt>
      <trkpt lat="44.27511" lon="9.46061">
        <ele>45.8</ele>
        <time>2016-10-08T09:18:06Z</time>
      </trkpt>
      <trkpt lat="44.27518" lon="9.4615">
        <ele>46.28</ele>
        <time>2016-10-08T09:18:22Z</time>
      </trkpt>
      <trkpt lat="44.2752" lon="9.46219">
        <ele>47.24</ele>
        <time>2016-10-08T09:18:35Z</time>
      </trkpt>
      <trkpt lat="44.27519" lon="9.46222">
        <ele>46.76</ele>
        <time>2016-10-08T09:18:36Z</time>
      </trkpt>
      <trkpt lat="44.27518" lon="9.46226">
        <ele>46.76</ele>
        <time>2016-10-08T09:18:37Z</time>
      </trkpt>
      <trkpt lat="44.27518" lon="9.4623">
        <ele>46.76</ele>
        <time>2016-10-08T09:18:38Z</time>
      </trkpt>
      <trkpt lat="44.27519" lon="9.46235">
        <ele>47.24</ele>
        <time>2016-10-08T09:18:39Z</time>
      </trkpt>
      <trkpt lat="44.27519" lon="9.46239">
        <ele>46.76</ele>
        <time>2016-10-08T09:18:40Z</time>
      </trkpt>
      <trkpt lat="44.2752" lon="9.46244">
        <ele>47.72</ele>
        <time>2016-10-08T09:18:41Z</time>
      </trkpt>
      <trkpt lat="44.27522" lon="9.46322">
        <ele>47.24</ele>
        <time>2016-10-08T09:18:55Z</time>
      </trkpt>
      <trkpt lat="44.27531" lon="9.4643">
        <ele>47.24</ele>
        <time>2016-10-08T09:19:13Z</time>
      </trkpt>
      <trkpt lat="44.27537" lon="9.46499">
        <ele>49.16</ele>
        <time>2016-10-08T09:19:25Z</time>
      </trkpt>
      <trkpt lat="44.27533" lon="9.46546">
        <ele>48.68</ele>
        <time>2016-10-08T09:19:33Z</time>
      </trkpt>
      <trkpt lat="44.27531" lon="9.46551">
        <ele>48.2</ele>
        <time>2016-10-08T09:19:34Z</time>
      </trkpt>
      <trkpt lat="44.27529" lon="9.46556">
        <ele>48.68</ele>
        <time>2016-10-08T09:19:35Z</time>
      </trkpt>
      <trkpt lat="44.27518" lon="9.46579">
        <ele>49.16</ele>
        <time>2016-10-08T09:19:40Z</time>
      </trkpt>
      <trkpt lat="44.27514" lon="9.46588">
        <ele>49.16</ele>
        <time>2016-10-08T09:19:42Z</time>
      </trkpt>
      <trkpt lat="44.27498" lon="9.46664">
        <ele>50.13</ele>
        <time>2016-10-08T09:19:56Z</time>
      </trkpt>
      <trkpt lat="44.27501" lon="9.46735">
        <ele>50.61</ele>
        <time>2016-10-08T09:20:08Z</time>
      </trkpt>
      <trkpt lat="44.27488" lon="9.46784">
        <ele>53.01</ele>
        <time>2016-10-08T09:20:20Z</time>
      </trkpt>
      <trkpt lat="44.27466" lon="9.46819">
        <ele>54.45</ele>
        <time>2016-10-08T09:20:35Z</time>
      </trkpt>
      <trkpt lat="44.27456" lon="9.46862">
        <ele>55.89</ele>
        <time>2016-10-08T09:20:49Z</time>
      </trkpt>
      <trkpt lat="44.27464" lon="9.46902">
        <ele>57.82</ele>
        <time>2016-10-08T09:21:03Z</time>
      </trkpt>
      <trkpt lat="44.27484" lon="9.46926">
        <ele>58.3</ele>
        <time>2016-10-08T09:21:16Z</time>
      </trkpt>
      <trkpt lat="44.27511" lon="9.46937">
        <ele>57.34</ele>
        <time>2016-10-08T09:21:26Z</time>
      </trkpt>
      <trkpt lat="44.27527" lon="9.46942">
        <ele>55.41</ele>
        <time>2016-10-08T09:21:29Z</time>
      </trkpt>
      <trkpt lat="44.27531" lon="9.46947">
        <ele>54.93</ele>
        <time>2016-10-08T09:21:30Z</time>
      </trkpt>
      <trkpt lat="44.27529" lon="9.46971">
        <ele>53.01</ele>
        <time>2016-10-08T09:21:33Z</time>
      </trkpt>
      <trkpt lat="44.27524" lon="9.46987">
        <ele>52.05</ele>
        <time>2016-10-08T09:21:35Z</time>
      </trkpt>
      <trkpt lat="44.27521" lon="9.46994">
        <ele>52.05</ele>
        <time>2016-10-08T09:21:36Z</time>
      </trkpt>
      <trkpt lat="44.27518" lon="9.47007">
        <ele>53.49</ele>
        <time>2016-10-08T09:21:38Z</time>
      </trkpt>
      <trkpt lat="44.27514" lon="9.47073">
        <ele>53.49</ele>
        <time>2016-10-08T09:21:50Z</time>
      </trkpt>
      <trkpt lat="44.27516" lon="9.47099">
        <ele>51.57</ele>
        <time>2016-10-08T09:21:53Z</time>
      </trkpt>
      <trkpt lat="44.27518" lon="9.47144">
        <ele>52.05</ele>
        <time>2016-10-08T09:21:59Z</time>
      </trkpt>
      <trkpt lat="44.27508" lon="9.47189">
        <ele>55.41</ele>
        <time>2016-10-08T09:22:11Z</time>
      </trkpt>
      <trkpt lat="44.27507" lon="9.47201">
        <ele>55.41</ele>
        <time>2016-10-08T09:22:24Z</time>
      </trkpt>
      <trkpt lat="44.27498" lon="9.47216">
        <ele>55.41</ele>
        <time>2016-10-08T09:22:32Z</time>
      </trkpt>
      <trkpt lat="44.27475" lon="9.47245">
        <ele>55.89</ele>
        <time>2016-10-08T09:22:43Z</time>
      </trkpt>
      <trkpt lat="44.27478" lon="9.47248">
        <ele>55.41</ele>
        <time>2016-10-08T09:22:50Z</time>
      </trkpt>
      <trkpt lat="44.27487" lon="9.47231">
        <ele>54.93</ele>
        <time>2016-10-08T09:22:56Z</time>
      </trkpt>
      <trkpt lat="44.27509" lon="9.47206">
        <ele>55.41</ele>
        <time>2016-10-08T09:23:05Z</time>
      </trkpt>
      <trkpt lat="44.27512" lon="9.47198">
        <ele>55.41</ele>
        <time>2016-10-08T09:23:07Z</time>
      </trkpt>
      <trkpt lat="44.2752" lon="9.47215">
        <ele>56.37</ele>
        <time>2016-10-08T09:23:13Z</time>
      </trkpt>
      <trkpt lat="44.27532" lon="9.47246">
        <ele>58.78</ele>
        <time>2016-10-08T09:23:25Z</time>
      </trkpt>
      <trkpt lat="44.27531" lon="9.47251">
        <ele>58.78</ele>
        <time>2016-10-08T09:23:27Z</time>
      </trkpt>
      <trkpt lat="44.27501" lon="9.4729">
        <ele>58.3</ele>
        <time>2016-10-08T09:23:41Z</time>
      </trkpt>
      <trkpt lat="44.27448" lon="9.47338">
        <ele>59.74</ele>
        <time>2016-10-08T09:24:00Z</time>
      </trkpt>
      <trkpt lat="44.27395" lon="9.47366">
        <ele>61.66</ele>
        <time>2016-10-08T09:24:16Z</time>
      </trkpt>
      <trkpt lat="44.27364" lon="9.47444">
        <ele>62.14</ele>
        <time>2016-10-08T09:24:32Z</time>
      </trkpt>
      <trkpt lat="44.27367" lon="9.47517">
        <ele>62.62</ele>
        <time>2016-10-08T09:24:45Z</time>
      </trkpt>
      <trkpt lat="44.27369" lon="9.47539">
        <ele>62.14</ele>
        <time>2016-10-08T09:24:49Z</time>
      </trkpt>
      <trkpt lat="44.2737" lon="9.47545">
        <ele>62.62</ele>
        <time>2016-10-08T09:24:50Z</time>
      </trkpt>
      <trkpt lat="44.27371" lon="9.47552">
        <ele>63.1</ele>
        <time>2016-10-08T09:24:51Z</time>
      </trkpt>
      <trkpt lat="44.27372" lon="9.4757">
        <ele>63.58</ele>
        <time>2016-10-08T09:24:54Z</time>
      </trkpt>
      <trkpt lat="44.27373" lon="9.47588">
        <ele>63.58</ele>
        <time>2016-10-08T09:24:57Z</time>
      </trkpt>
      <trkpt lat="44.27373" lon="9.47595">
        <ele>63.58</ele>
        <time>2016-10-08T09:24:58Z</time>
      </trkpt>
      <trkpt lat="44.27373" lon="9.476">
        <ele>63.58</ele>
        <time>2016-10-08T09:24:59Z</time>
      </trkpt>
      <trkpt lat="44.27372" lon="9.47606">
        <ele>63.58</ele>
        <time>2016-10-08T09:25:00Z</time>
      </trkpt>
      <trkpt lat="44.2737" lon="9.47611">
        <ele>64.07</ele>
        <time>2016-10-08T09:25:01Z</time>
      </trkpt>
      <trkpt lat="44.27353" lon="9.47676">
        <ele>64.07</ele>
        <time>2016-10-08T09:25:12Z</time>
      </trkpt>
      <trkpt lat="44.27352" lon="9.47682">
        <ele>64.07</ele>
        <time>2016-10-08T09:25:13Z</time>
      </trkpt>
      <trkpt lat="44.27337" lon="9.47792">
        <ele>63.58</ele>
        <time>2016-10-08T09:25:31Z</time>
      </trkpt>
      <trkpt lat="44.27321" lon="9.47845">
        <ele>66.47</ele>
        <time>2016-10-08T09:25:44Z</time>
      </trkpt>
      <trkpt lat="44.27306" lon="9.47901">
        <ele>67.91</ele>
        <time>2016-10-08T09:25:59Z</time>
      </trkpt>
      <trkpt lat="44.27301" lon="9.47972">
        <ele>68.39</ele>
        <time>2016-10-08T09:26:16Z</time>
      </trkpt>
      <trkpt lat="44.27291" lon="9.47975">
        <ele>68.39</ele>
        <time>2016-10-08T09:26:19Z</time>
      </trkpt>
      <trkpt lat="44.27287" lon="9.47973">
        <ele>68.39</ele>
        <time>2016-10-08T09:26:20Z</time>
      </trkpt>
      <trkpt lat="44.27284" lon="9.4797">
        <ele>67.91</ele>
        <time>2016-10-08T09:26:21Z</time>
      </trkpt>
      <trkpt lat="44.27281" lon="9.47964">
        <ele>67.91</ele>
        <time>2016-10-08T09:26:22Z</time>
      </trkpt>
      <trkpt lat="44.27278" lon="9.47959">
        <ele>67.43</ele>
        <time>2016-10-08T09:26:23Z</time>
      </trkpt>
      <trkpt lat="44.27275" lon="9.47953">
        <ele>67.43</ele>
        <time>2016-10-08T09:26:24Z</time>
      </trkpt>
      <trkpt lat="44.27257" lon="9.47913">
        <ele>69.35</ele>
        <time>2016-10-08T09:26:35Z</time>
      </trkpt>
      <trkpt lat="44.27244" lon="9.47872">
        <ele>71.27</ele>
        <time>2016-10-08T09:26:49Z</time>
      </trkpt>
      <trkpt lat="44.27224" lon="9.47822">
        <ele>73.68</ele>
        <time>2016-10-08T09:27:07Z</time>
      </trkpt>
      <trkpt lat="44.27191" lon="9.47823">
        <ele>73.2</ele>
        <time>2016-10-08T09:27:20Z</time>
      </trkpt>
      <trkpt lat="44.27146" lon="9.47853">
        <ele>75.12</ele>
        <time>2016-10-08T09:27:38Z</time>
      </trkpt>
      <trkpt lat="44.27099" lon="9.47888">
        <ele>75.6</ele>
        <time>2016-10-08T09:27:56Z</time>
      </trkpt>
      <trkpt lat="44.27051" lon="9.4792">
        <ele>76.08</ele>
        <time>2016-10-08T09:28:13Z</time>
      </trkpt>
      <trkpt lat="44.27001" lon="9.47962">
        <ele>77.04</ele>
        <time>2016-10-08T09:28:30Z</time>
      </trkpt>
      <trkpt lat="44.26964" lon="9.47987">
        <ele>78.48</ele>
        <time>2016-10-08T09:28:43Z</time>
      </trkpt>
      <trkpt lat="44.26922" lon="9.47995">
        <ele>78.97</ele>
        <time>2016-10-08T09:28:56Z</time>
      </trkpt>
      <trkpt lat="44.26891" lon="9.47987">
        <ele>80.89</ele>
        <time>2016-10-08T09:29:08Z</time>
      </trkpt>
      <trkpt lat="44.26862" lon="9.48002">
        <ele>82.81</ele>
        <time>2016-10-08T09:29:22Z</time>
      </trkpt>
      <trkpt lat="44.26836" lon="9.48028">
        <ele>84.25</ele>
        <time>2016-10-08T09:29:37Z</time>
      </trkpt>
      <trkpt lat="44.26807" lon="9.48057">
        <ele>85.21</ele>
        <time>2016-10-08T09:29:52Z</time>
      </trkpt>
      <trkpt lat="44.26769" lon="9.48103">
        <ele>85.69</ele>
        <time>2016-10-08T09:30:10Z</time>
      </trkpt>
      <trkpt lat="44.26737" lon="9.48144">
        <ele>86.66</ele>
        <time>2016-10-08T09:30:26Z</time>
      </trkpt>
      <trkpt lat="44.26712" lon="9.48188">
        <ele>87.14</ele>
        <time>2016-10-08T09:30:38Z</time>
      </trkpt>
      <trkpt lat="44.26682" lon="9.48242">
        <ele>88.58</ele>
        <time>2016-10-08T09:30:53Z</time>
      </trkpt>
      <trkpt lat="44.2667" lon="9.48279">
        <ele>90.98</ele>
        <time>2016-10-08T09:31:07Z</time>
      </trkpt>
      <trkpt lat="44.26657" lon="9.48314">
        <ele>92.9</ele>
        <time>2016-10-08T09:31:24Z</time>
      </trkpt>
      <trkpt lat="44.26635" lon="9.4832">
        <ele>95.31</ele>
        <time>2016-10-08T09:31:39Z</time>
      </trkpt>
      <trkpt lat="44.26625" lon="9.48324">
        <ele>96.75</ele>
        <time>2016-10-08T09:31:47Z</time>
      </trkpt>
      <trkpt lat="44.26614" lon="9.4833">
        <ele>98.19</ele>
        <time>2016-10-08T09:31:55Z</time>
      </trkpt>
      <trkpt lat="44.26613" lon="9.48331">
        <ele>97.71</ele>
        <time>2016-10-08T09:31:56Z</time>
      </trkpt>
      <trkpt lat="44.26601" lon="9.48351">
        <ele>99.63</ele>
        <time>2016-10-08T09:32:09Z</time>
      </trkpt>
      <trkpt lat="44.26599" lon="9.48356">
        <ele>100.11</ele>
        <time>2016-10-08T09:32:12Z</time>
      </trkpt>
      <trkpt lat="44.26598" lon="9.48358">
        <ele>100.11</ele>
        <time>2016-10-08T09:32:13Z</time>
      </trkpt>
      <trkpt lat="44.26597" lon="9.48359">
        <ele>100.11</ele>
        <time>2016-10-08T09:32:14Z</time>
      </trkpt>
      <trkpt lat="44.26594" lon="9.48366">
        <ele>101.08</ele>
        <time>2016-10-08T09:32:18Z</time>
      </trkpt>
      <trkpt lat="44.26593" lon="9.48367">
        <ele>101.08</ele>
        <time>2016-10-08T09:32:19Z</time>
      </trkpt>
      <trkpt lat="44.26575" lon="9.48379">
        <ele>102.52</ele>
        <time>2016-10-08T09:32:31Z</time>
      </trkpt>
      <trkpt lat="44.26552" lon="9.48393">
        <ele>104.92</ele>
        <time>2016-10-08T09:32:47Z</time>
      </trkpt>
      <trkpt lat="44.26536" lon="9.48413">
        <ele>106.84</ele>
        <time>2016-10-08T09:33:01Z</time>
      </trkpt>
      <trkpt lat="44.26518" lon="9.48426">
        <ele>108.29</ele>
        <time>2016-10-08T09:33:15Z</time>
      </trkpt>
      <trkpt lat="44.26517" lon="9.48426">
        <ele>108.29</ele>
        <time>2016-10-08T09:33:16Z</time>
      </trkpt>
      <trkpt lat="44.26516" lon="9.48427">
        <ele>108.29</ele>
        <time>2016-10-08T09:33:17Z</time>
      </trkpt>
      <trkpt lat="44.26503" lon="9.48431">
        <ele>110.69</ele>
        <time>2016-10-08T09:33:26Z</time>
      </trkpt>
      <trkpt lat="44.26486" lon="9.48448">
        <ele>112.61</ele>
        <time>2016-10-08T09:33:44Z</time>
      </trkpt>
      <trkpt lat="44.26474" lon="9.48474">
        <ele>115.01</ele>
        <time>2016-10-08T09:34:00Z</time>
      </trkpt>
      <trkpt lat="44.26473" lon="9.48478">
        <ele>115.01</ele>
        <time>2016-10-08T09:34:02Z</time>
      </trkpt>
      <trkpt lat="44.26474" lon="9.4848">
        <ele>115.5</ele>
        <time>2016-10-08T09:34:03Z</time>
      </trkpt>
      <trkpt lat="44.26475" lon="9.48482">
        <ele>115.01</ele>
        <time>2016-10-08T09:34:04Z</time>
      </trkpt>
      <trkpt lat="44.26476" lon="9.48484">
        <ele>115.5</ele>
        <time>2016-10-08T09:34:05Z</time>
      </trkpt>
      <trkpt lat="44.26476" lon="9.48486">
        <ele>115.01</ele>
        <time>2016-10-08T09:34:06Z</time>
      </trkpt>
      <trkpt lat="44.26489" lon="9.48507">
        <ele>117.42</ele>
        <time>2016-10-08T09:34:22Z</time>
      </trkpt>
      <trkpt lat="44.26494" lon="9.48531">
        <ele>118.86</ele>
        <time>2016-10-08T09:34:37Z</time>
      </trkpt>
      <trkpt lat="44.26495" lon="9.48542">
        <ele>119.82</ele>
        <time>2016-10-08T09:34:43Z</time>
      </trkpt>
      <trkpt lat="44.26494" lon="9.48543">
        <ele>119.82</ele>
        <time>2016-10-08T09:34:44Z</time>
      </trkpt>
      <trkpt lat="44.26494" lon="9.48545">
        <ele>120.3</ele>
        <time>2016-10-08T09:34:45Z</time>
      </trkpt>
      <trkpt lat="44.26491" lon="9.48569">
        <ele>122.22</ele>
        <time>2016-10-08T09:34:57Z</time>
      </trkpt>
      <trkpt lat="44.26492" lon="9.48571">
        <ele>122.22</ele>
        <time>2016-10-08T09:34:58Z</time>
      </trkpt>
      <trkpt lat="44.26493" lon="9.48573">
        <ele>122.22</ele>
        <time>2016-10-08T09:34:59Z</time>
      </trkpt>
      <trkpt lat="44.26494" lon="9.48575">
        <ele>122.22</ele>
        <time>2016-10-08T09:35:00Z</time>
      </trkpt>
      <trkpt lat="44.26495" lon="9.48577">
        <ele>122.22</ele>
        <time>2016-10-08T09:35:01Z</time>
      </trkpt>
      <trkpt lat="44.26497" lon="9.4858">
        <ele>122.22</ele>
        <time>2016-10-08T09:35:03Z</time>
      </trkpt>
      <trkpt lat="44.26498" lon="9.48581">
        <ele>122.71</ele>
        <time>2016-10-08T09:35:04Z</time>
      </trkpt>
      <trkpt lat="44.26517" lon="9.486">
        <ele>124.15</ele>
        <time>2016-10-08T09:35:20Z</time>
      </trkpt>
      <trkpt lat="44.26519" lon="9.48629">
        <ele>126.55</ele>
        <time>2016-10-08T09:35:36Z</time>
      </trkpt>
      <trkpt lat="44.26506" lon="9.48657">
        <ele>127.03</ele>
        <time>2016-10-08T09:35:52Z</time>
      </trkpt>
      <trkpt lat="44.26503" lon="9.48662">
        <ele>128.47</ele>
        <time>2016-10-08T09:35:55Z</time>
      </trkpt>
      <trkpt lat="44.26502" lon="9.48663">
        <ele>127.99</ele>
        <time>2016-10-08T09:35:56Z</time>
      </trkpt>
      <trkpt lat="44.265" lon="9.48665">
        <ele>127.99</ele>
        <time>2016-10-08T09:35:57Z</time>
      </trkpt>
      <trkpt lat="44.26476" lon="9.48669">
        <ele>130.4</ele>
        <time>2016-10-08T09:36:12Z</time>
      </trkpt>
      <trkpt lat="44.26465" lon="9.4866">
        <ele>131.84</ele>
        <time>2016-10-08T09:36:23Z</time>
      </trkpt>
      <trkpt lat="44.26463" lon="9.48636">
        <ele>133.28</ele>
        <time>2016-10-08T09:36:39Z</time>
      </trkpt>
      <trkpt lat="44.26459" lon="9.4863">
        <ele>134.24</ele>
        <time>2016-10-08T09:36:44Z</time>
      </trkpt>
      <trkpt lat="44.26457" lon="9.48629">
        <ele>134.72</ele>
        <time>2016-10-08T09:36:45Z</time>
      </trkpt>
      <trkpt lat="44.26454" lon="9.48628">
        <ele>135.68</ele>
        <time>2016-10-08T09:36:46Z</time>
      </trkpt>
      <trkpt lat="44.26453" lon="9.48627">
        <ele>134.24</ele>
        <time>2016-10-08T09:36:47Z</time>
      </trkpt>
      <trkpt lat="44.26452" lon="9.48626">
        <ele>135.68</ele>
        <time>2016-10-08T09:36:48Z</time>
      </trkpt>
      <trkpt lat="44.26451" lon="9.48626">
        <ele>135.2</ele>
        <time>2016-10-08T09:36:49Z</time>
      </trkpt>
      <trkpt lat="44.26449" lon="9.48625">
        <ele>135.2</ele>
        <time>2016-10-08T09:36:50Z</time>
      </trkpt>
      <trkpt lat="44.26449" lon="9.48625">
        <ele>134.72</ele>
        <time>2016-10-08T09:36:51Z</time>
      </trkpt>
      <trkpt lat="44.26429" lon="9.48619">
        <ele>137.61</ele>
        <time>2016-10-08T09:37:06Z</time>
      </trkpt>
      <trkpt lat="44.26409" lon="9.48616">
        <ele>140.49</ele>
        <time>2016-10-08T09:37:20Z</time>
      </trkpt>
      <trkpt lat="44.26389" lon="9.48619">
        <ele>143.37</ele>
        <time>2016-10-08T09:37:36Z</time>
      </trkpt>
      <trkpt lat="44.26386" lon="9.48632">
        <ele>144.82</ele>
        <time>2016-10-08T09:37:42Z</time>
      </trkpt>
      <trkpt lat="44.26389" lon="9.4864">
        <ele>144.82</ele>
        <time>2016-10-08T09:37:47Z</time>
      </trkpt>
      <trkpt lat="44.2639" lon="9.48641">
        <ele>145.3</ele>
        <time>2016-10-08T09:37:48Z</time>
      </trkpt>
      <trkpt lat="44.26391" lon="9.48642">
        <ele>145.78</ele>
        <time>2016-10-08T09:37:49Z</time>
      </trkpt>
      <trkpt lat="44.26402" lon="9.48645">
        <ele>146.74</ele>
        <time>2016-10-08T09:37:59Z</time>
      </trkpt>
      <trkpt lat="44.26403" lon="9.48646">
        <ele>146.74</ele>
        <time>2016-10-08T09:38:00Z</time>
      </trkpt>
      <trkpt lat="44.26404" lon="9.48646">
        <ele>147.22</ele>
        <time>2016-10-08T09:38:01Z</time>
      </trkpt>
      <trkpt lat="44.26418" lon="9.48674">
        <ele>149.14</ele>
        <time>2016-10-08T09:38:19Z</time>
      </trkpt>
      <trkpt lat="44.26418" lon="9.48677">
        <ele>148.66</ele>
        <time>2016-10-08T09:38:21Z</time>
      </trkpt>
      <trkpt lat="44.26418" lon="9.48681">
        <ele>149.14</ele>
        <time>2016-10-08T09:38:23Z</time>
      </trkpt>
      <trkpt lat="44.26417" lon="9.48682">
        <ele>149.62</ele>
        <time>2016-10-08T09:38:24Z</time>
      </trkpt>
      <trkpt lat="44.26416" lon="9.48684">
        <ele>149.62</ele>
        <time>2016-10-08T09:38:25Z</time>
      </trkpt>
      <trkpt lat="44.26415" lon="9.48685">
        <ele>149.62</ele>
        <time>2016-10-08T09:38:26Z</time>
      </trkpt>
      <trkpt lat="44.26414" lon="9.48686">
        <ele>149.62</ele>
        <time>2016-10-08T09:38:27Z</time>
      </trkpt>
      <trkpt lat="44.26402" lon="9.48684">
        <ele>152.03</ele>
        <time>2016-10-08T09:38:37Z</time>
      </trkpt>
      <trkpt lat="44.26401" lon="9.48683">
        <ele>152.03</ele>
        <time>2016-10-08T09:38:38Z</time>
      </trkpt>
      <trkpt lat="44.26387" lon="9.4867">
        <ele>154.43</ele>
        <time>2016-10-08T09:38:51Z</time>
      </trkpt>
      <trkpt lat="44.26369" lon="9.4866">
        <ele>157.31</ele>
        <time>2016-10-08T09:39:05Z</time>
      </trkpt>
      <trkpt lat="44.26358" lon="9.48657">
        <ele>158.75</ele>
        <time>2016-10-08T09:39:14Z</time>
      </trkpt>
      <trkpt lat="44.26356" lon="9.48657">
        <ele>159.24</ele>
        <time>2016-10-08T09:39:15Z</time>
      </trkpt>
      <trkpt lat="44.26355" lon="9.48656">
        <ele>159.24</ele>
        <time>2016-10-08T09:39:16Z</time>
      </trkpt>
      <trkpt lat="44.26353" lon="9.48656">
        <ele>159.24</ele>
        <time>2016-10-08T09:39:17Z</time>
      </trkpt>
      <trkpt lat="44.26352" lon="9.48656">
        <ele>159.24</ele>
        <time>2016-10-08T09:39:18Z</time>
      </trkpt>
      <trkpt lat="44.26351" lon="9.48655">
        <ele>159.72</ele>
        <time>2016-10-08T09:39:19Z</time>
      </trkpt>
      <trkpt lat="44.26346" lon="9.48654">
        <ele>159.72</ele>
        <time>2016-10-08T09:39:23Z</time>
      </trkpt>
      <trkpt lat="44.26345" lon="9.48653">
        <ele>160.2</ele>
        <time>2016-10-08T09:39:24Z</time>
      </trkpt>
      <trkpt lat="44.26344" lon="9.48653">
        <ele>160.68</ele>
        <time>2016-10-08T09:39:25Z</time>
      </trkpt>
      <trkpt lat="44.26326" lon="9.48655">
        <ele>162.6</ele>
        <time>2016-10-08T09:39:39Z</time>
      </trkpt>
      <trkpt lat="44.26316" lon="9.48656">
        <ele>163.56</ele>
        <time>2016-10-08T09:39:47Z</time>
      </trkpt>
      <trkpt lat="44.26314" lon="9.48657">
        <ele>163.56</ele>
        <time>2016-10-08T09:39:48Z</time>
      </trkpt>
      <trkpt lat="44.26313" lon="9.48658">
        <ele>164.04</ele>
        <time>2016-10-08T09:39:49Z</time>
      </trkpt>
      <trkpt lat="44.26311" lon="9.48658">
        <ele>164.04</ele>
        <time>2016-10-08T09:39:50Z</time>
      </trkpt>
      <trkpt lat="44.2631" lon="9.48659">
        <ele>164.04</ele>
        <time>2016-10-08T09:39:51Z</time>
      </trkpt>
      <trkpt lat="44.26309" lon="9.48661">
        <ele>164.52</ele>
        <time>2016-10-08T09:39:52Z</time>
      </trkpt>
      <trkpt lat="44.26308" lon="9.48662">
        <ele>164.52</ele>
        <time>2016-10-08T09:39:53Z</time>
      </trkpt>
      <trkpt lat="44.26297" lon="9.48678">
        <ele>165</ele>
        <time>2016-10-08T09:40:04Z</time>
      </trkpt>
      <trkpt lat="44.26276" lon="9.48692">
        <ele>166.45</ele>
        <time>2016-10-08T09:40:19Z</time>
      </trkpt>
      <trkpt lat="44.26252" lon="9.48705">
        <ele>167.89</ele>
        <time>2016-10-08T09:40:34Z</time>
      </trkpt>
      <trkpt lat="44.26221" lon="9.487">
        <ele>168.85</ele>
        <time>2016-10-08T09:40:49Z</time>
      </trkpt>
      <trkpt lat="44.26193" lon="9.48705">
        <ele>169.81</ele>
        <time>2016-10-08T09:41:04Z</time>
      </trkpt>
      <trkpt lat="44.2617" lon="9.4874">
        <ele>170.77</ele>
        <time>2016-10-08T09:41:19Z</time>
      </trkpt>
      <trkpt lat="44.26157" lon="9.48792">
        <ele>171.25</ele>
        <time>2016-10-08T09:41:35Z</time>
      </trkpt>
      <trkpt lat="44.26162" lon="9.48836">
        <ele>173.17</ele>
        <time>2016-10-08T09:41:48Z</time>
      </trkpt>
      <trkpt lat="44.26168" lon="9.48871">
        <ele>174.62</ele>
        <time>2016-10-08T09:42:02Z</time>
      </trkpt>
      <trkpt lat="44.26176" lon="9.48903">
        <ele>177.02</ele>
        <time>2016-10-08T09:42:18Z</time>
      </trkpt>
      <trkpt lat="44.26178" lon="9.48911">
        <ele>177.02</ele>
        <time>2016-10-08T09:42:23Z</time>
      </trkpt>
      <trkpt lat="44.26178" lon="9.48913">
        <ele>177.98</ele>
        <time>2016-10-08T09:42:24Z</time>
      </trkpt>
      <trkpt lat="44.26178" lon="9.48915">
        <ele>177.5</ele>
        <time>2016-10-08T09:42:25Z</time>
      </trkpt>
      <trkpt lat="44.26179" lon="9.48916">
        <ele>177.5</ele>
        <time>2016-10-08T09:42:26Z</time>
      </trkpt>
      <trkpt lat="44.26179" lon="9.48918">
        <ele>177.98</ele>
        <time>2016-10-08T09:42:27Z</time>
      </trkpt>
      <trkpt lat="44.26179" lon="9.48921">
        <ele>177.98</ele>
        <time>2016-10-08T09:42:28Z</time>
      </trkpt>
      <trkpt lat="44.26179" lon="9.48923">
        <ele>177.98</ele>
        <time>2016-10-08T09:42:29Z</time>
      </trkpt>
      <trkpt lat="44.26182" lon="9.48947">
        <ele>179.9</ele>
        <time>2016-10-08T09:42:43Z</time>
      </trkpt>
      <trkpt lat="44.26188" lon="9.48976">
        <ele>182.31</ele>
        <time>2016-10-08T09:42:59Z</time>
      </trkpt>
      <trkpt lat="44.26193" lon="9.48987">
        <ele>183.75</ele>
        <time>2016-10-08T09:43:08Z</time>
      </trkpt>
      <trkpt lat="44.26206" lon="9.48987">
        <ele>185.19</ele>
        <time>2016-10-08T09:43:18Z</time>
      </trkpt>
      <trkpt lat="44.26231" lon="9.48984">
        <ele>186.15</ele>
        <time>2016-10-08T09:43:36Z</time>
      </trkpt>
      <trkpt lat="44.2625" lon="9.49006">
        <ele>187.59</ele>
        <time>2016-10-08T09:43:52Z</time>
      </trkpt>
      <trkpt lat="44.2627" lon="9.49047">
        <ele>189.52</ele>
        <time>2016-10-08T09:44:11Z</time>
      </trkpt>
      <trkpt lat="44.26273" lon="9.49053">
        <ele>190.96</ele>
        <time>2016-10-08T09:44:15Z</time>
      </trkpt>
      <trkpt lat="44.26283" lon="9.49079">
        <ele>193.36</ele>
        <time>2016-10-08T09:44:30Z</time>
      </trkpt>
      <trkpt lat="44.26291" lon="9.49092">
        <ele>194.8</ele>
        <time>2016-10-08T09:44:40Z</time>
      </trkpt>
      <trkpt lat="44.26292" lon="9.49093">
        <ele>194.8</ele>
        <time>2016-10-08T09:44:41Z</time>
      </trkpt>
      <trkpt lat="44.26296" lon="9.49099">
        <ele>195.77</ele>
        <time>2016-10-08T09:44:45Z</time>
      </trkpt>
      <trkpt lat="44.26297" lon="9.491">
        <ele>195.28</ele>
        <time>2016-10-08T09:44:46Z</time>
      </trkpt>
      <trkpt lat="44.26297" lon="9.49102">
        <ele>195.77</ele>
        <time>2016-10-08T09:44:47Z</time>
      </trkpt>
      <trkpt lat="44.26298" lon="9.49103">
        <ele>195.77</ele>
        <time>2016-10-08T09:44:48Z</time>
      </trkpt>
      <trkpt lat="44.26299" lon="9.49104">
        <ele>196.25</ele>
        <time>2016-10-08T09:44:49Z</time>
      </trkpt>
      <trkpt lat="44.26304" lon="9.49106">
        <ele>196.73</ele>
        <time>2016-10-08T09:44:54Z</time>
      </trkpt>
      <trkpt lat="44.26306" lon="9.49107">
        <ele>196.73</ele>
        <time>2016-10-08T09:44:56Z</time>
      </trkpt>
      <trkpt lat="44.26326" lon="9.49118">
        <ele>200.09</ele>
        <time>2016-10-08T09:45:14Z</time>
      </trkpt>
      <trkpt lat="44.26348" lon="9.49126">
        <ele>202.49</ele>
        <time>2016-10-08T09:45:30Z</time>
      </trkpt>
      <trkpt lat="44.26367" lon="9.49119">
        <ele>204.42</ele>
        <time>2016-10-08T09:45:46Z</time>
      </trkpt>
      <trkpt lat="44.26376" lon="9.49117">
        <ele>205.86</ele>
        <time>2016-10-08T09:45:53Z</time>
      </trkpt>
      <trkpt lat="44.2638" lon="9.49116">
        <ele>205.86</ele>
        <time>2016-10-08T09:45:56Z</time>
      </trkpt>
      <trkpt lat="44.264" lon="9.49123">
        <ele>209.22</ele>
        <time>2016-10-08T09:46:11Z</time>
      </trkpt>
      <trkpt lat="44.2642" lon="9.49147">
        <ele>210.67</ele>
        <time>2016-10-08T09:46:26Z</time>
      </trkpt>
      <trkpt lat="44.26432" lon="9.49169">
        <ele>212.59</ele>
        <time>2016-10-08T09:46:43Z</time>
      </trkpt>
      <trkpt lat="44.26442" lon="9.49178">
        <ele>214.51</ele>
        <time>2016-10-08T09:46:54Z</time>
      </trkpt>
      <trkpt lat="44.26443" lon="9.49178">
        <ele>214.51</ele>
        <time>2016-10-08T09:46:55Z</time>
      </trkpt>
      <trkpt lat="44.26464" lon="9.49179">
        <ele>216.91</ele>
        <time>2016-10-08T09:47:12Z</time>
      </trkpt>
      <trkpt lat="44.26469" lon="9.49179">
        <ele>217.88</ele>
        <time>2016-10-08T09:47:16Z</time>
      </trkpt>
      <trkpt lat="44.2649" lon="9.49163">
        <ele>219.8</ele>
        <time>2016-10-08T09:47:34Z</time>
      </trkpt>
      <trkpt lat="44.26498" lon="9.49157">
        <ele>220.28</ele>
        <time>2016-10-08T09:47:40Z</time>
      </trkpt>
      <trkpt lat="44.26499" lon="9.49157">
        <ele>220.28</ele>
        <time>2016-10-08T09:47:41Z</time>
      </trkpt>
      <trkpt lat="44.26501" lon="9.49156">
        <ele>220.28</ele>
        <time>2016-10-08T09:47:42Z</time>
      </trkpt>
      <trkpt lat="44.26502" lon="9.49155">
        <ele>220.76</ele>
        <time>2016-10-08T09:47:43Z</time>
      </trkpt>
      <trkpt lat="44.26504" lon="9.49154">
        <ele>221.24</ele>
        <time>2016-10-08T09:47:44Z</time>
      </trkpt>
      <trkpt lat="44.26522" lon="9.4915">
        <ele>223.16</ele>
        <time>2016-10-08T09:48:00Z</time>
      </trkpt>
      <trkpt lat="44.26532" lon="9.49165">
        <ele>224.61</ele>
        <time>2016-10-08T09:48:11Z</time>
      </trkpt>
      <trkpt lat="44.26544" lon="9.49193">
        <ele>226.53</ele>
        <time>2016-10-08T09:48:28Z</time>
      </trkpt>
      <trkpt lat="44.26557" lon="9.49221">
        <ele>228.93</ele>
        <time>2016-10-08T09:48:46Z</time>
      </trkpt>
      <trkpt lat="44.2657" lon="9.49243">
        <ele>231.81</ele>
        <time>2016-10-08T09:49:04Z</time>
      </trkpt>
      <trkpt lat="44.26589" lon="9.4926">
        <ele>234.22</ele>
        <time>2016-10-08T09:49:21Z</time>
      </trkpt>
      <trkpt lat="44.2661" lon="9.49271">
        <ele>236.62</ele>
        <time>2016-10-08T09:49:38Z</time>
      </trkpt>
      <trkpt lat="44.26631" lon="9.49288">
        <ele>238.54</ele>
        <time>2016-10-08T09:49:57Z</time>
      </trkpt>
      <trkpt lat="44.26647" lon="9.4931">
        <ele>240.47</ele>
        <time>2016-10-08T09:50:14Z</time>
      </trkpt>
      <trkpt lat="44.26665" lon="9.49332">
        <ele>241.91</ele>
        <time>2016-10-08T09:50:31Z</time>
      </trkpt>
      <trkpt lat="44.26666" lon="9.49335">
        <ele>242.39</ele>
        <time>2016-10-08T09:50:33Z</time>
      </trkpt>
      <trkpt lat="44.26666" lon="9.49337">
        <ele>242.39</ele>
        <time>2016-10-08T09:50:34Z</time>
      </trkpt>
      <trkpt lat="44.26664" lon="9.49344">
        <ele>243.35</ele>
        <time>2016-10-08T09:50:39Z</time>
      </trkpt>
      <trkpt lat="44.26662" lon="9.49343">
        <ele>243.83</ele>
        <time>2016-10-08T09:50:41Z</time>
      </trkpt>
      <trkpt lat="44.26661" lon="9.49342">
        <ele>243.83</ele>
        <time>2016-10-08T09:50:42Z</time>
      </trkpt>
      <trkpt lat="44.2666" lon="9.49341">
        <ele>243.83</ele>
        <time>2016-10-08T09:50:43Z</time>
      </trkpt>
      <trkpt lat="44.26659" lon="9.4934">
        <ele>244.31</ele>
        <time>2016-10-08T09:50:44Z</time>
      </trkpt>
      <trkpt lat="44.26657" lon="9.49338">
        <ele>244.31</ele>
        <time>2016-10-08T09:50:45Z</time>
      </trkpt>
      <trkpt lat="44.26656" lon="9.49337">
        <ele>244.31</ele>
        <time>2016-10-08T09:50:46Z</time>
      </trkpt>
      <trkpt lat="44.26635" lon="9.49318">
        <ele>246.72</ele>
        <time>2016-10-08T09:51:04Z</time>
      </trkpt>
      <trkpt lat="44.26634" lon="9.49318">
        <ele>246.23</ele>
        <time>2016-10-08T09:51:05Z</time>
      </trkpt>
      <trkpt lat="44.26632" lon="9.49317">
        <ele>246.23</ele>
        <time>2016-10-08T09:51:06Z</time>
      </trkpt>
      <trkpt lat="44.26631" lon="9.49316">
        <ele>246.72</ele>
        <time>2016-10-08T09:51:07Z</time>
      </trkpt>
      <trkpt lat="44.2663" lon="9.49314">
        <ele>246.72</ele>
        <time>2016-10-08T09:51:08Z</time>
      </trkpt>
      <trkpt lat="44.26608" lon="9.4931">
        <ele>249.12</ele>
        <time>2016-10-08T09:51:25Z</time>
      </trkpt>
      <trkpt lat="44.26584" lon="9.49315">
        <ele>251.04</ele>
        <time>2016-10-08T09:51:41Z</time>
      </trkpt>
      <trkpt lat="44.26561" lon="9.49319">
        <ele>252.48</ele>
        <time>2016-10-08T09:51:58Z</time>
      </trkpt>
      <trkpt lat="44.26536" lon="9.49336">
        <ele>253.93</ele>
        <time>2016-10-08T09:52:12Z</time>
      </trkpt>
      <trkpt lat="44.26513" lon="9.4936">
        <ele>254.41</ele>
        <time>2016-10-08T09:52:24Z</time>
      </trkpt>
      <trkpt lat="44.26478" lon="9.49373">
        <ele>255.85</ele>
        <time>2016-10-08T09:52:40Z</time>
      </trkpt>
      <trkpt lat="44.26453" lon="9.49369">
        <ele>256.81</ele>
        <time>2016-10-08T09:52:53Z</time>
      </trkpt>
      <trkpt lat="44.26418" lon="9.49366">
        <ele>257.29</ele>
        <time>2016-10-08T09:53:06Z</time>
      </trkpt>
      <trkpt lat="44.26395" lon="9.49366">
        <ele>259.21</ele>
        <time>2016-10-08T09:53:21Z</time>
      </trkpt>
      <trkpt lat="44.26386" lon="9.49365">
        <ele>259.69</ele>
        <time>2016-10-08T09:53:28Z</time>
      </trkpt>
      <trkpt lat="44.26364" lon="9.49355">
        <ele>262.1</ele>
        <time>2016-10-08T09:53:42Z</time>
      </trkpt>
      <trkpt lat="44.26342" lon="9.49342">
        <ele>264.5</ele>
        <time>2016-10-08T09:54:00Z</time>
      </trkpt>
      <trkpt lat="44.26323" lon="9.49329">
        <ele>265.46</ele>
        <time>2016-10-08T09:54:16Z</time>
      </trkpt>
      <trkpt lat="44.26302" lon="9.49319">
        <ele>266.9</ele>
        <time>2016-10-08T09:54:32Z</time>
      </trkpt>
      <trkpt lat="44.2628" lon="9.49314">
        <ele>269.31</ele>
        <time>2016-10-08T09:54:47Z</time>
      </trkpt>
      <trkpt lat="44.26262" lon="9.4932">
        <ele>271.23</ele>
        <time>2016-10-08T09:55:03Z</time>
      </trkpt>
      <trkpt lat="44.26237" lon="9.49344">
        <ele>273.63</ele>
        <time>2016-10-08T09:55:25Z</time>
      </trkpt>
      <trkpt lat="44.2622" lon="9.49368">
        <ele>276.52</ele>
        <time>2016-10-08T09:55:43Z</time>
      </trkpt>
      <trkpt lat="44.26209" lon="9.49391">
        <ele>278.44</ele>
        <time>2016-10-08T09:55:58Z</time>
      </trkpt>
      <trkpt lat="44.26209" lon="9.49393">
        <ele>278.44</ele>
        <time>2016-10-08T09:55:59Z</time>
      </trkpt>
      <trkpt lat="44.26204" lon="9.49426">
        <ele>280.36</ele>
        <time>2016-10-08T09:56:17Z</time>
      </trkpt>
      <trkpt lat="44.26205" lon="9.4945">
        <ele>282.28</ele>
        <time>2016-10-08T09:56:31Z</time>
      </trkpt>
      <trkpt lat="44.26212" lon="9.49477">
        <ele>283.25</ele>
        <time>2016-10-08T09:56:46Z</time>
      </trkpt>
      <trkpt lat="44.26214" lon="9.49489">
        <ele>284.69</ele>
        <time>2016-10-08T09:56:53Z</time>
      </trkpt>
      <trkpt lat="44.2622" lon="9.4951">
        <ele>285.65</ele>
        <time>2016-10-08T09:57:06Z</time>
      </trkpt>
      <trkpt lat="44.26226" lon="9.49533">
        <ele>287.09</ele>
        <time>2016-10-08T09:57:19Z</time>
      </trkpt>
      <trkpt lat="44.26227" lon="9.49537">
        <ele>287.57</ele>
        <time>2016-10-08T09:57:21Z</time>
      </trkpt>
      <trkpt lat="44.26228" lon="9.49538">
        <ele>287.57</ele>
        <time>2016-10-08T09:57:22Z</time>
      </trkpt>
      <trkpt lat="44.26228" lon="9.4954">
        <ele>287.57</ele>
        <time>2016-10-08T09:57:23Z</time>
      </trkpt>
      <trkpt lat="44.26229" lon="9.49546">
        <ele>288.05</ele>
        <time>2016-10-08T09:57:27Z</time>
      </trkpt>
      <trkpt lat="44.2623" lon="9.49549">
        <ele>288.53</ele>
        <time>2016-10-08T09:57:29Z</time>
      </trkpt>
      <trkpt lat="44.26231" lon="9.49551">
        <ele>288.53</ele>
        <time>2016-10-08T09:57:30Z</time>
      </trkpt>
      <trkpt lat="44.26232" lon="9.49553">
        <ele>288.53</ele>
        <time>2016-10-08T09:57:31Z</time>
      </trkpt>
      <trkpt lat="44.26232" lon="9.49555">
        <ele>288.05</ele>
        <time>2016-10-08T09:57:32Z</time>
      </trkpt>
      <trkpt lat="44.26232" lon="9.49557">
        <ele>288.05</ele>
        <time>2016-10-08T09:57:33Z</time>
      </trkpt>
      <trkpt lat="44.26233" lon="9.49559">
        <ele>289.01</ele>
        <time>2016-10-08T09:57:34Z</time>
      </trkpt>
      <trkpt lat="44.26237" lon="9.49571">
        <ele>289.49</ele>
        <time>2016-10-08T09:57:42Z</time>
      </trkpt>
      <trkpt lat="44.26247" lon="9.49596">
        <ele>290.94</ele>
        <time>2016-10-08T09:57:58Z</time>
      </trkpt>
      <trkpt lat="44.26259" lon="9.49619">
        <ele>292.86</ele>
        <time>2016-10-08T09:58:15Z</time>
      </trkpt>
      <trkpt lat="44.26261" lon="9.49641">
        <ele>294.3</ele>
        <time>2016-10-08T09:58:27Z</time>
      </trkpt>
      <trkpt lat="44.2626" lon="9.49643">
        <ele>293.82</ele>
        <time>2016-10-08T09:58:28Z</time>
      </trkpt>
      <trkpt lat="44.26259" lon="9.49645">
        <ele>294.3</ele>
        <time>2016-10-08T09:58:29Z</time>
      </trkpt>
      <trkpt lat="44.26258" lon="9.49647">
        <ele>293.82</ele>
        <time>2016-10-08T09:58:30Z</time>
      </trkpt>
      <trkpt lat="44.26257" lon="9.49648">
        <ele>294.3</ele>
        <time>2016-10-08T09:58:31Z</time>
      </trkpt>
      <trkpt lat="44.26256" lon="9.4965">
        <ele>294.78</ele>
        <time>2016-10-08T09:58:32Z</time>
      </trkpt>
      <trkpt lat="44.26254" lon="9.49652">
        <ele>293.82</ele>
        <time>2016-10-08T09:58:33Z</time>
      </trkpt>
      <trkpt lat="44.26234" lon="9.49691">
        <ele>294.78</ele>
        <time>2016-10-08T09:58:51Z</time>
      </trkpt>
      <trkpt lat="44.26228" lon="9.49739">
        <ele>294.3</ele>
        <time>2016-10-08T09:59:05Z</time>
      </trkpt>
      <trkpt lat="44.26222" lon="9.49781">
        <ele>295.26</ele>
        <time>2016-10-08T09:59:17Z</time>
      </trkpt>
      <trkpt lat="44.26203" lon="9.49791">
        <ele>295.74</ele>
        <time>2016-10-08T09:59:27Z</time>
      </trkpt>
      <trkpt lat="44.26194" lon="9.49784">
        <ele>296.7</ele>
        <time>2016-10-08T09:59:34Z</time>
      </trkpt>
      <trkpt lat="44.26176" lon="9.49776">
        <ele>298.63</ele>
        <time>2016-10-08T09:59:47Z</time>
      </trkpt>
      <trkpt lat="44.26162" lon="9.49801">
        <ele>300.55</ele>
        <time>2016-10-08T10:00:04Z</time>
      </trkpt>
      <trkpt lat="44.26154" lon="9.49816">
        <ele>302.47</ele>
        <time>2016-10-08T10:00:14Z</time>
      </trkpt>
      <trkpt lat="44.26152" lon="9.49821">
        <ele>302.47</ele>
        <time>2016-10-08T10:00:17Z</time>
      </trkpt>
      <trkpt lat="44.2614" lon="9.49845">
        <ele>304.39</ele>
        <time>2016-10-08T10:00:33Z</time>
      </trkpt>
      <trkpt lat="44.26132" lon="9.49867">
        <ele>305.84</ele>
        <time>2016-10-08T10:00:45Z</time>
      </trkpt>
      <trkpt lat="44.26131" lon="9.49868">
        <ele>306.32</ele>
        <time>2016-10-08T10:00:46Z</time>
      </trkpt>
      <trkpt lat="44.26115" lon="9.49867">
        <ele>307.76</ele>
        <time>2016-10-08T10:00:59Z</time>
      </trkpt>
      <trkpt lat="44.26115" lon="9.49865">
        <ele>308.24</ele>
        <time>2016-10-08T10:01:00Z</time>
      </trkpt>
      <trkpt lat="44.26102" lon="9.49837">
        <ele>307.76</ele>
        <time>2016-10-08T10:01:15Z</time>
      </trkpt>
      <trkpt lat="44.26082" lon="9.49812">
        <ele>308.24</ele>
        <time>2016-10-08T10:01:27Z</time>
      </trkpt>
      <trkpt lat="44.26072" lon="9.49765">
        <ele>309.2</ele>
        <time>2016-10-08T10:01:42Z</time>
      </trkpt>
      <trkpt lat="44.26056" lon="9.49743">
        <ele>311.12</ele>
        <time>2016-10-08T10:01:56Z</time>
      </trkpt>
      <trkpt lat="44.26026" lon="9.49728">
        <ele>313.53</ele>
        <time>2016-10-08T10:02:11Z</time>
      </trkpt>
      <trkpt lat="44.25999" lon="9.49748">
        <ele>314.97</ele>
        <time>2016-10-08T10:02:29Z</time>
      </trkpt>
      <trkpt lat="44.25978" lon="9.49786">
        <ele>316.41</ele>
        <time>2016-10-08T10:02:48Z</time>
      </trkpt>
      <trkpt lat="44.25975" lon="9.49788">
        <ele>317.37</ele>
        <time>2016-10-08T10:02:50Z</time>
      </trkpt>
      <trkpt lat="44.2596" lon="9.49791">
        <ele>317.85</ele>
        <time>2016-10-08T10:03:02Z</time>
      </trkpt>
      <trkpt lat="44.25958" lon="9.49786">
        <ele>318.81</ele>
        <time>2016-10-08T10:03:05Z</time>
      </trkpt>
      <trkpt lat="44.25958" lon="9.49784">
        <ele>319.3</ele>
        <time>2016-10-08T10:03:06Z</time>
      </trkpt>
      <trkpt lat="44.25958" lon="9.49782">
        <ele>318.81</ele>
        <time>2016-10-08T10:03:07Z</time>
      </trkpt>
      <trkpt lat="44.25957" lon="9.49781">
        <ele>318.81</ele>
        <time>2016-10-08T10:03:08Z</time>
      </trkpt>
      <trkpt lat="44.25957" lon="9.49779">
        <ele>319.3</ele>
        <time>2016-10-08T10:03:09Z</time>
      </trkpt>
      <trkpt lat="44.25957" lon="9.49776">
        <ele>318.81</ele>
        <time>2016-10-08T10:03:10Z</time>
      </trkpt>
      <trkpt lat="44.25956" lon="9.49774">
        <ele>319.3</ele>
        <time>2016-10-08T10:03:11Z</time>
      </trkpt>
      <trkpt lat="44.25956" lon="9.49771">
        <ele>318.81</ele>
        <time>2016-10-08T10:03:12Z</time>
      </trkpt>
      <trkpt lat="44.25956" lon="9.49768">
        <ele>319.3</ele>
        <time>2016-10-08T10:03:13Z</time>
      </trkpt>
      <trkpt lat="44.25942" lon="9.49737">
        <ele>319.3</ele>
        <time>2016-10-08T10:03:25Z</time>
      </trkpt>
      <trkpt lat="44.25911" lon="9.49724">
        <ele>319.3</ele>
        <time>2016-10-08T10:03:37Z</time>
      </trkpt>
      <trkpt lat="44.25896" lon="9.49693">
        <ele>319.78</ele>
        <time>2016-10-08T10:03:48Z</time>
      </trkpt>
      <trkpt lat="44.25898" lon="9.49674">
        <ele>319.78</ele>
        <time>2016-10-08T10:03:53Z</time>
      </trkpt>
      <trkpt lat="44.25898" lon="9.4967">
        <ele>319.3</ele>
        <time>2016-10-08T10:03:54Z</time>
      </trkpt>
      <trkpt lat="44.25898" lon="9.49666">
        <ele>319.78</ele>
        <time>2016-10-08T10:03:55Z</time>
      </trkpt>
      <trkpt lat="44.25897" lon="9.49663">
        <ele>319.78</ele>
        <time>2016-10-08T10:03:56Z</time>
      </trkpt>
      <trkpt lat="44.25895" lon="9.49659">
        <ele>319.78</ele>
        <time>2016-10-08T10:03:57Z</time>
      </trkpt>
      <trkpt lat="44.25893" lon="9.49656">
        <ele>319.78</ele>
        <time>2016-10-08T10:03:58Z</time>
      </trkpt>
      <trkpt lat="44.25892" lon="9.49653">
        <ele>319.78</ele>
        <time>2016-10-08T10:03:59Z</time>
      </trkpt>
      <trkpt lat="44.25891" lon="9.49649">
        <ele>319.78</ele>
        <time>2016-10-08T10:04:00Z</time>
      </trkpt>
      <trkpt lat="44.2588" lon="9.49588">
        <ele>320.74</ele>
        <time>2016-10-08T10:04:14Z</time>
      </trkpt>
      <trkpt lat="44.25881" lon="9.49554">
        <ele>321.22</ele>
        <time>2016-10-08T10:04:23Z</time>
      </trkpt>
      <trkpt lat="44.25879" lon="9.49551">
        <ele>321.22</ele>
        <time>2016-10-08T10:04:24Z</time>
      </trkpt>
      <trkpt lat="44.25876" lon="9.49549">
        <ele>321.7</ele>
        <time>2016-10-08T10:04:25Z</time>
      </trkpt>
      <trkpt lat="44.25873" lon="9.49547">
        <ele>321.22</ele>
        <time>2016-10-08T10:04:26Z</time>
      </trkpt>
      <trkpt lat="44.2587" lon="9.49546">
        <ele>321.22</ele>
        <time>2016-10-08T10:04:27Z</time>
      </trkpt>
      <trkpt lat="44.25866" lon="9.49546">
        <ele>321.22</ele>
        <time>2016-10-08T10:04:28Z</time>
      </trkpt>
      <trkpt lat="44.25864" lon="9.49548">
        <ele>321.22</ele>
        <time>2016-10-08T10:04:29Z</time>
      </trkpt>
      <trkpt lat="44.25861" lon="9.4955">
        <ele>321.7</ele>
        <time>2016-10-08T10:04:30Z</time>
      </trkpt>
      <trkpt lat="44.25858" lon="9.49552">
        <ele>321.7</ele>
        <time>2016-10-08T10:04:31Z</time>
      </trkpt>
      <trkpt lat="44.25856" lon="9.49554">
        <ele>321.22</ele>
        <time>2016-10-08T10:04:32Z</time>
      </trkpt>
      <trkpt lat="44.25853" lon="9.49556">
        <ele>321.7</ele>
        <time>2016-10-08T10:04:33Z</time>
      </trkpt>
      <trkpt lat="44.2584" lon="9.49557">
        <ele>322.18</ele>
        <time>2016-10-08T10:04:38Z</time>
      </trkpt>
      <trkpt lat="44.25839" lon="9.49554">
        <ele>321.7</ele>
        <time>2016-10-08T10:04:39Z</time>
      </trkpt>
      <trkpt lat="44.25838" lon="9.49551">
        <ele>322.66</ele>
        <time>2016-10-08T10:04:40Z</time>
      </trkpt>
      <trkpt lat="44.25832" lon="9.49501">
        <ele>322.66</ele>
        <time>2016-10-08T10:04:54Z</time>
      </trkpt>
      <trkpt lat="44.25833" lon="9.49446">
        <ele>322.66</ele>
        <time>2016-10-08T10:05:08Z</time>
      </trkpt>
      <trkpt lat="44.25819" lon="9.49397">
        <ele>323.62</ele>
        <time>2016-10-08T10:05:21Z</time>
      </trkpt>
      <trkpt lat="44.25807" lon="9.49362">
        <ele>323.62</ele>
        <time>2016-10-08T10:05:34Z</time>
      </trkpt>
      <trkpt lat="44.25805" lon="9.49362">
        <ele>323.14</ele>
        <time>2016-10-08T10:06:05Z</time>
      </trkpt>
      <trkpt lat="44.25806" lon="9.49357">
        <ele>323.14</ele>
        <time>2016-10-08T10:06:34Z</time>
      </trkpt>
      <trkpt lat="44.25804" lon="9.49361">
        <ele>323.62</ele>
        <time>2016-10-08T10:07:15Z</time>
      </trkpt>
      <trkpt lat="44.25802" lon="9.49359">
        <ele>323.62</ele>
        <time>2016-10-08T10:07:54Z</time>
      </trkpt>
      <trkpt lat="44.258" lon="9.49355">
        <ele>323.14</ele>
        <time>2016-10-08T10:08:41Z</time>
      </trkpt>
      <trkpt lat="44.25806" lon="9.4936">
        <ele>324.1</ele>
        <time>2016-10-08T10:08:58Z</time>
      </trkpt>
      <trkpt lat="44.25806" lon="9.49359">
        <ele>324.58</ele>
        <time>2016-10-08T10:09:16Z</time>
      </trkpt>
      <trkpt lat="44.25807" lon="9.49361">
        <ele>324.1</ele>
        <time>2016-10-08T10:09:49Z</time>
      </trkpt>
      <trkpt lat="44.25806" lon="9.49361">
        <ele>324.1</ele>
        <time>2016-10-08T10:10:30Z</time>
      </trkpt>
      <trkpt lat="44.25812" lon="9.49363">
        <ele>324.1</ele>
        <time>2016-10-08T10:11:14Z</time>
      </trkpt>
      <trkpt lat="44.25807" lon="9.49359">
        <ele>323.14</ele>
        <time>2016-10-08T10:11:57Z</time>
      </trkpt>
      <trkpt lat="44.25805" lon="9.49362">
        <ele>323.62</ele>
        <time>2016-10-08T10:12:49Z</time>
      </trkpt>
      <trkpt lat="44.25809" lon="9.49364">
        <ele>323.62</ele>
        <time>2016-10-08T10:13:29Z</time>
      </trkpt>
      <trkpt lat="44.25807" lon="9.49359">
        <ele>323.14</ele>
        <time>2016-10-08T10:14:04Z</time>
      </trkpt>
      <trkpt lat="44.25806" lon="9.49359">
        <ele>324.1</ele>
        <time>2016-10-08T10:14:52Z</time>
      </trkpt>
      <trkpt lat="44.25806" lon="9.49361">
        <ele>323.14</ele>
        <time>2016-10-08T10:15:37Z</time>
      </trkpt>
      <trkpt lat="44.25808" lon="9.49361">
        <ele>324.1</ele>
        <time>2016-10-08T10:16:18Z</time>
      </trkpt>
      <trkpt lat="44.2581" lon="9.49364">
        <ele>324.58</ele>
        <time>2016-10-08T10:16:53Z</time>
      </trkpt>
      <trkpt lat="44.25814" lon="9.49366">
        <ele>324.1</ele>
        <time>2016-10-08T10:17:31Z</time>
      </trkpt>
      <trkpt lat="44.25812" lon="9.4936">
        <ele>325.06</ele>
        <time>2016-10-08T10:17:56Z</time>
      </trkpt>
      <trkpt lat="44.25807" lon="9.49356">
        <ele>324.1</ele>
        <time>2016-10-08T10:18:03Z</time>
      </trkpt>
      <trkpt lat="44.25793" lon="9.49337">
        <ele>321.22</ele>
        <time>2016-10-08T10:18:15Z</time>
      </trkpt>
      <trkpt lat="44.25787" lon="9.49336">
        <ele>320.26</ele>
        <time>2016-10-08T10:18:18Z</time>
      </trkpt>
      <trkpt lat="44.25785" lon="9.49337">
        <ele>321.22</ele>
        <time>2016-10-08T10:18:19Z</time>
      </trkpt>
      <trkpt lat="44.25783" lon="9.4934">
        <ele>320.74</ele>
        <time>2016-10-08T10:18:20Z</time>
      </trkpt>
      <trkpt lat="44.25764" lon="9.49367">
        <ele>322.18</ele>
        <time>2016-10-08T10:18:33Z</time>
      </trkpt>
      <trkpt lat="44.2575" lon="9.49391">
        <ele>323.62</ele>
        <time>2016-10-08T10:18:46Z</time>
      </trkpt>
      <trkpt lat="44.25739" lon="9.49431">
        <ele>326.02</ele>
        <time>2016-10-08T10:19:03Z</time>
      </trkpt>
      <trkpt lat="44.25742" lon="9.49479">
        <ele>327.47</ele>
        <time>2016-10-08T10:19:21Z</time>
      </trkpt>
      <trkpt lat="44.25747" lon="9.4952">
        <ele>329.39</ele>
        <time>2016-10-08T10:19:38Z</time>
      </trkpt>
      <trkpt lat="44.25749" lon="9.49562">
        <ele>332.27</ele>
        <time>2016-10-08T10:19:55Z</time>
      </trkpt>
      <trkpt lat="44.25752" lon="9.49603">
        <ele>334.2</ele>
        <time>2016-10-08T10:20:11Z</time>
      </trkpt>
      <trkpt lat="44.25756" lon="9.49647">
        <ele>336.6</ele>
        <time>2016-10-08T10:20:29Z</time>
      </trkpt>
      <trkpt lat="44.25756" lon="9.49649">
        <ele>336.6</ele>
        <time>2016-10-08T10:20:30Z</time>
      </trkpt>
      <trkpt lat="44.25756" lon="9.49652">
        <ele>336.6</ele>
        <time>2016-10-08T10:20:31Z</time>
      </trkpt>
      <trkpt lat="44.25761" lon="9.49696">
        <ele>338.52</ele>
        <time>2016-10-08T10:20:48Z</time>
      </trkpt>
      <trkpt lat="44.25768" lon="9.49741">
        <ele>340.92</ele>
        <time>2016-10-08T10:21:07Z</time>
      </trkpt>
      <trkpt lat="44.25779" lon="9.4977">
        <ele>342.85</ele>
        <time>2016-10-08T10:21:22Z</time>
      </trkpt>
      <trkpt lat="44.25783" lon="9.49804">
        <ele>345.25</ele>
        <time>2016-10-08T10:21:37Z</time>
      </trkpt>
      <trkpt lat="44.25782" lon="9.49846">
        <ele>346.69</ele>
        <time>2016-10-08T10:21:55Z</time>
      </trkpt>
      <trkpt lat="44.25782" lon="9.49876">
        <ele>347.65</ele>
        <time>2016-10-08T10:22:08Z</time>
      </trkpt>
      <trkpt lat="44.25776" lon="9.49907">
        <ele>349.58</ele>
        <time>2016-10-08T10:22:21Z</time>
      </trkpt>
      <trkpt lat="44.25769" lon="9.49947">
        <ele>351.02</ele>
        <time>2016-10-08T10:22:36Z</time>
      </trkpt>
      <trkpt lat="44.25762" lon="9.49984">
        <ele>353.9</ele>
        <time>2016-10-08T10:22:51Z</time>
      </trkpt>
      <trkpt lat="44.25754" lon="9.50019">
        <ele>355.34</ele>
        <time>2016-10-08T10:23:08Z</time>
      </trkpt>
      <trkpt lat="44.25754" lon="9.50021">
        <ele>355.34</ele>
        <time>2016-10-08T10:23:09Z</time>
      </trkpt>
      <trkpt lat="44.25738" lon="9.50052">
        <ele>356.79</ele>
        <time>2016-10-08T10:23:26Z</time>
      </trkpt>
      <trkpt lat="44.25726" lon="9.50071">
        <ele>358.23</ele>
        <time>2016-10-08T10:23:39Z</time>
      </trkpt>
      <trkpt lat="44.2572" lon="9.50084">
        <ele>360.15</ele>
        <time>2016-10-08T10:23:47Z</time>
      </trkpt>
      <trkpt lat="44.2572" lon="9.50085">
        <ele>360.15</ele>
        <time>2016-10-08T10:23:48Z</time>
      </trkpt>
      <trkpt lat="44.25719" lon="9.50087">
        <ele>359.67</ele>
        <time>2016-10-08T10:23:49Z</time>
      </trkpt>
      <trkpt lat="44.25705" lon="9.50123">
        <ele>362.07</ele>
        <time>2016-10-08T10:24:06Z</time>
      </trkpt>
      <trkpt lat="44.25693" lon="9.50151">
        <ele>363.52</ele>
        <time>2016-10-08T10:24:22Z</time>
      </trkpt>
      <trkpt lat="44.2569" lon="9.5017">
        <ele>364.48</ele>
        <time>2016-10-08T10:24:30Z</time>
      </trkpt>
      <trkpt lat="44.25703" lon="9.50206">
        <ele>366.4</ele>
        <time>2016-10-08T10:24:46Z</time>
      </trkpt>
      <trkpt lat="44.25723" lon="9.50239">
        <ele>368.8</ele>
        <time>2016-10-08T10:25:06Z</time>
      </trkpt>
      <trkpt lat="44.25745" lon="9.50262">
        <ele>370.24</ele>
        <time>2016-10-08T10:25:22Z</time>
      </trkpt>
      <trkpt lat="44.25777" lon="9.50279">
        <ele>372.17</ele>
        <time>2016-10-08T10:25:40Z</time>
      </trkpt>
      <trkpt lat="44.25801" lon="9.50302">
        <ele>374.09</ele>
        <time>2016-10-08T10:25:58Z</time>
      </trkpt>
      <trkpt lat="44.25822" lon="9.50322">
        <ele>376.01</ele>
        <time>2016-10-08T10:26:14Z</time>
      </trkpt>
      <trkpt lat="44.25846" lon="9.5035">
        <ele>378.42</ele>
        <time>2016-10-08T10:26:32Z</time>
      </trkpt>
      <trkpt lat="44.25868" lon="9.50376">
        <ele>380.34</ele>
        <time>2016-10-08T10:26:49Z</time>
      </trkpt>
      <trkpt lat="44.25892" lon="9.50401">
        <ele>382.26</ele>
        <time>2016-10-08T10:27:06Z</time>
      </trkpt>
      <trkpt lat="44.25902" lon="9.50443">
        <ele>383.7</ele>
        <time>2016-10-08T10:27:23Z</time>
      </trkpt>
      <trkpt lat="44.259" lon="9.50458">
        <ele>384.18</ele>
        <time>2016-10-08T10:27:28Z</time>
      </trkpt>
      <trkpt lat="44.25886" lon="9.50503">
        <ele>385.63</ele>
        <time>2016-10-08T10:27:44Z</time>
      </trkpt>
      <trkpt lat="44.25887" lon="9.50555">
        <ele>386.59</ele>
        <time>2016-10-08T10:27:59Z</time>
      </trkpt>
      <trkpt lat="44.25898" lon="9.5061">
        <ele>388.51</ele>
        <time>2016-10-08T10:28:16Z</time>
      </trkpt>
      <trkpt lat="44.25907" lon="9.50667">
        <ele>389.95</ele>
        <time>2016-10-08T10:28:34Z</time>
      </trkpt>
      <trkpt lat="44.25901" lon="9.50714">
        <ele>391.39</ele>
        <time>2016-10-08T10:28:50Z</time>
      </trkpt>
      <trkpt lat="44.2588" lon="9.50735">
        <ele>392.36</ele>
        <time>2016-10-08T10:29:03Z</time>
      </trkpt>
      <trkpt lat="44.25863" lon="9.50763">
        <ele>393.8</ele>
        <time>2016-10-08T10:29:17Z</time>
      </trkpt>
      <trkpt lat="44.25864" lon="9.50763">
        <ele>392.84</ele>
        <time>2016-10-08T10:29:47Z</time>
      </trkpt>
      <trkpt lat="44.25863" lon="9.50768">
        <ele>393.8</ele>
        <time>2016-10-08T10:30:18Z</time>
      </trkpt>
      <trkpt lat="44.25857" lon="9.50788">
        <ele>393.32</ele>
        <time>2016-10-08T10:30:39Z</time>
      </trkpt>
      <trkpt lat="44.2585" lon="9.50808">
        <ele>393.8</ele>
        <time>2016-10-08T10:30:46Z</time>
      </trkpt>
      <trkpt lat="44.25849" lon="9.5081">
        <ele>394.28</ele>
        <time>2016-10-08T10:30:47Z</time>
      </trkpt>
      <trkpt lat="44.25834" lon="9.50861">
        <ele>395.72</ele>
        <time>2016-10-08T10:31:03Z</time>
      </trkpt>
      <trkpt lat="44.25819" lon="9.50909">
        <ele>396.68</ele>
        <time>2016-10-08T10:31:18Z</time>
      </trkpt>
      <trkpt lat="44.25804" lon="9.50961">
        <ele>398.12</ele>
        <time>2016-10-08T10:31:34Z</time>
      </trkpt>
      <trkpt lat="44.25788" lon="9.51015">
        <ele>399.57</ele>
        <time>2016-10-08T10:31:50Z</time>
      </trkpt>
      <trkpt lat="44.25775" lon="9.51078">
        <ele>401.49</ele>
        <time>2016-10-08T10:32:09Z</time>
      </trkpt>
      <trkpt lat="44.25772" lon="9.51133">
        <ele>403.41</ele>
        <time>2016-10-08T10:32:25Z</time>
      </trkpt>
      <trkpt lat="44.25767" lon="9.51181">
        <ele>404.37</ele>
        <time>2016-10-08T10:32:38Z</time>
      </trkpt>
      <trkpt lat="44.25742" lon="9.51224">
        <ele>405.81</ele>
        <time>2016-10-08T10:32:53Z</time>
      </trkpt>
      <trkpt lat="44.25713" lon="9.5125">
        <ele>407.26</ele>
        <time>2016-10-08T10:33:07Z</time>
      </trkpt>
      <trkpt lat="44.25688" lon="9.51293">
        <ele>409.18</ele>
        <time>2016-10-08T10:33:23Z</time>
      </trkpt>
      <trkpt lat="44.25701" lon="9.5134">
        <ele>410.14</ele>
        <time>2016-10-08T10:33:36Z</time>
      </trkpt>
      <trkpt lat="44.25719" lon="9.51404">
        <ele>411.58</ele>
        <time>2016-10-08T10:33:53Z</time>
      </trkpt>
      <trkpt lat="44.25742" lon="9.51448">
        <ele>413.02</ele>
        <time>2016-10-08T10:34:07Z</time>
      </trkpt>
      <trkpt lat="44.25777" lon="9.51477">
        <ele>414.47</ele>
        <time>2016-10-08T10:34:22Z</time>
      </trkpt>
      <trkpt lat="44.25795" lon="9.51527">
        <ele>416.39</ele>
        <time>2016-10-08T10:34:39Z</time>
      </trkpt>
      <trkpt lat="44.258" lon="9.51572">
        <ele>418.31</ele>
        <time>2016-10-08T10:34:55Z</time>
      </trkpt>
      <trkpt lat="44.25797" lon="9.51608">
        <ele>420.23</ele>
        <time>2016-10-08T10:35:11Z</time>
      </trkpt>
      <trkpt lat="44.25793" lon="9.51643">
        <ele>423.12</ele>
        <time>2016-10-08T10:35:27Z</time>
      </trkpt>
      <trkpt lat="44.25789" lon="9.51666">
        <ele>424.56</ele>
        <time>2016-10-08T10:35:40Z</time>
      </trkpt>
      <trkpt lat="44.25787" lon="9.5168">
        <ele>425.04</ele>
        <time>2016-10-08T10:35:47Z</time>
      </trkpt>
      <trkpt lat="44.25786" lon="9.51682">
        <ele>425.04</ele>
        <time>2016-10-08T10:35:48Z</time>
      </trkpt>
      <trkpt lat="44.25786" lon="9.51684">
        <ele>425.52</ele>
        <time>2016-10-08T10:35:49Z</time>
      </trkpt>
      <trkpt lat="44.25782" lon="9.51718">
        <ele>427.44</ele>
        <time>2016-10-08T10:36:06Z</time>
      </trkpt>
      <trkpt lat="44.25779" lon="9.51748">
        <ele>429.37</ele>
        <time>2016-10-08T10:36:21Z</time>
      </trkpt>
      <trkpt lat="44.25776" lon="9.51786">
        <ele>431.77</ele>
        <time>2016-10-08T10:36:39Z</time>
      </trkpt>
      <trkpt lat="44.25772" lon="9.51822">
        <ele>433.69</ele>
        <time>2016-10-08T10:36:56Z</time>
      </trkpt>
      <trkpt lat="44.25765" lon="9.5185">
        <ele>436.1</ele>
        <time>2016-10-08T10:37:13Z</time>
      </trkpt>
      <trkpt lat="44.25764" lon="9.51852">
        <ele>435.61</ele>
        <time>2016-10-08T10:37:14Z</time>
      </trkpt>
      <trkpt lat="44.25764" lon="9.51853">
        <ele>436.58</ele>
        <time>2016-10-08T10:37:15Z</time>
      </trkpt>
      <trkpt lat="44.25763" lon="9.51854">
        <ele>436.58</ele>
        <time>2016-10-08T10:37:16Z</time>
      </trkpt>
      <trkpt lat="44.25754" lon="9.51883">
        <ele>438.5</ele>
        <time>2016-10-08T10:37:32Z</time>
      </trkpt>
      <trkpt lat="44.25747" lon="9.51918">
        <ele>439.94</ele>
        <time>2016-10-08T10:37:49Z</time>
      </trkpt>
      <trkpt lat="44.25739" lon="9.51951">
        <ele>442.82</ele>
        <time>2016-10-08T10:38:06Z</time>
      </trkpt>
      <trkpt lat="44.25733" lon="9.51989">
        <ele>445.23</ele>
        <time>2016-10-08T10:38:25Z</time>
      </trkpt>
      <trkpt lat="44.25727" lon="9.52027">
        <ele>447.63</ele>
        <time>2016-10-08T10:38:43Z</time>
      </trkpt>
      <trkpt lat="44.25726" lon="9.52062">
        <ele>450.03</ele>
        <time>2016-10-08T10:39:00Z</time>
      </trkpt>
      <trkpt lat="44.25728" lon="9.52096">
        <ele>451.48</ele>
        <time>2016-10-08T10:39:17Z</time>
      </trkpt>
      <trkpt lat="44.2573" lon="9.52126">
        <ele>453.88</ele>
        <time>2016-10-08T10:39:32Z</time>
      </trkpt>
      <trkpt lat="44.25721" lon="9.52164">
        <ele>455.8</ele>
        <time>2016-10-08T10:39:50Z</time>
      </trkpt>
      <trkpt lat="44.25708" lon="9.52185">
        <ele>459.17</ele>
        <time>2016-10-08T10:40:05Z</time>
      </trkpt>
      <trkpt lat="44.25701" lon="9.52195">
        <ele>459.65</ele>
        <time>2016-10-08T10:40:13Z</time>
      </trkpt>
      <trkpt lat="44.257" lon="9.52196">
        <ele>459.65</ele>
        <time>2016-10-08T10:40:14Z</time>
      </trkpt>
      <trkpt lat="44.257" lon="9.52198">
        <ele>460.13</ele>
        <time>2016-10-08T10:40:15Z</time>
      </trkpt>
      <trkpt lat="44.25697" lon="9.52202">
        <ele>460.61</ele>
        <time>2016-10-08T10:40:19Z</time>
      </trkpt>
      <trkpt lat="44.25696" lon="9.52204">
        <ele>460.61</ele>
        <time>2016-10-08T10:40:21Z</time>
      </trkpt>
      <trkpt lat="44.25684" lon="9.52235">
        <ele>463.01</ele>
        <time>2016-10-08T10:40:40Z</time>
      </trkpt>
      <trkpt lat="44.25672" lon="9.52265">
        <ele>464.45</ele>
        <time>2016-10-08T10:40:56Z</time>
      </trkpt>
      <trkpt lat="44.25663" lon="9.52293">
        <ele>466.38</ele>
        <time>2016-10-08T10:41:11Z</time>
      </trkpt>
      <trkpt lat="44.25654" lon="9.52315">
        <ele>468.78</ele>
        <time>2016-10-08T10:41:25Z</time>
      </trkpt>
      <trkpt lat="44.25653" lon="9.52317">
        <ele>468.78</ele>
        <time>2016-10-08T10:41:26Z</time>
      </trkpt>
      <trkpt lat="44.25653" lon="9.52318">
        <ele>469.26</ele>
        <time>2016-10-08T10:41:27Z</time>
      </trkpt>
      <trkpt lat="44.25652" lon="9.52319">
        <ele>469.26</ele>
        <time>2016-10-08T10:41:28Z</time>
      </trkpt>
      <trkpt lat="44.25651" lon="9.52321">
        <ele>469.26</ele>
        <time>2016-10-08T10:41:29Z</time>
      </trkpt>
      <trkpt lat="44.25651" lon="9.52323">
        <ele>469.26</ele>
        <time>2016-10-08T10:41:30Z</time>
      </trkpt>
      <trkpt lat="44.25651" lon="9.52325">
        <ele>469.26</ele>
        <time>2016-10-08T10:41:31Z</time>
      </trkpt>
      <trkpt lat="44.2565" lon="9.52326">
        <ele>469.26</ele>
        <time>2016-10-08T10:41:32Z</time>
      </trkpt>
      <trkpt lat="44.25644" lon="9.52355">
        <ele>472.14</ele>
        <time>2016-10-08T10:41:46Z</time>
      </trkpt>
      <trkpt lat="44.25643" lon="9.5239">
        <ele>474.07</ele>
        <time>2016-10-08T10:42:04Z</time>
      </trkpt>
      <trkpt lat="44.25645" lon="9.52417">
        <ele>475.51</ele>
        <time>2016-10-08T10:42:18Z</time>
      </trkpt>
      <trkpt lat="44.25639" lon="9.52448">
        <ele>477.43</ele>
        <time>2016-10-08T10:42:32Z</time>
      </trkpt>
      <trkpt lat="44.25626" lon="9.5247">
        <ele>480.8</ele>
        <time>2016-10-08T10:42:49Z</time>
      </trkpt>
      <trkpt lat="44.25608" lon="9.52492">
        <ele>483.2</ele>
        <time>2016-10-08T10:43:08Z</time>
      </trkpt>
      <trkpt lat="44.25594" lon="9.5252">
        <ele>485.12</ele>
        <time>2016-10-08T10:43:27Z</time>
      </trkpt>
      <trkpt lat="44.25582" lon="9.52545">
        <ele>487.05</ele>
        <time>2016-10-08T10:43:42Z</time>
      </trkpt>
      <trkpt lat="44.25574" lon="9.5257">
        <ele>488.97</ele>
        <time>2016-10-08T10:43:58Z</time>
      </trkpt>
      <trkpt lat="44.25571" lon="9.52598">
        <ele>490.41</ele>
        <time>2016-10-08T10:44:13Z</time>
      </trkpt>
      <trkpt lat="44.25571" lon="9.52601">
        <ele>490.41</ele>
        <time>2016-10-08T10:44:15Z</time>
      </trkpt>
      <trkpt lat="44.25571" lon="9.52603">
        <ele>490.41</ele>
        <time>2016-10-08T10:44:16Z</time>
      </trkpt>
      <trkpt lat="44.25571" lon="9.52626">
        <ele>492.81</ele>
        <time>2016-10-08T10:44:29Z</time>
      </trkpt>
      <trkpt lat="44.25571" lon="9.52628">
        <ele>492.33</ele>
        <time>2016-10-08T10:44:30Z</time>
      </trkpt>
      <trkpt lat="44.25569" lon="9.52637">
        <ele>492.81</ele>
        <time>2016-10-08T10:44:36Z</time>
      </trkpt>
      <trkpt lat="44.25569" lon="9.52639">
        <ele>492.81</ele>
        <time>2016-10-08T10:44:37Z</time>
      </trkpt>
      <trkpt lat="44.25566" lon="9.52666">
        <ele>494.74</ele>
        <time>2016-10-08T10:44:52Z</time>
      </trkpt>
      <trkpt lat="44.25562" lon="9.52698">
        <ele>496.18</ele>
        <time>2016-10-08T10:45:09Z</time>
      </trkpt>
      <trkpt lat="44.25558" lon="9.52712">
        <ele>498.1</ele>
        <time>2016-10-08T10:45:19Z</time>
      </trkpt>
      <trkpt lat="44.25558" lon="9.52713">
        <ele>498.1</ele>
        <time>2016-10-08T10:45:20Z</time>
      </trkpt>
      <trkpt lat="44.25557" lon="9.52714">
        <ele>498.1</ele>
        <time>2016-10-08T10:45:21Z</time>
      </trkpt>
      <trkpt lat="44.25556" lon="9.52715">
        <ele>498.58</ele>
        <time>2016-10-08T10:45:22Z</time>
      </trkpt>
      <trkpt lat="44.25555" lon="9.52716">
        <ele>498.58</ele>
        <time>2016-10-08T10:45:23Z</time>
      </trkpt>
      <trkpt lat="44.25554" lon="9.52717">
        <ele>499.06</ele>
        <time>2016-10-08T10:45:24Z</time>
      </trkpt>
      <trkpt lat="44.25553" lon="9.52718">
        <ele>499.06</ele>
        <time>2016-10-08T10:45:25Z</time>
      </trkpt>
      <trkpt lat="44.25552" lon="9.52719">
        <ele>499.06</ele>
        <time>2016-10-08T10:45:26Z</time>
      </trkpt>
      <trkpt lat="44.25551" lon="9.5272">
        <ele>499.54</ele>
        <time>2016-10-08T10:45:27Z</time>
      </trkpt>
      <trkpt lat="44.2555" lon="9.52721">
        <ele>499.54</ele>
        <time>2016-10-08T10:45:28Z</time>
      </trkpt>
      <trkpt lat="44.25532" lon="9.52737">
        <ele>501.95</ele>
        <time>2016-10-08T10:45:45Z</time>
      </trkpt>
      <trkpt lat="44.25512" lon="9.52754">
        <ele>503.39</ele>
        <time>2016-10-08T10:46:02Z</time>
      </trkpt>
      <trkpt lat="44.25511" lon="9.52757">
        <ele>503.39</ele>
        <time>2016-10-08T10:46:04Z</time>
      </trkpt>
      <trkpt lat="44.25497" lon="9.52776">
        <ele>505.31</ele>
        <time>2016-10-08T10:46:18Z</time>
      </trkpt>
      <trkpt lat="44.25482" lon="9.52798">
        <ele>507.71</ele>
        <time>2016-10-08T10:46:35Z</time>
      </trkpt>
      <trkpt lat="44.25468" lon="9.52819">
        <ele>509.16</ele>
        <time>2016-10-08T10:46:51Z</time>
      </trkpt>
      <trkpt lat="44.25458" lon="9.52834">
        <ele>510.12</ele>
        <time>2016-10-08T10:47:03Z</time>
      </trkpt>
      <trkpt lat="44.25457" lon="9.52835">
        <ele>510.12</ele>
        <time>2016-10-08T10:47:04Z</time>
      </trkpt>
      <trkpt lat="44.25437" lon="9.52857">
        <ele>512.52</ele>
        <time>2016-10-08T10:47:22Z</time>
      </trkpt>
      <trkpt lat="44.25423" lon="9.52875">
        <ele>514.44</ele>
        <time>2016-10-08T10:47:37Z</time>
      </trkpt>
      <trkpt lat="44.25407" lon="9.52901">
        <ele>516.37</ele>
        <time>2016-10-08T10:47:55Z</time>
      </trkpt>
      <trkpt lat="44.25399" lon="9.52915">
        <ele>517.81</ele>
        <time>2016-10-08T10:48:04Z</time>
      </trkpt>
      <trkpt lat="44.25384" lon="9.52937">
        <ele>519.25</ele>
        <time>2016-10-08T10:48:20Z</time>
      </trkpt>
      <trkpt lat="44.25374" lon="9.52944">
        <ele>519.73</ele>
        <time>2016-10-08T10:48:27Z</time>
      </trkpt>
      <trkpt lat="44.25373" lon="9.52945">
        <ele>520.21</ele>
        <time>2016-10-08T10:48:28Z</time>
      </trkpt>
      <trkpt lat="44.25371" lon="9.52946">
        <ele>520.69</ele>
        <time>2016-10-08T10:48:29Z</time>
      </trkpt>
      <trkpt lat="44.2537" lon="9.52948">
        <ele>520.69</ele>
        <time>2016-10-08T10:48:30Z</time>
      </trkpt>
      <trkpt lat="44.25369" lon="9.52949">
        <ele>520.69</ele>
        <time>2016-10-08T10:48:31Z</time>
      </trkpt>
      <trkpt lat="44.25368" lon="9.5295">
        <ele>520.69</ele>
        <time>2016-10-08T10:48:32Z</time>
      </trkpt>
      <trkpt lat="44.25367" lon="9.52951">
        <ele>520.69</ele>
        <time>2016-10-08T10:48:33Z</time>
      </trkpt>
      <trkpt lat="44.25366" lon="9.52951">
        <ele>520.21</ele>
        <time>2016-10-08T10:48:34Z</time>
      </trkpt>
      <trkpt lat="44.25364" lon="9.52952">
        <ele>520.69</ele>
        <time>2016-10-08T10:48:35Z</time>
      </trkpt>
      <trkpt lat="44.25363" lon="9.52952">
        <ele>521.17</ele>
        <time>2016-10-08T10:48:36Z</time>
      </trkpt>
      <trkpt lat="44.25359" lon="9.52953">
        <ele>521.17</ele>
        <time>2016-10-08T10:48:39Z</time>
      </trkpt>
      <trkpt lat="44.25357" lon="9.52954">
        <ele>521.17</ele>
        <time>2016-10-08T10:48:40Z</time>
      </trkpt>
      <trkpt lat="44.25356" lon="9.52954">
        <ele>521.65</ele>
        <time>2016-10-08T10:48:41Z</time>
      </trkpt>
      <trkpt lat="44.25354" lon="9.52954">
        <ele>521.65</ele>
        <time>2016-10-08T10:48:42Z</time>
      </trkpt>
      <trkpt lat="44.25353" lon="9.52954">
        <ele>521.65</ele>
        <time>2016-10-08T10:48:43Z</time>
      </trkpt>
      <trkpt lat="44.2534" lon="9.52954">
        <ele>523.58</ele>
        <time>2016-10-08T10:48:54Z</time>
      </trkpt>
      <trkpt lat="44.25339" lon="9.52954">
        <ele>524.06</ele>
        <time>2016-10-08T10:48:55Z</time>
      </trkpt>
      <trkpt lat="44.25338" lon="9.52953">
        <ele>524.06</ele>
        <time>2016-10-08T10:48:56Z</time>
      </trkpt>
      <trkpt lat="44.25337" lon="9.52953">
        <ele>524.06</ele>
        <time>2016-10-08T10:48:57Z</time>
      </trkpt>
      <trkpt lat="44.25323" lon="9.52946">
        <ele>525.5</ele>
        <time>2016-10-08T10:49:08Z</time>
      </trkpt>
      <trkpt lat="44.25318" lon="9.52943">
        <ele>525.98</ele>
        <time>2016-10-08T10:49:12Z</time>
      </trkpt>
      <trkpt lat="44.25299" lon="9.52927">
        <ele>527.9</ele>
        <time>2016-10-08T10:49:27Z</time>
      </trkpt>
      <trkpt lat="44.25291" lon="9.52922">
        <ele>528.86</ele>
        <time>2016-10-08T10:49:33Z</time>
      </trkpt>
      <trkpt lat="44.25277" lon="9.52911">
        <ele>529.82</ele>
        <time>2016-10-08T10:49:45Z</time>
      </trkpt>
      <trkpt lat="44.25276" lon="9.5291">
        <ele>529.82</ele>
        <time>2016-10-08T10:49:46Z</time>
      </trkpt>
      <trkpt lat="44.25274" lon="9.52909">
        <ele>529.82</ele>
        <time>2016-10-08T10:49:47Z</time>
      </trkpt>
      <trkpt lat="44.25271" lon="9.52908">
        <ele>530.3</ele>
        <time>2016-10-08T10:49:48Z</time>
      </trkpt>
      <trkpt lat="44.25259" lon="9.52903">
        <ele>531.27</ele>
        <time>2016-10-08T10:49:55Z</time>
      </trkpt>
      <trkpt lat="44.25258" lon="9.52902">
        <ele>530.79</ele>
        <time>2016-10-08T10:49:56Z</time>
      </trkpt>
      <trkpt lat="44.25257" lon="9.52901">
        <ele>531.27</ele>
        <time>2016-10-08T10:49:57Z</time>
      </trkpt>
      <trkpt lat="44.25244" lon="9.52896">
        <ele>532.71</ele>
        <time>2016-10-08T10:50:10Z</time>
      </trkpt>
      <trkpt lat="44.25241" lon="9.52898">
        <ele>532.71</ele>
        <time>2016-10-08T10:50:13Z</time>
      </trkpt>
      <trkpt lat="44.2524" lon="9.529">
        <ele>533.19</ele>
        <time>2016-10-08T10:50:14Z</time>
      </trkpt>
      <trkpt lat="44.25235" lon="9.52906">
        <ele>533.67</ele>
        <time>2016-10-08T10:50:19Z</time>
      </trkpt>
      <trkpt lat="44.25236" lon="9.52908">
        <ele>533.67</ele>
        <time>2016-10-08T10:50:20Z</time>
      </trkpt>
      <trkpt lat="44.25237" lon="9.5291">
        <ele>534.15</ele>
        <time>2016-10-08T10:50:21Z</time>
      </trkpt>
      <trkpt lat="44.25237" lon="9.52912">
        <ele>534.15</ele>
        <time>2016-10-08T10:50:22Z</time>
      </trkpt>
      <trkpt lat="44.25237" lon="9.52914">
        <ele>534.15</ele>
        <time>2016-10-08T10:50:23Z</time>
      </trkpt>
      <trkpt lat="44.25237" lon="9.52917">
        <ele>534.63</ele>
        <time>2016-10-08T10:50:26Z</time>
      </trkpt>
      <trkpt lat="44.25238" lon="9.52919">
        <ele>534.63</ele>
        <time>2016-10-08T10:50:27Z</time>
      </trkpt>
      <trkpt lat="44.25249" lon="9.52937">
        <ele>535.59</ele>
        <time>2016-10-08T10:50:38Z</time>
      </trkpt>
      <trkpt lat="44.25261" lon="9.52953">
        <ele>537.03</ele>
        <time>2016-10-08T10:50:48Z</time>
      </trkpt>
      <trkpt lat="44.25262" lon="9.52955">
        <ele>537.51</ele>
        <time>2016-10-08T10:50:49Z</time>
      </trkpt>
      <trkpt lat="44.25263" lon="9.52957">
        <ele>537.51</ele>
        <time>2016-10-08T10:50:50Z</time>
      </trkpt>
      <trkpt lat="44.25278" lon="9.52981">
        <ele>538.48</ele>
        <time>2016-10-08T10:51:04Z</time>
      </trkpt>
      <trkpt lat="44.25294" lon="9.53002">
        <ele>540.88</ele>
        <time>2016-10-08T10:51:19Z</time>
      </trkpt>
      <trkpt lat="44.25313" lon="9.53021">
        <ele>541.84</ele>
        <time>2016-10-08T10:51:34Z</time>
      </trkpt>
      <trkpt lat="44.25331" lon="9.53037">
        <ele>544.24</ele>
        <time>2016-10-08T10:51:49Z</time>
      </trkpt>
      <trkpt lat="44.2535" lon="9.53054">
        <ele>546.65</ele>
        <time>2016-10-08T10:52:06Z</time>
      </trkpt>
      <trkpt lat="44.25363" lon="9.53086">
        <ele>548.57</ele>
        <time>2016-10-08T10:52:24Z</time>
      </trkpt>
      <trkpt lat="44.25368" lon="9.53117">
        <ele>550.49</ele>
        <time>2016-10-08T10:52:38Z</time>
      </trkpt>
      <trkpt lat="44.25368" lon="9.53119">
        <ele>550.49</ele>
        <time>2016-10-08T10:52:39Z</time>
      </trkpt>
      <trkpt lat="44.25368" lon="9.53122">
        <ele>550.97</ele>
        <time>2016-10-08T10:52:40Z</time>
      </trkpt>
      <trkpt lat="44.25365" lon="9.53135">
        <ele>550.97</ele>
        <time>2016-10-08T10:52:45Z</time>
      </trkpt>
      <trkpt lat="44.25366" lon="9.53137">
        <ele>551.45</ele>
        <time>2016-10-08T10:52:46Z</time>
      </trkpt>
      <trkpt lat="44.25366" lon="9.53139">
        <ele>551.45</ele>
        <time>2016-10-08T10:52:47Z</time>
      </trkpt>
      <trkpt lat="44.25367" lon="9.53142">
        <ele>550.97</ele>
        <time>2016-10-08T10:52:48Z</time>
      </trkpt>
      <trkpt lat="44.25366" lon="9.53144">
        <ele>550.97</ele>
        <time>2016-10-08T10:52:49Z</time>
      </trkpt>
      <trkpt lat="44.25366" lon="9.53147">
        <ele>551.45</ele>
        <time>2016-10-08T10:52:50Z</time>
      </trkpt>
      <trkpt lat="44.25345" lon="9.5317">
        <ele>551.45</ele>
        <time>2016-10-08T10:53:02Z</time>
      </trkpt>
      <trkpt lat="44.25317" lon="9.53202">
        <ele>552.9</ele>
        <time>2016-10-08T10:53:15Z</time>
      </trkpt>
      <trkpt lat="44.25331" lon="9.53241">
        <ele>552.41</ele>
        <time>2016-10-08T10:53:23Z</time>
      </trkpt>
      <trkpt lat="44.2536" lon="9.5332">
        <ele>552.9</ele>
        <time>2016-10-08T10:53:38Z</time>
      </trkpt>
      <trkpt lat="44.25357" lon="9.53369">
        <ele>553.38</ele>
        <time>2016-10-08T10:53:49Z</time>
      </trkpt>
      <trkpt lat="44.25376" lon="9.53425">
        <ele>553.38</ele>
        <time>2016-10-08T10:54:02Z</time>
      </trkpt>
      <trkpt lat="44.2536" lon="9.5347">
        <ele>554.34</ele>
        <time>2016-10-08T10:54:14Z</time>
      </trkpt>
      <trkpt lat="44.2534" lon="9.53527">
        <ele>555.3</ele>
        <time>2016-10-08T10:54:28Z</time>
      </trkpt>
      <trkpt lat="44.25339" lon="9.53539">
        <ele>555.78</ele>
        <time>2016-10-08T10:54:31Z</time>
      </trkpt>
      <trkpt lat="44.25342" lon="9.53592">
        <ele>556.26</ele>
        <time>2016-10-08T10:54:44Z</time>
      </trkpt>
      <trkpt lat="44.25342" lon="9.53651">
        <ele>556.26</ele>
        <time>2016-10-08T10:54:57Z</time>
      </trkpt>
      <trkpt lat="44.25336" lon="9.53715">
        <ele>557.7</ele>
        <time>2016-10-08T10:55:13Z</time>
      </trkpt>
      <trkpt lat="44.25334" lon="9.53718">
        <ele>557.7</ele>
        <time>2016-10-08T10:55:14Z</time>
      </trkpt>
      <trkpt lat="44.25333" lon="9.53721">
        <ele>558.18</ele>
        <time>2016-10-08T10:55:15Z</time>
      </trkpt>
      <trkpt lat="44.25332" lon="9.53725">
        <ele>557.7</ele>
        <time>2016-10-08T10:55:16Z</time>
      </trkpt>
      <trkpt lat="44.25331" lon="9.5373">
        <ele>558.18</ele>
        <time>2016-10-08T10:55:17Z</time>
      </trkpt>
      <trkpt lat="44.25328" lon="9.53759">
        <ele>559.14</ele>
        <time>2016-10-08T10:55:29Z</time>
      </trkpt>
      <trkpt lat="44.25331" lon="9.5376">
        <ele>559.14</ele>
        <time>2016-10-08T10:55:45Z</time>
      </trkpt>
      <trkpt lat="44.25332" lon="9.53761">
        <ele>559.14</ele>
        <time>2016-10-08T10:56:21Z</time>
      </trkpt>
      <trkpt lat="44.2533" lon="9.53761">
        <ele>560.59</ele>
        <time>2016-10-08T10:57:05Z</time>
      </trkpt>
      <trkpt lat="44.25331" lon="9.53759">
        <ele>559.14</ele>
        <time>2016-10-08T10:57:30Z</time>
      </trkpt>
      <trkpt lat="44.25335" lon="9.53758">
        <ele>559.62</ele>
        <time>2016-10-08T10:57:57Z</time>
      </trkpt>
      <trkpt lat="44.25331" lon="9.5376">
        <ele>559.14</ele>
        <time>2016-10-08T10:58:20Z</time>
      </trkpt>
      <trkpt lat="44.25331" lon="9.5376">
        <ele>560.11</ele>
        <time>2016-10-08T10:58:40Z</time>
      </trkpt>
      <trkpt lat="44.2533" lon="9.53763">
        <ele>559.14</ele>
        <time>2016-10-08T10:58:52Z</time>
      </trkpt>
      <trkpt lat="44.2533" lon="9.53763">
        <ele>559.62</ele>
        <time>2016-10-08T10:59:09Z</time>
      </trkpt>
      <trkpt lat="44.25331" lon="9.53763">
        <ele>559.14</ele>
        <time>2016-10-08T10:59:38Z</time>
      </trkpt>
      <trkpt lat="44.25329" lon="9.53762">
        <ele>559.14</ele>
        <time>2016-10-08T10:59:59Z</time>
      </trkpt>
      <trkpt lat="44.2533" lon="9.53763">
        <ele>559.14</ele>
        <time>2016-10-08T11:00:23Z</time>
      </trkpt>
      <trkpt lat="44.25332" lon="9.53766">
        <ele>559.62</ele>
        <time>2016-10-08T11:00:41Z</time>
      </trkpt>
      <trkpt lat="44.25333" lon="9.53767">
        <ele>559.14</ele>
        <time>2016-10-08T11:00:42Z</time>
      </trkpt>
      <trkpt lat="44.25334" lon="9.53769">
        <ele>559.62</ele>
        <time>2016-10-08T11:00:43Z</time>
      </trkpt>
      <trkpt lat="44.25363" lon="9.53808">
        <ele>559.62</ele>
        <time>2016-10-08T11:00:58Z</time>
      </trkpt>
      <trkpt lat="44.25383" lon="9.53855">
        <ele>560.11</ele>
        <time>2016-10-08T11:01:11Z</time>
      </trkpt>
      <trkpt lat="44.25402" lon="9.53919">
        <ele>562.03</ele>
        <time>2016-10-08T11:01:28Z</time>
      </trkpt>
      <trkpt lat="44.2542" lon="9.53975">
        <ele>562.51</ele>
        <time>2016-10-08T11:01:42Z</time>
      </trkpt>
      <trkpt lat="44.25417" lon="9.54037">
        <ele>563.47</ele>
        <time>2016-10-08T11:01:55Z</time>
      </trkpt>
      <trkpt lat="44.25407" lon="9.54107">
        <ele>562.99</ele>
        <time>2016-10-08T11:02:11Z</time>
      </trkpt>
      <trkpt lat="44.25374" lon="9.54181">
        <ele>563.95</ele>
        <time>2016-10-08T11:02:28Z</time>
      </trkpt>
      <trkpt lat="44.25362" lon="9.5424">
        <ele>564.91</ele>
        <time>2016-10-08T11:02:39Z</time>
      </trkpt>
      <trkpt lat="44.25362" lon="9.54246">
        <ele>564.91</ele>
        <time>2016-10-08T11:02:40Z</time>
      </trkpt>
      <trkpt lat="44.25363" lon="9.54252">
        <ele>564.43</ele>
        <time>2016-10-08T11:02:41Z</time>
      </trkpt>
      <trkpt lat="44.25364" lon="9.54258">
        <ele>564.91</ele>
        <time>2016-10-08T11:02:42Z</time>
      </trkpt>
      <trkpt lat="44.25365" lon="9.54264">
        <ele>564.91</ele>
        <time>2016-10-08T11:02:43Z</time>
      </trkpt>
      <trkpt lat="44.25367" lon="9.5427">
        <ele>564.91</ele>
        <time>2016-10-08T11:02:44Z</time>
      </trkpt>
      <trkpt lat="44.25387" lon="9.5431">
        <ele>565.87</ele>
        <time>2016-10-08T11:02:52Z</time>
      </trkpt>
      <trkpt lat="44.25403" lon="9.54329">
        <ele>565.39</ele>
        <time>2016-10-08T11:02:57Z</time>
      </trkpt>
      <trkpt lat="44.2541" lon="9.54344">
        <ele>565.39</ele>
        <time>2016-10-08T11:03:00Z</time>
      </trkpt>
      <trkpt lat="44.25411" lon="9.54349">
        <ele>565.39</ele>
        <time>2016-10-08T11:03:01Z</time>
      </trkpt>
      <trkpt lat="44.25412" lon="9.54354">
        <ele>565.39</ele>
        <time>2016-10-08T11:03:02Z</time>
      </trkpt>
      <trkpt lat="44.25413" lon="9.5436">
        <ele>565.39</ele>
        <time>2016-10-08T11:03:03Z</time>
      </trkpt>
      <trkpt lat="44.25413" lon="9.54365">
        <ele>565.87</ele>
        <time>2016-10-08T11:03:04Z</time>
      </trkpt>
      <trkpt lat="44.25419" lon="9.54443">
        <ele>566.83</ele>
        <time>2016-10-08T11:03:19Z</time>
      </trkpt>
      <trkpt lat="44.25439" lon="9.54525">
        <ele>567.32</ele>
        <time>2016-10-08T11:03:35Z</time>
      </trkpt>
      <trkpt lat="44.25444" lon="9.54605">
        <ele>567.8</ele>
        <time>2016-10-08T11:03:50Z</time>
      </trkpt>
      <trkpt lat="44.25421" lon="9.547">
        <ele>568.28</ele>
        <time>2016-10-08T11:04:07Z</time>
      </trkpt>
      <trkpt lat="44.25412" lon="9.54713">
        <ele>567.8</ele>
        <time>2016-10-08T11:04:10Z</time>
      </trkpt>
      <trkpt lat="44.25409" lon="9.54716">
        <ele>567.8</ele>
        <time>2016-10-08T11:04:11Z</time>
      </trkpt>
      <trkpt lat="44.25386" lon="9.54771">
        <ele>568.28</ele>
        <time>2016-10-08T11:04:23Z</time>
      </trkpt>
      <trkpt lat="44.25391" lon="9.54843">
        <ele>570.2</ele>
        <time>2016-10-08T11:04:39Z</time>
      </trkpt>
      <trkpt lat="44.25421" lon="9.54888">
        <ele>570.2</ele>
        <time>2016-10-08T11:04:52Z</time>
      </trkpt>
      <trkpt lat="44.25433" lon="9.54903">
        <ele>570.2</ele>
        <time>2016-10-08T11:04:56Z</time>
      </trkpt>
      <trkpt lat="44.25436" lon="9.54907">
        <ele>570.2</ele>
        <time>2016-10-08T11:04:57Z</time>
      </trkpt>
      <trkpt lat="44.25446" lon="9.54918">
        <ele>570.68</ele>
        <time>2016-10-08T11:05:00Z</time>
      </trkpt>
      <trkpt lat="44.25476" lon="9.54945">
        <ele>571.16</ele>
        <time>2016-10-08T11:05:12Z</time>
      </trkpt>
      <trkpt lat="44.25513" lon="9.54961">
        <ele>571.16</ele>
        <time>2016-10-08T11:05:25Z</time>
      </trkpt>
      <trkpt lat="44.25532" lon="9.55">
        <ele>571.64</ele>
        <time>2016-10-08T11:05:35Z</time>
      </trkpt>
      <trkpt lat="44.25532" lon="9.55069">
        <ele>573.56</ele>
        <time>2016-10-08T11:05:51Z</time>
      </trkpt>
      <trkpt lat="44.25513" lon="9.55106">
        <ele>575.97</ele>
        <time>2016-10-08T11:06:08Z</time>
      </trkpt>
      <trkpt lat="44.25498" lon="9.55135">
        <ele>576.45</ele>
        <time>2016-10-08T11:06:22Z</time>
      </trkpt>
      <trkpt lat="44.25478" lon="9.55168">
        <ele>578.37</ele>
        <time>2016-10-08T11:06:38Z</time>
      </trkpt>
      <trkpt lat="44.25453" lon="9.55208">
        <ele>580.77</ele>
        <time>2016-10-08T11:06:57Z</time>
      </trkpt>
      <trkpt lat="44.25434" lon="9.55242">
        <ele>581.73</ele>
        <time>2016-10-08T11:07:13Z</time>
      </trkpt>
      <trkpt lat="44.25417" lon="9.55292">
        <ele>584.14</ele>
        <time>2016-10-08T11:07:33Z</time>
      </trkpt>
      <trkpt lat="44.2541" lon="9.55335">
        <ele>586.06</ele>
        <time>2016-10-08T11:07:50Z</time>
      </trkpt>
      <trkpt lat="44.25404" lon="9.55381">
        <ele>587.5</ele>
        <time>2016-10-08T11:08:08Z</time>
      </trkpt>
      <trkpt lat="44.25398" lon="9.55421">
        <ele>589.43</ele>
        <time>2016-10-08T11:08:24Z</time>
      </trkpt>
      <trkpt lat="44.25392" lon="9.5546">
        <ele>590.87</ele>
        <time>2016-10-08T11:08:38Z</time>
      </trkpt>
      <trkpt lat="44.25385" lon="9.55502">
        <ele>592.79</ele>
        <time>2016-10-08T11:08:54Z</time>
      </trkpt>
      <trkpt lat="44.25379" lon="9.55551">
        <ele>594.71</ele>
        <time>2016-10-08T11:09:12Z</time>
      </trkpt>
      <trkpt lat="44.25372" lon="9.55597">
        <ele>597.12</ele>
        <time>2016-10-08T11:09:30Z</time>
      </trkpt>
      <trkpt lat="44.25367" lon="9.55637">
        <ele>598.08</ele>
        <time>2016-10-08T11:09:45Z</time>
      </trkpt>
      <trkpt lat="44.25357" lon="9.55684">
        <ele>600</ele>
        <time>2016-10-08T11:10:03Z</time>
      </trkpt>
      <trkpt lat="44.25335" lon="9.55728">
        <ele>601.92</ele>
        <time>2016-10-08T11:10:23Z</time>
      </trkpt>
      <trkpt lat="44.25323" lon="9.55779">
        <ele>603.85</ele>
        <time>2016-10-08T11:10:43Z</time>
      </trkpt>
      <trkpt lat="44.25304" lon="9.55814">
        <ele>605.77</ele>
        <time>2016-10-08T11:10:59Z</time>
      </trkpt>
      <trkpt lat="44.25275" lon="9.55834">
        <ele>606.73</ele>
        <time>2016-10-08T11:11:17Z</time>
      </trkpt>
      <trkpt lat="44.25244" lon="9.55827">
        <ele>609.13</ele>
        <time>2016-10-08T11:11:35Z</time>
      </trkpt>
      <trkpt lat="44.25219" lon="9.5585">
        <ele>610.57</ele>
        <time>2016-10-08T11:11:52Z</time>
      </trkpt>
      <trkpt lat="44.2522" lon="9.559">
        <ele>611.06</ele>
        <time>2016-10-08T11:12:07Z</time>
      </trkpt>
      <trkpt lat="44.25229" lon="9.55959">
        <ele>610.57</ele>
        <time>2016-10-08T11:12:23Z</time>
      </trkpt>
      <trkpt lat="44.25238" lon="9.56027">
        <ele>609.61</ele>
        <time>2016-10-08T11:12:36Z</time>
      </trkpt>
      <trkpt lat="44.25237" lon="9.56033">
        <ele>610.09</ele>
        <time>2016-10-08T11:12:37Z</time>
      </trkpt>
      <trkpt lat="44.25237" lon="9.56039">
        <ele>609.61</ele>
        <time>2016-10-08T11:12:38Z</time>
      </trkpt>
      <trkpt lat="44.25235" lon="9.56044">
        <ele>609.61</ele>
        <time>2016-10-08T11:12:39Z</time>
      </trkpt>
      <trkpt lat="44.25234" lon="9.5605">
        <ele>609.61</ele>
        <time>2016-10-08T11:12:40Z</time>
      </trkpt>
      <trkpt lat="44.25203" lon="9.56129">
        <ele>609.13</ele>
        <time>2016-10-08T11:12:54Z</time>
      </trkpt>
      <trkpt lat="44.25198" lon="9.56141">
        <ele>608.65</ele>
        <time>2016-10-08T11:12:56Z</time>
      </trkpt>
      <trkpt lat="44.25196" lon="9.56148">
        <ele>608.17</ele>
        <time>2016-10-08T11:12:57Z</time>
      </trkpt>
      <trkpt lat="44.25194" lon="9.56155">
        <ele>608.65</ele>
        <time>2016-10-08T11:12:58Z</time>
      </trkpt>
      <trkpt lat="44.25194" lon="9.56162">
        <ele>608.65</ele>
        <time>2016-10-08T11:12:59Z</time>
      </trkpt>
      <trkpt lat="44.25193" lon="9.56169">
        <ele>608.17</ele>
        <time>2016-10-08T11:13:00Z</time>
      </trkpt>
      <trkpt lat="44.25194" lon="9.56176">
        <ele>608.17</ele>
        <time>2016-10-08T11:13:01Z</time>
      </trkpt>
      <trkpt lat="44.25195" lon="9.56182">
        <ele>608.17</ele>
        <time>2016-10-08T11:13:02Z</time>
      </trkpt>
      <trkpt lat="44.25196" lon="9.56189">
        <ele>608.17</ele>
        <time>2016-10-08T11:13:03Z</time>
      </trkpt>
      <trkpt lat="44.25199" lon="9.56195">
        <ele>608.65</ele>
        <time>2016-10-08T11:13:04Z</time>
      </trkpt>
      <trkpt lat="44.25212" lon="9.56223">
        <ele>607.69</ele>
        <time>2016-10-08T11:13:09Z</time>
      </trkpt>
      <trkpt lat="44.25213" lon="9.56229">
        <ele>607.21</ele>
        <time>2016-10-08T11:13:10Z</time>
      </trkpt>
      <trkpt lat="44.25215" lon="9.56236">
        <ele>607.69</ele>
        <time>2016-10-08T11:13:11Z</time>
      </trkpt>
      <trkpt lat="44.25215" lon="9.56242">
        <ele>607.69</ele>
        <time>2016-10-08T11:13:12Z</time>
      </trkpt>
      <trkpt lat="44.25215" lon="9.56249">
        <ele>607.21</ele>
        <time>2016-10-08T11:13:13Z</time>
      </trkpt>
      <trkpt lat="44.25214" lon="9.56256">
        <ele>607.21</ele>
        <time>2016-10-08T11:13:14Z</time>
      </trkpt>
      <trkpt lat="44.25195" lon="9.5639">
        <ele>606.25</ele>
        <time>2016-10-08T11:13:32Z</time>
      </trkpt>
      <trkpt lat="44.25193" lon="9.56405">
        <ele>607.21</ele>
        <time>2016-10-08T11:13:34Z</time>
      </trkpt>
      <trkpt lat="44.25193" lon="9.56413">
        <ele>606.25</ele>
        <time>2016-10-08T11:13:35Z</time>
      </trkpt>
      <trkpt lat="44.25194" lon="9.5642">
        <ele>605.29</ele>
        <time>2016-10-08T11:13:36Z</time>
      </trkpt>
      <trkpt lat="44.25196" lon="9.56428">
        <ele>604.81</ele>
        <time>2016-10-08T11:13:37Z</time>
      </trkpt>
      <trkpt lat="44.25198" lon="9.56435">
        <ele>604.81</ele>
        <time>2016-10-08T11:13:38Z</time>
      </trkpt>
      <trkpt lat="44.25217" lon="9.56511">
        <ele>604.33</ele>
        <time>2016-10-08T11:13:48Z</time>
      </trkpt>
      <trkpt lat="44.25217" lon="9.56519">
        <ele>603.85</ele>
        <time>2016-10-08T11:13:49Z</time>
      </trkpt>
      <trkpt lat="44.25216" lon="9.56526">
        <ele>604.33</ele>
        <time>2016-10-08T11:13:50Z</time>
      </trkpt>
      <trkpt lat="44.25215" lon="9.56534">
        <ele>603.85</ele>
        <time>2016-10-08T11:13:51Z</time>
      </trkpt>
      <trkpt lat="44.25213" lon="9.56541">
        <ele>604.33</ele>
        <time>2016-10-08T11:13:52Z</time>
      </trkpt>
      <trkpt lat="44.252" lon="9.56617">
        <ele>603.85</ele>
        <time>2016-10-08T11:14:02Z</time>
      </trkpt>
      <trkpt lat="44.25197" lon="9.56624">
        <ele>603.85</ele>
        <time>2016-10-08T11:14:03Z</time>
      </trkpt>
      <trkpt lat="44.25193" lon="9.56629">
        <ele>603.85</ele>
        <time>2016-10-08T11:14:04Z</time>
      </trkpt>
      <trkpt lat="44.25189" lon="9.56633">
        <ele>603.85</ele>
        <time>2016-10-08T11:14:05Z</time>
      </trkpt>
      <trkpt lat="44.25184" lon="9.56636">
        <ele>603.85</ele>
        <time>2016-10-08T11:14:06Z</time>
      </trkpt>
      <trkpt lat="44.25178" lon="9.56638">
        <ele>602.88</ele>
        <time>2016-10-08T11:14:07Z</time>
      </trkpt>
      <trkpt lat="44.25172" lon="9.56638">
        <ele>602.4</ele>
        <time>2016-10-08T11:14:08Z</time>
      </trkpt>
      <trkpt lat="44.25155" lon="9.56641">
        <ele>603.85</ele>
        <time>2016-10-08T11:14:11Z</time>
      </trkpt>
      <trkpt lat="44.25149" lon="9.56643">
        <ele>603.85</ele>
        <time>2016-10-08T11:14:12Z</time>
      </trkpt>
      <trkpt lat="44.25145" lon="9.56647">
        <ele>604.33</ele>
        <time>2016-10-08T11:14:13Z</time>
      </trkpt>
      <trkpt lat="44.25141" lon="9.56651">
        <ele>604.33</ele>
        <time>2016-10-08T11:14:14Z</time>
      </trkpt>
      <trkpt lat="44.25138" lon="9.56655">
        <ele>604.33</ele>
        <time>2016-10-08T11:14:15Z</time>
      </trkpt>
      <trkpt lat="44.25135" lon="9.5666">
        <ele>604.33</ele>
        <time>2016-10-08T11:14:16Z</time>
      </trkpt>
      <trkpt lat="44.25133" lon="9.56666">
        <ele>603.85</ele>
        <time>2016-10-08T11:14:17Z</time>
      </trkpt>
      <trkpt lat="44.25131" lon="9.56671">
        <ele>604.33</ele>
        <time>2016-10-08T11:14:18Z</time>
      </trkpt>
      <trkpt lat="44.25096" lon="9.56786">
        <ele>603.36</ele>
        <time>2016-10-08T11:14:36Z</time>
      </trkpt>
      <trkpt lat="44.25093" lon="9.5679">
        <ele>603.85</ele>
        <time>2016-10-08T11:14:37Z</time>
      </trkpt>
      <trkpt lat="44.25089" lon="9.56794">
        <ele>603.85</ele>
        <time>2016-10-08T11:14:38Z</time>
      </trkpt>
      <trkpt lat="44.25085" lon="9.56796">
        <ele>603.36</ele>
        <time>2016-10-08T11:14:39Z</time>
      </trkpt>
      <trkpt lat="44.25082" lon="9.56797">
        <ele>603.85</ele>
        <time>2016-10-08T11:14:40Z</time>
      </trkpt>
      <trkpt lat="44.25057" lon="9.56785">
        <ele>606.25</ele>
        <time>2016-10-08T11:14:50Z</time>
      </trkpt>
      <trkpt lat="44.25031" lon="9.5677">
        <ele>607.21</ele>
        <time>2016-10-08T11:15:05Z</time>
      </trkpt>
      <trkpt lat="44.24999" lon="9.56754">
        <ele>609.13</ele>
        <time>2016-10-08T11:15:22Z</time>
      </trkpt>
      <trkpt lat="44.24972" lon="9.56763">
        <ele>610.57</ele>
        <time>2016-10-08T11:15:37Z</time>
      </trkpt>
      <trkpt lat="44.2496" lon="9.5681">
        <ele>611.06</ele>
        <time>2016-10-08T11:15:51Z</time>
      </trkpt>
      <trkpt lat="44.24966" lon="9.56873">
        <ele>612.98</ele>
        <time>2016-10-08T11:16:11Z</time>
      </trkpt>
      <trkpt lat="44.24968" lon="9.56911">
        <ele>612.98</ele>
        <time>2016-10-08T11:16:27Z</time>
      </trkpt>
      <trkpt lat="44.24955" lon="9.56962">
        <ele>613.46</ele>
        <time>2016-10-08T11:16:41Z</time>
      </trkpt>
      <trkpt lat="44.24929" lon="9.57017">
        <ele>614.9</ele>
        <time>2016-10-08T11:16:56Z</time>
      </trkpt>
      <trkpt lat="44.24887" lon="9.57092">
        <ele>614.9</ele>
        <time>2016-10-08T11:17:15Z</time>
      </trkpt>
      <trkpt lat="44.24845" lon="9.57144">
        <ele>615.86</ele>
        <time>2016-10-08T11:17:34Z</time>
      </trkpt>
      <trkpt lat="44.24832" lon="9.57195">
        <ele>615.86</ele>
        <time>2016-10-08T11:17:47Z</time>
      </trkpt>
      <trkpt lat="44.24841" lon="9.57252">
        <ele>615.38</ele>
        <time>2016-10-08T11:18:03Z</time>
      </trkpt>
      <trkpt lat="44.2485" lon="9.57263">
        <ele>615.86</ele>
        <time>2016-10-08T11:18:06Z</time>
      </trkpt>
      <trkpt lat="44.24857" lon="9.57269">
        <ele>615.86</ele>
        <time>2016-10-08T11:18:08Z</time>
      </trkpt>
      <trkpt lat="44.24861" lon="9.57271">
        <ele>614.9</ele>
        <time>2016-10-08T11:18:09Z</time>
      </trkpt>
      <trkpt lat="44.24865" lon="9.57274">
        <ele>614.9</ele>
        <time>2016-10-08T11:18:10Z</time>
      </trkpt>
      <trkpt lat="44.24868" lon="9.57278">
        <ele>614.9</ele>
        <time>2016-10-08T11:18:11Z</time>
      </trkpt>
      <trkpt lat="44.24872" lon="9.57282">
        <ele>614.9</ele>
        <time>2016-10-08T11:18:12Z</time>
      </trkpt>
      <trkpt lat="44.24875" lon="9.57287">
        <ele>614.42</ele>
        <time>2016-10-08T11:18:13Z</time>
      </trkpt>
      <trkpt lat="44.24895" lon="9.57327">
        <ele>613.94</ele>
        <time>2016-10-08T11:18:20Z</time>
      </trkpt>
      <trkpt lat="44.24897" lon="9.57334">
        <ele>614.42</ele>
        <time>2016-10-08T11:18:21Z</time>
      </trkpt>
      <trkpt lat="44.24898" lon="9.57341">
        <ele>613.46</ele>
        <time>2016-10-08T11:18:22Z</time>
      </trkpt>
      <trkpt lat="44.24897" lon="9.57349">
        <ele>613.46</ele>
        <time>2016-10-08T11:18:23Z</time>
      </trkpt>
      <trkpt lat="44.24895" lon="9.57356">
        <ele>613.46</ele>
        <time>2016-10-08T11:18:24Z</time>
      </trkpt>
      <trkpt lat="44.24894" lon="9.57363">
        <ele>613.46</ele>
        <time>2016-10-08T11:18:25Z</time>
      </trkpt>
      <trkpt lat="44.24883" lon="9.57408">
        <ele>612.5</ele>
        <time>2016-10-08T11:18:31Z</time>
      </trkpt>
      <trkpt lat="44.24879" lon="9.57415">
        <ele>612.02</ele>
        <time>2016-10-08T11:18:32Z</time>
      </trkpt>
      <trkpt lat="44.24875" lon="9.57421">
        <ele>612.5</ele>
        <time>2016-10-08T11:18:33Z</time>
      </trkpt>
      <trkpt lat="44.24871" lon="9.57427">
        <ele>612.02</ele>
        <time>2016-10-08T11:18:34Z</time>
      </trkpt>
      <trkpt lat="44.24865" lon="9.57432">
        <ele>611.54</ele>
        <time>2016-10-08T11:18:35Z</time>
      </trkpt>
      <trkpt lat="44.2486" lon="9.57437">
        <ele>611.54</ele>
        <time>2016-10-08T11:18:36Z</time>
      </trkpt>
      <trkpt lat="44.24784" lon="9.57511">
        <ele>608.17</ele>
        <time>2016-10-08T11:18:49Z</time>
      </trkpt>
      <trkpt lat="44.2474" lon="9.5755">
        <ele>606.73</ele>
        <time>2016-10-08T11:18:56Z</time>
      </trkpt>
      <trkpt lat="44.2473" lon="9.57559">
        <ele>606.25</ele>
        <time>2016-10-08T11:18:58Z</time>
      </trkpt>
      <trkpt lat="44.24727" lon="9.57564">
        <ele>605.77</ele>
        <time>2016-10-08T11:18:59Z</time>
      </trkpt>
      <trkpt lat="44.24723" lon="9.5757">
        <ele>605.77</ele>
        <time>2016-10-08T11:19:00Z</time>
      </trkpt>
      <trkpt lat="44.2472" lon="9.57577">
        <ele>606.25</ele>
        <time>2016-10-08T11:19:01Z</time>
      </trkpt>
      <trkpt lat="44.24718" lon="9.57584">
        <ele>605.29</ele>
        <time>2016-10-08T11:19:02Z</time>
      </trkpt>
      <trkpt lat="44.24716" lon="9.57592">
        <ele>605.29</ele>
        <time>2016-10-08T11:19:03Z</time>
      </trkpt>
      <trkpt lat="44.24714" lon="9.57599">
        <ele>604.81</ele>
        <time>2016-10-08T11:19:04Z</time>
      </trkpt>
      <trkpt lat="44.24685" lon="9.57697">
        <ele>602.88</ele>
        <time>2016-10-08T11:19:15Z</time>
      </trkpt>
      <trkpt lat="44.24679" lon="9.57703">
        <ele>603.85</ele>
        <time>2016-10-08T11:19:16Z</time>
      </trkpt>
      <trkpt lat="44.24674" lon="9.57709">
        <ele>602.88</ele>
        <time>2016-10-08T11:19:17Z</time>
      </trkpt>
      <trkpt lat="44.24668" lon="9.57713">
        <ele>602.88</ele>
        <time>2016-10-08T11:19:18Z</time>
      </trkpt>
      <trkpt lat="44.24662" lon="9.57715">
        <ele>602.4</ele>
        <time>2016-10-08T11:19:19Z</time>
      </trkpt>
      <trkpt lat="44.24654" lon="9.57716">
        <ele>602.4</ele>
        <time>2016-10-08T11:19:20Z</time>
      </trkpt>
      <trkpt lat="44.24647" lon="9.57717">
        <ele>602.4</ele>
        <time>2016-10-08T11:19:21Z</time>
      </trkpt>
      <trkpt lat="44.24557" lon="9.57729">
        <ele>600.48</ele>
        <time>2016-10-08T11:19:33Z</time>
      </trkpt>
      <trkpt lat="44.2455" lon="9.57732">
        <ele>600.48</ele>
        <time>2016-10-08T11:19:34Z</time>
      </trkpt>
      <trkpt lat="44.24543" lon="9.57736">
        <ele>599.04</ele>
        <time>2016-10-08T11:19:35Z</time>
      </trkpt>
      <trkpt lat="44.24488" lon="9.5778">
        <ele>596.64</ele>
        <time>2016-10-08T11:19:43Z</time>
      </trkpt>
      <trkpt lat="44.24483" lon="9.57787">
        <ele>596.64</ele>
        <time>2016-10-08T11:19:44Z</time>
      </trkpt>
      <trkpt lat="44.24479" lon="9.57795">
        <ele>596.15</ele>
        <time>2016-10-08T11:19:45Z</time>
      </trkpt>
      <trkpt lat="44.24476" lon="9.57804">
        <ele>596.15</ele>
        <time>2016-10-08T11:19:46Z</time>
      </trkpt>
      <trkpt lat="44.24475" lon="9.57814">
        <ele>593.75</ele>
        <time>2016-10-08T11:19:47Z</time>
      </trkpt>
      <trkpt lat="44.24474" lon="9.57824">
        <ele>592.31</ele>
        <time>2016-10-08T11:19:48Z</time>
      </trkpt>
      <trkpt lat="44.24472" lon="9.57834">
        <ele>592.31</ele>
        <time>2016-10-08T11:19:49Z</time>
      </trkpt>
      <trkpt lat="44.24466" lon="9.57886">
        <ele>591.83</ele>
        <time>2016-10-08T11:19:54Z</time>
      </trkpt>
      <trkpt lat="44.24463" lon="9.57896">
        <ele>591.35</ele>
        <time>2016-10-08T11:19:55Z</time>
      </trkpt>
      <trkpt lat="44.24458" lon="9.57906">
        <ele>590.87</ele>
        <time>2016-10-08T11:19:56Z</time>
      </trkpt>
      <trkpt lat="44.24453" lon="9.57914">
        <ele>589.91</ele>
        <time>2016-10-08T11:19:57Z</time>
      </trkpt>
      <trkpt lat="44.24447" lon="9.57922">
        <ele>589.91</ele>
        <time>2016-10-08T11:19:58Z</time>
      </trkpt>
      <trkpt lat="44.24432" lon="9.57945">
        <ele>589.43</ele>
        <time>2016-10-08T11:20:01Z</time>
      </trkpt>
      <trkpt lat="44.24428" lon="9.57953">
        <ele>589.91</ele>
        <time>2016-10-08T11:20:02Z</time>
      </trkpt>
      <trkpt lat="44.24425" lon="9.57962">
        <ele>590.39</ele>
        <time>2016-10-08T11:20:03Z</time>
      </trkpt>
      <trkpt lat="44.24423" lon="9.57972">
        <ele>588.95</ele>
        <time>2016-10-08T11:20:04Z</time>
      </trkpt>
      <trkpt lat="44.24423" lon="9.57982">
        <ele>588.46</ele>
        <time>2016-10-08T11:20:05Z</time>
      </trkpt>
      <trkpt lat="44.24424" lon="9.57992">
        <ele>587.5</ele>
        <time>2016-10-08T11:20:06Z</time>
      </trkpt>
      <trkpt lat="44.24425" lon="9.58002">
        <ele>587.02</ele>
        <time>2016-10-08T11:20:07Z</time>
      </trkpt>
      <trkpt lat="44.24428" lon="9.58012">
        <ele>587.02</ele>
        <time>2016-10-08T11:20:08Z</time>
      </trkpt>
      <trkpt lat="44.24431" lon="9.58021">
        <ele>586.54</ele>
        <time>2016-10-08T11:20:09Z</time>
      </trkpt>
      <trkpt lat="44.24434" lon="9.5803">
        <ele>586.06</ele>
        <time>2016-10-08T11:20:10Z</time>
      </trkpt>
      <trkpt lat="44.24461" lon="9.58107">
        <ele>586.06</ele>
        <time>2016-10-08T11:20:20Z</time>
      </trkpt>
      <trkpt lat="44.24461" lon="9.58114">
        <ele>586.06</ele>
        <time>2016-10-08T11:20:21Z</time>
      </trkpt>
      <trkpt lat="44.24462" lon="9.58121">
        <ele>585.58</ele>
        <time>2016-10-08T11:20:22Z</time>
      </trkpt>
      <trkpt lat="44.2446" lon="9.58128">
        <ele>585.58</ele>
        <time>2016-10-08T11:20:23Z</time>
      </trkpt>
      <trkpt lat="44.24458" lon="9.58133">
        <ele>584.62</ele>
        <time>2016-10-08T11:20:24Z</time>
      </trkpt>
      <trkpt lat="44.24455" lon="9.58137">
        <ele>585.1</ele>
        <time>2016-10-08T11:20:25Z</time>
      </trkpt>
      <trkpt lat="44.24452" lon="9.58139">
        <ele>585.58</ele>
        <time>2016-10-08T11:20:26Z</time>
      </trkpt>
      <trkpt lat="44.24451" lon="9.58143">
        <ele>586.06</ele>
        <time>2016-10-08T11:20:27Z</time>
      </trkpt>
      <trkpt lat="44.24451" lon="9.58145">
        <ele>586.06</ele>
        <time>2016-10-08T11:20:28Z</time>
      </trkpt>
      <trkpt lat="44.24452" lon="9.58147">
        <ele>585.58</ele>
        <time>2016-10-08T11:20:29Z</time>
      </trkpt>
      <trkpt lat="44.24453" lon="9.58148">
        <ele>586.06</ele>
        <time>2016-10-08T11:20:30Z</time>
      </trkpt>
      <trkpt lat="44.24454" lon="9.58148">
        <ele>586.06</ele>
        <time>2016-10-08T11:20:31Z</time>
      </trkpt>
      <trkpt lat="44.24455" lon="9.58148">
        <ele>586.06</ele>
        <time>2016-10-08T11:20:32Z</time>
      </trkpt>
      <trkpt lat="44.24477" lon="9.58162">
        <ele>586.54</ele>
        <time>2016-10-08T11:20:44Z</time>
      </trkpt>
      <trkpt lat="44.24491" lon="9.58196">
        <ele>586.06</ele>
        <time>2016-10-08T11:20:57Z</time>
      </trkpt>
      <trkpt lat="44.24491" lon="9.58199">
        <ele>586.06</ele>
        <time>2016-10-08T11:21:13Z</time>
      </trkpt>
      <trkpt lat="44.24491" lon="9.58201">
        <ele>586.54</ele>
        <time>2016-10-08T11:21:43Z</time>
      </trkpt>
      <trkpt lat="44.24493" lon="9.582">
        <ele>586.06</ele>
        <time>2016-10-08T11:22:12Z</time>
      </trkpt>
      <trkpt lat="44.24497" lon="9.58189">
        <ele>586.54</ele>
        <time>2016-10-08T11:22:33Z</time>
      </trkpt>
      <trkpt lat="44.24497" lon="9.58188">
        <ele>585.58</ele>
        <time>2016-10-08T11:22:47Z</time>
      </trkpt>
      <trkpt lat="44.24487" lon="9.5819">
        <ele>585.58</ele>
        <time>2016-10-08T11:23:23Z</time>
      </trkpt>
      <trkpt lat="44.24481" lon="9.58191">
        <ele>586.06</ele>
        <time>2016-10-08T11:23:45Z</time>
      </trkpt>
      <trkpt lat="44.24483" lon="9.5819">
        <ele>586.06</ele>
        <time>2016-10-08T11:24:14Z</time>
      </trkpt>
      <trkpt lat="44.24483" lon="9.58189">
        <ele>586.06</ele>
        <time>2016-10-08T11:24:43Z</time>
      </trkpt>
      <trkpt lat="44.24474" lon="9.58193">
        <ele>587.02</ele>
        <time>2016-10-08T11:25:22Z</time>
      </trkpt>
      <trkpt lat="44.24478" lon="9.58197">
        <ele>587.02</ele>
        <time>2016-10-08T11:25:48Z</time>
      </trkpt>
      <trkpt lat="44.24477" lon="9.582">
        <ele>587.98</ele>
        <time>2016-10-08T11:26:19Z</time>
      </trkpt>
      <trkpt lat="44.24472" lon="9.58198">
        <ele>587.02</ele>
        <time>2016-10-08T11:26:55Z</time>
      </trkpt>
      <trkpt lat="44.24468" lon="9.58197">
        <ele>587.98</ele>
        <time>2016-10-08T11:27:27Z</time>
      </trkpt>
      <trkpt lat="44.24475" lon="9.58193">
        <ele>588.46</ele>
        <time>2016-10-08T11:28:00Z</time>
      </trkpt>
      <trkpt lat="44.24475" lon="9.58193">
        <ele>587.02</ele>
        <time>2016-10-08T11:28:20Z</time>
      </trkpt>
      <trkpt lat="44.24468" lon="9.58198">
        <ele>588.46</ele>
        <time>2016-10-08T11:28:48Z</time>
      </trkpt>
      <trkpt lat="44.24475" lon="9.58194">
        <ele>588.95</ele>
        <time>2016-10-08T11:29:13Z</time>
      </trkpt>
      <trkpt lat="44.24476" lon="9.58194">
        <ele>588.46</ele>
        <time>2016-10-08T11:29:40Z</time>
      </trkpt>
      <trkpt lat="44.24474" lon="9.58195">
        <ele>588.95</ele>
        <time>2016-10-08T11:30:10Z</time>
      </trkpt>
      <trkpt lat="44.24471" lon="9.58195">
        <ele>588.46</ele>
        <time>2016-10-08T11:30:39Z</time>
      </trkpt>
      <trkpt lat="44.24468" lon="9.58196">
        <ele>589.43</ele>
        <time>2016-10-08T11:31:11Z</time>
      </trkpt>
      <trkpt lat="44.24474" lon="9.58193">
        <ele>589.43</ele>
        <time>2016-10-08T11:31:42Z</time>
      </trkpt>
      <trkpt lat="44.24474" lon="9.58194">
        <ele>588.95</ele>
        <time>2016-10-08T11:32:16Z</time>
      </trkpt>
      <trkpt lat="44.24472" lon="9.58193">
        <ele>589.91</ele>
        <time>2016-10-08T11:32:49Z</time>
      </trkpt>
      <trkpt lat="44.24475" lon="9.58191">
        <ele>589.91</ele>
        <time>2016-10-08T11:33:23Z</time>
      </trkpt>
      <trkpt lat="44.2448" lon="9.58192">
        <ele>589.91</ele>
        <time>2016-10-08T11:33:52Z</time>
      </trkpt>
      <trkpt lat="44.24475" lon="9.58194">
        <ele>589.91</ele>
        <time>2016-10-08T11:34:23Z</time>
      </trkpt>
      <trkpt lat="44.24475" lon="9.58197">
        <ele>589.91</ele>
        <time>2016-10-08T11:34:56Z</time>
      </trkpt>
      <trkpt lat="44.2448" lon="9.58193">
        <ele>589.91</ele>
        <time>2016-10-08T11:35:21Z</time>
      </trkpt>
      <trkpt lat="44.24482" lon="9.58189">
        <ele>590.87</ele>
        <time>2016-10-08T11:35:50Z</time>
      </trkpt>
      <trkpt lat="44.24488" lon="9.5819">
        <ele>589.91</ele>
        <time>2016-10-08T11:36:18Z</time>
      </trkpt>
      <trkpt lat="44.24487" lon="9.58193">
        <ele>589.43</ele>
        <time>2016-10-08T11:36:53Z</time>
      </trkpt>
      <trkpt lat="44.24485" lon="9.58195">
        <ele>589.91</ele>
        <time>2016-10-08T11:37:07Z</time>
      </trkpt>
      <trkpt lat="44.24486" lon="9.58194">
        <ele>590.87</ele>
        <time>2016-10-08T11:37:15Z</time>
      </trkpt>
      <trkpt lat="44.24485" lon="9.58193">
        <ele>589.91</ele>
        <time>2016-10-08T11:37:17Z</time>
      </trkpt>
      <trkpt lat="44.24479" lon="9.58198">
        <ele>589.43</ele>
        <time>2016-10-08T11:37:50Z</time>
      </trkpt>
      <trkpt lat="44.24481" lon="9.58197">
        <ele>590.87</ele>
        <time>2016-10-08T11:38:17Z</time>
      </trkpt>
      <trkpt lat="44.24485" lon="9.58196">
        <ele>590.39</ele>
        <time>2016-10-08T11:38:49Z</time>
      </trkpt>
      <trkpt lat="44.24485" lon="9.58196">
        <ele>590.39</ele>
        <time>2016-10-08T11:39:29Z</time>
      </trkpt>
      <trkpt lat="44.24484" lon="9.58194">
        <ele>589.91</ele>
        <time>2016-10-08T11:40:08Z</time>
      </trkpt>
      <trkpt lat="44.24483" lon="9.58194">
        <ele>589.43</ele>
        <time>2016-10-08T11:40:29Z</time>
      </trkpt>
      <trkpt lat="44.24476" lon="9.58193">
        <ele>589.43</ele>
        <time>2016-10-08T11:41:04Z</time>
      </trkpt>
      <trkpt lat="44.24475" lon="9.58196">
        <ele>588.95</ele>
        <time>2016-10-08T11:41:39Z</time>
      </trkpt>
      <trkpt lat="44.24468" lon="9.582">
        <ele>589.43</ele>
        <time>2016-10-08T11:42:14Z</time>
      </trkpt>
      <trkpt lat="44.24478" lon="9.58195">
        <ele>589.43</ele>
        <time>2016-10-08T11:42:48Z</time>
      </trkpt>
      <trkpt lat="44.24481" lon="9.58195">
        <ele>588.95</ele>
        <time>2016-10-08T11:43:18Z</time>
      </trkpt>
      <trkpt lat="44.24479" lon="9.58195">
        <ele>589.43</ele>
        <time>2016-10-08T11:43:52Z</time>
      </trkpt>
      <trkpt lat="44.24487" lon="9.5819">
        <ele>588.95</ele>
        <time>2016-10-08T11:44:26Z</time>
      </trkpt>
      <trkpt lat="44.24486" lon="9.58189">
        <ele>589.43</ele>
        <time>2016-10-08T11:44:57Z</time>
      </trkpt>
      <trkpt lat="44.24485" lon="9.58189">
        <ele>588.95</ele>
        <time>2016-10-08T11:45:23Z</time>
      </trkpt>
      <trkpt lat="44.24487" lon="9.5819">
        <ele>588.95</ele>
        <time>2016-10-08T11:45:56Z</time>
      </trkpt>
      <trkpt lat="44.24486" lon="9.5819">
        <ele>588.95</ele>
        <time>2016-10-08T11:46:30Z</time>
      </trkpt>
      <trkpt lat="44.24485" lon="9.58191">
        <ele>589.43</ele>
        <time>2016-10-08T11:47:00Z</time>
      </trkpt>
      <trkpt lat="44.24485" lon="9.58194">
        <ele>589.91</ele>
        <time>2016-10-08T11:47:14Z</time>
      </trkpt>
      <trkpt lat="44.24486" lon="9.58195">
        <ele>589.91</ele>
        <time>2016-10-08T11:47:17Z</time>
      </trkpt>
      <trkpt lat="44.24486" lon="9.58196">
        <ele>589.91</ele>
        <time>2016-10-08T11:47:18Z</time>
      </trkpt>
      <trkpt lat="44.24487" lon="9.58197">
        <ele>589.43</ele>
        <time>2016-10-08T11:47:19Z</time>
      </trkpt>
      <trkpt lat="44.2449" lon="9.58198">
        <ele>589.91</ele>
        <time>2016-10-08T11:47:31Z</time>
      </trkpt>
      <trkpt lat="44.2449" lon="9.58201">
        <ele>589.43</ele>
        <time>2016-10-08T11:47:48Z</time>
      </trkpt>
      <trkpt lat="44.2449" lon="9.582">
        <ele>589.43</ele>
        <time>2016-10-08T11:48:30Z</time>
      </trkpt>
      <trkpt lat="44.24492" lon="9.58201">
        <ele>589.43</ele>
        <time>2016-10-08T11:49:19Z</time>
      </trkpt>
      <trkpt lat="44.24492" lon="9.58203">
        <ele>589.91</ele>
        <time>2016-10-08T11:49:40Z</time>
      </trkpt>
      <trkpt lat="44.24494" lon="9.58207">
        <ele>589.91</ele>
        <time>2016-10-08T11:49:53Z</time>
      </trkpt>
      <trkpt lat="44.24505" lon="9.58228">
        <ele>589.43</ele>
        <time>2016-10-08T11:50:06Z</time>
      </trkpt>
      <trkpt lat="44.24526" lon="9.58273">
        <ele>589.91</ele>
        <time>2016-10-08T11:50:21Z</time>
      </trkpt>
      <trkpt lat="44.24542" lon="9.58294">
        <ele>589.43</ele>
        <time>2016-10-08T11:50:27Z</time>
      </trkpt>
      <trkpt lat="44.24578" lon="9.58323">
        <ele>588.95</ele>
        <time>2016-10-08T11:50:37Z</time>
      </trkpt>
      <trkpt lat="44.24589" lon="9.58337">
        <ele>588.46</ele>
        <time>2016-10-08T11:50:40Z</time>
      </trkpt>
      <trkpt lat="44.24603" lon="9.58362">
        <ele>588.95</ele>
        <time>2016-10-08T11:50:45Z</time>
      </trkpt>
      <trkpt lat="44.24606" lon="9.58366">
        <ele>588.95</ele>
        <time>2016-10-08T11:50:46Z</time>
      </trkpt>
      <trkpt lat="44.24609" lon="9.5837">
        <ele>589.43</ele>
        <time>2016-10-08T11:50:47Z</time>
      </trkpt>
      <trkpt lat="44.24612" lon="9.58373">
        <ele>589.43</ele>
        <time>2016-10-08T11:50:48Z</time>
      </trkpt>
      <trkpt lat="44.24616" lon="9.58376">
        <ele>588.95</ele>
        <time>2016-10-08T11:50:49Z</time>
      </trkpt>
      <trkpt lat="44.24621" lon="9.58378">
        <ele>588.95</ele>
        <time>2016-10-08T11:50:50Z</time>
      </trkpt>
      <trkpt lat="44.24625" lon="9.58379">
        <ele>589.43</ele>
        <time>2016-10-08T11:50:51Z</time>
      </trkpt>
      <trkpt lat="44.24629" lon="9.58379">
        <ele>588.95</ele>
        <time>2016-10-08T11:50:52Z</time>
      </trkpt>
      <trkpt lat="44.24634" lon="9.58379">
        <ele>589.91</ele>
        <time>2016-10-08T11:50:53Z</time>
      </trkpt>
      <trkpt lat="44.24639" lon="9.58378">
        <ele>588.46</ele>
        <time>2016-10-08T11:50:54Z</time>
      </trkpt>
      <trkpt lat="44.24659" lon="9.58375">
        <ele>588.95</ele>
        <time>2016-10-08T11:50:58Z</time>
      </trkpt>
      <trkpt lat="44.24664" lon="9.58376">
        <ele>588.95</ele>
        <time>2016-10-08T11:50:59Z</time>
      </trkpt>
      <trkpt lat="44.24669" lon="9.58377">
        <ele>588.95</ele>
        <time>2016-10-08T11:51:00Z</time>
      </trkpt>
      <trkpt lat="44.24673" lon="9.5838">
        <ele>588.46</ele>
        <time>2016-10-08T11:51:01Z</time>
      </trkpt>
      <trkpt lat="44.24677" lon="9.58384">
        <ele>588.46</ele>
        <time>2016-10-08T11:51:02Z</time>
      </trkpt>
      <trkpt lat="44.24681" lon="9.58388">
        <ele>588.95</ele>
        <time>2016-10-08T11:51:03Z</time>
      </trkpt>
      <trkpt lat="44.24684" lon="9.58394">
        <ele>588.46</ele>
        <time>2016-10-08T11:51:04Z</time>
      </trkpt>
      <trkpt lat="44.24687" lon="9.58399">
        <ele>588.46</ele>
        <time>2016-10-08T11:51:05Z</time>
      </trkpt>
      <trkpt lat="44.24689" lon="9.58406">
        <ele>588.95</ele>
        <time>2016-10-08T11:51:06Z</time>
      </trkpt>
      <trkpt lat="44.24691" lon="9.58412">
        <ele>588.46</ele>
        <time>2016-10-08T11:51:07Z</time>
      </trkpt>
      <trkpt lat="44.24692" lon="9.58419">
        <ele>588.95</ele>
        <time>2016-10-08T11:51:08Z</time>
      </trkpt>
      <trkpt lat="44.24719" lon="9.58545">
        <ele>588.95</ele>
        <time>2016-10-08T11:51:26Z</time>
      </trkpt>
      <trkpt lat="44.24724" lon="9.58559">
        <ele>588.95</ele>
        <time>2016-10-08T11:51:28Z</time>
      </trkpt>
      <trkpt lat="44.24727" lon="9.58565">
        <ele>588.46</ele>
        <time>2016-10-08T11:51:29Z</time>
      </trkpt>
      <trkpt lat="44.24731" lon="9.5857">
        <ele>588.46</ele>
        <time>2016-10-08T11:51:30Z</time>
      </trkpt>
      <trkpt lat="44.24752" lon="9.58598">
        <ele>587.5</ele>
        <time>2016-10-08T11:51:35Z</time>
      </trkpt>
      <trkpt lat="44.24755" lon="9.58605">
        <ele>587.5</ele>
        <time>2016-10-08T11:51:36Z</time>
      </trkpt>
      <trkpt lat="44.24757" lon="9.58613">
        <ele>587.98</ele>
        <time>2016-10-08T11:51:37Z</time>
      </trkpt>
      <trkpt lat="44.24757" lon="9.58621">
        <ele>587.5</ele>
        <time>2016-10-08T11:51:38Z</time>
      </trkpt>
      <trkpt lat="44.24756" lon="9.58629">
        <ele>587.02</ele>
        <time>2016-10-08T11:51:39Z</time>
      </trkpt>
      <trkpt lat="44.24755" lon="9.58638">
        <ele>586.54</ele>
        <time>2016-10-08T11:51:40Z</time>
      </trkpt>
      <trkpt lat="44.24752" lon="9.5867">
        <ele>586.06</ele>
        <time>2016-10-08T11:51:44Z</time>
      </trkpt>
      <trkpt lat="44.24753" lon="9.58678">
        <ele>586.06</ele>
        <time>2016-10-08T11:51:45Z</time>
      </trkpt>
      <trkpt lat="44.24753" lon="9.58686">
        <ele>586.54</ele>
        <time>2016-10-08T11:51:46Z</time>
      </trkpt>
      <trkpt lat="44.24755" lon="9.58694">
        <ele>586.06</ele>
        <time>2016-10-08T11:51:47Z</time>
      </trkpt>
      <trkpt lat="44.24758" lon="9.58702">
        <ele>586.54</ele>
        <time>2016-10-08T11:51:48Z</time>
      </trkpt>
      <trkpt lat="44.24761" lon="9.58709">
        <ele>586.06</ele>
        <time>2016-10-08T11:51:49Z</time>
      </trkpt>
      <trkpt lat="44.24765" lon="9.58716">
        <ele>586.54</ele>
        <time>2016-10-08T11:51:50Z</time>
      </trkpt>
      <trkpt lat="44.24769" lon="9.58722">
        <ele>586.06</ele>
        <time>2016-10-08T11:51:51Z</time>
      </trkpt>
      <trkpt lat="44.24782" lon="9.58742">
        <ele>586.54</ele>
        <time>2016-10-08T11:51:54Z</time>
      </trkpt>
      <trkpt lat="44.24784" lon="9.5875">
        <ele>585.58</ele>
        <time>2016-10-08T11:51:55Z</time>
      </trkpt>
      <trkpt lat="44.24784" lon="9.58758">
        <ele>586.06</ele>
        <time>2016-10-08T11:51:56Z</time>
      </trkpt>
      <trkpt lat="44.24783" lon="9.58766">
        <ele>586.06</ele>
        <time>2016-10-08T11:51:57Z</time>
      </trkpt>
      <trkpt lat="44.2478" lon="9.58773">
        <ele>586.06</ele>
        <time>2016-10-08T11:51:58Z</time>
      </trkpt>
      <trkpt lat="44.24776" lon="9.58779">
        <ele>586.54</ele>
        <time>2016-10-08T11:51:59Z</time>
      </trkpt>
      <trkpt lat="44.24772" lon="9.58785">
        <ele>585.58</ele>
        <time>2016-10-08T11:52:00Z</time>
      </trkpt>
      <trkpt lat="44.24732" lon="9.58847">
        <ele>584.62</ele>
        <time>2016-10-08T11:52:10Z</time>
      </trkpt>
      <trkpt lat="44.24729" lon="9.58856">
        <ele>584.62</ele>
        <time>2016-10-08T11:52:11Z</time>
      </trkpt>
      <trkpt lat="44.24726" lon="9.58864">
        <ele>584.62</ele>
        <time>2016-10-08T11:52:12Z</time>
      </trkpt>
      <trkpt lat="44.24724" lon="9.58874">
        <ele>583.66</ele>
        <time>2016-10-08T11:52:13Z</time>
      </trkpt>
      <trkpt lat="44.24723" lon="9.58884">
        <ele>583.66</ele>
        <time>2016-10-08T11:52:14Z</time>
      </trkpt>
      <trkpt lat="44.24719" lon="9.58917">
        <ele>582.22</ele>
        <time>2016-10-08T11:52:17Z</time>
      </trkpt>
      <trkpt lat="44.24718" lon="9.58928">
        <ele>581.73</ele>
        <time>2016-10-08T11:52:18Z</time>
      </trkpt>
      <trkpt lat="44.24719" lon="9.58938">
        <ele>580.77</ele>
        <time>2016-10-08T11:52:19Z</time>
      </trkpt>
      <trkpt lat="44.24722" lon="9.58949">
        <ele>580.29</ele>
        <time>2016-10-08T11:52:20Z</time>
      </trkpt>
      <trkpt lat="44.24726" lon="9.58959">
        <ele>579.81</ele>
        <time>2016-10-08T11:52:21Z</time>
      </trkpt>
      <trkpt lat="44.24731" lon="9.58968">
        <ele>579.81</ele>
        <time>2016-10-08T11:52:22Z</time>
      </trkpt>
      <trkpt lat="44.24736" lon="9.58978">
        <ele>579.81</ele>
        <time>2016-10-08T11:52:23Z</time>
      </trkpt>
      <trkpt lat="44.24741" lon="9.58988">
        <ele>578.85</ele>
        <time>2016-10-08T11:52:24Z</time>
      </trkpt>
      <trkpt lat="44.24744" lon="9.58999">
        <ele>579.33</ele>
        <time>2016-10-08T11:52:25Z</time>
      </trkpt>
      <trkpt lat="44.24745" lon="9.59011">
        <ele>578.37</ele>
        <time>2016-10-08T11:52:26Z</time>
      </trkpt>
      <trkpt lat="44.24743" lon="9.59023">
        <ele>577.41</ele>
        <time>2016-10-08T11:52:27Z</time>
      </trkpt>
      <trkpt lat="44.2474" lon="9.59034">
        <ele>576.93</ele>
        <time>2016-10-08T11:52:28Z</time>
      </trkpt>
      <trkpt lat="44.24738" lon="9.59045">
        <ele>576.45</ele>
        <time>2016-10-08T11:52:29Z</time>
      </trkpt>
      <trkpt lat="44.24739" lon="9.59057">
        <ele>576.45</ele>
        <time>2016-10-08T11:52:30Z</time>
      </trkpt>
      <trkpt lat="44.24741" lon="9.59068">
        <ele>575.49</ele>
        <time>2016-10-08T11:52:31Z</time>
      </trkpt>
      <trkpt lat="44.24746" lon="9.59078">
        <ele>575.49</ele>
        <time>2016-10-08T11:52:32Z</time>
      </trkpt>
      <trkpt lat="44.24751" lon="9.59088">
        <ele>574.53</ele>
        <time>2016-10-08T11:52:33Z</time>
      </trkpt>
      <trkpt lat="44.24757" lon="9.59098">
        <ele>574.53</ele>
        <time>2016-10-08T11:52:34Z</time>
      </trkpt>
      <trkpt lat="44.24763" lon="9.59108">
        <ele>574.04</ele>
        <time>2016-10-08T11:52:35Z</time>
      </trkpt>
      <trkpt lat="44.24792" lon="9.59158">
        <ele>572.12</ele>
        <time>2016-10-08T11:52:40Z</time>
      </trkpt>
      <trkpt lat="44.24794" lon="9.5917">
        <ele>571.16</ele>
        <time>2016-10-08T11:52:41Z</time>
      </trkpt>
      <trkpt lat="44.24794" lon="9.59182">
        <ele>570.2</ele>
        <time>2016-10-08T11:52:42Z</time>
      </trkpt>
      <trkpt lat="44.24792" lon="9.59195">
        <ele>571.16</ele>
        <time>2016-10-08T11:52:43Z</time>
      </trkpt>
      <trkpt lat="44.24787" lon="9.59206">
        <ele>570.68</ele>
        <time>2016-10-08T11:52:44Z</time>
      </trkpt>
      <trkpt lat="44.24782" lon="9.59217">
        <ele>570.2</ele>
        <time>2016-10-08T11:52:45Z</time>
      </trkpt>
      <trkpt lat="44.24777" lon="9.59226">
        <ele>569.72</ele>
        <time>2016-10-08T11:52:46Z</time>
      </trkpt>
      <trkpt lat="44.24734" lon="9.59312">
        <ele>567.8</ele>
        <time>2016-10-08T11:52:55Z</time>
      </trkpt>
      <trkpt lat="44.24732" lon="9.59323">
        <ele>568.28</ele>
        <time>2016-10-08T11:52:56Z</time>
      </trkpt>
      <trkpt lat="44.24732" lon="9.59334">
        <ele>568.28</ele>
        <time>2016-10-08T11:52:57Z</time>
      </trkpt>
      <trkpt lat="44.24733" lon="9.59345">
        <ele>567.32</ele>
        <time>2016-10-08T11:52:58Z</time>
      </trkpt>
      <trkpt lat="44.24735" lon="9.59356">
        <ele>567.8</ele>
        <time>2016-10-08T11:52:59Z</time>
      </trkpt>
      <trkpt lat="44.24739" lon="9.59366">
        <ele>567.32</ele>
        <time>2016-10-08T11:53:00Z</time>
      </trkpt>
      <trkpt lat="44.24742" lon="9.59376">
        <ele>567.32</ele>
        <time>2016-10-08T11:53:01Z</time>
      </trkpt>
      <trkpt lat="44.24756" lon="9.59418">
        <ele>566.35</ele>
        <time>2016-10-08T11:53:05Z</time>
      </trkpt>
      <trkpt lat="44.24756" lon="9.5943">
        <ele>566.35</ele>
        <time>2016-10-08T11:53:06Z</time>
      </trkpt>
      <trkpt lat="44.24742" lon="9.59526">
        <ele>562.99</ele>
        <time>2016-10-08T11:53:14Z</time>
      </trkpt>
      <trkpt lat="44.24738" lon="9.59562">
        <ele>562.03</ele>
        <time>2016-10-08T11:53:17Z</time>
      </trkpt>
      <trkpt lat="44.24738" lon="9.59574">
        <ele>561.55</ele>
        <time>2016-10-08T11:53:18Z</time>
      </trkpt>
      <trkpt lat="44.2474" lon="9.59586">
        <ele>561.55</ele>
        <time>2016-10-08T11:53:19Z</time>
      </trkpt>
      <trkpt lat="44.24745" lon="9.59597">
        <ele>561.07</ele>
        <time>2016-10-08T11:53:20Z</time>
      </trkpt>
      <trkpt lat="44.2475" lon="9.59607">
        <ele>560.11</ele>
        <time>2016-10-08T11:53:21Z</time>
      </trkpt>
      <trkpt lat="44.24757" lon="9.59616">
        <ele>559.62</ele>
        <time>2016-10-08T11:53:22Z</time>
      </trkpt>
      <trkpt lat="44.24763" lon="9.59624">
        <ele>558.18</ele>
        <time>2016-10-08T11:53:23Z</time>
      </trkpt>
      <trkpt lat="44.24773" lon="9.59636">
        <ele>557.22</ele>
        <time>2016-10-08T11:53:25Z</time>
      </trkpt>
      <trkpt lat="44.24778" lon="9.5964">
        <ele>557.22</ele>
        <time>2016-10-08T11:53:26Z</time>
      </trkpt>
      <trkpt lat="44.24784" lon="9.59643">
        <ele>556.74</ele>
        <time>2016-10-08T11:53:27Z</time>
      </trkpt>
      <trkpt lat="44.2479" lon="9.59644">
        <ele>556.26</ele>
        <time>2016-10-08T11:53:28Z</time>
      </trkpt>
      <trkpt lat="44.24797" lon="9.59644">
        <ele>555.78</ele>
        <time>2016-10-08T11:53:29Z</time>
      </trkpt>
      <trkpt lat="44.24804" lon="9.59643">
        <ele>556.26</ele>
        <time>2016-10-08T11:53:30Z</time>
      </trkpt>
      <trkpt lat="44.24811" lon="9.59642">
        <ele>555.3</ele>
        <time>2016-10-08T11:53:31Z</time>
      </trkpt>
      <trkpt lat="44.24827" lon="9.5964">
        <ele>554.82</ele>
        <time>2016-10-08T11:53:33Z</time>
      </trkpt>
      <trkpt lat="44.24834" lon="9.59642">
        <ele>553.86</ele>
        <time>2016-10-08T11:53:34Z</time>
      </trkpt>
      <trkpt lat="44.2484" lon="9.59647">
        <ele>553.38</ele>
        <time>2016-10-08T11:53:35Z</time>
      </trkpt>
      <trkpt lat="44.24844" lon="9.59654">
        <ele>553.38</ele>
        <time>2016-10-08T11:53:36Z</time>
      </trkpt>
      <trkpt lat="44.24847" lon="9.59664">
        <ele>552.41</ele>
        <time>2016-10-08T11:53:37Z</time>
      </trkpt>
      <trkpt lat="44.24848" lon="9.59675">
        <ele>552.41</ele>
        <time>2016-10-08T11:53:38Z</time>
      </trkpt>
      <trkpt lat="44.24848" lon="9.59685">
        <ele>551.93</ele>
        <time>2016-10-08T11:53:39Z</time>
      </trkpt>
      <trkpt lat="44.24849" lon="9.59695">
        <ele>551.93</ele>
        <time>2016-10-08T11:53:40Z</time>
      </trkpt>
      <trkpt lat="44.24852" lon="9.59704">
        <ele>550.97</ele>
        <time>2016-10-08T11:53:41Z</time>
      </trkpt>
      <trkpt lat="44.24857" lon="9.59713">
        <ele>550.97</ele>
        <time>2016-10-08T11:53:42Z</time>
      </trkpt>
      <trkpt lat="44.24862" lon="9.5972">
        <ele>550.97</ele>
        <time>2016-10-08T11:53:43Z</time>
      </trkpt>
      <trkpt lat="44.24868" lon="9.59727">
        <ele>550.97</ele>
        <time>2016-10-08T11:53:44Z</time>
      </trkpt>
      <trkpt lat="44.24885" lon="9.59749">
        <ele>549.53</ele>
        <time>2016-10-08T11:53:47Z</time>
      </trkpt>
      <trkpt lat="44.24889" lon="9.59758">
        <ele>550.01</ele>
        <time>2016-10-08T11:53:48Z</time>
      </trkpt>
      <trkpt lat="44.24893" lon="9.59768">
        <ele>549.53</ele>
        <time>2016-10-08T11:53:49Z</time>
      </trkpt>
      <trkpt lat="44.24896" lon="9.59778">
        <ele>550.01</ele>
        <time>2016-10-08T11:53:50Z</time>
      </trkpt>
      <trkpt lat="44.24898" lon="9.59788">
        <ele>549.53</ele>
        <time>2016-10-08T11:53:51Z</time>
      </trkpt>
      <trkpt lat="44.24899" lon="9.59799">
        <ele>548.57</ele>
        <time>2016-10-08T11:53:52Z</time>
      </trkpt>
      <trkpt lat="44.24899" lon="9.59811">
        <ele>549.05</ele>
        <time>2016-10-08T11:53:53Z</time>
      </trkpt>
      <trkpt lat="44.24902" lon="9.59944">
        <ele>546.65</ele>
        <time>2016-10-08T11:54:06Z</time>
      </trkpt>
      <trkpt lat="44.24903" lon="9.59951">
        <ele>545.69</ele>
        <time>2016-10-08T11:54:07Z</time>
      </trkpt>
      <trkpt lat="44.24905" lon="9.59957">
        <ele>546.17</ele>
        <time>2016-10-08T11:54:08Z</time>
      </trkpt>
      <trkpt lat="44.24907" lon="9.59963">
        <ele>546.17</ele>
        <time>2016-10-08T11:54:09Z</time>
      </trkpt>
      <trkpt lat="44.2491" lon="9.59969">
        <ele>546.17</ele>
        <time>2016-10-08T11:54:10Z</time>
      </trkpt>
      <trkpt lat="44.24912" lon="9.59976">
        <ele>545.2</ele>
        <time>2016-10-08T11:54:11Z</time>
      </trkpt>
      <trkpt lat="44.24967" lon="9.6011">
        <ele>542.8</ele>
        <time>2016-10-08T11:54:28Z</time>
      </trkpt>
      <trkpt lat="44.24971" lon="9.60117">
        <ele>542.8</ele>
        <time>2016-10-08T11:54:29Z</time>
      </trkpt>
      <trkpt lat="44.24977" lon="9.60124">
        <ele>541.36</ele>
        <time>2016-10-08T11:54:30Z</time>
      </trkpt>
      <trkpt lat="44.24983" lon="9.60129">
        <ele>541.36</ele>
        <time>2016-10-08T11:54:31Z</time>
      </trkpt>
      <trkpt lat="44.24991" lon="9.60133">
        <ele>541.36</ele>
        <time>2016-10-08T11:54:32Z</time>
      </trkpt>
      <trkpt lat="44.24999" lon="9.60135">
        <ele>540.88</ele>
        <time>2016-10-08T11:54:33Z</time>
      </trkpt>
      <trkpt lat="44.25007" lon="9.60136">
        <ele>539.92</ele>
        <time>2016-10-08T11:54:34Z</time>
      </trkpt>
      <trkpt lat="44.25016" lon="9.6014">
        <ele>539.92</ele>
        <time>2016-10-08T11:54:35Z</time>
      </trkpt>
      <trkpt lat="44.25024" lon="9.60146">
        <ele>539.44</ele>
        <time>2016-10-08T11:54:36Z</time>
      </trkpt>
      <trkpt lat="44.2503" lon="9.60155">
        <ele>539.44</ele>
        <time>2016-10-08T11:54:37Z</time>
      </trkpt>
      <trkpt lat="44.25036" lon="9.60166">
        <ele>538.96</ele>
        <time>2016-10-08T11:54:38Z</time>
      </trkpt>
      <trkpt lat="44.25041" lon="9.60177">
        <ele>537.03</ele>
        <time>2016-10-08T11:54:39Z</time>
      </trkpt>
      <trkpt lat="44.25053" lon="9.60198">
        <ele>536.55</ele>
        <time>2016-10-08T11:54:41Z</time>
      </trkpt>
      <trkpt lat="44.25059" lon="9.60206">
        <ele>535.59</ele>
        <time>2016-10-08T11:54:42Z</time>
      </trkpt>
      <trkpt lat="44.25066" lon="9.60214">
        <ele>534.63</ele>
        <time>2016-10-08T11:54:43Z</time>
      </trkpt>
      <trkpt lat="44.25072" lon="9.60221">
        <ele>534.63</ele>
        <time>2016-10-08T11:54:44Z</time>
      </trkpt>
      <trkpt lat="44.25078" lon="9.60228">
        <ele>533.67</ele>
        <time>2016-10-08T11:54:45Z</time>
      </trkpt>
      <trkpt lat="44.25082" lon="9.60237">
        <ele>533.67</ele>
        <time>2016-10-08T11:54:46Z</time>
      </trkpt>
      <trkpt lat="44.25082" lon="9.60247">
        <ele>532.71</ele>
        <time>2016-10-08T11:54:47Z</time>
      </trkpt>
      <trkpt lat="44.25079" lon="9.60256">
        <ele>532.23</ele>
        <time>2016-10-08T11:54:48Z</time>
      </trkpt>
      <trkpt lat="44.25075" lon="9.60264">
        <ele>532.23</ele>
        <time>2016-10-08T11:54:49Z</time>
      </trkpt>
      <trkpt lat="44.25069" lon="9.6027">
        <ele>532.71</ele>
        <time>2016-10-08T11:54:50Z</time>
      </trkpt>
      <trkpt lat="44.25064" lon="9.60277">
        <ele>531.75</ele>
        <time>2016-10-08T11:54:51Z</time>
      </trkpt>
      <trkpt lat="44.2506" lon="9.60285">
        <ele>532.23</ele>
        <time>2016-10-08T11:54:52Z</time>
      </trkpt>
      <trkpt lat="44.25057" lon="9.60295">
        <ele>531.27</ele>
        <time>2016-10-08T11:54:53Z</time>
      </trkpt>
      <trkpt lat="44.25057" lon="9.60305">
        <ele>531.75</ele>
        <time>2016-10-08T11:54:54Z</time>
      </trkpt>
      <trkpt lat="44.25057" lon="9.60315">
        <ele>531.27</ele>
        <time>2016-10-08T11:54:55Z</time>
      </trkpt>
      <trkpt lat="44.25059" lon="9.60325">
        <ele>530.79</ele>
        <time>2016-10-08T11:54:56Z</time>
      </trkpt>
      <trkpt lat="44.25061" lon="9.60335">
        <ele>530.79</ele>
        <time>2016-10-08T11:54:57Z</time>
      </trkpt>
      <trkpt lat="44.25064" lon="9.60344">
        <ele>530.3</ele>
        <time>2016-10-08T11:54:58Z</time>
      </trkpt>
      <trkpt lat="44.2507" lon="9.60364">
        <ele>529.34</ele>
        <time>2016-10-08T11:55:00Z</time>
      </trkpt>
      <trkpt lat="44.25071" lon="9.60375">
        <ele>529.34</ele>
        <time>2016-10-08T11:55:01Z</time>
      </trkpt>
      <trkpt lat="44.2507" lon="9.60385">
        <ele>529.34</ele>
        <time>2016-10-08T11:55:02Z</time>
      </trkpt>
      <trkpt lat="44.25067" lon="9.60394">
        <ele>529.34</ele>
        <time>2016-10-08T11:55:03Z</time>
      </trkpt>
      <trkpt lat="44.25062" lon="9.60401">
        <ele>528.86</ele>
        <time>2016-10-08T11:55:04Z</time>
      </trkpt>
      <trkpt lat="44.25056" lon="9.60407">
        <ele>528.38</ele>
        <time>2016-10-08T11:55:05Z</time>
      </trkpt>
      <trkpt lat="44.25049" lon="9.60411">
        <ele>528.38</ele>
        <time>2016-10-08T11:55:06Z</time>
      </trkpt>
      <trkpt lat="44.25042" lon="9.60415">
        <ele>527.9</ele>
        <time>2016-10-08T11:55:07Z</time>
      </trkpt>
      <trkpt lat="44.25035" lon="9.6042">
        <ele>527.42</ele>
        <time>2016-10-08T11:55:08Z</time>
      </trkpt>
      <trkpt lat="44.25029" lon="9.60427">
        <ele>527.9</ele>
        <time>2016-10-08T11:55:09Z</time>
      </trkpt>
      <trkpt lat="44.25024" lon="9.60434">
        <ele>527.42</ele>
        <time>2016-10-08T11:55:10Z</time>
      </trkpt>
      <trkpt lat="44.24991" lon="9.60483">
        <ele>525.98</ele>
        <time>2016-10-08T11:55:16Z</time>
      </trkpt>
      <trkpt lat="44.24987" lon="9.60493">
        <ele>525.98</ele>
        <time>2016-10-08T11:55:17Z</time>
      </trkpt>
      <trkpt lat="44.24985" lon="9.60504">
        <ele>525.5</ele>
        <time>2016-10-08T11:55:18Z</time>
      </trkpt>
      <trkpt lat="44.24984" lon="9.60517">
        <ele>525.02</ele>
        <time>2016-10-08T11:55:19Z</time>
      </trkpt>
      <trkpt lat="44.24984" lon="9.60529">
        <ele>524.54</ele>
        <time>2016-10-08T11:55:20Z</time>
      </trkpt>
      <trkpt lat="44.24986" lon="9.60541">
        <ele>524.06</ele>
        <time>2016-10-08T11:55:21Z</time>
      </trkpt>
      <trkpt lat="44.24989" lon="9.60553">
        <ele>523.09</ele>
        <time>2016-10-08T11:55:22Z</time>
      </trkpt>
      <trkpt lat="44.24995" lon="9.60563">
        <ele>523.09</ele>
        <time>2016-10-08T11:55:23Z</time>
      </trkpt>
      <trkpt lat="44.25001" lon="9.60573">
        <ele>522.13</ele>
        <time>2016-10-08T11:55:24Z</time>
      </trkpt>
      <trkpt lat="44.25012" lon="9.60594">
        <ele>520.69</ele>
        <time>2016-10-08T11:55:26Z</time>
      </trkpt>
      <trkpt lat="44.25016" lon="9.60606">
        <ele>520.21</ele>
        <time>2016-10-08T11:55:27Z</time>
      </trkpt>
      <trkpt lat="44.25017" lon="9.60619">
        <ele>520.21</ele>
        <time>2016-10-08T11:55:28Z</time>
      </trkpt>
      <trkpt lat="44.25016" lon="9.60631">
        <ele>519.73</ele>
        <time>2016-10-08T11:55:29Z</time>
      </trkpt>
      <trkpt lat="44.25014" lon="9.60644">
        <ele>519.25</ele>
        <time>2016-10-08T11:55:30Z</time>
      </trkpt>
      <trkpt lat="44.2501" lon="9.6067">
        <ele>517.81</ele>
        <time>2016-10-08T11:55:32Z</time>
      </trkpt>
      <trkpt lat="44.25006" lon="9.60697">
        <ele>516.85</ele>
        <time>2016-10-08T11:55:34Z</time>
      </trkpt>
      <trkpt lat="44.25" lon="9.60738">
        <ele>515.4</ele>
        <time>2016-10-08T11:55:37Z</time>
      </trkpt>
      <trkpt lat="44.2499" lon="9.6081">
        <ele>511.56</ele>
        <time>2016-10-08T11:55:42Z</time>
      </trkpt>
      <trkpt lat="44.24988" lon="9.60825">
        <ele>512.04</ele>
        <time>2016-10-08T11:55:43Z</time>
      </trkpt>
      <trkpt lat="44.24982" lon="9.60866">
        <ele>509.64</ele>
        <time>2016-10-08T11:55:46Z</time>
      </trkpt>
      <trkpt lat="44.24977" lon="9.60878">
        <ele>509.16</ele>
        <time>2016-10-08T11:55:47Z</time>
      </trkpt>
      <trkpt lat="44.24972" lon="9.60889">
        <ele>509.16</ele>
        <time>2016-10-08T11:55:48Z</time>
      </trkpt>
      <trkpt lat="44.24965" lon="9.60898">
        <ele>509.16</ele>
        <time>2016-10-08T11:55:49Z</time>
      </trkpt>
      <trkpt lat="44.24958" lon="9.60907">
        <ele>508.67</ele>
        <time>2016-10-08T11:55:50Z</time>
      </trkpt>
      <trkpt lat="44.24937" lon="9.60946">
        <ele>508.19</ele>
        <time>2016-10-08T11:55:54Z</time>
      </trkpt>
      <trkpt lat="44.24934" lon="9.60957">
        <ele>508.67</ele>
        <time>2016-10-08T11:55:55Z</time>
      </trkpt>
      <trkpt lat="44.24931" lon="9.60967">
        <ele>508.67</ele>
        <time>2016-10-08T11:55:56Z</time>
      </trkpt>
      <trkpt lat="44.24905" lon="9.61076">
        <ele>507.71</ele>
        <time>2016-10-08T11:56:07Z</time>
      </trkpt>
      <trkpt lat="44.24877" lon="9.61144">
        <ele>506.75</ele>
        <time>2016-10-08T11:56:15Z</time>
      </trkpt>
      <trkpt lat="44.24868" lon="9.61159">
        <ele>506.27</ele>
        <time>2016-10-08T11:56:17Z</time>
      </trkpt>
      <trkpt lat="44.24863" lon="9.61165">
        <ele>507.23</ele>
        <time>2016-10-08T11:56:18Z</time>
      </trkpt>
      <trkpt lat="44.24858" lon="9.61171">
        <ele>506.75</ele>
        <time>2016-10-08T11:56:19Z</time>
      </trkpt>
      <trkpt lat="44.24852" lon="9.61175">
        <ele>507.23</ele>
        <time>2016-10-08T11:56:20Z</time>
      </trkpt>
      <trkpt lat="44.24846" lon="9.61179">
        <ele>507.23</ele>
        <time>2016-10-08T11:56:21Z</time>
      </trkpt>
      <trkpt lat="44.24829" lon="9.61194">
        <ele>506.75</ele>
        <time>2016-10-08T11:56:24Z</time>
      </trkpt>
      <trkpt lat="44.24825" lon="9.61199">
        <ele>506.75</ele>
        <time>2016-10-08T11:56:25Z</time>
      </trkpt>
      <trkpt lat="44.24822" lon="9.61205">
        <ele>506.27</ele>
        <time>2016-10-08T11:56:26Z</time>
      </trkpt>
      <trkpt lat="44.2482" lon="9.61211">
        <ele>506.75</ele>
        <time>2016-10-08T11:56:27Z</time>
      </trkpt>
      <trkpt lat="44.24818" lon="9.61217">
        <ele>506.75</ele>
        <time>2016-10-08T11:56:28Z</time>
      </trkpt>
      <trkpt lat="44.24818" lon="9.61224">
        <ele>506.75</ele>
        <time>2016-10-08T11:56:29Z</time>
      </trkpt>
      <trkpt lat="44.24817" lon="9.61231">
        <ele>506.75</ele>
        <time>2016-10-08T11:56:30Z</time>
      </trkpt>
      <trkpt lat="44.24818" lon="9.61237">
        <ele>506.27</ele>
        <time>2016-10-08T11:56:31Z</time>
      </trkpt>
      <trkpt lat="44.24819" lon="9.61244">
        <ele>505.79</ele>
        <time>2016-10-08T11:56:32Z</time>
      </trkpt>
      <trkpt lat="44.24821" lon="9.61251">
        <ele>505.79</ele>
        <time>2016-10-08T11:56:33Z</time>
      </trkpt>
      <trkpt lat="44.24838" lon="9.61339">
        <ele>504.35</ele>
        <time>2016-10-08T11:56:44Z</time>
      </trkpt>
      <trkpt lat="44.24838" lon="9.61348">
        <ele>504.83</ele>
        <time>2016-10-08T11:56:45Z</time>
      </trkpt>
      <trkpt lat="44.24836" lon="9.61357">
        <ele>503.87</ele>
        <time>2016-10-08T11:56:46Z</time>
      </trkpt>
      <trkpt lat="44.24834" lon="9.61366">
        <ele>503.87</ele>
        <time>2016-10-08T11:56:47Z</time>
      </trkpt>
      <trkpt lat="44.2483" lon="9.61374">
        <ele>503.87</ele>
        <time>2016-10-08T11:56:48Z</time>
      </trkpt>
      <trkpt lat="44.24827" lon="9.61383">
        <ele>503.87</ele>
        <time>2016-10-08T11:56:49Z</time>
      </trkpt>
      <trkpt lat="44.24819" lon="9.61399">
        <ele>502.91</ele>
        <time>2016-10-08T11:56:51Z</time>
      </trkpt>
      <trkpt lat="44.24814" lon="9.61407">
        <ele>502.91</ele>
        <time>2016-10-08T11:56:52Z</time>
      </trkpt>
      <trkpt lat="44.24809" lon="9.61414">
        <ele>501.95</ele>
        <time>2016-10-08T11:56:53Z</time>
      </trkpt>
      <trkpt lat="44.24803" lon="9.6142">
        <ele>502.43</ele>
        <time>2016-10-08T11:56:54Z</time>
      </trkpt>
      <trkpt lat="44.24797" lon="9.61425">
        <ele>501.95</ele>
        <time>2016-10-08T11:56:55Z</time>
      </trkpt>
      <trkpt lat="44.2479" lon="9.6143">
        <ele>501.46</ele>
        <time>2016-10-08T11:56:56Z</time>
      </trkpt>
      <trkpt lat="44.24783" lon="9.61433">
        <ele>501.95</ele>
        <time>2016-10-08T11:56:57Z</time>
      </trkpt>
      <trkpt lat="44.24777" lon="9.61437">
        <ele>500.98</ele>
        <time>2016-10-08T11:56:58Z</time>
      </trkpt>
      <trkpt lat="44.2477" lon="9.61443">
        <ele>501.46</ele>
        <time>2016-10-08T11:56:59Z</time>
      </trkpt>
      <trkpt lat="44.24765" lon="9.6145">
        <ele>500.98</ele>
        <time>2016-10-08T11:57:00Z</time>
      </trkpt>
      <trkpt lat="44.24762" lon="9.61458">
        <ele>501.46</ele>
        <time>2016-10-08T11:57:01Z</time>
      </trkpt>
      <trkpt lat="44.24759" lon="9.61468">
        <ele>500.98</ele>
        <time>2016-10-08T11:57:02Z</time>
      </trkpt>
      <trkpt lat="44.24757" lon="9.61477">
        <ele>500.98</ele>
        <time>2016-10-08T11:57:03Z</time>
      </trkpt>
      <trkpt lat="44.24756" lon="9.61487">
        <ele>500.98</ele>
        <time>2016-10-08T11:57:04Z</time>
      </trkpt>
      <trkpt lat="44.24754" lon="9.61497">
        <ele>500.98</ele>
        <time>2016-10-08T11:57:05Z</time>
      </trkpt>
      <trkpt lat="44.24747" lon="9.61555">
        <ele>500.5</ele>
        <time>2016-10-08T11:57:11Z</time>
      </trkpt>
      <trkpt lat="44.24744" lon="9.61564">
        <ele>500.02</ele>
        <time>2016-10-08T11:57:12Z</time>
      </trkpt>
      <trkpt lat="44.2474" lon="9.61572">
        <ele>500.02</ele>
        <time>2016-10-08T11:57:13Z</time>
      </trkpt>
      <trkpt lat="44.24736" lon="9.61579">
        <ele>500.02</ele>
        <time>2016-10-08T11:57:14Z</time>
      </trkpt>
      <trkpt lat="44.24731" lon="9.61585">
        <ele>500.02</ele>
        <time>2016-10-08T11:57:15Z</time>
      </trkpt>
      <trkpt lat="44.24726" lon="9.61591">
        <ele>500.02</ele>
        <time>2016-10-08T11:57:16Z</time>
      </trkpt>
      <trkpt lat="44.24721" lon="9.61597">
        <ele>499.54</ele>
        <time>2016-10-08T11:57:17Z</time>
      </trkpt>
      <trkpt lat="44.24714" lon="9.616">
        <ele>499.06</ele>
        <time>2016-10-08T11:57:18Z</time>
      </trkpt>
      <trkpt lat="44.24707" lon="9.61603">
        <ele>499.06</ele>
        <time>2016-10-08T11:57:19Z</time>
      </trkpt>
      <trkpt lat="44.247" lon="9.61604">
        <ele>498.58</ele>
        <time>2016-10-08T11:57:20Z</time>
      </trkpt>
      <trkpt lat="44.24694" lon="9.61604">
        <ele>498.1</ele>
        <time>2016-10-08T11:57:21Z</time>
      </trkpt>
      <trkpt lat="44.2468" lon="9.61606">
        <ele>498.58</ele>
        <time>2016-10-08T11:57:23Z</time>
      </trkpt>
      <trkpt lat="44.24674" lon="9.61608">
        <ele>498.1</ele>
        <time>2016-10-08T11:57:24Z</time>
      </trkpt>
      <trkpt lat="44.2467" lon="9.6161">
        <ele>498.58</ele>
        <time>2016-10-08T11:57:25Z</time>
      </trkpt>
      <trkpt lat="44.24666" lon="9.61614">
        <ele>498.1</ele>
        <time>2016-10-08T11:57:26Z</time>
      </trkpt>
      <trkpt lat="44.24663" lon="9.61617">
        <ele>498.1</ele>
        <time>2016-10-08T11:57:27Z</time>
      </trkpt>
      <trkpt lat="44.24661" lon="9.6162">
        <ele>497.62</ele>
        <time>2016-10-08T11:57:28Z</time>
      </trkpt>
      <trkpt lat="44.24659" lon="9.61622">
        <ele>497.14</ele>
        <time>2016-10-08T11:57:29Z</time>
      </trkpt>
      <trkpt lat="44.24657" lon="9.61623">
        <ele>497.14</ele>
        <time>2016-10-08T11:57:30Z</time>
      </trkpt>
      <trkpt lat="44.24655" lon="9.61622">
        <ele>496.66</ele>
        <time>2016-10-08T11:57:31Z</time>
      </trkpt>
      <trkpt lat="44.24653" lon="9.61621">
        <ele>497.62</ele>
        <time>2016-10-08T11:57:32Z</time>
      </trkpt>
      <trkpt lat="44.24652" lon="9.61619">
        <ele>496.66</ele>
        <time>2016-10-08T11:57:33Z</time>
      </trkpt>
      <trkpt lat="44.24651" lon="9.61618">
        <ele>497.14</ele>
        <time>2016-10-08T11:57:34Z</time>
      </trkpt>
      <trkpt lat="44.24648" lon="9.61617">
        <ele>497.62</ele>
        <time>2016-10-08T11:57:43Z</time>
      </trkpt>
      <trkpt lat="44.24648" lon="9.61621">
        <ele>497.62</ele>
        <time>2016-10-08T11:58:01Z</time>
      </trkpt>
      <trkpt lat="44.2465" lon="9.61626">
        <ele>497.14</ele>
        <time>2016-10-08T11:58:31Z</time>
      </trkpt>
      <trkpt lat="44.24651" lon="9.61628">
        <ele>497.14</ele>
        <time>2016-10-08T11:58:32Z</time>
      </trkpt>
      <trkpt lat="44.24652" lon="9.6163">
        <ele>497.14</ele>
        <time>2016-10-08T11:58:33Z</time>
      </trkpt>
      <trkpt lat="44.24652" lon="9.61634">
        <ele>496.66</ele>
        <time>2016-10-08T11:58:34Z</time>
      </trkpt>
      <trkpt lat="44.24653" lon="9.61638">
        <ele>496.66</ele>
        <time>2016-10-08T11:58:35Z</time>
      </trkpt>
      <trkpt lat="44.24653" lon="9.61644">
        <ele>497.14</ele>
        <time>2016-10-08T11:58:36Z</time>
      </trkpt>
      <trkpt lat="44.24654" lon="9.61649">
        <ele>496.18</ele>
        <time>2016-10-08T11:58:37Z</time>
      </trkpt>
      <trkpt lat="44.24654" lon="9.61656">
        <ele>496.18</ele>
        <time>2016-10-08T11:58:38Z</time>
      </trkpt>
      <trkpt lat="44.24656" lon="9.61663">
        <ele>495.7</ele>
        <time>2016-10-08T11:58:39Z</time>
      </trkpt>
      <trkpt lat="44.24669" lon="9.61709">
        <ele>493.29</ele>
        <time>2016-10-08T11:58:45Z</time>
      </trkpt>
      <trkpt lat="44.2467" lon="9.61718">
        <ele>492.81</ele>
        <time>2016-10-08T11:58:46Z</time>
      </trkpt>
      <trkpt lat="44.2467" lon="9.61728">
        <ele>492.33</ele>
        <time>2016-10-08T11:58:47Z</time>
      </trkpt>
      <trkpt lat="44.24668" lon="9.61769">
        <ele>490.89</ele>
        <time>2016-10-08T11:58:51Z</time>
      </trkpt>
      <trkpt lat="44.24663" lon="9.61873">
        <ele>486.56</ele>
        <time>2016-10-08T11:59:00Z</time>
      </trkpt>
      <trkpt lat="44.24665" lon="9.61884">
        <ele>487.05</ele>
        <time>2016-10-08T11:59:01Z</time>
      </trkpt>
      <trkpt lat="44.24672" lon="9.61908">
        <ele>485.6</ele>
        <time>2016-10-08T11:59:03Z</time>
      </trkpt>
      <trkpt lat="44.24677" lon="9.61919">
        <ele>486.08</ele>
        <time>2016-10-08T11:59:04Z</time>
      </trkpt>
      <trkpt lat="44.24683" lon="9.61929">
        <ele>485.12</ele>
        <time>2016-10-08T11:59:05Z</time>
      </trkpt>
      <trkpt lat="44.24688" lon="9.6194">
        <ele>484.16</ele>
        <time>2016-10-08T11:59:06Z</time>
      </trkpt>
      <trkpt lat="44.24692" lon="9.61952">
        <ele>483.2</ele>
        <time>2016-10-08T11:59:07Z</time>
      </trkpt>
      <trkpt lat="44.24695" lon="9.61966">
        <ele>482.24</ele>
        <time>2016-10-08T11:59:08Z</time>
      </trkpt>
      <trkpt lat="44.24697" lon="9.6198">
        <ele>482.24</ele>
        <time>2016-10-08T11:59:09Z</time>
      </trkpt>
      <trkpt lat="44.24698" lon="9.61994">
        <ele>482.24</ele>
        <time>2016-10-08T11:59:10Z</time>
      </trkpt>
      <trkpt lat="44.24698" lon="9.62008">
        <ele>480.8</ele>
        <time>2016-10-08T11:59:11Z</time>
      </trkpt>
      <trkpt lat="44.24698" lon="9.62023">
        <ele>480.8</ele>
        <time>2016-10-08T11:59:12Z</time>
      </trkpt>
      <trkpt lat="44.24697" lon="9.62052">
        <ele>475.99</ele>
        <time>2016-10-08T11:59:14Z</time>
      </trkpt>
      <trkpt lat="44.24696" lon="9.62066">
        <ele>476.47</ele>
        <time>2016-10-08T11:59:15Z</time>
      </trkpt>
      <trkpt lat="44.24696" lon="9.62095">
        <ele>476.47</ele>
        <time>2016-10-08T11:59:17Z</time>
      </trkpt>
      <trkpt lat="44.24698" lon="9.62109">
        <ele>475.51</ele>
        <time>2016-10-08T11:59:18Z</time>
      </trkpt>
      <trkpt lat="44.24702" lon="9.62122">
        <ele>475.51</ele>
        <time>2016-10-08T11:59:19Z</time>
      </trkpt>
      <trkpt lat="44.24706" lon="9.62135">
        <ele>475.03</ele>
        <time>2016-10-08T11:59:20Z</time>
      </trkpt>
      <trkpt lat="44.24711" lon="9.62147">
        <ele>474.55</ele>
        <time>2016-10-08T11:59:21Z</time>
      </trkpt>
      <trkpt lat="44.24719" lon="9.62172">
        <ele>473.11</ele>
        <time>2016-10-08T11:59:23Z</time>
      </trkpt>
      <trkpt lat="44.24721" lon="9.62186">
        <ele>473.59</ele>
        <time>2016-10-08T11:59:24Z</time>
      </trkpt>
      <trkpt lat="44.24721" lon="9.62199">
        <ele>473.11</ele>
        <time>2016-10-08T11:59:25Z</time>
      </trkpt>
      <trkpt lat="44.2472" lon="9.62212">
        <ele>473.11</ele>
        <time>2016-10-08T11:59:26Z</time>
      </trkpt>
      <trkpt lat="44.24718" lon="9.62224">
        <ele>473.59</ele>
        <time>2016-10-08T11:59:27Z</time>
      </trkpt>
      <trkpt lat="44.24714" lon="9.62236">
        <ele>473.11</ele>
        <time>2016-10-08T11:59:28Z</time>
      </trkpt>
      <trkpt lat="44.24697" lon="9.62291">
        <ele>472.63</ele>
        <time>2016-10-08T11:59:33Z</time>
      </trkpt>
      <trkpt lat="44.24692" lon="9.62299">
        <ele>472.14</ele>
        <time>2016-10-08T11:59:34Z</time>
      </trkpt>
      <trkpt lat="44.24686" lon="9.62306">
        <ele>471.66</ele>
        <time>2016-10-08T11:59:35Z</time>
      </trkpt>
      <trkpt lat="44.24679" lon="9.62312">
        <ele>471.66</ele>
        <time>2016-10-08T11:59:36Z</time>
      </trkpt>
      <trkpt lat="44.24672" lon="9.62317">
        <ele>470.7</ele>
        <time>2016-10-08T11:59:37Z</time>
      </trkpt>
      <trkpt lat="44.2464" lon="9.62335">
        <ele>470.22</ele>
        <time>2016-10-08T11:59:41Z</time>
      </trkpt>
      <trkpt lat="44.24631" lon="9.62336">
        <ele>470.22</ele>
        <time>2016-10-08T11:59:42Z</time>
      </trkpt>
      <trkpt lat="44.24622" lon="9.62333">
        <ele>469.26</ele>
        <time>2016-10-08T11:59:43Z</time>
      </trkpt>
      <trkpt lat="44.24606" lon="9.62327">
        <ele>468.3</ele>
        <time>2016-10-08T11:59:45Z</time>
      </trkpt>
      <trkpt lat="44.24598" lon="9.62326">
        <ele>468.3</ele>
        <time>2016-10-08T11:59:46Z</time>
      </trkpt>
      <trkpt lat="44.24591" lon="9.62329">
        <ele>468.3</ele>
        <time>2016-10-08T11:59:47Z</time>
      </trkpt>
      <trkpt lat="44.24586" lon="9.62335">
        <ele>467.34</ele>
        <time>2016-10-08T11:59:48Z</time>
      </trkpt>
      <trkpt lat="44.24582" lon="9.62345">
        <ele>467.34</ele>
        <time>2016-10-08T11:59:49Z</time>
      </trkpt>
      <trkpt lat="44.24581" lon="9.62356">
        <ele>466.86</ele>
        <time>2016-10-08T11:59:50Z</time>
      </trkpt>
      <trkpt lat="44.24583" lon="9.62367">
        <ele>466.38</ele>
        <time>2016-10-08T11:59:51Z</time>
      </trkpt>
      <trkpt lat="44.24587" lon="9.62377">
        <ele>464.93</ele>
        <time>2016-10-08T11:59:52Z</time>
      </trkpt>
      <trkpt lat="44.24592" lon="9.62385">
        <ele>463.97</ele>
        <time>2016-10-08T11:59:53Z</time>
      </trkpt>
      <trkpt lat="44.24599" lon="9.62393">
        <ele>463.97</ele>
        <time>2016-10-08T11:59:54Z</time>
      </trkpt>
      <trkpt lat="44.24606" lon="9.62401">
        <ele>463.49</ele>
        <time>2016-10-08T11:59:55Z</time>
      </trkpt>
      <trkpt lat="44.24612" lon="9.6241">
        <ele>462.05</ele>
        <time>2016-10-08T11:59:56Z</time>
      </trkpt>
      <trkpt lat="44.24618" lon="9.62421">
        <ele>461.57</ele>
        <time>2016-10-08T11:59:57Z</time>
      </trkpt>
      <trkpt lat="44.24636" lon="9.62469">
        <ele>458.21</ele>
        <time>2016-10-08T12:00:01Z</time>
      </trkpt>
      <trkpt lat="44.24638" lon="9.62482">
        <ele>457.72</ele>
        <time>2016-10-08T12:00:02Z</time>
      </trkpt>
      <trkpt lat="44.24638" lon="9.62495">
        <ele>457.24</ele>
        <time>2016-10-08T12:00:03Z</time>
      </trkpt>
      <trkpt lat="44.24637" lon="9.62521">
        <ele>456.28</ele>
        <time>2016-10-08T12:00:05Z</time>
      </trkpt>
      <trkpt lat="44.24638" lon="9.62534">
        <ele>455.8</ele>
        <time>2016-10-08T12:00:06Z</time>
      </trkpt>
      <trkpt lat="44.24641" lon="9.62548">
        <ele>455.32</ele>
        <time>2016-10-08T12:00:07Z</time>
      </trkpt>
      <trkpt lat="44.24646" lon="9.62574">
        <ele>452.92</ele>
        <time>2016-10-08T12:00:09Z</time>
      </trkpt>
      <trkpt lat="44.24647" lon="9.62587">
        <ele>452.44</ele>
        <time>2016-10-08T12:00:10Z</time>
      </trkpt>
      <trkpt lat="44.24646" lon="9.62599">
        <ele>451.48</ele>
        <time>2016-10-08T12:00:11Z</time>
      </trkpt>
      <trkpt lat="44.24643" lon="9.6261">
        <ele>451</ele>
        <time>2016-10-08T12:00:12Z</time>
      </trkpt>
      <trkpt lat="44.24639" lon="9.6262">
        <ele>450.52</ele>
        <time>2016-10-08T12:00:13Z</time>
      </trkpt>
      <trkpt lat="44.24636" lon="9.62629">
        <ele>450.03</ele>
        <time>2016-10-08T12:00:14Z</time>
      </trkpt>
      <trkpt lat="44.24633" lon="9.62638">
        <ele>449.07</ele>
        <time>2016-10-08T12:00:15Z</time>
      </trkpt>
      <trkpt lat="44.24634" lon="9.62648">
        <ele>448.59</ele>
        <time>2016-10-08T12:00:16Z</time>
      </trkpt>
      <trkpt lat="44.24637" lon="9.62658">
        <ele>447.63</ele>
        <time>2016-10-08T12:00:17Z</time>
      </trkpt>
      <trkpt lat="44.24642" lon="9.62667">
        <ele>447.63</ele>
        <time>2016-10-08T12:00:18Z</time>
      </trkpt>
      <trkpt lat="44.24648" lon="9.62676">
        <ele>447.15</ele>
        <time>2016-10-08T12:00:19Z</time>
      </trkpt>
      <trkpt lat="44.24654" lon="9.62684">
        <ele>446.19</ele>
        <time>2016-10-08T12:00:20Z</time>
      </trkpt>
      <trkpt lat="44.24672" lon="9.62708">
        <ele>444.27</ele>
        <time>2016-10-08T12:00:23Z</time>
      </trkpt>
      <trkpt lat="44.24677" lon="9.62717">
        <ele>443.79</ele>
        <time>2016-10-08T12:00:24Z</time>
      </trkpt>
      <trkpt lat="44.24679" lon="9.62728">
        <ele>442.82</ele>
        <time>2016-10-08T12:00:25Z</time>
      </trkpt>
      <trkpt lat="44.24679" lon="9.6274">
        <ele>441.86</ele>
        <time>2016-10-08T12:00:26Z</time>
      </trkpt>
      <trkpt lat="44.24677" lon="9.62752">
        <ele>441.38</ele>
        <time>2016-10-08T12:00:27Z</time>
      </trkpt>
      <trkpt lat="44.24675" lon="9.62764">
        <ele>440.42</ele>
        <time>2016-10-08T12:00:28Z</time>
      </trkpt>
      <trkpt lat="44.24673" lon="9.62776">
        <ele>439.46</ele>
        <time>2016-10-08T12:00:29Z</time>
      </trkpt>
      <trkpt lat="44.24672" lon="9.62788">
        <ele>439.94</ele>
        <time>2016-10-08T12:00:30Z</time>
      </trkpt>
      <trkpt lat="44.24674" lon="9.628">
        <ele>438.98</ele>
        <time>2016-10-08T12:00:31Z</time>
      </trkpt>
      <trkpt lat="44.24676" lon="9.62812">
        <ele>438.5</ele>
        <time>2016-10-08T12:00:32Z</time>
      </trkpt>
      <trkpt lat="44.2468" lon="9.62823">
        <ele>437.54</ele>
        <time>2016-10-08T12:00:33Z</time>
      </trkpt>
      <trkpt lat="44.24682" lon="9.62836">
        <ele>436.58</ele>
        <time>2016-10-08T12:00:34Z</time>
      </trkpt>
      <trkpt lat="44.24682" lon="9.62848">
        <ele>435.61</ele>
        <time>2016-10-08T12:00:35Z</time>
      </trkpt>
      <trkpt lat="44.2468" lon="9.62861">
        <ele>435.61</ele>
        <time>2016-10-08T12:00:36Z</time>
      </trkpt>
      <trkpt lat="44.24676" lon="9.62874">
        <ele>434.17</ele>
        <time>2016-10-08T12:00:37Z</time>
      </trkpt>
      <trkpt lat="44.24654" lon="9.62936">
        <ele>430.81</ele>
        <time>2016-10-08T12:00:42Z</time>
      </trkpt>
      <trkpt lat="44.24649" lon="9.62946">
        <ele>430.33</ele>
        <time>2016-10-08T12:00:43Z</time>
      </trkpt>
      <trkpt lat="44.24642" lon="9.62954">
        <ele>429.85</ele>
        <time>2016-10-08T12:00:44Z</time>
      </trkpt>
      <trkpt lat="44.24634" lon="9.62959">
        <ele>428.4</ele>
        <time>2016-10-08T12:00:45Z</time>
      </trkpt>
      <trkpt lat="44.24626" lon="9.62963">
        <ele>428.4</ele>
        <time>2016-10-08T12:00:46Z</time>
      </trkpt>
      <trkpt lat="44.24618" lon="9.62969">
        <ele>428.4</ele>
        <time>2016-10-08T12:00:47Z</time>
      </trkpt>
      <trkpt lat="44.24611" lon="9.62977">
        <ele>427.92</ele>
        <time>2016-10-08T12:00:48Z</time>
      </trkpt>
      <trkpt lat="44.24607" lon="9.62987">
        <ele>426.48</ele>
        <time>2016-10-08T12:00:49Z</time>
      </trkpt>
      <trkpt lat="44.24606" lon="9.62999">
        <ele>425.52</ele>
        <time>2016-10-08T12:00:50Z</time>
      </trkpt>
      <trkpt lat="44.24605" lon="9.63012">
        <ele>424.56</ele>
        <time>2016-10-08T12:00:51Z</time>
      </trkpt>
      <trkpt lat="44.24601" lon="9.63051">
        <ele>423.12</ele>
        <time>2016-10-08T12:00:54Z</time>
      </trkpt>
      <trkpt lat="44.24595" lon="9.63062">
        <ele>422.16</ele>
        <time>2016-10-08T12:00:55Z</time>
      </trkpt>
      <trkpt lat="44.24589" lon="9.63071">
        <ele>421.68</ele>
        <time>2016-10-08T12:00:56Z</time>
      </trkpt>
      <trkpt lat="44.2458" lon="9.63077">
        <ele>421.68</ele>
        <time>2016-10-08T12:00:57Z</time>
      </trkpt>
      <trkpt lat="44.24571" lon="9.6308">
        <ele>420.71</ele>
        <time>2016-10-08T12:00:58Z</time>
      </trkpt>
      <trkpt lat="44.24563" lon="9.6308">
        <ele>419.75</ele>
        <time>2016-10-08T12:00:59Z</time>
      </trkpt>
      <trkpt lat="44.24554" lon="9.63077">
        <ele>419.27</ele>
        <time>2016-10-08T12:01:00Z</time>
      </trkpt>
      <trkpt lat="44.24546" lon="9.63072">
        <ele>418.31</ele>
        <time>2016-10-08T12:01:01Z</time>
      </trkpt>
      <trkpt lat="44.24537" lon="9.63069">
        <ele>417.83</ele>
        <time>2016-10-08T12:01:02Z</time>
      </trkpt>
      <trkpt lat="44.2453" lon="9.63071">
        <ele>417.83</ele>
        <time>2016-10-08T12:01:03Z</time>
      </trkpt>
      <trkpt lat="44.24522" lon="9.63076">
        <ele>417.35</ele>
        <time>2016-10-08T12:01:04Z</time>
      </trkpt>
      <trkpt lat="44.24517" lon="9.63084">
        <ele>416.39</ele>
        <time>2016-10-08T12:01:05Z</time>
      </trkpt>
      <trkpt lat="44.24513" lon="9.63095">
        <ele>415.91</ele>
        <time>2016-10-08T12:01:06Z</time>
      </trkpt>
      <trkpt lat="44.24511" lon="9.63106">
        <ele>415.43</ele>
        <time>2016-10-08T12:01:07Z</time>
      </trkpt>
      <trkpt lat="44.24511" lon="9.6312">
        <ele>414.47</ele>
        <time>2016-10-08T12:01:08Z</time>
      </trkpt>
      <trkpt lat="44.24509" lon="9.63133">
        <ele>413.5</ele>
        <time>2016-10-08T12:01:09Z</time>
      </trkpt>
      <trkpt lat="44.24505" lon="9.63146">
        <ele>412.54</ele>
        <time>2016-10-08T12:01:10Z</time>
      </trkpt>
      <trkpt lat="44.245" lon="9.63157">
        <ele>412.54</ele>
        <time>2016-10-08T12:01:11Z</time>
      </trkpt>
      <trkpt lat="44.24493" lon="9.63166">
        <ele>411.58</ele>
        <time>2016-10-08T12:01:12Z</time>
      </trkpt>
      <trkpt lat="44.24485" lon="9.63172">
        <ele>411.1</ele>
        <time>2016-10-08T12:01:13Z</time>
      </trkpt>
      <trkpt lat="44.24476" lon="9.63175">
        <ele>409.66</ele>
        <time>2016-10-08T12:01:14Z</time>
      </trkpt>
      <trkpt lat="44.24467" lon="9.63176">
        <ele>409.18</ele>
        <time>2016-10-08T12:01:15Z</time>
      </trkpt>
      <trkpt lat="44.2444" lon="9.63182">
        <ele>407.74</ele>
        <time>2016-10-08T12:01:18Z</time>
      </trkpt>
      <trkpt lat="44.24432" lon="9.63187">
        <ele>407.26</ele>
        <time>2016-10-08T12:01:19Z</time>
      </trkpt>
      <trkpt lat="44.24426" lon="9.63193">
        <ele>406.77</ele>
        <time>2016-10-08T12:01:20Z</time>
      </trkpt>
      <trkpt lat="44.24422" lon="9.63203">
        <ele>407.26</ele>
        <time>2016-10-08T12:01:21Z</time>
      </trkpt>
      <trkpt lat="44.24422" lon="9.63214">
        <ele>406.29</ele>
        <time>2016-10-08T12:01:22Z</time>
      </trkpt>
      <trkpt lat="44.24424" lon="9.63225">
        <ele>405.33</ele>
        <time>2016-10-08T12:01:23Z</time>
      </trkpt>
      <trkpt lat="44.24427" lon="9.63236">
        <ele>403.89</ele>
        <time>2016-10-08T12:01:24Z</time>
      </trkpt>
      <trkpt lat="44.24432" lon="9.63248">
        <ele>403.89</ele>
        <time>2016-10-08T12:01:25Z</time>
      </trkpt>
      <trkpt lat="44.24437" lon="9.63258">
        <ele>403.41</ele>
        <time>2016-10-08T12:01:26Z</time>
      </trkpt>
      <trkpt lat="44.24443" lon="9.63267">
        <ele>402.93</ele>
        <time>2016-10-08T12:01:27Z</time>
      </trkpt>
      <trkpt lat="44.2445" lon="9.63276">
        <ele>401.49</ele>
        <time>2016-10-08T12:01:28Z</time>
      </trkpt>
      <trkpt lat="44.24457" lon="9.63283">
        <ele>401.01</ele>
        <time>2016-10-08T12:01:29Z</time>
      </trkpt>
      <trkpt lat="44.24465" lon="9.63291">
        <ele>400.53</ele>
        <time>2016-10-08T12:01:30Z</time>
      </trkpt>
      <trkpt lat="44.24473" lon="9.63296">
        <ele>401.49</ele>
        <time>2016-10-08T12:01:31Z</time>
      </trkpt>
      <trkpt lat="44.24482" lon="9.63299">
        <ele>400.53</ele>
        <time>2016-10-08T12:01:32Z</time>
      </trkpt>
      <trkpt lat="44.24492" lon="9.63301">
        <ele>400.05</ele>
        <time>2016-10-08T12:01:33Z</time>
      </trkpt>
      <trkpt lat="44.24502" lon="9.63302">
        <ele>398.6</ele>
        <time>2016-10-08T12:01:34Z</time>
      </trkpt>
      <trkpt lat="44.24521" lon="9.63306">
        <ele>397.64</ele>
        <time>2016-10-08T12:01:36Z</time>
      </trkpt>
      <trkpt lat="44.24529" lon="9.63309">
        <ele>396.68</ele>
        <time>2016-10-08T12:01:37Z</time>
      </trkpt>
      <trkpt lat="44.24537" lon="9.63314">
        <ele>396.68</ele>
        <time>2016-10-08T12:01:38Z</time>
      </trkpt>
      <trkpt lat="44.24543" lon="9.63319">
        <ele>396.2</ele>
        <time>2016-10-08T12:01:39Z</time>
      </trkpt>
      <trkpt lat="44.24549" lon="9.63327">
        <ele>395.72</ele>
        <time>2016-10-08T12:01:40Z</time>
      </trkpt>
      <trkpt lat="44.24551" lon="9.63337">
        <ele>394.76</ele>
        <time>2016-10-08T12:01:41Z</time>
      </trkpt>
      <trkpt lat="44.2455" lon="9.63348">
        <ele>393.8</ele>
        <time>2016-10-08T12:01:42Z</time>
      </trkpt>
      <trkpt lat="44.24547" lon="9.63358">
        <ele>393.32</ele>
        <time>2016-10-08T12:01:43Z</time>
      </trkpt>
      <trkpt lat="44.24543" lon="9.63368">
        <ele>392.84</ele>
        <time>2016-10-08T12:01:44Z</time>
      </trkpt>
      <trkpt lat="44.24539" lon="9.63378">
        <ele>392.36</ele>
        <time>2016-10-08T12:01:45Z</time>
      </trkpt>
      <trkpt lat="44.24526" lon="9.63409">
        <ele>391.39</ele>
        <time>2016-10-08T12:01:48Z</time>
      </trkpt>
      <trkpt lat="44.24523" lon="9.63421">
        <ele>390.43</ele>
        <time>2016-10-08T12:01:49Z</time>
      </trkpt>
      <trkpt lat="44.24521" lon="9.63433">
        <ele>390.43</ele>
        <time>2016-10-08T12:01:50Z</time>
      </trkpt>
      <trkpt lat="44.24521" lon="9.63446">
        <ele>389.47</ele>
        <time>2016-10-08T12:01:51Z</time>
      </trkpt>
      <trkpt lat="44.2452" lon="9.63459">
        <ele>388.51</ele>
        <time>2016-10-08T12:01:52Z</time>
      </trkpt>
      <trkpt lat="44.24518" lon="9.63471">
        <ele>387.55</ele>
        <time>2016-10-08T12:01:53Z</time>
      </trkpt>
      <trkpt lat="44.24514" lon="9.63483">
        <ele>387.07</ele>
        <time>2016-10-08T12:01:54Z</time>
      </trkpt>
      <trkpt lat="44.24509" lon="9.63494">
        <ele>386.59</ele>
        <time>2016-10-08T12:01:55Z</time>
      </trkpt>
      <trkpt lat="44.24504" lon="9.63505">
        <ele>386.59</ele>
        <time>2016-10-08T12:01:56Z</time>
      </trkpt>
      <trkpt lat="44.245" lon="9.63516">
        <ele>386.59</ele>
        <time>2016-10-08T12:01:57Z</time>
      </trkpt>
      <trkpt lat="44.24496" lon="9.63526">
        <ele>385.63</ele>
        <time>2016-10-08T12:01:58Z</time>
      </trkpt>
      <trkpt lat="44.24494" lon="9.63537">
        <ele>384.66</ele>
        <time>2016-10-08T12:01:59Z</time>
      </trkpt>
      <trkpt lat="44.24493" lon="9.63548">
        <ele>384.66</ele>
        <time>2016-10-08T12:02:00Z</time>
      </trkpt>
      <trkpt lat="44.24494" lon="9.63559">
        <ele>383.7</ele>
        <time>2016-10-08T12:02:01Z</time>
      </trkpt>
      <trkpt lat="44.24499" lon="9.63568">
        <ele>383.22</ele>
        <time>2016-10-08T12:02:02Z</time>
      </trkpt>
      <trkpt lat="44.24506" lon="9.63575">
        <ele>382.74</ele>
        <time>2016-10-08T12:02:03Z</time>
      </trkpt>
      <trkpt lat="44.24514" lon="9.63578">
        <ele>381.78</ele>
        <time>2016-10-08T12:02:04Z</time>
      </trkpt>
      <trkpt lat="44.24523" lon="9.6358">
        <ele>380.82</ele>
        <time>2016-10-08T12:02:05Z</time>
      </trkpt>
      <trkpt lat="44.24532" lon="9.63582">
        <ele>380.82</ele>
        <time>2016-10-08T12:02:06Z</time>
      </trkpt>
      <trkpt lat="44.24549" lon="9.63584">
        <ele>379.86</ele>
        <time>2016-10-08T12:02:08Z</time>
      </trkpt>
      <trkpt lat="44.24558" lon="9.63586">
        <ele>379.38</ele>
        <time>2016-10-08T12:02:09Z</time>
      </trkpt>
      <trkpt lat="44.24565" lon="9.63589">
        <ele>378.9</ele>
        <time>2016-10-08T12:02:10Z</time>
      </trkpt>
      <trkpt lat="44.24572" lon="9.63594">
        <ele>378.42</ele>
        <time>2016-10-08T12:02:11Z</time>
      </trkpt>
      <trkpt lat="44.24577" lon="9.63603">
        <ele>377.94</ele>
        <time>2016-10-08T12:02:12Z</time>
      </trkpt>
      <trkpt lat="44.24579" lon="9.63615">
        <ele>377.94</ele>
        <time>2016-10-08T12:02:13Z</time>
      </trkpt>
      <trkpt lat="44.24579" lon="9.63626">
        <ele>377.45</ele>
        <time>2016-10-08T12:02:14Z</time>
      </trkpt>
      <trkpt lat="44.24578" lon="9.63638">
        <ele>376.97</ele>
        <time>2016-10-08T12:02:15Z</time>
      </trkpt>
      <trkpt lat="44.24575" lon="9.63648">
        <ele>376.01</ele>
        <time>2016-10-08T12:02:16Z</time>
      </trkpt>
      <trkpt lat="44.24569" lon="9.63658">
        <ele>375.53</ele>
        <time>2016-10-08T12:02:17Z</time>
      </trkpt>
      <trkpt lat="44.24563" lon="9.63668">
        <ele>375.05</ele>
        <time>2016-10-08T12:02:18Z</time>
      </trkpt>
      <trkpt lat="44.24558" lon="9.63678">
        <ele>374.57</ele>
        <time>2016-10-08T12:02:19Z</time>
      </trkpt>
      <trkpt lat="44.24554" lon="9.63689">
        <ele>374.09</ele>
        <time>2016-10-08T12:02:20Z</time>
      </trkpt>
      <trkpt lat="44.24551" lon="9.63703">
        <ele>371.69</ele>
        <time>2016-10-08T12:02:21Z</time>
      </trkpt>
      <trkpt lat="44.24549" lon="9.63717">
        <ele>371.21</ele>
        <time>2016-10-08T12:02:22Z</time>
      </trkpt>
      <trkpt lat="44.24548" lon="9.63732">
        <ele>370.24</ele>
        <time>2016-10-08T12:02:23Z</time>
      </trkpt>
      <trkpt lat="44.24545" lon="9.63762">
        <ele>369.28</ele>
        <time>2016-10-08T12:02:25Z</time>
      </trkpt>
      <trkpt lat="44.24546" lon="9.63777">
        <ele>368.8</ele>
        <time>2016-10-08T12:02:26Z</time>
      </trkpt>
      <trkpt lat="44.24548" lon="9.63793">
        <ele>367.84</ele>
        <time>2016-10-08T12:02:27Z</time>
      </trkpt>
      <trkpt lat="44.24556" lon="9.63853">
        <ele>364.48</ele>
        <time>2016-10-08T12:02:31Z</time>
      </trkpt>
      <trkpt lat="44.24563" lon="9.63906">
        <ele>361.11</ele>
        <time>2016-10-08T12:02:35Z</time>
      </trkpt>
      <trkpt lat="44.24563" lon="9.63918">
        <ele>360.63</ele>
        <time>2016-10-08T12:02:36Z</time>
      </trkpt>
      <trkpt lat="44.24561" lon="9.63929">
        <ele>360.15</ele>
        <time>2016-10-08T12:02:37Z</time>
      </trkpt>
      <trkpt lat="44.24556" lon="9.63939">
        <ele>359.67</ele>
        <time>2016-10-08T12:02:38Z</time>
      </trkpt>
      <trkpt lat="44.2455" lon="9.63947">
        <ele>359.67</ele>
        <time>2016-10-08T12:02:39Z</time>
      </trkpt>
      <trkpt lat="44.24543" lon="9.63955">
        <ele>358.71</ele>
        <time>2016-10-08T12:02:40Z</time>
      </trkpt>
      <trkpt lat="44.24536" lon="9.63964">
        <ele>358.71</ele>
        <time>2016-10-08T12:02:41Z</time>
      </trkpt>
      <trkpt lat="44.2453" lon="9.63973">
        <ele>358.23</ele>
        <time>2016-10-08T12:02:42Z</time>
      </trkpt>
      <trkpt lat="44.24526" lon="9.63985">
        <ele>357.75</ele>
        <time>2016-10-08T12:02:43Z</time>
      </trkpt>
      <trkpt lat="44.24525" lon="9.63997">
        <ele>356.79</ele>
        <time>2016-10-08T12:02:44Z</time>
      </trkpt>
      <trkpt lat="44.24526" lon="9.6401">
        <ele>356.31</ele>
        <time>2016-10-08T12:02:45Z</time>
      </trkpt>
      <trkpt lat="44.24529" lon="9.64022">
        <ele>355.83</ele>
        <time>2016-10-08T12:02:46Z</time>
      </trkpt>
      <trkpt lat="44.24534" lon="9.64034">
        <ele>355.34</ele>
        <time>2016-10-08T12:02:47Z</time>
      </trkpt>
      <trkpt lat="44.2454" lon="9.64045">
        <ele>354.86</ele>
        <time>2016-10-08T12:02:48Z</time>
      </trkpt>
      <trkpt lat="44.24548" lon="9.64056">
        <ele>354.38</ele>
        <time>2016-10-08T12:02:49Z</time>
      </trkpt>
      <trkpt lat="44.24571" lon="9.64088">
        <ele>351.5</ele>
        <time>2016-10-08T12:02:52Z</time>
      </trkpt>
      <trkpt lat="44.24603" lon="9.64134">
        <ele>347.17</ele>
        <time>2016-10-08T12:02:56Z</time>
      </trkpt>
      <trkpt lat="44.24623" lon="9.64172">
        <ele>344.29</ele>
        <time>2016-10-08T12:02:59Z</time>
      </trkpt>
      <trkpt lat="44.24625" lon="9.64187">
        <ele>343.81</ele>
        <time>2016-10-08T12:03:00Z</time>
      </trkpt>
      <trkpt lat="44.2463" lon="9.64217">
        <ele>343.33</ele>
        <time>2016-10-08T12:03:02Z</time>
      </trkpt>
      <trkpt lat="44.24634" lon="9.6423">
        <ele>341.41</ele>
        <time>2016-10-08T12:03:03Z</time>
      </trkpt>
      <trkpt lat="44.2464" lon="9.64243">
        <ele>341.89</ele>
        <time>2016-10-08T12:03:04Z</time>
      </trkpt>
      <trkpt lat="44.24647" lon="9.64253">
        <ele>341.89</ele>
        <time>2016-10-08T12:03:05Z</time>
      </trkpt>
      <trkpt lat="44.24655" lon="9.64263">
        <ele>340.44</ele>
        <time>2016-10-08T12:03:06Z</time>
      </trkpt>
      <trkpt lat="44.24663" lon="9.64273">
        <ele>340.44</ele>
        <time>2016-10-08T12:03:07Z</time>
      </trkpt>
      <trkpt lat="44.24671" lon="9.64282">
        <ele>340.92</ele>
        <time>2016-10-08T12:03:08Z</time>
      </trkpt>
      <trkpt lat="44.24679" lon="9.64289">
        <ele>339.96</ele>
        <time>2016-10-08T12:03:09Z</time>
      </trkpt>
      <trkpt lat="44.24689" lon="9.64293">
        <ele>339.48</ele>
        <time>2016-10-08T12:03:10Z</time>
      </trkpt>
      <trkpt lat="44.24698" lon="9.64294">
        <ele>339</ele>
        <time>2016-10-08T12:03:11Z</time>
      </trkpt>
      <trkpt lat="44.24708" lon="9.64295">
        <ele>338.52</ele>
        <time>2016-10-08T12:03:12Z</time>
      </trkpt>
      <trkpt lat="44.24717" lon="9.64293">
        <ele>338.04</ele>
        <time>2016-10-08T12:03:13Z</time>
      </trkpt>
      <trkpt lat="44.24727" lon="9.64288">
        <ele>337.56</ele>
        <time>2016-10-08T12:03:14Z</time>
      </trkpt>
      <trkpt lat="44.24735" lon="9.64282">
        <ele>337.56</ele>
        <time>2016-10-08T12:03:15Z</time>
      </trkpt>
      <trkpt lat="44.24742" lon="9.64274">
        <ele>337.56</ele>
        <time>2016-10-08T12:03:16Z</time>
      </trkpt>
      <trkpt lat="44.24749" lon="9.64266">
        <ele>336.12</ele>
        <time>2016-10-08T12:03:17Z</time>
      </trkpt>
      <trkpt lat="44.24756" lon="9.64261">
        <ele>336.12</ele>
        <time>2016-10-08T12:03:18Z</time>
      </trkpt>
      <trkpt lat="44.24764" lon="9.6426">
        <ele>335.64</ele>
        <time>2016-10-08T12:03:19Z</time>
      </trkpt>
      <trkpt lat="44.24772" lon="9.64264">
        <ele>335.16</ele>
        <time>2016-10-08T12:03:20Z</time>
      </trkpt>
      <trkpt lat="44.24778" lon="9.64272">
        <ele>334.2</ele>
        <time>2016-10-08T12:03:21Z</time>
      </trkpt>
      <trkpt lat="44.24783" lon="9.64283">
        <ele>334.2</ele>
        <time>2016-10-08T12:03:22Z</time>
      </trkpt>
      <trkpt lat="44.24788" lon="9.64294">
        <ele>333.23</ele>
        <time>2016-10-08T12:03:23Z</time>
      </trkpt>
      <trkpt lat="44.24805" lon="9.6434">
        <ele>332.75</ele>
        <time>2016-10-08T12:03:27Z</time>
      </trkpt>
      <trkpt lat="44.24809" lon="9.64352">
        <ele>331.79</ele>
        <time>2016-10-08T12:03:28Z</time>
      </trkpt>
      <trkpt lat="44.24811" lon="9.64364">
        <ele>331.79</ele>
        <time>2016-10-08T12:03:29Z</time>
      </trkpt>
      <trkpt lat="44.24813" lon="9.64377">
        <ele>331.79</ele>
        <time>2016-10-08T12:03:30Z</time>
      </trkpt>
      <trkpt lat="44.24817" lon="9.64416">
        <ele>330.35</ele>
        <time>2016-10-08T12:03:33Z</time>
      </trkpt>
      <trkpt lat="44.24816" lon="9.64429">
        <ele>329.39</ele>
        <time>2016-10-08T12:03:34Z</time>
      </trkpt>
      <trkpt lat="44.24813" lon="9.64441">
        <ele>328.43</ele>
        <time>2016-10-08T12:03:35Z</time>
      </trkpt>
      <trkpt lat="44.24808" lon="9.64454">
        <ele>327.95</ele>
        <time>2016-10-08T12:03:36Z</time>
      </trkpt>
      <trkpt lat="44.24804" lon="9.64466">
        <ele>326.5</ele>
        <time>2016-10-08T12:03:37Z</time>
      </trkpt>
      <trkpt lat="44.24798" lon="9.64477">
        <ele>326.99</ele>
        <time>2016-10-08T12:03:38Z</time>
      </trkpt>
      <trkpt lat="44.24792" lon="9.64488">
        <ele>327.47</ele>
        <time>2016-10-08T12:03:39Z</time>
      </trkpt>
      <trkpt lat="44.24772" lon="9.6452">
        <ele>326.02</ele>
        <time>2016-10-08T12:03:42Z</time>
      </trkpt>
      <trkpt lat="44.24751" lon="9.64551">
        <ele>323.14</ele>
        <time>2016-10-08T12:03:45Z</time>
      </trkpt>
      <trkpt lat="44.24744" lon="9.6456">
        <ele>323.14</ele>
        <time>2016-10-08T12:03:46Z</time>
      </trkpt>
      <trkpt lat="44.24735" lon="9.64568">
        <ele>322.66</ele>
        <time>2016-10-08T12:03:47Z</time>
      </trkpt>
      <trkpt lat="44.24718" lon="9.64583">
        <ele>321.22</ele>
        <time>2016-10-08T12:03:49Z</time>
      </trkpt>
      <trkpt lat="44.24694" lon="9.6461">
        <ele>318.33</ele>
        <time>2016-10-08T12:03:52Z</time>
      </trkpt>
      <trkpt lat="44.24687" lon="9.64621">
        <ele>317.37</ele>
        <time>2016-10-08T12:03:53Z</time>
      </trkpt>
      <trkpt lat="44.2468" lon="9.64633">
        <ele>315.93</ele>
        <time>2016-10-08T12:03:54Z</time>
      </trkpt>
      <trkpt lat="44.24674" lon="9.64646">
        <ele>315.45</ele>
        <time>2016-10-08T12:03:55Z</time>
      </trkpt>
      <trkpt lat="44.2467" lon="9.64659">
        <ele>314.01</ele>
        <time>2016-10-08T12:03:56Z</time>
      </trkpt>
      <trkpt lat="44.24666" lon="9.64672">
        <ele>314.01</ele>
        <time>2016-10-08T12:03:57Z</time>
      </trkpt>
      <trkpt lat="44.24659" lon="9.64697">
        <ele>312.57</ele>
        <time>2016-10-08T12:03:59Z</time>
      </trkpt>
      <trkpt lat="44.24652" lon="9.64719">
        <ele>311.6</ele>
        <time>2016-10-08T12:04:01Z</time>
      </trkpt>
      <trkpt lat="44.2465" lon="9.6473">
        <ele>311.12</ele>
        <time>2016-10-08T12:04:02Z</time>
      </trkpt>
      <trkpt lat="44.24651" lon="9.64741">
        <ele>310.64</ele>
        <time>2016-10-08T12:04:03Z</time>
      </trkpt>
      <trkpt lat="44.24654" lon="9.64752">
        <ele>310.16</ele>
        <time>2016-10-08T12:04:04Z</time>
      </trkpt>
      <trkpt lat="44.24659" lon="9.64762">
        <ele>309.68</ele>
        <time>2016-10-08T12:04:05Z</time>
      </trkpt>
      <trkpt lat="44.24664" lon="9.64773">
        <ele>309.2</ele>
        <time>2016-10-08T12:04:06Z</time>
      </trkpt>
      <trkpt lat="44.2468" lon="9.64817">
        <ele>306.8</ele>
        <time>2016-10-08T12:04:10Z</time>
      </trkpt>
      <trkpt lat="44.2468" lon="9.6483">
        <ele>305.36</ele>
        <time>2016-10-08T12:04:11Z</time>
      </trkpt>
      <trkpt lat="44.24674" lon="9.64886">
        <ele>301.51</ele>
        <time>2016-10-08T12:04:15Z</time>
      </trkpt>
      <trkpt lat="44.24669" lon="9.64901">
        <ele>300.07</ele>
        <time>2016-10-08T12:04:16Z</time>
      </trkpt>
      <trkpt lat="44.24649" lon="9.64956">
        <ele>296.22</ele>
        <time>2016-10-08T12:04:20Z</time>
      </trkpt>
      <trkpt lat="44.24634" lon="9.64994">
        <ele>293.82</ele>
        <time>2016-10-08T12:04:23Z</time>
      </trkpt>
      <trkpt lat="44.24628" lon="9.65005">
        <ele>293.34</ele>
        <time>2016-10-08T12:04:24Z</time>
      </trkpt>
      <trkpt lat="44.2462" lon="9.65014">
        <ele>292.38</ele>
        <time>2016-10-08T12:04:25Z</time>
      </trkpt>
      <trkpt lat="44.24611" lon="9.65021">
        <ele>290.94</ele>
        <time>2016-10-08T12:04:26Z</time>
      </trkpt>
      <trkpt lat="44.24601" lon="9.65024">
        <ele>291.42</ele>
        <time>2016-10-08T12:04:27Z</time>
      </trkpt>
      <trkpt lat="44.24591" lon="9.65026">
        <ele>289.97</ele>
        <time>2016-10-08T12:04:28Z</time>
      </trkpt>
      <trkpt lat="44.2456" lon="9.65035">
        <ele>287.57</ele>
        <time>2016-10-08T12:04:31Z</time>
      </trkpt>
      <trkpt lat="44.2455" lon="9.65043">
        <ele>287.09</ele>
        <time>2016-10-08T12:04:32Z</time>
      </trkpt>
      <trkpt lat="44.24542" lon="9.65051">
        <ele>285.65</ele>
        <time>2016-10-08T12:04:33Z</time>
      </trkpt>
      <trkpt lat="44.24521" lon="9.65076">
        <ele>284.21</ele>
        <time>2016-10-08T12:04:36Z</time>
      </trkpt>
      <trkpt lat="44.24516" lon="9.65086">
        <ele>283.73</ele>
        <time>2016-10-08T12:04:37Z</time>
      </trkpt>
      <trkpt lat="44.24514" lon="9.65097">
        <ele>283.25</ele>
        <time>2016-10-08T12:04:38Z</time>
      </trkpt>
      <trkpt lat="44.24513" lon="9.6511">
        <ele>282.28</ele>
        <time>2016-10-08T12:04:39Z</time>
      </trkpt>
      <trkpt lat="44.24513" lon="9.65123">
        <ele>281.8</ele>
        <time>2016-10-08T12:04:40Z</time>
      </trkpt>
      <trkpt lat="44.24514" lon="9.65137">
        <ele>281.8</ele>
        <time>2016-10-08T12:04:41Z</time>
      </trkpt>
      <trkpt lat="44.24516" lon="9.65164">
        <ele>280.36</ele>
        <time>2016-10-08T12:04:43Z</time>
      </trkpt>
      <trkpt lat="44.2452" lon="9.65232">
        <ele>276.04</ele>
        <time>2016-10-08T12:04:48Z</time>
      </trkpt>
      <trkpt lat="44.24519" lon="9.65244">
        <ele>274.59</ele>
        <time>2016-10-08T12:04:49Z</time>
      </trkpt>
      <trkpt lat="44.24516" lon="9.65254">
        <ele>274.11</ele>
        <time>2016-10-08T12:04:50Z</time>
      </trkpt>
      <trkpt lat="44.2451" lon="9.65264">
        <ele>273.15</ele>
        <time>2016-10-08T12:04:51Z</time>
      </trkpt>
      <trkpt lat="44.24503" lon="9.6527">
        <ele>272.67</ele>
        <time>2016-10-08T12:04:52Z</time>
      </trkpt>
      <trkpt lat="44.24494" lon="9.65275">
        <ele>272.19</ele>
        <time>2016-10-08T12:04:53Z</time>
      </trkpt>
      <trkpt lat="44.24484" lon="9.6528">
        <ele>271.71</ele>
        <time>2016-10-08T12:04:54Z</time>
      </trkpt>
      <trkpt lat="44.24454" lon="9.65295">
        <ele>268.35</ele>
        <time>2016-10-08T12:04:57Z</time>
      </trkpt>
      <trkpt lat="44.24424" lon="9.6531">
        <ele>264.98</ele>
        <time>2016-10-08T12:05:00Z</time>
      </trkpt>
      <trkpt lat="44.24407" lon="9.6532">
        <ele>264.5</ele>
        <time>2016-10-08T12:05:02Z</time>
      </trkpt>
      <trkpt lat="44.244" lon="9.65327">
        <ele>263.54</ele>
        <time>2016-10-08T12:05:03Z</time>
      </trkpt>
      <trkpt lat="44.24396" lon="9.65337">
        <ele>263.54</ele>
        <time>2016-10-08T12:05:04Z</time>
      </trkpt>
      <trkpt lat="44.24393" lon="9.65348">
        <ele>262.1</ele>
        <time>2016-10-08T12:05:05Z</time>
      </trkpt>
      <trkpt lat="44.24393" lon="9.65359">
        <ele>261.14</ele>
        <time>2016-10-08T12:05:06Z</time>
      </trkpt>
      <trkpt lat="44.24393" lon="9.6537">
        <ele>260.17</ele>
        <time>2016-10-08T12:05:07Z</time>
      </trkpt>
      <trkpt lat="44.24395" lon="9.65381">
        <ele>260.17</ele>
        <time>2016-10-08T12:05:08Z</time>
      </trkpt>
      <trkpt lat="44.24397" lon="9.65392">
        <ele>258.73</ele>
        <time>2016-10-08T12:05:09Z</time>
      </trkpt>
      <trkpt lat="44.24405" lon="9.65442">
        <ele>255.85</ele>
        <time>2016-10-08T12:05:13Z</time>
      </trkpt>
      <trkpt lat="44.24407" lon="9.65455">
        <ele>255.37</ele>
        <time>2016-10-08T12:05:14Z</time>
      </trkpt>
      <trkpt lat="44.24407" lon="9.65468">
        <ele>253.93</ele>
        <time>2016-10-08T12:05:15Z</time>
      </trkpt>
      <trkpt lat="44.24405" lon="9.6548">
        <ele>252.96</ele>
        <time>2016-10-08T12:05:16Z</time>
      </trkpt>
      <trkpt lat="44.24401" lon="9.65491">
        <ele>252.96</ele>
        <time>2016-10-08T12:05:17Z</time>
      </trkpt>
      <trkpt lat="44.24395" lon="9.655">
        <ele>251.52</ele>
        <time>2016-10-08T12:05:18Z</time>
      </trkpt>
      <trkpt lat="44.24387" lon="9.65507">
        <ele>251.52</ele>
        <time>2016-10-08T12:05:19Z</time>
      </trkpt>
      <trkpt lat="44.24378" lon="9.65513">
        <ele>250.08</ele>
        <time>2016-10-08T12:05:20Z</time>
      </trkpt>
      <trkpt lat="44.24336" lon="9.65545">
        <ele>247.68</ele>
        <time>2016-10-08T12:05:25Z</time>
      </trkpt>
      <trkpt lat="44.24329" lon="9.65553">
        <ele>246.72</ele>
        <time>2016-10-08T12:05:26Z</time>
      </trkpt>
      <trkpt lat="44.24323" lon="9.65563">
        <ele>245.75</ele>
        <time>2016-10-08T12:05:27Z</time>
      </trkpt>
      <trkpt lat="44.24319" lon="9.65574">
        <ele>245.27</ele>
        <time>2016-10-08T12:05:28Z</time>
      </trkpt>
      <trkpt lat="44.24316" lon="9.65585">
        <ele>244.31</ele>
        <time>2016-10-08T12:05:29Z</time>
      </trkpt>
      <trkpt lat="44.24313" lon="9.65597">
        <ele>244.31</ele>
        <time>2016-10-08T12:05:30Z</time>
      </trkpt>
      <trkpt lat="44.24312" lon="9.65609">
        <ele>243.35</ele>
        <time>2016-10-08T12:05:31Z</time>
      </trkpt>
      <trkpt lat="44.24313" lon="9.65622">
        <ele>241.91</ele>
        <time>2016-10-08T12:05:32Z</time>
      </trkpt>
      <trkpt lat="44.24316" lon="9.65634">
        <ele>240.95</ele>
        <time>2016-10-08T12:05:33Z</time>
      </trkpt>
      <trkpt lat="44.24321" lon="9.65647">
        <ele>240.95</ele>
        <time>2016-10-08T12:05:34Z</time>
      </trkpt>
      <trkpt lat="44.24325" lon="9.65659">
        <ele>240.47</ele>
        <time>2016-10-08T12:05:35Z</time>
      </trkpt>
      <trkpt lat="44.24337" lon="9.65694">
        <ele>237.1</ele>
        <time>2016-10-08T12:05:38Z</time>
      </trkpt>
      <trkpt lat="44.24337" lon="9.65706">
        <ele>235.66</ele>
        <time>2016-10-08T12:05:39Z</time>
      </trkpt>
      <trkpt lat="44.24335" lon="9.65717">
        <ele>236.14</ele>
        <time>2016-10-08T12:05:40Z</time>
      </trkpt>
      <trkpt lat="44.24331" lon="9.65728">
        <ele>235.18</ele>
        <time>2016-10-08T12:05:41Z</time>
      </trkpt>
      <trkpt lat="44.24325" lon="9.65737">
        <ele>234.22</ele>
        <time>2016-10-08T12:05:42Z</time>
      </trkpt>
      <trkpt lat="44.24318" lon="9.65744">
        <ele>232.78</ele>
        <time>2016-10-08T12:05:43Z</time>
      </trkpt>
      <trkpt lat="44.24312" lon="9.65753">
        <ele>233.26</ele>
        <time>2016-10-08T12:05:44Z</time>
      </trkpt>
      <trkpt lat="44.24307" lon="9.65764">
        <ele>231.81</ele>
        <time>2016-10-08T12:05:45Z</time>
      </trkpt>
      <trkpt lat="44.24304" lon="9.65776">
        <ele>230.85</ele>
        <time>2016-10-08T12:05:46Z</time>
      </trkpt>
      <trkpt lat="44.24302" lon="9.65789">
        <ele>229.41</ele>
        <time>2016-10-08T12:05:47Z</time>
      </trkpt>
      <trkpt lat="44.24301" lon="9.65803">
        <ele>228.93</ele>
        <time>2016-10-08T12:05:48Z</time>
      </trkpt>
      <trkpt lat="44.24297" lon="9.65843">
        <ele>226.05</ele>
        <time>2016-10-08T12:05:51Z</time>
      </trkpt>
      <trkpt lat="44.24294" lon="9.6587">
        <ele>225.09</ele>
        <time>2016-10-08T12:05:53Z</time>
      </trkpt>
      <trkpt lat="44.24292" lon="9.65909">
        <ele>223.16</ele>
        <time>2016-10-08T12:05:56Z</time>
      </trkpt>
      <trkpt lat="44.2429" lon="9.65921">
        <ele>221.72</ele>
        <time>2016-10-08T12:05:57Z</time>
      </trkpt>
      <trkpt lat="44.24287" lon="9.65932">
        <ele>221.24</ele>
        <time>2016-10-08T12:05:58Z</time>
      </trkpt>
      <trkpt lat="44.24282" lon="9.6594">
        <ele>220.76</ele>
        <time>2016-10-08T12:05:59Z</time>
      </trkpt>
      <trkpt lat="44.24274" lon="9.65946">
        <ele>219.8</ele>
        <time>2016-10-08T12:06:00Z</time>
      </trkpt>
      <trkpt lat="44.24266" lon="9.65949">
        <ele>218.84</ele>
        <time>2016-10-08T12:06:01Z</time>
      </trkpt>
      <trkpt lat="44.24256" lon="9.65953">
        <ele>217.88</ele>
        <time>2016-10-08T12:06:02Z</time>
      </trkpt>
      <trkpt lat="44.24247" lon="9.65959">
        <ele>216.91</ele>
        <time>2016-10-08T12:06:03Z</time>
      </trkpt>
      <trkpt lat="44.24239" lon="9.65967">
        <ele>216.91</ele>
        <time>2016-10-08T12:06:04Z</time>
      </trkpt>
      <trkpt lat="44.24231" lon="9.65976">
        <ele>214.99</ele>
        <time>2016-10-08T12:06:05Z</time>
      </trkpt>
      <trkpt lat="44.242" lon="9.66012">
        <ele>211.63</ele>
        <time>2016-10-08T12:06:09Z</time>
      </trkpt>
      <trkpt lat="44.24193" lon="9.66023">
        <ele>211.15</ele>
        <time>2016-10-08T12:06:10Z</time>
      </trkpt>
      <trkpt lat="44.24188" lon="9.66034">
        <ele>211.15</ele>
        <time>2016-10-08T12:06:11Z</time>
      </trkpt>
      <trkpt lat="44.24185" lon="9.66046">
        <ele>211.15</ele>
        <time>2016-10-08T12:06:12Z</time>
      </trkpt>
      <trkpt lat="44.24182" lon="9.66058">
        <ele>209.22</ele>
        <time>2016-10-08T12:06:13Z</time>
      </trkpt>
      <trkpt lat="44.24181" lon="9.66069">
        <ele>209.7</ele>
        <time>2016-10-08T12:06:14Z</time>
      </trkpt>
      <trkpt lat="44.24178" lon="9.66079">
        <ele>209.22</ele>
        <time>2016-10-08T12:06:15Z</time>
      </trkpt>
      <trkpt lat="44.24175" lon="9.66087">
        <ele>208.74</ele>
        <time>2016-10-08T12:06:16Z</time>
      </trkpt>
      <trkpt lat="44.24171" lon="9.66089">
        <ele>207.78</ele>
        <time>2016-10-08T12:06:17Z</time>
      </trkpt>
      <trkpt lat="44.24165" lon="9.66086">
        <ele>207.3</ele>
        <time>2016-10-08T12:06:18Z</time>
      </trkpt>
      <trkpt lat="44.24161" lon="9.6608">
        <ele>206.82</ele>
        <time>2016-10-08T12:06:19Z</time>
      </trkpt>
      <trkpt lat="44.24161" lon="9.66071">
        <ele>205.38</ele>
        <time>2016-10-08T12:06:20Z</time>
      </trkpt>
      <trkpt lat="44.24162" lon="9.66062">
        <ele>204.42</ele>
        <time>2016-10-08T12:06:21Z</time>
      </trkpt>
      <trkpt lat="44.24165" lon="9.66052">
        <ele>203.46</ele>
        <time>2016-10-08T12:06:22Z</time>
      </trkpt>
      <trkpt lat="44.24187" lon="9.66002">
        <ele>201.05</ele>
        <time>2016-10-08T12:06:28Z</time>
      </trkpt>
      <trkpt lat="44.2421" lon="9.65962">
        <ele>197.69</ele>
        <time>2016-10-08T12:06:37Z</time>
      </trkpt>
      <trkpt lat="44.24214" lon="9.65953">
        <ele>197.21</ele>
        <time>2016-10-08T12:06:39Z</time>
      </trkpt>
      <trkpt lat="44.24215" lon="9.65947">
        <ele>197.21</ele>
        <time>2016-10-08T12:06:40Z</time>
      </trkpt>
      <trkpt lat="44.24216" lon="9.65941">
        <ele>197.21</ele>
        <time>2016-10-08T12:06:41Z</time>
      </trkpt>
      <trkpt lat="44.24215" lon="9.65933">
        <ele>196.73</ele>
        <time>2016-10-08T12:06:42Z</time>
      </trkpt>
      <trkpt lat="44.24213" lon="9.65926">
        <ele>196.73</ele>
        <time>2016-10-08T12:06:43Z</time>
      </trkpt>
      <trkpt lat="44.24209" lon="9.65918">
        <ele>196.25</ele>
        <time>2016-10-08T12:06:44Z</time>
      </trkpt>
      <trkpt lat="44.24204" lon="9.65911">
        <ele>195.77</ele>
        <time>2016-10-08T12:06:45Z</time>
      </trkpt>
      <trkpt lat="44.24197" lon="9.65904">
        <ele>194.8</ele>
        <time>2016-10-08T12:06:46Z</time>
      </trkpt>
      <trkpt lat="44.24178" lon="9.6588">
        <ele>191.92</ele>
        <time>2016-10-08T12:06:49Z</time>
      </trkpt>
      <trkpt lat="44.24173" lon="9.65872">
        <ele>190.96</ele>
        <time>2016-10-08T12:06:50Z</time>
      </trkpt>
      <trkpt lat="44.24169" lon="9.65863">
        <ele>190.48</ele>
        <time>2016-10-08T12:06:51Z</time>
      </trkpt>
      <trkpt lat="44.24167" lon="9.65854">
        <ele>189.52</ele>
        <time>2016-10-08T12:06:52Z</time>
      </trkpt>
      <trkpt lat="44.24166" lon="9.65845">
        <ele>189.04</ele>
        <time>2016-10-08T12:06:53Z</time>
      </trkpt>
      <trkpt lat="44.24166" lon="9.65838">
        <ele>188.08</ele>
        <time>2016-10-08T12:06:54Z</time>
      </trkpt>
      <trkpt lat="44.24166" lon="9.65832">
        <ele>188.08</ele>
        <time>2016-10-08T12:06:55Z</time>
      </trkpt>
      <trkpt lat="44.24167" lon="9.65828">
        <ele>187.59</ele>
        <time>2016-10-08T12:06:56Z</time>
      </trkpt>
      <trkpt lat="44.24168" lon="9.65824">
        <ele>187.11</ele>
        <time>2016-10-08T12:06:57Z</time>
      </trkpt>
      <trkpt lat="44.24169" lon="9.65822">
        <ele>187.11</ele>
        <time>2016-10-08T12:06:58Z</time>
      </trkpt>
      <trkpt lat="44.24172" lon="9.65822">
        <ele>187.11</ele>
        <time>2016-10-08T12:07:11Z</time>
      </trkpt>
      <trkpt lat="44.24174" lon="9.65797">
        <ele>186.63</ele>
        <time>2016-10-08T12:07:26Z</time>
      </trkpt>
      <trkpt lat="44.2417" lon="9.65787">
        <ele>186.15</ele>
        <time>2016-10-08T12:07:28Z</time>
      </trkpt>
      <trkpt lat="44.24167" lon="9.65782">
        <ele>185.67</ele>
        <time>2016-10-08T12:07:29Z</time>
      </trkpt>
      <trkpt lat="44.24163" lon="9.65777">
        <ele>185.67</ele>
        <time>2016-10-08T12:07:30Z</time>
      </trkpt>
      <trkpt lat="44.24158" lon="9.65775">
        <ele>185.19</ele>
        <time>2016-10-08T12:07:31Z</time>
      </trkpt>
      <trkpt lat="44.24152" lon="9.65774">
        <ele>184.23</ele>
        <time>2016-10-08T12:07:32Z</time>
      </trkpt>
      <trkpt lat="44.24146" lon="9.65776">
        <ele>183.75</ele>
        <time>2016-10-08T12:07:33Z</time>
      </trkpt>
      <trkpt lat="44.2414" lon="9.65779">
        <ele>183.27</ele>
        <time>2016-10-08T12:07:34Z</time>
      </trkpt>
      <trkpt lat="44.24113" lon="9.6579">
        <ele>180.38</ele>
        <time>2016-10-08T12:07:38Z</time>
      </trkpt>
      <trkpt lat="44.24089" lon="9.65794">
        <ele>177.98</ele>
        <time>2016-10-08T12:07:41Z</time>
      </trkpt>
      <trkpt lat="44.24081" lon="9.65793">
        <ele>177.5</ele>
        <time>2016-10-08T12:07:42Z</time>
      </trkpt>
      <trkpt lat="44.24073" lon="9.6579">
        <ele>176.54</ele>
        <time>2016-10-08T12:07:43Z</time>
      </trkpt>
      <trkpt lat="44.24066" lon="9.65787">
        <ele>176.06</ele>
        <time>2016-10-08T12:07:44Z</time>
      </trkpt>
      <trkpt lat="44.24059" lon="9.65783">
        <ele>176.06</ele>
        <time>2016-10-08T12:07:45Z</time>
      </trkpt>
      <trkpt lat="44.24028" lon="9.65764">
        <ele>174.62</ele>
        <time>2016-10-08T12:07:50Z</time>
      </trkpt>
      <trkpt lat="44.24022" lon="9.6576">
        <ele>175.1</ele>
        <time>2016-10-08T12:07:51Z</time>
      </trkpt>
      <trkpt lat="44.24017" lon="9.65754">
        <ele>174.62</ele>
        <time>2016-10-08T12:07:52Z</time>
      </trkpt>
      <trkpt lat="44.24013" lon="9.65748">
        <ele>174.14</ele>
        <time>2016-10-08T12:07:53Z</time>
      </trkpt>
      <trkpt lat="44.24009" lon="9.65742">
        <ele>174.62</ele>
        <time>2016-10-08T12:07:54Z</time>
      </trkpt>
      <trkpt lat="44.23975" lon="9.65688">
        <ele>174.62</ele>
        <time>2016-10-08T12:08:04Z</time>
      </trkpt>
      <trkpt lat="44.23949" lon="9.65647">
        <ele>174.62</ele>
        <time>2016-10-08T12:08:17Z</time>
      </trkpt>
      <trkpt lat="44.23919" lon="9.656">
        <ele>175.58</ele>
        <time>2016-10-08T12:08:33Z</time>
      </trkpt>
      <trkpt lat="44.23905" lon="9.65577">
        <ele>177.5</ele>
        <time>2016-10-08T12:08:47Z</time>
      </trkpt>
      <trkpt lat="44.23904" lon="9.65575">
        <ele>177.98</ele>
        <time>2016-10-08T12:08:48Z</time>
      </trkpt>
      <trkpt lat="44.23895" lon="9.65555">
        <ele>178.94</ele>
        <time>2016-10-08T12:09:05Z</time>
      </trkpt>
      <trkpt lat="44.23894" lon="9.65553">
        <ele>178.46</ele>
        <time>2016-10-08T12:09:32Z</time>
      </trkpt>
      <trkpt lat="44.23894" lon="9.65556">
        <ele>179.42</ele>
        <time>2016-10-08T12:10:04Z</time>
      </trkpt>
      <trkpt lat="44.23894" lon="9.65554">
        <ele>178.94</ele>
        <time>2016-10-08T12:10:36Z</time>
      </trkpt>
      <trkpt lat="44.23894" lon="9.65556">
        <ele>182.31</ele>
        <time>2016-10-08T12:10:56Z</time>
      </trkpt>
      <trkpt lat="44.23894" lon="9.65556">
        <ele>178.94</ele>
        <time>2016-10-08T12:10:57Z</time>
      </trkpt>
      <trkpt lat="44.23897" lon="9.65555">
        <ele>178.46</ele>
        <time>2016-10-08T12:11:20Z</time>
      </trkpt>
      <trkpt lat="44.23897" lon="9.65555">
        <ele>178.94</ele>
        <time>2016-10-08T12:11:45Z</time>
      </trkpt>
      <trkpt lat="44.23897" lon="9.65556">
        <ele>178.46</ele>
        <time>2016-10-08T12:12:10Z</time>
      </trkpt>
      <trkpt lat="44.23895" lon="9.65551">
        <ele>178.46</ele>
        <time>2016-10-08T12:12:35Z</time>
      </trkpt>
      <trkpt lat="44.23893" lon="9.65555">
        <ele>178.46</ele>
        <time>2016-10-08T12:13:08Z</time>
      </trkpt>
      <trkpt lat="44.23894" lon="9.65555">
        <ele>178.46</ele>
        <time>2016-10-08T12:13:37Z</time>
      </trkpt>
      <trkpt lat="44.23894" lon="9.65554">
        <ele>177.98</ele>
        <time>2016-10-08T12:13:51Z</time>
      </trkpt>
      <trkpt lat="44.23891" lon="9.65555">
        <ele>178.46</ele>
        <time>2016-10-08T12:13:54Z</time>
      </trkpt>
      <trkpt lat="44.23891" lon="9.65557">
        <ele>178.46</ele>
        <time>2016-10-08T12:13:55Z</time>
      </trkpt>
      <trkpt lat="44.2389" lon="9.65558">
        <ele>178.46</ele>
        <time>2016-10-08T12:13:56Z</time>
      </trkpt>
      <trkpt lat="44.23891" lon="9.65564">
        <ele>177.5</ele>
        <time>2016-10-08T12:14:06Z</time>
      </trkpt>
      <trkpt lat="44.23893" lon="9.65566">
        <ele>177.02</ele>
        <time>2016-10-08T12:14:07Z</time>
      </trkpt>
      <trkpt lat="44.23894" lon="9.65568">
        <ele>177.02</ele>
        <time>2016-10-08T12:14:08Z</time>
      </trkpt>
      <trkpt lat="44.23896" lon="9.65572">
        <ele>177.02</ele>
        <time>2016-10-08T12:14:09Z</time>
      </trkpt>
      <trkpt lat="44.23898" lon="9.65576">
        <ele>176.06</ele>
        <time>2016-10-08T12:14:10Z</time>
      </trkpt>
      <trkpt lat="44.23926" lon="9.65622">
        <ele>173.66</ele>
        <time>2016-10-08T12:14:17Z</time>
      </trkpt>
      <trkpt lat="44.2397" lon="9.65691">
        <ele>173.17</ele>
        <time>2016-10-08T12:14:29Z</time>
      </trkpt>
      <trkpt lat="44.23995" lon="9.65732">
        <ele>173.66</ele>
        <time>2016-10-08T12:14:44Z</time>
      </trkpt>
      <trkpt lat="44.24016" lon="9.65763">
        <ele>173.17</ele>
        <time>2016-10-08T12:14:54Z</time>
      </trkpt>
      <trkpt lat="44.24026" lon="9.65778">
        <ele>173.17</ele>
        <time>2016-10-08T12:15:05Z</time>
      </trkpt>
      <trkpt lat="44.24026" lon="9.65778">
        <ele>173.17</ele>
        <time>2016-10-08T12:15:35Z</time>
      </trkpt>
      <trkpt lat="44.24027" lon="9.6578">
        <ele>173.66</ele>
        <time>2016-10-08T12:15:51Z</time>
      </trkpt>
      <trkpt lat="44.2403" lon="9.65783">
        <ele>173.17</ele>
        <time>2016-10-08T12:15:54Z</time>
      </trkpt>
      <trkpt lat="44.24032" lon="9.65784">
        <ele>173.17</ele>
        <time>2016-10-08T12:15:55Z</time>
      </trkpt>
      <trkpt lat="44.24069" lon="9.65809">
        <ele>171.25</ele>
        <time>2016-10-08T12:16:07Z</time>
      </trkpt>
      <trkpt lat="44.24088" lon="9.6582">
        <ele>170.29</ele>
        <time>2016-10-08T12:16:11Z</time>
      </trkpt>
      <trkpt lat="44.24098" lon="9.65826">
        <ele>169.81</ele>
        <time>2016-10-08T12:16:13Z</time>
      </trkpt>
      <trkpt lat="44.24104" lon="9.65831">
        <ele>169.33</ele>
        <time>2016-10-08T12:16:14Z</time>
      </trkpt>
      <trkpt lat="44.24108" lon="9.65836">
        <ele>168.37</ele>
        <time>2016-10-08T12:16:15Z</time>
      </trkpt>
      <trkpt lat="44.24111" lon="9.65844">
        <ele>169.33</ele>
        <time>2016-10-08T12:16:16Z</time>
      </trkpt>
      <trkpt lat="44.24112" lon="9.65853">
        <ele>168.85</ele>
        <time>2016-10-08T12:16:17Z</time>
      </trkpt>
      <trkpt lat="44.24113" lon="9.65862">
        <ele>168.37</ele>
        <time>2016-10-08T12:16:18Z</time>
      </trkpt>
      <trkpt lat="44.24112" lon="9.65871">
        <ele>168.37</ele>
        <time>2016-10-08T12:16:19Z</time>
      </trkpt>
      <trkpt lat="44.24105" lon="9.65992">
        <ele>165.48</ele>
        <time>2016-10-08T12:16:31Z</time>
      </trkpt>
      <trkpt lat="44.24102" lon="9.66056">
        <ele>163.08</ele>
        <time>2016-10-08T12:16:37Z</time>
      </trkpt>
      <trkpt lat="44.24101" lon="9.66066">
        <ele>163.08</ele>
        <time>2016-10-08T12:16:38Z</time>
      </trkpt>
      <trkpt lat="44.24099" lon="9.66077">
        <ele>163.08</ele>
        <time>2016-10-08T12:16:39Z</time>
      </trkpt>
      <trkpt lat="44.24095" lon="9.66087">
        <ele>162.6</ele>
        <time>2016-10-08T12:16:40Z</time>
      </trkpt>
      <trkpt lat="44.24092" lon="9.66096">
        <ele>162.6</ele>
        <time>2016-10-08T12:16:41Z</time>
      </trkpt>
      <trkpt lat="44.24088" lon="9.66105">
        <ele>162.12</ele>
        <time>2016-10-08T12:16:42Z</time>
      </trkpt>
      <trkpt lat="44.24073" lon="9.66141">
        <ele>162.12</ele>
        <time>2016-10-08T12:16:46Z</time>
      </trkpt>
      <trkpt lat="44.24071" lon="9.6615">
        <ele>161.64</ele>
        <time>2016-10-08T12:16:47Z</time>
      </trkpt>
      <trkpt lat="44.2407" lon="9.6616">
        <ele>162.12</ele>
        <time>2016-10-08T12:16:48Z</time>
      </trkpt>
      <trkpt lat="44.2407" lon="9.6617">
        <ele>161.64</ele>
        <time>2016-10-08T12:16:49Z</time>
      </trkpt>
      <trkpt lat="44.24071" lon="9.66179">
        <ele>162.12</ele>
        <time>2016-10-08T12:16:50Z</time>
      </trkpt>
      <trkpt lat="44.24073" lon="9.66189">
        <ele>161.64</ele>
        <time>2016-10-08T12:16:51Z</time>
      </trkpt>
      <trkpt lat="44.24075" lon="9.66198">
        <ele>161.64</ele>
        <time>2016-10-08T12:16:52Z</time>
      </trkpt>
      <trkpt lat="44.24082" lon="9.66224">
        <ele>161.64</ele>
        <time>2016-10-08T12:16:55Z</time>
      </trkpt>
      <trkpt lat="44.24085" lon="9.66242">
        <ele>161.16</ele>
        <time>2016-10-08T12:16:57Z</time>
      </trkpt>
      <trkpt lat="44.24087" lon="9.6633">
        <ele>161.16</ele>
        <time>2016-10-08T12:17:07Z</time>
      </trkpt>
      <trkpt lat="44.24083" lon="9.66464">
        <ele>158.27</ele>
        <time>2016-10-08T12:17:24Z</time>
      </trkpt>
      <trkpt lat="44.24081" lon="9.6651">
        <ele>158.75</ele>
        <time>2016-10-08T12:17:30Z</time>
      </trkpt>
      <trkpt lat="44.24082" lon="9.66517">
        <ele>158.75</ele>
        <time>2016-10-08T12:17:31Z</time>
      </trkpt>
      <trkpt lat="44.24088" lon="9.66564">
        <ele>158.75</ele>
        <time>2016-10-08T12:17:37Z</time>
      </trkpt>
      <trkpt lat="44.24089" lon="9.66571">
        <ele>158.27</ele>
        <time>2016-10-08T12:17:38Z</time>
      </trkpt>
      <trkpt lat="44.24091" lon="9.66578">
        <ele>158.27</ele>
        <time>2016-10-08T12:17:39Z</time>
      </trkpt>
      <trkpt lat="44.24094" lon="9.66585">
        <ele>158.27</ele>
        <time>2016-10-08T12:17:40Z</time>
      </trkpt>
      <trkpt lat="44.24097" lon="9.66591">
        <ele>157.79</ele>
        <time>2016-10-08T12:17:41Z</time>
      </trkpt>
      <trkpt lat="44.24101" lon="9.66598">
        <ele>159.24</ele>
        <time>2016-10-08T12:17:42Z</time>
      </trkpt>
      <trkpt lat="44.24105" lon="9.66603">
        <ele>159.24</ele>
        <time>2016-10-08T12:17:43Z</time>
      </trkpt>
      <trkpt lat="44.24109" lon="9.66608">
        <ele>159.24</ele>
        <time>2016-10-08T12:17:44Z</time>
      </trkpt>
      <trkpt lat="44.24186" lon="9.6668">
        <ele>156.83</ele>
        <time>2016-10-08T12:17:59Z</time>
      </trkpt>
      <trkpt lat="44.24276" lon="9.66723">
        <ele>155.39</ele>
        <time>2016-10-08T12:18:14Z</time>
      </trkpt>
      <trkpt lat="44.24282" lon="9.66728">
        <ele>155.39</ele>
        <time>2016-10-08T12:18:15Z</time>
      </trkpt>
      <trkpt lat="44.24288" lon="9.66733">
        <ele>154.43</ele>
        <time>2016-10-08T12:18:16Z</time>
      </trkpt>
      <trkpt lat="44.24293" lon="9.66739">
        <ele>154.91</ele>
        <time>2016-10-08T12:18:17Z</time>
      </trkpt>
      <trkpt lat="44.24297" lon="9.66747">
        <ele>154.43</ele>
        <time>2016-10-08T12:18:18Z</time>
      </trkpt>
      <trkpt lat="44.243" lon="9.66755">
        <ele>155.39</ele>
        <time>2016-10-08T12:18:19Z</time>
      </trkpt>
      <trkpt lat="44.24303" lon="9.66763">
        <ele>154.43</ele>
        <time>2016-10-08T12:18:20Z</time>
      </trkpt>
      <trkpt lat="44.24305" lon="9.66772">
        <ele>154.43</ele>
        <time>2016-10-08T12:18:21Z</time>
      </trkpt>
      <trkpt lat="44.24307" lon="9.66782">
        <ele>153.95</ele>
        <time>2016-10-08T12:18:22Z</time>
      </trkpt>
      <trkpt lat="44.24308" lon="9.66791">
        <ele>153.95</ele>
        <time>2016-10-08T12:18:23Z</time>
      </trkpt>
      <trkpt lat="44.24318" lon="9.66847">
        <ele>153.95</ele>
        <time>2016-10-08T12:18:29Z</time>
      </trkpt>
      <trkpt lat="44.24319" lon="9.66856">
        <ele>153.95</ele>
        <time>2016-10-08T12:18:30Z</time>
      </trkpt>
      <trkpt lat="44.24318" lon="9.66865">
        <ele>153.47</ele>
        <time>2016-10-08T12:18:31Z</time>
      </trkpt>
      <trkpt lat="44.24316" lon="9.66874">
        <ele>153.47</ele>
        <time>2016-10-08T12:18:32Z</time>
      </trkpt>
      <trkpt lat="44.24313" lon="9.66883">
        <ele>153.47</ele>
        <time>2016-10-08T12:18:33Z</time>
      </trkpt>
      <trkpt lat="44.2431" lon="9.66891">
        <ele>152.51</ele>
        <time>2016-10-08T12:18:34Z</time>
      </trkpt>
      <trkpt lat="44.24305" lon="9.66898">
        <ele>152.99</ele>
        <time>2016-10-08T12:18:35Z</time>
      </trkpt>
      <trkpt lat="44.24301" lon="9.66903">
        <ele>153.47</ele>
        <time>2016-10-08T12:18:36Z</time>
      </trkpt>
      <trkpt lat="44.24295" lon="9.66908">
        <ele>152.99</ele>
        <time>2016-10-08T12:18:37Z</time>
      </trkpt>
      <trkpt lat="44.2429" lon="9.66912">
        <ele>153.47</ele>
        <time>2016-10-08T12:18:38Z</time>
      </trkpt>
      <trkpt lat="44.24284" lon="9.66915">
        <ele>153.47</ele>
        <time>2016-10-08T12:18:39Z</time>
      </trkpt>
      <trkpt lat="44.24278" lon="9.66918">
        <ele>153.95</ele>
        <time>2016-10-08T12:18:40Z</time>
      </trkpt>
      <trkpt lat="44.24267" lon="9.66925">
        <ele>152.99</ele>
        <time>2016-10-08T12:18:42Z</time>
      </trkpt>
      <trkpt lat="44.24262" lon="9.6693">
        <ele>153.47</ele>
        <time>2016-10-08T12:18:43Z</time>
      </trkpt>
      <trkpt lat="44.24196" lon="9.67">
        <ele>152.51</ele>
        <time>2016-10-08T12:18:56Z</time>
      </trkpt>
      <trkpt lat="44.24192" lon="9.67007">
        <ele>152.51</ele>
        <time>2016-10-08T12:18:57Z</time>
      </trkpt>
      <trkpt lat="44.24189" lon="9.67015">
        <ele>152.03</ele>
        <time>2016-10-08T12:18:58Z</time>
      </trkpt>
      <trkpt lat="44.24187" lon="9.67024">
        <ele>152.03</ele>
        <time>2016-10-08T12:18:59Z</time>
      </trkpt>
      <trkpt lat="44.24185" lon="9.67033">
        <ele>152.03</ele>
        <time>2016-10-08T12:19:00Z</time>
      </trkpt>
      <trkpt lat="44.24184" lon="9.67042">
        <ele>152.03</ele>
        <time>2016-10-08T12:19:01Z</time>
      </trkpt>
      <trkpt lat="44.24183" lon="9.67052">
        <ele>151.54</ele>
        <time>2016-10-08T12:19:02Z</time>
      </trkpt>
      <trkpt lat="44.24174" lon="9.67223">
        <ele>149.14</ele>
        <time>2016-10-08T12:19:20Z</time>
      </trkpt>
      <trkpt lat="44.24176" lon="9.67289">
        <ele>148.66</ele>
        <time>2016-10-08T12:19:27Z</time>
      </trkpt>
      <trkpt lat="44.24175" lon="9.67298">
        <ele>149.14</ele>
        <time>2016-10-08T12:19:28Z</time>
      </trkpt>
      <trkpt lat="44.24174" lon="9.67307">
        <ele>148.66</ele>
        <time>2016-10-08T12:19:29Z</time>
      </trkpt>
      <trkpt lat="44.24172" lon="9.67316">
        <ele>148.18</ele>
        <time>2016-10-08T12:19:30Z</time>
      </trkpt>
      <trkpt lat="44.24169" lon="9.67324">
        <ele>148.18</ele>
        <time>2016-10-08T12:19:31Z</time>
      </trkpt>
      <trkpt lat="44.24137" lon="9.67429">
        <ele>148.18</ele>
        <time>2016-10-08T12:19:44Z</time>
      </trkpt>
      <trkpt lat="44.24134" lon="9.67543">
        <ele>147.7</ele>
        <time>2016-10-08T12:19:57Z</time>
      </trkpt>
      <trkpt lat="44.24108" lon="9.67671">
        <ele>147.7</ele>
        <time>2016-10-08T12:20:12Z</time>
      </trkpt>
      <trkpt lat="44.24107" lon="9.67715">
        <ele>146.74</ele>
        <time>2016-10-08T12:20:17Z</time>
      </trkpt>
      <trkpt lat="44.24107" lon="9.67723">
        <ele>146.74</ele>
        <time>2016-10-08T12:20:18Z</time>
      </trkpt>
      <trkpt lat="44.24109" lon="9.67732">
        <ele>146.74</ele>
        <time>2016-10-08T12:20:19Z</time>
      </trkpt>
      <trkpt lat="44.24111" lon="9.67741">
        <ele>146.74</ele>
        <time>2016-10-08T12:20:20Z</time>
      </trkpt>
      <trkpt lat="44.24114" lon="9.67748">
        <ele>147.22</ele>
        <time>2016-10-08T12:20:21Z</time>
      </trkpt>
      <trkpt lat="44.24118" lon="9.67755">
        <ele>146.74</ele>
        <time>2016-10-08T12:20:22Z</time>
      </trkpt>
      <trkpt lat="44.24123" lon="9.6776">
        <ele>147.22</ele>
        <time>2016-10-08T12:20:23Z</time>
      </trkpt>
      <trkpt lat="44.24129" lon="9.67764">
        <ele>146.74</ele>
        <time>2016-10-08T12:20:24Z</time>
      </trkpt>
      <trkpt lat="44.24135" lon="9.67767">
        <ele>146.74</ele>
        <time>2016-10-08T12:20:25Z</time>
      </trkpt>
      <trkpt lat="44.24142" lon="9.67768">
        <ele>146.26</ele>
        <time>2016-10-08T12:20:26Z</time>
      </trkpt>
      <trkpt lat="44.24148" lon="9.67768">
        <ele>146.26</ele>
        <time>2016-10-08T12:20:27Z</time>
      </trkpt>
      <trkpt lat="44.24155" lon="9.67766">
        <ele>145.78</ele>
        <time>2016-10-08T12:20:28Z</time>
      </trkpt>
      <trkpt lat="44.24161" lon="9.67763">
        <ele>145.78</ele>
        <time>2016-10-08T12:20:29Z</time>
      </trkpt>
      <trkpt lat="44.24168" lon="9.6776">
        <ele>145.78</ele>
        <time>2016-10-08T12:20:30Z</time>
      </trkpt>
      <trkpt lat="44.24174" lon="9.67755">
        <ele>145.78</ele>
        <time>2016-10-08T12:20:31Z</time>
      </trkpt>
      <trkpt lat="44.24206" lon="9.67736">
        <ele>144.82</ele>
        <time>2016-10-08T12:20:36Z</time>
      </trkpt>
      <trkpt lat="44.24212" lon="9.67733">
        <ele>144.82</ele>
        <time>2016-10-08T12:20:37Z</time>
      </trkpt>
      <trkpt lat="44.24219" lon="9.67731">
        <ele>145.3</ele>
        <time>2016-10-08T12:20:38Z</time>
      </trkpt>
      <trkpt lat="44.24226" lon="9.67731">
        <ele>144.82</ele>
        <time>2016-10-08T12:20:39Z</time>
      </trkpt>
      <trkpt lat="44.24232" lon="9.67732">
        <ele>144.34</ele>
        <time>2016-10-08T12:20:40Z</time>
      </trkpt>
      <trkpt lat="44.24238" lon="9.67733">
        <ele>144.82</ele>
        <time>2016-10-08T12:20:41Z</time>
      </trkpt>
      <trkpt lat="44.24245" lon="9.67735">
        <ele>145.3</ele>
        <time>2016-10-08T12:20:42Z</time>
      </trkpt>
      <trkpt lat="44.24251" lon="9.67739">
        <ele>144.34</ele>
        <time>2016-10-08T12:20:43Z</time>
      </trkpt>
      <trkpt lat="44.24256" lon="9.67742">
        <ele>144.34</ele>
        <time>2016-10-08T12:20:44Z</time>
      </trkpt>
      <trkpt lat="44.24325" lon="9.67789">
        <ele>144.82</ele>
        <time>2016-10-08T12:20:57Z</time>
      </trkpt>
      <trkpt lat="44.24368" lon="9.67847">
        <ele>143.85</ele>
        <time>2016-10-08T12:21:07Z</time>
      </trkpt>
      <trkpt lat="44.2437" lon="9.67855">
        <ele>143.85</ele>
        <time>2016-10-08T12:21:08Z</time>
      </trkpt>
      <trkpt lat="44.24373" lon="9.67863">
        <ele>143.37</ele>
        <time>2016-10-08T12:21:09Z</time>
      </trkpt>
      <trkpt lat="44.24404" lon="9.67999">
        <ele>144.34</ele>
        <time>2016-10-08T12:21:26Z</time>
      </trkpt>
      <trkpt lat="44.24406" lon="9.68007">
        <ele>143.37</ele>
        <time>2016-10-08T12:21:27Z</time>
      </trkpt>
      <trkpt lat="44.24409" lon="9.68015">
        <ele>143.37</ele>
        <time>2016-10-08T12:21:28Z</time>
      </trkpt>
      <trkpt lat="44.24427" lon="9.68058">
        <ele>141.93</ele>
        <time>2016-10-08T12:21:34Z</time>
      </trkpt>
      <trkpt lat="44.2443" lon="9.68064">
        <ele>141.93</ele>
        <time>2016-10-08T12:21:35Z</time>
      </trkpt>
      <trkpt lat="44.24494" lon="9.68124">
        <ele>142.89</ele>
        <time>2016-10-08T12:21:48Z</time>
      </trkpt>
      <trkpt lat="44.24544" lon="9.68173">
        <ele>141.45</ele>
        <time>2016-10-08T12:21:58Z</time>
      </trkpt>
      <trkpt lat="44.24548" lon="9.6818">
        <ele>140.97</ele>
        <time>2016-10-08T12:21:59Z</time>
      </trkpt>
      <trkpt lat="44.24551" lon="9.68187">
        <ele>141.45</ele>
        <time>2016-10-08T12:22:00Z</time>
      </trkpt>
      <trkpt lat="44.24554" lon="9.68195">
        <ele>141.93</ele>
        <time>2016-10-08T12:22:01Z</time>
      </trkpt>
      <trkpt lat="44.24557" lon="9.68202">
        <ele>141.93</ele>
        <time>2016-10-08T12:22:02Z</time>
      </trkpt>
      <trkpt lat="44.24581" lon="9.68295">
        <ele>141.93</ele>
        <time>2016-10-08T12:22:16Z</time>
      </trkpt>
      <trkpt lat="44.24584" lon="9.68308">
        <ele>141.45</ele>
        <time>2016-10-08T12:22:27Z</time>
      </trkpt>
      <trkpt lat="44.24577" lon="9.68311">
        <ele>139.05</ele>
        <time>2016-10-08T12:23:06Z</time>
      </trkpt>
      <trkpt lat="44.24577" lon="9.68311">
        <ele>142.89</ele>
        <time>2016-10-08T12:23:07Z</time>
      </trkpt>
      <trkpt lat="44.24577" lon="9.68311">
        <ele>138.57</ele>
        <time>2016-10-08T12:23:14Z</time>
      </trkpt>
      <trkpt lat="44.24577" lon="9.68311">
        <ele>142.41</ele>
        <time>2016-10-08T12:23:15Z</time>
      </trkpt>
      <trkpt lat="44.24576" lon="9.68311">
        <ele>139.05</ele>
        <time>2016-10-08T12:23:21Z</time>
      </trkpt>
      <trkpt lat="44.24576" lon="9.68311">
        <ele>139.05</ele>
        <time>2016-10-08T12:23:22Z</time>
      </trkpt>
      <trkpt lat="44.24576" lon="9.68311">
        <ele>142.41</ele>
        <time>2016-10-08T12:23:23Z</time>
      </trkpt>
      <trkpt lat="44.24576" lon="9.68311">
        <ele>140.97</ele>
        <time>2016-10-08T12:23:24Z</time>
      </trkpt>
      <trkpt lat="44.24576" lon="9.68312">
        <ele>142.41</ele>
        <time>2016-10-08T12:23:52Z</time>
      </trkpt>
      <trkpt lat="44.24577" lon="9.68314">
        <ele>141.93</ele>
        <time>2016-10-08T12:23:53Z</time>
      </trkpt>
      <trkpt lat="44.24587" lon="9.68369">
        <ele>141.45</ele>
        <time>2016-10-08T12:24:05Z</time>
      </trkpt>
      <trkpt lat="44.246" lon="9.68495">
        <ele>140.01</ele>
        <time>2016-10-08T12:24:21Z</time>
      </trkpt>
      <trkpt lat="44.24613" lon="9.68642">
        <ele>140.01</ele>
        <time>2016-10-08T12:24:39Z</time>
      </trkpt>
      <trkpt lat="44.24643" lon="9.68752">
        <ele>139.53</ele>
        <time>2016-10-08T12:24:53Z</time>
      </trkpt>
      <trkpt lat="44.24704" lon="9.68836">
        <ele>138.57</ele>
        <time>2016-10-08T12:25:07Z</time>
      </trkpt>
      <trkpt lat="44.24718" lon="9.68853">
        <ele>138.09</ele>
        <time>2016-10-08T12:25:10Z</time>
      </trkpt>
      <trkpt lat="44.24721" lon="9.68859">
        <ele>138.57</ele>
        <time>2016-10-08T12:25:11Z</time>
      </trkpt>
      <trkpt lat="44.24724" lon="9.68867">
        <ele>138.09</ele>
        <time>2016-10-08T12:25:12Z</time>
      </trkpt>
      <trkpt lat="44.2474" lon="9.68924">
        <ele>138.09</ele>
        <time>2016-10-08T12:25:19Z</time>
      </trkpt>
      <trkpt lat="44.24741" lon="9.68932">
        <ele>138.09</ele>
        <time>2016-10-08T12:25:20Z</time>
      </trkpt>
      <trkpt lat="44.24742" lon="9.68941">
        <ele>138.09</ele>
        <time>2016-10-08T12:25:21Z</time>
      </trkpt>
      <trkpt lat="44.24742" lon="9.68949">
        <ele>138.09</ele>
        <time>2016-10-08T12:25:22Z</time>
      </trkpt>
      <trkpt lat="44.24742" lon="9.68958">
        <ele>138.09</ele>
        <time>2016-10-08T12:25:23Z</time>
      </trkpt>
      <trkpt lat="44.24742" lon="9.68966">
        <ele>138.09</ele>
        <time>2016-10-08T12:25:24Z</time>
      </trkpt>
      <trkpt lat="44.24753" lon="9.69067">
        <ele>137.61</ele>
        <time>2016-10-08T12:25:36Z</time>
      </trkpt>
      <trkpt lat="44.24754" lon="9.6908">
        <ele>137.61</ele>
        <time>2016-10-08T12:25:43Z</time>
      </trkpt>
      <trkpt lat="44.24752" lon="9.69083">
        <ele>137.13</ele>
        <time>2016-10-08T12:26:17Z</time>
      </trkpt>
      <trkpt lat="44.24751" lon="9.69103">
        <ele>136.64</ele>
        <time>2016-10-08T12:26:33Z</time>
      </trkpt>
      <trkpt lat="44.24744" lon="9.69125">
        <ele>137.13</ele>
        <time>2016-10-08T12:26:38Z</time>
      </trkpt>
      <trkpt lat="44.24742" lon="9.6913">
        <ele>136.64</ele>
        <time>2016-10-08T12:26:39Z</time>
      </trkpt>
      <trkpt lat="44.24739" lon="9.69134">
        <ele>136.64</ele>
        <time>2016-10-08T12:26:40Z</time>
      </trkpt>
      <trkpt lat="44.2469" lon="9.69218">
        <ele>136.64</ele>
        <time>2016-10-08T12:26:56Z</time>
      </trkpt>
      <trkpt lat="44.24637" lon="9.69307">
        <ele>135.68</ele>
        <time>2016-10-08T12:27:11Z</time>
      </trkpt>
      <trkpt lat="44.24586" lon="9.6939">
        <ele>136.16</ele>
        <time>2016-10-08T12:27:24Z</time>
      </trkpt>
      <trkpt lat="44.2452" lon="9.69437">
        <ele>135.68</ele>
        <time>2016-10-08T12:27:36Z</time>
      </trkpt>
      <trkpt lat="44.24416" lon="9.69498">
        <ele>134.24</ele>
        <time>2016-10-08T12:27:54Z</time>
      </trkpt>
      <trkpt lat="44.24343" lon="9.69543">
        <ele>134.72</ele>
        <time>2016-10-08T12:28:07Z</time>
      </trkpt>
      <trkpt lat="44.24333" lon="9.69552">
        <ele>134.24</ele>
        <time>2016-10-08T12:28:09Z</time>
      </trkpt>
      <trkpt lat="44.24329" lon="9.69558">
        <ele>134.72</ele>
        <time>2016-10-08T12:28:10Z</time>
      </trkpt>
      <trkpt lat="44.24325" lon="9.69564">
        <ele>134.24</ele>
        <time>2016-10-08T12:28:11Z</time>
      </trkpt>
      <trkpt lat="44.24321" lon="9.6957">
        <ele>134.24</ele>
        <time>2016-10-08T12:28:12Z</time>
      </trkpt>
      <trkpt lat="44.24319" lon="9.69577">
        <ele>135.2</ele>
        <time>2016-10-08T12:28:13Z</time>
      </trkpt>
      <trkpt lat="44.24317" lon="9.69584">
        <ele>134.72</ele>
        <time>2016-10-08T12:28:14Z</time>
      </trkpt>
      <trkpt lat="44.24315" lon="9.69592">
        <ele>134.72</ele>
        <time>2016-10-08T12:28:15Z</time>
      </trkpt>
      <trkpt lat="44.24314" lon="9.696">
        <ele>135.2</ele>
        <time>2016-10-08T12:28:16Z</time>
      </trkpt>
      <trkpt lat="44.24314" lon="9.69607">
        <ele>135.2</ele>
        <time>2016-10-08T12:28:17Z</time>
      </trkpt>
      <trkpt lat="44.24314" lon="9.69615">
        <ele>134.72</ele>
        <time>2016-10-08T12:28:18Z</time>
      </trkpt>
      <trkpt lat="44.24315" lon="9.69623">
        <ele>135.68</ele>
        <time>2016-10-08T12:28:19Z</time>
      </trkpt>
      <trkpt lat="44.24317" lon="9.69631">
        <ele>136.16</ele>
        <time>2016-10-08T12:28:20Z</time>
      </trkpt>
      <trkpt lat="44.24318" lon="9.69639">
        <ele>136.16</ele>
        <time>2016-10-08T12:28:21Z</time>
      </trkpt>
      <trkpt lat="44.24336" lon="9.69771">
        <ele>136.64</ele>
        <time>2016-10-08T12:28:38Z</time>
      </trkpt>
      <trkpt lat="44.24352" lon="9.69912">
        <ele>137.13</ele>
        <time>2016-10-08T12:28:56Z</time>
      </trkpt>
      <trkpt lat="44.2437" lon="9.70015">
        <ele>139.53</ele>
        <time>2016-10-08T12:29:13Z</time>
      </trkpt>
      <trkpt lat="44.24372" lon="9.7002">
        <ele>140.01</ele>
        <time>2016-10-08T12:29:14Z</time>
      </trkpt>
      <trkpt lat="44.24375" lon="9.70025">
        <ele>139.53</ele>
        <time>2016-10-08T12:29:15Z</time>
      </trkpt>
      <trkpt lat="44.24377" lon="9.7003">
        <ele>140.01</ele>
        <time>2016-10-08T12:29:16Z</time>
      </trkpt>
      <trkpt lat="44.24379" lon="9.70035">
        <ele>140.01</ele>
        <time>2016-10-08T12:29:17Z</time>
      </trkpt>
      <trkpt lat="44.24381" lon="9.7004">
        <ele>140.01</ele>
        <time>2016-10-08T12:29:18Z</time>
      </trkpt>
      <trkpt lat="44.24412" lon="9.70099">
        <ele>140.49</ele>
        <time>2016-10-08T12:29:30Z</time>
      </trkpt>
      <trkpt lat="44.24482" lon="9.70186">
        <ele>139.05</ele>
        <time>2016-10-08T12:29:47Z</time>
      </trkpt>
      <trkpt lat="44.24523" lon="9.70289">
        <ele>138.09</ele>
        <time>2016-10-08T12:30:00Z</time>
      </trkpt>
      <trkpt lat="44.24526" lon="9.70373">
        <ele>134.72</ele>
        <time>2016-10-08T12:30:09Z</time>
      </trkpt>
      <trkpt lat="44.24524" lon="9.70383">
        <ele>134.72</ele>
        <time>2016-10-08T12:30:10Z</time>
      </trkpt>
      <trkpt lat="44.24484" lon="9.70497">
        <ele>134.72</ele>
        <time>2016-10-08T12:30:23Z</time>
      </trkpt>
      <trkpt lat="44.24407" lon="9.7067">
        <ele>130.4</ele>
        <time>2016-10-08T12:30:43Z</time>
      </trkpt>
      <trkpt lat="44.24404" lon="9.70676">
        <ele>130.4</ele>
        <time>2016-10-08T12:30:44Z</time>
      </trkpt>
      <trkpt lat="44.24401" lon="9.70684">
        <ele>133.28</ele>
        <time>2016-10-08T12:30:45Z</time>
      </trkpt>
      <trkpt lat="44.24397" lon="9.70693">
        <ele>132.32</ele>
        <time>2016-10-08T12:30:46Z</time>
      </trkpt>
      <trkpt lat="44.2432" lon="9.70615">
        <ele>131.84</ele>
        <time>2016-10-08T12:30:49Z</time>
      </trkpt>
      <trkpt lat="44.24194" lon="9.70706">
        <ele>129.92</ele>
        <time>2016-10-08T12:31:09Z</time>
      </trkpt>
      <trkpt lat="44.24099" lon="9.70782">
        <ele>126.55</ele>
        <time>2016-10-08T12:31:24Z</time>
      </trkpt>
      <trkpt lat="44.24068" lon="9.70808">
        <ele>126.55</ele>
        <time>2016-10-08T12:31:29Z</time>
      </trkpt>
      <trkpt lat="44.24063" lon="9.70814">
        <ele>126.55</ele>
        <time>2016-10-08T12:31:30Z</time>
      </trkpt>
      <trkpt lat="44.24058" lon="9.70821">
        <ele>126.55</ele>
        <time>2016-10-08T12:31:31Z</time>
      </trkpt>
      <trkpt lat="44.24001" lon="9.70933">
        <ele>125.11</ele>
        <time>2016-10-08T12:31:45Z</time>
      </trkpt>
      <trkpt lat="44.23996" lon="9.70941">
        <ele>124.63</ele>
        <time>2016-10-08T12:31:46Z</time>
      </trkpt>
      <trkpt lat="44.23991" lon="9.70948">
        <ele>124.15</ele>
        <time>2016-10-08T12:31:47Z</time>
      </trkpt>
      <trkpt lat="44.23919" lon="9.71032">
        <ele>123.19</ele>
        <time>2016-10-08T12:31:59Z</time>
      </trkpt>
      <trkpt lat="44.23845" lon="9.7112">
        <ele>121.74</ele>
        <time>2016-10-08T12:32:11Z</time>
      </trkpt>
      <trkpt lat="44.23838" lon="9.71126">
        <ele>121.26</ele>
        <time>2016-10-08T12:32:12Z</time>
      </trkpt>
      <trkpt lat="44.23831" lon="9.71132">
        <ele>120.78</ele>
        <time>2016-10-08T12:32:13Z</time>
      </trkpt>
      <trkpt lat="44.23808" lon="9.71143">
        <ele>120.78</ele>
        <time>2016-10-08T12:32:16Z</time>
      </trkpt>
      <trkpt lat="44.238" lon="9.71146">
        <ele>120.3</ele>
        <time>2016-10-08T12:32:17Z</time>
      </trkpt>
      <trkpt lat="44.23751" lon="9.71153">
        <ele>119.82</ele>
        <time>2016-10-08T12:32:23Z</time>
      </trkpt>
      <trkpt lat="44.23744" lon="9.71155">
        <ele>119.34</ele>
        <time>2016-10-08T12:32:24Z</time>
      </trkpt>
      <trkpt lat="44.23736" lon="9.7116">
        <ele>118.86</ele>
        <time>2016-10-08T12:32:25Z</time>
      </trkpt>
      <trkpt lat="44.23729" lon="9.71166">
        <ele>118.38</ele>
        <time>2016-10-08T12:32:26Z</time>
      </trkpt>
      <trkpt lat="44.23722" lon="9.71172">
        <ele>118.38</ele>
        <time>2016-10-08T12:32:27Z</time>
      </trkpt>
      <trkpt lat="44.23716" lon="9.71179">
        <ele>118.86</ele>
        <time>2016-10-08T12:32:28Z</time>
      </trkpt>
      <trkpt lat="44.23628" lon="9.71265">
        <ele>117.42</ele>
        <time>2016-10-08T12:32:42Z</time>
      </trkpt>
      <trkpt lat="44.23552" lon="9.71316">
        <ele>115.98</ele>
        <time>2016-10-08T12:32:53Z</time>
      </trkpt>
      <trkpt lat="44.23546" lon="9.71322">
        <ele>115.5</ele>
        <time>2016-10-08T12:32:54Z</time>
      </trkpt>
      <trkpt lat="44.2354" lon="9.71329">
        <ele>115.01</ele>
        <time>2016-10-08T12:32:55Z</time>
      </trkpt>
      <trkpt lat="44.23535" lon="9.71337">
        <ele>115.5</ele>
        <time>2016-10-08T12:32:56Z</time>
      </trkpt>
      <trkpt lat="44.23531" lon="9.71344">
        <ele>115.98</ele>
        <time>2016-10-08T12:32:57Z</time>
      </trkpt>
      <trkpt lat="44.23527" lon="9.71353">
        <ele>115.5</ele>
        <time>2016-10-08T12:32:58Z</time>
      </trkpt>
      <trkpt lat="44.23523" lon="9.71362">
        <ele>115.5</ele>
        <time>2016-10-08T12:32:59Z</time>
      </trkpt>
      <trkpt lat="44.23481" lon="9.71486">
        <ele>113.09</ele>
        <time>2016-10-08T12:33:13Z</time>
      </trkpt>
      <trkpt lat="44.23468" lon="9.7152">
        <ele>112.61</ele>
        <time>2016-10-08T12:33:17Z</time>
      </trkpt>
      <trkpt lat="44.23464" lon="9.71527">
        <ele>112.61</ele>
        <time>2016-10-08T12:33:18Z</time>
      </trkpt>
      <trkpt lat="44.23459" lon="9.71533">
        <ele>112.61</ele>
        <time>2016-10-08T12:33:19Z</time>
      </trkpt>
      <trkpt lat="44.23454" lon="9.71539">
        <ele>113.09</ele>
        <time>2016-10-08T12:33:20Z</time>
      </trkpt>
      <trkpt lat="44.23448" lon="9.71544">
        <ele>112.13</ele>
        <time>2016-10-08T12:33:21Z</time>
      </trkpt>
      <trkpt lat="44.23385" lon="9.7159">
        <ele>112.13</ele>
        <time>2016-10-08T12:33:32Z</time>
      </trkpt>
      <trkpt lat="44.23379" lon="9.71592">
        <ele>111.65</ele>
        <time>2016-10-08T12:33:33Z</time>
      </trkpt>
      <trkpt lat="44.23295" lon="9.71592">
        <ele>110.69</ele>
        <time>2016-10-08T12:33:47Z</time>
      </trkpt>
      <trkpt lat="44.23212" lon="9.71574">
        <ele>111.65</ele>
        <time>2016-10-08T12:34:01Z</time>
      </trkpt>
      <trkpt lat="44.23119" lon="9.71546">
        <ele>111.17</ele>
        <time>2016-10-08T12:34:17Z</time>
      </trkpt>
      <trkpt lat="44.23096" lon="9.71542">
        <ele>111.17</ele>
        <time>2016-10-08T12:34:21Z</time>
      </trkpt>
      <trkpt lat="44.2309" lon="9.71542">
        <ele>111.65</ele>
        <time>2016-10-08T12:34:22Z</time>
      </trkpt>
      <trkpt lat="44.23067" lon="9.71548">
        <ele>111.65</ele>
        <time>2016-10-08T12:34:26Z</time>
      </trkpt>
      <trkpt lat="44.23057" lon="9.71554">
        <ele>111.17</ele>
        <time>2016-10-08T12:34:28Z</time>
      </trkpt>
      <trkpt lat="44.2298" lon="9.71618">
        <ele>111.65</ele>
        <time>2016-10-08T12:34:43Z</time>
      </trkpt>
      <trkpt lat="44.22905" lon="9.71669">
        <ele>113.09</ele>
        <time>2016-10-08T12:34:59Z</time>
      </trkpt>
      <trkpt lat="44.22852" lon="9.71707">
        <ele>115.98</ele>
        <time>2016-10-08T12:35:17Z</time>
      </trkpt>
      <trkpt lat="44.22813" lon="9.71734">
        <ele>118.38</ele>
        <time>2016-10-08T12:35:32Z</time>
      </trkpt>
      <trkpt lat="44.22765" lon="9.71773">
        <ele>119.82</ele>
        <time>2016-10-08T12:35:50Z</time>
      </trkpt>
      <trkpt lat="44.22745" lon="9.71794">
        <ele>119.82</ele>
        <time>2016-10-08T12:35:56Z</time>
      </trkpt>
      <trkpt lat="44.22717" lon="9.71838">
        <ele>118.86</ele>
        <time>2016-10-08T12:36:05Z</time>
      </trkpt>
      <trkpt lat="44.22677" lon="9.71908">
        <ele>115.5</ele>
        <time>2016-10-08T12:36:15Z</time>
      </trkpt>
      <trkpt lat="44.22672" lon="9.71916">
        <ele>115.5</ele>
        <time>2016-10-08T12:36:16Z</time>
      </trkpt>
      <trkpt lat="44.22614" lon="9.7198">
        <ele>112.13</ele>
        <time>2016-10-08T12:36:25Z</time>
      </trkpt>
      <trkpt lat="44.2253" lon="9.72061">
        <ele>111.65</ele>
        <time>2016-10-08T12:36:39Z</time>
      </trkpt>
      <trkpt lat="44.22478" lon="9.72103">
        <ele>108.77</ele>
        <time>2016-10-08T12:36:47Z</time>
      </trkpt>
      <trkpt lat="44.22449" lon="9.72124">
        <ele>107.81</ele>
        <time>2016-10-08T12:36:51Z</time>
      </trkpt>
      <trkpt lat="44.22442" lon="9.72128">
        <ele>108.29</ele>
        <time>2016-10-08T12:36:52Z</time>
      </trkpt>
      <trkpt lat="44.22434" lon="9.72129">
        <ele>107.32</ele>
        <time>2016-10-08T12:36:53Z</time>
      </trkpt>
      <trkpt lat="44.22426" lon="9.72128">
        <ele>107.32</ele>
        <time>2016-10-08T12:36:54Z</time>
      </trkpt>
      <trkpt lat="44.22418" lon="9.72125">
        <ele>106.84</ele>
        <time>2016-10-08T12:36:55Z</time>
      </trkpt>
      <trkpt lat="44.22411" lon="9.72121">
        <ele>106.36</ele>
        <time>2016-10-08T12:36:56Z</time>
      </trkpt>
      <trkpt lat="44.22403" lon="9.72116">
        <ele>106.36</ele>
        <time>2016-10-08T12:36:57Z</time>
      </trkpt>
      <trkpt lat="44.22397" lon="9.7211">
        <ele>106.36</ele>
        <time>2016-10-08T12:36:58Z</time>
      </trkpt>
      <trkpt lat="44.22391" lon="9.72102">
        <ele>106.84</ele>
        <time>2016-10-08T12:36:59Z</time>
      </trkpt>
      <trkpt lat="44.22386" lon="9.72094">
        <ele>105.4</ele>
        <time>2016-10-08T12:37:00Z</time>
      </trkpt>
      <trkpt lat="44.22382" lon="9.72085">
        <ele>105.4</ele>
        <time>2016-10-08T12:37:01Z</time>
      </trkpt>
      <trkpt lat="44.22377" lon="9.72076">
        <ele>105.4</ele>
        <time>2016-10-08T12:37:02Z</time>
      </trkpt>
      <trkpt lat="44.22373" lon="9.72066">
        <ele>105.88</ele>
        <time>2016-10-08T12:37:03Z</time>
      </trkpt>
      <trkpt lat="44.2237" lon="9.72055">
        <ele>104.92</ele>
        <time>2016-10-08T12:37:04Z</time>
      </trkpt>
      <trkpt lat="44.22364" lon="9.72035">
        <ele>103.96</ele>
        <time>2016-10-08T12:37:06Z</time>
      </trkpt>
      <trkpt lat="44.22358" lon="9.72015">
        <ele>103.96</ele>
        <time>2016-10-08T12:37:08Z</time>
      </trkpt>
      <trkpt lat="44.22353" lon="9.72008">
        <ele>103</ele>
        <time>2016-10-08T12:37:09Z</time>
      </trkpt>
      <trkpt lat="44.22346" lon="9.72004">
        <ele>103</ele>
        <time>2016-10-08T12:37:10Z</time>
      </trkpt>
      <trkpt lat="44.22339" lon="9.72003">
        <ele>102.04</ele>
        <time>2016-10-08T12:37:11Z</time>
      </trkpt>
      <trkpt lat="44.22332" lon="9.72007">
        <ele>101.56</ele>
        <time>2016-10-08T12:37:12Z</time>
      </trkpt>
      <trkpt lat="44.22325" lon="9.72011">
        <ele>101.56</ele>
        <time>2016-10-08T12:37:13Z</time>
      </trkpt>
      <trkpt lat="44.22271" lon="9.72053">
        <ele>101.08</ele>
        <time>2016-10-08T12:37:24Z</time>
      </trkpt>
      <trkpt lat="44.22267" lon="9.72062">
        <ele>100.6</ele>
        <time>2016-10-08T12:37:26Z</time>
      </trkpt>
      <trkpt lat="44.22265" lon="9.72068">
        <ele>101.08</ele>
        <time>2016-10-08T12:37:27Z</time>
      </trkpt>
      <trkpt lat="44.22264" lon="9.72074">
        <ele>100.6</ele>
        <time>2016-10-08T12:37:28Z</time>
      </trkpt>
      <trkpt lat="44.22265" lon="9.72106">
        <ele>101.08</ele>
        <time>2016-10-08T12:37:33Z</time>
      </trkpt>
      <trkpt lat="44.22268" lon="9.72126">
        <ele>100.11</ele>
        <time>2016-10-08T12:37:36Z</time>
      </trkpt>
      <trkpt lat="44.22269" lon="9.72133">
        <ele>100.6</ele>
        <time>2016-10-08T12:37:37Z</time>
      </trkpt>
      <trkpt lat="44.22288" lon="9.72247">
        <ele>100.11</ele>
        <time>2016-10-08T12:37:54Z</time>
      </trkpt>
      <trkpt lat="44.22303" lon="9.72358">
        <ele>100.6</ele>
        <time>2016-10-08T12:38:09Z</time>
      </trkpt>
      <trkpt lat="44.22295" lon="9.72467">
        <ele>101.56</ele>
        <time>2016-10-08T12:38:24Z</time>
      </trkpt>
      <trkpt lat="44.22287" lon="9.72486">
        <ele>101.08</ele>
        <time>2016-10-08T12:38:27Z</time>
      </trkpt>
      <trkpt lat="44.22284" lon="9.72492">
        <ele>101.56</ele>
        <time>2016-10-08T12:38:28Z</time>
      </trkpt>
      <trkpt lat="44.22222" lon="9.7259">
        <ele>102.04</ele>
        <time>2016-10-08T12:38:45Z</time>
      </trkpt>
      <trkpt lat="44.22162" lon="9.72687">
        <ele>103</ele>
        <time>2016-10-08T12:39:02Z</time>
      </trkpt>
      <trkpt lat="44.22104" lon="9.72784">
        <ele>103.96</ele>
        <time>2016-10-08T12:39:19Z</time>
      </trkpt>
      <trkpt lat="44.22087" lon="9.72811">
        <ele>103.96</ele>
        <time>2016-10-08T12:39:24Z</time>
      </trkpt>
      <trkpt lat="44.22053" lon="9.72869">
        <ele>103.96</ele>
        <time>2016-10-08T12:39:34Z</time>
      </trkpt>
      <trkpt lat="44.22006" lon="9.72951">
        <ele>103.96</ele>
        <time>2016-10-08T12:39:47Z</time>
      </trkpt>
      <trkpt lat="44.21952" lon="9.73052">
        <ele>103</ele>
        <time>2016-10-08T12:40:02Z</time>
      </trkpt>
      <trkpt lat="44.21951" lon="9.7306">
        <ele>103</ele>
        <time>2016-10-08T12:40:03Z</time>
      </trkpt>
      <trkpt lat="44.21949" lon="9.73076">
        <ele>103.48</ele>
        <time>2016-10-08T12:40:05Z</time>
      </trkpt>
      <trkpt lat="44.21948" lon="9.73083">
        <ele>103.96</ele>
        <time>2016-10-08T12:40:06Z</time>
      </trkpt>
      <trkpt lat="44.21946" lon="9.7315">
        <ele>103</ele>
        <time>2016-10-08T12:40:14Z</time>
      </trkpt>
      <trkpt lat="44.21947" lon="9.73158">
        <ele>102.52</ele>
        <time>2016-10-08T12:40:15Z</time>
      </trkpt>
      <trkpt lat="44.21976" lon="9.73316">
        <ele>102.52</ele>
        <time>2016-10-08T12:40:33Z</time>
      </trkpt>
      <trkpt lat="44.21981" lon="9.73341">
        <ele>101.56</ele>
        <time>2016-10-08T12:40:36Z</time>
      </trkpt>
      <trkpt lat="44.21984" lon="9.73349">
        <ele>101.56</ele>
        <time>2016-10-08T12:40:37Z</time>
      </trkpt>
      <trkpt lat="44.21987" lon="9.73357">
        <ele>102.04</ele>
        <time>2016-10-08T12:40:38Z</time>
      </trkpt>
      <trkpt lat="44.21991" lon="9.73364">
        <ele>102.04</ele>
        <time>2016-10-08T12:40:39Z</time>
      </trkpt>
      <trkpt lat="44.21994" lon="9.73371">
        <ele>101.56</ele>
        <time>2016-10-08T12:40:40Z</time>
      </trkpt>
      <trkpt lat="44.21998" lon="9.73379">
        <ele>101.56</ele>
        <time>2016-10-08T12:40:41Z</time>
      </trkpt>
      <trkpt lat="44.22064" lon="9.73487">
        <ele>100.6</ele>
        <time>2016-10-08T12:40:56Z</time>
      </trkpt>
      <trkpt lat="44.22079" lon="9.73529">
        <ele>100.11</ele>
        <time>2016-10-08T12:41:01Z</time>
      </trkpt>
      <trkpt lat="44.2209" lon="9.73603">
        <ele>100.11</ele>
        <time>2016-10-08T12:41:09Z</time>
      </trkpt>
      <trkpt lat="44.2209" lon="9.73611">
        <ele>100.11</ele>
        <time>2016-10-08T12:41:10Z</time>
      </trkpt>
      <trkpt lat="44.22089" lon="9.7362">
        <ele>99.63</ele>
        <time>2016-10-08T12:41:11Z</time>
      </trkpt>
      <trkpt lat="44.22087" lon="9.73629">
        <ele>100.11</ele>
        <time>2016-10-08T12:41:12Z</time>
      </trkpt>
      <trkpt lat="44.22085" lon="9.73637">
        <ele>100.11</ele>
        <time>2016-10-08T12:41:13Z</time>
      </trkpt>
      <trkpt lat="44.22077" lon="9.73672">
        <ele>100.11</ele>
        <time>2016-10-08T12:41:17Z</time>
      </trkpt>
      <trkpt lat="44.22076" lon="9.73682">
        <ele>99.63</ele>
        <time>2016-10-08T12:41:18Z</time>
      </trkpt>
      <trkpt lat="44.22076" lon="9.73692">
        <ele>99.63</ele>
        <time>2016-10-08T12:41:19Z</time>
      </trkpt>
      <trkpt lat="44.22084" lon="9.73829">
        <ele>98.19</ele>
        <time>2016-10-08T12:41:33Z</time>
      </trkpt>
      <trkpt lat="44.2209" lon="9.7395">
        <ele>97.23</ele>
        <time>2016-10-08T12:41:45Z</time>
      </trkpt>
      <trkpt lat="44.22108" lon="9.74055">
        <ele>96.75</ele>
        <time>2016-10-08T12:41:56Z</time>
      </trkpt>
      <trkpt lat="44.22131" lon="9.74117">
        <ele>95.31</ele>
        <time>2016-10-08T12:42:03Z</time>
      </trkpt>
      <trkpt lat="44.22152" lon="9.74224">
        <ele>94.35</ele>
        <time>2016-10-08T12:42:14Z</time>
      </trkpt>
      <trkpt lat="44.2218" lon="9.74376">
        <ele>93.39</ele>
        <time>2016-10-08T12:42:30Z</time>
      </trkpt>
      <trkpt lat="44.22188" lon="9.74422">
        <ele>93.39</ele>
        <time>2016-10-08T12:42:35Z</time>
      </trkpt>
      <trkpt lat="44.22189" lon="9.7443">
        <ele>93.87</ele>
        <time>2016-10-08T12:42:36Z</time>
      </trkpt>
      <trkpt lat="44.22204" lon="9.74479">
        <ele>94.35</ele>
        <time>2016-10-08T12:42:42Z</time>
      </trkpt>
      <trkpt lat="44.22208" lon="9.74486">
        <ele>94.35</ele>
        <time>2016-10-08T12:42:43Z</time>
      </trkpt>
      <trkpt lat="44.22213" lon="9.74493">
        <ele>93.39</ele>
        <time>2016-10-08T12:42:44Z</time>
      </trkpt>
      <trkpt lat="44.22223" lon="9.74506">
        <ele>93.39</ele>
        <time>2016-10-08T12:42:46Z</time>
      </trkpt>
      <trkpt lat="44.22251" lon="9.7454">
        <ele>91.46</ele>
        <time>2016-10-08T12:42:51Z</time>
      </trkpt>
      <trkpt lat="44.22255" lon="9.74548">
        <ele>90.98</ele>
        <time>2016-10-08T12:42:52Z</time>
      </trkpt>
      <trkpt lat="44.22259" lon="9.74557">
        <ele>91.46</ele>
        <time>2016-10-08T12:42:53Z</time>
      </trkpt>
      <trkpt lat="44.22261" lon="9.74566">
        <ele>90.98</ele>
        <time>2016-10-08T12:42:54Z</time>
      </trkpt>
      <trkpt lat="44.22263" lon="9.74575">
        <ele>90.98</ele>
        <time>2016-10-08T12:42:55Z</time>
      </trkpt>
      <trkpt lat="44.22264" lon="9.74584">
        <ele>91.46</ele>
        <time>2016-10-08T12:42:56Z</time>
      </trkpt>
      <trkpt lat="44.22264" lon="9.74594">
        <ele>91.46</ele>
        <time>2016-10-08T12:42:57Z</time>
      </trkpt>
      <trkpt lat="44.22263" lon="9.74603">
        <ele>91.94</ele>
        <time>2016-10-08T12:42:58Z</time>
      </trkpt>
      <trkpt lat="44.22262" lon="9.74613">
        <ele>91.46</ele>
        <time>2016-10-08T12:42:59Z</time>
      </trkpt>
      <trkpt lat="44.22244" lon="9.7477">
        <ele>90.5</ele>
        <time>2016-10-08T12:43:15Z</time>
      </trkpt>
      <trkpt lat="44.22245" lon="9.7478">
        <ele>90.02</ele>
        <time>2016-10-08T12:43:16Z</time>
      </trkpt>
      <trkpt lat="44.22277" lon="9.74907">
        <ele>88.58</ele>
        <time>2016-10-08T12:43:29Z</time>
      </trkpt>
      <trkpt lat="44.22289" lon="9.74954">
        <ele>89.06</ele>
        <time>2016-10-08T12:43:34Z</time>
      </trkpt>
      <trkpt lat="44.22293" lon="9.74963">
        <ele>88.58</ele>
        <time>2016-10-08T12:43:35Z</time>
      </trkpt>
      <trkpt lat="44.22297" lon="9.74971">
        <ele>89.54</ele>
        <time>2016-10-08T12:43:36Z</time>
      </trkpt>
      <trkpt lat="44.22311" lon="9.74994">
        <ele>88.1</ele>
        <time>2016-10-08T12:43:39Z</time>
      </trkpt>
      <trkpt lat="44.22361" lon="9.75083">
        <ele>86.66</ele>
        <time>2016-10-08T12:43:50Z</time>
      </trkpt>
      <trkpt lat="44.22363" lon="9.75093">
        <ele>86.66</ele>
        <time>2016-10-08T12:43:51Z</time>
      </trkpt>
      <trkpt lat="44.22364" lon="9.75103">
        <ele>86.66</ele>
        <time>2016-10-08T12:43:52Z</time>
      </trkpt>
      <trkpt lat="44.22364" lon="9.75114">
        <ele>87.62</ele>
        <time>2016-10-08T12:43:53Z</time>
      </trkpt>
      <trkpt lat="44.22363" lon="9.75124">
        <ele>86.18</ele>
        <time>2016-10-08T12:43:54Z</time>
      </trkpt>
      <trkpt lat="44.22362" lon="9.75134">
        <ele>86.66</ele>
        <time>2016-10-08T12:43:55Z</time>
      </trkpt>
      <trkpt lat="44.22359" lon="9.75144">
        <ele>86.18</ele>
        <time>2016-10-08T12:43:56Z</time>
      </trkpt>
      <trkpt lat="44.22348" lon="9.75179">
        <ele>87.14</ele>
        <time>2016-10-08T12:44:00Z</time>
      </trkpt>
      <trkpt lat="44.22343" lon="9.75186">
        <ele>87.14</ele>
        <time>2016-10-08T12:44:01Z</time>
      </trkpt>
      <trkpt lat="44.22281" lon="9.75269">
        <ele>87.14</ele>
        <time>2016-10-08T12:44:13Z</time>
      </trkpt>
      <trkpt lat="44.22254" lon="9.75313">
        <ele>87.62</ele>
        <time>2016-10-08T12:44:19Z</time>
      </trkpt>
      <trkpt lat="44.22251" lon="9.7532">
        <ele>87.14</ele>
        <time>2016-10-08T12:44:20Z</time>
      </trkpt>
      <trkpt lat="44.22209" lon="9.75388">
        <ele>86.66</ele>
        <time>2016-10-08T12:44:30Z</time>
      </trkpt>
      <trkpt lat="44.22203" lon="9.75392">
        <ele>87.14</ele>
        <time>2016-10-08T12:44:31Z</time>
      </trkpt>
      <trkpt lat="44.22196" lon="9.75395">
        <ele>87.14</ele>
        <time>2016-10-08T12:44:32Z</time>
      </trkpt>
      <trkpt lat="44.2219" lon="9.75398">
        <ele>87.62</ele>
        <time>2016-10-08T12:44:33Z</time>
      </trkpt>
      <trkpt lat="44.22183" lon="9.75401">
        <ele>87.14</ele>
        <time>2016-10-08T12:44:34Z</time>
      </trkpt>
      <trkpt lat="44.22126" lon="9.75409">
        <ele>88.1</ele>
        <time>2016-10-08T12:44:43Z</time>
      </trkpt>
      <trkpt lat="44.2212" lon="9.75408">
        <ele>88.1</ele>
        <time>2016-10-08T12:44:44Z</time>
      </trkpt>
      <trkpt lat="44.22114" lon="9.75405">
        <ele>88.1</ele>
        <time>2016-10-08T12:44:45Z</time>
      </trkpt>
      <trkpt lat="44.22108" lon="9.75402">
        <ele>88.58</ele>
        <time>2016-10-08T12:44:46Z</time>
      </trkpt>
      <trkpt lat="44.22103" lon="9.75397">
        <ele>89.06</ele>
        <time>2016-10-08T12:44:47Z</time>
      </trkpt>
      <trkpt lat="44.22049" lon="9.7534">
        <ele>89.06</ele>
        <time>2016-10-08T12:45:00Z</time>
      </trkpt>
      <trkpt lat="44.22014" lon="9.75301">
        <ele>88.58</ele>
        <time>2016-10-08T12:45:10Z</time>
      </trkpt>
      <trkpt lat="44.21954" lon="9.75241">
        <ele>90.02</ele>
        <time>2016-10-08T12:45:25Z</time>
      </trkpt>
      <trkpt lat="44.2195" lon="9.75239">
        <ele>89.54</ele>
        <time>2016-10-08T12:45:26Z</time>
      </trkpt>
      <trkpt lat="44.21945" lon="9.75238">
        <ele>90.02</ele>
        <time>2016-10-08T12:45:27Z</time>
      </trkpt>
      <trkpt lat="44.21939" lon="9.75238">
        <ele>90.02</ele>
        <time>2016-10-08T12:45:28Z</time>
      </trkpt>
      <trkpt lat="44.21934" lon="9.75238">
        <ele>90.5</ele>
        <time>2016-10-08T12:45:29Z</time>
      </trkpt>
      <trkpt lat="44.21928" lon="9.75239">
        <ele>90.5</ele>
        <time>2016-10-08T12:45:30Z</time>
      </trkpt>
      <trkpt lat="44.21923" lon="9.7524">
        <ele>90.5</ele>
        <time>2016-10-08T12:45:31Z</time>
      </trkpt>
      <trkpt lat="44.21843" lon="9.75258">
        <ele>90.5</ele>
        <time>2016-10-08T12:45:46Z</time>
      </trkpt>
      <trkpt lat="44.21838" lon="9.75257">
        <ele>90.98</ele>
        <time>2016-10-08T12:45:47Z</time>
      </trkpt>
      <trkpt lat="44.21832" lon="9.75255">
        <ele>91.46</ele>
        <time>2016-10-08T12:45:48Z</time>
      </trkpt>
      <trkpt lat="44.21745" lon="9.7522">
        <ele>90.02</ele>
        <time>2016-10-08T12:46:04Z</time>
      </trkpt>
      <trkpt lat="44.21674" lon="9.75219">
        <ele>90.5</ele>
        <time>2016-10-08T12:46:16Z</time>
      </trkpt>
      <trkpt lat="44.21662" lon="9.75222">
        <ele>90.02</ele>
        <time>2016-10-08T12:46:18Z</time>
      </trkpt>
      <trkpt lat="44.21657" lon="9.75225">
        <ele>89.54</ele>
        <time>2016-10-08T12:46:19Z</time>
      </trkpt>
      <trkpt lat="44.21589" lon="9.75269">
        <ele>89.54</ele>
        <time>2016-10-08T12:46:31Z</time>
      </trkpt>
      <trkpt lat="44.2157" lon="9.75277">
        <ele>89.54</ele>
        <time>2016-10-08T12:46:34Z</time>
      </trkpt>
      <trkpt lat="44.21564" lon="9.75279">
        <ele>89.06</ele>
        <time>2016-10-08T12:46:35Z</time>
      </trkpt>
      <trkpt lat="44.21558" lon="9.7528">
        <ele>89.06</ele>
        <time>2016-10-08T12:46:36Z</time>
      </trkpt>
      <trkpt lat="44.21512" lon="9.75279">
        <ele>89.54</ele>
        <time>2016-10-08T12:46:43Z</time>
      </trkpt>
      <trkpt lat="44.21476" lon="9.75292">
        <ele>89.06</ele>
        <time>2016-10-08T12:46:49Z</time>
      </trkpt>
      <trkpt lat="44.21471" lon="9.75295">
        <ele>89.06</ele>
        <time>2016-10-08T12:46:50Z</time>
      </trkpt>
      <trkpt lat="44.21465" lon="9.75298">
        <ele>89.54</ele>
        <time>2016-10-08T12:46:51Z</time>
      </trkpt>
      <trkpt lat="44.21449" lon="9.75306">
        <ele>89.06</ele>
        <time>2016-10-08T12:46:54Z</time>
      </trkpt>
      <trkpt lat="44.21444" lon="9.75309">
        <ele>89.06</ele>
        <time>2016-10-08T12:46:55Z</time>
      </trkpt>
      <trkpt lat="44.21438" lon="9.75311">
        <ele>89.06</ele>
        <time>2016-10-08T12:46:56Z</time>
      </trkpt>
      <trkpt lat="44.21367" lon="9.75341">
        <ele>89.06</ele>
        <time>2016-10-08T12:47:10Z</time>
      </trkpt>
      <trkpt lat="44.21349" lon="9.75349">
        <ele>89.06</ele>
        <time>2016-10-08T12:47:14Z</time>
      </trkpt>
      <trkpt lat="44.21344" lon="9.7535">
        <ele>89.06</ele>
        <time>2016-10-08T12:47:15Z</time>
      </trkpt>
      <trkpt lat="44.21339" lon="9.75351">
        <ele>89.06</ele>
        <time>2016-10-08T12:47:16Z</time>
      </trkpt>
      <trkpt lat="44.21334" lon="9.75353">
        <ele>89.06</ele>
        <time>2016-10-08T12:47:17Z</time>
      </trkpt>
      <trkpt lat="44.2133" lon="9.75356">
        <ele>89.54</ele>
        <time>2016-10-08T12:47:18Z</time>
      </trkpt>
      <trkpt lat="44.21325" lon="9.7536">
        <ele>90.02</ele>
        <time>2016-10-08T12:47:19Z</time>
      </trkpt>
      <trkpt lat="44.21322" lon="9.75364">
        <ele>89.54</ele>
        <time>2016-10-08T12:47:20Z</time>
      </trkpt>
      <trkpt lat="44.21319" lon="9.75369">
        <ele>89.54</ele>
        <time>2016-10-08T12:47:21Z</time>
      </trkpt>
      <trkpt lat="44.21316" lon="9.75374">
        <ele>89.54</ele>
        <time>2016-10-08T12:47:22Z</time>
      </trkpt>
      <trkpt lat="44.21313" lon="9.7538">
        <ele>90.02</ele>
        <time>2016-10-08T12:47:23Z</time>
      </trkpt>
      <trkpt lat="44.21311" lon="9.75386">
        <ele>89.54</ele>
        <time>2016-10-08T12:47:24Z</time>
      </trkpt>
      <trkpt lat="44.21292" lon="9.75427">
        <ele>90.02</ele>
        <time>2016-10-08T12:47:36Z</time>
      </trkpt>
      <trkpt lat="44.21292" lon="9.75433">
        <ele>89.54</ele>
        <time>2016-10-08T12:47:51Z</time>
      </trkpt>
      <trkpt lat="44.21291" lon="9.75435">
        <ele>89.54</ele>
        <time>2016-10-08T12:48:25Z</time>
      </trkpt>
      <trkpt lat="44.21291" lon="9.75434">
        <ele>89.06</ele>
        <time>2016-10-08T12:48:52Z</time>
      </trkpt>
      <trkpt lat="44.21289" lon="9.75438">
        <ele>89.06</ele>
        <time>2016-10-08T12:49:26Z</time>
      </trkpt>
      <trkpt lat="44.21289" lon="9.75437">
        <ele>89.06</ele>
        <time>2016-10-08T12:49:55Z</time>
      </trkpt>
      <trkpt lat="44.21285" lon="9.75438">
        <ele>88.58</ele>
        <time>2016-10-08T12:50:31Z</time>
      </trkpt>
      <trkpt lat="44.21283" lon="9.75439">
        <ele>88.58</ele>
        <time>2016-10-08T12:51:03Z</time>
      </trkpt>
      <trkpt lat="44.21285" lon="9.75437">
        <ele>88.58</ele>
        <time>2016-10-08T12:51:34Z</time>
      </trkpt>
      <trkpt lat="44.21289" lon="9.75436">
        <ele>88.58</ele>
        <time>2016-10-08T12:52:04Z</time>
      </trkpt>
      <trkpt lat="44.21291" lon="9.75434">
        <ele>88.1</ele>
        <time>2016-10-08T12:52:43Z</time>
      </trkpt>
      <trkpt lat="44.21288" lon="9.75438">
        <ele>88.1</ele>
        <time>2016-10-08T12:53:15Z</time>
      </trkpt>
      <trkpt lat="44.21286" lon="9.75439">
        <ele>88.58</ele>
        <time>2016-10-08T12:53:42Z</time>
      </trkpt>
      <trkpt lat="44.21284" lon="9.7544">
        <ele>88.58</ele>
        <time>2016-10-08T12:54:13Z</time>
      </trkpt>
      <trkpt lat="44.21286" lon="9.75441">
        <ele>88.1</ele>
        <time>2016-10-08T12:54:46Z</time>
      </trkpt>
      <trkpt lat="44.21289" lon="9.75439">
        <ele>87.62</ele>
        <time>2016-10-08T12:55:15Z</time>
      </trkpt>
      <trkpt lat="44.21288" lon="9.75439">
        <ele>87.62</ele>
        <time>2016-10-08T12:55:44Z</time>
      </trkpt>
      <trkpt lat="44.21287" lon="9.75437">
        <ele>87.14</ele>
        <time>2016-10-08T12:56:20Z</time>
      </trkpt>
      <trkpt lat="44.21289" lon="9.75438">
        <ele>86.66</ele>
        <time>2016-10-08T12:56:36Z</time>
      </trkpt>
      <trkpt lat="44.21292" lon="9.7544">
        <ele>86.66</ele>
        <time>2016-10-08T12:56:46Z</time>
      </trkpt>
      <trkpt lat="44.21293" lon="9.75442">
        <ele>86.66</ele>
        <time>2016-10-08T12:56:47Z</time>
      </trkpt>
      <trkpt lat="44.21293" lon="9.75444">
        <ele>86.66</ele>
        <time>2016-10-08T12:56:48Z</time>
      </trkpt>
      <trkpt lat="44.21294" lon="9.75447">
        <ele>86.66</ele>
        <time>2016-10-08T12:56:49Z</time>
      </trkpt>
      <trkpt lat="44.21294" lon="9.7545">
        <ele>87.14</ele>
        <time>2016-10-08T12:56:50Z</time>
      </trkpt>
      <trkpt lat="44.21294" lon="9.75454">
        <ele>86.66</ele>
        <time>2016-10-08T12:56:51Z</time>
      </trkpt>
      <trkpt lat="44.2129" lon="9.75514">
        <ele>87.14</ele>
        <time>2016-10-08T12:57:02Z</time>
      </trkpt>
      <trkpt lat="44.21291" lon="9.75591">
        <ele>86.66</ele>
        <time>2016-10-08T12:57:13Z</time>
      </trkpt>
      <trkpt lat="44.21292" lon="9.75597">
        <ele>86.66</ele>
        <time>2016-10-08T12:57:14Z</time>
      </trkpt>
      <trkpt lat="44.21294" lon="9.75604">
        <ele>86.66</ele>
        <time>2016-10-08T12:57:15Z</time>
      </trkpt>
      <trkpt lat="44.21295" lon="9.75611">
        <ele>86.66</ele>
        <time>2016-10-08T12:57:16Z</time>
      </trkpt>
      <trkpt lat="44.21296" lon="9.75618">
        <ele>86.66</ele>
        <time>2016-10-08T12:57:17Z</time>
      </trkpt>
      <trkpt lat="44.21311" lon="9.7571">
        <ele>86.66</ele>
        <time>2016-10-08T12:57:29Z</time>
      </trkpt>
      <trkpt lat="44.21325" lon="9.75783">
        <ele>86.18</ele>
        <time>2016-10-08T12:57:38Z</time>
      </trkpt>
      <trkpt lat="44.21326" lon="9.75791">
        <ele>85.69</ele>
        <time>2016-10-08T12:57:39Z</time>
      </trkpt>
      <trkpt lat="44.21326" lon="9.758">
        <ele>86.18</ele>
        <time>2016-10-08T12:57:40Z</time>
      </trkpt>
      <trkpt lat="44.21318" lon="9.75929">
        <ele>84.73</ele>
        <time>2016-10-08T12:57:55Z</time>
      </trkpt>
      <trkpt lat="44.21313" lon="9.7599">
        <ele>85.21</ele>
        <time>2016-10-08T12:58:02Z</time>
      </trkpt>
      <trkpt lat="44.21291" lon="9.761">
        <ele>84.25</ele>
        <time>2016-10-08T12:58:15Z</time>
      </trkpt>
      <trkpt lat="44.21256" lon="9.76195">
        <ele>83.29</ele>
        <time>2016-10-08T12:58:27Z</time>
      </trkpt>
      <trkpt lat="44.21248" lon="9.76208">
        <ele>83.77</ele>
        <time>2016-10-08T12:58:29Z</time>
      </trkpt>
      <trkpt lat="44.21195" lon="9.7627">
        <ele>83.29</ele>
        <time>2016-10-08T12:58:40Z</time>
      </trkpt>
      <trkpt lat="44.21136" lon="9.76399">
        <ele>81.85</ele>
        <time>2016-10-08T12:58:57Z</time>
      </trkpt>
      <trkpt lat="44.2113" lon="9.76403">
        <ele>82.33</ele>
        <time>2016-10-08T12:58:58Z</time>
      </trkpt>
      <trkpt lat="44.21123" lon="9.76406">
        <ele>82.33</ele>
        <time>2016-10-08T12:58:59Z</time>
      </trkpt>
      <trkpt lat="44.21117" lon="9.76407">
        <ele>82.33</ele>
        <time>2016-10-08T12:59:00Z</time>
      </trkpt>
      <trkpt lat="44.21111" lon="9.76407">
        <ele>82.81</ele>
        <time>2016-10-08T12:59:01Z</time>
      </trkpt>
      <trkpt lat="44.21104" lon="9.76405">
        <ele>82.33</ele>
        <time>2016-10-08T12:59:02Z</time>
      </trkpt>
      <trkpt lat="44.21098" lon="9.76402">
        <ele>82.33</ele>
        <time>2016-10-08T12:59:03Z</time>
      </trkpt>
      <trkpt lat="44.21047" lon="9.76378">
        <ele>81.37</ele>
        <time>2016-10-08T12:59:11Z</time>
      </trkpt>
      <trkpt lat="44.20956" lon="9.76335">
        <ele>81.37</ele>
        <time>2016-10-08T12:59:25Z</time>
      </trkpt>
      <trkpt lat="44.20949" lon="9.76333">
        <ele>80.41</ele>
        <time>2016-10-08T12:59:26Z</time>
      </trkpt>
      <trkpt lat="44.20943" lon="9.76332">
        <ele>81.37</ele>
        <time>2016-10-08T12:59:27Z</time>
      </trkpt>
      <trkpt lat="44.20936" lon="9.76332">
        <ele>80.89</ele>
        <time>2016-10-08T12:59:28Z</time>
      </trkpt>
      <trkpt lat="44.2093" lon="9.76332">
        <ele>80.41</ele>
        <time>2016-10-08T12:59:29Z</time>
      </trkpt>
      <trkpt lat="44.20924" lon="9.76332">
        <ele>80.89</ele>
        <time>2016-10-08T12:59:30Z</time>
      </trkpt>
      <trkpt lat="44.20917" lon="9.76332">
        <ele>80.89</ele>
        <time>2016-10-08T12:59:31Z</time>
      </trkpt>
      <trkpt lat="44.20903" lon="9.76334">
        <ele>80.41</ele>
        <time>2016-10-08T12:59:33Z</time>
      </trkpt>
      <trkpt lat="44.20826" lon="9.7634">
        <ele>79.45</ele>
        <time>2016-10-08T12:59:44Z</time>
      </trkpt>
      <trkpt lat="44.20785" lon="9.76339">
        <ele>78.97</ele>
        <time>2016-10-08T12:59:50Z</time>
      </trkpt>
      <trkpt lat="44.20778" lon="9.76338">
        <ele>78.48</ele>
        <time>2016-10-08T12:59:51Z</time>
      </trkpt>
      <trkpt lat="44.20692" lon="9.76303">
        <ele>78</ele>
        <time>2016-10-08T13:00:04Z</time>
      </trkpt>
      <trkpt lat="44.20604" lon="9.76266">
        <ele>76.56</ele>
        <time>2016-10-08T13:00:17Z</time>
      </trkpt>
      <trkpt lat="44.20503" lon="9.76223">
        <ele>75.6</ele>
        <time>2016-10-08T13:00:32Z</time>
      </trkpt>
      <trkpt lat="44.20463" lon="9.76183">
        <ele>75.6</ele>
        <time>2016-10-08T13:00:39Z</time>
      </trkpt>
      <trkpt lat="44.20457" lon="9.76179">
        <ele>76.56</ele>
        <time>2016-10-08T13:00:40Z</time>
      </trkpt>
      <trkpt lat="44.20451" lon="9.76176">
        <ele>76.08</ele>
        <time>2016-10-08T13:00:41Z</time>
      </trkpt>
      <trkpt lat="44.20444" lon="9.76176">
        <ele>76.08</ele>
        <time>2016-10-08T13:00:42Z</time>
      </trkpt>
      <trkpt lat="44.20437" lon="9.76176">
        <ele>75.6</ele>
        <time>2016-10-08T13:00:43Z</time>
      </trkpt>
      <trkpt lat="44.20352" lon="9.76191">
        <ele>73.68</ele>
        <time>2016-10-08T13:00:55Z</time>
      </trkpt>
      <trkpt lat="44.20253" lon="9.76207">
        <ele>73.2</ele>
        <time>2016-10-08T13:01:09Z</time>
      </trkpt>
      <trkpt lat="44.20156" lon="9.76217">
        <ele>72.24</ele>
        <time>2016-10-08T13:01:25Z</time>
      </trkpt>
      <trkpt lat="44.20129" lon="9.76236">
        <ele>71.76</ele>
        <time>2016-10-08T13:01:29Z</time>
      </trkpt>
      <trkpt lat="44.20123" lon="9.76242">
        <ele>71.27</ele>
        <time>2016-10-08T13:01:30Z</time>
      </trkpt>
      <trkpt lat="44.20039" lon="9.76318">
        <ele>71.27</ele>
        <time>2016-10-08T13:01:44Z</time>
      </trkpt>
      <trkpt lat="44.19958" lon="9.76397">
        <ele>69.35</ele>
        <time>2016-10-08T13:01:58Z</time>
      </trkpt>
      <trkpt lat="44.19899" lon="9.76481">
        <ele>68.39</ele>
        <time>2016-10-08T13:02:10Z</time>
      </trkpt>
      <trkpt lat="44.19836" lon="9.76575">
        <ele>68.39</ele>
        <time>2016-10-08T13:02:23Z</time>
      </trkpt>
      <trkpt lat="44.19748" lon="9.76669">
        <ele>66.47</ele>
        <time>2016-10-08T13:02:42Z</time>
      </trkpt>
      <trkpt lat="44.1974" lon="9.76679">
        <ele>66.95</ele>
        <time>2016-10-08T13:02:44Z</time>
      </trkpt>
      <trkpt lat="44.19733" lon="9.76688">
        <ele>67.43</ele>
        <time>2016-10-08T13:02:46Z</time>
      </trkpt>
      <trkpt lat="44.19722" lon="9.76712">
        <ele>67.43</ele>
        <time>2016-10-08T13:02:52Z</time>
      </trkpt>
      <trkpt lat="44.19723" lon="9.76717">
        <ele>67.91</ele>
        <time>2016-10-08T13:02:53Z</time>
      </trkpt>
      <trkpt lat="44.19727" lon="9.76721">
        <ele>67.43</ele>
        <time>2016-10-08T13:02:54Z</time>
      </trkpt>
      <trkpt lat="44.19737" lon="9.76734">
        <ele>67.91</ele>
        <time>2016-10-08T13:02:57Z</time>
      </trkpt>
      <trkpt lat="44.19785" lon="9.76817">
        <ele>66.95</ele>
        <time>2016-10-08T13:03:12Z</time>
      </trkpt>
      <trkpt lat="44.19852" lon="9.76946">
        <ele>67.43</ele>
        <time>2016-10-08T13:03:33Z</time>
      </trkpt>
      <trkpt lat="44.1989" lon="9.77019">
        <ele>67.43</ele>
        <time>2016-10-08T13:03:45Z</time>
      </trkpt>
      <trkpt lat="44.19892" lon="9.77026">
        <ele>67.91</ele>
        <time>2016-10-08T13:03:46Z</time>
      </trkpt>
      <trkpt lat="44.19894" lon="9.77033">
        <ele>66.95</ele>
        <time>2016-10-08T13:03:47Z</time>
      </trkpt>
      <trkpt lat="44.19897" lon="9.77047">
        <ele>66.47</ele>
        <time>2016-10-08T13:03:49Z</time>
      </trkpt>
      <trkpt lat="44.19898" lon="9.77054">
        <ele>66.47</ele>
        <time>2016-10-08T13:03:50Z</time>
      </trkpt>
      <trkpt lat="44.19909" lon="9.77181">
        <ele>65.99</ele>
        <time>2016-10-08T13:04:06Z</time>
      </trkpt>
      <trkpt lat="44.1993" lon="9.77275">
        <ele>66.47</ele>
        <time>2016-10-08T13:04:18Z</time>
      </trkpt>
      <trkpt lat="44.19938" lon="9.77287">
        <ele>65.99</ele>
        <time>2016-10-08T13:04:20Z</time>
      </trkpt>
      <trkpt lat="44.19942" lon="9.77292">
        <ele>65.99</ele>
        <time>2016-10-08T13:04:21Z</time>
      </trkpt>
      <trkpt lat="44.19962" lon="9.77311">
        <ele>66.47</ele>
        <time>2016-10-08T13:04:25Z</time>
      </trkpt>
      <trkpt lat="44.20057" lon="9.77368">
        <ele>66.47</ele>
        <time>2016-10-08T13:04:42Z</time>
      </trkpt>
      <trkpt lat="44.20148" lon="9.77417">
        <ele>66.95</ele>
        <time>2016-10-08T13:04:58Z</time>
      </trkpt>
      <trkpt lat="44.20181" lon="9.77434">
        <ele>66.47</ele>
        <time>2016-10-08T13:05:04Z</time>
      </trkpt>
      <trkpt lat="44.20186" lon="9.77439">
        <ele>66.47</ele>
        <time>2016-10-08T13:05:05Z</time>
      </trkpt>
      <trkpt lat="44.20191" lon="9.77443">
        <ele>66.47</ele>
        <time>2016-10-08T13:05:06Z</time>
      </trkpt>
      <trkpt lat="44.20199" lon="9.77454">
        <ele>66.95</ele>
        <time>2016-10-08T13:05:08Z</time>
      </trkpt>
      <trkpt lat="44.2026" lon="9.77545">
        <ele>68.39</ele>
        <time>2016-10-08T13:05:25Z</time>
      </trkpt>
      <trkpt lat="44.20268" lon="9.77563">
        <ele>68.39</ele>
        <time>2016-10-08T13:05:28Z</time>
      </trkpt>
      <trkpt lat="44.20305" lon="9.77664">
        <ele>67.43</ele>
        <time>2016-10-08T13:05:43Z</time>
      </trkpt>
      <trkpt lat="44.20327" lon="9.77727">
        <ele>67.91</ele>
        <time>2016-10-08T13:05:51Z</time>
      </trkpt>
      <trkpt lat="44.20327" lon="9.77736">
        <ele>67.43</ele>
        <time>2016-10-08T13:05:52Z</time>
      </trkpt>
      <trkpt lat="44.20328" lon="9.77872">
        <ele>66.47</ele>
        <time>2016-10-08T13:06:07Z</time>
      </trkpt>
      <trkpt lat="44.20327" lon="9.77881">
        <ele>66.47</ele>
        <time>2016-10-08T13:06:08Z</time>
      </trkpt>
      <trkpt lat="44.20324" lon="9.77888">
        <ele>67.43</ele>
        <time>2016-10-08T13:06:09Z</time>
      </trkpt>
      <trkpt lat="44.20321" lon="9.77895">
        <ele>66.95</ele>
        <time>2016-10-08T13:06:10Z</time>
      </trkpt>
      <trkpt lat="44.20317" lon="9.77901">
        <ele>66.95</ele>
        <time>2016-10-08T13:06:11Z</time>
      </trkpt>
      <trkpt lat="44.20313" lon="9.77907">
        <ele>66.95</ele>
        <time>2016-10-08T13:06:12Z</time>
      </trkpt>
      <trkpt lat="44.20281" lon="9.77956">
        <ele>66.95</ele>
        <time>2016-10-08T13:06:20Z</time>
      </trkpt>
      <trkpt lat="44.20252" lon="9.78071">
        <ele>65.99</ele>
        <time>2016-10-08T13:06:34Z</time>
      </trkpt>
      <trkpt lat="44.20216" lon="9.78238">
        <ele>64.07</ele>
        <time>2016-10-08T13:06:54Z</time>
      </trkpt>
      <trkpt lat="44.20185" lon="9.7839">
        <ele>65.51</ele>
        <time>2016-10-08T13:07:12Z</time>
      </trkpt>
      <trkpt lat="44.20184" lon="9.78408">
        <ele>64.55</ele>
        <time>2016-10-08T13:07:14Z</time>
      </trkpt>
      <trkpt lat="44.20185" lon="9.78417">
        <ele>65.03</ele>
        <time>2016-10-08T13:07:15Z</time>
      </trkpt>
      <trkpt lat="44.20188" lon="9.78434">
        <ele>65.03</ele>
        <time>2016-10-08T13:07:17Z</time>
      </trkpt>
      <trkpt lat="44.20192" lon="9.78452">
        <ele>64.55</ele>
        <time>2016-10-08T13:07:19Z</time>
      </trkpt>
      <trkpt lat="44.20195" lon="9.7846">
        <ele>64.55</ele>
        <time>2016-10-08T13:07:20Z</time>
      </trkpt>
      <trkpt lat="44.20207" lon="9.78493">
        <ele>64.55</ele>
        <time>2016-10-08T13:07:24Z</time>
      </trkpt>
      <trkpt lat="44.20211" lon="9.785">
        <ele>64.07</ele>
        <time>2016-10-08T13:07:25Z</time>
      </trkpt>
      <trkpt lat="44.20215" lon="9.78507">
        <ele>64.55</ele>
        <time>2016-10-08T13:07:26Z</time>
      </trkpt>
      <trkpt lat="44.20242" lon="9.78542">
        <ele>64.07</ele>
        <time>2016-10-08T13:07:32Z</time>
      </trkpt>
      <trkpt lat="44.20247" lon="9.78547">
        <ele>64.07</ele>
        <time>2016-10-08T13:07:33Z</time>
      </trkpt>
      <trkpt lat="44.20253" lon="9.7855">
        <ele>63.58</ele>
        <time>2016-10-08T13:07:34Z</time>
      </trkpt>
      <trkpt lat="44.2026" lon="9.78553">
        <ele>64.07</ele>
        <time>2016-10-08T13:07:35Z</time>
      </trkpt>
      <trkpt lat="44.20266" lon="9.78555">
        <ele>63.58</ele>
        <time>2016-10-08T13:07:36Z</time>
      </trkpt>
      <trkpt lat="44.20273" lon="9.78555">
        <ele>63.1</ele>
        <time>2016-10-08T13:07:37Z</time>
      </trkpt>
      <trkpt lat="44.20279" lon="9.78555">
        <ele>62.62</ele>
        <time>2016-10-08T13:07:38Z</time>
      </trkpt>
      <trkpt lat="44.20286" lon="9.78554">
        <ele>62.62</ele>
        <time>2016-10-08T13:07:39Z</time>
      </trkpt>
      <trkpt lat="44.20293" lon="9.78553">
        <ele>62.62</ele>
        <time>2016-10-08T13:07:40Z</time>
      </trkpt>
      <trkpt lat="44.20384" lon="9.78544">
        <ele>61.66</ele>
        <time>2016-10-08T13:07:54Z</time>
      </trkpt>
      <trkpt lat="44.2039" lon="9.78544">
        <ele>61.18</ele>
        <time>2016-10-08T13:07:55Z</time>
      </trkpt>
      <trkpt lat="44.20395" lon="9.78548">
        <ele>60.7</ele>
        <time>2016-10-08T13:07:56Z</time>
      </trkpt>
      <trkpt lat="44.204" lon="9.78553">
        <ele>60.7</ele>
        <time>2016-10-08T13:07:57Z</time>
      </trkpt>
      <trkpt lat="44.20405" lon="9.78559">
        <ele>59.74</ele>
        <time>2016-10-08T13:07:58Z</time>
      </trkpt>
      <trkpt lat="44.20409" lon="9.78565">
        <ele>59.74</ele>
        <time>2016-10-08T13:07:59Z</time>
      </trkpt>
      <trkpt lat="44.20414" lon="9.7857">
        <ele>59.74</ele>
        <time>2016-10-08T13:08:00Z</time>
      </trkpt>
      <trkpt lat="44.2042" lon="9.78573">
        <ele>60.22</ele>
        <time>2016-10-08T13:08:01Z</time>
      </trkpt>
      <trkpt lat="44.20426" lon="9.78572">
        <ele>60.22</ele>
        <time>2016-10-08T13:08:02Z</time>
      </trkpt>
      <trkpt lat="44.20431" lon="9.78568">
        <ele>60.22</ele>
        <time>2016-10-08T13:08:03Z</time>
      </trkpt>
      <trkpt lat="44.20436" lon="9.78564">
        <ele>60.7</ele>
        <time>2016-10-08T13:08:04Z</time>
      </trkpt>
      <trkpt lat="44.20441" lon="9.78561">
        <ele>60.7</ele>
        <time>2016-10-08T13:08:05Z</time>
      </trkpt>
      <trkpt lat="44.20446" lon="9.7856">
        <ele>60.7</ele>
        <time>2016-10-08T13:08:06Z</time>
      </trkpt>
      <trkpt lat="44.2045" lon="9.78559">
        <ele>61.18</ele>
        <time>2016-10-08T13:08:07Z</time>
      </trkpt>
      <trkpt lat="44.20455" lon="9.78559">
        <ele>61.66</ele>
        <time>2016-10-08T13:08:08Z</time>
      </trkpt>
      <trkpt lat="44.2046" lon="9.7856">
        <ele>61.66</ele>
        <time>2016-10-08T13:08:09Z</time>
      </trkpt>
      <trkpt lat="44.20536" lon="9.7858">
        <ele>63.1</ele>
        <time>2016-10-08T13:08:24Z</time>
      </trkpt>
      <trkpt lat="44.20619" lon="9.78603">
        <ele>64.55</ele>
        <time>2016-10-08T13:08:41Z</time>
      </trkpt>
      <trkpt lat="44.20655" lon="9.78629">
        <ele>65.51</ele>
        <time>2016-10-08T13:08:49Z</time>
      </trkpt>
      <trkpt lat="44.20659" lon="9.78635">
        <ele>65.03</ele>
        <time>2016-10-08T13:08:50Z</time>
      </trkpt>
      <trkpt lat="44.20663" lon="9.78641">
        <ele>65.03</ele>
        <time>2016-10-08T13:08:51Z</time>
      </trkpt>
      <trkpt lat="44.20666" lon="9.78647">
        <ele>65.03</ele>
        <time>2016-10-08T13:08:52Z</time>
      </trkpt>
      <trkpt lat="44.20669" lon="9.78654">
        <ele>65.03</ele>
        <time>2016-10-08T13:08:53Z</time>
      </trkpt>
      <trkpt lat="44.20686" lon="9.78756">
        <ele>64.07</ele>
        <time>2016-10-08T13:09:06Z</time>
      </trkpt>
      <trkpt lat="44.20692" lon="9.78845">
        <ele>64.55</ele>
        <time>2016-10-08T13:09:17Z</time>
      </trkpt>
      <trkpt lat="44.20679" lon="9.78979">
        <ele>64.55</ele>
        <time>2016-10-08T13:09:33Z</time>
      </trkpt>
      <trkpt lat="44.20677" lon="9.78997">
        <ele>64.07</ele>
        <time>2016-10-08T13:09:35Z</time>
      </trkpt>
      <trkpt lat="44.20666" lon="9.79108">
        <ele>60.22</ele>
        <time>2016-10-08T13:09:46Z</time>
      </trkpt>
      <trkpt lat="44.20668" lon="9.79187">
        <ele>60.22</ele>
        <time>2016-10-08T13:09:53Z</time>
      </trkpt>
      <trkpt lat="44.2067" lon="9.79198">
        <ele>60.7</ele>
        <time>2016-10-08T13:09:54Z</time>
      </trkpt>
      <trkpt lat="44.20673" lon="9.79209">
        <ele>60.7</ele>
        <time>2016-10-08T13:09:55Z</time>
      </trkpt>
      <trkpt lat="44.20677" lon="9.79219">
        <ele>61.18</ele>
        <time>2016-10-08T13:09:56Z</time>
      </trkpt>
      <trkpt lat="44.20681" lon="9.79229">
        <ele>60.22</ele>
        <time>2016-10-08T13:09:57Z</time>
      </trkpt>
      <trkpt lat="44.20685" lon="9.79238">
        <ele>60.22</ele>
        <time>2016-10-08T13:09:58Z</time>
      </trkpt>
      <trkpt lat="44.20718" lon="9.79348">
        <ele>59.74</ele>
        <time>2016-10-08T13:10:09Z</time>
      </trkpt>
      <trkpt lat="44.20725" lon="9.79453">
        <ele>60.7</ele>
        <time>2016-10-08T13:10:21Z</time>
      </trkpt>
      <trkpt lat="44.20719" lon="9.79519">
        <ele>58.3</ele>
        <time>2016-10-08T13:10:28Z</time>
      </trkpt>
      <trkpt lat="44.20718" lon="9.7967">
        <ele>57.34</ele>
        <time>2016-10-08T13:10:42Z</time>
      </trkpt>
      <trkpt lat="44.20716" lon="9.79698">
        <ele>57.34</ele>
        <time>2016-10-08T13:10:45Z</time>
      </trkpt>
      <trkpt lat="44.20687" lon="9.79832">
        <ele>59.26</ele>
        <time>2016-10-08T13:11:02Z</time>
      </trkpt>
      <trkpt lat="44.20661" lon="9.79954">
        <ele>59.74</ele>
        <time>2016-10-08T13:11:19Z</time>
      </trkpt>
      <trkpt lat="44.20613" lon="9.80114">
        <ele>57.82</ele>
        <time>2016-10-08T13:11:40Z</time>
      </trkpt>
      <trkpt lat="44.20534" lon="9.80229">
        <ele>59.26</ele>
        <time>2016-10-08T13:11:58Z</time>
      </trkpt>
      <trkpt lat="44.2046" lon="9.80331">
        <ele>60.7</ele>
        <time>2016-10-08T13:12:15Z</time>
      </trkpt>
      <trkpt lat="44.20396" lon="9.80405">
        <ele>61.18</ele>
        <time>2016-10-08T13:12:30Z</time>
      </trkpt>
      <trkpt lat="44.20327" lon="9.80475">
        <ele>62.14</ele>
        <time>2016-10-08T13:12:46Z</time>
      </trkpt>
      <trkpt lat="44.20256" lon="9.80547">
        <ele>62.14</ele>
        <time>2016-10-08T13:13:02Z</time>
      </trkpt>
      <trkpt lat="44.20186" lon="9.80618">
        <ele>63.58</ele>
        <time>2016-10-08T13:13:18Z</time>
      </trkpt>
      <trkpt lat="44.2014" lon="9.80667">
        <ele>64.07</ele>
        <time>2016-10-08T13:13:29Z</time>
      </trkpt>
      <trkpt lat="44.20112" lon="9.80722">
        <ele>62.14</ele>
        <time>2016-10-08T13:13:37Z</time>
      </trkpt>
      <trkpt lat="44.20085" lon="9.80755">
        <ele>59.26</ele>
        <time>2016-10-08T13:13:42Z</time>
      </trkpt>
      <trkpt lat="44.20079" lon="9.80762">
        <ele>59.74</ele>
        <time>2016-10-08T13:13:43Z</time>
      </trkpt>
      <trkpt lat="44.20036" lon="9.80841">
        <ele>56.86</ele>
        <time>2016-10-08T13:13:52Z</time>
      </trkpt>
      <trkpt lat="44.20011" lon="9.80888">
        <ele>54.93</ele>
        <time>2016-10-08T13:13:57Z</time>
      </trkpt>
      <trkpt lat="44.19977" lon="9.8097">
        <ele>53.01</ele>
        <time>2016-10-08T13:14:05Z</time>
      </trkpt>
      <trkpt lat="44.19974" lon="9.81002">
        <ele>53.01</ele>
        <time>2016-10-08T13:14:08Z</time>
      </trkpt>
      <trkpt lat="44.1999" lon="9.81147">
        <ele>52.05</ele>
        <time>2016-10-08T13:14:22Z</time>
      </trkpt>
      <trkpt lat="44.19993" lon="9.81157">
        <ele>51.09</ele>
        <time>2016-10-08T13:14:23Z</time>
      </trkpt>
      <trkpt lat="44.19999" lon="9.81178">
        <ele>50.61</ele>
        <time>2016-10-08T13:14:25Z</time>
      </trkpt>
      <trkpt lat="44.20001" lon="9.8119">
        <ele>50.13</ele>
        <time>2016-10-08T13:14:26Z</time>
      </trkpt>
      <trkpt lat="44.20001" lon="9.81201">
        <ele>49.16</ele>
        <time>2016-10-08T13:14:27Z</time>
      </trkpt>
      <trkpt lat="44.2" lon="9.81212">
        <ele>48.68</ele>
        <time>2016-10-08T13:14:28Z</time>
      </trkpt>
      <trkpt lat="44.19997" lon="9.81223">
        <ele>48.68</ele>
        <time>2016-10-08T13:14:29Z</time>
      </trkpt>
      <trkpt lat="44.19994" lon="9.81234">
        <ele>47.24</ele>
        <time>2016-10-08T13:14:30Z</time>
      </trkpt>
      <trkpt lat="44.19954" lon="9.81394">
        <ele>47.72</ele>
        <time>2016-10-08T13:14:45Z</time>
      </trkpt>
      <trkpt lat="44.19931" lon="9.81507">
        <ele>48.68</ele>
        <time>2016-10-08T13:14:58Z</time>
      </trkpt>
      <trkpt lat="44.19926" lon="9.81615">
        <ele>50.61</ele>
        <time>2016-10-08T13:15:12Z</time>
      </trkpt>
      <trkpt lat="44.19906" lon="9.81694">
        <ele>52.05</ele>
        <time>2016-10-08T13:15:26Z</time>
      </trkpt>
      <trkpt lat="44.19893" lon="9.81758">
        <ele>53.01</ele>
        <time>2016-10-08T13:15:38Z</time>
      </trkpt>
      <trkpt lat="44.19887" lon="9.81788">
        <ele>53.49</ele>
        <time>2016-10-08T13:15:43Z</time>
      </trkpt>
      <trkpt lat="44.19859" lon="9.81845">
        <ele>55.41</ele>
        <time>2016-10-08T13:15:56Z</time>
      </trkpt>
      <trkpt lat="44.19857" lon="9.81918">
        <ele>55.41</ele>
        <time>2016-10-08T13:16:09Z</time>
      </trkpt>
      <trkpt lat="44.19864" lon="9.82036">
        <ele>55.89</ele>
        <time>2016-10-08T13:16:28Z</time>
      </trkpt>
      <trkpt lat="44.1988" lon="9.82148">
        <ele>55.41</ele>
        <time>2016-10-08T13:16:45Z</time>
      </trkpt>
      <trkpt lat="44.19922" lon="9.82224">
        <ele>54.45</ele>
        <time>2016-10-08T13:16:58Z</time>
      </trkpt>
      <trkpt lat="44.19931" lon="9.82248">
        <ele>55.41</ele>
        <time>2016-10-08T13:17:02Z</time>
      </trkpt>
      <trkpt lat="44.19934" lon="9.82253">
        <ele>55.41</ele>
        <time>2016-10-08T13:17:03Z</time>
      </trkpt>
      <trkpt lat="44.19936" lon="9.82258">
        <ele>55.89</ele>
        <time>2016-10-08T13:17:04Z</time>
      </trkpt>
      <trkpt lat="44.19939" lon="9.82263">
        <ele>55.89</ele>
        <time>2016-10-08T13:17:05Z</time>
      </trkpt>
      <trkpt lat="44.19941" lon="9.82268">
        <ele>55.89</ele>
        <time>2016-10-08T13:17:06Z</time>
      </trkpt>
      <trkpt lat="44.19944" lon="9.82272">
        <ele>55.89</ele>
        <time>2016-10-08T13:17:07Z</time>
      </trkpt>
      <trkpt lat="44.19948" lon="9.82276">
        <ele>56.37</ele>
        <time>2016-10-08T13:17:08Z</time>
      </trkpt>
      <trkpt lat="44.19951" lon="9.8228">
        <ele>55.89</ele>
        <time>2016-10-08T13:17:09Z</time>
      </trkpt>
      <trkpt lat="44.19975" lon="9.82303">
        <ele>56.37</ele>
        <time>2016-10-08T13:17:15Z</time>
      </trkpt>
      <trkpt lat="44.20001" lon="9.82337">
        <ele>55.41</ele>
        <time>2016-10-08T13:17:22Z</time>
      </trkpt>
      <trkpt lat="44.20004" lon="9.82344">
        <ele>55.41</ele>
        <time>2016-10-08T13:17:23Z</time>
      </trkpt>
      <trkpt lat="44.20005" lon="9.82351">
        <ele>54.93</ele>
        <time>2016-10-08T13:17:24Z</time>
      </trkpt>
      <trkpt lat="44.20006" lon="9.82358">
        <ele>54.93</ele>
        <time>2016-10-08T13:17:25Z</time>
      </trkpt>
      <trkpt lat="44.20006" lon="9.82365">
        <ele>54.93</ele>
        <time>2016-10-08T13:17:26Z</time>
      </trkpt>
      <trkpt lat="44.20004" lon="9.82474">
        <ele>54.93</ele>
        <time>2016-10-08T13:17:40Z</time>
      </trkpt>
      <trkpt lat="44.20001" lon="9.82628">
        <ele>55.41</ele>
        <time>2016-10-08T13:17:59Z</time>
      </trkpt>
      <trkpt lat="44.2" lon="9.82699">
        <ele>56.86</ele>
        <time>2016-10-08T13:18:09Z</time>
      </trkpt>
      <trkpt lat="44.19999" lon="9.82746">
        <ele>58.78</ele>
        <time>2016-10-08T13:18:23Z</time>
      </trkpt>
      <trkpt lat="44.19998" lon="9.828">
        <ele>60.7</ele>
        <time>2016-10-08T13:18:39Z</time>
      </trkpt>
      <trkpt lat="44.19994" lon="9.82854">
        <ele>62.62</ele>
        <time>2016-10-08T13:18:56Z</time>
      </trkpt>
      <trkpt lat="44.19987" lon="9.82899">
        <ele>64.55</ele>
        <time>2016-10-08T13:19:10Z</time>
      </trkpt>
      <trkpt lat="44.19975" lon="9.82953">
        <ele>64.55</ele>
        <time>2016-10-08T13:19:24Z</time>
      </trkpt>
      <trkpt lat="44.19961" lon="9.83049">
        <ele>60.7</ele>
        <time>2016-10-08T13:19:37Z</time>
      </trkpt>
      <trkpt lat="44.1996" lon="9.83057">
        <ele>61.18</ele>
        <time>2016-10-08T13:19:38Z</time>
      </trkpt>
      <trkpt lat="44.19961" lon="9.83066">
        <ele>61.18</ele>
        <time>2016-10-08T13:19:39Z</time>
      </trkpt>
      <trkpt lat="44.19961" lon="9.83075">
        <ele>61.18</ele>
        <time>2016-10-08T13:19:40Z</time>
      </trkpt>
      <trkpt lat="44.19963" lon="9.83085">
        <ele>60.7</ele>
        <time>2016-10-08T13:19:41Z</time>
      </trkpt>
      <trkpt lat="44.19964" lon="9.83104">
        <ele>58.78</ele>
        <time>2016-10-08T13:19:43Z</time>
      </trkpt>
      <trkpt lat="44.19964" lon="9.83114">
        <ele>59.26</ele>
        <time>2016-10-08T13:19:44Z</time>
      </trkpt>
      <trkpt lat="44.19962" lon="9.83143">
        <ele>58.3</ele>
        <time>2016-10-08T13:19:47Z</time>
      </trkpt>
      <trkpt lat="44.19964" lon="9.83153">
        <ele>57.34</ele>
        <time>2016-10-08T13:19:48Z</time>
      </trkpt>
      <trkpt lat="44.19976" lon="9.8322">
        <ele>57.34</ele>
        <time>2016-10-08T13:19:55Z</time>
      </trkpt>
      <trkpt lat="44.19977" lon="9.8323">
        <ele>57.34</ele>
        <time>2016-10-08T13:19:56Z</time>
      </trkpt>
      <trkpt lat="44.19979" lon="9.83248">
        <ele>55.41</ele>
        <time>2016-10-08T13:19:58Z</time>
      </trkpt>
      <trkpt lat="44.19981" lon="9.83257">
        <ele>55.41</ele>
        <time>2016-10-08T13:19:59Z</time>
      </trkpt>
      <trkpt lat="44.19992" lon="9.8335">
        <ele>54.93</ele>
        <time>2016-10-08T13:20:09Z</time>
      </trkpt>
      <trkpt lat="44.19992" lon="9.8336">
        <ele>54.45</ele>
        <time>2016-10-08T13:20:10Z</time>
      </trkpt>
      <trkpt lat="44.19991" lon="9.83369">
        <ele>54.45</ele>
        <time>2016-10-08T13:20:11Z</time>
      </trkpt>
      <trkpt lat="44.19989" lon="9.83378">
        <ele>53.97</ele>
        <time>2016-10-08T13:20:12Z</time>
      </trkpt>
      <trkpt lat="44.19987" lon="9.83387">
        <ele>53.97</ele>
        <time>2016-10-08T13:20:13Z</time>
      </trkpt>
      <trkpt lat="44.19984" lon="9.83396">
        <ele>53.49</ele>
        <time>2016-10-08T13:20:14Z</time>
      </trkpt>
      <trkpt lat="44.19981" lon="9.83406">
        <ele>53.97</ele>
        <time>2016-10-08T13:20:15Z</time>
      </trkpt>
      <trkpt lat="44.19971" lon="9.8347">
        <ele>51.09</ele>
        <time>2016-10-08T13:20:21Z</time>
      </trkpt>
      <trkpt lat="44.19966" lon="9.8352">
        <ele>49.16</ele>
        <time>2016-10-08T13:20:25Z</time>
      </trkpt>
      <trkpt lat="44.19966" lon="9.83574">
        <ele>45.8</ele>
        <time>2016-10-08T13:20:29Z</time>
      </trkpt>
      <trkpt lat="44.19966" lon="9.83631">
        <ele>43.88</ele>
        <time>2016-10-08T13:20:33Z</time>
      </trkpt>
      <trkpt lat="44.19968" lon="9.83659">
        <ele>42.44</ele>
        <time>2016-10-08T13:20:35Z</time>
      </trkpt>
      <trkpt lat="44.19986" lon="9.8381">
        <ele>39.55</ele>
        <time>2016-10-08T13:20:47Z</time>
      </trkpt>
      <trkpt lat="44.1999" lon="9.83868">
        <ele>39.55</ele>
        <time>2016-10-08T13:20:52Z</time>
      </trkpt>
      <trkpt lat="44.2002" lon="9.83986">
        <ele>40.99</ele>
        <time>2016-10-08T13:21:05Z</time>
      </trkpt>
      <trkpt lat="44.20033" lon="9.84062">
        <ele>41.95</ele>
        <time>2016-10-08T13:21:17Z</time>
      </trkpt>
      <trkpt lat="44.20059" lon="9.84135">
        <ele>43.4</ele>
        <time>2016-10-08T13:21:32Z</time>
      </trkpt>
      <trkpt lat="44.20064" lon="9.84219">
        <ele>43.88</ele>
        <time>2016-10-08T13:21:47Z</time>
      </trkpt>
      <trkpt lat="44.20065" lon="9.84231">
        <ele>43.4</ele>
        <time>2016-10-08T13:21:49Z</time>
      </trkpt>
      <trkpt lat="44.20067" lon="9.84258">
        <ele>43.88</ele>
        <time>2016-10-08T13:21:53Z</time>
      </trkpt>
      <trkpt lat="44.20068" lon="9.84264">
        <ele>43.88</ele>
        <time>2016-10-08T13:21:54Z</time>
      </trkpt>
      <trkpt lat="44.20069" lon="9.84271">
        <ele>43.88</ele>
        <time>2016-10-08T13:21:55Z</time>
      </trkpt>
      <trkpt lat="44.20078" lon="9.84346">
        <ele>44.36</ele>
        <time>2016-10-08T13:22:06Z</time>
      </trkpt>
      <trkpt lat="44.20078" lon="9.84353">
        <ele>43.88</ele>
        <time>2016-10-08T13:22:07Z</time>
      </trkpt>
      <trkpt lat="44.20078" lon="9.84367">
        <ele>44.36</ele>
        <time>2016-10-08T13:22:09Z</time>
      </trkpt>
      <trkpt lat="44.20077" lon="9.84373">
        <ele>43.4</ele>
        <time>2016-10-08T13:22:10Z</time>
      </trkpt>
      <trkpt lat="44.20066" lon="9.84432">
        <ele>45.32</ele>
        <time>2016-10-08T13:22:20Z</time>
      </trkpt>
      <trkpt lat="44.20064" lon="9.84438">
        <ele>45.8</ele>
        <time>2016-10-08T13:22:21Z</time>
      </trkpt>
      <trkpt lat="44.20061" lon="9.84442">
        <ele>45.8</ele>
        <time>2016-10-08T13:22:22Z</time>
      </trkpt>
      <trkpt lat="44.20046" lon="9.84467">
        <ele>45.8</ele>
        <time>2016-10-08T13:22:27Z</time>
      </trkpt>
      <trkpt lat="44.20036" lon="9.84489">
        <ele>45.32</ele>
        <time>2016-10-08T13:22:31Z</time>
      </trkpt>
      <trkpt lat="44.19989" lon="9.84592">
        <ele>42.44</ele>
        <time>2016-10-08T13:22:46Z</time>
      </trkpt>
      <trkpt lat="44.19948" lon="9.84717">
        <ele>40.03</ele>
        <time>2016-10-08T13:23:01Z</time>
      </trkpt>
      <trkpt lat="44.19916" lon="9.84874">
        <ele>40.03</ele>
        <time>2016-10-08T13:23:19Z</time>
      </trkpt>
      <trkpt lat="44.19911" lon="9.84889">
        <ele>39.55</ele>
        <time>2016-10-08T13:23:21Z</time>
      </trkpt>
      <trkpt lat="44.19904" lon="9.849">
        <ele>39.07</ele>
        <time>2016-10-08T13:23:23Z</time>
      </trkpt>
      <trkpt lat="44.199" lon="9.84905">
        <ele>39.07</ele>
        <time>2016-10-08T13:23:24Z</time>
      </trkpt>
      <trkpt lat="44.19896" lon="9.84908">
        <ele>39.07</ele>
        <time>2016-10-08T13:23:25Z</time>
      </trkpt>
      <trkpt lat="44.19891" lon="9.8491">
        <ele>39.07</ele>
        <time>2016-10-08T13:23:26Z</time>
      </trkpt>
      <trkpt lat="44.19886" lon="9.84912">
        <ele>39.55</ele>
        <time>2016-10-08T13:23:27Z</time>
      </trkpt>
      <trkpt lat="44.1988" lon="9.84913">
        <ele>39.07</ele>
        <time>2016-10-08T13:23:28Z</time>
      </trkpt>
      <trkpt lat="44.19874" lon="9.84914">
        <ele>39.07</ele>
        <time>2016-10-08T13:23:29Z</time>
      </trkpt>
      <trkpt lat="44.19863" lon="9.84914">
        <ele>39.07</ele>
        <time>2016-10-08T13:23:31Z</time>
      </trkpt>
      <trkpt lat="44.19779" lon="9.84911">
        <ele>39.55</ele>
        <time>2016-10-08T13:23:49Z</time>
      </trkpt>
      <trkpt lat="44.19718" lon="9.84912">
        <ele>40.03</ele>
        <time>2016-10-08T13:24:06Z</time>
      </trkpt>
      <trkpt lat="44.19715" lon="9.84911">
        <ele>40.51</ele>
        <time>2016-10-08T13:24:21Z</time>
      </trkpt>
      <trkpt lat="44.19713" lon="9.84912">
        <ele>40.51</ele>
        <time>2016-10-08T13:24:56Z</time>
      </trkpt>
      <trkpt lat="44.19707" lon="9.84923">
        <ele>40.99</ele>
        <time>2016-10-08T13:25:15Z</time>
      </trkpt>
      <trkpt lat="44.19696" lon="9.84963">
        <ele>41.47</ele>
        <time>2016-10-08T13:25:27Z</time>
      </trkpt>
      <trkpt lat="44.19682" lon="9.85025">
        <ele>42.92</ele>
        <time>2016-10-08T13:25:43Z</time>
      </trkpt>
      <trkpt lat="44.19664" lon="9.85097">
        <ele>42.92</ele>
        <time>2016-10-08T13:25:57Z</time>
      </trkpt>
      <trkpt lat="44.19661" lon="9.85108">
        <ele>42.92</ele>
        <time>2016-10-08T13:25:59Z</time>
      </trkpt>
      <trkpt lat="44.19658" lon="9.85113">
        <ele>42.92</ele>
        <time>2016-10-08T13:26:00Z</time>
      </trkpt>
      <trkpt lat="44.19655" lon="9.85118">
        <ele>42.92</ele>
        <time>2016-10-08T13:26:01Z</time>
      </trkpt>
      <trkpt lat="44.19652" lon="9.85121">
        <ele>42.44</ele>
        <time>2016-10-08T13:26:02Z</time>
      </trkpt>
      <trkpt lat="44.19648" lon="9.85124">
        <ele>42.92</ele>
        <time>2016-10-08T13:26:03Z</time>
      </trkpt>
      <trkpt lat="44.19644" lon="9.85126">
        <ele>42.92</ele>
        <time>2016-10-08T13:26:04Z</time>
      </trkpt>
      <trkpt lat="44.19636" lon="9.85132">
        <ele>42.92</ele>
        <time>2016-10-08T13:26:06Z</time>
      </trkpt>
      <trkpt lat="44.19632" lon="9.85136">
        <ele>42.92</ele>
        <time>2016-10-08T13:26:07Z</time>
      </trkpt>
      <trkpt lat="44.19628" lon="9.8514">
        <ele>42.92</ele>
        <time>2016-10-08T13:26:08Z</time>
      </trkpt>
      <trkpt lat="44.19625" lon="9.85146">
        <ele>42.44</ele>
        <time>2016-10-08T13:26:09Z</time>
      </trkpt>
      <trkpt lat="44.19623" lon="9.85152">
        <ele>43.4</ele>
        <time>2016-10-08T13:26:10Z</time>
      </trkpt>
      <trkpt lat="44.19621" lon="9.85158">
        <ele>42.92</ele>
        <time>2016-10-08T13:26:11Z</time>
      </trkpt>
      <trkpt lat="44.19617" lon="9.85171">
        <ele>42.44</ele>
        <time>2016-10-08T13:26:13Z</time>
      </trkpt>
      <trkpt lat="44.19614" lon="9.85178">
        <ele>42.92</ele>
        <time>2016-10-08T13:26:14Z</time>
      </trkpt>
      <trkpt lat="44.19611" lon="9.85183">
        <ele>42.92</ele>
        <time>2016-10-08T13:26:15Z</time>
      </trkpt>
      <trkpt lat="44.19608" lon="9.85188">
        <ele>42.92</ele>
        <time>2016-10-08T13:26:16Z</time>
      </trkpt>
      <trkpt lat="44.19603" lon="9.85191">
        <ele>42.44</ele>
        <time>2016-10-08T13:26:17Z</time>
      </trkpt>
      <trkpt lat="44.19599" lon="9.85194">
        <ele>42.92</ele>
        <time>2016-10-08T13:26:18Z</time>
      </trkpt>
      <trkpt lat="44.19594" lon="9.85196">
        <ele>42.92</ele>
        <time>2016-10-08T13:26:19Z</time>
      </trkpt>
      <trkpt lat="44.19589" lon="9.85198">
        <ele>42.44</ele>
        <time>2016-10-08T13:26:20Z</time>
      </trkpt>
      <trkpt lat="44.1952" lon="9.85216">
        <ele>41.95</ele>
        <time>2016-10-08T13:26:33Z</time>
      </trkpt>
      <trkpt lat="44.19515" lon="9.85217">
        <ele>42.44</ele>
        <time>2016-10-08T13:26:34Z</time>
      </trkpt>
      <trkpt lat="44.19506" lon="9.85217">
        <ele>42.44</ele>
        <time>2016-10-08T13:26:36Z</time>
      </trkpt>
      <trkpt lat="44.19431" lon="9.85216">
        <ele>42.44</ele>
        <time>2016-10-08T13:26:51Z</time>
      </trkpt>
      <trkpt lat="44.19378" lon="9.85206">
        <ele>41.47</ele>
        <time>2016-10-08T13:27:02Z</time>
      </trkpt>
      <trkpt lat="44.19363" lon="9.85188">
        <ele>41.47</ele>
        <time>2016-10-08T13:27:06Z</time>
      </trkpt>
      <trkpt lat="44.19352" lon="9.85175">
        <ele>41.47</ele>
        <time>2016-10-08T13:27:09Z</time>
      </trkpt>
      <trkpt lat="44.19326" lon="9.85134">
        <ele>42.44</ele>
        <time>2016-10-08T13:27:17Z</time>
      </trkpt>
      <trkpt lat="44.19323" lon="9.8513">
        <ele>41.95</ele>
        <time>2016-10-08T13:27:18Z</time>
      </trkpt>
      <trkpt lat="44.19319" lon="9.85126">
        <ele>41.47</ele>
        <time>2016-10-08T13:27:19Z</time>
      </trkpt>
      <trkpt lat="44.19305" lon="9.85117">
        <ele>41.95</ele>
        <time>2016-10-08T13:27:22Z</time>
      </trkpt>
      <trkpt lat="44.19301" lon="9.85116">
        <ele>41.95</ele>
        <time>2016-10-08T13:27:23Z</time>
      </trkpt>
      <trkpt lat="44.19291" lon="9.85113">
        <ele>42.44</ele>
        <time>2016-10-08T13:27:25Z</time>
      </trkpt>
      <trkpt lat="44.19286" lon="9.85112">
        <ele>41.95</ele>
        <time>2016-10-08T13:27:26Z</time>
      </trkpt>
      <trkpt lat="44.19281" lon="9.85113">
        <ele>42.44</ele>
        <time>2016-10-08T13:27:27Z</time>
      </trkpt>
      <trkpt lat="44.19276" lon="9.85115">
        <ele>42.92</ele>
        <time>2016-10-08T13:27:28Z</time>
      </trkpt>
      <trkpt lat="44.19272" lon="9.85118">
        <ele>41.95</ele>
        <time>2016-10-08T13:27:29Z</time>
      </trkpt>
      <trkpt lat="44.19267" lon="9.85121">
        <ele>42.44</ele>
        <time>2016-10-08T13:27:30Z</time>
      </trkpt>
      <trkpt lat="44.19263" lon="9.85125">
        <ele>42.92</ele>
        <time>2016-10-08T13:27:31Z</time>
      </trkpt>
      <trkpt lat="44.19214" lon="9.85169">
        <ele>42.92</ele>
        <time>2016-10-08T13:27:43Z</time>
      </trkpt>
      <trkpt lat="44.19197" lon="9.85182">
        <ele>42.44</ele>
        <time>2016-10-08T13:27:47Z</time>
      </trkpt>
      <trkpt lat="44.19192" lon="9.85185">
        <ele>42.92</ele>
        <time>2016-10-08T13:27:48Z</time>
      </trkpt>
      <trkpt lat="44.19122" lon="9.85227">
        <ele>42.92</ele>
        <time>2016-10-08T13:28:04Z</time>
      </trkpt>
      <trkpt lat="44.19107" lon="9.85237">
        <ele>43.88</ele>
        <time>2016-10-08T13:28:08Z</time>
      </trkpt>
      <trkpt lat="44.19051" lon="9.85265">
        <ele>44.84</ele>
        <time>2016-10-08T13:28:21Z</time>
      </trkpt>
      <trkpt lat="44.19032" lon="9.85266">
        <ele>43.88</ele>
        <time>2016-10-08T13:28:25Z</time>
      </trkpt>
      <trkpt lat="44.19022" lon="9.85264">
        <ele>44.36</ele>
        <time>2016-10-08T13:28:27Z</time>
      </trkpt>
      <trkpt lat="44.19" lon="9.85255">
        <ele>44.84</ele>
        <time>2016-10-08T13:28:32Z</time>
      </trkpt>
      <trkpt lat="44.18996" lon="9.85254">
        <ele>44.36</ele>
        <time>2016-10-08T13:28:33Z</time>
      </trkpt>
      <trkpt lat="44.18971" lon="9.85241">
        <ele>45.32</ele>
        <time>2016-10-08T13:28:39Z</time>
      </trkpt>
      <trkpt lat="44.18967" lon="9.85239">
        <ele>45.32</ele>
        <time>2016-10-08T13:28:40Z</time>
      </trkpt>
      <trkpt lat="44.18918" lon="9.85213">
        <ele>47.72</ele>
        <time>2016-10-08T13:28:54Z</time>
      </trkpt>
      <trkpt lat="44.18873" lon="9.85204">
        <ele>48.2</ele>
        <time>2016-10-08T13:29:07Z</time>
      </trkpt>
      <trkpt lat="44.18814" lon="9.85212">
        <ele>49.16</ele>
        <time>2016-10-08T13:29:22Z</time>
      </trkpt>
      <trkpt lat="44.18751" lon="9.85214">
        <ele>49.65</ele>
        <time>2016-10-08T13:29:38Z</time>
      </trkpt>
      <trkpt lat="44.18695" lon="9.8522">
        <ele>51.09</ele>
        <time>2016-10-08T13:29:51Z</time>
      </trkpt>
      <trkpt lat="44.18691" lon="9.85221">
        <ele>50.61</ele>
        <time>2016-10-08T13:29:52Z</time>
      </trkpt>
      <trkpt lat="44.18687" lon="9.85223">
        <ele>51.09</ele>
        <time>2016-10-08T13:29:53Z</time>
      </trkpt>
      <trkpt lat="44.18684" lon="9.85226">
        <ele>51.09</ele>
        <time>2016-10-08T13:29:54Z</time>
      </trkpt>
      <trkpt lat="44.1868" lon="9.8523">
        <ele>51.09</ele>
        <time>2016-10-08T13:29:55Z</time>
      </trkpt>
      <trkpt lat="44.18677" lon="9.85234">
        <ele>51.09</ele>
        <time>2016-10-08T13:29:56Z</time>
      </trkpt>
      <trkpt lat="44.1867" lon="9.85244">
        <ele>51.09</ele>
        <time>2016-10-08T13:29:58Z</time>
      </trkpt>
      <trkpt lat="44.1862" lon="9.85305">
        <ele>51.09</ele>
        <time>2016-10-08T13:30:12Z</time>
      </trkpt>
      <trkpt lat="44.1861" lon="9.85308">
        <ele>51.09</ele>
        <time>2016-10-08T13:30:14Z</time>
      </trkpt>
      <trkpt lat="44.18604" lon="9.85309">
        <ele>51.09</ele>
        <time>2016-10-08T13:30:15Z</time>
      </trkpt>
      <trkpt lat="44.18502" lon="9.85311">
        <ele>49.65</ele>
        <time>2016-10-08T13:30:34Z</time>
      </trkpt>
      <trkpt lat="44.18429" lon="9.85314">
        <ele>49.16</ele>
        <time>2016-10-08T13:30:46Z</time>
      </trkpt>
      <trkpt lat="44.18423" lon="9.85317">
        <ele>50.13</ele>
        <time>2016-10-08T13:30:47Z</time>
      </trkpt>
      <trkpt lat="44.18418" lon="9.8532">
        <ele>49.65</ele>
        <time>2016-10-08T13:30:48Z</time>
      </trkpt>
      <trkpt lat="44.18413" lon="9.85324">
        <ele>49.16</ele>
        <time>2016-10-08T13:30:49Z</time>
      </trkpt>
      <trkpt lat="44.18408" lon="9.85329">
        <ele>49.16</ele>
        <time>2016-10-08T13:30:50Z</time>
      </trkpt>
      <trkpt lat="44.18403" lon="9.85334">
        <ele>50.13</ele>
        <time>2016-10-08T13:30:51Z</time>
      </trkpt>
      <trkpt lat="44.18393" lon="9.85343">
        <ele>49.16</ele>
        <time>2016-10-08T13:30:53Z</time>
      </trkpt>
      <trkpt lat="44.18387" lon="9.85346">
        <ele>49.16</ele>
        <time>2016-10-08T13:30:54Z</time>
      </trkpt>
      <trkpt lat="44.18382" lon="9.85349">
        <ele>49.65</ele>
        <time>2016-10-08T13:30:55Z</time>
      </trkpt>
      <trkpt lat="44.18376" lon="9.8535">
        <ele>48.68</ele>
        <time>2016-10-08T13:30:56Z</time>
      </trkpt>
      <trkpt lat="44.1837" lon="9.85351">
        <ele>48.68</ele>
        <time>2016-10-08T13:30:57Z</time>
      </trkpt>
      <trkpt lat="44.18364" lon="9.85351">
        <ele>49.16</ele>
        <time>2016-10-08T13:30:58Z</time>
      </trkpt>
      <trkpt lat="44.18358" lon="9.8535">
        <ele>48.68</ele>
        <time>2016-10-08T13:30:59Z</time>
      </trkpt>
      <trkpt lat="44.18352" lon="9.85349">
        <ele>48.68</ele>
        <time>2016-10-08T13:31:00Z</time>
      </trkpt>
      <trkpt lat="44.18346" lon="9.85347">
        <ele>48.2</ele>
        <time>2016-10-08T13:31:01Z</time>
      </trkpt>
      <trkpt lat="44.18334" lon="9.85345">
        <ele>49.16</ele>
        <time>2016-10-08T13:31:03Z</time>
      </trkpt>
      <trkpt lat="44.18329" lon="9.85345">
        <ele>49.16</ele>
        <time>2016-10-08T13:31:04Z</time>
      </trkpt>
      <trkpt lat="44.18323" lon="9.85346">
        <ele>49.65</ele>
        <time>2016-10-08T13:31:05Z</time>
      </trkpt>
      <trkpt lat="44.18317" lon="9.85348">
        <ele>49.16</ele>
        <time>2016-10-08T13:31:06Z</time>
      </trkpt>
      <trkpt lat="44.18312" lon="9.8535">
        <ele>49.16</ele>
        <time>2016-10-08T13:31:07Z</time>
      </trkpt>
      <trkpt lat="44.18288" lon="9.85359">
        <ele>48.2</ele>
        <time>2016-10-08T13:31:11Z</time>
      </trkpt>
      <trkpt lat="44.18281" lon="9.8536">
        <ele>47.24</ele>
        <time>2016-10-08T13:31:12Z</time>
      </trkpt>
      <trkpt lat="44.18275" lon="9.8536">
        <ele>48.2</ele>
        <time>2016-10-08T13:31:13Z</time>
      </trkpt>
      <trkpt lat="44.18222" lon="9.85353">
        <ele>46.28</ele>
        <time>2016-10-08T13:31:21Z</time>
      </trkpt>
      <trkpt lat="44.18215" lon="9.85353">
        <ele>46.28</ele>
        <time>2016-10-08T13:31:22Z</time>
      </trkpt>
      <trkpt lat="44.1811" lon="9.85379">
        <ele>42.92</ele>
        <time>2016-10-08T13:31:37Z</time>
      </trkpt>
      <trkpt lat="44.18059" lon="9.8539">
        <ele>40.51</ele>
        <time>2016-10-08T13:31:44Z</time>
      </trkpt>
      <trkpt lat="44.18051" lon="9.8539">
        <ele>40.51</ele>
        <time>2016-10-08T13:31:45Z</time>
      </trkpt>
      <trkpt lat="44.18043" lon="9.85388">
        <ele>40.03</ele>
        <time>2016-10-08T13:31:46Z</time>
      </trkpt>
      <trkpt lat="44.18035" lon="9.85384">
        <ele>40.03</ele>
        <time>2016-10-08T13:31:47Z</time>
      </trkpt>
      <trkpt lat="44.18027" lon="9.8538">
        <ele>40.03</ele>
        <time>2016-10-08T13:31:48Z</time>
      </trkpt>
      <trkpt lat="44.1802" lon="9.85376">
        <ele>39.55</ele>
        <time>2016-10-08T13:31:49Z</time>
      </trkpt>
      <trkpt lat="44.18012" lon="9.85374">
        <ele>38.59</ele>
        <time>2016-10-08T13:31:50Z</time>
      </trkpt>
      <trkpt lat="44.18004" lon="9.85373">
        <ele>39.07</ele>
        <time>2016-10-08T13:31:51Z</time>
      </trkpt>
      <trkpt lat="44.17997" lon="9.85374">
        <ele>39.07</ele>
        <time>2016-10-08T13:31:52Z</time>
      </trkpt>
      <trkpt lat="44.17989" lon="9.85375">
        <ele>38.59</ele>
        <time>2016-10-08T13:31:53Z</time>
      </trkpt>
      <trkpt lat="44.17903" lon="9.85408">
        <ele>39.07</ele>
        <time>2016-10-08T13:32:06Z</time>
      </trkpt>
      <trkpt lat="44.17826" lon="9.85453">
        <ele>37.63</ele>
        <time>2016-10-08T13:32:20Z</time>
      </trkpt>
      <trkpt lat="44.1782" lon="9.85454">
        <ele>38.59</ele>
        <time>2016-10-08T13:32:21Z</time>
      </trkpt>
      <trkpt lat="44.1777" lon="9.85462">
        <ele>38.59</ele>
        <time>2016-10-08T13:32:29Z</time>
      </trkpt>
      <trkpt lat="44.17698" lon="9.85507">
        <ele>35.71</ele>
        <time>2016-10-08T13:32:42Z</time>
      </trkpt>
      <trkpt lat="44.17632" lon="9.85552">
        <ele>36.19</ele>
        <time>2016-10-08T13:32:55Z</time>
      </trkpt>
      <trkpt lat="44.17542" lon="9.85608">
        <ele>35.23</ele>
        <time>2016-10-08T13:33:10Z</time>
      </trkpt>
      <trkpt lat="44.1743" lon="9.85656">
        <ele>34.74</ele>
        <time>2016-10-08T13:33:26Z</time>
      </trkpt>
      <trkpt lat="44.17408" lon="9.8566">
        <ele>34.26</ele>
        <time>2016-10-08T13:33:29Z</time>
      </trkpt>
      <trkpt lat="44.17402" lon="9.85659">
        <ele>33.78</ele>
        <time>2016-10-08T13:33:30Z</time>
      </trkpt>
      <trkpt lat="44.17326" lon="9.85629">
        <ele>33.78</ele>
        <time>2016-10-08T13:33:43Z</time>
      </trkpt>
      <trkpt lat="44.17239" lon="9.856">
        <ele>34.74</ele>
        <time>2016-10-08T13:33:59Z</time>
      </trkpt>
      <trkpt lat="44.17234" lon="9.85601">
        <ele>34.74</ele>
        <time>2016-10-08T13:34:00Z</time>
      </trkpt>
      <trkpt lat="44.17165" lon="9.85623">
        <ele>35.71</ele>
        <time>2016-10-08T13:34:14Z</time>
      </trkpt>
      <trkpt lat="44.17082" lon="9.85651">
        <ele>36.19</ele>
        <time>2016-10-08T13:34:30Z</time>
      </trkpt>
      <trkpt lat="44.17058" lon="9.85659">
        <ele>36.19</ele>
        <time>2016-10-08T13:34:35Z</time>
      </trkpt>
      <trkpt lat="44.16991" lon="9.85686">
        <ele>33.3</ele>
        <time>2016-10-08T13:34:46Z</time>
      </trkpt>
      <trkpt lat="44.16976" lon="9.85691">
        <ele>32.34</ele>
        <time>2016-10-08T13:34:48Z</time>
      </trkpt>
      <trkpt lat="44.16961" lon="9.85696">
        <ele>30.9</ele>
        <time>2016-10-08T13:34:50Z</time>
      </trkpt>
      <trkpt lat="44.16919" lon="9.85709">
        <ele>29.46</ele>
        <time>2016-10-08T13:34:55Z</time>
      </trkpt>
      <trkpt lat="44.16893" lon="9.85719">
        <ele>28.02</ele>
        <time>2016-10-08T13:34:58Z</time>
      </trkpt>
      <trkpt lat="44.16857" lon="9.85735">
        <ele>26.57</ele>
        <time>2016-10-08T13:35:02Z</time>
      </trkpt>
      <trkpt lat="44.16849" lon="9.85742">
        <ele>26.09</ele>
        <time>2016-10-08T13:35:03Z</time>
      </trkpt>
      <trkpt lat="44.16841" lon="9.85751">
        <ele>26.57</ele>
        <time>2016-10-08T13:35:04Z</time>
      </trkpt>
      <trkpt lat="44.16822" lon="9.85782">
        <ele>24.17</ele>
        <time>2016-10-08T13:35:07Z</time>
      </trkpt>
      <trkpt lat="44.16751" lon="9.85899">
        <ele>19.36</ele>
        <time>2016-10-08T13:35:19Z</time>
      </trkpt>
      <trkpt lat="44.16746" lon="9.85908">
        <ele>19.84</ele>
        <time>2016-10-08T13:35:20Z</time>
      </trkpt>
      <trkpt lat="44.16691" lon="9.85997">
        <ele>21.77</ele>
        <time>2016-10-08T13:35:31Z</time>
      </trkpt>
      <trkpt lat="44.16652" lon="9.8605">
        <ele>22.73</ele>
        <time>2016-10-08T13:35:39Z</time>
      </trkpt>
      <trkpt lat="44.1658" lon="9.86095">
        <ele>21.29</ele>
        <time>2016-10-08T13:35:51Z</time>
      </trkpt>
      <trkpt lat="44.16495" lon="9.86144">
        <ele>21.29</ele>
        <time>2016-10-08T13:36:05Z</time>
      </trkpt>
      <trkpt lat="44.16423" lon="9.86186">
        <ele>21.29</ele>
        <time>2016-10-08T13:36:18Z</time>
      </trkpt>
      <trkpt lat="44.16384" lon="9.86214">
        <ele>21.77</ele>
        <time>2016-10-08T13:36:28Z</time>
      </trkpt>
      <trkpt lat="44.16383" lon="9.86217">
        <ele>21.77</ele>
        <time>2016-10-08T13:36:29Z</time>
      </trkpt>
      <trkpt lat="44.16384" lon="9.86219">
        <ele>21.77</ele>
        <time>2016-10-08T13:36:30Z</time>
      </trkpt>
      <trkpt lat="44.16385" lon="9.86222">
        <ele>21.29</ele>
        <time>2016-10-08T13:36:31Z</time>
      </trkpt>
      <trkpt lat="44.16386" lon="9.86226">
        <ele>21.29</ele>
        <time>2016-10-08T13:36:32Z</time>
      </trkpt>
      <trkpt lat="44.16387" lon="9.86231">
        <ele>20.81</ele>
        <time>2016-10-08T13:36:33Z</time>
      </trkpt>
      <trkpt lat="44.16395" lon="9.86285">
        <ele>18.88</ele>
        <time>2016-10-08T13:36:42Z</time>
      </trkpt>
      <trkpt lat="44.16395" lon="9.86291">
        <ele>18.88</ele>
        <time>2016-10-08T13:36:43Z</time>
      </trkpt>
      <trkpt lat="44.16393" lon="9.86295">
        <ele>19.36</ele>
        <time>2016-10-08T13:36:44Z</time>
      </trkpt>
      <trkpt lat="44.1639" lon="9.86298">
        <ele>19.36</ele>
        <time>2016-10-08T13:36:45Z</time>
      </trkpt>
      <trkpt lat="44.16387" lon="9.863">
        <ele>19.84</ele>
        <time>2016-10-08T13:36:46Z</time>
      </trkpt>
      <trkpt lat="44.16382" lon="9.86304">
        <ele>19.36</ele>
        <time>2016-10-08T13:36:48Z</time>
      </trkpt>
      <trkpt lat="44.16383" lon="9.86315">
        <ele>19.84</ele>
        <time>2016-10-08T13:36:56Z</time>
      </trkpt>
      <trkpt lat="44.16384" lon="9.86314">
        <ele>20.32</ele>
        <time>2016-10-08T13:37:13Z</time>
      </trkpt>
      <trkpt lat="44.1638" lon="9.86317">
        <ele>20.81</ele>
        <time>2016-10-08T13:37:41Z</time>
      </trkpt>
      <trkpt lat="44.16383" lon="9.86315">
        <ele>20.81</ele>
        <time>2016-10-08T13:38:09Z</time>
      </trkpt>
      <trkpt lat="44.16382" lon="9.86314">
        <ele>19.84</ele>
        <time>2016-10-08T13:38:40Z</time>
      </trkpt>
      <trkpt lat="44.16381" lon="9.86312">
        <ele>19.84</ele>
        <time>2016-10-08T13:39:13Z</time>
      </trkpt>
      <trkpt lat="44.16384" lon="9.86312">
        <ele>19.84</ele>
        <time>2016-10-08T13:39:44Z</time>
      </trkpt>
      <trkpt lat="44.16389" lon="9.86308">
        <ele>20.81</ele>
        <time>2016-10-08T13:40:16Z</time>
      </trkpt>
      <trkpt lat="44.16385" lon="9.86308">
        <ele>20.81</ele>
        <time>2016-10-08T13:40:40Z</time>
      </trkpt>
      <trkpt lat="44.16381" lon="9.86307">
        <ele>21.29</ele>
        <time>2016-10-08T13:41:07Z</time>
      </trkpt>
      <trkpt lat="44.16383" lon="9.86306">
        <ele>20.81</ele>
        <time>2016-10-08T13:41:29Z</time>
      </trkpt>
      <trkpt lat="44.1638" lon="9.86301">
        <ele>21.29</ele>
        <time>2016-10-08T13:42:03Z</time>
      </trkpt>
      <trkpt lat="44.16379" lon="9.863">
        <ele>21.77</ele>
        <time>2016-10-08T13:42:36Z</time>
      </trkpt>
      <trkpt lat="44.1638" lon="9.86297">
        <ele>21.77</ele>
        <time>2016-10-08T13:43:04Z</time>
      </trkpt>
      <trkpt lat="44.1638" lon="9.86298">
        <ele>21.77</ele>
        <time>2016-10-08T13:43:41Z</time>
      </trkpt>
      <trkpt lat="44.16377" lon="9.86296">
        <ele>22.73</ele>
        <time>2016-10-08T13:44:15Z</time>
      </trkpt>
      <trkpt lat="44.16375" lon="9.86295">
        <ele>22.25</ele>
        <time>2016-10-08T13:44:58Z</time>
      </trkpt>
      <trkpt lat="44.16381" lon="9.86298">
        <ele>22.73</ele>
        <time>2016-10-08T13:45:38Z</time>
      </trkpt>
      <trkpt lat="44.16389" lon="9.86303">
        <ele>22.73</ele>
        <time>2016-10-08T13:45:59Z</time>
      </trkpt>
      <trkpt lat="44.16388" lon="9.86305">
        <ele>22.25</ele>
        <time>2016-10-08T13:46:28Z</time>
      </trkpt>
      <trkpt lat="44.16388" lon="9.86304">
        <ele>23.21</ele>
        <time>2016-10-08T13:47:04Z</time>
      </trkpt>
      <trkpt lat="44.16389" lon="9.86312">
        <ele>23.69</ele>
        <time>2016-10-08T13:47:37Z</time>
      </trkpt>
      <trkpt lat="44.16386" lon="9.8631">
        <ele>23.69</ele>
        <time>2016-10-08T13:48:02Z</time>
      </trkpt>
      <trkpt lat="44.16388" lon="9.86312">
        <ele>23.21</ele>
        <time>2016-10-08T13:48:39Z</time>
      </trkpt>
      <trkpt lat="44.16384" lon="9.86308">
        <ele>23.21</ele>
        <time>2016-10-08T13:49:17Z</time>
      </trkpt>
      <trkpt lat="44.16379" lon="9.863">
        <ele>23.69</ele>
        <time>2016-10-08T13:49:51Z</time>
      </trkpt>
      <trkpt lat="44.16378" lon="9.86295">
        <ele>23.21</ele>
        <time>2016-10-08T13:50:13Z</time>
      </trkpt>
      <trkpt lat="44.16377" lon="9.86289">
        <ele>24.17</ele>
        <time>2016-10-08T13:50:42Z</time>
      </trkpt>
      <trkpt lat="44.16377" lon="9.86293">
        <ele>24.65</ele>
        <time>2016-10-08T13:51:07Z</time>
      </trkpt>
      <trkpt lat="44.16378" lon="9.86296">
        <ele>24.65</ele>
        <time>2016-10-08T13:51:38Z</time>
      </trkpt>
      <trkpt lat="44.16377" lon="9.86294">
        <ele>25.13</ele>
        <time>2016-10-08T13:51:56Z</time>
      </trkpt>
      <trkpt lat="44.16376" lon="9.86292">
        <ele>24.65</ele>
        <time>2016-10-08T13:52:25Z</time>
      </trkpt>
      <trkpt lat="44.16377" lon="9.86295">
        <ele>25.13</ele>
        <time>2016-10-08T13:52:55Z</time>
      </trkpt>
      <trkpt lat="44.16379" lon="9.86301">
        <ele>25.13</ele>
        <time>2016-10-08T13:53:20Z</time>
      </trkpt>
      <trkpt lat="44.1638" lon="9.86303">
        <ele>25.13</ele>
        <time>2016-10-08T13:53:50Z</time>
      </trkpt>
      <trkpt lat="44.1638" lon="9.86303">
        <ele>25.61</ele>
        <time>2016-10-08T13:54:30Z</time>
      </trkpt>
      <trkpt lat="44.1638" lon="9.86306">
        <ele>25.61</ele>
        <time>2016-10-08T13:55:01Z</time>
      </trkpt>
      <trkpt lat="44.1638" lon="9.86305">
        <ele>25.61</ele>
        <time>2016-10-08T13:55:35Z</time>
      </trkpt>
      <trkpt lat="44.16379" lon="9.86301">
        <ele>26.09</ele>
        <time>2016-10-08T13:56:12Z</time>
      </trkpt>
      <trkpt lat="44.16377" lon="9.86296">
        <ele>26.09</ele>
        <time>2016-10-08T13:56:41Z</time>
      </trkpt>
      <trkpt lat="44.16376" lon="9.86284">
        <ele>26.57</ele>
        <time>2016-10-08T13:57:07Z</time>
      </trkpt>
      <trkpt lat="44.16376" lon="9.86275">
        <ele>27.53</ele>
        <time>2016-10-08T13:57:39Z</time>
      </trkpt>
      <trkpt lat="44.16376" lon="9.8628">
        <ele>27.53</ele>
        <time>2016-10-08T13:58:10Z</time>
      </trkpt>
      <trkpt lat="44.16377" lon="9.86284">
        <ele>27.53</ele>
        <time>2016-10-08T13:58:44Z</time>
      </trkpt>
      <trkpt lat="44.16379" lon="9.86285">
        <ele>27.53</ele>
        <time>2016-10-08T13:59:11Z</time>
      </trkpt>
      <trkpt lat="44.16381" lon="9.86286">
        <ele>28.02</ele>
        <time>2016-10-08T13:59:40Z</time>
      </trkpt>
      <trkpt lat="44.16383" lon="9.86293">
        <ele>28.5</ele>
        <time>2016-10-08T14:00:18Z</time>
      </trkpt>
      <trkpt lat="44.16386" lon="9.86299">
        <ele>28.98</ele>
        <time>2016-10-08T14:00:52Z</time>
      </trkpt>
      <trkpt lat="44.16385" lon="9.86295">
        <ele>28.98</ele>
        <time>2016-10-08T14:01:31Z</time>
      </trkpt>
      <trkpt lat="44.16386" lon="9.86305">
        <ele>28.98</ele>
        <time>2016-10-08T14:02:03Z</time>
      </trkpt>
      <trkpt lat="44.16385" lon="9.86303">
        <ele>28.98</ele>
        <time>2016-10-08T14:02:38Z</time>
      </trkpt>
      <trkpt lat="44.16386" lon="9.86302">
        <ele>28.5</ele>
        <time>2016-10-08T14:03:05Z</time>
      </trkpt>
      <trkpt lat="44.16385" lon="9.86298">
        <ele>28.5</ele>
        <time>2016-10-08T14:03:41Z</time>
      </trkpt>
      <trkpt lat="44.16385" lon="9.86301">
        <ele>28.5</ele>
        <time>2016-10-08T14:04:12Z</time>
      </trkpt>
      <trkpt lat="44.16385" lon="9.863">
        <ele>28.98</ele>
        <time>2016-10-08T14:04:43Z</time>
      </trkpt>
      <trkpt lat="44.16384" lon="9.86299">
        <ele>28.98</ele>
        <time>2016-10-08T14:05:17Z</time>
      </trkpt>
      <trkpt lat="44.16387" lon="9.86303">
        <ele>28.5</ele>
        <time>2016-10-08T14:05:48Z</time>
      </trkpt>
      <trkpt lat="44.16386" lon="9.86309">
        <ele>28.5</ele>
        <time>2016-10-08T14:06:18Z</time>
      </trkpt>
      <trkpt lat="44.16384" lon="9.86301">
        <ele>28.98</ele>
        <time>2016-10-08T14:06:44Z</time>
      </trkpt>
      <trkpt lat="44.16388" lon="9.86302">
        <ele>28.02</ele>
        <time>2016-10-08T14:06:54Z</time>
      </trkpt>
      <trkpt lat="44.16392" lon="9.86302">
        <ele>28.5</ele>
        <time>2016-10-08T14:06:56Z</time>
      </trkpt>
      <trkpt lat="44.16401" lon="9.8627">
        <ele>27.05</ele>
        <time>2016-10-08T14:07:07Z</time>
      </trkpt>
      <trkpt lat="44.16394" lon="9.86233">
        <ele>29.46</ele>
        <time>2016-10-08T14:07:21Z</time>
      </trkpt>
      <trkpt lat="44.16392" lon="9.86226">
        <ele>29.94</ele>
        <time>2016-10-08T14:07:24Z</time>
      </trkpt>
      <trkpt lat="44.16393" lon="9.86224">
        <ele>29.94</ele>
        <time>2016-10-08T14:07:25Z</time>
      </trkpt>
      <trkpt lat="44.16394" lon="9.86221">
        <ele>30.42</ele>
        <time>2016-10-08T14:07:26Z</time>
      </trkpt>
      <trkpt lat="44.16395" lon="9.86219">
        <ele>30.42</ele>
        <time>2016-10-08T14:07:27Z</time>
      </trkpt>
      <trkpt lat="44.16394" lon="9.86217">
        <ele>29.94</ele>
        <time>2016-10-08T14:07:28Z</time>
      </trkpt>
      <trkpt lat="44.16394" lon="9.86215">
        <ele>30.42</ele>
        <time>2016-10-08T14:07:29Z</time>
      </trkpt>
      <trkpt lat="44.16392" lon="9.86215">
        <ele>30.42</ele>
        <time>2016-10-08T14:07:30Z</time>
      </trkpt>
      <trkpt lat="44.16391" lon="9.86215">
        <ele>29.94</ele>
        <time>2016-10-08T14:07:31Z</time>
      </trkpt>
      <trkpt lat="44.1639" lon="9.86215">
        <ele>29.94</ele>
        <time>2016-10-08T14:07:32Z</time>
      </trkpt>
      <trkpt lat="44.1639" lon="9.86218">
        <ele>30.42</ele>
        <time>2016-10-08T14:07:47Z</time>
      </trkpt>
      <trkpt lat="44.16391" lon="9.86221">
        <ele>29.94</ele>
        <time>2016-10-08T14:07:57Z</time>
      </trkpt>
      <trkpt lat="44.16361" lon="9.86239">
        <ele>29.46</ele>
        <time>2016-10-08T14:08:07Z</time>
      </trkpt>
      <trkpt lat="44.16313" lon="9.86266">
        <ele>30.42</ele>
        <time>2016-10-08T14:08:22Z</time>
      </trkpt>
      <trkpt lat="44.16303" lon="9.86275">
        <ele>29.46</ele>
        <time>2016-10-08T14:08:26Z</time>
      </trkpt>
      <trkpt lat="44.16302" lon="9.86276">
        <ele>29.46</ele>
        <time>2016-10-08T14:08:27Z</time>
      </trkpt>
      <trkpt lat="44.16281" lon="9.86287">
        <ele>30.42</ele>
        <time>2016-10-08T14:08:34Z</time>
      </trkpt>
      <trkpt lat="44.16265" lon="9.86296">
        <ele>30.9</ele>
        <time>2016-10-08T14:08:37Z</time>
      </trkpt>
      <trkpt lat="44.16195" lon="9.86337">
        <ele>31.86</ele>
        <time>2016-10-08T14:08:52Z</time>
      </trkpt>
      <trkpt lat="44.16188" lon="9.86342">
        <ele>31.38</ele>
        <time>2016-10-08T14:08:54Z</time>
      </trkpt>
      <trkpt lat="44.16145" lon="9.86369">
        <ele>31.38</ele>
        <time>2016-10-08T14:09:05Z</time>
      </trkpt>
      <trkpt lat="44.16084" lon="9.86399">
        <ele>33.3</ele>
        <time>2016-10-08T14:09:17Z</time>
      </trkpt>
      <trkpt lat="44.16075" lon="9.86403">
        <ele>32.34</ele>
        <time>2016-10-08T14:09:19Z</time>
      </trkpt>
      <trkpt lat="44.16071" lon="9.86406">
        <ele>32.82</ele>
        <time>2016-10-08T14:09:20Z</time>
      </trkpt>
      <trkpt lat="44.1602" lon="9.86442">
        <ele>33.78</ele>
        <time>2016-10-08T14:09:33Z</time>
      </trkpt>
      <trkpt lat="44.15964" lon="9.86515">
        <ele>36.19</ele>
        <time>2016-10-08T14:09:50Z</time>
      </trkpt>
      <trkpt lat="44.15928" lon="9.8658">
        <ele>36.67</ele>
        <time>2016-10-08T14:10:06Z</time>
      </trkpt>
      <trkpt lat="44.15896" lon="9.86646">
        <ele>36.19</ele>
        <time>2016-10-08T14:10:20Z</time>
      </trkpt>
      <trkpt lat="44.15853" lon="9.86744">
        <ele>35.23</ele>
        <time>2016-10-08T14:10:35Z</time>
      </trkpt>
      <trkpt lat="44.15846" lon="9.8678">
        <ele>33.3</ele>
        <time>2016-10-08T14:10:39Z</time>
      </trkpt>
      <trkpt lat="44.15849" lon="9.86909">
        <ele>31.86</ele>
        <time>2016-10-08T14:10:51Z</time>
      </trkpt>
      <trkpt lat="44.15866" lon="9.87056">
        <ele>31.38</ele>
        <time>2016-10-08T14:11:05Z</time>
      </trkpt>
      <trkpt lat="44.15869" lon="9.87083">
        <ele>31.86</ele>
        <time>2016-10-08T14:11:08Z</time>
      </trkpt>
      <trkpt lat="44.15871" lon="9.87092">
        <ele>31.38</ele>
        <time>2016-10-08T14:11:09Z</time>
      </trkpt>
      <trkpt lat="44.15879" lon="9.87161">
        <ele>31.86</ele>
        <time>2016-10-08T14:11:18Z</time>
      </trkpt>
      <trkpt lat="44.15891" lon="9.87258">
        <ele>32.34</ele>
        <time>2016-10-08T14:11:31Z</time>
      </trkpt>
      <trkpt lat="44.15903" lon="9.87387">
        <ele>31.38</ele>
        <time>2016-10-08T14:11:47Z</time>
      </trkpt>
      <trkpt lat="44.15903" lon="9.87404">
        <ele>30.9</ele>
        <time>2016-10-08T14:11:49Z</time>
      </trkpt>
      <trkpt lat="44.159" lon="9.87428">
        <ele>30.9</ele>
        <time>2016-10-08T14:11:52Z</time>
      </trkpt>
      <trkpt lat="44.15898" lon="9.87434">
        <ele>30.9</ele>
        <time>2016-10-08T14:11:53Z</time>
      </trkpt>
      <trkpt lat="44.15891" lon="9.87447">
        <ele>31.86</ele>
        <time>2016-10-08T14:11:55Z</time>
      </trkpt>
      <trkpt lat="44.15888" lon="9.87452">
        <ele>32.34</ele>
        <time>2016-10-08T14:11:56Z</time>
      </trkpt>
      <trkpt lat="44.1583" lon="9.87519">
        <ele>30.9</ele>
        <time>2016-10-08T14:12:09Z</time>
      </trkpt>
      <trkpt lat="44.15754" lon="9.87605">
        <ele>29.94</ele>
        <time>2016-10-08T14:12:23Z</time>
      </trkpt>
      <trkpt lat="44.15661" lon="9.87709">
        <ele>28.02</ele>
        <time>2016-10-08T14:12:39Z</time>
      </trkpt>
      <trkpt lat="44.15576" lon="9.87807">
        <ele>26.57</ele>
        <time>2016-10-08T14:12:54Z</time>
      </trkpt>
      <trkpt lat="44.15476" lon="9.87921">
        <ele>25.13</ele>
        <time>2016-10-08T14:13:12Z</time>
      </trkpt>
      <trkpt lat="44.15453" lon="9.87943">
        <ele>24.17</ele>
        <time>2016-10-08T14:13:18Z</time>
      </trkpt>
      <trkpt lat="44.15443" lon="9.87958">
        <ele>24.65</ele>
        <time>2016-10-08T14:13:21Z</time>
      </trkpt>
      <trkpt lat="44.15386" lon="9.88027">
        <ele>24.65</ele>
        <time>2016-10-08T14:13:36Z</time>
      </trkpt>
      <trkpt lat="44.15356" lon="9.88062">
        <ele>24.65</ele>
        <time>2016-10-08T14:13:43Z</time>
      </trkpt>
      <trkpt lat="44.15338" lon="9.88087">
        <ele>24.65</ele>
        <time>2016-10-08T14:13:48Z</time>
      </trkpt>
      <trkpt lat="44.15335" lon="9.88092">
        <ele>24.65</ele>
        <time>2016-10-08T14:13:49Z</time>
      </trkpt>
      <trkpt lat="44.15332" lon="9.88097">
        <ele>25.13</ele>
        <time>2016-10-08T14:13:50Z</time>
      </trkpt>
      <trkpt lat="44.15328" lon="9.88108">
        <ele>25.61</ele>
        <time>2016-10-08T14:13:52Z</time>
      </trkpt>
      <trkpt lat="44.15326" lon="9.88113">
        <ele>25.61</ele>
        <time>2016-10-08T14:13:53Z</time>
      </trkpt>
      <trkpt lat="44.15324" lon="9.88118">
        <ele>25.13</ele>
        <time>2016-10-08T14:13:54Z</time>
      </trkpt>
      <trkpt lat="44.15323" lon="9.88123">
        <ele>25.61</ele>
        <time>2016-10-08T14:13:55Z</time>
      </trkpt>
      <trkpt lat="44.15322" lon="9.88129">
        <ele>25.61</ele>
        <time>2016-10-08T14:13:56Z</time>
      </trkpt>
      <trkpt lat="44.15321" lon="9.88136">
        <ele>25.13</ele>
        <time>2016-10-08T14:13:57Z</time>
      </trkpt>
      <trkpt lat="44.15319" lon="9.88143">
        <ele>25.13</ele>
        <time>2016-10-08T14:13:58Z</time>
      </trkpt>
      <trkpt lat="44.15288" lon="9.88263">
        <ele>25.61</ele>
        <time>2016-10-08T14:14:15Z</time>
      </trkpt>
      <trkpt lat="44.15239" lon="9.88352">
        <ele>25.61</ele>
        <time>2016-10-08T14:14:30Z</time>
      </trkpt>
      <trkpt lat="44.15159" lon="9.8846">
        <ele>25.61</ele>
        <time>2016-10-08T14:14:50Z</time>
      </trkpt>
      <trkpt lat="44.15152" lon="9.8847">
        <ele>26.09</ele>
        <time>2016-10-08T14:14:52Z</time>
      </trkpt>
      <trkpt lat="44.15123" lon="9.88541">
        <ele>27.05</ele>
        <time>2016-10-08T14:15:03Z</time>
      </trkpt>
      <trkpt lat="44.15117" lon="9.88569">
        <ele>26.57</ele>
        <time>2016-10-08T14:15:07Z</time>
      </trkpt>
      <trkpt lat="44.15115" lon="9.88576">
        <ele>26.57</ele>
        <time>2016-10-08T14:15:08Z</time>
      </trkpt>
      <trkpt lat="44.1511" lon="9.88589">
        <ele>26.57</ele>
        <time>2016-10-08T14:15:10Z</time>
      </trkpt>
      <trkpt lat="44.15106" lon="9.88595">
        <ele>26.57</ele>
        <time>2016-10-08T14:15:11Z</time>
      </trkpt>
      <trkpt lat="44.15103" lon="9.88601">
        <ele>26.57</ele>
        <time>2016-10-08T14:15:12Z</time>
      </trkpt>
      <trkpt lat="44.15098" lon="9.88607">
        <ele>26.57</ele>
        <time>2016-10-08T14:15:13Z</time>
      </trkpt>
      <trkpt lat="44.15094" lon="9.88612">
        <ele>27.05</ele>
        <time>2016-10-08T14:15:14Z</time>
      </trkpt>
      <trkpt lat="44.15089" lon="9.88616">
        <ele>26.09</ele>
        <time>2016-10-08T14:15:15Z</time>
      </trkpt>
      <trkpt lat="44.15083" lon="9.88621">
        <ele>26.57</ele>
        <time>2016-10-08T14:15:16Z</time>
      </trkpt>
      <trkpt lat="44.15078" lon="9.88624">
        <ele>27.53</ele>
        <time>2016-10-08T14:15:17Z</time>
      </trkpt>
      <trkpt lat="44.15072" lon="9.88628">
        <ele>26.57</ele>
        <time>2016-10-08T14:15:18Z</time>
      </trkpt>
      <trkpt lat="44.15017" lon="9.8866">
        <ele>26.57</ele>
        <time>2016-10-08T14:15:28Z</time>
      </trkpt>
      <trkpt lat="44.14952" lon="9.8872">
        <ele>26.57</ele>
        <time>2016-10-08T14:15:42Z</time>
      </trkpt>
      <trkpt lat="44.14945" lon="9.88732">
        <ele>26.57</ele>
        <time>2016-10-08T14:15:44Z</time>
      </trkpt>
      <trkpt lat="44.14941" lon="9.88739">
        <ele>26.57</ele>
        <time>2016-10-08T14:15:45Z</time>
      </trkpt>
      <trkpt lat="44.14938" lon="9.88746">
        <ele>25.61</ele>
        <time>2016-10-08T14:15:46Z</time>
      </trkpt>
      <trkpt lat="44.14887" lon="9.88847">
        <ele>26.57</ele>
        <time>2016-10-08T14:16:01Z</time>
      </trkpt>
      <trkpt lat="44.14821" lon="9.88924">
        <ele>24.17</ele>
        <time>2016-10-08T14:16:15Z</time>
      </trkpt>
      <trkpt lat="44.14816" lon="9.88929">
        <ele>24.17</ele>
        <time>2016-10-08T14:16:16Z</time>
      </trkpt>
      <trkpt lat="44.14785" lon="9.88956">
        <ele>25.61</ele>
        <time>2016-10-08T14:16:23Z</time>
      </trkpt>
      <trkpt lat="44.14775" lon="9.88965">
        <ele>25.13</ele>
        <time>2016-10-08T14:16:27Z</time>
      </trkpt>
      <trkpt lat="44.14765" lon="9.88976">
        <ele>25.13</ele>
        <time>2016-10-08T14:16:39Z</time>
      </trkpt>
      <trkpt lat="44.14767" lon="9.88983">
        <ele>25.13</ele>
        <time>2016-10-08T14:17:03Z</time>
      </trkpt>
      <trkpt lat="44.14765" lon="9.8898">
        <ele>24.65</ele>
        <time>2016-10-08T14:17:44Z</time>
      </trkpt>
      <trkpt lat="44.14764" lon="9.88981">
        <ele>23.69</ele>
        <time>2016-10-08T14:18:05Z</time>
      </trkpt>
      <trkpt lat="44.14765" lon="9.88982">
        <ele>24.65</ele>
        <time>2016-10-08T14:18:41Z</time>
      </trkpt>
      <trkpt lat="44.14767" lon="9.88982">
        <ele>24.65</ele>
        <time>2016-10-08T14:19:10Z</time>
      </trkpt>
      <trkpt lat="44.14767" lon="9.88984">
        <ele>24.65</ele>
        <time>2016-10-08T14:19:37Z</time>
      </trkpt>
      <trkpt lat="44.14767" lon="9.88985">
        <ele>24.17</ele>
        <time>2016-10-08T14:19:51Z</time>
      </trkpt>
      <trkpt lat="44.14765" lon="9.88986">
        <ele>24.17</ele>
        <time>2016-10-08T14:19:52Z</time>
      </trkpt>
      <trkpt lat="44.14763" lon="9.88988">
        <ele>24.17</ele>
        <time>2016-10-08T14:19:53Z</time>
      </trkpt>
      <trkpt lat="44.14756" lon="9.88993">
        <ele>24.17</ele>
        <time>2016-10-08T14:19:55Z</time>
      </trkpt>
      <trkpt lat="44.14752" lon="9.88995">
        <ele>24.65</ele>
        <time>2016-10-08T14:19:56Z</time>
      </trkpt>
      <trkpt lat="44.14747" lon="9.88997">
        <ele>24.17</ele>
        <time>2016-10-08T14:19:57Z</time>
      </trkpt>
      <trkpt lat="44.14731" lon="9.89002">
        <ele>24.65</ele>
        <time>2016-10-08T14:20:00Z</time>
      </trkpt>
      <trkpt lat="44.14719" lon="9.89006">
        <ele>24.65</ele>
        <time>2016-10-08T14:20:02Z</time>
      </trkpt>
      <trkpt lat="44.14712" lon="9.89007">
        <ele>24.65</ele>
        <time>2016-10-08T14:20:03Z</time>
      </trkpt>
      <trkpt lat="44.14706" lon="9.8901">
        <ele>24.65</ele>
        <time>2016-10-08T14:20:04Z</time>
      </trkpt>
      <trkpt lat="44.14699" lon="9.89013">
        <ele>24.65</ele>
        <time>2016-10-08T14:20:05Z</time>
      </trkpt>
      <trkpt lat="44.14693" lon="9.89017">
        <ele>24.65</ele>
        <time>2016-10-08T14:20:06Z</time>
      </trkpt>
      <trkpt lat="44.14668" lon="9.89046">
        <ele>24.17</ele>
        <time>2016-10-08T14:20:11Z</time>
      </trkpt>
      <trkpt lat="44.14663" lon="9.89052">
        <ele>23.69</ele>
        <time>2016-10-08T14:20:12Z</time>
      </trkpt>
      <trkpt lat="44.14657" lon="9.89056">
        <ele>24.17</ele>
        <time>2016-10-08T14:20:13Z</time>
      </trkpt>
      <trkpt lat="44.14651" lon="9.89059">
        <ele>24.65</ele>
        <time>2016-10-08T14:20:14Z</time>
      </trkpt>
      <trkpt lat="44.14645" lon="9.89062">
        <ele>24.17</ele>
        <time>2016-10-08T14:20:15Z</time>
      </trkpt>
      <trkpt lat="44.14619" lon="9.89075">
        <ele>25.13</ele>
        <time>2016-10-08T14:20:19Z</time>
      </trkpt>
      <trkpt lat="44.14613" lon="9.8908">
        <ele>24.65</ele>
        <time>2016-10-08T14:20:20Z</time>
      </trkpt>
      <trkpt lat="44.14567" lon="9.89127">
        <ele>24.17</ele>
        <time>2016-10-08T14:20:28Z</time>
      </trkpt>
      <trkpt lat="44.14559" lon="9.8913">
        <ele>24.65</ele>
        <time>2016-10-08T14:20:29Z</time>
      </trkpt>
      <trkpt lat="44.14522" lon="9.89155">
        <ele>23.69</ele>
        <time>2016-10-08T14:20:34Z</time>
      </trkpt>
      <trkpt lat="44.14517" lon="9.89163">
        <ele>23.69</ele>
        <time>2016-10-08T14:20:35Z</time>
      </trkpt>
      <trkpt lat="44.14452" lon="9.89292">
        <ele>23.69</ele>
        <time>2016-10-08T14:20:48Z</time>
      </trkpt>
      <trkpt lat="44.14433" lon="9.8932">
        <ele>21.77</ele>
        <time>2016-10-08T14:20:51Z</time>
      </trkpt>
      <trkpt lat="44.14426" lon="9.89327">
        <ele>21.77</ele>
        <time>2016-10-08T14:20:52Z</time>
      </trkpt>
      <trkpt lat="44.14418" lon="9.89334">
        <ele>22.73</ele>
        <time>2016-10-08T14:20:53Z</time>
      </trkpt>
      <trkpt lat="44.14295" lon="9.89414">
        <ele>22.73</ele>
        <time>2016-10-08T14:21:08Z</time>
      </trkpt>
      <trkpt lat="44.14288" lon="9.89422">
        <ele>22.73</ele>
        <time>2016-10-08T14:21:09Z</time>
      </trkpt>
      <trkpt lat="44.14283" lon="9.89431">
        <ele>22.73</ele>
        <time>2016-10-08T14:21:10Z</time>
      </trkpt>
      <trkpt lat="44.14278" lon="9.89441">
        <ele>22.25</ele>
        <time>2016-10-08T14:21:11Z</time>
      </trkpt>
      <trkpt lat="44.14246" lon="9.89513">
        <ele>23.21</ele>
        <time>2016-10-08T14:21:18Z</time>
      </trkpt>
      <trkpt lat="44.14241" lon="9.89522">
        <ele>22.73</ele>
        <time>2016-10-08T14:21:19Z</time>
      </trkpt>
      <trkpt lat="44.14236" lon="9.89531">
        <ele>22.25</ele>
        <time>2016-10-08T14:21:20Z</time>
      </trkpt>
      <trkpt lat="44.14224" lon="9.89545">
        <ele>22.25</ele>
        <time>2016-10-08T14:21:22Z</time>
      </trkpt>
      <trkpt lat="44.14131" lon="9.8962">
        <ele>21.77</ele>
        <time>2016-10-08T14:21:36Z</time>
      </trkpt>
      <trkpt lat="44.14111" lon="9.89634">
        <ele>20.81</ele>
        <time>2016-10-08T14:21:39Z</time>
      </trkpt>
      <trkpt lat="44.14104" lon="9.89637">
        <ele>20.81</ele>
        <time>2016-10-08T14:21:40Z</time>
      </trkpt>
      <trkpt lat="44.14096" lon="9.89639">
        <ele>21.29</ele>
        <time>2016-10-08T14:21:41Z</time>
      </trkpt>
      <trkpt lat="44.14089" lon="9.89641">
        <ele>21.77</ele>
        <time>2016-10-08T14:21:42Z</time>
      </trkpt>
      <trkpt lat="44.14082" lon="9.89642">
        <ele>21.29</ele>
        <time>2016-10-08T14:21:43Z</time>
      </trkpt>
      <trkpt lat="44.14074" lon="9.89641">
        <ele>21.29</ele>
        <time>2016-10-08T14:21:44Z</time>
      </trkpt>
      <trkpt lat="44.14067" lon="9.89641">
        <ele>21.29</ele>
        <time>2016-10-08T14:21:45Z</time>
      </trkpt>
      <trkpt lat="44.14008" lon="9.89642">
        <ele>21.77</ele>
        <time>2016-10-08T14:21:53Z</time>
      </trkpt>
      <trkpt lat="44.14001" lon="9.89644">
        <ele>21.29</ele>
        <time>2016-10-08T14:21:54Z</time>
      </trkpt>
      <trkpt lat="44.13994" lon="9.89648">
        <ele>21.29</ele>
        <time>2016-10-08T14:21:55Z</time>
      </trkpt>
      <trkpt lat="44.13974" lon="9.89661">
        <ele>21.29</ele>
        <time>2016-10-08T14:21:58Z</time>
      </trkpt>
      <trkpt lat="44.13968" lon="9.89666">
        <ele>21.29</ele>
        <time>2016-10-08T14:21:59Z</time>
      </trkpt>
      <trkpt lat="44.13918" lon="9.89708">
        <ele>21.29</ele>
        <time>2016-10-08T14:22:07Z</time>
      </trkpt>
      <trkpt lat="44.13912" lon="9.89713">
        <ele>21.29</ele>
        <time>2016-10-08T14:22:08Z</time>
      </trkpt>
      <trkpt lat="44.13857" lon="9.89765">
        <ele>21.29</ele>
        <time>2016-10-08T14:22:17Z</time>
      </trkpt>
      <trkpt lat="44.13851" lon="9.8977">
        <ele>21.77</ele>
        <time>2016-10-08T14:22:18Z</time>
      </trkpt>
      <trkpt lat="44.13793" lon="9.89812">
        <ele>21.29</ele>
        <time>2016-10-08T14:22:27Z</time>
      </trkpt>
      <trkpt lat="44.13787" lon="9.89817">
        <ele>21.29</ele>
        <time>2016-10-08T14:22:28Z</time>
      </trkpt>
      <trkpt lat="44.13771" lon="9.89836">
        <ele>21.29</ele>
        <time>2016-10-08T14:22:31Z</time>
      </trkpt>
      <trkpt lat="44.13695" lon="9.89909">
        <ele>20.32</ele>
        <time>2016-10-08T14:22:44Z</time>
      </trkpt>
      <trkpt lat="44.13587" lon="9.89968">
        <ele>17.44</ele>
        <time>2016-10-08T14:23:01Z</time>
      </trkpt>
      <trkpt lat="44.13581" lon="9.89969">
        <ele>18.4</ele>
        <time>2016-10-08T14:23:02Z</time>
      </trkpt>
      <trkpt lat="44.13574" lon="9.89968">
        <ele>18.4</ele>
        <time>2016-10-08T14:23:03Z</time>
      </trkpt>
      <trkpt lat="44.13562" lon="9.89966">
        <ele>17.92</ele>
        <time>2016-10-08T14:23:05Z</time>
      </trkpt>
      <trkpt lat="44.13556" lon="9.89967">
        <ele>18.4</ele>
        <time>2016-10-08T14:23:06Z</time>
      </trkpt>
      <trkpt lat="44.1355" lon="9.89969">
        <ele>18.4</ele>
        <time>2016-10-08T14:23:07Z</time>
      </trkpt>
      <trkpt lat="44.13534" lon="9.89978">
        <ele>17.92</ele>
        <time>2016-10-08T14:23:10Z</time>
      </trkpt>
      <trkpt lat="44.1353" lon="9.89982">
        <ele>18.4</ele>
        <time>2016-10-08T14:23:11Z</time>
      </trkpt>
      <trkpt lat="44.13527" lon="9.89988">
        <ele>17.92</ele>
        <time>2016-10-08T14:23:12Z</time>
      </trkpt>
      <trkpt lat="44.13526" lon="9.89995">
        <ele>18.4</ele>
        <time>2016-10-08T14:23:13Z</time>
      </trkpt>
      <trkpt lat="44.13526" lon="9.90002">
        <ele>17.92</ele>
        <time>2016-10-08T14:23:14Z</time>
      </trkpt>
      <trkpt lat="44.13529" lon="9.90008">
        <ele>17.92</ele>
        <time>2016-10-08T14:23:15Z</time>
      </trkpt>
      <trkpt lat="44.13532" lon="9.90014">
        <ele>18.4</ele>
        <time>2016-10-08T14:23:16Z</time>
      </trkpt>
      <trkpt lat="44.13536" lon="9.90019">
        <ele>18.4</ele>
        <time>2016-10-08T14:23:17Z</time>
      </trkpt>
      <trkpt lat="44.1354" lon="9.90024">
        <ele>17.92</ele>
        <time>2016-10-08T14:23:18Z</time>
      </trkpt>
      <trkpt lat="44.1357" lon="9.90059">
        <ele>17.92</ele>
        <time>2016-10-08T14:23:25Z</time>
      </trkpt>
      <trkpt lat="44.13574" lon="9.90065">
        <ele>18.4</ele>
        <time>2016-10-08T14:23:26Z</time>
      </trkpt>
      <trkpt lat="44.13577" lon="9.90072">
        <ele>17.92</ele>
        <time>2016-10-08T14:23:27Z</time>
      </trkpt>
      <trkpt lat="44.1358" lon="9.9008">
        <ele>17.44</ele>
        <time>2016-10-08T14:23:28Z</time>
      </trkpt>
      <trkpt lat="44.13583" lon="9.90088">
        <ele>17.44</ele>
        <time>2016-10-08T14:23:29Z</time>
      </trkpt>
      <trkpt lat="44.13585" lon="9.90096">
        <ele>17.44</ele>
        <time>2016-10-08T14:23:30Z</time>
      </trkpt>
      <trkpt lat="44.13586" lon="9.90105">
        <ele>17.44</ele>
        <time>2016-10-08T14:23:31Z</time>
      </trkpt>
      <trkpt lat="44.13587" lon="9.90114">
        <ele>17.44</ele>
        <time>2016-10-08T14:23:32Z</time>
      </trkpt>
      <trkpt lat="44.13587" lon="9.90123">
        <ele>17.44</ele>
        <time>2016-10-08T14:23:33Z</time>
      </trkpt>
      <trkpt lat="44.13586" lon="9.90133">
        <ele>17.44</ele>
        <time>2016-10-08T14:23:34Z</time>
      </trkpt>
      <trkpt lat="44.13585" lon="9.90142">
        <ele>16.96</ele>
        <time>2016-10-08T14:23:35Z</time>
      </trkpt>
      <trkpt lat="44.13584" lon="9.9015">
        <ele>17.44</ele>
        <time>2016-10-08T14:23:36Z</time>
      </trkpt>
      <trkpt lat="44.13582" lon="9.90159">
        <ele>17.44</ele>
        <time>2016-10-08T14:23:37Z</time>
      </trkpt>
      <trkpt lat="44.13579" lon="9.90167">
        <ele>17.44</ele>
        <time>2016-10-08T14:23:38Z</time>
      </trkpt>
      <trkpt lat="44.13577" lon="9.90176">
        <ele>16.96</ele>
        <time>2016-10-08T14:23:39Z</time>
      </trkpt>
      <trkpt lat="44.13529" lon="9.90294">
        <ele>16.48</ele>
        <time>2016-10-08T14:23:54Z</time>
      </trkpt>
      <trkpt lat="44.13478" lon="9.90378">
        <ele>16.48</ele>
        <time>2016-10-08T14:24:06Z</time>
      </trkpt>
      <trkpt lat="44.13403" lon="9.90458">
        <ele>16</ele>
        <time>2016-10-08T14:24:20Z</time>
      </trkpt>
      <trkpt lat="44.13397" lon="9.90462">
        <ele>16</ele>
        <time>2016-10-08T14:24:21Z</time>
      </trkpt>
      <trkpt lat="44.13392" lon="9.90464">
        <ele>15.52</ele>
        <time>2016-10-08T14:24:22Z</time>
      </trkpt>
      <trkpt lat="44.1335" lon="9.90479">
        <ele>16</ele>
        <time>2016-10-08T14:24:31Z</time>
      </trkpt>
      <trkpt lat="44.13261" lon="9.9048">
        <ele>15.52</ele>
        <time>2016-10-08T14:24:46Z</time>
      </trkpt>
      <trkpt lat="44.13183" lon="9.90502">
        <ele>14.56</ele>
        <time>2016-10-08T14:24:58Z</time>
      </trkpt>
      <trkpt lat="44.13176" lon="9.90505">
        <ele>14.56</ele>
        <time>2016-10-08T14:24:59Z</time>
      </trkpt>
      <trkpt lat="44.13087" lon="9.90556">
        <ele>14.56</ele>
        <time>2016-10-08T14:25:13Z</time>
      </trkpt>
      <trkpt lat="44.12969" lon="9.9063">
        <ele>14.08</ele>
        <time>2016-10-08T14:25:31Z</time>
      </trkpt>
      <trkpt lat="44.12841" lon="9.90711">
        <ele>14.08</ele>
        <time>2016-10-08T14:25:51Z</time>
      </trkpt>
      <trkpt lat="44.12758" lon="9.90763">
        <ele>13.6</ele>
        <time>2016-10-08T14:26:04Z</time>
      </trkpt>
      <trkpt lat="44.12751" lon="9.90766">
        <ele>14.08</ele>
        <time>2016-10-08T14:26:05Z</time>
      </trkpt>
      <trkpt lat="44.12623" lon="9.90848">
        <ele>13.12</ele>
        <time>2016-10-08T14:26:25Z</time>
      </trkpt>
      <trkpt lat="44.12521" lon="9.9091">
        <ele>12.63</ele>
        <time>2016-10-08T14:26:41Z</time>
      </trkpt>
      <trkpt lat="44.12401" lon="9.90988">
        <ele>11.67</ele>
        <time>2016-10-08T14:27:00Z</time>
      </trkpt>
      <trkpt lat="44.12254" lon="9.91081">
        <ele>12.63</ele>
        <time>2016-10-08T14:27:23Z</time>
      </trkpt>
      <trkpt lat="44.12144" lon="9.91149">
        <ele>11.67</ele>
        <time>2016-10-08T14:27:40Z</time>
      </trkpt>
      <trkpt lat="44.12058" lon="9.91234">
        <ele>11.67</ele>
        <time>2016-10-08T14:27:55Z</time>
      </trkpt>
      <trkpt lat="44.12034" lon="9.91254">
        <ele>11.67</ele>
        <time>2016-10-08T14:27:59Z</time>
      </trkpt>
      <trkpt lat="44.11952" lon="9.91282">
        <ele>11.67</ele>
        <time>2016-10-08T14:28:12Z</time>
      </trkpt>
      <trkpt lat="44.11849" lon="9.91307">
        <ele>11.67</ele>
        <time>2016-10-08T14:28:28Z</time>
      </trkpt>
      <trkpt lat="44.11755" lon="9.91271">
        <ele>12.15</ele>
        <time>2016-10-08T14:28:44Z</time>
      </trkpt>
      <trkpt lat="44.11658" lon="9.91218">
        <ele>14.08</ele>
        <time>2016-10-08T14:29:02Z</time>
      </trkpt>
      <trkpt lat="44.11645" lon="9.91212">
        <ele>13.6</ele>
        <time>2016-10-08T14:29:05Z</time>
      </trkpt>
      <trkpt lat="44.11619" lon="9.91207">
        <ele>15.04</ele>
        <time>2016-10-08T14:29:11Z</time>
      </trkpt>
      <trkpt lat="44.11615" lon="9.91207">
        <ele>14.56</ele>
        <time>2016-10-08T14:29:12Z</time>
      </trkpt>
      <trkpt lat="44.11611" lon="9.91209">
        <ele>14.56</ele>
        <time>2016-10-08T14:29:13Z</time>
      </trkpt>
      <trkpt lat="44.11607" lon="9.91211">
        <ele>14.56</ele>
        <time>2016-10-08T14:29:14Z</time>
      </trkpt>
      <trkpt lat="44.11604" lon="9.91213">
        <ele>15.04</ele>
        <time>2016-10-08T14:29:15Z</time>
      </trkpt>
      <trkpt lat="44.116" lon="9.91216">
        <ele>14.56</ele>
        <time>2016-10-08T14:29:16Z</time>
      </trkpt>
      <trkpt lat="44.11596" lon="9.91219">
        <ele>14.08</ele>
        <time>2016-10-08T14:29:17Z</time>
      </trkpt>
      <trkpt lat="44.11594" lon="9.91224">
        <ele>14.56</ele>
        <time>2016-10-08T14:29:18Z</time>
      </trkpt>
      <trkpt lat="44.11592" lon="9.91229">
        <ele>15.04</ele>
        <time>2016-10-08T14:29:19Z</time>
      </trkpt>
      <trkpt lat="44.11589" lon="9.91235">
        <ele>14.08</ele>
        <time>2016-10-08T14:29:20Z</time>
      </trkpt>
      <trkpt lat="44.11567" lon="9.91288">
        <ele>13.6</ele>
        <time>2016-10-08T14:29:29Z</time>
      </trkpt>
      <trkpt lat="44.11559" lon="9.91299">
        <ele>13.6</ele>
        <time>2016-10-08T14:29:31Z</time>
      </trkpt>
      <trkpt lat="44.11554" lon="9.91304">
        <ele>13.12</ele>
        <time>2016-10-08T14:29:32Z</time>
      </trkpt>
      <trkpt lat="44.11471" lon="9.91372">
        <ele>12.15</ele>
        <time>2016-10-08T14:29:47Z</time>
      </trkpt>
      <trkpt lat="44.11377" lon="9.91473">
        <ele>12.15</ele>
        <time>2016-10-08T14:30:05Z</time>
      </trkpt>
      <trkpt lat="44.11342" lon="9.91515">
        <ele>11.19</ele>
        <time>2016-10-08T14:30:12Z</time>
      </trkpt>
      <trkpt lat="44.11336" lon="9.9152">
        <ele>12.15</ele>
        <time>2016-10-08T14:30:13Z</time>
      </trkpt>
      <trkpt lat="44.11331" lon="9.91525">
        <ele>12.63</ele>
        <time>2016-10-08T14:30:14Z</time>
      </trkpt>
      <trkpt lat="44.11326" lon="9.91532">
        <ele>12.15</ele>
        <time>2016-10-08T14:30:15Z</time>
      </trkpt>
      <trkpt lat="44.11322" lon="9.91538">
        <ele>11.67</ele>
        <time>2016-10-08T14:30:16Z</time>
      </trkpt>
      <trkpt lat="44.11241" lon="9.91624">
        <ele>11.67</ele>
        <time>2016-10-08T14:30:32Z</time>
      </trkpt>
      <trkpt lat="44.11159" lon="9.91687">
        <ele>12.63</ele>
        <time>2016-10-08T14:30:47Z</time>
      </trkpt>
      <trkpt lat="44.11076" lon="9.91753">
        <ele>12.15</ele>
        <time>2016-10-08T14:31:02Z</time>
      </trkpt>
      <trkpt lat="44.11039" lon="9.91785">
        <ele>12.63</ele>
        <time>2016-10-08T14:31:09Z</time>
      </trkpt>
      <trkpt lat="44.10965" lon="9.91882">
        <ele>13.6</ele>
        <time>2016-10-08T14:31:26Z</time>
      </trkpt>
      <trkpt lat="44.10956" lon="9.91893">
        <ele>14.08</ele>
        <time>2016-10-08T14:31:28Z</time>
      </trkpt>
      <trkpt lat="44.10951" lon="9.91899">
        <ele>13.12</ele>
        <time>2016-10-08T14:31:29Z</time>
      </trkpt>
      <trkpt lat="44.10903" lon="9.91963">
        <ele>14.56</ele>
        <time>2016-10-08T14:31:41Z</time>
      </trkpt>
      <trkpt lat="44.109" lon="9.9197">
        <ele>15.04</ele>
        <time>2016-10-08T14:31:42Z</time>
      </trkpt>
      <trkpt lat="44.10898" lon="9.91977">
        <ele>14.08</ele>
        <time>2016-10-08T14:31:43Z</time>
      </trkpt>
      <trkpt lat="44.10896" lon="9.91984">
        <ele>14.56</ele>
        <time>2016-10-08T14:31:44Z</time>
      </trkpt>
      <trkpt lat="44.10895" lon="9.91993">
        <ele>14.08</ele>
        <time>2016-10-08T14:31:45Z</time>
      </trkpt>
      <trkpt lat="44.10895" lon="9.92001">
        <ele>15.04</ele>
        <time>2016-10-08T14:31:46Z</time>
      </trkpt>
      <trkpt lat="44.10896" lon="9.9201">
        <ele>14.56</ele>
        <time>2016-10-08T14:31:47Z</time>
      </trkpt>
      <trkpt lat="44.10897" lon="9.92018">
        <ele>15.04</ele>
        <time>2016-10-08T14:31:48Z</time>
      </trkpt>
      <trkpt lat="44.10899" lon="9.92027">
        <ele>14.56</ele>
        <time>2016-10-08T14:31:49Z</time>
      </trkpt>
      <trkpt lat="44.10901" lon="9.92035">
        <ele>14.56</ele>
        <time>2016-10-08T14:31:50Z</time>
      </trkpt>
      <trkpt lat="44.10904" lon="9.92043">
        <ele>13.6</ele>
        <time>2016-10-08T14:31:51Z</time>
      </trkpt>
      <trkpt lat="44.10916" lon="9.92078">
        <ele>13.6</ele>
        <time>2016-10-08T14:31:55Z</time>
      </trkpt>
      <trkpt lat="44.10918" lon="9.92087">
        <ele>13.6</ele>
        <time>2016-10-08T14:31:56Z</time>
      </trkpt>
      <trkpt lat="44.10919" lon="9.92097">
        <ele>13.12</ele>
        <time>2016-10-08T14:31:57Z</time>
      </trkpt>
      <trkpt lat="44.10919" lon="9.92107">
        <ele>13.12</ele>
        <time>2016-10-08T14:31:58Z</time>
      </trkpt>
      <trkpt lat="44.10918" lon="9.92117">
        <ele>12.63</ele>
        <time>2016-10-08T14:31:59Z</time>
      </trkpt>
      <trkpt lat="44.10907" lon="9.92288">
        <ele>10.71</ele>
        <time>2016-10-08T14:32:16Z</time>
      </trkpt>
      <trkpt lat="44.10926" lon="9.92408">
        <ele>10.23</ele>
        <time>2016-10-08T14:32:28Z</time>
      </trkpt>
      <trkpt lat="44.10956" lon="9.92598">
        <ele>9.27</ele>
        <time>2016-10-08T14:32:48Z</time>
      </trkpt>
      <trkpt lat="44.10951" lon="9.92737">
        <ele>9.27</ele>
        <time>2016-10-08T14:33:02Z</time>
      </trkpt>
      <trkpt lat="44.10911" lon="9.92866">
        <ele>8.79</ele>
        <time>2016-10-08T14:33:16Z</time>
      </trkpt>
      <trkpt lat="44.10826" lon="9.93022">
        <ele>9.27</ele>
        <time>2016-10-08T14:33:36Z</time>
      </trkpt>
      <trkpt lat="44.10761" lon="9.93139">
        <ele>10.71</ele>
        <time>2016-10-08T14:33:53Z</time>
      </trkpt>
      <trkpt lat="44.1075" lon="9.93158">
        <ele>11.19</ele>
        <time>2016-10-08T14:33:56Z</time>
      </trkpt>
      <trkpt lat="44.10698" lon="9.93255">
        <ele>14.08</ele>
        <time>2016-10-08T14:34:14Z</time>
      </trkpt>
      <trkpt lat="44.1066" lon="9.93329">
        <ele>15.52</ele>
        <time>2016-10-08T14:34:31Z</time>
      </trkpt>
      <trkpt lat="44.1064" lon="9.93398">
        <ele>16.48</ele>
        <time>2016-10-08T14:34:43Z</time>
      </trkpt>
      <trkpt lat="44.10615" lon="9.93544">
        <ele>16</ele>
        <time>2016-10-08T14:35:03Z</time>
      </trkpt>
      <trkpt lat="44.10596" lon="9.93659">
        <ele>15.04</ele>
        <time>2016-10-08T14:35:18Z</time>
      </trkpt>
      <trkpt lat="44.10563" lon="9.93843">
        <ele>15.04</ele>
        <time>2016-10-08T14:35:41Z</time>
      </trkpt>
      <trkpt lat="44.1053" lon="9.94028">
        <ele>15.52</ele>
        <time>2016-10-08T14:36:03Z</time>
      </trkpt>
      <trkpt lat="44.10492" lon="9.94246">
        <ele>14.56</ele>
        <time>2016-10-08T14:36:29Z</time>
      </trkpt>
      <trkpt lat="44.10462" lon="9.94417">
        <ele>14.08</ele>
        <time>2016-10-08T14:36:50Z</time>
      </trkpt>
      <trkpt lat="44.10455" lon="9.94537">
        <ele>13.12</ele>
        <time>2016-10-08T14:37:04Z</time>
      </trkpt>
      <trkpt lat="44.10471" lon="9.94628">
        <ele>12.15</ele>
        <time>2016-10-08T14:37:14Z</time>
      </trkpt>
      <trkpt lat="44.10472" lon="9.94638">
        <ele>11.19</ele>
        <time>2016-10-08T14:37:15Z</time>
      </trkpt>
      <trkpt lat="44.10471" lon="9.94647">
        <ele>11.19</ele>
        <time>2016-10-08T14:37:16Z</time>
      </trkpt>
      <trkpt lat="44.1047" lon="9.94656">
        <ele>11.19</ele>
        <time>2016-10-08T14:37:17Z</time>
      </trkpt>
      <trkpt lat="44.10467" lon="9.94665">
        <ele>10.71</ele>
        <time>2016-10-08T14:37:18Z</time>
      </trkpt>
      <trkpt lat="44.10463" lon="9.94673">
        <ele>10.23</ele>
        <time>2016-10-08T14:37:19Z</time>
      </trkpt>
      <trkpt lat="44.10457" lon="9.9468">
        <ele>10.23</ele>
        <time>2016-10-08T14:37:20Z</time>
      </trkpt>
      <trkpt lat="44.10451" lon="9.94685">
        <ele>10.23</ele>
        <time>2016-10-08T14:37:21Z</time>
      </trkpt>
      <trkpt lat="44.10445" lon="9.94688">
        <ele>9.75</ele>
        <time>2016-10-08T14:37:22Z</time>
      </trkpt>
      <trkpt lat="44.10437" lon="9.94689">
        <ele>9.75</ele>
        <time>2016-10-08T14:37:23Z</time>
      </trkpt>
      <trkpt lat="44.1043" lon="9.94688">
        <ele>9.27</ele>
        <time>2016-10-08T14:37:24Z</time>
      </trkpt>
      <trkpt lat="44.10423" lon="9.94685">
        <ele>8.79</ele>
        <time>2016-10-08T14:37:25Z</time>
      </trkpt>
      <trkpt lat="44.10416" lon="9.9468">
        <ele>8.79</ele>
        <time>2016-10-08T14:37:26Z</time>
      </trkpt>
      <trkpt lat="44.10411" lon="9.94673">
        <ele>8.79</ele>
        <time>2016-10-08T14:37:27Z</time>
      </trkpt>
      <trkpt lat="44.10406" lon="9.94664">
        <ele>8.79</ele>
        <time>2016-10-08T14:37:28Z</time>
      </trkpt>
      <trkpt lat="44.10403" lon="9.94654">
        <ele>7.35</ele>
        <time>2016-10-08T14:37:29Z</time>
      </trkpt>
      <trkpt lat="44.10402" lon="9.94644">
        <ele>7.83</ele>
        <time>2016-10-08T14:37:30Z</time>
      </trkpt>
      <trkpt lat="44.10402" lon="9.94633">
        <ele>7.35</ele>
        <time>2016-10-08T14:37:31Z</time>
      </trkpt>
      <trkpt lat="44.10404" lon="9.94623">
        <ele>7.35</ele>
        <time>2016-10-08T14:37:32Z</time>
      </trkpt>
      <trkpt lat="44.10407" lon="9.94613">
        <ele>6.87</ele>
        <time>2016-10-08T14:37:33Z</time>
      </trkpt>
      <trkpt lat="44.10412" lon="9.94605">
        <ele>6.87</ele>
        <time>2016-10-08T14:37:34Z</time>
      </trkpt>
      <trkpt lat="44.10417" lon="9.94597">
        <ele>6.39</ele>
        <time>2016-10-08T14:37:35Z</time>
      </trkpt>
      <trkpt lat="44.10424" lon="9.94591">
        <ele>5.91</ele>
        <time>2016-10-08T14:37:36Z</time>
      </trkpt>
      <trkpt lat="44.1043" lon="9.94586">
        <ele>6.39</ele>
        <time>2016-10-08T14:37:37Z</time>
      </trkpt>
      <trkpt lat="44.10437" lon="9.94581">
        <ele>5.42</ele>
        <time>2016-10-08T14:37:38Z</time>
      </trkpt>
      <trkpt lat="44.10444" lon="9.94578">
        <ele>6.39</ele>
        <time>2016-10-08T14:37:39Z</time>
      </trkpt>
      <trkpt lat="44.10451" lon="9.94575">
        <ele>5.42</ele>
        <time>2016-10-08T14:37:40Z</time>
      </trkpt>
      <trkpt lat="44.10458" lon="9.94573">
        <ele>5.91</ele>
        <time>2016-10-08T14:37:41Z</time>
      </trkpt>
      <trkpt lat="44.10465" lon="9.94572">
        <ele>5.91</ele>
        <time>2016-10-08T14:37:42Z</time>
      </trkpt>
      <trkpt lat="44.10486" lon="9.94573">
        <ele>5.42</ele>
        <time>2016-10-08T14:37:45Z</time>
      </trkpt>
      <trkpt lat="44.10492" lon="9.94576">
        <ele>6.39</ele>
        <time>2016-10-08T14:37:46Z</time>
      </trkpt>
      <trkpt lat="44.10509" lon="9.94588">
        <ele>6.87</ele>
        <time>2016-10-08T14:37:49Z</time>
      </trkpt>
      <trkpt lat="44.10514" lon="9.94594">
        <ele>6.87</ele>
        <time>2016-10-08T14:37:50Z</time>
      </trkpt>
      <trkpt lat="44.10559" lon="9.94664">
        <ele>8.79</ele>
        <time>2016-10-08T14:38:03Z</time>
      </trkpt>
      <trkpt lat="44.10572" lon="9.94683">
        <ele>8.79</ele>
        <time>2016-10-08T14:38:07Z</time>
      </trkpt>
      <trkpt lat="44.10575" lon="9.94689">
        <ele>8.31</ele>
        <time>2016-10-08T14:38:08Z</time>
      </trkpt>
      <trkpt lat="44.10576" lon="9.94694">
        <ele>8.79</ele>
        <time>2016-10-08T14:38:09Z</time>
      </trkpt>
      <trkpt lat="44.10577" lon="9.947">
        <ele>8.31</ele>
        <time>2016-10-08T14:38:10Z</time>
      </trkpt>
      <trkpt lat="44.10576" lon="9.94706">
        <ele>8.79</ele>
        <time>2016-10-08T14:38:11Z</time>
      </trkpt>
      <trkpt lat="44.10576" lon="9.94712">
        <ele>8.79</ele>
        <time>2016-10-08T14:38:12Z</time>
      </trkpt>
      <trkpt lat="44.10576" lon="9.94718">
        <ele>9.27</ele>
        <time>2016-10-08T14:38:13Z</time>
      </trkpt>
      <trkpt lat="44.10577" lon="9.94724">
        <ele>9.27</ele>
        <time>2016-10-08T14:38:14Z</time>
      </trkpt>
      <trkpt lat="44.10579" lon="9.94729">
        <ele>9.27</ele>
        <time>2016-10-08T14:38:15Z</time>
      </trkpt>
      <trkpt lat="44.10582" lon="9.94733">
        <ele>8.79</ele>
        <time>2016-10-08T14:38:16Z</time>
      </trkpt>
      <trkpt lat="44.10585" lon="9.94736">
        <ele>9.27</ele>
        <time>2016-10-08T14:38:17Z</time>
      </trkpt>
      <trkpt lat="44.1059" lon="9.94739">
        <ele>8.79</ele>
        <time>2016-10-08T14:38:18Z</time>
      </trkpt>
      <trkpt lat="44.10594" lon="9.94741">
        <ele>8.79</ele>
        <time>2016-10-08T14:38:19Z</time>
      </trkpt>
      <trkpt lat="44.10599" lon="9.94743">
        <ele>8.79</ele>
        <time>2016-10-08T14:38:20Z</time>
      </trkpt>
      <trkpt lat="44.10633" lon="9.94765">
        <ele>8.79</ele>
        <time>2016-10-08T14:38:27Z</time>
      </trkpt>
      <trkpt lat="44.10677" lon="9.94822">
        <ele>8.79</ele>
        <time>2016-10-08T14:38:38Z</time>
      </trkpt>
      <trkpt lat="44.10681" lon="9.94828">
        <ele>8.31</ele>
        <time>2016-10-08T14:38:39Z</time>
      </trkpt>
      <trkpt lat="44.10685" lon="9.94833">
        <ele>8.79</ele>
        <time>2016-10-08T14:38:40Z</time>
      </trkpt>
      <trkpt lat="44.10688" lon="9.94839">
        <ele>8.31</ele>
        <time>2016-10-08T14:38:41Z</time>
      </trkpt>
      <trkpt lat="44.10692" lon="9.94845">
        <ele>9.75</ele>
        <time>2016-10-08T14:38:42Z</time>
      </trkpt>
      <trkpt lat="44.10742" lon="9.94955">
        <ele>8.31</ele>
        <time>2016-10-08T14:38:59Z</time>
      </trkpt>
      <trkpt lat="44.10782" lon="9.9505">
        <ele>8.79</ele>
        <time>2016-10-08T14:39:14Z</time>
      </trkpt>
      <trkpt lat="44.10813" lon="9.95127">
        <ele>8.79</ele>
        <time>2016-10-08T14:39:26Z</time>
      </trkpt>
      <trkpt lat="44.10814" lon="9.95134">
        <ele>8.79</ele>
        <time>2016-10-08T14:39:27Z</time>
      </trkpt>
      <trkpt lat="44.10817" lon="9.95141">
        <ele>8.79</ele>
        <time>2016-10-08T14:39:28Z</time>
      </trkpt>
      <trkpt lat="44.10822" lon="9.95153">
        <ele>9.27</ele>
        <time>2016-10-08T14:39:30Z</time>
      </trkpt>
      <trkpt lat="44.10826" lon="9.95166">
        <ele>9.27</ele>
        <time>2016-10-08T14:39:32Z</time>
      </trkpt>
      <trkpt lat="44.10842" lon="9.95198">
        <ele>9.27</ele>
        <time>2016-10-08T14:39:37Z</time>
      </trkpt>
      <trkpt lat="44.10844" lon="9.95204">
        <ele>9.75</ele>
        <time>2016-10-08T14:39:38Z</time>
      </trkpt>
      <trkpt lat="44.10885" lon="9.95297">
        <ele>11.67</ele>
        <time>2016-10-08T14:39:55Z</time>
      </trkpt>
      <trkpt lat="44.10922" lon="9.95381">
        <ele>12.63</ele>
        <time>2016-10-08T14:40:11Z</time>
      </trkpt>
      <trkpt lat="44.10937" lon="9.95419">
        <ele>13.12</ele>
        <time>2016-10-08T14:40:19Z</time>
      </trkpt>
      <trkpt lat="44.10939" lon="9.95424">
        <ele>13.6</ele>
        <time>2016-10-08T14:40:20Z</time>
      </trkpt>
      <trkpt lat="44.10982" lon="9.95524">
        <ele>14.08</ele>
        <time>2016-10-08T14:40:39Z</time>
      </trkpt>
      <trkpt lat="44.10983" lon="9.9553">
        <ele>14.08</ele>
        <time>2016-10-08T14:40:40Z</time>
      </trkpt>
      <trkpt lat="44.11003" lon="9.95579">
        <ele>15.52</ele>
        <time>2016-10-08T14:40:52Z</time>
      </trkpt>
      <trkpt lat="44.11004" lon="9.95575">
        <ele>15.52</ele>
        <time>2016-10-08T14:41:18Z</time>
      </trkpt>
      <trkpt lat="44.11002" lon="9.95577">
        <ele>14.56</ele>
        <time>2016-10-08T14:41:42Z</time>
      </trkpt>
      <trkpt lat="44.11002" lon="9.9558">
        <ele>15.04</ele>
        <time>2016-10-08T14:41:43Z</time>
      </trkpt>
      <trkpt lat="44.11003" lon="9.95583">
        <ele>15.04</ele>
        <time>2016-10-08T14:41:44Z</time>
      </trkpt>
      <trkpt lat="44.11005" lon="9.95586">
        <ele>15.52</ele>
        <time>2016-10-08T14:41:45Z</time>
      </trkpt>
      <trkpt lat="44.11008" lon="9.9559">
        <ele>16</ele>
        <time>2016-10-08T14:41:46Z</time>
      </trkpt>
      <trkpt lat="44.1101" lon="9.95593">
        <ele>15.52</ele>
        <time>2016-10-08T14:41:47Z</time>
      </trkpt>
      <trkpt lat="44.11012" lon="9.95597">
        <ele>15.52</ele>
        <time>2016-10-08T14:41:48Z</time>
      </trkpt>
      <trkpt lat="44.11033" lon="9.9565">
        <ele>16</ele>
        <time>2016-10-08T14:41:59Z</time>
      </trkpt>
      <trkpt lat="44.1104" lon="9.95664">
        <ele>16</ele>
        <time>2016-10-08T14:42:02Z</time>
      </trkpt>
      <trkpt lat="44.11043" lon="9.95669">
        <ele>16</ele>
        <time>2016-10-08T14:42:03Z</time>
      </trkpt>
      <trkpt lat="44.11046" lon="9.95674">
        <ele>16.48</ele>
        <time>2016-10-08T14:42:04Z</time>
      </trkpt>
      <trkpt lat="44.11048" lon="9.95679">
        <ele>16</ele>
        <time>2016-10-08T14:42:05Z</time>
      </trkpt>
      <trkpt lat="44.11051" lon="9.95684">
        <ele>16.96</ele>
        <time>2016-10-08T14:42:06Z</time>
      </trkpt>
      <trkpt lat="44.11081" lon="9.95754">
        <ele>17.44</ele>
        <time>2016-10-08T14:42:20Z</time>
      </trkpt>
      <trkpt lat="44.11083" lon="9.95758">
        <ele>16.96</ele>
        <time>2016-10-08T14:42:21Z</time>
      </trkpt>
      <trkpt lat="44.11089" lon="9.95767">
        <ele>16.96</ele>
        <time>2016-10-08T14:42:23Z</time>
      </trkpt>
      <trkpt lat="44.11129" lon="9.95818">
        <ele>18.4</ele>
        <time>2016-10-08T14:42:37Z</time>
      </trkpt>
      <trkpt lat="44.11131" lon="9.95822">
        <ele>18.4</ele>
        <time>2016-10-08T14:42:38Z</time>
      </trkpt>
      <trkpt lat="44.11134" lon="9.95825">
        <ele>18.88</ele>
        <time>2016-10-08T14:42:39Z</time>
      </trkpt>
      <trkpt lat="44.11137" lon="9.95828">
        <ele>18.88</ele>
        <time>2016-10-08T14:42:40Z</time>
      </trkpt>
      <trkpt lat="44.1114" lon="9.95832">
        <ele>18.4</ele>
        <time>2016-10-08T14:42:41Z</time>
      </trkpt>
      <trkpt lat="44.11162" lon="9.95864">
        <ele>19.36</ele>
        <time>2016-10-08T14:42:51Z</time>
      </trkpt>
      <trkpt lat="44.11168" lon="9.95868">
        <ele>20.32</ele>
        <time>2016-10-08T14:43:03Z</time>
      </trkpt>
      <trkpt lat="44.11157" lon="9.95875">
        <ele>19.36</ele>
        <time>2016-10-08T14:43:19Z</time>
      </trkpt>
      <trkpt lat="44.11167" lon="9.95873">
        <ele>19.36</ele>
        <time>2016-10-08T14:43:48Z</time>
      </trkpt>
      <trkpt lat="44.11172" lon="9.95874">
        <ele>19.84</ele>
        <time>2016-10-08T14:43:52Z</time>
      </trkpt>
      <trkpt lat="44.11173" lon="9.95876">
        <ele>20.32</ele>
        <time>2016-10-08T14:43:53Z</time>
      </trkpt>
      <trkpt lat="44.11177" lon="9.95878">
        <ele>20.32</ele>
        <time>2016-10-08T14:43:54Z</time>
      </trkpt>
      <trkpt lat="44.11184" lon="9.95888">
        <ele>19.84</ele>
        <time>2016-10-08T14:43:58Z</time>
      </trkpt>
      <trkpt lat="44.11186" lon="9.95933">
        <ele>20.81</ele>
        <time>2016-10-08T14:44:08Z</time>
      </trkpt>
      <trkpt lat="44.11177" lon="9.95993">
        <ele>21.29</ele>
        <time>2016-10-08T14:44:19Z</time>
      </trkpt>
      <trkpt lat="44.11174" lon="9.96012">
        <ele>20.81</ele>
        <time>2016-10-08T14:44:22Z</time>
      </trkpt>
      <trkpt lat="44.11146" lon="9.96078">
        <ele>21.77</ele>
        <time>2016-10-08T14:44:35Z</time>
      </trkpt>
      <trkpt lat="44.11109" lon="9.9616">
        <ele>20.81</ele>
        <time>2016-10-08T14:44:50Z</time>
      </trkpt>
      <trkpt lat="44.11058" lon="9.96256">
        <ele>19.36</ele>
        <time>2016-10-08T14:45:07Z</time>
      </trkpt>
      <trkpt lat="44.11055" lon="9.96262">
        <ele>19.84</ele>
        <time>2016-10-08T14:45:08Z</time>
      </trkpt>
      <trkpt lat="44.11022" lon="9.96322">
        <ele>19.84</ele>
        <time>2016-10-08T14:45:20Z</time>
      </trkpt>
      <trkpt lat="44.1102" lon="9.96327">
        <ele>19.84</ele>
        <time>2016-10-08T14:45:21Z</time>
      </trkpt>
      <trkpt lat="44.11019" lon="9.96333">
        <ele>19.84</ele>
        <time>2016-10-08T14:45:22Z</time>
      </trkpt>
      <trkpt lat="44.11018" lon="9.9634">
        <ele>19.84</ele>
        <time>2016-10-08T14:45:23Z</time>
      </trkpt>
      <trkpt lat="44.11017" lon="9.96346">
        <ele>20.32</ele>
        <time>2016-10-08T14:45:24Z</time>
      </trkpt>
      <trkpt lat="44.11016" lon="9.96352">
        <ele>19.84</ele>
        <time>2016-10-08T14:45:25Z</time>
      </trkpt>
      <trkpt lat="44.11014" lon="9.96389">
        <ele>18.88</ele>
        <time>2016-10-08T14:45:31Z</time>
      </trkpt>
      <trkpt lat="44.11013" lon="9.96466">
        <ele>18.88</ele>
        <time>2016-10-08T14:45:45Z</time>
      </trkpt>
      <trkpt lat="44.11003" lon="9.96518">
        <ele>17.92</ele>
        <time>2016-10-08T14:45:55Z</time>
      </trkpt>
      <trkpt lat="44.11002" lon="9.96524">
        <ele>18.4</ele>
        <time>2016-10-08T14:45:56Z</time>
      </trkpt>
      <trkpt lat="44.11001" lon="9.96529">
        <ele>18.4</ele>
        <time>2016-10-08T14:45:57Z</time>
      </trkpt>
      <trkpt lat="44.10999" lon="9.96542">
        <ele>17.92</ele>
        <time>2016-10-08T14:45:59Z</time>
      </trkpt>
      <trkpt lat="44.10998" lon="9.96548">
        <ele>17.44</ele>
        <time>2016-10-08T14:46:00Z</time>
      </trkpt>
      <trkpt lat="44.10996" lon="9.96554">
        <ele>17.92</ele>
        <time>2016-10-08T14:46:01Z</time>
      </trkpt>
      <trkpt lat="44.10993" lon="9.96559">
        <ele>17.92</ele>
        <time>2016-10-08T14:46:02Z</time>
      </trkpt>
      <trkpt lat="44.1099" lon="9.96564">
        <ele>17.44</ele>
        <time>2016-10-08T14:46:03Z</time>
      </trkpt>
      <trkpt lat="44.10987" lon="9.96569">
        <ele>17.92</ele>
        <time>2016-10-08T14:46:04Z</time>
      </trkpt>
      <trkpt lat="44.10941" lon="9.96633">
        <ele>15.52</ele>
        <time>2016-10-08T14:46:17Z</time>
      </trkpt>
      <trkpt lat="44.10881" lon="9.96722">
        <ele>14.56</ele>
        <time>2016-10-08T14:46:33Z</time>
      </trkpt>
      <trkpt lat="44.10828" lon="9.96802">
        <ele>13.12</ele>
        <time>2016-10-08T14:46:46Z</time>
      </trkpt>
      <trkpt lat="44.10786" lon="9.96864">
        <ele>11.19</ele>
        <time>2016-10-08T14:46:56Z</time>
      </trkpt>
      <trkpt lat="44.10742" lon="9.96919">
        <ele>11.19</ele>
        <time>2016-10-08T14:47:05Z</time>
      </trkpt>
      <trkpt lat="44.10666" lon="9.96988">
        <ele>8.31</ele>
        <time>2016-10-08T14:47:19Z</time>
      </trkpt>
      <trkpt lat="44.10641" lon="9.97007">
        <ele>7.35</ele>
        <time>2016-10-08T14:47:23Z</time>
      </trkpt>
      <trkpt lat="44.10634" lon="9.9701">
        <ele>7.35</ele>
        <time>2016-10-08T14:47:24Z</time>
      </trkpt>
      <trkpt lat="44.10627" lon="9.97011">
        <ele>7.35</ele>
        <time>2016-10-08T14:47:25Z</time>
      </trkpt>
      <trkpt lat="44.10619" lon="9.97011">
        <ele>6.87</ele>
        <time>2016-10-08T14:47:26Z</time>
      </trkpt>
      <trkpt lat="44.10611" lon="9.9701">
        <ele>6.87</ele>
        <time>2016-10-08T14:47:27Z</time>
      </trkpt>
      <trkpt lat="44.10604" lon="9.97008">
        <ele>6.39</ele>
        <time>2016-10-08T14:47:28Z</time>
      </trkpt>
      <trkpt lat="44.10597" lon="9.97003">
        <ele>6.39</ele>
        <time>2016-10-08T14:47:29Z</time>
      </trkpt>
      <trkpt lat="44.10591" lon="9.96996">
        <ele>6.39</ele>
        <time>2016-10-08T14:47:30Z</time>
      </trkpt>
      <trkpt lat="44.10585" lon="9.9699">
        <ele>6.39</ele>
        <time>2016-10-08T14:47:31Z</time>
      </trkpt>
      <trkpt lat="44.10578" lon="9.96983">
        <ele>6.87</ele>
        <time>2016-10-08T14:47:32Z</time>
      </trkpt>
      <trkpt lat="44.10538" lon="9.96941">
        <ele>6.87</ele>
        <time>2016-10-08T14:47:39Z</time>
      </trkpt>
      <trkpt lat="44.10532" lon="9.96937">
        <ele>6.87</ele>
        <time>2016-10-08T14:47:40Z</time>
      </trkpt>
      <trkpt lat="44.10526" lon="9.96934">
        <ele>6.39</ele>
        <time>2016-10-08T14:47:41Z</time>
      </trkpt>
      <trkpt lat="44.10433" lon="9.96898">
        <ele>6.39</ele>
        <time>2016-10-08T14:47:57Z</time>
      </trkpt>
      <trkpt lat="44.10359" lon="9.96874">
        <ele>6.87</ele>
        <time>2016-10-08T14:48:12Z</time>
      </trkpt>
      <trkpt lat="44.10351" lon="9.96869">
        <ele>6.87</ele>
        <time>2016-10-08T14:48:22Z</time>
      </trkpt>
      <trkpt lat="44.10345" lon="9.96866">
        <ele>7.35</ele>
        <time>2016-10-08T14:48:30Z</time>
      </trkpt>
      <trkpt lat="44.10344" lon="9.96864">
        <ele>6.39</ele>
        <time>2016-10-08T14:48:31Z</time>
      </trkpt>
      <trkpt lat="44.10342" lon="9.96862">
        <ele>6.87</ele>
        <time>2016-10-08T14:48:32Z</time>
      </trkpt>
      <trkpt lat="44.10341" lon="9.96861">
        <ele>7.35</ele>
        <time>2016-10-08T14:48:33Z</time>
      </trkpt>
      <trkpt lat="44.10339" lon="9.96857">
        <ele>6.87</ele>
        <time>2016-10-08T14:48:40Z</time>
      </trkpt>
      <trkpt lat="44.10317" lon="9.96841">
        <ele>5.91</ele>
        <time>2016-10-08T14:48:50Z</time>
      </trkpt>
      <trkpt lat="44.10312" lon="9.96841">
        <ele>6.87</ele>
        <time>2016-10-08T14:48:51Z</time>
      </trkpt>
      <trkpt lat="44.10308" lon="9.96843">
        <ele>6.87</ele>
        <time>2016-10-08T14:48:52Z</time>
      </trkpt>
      <trkpt lat="44.10229" lon="9.96873">
        <ele>5.42</ele>
        <time>2016-10-08T14:49:08Z</time>
      </trkpt>
      <trkpt lat="44.10134" lon="9.96904">
        <ele>5.91</ele>
        <time>2016-10-08T14:49:25Z</time>
      </trkpt>
      <trkpt lat="44.10035" lon="9.96937">
        <ele>6.39</ele>
        <time>2016-10-08T14:49:42Z</time>
      </trkpt>
      <trkpt lat="44.09926" lon="9.96974">
        <ele>5.91</ele>
        <time>2016-10-08T14:50:00Z</time>
      </trkpt>
      <trkpt lat="44.09817" lon="9.97009">
        <ele>6.39</ele>
        <time>2016-10-08T14:50:18Z</time>
      </trkpt>
      <trkpt lat="44.09718" lon="9.97044">
        <ele>6.87</ele>
        <time>2016-10-08T14:50:35Z</time>
      </trkpt>
      <trkpt lat="44.0961" lon="9.97081">
        <ele>6.87</ele>
        <time>2016-10-08T14:50:54Z</time>
      </trkpt>
      <trkpt lat="44.0958" lon="9.97082">
        <ele>7.35</ele>
        <time>2016-10-08T14:51:04Z</time>
      </trkpt>
      <trkpt lat="44.09548" lon="9.9707">
        <ele>6.87</ele>
        <time>2016-10-08T14:51:17Z</time>
      </trkpt>
      <trkpt lat="44.09532" lon="9.97062">
        <ele>6.39</ele>
        <time>2016-10-08T14:51:29Z</time>
      </trkpt>
      <trkpt lat="44.0953" lon="9.97066">
        <ele>6.87</ele>
        <time>2016-10-08T14:51:41Z</time>
      </trkpt>
      <trkpt lat="44.0953" lon="9.97068">
        <ele>6.87</ele>
        <time>2016-10-08T14:51:57Z</time>
      </trkpt>
      <trkpt lat="44.09528" lon="9.97074">
        <ele>6.87</ele>
        <time>2016-10-08T14:52:24Z</time>
      </trkpt>
      <trkpt lat="44.09528" lon="9.97074">
        <ele>6.87</ele>
        <time>2016-10-08T14:52:50Z</time>
      </trkpt>
      <trkpt lat="44.09529" lon="9.97072">
        <ele>10.23</ele>
        <time>2016-10-08T14:53:15Z</time>
      </trkpt>
      <trkpt lat="44.09529" lon="9.97072">
        <ele>6.39</ele>
        <time>2016-10-08T14:53:16Z</time>
      </trkpt>
      <trkpt lat="44.0953" lon="9.97073">
        <ele>5.91</ele>
        <time>2016-10-08T14:53:38Z</time>
      </trkpt>
      <trkpt lat="44.0953" lon="9.97071">
        <ele>6.39</ele>
        <time>2016-10-08T14:54:07Z</time>
      </trkpt>
      <trkpt lat="44.09529" lon="9.97074">
        <ele>6.39</ele>
        <time>2016-10-08T14:54:33Z</time>
      </trkpt>
      <trkpt lat="44.09529" lon="9.97075">
        <ele>5.42</ele>
        <time>2016-10-08T14:54:57Z</time>
      </trkpt>
      <trkpt lat="44.09531" lon="9.97075">
        <ele>6.39</ele>
        <time>2016-10-08T14:55:00Z</time>
      </trkpt>
      <trkpt lat="44.09533" lon="9.97075">
        <ele>6.39</ele>
        <time>2016-10-08T14:55:01Z</time>
      </trkpt>
      <trkpt lat="44.09534" lon="9.97076">
        <ele>6.39</ele>
        <time>2016-10-08T14:55:02Z</time>
      </trkpt>
      <trkpt lat="44.09572" lon="9.97093">
        <ele>6.39</ele>
        <time>2016-10-08T14:55:18Z</time>
      </trkpt>
      <trkpt lat="44.0958" lon="9.97096">
        <ele>6.39</ele>
        <time>2016-10-08T14:55:24Z</time>
      </trkpt>
      <trkpt lat="44.0958" lon="9.97098">
        <ele>6.87</ele>
        <time>2016-10-08T14:55:26Z</time>
      </trkpt>
      <trkpt lat="44.09578" lon="9.97098">
        <ele>7.35</ele>
        <time>2016-10-08T14:55:27Z</time>
      </trkpt>
      <trkpt lat="44.09532" lon="9.97109">
        <ele>6.87</ele>
        <time>2016-10-08T14:55:42Z</time>
      </trkpt>
      <trkpt lat="44.09441" lon="9.97139">
        <ele>6.39</ele>
        <time>2016-10-08T14:56:02Z</time>
      </trkpt>
      <trkpt lat="44.09343" lon="9.97172">
        <ele>6.39</ele>
        <time>2016-10-08T14:56:22Z</time>
      </trkpt>
      <trkpt lat="44.09232" lon="9.9721">
        <ele>6.87</ele>
        <time>2016-10-08T14:56:44Z</time>
      </trkpt>
      <trkpt lat="44.09136" lon="9.97242">
        <ele>7.83</ele>
        <time>2016-10-08T14:57:03Z</time>
      </trkpt>
      <trkpt lat="44.0907" lon="9.97269">
        <ele>8.31</ele>
        <time>2016-10-08T14:57:16Z</time>
      </trkpt>
      <trkpt lat="44.09065" lon="9.9727">
        <ele>8.79</ele>
        <time>2016-10-08T14:57:17Z</time>
      </trkpt>
      <trkpt lat="44.08967" lon="9.97304">
        <ele>8.31</ele>
        <time>2016-10-08T14:57:36Z</time>
      </trkpt>
      <trkpt lat="44.08871" lon="9.97368">
        <ele>7.83</ele>
        <time>2016-10-08T14:57:55Z</time>
      </trkpt>
      <trkpt lat="44.08747" lon="9.97467">
        <ele>5.91</ele>
        <time>2016-10-08T14:58:17Z</time>
      </trkpt>
      <trkpt lat="44.08622" lon="9.97567">
        <ele>4.46</ele>
        <time>2016-10-08T14:58:38Z</time>
      </trkpt>
      <trkpt lat="44.08476" lon="9.97683">
        <ele>3.5</ele>
        <time>2016-10-08T14:59:02Z</time>
      </trkpt>
      <trkpt lat="44.08375" lon="9.97764">
        <ele>2.06</ele>
        <time>2016-10-08T14:59:19Z</time>
      </trkpt>
      <trkpt lat="44.08279" lon="9.97838">
        <ele>3.02</ele>
        <time>2016-10-08T14:59:36Z</time>
      </trkpt>
      <trkpt lat="44.08169" lon="9.97926">
        <ele>3.5</ele>
        <time>2016-10-08T14:59:56Z</time>
      </trkpt>
      <trkpt lat="44.08034" lon="9.98034">
        <ele>2.54</ele>
        <time>2016-10-08T15:00:20Z</time>
      </trkpt>
      <trkpt lat="44.07986" lon="9.98075">
        <ele>3.98</ele>
        <time>2016-10-08T15:00:29Z</time>
      </trkpt>
      <trkpt lat="44.07873" lon="9.98182">
        <ele>3.5</ele>
        <time>2016-10-08T15:00:51Z</time>
      </trkpt>
      <trkpt lat="44.07777" lon="9.98284">
        <ele>3.98</ele>
        <time>2016-10-08T15:01:11Z</time>
      </trkpt>
      <trkpt lat="44.07727" lon="9.98324">
        <ele>5.91</ele>
        <time>2016-10-08T15:01:25Z</time>
      </trkpt>
      <trkpt lat="44.07659" lon="9.9836">
        <ele>9.27</ele>
        <time>2016-10-08T15:01:45Z</time>
      </trkpt>
      <trkpt lat="44.07594" lon="9.98373">
        <ele>10.71</ele>
        <time>2016-10-08T15:02:03Z</time>
      </trkpt>
      <trkpt lat="44.07516" lon="9.9838">
        <ele>10.71</ele>
        <time>2016-10-08T15:02:22Z</time>
      </trkpt>
      <trkpt lat="44.0742" lon="9.98393">
        <ele>7.83</ele>
        <time>2016-10-08T15:02:40Z</time>
      </trkpt>
      <trkpt lat="44.0734" lon="9.98427">
        <ele>4.94</ele>
        <time>2016-10-08T15:02:51Z</time>
      </trkpt>
      <trkpt lat="44.07287" lon="9.98466">
        <ele>1.1</ele>
        <time>2016-10-08T15:02:58Z</time>
      </trkpt>
      <trkpt lat="44.0728" lon="9.98472">
        <ele>1.58</ele>
        <time>2016-10-08T15:02:59Z</time>
      </trkpt>
      <trkpt lat="44.07194" lon="9.98579">
        <ele>0.62</ele>
        <time>2016-10-08T15:03:13Z</time>
      </trkpt>
      <trkpt lat="44.07098" lon="9.98707">
        <ele>1.1</ele>
        <time>2016-10-08T15:03:32Z</time>
      </trkpt>
      <trkpt lat="44.07011" lon="9.98828">
        <ele>0.14</ele>
        <time>2016-10-08T15:03:51Z</time>
      </trkpt>
      <trkpt lat="44.06932" lon="9.98934">
        <ele>0.62</ele>
        <time>2016-10-08T15:04:09Z</time>
      </trkpt>
      <trkpt lat="44.06852" lon="9.99042">
        <ele>0.62</ele>
        <time>2016-10-08T15:04:27Z</time>
      </trkpt>
      <trkpt lat="44.06765" lon="9.99155">
        <ele>0.14</ele>
        <time>2016-10-08T15:04:46Z</time>
      </trkpt>
      <trkpt lat="44.06694" lon="9.99255">
        <ele>1.1</ele>
        <time>2016-10-08T15:05:03Z</time>
      </trkpt>
      <trkpt lat="44.06617" lon="9.99369">
        <ele>0.62</ele>
        <time>2016-10-08T15:05:21Z</time>
      </trkpt>
      <trkpt lat="44.06515" lon="9.99526">
        <ele>1</ele>
        <time>2016-10-08T15:05:45Z</time>
      </trkpt>
      <trkpt lat="44.06428" lon="9.99609">
        <ele>1.1</ele>
        <time>2016-10-08T15:06:02Z</time>
      </trkpt>
      <trkpt lat="44.06305" lon="9.99654">
        <ele>0.14</ele>
        <time>2016-10-08T15:06:22Z</time>
      </trkpt>
      <trkpt lat="44.06191" lon="9.99679">
        <ele>1</ele>
        <time>2016-10-08T15:06:40Z</time>
      </trkpt>
      <trkpt lat="44.06048" lon="9.99716">
        <ele>2</ele>
        <time>2016-10-08T15:07:03Z</time>
      </trkpt>
      <trkpt lat="44.05929" lon="9.99776">
        <ele>1</ele>
        <time>2016-10-08T15:07:23Z</time>
      </trkpt>
      <trkpt lat="44.05821" lon="9.99855">
        <ele>1</ele>
        <time>2016-10-08T15:07:44Z</time>
      </trkpt>
      <trkpt lat="44.05806" lon="9.9987">
        <ele>1</ele>
        <time>2016-10-08T15:07:48Z</time>
      </trkpt>
      <trkpt lat="44.05792" lon="9.99885">
        <ele>1</ele>
        <time>2016-10-08T15:07:52Z</time>
      </trkpt>
      <trkpt lat="44.05788" lon="9.99887">
        <ele>1</ele>
        <time>2016-10-08T15:07:53Z</time>
      </trkpt>
      <trkpt lat="44.05784" lon="9.99888">
        <ele>1</ele>
        <time>2016-10-08T15:07:54Z</time>
      </trkpt>
      <trkpt lat="44.05764" lon="9.99899">
        <ele>1</ele>
        <time>2016-10-08T15:08:00Z</time>
      </trkpt>
      <trkpt lat="44.05775" lon="9.99928">
        <ele>1</ele>
        <time>2016-10-08T15:08:08Z</time>
      </trkpt>
      <trkpt lat="44.05811" lon="9.99972">
        <ele>2</ele>
        <time>2016-10-08T15:08:22Z</time>
      </trkpt>
      <trkpt lat="44.0585" lon="10.00044">
        <ele>2</ele>
        <time>2016-10-08T15:08:38Z</time>
      </trkpt>
      <trkpt lat="44.05852" lon="10.00048">
        <ele>2</ele>
        <time>2016-10-08T15:08:39Z</time>
      </trkpt>
      <trkpt lat="44.05875" lon="10.00099">
        <ele>2</ele>
        <time>2016-10-08T15:08:53Z</time>
      </trkpt>
      <trkpt lat="44.0593" lon="10.00174">
        <ele>1</ele>
        <time>2016-10-08T15:09:10Z</time>
      </trkpt>
      <trkpt lat="44.05942" lon="10.00194">
        <ele>2</ele>
        <time>2016-10-08T15:09:14Z</time>
      </trkpt>
      <trkpt lat="44.05944" lon="10.00199">
        <ele>2</ele>
        <time>2016-10-08T15:09:15Z</time>
      </trkpt>
      <trkpt lat="44.05956" lon="10.00232">
        <ele>2</ele>
        <time>2016-10-08T15:09:22Z</time>
      </trkpt>
      <trkpt lat="44.05958" lon="10.00234">
        <ele>2</ele>
        <time>2016-10-08T15:09:23Z</time>
      </trkpt>
      <trkpt lat="44.05963" lon="10.00232">
        <ele>2</ele>
        <time>2016-10-08T15:09:25Z</time>
      </trkpt>
      <trkpt lat="44.05963" lon="10.00228">
        <ele>2</ele>
        <time>2016-10-08T15:09:26Z</time>
      </trkpt>
      <trkpt lat="44.05962" lon="10.00224">
        <ele>2</ele>
        <time>2016-10-08T15:09:27Z</time>
      </trkpt>
      <trkpt lat="44.05961" lon="10.0022">
        <ele>2</ele>
        <time>2016-10-08T15:09:28Z</time>
      </trkpt>
      <trkpt lat="44.0596" lon="10.00216">
        <ele>2</ele>
        <time>2016-10-08T15:09:29Z</time>
      </trkpt>
      <trkpt lat="44.05936" lon="10.00158">
        <ele>1</ele>
        <time>2016-10-08T15:09:40Z</time>
      </trkpt>
      <trkpt lat="44.05878" lon="10.00076">
        <ele>2</ele>
        <time>2016-10-08T15:09:57Z</time>
      </trkpt>
      <trkpt lat="44.05812" lon="9.99964">
        <ele>2</ele>
        <time>2016-10-08T15:10:17Z</time>
      </trkpt>
      <trkpt lat="44.05793" lon="9.99924">
        <ele>2</ele>
        <time>2016-10-08T15:10:24Z</time>
      </trkpt>
      <trkpt lat="44.05791" lon="9.99918">
        <ele>1</ele>
        <time>2016-10-08T15:10:25Z</time>
      </trkpt>
      <trkpt lat="44.0579" lon="9.99911">
        <ele>0.14</ele>
        <time>2016-10-08T15:10:26Z</time>
      </trkpt>
      <trkpt lat="44.05789" lon="9.99905">
        <ele>0.14</ele>
        <time>2016-10-08T15:10:27Z</time>
      </trkpt>
      <trkpt lat="44.05787" lon="9.99899">
        <ele>1</ele>
        <time>2016-10-08T15:10:28Z</time>
      </trkpt>
      <trkpt lat="44.05783" lon="9.99895">
        <ele>1</ele>
        <time>2016-10-08T15:10:29Z</time>
      </trkpt>
      <trkpt lat="44.05779" lon="9.99892">
        <ele>1</ele>
        <time>2016-10-08T15:10:30Z</time>
      </trkpt>
      <trkpt lat="44.05775" lon="9.99891">
        <ele>0.62</ele>
        <time>2016-10-08T15:10:31Z</time>
      </trkpt>
      <trkpt lat="44.0577" lon="9.99892">
        <ele>1</ele>
        <time>2016-10-08T15:10:32Z</time>
      </trkpt>
      <trkpt lat="44.05765" lon="9.99896">
        <ele>1</ele>
        <time>2016-10-08T15:10:33Z</time>
      </trkpt>
      <trkpt lat="44.05761" lon="9.999">
        <ele>0.14</ele>
        <time>2016-10-08T15:10:34Z</time>
      </trkpt>
      <trkpt lat="44.05758" lon="9.99904">
        <ele>0.14</ele>
        <time>2016-10-08T15:10:35Z</time>
      </trkpt>
      <trkpt lat="44.05754" lon="9.99908">
        <ele>1</ele>
        <time>2016-10-08T15:10:36Z</time>
      </trkpt>
      <trkpt lat="44.0575" lon="9.99912">
        <ele>0.14</ele>
        <time>2016-10-08T15:10:37Z</time>
      </trkpt>
      <trkpt lat="44.05672" lon="9.99967">
        <ele>1</ele>
        <time>2016-10-08T15:10:54Z</time>
      </trkpt>
      <trkpt lat="44.05587" lon="10.00023">
        <time>2016-10-08T15:11:12Z</time>
      </trkpt>
      <trkpt lat="44.0549" lon="10.00088">
        <ele>0.14</ele>
        <time>2016-10-08T15:11:32Z</time>
      </trkpt>
      <trkpt lat="44.0539" lon="10.00152">
        <ele>1</ele>
        <time>2016-10-08T15:11:52Z</time>
      </trkpt>
      <trkpt lat="44.05284" lon="10.00222">
        <ele>1.8</ele>
        <time>2016-10-08T15:12:12Z</time>
      </trkpt>
      <trkpt lat="44.05188" lon="10.00283">
        <ele>1.8</ele>
        <time>2016-10-08T15:12:30Z</time>
      </trkpt>
      <trkpt lat="44.05183" lon="10.00283">
        <ele>1.8</ele>
        <time>2016-10-08T15:12:31Z</time>
      </trkpt>
      <trkpt lat="44.05178" lon="10.00283">
        <ele>0.14</ele>
        <time>2016-10-08T15:12:32Z</time>
      </trkpt>
      <trkpt lat="44.05173" lon="10.00281">
        <ele>1.9</ele>
        <time>2016-10-08T15:12:33Z</time>
      </trkpt>
      <trkpt lat="44.05168" lon="10.00278">
        <ele>0.14</ele>
        <time>2016-10-08T15:12:34Z</time>
      </trkpt>
      <trkpt lat="44.05163" lon="10.00276">
        <ele>1.1</ele>
        <time>2016-10-08T15:12:35Z</time>
      </trkpt>
      <trkpt lat="44.05159" lon="10.00276">
        <ele>0.14</ele>
        <time>2016-10-08T15:12:36Z</time>
      </trkpt>
      <trkpt lat="44.05154" lon="10.00277">
        <ele>0.14</ele>
        <time>2016-10-08T15:12:37Z</time>
      </trkpt>
      <trkpt lat="44.05151" lon="10.00281">
        <ele>0.14</ele>
        <time>2016-10-08T15:12:38Z</time>
      </trkpt>
      <trkpt lat="44.05148" lon="10.00285">
        <ele>1</ele>
        <time>2016-10-08T15:12:39Z</time>
      </trkpt>
      <trkpt lat="44.05146" lon="10.0029">
        <ele>1</ele>
        <time>2016-10-08T15:12:40Z</time>
      </trkpt>
      <trkpt lat="44.05146" lon="10.00296">
        <ele>0.14</ele>
        <time>2016-10-08T15:12:41Z</time>
      </trkpt>
      <trkpt lat="44.05146" lon="10.00301">
        <ele>0.14</ele>
        <time>2016-10-08T15:12:42Z</time>
      </trkpt>
      <trkpt lat="44.05147" lon="10.00306">
        <ele>0.62</ele>
        <time>2016-10-08T15:12:43Z</time>
      </trkpt>
      <trkpt lat="44.05148" lon="10.00311">
        <ele>0.62</ele>
        <time>2016-10-08T15:12:44Z</time>
      </trkpt>
      <trkpt lat="44.05147" lon="10.00316">
        <ele>0.14</ele>
        <time>2016-10-08T15:12:45Z</time>
      </trkpt>
      <trkpt lat="44.05146" lon="10.00321">
        <ele>0.62</ele>
        <time>2016-10-08T15:12:46Z</time>
      </trkpt>
      <trkpt lat="44.05145" lon="10.00326">
        <ele>1</ele>
        <time>2016-10-08T15:12:47Z</time>
      </trkpt>
      <trkpt lat="44.05132" lon="10.00363">
        <ele>0.62</ele>
        <time>2016-10-08T15:12:55Z</time>
      </trkpt>
      <trkpt lat="44.0513" lon="10.00369">
        <ele>0.62</ele>
        <time>2016-10-08T15:12:56Z</time>
      </trkpt>
      <trkpt lat="44.05109" lon="10.00475">
        <ele>0.62</ele>
        <time>2016-10-08T15:13:12Z</time>
      </trkpt>
      <trkpt lat="44.05076" lon="10.00583">
        <ele>3</ele>
        <time>2016-10-08T15:13:27Z</time>
      </trkpt>
      <trkpt lat="44.05037" lon="10.00698">
        <ele>1</ele>
        <time>2016-10-08T15:13:43Z</time>
      </trkpt>
      <trkpt lat="44.04991" lon="10.00839">
        <ele>2</ele>
        <time>2016-10-08T15:14:02Z</time>
      </trkpt>
      <trkpt lat="44.0494" lon="10.00987">
        <ele>0.14</ele>
        <time>2016-10-08T15:14:22Z</time>
      </trkpt>
      <trkpt lat="44.04918" lon="10.01067">
        <ele>2</ele>
        <time>2016-10-08T15:14:32Z</time>
      </trkpt>
      <trkpt lat="44.04895" lon="10.01176">
        <ele>2</ele>
        <time>2016-10-08T15:14:46Z</time>
      </trkpt>
      <trkpt lat="44.04866" lon="10.01294">
        <ele>2</ele>
        <time>2016-10-08T15:15:02Z</time>
      </trkpt>
      <trkpt lat="44.04854" lon="10.01343">
        <ele>3</ele>
        <time>2016-10-08T15:15:10Z</time>
      </trkpt>
      <trkpt lat="44.04852" lon="10.01349">
        <ele>3</ele>
        <time>2016-10-08T15:15:11Z</time>
      </trkpt>
      <trkpt lat="44.0485" lon="10.01356">
        <ele>3</ele>
        <time>2016-10-08T15:15:12Z</time>
      </trkpt>
      <trkpt lat="44.04843" lon="10.01382">
        <ele>3</ele>
        <time>2016-10-08T15:15:16Z</time>
      </trkpt>
      <trkpt lat="44.04841" lon="10.01388">
        <ele>3</ele>
        <time>2016-10-08T15:15:17Z</time>
      </trkpt>
      <trkpt lat="44.04839" lon="10.01394">
        <ele>3</ele>
        <time>2016-10-08T15:15:18Z</time>
      </trkpt>
      <trkpt lat="44.04837" lon="10.01401">
        <ele>3</ele>
        <time>2016-10-08T15:15:19Z</time>
      </trkpt>
      <trkpt lat="44.04835" lon="10.01407">
        <ele>3</ele>
        <time>2016-10-08T15:15:20Z</time>
      </trkpt>
      <trkpt lat="44.04833" lon="10.01414">
        <ele>3</ele>
        <time>2016-10-08T15:15:21Z</time>
      </trkpt>
      <trkpt lat="44.04822" lon="10.01474">
        <ele>4</ele>
        <time>2016-10-08T15:15:32Z</time>
      </trkpt>
      <trkpt lat="44.04806" lon="10.01545">
        <ele>5</ele>
        <time>2016-10-08T15:15:48Z</time>
      </trkpt>
      <trkpt lat="44.04788" lon="10.01621">
        <ele>4</ele>
        <time>2016-10-08T15:16:02Z</time>
      </trkpt>
      <trkpt lat="44.04774" lon="10.01674">
        <ele>3</ele>
        <time>2016-10-08T15:16:13Z</time>
      </trkpt>
      <trkpt lat="44.04772" lon="10.01675">
        <ele>3</ele>
        <time>2016-10-08T15:16:14Z</time>
      </trkpt>
      <trkpt lat="44.04771" lon="10.01677">
        <ele>3</ele>
        <time>2016-10-08T15:16:15Z</time>
      </trkpt>
      <trkpt lat="44.0477" lon="10.01679">
        <ele>3</ele>
        <time>2016-10-08T15:16:16Z</time>
      </trkpt>
      <trkpt lat="44.0477" lon="10.0168">
        <ele>3</ele>
        <time>2016-10-08T15:16:17Z</time>
      </trkpt>
      <trkpt lat="44.0477" lon="10.01685">
        <ele>3</ele>
        <time>2016-10-08T15:16:32Z</time>
      </trkpt>
      <trkpt lat="44.0477" lon="10.01694">
        <ele>3</ele>
        <time>2016-10-08T15:17:00Z</time>
      </trkpt>
      <trkpt lat="44.0477" lon="10.01694">
        <ele>3</ele>
        <time>2016-10-08T15:17:31Z</time>
      </trkpt>
      <trkpt lat="44.04771" lon="10.01703">
        <ele>3</ele>
        <time>2016-10-08T15:17:46Z</time>
      </trkpt>
      <trkpt lat="44.04762" lon="10.01739">
        <ele>0.14</ele>
        <time>2016-10-08T15:17:56Z</time>
      </trkpt>
      <trkpt lat="44.04746" lon="10.01817">
        <ele>0.14</ele>
        <time>2016-10-08T15:18:10Z</time>
      </trkpt>
      <trkpt lat="44.0472" lon="10.01935">
        <ele>4</ele>
        <time>2016-10-08T15:18:28Z</time>
      </trkpt>
      <trkpt lat="44.04701" lon="10.01996">
        <ele>2.06</ele>
        <time>2016-10-08T15:18:40Z</time>
      </trkpt>
      <trkpt lat="44.04683" lon="10.02074">
        <ele>1.1</ele>
        <time>2016-10-08T15:18:54Z</time>
      </trkpt>
      <trkpt lat="44.04655" lon="10.0215">
        <ele>1.58</ele>
        <time>2016-10-08T15:19:05Z</time>
      </trkpt>
      <trkpt lat="44.04651" lon="10.02155">
        <ele>1.58</ele>
        <time>2016-10-08T15:19:06Z</time>
      </trkpt>
      <trkpt lat="44.04622" lon="10.02185">
        <ele>1.58</ele>
        <time>2016-10-08T15:19:12Z</time>
      </trkpt>
      <trkpt lat="44.0454" lon="10.02237">
        <ele>1.1</ele>
        <time>2016-10-08T15:19:27Z</time>
      </trkpt>
      <trkpt lat="44.04446" lon="10.02266">
        <ele>1.58</ele>
        <time>2016-10-08T15:19:43Z</time>
      </trkpt>
      <trkpt lat="44.04389" lon="10.02278">
        <ele>2.06</ele>
        <time>2016-10-08T15:19:53Z</time>
      </trkpt>
      <trkpt lat="44.04383" lon="10.02281">
        <ele>1.1</ele>
        <time>2016-10-08T15:19:54Z</time>
      </trkpt>
      <trkpt lat="44.04379" lon="10.02286">
        <ele>1.58</ele>
        <time>2016-10-08T15:19:55Z</time>
      </trkpt>
      <trkpt lat="44.04375" lon="10.02291">
        <ele>1.1</ele>
        <time>2016-10-08T15:19:56Z</time>
      </trkpt>
      <trkpt lat="44.04371" lon="10.02297">
        <ele>1.1</ele>
        <time>2016-10-08T15:19:57Z</time>
      </trkpt>
      <trkpt lat="44.04368" lon="10.02304">
        <ele>1.58</ele>
        <time>2016-10-08T15:19:58Z</time>
      </trkpt>
      <trkpt lat="44.04365" lon="10.0231">
        <ele>1.58</ele>
        <time>2016-10-08T15:19:59Z</time>
      </trkpt>
      <trkpt lat="44.04362" lon="10.02317">
        <ele>1.58</ele>
        <time>2016-10-08T15:20:00Z</time>
      </trkpt>
      <trkpt lat="44.04317" lon="10.02446">
        <ele>1.1</ele>
        <time>2016-10-08T15:20:18Z</time>
      </trkpt>
      <trkpt lat="44.04281" lon="10.02545">
        <ele>1.58</ele>
        <time>2016-10-08T15:20:34Z</time>
      </trkpt>
      <trkpt lat="44.04241" lon="10.0265">
        <ele>0.62</ele>
        <time>2016-10-08T15:20:51Z</time>
      </trkpt>
      <trkpt lat="44.04196" lon="10.02768">
        <ele>1.1</ele>
        <time>2016-10-08T15:21:09Z</time>
      </trkpt>
      <trkpt lat="44.04156" lon="10.02875">
        <ele>0.62</ele>
        <time>2016-10-08T15:21:25Z</time>
      </trkpt>
      <trkpt lat="44.0411" lon="10.02996">
        <ele>1.1</ele>
        <time>2016-10-08T15:21:43Z</time>
      </trkpt>
      <trkpt lat="44.04096" lon="10.03031">
        <ele>1.1</ele>
        <time>2016-10-08T15:21:54Z</time>
      </trkpt>
      <trkpt lat="44.04094" lon="10.03031">
        <ele>4.46</ele>
        <time>2016-10-08T15:22:01Z</time>
      </trkpt>
      <trkpt lat="44.04094" lon="10.03031">
        <ele>1.1</ele>
        <time>2016-10-08T15:22:02Z</time>
      </trkpt>
      <trkpt lat="44.04094" lon="10.03031">
        <ele>1.1</ele>
        <time>2016-10-08T15:22:41Z</time>
      </trkpt>
      <trkpt lat="44.04094" lon="10.03032">
        <ele>0.62</ele>
        <time>2016-10-08T15:22:45Z</time>
      </trkpt>
      <trkpt lat="44.04093" lon="10.03034">
        <ele>0.62</ele>
        <time>2016-10-08T15:22:46Z</time>
      </trkpt>
      <trkpt lat="44.04092" lon="10.03036">
        <ele>1.1</ele>
        <time>2016-10-08T15:22:47Z</time>
      </trkpt>
      <trkpt lat="44.04092" lon="10.03039">
        <ele>1.1</ele>
        <time>2016-10-08T15:22:48Z</time>
      </trkpt>
      <trkpt lat="44.0409" lon="10.03042">
        <ele>0.62</ele>
        <time>2016-10-08T15:22:49Z</time>
      </trkpt>
      <trkpt lat="44.04089" lon="10.03046">
        <ele>1.1</ele>
        <time>2016-10-08T15:22:50Z</time>
      </trkpt>
      <trkpt lat="44.04063" lon="10.03115">
        <ele>1.1</ele>
        <time>2016-10-08T15:23:04Z</time>
      </trkpt>
      <trkpt lat="44.04038" lon="10.03185">
        <ele>1.1</ele>
        <time>2016-10-08T15:23:17Z</time>
      </trkpt>
      <trkpt lat="44.04029" lon="10.03215">
        <ele>1.1</ele>
        <time>2016-10-08T15:23:22Z</time>
      </trkpt>
      <trkpt lat="44.04006" lon="10.0327">
        <ele>1.1</ele>
        <time>2016-10-08T15:23:31Z</time>
      </trkpt>
      <trkpt lat="44.03978" lon="10.03343">
        <ele>0.62</ele>
        <time>2016-10-08T15:23:45Z</time>
      </trkpt>
      <trkpt lat="44.03974" lon="10.03352">
        <ele>0.62</ele>
        <time>2016-10-08T15:23:48Z</time>
      </trkpt>
      <trkpt lat="44.03972" lon="10.03352">
        <ele>0.62</ele>
        <time>2016-10-08T15:23:49Z</time>
      </trkpt>
      <trkpt lat="44.0397" lon="10.03351">
        <ele>0.62</ele>
        <time>2016-10-08T15:23:50Z</time>
      </trkpt>
      <trkpt lat="44.03968" lon="10.0335">
        <ele>0.62</ele>
        <time>2016-10-08T15:23:51Z</time>
      </trkpt>
      <trkpt lat="44.03967" lon="10.03349">
        <ele>0.14</ele>
        <time>2016-10-08T15:23:52Z</time>
      </trkpt>
      <trkpt lat="44.03965" lon="10.03348">
        <ele>0.62</ele>
        <time>2016-10-08T15:23:53Z</time>
      </trkpt>
      <trkpt lat="44.03963" lon="10.03346">
        <ele>0.62</ele>
        <time>2016-10-08T15:23:54Z</time>
      </trkpt>
      <trkpt lat="44.03961" lon="10.03344">
        <ele>1.1</ele>
        <time>2016-10-08T15:23:55Z</time>
      </trkpt>
      <trkpt lat="44.03959" lon="10.03343">
        <ele>0.62</ele>
        <time>2016-10-08T15:23:56Z</time>
      </trkpt>
      <trkpt lat="44.03923" lon="10.03313">
        <ele>0.62</ele>
        <time>2016-10-08T15:24:09Z</time>
      </trkpt>
      <trkpt lat="44.03896" lon="10.03296">
        <ele>0.14</ele>
        <time>2016-10-08T15:24:20Z</time>
      </trkpt>
      <trkpt lat="44.03887" lon="10.03287">
        <ele>0.14</ele>
        <time>2016-10-08T15:24:28Z</time>
      </trkpt>
      <trkpt lat="44.03885" lon="10.03287">
        <ele>0.14</ele>
        <time>2016-10-08T15:24:29Z</time>
      </trkpt>
      <trkpt lat="44.03883" lon="10.03288">
        <ele>0.14</ele>
        <time>2016-10-08T15:24:30Z</time>
      </trkpt>
      <trkpt lat="44.03881" lon="10.0329">
        <ele>0.14</ele>
        <time>2016-10-08T15:24:31Z</time>
      </trkpt>
      <trkpt lat="44.03878" lon="10.03294">
        <ele>2</ele>
        <time>2016-10-08T15:24:32Z</time>
      </trkpt>
      <trkpt lat="44.03876" lon="10.03298">
        <ele>0.14</ele>
        <time>2016-10-08T15:24:33Z</time>
      </trkpt>
      <trkpt lat="44.03847" lon="10.03358">
        <ele>0.14</ele>
        <time>2016-10-08T15:24:48Z</time>
      </trkpt>
      <trkpt lat="44.03817" lon="10.03423">
        <ele>0.14</ele>
        <time>2016-10-08T15:25:04Z</time>
      </trkpt>
      <trkpt lat="44.03814" lon="10.0344">
        <ele>0.14</ele>
        <time>2016-10-08T15:25:08Z</time>
      </trkpt>
      <trkpt lat="44.03815" lon="10.03443">
        <ele>0.14</ele>
        <time>2016-10-08T15:25:09Z</time>
      </trkpt>
      <trkpt lat="44.03817" lon="10.03445">
        <ele>3</ele>
        <time>2016-10-08T15:25:10Z</time>
      </trkpt>
      <trkpt lat="44.03818" lon="10.03448">
        <ele>0.14</ele>
        <time>2016-10-08T15:25:11Z</time>
      </trkpt>
      <trkpt lat="44.03819" lon="10.03451">
        <ele>0.14</ele>
        <time>2016-10-08T15:25:12Z</time>
      </trkpt>
      <trkpt lat="44.03819" lon="10.03454">
        <ele>0.14</ele>
        <time>2016-10-08T15:25:13Z</time>
      </trkpt>
      <trkpt lat="44.03818" lon="10.03457">
        <ele>0.14</ele>
        <time>2016-10-08T15:25:14Z</time>
      </trkpt>
      <trkpt lat="44.03817" lon="10.0346">
        <ele>0.62</ele>
        <time>2016-10-08T15:25:15Z</time>
      </trkpt>
      <trkpt lat="44.03816" lon="10.03463">
        <ele>0.14</ele>
        <time>2016-10-08T15:25:16Z</time>
      </trkpt>
      <trkpt lat="44.03815" lon="10.03464">
        <ele>0.14</ele>
        <time>2016-10-08T15:25:17Z</time>
      </trkpt>
      <trkpt lat="44.03814" lon="10.03464">
        <ele>0.14</ele>
        <time>2016-10-08T15:25:18Z</time>
      </trkpt>
      <trkpt lat="44.03813" lon="10.03461">
        <ele>0.14</ele>
        <time>2016-10-08T15:25:21Z</time>
      </trkpt>
      <trkpt lat="44.03814" lon="10.0346">
        <ele>0.14</ele>
        <time>2016-10-08T15:25:22Z</time>
      </trkpt>
      <trkpt lat="44.03815" lon="10.03459">
        <ele>0.62</ele>
        <time>2016-10-08T15:25:23Z</time>
      </trkpt>
      <trkpt lat="44.03816" lon="10.03458">
        <ele>0.14</ele>
        <time>2016-10-08T15:25:24Z</time>
      </trkpt>
      <trkpt lat="44.03817" lon="10.03456">
        <ele>0.14</ele>
        <time>2016-10-08T15:25:25Z</time>
      </trkpt>
      <trkpt lat="44.03817" lon="10.03454">
        <ele>0.62</ele>
        <time>2016-10-08T15:25:26Z</time>
      </trkpt>
      <trkpt lat="44.03818" lon="10.03453">
        <ele>0.14</ele>
        <time>2016-10-08T15:25:27Z</time>
      </trkpt>
      <trkpt lat="44.03819" lon="10.03455">
        <ele>0.14</ele>
        <time>2016-10-08T15:25:35Z</time>
      </trkpt>
      <trkpt lat="44.03821" lon="10.03456">
        <ele>0.14</ele>
        <time>2016-10-08T15:25:36Z</time>
      </trkpt>
      <trkpt lat="44.03822" lon="10.03457">
        <ele>0.14</ele>
        <time>2016-10-08T15:25:37Z</time>
      </trkpt>
      <trkpt lat="44.03822" lon="10.03459">
        <ele>3</ele>
        <time>2016-10-08T15:25:38Z</time>
      </trkpt>
      <trkpt lat="44.03822" lon="10.03461">
        <ele>3</ele>
        <time>2016-10-08T15:25:39Z</time>
      </trkpt>
      <trkpt lat="44.03821" lon="10.03463">
        <ele>0.14</ele>
        <time>2016-10-08T15:25:40Z</time>
      </trkpt>
      <trkpt lat="44.03819" lon="10.03465">
        <ele>0.14</ele>
        <time>2016-10-08T15:25:41Z</time>
      </trkpt>
      <trkpt lat="44.03817" lon="10.03467">
        <ele>0.14</ele>
        <time>2016-10-08T15:25:42Z</time>
      </trkpt>
      <trkpt lat="44.03815" lon="10.0347">
        <ele>0.62</ele>
        <time>2016-10-08T15:25:43Z</time>
      </trkpt>
      <trkpt lat="44.03788" lon="10.03526">
        <ele>3</ele>
        <time>2016-10-08T15:25:57Z</time>
      </trkpt>
      <trkpt lat="44.03765" lon="10.03581">
        <ele>2</ele>
        <time>2016-10-08T15:26:10Z</time>
      </trkpt>
      <trkpt lat="44.03755" lon="10.03601">
        <ele>0.14</ele>
        <time>2016-10-08T15:26:22Z</time>
      </trkpt>
      <trkpt lat="44.03743" lon="10.03623">
        <ele>2</ele>
        <time>2016-10-08T15:26:33Z</time>
      </trkpt>
      <trkpt lat="44.03742" lon="10.03625">
        <ele>2</ele>
        <time>2016-10-08T15:26:34Z</time>
      </trkpt>
      <trkpt lat="44.03742" lon="10.03627">
        <ele>2</ele>
        <time>2016-10-08T15:26:35Z</time>
      </trkpt>
      <trkpt lat="44.03741" lon="10.03631">
        <ele>2</ele>
        <time>2016-10-08T15:26:37Z</time>
      </trkpt>
      <trkpt lat="44.03739" lon="10.03632">
        <ele>2</ele>
        <time>2016-10-08T15:26:38Z</time>
      </trkpt>
      <trkpt lat="44.03737" lon="10.03633">
        <ele>2</ele>
        <time>2016-10-08T15:26:39Z</time>
      </trkpt>
      <trkpt lat="44.03736" lon="10.03635">
        <ele>2</ele>
        <time>2016-10-08T15:26:40Z</time>
      </trkpt>
      <trkpt lat="44.03735" lon="10.03637">
        <ele>2</ele>
        <time>2016-10-08T15:26:41Z</time>
      </trkpt>
      <trkpt lat="44.03736" lon="10.0364">
        <ele>2</ele>
        <time>2016-10-08T15:26:42Z</time>
      </trkpt>
      <trkpt lat="44.03737" lon="10.03642">
        <ele>2</ele>
        <time>2016-10-08T15:26:43Z</time>
      </trkpt>
      <trkpt lat="44.03738" lon="10.03644">
        <ele>2</ele>
        <time>2016-10-08T15:26:44Z</time>
      </trkpt>
      <trkpt lat="44.03759" lon="10.03668">
        <ele>2</ele>
        <time>2016-10-08T15:26:57Z</time>
      </trkpt>
      <trkpt lat="44.03799" lon="10.03715">
        <ele>0.14</ele>
        <time>2016-10-08T15:27:14Z</time>
      </trkpt>
      <trkpt lat="44.03809" lon="10.03726">
        <ele>0.14</ele>
        <time>2016-10-08T15:27:21Z</time>
      </trkpt>
      <trkpt lat="44.0381" lon="10.03727">
        <ele>0.62</ele>
        <time>2016-10-08T15:27:22Z</time>
      </trkpt>
      <trkpt lat="44.03813" lon="10.03728">
        <ele>0.62</ele>
        <time>2016-10-08T15:27:25Z</time>
      </trkpt>
      <trkpt lat="44.03819" lon="10.03732">
        <ele>3</ele>
        <time>2016-10-08T15:27:30Z</time>
      </trkpt>
      <trkpt lat="44.03821" lon="10.03733">
        <ele>0.14</ele>
        <time>2016-10-08T15:27:31Z</time>
      </trkpt>
      <trkpt lat="44.03821" lon="10.03734">
        <ele>0.14</ele>
        <time>2016-10-08T15:27:32Z</time>
      </trkpt>
      <trkpt lat="44.03823" lon="10.03735">
        <ele>0.14</ele>
        <time>2016-10-08T15:27:33Z</time>
      </trkpt>
      <trkpt lat="44.03824" lon="10.03734">
        <ele>0.14</ele>
        <time>2016-10-08T15:27:49Z</time>
      </trkpt>
      <trkpt lat="44.03829" lon="10.03735">
        <ele>3</ele>
        <time>2016-10-08T15:28:09Z</time>
      </trkpt>
      <trkpt lat="44.03831" lon="10.03737">
        <ele>0.62</ele>
        <time>2016-10-08T15:28:10Z</time>
      </trkpt>
      <trkpt lat="44.03845" lon="10.03753">
        <ele>0.14</ele>
        <time>2016-10-08T15:28:21Z</time>
      </trkpt>
      <trkpt lat="44.03847" lon="10.03754">
        <ele>0.14</ele>
        <time>2016-10-08T15:28:22Z</time>
      </trkpt>
      <trkpt lat="44.03848" lon="10.03757">
        <ele>0.14</ele>
        <time>2016-10-08T15:28:23Z</time>
      </trkpt>
      <trkpt lat="44.0385" lon="10.03759">
        <ele>0.14</ele>
        <time>2016-10-08T15:28:24Z</time>
      </trkpt>
      <trkpt lat="44.03851" lon="10.0376">
        <ele>0.14</ele>
        <time>2016-10-08T15:28:25Z</time>
      </trkpt>
      <trkpt lat="44.03876" lon="10.03778">
        <ele>5</ele>
        <time>2016-10-08T15:28:36Z</time>
      </trkpt>
      <trkpt lat="44.03899" lon="10.03802">
        <ele>0.14</ele>
        <time>2016-10-08T15:28:49Z</time>
      </trkpt>
      <trkpt lat="44.03932" lon="10.03834">
        <ele>0.14</ele>
        <time>2016-10-08T15:29:02Z</time>
      </trkpt>
      <trkpt lat="44.03948" lon="10.0385">
        <ele>0.14</ele>
        <time>2016-10-08T15:29:13Z</time>
      </trkpt>
      <trkpt lat="44.03949" lon="10.03854">
        <ele>0.14</ele>
        <time>2016-10-08T15:29:15Z</time>
      </trkpt>
      <trkpt lat="44.03949" lon="10.03856">
        <ele>0.14</ele>
        <time>2016-10-08T15:29:16Z</time>
      </trkpt>
      <trkpt lat="44.03948" lon="10.03859">
        <ele>0.14</ele>
        <time>2016-10-08T15:29:17Z</time>
      </trkpt>
      <trkpt lat="44.03935" lon="10.03885">
        <ele>5</ele>
        <time>2016-10-08T15:29:29Z</time>
      </trkpt>
      <trkpt lat="44.03933" lon="10.03891">
        <ele>0.14</ele>
        <time>2016-10-08T15:29:44Z</time>
      </trkpt>
      <trkpt lat="44.03934" lon="10.03891">
        <ele>0.14</ele>
        <time>2016-10-08T15:29:47Z</time>
      </trkpt>
      <trkpt lat="44.03944" lon="10.03873">
        <ele>5</ele>
        <time>2016-10-08T15:29:57Z</time>
      </trkpt>
      <trkpt lat="44.03953" lon="10.03861">
        <ele>5</ele>
        <time>2016-10-08T15:30:09Z</time>
      </trkpt>
      <trkpt lat="44.03955" lon="10.03858">
        <ele>0.14</ele>
        <time>2016-10-08T15:30:24Z</time>
      </trkpt>
      <trkpt lat="44.03953" lon="10.03853">
        <ele>5</ele>
        <time>2016-10-08T15:30:27Z</time>
      </trkpt>
      <trkpt lat="44.03954" lon="10.03851">
        <ele>5</ele>
        <time>2016-10-08T15:30:28Z</time>
      </trkpt>
      <trkpt lat="44.03954" lon="10.03848">
        <ele>5</ele>
        <time>2016-10-08T15:30:29Z</time>
      </trkpt>
      <trkpt lat="44.03956" lon="10.03841">
        <ele>5</ele>
        <time>2016-10-08T15:30:32Z</time>
      </trkpt>
      <trkpt lat="44.03956" lon="10.03839">
        <ele>5</ele>
        <time>2016-10-08T15:30:33Z</time>
      </trkpt>
      <trkpt lat="44.03956" lon="10.03838">
        <ele>5</ele>
        <time>2016-10-08T15:30:34Z</time>
      </trkpt>
      <trkpt lat="44.03957" lon="10.03836">
        <ele>5</ele>
        <time>2016-10-08T15:30:35Z</time>
      </trkpt>
      <trkpt lat="44.03958" lon="10.03834">
        <ele>0.14</ele>
        <time>2016-10-08T15:30:36Z</time>
      </trkpt>
      <trkpt lat="44.03958" lon="10.03832">
        <ele>5</ele>
        <time>2016-10-08T15:30:37Z</time>
      </trkpt>
      <trkpt lat="44.03963" lon="10.03823">
        <ele>0.62</ele>
        <time>2016-10-08T15:30:43Z</time>
      </trkpt>
      <trkpt lat="44.03964" lon="10.03821">
        <ele>0.14</ele>
        <time>2016-10-08T15:30:44Z</time>
      </trkpt>
      <trkpt lat="44.03964" lon="10.03819">
        <ele>0.14</ele>
        <time>2016-10-08T15:30:45Z</time>
      </trkpt>
      <trkpt lat="44.03964" lon="10.03818">
        <ele>5</ele>
        <time>2016-10-08T15:30:46Z</time>
      </trkpt>
      <trkpt lat="44.03961" lon="10.03813">
        <ele>5</ele>
        <time>2016-10-08T15:30:58Z</time>
      </trkpt>
      <trkpt lat="44.03962" lon="10.03809">
        <ele>0.14</ele>
        <time>2016-10-08T15:31:32Z</time>
      </trkpt>
      <trkpt lat="44.03957" lon="10.03807">
        <ele>5</ele>
        <time>2016-10-08T15:32:01Z</time>
      </trkpt>
      <trkpt lat="44.03959" lon="10.03807">
        <ele>5</ele>
        <time>2016-10-08T15:32:31Z</time>
      </trkpt>
      <trkpt lat="44.03961" lon="10.03809">
        <ele>0.14</ele>
        <time>2016-10-08T15:33:12Z</time>
      </trkpt>
      <trkpt lat="44.03957" lon="10.03809">
        <ele>0.62</ele>
        <time>2016-10-08T15:33:42Z</time>
      </trkpt>
      <trkpt lat="44.0396" lon="10.03808">
        <ele>0.62</ele>
        <time>2016-10-08T15:34:10Z</time>
      </trkpt>
      <trkpt lat="44.03959" lon="10.0381">
        <ele>1.58</ele>
        <time>2016-10-08T15:34:48Z</time>
      </trkpt>
      <trkpt lat="44.03962" lon="10.0381">
        <ele>1.1</ele>
        <time>2016-10-08T15:35:18Z</time>
      </trkpt>
      <trkpt lat="44.03964" lon="10.03807">
        <ele>1.58</ele>
        <time>2016-10-08T15:35:50Z</time>
      </trkpt>
      <trkpt lat="44.03963" lon="10.03805">
        <ele>1.1</ele>
        <time>2016-10-08T15:36:23Z</time>
      </trkpt>
      <trkpt lat="44.03965" lon="10.03805">
        <ele>2.06</ele>
        <time>2016-10-08T15:36:46Z</time>
      </trkpt>
      <trkpt lat="44.03964" lon="10.03809">
        <ele>2.06</ele>
        <time>2016-10-08T15:37:13Z</time>
      </trkpt>
      <trkpt lat="44.03962" lon="10.03811">
        <ele>3.5</ele>
        <time>2016-10-08T15:37:23Z</time>
      </trkpt>
      <trkpt lat="44.03962" lon="10.03812">
        <ele>2.06</ele>
        <time>2016-10-08T15:37:25Z</time>
      </trkpt>
      <trkpt lat="44.03959" lon="10.0381">
        <ele>2.06</ele>
        <time>2016-10-08T15:38:01Z</time>
      </trkpt>
      <trkpt lat="44.03958" lon="10.03811">
        <ele>2.06</ele>
        <time>2016-10-08T15:38:39Z</time>
      </trkpt>
      <trkpt lat="44.03956" lon="10.0381">
        <ele>2.54</ele>
        <time>2016-10-08T15:39:02Z</time>
      </trkpt>
      <trkpt lat="44.0395" lon="10.03805">
        <ele>1.58</ele>
        <time>2016-10-08T15:39:34Z</time>
      </trkpt>
      <trkpt lat="44.03954" lon="10.03812">
        <ele>2.06</ele>
        <time>2016-10-08T15:40:10Z</time>
      </trkpt>
      <trkpt lat="44.03957" lon="10.03809">
        <ele>1.58</ele>
        <time>2016-10-08T15:40:40Z</time>
      </trkpt>
      <trkpt lat="44.03962" lon="10.03811">
        <ele>1.58</ele>
        <time>2016-10-08T15:41:12Z</time>
      </trkpt>
      <trkpt lat="44.03964" lon="10.03811">
        <ele>0.62</ele>
        <time>2016-10-08T15:41:43Z</time>
      </trkpt>
      <trkpt lat="44.03963" lon="10.03813">
        <ele>1.1</ele>
        <time>2016-10-08T15:42:00Z</time>
      </trkpt>
      <trkpt lat="44.03962" lon="10.0382">
        <ele>1.58</ele>
        <time>2016-10-08T15:42:11Z</time>
      </trkpt>
      <trkpt lat="44.03962" lon="10.03821">
        <ele>1.58</ele>
        <time>2016-10-08T15:42:12Z</time>
      </trkpt>
      <trkpt lat="44.03961" lon="10.03823">
        <ele>2.06</ele>
        <time>2016-10-08T15:42:13Z</time>
      </trkpt>
      <trkpt lat="44.0396" lon="10.03825">
        <ele>1.58</ele>
        <time>2016-10-08T15:42:14Z</time>
      </trkpt>
      <trkpt lat="44.03959" lon="10.03827">
        <ele>1.58</ele>
        <time>2016-10-08T15:42:15Z</time>
      </trkpt>
      <trkpt lat="44.03958" lon="10.03829">
        <ele>1.58</ele>
        <time>2016-10-08T15:42:16Z</time>
      </trkpt>
      <trkpt lat="44.03957" lon="10.03831">
        <ele>1.58</ele>
        <time>2016-10-08T15:42:17Z</time>
      </trkpt>
      <trkpt lat="44.03946" lon="10.03867">
        <ele>1.58</ele>
        <time>2016-10-08T15:42:28Z</time>
      </trkpt>
      <trkpt lat="44.03917" lon="10.03941">
        <ele>2.06</ele>
        <time>2016-10-08T15:42:45Z</time>
      </trkpt>
      <trkpt lat="44.03915" lon="10.03945">
        <ele>1.58</ele>
        <time>2016-10-08T15:42:46Z</time>
      </trkpt>
      <trkpt lat="44.03911" lon="10.03956">
        <ele>1.58</ele>
        <time>2016-10-08T15:42:48Z</time>
      </trkpt>
      <trkpt lat="44.03909" lon="10.03961">
        <ele>2.06</ele>
        <time>2016-10-08T15:42:49Z</time>
      </trkpt>
      <trkpt lat="44.03905" lon="10.03977">
        <ele>1.58</ele>
        <time>2016-10-08T15:42:52Z</time>
      </trkpt>
      <trkpt lat="44.03889" lon="10.04034">
        <ele>1.58</ele>
        <time>2016-10-08T15:43:03Z</time>
      </trkpt>
      <trkpt lat="44.03869" lon="10.0408">
        <ele>0.62</ele>
        <time>2016-10-08T15:43:16Z</time>
      </trkpt>
      <trkpt lat="44.03867" lon="10.0408">
        <ele>1.58</ele>
        <time>2016-10-08T15:43:17Z</time>
      </trkpt>
      <trkpt lat="44.03865" lon="10.04078">
        <ele>1.1</ele>
        <time>2016-10-08T15:43:18Z</time>
      </trkpt>
      <trkpt lat="44.03863" lon="10.04077">
        <ele>1.58</ele>
        <time>2016-10-08T15:43:19Z</time>
      </trkpt>
      <trkpt lat="44.0386" lon="10.04075">
        <ele>2.06</ele>
        <time>2016-10-08T15:43:20Z</time>
      </trkpt>
      <trkpt lat="44.03857" lon="10.04074">
        <ele>1.1</ele>
        <time>2016-10-08T15:43:21Z</time>
      </trkpt>
      <trkpt lat="44.03825" lon="10.04044">
        <ele>1.1</ele>
        <time>2016-10-08T15:43:32Z</time>
      </trkpt>
      <trkpt lat="44.03789" lon="10.04014">
        <ele>2.06</ele>
        <time>2016-10-08T15:43:43Z</time>
      </trkpt>
      <trkpt lat="44.03753" lon="10.03989">
        <ele>1.1</ele>
        <time>2016-10-08T15:43:56Z</time>
      </trkpt>
      <trkpt lat="44.03751" lon="10.03991">
        <ele>1.58</ele>
        <time>2016-10-08T15:43:57Z</time>
      </trkpt>
      <trkpt lat="44.03749" lon="10.03994">
        <ele>2.06</ele>
        <time>2016-10-08T15:43:58Z</time>
      </trkpt>
      <trkpt lat="44.03736" lon="10.04023">
        <ele>1.58</ele>
        <time>2016-10-08T15:44:04Z</time>
      </trkpt>
      <trkpt lat="44.03734" lon="10.04029">
        <ele>1.58</ele>
        <time>2016-10-08T15:44:05Z</time>
      </trkpt>
      <trkpt lat="44.03726" lon="10.04045">
        <ele>1.1</ele>
        <time>2016-10-08T15:44:08Z</time>
      </trkpt>
      <trkpt lat="44.03723" lon="10.0405">
        <ele>1.58</ele>
        <time>2016-10-08T15:44:09Z</time>
      </trkpt>
      <trkpt lat="44.03675" lon="10.04167">
        <ele>1.58</ele>
        <time>2016-10-08T15:44:29Z</time>
      </trkpt>
      <trkpt lat="44.03624" lon="10.04291">
        <ele>1.58</ele>
        <time>2016-10-08T15:44:48Z</time>
      </trkpt>
      <trkpt lat="44.03561" lon="10.0445">
        <ele>1.1</ele>
        <time>2016-10-08T15:45:11Z</time>
      </trkpt>
      <trkpt lat="44.03492" lon="10.04634">
        <ele>2.06</ele>
        <time>2016-10-08T15:45:37Z</time>
      </trkpt>
      <trkpt lat="44.03438" lon="10.04775">
        <ele>1.58</ele>
        <time>2016-10-08T15:45:57Z</time>
      </trkpt>
      <trkpt lat="44.0338" lon="10.04935">
        <ele>1.1</ele>
        <time>2016-10-08T15:46:19Z</time>
      </trkpt>
      <trkpt lat="44.03336" lon="10.05053">
        <ele>1.58</ele>
        <time>2016-10-08T15:46:36Z</time>
      </trkpt>
      <trkpt lat="44.03292" lon="10.05171">
        <ele>3.02</ele>
        <time>2016-10-08T15:46:54Z</time>
      </trkpt>
      <trkpt lat="44.03252" lon="10.05282">
        <ele>3.02</ele>
        <time>2016-10-08T15:47:12Z</time>
      </trkpt>
      <trkpt lat="44.03245" lon="10.0533">
        <ele>2.54</ele>
        <time>2016-10-08T15:47:19Z</time>
      </trkpt>
      <trkpt lat="44.03246" lon="10.05337">
        <ele>3.02</ele>
        <time>2016-10-08T15:47:20Z</time>
      </trkpt>
      <trkpt lat="44.03247" lon="10.05345">
        <ele>2.54</ele>
        <time>2016-10-08T15:47:21Z</time>
      </trkpt>
      <trkpt lat="44.0328" lon="10.05447">
        <ele>1.58</ele>
        <time>2016-10-08T15:47:35Z</time>
      </trkpt>
      <trkpt lat="44.03288" lon="10.05468">
        <ele>1.1</ele>
        <time>2016-10-08T15:47:38Z</time>
      </trkpt>
      <trkpt lat="44.03289" lon="10.05475">
        <ele>1.1</ele>
        <time>2016-10-08T15:47:39Z</time>
      </trkpt>
      <trkpt lat="44.03294" lon="10.05507">
        <ele>1.1</ele>
        <time>2016-10-08T15:47:43Z</time>
      </trkpt>
      <trkpt lat="44.03288" lon="10.05556">
        <ele>0.62</ele>
        <time>2016-10-08T15:47:49Z</time>
      </trkpt>
      <trkpt lat="44.03242" lon="10.05675">
        <ele>4</ele>
        <time>2016-10-08T15:48:05Z</time>
      </trkpt>
      <trkpt lat="44.03182" lon="10.05825">
        <ele>0.62</ele>
        <time>2016-10-08T15:48:26Z</time>
      </trkpt>
      <trkpt lat="44.03135" lon="10.05939">
        <ele>0.62</ele>
        <time>2016-10-08T15:48:42Z</time>
      </trkpt>
      <trkpt lat="44.03086" lon="10.06055">
        <ele>1.1</ele>
        <time>2016-10-08T15:48:58Z</time>
      </trkpt>
      <trkpt lat="44.03026" lon="10.06203">
        <ele>1.58</ele>
        <time>2016-10-08T15:49:18Z</time>
      </trkpt>
      <trkpt lat="44.02959" lon="10.06371">
        <ele>0.62</ele>
        <time>2016-10-08T15:49:41Z</time>
      </trkpt>
      <trkpt lat="44.02905" lon="10.06492">
        <ele>0.62</ele>
        <time>2016-10-08T15:49:58Z</time>
      </trkpt>
      <trkpt lat="44.02849" lon="10.06618">
        <ele>1.1</ele>
        <time>2016-10-08T15:50:16Z</time>
      </trkpt>
      <trkpt lat="44.02793" lon="10.06742">
        <ele>1.58</ele>
        <time>2016-10-08T15:50:34Z</time>
      </trkpt>
      <trkpt lat="44.02746" lon="10.06843">
        <ele>1.1</ele>
        <time>2016-10-08T15:50:49Z</time>
      </trkpt>
      <trkpt lat="44.02696" lon="10.06944">
        <ele>1.1</ele>
        <time>2016-10-08T15:51:04Z</time>
      </trkpt>
      <trkpt lat="44.02646" lon="10.07051">
        <ele>1.1</ele>
        <time>2016-10-08T15:51:20Z</time>
      </trkpt>
      <trkpt lat="44.02577" lon="10.07198">
        <ele>0.62</ele>
        <time>2016-10-08T15:51:41Z</time>
      </trkpt>
      <trkpt lat="44.02521" lon="10.07317">
        <ele>0.62</ele>
        <time>2016-10-08T15:51:58Z</time>
      </trkpt>
      <trkpt lat="44.02457" lon="10.07452">
        <ele>0.62</ele>
        <time>2016-10-08T15:52:17Z</time>
      </trkpt>
      <trkpt lat="44.02403" lon="10.07576">
        <ele>0.14</ele>
        <time>2016-10-08T15:52:35Z</time>
      </trkpt>
      <trkpt lat="44.02344" lon="10.07689">
        <ele>0.14</ele>
        <time>2016-10-08T15:52:52Z</time>
      </trkpt>
      <trkpt lat="44.02323" lon="10.07731">
        <ele>0.14</ele>
        <time>2016-10-08T15:52:58Z</time>
      </trkpt>
      <trkpt lat="44.02255" lon="10.07852">
        <ele>0.14</ele>
        <time>2016-10-08T15:53:15Z</time>
      </trkpt>
      <trkpt lat="44.02185" lon="10.07984">
        <ele>0.62</ele>
        <time>2016-10-08T15:53:34Z</time>
      </trkpt>
      <trkpt lat="44.02125" lon="10.08094">
        <ele>0.14</ele>
        <time>2016-10-08T15:53:50Z</time>
      </trkpt>
      <trkpt lat="44.02084" lon="10.08171">
        <ele>0.62</ele>
        <time>2016-10-08T15:54:03Z</time>
      </trkpt>
      <trkpt lat="44.02081" lon="10.08178">
        <ele>0.14</ele>
        <time>2016-10-08T15:54:04Z</time>
      </trkpt>
      <trkpt lat="44.02023" lon="10.08284">
        <ele>0.62</ele>
        <time>2016-10-08T15:54:21Z</time>
      </trkpt>
      <trkpt lat="44.0197" lon="10.08381">
        <ele>1.1</ele>
        <time>2016-10-08T15:54:37Z</time>
      </trkpt>
      <trkpt lat="44.01942" lon="10.08435">
        <ele>1.1</ele>
        <time>2016-10-08T15:54:48Z</time>
      </trkpt>
      <trkpt lat="44.01924" lon="10.0847">
        <ele>0.62</ele>
        <time>2016-10-08T15:54:54Z</time>
      </trkpt>
      <trkpt lat="44.01918" lon="10.08479">
        <ele>0.62</ele>
        <time>2016-10-08T15:54:56Z</time>
      </trkpt>
      <trkpt lat="44.01901" lon="10.08508">
        <ele>0.62</ele>
        <time>2016-10-08T15:55:08Z</time>
      </trkpt>
      <trkpt lat="44.01899" lon="10.08514">
        <ele>0.14</ele>
        <time>2016-10-08T15:55:21Z</time>
      </trkpt>
      <trkpt lat="44.019" lon="10.08515">
        <ele>0.14</ele>
        <time>2016-10-08T15:55:22Z</time>
      </trkpt>
      <trkpt lat="44.01901" lon="10.08517">
        <ele>0.14</ele>
        <time>2016-10-08T15:55:23Z</time>
      </trkpt>
      <trkpt lat="44.01903" lon="10.08516">
        <ele>0.14</ele>
        <time>2016-10-08T15:55:24Z</time>
      </trkpt>
      <trkpt lat="44.01905" lon="10.08516">
        <ele>0.14</ele>
        <time>2016-10-08T15:55:25Z</time>
      </trkpt>
      <trkpt lat="44.01907" lon="10.08514">
        <ele>0.62</ele>
        <time>2016-10-08T15:55:26Z</time>
      </trkpt>
      <trkpt lat="44.01908" lon="10.08514">
        <ele>0.62</ele>
        <time>2016-10-08T15:55:27Z</time>
      </trkpt>
      <trkpt lat="44.0191" lon="10.08514">
        <ele>0.62</ele>
        <time>2016-10-08T15:55:28Z</time>
      </trkpt>
      <trkpt lat="44.01913" lon="10.08516">
        <ele>0.14</ele>
        <time>2016-10-08T15:55:29Z</time>
      </trkpt>
      <trkpt lat="44.01932" lon="10.08537">
        <ele>0.14</ele>
        <time>2016-10-08T15:55:38Z</time>
      </trkpt>
      <trkpt lat="44.01933" lon="10.08548">
        <ele>0.14</ele>
        <time>2016-10-08T15:55:43Z</time>
      </trkpt>
      <trkpt lat="44.01941" lon="10.08558">
        <ele>0.14</ele>
        <time>2016-10-08T15:55:59Z</time>
      </trkpt>
      <trkpt lat="44.01941" lon="10.08562">
        <ele>0.14</ele>
        <time>2016-10-08T15:56:21Z</time>
      </trkpt>
      <trkpt lat="44.01942" lon="10.08563">
        <ele>0.62</ele>
        <time>2016-10-08T15:57:00Z</time>
      </trkpt>
      <trkpt lat="44.0194" lon="10.08566">
        <ele>0.62</ele>
        <time>2016-10-08T15:57:33Z</time>
      </trkpt>
      <trkpt lat="44.01942" lon="10.08564">
        <ele>0.62</ele>
        <time>2016-10-08T15:58:08Z</time>
      </trkpt>
      <trkpt lat="44.01943" lon="10.08563">
        <ele>0.14</ele>
        <time>2016-10-08T15:58:40Z</time>
      </trkpt>
      <trkpt lat="44.01942" lon="10.08562">
        <ele>0.14</ele>
        <time>2016-10-08T15:59:13Z</time>
      </trkpt>
      <trkpt lat="44.0194" lon="10.08564">
        <ele>0.62</ele>
        <time>2016-10-08T16:00:00Z</time>
      </trkpt>
      <trkpt lat="44.01941" lon="10.08565">
        <ele>0.62</ele>
        <time>2016-10-08T16:00:47Z</time>
      </trkpt>
      <trkpt lat="44.01942" lon="10.08564">
        <ele>0.14</ele>
        <time>2016-10-08T16:01:22Z</time>
      </trkpt>
      <trkpt lat="44.0195" lon="10.08568">
        <ele>0.62</ele>
        <time>2016-10-08T16:01:47Z</time>
      </trkpt>
      <trkpt lat="44.01947" lon="10.08572">
        <ele>0.62</ele>
        <time>2016-10-08T16:01:58Z</time>
      </trkpt>
      <trkpt lat="44.01947" lon="10.08576">
        <ele>0.62</ele>
        <time>2016-10-08T16:02:15Z</time>
      </trkpt>
      <trkpt lat="44.01949" lon="10.0857">
        <ele>3</ele>
        <time>2016-10-08T16:02:32Z</time>
      </trkpt>
      <trkpt lat="44.01948" lon="10.08562">
        <ele>3</ele>
        <time>2016-10-08T16:02:56Z</time>
      </trkpt>
      <trkpt lat="44.01949" lon="10.08564">
        <ele>3</ele>
        <time>2016-10-08T16:03:17Z</time>
      </trkpt>
      <trkpt lat="44.0195" lon="10.08569">
        <ele>0.14</ele>
        <time>2016-10-08T16:03:25Z</time>
      </trkpt>
      <trkpt lat="44.01947" lon="10.08571">
        <ele>0.14</ele>
        <time>2016-10-08T16:03:41Z</time>
      </trkpt>
      <trkpt lat="44.01962" lon="10.08571">
        <ele>3</ele>
        <time>2016-10-09T07:43:55Z</time>
      </trkpt>
      <trkpt lat="44.01954" lon="10.08568">
        <ele>3</ele>
        <time>2016-10-09T07:44:05Z</time>
      </trkpt>
      <trkpt lat="44.01933" lon="10.08551">
        <ele>3</ele>
        <time>2016-10-09T07:44:16Z</time>
      </trkpt>
      <trkpt lat="44.01913" lon="10.08511">
        <ele>3</ele>
        <time>2016-10-09T07:44:31Z</time>
      </trkpt>
      <trkpt lat="44.01907" lon="10.08507">
        <ele>3</ele>
        <time>2016-10-09T07:44:44Z</time>
      </trkpt>
      <trkpt lat="44.01897" lon="10.08517">
        <ele>3</ele>
        <time>2016-10-09T07:44:50Z</time>
      </trkpt>
      <trkpt lat="44.01871" lon="10.08574">
        <ele>3</ele>
        <time>2016-10-09T07:45:04Z</time>
      </trkpt>
      <trkpt lat="44.01838" lon="10.08636">
        <ele>3</ele>
        <time>2016-10-09T07:45:18Z</time>
      </trkpt>
      <trkpt lat="44.01836" lon="10.08641">
        <ele>3</ele>
        <time>2016-10-09T07:45:23Z</time>
      </trkpt>
      <trkpt lat="44.01835" lon="10.08642">
        <ele>3</ele>
        <time>2016-10-09T07:45:24Z</time>
      </trkpt>
      <trkpt lat="44.01835" lon="10.08643">
        <ele>3</ele>
        <time>2016-10-09T07:45:25Z</time>
      </trkpt>
      <trkpt lat="44.01833" lon="10.08645">
        <ele>3</ele>
        <time>2016-10-09T07:45:26Z</time>
      </trkpt>
      <trkpt lat="44.01832" lon="10.08647">
        <ele>3</ele>
        <time>2016-10-09T07:45:27Z</time>
      </trkpt>
      <trkpt lat="44.0183" lon="10.08649">
        <ele>3</ele>
        <time>2016-10-09T07:45:28Z</time>
      </trkpt>
      <trkpt lat="44.018" lon="10.08706">
        <ele>4</ele>
        <time>2016-10-09T07:45:40Z</time>
      </trkpt>
      <trkpt lat="44.01771" lon="10.08764">
        <ele>5</ele>
        <time>2016-10-09T07:45:50Z</time>
      </trkpt>
      <trkpt lat="44.01768" lon="10.0877">
        <ele>5</ele>
        <time>2016-10-09T07:45:51Z</time>
      </trkpt>
      <trkpt lat="44.01753" lon="10.08797">
        <ele>5</ele>
        <time>2016-10-09T07:45:56Z</time>
      </trkpt>
      <trkpt lat="44.01749" lon="10.08802">
        <ele>6</ele>
        <time>2016-10-09T07:45:57Z</time>
      </trkpt>
      <trkpt lat="44.01743" lon="10.08813">
        <ele>6</ele>
        <time>2016-10-09T07:45:59Z</time>
      </trkpt>
      <trkpt lat="44.0174" lon="10.08819">
        <ele>6</ele>
        <time>2016-10-09T07:46:00Z</time>
      </trkpt>
      <trkpt lat="44.01675" lon="10.08933">
        <ele>6</ele>
        <time>2016-10-09T07:46:20Z</time>
      </trkpt>
      <trkpt lat="44.01657" lon="10.0896">
        <ele>6</ele>
        <time>2016-10-09T07:46:25Z</time>
      </trkpt>
      <trkpt lat="44.01608" lon="10.09037">
        <ele>6</ele>
        <time>2016-10-09T07:46:40Z</time>
      </trkpt>
      <trkpt lat="44.01557" lon="10.09112">
        <ele>6</ele>
        <time>2016-10-09T07:46:54Z</time>
      </trkpt>
      <trkpt lat="44.01502" lon="10.09199">
        <ele>7</ele>
        <time>2016-10-09T07:47:10Z</time>
      </trkpt>
      <trkpt lat="44.01476" lon="10.09242">
        <ele>6</ele>
        <time>2016-10-09T07:47:18Z</time>
      </trkpt>
      <trkpt lat="44.0144" lon="10.09291">
        <ele>5</ele>
        <time>2016-10-09T07:47:27Z</time>
      </trkpt>
      <trkpt lat="44.01437" lon="10.09296">
        <ele>5</ele>
        <time>2016-10-09T07:47:28Z</time>
      </trkpt>
      <trkpt lat="44.01383" lon="10.09377">
        <ele>3</ele>
        <time>2016-10-09T07:47:43Z</time>
      </trkpt>
      <trkpt lat="44.0138" lon="10.09382">
        <ele>3</ele>
        <time>2016-10-09T07:47:44Z</time>
      </trkpt>
      <trkpt lat="44.01336" lon="10.09462">
        <ele>3</ele>
        <time>2016-10-09T07:47:59Z</time>
      </trkpt>
      <trkpt lat="44.01332" lon="10.09466">
        <ele>3</ele>
        <time>2016-10-09T07:48:00Z</time>
      </trkpt>
      <trkpt lat="44.01321" lon="10.09472">
        <ele>2</ele>
        <time>2016-10-09T07:48:02Z</time>
      </trkpt>
      <trkpt lat="44.01316" lon="10.09477">
        <ele>2</ele>
        <time>2016-10-09T07:48:03Z</time>
      </trkpt>
      <trkpt lat="44.01313" lon="10.09482">
        <ele>2</ele>
        <time>2016-10-09T07:48:04Z</time>
      </trkpt>
      <trkpt lat="44.0131" lon="10.09488">
        <ele>2</ele>
        <time>2016-10-09T07:48:05Z</time>
      </trkpt>
      <trkpt lat="44.01308" lon="10.09494">
        <ele>2</ele>
        <time>2016-10-09T07:48:06Z</time>
      </trkpt>
      <trkpt lat="44.01305" lon="10.095">
        <ele>2</ele>
        <time>2016-10-09T07:48:07Z</time>
      </trkpt>
      <trkpt lat="44.01302" lon="10.09506">
        <ele>2</ele>
        <time>2016-10-09T07:48:08Z</time>
      </trkpt>
      <trkpt lat="44.01299" lon="10.09511">
        <ele>2</ele>
        <time>2016-10-09T07:48:09Z</time>
      </trkpt>
      <trkpt lat="44.01257" lon="10.09575">
        <ele>3</ele>
        <time>2016-10-09T07:48:23Z</time>
      </trkpt>
      <trkpt lat="44.01227" lon="10.09623">
        <ele>3</ele>
        <time>2016-10-09T07:48:33Z</time>
      </trkpt>
      <trkpt lat="44.01224" lon="10.09627">
        <ele>3</ele>
        <time>2016-10-09T07:48:34Z</time>
      </trkpt>
      <trkpt lat="44.01207" lon="10.09648">
        <ele>3</ele>
        <time>2016-10-09T07:48:40Z</time>
      </trkpt>
      <trkpt lat="44.01204" lon="10.09647">
        <ele>3</ele>
        <time>2016-10-09T07:48:41Z</time>
      </trkpt>
      <trkpt lat="44.01201" lon="10.09644">
        <ele>3</ele>
        <time>2016-10-09T07:48:42Z</time>
      </trkpt>
      <trkpt lat="44.01198" lon="10.09641">
        <ele>3</ele>
        <time>2016-10-09T07:48:43Z</time>
      </trkpt>
      <trkpt lat="44.01196" lon="10.09637">
        <ele>3</ele>
        <time>2016-10-09T07:48:44Z</time>
      </trkpt>
      <trkpt lat="44.01156" lon="10.09586">
        <ele>3</ele>
        <time>2016-10-09T07:48:56Z</time>
      </trkpt>
      <trkpt lat="44.01122" lon="10.09545">
        <ele>2</ele>
        <time>2016-10-09T07:49:05Z</time>
      </trkpt>
      <trkpt lat="44.01085" lon="10.095">
        <ele>1</ele>
        <time>2016-10-09T07:49:15Z</time>
      </trkpt>
      <trkpt lat="44.01082" lon="10.09497">
        <ele>1</ele>
        <time>2016-10-09T07:49:16Z</time>
      </trkpt>
      <trkpt lat="44.01076" lon="10.09489">
        <ele>1</ele>
        <time>2016-10-09T07:49:18Z</time>
      </trkpt>
      <trkpt lat="44.01072" lon="10.09487">
        <ele>1</ele>
        <time>2016-10-09T07:49:19Z</time>
      </trkpt>
      <trkpt lat="44.0107" lon="10.09484">
        <ele>1</ele>
        <time>2016-10-09T07:49:20Z</time>
      </trkpt>
      <trkpt lat="44.01068" lon="10.09481">
        <ele>1</ele>
        <time>2016-10-09T07:49:21Z</time>
      </trkpt>
      <trkpt lat="44.01066" lon="10.09479">
        <ele>1</ele>
        <time>2016-10-09T07:49:22Z</time>
      </trkpt>
      <trkpt lat="44.01064" lon="10.09477">
        <ele>1</ele>
        <time>2016-10-09T07:49:23Z</time>
      </trkpt>
      <trkpt lat="44.01059" lon="10.09476">
        <ele>1</ele>
        <time>2016-10-09T07:49:28Z</time>
      </trkpt>
      <trkpt lat="44.01058" lon="10.09477">
        <ele>1</ele>
        <time>2016-10-09T07:49:29Z</time>
      </trkpt>
      <trkpt lat="44.01058" lon="10.09479">
        <ele>1</ele>
        <time>2016-10-09T07:49:30Z</time>
      </trkpt>
      <trkpt lat="44.01057" lon="10.0948">
        <ele>1</ele>
        <time>2016-10-09T07:49:31Z</time>
      </trkpt>
      <trkpt lat="44.01056" lon="10.09482">
        <ele>1</ele>
        <time>2016-10-09T07:49:32Z</time>
      </trkpt>
      <trkpt lat="44.01054" lon="10.09484">
        <ele>1</ele>
        <time>2016-10-09T07:49:33Z</time>
      </trkpt>
      <trkpt lat="44.01031" lon="10.09502">
        <ele>2</ele>
        <time>2016-10-09T07:49:43Z</time>
      </trkpt>
      <trkpt lat="44.00981" lon="10.09585">
        <ele>3</ele>
        <time>2016-10-09T07:50:01Z</time>
      </trkpt>
      <trkpt lat="44.00948" lon="10.09636">
        <ele>2</ele>
        <time>2016-10-09T07:50:11Z</time>
      </trkpt>
      <trkpt lat="44.00921" lon="10.09678">
        <ele>2</ele>
        <time>2016-10-09T07:50:19Z</time>
      </trkpt>
      <trkpt lat="44.0088" lon="10.09744">
        <ele>2</ele>
        <time>2016-10-09T07:50:31Z</time>
      </trkpt>
      <trkpt lat="44.00876" lon="10.09749">
        <ele>2</ele>
        <time>2016-10-09T07:50:32Z</time>
      </trkpt>
      <trkpt lat="44.0084" lon="10.09811">
        <ele>2</ele>
        <time>2016-10-09T07:50:43Z</time>
      </trkpt>
      <trkpt lat="44.00837" lon="10.09816">
        <ele>2</ele>
        <time>2016-10-09T07:50:44Z</time>
      </trkpt>
      <trkpt lat="44.0082" lon="10.09843">
        <ele>2</ele>
        <time>2016-10-09T07:50:49Z</time>
      </trkpt>
      <trkpt lat="44.00816" lon="10.09848">
        <ele>2</ele>
        <time>2016-10-09T07:50:50Z</time>
      </trkpt>
      <trkpt lat="44.00812" lon="10.09853">
        <ele>2</ele>
        <time>2016-10-09T07:50:51Z</time>
      </trkpt>
      <trkpt lat="44.00772" lon="10.09919">
        <ele>2</ele>
        <time>2016-10-09T07:51:06Z</time>
      </trkpt>
      <trkpt lat="44.00767" lon="10.09927">
        <ele>2</ele>
        <time>2016-10-09T07:51:08Z</time>
      </trkpt>
      <trkpt lat="44.00765" lon="10.09932">
        <ele>2</ele>
        <time>2016-10-09T07:51:09Z</time>
      </trkpt>
      <trkpt lat="44.00762" lon="10.09937">
        <ele>2</ele>
        <time>2016-10-09T07:51:10Z</time>
      </trkpt>
      <trkpt lat="44.00706" lon="10.10027">
        <ele>3</ele>
        <time>2016-10-09T07:51:27Z</time>
      </trkpt>
      <trkpt lat="44.00643" lon="10.10127">
        <ele>2</ele>
        <time>2016-10-09T07:51:45Z</time>
      </trkpt>
      <trkpt lat="44.00636" lon="10.10138">
        <ele>2</ele>
        <time>2016-10-09T07:51:47Z</time>
      </trkpt>
      <trkpt lat="44.00632" lon="10.10144">
        <ele>2</ele>
        <time>2016-10-09T07:51:48Z</time>
      </trkpt>
      <trkpt lat="44.00556" lon="10.10263">
        <ele>2</ele>
        <time>2016-10-09T07:52:09Z</time>
      </trkpt>
      <trkpt lat="44.0049" lon="10.1037">
        <ele>2</ele>
        <time>2016-10-09T07:52:27Z</time>
      </trkpt>
      <trkpt lat="44.00453" lon="10.1043">
        <ele>2</ele>
        <time>2016-10-09T07:52:38Z</time>
      </trkpt>
      <trkpt lat="44.00396" lon="10.10523">
        <ele>1</ele>
        <time>2016-10-09T07:52:55Z</time>
      </trkpt>
      <trkpt lat="44.00336" lon="10.10618">
        <ele>2</ele>
        <time>2016-10-09T07:53:11Z</time>
      </trkpt>
      <trkpt lat="44.00308" lon="10.10668">
        <ele>2</ele>
        <time>2016-10-09T07:53:19Z</time>
      </trkpt>
      <trkpt lat="44.00274" lon="10.10724">
        <ele>1</ele>
        <time>2016-10-09T07:53:28Z</time>
      </trkpt>
      <trkpt lat="44.0027" lon="10.1073">
        <ele>1</ele>
        <time>2016-10-09T07:53:29Z</time>
      </trkpt>
      <trkpt lat="44.00265" lon="10.10735">
        <ele>1</ele>
        <time>2016-10-09T07:53:30Z</time>
      </trkpt>
      <trkpt lat="44.00256" lon="10.10745">
        <ele>1</ele>
        <time>2016-10-09T07:53:32Z</time>
      </trkpt>
      <trkpt lat="44.00252" lon="10.10751">
        <ele>1</ele>
        <time>2016-10-09T07:53:33Z</time>
      </trkpt>
      <trkpt lat="44.00242" lon="10.10771">
        <ele>1</ele>
        <time>2016-10-09T07:53:36Z</time>
      </trkpt>
      <trkpt lat="44.00172" lon="10.10889">
        <ele>2</ele>
        <time>2016-10-09T07:53:55Z</time>
      </trkpt>
      <trkpt lat="44.00131" lon="10.10956">
        <ele>2</ele>
        <time>2016-10-09T07:54:06Z</time>
      </trkpt>
      <trkpt lat="44.0007" lon="10.11054">
        <ele>2</ele>
        <time>2016-10-09T07:54:22Z</time>
      </trkpt>
      <trkpt lat="43.99993" lon="10.1118">
        <ele>1</ele>
        <time>2016-10-09T07:54:42Z</time>
      </trkpt>
      <trkpt lat="43.99925" lon="10.11285">
        <ele>1</ele>
        <time>2016-10-09T07:54:59Z</time>
      </trkpt>
      <trkpt lat="43.99854" lon="10.11402">
        <ele>1</ele>
        <time>2016-10-09T07:55:17Z</time>
      </trkpt>
      <trkpt lat="43.99779" lon="10.11522">
        <ele>2</ele>
        <time>2016-10-09T07:55:35Z</time>
      </trkpt>
      <trkpt lat="43.99706" lon="10.11636">
        <ele>2</ele>
        <time>2016-10-09T07:55:53Z</time>
      </trkpt>
      <trkpt lat="43.9964" lon="10.11736">
        <ele>2</ele>
        <time>2016-10-09T07:56:09Z</time>
      </trkpt>
      <trkpt lat="43.99565" lon="10.11851">
        <ele>2</ele>
        <time>2016-10-09T07:56:27Z</time>
      </trkpt>
      <trkpt lat="43.99488" lon="10.11972">
        <ele>3</ele>
        <time>2016-10-09T07:56:46Z</time>
      </trkpt>
      <trkpt lat="43.99414" lon="10.12085">
        <ele>3</ele>
        <time>2016-10-09T07:57:04Z</time>
      </trkpt>
      <trkpt lat="43.99341" lon="10.12197">
        <ele>2</ele>
        <time>2016-10-09T07:57:22Z</time>
      </trkpt>
      <trkpt lat="43.9926" lon="10.12312">
        <ele>3</ele>
        <time>2016-10-09T07:57:41Z</time>
      </trkpt>
      <trkpt lat="43.99196" lon="10.12402">
        <ele>2</ele>
        <time>2016-10-09T07:57:56Z</time>
      </trkpt>
      <trkpt lat="43.99125" lon="10.12504">
        <ele>3</ele>
        <time>2016-10-09T07:58:13Z</time>
      </trkpt>
      <trkpt lat="43.99121" lon="10.1251">
        <ele>3</ele>
        <time>2016-10-09T07:58:14Z</time>
      </trkpt>
      <trkpt lat="43.99059" lon="10.126">
        <ele>2</ele>
        <time>2016-10-09T07:58:29Z</time>
      </trkpt>
      <trkpt lat="43.98972" lon="10.1272">
        <ele>1</ele>
        <time>2016-10-09T07:58:49Z</time>
      </trkpt>
      <trkpt lat="43.98903" lon="10.12821">
        <ele>3</ele>
        <time>2016-10-09T07:59:05Z</time>
      </trkpt>
      <trkpt lat="43.98832" lon="10.1292">
        <ele>2</ele>
        <time>2016-10-09T07:59:21Z</time>
      </trkpt>
      <trkpt lat="43.98759" lon="10.13023">
        <ele>3</ele>
        <time>2016-10-09T07:59:38Z</time>
      </trkpt>
      <trkpt lat="43.98683" lon="10.13132">
        <ele>3</ele>
        <time>2016-10-09T07:59:56Z</time>
      </trkpt>
      <trkpt lat="43.98605" lon="10.13241">
        <ele>3</ele>
        <time>2016-10-09T08:00:14Z</time>
      </trkpt>
      <trkpt lat="43.9852" lon="10.13359">
        <ele>4</ele>
        <time>2016-10-09T08:00:34Z</time>
      </trkpt>
      <trkpt lat="43.98455" lon="10.13449">
        <ele>2</ele>
        <time>2016-10-09T08:00:49Z</time>
      </trkpt>
      <trkpt lat="43.98367" lon="10.13572">
        <ele>2</ele>
        <time>2016-10-09T08:01:09Z</time>
      </trkpt>
      <trkpt lat="43.98283" lon="10.13689">
        <ele>2</ele>
        <time>2016-10-09T08:01:28Z</time>
      </trkpt>
      <trkpt lat="43.98209" lon="10.13794">
        <ele>2</ele>
        <time>2016-10-09T08:01:45Z</time>
      </trkpt>
      <trkpt lat="43.98141" lon="10.13887">
        <ele>1</ele>
        <time>2016-10-09T08:02:00Z</time>
      </trkpt>
      <trkpt lat="43.98088" lon="10.13962">
        <ele>1</ele>
        <time>2016-10-09T08:02:12Z</time>
      </trkpt>
      <trkpt lat="43.98018" lon="10.14057">
        <ele>2</ele>
        <time>2016-10-09T08:02:28Z</time>
      </trkpt>
      <trkpt lat="43.97926" lon="10.14177">
        <ele>2</ele>
        <time>2016-10-09T08:02:49Z</time>
      </trkpt>
      <trkpt lat="43.97851" lon="10.14275">
        <ele>2</ele>
        <time>2016-10-09T08:03:08Z</time>
      </trkpt>
      <trkpt lat="43.97789" lon="10.14358">
        <ele>2</ele>
        <time>2016-10-09T08:03:25Z</time>
      </trkpt>
      <trkpt lat="43.9768" lon="10.14492">
        <ele>4</ele>
        <time>2016-10-09T08:03:46Z</time>
      </trkpt>
      <trkpt lat="43.97574" lon="10.14619">
        <ele>2</ele>
        <time>2016-10-09T08:04:08Z</time>
      </trkpt>
      <trkpt lat="43.97482" lon="10.14727">
        <ele>3</ele>
        <time>2016-10-09T08:04:28Z</time>
      </trkpt>
      <trkpt lat="43.97391" lon="10.14836">
        <ele>2</ele>
        <time>2016-10-09T08:04:48Z</time>
      </trkpt>
      <trkpt lat="43.97295" lon="10.14948">
        <ele>2</ele>
        <time>2016-10-09T08:05:09Z</time>
      </trkpt>
      <trkpt lat="43.97212" lon="10.15047">
        <ele>1</ele>
        <time>2016-10-09T08:05:27Z</time>
      </trkpt>
      <trkpt lat="43.97118" lon="10.15158">
        <ele>2</ele>
        <time>2016-10-09T08:05:47Z</time>
      </trkpt>
      <trkpt lat="43.97016" lon="10.1528">
        <ele>3</ele>
        <time>2016-10-09T08:06:09Z</time>
      </trkpt>
      <trkpt lat="43.96933" lon="10.15381">
        <ele>4</ele>
        <time>2016-10-09T08:06:27Z</time>
      </trkpt>
      <trkpt lat="43.96845" lon="10.15487">
        <ele>3</ele>
        <time>2016-10-09T08:06:47Z</time>
      </trkpt>
      <trkpt lat="43.96763" lon="10.15583">
        <ele>2</ele>
        <time>2016-10-09T08:07:06Z</time>
      </trkpt>
      <trkpt lat="43.96678" lon="10.15686">
        <ele>3</ele>
        <time>2016-10-09T08:07:24Z</time>
      </trkpt>
      <trkpt lat="43.96591" lon="10.1579">
        <ele>3</ele>
        <time>2016-10-09T08:07:42Z</time>
      </trkpt>
      <trkpt lat="43.96497" lon="10.15899">
        <ele>2</ele>
        <time>2016-10-09T08:08:02Z</time>
      </trkpt>
      <trkpt lat="43.9641" lon="10.16004">
        <ele>2</ele>
        <time>2016-10-09T08:08:20Z</time>
      </trkpt>
      <trkpt lat="43.96315" lon="10.1612">
        <ele>2</ele>
        <time>2016-10-09T08:08:40Z</time>
      </trkpt>
      <trkpt lat="43.96224" lon="10.16229">
        <ele>2</ele>
        <time>2016-10-09T08:08:59Z</time>
      </trkpt>
      <trkpt lat="43.96125" lon="10.16349">
        <ele>2</ele>
        <time>2016-10-09T08:09:20Z</time>
      </trkpt>
      <trkpt lat="43.96068" lon="10.16416">
        <ele>1</ele>
        <time>2016-10-09T08:09:32Z</time>
      </trkpt>
      <trkpt lat="43.95991" lon="10.16507">
        <ele>2</ele>
        <time>2016-10-09T08:09:48Z</time>
      </trkpt>
      <trkpt lat="43.95906" lon="10.16607">
        <ele>2</ele>
        <time>2016-10-09T08:10:06Z</time>
      </trkpt>
      <trkpt lat="43.95825" lon="10.16701">
        <ele>1</ele>
        <time>2016-10-09T08:10:23Z</time>
      </trkpt>
      <trkpt lat="43.95759" lon="10.16792">
        <ele>2</ele>
        <time>2016-10-09T08:10:38Z</time>
      </trkpt>
      <trkpt lat="43.95684" lon="10.16872">
        <ele>2</ele>
        <time>2016-10-09T08:10:53Z</time>
      </trkpt>
      <trkpt lat="43.95662" lon="10.16898">
        <ele>2</ele>
        <time>2016-10-09T08:10:58Z</time>
      </trkpt>
      <trkpt lat="43.95643" lon="10.16916">
        <ele>2</ele>
        <time>2016-10-09T08:11:03Z</time>
      </trkpt>
      <trkpt lat="43.9564" lon="10.1692">
        <ele>2</ele>
        <time>2016-10-09T08:11:04Z</time>
      </trkpt>
      <trkpt lat="43.95636" lon="10.16923">
        <ele>2</ele>
        <time>2016-10-09T08:11:05Z</time>
      </trkpt>
      <trkpt lat="43.95571" lon="10.16993">
        <ele>2</ele>
        <time>2016-10-09T08:11:21Z</time>
      </trkpt>
      <trkpt lat="43.95482" lon="10.17092">
        <ele>1</ele>
        <time>2016-10-09T08:11:41Z</time>
      </trkpt>
      <trkpt lat="43.95377" lon="10.17206">
        <ele>2</ele>
        <time>2016-10-09T08:12:03Z</time>
      </trkpt>
      <trkpt lat="43.95274" lon="10.17317">
        <ele>2</ele>
        <time>2016-10-09T08:12:24Z</time>
      </trkpt>
      <trkpt lat="43.95177" lon="10.17421">
        <ele>4</ele>
        <time>2016-10-09T08:12:44Z</time>
      </trkpt>
      <trkpt lat="43.95165" lon="10.17431">
        <ele>4</ele>
        <time>2016-10-09T08:12:47Z</time>
      </trkpt>
      <trkpt lat="43.9516" lon="10.17434">
        <ele>4</ele>
        <time>2016-10-09T08:12:48Z</time>
      </trkpt>
      <trkpt lat="43.95156" lon="10.17435">
        <ele>4</ele>
        <time>2016-10-09T08:12:49Z</time>
      </trkpt>
      <trkpt lat="43.95152" lon="10.17435">
        <ele>4</ele>
        <time>2016-10-09T08:12:50Z</time>
      </trkpt>
      <trkpt lat="43.95147" lon="10.17437">
        <ele>4</ele>
        <time>2016-10-09T08:12:51Z</time>
      </trkpt>
      <trkpt lat="43.95143" lon="10.1744">
        <ele>4</ele>
        <time>2016-10-09T08:12:52Z</time>
      </trkpt>
      <trkpt lat="43.95138" lon="10.17445">
        <ele>4</ele>
        <time>2016-10-09T08:12:53Z</time>
      </trkpt>
      <trkpt lat="43.95134" lon="10.1745">
        <ele>4</ele>
        <time>2016-10-09T08:12:54Z</time>
      </trkpt>
      <trkpt lat="43.9513" lon="10.17455">
        <ele>4</ele>
        <time>2016-10-09T08:12:55Z</time>
      </trkpt>
      <trkpt lat="43.951" lon="10.17489">
        <ele>4</ele>
        <time>2016-10-09T08:13:02Z</time>
      </trkpt>
      <trkpt lat="43.94991" lon="10.17603">
        <ele>2</ele>
        <time>2016-10-09T08:13:26Z</time>
      </trkpt>
      <trkpt lat="43.94896" lon="10.17706">
        <ele>3</ele>
        <time>2016-10-09T08:13:46Z</time>
      </trkpt>
      <trkpt lat="43.9482" lon="10.17788">
        <ele>3</ele>
        <time>2016-10-09T08:14:02Z</time>
      </trkpt>
      <trkpt lat="43.94719" lon="10.17897">
        <ele>2</ele>
        <time>2016-10-09T08:14:23Z</time>
      </trkpt>
      <trkpt lat="43.94637" lon="10.17986">
        <ele>2</ele>
        <time>2016-10-09T08:14:40Z</time>
      </trkpt>
      <trkpt lat="43.94565" lon="10.18066">
        <ele>2</ele>
        <time>2016-10-09T08:14:55Z</time>
      </trkpt>
      <trkpt lat="43.94496" lon="10.1814">
        <ele>3</ele>
        <time>2016-10-09T08:15:10Z</time>
      </trkpt>
      <trkpt lat="43.94492" lon="10.18145">
        <ele>3</ele>
        <time>2016-10-09T08:15:11Z</time>
      </trkpt>
      <trkpt lat="43.94484" lon="10.18152">
        <ele>3</ele>
        <time>2016-10-09T08:15:13Z</time>
      </trkpt>
      <trkpt lat="43.94481" lon="10.18156">
        <ele>3</ele>
        <time>2016-10-09T08:15:14Z</time>
      </trkpt>
      <trkpt lat="43.9445" lon="10.18189">
        <ele>3</ele>
        <time>2016-10-09T08:15:22Z</time>
      </trkpt>
      <trkpt lat="43.94446" lon="10.18194">
        <ele>3</ele>
        <time>2016-10-09T08:15:23Z</time>
      </trkpt>
      <trkpt lat="43.94377" lon="10.18269">
        <ele>2</ele>
        <time>2016-10-09T08:15:39Z</time>
      </trkpt>
      <trkpt lat="43.94293" lon="10.18359">
        <ele>3</ele>
        <time>2016-10-09T08:15:57Z</time>
      </trkpt>
      <trkpt lat="43.94169" lon="10.18494">
        <ele>3</ele>
        <time>2016-10-09T08:16:23Z</time>
      </trkpt>
      <trkpt lat="43.94083" lon="10.18586">
        <ele>4</ele>
        <time>2016-10-09T08:16:41Z</time>
      </trkpt>
      <trkpt lat="43.93992" lon="10.18685">
        <ele>3</ele>
        <time>2016-10-09T08:17:00Z</time>
      </trkpt>
      <trkpt lat="43.93873" lon="10.18813">
        <ele>3</ele>
        <time>2016-10-09T08:17:25Z</time>
      </trkpt>
      <trkpt lat="43.93837" lon="10.18852">
        <ele>3</ele>
        <time>2016-10-09T08:17:34Z</time>
      </trkpt>
      <trkpt lat="43.93763" lon="10.1893">
        <ele>3</ele>
        <time>2016-10-09T08:17:54Z</time>
      </trkpt>
      <trkpt lat="43.93714" lon="10.18976">
        <ele>1</ele>
        <time>2016-10-09T08:18:11Z</time>
      </trkpt>
      <trkpt lat="43.93685" lon="10.19005">
        <ele>1</ele>
        <time>2016-10-09T08:18:23Z</time>
      </trkpt>
      <trkpt lat="43.93678" lon="10.19007">
        <ele>1</ele>
        <time>2016-10-09T08:18:26Z</time>
      </trkpt>
      <trkpt lat="43.93676" lon="10.19005">
        <ele>1</ele>
        <time>2016-10-09T08:18:27Z</time>
      </trkpt>
      <trkpt lat="43.93674" lon="10.19003">
        <ele>1</ele>
        <time>2016-10-09T08:18:28Z</time>
      </trkpt>
      <trkpt lat="43.93656" lon="10.18962">
        <ele>1</ele>
        <time>2016-10-09T08:18:44Z</time>
      </trkpt>
      <trkpt lat="43.93644" lon="10.18941">
        <ele>1</ele>
        <time>2016-10-09T08:18:57Z</time>
      </trkpt>
      <trkpt lat="43.9364" lon="10.18933">
        <ele>1</ele>
        <time>2016-10-09T08:19:05Z</time>
      </trkpt>
      <trkpt lat="43.93636" lon="10.18925">
        <ele>1</ele>
        <time>2016-10-09T08:19:12Z</time>
      </trkpt>
      <trkpt lat="43.93635" lon="10.18924">
        <ele>1</ele>
        <time>2016-10-09T08:19:13Z</time>
      </trkpt>
      <trkpt lat="43.93627" lon="10.1891">
        <ele>1</ele>
        <time>2016-10-09T08:19:31Z</time>
      </trkpt>
      <trkpt lat="43.93625" lon="10.18905">
        <ele>1</ele>
        <time>2016-10-09T08:20:12Z</time>
      </trkpt>
      <trkpt lat="43.93624" lon="10.18907">
        <ele>1</ele>
        <time>2016-10-09T08:20:52Z</time>
      </trkpt>
      <trkpt lat="43.93628" lon="10.18908">
        <ele>1</ele>
        <time>2016-10-09T08:21:39Z</time>
      </trkpt>
      <trkpt lat="43.9363" lon="10.18908">
        <ele>1</ele>
        <time>2016-10-09T08:22:42Z</time>
      </trkpt>
      <trkpt lat="43.93625" lon="10.18906">
        <ele>1</ele>
        <time>2016-10-09T08:23:30Z</time>
      </trkpt>
      <trkpt lat="43.93626" lon="10.18908">
        <ele>1</ele>
        <time>2016-10-09T08:24:30Z</time>
      </trkpt>
      <trkpt lat="43.93625" lon="10.18908">
        <ele>1</ele>
        <time>2016-10-09T08:25:28Z</time>
      </trkpt>
      <trkpt lat="43.93626" lon="10.18908">
        <ele>1</ele>
        <time>2016-10-09T08:26:14Z</time>
      </trkpt>
      <trkpt lat="43.93625" lon="10.1891">
        <ele>1</ele>
        <time>2016-10-09T08:26:50Z</time>
      </trkpt>
      <trkpt lat="43.93625" lon="10.1891">
        <ele>1</ele>
        <time>2016-10-09T08:27:15Z</time>
      </trkpt>
      <trkpt lat="43.93635" lon="10.18928">
        <ele>1</ele>
        <time>2016-10-09T08:27:33Z</time>
      </trkpt>
      <trkpt lat="43.93642" lon="10.18938">
        <ele>1</ele>
        <time>2016-10-09T08:27:48Z</time>
      </trkpt>
      <trkpt lat="43.93651" lon="10.18954">
        <ele>1</ele>
        <time>2016-10-09T08:28:02Z</time>
      </trkpt>
      <trkpt lat="43.93659" lon="10.18972">
        <ele>1</ele>
        <time>2016-10-09T08:28:17Z</time>
      </trkpt>
      <trkpt lat="43.93659" lon="10.18975">
        <ele>1</ele>
        <time>2016-10-09T08:28:19Z</time>
      </trkpt>
      <trkpt lat="43.93661" lon="10.1898">
        <ele>1</ele>
        <time>2016-10-09T08:28:35Z</time>
      </trkpt>
      <trkpt lat="43.93677" lon="10.19018">
        <ele>1</ele>
        <time>2016-10-09T08:28:45Z</time>
      </trkpt>
      <trkpt lat="43.9371" lon="10.19081">
        <ele>2</ele>
        <time>2016-10-09T08:28:59Z</time>
      </trkpt>
      <trkpt lat="43.93733" lon="10.19128">
        <ele>3</ele>
        <time>2016-10-09T08:29:11Z</time>
      </trkpt>
      <trkpt lat="43.9378" lon="10.19212">
        <ele>3</ele>
        <time>2016-10-09T08:29:30Z</time>
      </trkpt>
      <trkpt lat="43.93817" lon="10.19278">
        <ele>4</ele>
        <time>2016-10-09T08:29:45Z</time>
      </trkpt>
      <trkpt lat="43.93834" lon="10.19312">
        <ele>5</ele>
        <time>2016-10-09T08:29:52Z</time>
      </trkpt>
      <trkpt lat="43.93836" lon="10.19317">
        <ele>5</ele>
        <time>2016-10-09T08:29:53Z</time>
      </trkpt>
      <trkpt lat="43.93881" lon="10.194">
        <ele>7</ele>
        <time>2016-10-09T08:30:09Z</time>
      </trkpt>
      <trkpt lat="43.93895" lon="10.19427">
        <ele>7</ele>
        <time>2016-10-09T08:30:14Z</time>
      </trkpt>
      <trkpt lat="43.93898" lon="10.19432">
        <ele>7</ele>
        <time>2016-10-09T08:30:15Z</time>
      </trkpt>
      <trkpt lat="43.93901" lon="10.19437">
        <ele>7</ele>
        <time>2016-10-09T08:30:16Z</time>
      </trkpt>
      <trkpt lat="43.93904" lon="10.19443">
        <ele>7</ele>
        <time>2016-10-09T08:30:17Z</time>
      </trkpt>
      <trkpt lat="43.93907" lon="10.19448">
        <ele>7</ele>
        <time>2016-10-09T08:30:18Z</time>
      </trkpt>
      <trkpt lat="43.93921" lon="10.19476">
        <ele>9</ele>
        <time>2016-10-09T08:30:23Z</time>
      </trkpt>
      <trkpt lat="43.93924" lon="10.19481">
        <ele>9</ele>
        <time>2016-10-09T08:30:24Z</time>
      </trkpt>
      <trkpt lat="43.93971" lon="10.19569">
        <ele>11</ele>
        <time>2016-10-09T08:30:40Z</time>
      </trkpt>
      <trkpt lat="43.94021" lon="10.19659">
        <ele>11</ele>
        <time>2016-10-09T08:30:56Z</time>
      </trkpt>
      <trkpt lat="43.9407" lon="10.19749">
        <ele>10</ele>
        <time>2016-10-09T08:31:12Z</time>
      </trkpt>
      <trkpt lat="43.94122" lon="10.19844">
        <ele>6</ele>
        <time>2016-10-09T08:31:29Z</time>
      </trkpt>
      <trkpt lat="43.94132" lon="10.1986">
        <ele>6</ele>
        <time>2016-10-09T08:31:32Z</time>
      </trkpt>
      <trkpt lat="43.94175" lon="10.19941">
        <ele>4</ele>
        <time>2016-10-09T08:31:46Z</time>
      </trkpt>
      <trkpt lat="43.94178" lon="10.19946">
        <ele>4</ele>
        <time>2016-10-09T08:31:47Z</time>
      </trkpt>
      <trkpt lat="43.94209" lon="10.20002">
        <ele>3</ele>
        <time>2016-10-09T08:31:57Z</time>
      </trkpt>
      <trkpt lat="43.94219" lon="10.20018">
        <ele>3</ele>
        <time>2016-10-09T08:32:00Z</time>
      </trkpt>
      <trkpt lat="43.94222" lon="10.20023">
        <ele>3</ele>
        <time>2016-10-09T08:32:01Z</time>
      </trkpt>
      <trkpt lat="43.9423" lon="10.20039">
        <ele>3</ele>
        <time>2016-10-09T08:32:04Z</time>
      </trkpt>
      <trkpt lat="43.94272" lon="10.20115">
        <ele>4</ele>
        <time>2016-10-09T08:32:17Z</time>
      </trkpt>
      <trkpt lat="43.94311" lon="10.2019">
        <ele>4</ele>
        <time>2016-10-09T08:32:30Z</time>
      </trkpt>
      <trkpt lat="43.94317" lon="10.20199">
        <ele>4</ele>
        <time>2016-10-09T08:32:32Z</time>
      </trkpt>
      <trkpt lat="43.9432" lon="10.20206">
        <ele>4</ele>
        <time>2016-10-09T08:32:33Z</time>
      </trkpt>
      <trkpt lat="43.94324" lon="10.20212">
        <ele>4</ele>
        <time>2016-10-09T08:32:34Z</time>
      </trkpt>
      <trkpt lat="43.94348" lon="10.2026">
        <ele>3</ele>
        <time>2016-10-09T08:32:42Z</time>
      </trkpt>
      <trkpt lat="43.94352" lon="10.20265">
        <ele>3</ele>
        <time>2016-10-09T08:32:43Z</time>
      </trkpt>
      <trkpt lat="43.94362" lon="10.20282">
        <ele>3</ele>
        <time>2016-10-09T08:32:46Z</time>
      </trkpt>
      <trkpt lat="43.94365" lon="10.20288">
        <ele>3</ele>
        <time>2016-10-09T08:32:47Z</time>
      </trkpt>
      <trkpt lat="43.94389" lon="10.20334">
        <ele>2</ele>
        <time>2016-10-09T08:32:55Z</time>
      </trkpt>
      <trkpt lat="43.9442" lon="10.20387">
        <ele>2</ele>
        <time>2016-10-09T08:33:04Z</time>
      </trkpt>
      <trkpt lat="43.94463" lon="10.2047">
        <ele>3</ele>
        <time>2016-10-09T08:33:18Z</time>
      </trkpt>
      <trkpt lat="43.94512" lon="10.2056">
        <ele>3</ele>
        <time>2016-10-09T08:33:34Z</time>
      </trkpt>
      <trkpt lat="43.94553" lon="10.20638">
        <ele>3</ele>
        <time>2016-10-09T08:33:47Z</time>
      </trkpt>
      <trkpt lat="43.94559" lon="10.2065">
        <ele>2</ele>
        <time>2016-10-09T08:33:49Z</time>
      </trkpt>
      <trkpt lat="43.9458" lon="10.20689">
        <ele>2</ele>
        <time>2016-10-09T08:33:56Z</time>
      </trkpt>
      <trkpt lat="43.94582" lon="10.20695">
        <ele>2</ele>
        <time>2016-10-09T08:33:57Z</time>
      </trkpt>
      <trkpt lat="43.94583" lon="10.20701">
        <ele>2</ele>
        <time>2016-10-09T08:33:58Z</time>
      </trkpt>
      <trkpt lat="43.94585" lon="10.20718">
        <ele>2</ele>
        <time>2016-10-09T08:34:01Z</time>
      </trkpt>
      <trkpt lat="43.94587" lon="10.20724">
        <ele>2</ele>
        <time>2016-10-09T08:34:02Z</time>
      </trkpt>
      <trkpt lat="43.9459" lon="10.2073">
        <ele>2</ele>
        <time>2016-10-09T08:34:03Z</time>
      </trkpt>
      <trkpt lat="43.94593" lon="10.20735">
        <ele>2</ele>
        <time>2016-10-09T08:34:04Z</time>
      </trkpt>
      <trkpt lat="43.94597" lon="10.20738">
        <ele>2</ele>
        <time>2016-10-09T08:34:05Z</time>
      </trkpt>
      <trkpt lat="43.94601" lon="10.20741">
        <ele>2</ele>
        <time>2016-10-09T08:34:06Z</time>
      </trkpt>
      <trkpt lat="43.94606" lon="10.20743">
        <ele>2</ele>
        <time>2016-10-09T08:34:07Z</time>
      </trkpt>
      <trkpt lat="43.9461" lon="10.20746">
        <ele>2</ele>
        <time>2016-10-09T08:34:08Z</time>
      </trkpt>
      <trkpt lat="43.94613" lon="10.2075">
        <ele>2</ele>
        <time>2016-10-09T08:34:09Z</time>
      </trkpt>
      <trkpt lat="43.9462" lon="10.2076">
        <ele>3</ele>
        <time>2016-10-09T08:34:11Z</time>
      </trkpt>
      <trkpt lat="43.94622" lon="10.20765">
        <ele>3</ele>
        <time>2016-10-09T08:34:12Z</time>
      </trkpt>
      <trkpt lat="43.94627" lon="10.20777">
        <ele>3</ele>
        <time>2016-10-09T08:34:14Z</time>
      </trkpt>
      <trkpt lat="43.94675" lon="10.20863">
        <ele>4</ele>
        <time>2016-10-09T08:34:30Z</time>
      </trkpt>
      <trkpt lat="43.94681" lon="10.20874">
        <ele>4</ele>
        <time>2016-10-09T08:34:32Z</time>
      </trkpt>
      <trkpt lat="43.94696" lon="10.20902">
        <ele>4</ele>
        <time>2016-10-09T08:34:37Z</time>
      </trkpt>
      <trkpt lat="43.94705" lon="10.2092">
        <ele>3</ele>
        <time>2016-10-09T08:34:40Z</time>
      </trkpt>
      <trkpt lat="43.94708" lon="10.20926">
        <ele>3</ele>
        <time>2016-10-09T08:34:41Z</time>
      </trkpt>
      <trkpt lat="43.94711" lon="10.20932">
        <ele>4</ele>
        <time>2016-10-09T08:34:42Z</time>
      </trkpt>
      <trkpt lat="43.94734" lon="10.20971">
        <ele>4</ele>
        <time>2016-10-09T08:34:50Z</time>
      </trkpt>
      <trkpt lat="43.94749" lon="10.20994">
        <ele>5</ele>
        <time>2016-10-09T08:34:54Z</time>
      </trkpt>
      <trkpt lat="43.94792" lon="10.21077">
        <ele>5</ele>
        <time>2016-10-09T08:35:09Z</time>
      </trkpt>
      <trkpt lat="43.94828" lon="10.21139">
        <ele>5</ele>
        <time>2016-10-09T08:35:20Z</time>
      </trkpt>
      <trkpt lat="43.94853" lon="10.21193">
        <ele>4</ele>
        <time>2016-10-09T08:35:29Z</time>
      </trkpt>
      <trkpt lat="43.94869" lon="10.2122">
        <ele>5</ele>
        <time>2016-10-09T08:35:34Z</time>
      </trkpt>
      <trkpt lat="43.94878" lon="10.21236">
        <ele>0.14</ele>
        <time>2016-10-09T08:35:37Z</time>
      </trkpt>
      <trkpt lat="43.94884" lon="10.21247">
        <ele>5</ele>
        <time>2016-10-09T08:35:39Z</time>
      </trkpt>
      <trkpt lat="43.94886" lon="10.21253">
        <ele>0.14</ele>
        <time>2016-10-09T08:35:40Z</time>
      </trkpt>
      <trkpt lat="43.94901" lon="10.21281">
        <ele>0.14</ele>
        <time>2016-10-09T08:35:45Z</time>
      </trkpt>
      <trkpt lat="43.94904" lon="10.21286">
        <ele>0.14</ele>
        <time>2016-10-09T08:35:46Z</time>
      </trkpt>
      <trkpt lat="43.94907" lon="10.21292">
        <ele>0.14</ele>
        <time>2016-10-09T08:35:47Z</time>
      </trkpt>
      <trkpt lat="43.94942" lon="10.21355">
        <ele>0.14</ele>
        <time>2016-10-09T08:35:58Z</time>
      </trkpt>
      <trkpt lat="43.94976" lon="10.21415">
        <ele>1.1</ele>
        <time>2016-10-09T08:36:09Z</time>
      </trkpt>
      <trkpt lat="43.95025" lon="10.21504">
        <ele>0.62</ele>
        <time>2016-10-09T08:36:24Z</time>
      </trkpt>
      <trkpt lat="43.95064" lon="10.21575">
        <ele>0.62</ele>
        <time>2016-10-09T08:36:36Z</time>
      </trkpt>
      <trkpt lat="43.95088" lon="10.21618">
        <ele>1.1</ele>
        <time>2016-10-09T08:36:43Z</time>
      </trkpt>
      <trkpt lat="43.95129" lon="10.21695">
        <ele>1.58</ele>
        <time>2016-10-09T08:36:56Z</time>
      </trkpt>
      <trkpt lat="43.95187" lon="10.218">
        <ele>1.1</ele>
        <time>2016-10-09T08:37:13Z</time>
      </trkpt>
      <trkpt lat="43.95225" lon="10.21869">
        <ele>1.58</ele>
        <time>2016-10-09T08:37:25Z</time>
      </trkpt>
      <trkpt lat="43.9527" lon="10.2195">
        <ele>1.1</ele>
        <time>2016-10-09T08:37:39Z</time>
      </trkpt>
      <trkpt lat="43.9531" lon="10.22026">
        <ele>3.02</ele>
        <time>2016-10-09T08:37:52Z</time>
      </trkpt>
      <trkpt lat="43.95356" lon="10.22112">
        <ele>4.94</ele>
        <time>2016-10-09T08:38:07Z</time>
      </trkpt>
      <trkpt lat="43.95399" lon="10.22195">
        <ele>3.5</ele>
        <time>2016-10-09T08:38:21Z</time>
      </trkpt>
      <trkpt lat="43.95402" lon="10.22201">
        <ele>3.98</ele>
        <time>2016-10-09T08:38:22Z</time>
      </trkpt>
      <trkpt lat="43.9545" lon="10.22289">
        <ele>3.5</ele>
        <time>2016-10-09T08:38:37Z</time>
      </trkpt>
      <trkpt lat="43.95487" lon="10.22357">
        <ele>3.5</ele>
        <time>2016-10-09T08:38:51Z</time>
      </trkpt>
      <trkpt lat="43.95525" lon="10.22424">
        <ele>3.98</ele>
        <time>2016-10-09T08:39:04Z</time>
      </trkpt>
      <trkpt lat="43.95549" lon="10.22464">
        <ele>3.5</ele>
        <time>2016-10-09T08:39:11Z</time>
      </trkpt>
      <trkpt lat="43.95592" lon="10.22545">
        <ele>4.46</ele>
        <time>2016-10-09T08:39:25Z</time>
      </trkpt>
      <trkpt lat="43.95634" lon="10.22622">
        <ele>4.94</ele>
        <time>2016-10-09T08:39:39Z</time>
      </trkpt>
      <trkpt lat="43.95652" lon="10.22675">
        <ele>4.94</ele>
        <time>2016-10-09T08:39:51Z</time>
      </trkpt>
      <trkpt lat="43.95618" lon="10.22715">
        <ele>4.46</ele>
        <time>2016-10-09T08:40:03Z</time>
      </trkpt>
      <trkpt lat="43.95557" lon="10.22795">
        <ele>4.46</ele>
        <time>2016-10-09T08:40:21Z</time>
      </trkpt>
      <trkpt lat="43.95507" lon="10.22861">
        <ele>4.94</ele>
        <time>2016-10-09T08:40:36Z</time>
      </trkpt>
      <trkpt lat="43.95504" lon="10.22865">
        <ele>4.94</ele>
        <time>2016-10-09T08:40:37Z</time>
      </trkpt>
      <trkpt lat="43.955" lon="10.22869">
        <ele>5.42</ele>
        <time>2016-10-09T08:40:38Z</time>
      </trkpt>
      <trkpt lat="43.95496" lon="10.22872">
        <ele>4.46</ele>
        <time>2016-10-09T08:40:39Z</time>
      </trkpt>
      <trkpt lat="43.95492" lon="10.22876">
        <ele>5.42</ele>
        <time>2016-10-09T08:40:40Z</time>
      </trkpt>
      <trkpt lat="43.95424" lon="10.22914">
        <ele>4.46</ele>
        <time>2016-10-09T08:40:54Z</time>
      </trkpt>
      <trkpt lat="43.95341" lon="10.22935">
        <ele>3.5</ele>
        <time>2016-10-09T08:41:11Z</time>
      </trkpt>
      <trkpt lat="43.95297" lon="10.22931">
        <ele>4.46</ele>
        <time>2016-10-09T08:41:20Z</time>
      </trkpt>
      <trkpt lat="43.95293" lon="10.22932">
        <ele>3.98</ele>
        <time>2016-10-09T08:41:21Z</time>
      </trkpt>
      <trkpt lat="43.95289" lon="10.22935">
        <ele>4.46</ele>
        <time>2016-10-09T08:41:22Z</time>
      </trkpt>
      <trkpt lat="43.95288" lon="10.2294">
        <ele>3.98</ele>
        <time>2016-10-09T08:41:23Z</time>
      </trkpt>
      <trkpt lat="43.95287" lon="10.22945">
        <ele>3.98</ele>
        <time>2016-10-09T08:41:24Z</time>
      </trkpt>
      <trkpt lat="43.95289" lon="10.22951">
        <ele>4.46</ele>
        <time>2016-10-09T08:41:25Z</time>
      </trkpt>
      <trkpt lat="43.95291" lon="10.22957">
        <ele>4.46</ele>
        <time>2016-10-09T08:41:26Z</time>
      </trkpt>
      <trkpt lat="43.95294" lon="10.22961">
        <ele>3.98</ele>
        <time>2016-10-09T08:41:27Z</time>
      </trkpt>
      <trkpt lat="43.95297" lon="10.22966">
        <ele>4.46</ele>
        <time>2016-10-09T08:41:28Z</time>
      </trkpt>
      <trkpt lat="43.95335" lon="10.2302">
        <ele>6.39</ele>
        <time>2016-10-09T08:41:43Z</time>
      </trkpt>
      <trkpt lat="43.95358" lon="10.23054">
        <ele>7.35</ele>
        <time>2016-10-09T08:41:55Z</time>
      </trkpt>
      <trkpt lat="43.9538" lon="10.23086">
        <ele>9.75</ele>
        <time>2016-10-09T08:42:09Z</time>
      </trkpt>
      <trkpt lat="43.95408" lon="10.23125">
        <ele>11.67</ele>
        <time>2016-10-09T08:42:26Z</time>
      </trkpt>
      <trkpt lat="43.95439" lon="10.23168">
        <ele>14.56</ele>
        <time>2016-10-09T08:42:44Z</time>
      </trkpt>
      <trkpt lat="43.95474" lon="10.23218">
        <ele>14.56</ele>
        <time>2016-10-09T08:43:00Z</time>
      </trkpt>
      <trkpt lat="43.95488" lon="10.23231">
        <ele>14.56</ele>
        <time>2016-10-09T08:43:11Z</time>
      </trkpt>
      <trkpt lat="43.95493" lon="10.23235">
        <ele>13.6</ele>
        <time>2016-10-09T08:43:34Z</time>
      </trkpt>
      <trkpt lat="43.95504" lon="10.23251">
        <ele>14.56</ele>
        <time>2016-10-09T08:43:41Z</time>
      </trkpt>
      <trkpt lat="43.95507" lon="10.23251">
        <ele>14.56</ele>
        <time>2016-10-09T08:43:42Z</time>
      </trkpt>
      <trkpt lat="43.9551" lon="10.2325">
        <ele>14.56</ele>
        <time>2016-10-09T08:43:43Z</time>
      </trkpt>
      <trkpt lat="43.95513" lon="10.23248">
        <ele>14.08</ele>
        <time>2016-10-09T08:43:44Z</time>
      </trkpt>
      <trkpt lat="43.95515" lon="10.23245">
        <ele>14.08</ele>
        <time>2016-10-09T08:43:45Z</time>
      </trkpt>
      <trkpt lat="43.95518" lon="10.23242">
        <ele>14.08</ele>
        <time>2016-10-09T08:43:46Z</time>
      </trkpt>
      <trkpt lat="43.95549" lon="10.23202">
        <ele>14.08</ele>
        <time>2016-10-09T08:43:57Z</time>
      </trkpt>
      <trkpt lat="43.95553" lon="10.23198">
        <ele>13.12</ele>
        <time>2016-10-09T08:43:58Z</time>
      </trkpt>
      <trkpt lat="43.95563" lon="10.23184">
        <ele>13.6</ele>
        <time>2016-10-09T08:44:01Z</time>
      </trkpt>
      <trkpt lat="43.95566" lon="10.2318">
        <ele>13.6</ele>
        <time>2016-10-09T08:44:02Z</time>
      </trkpt>
      <trkpt lat="43.95569" lon="10.23175">
        <ele>13.12</ele>
        <time>2016-10-09T08:44:03Z</time>
      </trkpt>
      <trkpt lat="43.95573" lon="10.23171">
        <ele>13.6</ele>
        <time>2016-10-09T08:44:04Z</time>
      </trkpt>
      <trkpt lat="43.95576" lon="10.23166">
        <ele>12.63</ele>
        <time>2016-10-09T08:44:05Z</time>
      </trkpt>
      <trkpt lat="43.95617" lon="10.23123">
        <ele>12.15</ele>
        <time>2016-10-09T08:44:16Z</time>
      </trkpt>
      <trkpt lat="43.9562" lon="10.23118">
        <ele>12.63</ele>
        <time>2016-10-09T08:44:17Z</time>
      </trkpt>
      <trkpt lat="43.95623" lon="10.23113">
        <ele>12.15</ele>
        <time>2016-10-09T08:44:18Z</time>
      </trkpt>
      <trkpt lat="43.95644" lon="10.23091">
        <ele>12.63</ele>
        <time>2016-10-09T08:44:28Z</time>
      </trkpt>
      <trkpt lat="43.95651" lon="10.23091">
        <ele>13.12</ele>
        <time>2016-10-09T08:44:32Z</time>
      </trkpt>
      <trkpt lat="43.95652" lon="10.23092">
        <ele>12.15</ele>
        <time>2016-10-09T08:44:33Z</time>
      </trkpt>
      <trkpt lat="43.95653" lon="10.23095">
        <ele>12.63</ele>
        <time>2016-10-09T08:44:34Z</time>
      </trkpt>
      <trkpt lat="43.95655" lon="10.23097">
        <ele>13.12</ele>
        <time>2016-10-09T08:44:35Z</time>
      </trkpt>
      <trkpt lat="43.95656" lon="10.231">
        <ele>12.15</ele>
        <time>2016-10-09T08:44:36Z</time>
      </trkpt>
      <trkpt lat="43.95665" lon="10.23122">
        <ele>13.6</ele>
        <time>2016-10-09T08:44:48Z</time>
      </trkpt>
      <trkpt lat="43.95673" lon="10.23135">
        <ele>13.6</ele>
        <time>2016-10-09T08:44:56Z</time>
      </trkpt>
      <trkpt lat="43.95675" lon="10.23135">
        <ele>13.12</ele>
        <time>2016-10-09T08:44:57Z</time>
      </trkpt>
      <trkpt lat="43.95677" lon="10.23135">
        <ele>13.6</ele>
        <time>2016-10-09T08:44:58Z</time>
      </trkpt>
      <trkpt lat="43.95692" lon="10.23137">
        <ele>13.6</ele>
        <time>2016-10-09T08:45:08Z</time>
      </trkpt>
      <trkpt lat="43.95693" lon="10.23138">
        <ele>13.6</ele>
        <time>2016-10-09T08:45:09Z</time>
      </trkpt>
      <trkpt lat="43.95694" lon="10.23139">
        <ele>13.6</ele>
        <time>2016-10-09T08:45:10Z</time>
      </trkpt>
      <trkpt lat="43.95695" lon="10.2314">
        <ele>13.12</ele>
        <time>2016-10-09T08:45:11Z</time>
      </trkpt>
      <trkpt lat="43.95696" lon="10.23142">
        <ele>13.12</ele>
        <time>2016-10-09T08:45:12Z</time>
      </trkpt>
      <trkpt lat="43.95697" lon="10.23144">
        <ele>13.12</ele>
        <time>2016-10-09T08:45:13Z</time>
      </trkpt>
      <trkpt lat="43.95698" lon="10.23146">
        <ele>13.12</ele>
        <time>2016-10-09T08:45:14Z</time>
      </trkpt>
      <trkpt lat="43.957" lon="10.23149">
        <ele>13.6</ele>
        <time>2016-10-09T08:45:15Z</time>
      </trkpt>
      <trkpt lat="43.95701" lon="10.23151">
        <ele>13.6</ele>
        <time>2016-10-09T08:45:16Z</time>
      </trkpt>
      <trkpt lat="43.9571" lon="10.23173">
        <ele>14.56</ele>
        <time>2016-10-09T08:45:28Z</time>
      </trkpt>
      <trkpt lat="43.95725" lon="10.232">
        <ele>14.56</ele>
        <time>2016-10-09T08:45:43Z</time>
      </trkpt>
      <trkpt lat="43.95739" lon="10.23223">
        <ele>15.04</ele>
        <time>2016-10-09T08:45:58Z</time>
      </trkpt>
      <trkpt lat="43.95742" lon="10.2323">
        <ele>15.04</ele>
        <time>2016-10-09T08:46:03Z</time>
      </trkpt>
      <trkpt lat="43.95742" lon="10.23236">
        <ele>15.04</ele>
        <time>2016-10-09T08:46:07Z</time>
      </trkpt>
      <trkpt lat="43.95743" lon="10.23237">
        <ele>15.04</ele>
        <time>2016-10-09T08:46:08Z</time>
      </trkpt>
      <trkpt lat="43.95744" lon="10.23238">
        <ele>15.52</ele>
        <time>2016-10-09T08:46:09Z</time>
      </trkpt>
      <trkpt lat="43.95745" lon="10.23239">
        <ele>15.52</ele>
        <time>2016-10-09T08:46:10Z</time>
      </trkpt>
      <trkpt lat="43.95746" lon="10.23241">
        <ele>15.52</ele>
        <time>2016-10-09T08:46:11Z</time>
      </trkpt>
      <trkpt lat="43.95747" lon="10.23242">
        <ele>16</ele>
        <time>2016-10-09T08:46:12Z</time>
      </trkpt>
      <trkpt lat="43.95747" lon="10.23245">
        <ele>16</ele>
        <time>2016-10-09T08:46:16Z</time>
      </trkpt>
      <trkpt lat="43.95743" lon="10.23242">
        <ele>16</ele>
        <time>2016-10-09T08:46:21Z</time>
      </trkpt>
      <trkpt lat="43.95743" lon="10.2324">
        <ele>15.52</ele>
        <time>2016-10-09T08:46:22Z</time>
      </trkpt>
      <trkpt lat="43.95739" lon="10.23219">
        <ele>16</ele>
        <time>2016-10-09T08:46:37Z</time>
      </trkpt>
      <trkpt lat="43.95736" lon="10.23208">
        <ele>15.52</ele>
        <time>2016-10-09T08:47:03Z</time>
      </trkpt>
      <trkpt lat="43.95737" lon="10.2321">
        <ele>16</ele>
        <time>2016-10-09T08:47:40Z</time>
      </trkpt>
      <trkpt lat="43.95734" lon="10.23204">
        <ele>15.52</ele>
        <time>2016-10-09T08:47:58Z</time>
      </trkpt>
      <trkpt lat="43.95737" lon="10.23209">
        <ele>15.52</ele>
        <time>2016-10-09T08:48:25Z</time>
      </trkpt>
      <trkpt lat="43.95738" lon="10.23209">
        <ele>16</ele>
        <time>2016-10-09T08:48:49Z</time>
      </trkpt>
      <trkpt lat="43.95738" lon="10.232">
        <ele>16.48</ele>
        <time>2016-10-09T08:49:23Z</time>
      </trkpt>
      <trkpt lat="43.95722" lon="10.23175">
        <ele>16.48</ele>
        <time>2016-10-09T08:49:40Z</time>
      </trkpt>
      <trkpt lat="43.95721" lon="10.23166">
        <ele>15.52</ele>
        <time>2016-10-09T08:49:52Z</time>
      </trkpt>
      <trkpt lat="43.95721" lon="10.23164">
        <ele>16.48</ele>
        <time>2016-10-09T08:50:26Z</time>
      </trkpt>
      <trkpt lat="43.95713" lon="10.23149">
        <ele>16</ele>
        <time>2016-10-09T08:50:42Z</time>
      </trkpt>
      <trkpt lat="43.95713" lon="10.2315">
        <ele>16.48</ele>
        <time>2016-10-09T08:50:56Z</time>
      </trkpt>
      <trkpt lat="43.95704" lon="10.23136">
        <ele>16.96</ele>
        <time>2016-10-09T08:51:20Z</time>
      </trkpt>
      <trkpt lat="43.95701" lon="10.23134">
        <ele>16.96</ele>
        <time>2016-10-09T08:51:42Z</time>
      </trkpt>
      <trkpt lat="43.95692" lon="10.23133">
        <ele>17.44</ele>
        <time>2016-10-09T08:52:10Z</time>
      </trkpt>
      <trkpt lat="43.95691" lon="10.23134">
        <ele>16.48</ele>
        <time>2016-10-09T08:52:11Z</time>
      </trkpt>
      <trkpt lat="43.95689" lon="10.23134">
        <ele>16.96</ele>
        <time>2016-10-09T08:52:12Z</time>
      </trkpt>
      <trkpt lat="43.95687" lon="10.23134">
        <ele>16.96</ele>
        <time>2016-10-09T08:52:13Z</time>
      </trkpt>
      <trkpt lat="43.95686" lon="10.23135">
        <ele>17.44</ele>
        <time>2016-10-09T08:52:14Z</time>
      </trkpt>
      <trkpt lat="43.95684" lon="10.23136">
        <ele>16.96</ele>
        <time>2016-10-09T08:52:15Z</time>
      </trkpt>
      <trkpt lat="43.95683" lon="10.23137">
        <ele>17.44</ele>
        <time>2016-10-09T08:52:16Z</time>
      </trkpt>
      <trkpt lat="43.95682" lon="10.23138">
        <ele>17.44</ele>
        <time>2016-10-09T08:52:17Z</time>
      </trkpt>
      <trkpt lat="43.95682" lon="10.23141">
        <ele>17.92</ele>
        <time>2016-10-09T08:52:18Z</time>
      </trkpt>
      <trkpt lat="43.95681" lon="10.23143">
        <ele>17.44</ele>
        <time>2016-10-09T08:52:19Z</time>
      </trkpt>
      <trkpt lat="43.95681" lon="10.23145">
        <ele>17.92</ele>
        <time>2016-10-09T08:52:20Z</time>
      </trkpt>
      <trkpt lat="43.9568" lon="10.23148">
        <ele>17.44</ele>
        <time>2016-10-09T08:52:21Z</time>
      </trkpt>
      <trkpt lat="43.95679" lon="10.2315">
        <ele>17.44</ele>
        <time>2016-10-09T08:52:22Z</time>
      </trkpt>
      <trkpt lat="43.95656" lon="10.23169">
        <ele>17.92</ele>
        <time>2016-10-09T08:52:36Z</time>
      </trkpt>
      <trkpt lat="43.95641" lon="10.23179">
        <ele>17.44</ele>
        <time>2016-10-09T08:52:44Z</time>
      </trkpt>
      <trkpt lat="43.95637" lon="10.23185">
        <ele>17.92</ele>
        <time>2016-10-09T08:52:47Z</time>
      </trkpt>
      <trkpt lat="43.95635" lon="10.23187">
        <ele>17.44</ele>
        <time>2016-10-09T08:52:48Z</time>
      </trkpt>
      <trkpt lat="43.95634" lon="10.23189">
        <ele>17.92</ele>
        <time>2016-10-09T08:52:49Z</time>
      </trkpt>
      <trkpt lat="43.95632" lon="10.2319">
        <ele>17.44</ele>
        <time>2016-10-09T08:52:50Z</time>
      </trkpt>
      <trkpt lat="43.95631" lon="10.23192">
        <ele>18.4</ele>
        <time>2016-10-09T08:52:51Z</time>
      </trkpt>
      <trkpt lat="43.95623" lon="10.23205">
        <ele>17.44</ele>
        <time>2016-10-09T08:52:57Z</time>
      </trkpt>
      <trkpt lat="43.95622" lon="10.23208">
        <ele>17.92</ele>
        <time>2016-10-09T08:52:58Z</time>
      </trkpt>
      <trkpt lat="43.95621" lon="10.2321">
        <ele>17.92</ele>
        <time>2016-10-09T08:52:59Z</time>
      </trkpt>
      <trkpt lat="43.95598" lon="10.23231">
        <ele>17.92</ele>
        <time>2016-10-09T08:53:13Z</time>
      </trkpt>
      <trkpt lat="43.95596" lon="10.23233">
        <ele>18.88</ele>
        <time>2016-10-09T08:53:14Z</time>
      </trkpt>
      <trkpt lat="43.95561" lon="10.23268">
        <ele>18.4</ele>
        <time>2016-10-09T08:53:31Z</time>
      </trkpt>
      <trkpt lat="43.95548" lon="10.23289">
        <ele>19.36</ele>
        <time>2016-10-09T08:53:39Z</time>
      </trkpt>
      <trkpt lat="43.95549" lon="10.23296">
        <ele>19.36</ele>
        <time>2016-10-09T08:53:41Z</time>
      </trkpt>
      <trkpt lat="43.9555" lon="10.23299">
        <ele>18.88</ele>
        <time>2016-10-09T08:53:42Z</time>
      </trkpt>
      <trkpt lat="43.95552" lon="10.233">
        <ele>19.36</ele>
        <time>2016-10-09T08:53:43Z</time>
      </trkpt>
      <trkpt lat="43.95554" lon="10.23301">
        <ele>19.84</ele>
        <time>2016-10-09T08:53:44Z</time>
      </trkpt>
      <trkpt lat="43.95556" lon="10.23303">
        <ele>19.36</ele>
        <time>2016-10-09T08:53:45Z</time>
      </trkpt>
      <trkpt lat="43.95557" lon="10.23305">
        <ele>19.36</ele>
        <time>2016-10-09T08:53:46Z</time>
      </trkpt>
      <trkpt lat="43.95558" lon="10.23307">
        <ele>19.84</ele>
        <time>2016-10-09T08:53:47Z</time>
      </trkpt>
      <trkpt lat="43.9556" lon="10.2331">
        <ele>19.84</ele>
        <time>2016-10-09T08:53:48Z</time>
      </trkpt>
      <trkpt lat="43.95561" lon="10.23313">
        <ele>19.84</ele>
        <time>2016-10-09T08:53:49Z</time>
      </trkpt>
      <trkpt lat="43.95563" lon="10.23316">
        <ele>19.84</ele>
        <time>2016-10-09T08:53:50Z</time>
      </trkpt>
      <trkpt lat="43.95566" lon="10.23324">
        <ele>19.84</ele>
        <time>2016-10-09T08:53:53Z</time>
      </trkpt>
      <trkpt lat="43.95567" lon="10.23326">
        <ele>19.84</ele>
        <time>2016-10-09T08:53:54Z</time>
      </trkpt>
      <trkpt lat="43.95568" lon="10.23329">
        <ele>19.84</ele>
        <time>2016-10-09T08:53:55Z</time>
      </trkpt>
      <trkpt lat="43.95568" lon="10.23332">
        <ele>19.84</ele>
        <time>2016-10-09T08:53:56Z</time>
      </trkpt>
      <trkpt lat="43.95566" lon="10.23335">
        <ele>20.32</ele>
        <time>2016-10-09T08:53:57Z</time>
      </trkpt>
      <trkpt lat="43.95564" lon="10.23337">
        <ele>19.84</ele>
        <time>2016-10-09T08:53:58Z</time>
      </trkpt>
      <trkpt lat="43.95531" lon="10.23376">
        <ele>20.32</ele>
        <time>2016-10-09T08:54:11Z</time>
      </trkpt>
      <trkpt lat="43.95499" lon="10.23414">
        <ele>20.32</ele>
        <time>2016-10-09T08:54:23Z</time>
      </trkpt>
      <trkpt lat="43.9549" lon="10.23428">
        <ele>19.84</ele>
        <time>2016-10-09T08:54:27Z</time>
      </trkpt>
      <trkpt lat="43.95487" lon="10.23433">
        <ele>19.84</ele>
        <time>2016-10-09T08:54:28Z</time>
      </trkpt>
      <trkpt lat="43.95434" lon="10.23514">
        <ele>17.92</ele>
        <time>2016-10-09T08:54:44Z</time>
      </trkpt>
      <trkpt lat="43.95431" lon="10.23521">
        <ele>18.4</ele>
        <time>2016-10-09T08:54:45Z</time>
      </trkpt>
      <trkpt lat="43.95424" lon="10.23532">
        <ele>17.92</ele>
        <time>2016-10-09T08:54:47Z</time>
      </trkpt>
      <trkpt lat="43.9542" lon="10.23537">
        <ele>17.44</ele>
        <time>2016-10-09T08:54:48Z</time>
      </trkpt>
      <trkpt lat="43.95377" lon="10.23589">
        <ele>16.48</ele>
        <time>2016-10-09T08:54:58Z</time>
      </trkpt>
      <trkpt lat="43.95368" lon="10.23597">
        <ele>16.96</ele>
        <time>2016-10-09T08:55:00Z</time>
      </trkpt>
      <trkpt lat="43.95298" lon="10.23677">
        <ele>16</ele>
        <time>2016-10-09T08:55:16Z</time>
      </trkpt>
      <trkpt lat="43.95229" lon="10.23753">
        <ele>16</ele>
        <time>2016-10-09T08:55:32Z</time>
      </trkpt>
      <trkpt lat="43.95158" lon="10.23829">
        <ele>16</ele>
        <time>2016-10-09T08:55:48Z</time>
      </trkpt>
      <trkpt lat="43.95082" lon="10.23914">
        <ele>15.52</ele>
        <time>2016-10-09T08:56:05Z</time>
      </trkpt>
      <trkpt lat="43.95008" lon="10.2397">
        <ele>15.52</ele>
        <time>2016-10-09T08:56:20Z</time>
      </trkpt>
      <trkpt lat="43.94922" lon="10.24023">
        <ele>15.52</ele>
        <time>2016-10-09T08:56:37Z</time>
      </trkpt>
      <trkpt lat="43.94844" lon="10.24069">
        <ele>16.48</ele>
        <time>2016-10-09T08:56:53Z</time>
      </trkpt>
      <trkpt lat="43.94781" lon="10.24106">
        <ele>18.4</ele>
        <time>2016-10-09T08:57:09Z</time>
      </trkpt>
      <trkpt lat="43.9473" lon="10.24137">
        <ele>19.84</ele>
        <time>2016-10-09T08:57:25Z</time>
      </trkpt>
      <trkpt lat="43.94685" lon="10.24164">
        <ele>19.36</ele>
        <time>2016-10-09T08:57:38Z</time>
      </trkpt>
      <trkpt lat="43.94607" lon="10.24211">
        <ele>16.48</ele>
        <time>2016-10-09T08:57:51Z</time>
      </trkpt>
      <trkpt lat="43.94572" lon="10.24233">
        <ele>14.56</ele>
        <time>2016-10-09T08:57:56Z</time>
      </trkpt>
      <trkpt lat="43.94485" lon="10.24286">
        <ele>11.19</ele>
        <time>2016-10-09T08:58:07Z</time>
      </trkpt>
      <trkpt lat="43.94366" lon="10.2437">
        <ele>8.31</ele>
        <time>2016-10-09T08:58:22Z</time>
      </trkpt>
      <trkpt lat="43.94263" lon="10.24478">
        <ele>6.87</ele>
        <time>2016-10-09T08:58:38Z</time>
      </trkpt>
      <trkpt lat="43.9416" lon="10.24583">
        <ele>6.39</ele>
        <time>2016-10-09T08:58:55Z</time>
      </trkpt>
      <trkpt lat="43.94073" lon="10.24671">
        <ele>7.83</ele>
        <time>2016-10-09T08:59:12Z</time>
      </trkpt>
      <trkpt lat="43.9399" lon="10.24754">
        <ele>7.83</ele>
        <time>2016-10-09T08:59:29Z</time>
      </trkpt>
      <trkpt lat="43.93906" lon="10.24851">
        <ele>5.42</ele>
        <time>2016-10-09T08:59:45Z</time>
      </trkpt>
      <trkpt lat="43.93829" lon="10.24982">
        <ele>4.46</ele>
        <time>2016-10-09T09:00:02Z</time>
      </trkpt>
      <trkpt lat="43.9376" lon="10.25109">
        <ele>3.5</ele>
        <time>2016-10-09T09:00:18Z</time>
      </trkpt>
      <trkpt lat="43.93713" lon="10.25194">
        <ele>2.06</ele>
        <time>2016-10-09T09:00:30Z</time>
      </trkpt>
      <trkpt lat="43.93708" lon="10.25198">
        <ele>2.54</ele>
        <time>2016-10-09T09:00:31Z</time>
      </trkpt>
      <trkpt lat="43.93702" lon="10.252">
        <ele>2.54</ele>
        <time>2016-10-09T09:00:32Z</time>
      </trkpt>
      <trkpt lat="43.93696" lon="10.25202">
        <ele>2.54</ele>
        <time>2016-10-09T09:00:33Z</time>
      </trkpt>
      <trkpt lat="43.93691" lon="10.25206">
        <ele>2.54</ele>
        <time>2016-10-09T09:00:34Z</time>
      </trkpt>
      <trkpt lat="43.93686" lon="10.25211">
        <ele>3.02</ele>
        <time>2016-10-09T09:00:35Z</time>
      </trkpt>
      <trkpt lat="43.93683" lon="10.25217">
        <ele>3.02</ele>
        <time>2016-10-09T09:00:36Z</time>
      </trkpt>
      <trkpt lat="43.93679" lon="10.25223">
        <ele>2.54</ele>
        <time>2016-10-09T09:00:37Z</time>
      </trkpt>
      <trkpt lat="43.93672" lon="10.25236">
        <ele>2.54</ele>
        <time>2016-10-09T09:00:39Z</time>
      </trkpt>
      <trkpt lat="43.93668" lon="10.25241">
        <ele>2.06</ele>
        <time>2016-10-09T09:00:40Z</time>
      </trkpt>
      <trkpt lat="43.93663" lon="10.25246">
        <ele>2.54</ele>
        <time>2016-10-09T09:00:41Z</time>
      </trkpt>
      <trkpt lat="43.93586" lon="10.25321">
        <ele>3.5</ele>
        <time>2016-10-09T09:00:58Z</time>
      </trkpt>
      <trkpt lat="43.9357" lon="10.25341">
        <ele>3.02</ele>
        <time>2016-10-09T09:01:02Z</time>
      </trkpt>
      <trkpt lat="43.9353" lon="10.25403">
        <ele>2.54</ele>
        <time>2016-10-09T09:01:13Z</time>
      </trkpt>
      <trkpt lat="43.93473" lon="10.25496">
        <ele>3.02</ele>
        <time>2016-10-09T09:01:28Z</time>
      </trkpt>
      <trkpt lat="43.93446" lon="10.25535">
        <ele>3.02</ele>
        <time>2016-10-09T09:01:36Z</time>
      </trkpt>
      <trkpt lat="43.93442" lon="10.2554">
        <ele>3.5</ele>
        <time>2016-10-09T09:01:37Z</time>
      </trkpt>
      <trkpt lat="43.93384" lon="10.25619">
        <ele>3.5</ele>
        <time>2016-10-09T09:01:54Z</time>
      </trkpt>
      <trkpt lat="43.93334" lon="10.2569">
        <ele>3.5</ele>
        <time>2016-10-09T09:02:08Z</time>
      </trkpt>
      <trkpt lat="43.93272" lon="10.25772">
        <ele>3.5</ele>
        <time>2016-10-09T09:02:25Z</time>
      </trkpt>
      <trkpt lat="43.93268" lon="10.25782">
        <ele>3.98</ele>
        <time>2016-10-09T09:02:27Z</time>
      </trkpt>
      <trkpt lat="43.93267" lon="10.25787">
        <ele>3.5</ele>
        <time>2016-10-09T09:02:28Z</time>
      </trkpt>
      <trkpt lat="43.93268" lon="10.25794">
        <ele>3.5</ele>
        <time>2016-10-09T09:02:29Z</time>
      </trkpt>
      <trkpt lat="43.93271" lon="10.25799">
        <ele>3.5</ele>
        <time>2016-10-09T09:02:30Z</time>
      </trkpt>
      <trkpt lat="43.93274" lon="10.25803">
        <ele>3.5</ele>
        <time>2016-10-09T09:02:31Z</time>
      </trkpt>
      <trkpt lat="43.93278" lon="10.25805">
        <ele>3.98</ele>
        <time>2016-10-09T09:02:32Z</time>
      </trkpt>
      <trkpt lat="43.93282" lon="10.25808">
        <ele>3.98</ele>
        <time>2016-10-09T09:02:33Z</time>
      </trkpt>
      <trkpt lat="43.93286" lon="10.25811">
        <ele>3.98</ele>
        <time>2016-10-09T09:02:34Z</time>
      </trkpt>
      <trkpt lat="43.9329" lon="10.25815">
        <ele>3.98</ele>
        <time>2016-10-09T09:02:35Z</time>
      </trkpt>
      <trkpt lat="43.93309" lon="10.25833">
        <ele>3.98</ele>
        <time>2016-10-09T09:02:40Z</time>
      </trkpt>
      <trkpt lat="43.93312" lon="10.25836">
        <ele>3.98</ele>
        <time>2016-10-09T09:02:41Z</time>
      </trkpt>
      <trkpt lat="43.93316" lon="10.25839">
        <ele>3.98</ele>
        <time>2016-10-09T09:02:42Z</time>
      </trkpt>
      <trkpt lat="43.9332" lon="10.25842">
        <ele>4.46</ele>
        <time>2016-10-09T09:02:43Z</time>
      </trkpt>
      <trkpt lat="43.93323" lon="10.25845">
        <ele>4.46</ele>
        <time>2016-10-09T09:02:44Z</time>
      </trkpt>
      <trkpt lat="43.93373" lon="10.2589">
        <ele>4.46</ele>
        <time>2016-10-09T09:02:57Z</time>
      </trkpt>
      <trkpt lat="43.9339" lon="10.25902">
        <ele>4.94</ele>
        <time>2016-10-09T09:03:01Z</time>
      </trkpt>
      <trkpt lat="43.93435" lon="10.25945">
        <ele>4.94</ele>
        <time>2016-10-09T09:03:13Z</time>
      </trkpt>
      <trkpt lat="43.9344" lon="10.25947">
        <ele>4.94</ele>
        <time>2016-10-09T09:03:14Z</time>
      </trkpt>
      <trkpt lat="43.93444" lon="10.2595">
        <ele>4.94</ele>
        <time>2016-10-09T09:03:15Z</time>
      </trkpt>
      <trkpt lat="43.93452" lon="10.25957">
        <ele>4.94</ele>
        <time>2016-10-09T09:03:17Z</time>
      </trkpt>
      <trkpt lat="43.93456" lon="10.2596">
        <ele>4.94</ele>
        <time>2016-10-09T09:03:18Z</time>
      </trkpt>
      <trkpt lat="43.9346" lon="10.25963">
        <ele>4.46</ele>
        <time>2016-10-09T09:03:19Z</time>
      </trkpt>
      <trkpt lat="43.93491" lon="10.25991">
        <ele>5.42</ele>
        <time>2016-10-09T09:03:27Z</time>
      </trkpt>
      <trkpt lat="43.93495" lon="10.25994">
        <ele>4.94</ele>
        <time>2016-10-09T09:03:28Z</time>
      </trkpt>
      <trkpt lat="43.93498" lon="10.25997">
        <ele>5.42</ele>
        <time>2016-10-09T09:03:29Z</time>
      </trkpt>
      <trkpt lat="43.9354" lon="10.26033">
        <ele>6.87</ele>
        <time>2016-10-09T09:03:42Z</time>
      </trkpt>
      <trkpt lat="43.93558" lon="10.26051">
        <ele>7.83</ele>
        <time>2016-10-09T09:03:51Z</time>
      </trkpt>
      <trkpt lat="43.93556" lon="10.26094">
        <ele>6.87</ele>
        <time>2016-10-09T09:04:02Z</time>
      </trkpt>
      <trkpt lat="43.93552" lon="10.26143">
        <ele>7.35</ele>
        <time>2016-10-09T09:04:16Z</time>
      </trkpt>
      <trkpt lat="43.93541" lon="10.26176">
        <ele>10.23</ele>
        <time>2016-10-09T09:04:30Z</time>
      </trkpt>
      <trkpt lat="43.9354" lon="10.26178">
        <ele>9.75</ele>
        <time>2016-10-09T09:04:31Z</time>
      </trkpt>
      <trkpt lat="43.93539" lon="10.26179">
        <ele>10.23</ele>
        <time>2016-10-09T09:04:32Z</time>
      </trkpt>
      <trkpt lat="43.93538" lon="10.26179">
        <ele>10.23</ele>
        <time>2016-10-09T09:04:33Z</time>
      </trkpt>
      <trkpt lat="43.93536" lon="10.2618">
        <ele>10.71</ele>
        <time>2016-10-09T09:04:34Z</time>
      </trkpt>
      <trkpt lat="43.93535" lon="10.2618">
        <ele>10.71</ele>
        <time>2016-10-09T09:04:35Z</time>
      </trkpt>
      <trkpt lat="43.9352" lon="10.26202">
        <ele>11.67</ele>
        <time>2016-10-09T09:04:47Z</time>
      </trkpt>
      <trkpt lat="43.93518" lon="10.26203">
        <ele>12.15</ele>
        <time>2016-10-09T09:04:48Z</time>
      </trkpt>
      <trkpt lat="43.93516" lon="10.26204">
        <ele>11.67</ele>
        <time>2016-10-09T09:04:49Z</time>
      </trkpt>
      <trkpt lat="43.9348" lon="10.26232">
        <ele>12.63</ele>
        <time>2016-10-09T09:05:05Z</time>
      </trkpt>
      <trkpt lat="43.93456" lon="10.26248">
        <ele>14.56</ele>
        <time>2016-10-09T09:05:18Z</time>
      </trkpt>
      <trkpt lat="43.93432" lon="10.26268">
        <ele>15.52</ele>
        <time>2016-10-09T09:05:33Z</time>
      </trkpt>
      <trkpt lat="43.93418" lon="10.26273">
        <ele>14.08</ele>
        <time>2016-10-09T09:05:45Z</time>
      </trkpt>
      <trkpt lat="43.93417" lon="10.26272">
        <ele>14.08</ele>
        <time>2016-10-09T09:05:46Z</time>
      </trkpt>
      <trkpt lat="43.934" lon="10.26278">
        <ele>12.15</ele>
        <time>2016-10-09T09:06:00Z</time>
      </trkpt>
      <trkpt lat="43.9339" lon="10.26289">
        <ele>10.71</ele>
        <time>2016-10-09T09:06:08Z</time>
      </trkpt>
      <trkpt lat="43.93389" lon="10.26291">
        <ele>10.71</ele>
        <time>2016-10-09T09:06:09Z</time>
      </trkpt>
      <trkpt lat="43.93388" lon="10.26293">
        <ele>10.71</ele>
        <time>2016-10-09T09:06:10Z</time>
      </trkpt>
      <trkpt lat="43.93386" lon="10.26294">
        <ele>10.71</ele>
        <time>2016-10-09T09:06:11Z</time>
      </trkpt>
      <trkpt lat="43.93383" lon="10.26296">
        <ele>9.75</ele>
        <time>2016-10-09T09:06:12Z</time>
      </trkpt>
      <trkpt lat="43.93356" lon="10.26323">
        <ele>9.27</ele>
        <time>2016-10-09T09:06:23Z</time>
      </trkpt>
      <trkpt lat="43.93324" lon="10.26362">
        <ele>8.79</ele>
        <time>2016-10-09T09:06:35Z</time>
      </trkpt>
      <trkpt lat="43.93307" lon="10.26388">
        <ele>9.27</ele>
        <time>2016-10-09T09:06:42Z</time>
      </trkpt>
      <trkpt lat="43.93256" lon="10.26446">
        <ele>10.71</ele>
        <time>2016-10-09T09:06:59Z</time>
      </trkpt>
      <trkpt lat="43.93242" lon="10.26473">
        <ele>12.63</ele>
        <time>2016-10-09T09:07:12Z</time>
      </trkpt>
      <trkpt lat="43.93229" lon="10.26498">
        <ele>15.04</ele>
        <time>2016-10-09T09:07:28Z</time>
      </trkpt>
      <trkpt lat="43.93223" lon="10.26521">
        <ele>18.88</ele>
        <time>2016-10-09T09:07:42Z</time>
      </trkpt>
      <trkpt lat="43.93219" lon="10.26546">
        <ele>21.77</ele>
        <time>2016-10-09T09:07:56Z</time>
      </trkpt>
      <trkpt lat="43.93215" lon="10.26571">
        <ele>24.65</ele>
        <time>2016-10-09T09:08:11Z</time>
      </trkpt>
      <trkpt lat="43.93213" lon="10.2659">
        <ele>27.53</ele>
        <time>2016-10-09T09:08:22Z</time>
      </trkpt>
      <trkpt lat="43.93217" lon="10.26615">
        <ele>30.9</ele>
        <time>2016-10-09T09:08:36Z</time>
      </trkpt>
      <trkpt lat="43.93227" lon="10.26651">
        <ele>30.9</ele>
        <time>2016-10-09T09:08:52Z</time>
      </trkpt>
      <trkpt lat="43.93227" lon="10.26657">
        <ele>30.42</ele>
        <time>2016-10-09T09:08:53Z</time>
      </trkpt>
      <trkpt lat="43.93226" lon="10.26671">
        <ele>28.98</ele>
        <time>2016-10-09T09:08:55Z</time>
      </trkpt>
      <trkpt lat="43.9322" lon="10.26702">
        <ele>26.57</ele>
        <time>2016-10-09T09:08:59Z</time>
      </trkpt>
      <trkpt lat="43.93217" lon="10.2671">
        <ele>25.61</ele>
        <time>2016-10-09T09:09:00Z</time>
      </trkpt>
      <trkpt lat="43.93214" lon="10.26717">
        <ele>24.17</ele>
        <time>2016-10-09T09:09:01Z</time>
      </trkpt>
      <trkpt lat="43.9321" lon="10.26723">
        <ele>23.69</ele>
        <time>2016-10-09T09:09:02Z</time>
      </trkpt>
      <trkpt lat="43.93206" lon="10.2673">
        <ele>22.73</ele>
        <time>2016-10-09T09:09:03Z</time>
      </trkpt>
      <trkpt lat="43.93202" lon="10.26736">
        <ele>22.25</ele>
        <time>2016-10-09T09:09:04Z</time>
      </trkpt>
      <trkpt lat="43.93199" lon="10.26744">
        <ele>21.29</ele>
        <time>2016-10-09T09:09:05Z</time>
      </trkpt>
      <trkpt lat="43.93197" lon="10.26751">
        <ele>19.84</ele>
        <time>2016-10-09T09:09:06Z</time>
      </trkpt>
      <trkpt lat="43.93194" lon="10.26759">
        <ele>19.36</ele>
        <time>2016-10-09T09:09:07Z</time>
      </trkpt>
      <trkpt lat="43.93191" lon="10.26765">
        <ele>18.4</ele>
        <time>2016-10-09T09:09:08Z</time>
      </trkpt>
      <trkpt lat="43.93188" lon="10.26772">
        <ele>17.92</ele>
        <time>2016-10-09T09:09:09Z</time>
      </trkpt>
      <trkpt lat="43.93183" lon="10.26778">
        <ele>17.44</ele>
        <time>2016-10-09T09:09:10Z</time>
      </trkpt>
      <trkpt lat="43.93165" lon="10.26811">
        <ele>14.56</ele>
        <time>2016-10-09T09:09:14Z</time>
      </trkpt>
      <trkpt lat="43.9316" lon="10.26819">
        <ele>14.56</ele>
        <time>2016-10-09T09:09:15Z</time>
      </trkpt>
      <trkpt lat="43.93154" lon="10.26827">
        <ele>13.6</ele>
        <time>2016-10-09T09:09:16Z</time>
      </trkpt>
      <trkpt lat="43.93149" lon="10.26833">
        <ele>12.63</ele>
        <time>2016-10-09T09:09:17Z</time>
      </trkpt>
      <trkpt lat="43.93143" lon="10.26838">
        <ele>12.15</ele>
        <time>2016-10-09T09:09:18Z</time>
      </trkpt>
      <trkpt lat="43.93117" lon="10.26863">
        <ele>9.75</ele>
        <time>2016-10-09T09:09:24Z</time>
      </trkpt>
      <trkpt lat="43.93115" lon="10.26869">
        <ele>10.23</ele>
        <time>2016-10-09T09:09:25Z</time>
      </trkpt>
      <trkpt lat="43.93108" lon="10.2689">
        <ele>9.27</ele>
        <time>2016-10-09T09:09:28Z</time>
      </trkpt>
      <trkpt lat="43.93105" lon="10.26896">
        <ele>9.75</ele>
        <time>2016-10-09T09:09:29Z</time>
      </trkpt>
      <trkpt lat="43.93102" lon="10.26902">
        <ele>10.23</ele>
        <time>2016-10-09T09:09:30Z</time>
      </trkpt>
      <trkpt lat="43.93091" lon="10.26917">
        <ele>10.23</ele>
        <time>2016-10-09T09:09:33Z</time>
      </trkpt>
      <trkpt lat="43.93051" lon="10.26958">
        <ele>10.23</ele>
        <time>2016-10-09T09:09:43Z</time>
      </trkpt>
      <trkpt lat="43.93048" lon="10.26963">
        <ele>10.23</ele>
        <time>2016-10-09T09:09:44Z</time>
      </trkpt>
      <trkpt lat="43.93023" lon="10.27006">
        <ele>10.23</ele>
        <time>2016-10-09T09:09:52Z</time>
      </trkpt>
      <trkpt lat="43.93011" lon="10.27036">
        <ele>10.71</ele>
        <time>2016-10-09T09:09:57Z</time>
      </trkpt>
      <trkpt lat="43.93004" lon="10.27082">
        <ele>10.71</ele>
        <time>2016-10-09T09:10:04Z</time>
      </trkpt>
      <trkpt lat="43.93004" lon="10.27088">
        <ele>10.71</ele>
        <time>2016-10-09T09:10:05Z</time>
      </trkpt>
      <trkpt lat="43.93002" lon="10.27108">
        <ele>10.71</ele>
        <time>2016-10-09T09:10:09Z</time>
      </trkpt>
      <trkpt lat="43.93" lon="10.27111">
        <ele>10.71</ele>
        <time>2016-10-09T09:10:10Z</time>
      </trkpt>
      <trkpt lat="43.92998" lon="10.27114">
        <ele>11.19</ele>
        <time>2016-10-09T09:10:11Z</time>
      </trkpt>
      <trkpt lat="43.92996" lon="10.27116">
        <ele>11.19</ele>
        <time>2016-10-09T09:10:12Z</time>
      </trkpt>
      <trkpt lat="43.92995" lon="10.2712">
        <ele>11.19</ele>
        <time>2016-10-09T09:10:13Z</time>
      </trkpt>
      <trkpt lat="43.92994" lon="10.27124">
        <ele>10.71</ele>
        <time>2016-10-09T09:10:14Z</time>
      </trkpt>
      <trkpt lat="43.92995" lon="10.27129">
        <ele>11.67</ele>
        <time>2016-10-09T09:10:15Z</time>
      </trkpt>
      <trkpt lat="43.92995" lon="10.27133">
        <ele>11.67</ele>
        <time>2016-10-09T09:10:16Z</time>
      </trkpt>
      <trkpt lat="43.92996" lon="10.27138">
        <ele>11.19</ele>
        <time>2016-10-09T09:10:17Z</time>
      </trkpt>
      <trkpt lat="43.92996" lon="10.27143">
        <ele>11.67</ele>
        <time>2016-10-09T09:10:18Z</time>
      </trkpt>
      <trkpt lat="43.93" lon="10.27228">
        <ele>11.67</ele>
        <time>2016-10-09T09:10:34Z</time>
      </trkpt>
      <trkpt lat="43.93" lon="10.27234">
        <ele>12.15</ele>
        <time>2016-10-09T09:10:35Z</time>
      </trkpt>
      <trkpt lat="43.93016" lon="10.27352">
        <ele>12.63</ele>
        <time>2016-10-09T09:10:56Z</time>
      </trkpt>
      <trkpt lat="43.93023" lon="10.27414">
        <ele>13.6</ele>
        <time>2016-10-09T09:11:10Z</time>
      </trkpt>
      <trkpt lat="43.9302" lon="10.27419">
        <ele>13.6</ele>
        <time>2016-10-09T09:11:22Z</time>
      </trkpt>
      <trkpt lat="43.9302" lon="10.27417">
        <ele>14.08</ele>
        <time>2016-10-09T09:11:48Z</time>
      </trkpt>
      <trkpt lat="43.93021" lon="10.27418">
        <ele>14.56</ele>
        <time>2016-10-09T09:12:22Z</time>
      </trkpt>
      <trkpt lat="43.93" lon="10.27451">
        <ele>15.52</ele>
        <time>2016-10-09T09:12:34Z</time>
      </trkpt>
      <trkpt lat="43.93018" lon="10.27485">
        <ele>14.56</ele>
        <time>2016-10-09T09:12:44Z</time>
      </trkpt>
      <trkpt lat="43.93052" lon="10.27528">
        <ele>15.52</ele>
        <time>2016-10-09T09:12:57Z</time>
      </trkpt>
      <trkpt lat="43.93091" lon="10.27616">
        <ele>16.96</ele>
        <time>2016-10-09T09:13:17Z</time>
      </trkpt>
      <trkpt lat="43.93111" lon="10.27677">
        <ele>18.4</ele>
        <time>2016-10-09T09:13:30Z</time>
      </trkpt>
      <trkpt lat="43.93112" lon="10.27682">
        <ele>18.4</ele>
        <time>2016-10-09T09:13:31Z</time>
      </trkpt>
      <trkpt lat="43.93113" lon="10.27687">
        <ele>17.92</ele>
        <time>2016-10-09T09:13:32Z</time>
      </trkpt>
      <trkpt lat="43.93115" lon="10.27692">
        <ele>17.92</ele>
        <time>2016-10-09T09:13:33Z</time>
      </trkpt>
      <trkpt lat="43.93117" lon="10.27697">
        <ele>17.92</ele>
        <time>2016-10-09T09:13:34Z</time>
      </trkpt>
      <trkpt lat="43.9312" lon="10.27702">
        <ele>17.92</ele>
        <time>2016-10-09T09:13:35Z</time>
      </trkpt>
      <trkpt lat="43.93169" lon="10.27807">
        <ele>16.96</ele>
        <time>2016-10-09T09:13:52Z</time>
      </trkpt>
      <trkpt lat="43.93184" lon="10.27836">
        <ele>17.44</ele>
        <time>2016-10-09T09:13:57Z</time>
      </trkpt>
      <trkpt lat="43.93187" lon="10.27842">
        <ele>17.44</ele>
        <time>2016-10-09T09:13:58Z</time>
      </trkpt>
      <trkpt lat="43.93229" lon="10.27914">
        <ele>16.96</ele>
        <time>2016-10-09T09:14:11Z</time>
      </trkpt>
      <trkpt lat="43.93281" lon="10.27985">
        <ele>18.4</ele>
        <time>2016-10-09T09:14:25Z</time>
      </trkpt>
      <trkpt lat="43.93341" lon="10.28053">
        <ele>18.4</ele>
        <time>2016-10-09T09:14:40Z</time>
      </trkpt>
      <trkpt lat="43.93361" lon="10.28077">
        <ele>18.4</ele>
        <time>2016-10-09T09:14:45Z</time>
      </trkpt>
      <trkpt lat="43.93365" lon="10.28082">
        <ele>18.88</ele>
        <time>2016-10-09T09:14:46Z</time>
      </trkpt>
      <trkpt lat="43.9342" lon="10.28148">
        <ele>18.88</ele>
        <time>2016-10-09T09:15:01Z</time>
      </trkpt>
      <trkpt lat="43.93464" lon="10.28203">
        <ele>19.84</ele>
        <time>2016-10-09T09:15:13Z</time>
      </trkpt>
      <trkpt lat="43.93492" lon="10.28247">
        <ele>20.32</ele>
        <time>2016-10-09T09:15:21Z</time>
      </trkpt>
      <trkpt lat="43.93504" lon="10.28271">
        <ele>19.84</ele>
        <time>2016-10-09T09:15:25Z</time>
      </trkpt>
      <trkpt lat="43.93511" lon="10.2829">
        <ele>20.32</ele>
        <time>2016-10-09T09:15:28Z</time>
      </trkpt>
      <trkpt lat="43.93528" lon="10.28348">
        <ele>20.81</ele>
        <time>2016-10-09T09:15:37Z</time>
      </trkpt>
      <trkpt lat="43.93565" lon="10.28442">
        <ele>20.81</ele>
        <time>2016-10-09T09:15:52Z</time>
      </trkpt>
      <trkpt lat="43.93573" lon="10.28474">
        <ele>20.81</ele>
        <time>2016-10-09T09:15:57Z</time>
      </trkpt>
      <trkpt lat="43.93577" lon="10.28492">
        <ele>20.81</ele>
        <time>2016-10-09T09:16:00Z</time>
      </trkpt>
      <trkpt lat="43.93577" lon="10.28498">
        <ele>20.81</ele>
        <time>2016-10-09T09:16:01Z</time>
      </trkpt>
      <trkpt lat="43.93577" lon="10.28503">
        <ele>20.32</ele>
        <time>2016-10-09T09:16:02Z</time>
      </trkpt>
      <trkpt lat="43.93577" lon="10.28521">
        <ele>21.29</ele>
        <time>2016-10-09T09:16:05Z</time>
      </trkpt>
      <trkpt lat="43.93578" lon="10.28527">
        <ele>21.77</ele>
        <time>2016-10-09T09:16:06Z</time>
      </trkpt>
      <trkpt lat="43.9358" lon="10.28532">
        <ele>21.29</ele>
        <time>2016-10-09T09:16:07Z</time>
      </trkpt>
      <trkpt lat="43.93582" lon="10.28537">
        <ele>21.77</ele>
        <time>2016-10-09T09:16:08Z</time>
      </trkpt>
      <trkpt lat="43.93586" lon="10.28541">
        <ele>21.77</ele>
        <time>2016-10-09T09:16:09Z</time>
      </trkpt>
      <trkpt lat="43.9359" lon="10.28543">
        <ele>20.81</ele>
        <time>2016-10-09T09:16:10Z</time>
      </trkpt>
      <trkpt lat="43.93594" lon="10.28545">
        <ele>20.81</ele>
        <time>2016-10-09T09:16:11Z</time>
      </trkpt>
      <trkpt lat="43.93599" lon="10.28545">
        <ele>20.32</ele>
        <time>2016-10-09T09:16:12Z</time>
      </trkpt>
      <trkpt lat="43.93603" lon="10.28545">
        <ele>21.29</ele>
        <time>2016-10-09T09:16:13Z</time>
      </trkpt>
      <trkpt lat="43.93608" lon="10.28545">
        <ele>20.81</ele>
        <time>2016-10-09T09:16:14Z</time>
      </trkpt>
      <trkpt lat="43.93612" lon="10.28546">
        <ele>21.29</ele>
        <time>2016-10-09T09:16:15Z</time>
      </trkpt>
      <trkpt lat="43.93616" lon="10.28547">
        <ele>20.81</ele>
        <time>2016-10-09T09:16:16Z</time>
      </trkpt>
      <trkpt lat="43.9362" lon="10.2855">
        <ele>21.29</ele>
        <time>2016-10-09T09:16:17Z</time>
      </trkpt>
      <trkpt lat="43.93623" lon="10.28553">
        <ele>21.77</ele>
        <time>2016-10-09T09:16:18Z</time>
      </trkpt>
      <trkpt lat="43.93656" lon="10.28582">
        <ele>21.77</ele>
        <time>2016-10-09T09:16:27Z</time>
      </trkpt>
      <trkpt lat="43.93664" lon="10.28587">
        <ele>21.77</ele>
        <time>2016-10-09T09:16:29Z</time>
      </trkpt>
      <trkpt lat="43.93668" lon="10.2859">
        <ele>21.77</ele>
        <time>2016-10-09T09:16:30Z</time>
      </trkpt>
      <trkpt lat="43.93703" lon="10.28622">
        <ele>21.29</ele>
        <time>2016-10-09T09:16:38Z</time>
      </trkpt>
      <trkpt lat="43.93707" lon="10.28628">
        <ele>21.29</ele>
        <time>2016-10-09T09:16:39Z</time>
      </trkpt>
      <trkpt lat="43.93723" lon="10.2866">
        <ele>20.81</ele>
        <time>2016-10-09T09:16:44Z</time>
      </trkpt>
      <trkpt lat="43.93755" lon="10.28737">
        <ele>21.77</ele>
        <time>2016-10-09T09:16:57Z</time>
      </trkpt>
      <trkpt lat="43.93757" lon="10.28743">
        <ele>21.77</ele>
        <time>2016-10-09T09:16:58Z</time>
      </trkpt>
      <trkpt lat="43.9376" lon="10.28749">
        <ele>21.77</ele>
        <time>2016-10-09T09:16:59Z</time>
      </trkpt>
      <trkpt lat="43.93762" lon="10.28754">
        <ele>21.77</ele>
        <time>2016-10-09T09:17:00Z</time>
      </trkpt>
      <trkpt lat="43.93765" lon="10.28759">
        <ele>21.77</ele>
        <time>2016-10-09T09:17:01Z</time>
      </trkpt>
      <trkpt lat="43.93771" lon="10.28774">
        <ele>22.25</ele>
        <time>2016-10-09T09:17:04Z</time>
      </trkpt>
      <trkpt lat="43.93797" lon="10.28843">
        <ele>24.17</ele>
        <time>2016-10-09T09:17:19Z</time>
      </trkpt>
      <trkpt lat="43.93812" lon="10.28908">
        <ele>25.61</ele>
        <time>2016-10-09T09:17:33Z</time>
      </trkpt>
      <trkpt lat="43.93833" lon="10.29014">
        <ele>24.17</ele>
        <time>2016-10-09T09:17:48Z</time>
      </trkpt>
      <trkpt lat="43.93841" lon="10.29049">
        <ele>24.65</ele>
        <time>2016-10-09T09:17:53Z</time>
      </trkpt>
      <trkpt lat="43.93861" lon="10.29171">
        <ele>22.73</ele>
        <time>2016-10-09T09:18:09Z</time>
      </trkpt>
      <trkpt lat="43.93862" lon="10.29178">
        <ele>22.73</ele>
        <time>2016-10-09T09:18:10Z</time>
      </trkpt>
      <trkpt lat="43.93864" lon="10.29235">
        <ele>22.73</ele>
        <time>2016-10-09T09:18:18Z</time>
      </trkpt>
      <trkpt lat="43.93865" lon="10.29242">
        <ele>22.73</ele>
        <time>2016-10-09T09:18:19Z</time>
      </trkpt>
      <trkpt lat="43.9388" lon="10.29308">
        <ele>22.73</ele>
        <time>2016-10-09T09:18:29Z</time>
      </trkpt>
      <trkpt lat="43.93883" lon="10.29334">
        <ele>23.69</ele>
        <time>2016-10-09T09:18:33Z</time>
      </trkpt>
      <trkpt lat="43.93884" lon="10.2934">
        <ele>23.21</ele>
        <time>2016-10-09T09:18:34Z</time>
      </trkpt>
      <trkpt lat="43.93889" lon="10.29374">
        <ele>23.69</ele>
        <time>2016-10-09T09:18:40Z</time>
      </trkpt>
      <trkpt lat="43.93897" lon="10.29432">
        <ele>24.17</ele>
        <time>2016-10-09T09:18:50Z</time>
      </trkpt>
      <trkpt lat="43.93898" lon="10.29506">
        <ele>26.09</ele>
        <time>2016-10-09T09:19:04Z</time>
      </trkpt>
      <trkpt lat="43.93891" lon="10.29571">
        <ele>26.57</ele>
        <time>2016-10-09T09:19:17Z</time>
      </trkpt>
      <trkpt lat="43.93885" lon="10.29601">
        <ele>26.09</ele>
        <time>2016-10-09T09:19:22Z</time>
      </trkpt>
      <trkpt lat="43.9388" lon="10.29619">
        <ele>26.57</ele>
        <time>2016-10-09T09:19:25Z</time>
      </trkpt>
      <trkpt lat="43.93884" lon="10.29699">
        <ele>26.09</ele>
        <time>2016-10-09T09:19:38Z</time>
      </trkpt>
      <trkpt lat="43.93899" lon="10.29791">
        <ele>26.09</ele>
        <time>2016-10-09T09:19:52Z</time>
      </trkpt>
      <trkpt lat="43.939" lon="10.29803">
        <ele>25.61</ele>
        <time>2016-10-09T09:19:54Z</time>
      </trkpt>
      <trkpt lat="43.93896" lon="10.29876">
        <ele>26.09</ele>
        <time>2016-10-09T09:20:07Z</time>
      </trkpt>
      <trkpt lat="43.93894" lon="10.29925">
        <ele>26.57</ele>
        <time>2016-10-09T09:20:15Z</time>
      </trkpt>
      <trkpt lat="43.93892" lon="10.2996">
        <ele>26.09</ele>
        <time>2016-10-09T09:20:21Z</time>
      </trkpt>
      <trkpt lat="43.93891" lon="10.29966">
        <ele>26.09</ele>
        <time>2016-10-09T09:20:22Z</time>
      </trkpt>
      <trkpt lat="43.93891" lon="10.29972">
        <ele>26.57</ele>
        <time>2016-10-09T09:20:23Z</time>
      </trkpt>
      <trkpt lat="43.9389" lon="10.29978">
        <ele>26.09</ele>
        <time>2016-10-09T09:20:24Z</time>
      </trkpt>
      <trkpt lat="43.9389" lon="10.29984">
        <ele>26.57</ele>
        <time>2016-10-09T09:20:25Z</time>
      </trkpt>
      <trkpt lat="43.9389" lon="10.2999">
        <ele>26.09</ele>
        <time>2016-10-09T09:20:26Z</time>
      </trkpt>
      <trkpt lat="43.93886" lon="10.30042">
        <ele>27.05</ele>
        <time>2016-10-09T09:20:37Z</time>
      </trkpt>
      <trkpt lat="43.93891" lon="10.30071">
        <ele>26.09</ele>
        <time>2016-10-09T09:20:49Z</time>
      </trkpt>
      <trkpt lat="43.93902" lon="10.30087">
        <ele>26.09</ele>
        <time>2016-10-09T09:21:01Z</time>
      </trkpt>
      <trkpt lat="43.93902" lon="10.30093">
        <ele>25.61</ele>
        <time>2016-10-09T09:21:20Z</time>
      </trkpt>
      <trkpt lat="43.93905" lon="10.30105">
        <ele>25.61</ele>
        <time>2016-10-09T09:21:36Z</time>
      </trkpt>
      <trkpt lat="43.93911" lon="10.30114">
        <ele>25.61</ele>
        <time>2016-10-09T09:21:54Z</time>
      </trkpt>
      <trkpt lat="43.9392" lon="10.30123">
        <ele>26.57</ele>
        <time>2016-10-09T09:22:10Z</time>
      </trkpt>
      <trkpt lat="43.93926" lon="10.30131">
        <ele>25.61</ele>
        <time>2016-10-09T09:22:26Z</time>
      </trkpt>
      <trkpt lat="43.93932" lon="10.30135">
        <ele>25.61</ele>
        <time>2016-10-09T09:22:39Z</time>
      </trkpt>
      <trkpt lat="43.93938" lon="10.30132">
        <ele>25.61</ele>
        <time>2016-10-09T09:22:55Z</time>
      </trkpt>
      <trkpt lat="43.93944" lon="10.30136">
        <ele>26.09</ele>
        <time>2016-10-09T09:23:08Z</time>
      </trkpt>
      <trkpt lat="43.93949" lon="10.30137">
        <ele>26.57</ele>
        <time>2016-10-09T09:23:24Z</time>
      </trkpt>
      <trkpt lat="43.93958" lon="10.30145">
        <ele>26.57</ele>
        <time>2016-10-09T09:23:42Z</time>
      </trkpt>
      <trkpt lat="43.93963" lon="10.30154">
        <ele>27.05</ele>
        <time>2016-10-09T09:23:57Z</time>
      </trkpt>
      <trkpt lat="43.93962" lon="10.30155">
        <ele>27.05</ele>
        <time>2016-10-09T09:24:12Z</time>
      </trkpt>
      <trkpt lat="43.93959" lon="10.30159">
        <ele>26.57</ele>
        <time>2016-10-09T09:24:28Z</time>
      </trkpt>
      <trkpt lat="43.93956" lon="10.3016">
        <ele>26.57</ele>
        <time>2016-10-09T09:24:51Z</time>
      </trkpt>
      <trkpt lat="43.93958" lon="10.30164">
        <ele>26.09</ele>
        <time>2016-10-09T09:25:12Z</time>
      </trkpt>
      <trkpt lat="43.93961" lon="10.30166">
        <ele>26.09</ele>
        <time>2016-10-09T09:25:37Z</time>
      </trkpt>
      <trkpt lat="43.93959" lon="10.30168">
        <ele>27.05</ele>
        <time>2016-10-09T09:26:03Z</time>
      </trkpt>
      <trkpt lat="43.9396" lon="10.3017">
        <ele>27.05</ele>
        <time>2016-10-09T09:26:28Z</time>
      </trkpt>
      <trkpt lat="43.93959" lon="10.30166">
        <ele>27.05</ele>
        <time>2016-10-09T09:26:46Z</time>
      </trkpt>
      <trkpt lat="43.93957" lon="10.3017">
        <ele>26.57</ele>
        <time>2016-10-09T09:27:05Z</time>
      </trkpt>
      <trkpt lat="43.93955" lon="10.30178">
        <ele>27.05</ele>
        <time>2016-10-09T09:27:09Z</time>
      </trkpt>
      <trkpt lat="43.93939" lon="10.30215">
        <ele>27.05</ele>
        <time>2016-10-09T09:27:22Z</time>
      </trkpt>
      <trkpt lat="43.93914" lon="10.30257">
        <ele>27.53</ele>
        <time>2016-10-09T09:27:36Z</time>
      </trkpt>
      <trkpt lat="43.93892" lon="10.30298">
        <ele>27.53</ele>
        <time>2016-10-09T09:27:48Z</time>
      </trkpt>
      <trkpt lat="43.93878" lon="10.30327">
        <ele>28.02</ele>
        <time>2016-10-09T09:27:56Z</time>
      </trkpt>
      <trkpt lat="43.93876" lon="10.3033">
        <ele>28.5</ele>
        <time>2016-10-09T09:27:57Z</time>
      </trkpt>
      <trkpt lat="43.93874" lon="10.30333">
        <ele>28.02</ele>
        <time>2016-10-09T09:27:58Z</time>
      </trkpt>
      <trkpt lat="43.93853" lon="10.30389">
        <ele>28.5</ele>
        <time>2016-10-09T09:28:14Z</time>
      </trkpt>
      <trkpt lat="43.93843" lon="10.30407">
        <ele>28.5</ele>
        <time>2016-10-09T09:28:21Z</time>
      </trkpt>
      <trkpt lat="43.93841" lon="10.3041">
        <ele>28.98</ele>
        <time>2016-10-09T09:28:22Z</time>
      </trkpt>
      <trkpt lat="43.93839" lon="10.3042">
        <ele>28.98</ele>
        <time>2016-10-09T09:28:36Z</time>
      </trkpt>
      <trkpt lat="43.9384" lon="10.30423">
        <ele>29.46</ele>
        <time>2016-10-09T09:29:06Z</time>
      </trkpt>
      <trkpt lat="43.93839" lon="10.30421">
        <ele>29.46</ele>
        <time>2016-10-09T09:29:32Z</time>
      </trkpt>
      <trkpt lat="43.93838" lon="10.30423">
        <ele>29.46</ele>
        <time>2016-10-09T09:29:43Z</time>
      </trkpt>
      <trkpt lat="43.93841" lon="10.30424">
        <ele>29.94</ele>
        <time>2016-10-09T09:29:45Z</time>
      </trkpt>
      <trkpt lat="43.93851" lon="10.30431">
        <ele>30.42</ele>
        <time>2016-10-09T09:29:54Z</time>
      </trkpt>
      <trkpt lat="43.93872" lon="10.30465">
        <ele>30.9</ele>
        <time>2016-10-09T09:30:07Z</time>
      </trkpt>
      <trkpt lat="43.93873" lon="10.30468">
        <ele>30.9</ele>
        <time>2016-10-09T09:30:08Z</time>
      </trkpt>
      <trkpt lat="43.93872" lon="10.30471">
        <ele>31.38</ele>
        <time>2016-10-09T09:30:10Z</time>
      </trkpt>
      <trkpt lat="43.93871" lon="10.30481">
        <ele>31.86</ele>
        <time>2016-10-09T09:30:13Z</time>
      </trkpt>
      <trkpt lat="43.93863" lon="10.30492">
        <ele>31.86</ele>
        <time>2016-10-09T09:30:19Z</time>
      </trkpt>
      <trkpt lat="43.93861" lon="10.30495">
        <ele>31.86</ele>
        <time>2016-10-09T09:30:21Z</time>
      </trkpt>
      <trkpt lat="43.9386" lon="10.30496">
        <ele>31.86</ele>
        <time>2016-10-09T09:30:22Z</time>
      </trkpt>
      <trkpt lat="43.93858" lon="10.30497">
        <ele>31.86</ele>
        <time>2016-10-09T09:30:23Z</time>
      </trkpt>
      <trkpt lat="43.93857" lon="10.305">
        <ele>32.82</ele>
        <time>2016-10-09T09:30:24Z</time>
      </trkpt>
      <trkpt lat="43.93856" lon="10.30502">
        <ele>31.86</ele>
        <time>2016-10-09T09:30:25Z</time>
      </trkpt>
      <trkpt lat="43.93856" lon="10.30505">
        <ele>32.34</ele>
        <time>2016-10-09T09:30:26Z</time>
      </trkpt>
      <trkpt lat="43.93854" lon="10.30509">
        <ele>31.86</ele>
        <time>2016-10-09T09:30:27Z</time>
      </trkpt>
      <trkpt lat="43.93853" lon="10.30513">
        <ele>31.86</ele>
        <time>2016-10-09T09:30:28Z</time>
      </trkpt>
      <trkpt lat="43.93834" lon="10.30553">
        <ele>32.82</ele>
        <time>2016-10-09T09:30:39Z</time>
      </trkpt>
      <trkpt lat="43.93815" lon="10.30581">
        <ele>33.3</ele>
        <time>2016-10-09T09:30:49Z</time>
      </trkpt>
      <trkpt lat="43.93813" lon="10.30581">
        <ele>33.3</ele>
        <time>2016-10-09T09:30:50Z</time>
      </trkpt>
      <trkpt lat="43.93796" lon="10.30577">
        <ele>33.3</ele>
        <time>2016-10-09T09:31:02Z</time>
      </trkpt>
      <trkpt lat="43.93773" lon="10.30555">
        <ele>32.82</ele>
        <time>2016-10-09T09:31:17Z</time>
      </trkpt>
      <trkpt lat="43.93755" lon="10.30599">
        <ele>33.3</ele>
        <time>2016-10-09T09:31:32Z</time>
      </trkpt>
      <trkpt lat="43.93727" lon="10.30644">
        <ele>33.78</ele>
        <time>2016-10-09T09:31:46Z</time>
      </trkpt>
      <trkpt lat="43.937" lon="10.30702">
        <ele>34.26</ele>
        <time>2016-10-09T09:32:01Z</time>
      </trkpt>
      <trkpt lat="43.93685" lon="10.30735">
        <ele>35.71</ele>
        <time>2016-10-09T09:32:10Z</time>
      </trkpt>
      <trkpt lat="43.93669" lon="10.30743">
        <ele>34.74</ele>
        <time>2016-10-09T09:32:19Z</time>
      </trkpt>
      <trkpt lat="43.93667" lon="10.30741">
        <ele>34.74</ele>
        <time>2016-10-09T09:32:20Z</time>
      </trkpt>
      <trkpt lat="43.93637" lon="10.30717">
        <ele>34.74</ele>
        <time>2016-10-09T09:32:33Z</time>
      </trkpt>
      <trkpt lat="43.93623" lon="10.30729">
        <ele>34.26</ele>
        <time>2016-10-09T09:32:37Z</time>
      </trkpt>
      <trkpt lat="43.93615" lon="10.30751">
        <ele>35.23</ele>
        <time>2016-10-09T09:32:41Z</time>
      </trkpt>
      <trkpt lat="43.9361" lon="10.30768">
        <ele>34.26</ele>
        <time>2016-10-09T09:32:44Z</time>
      </trkpt>
      <trkpt lat="43.93603" lon="10.3079">
        <ele>34.26</ele>
        <time>2016-10-09T09:32:48Z</time>
      </trkpt>
      <trkpt lat="43.93597" lon="10.30805">
        <ele>34.74</ele>
        <time>2016-10-09T09:32:51Z</time>
      </trkpt>
      <trkpt lat="43.93585" lon="10.30821">
        <ele>35.71</ele>
        <time>2016-10-09T09:32:55Z</time>
      </trkpt>
      <trkpt lat="43.9356" lon="10.30861">
        <ele>35.23</ele>
        <time>2016-10-09T09:33:06Z</time>
      </trkpt>
      <trkpt lat="43.93548" lon="10.30882">
        <ele>34.74</ele>
        <time>2016-10-09T09:33:10Z</time>
      </trkpt>
      <trkpt lat="43.93523" lon="10.30922">
        <ele>34.74</ele>
        <time>2016-10-09T09:33:18Z</time>
      </trkpt>
      <trkpt lat="43.93519" lon="10.30927">
        <ele>34.74</ele>
        <time>2016-10-09T09:33:19Z</time>
      </trkpt>
      <trkpt lat="43.93516" lon="10.30931">
        <ele>34.74</ele>
        <time>2016-10-09T09:33:20Z</time>
      </trkpt>
      <trkpt lat="43.93509" lon="10.30941">
        <ele>34.74</ele>
        <time>2016-10-09T09:33:22Z</time>
      </trkpt>
      <trkpt lat="43.93496" lon="10.30962">
        <ele>35.23</ele>
        <time>2016-10-09T09:33:26Z</time>
      </trkpt>
      <trkpt lat="43.93493" lon="10.30967">
        <ele>35.23</ele>
        <time>2016-10-09T09:33:27Z</time>
      </trkpt>
      <trkpt lat="43.9349" lon="10.30973">
        <ele>35.23</ele>
        <time>2016-10-09T09:33:28Z</time>
      </trkpt>
      <trkpt lat="43.93472" lon="10.31002">
        <ele>35.23</ele>
        <time>2016-10-09T09:33:34Z</time>
      </trkpt>
      <trkpt lat="43.93469" lon="10.31006">
        <ele>34.74</ele>
        <time>2016-10-09T09:33:35Z</time>
      </trkpt>
      <trkpt lat="43.93465" lon="10.31011">
        <ele>34.74</ele>
        <time>2016-10-09T09:33:36Z</time>
      </trkpt>
      <trkpt lat="43.93462" lon="10.31016">
        <ele>35.23</ele>
        <time>2016-10-09T09:33:37Z</time>
      </trkpt>
      <trkpt lat="43.93459" lon="10.31021">
        <ele>35.71</ele>
        <time>2016-10-09T09:33:38Z</time>
      </trkpt>
      <trkpt lat="43.93456" lon="10.31026">
        <ele>35.23</ele>
        <time>2016-10-09T09:33:39Z</time>
      </trkpt>
      <trkpt lat="43.93413" lon="10.3108">
        <ele>35.71</ele>
        <time>2016-10-09T09:33:51Z</time>
      </trkpt>
      <trkpt lat="43.93359" lon="10.31122">
        <ele>36.67</ele>
        <time>2016-10-09T09:34:04Z</time>
      </trkpt>
      <trkpt lat="43.93325" lon="10.31145">
        <ele>38.11</ele>
        <time>2016-10-09T09:34:12Z</time>
      </trkpt>
      <trkpt lat="43.93277" lon="10.31178">
        <ele>38.59</ele>
        <time>2016-10-09T09:34:25Z</time>
      </trkpt>
      <trkpt lat="43.9323" lon="10.31211">
        <ele>40.03</ele>
        <time>2016-10-09T09:34:39Z</time>
      </trkpt>
      <trkpt lat="43.93187" lon="10.31249">
        <ele>42.44</ele>
        <time>2016-10-09T09:34:53Z</time>
      </trkpt>
      <trkpt lat="43.93167" lon="10.31269">
        <ele>42.44</ele>
        <time>2016-10-09T09:35:00Z</time>
      </trkpt>
      <trkpt lat="43.93153" lon="10.31282">
        <ele>41.95</ele>
        <time>2016-10-09T09:35:04Z</time>
      </trkpt>
      <trkpt lat="43.9315" lon="10.31285">
        <ele>41.95</ele>
        <time>2016-10-09T09:35:05Z</time>
      </trkpt>
      <trkpt lat="43.9313" lon="10.31304">
        <ele>40.99</ele>
        <time>2016-10-09T09:35:10Z</time>
      </trkpt>
      <trkpt lat="43.93126" lon="10.31307">
        <ele>40.99</ele>
        <time>2016-10-09T09:35:11Z</time>
      </trkpt>
      <trkpt lat="43.93121" lon="10.3131">
        <ele>41.47</ele>
        <time>2016-10-09T09:35:12Z</time>
      </trkpt>
      <trkpt lat="43.93111" lon="10.31314">
        <ele>41.95</ele>
        <time>2016-10-09T09:35:14Z</time>
      </trkpt>
      <trkpt lat="43.93106" lon="10.31315">
        <ele>41.47</ele>
        <time>2016-10-09T09:35:15Z</time>
      </trkpt>
      <trkpt lat="43.93071" lon="10.31321">
        <ele>41.47</ele>
        <time>2016-10-09T09:35:22Z</time>
      </trkpt>
      <trkpt lat="43.93067" lon="10.31324">
        <ele>41.95</ele>
        <time>2016-10-09T09:35:23Z</time>
      </trkpt>
      <trkpt lat="43.93007" lon="10.31368">
        <ele>42.44</ele>
        <time>2016-10-09T09:35:37Z</time>
      </trkpt>
      <trkpt lat="43.92982" lon="10.31382">
        <ele>42.92</ele>
        <time>2016-10-09T09:35:42Z</time>
      </trkpt>
      <trkpt lat="43.92918" lon="10.31422">
        <ele>43.88</ele>
        <time>2016-10-09T09:35:56Z</time>
      </trkpt>
      <trkpt lat="43.92914" lon="10.31426">
        <ele>43.88</ele>
        <time>2016-10-09T09:35:57Z</time>
      </trkpt>
      <trkpt lat="43.92884" lon="10.31444">
        <ele>45.32</ele>
        <time>2016-10-09T09:36:04Z</time>
      </trkpt>
      <trkpt lat="43.92841" lon="10.31479">
        <ele>46.28</ele>
        <time>2016-10-09T09:36:17Z</time>
      </trkpt>
      <trkpt lat="43.9283" lon="10.3148">
        <ele>46.28</ele>
        <time>2016-10-09T09:36:23Z</time>
      </trkpt>
      <trkpt lat="43.92827" lon="10.31482">
        <ele>46.76</ele>
        <time>2016-10-09T09:36:24Z</time>
      </trkpt>
      <trkpt lat="43.92825" lon="10.31485">
        <ele>46.28</ele>
        <time>2016-10-09T09:36:25Z</time>
      </trkpt>
      <trkpt lat="43.92823" lon="10.31488">
        <ele>46.76</ele>
        <time>2016-10-09T09:36:26Z</time>
      </trkpt>
      <trkpt lat="43.92821" lon="10.31492">
        <ele>47.24</ele>
        <time>2016-10-09T09:36:27Z</time>
      </trkpt>
      <trkpt lat="43.92802" lon="10.31545">
        <ele>47.24</ele>
        <time>2016-10-09T09:36:39Z</time>
      </trkpt>
      <trkpt lat="43.92788" lon="10.3161">
        <ele>48.2</ele>
        <time>2016-10-09T09:36:52Z</time>
      </trkpt>
      <trkpt lat="43.9277" lon="10.31683">
        <ele>49.16</ele>
        <time>2016-10-09T09:37:05Z</time>
      </trkpt>
      <trkpt lat="43.92756" lon="10.31732">
        <ele>49.65</ele>
        <time>2016-10-09T09:37:13Z</time>
      </trkpt>
      <trkpt lat="43.92754" lon="10.31737">
        <ele>50.13</ele>
        <time>2016-10-09T09:37:14Z</time>
      </trkpt>
      <trkpt lat="43.92753" lon="10.31743">
        <ele>50.13</ele>
        <time>2016-10-09T09:37:15Z</time>
      </trkpt>
      <trkpt lat="43.92731" lon="10.31831">
        <ele>50.61</ele>
        <time>2016-10-09T09:37:30Z</time>
      </trkpt>
      <trkpt lat="43.92717" lon="10.31882">
        <ele>51.09</ele>
        <time>2016-10-09T09:37:39Z</time>
      </trkpt>
      <trkpt lat="43.92697" lon="10.3195">
        <ele>51.57</ele>
        <time>2016-10-09T09:37:51Z</time>
      </trkpt>
      <trkpt lat="43.92693" lon="10.31962">
        <ele>52.05</ele>
        <time>2016-10-09T09:37:53Z</time>
      </trkpt>
      <trkpt lat="43.92658" lon="10.32047">
        <ele>53.01</ele>
        <time>2016-10-09T09:38:08Z</time>
      </trkpt>
      <trkpt lat="43.92648" lon="10.3207">
        <ele>53.97</ele>
        <time>2016-10-09T09:38:12Z</time>
      </trkpt>
      <trkpt lat="43.92636" lon="10.32091">
        <ele>53.49</ele>
        <time>2016-10-09T09:38:16Z</time>
      </trkpt>
      <trkpt lat="43.92603" lon="10.32173">
        <ele>54.93</ele>
        <time>2016-10-09T09:38:31Z</time>
      </trkpt>
      <trkpt lat="43.92585" lon="10.32214">
        <ele>55.41</ele>
        <time>2016-10-09T09:38:39Z</time>
      </trkpt>
      <trkpt lat="43.92548" lon="10.32289">
        <ele>56.37</ele>
        <time>2016-10-09T09:38:53Z</time>
      </trkpt>
      <trkpt lat="43.92524" lon="10.32343">
        <ele>57.34</ele>
        <time>2016-10-09T09:39:03Z</time>
      </trkpt>
      <trkpt lat="43.92513" lon="10.32364">
        <ele>57.34</ele>
        <time>2016-10-09T09:39:07Z</time>
      </trkpt>
      <trkpt lat="43.92511" lon="10.32369">
        <ele>57.34</ele>
        <time>2016-10-09T09:39:08Z</time>
      </trkpt>
      <trkpt lat="43.92477" lon="10.32446">
        <ele>58.78</ele>
        <time>2016-10-09T09:39:22Z</time>
      </trkpt>
      <trkpt lat="43.92475" lon="10.32452">
        <ele>58.78</ele>
        <time>2016-10-09T09:39:23Z</time>
      </trkpt>
      <trkpt lat="43.92472" lon="10.32458">
        <ele>58.78</ele>
        <time>2016-10-09T09:39:24Z</time>
      </trkpt>
      <trkpt lat="43.9247" lon="10.32463">
        <ele>58.78</ele>
        <time>2016-10-09T09:39:25Z</time>
      </trkpt>
      <trkpt lat="43.92468" lon="10.32468">
        <ele>58.78</ele>
        <time>2016-10-09T09:39:26Z</time>
      </trkpt>
      <trkpt lat="43.92465" lon="10.32473">
        <ele>59.26</ele>
        <time>2016-10-09T09:39:27Z</time>
      </trkpt>
      <trkpt lat="43.92462" lon="10.32478">
        <ele>59.26</ele>
        <time>2016-10-09T09:39:28Z</time>
      </trkpt>
      <trkpt lat="43.92447" lon="10.32511">
        <ele>59.74</ele>
        <time>2016-10-09T09:39:34Z</time>
      </trkpt>
      <trkpt lat="43.92444" lon="10.32515">
        <ele>59.26</ele>
        <time>2016-10-09T09:39:35Z</time>
      </trkpt>
      <trkpt lat="43.92392" lon="10.32591">
        <ele>60.7</ele>
        <time>2016-10-09T09:39:51Z</time>
      </trkpt>
      <trkpt lat="43.92334" lon="10.32674">
        <ele>63.58</ele>
        <time>2016-10-09T09:40:11Z</time>
      </trkpt>
      <trkpt lat="43.92297" lon="10.32731">
        <ele>64.55</ele>
        <time>2016-10-09T09:40:25Z</time>
      </trkpt>
      <trkpt lat="43.92254" lon="10.32793">
        <ele>67.91</ele>
        <time>2016-10-09T09:40:42Z</time>
      </trkpt>
      <trkpt lat="43.92222" lon="10.32843">
        <ele>68.87</ele>
        <time>2016-10-09T09:40:56Z</time>
      </trkpt>
      <trkpt lat="43.922" lon="10.32874">
        <ele>70.31</ele>
        <time>2016-10-09T09:41:05Z</time>
      </trkpt>
      <trkpt lat="43.92171" lon="10.3295">
        <ele>71.76</ele>
        <time>2016-10-09T09:41:23Z</time>
      </trkpt>
      <trkpt lat="43.92154" lon="10.33014">
        <ele>73.2</ele>
        <time>2016-10-09T09:41:37Z</time>
      </trkpt>
      <trkpt lat="43.92137" lon="10.33083">
        <ele>74.64</ele>
        <time>2016-10-09T09:41:52Z</time>
      </trkpt>
      <trkpt lat="43.9212" lon="10.33146">
        <ele>76.56</ele>
        <time>2016-10-09T09:42:06Z</time>
      </trkpt>
      <trkpt lat="43.92107" lon="10.33203">
        <ele>78</ele>
        <time>2016-10-09T09:42:19Z</time>
      </trkpt>
      <trkpt lat="43.9209" lon="10.33264">
        <ele>78.48</ele>
        <time>2016-10-09T09:42:32Z</time>
      </trkpt>
      <trkpt lat="43.92073" lon="10.33331">
        <ele>80.41</ele>
        <time>2016-10-09T09:42:47Z</time>
      </trkpt>
      <trkpt lat="43.9205" lon="10.3337">
        <ele>81.85</ele>
        <time>2016-10-09T09:43:00Z</time>
      </trkpt>
      <trkpt lat="43.92002" lon="10.33383">
        <ele>84.25</ele>
        <time>2016-10-09T09:43:16Z</time>
      </trkpt>
      <trkpt lat="43.91952" lon="10.33398">
        <ele>86.18</ele>
        <time>2016-10-09T09:43:33Z</time>
      </trkpt>
      <trkpt lat="43.91908" lon="10.33411">
        <ele>88.1</ele>
        <time>2016-10-09T09:43:49Z</time>
      </trkpt>
      <trkpt lat="43.91877" lon="10.33415">
        <ele>90.02</ele>
        <time>2016-10-09T09:44:03Z</time>
      </trkpt>
      <trkpt lat="43.91844" lon="10.33424">
        <ele>92.9</ele>
        <time>2016-10-09T09:44:18Z</time>
      </trkpt>
      <trkpt lat="43.91814" lon="10.33447">
        <ele>94.35</ele>
        <time>2016-10-09T09:44:34Z</time>
      </trkpt>
      <trkpt lat="43.91781" lon="10.33498">
        <ele>95.79</ele>
        <time>2016-10-09T09:44:53Z</time>
      </trkpt>
      <trkpt lat="43.91749" lon="10.33545">
        <ele>97.23</ele>
        <time>2016-10-09T09:45:10Z</time>
      </trkpt>
      <trkpt lat="43.91723" lon="10.33571">
        <ele>99.15</ele>
        <time>2016-10-09T09:45:22Z</time>
      </trkpt>
      <trkpt lat="43.91721" lon="10.33572">
        <ele>99.15</ele>
        <time>2016-10-09T09:45:23Z</time>
      </trkpt>
      <trkpt lat="43.91702" lon="10.33617">
        <ele>100.6</ele>
        <time>2016-10-09T09:45:37Z</time>
      </trkpt>
      <trkpt lat="43.91697" lon="10.33682">
        <ele>103</ele>
        <time>2016-10-09T09:45:54Z</time>
      </trkpt>
      <trkpt lat="43.91686" lon="10.33716">
        <ele>103.96</ele>
        <time>2016-10-09T09:46:06Z</time>
      </trkpt>
      <trkpt lat="43.91655" lon="10.33701">
        <ele>105.4</ele>
        <time>2016-10-09T09:46:20Z</time>
      </trkpt>
      <trkpt lat="43.91619" lon="10.33679">
        <ele>108.29</ele>
        <time>2016-10-09T09:46:36Z</time>
      </trkpt>
      <trkpt lat="43.91606" lon="10.33674">
        <ele>108.77</ele>
        <time>2016-10-09T09:46:42Z</time>
      </trkpt>
      <trkpt lat="43.91571" lon="10.33673">
        <ele>110.69</ele>
        <time>2016-10-09T09:46:57Z</time>
      </trkpt>
      <trkpt lat="43.91542" lon="10.3371">
        <ele>112.61</ele>
        <time>2016-10-09T09:47:13Z</time>
      </trkpt>
      <trkpt lat="43.91517" lon="10.33753">
        <ele>114.05</ele>
        <time>2016-10-09T09:47:29Z</time>
      </trkpt>
      <trkpt lat="43.91499" lon="10.33738">
        <ele>115.01</ele>
        <time>2016-10-09T09:47:40Z</time>
      </trkpt>
      <trkpt lat="43.91499" lon="10.3373">
        <ele>115.98</ele>
        <time>2016-10-09T09:47:52Z</time>
      </trkpt>
      <trkpt lat="43.91497" lon="10.33732">
        <ele>115.5</ele>
        <time>2016-10-09T09:48:18Z</time>
      </trkpt>
      <trkpt lat="43.91496" lon="10.3373">
        <ele>116.46</ele>
        <time>2016-10-09T09:48:56Z</time>
      </trkpt>
      <trkpt lat="43.91499" lon="10.33728">
        <ele>116.46</ele>
        <time>2016-10-09T09:49:20Z</time>
      </trkpt>
      <trkpt lat="43.91497" lon="10.33729">
        <ele>116.46</ele>
        <time>2016-10-09T09:49:41Z</time>
      </trkpt>
      <trkpt lat="43.91495" lon="10.33727">
        <ele>116.94</ele>
        <time>2016-10-09T09:49:51Z</time>
      </trkpt>
      <trkpt lat="43.91469" lon="10.3371">
        <ele>117.42</ele>
        <time>2016-10-09T09:50:06Z</time>
      </trkpt>
      <trkpt lat="43.91434" lon="10.33705">
        <ele>120.3</ele>
        <time>2016-10-09T09:50:22Z</time>
      </trkpt>
      <trkpt lat="43.91405" lon="10.33707">
        <ele>121.26</ele>
        <time>2016-10-09T09:50:36Z</time>
      </trkpt>
      <trkpt lat="43.91373" lon="10.33708">
        <ele>122.71</ele>
        <time>2016-10-09T09:50:50Z</time>
      </trkpt>
      <trkpt lat="43.9136" lon="10.3368">
        <ele>124.15</ele>
        <time>2016-10-09T09:51:02Z</time>
      </trkpt>
      <trkpt lat="43.91347" lon="10.33631">
        <ele>126.07</ele>
        <time>2016-10-09T09:51:21Z</time>
      </trkpt>
      <trkpt lat="43.91322" lon="10.33596">
        <ele>127.99</ele>
        <time>2016-10-09T09:51:39Z</time>
      </trkpt>
      <trkpt lat="43.91296" lon="10.33561">
        <ele>130.4</ele>
        <time>2016-10-09T09:51:57Z</time>
      </trkpt>
      <trkpt lat="43.91272" lon="10.33573">
        <ele>130.88</ele>
        <time>2016-10-09T09:52:09Z</time>
      </trkpt>
      <trkpt lat="43.91278" lon="10.33612">
        <ele>132.32</ele>
        <time>2016-10-09T09:52:22Z</time>
      </trkpt>
      <trkpt lat="43.9131" lon="10.33632">
        <ele>134.72</ele>
        <time>2016-10-09T09:52:38Z</time>
      </trkpt>
      <trkpt lat="43.91326" lon="10.33678">
        <ele>136.16</ele>
        <time>2016-10-09T09:52:55Z</time>
      </trkpt>
      <trkpt lat="43.91314" lon="10.33723">
        <ele>138.09</ele>
        <time>2016-10-09T09:53:10Z</time>
      </trkpt>
      <trkpt lat="43.91314" lon="10.33748">
        <ele>138.57</ele>
        <time>2016-10-09T09:53:18Z</time>
      </trkpt>
      <trkpt lat="43.91316" lon="10.3375">
        <ele>138.57</ele>
        <time>2016-10-09T09:53:19Z</time>
      </trkpt>
      <trkpt lat="43.91318" lon="10.33751">
        <ele>138.57</ele>
        <time>2016-10-09T09:53:20Z</time>
      </trkpt>
      <trkpt lat="43.9132" lon="10.33753">
        <ele>139.05</ele>
        <time>2016-10-09T09:53:21Z</time>
      </trkpt>
      <trkpt lat="43.91323" lon="10.33754">
        <ele>139.53</ele>
        <time>2016-10-09T09:53:22Z</time>
      </trkpt>
      <trkpt lat="43.91325" lon="10.33755">
        <ele>139.53</ele>
        <time>2016-10-09T09:53:23Z</time>
      </trkpt>
      <trkpt lat="43.91357" lon="10.33765">
        <ele>140.97</ele>
        <time>2016-10-09T09:53:37Z</time>
      </trkpt>
      <trkpt lat="43.9139" lon="10.33791">
        <ele>142.89</ele>
        <time>2016-10-09T09:53:53Z</time>
      </trkpt>
      <trkpt lat="43.91428" lon="10.33811">
        <ele>144.34</ele>
        <time>2016-10-09T09:54:10Z</time>
      </trkpt>
      <trkpt lat="43.91461" lon="10.33833">
        <ele>146.26</ele>
        <time>2016-10-09T09:54:25Z</time>
      </trkpt>
      <trkpt lat="43.91479" lon="10.33878">
        <ele>147.7</ele>
        <time>2016-10-09T09:54:41Z</time>
      </trkpt>
      <trkpt lat="43.91499" lon="10.33916">
        <ele>151.06</ele>
        <time>2016-10-09T09:54:56Z</time>
      </trkpt>
      <trkpt lat="43.91531" lon="10.33912">
        <ele>150.58</ele>
        <time>2016-10-09T09:55:09Z</time>
      </trkpt>
      <trkpt lat="43.91564" lon="10.33905">
        <ele>153.47</ele>
        <time>2016-10-09T09:55:24Z</time>
      </trkpt>
      <trkpt lat="43.91594" lon="10.33915">
        <ele>154.91</ele>
        <time>2016-10-09T09:55:38Z</time>
      </trkpt>
      <trkpt lat="43.91626" lon="10.33929">
        <ele>156.83</ele>
        <time>2016-10-09T09:55:52Z</time>
      </trkpt>
      <trkpt lat="43.91659" lon="10.33928">
        <ele>158.75</ele>
        <time>2016-10-09T09:56:06Z</time>
      </trkpt>
      <trkpt lat="43.91687" lon="10.33921">
        <ele>160.2</ele>
        <time>2016-10-09T09:56:19Z</time>
      </trkpt>
      <trkpt lat="43.91727" lon="10.33908">
        <ele>162.12</ele>
        <time>2016-10-09T09:56:37Z</time>
      </trkpt>
      <trkpt lat="43.91765" lon="10.33905">
        <ele>163.08</ele>
        <time>2016-10-09T09:56:53Z</time>
      </trkpt>
      <trkpt lat="43.91773" lon="10.33917">
        <ele>164.04</ele>
        <time>2016-10-09T09:56:59Z</time>
      </trkpt>
      <trkpt lat="43.91773" lon="10.3392">
        <ele>164.04</ele>
        <time>2016-10-09T09:57:00Z</time>
      </trkpt>
      <trkpt lat="43.91773" lon="10.33923">
        <ele>164.52</ele>
        <time>2016-10-09T09:57:01Z</time>
      </trkpt>
      <trkpt lat="43.91773" lon="10.33926">
        <ele>164.52</ele>
        <time>2016-10-09T09:57:02Z</time>
      </trkpt>
      <trkpt lat="43.91772" lon="10.33928">
        <ele>164.52</ele>
        <time>2016-10-09T09:57:03Z</time>
      </trkpt>
      <trkpt lat="43.91771" lon="10.3393">
        <ele>164.52</ele>
        <time>2016-10-09T09:57:04Z</time>
      </trkpt>
      <trkpt lat="43.91769" lon="10.33932">
        <ele>165</ele>
        <time>2016-10-09T09:57:05Z</time>
      </trkpt>
      <trkpt lat="43.91767" lon="10.33933">
        <ele>164.52</ele>
        <time>2016-10-09T09:57:06Z</time>
      </trkpt>
      <trkpt lat="43.91764" lon="10.33933">
        <ele>165</ele>
        <time>2016-10-09T09:57:07Z</time>
      </trkpt>
      <trkpt lat="43.91762" lon="10.33933">
        <ele>165</ele>
        <time>2016-10-09T09:57:08Z</time>
      </trkpt>
      <trkpt lat="43.9176" lon="10.33933">
        <ele>165</ele>
        <time>2016-10-09T09:57:09Z</time>
      </trkpt>
      <trkpt lat="43.91757" lon="10.33933">
        <ele>165</ele>
        <time>2016-10-09T09:57:10Z</time>
      </trkpt>
      <trkpt lat="43.91735" lon="10.33926">
        <ele>167.41</ele>
        <time>2016-10-09T09:57:22Z</time>
      </trkpt>
      <trkpt lat="43.91711" lon="10.33933">
        <ele>168.85</ele>
        <time>2016-10-09T09:57:33Z</time>
      </trkpt>
      <trkpt lat="43.91678" lon="10.33956">
        <ele>170.29</ele>
        <time>2016-10-09T09:57:48Z</time>
      </trkpt>
      <trkpt lat="43.91651" lon="10.33981">
        <ele>171.25</ele>
        <time>2016-10-09T09:58:02Z</time>
      </trkpt>
      <trkpt lat="43.91649" lon="10.33983">
        <ele>171.25</ele>
        <time>2016-10-09T09:58:03Z</time>
      </trkpt>
      <trkpt lat="43.91647" lon="10.33985">
        <ele>171.25</ele>
        <time>2016-10-09T09:58:04Z</time>
      </trkpt>
      <trkpt lat="43.91645" lon="10.33986">
        <ele>171.73</ele>
        <time>2016-10-09T09:58:05Z</time>
      </trkpt>
      <trkpt lat="43.91644" lon="10.33988">
        <ele>171.73</ele>
        <time>2016-10-09T09:58:06Z</time>
      </trkpt>
      <trkpt lat="43.91642" lon="10.3399">
        <ele>171.73</ele>
        <time>2016-10-09T09:58:07Z</time>
      </trkpt>
      <trkpt lat="43.9164" lon="10.33992">
        <ele>172.21</ele>
        <time>2016-10-09T09:58:08Z</time>
      </trkpt>
      <trkpt lat="43.91638" lon="10.33994">
        <ele>171.25</ele>
        <time>2016-10-09T09:58:09Z</time>
      </trkpt>
      <trkpt lat="43.91636" lon="10.33996">
        <ele>171.73</ele>
        <time>2016-10-09T09:58:10Z</time>
      </trkpt>
      <trkpt lat="43.9162" lon="10.34009">
        <ele>173.17</ele>
        <time>2016-10-09T09:58:20Z</time>
      </trkpt>
      <trkpt lat="43.9159" lon="10.34002">
        <ele>175.1</ele>
        <time>2016-10-09T09:58:33Z</time>
      </trkpt>
      <trkpt lat="43.91564" lon="10.33996">
        <ele>177.02</ele>
        <time>2016-10-09T09:58:47Z</time>
      </trkpt>
      <trkpt lat="43.91531" lon="10.3402">
        <ele>178.46</ele>
        <time>2016-10-09T09:59:01Z</time>
      </trkpt>
      <trkpt lat="43.915" lon="10.34022">
        <ele>180.38</ele>
        <time>2016-10-09T09:59:14Z</time>
      </trkpt>
      <trkpt lat="43.91471" lon="10.34024">
        <ele>180.87</ele>
        <time>2016-10-09T09:59:27Z</time>
      </trkpt>
      <trkpt lat="43.91425" lon="10.3401">
        <ele>183.27</ele>
        <time>2016-10-09T09:59:44Z</time>
      </trkpt>
      <trkpt lat="43.91393" lon="10.34019">
        <ele>185.19</ele>
        <time>2016-10-09T09:59:57Z</time>
      </trkpt>
      <trkpt lat="43.91373" lon="10.3406">
        <ele>185.67</ele>
        <time>2016-10-09T10:00:10Z</time>
      </trkpt>
      <trkpt lat="43.91371" lon="10.34116">
        <ele>187.59</ele>
        <time>2016-10-09T10:00:24Z</time>
      </trkpt>
      <trkpt lat="43.91358" lon="10.34127">
        <ele>189.04</ele>
        <time>2016-10-09T10:00:33Z</time>
      </trkpt>
      <trkpt lat="43.91357" lon="10.34126">
        <ele>189.52</ele>
        <time>2016-10-09T10:00:34Z</time>
      </trkpt>
      <trkpt lat="43.91357" lon="10.34124">
        <ele>189.04</ele>
        <time>2016-10-09T10:00:35Z</time>
      </trkpt>
      <trkpt lat="43.9136" lon="10.34104">
        <ele>190</ele>
        <time>2016-10-09T10:00:43Z</time>
      </trkpt>
      <trkpt lat="43.91361" lon="10.34102">
        <ele>190.96</ele>
        <time>2016-10-09T10:00:44Z</time>
      </trkpt>
      <trkpt lat="43.91362" lon="10.341">
        <ele>190</ele>
        <time>2016-10-09T10:00:45Z</time>
      </trkpt>
      <trkpt lat="43.91363" lon="10.34097">
        <ele>190.48</ele>
        <time>2016-10-09T10:00:46Z</time>
      </trkpt>
      <trkpt lat="43.91364" lon="10.34094">
        <ele>190.48</ele>
        <time>2016-10-09T10:00:47Z</time>
      </trkpt>
      <trkpt lat="43.91373" lon="10.3405">
        <ele>191.44</ele>
        <time>2016-10-09T10:01:03Z</time>
      </trkpt>
      <trkpt lat="43.91372" lon="10.34048">
        <ele>191.92</ele>
        <time>2016-10-09T10:01:04Z</time>
      </trkpt>
      <trkpt lat="43.91372" lon="10.34046">
        <ele>191.92</ele>
        <time>2016-10-09T10:01:05Z</time>
      </trkpt>
      <trkpt lat="43.91373" lon="10.34044">
        <ele>192.4</ele>
        <time>2016-10-09T10:01:06Z</time>
      </trkpt>
      <trkpt lat="43.91374" lon="10.34041">
        <ele>192.4</ele>
        <time>2016-10-09T10:01:07Z</time>
      </trkpt>
      <trkpt lat="43.91375" lon="10.34039">
        <ele>192.4</ele>
        <time>2016-10-09T10:01:08Z</time>
      </trkpt>
      <trkpt lat="43.91376" lon="10.34036">
        <ele>192.4</ele>
        <time>2016-10-09T10:01:09Z</time>
      </trkpt>
      <trkpt lat="43.91377" lon="10.34034">
        <ele>192.88</ele>
        <time>2016-10-09T10:01:10Z</time>
      </trkpt>
      <trkpt lat="43.91378" lon="10.34031">
        <ele>192.4</ele>
        <time>2016-10-09T10:01:11Z</time>
      </trkpt>
      <trkpt lat="43.91395" lon="10.33999">
        <ele>194.32</ele>
        <time>2016-10-09T10:01:24Z</time>
      </trkpt>
      <trkpt lat="43.91404" lon="10.33957">
        <ele>196.25</ele>
        <time>2016-10-09T10:01:39Z</time>
      </trkpt>
      <trkpt lat="43.91384" lon="10.33936">
        <ele>197.69</ele>
        <time>2016-10-09T10:01:50Z</time>
      </trkpt>
      <trkpt lat="43.91355" lon="10.33934">
        <ele>199.61</ele>
        <time>2016-10-09T10:02:02Z</time>
      </trkpt>
      <trkpt lat="43.91319" lon="10.33921">
        <ele>201.53</ele>
        <time>2016-10-09T10:02:20Z</time>
      </trkpt>
      <trkpt lat="43.91287" lon="10.33905">
        <ele>203.46</ele>
        <time>2016-10-09T10:02:36Z</time>
      </trkpt>
      <trkpt lat="43.91258" lon="10.339">
        <ele>205.38</ele>
        <time>2016-10-09T10:02:49Z</time>
      </trkpt>
      <trkpt lat="43.91223" lon="10.33897">
        <ele>207.3</ele>
        <time>2016-10-09T10:03:04Z</time>
      </trkpt>
      <trkpt lat="43.91175" lon="10.33876">
        <ele>208.74</ele>
        <time>2016-10-09T10:03:23Z</time>
      </trkpt>
      <trkpt lat="43.91126" lon="10.33867">
        <ele>211.63</ele>
        <time>2016-10-09T10:03:42Z</time>
      </trkpt>
      <trkpt lat="43.91087" lon="10.33871">
        <ele>213.07</ele>
        <time>2016-10-09T10:03:59Z</time>
      </trkpt>
      <trkpt lat="43.91063" lon="10.33883">
        <ele>214.03</ele>
        <time>2016-10-09T10:04:10Z</time>
      </trkpt>
      <trkpt lat="43.91034" lon="10.33912">
        <ele>214.51</ele>
        <time>2016-10-09T10:04:24Z</time>
      </trkpt>
      <trkpt lat="43.91014" lon="10.33956">
        <ele>214.03</ele>
        <time>2016-10-09T10:04:38Z</time>
      </trkpt>
      <trkpt lat="43.91007" lon="10.33992">
        <ele>212.59</ele>
        <time>2016-10-09T10:04:47Z</time>
      </trkpt>
      <trkpt lat="43.91008" lon="10.33994">
        <ele>212.59</ele>
        <time>2016-10-09T10:04:48Z</time>
      </trkpt>
      <trkpt lat="43.91009" lon="10.33996">
        <ele>212.59</ele>
        <time>2016-10-09T10:04:50Z</time>
      </trkpt>
      <trkpt lat="43.91011" lon="10.33996">
        <ele>213.07</ele>
        <time>2016-10-09T10:04:53Z</time>
      </trkpt>
      <trkpt lat="43.91011" lon="10.33995">
        <ele>212.59</ele>
        <time>2016-10-09T10:04:54Z</time>
      </trkpt>
      <trkpt lat="43.91013" lon="10.33996">
        <ele>213.07</ele>
        <time>2016-10-09T10:05:08Z</time>
      </trkpt>
      <trkpt lat="43.91012" lon="10.33998">
        <ele>213.07</ele>
        <time>2016-10-09T10:05:44Z</time>
      </trkpt>
      <trkpt lat="43.91015" lon="10.33995">
        <ele>212.59</ele>
        <time>2016-10-09T10:06:03Z</time>
      </trkpt>
      <trkpt lat="43.91018" lon="10.33987">
        <ele>213.07</ele>
        <time>2016-10-09T10:06:13Z</time>
      </trkpt>
      <trkpt lat="43.91019" lon="10.33986">
        <ele>213.07</ele>
        <time>2016-10-09T10:06:14Z</time>
      </trkpt>
      <trkpt lat="43.9102" lon="10.33982">
        <ele>214.03</ele>
        <time>2016-10-09T10:06:18Z</time>
      </trkpt>
      <trkpt lat="43.9102" lon="10.33983">
        <ele>213.55</ele>
        <time>2016-10-09T10:06:30Z</time>
      </trkpt>
      <trkpt lat="43.91019" lon="10.33984">
        <ele>214.99</ele>
        <time>2016-10-09T10:06:52Z</time>
      </trkpt>
      <trkpt lat="43.9102" lon="10.33984">
        <ele>213.55</ele>
        <time>2016-10-09T10:06:54Z</time>
      </trkpt>
      <trkpt lat="43.91019" lon="10.33974">
        <ele>214.99</ele>
        <time>2016-10-09T10:07:06Z</time>
      </trkpt>
      <trkpt lat="43.91021" lon="10.33971">
        <ele>214.03</ele>
        <time>2016-10-09T10:07:21Z</time>
      </trkpt>
      <trkpt lat="43.9102" lon="10.3397">
        <ele>214.03</ele>
        <time>2016-10-09T10:07:46Z</time>
      </trkpt>
      <trkpt lat="43.9102" lon="10.33969">
        <ele>214.51</ele>
        <time>2016-10-09T10:08:10Z</time>
      </trkpt>
      <trkpt lat="43.91019" lon="10.33968">
        <ele>213.55</ele>
        <time>2016-10-09T10:08:32Z</time>
      </trkpt>
      <trkpt lat="43.91018" lon="10.3397">
        <ele>210.67</ele>
        <time>2016-10-09T10:09:03Z</time>
      </trkpt>
      <trkpt lat="43.91018" lon="10.3397">
        <ele>218.84</ele>
        <time>2016-10-09T10:09:04Z</time>
      </trkpt>
      <trkpt lat="43.91018" lon="10.3397">
        <ele>214.99</ele>
        <time>2016-10-09T10:09:05Z</time>
      </trkpt>
      <trkpt lat="43.91018" lon="10.33971">
        <ele>218.84</ele>
        <time>2016-10-09T10:09:11Z</time>
      </trkpt>
      <trkpt lat="43.91018" lon="10.33971">
        <ele>215.47</ele>
        <time>2016-10-09T10:09:12Z</time>
      </trkpt>
      <trkpt lat="43.91017" lon="10.33971">
        <ele>209.22</ele>
        <time>2016-10-09T10:09:15Z</time>
      </trkpt>
      <trkpt lat="43.91017" lon="10.33971">
        <ele>214.03</ele>
        <time>2016-10-09T10:09:16Z</time>
      </trkpt>
      <trkpt lat="43.91017" lon="10.33971">
        <ele>210.67</ele>
        <time>2016-10-09T10:09:17Z</time>
      </trkpt>
      <trkpt lat="43.91017" lon="10.33971">
        <ele>215.47</ele>
        <time>2016-10-09T10:09:19Z</time>
      </trkpt>
      <trkpt lat="43.91017" lon="10.33971">
        <ele>211.15</ele>
        <time>2016-10-09T10:09:20Z</time>
      </trkpt>
      <trkpt lat="43.91017" lon="10.33971">
        <ele>218.36</ele>
        <time>2016-10-09T10:09:21Z</time>
      </trkpt>
      <trkpt lat="43.91017" lon="10.33971">
        <ele>214.99</ele>
        <time>2016-10-09T10:09:22Z</time>
      </trkpt>
      <trkpt lat="43.91018" lon="10.33973">
        <ele>214.51</ele>
        <time>2016-10-09T10:09:52Z</time>
      </trkpt>
      <trkpt lat="43.91019" lon="10.33971">
        <ele>214.51</ele>
        <time>2016-10-09T10:10:26Z</time>
      </trkpt>
      <trkpt lat="43.91017" lon="10.33974">
        <ele>215.47</ele>
        <time>2016-10-09T10:11:02Z</time>
      </trkpt>
      <trkpt lat="43.91018" lon="10.33973">
        <ele>214.99</ele>
        <time>2016-10-09T10:11:32Z</time>
      </trkpt>
      <trkpt lat="43.91018" lon="10.33973">
        <ele>215.47</ele>
        <time>2016-10-09T10:11:46Z</time>
      </trkpt>
      <trkpt lat="43.91017" lon="10.3397">
        <ele>215.47</ele>
        <time>2016-10-09T10:12:07Z</time>
      </trkpt>
      <trkpt lat="43.9102" lon="10.3397">
        <ele>214.99</ele>
        <time>2016-10-09T10:12:31Z</time>
      </trkpt>
      <trkpt lat="43.91018" lon="10.33973">
        <ele>215.47</ele>
        <time>2016-10-09T10:12:54Z</time>
      </trkpt>
      <trkpt lat="43.91016" lon="10.33977">
        <ele>215.47</ele>
        <time>2016-10-09T10:13:17Z</time>
      </trkpt>
      <trkpt lat="43.91015" lon="10.33977">
        <ele>215.47</ele>
        <time>2016-10-09T10:13:43Z</time>
      </trkpt>
      <trkpt lat="43.91017" lon="10.33977">
        <ele>215.47</ele>
        <time>2016-10-09T10:14:13Z</time>
      </trkpt>
      <trkpt lat="43.91018" lon="10.33973">
        <ele>214.99</ele>
        <time>2016-10-09T10:14:47Z</time>
      </trkpt>
      <trkpt lat="43.91016" lon="10.33971">
        <ele>215.47</ele>
        <time>2016-10-09T10:15:20Z</time>
      </trkpt>
      <trkpt lat="43.91016" lon="10.3397">
        <ele>215.47</ele>
        <time>2016-10-09T10:15:53Z</time>
      </trkpt>
      <trkpt lat="43.91016" lon="10.33973">
        <ele>215.95</ele>
        <time>2016-10-09T10:16:17Z</time>
      </trkpt>
      <trkpt lat="43.91016" lon="10.33969">
        <ele>215.47</ele>
        <time>2016-10-09T10:16:45Z</time>
      </trkpt>
      <trkpt lat="43.91018" lon="10.33971">
        <ele>215.95</ele>
        <time>2016-10-09T10:17:15Z</time>
      </trkpt>
      <trkpt lat="43.91013" lon="10.33972">
        <ele>215.95</ele>
        <time>2016-10-09T10:17:56Z</time>
      </trkpt>
      <trkpt lat="43.91014" lon="10.33969">
        <ele>215.95</ele>
        <time>2016-10-09T10:18:26Z</time>
      </trkpt>
      <trkpt lat="43.91014" lon="10.33971">
        <ele>215.95</ele>
        <time>2016-10-09T10:19:04Z</time>
      </trkpt>
      <trkpt lat="43.91014" lon="10.33968">
        <ele>215.95</ele>
        <time>2016-10-09T10:19:50Z</time>
      </trkpt>
      <trkpt lat="43.91015" lon="10.33967">
        <ele>215.95</ele>
        <time>2016-10-09T10:20:26Z</time>
      </trkpt>
      <trkpt lat="43.91016" lon="10.33969">
        <ele>216.43</ele>
        <time>2016-10-09T10:21:08Z</time>
      </trkpt>
      <trkpt lat="43.91017" lon="10.33971">
        <ele>215.95</ele>
        <time>2016-10-09T10:21:50Z</time>
      </trkpt>
      <trkpt lat="43.91019" lon="10.33974">
        <ele>216.91</ele>
        <time>2016-10-09T10:22:39Z</time>
      </trkpt>
      <trkpt lat="43.91013" lon="10.33975">
        <ele>217.4</ele>
        <time>2016-10-09T10:23:24Z</time>
      </trkpt>
      <trkpt lat="43.91016" lon="10.33971">
        <ele>216.43</ele>
        <time>2016-10-09T10:24:09Z</time>
      </trkpt>
      <trkpt lat="43.91019" lon="10.33971">
        <ele>215.95</ele>
        <time>2016-10-09T10:24:52Z</time>
      </trkpt>
      <trkpt lat="43.91016" lon="10.33972">
        <ele>216.43</ele>
        <time>2016-10-09T10:25:37Z</time>
      </trkpt>
      <trkpt lat="43.91013" lon="10.33971">
        <ele>215.95</ele>
        <time>2016-10-09T10:26:08Z</time>
      </trkpt>
      <trkpt lat="43.91012" lon="10.33972">
        <ele>216.43</ele>
        <time>2016-10-09T10:26:42Z</time>
      </trkpt>
      <trkpt lat="43.91013" lon="10.3397">
        <ele>216.91</ele>
        <time>2016-10-09T10:27:15Z</time>
      </trkpt>
      <trkpt lat="43.91015" lon="10.33969">
        <ele>216.91</ele>
        <time>2016-10-09T10:27:47Z</time>
      </trkpt>
      <trkpt lat="43.9102" lon="10.3397">
        <ele>217.4</ele>
        <time>2016-10-09T10:28:21Z</time>
      </trkpt>
      <trkpt lat="43.9102" lon="10.33971">
        <ele>216.91</ele>
        <time>2016-10-09T10:28:59Z</time>
      </trkpt>
      <trkpt lat="43.9102" lon="10.33967">
        <ele>216.91</ele>
        <time>2016-10-09T10:29:32Z</time>
      </trkpt>
      <trkpt lat="43.91019" lon="10.33972">
        <ele>216.91</ele>
        <time>2016-10-09T10:30:05Z</time>
      </trkpt>
      <trkpt lat="43.91019" lon="10.33968">
        <ele>216.91</ele>
        <time>2016-10-09T10:30:50Z</time>
      </trkpt>
      <trkpt lat="43.91018" lon="10.33966">
        <ele>216.91</ele>
        <time>2016-10-09T10:31:24Z</time>
      </trkpt>
      <trkpt lat="43.91017" lon="10.33965">
        <ele>216.43</ele>
        <time>2016-10-09T10:31:45Z</time>
      </trkpt>
      <trkpt lat="43.91017" lon="10.33965">
        <ele>216.91</ele>
        <time>2016-10-09T10:32:16Z</time>
      </trkpt>
      <trkpt lat="43.91018" lon="10.33975">
        <ele>216.91</ele>
        <time>2016-10-09T10:32:33Z</time>
      </trkpt>
      <trkpt lat="43.91022" lon="10.3398">
        <ele>213.55</ele>
        <time>2016-10-09T10:32:45Z</time>
      </trkpt>
      <trkpt lat="43.9102" lon="10.33981">
        <ele>216.91</ele>
        <time>2016-10-09T10:32:49Z</time>
      </trkpt>
      <trkpt lat="43.91024" lon="10.33981">
        <ele>216.91</ele>
        <time>2016-10-09T10:33:13Z</time>
      </trkpt>
      <trkpt lat="43.91022" lon="10.33986">
        <ele>216.91</ele>
        <time>2016-10-09T10:33:41Z</time>
      </trkpt>
      <trkpt lat="43.91022" lon="10.33986">
        <ele>216.43</ele>
        <time>2016-10-09T10:34:12Z</time>
      </trkpt>
      <trkpt lat="43.91021" lon="10.33989">
        <ele>216.91</ele>
        <time>2016-10-09T10:34:46Z</time>
      </trkpt>
      <trkpt lat="43.9102" lon="10.33987">
        <ele>217.4</ele>
        <time>2016-10-09T10:35:24Z</time>
      </trkpt>
      <trkpt lat="43.91018" lon="10.33987">
        <ele>216.91</ele>
        <time>2016-10-09T10:36:07Z</time>
      </trkpt>
      <trkpt lat="43.91019" lon="10.33986">
        <ele>216.91</ele>
        <time>2016-10-09T10:36:35Z</time>
      </trkpt>
      <trkpt lat="43.91018" lon="10.33984">
        <ele>217.4</ele>
        <time>2016-10-09T10:37:00Z</time>
      </trkpt>
      <trkpt lat="43.91018" lon="10.3398">
        <ele>216.91</ele>
        <time>2016-10-09T10:37:18Z</time>
      </trkpt>
      <trkpt lat="43.91017" lon="10.3398">
        <ele>216.91</ele>
        <time>2016-10-09T10:37:19Z</time>
      </trkpt>
      <trkpt lat="43.91016" lon="10.33981">
        <ele>217.4</ele>
        <time>2016-10-09T10:37:20Z</time>
      </trkpt>
      <trkpt lat="43.91014" lon="10.33983">
        <ele>216.43</ele>
        <time>2016-10-09T10:37:21Z</time>
      </trkpt>
      <trkpt lat="43.91013" lon="10.33985">
        <ele>217.4</ele>
        <time>2016-10-09T10:37:22Z</time>
      </trkpt>
      <trkpt lat="43.91013" lon="10.33986">
        <ele>216.43</ele>
        <time>2016-10-09T10:37:23Z</time>
      </trkpt>
      <trkpt lat="43.91012" lon="10.33987">
        <ele>216.91</ele>
        <time>2016-10-09T10:37:24Z</time>
      </trkpt>
      <trkpt lat="43.91011" lon="10.33988">
        <ele>216.91</ele>
        <time>2016-10-09T10:37:25Z</time>
      </trkpt>
      <trkpt lat="43.91009" lon="10.33988">
        <ele>217.4</ele>
        <time>2016-10-09T10:37:26Z</time>
      </trkpt>
      <trkpt lat="43.90994" lon="10.34029">
        <ele>215.95</ele>
        <time>2016-10-09T10:37:37Z</time>
      </trkpt>
      <trkpt lat="43.90987" lon="10.34055">
        <ele>214.51</ele>
        <time>2016-10-09T10:37:41Z</time>
      </trkpt>
      <trkpt lat="43.90948" lon="10.3415">
        <ele>211.63</ele>
        <time>2016-10-09T10:37:53Z</time>
      </trkpt>
      <trkpt lat="43.90895" lon="10.34284">
        <ele>208.74</ele>
        <time>2016-10-09T10:38:08Z</time>
      </trkpt>
      <trkpt lat="43.90839" lon="10.34436">
        <ele>205.86</ele>
        <time>2016-10-09T10:38:25Z</time>
      </trkpt>
      <trkpt lat="43.90808" lon="10.3453">
        <ele>205.38</ele>
        <time>2016-10-09T10:38:36Z</time>
      </trkpt>
      <trkpt lat="43.90792" lon="10.34638">
        <ele>206.34</ele>
        <time>2016-10-09T10:38:50Z</time>
      </trkpt>
      <trkpt lat="43.90782" lon="10.34715">
        <ele>205.38</ele>
        <time>2016-10-09T10:39:01Z</time>
      </trkpt>
      <trkpt lat="43.90734" lon="10.34808">
        <ele>202.49</ele>
        <time>2016-10-09T10:39:14Z</time>
      </trkpt>
      <trkpt lat="43.90698" lon="10.34867">
        <ele>199.13</ele>
        <time>2016-10-09T10:39:22Z</time>
      </trkpt>
      <trkpt lat="43.90681" lon="10.3489">
        <ele>198.17</ele>
        <time>2016-10-09T10:39:25Z</time>
      </trkpt>
      <trkpt lat="43.90647" lon="10.34934">
        <ele>198.17</ele>
        <time>2016-10-09T10:39:31Z</time>
      </trkpt>
      <trkpt lat="43.90643" lon="10.34942">
        <ele>198.17</ele>
        <time>2016-10-09T10:39:32Z</time>
      </trkpt>
      <trkpt lat="43.90641" lon="10.34952">
        <ele>197.21</ele>
        <time>2016-10-09T10:39:33Z</time>
      </trkpt>
      <trkpt lat="43.90626" lon="10.34999">
        <ele>195.28</ele>
        <time>2016-10-09T10:39:38Z</time>
      </trkpt>
      <trkpt lat="43.90603" lon="10.35055">
        <ele>192.88</ele>
        <time>2016-10-09T10:39:44Z</time>
      </trkpt>
      <trkpt lat="43.90537" lon="10.35149">
        <ele>191.92</ele>
        <time>2016-10-09T10:39:56Z</time>
      </trkpt>
      <trkpt lat="43.90523" lon="10.35169">
        <ele>191.92</ele>
        <time>2016-10-09T10:39:59Z</time>
      </trkpt>
      <trkpt lat="43.90519" lon="10.35176">
        <ele>191.92</ele>
        <time>2016-10-09T10:40:00Z</time>
      </trkpt>
      <trkpt lat="43.90516" lon="10.35184">
        <ele>192.4</ele>
        <time>2016-10-09T10:40:01Z</time>
      </trkpt>
      <trkpt lat="43.90509" lon="10.35212">
        <ele>191.44</ele>
        <time>2016-10-09T10:40:04Z</time>
      </trkpt>
      <trkpt lat="43.90508" lon="10.35221">
        <ele>190.96</ele>
        <time>2016-10-09T10:40:05Z</time>
      </trkpt>
      <trkpt lat="43.90501" lon="10.35292">
        <ele>189.04</ele>
        <time>2016-10-09T10:40:12Z</time>
      </trkpt>
      <trkpt lat="43.90497" lon="10.35301">
        <ele>189.04</ele>
        <time>2016-10-09T10:40:13Z</time>
      </trkpt>
      <trkpt lat="43.90492" lon="10.3531">
        <ele>188.08</ele>
        <time>2016-10-09T10:40:14Z</time>
      </trkpt>
      <trkpt lat="43.90479" lon="10.35327">
        <ele>186.15</ele>
        <time>2016-10-09T10:40:16Z</time>
      </trkpt>
      <trkpt lat="43.90472" lon="10.35335">
        <ele>186.63</ele>
        <time>2016-10-09T10:40:17Z</time>
      </trkpt>
      <trkpt lat="43.90435" lon="10.35395">
        <ele>183.27</ele>
        <time>2016-10-09T10:40:23Z</time>
      </trkpt>
      <trkpt lat="43.90386" lon="10.35502">
        <ele>181.83</ele>
        <time>2016-10-09T10:40:33Z</time>
      </trkpt>
      <trkpt lat="43.90384" lon="10.35513">
        <ele>182.31</ele>
        <time>2016-10-09T10:40:34Z</time>
      </trkpt>
      <trkpt lat="43.90381" lon="10.35527">
        <ele>182.31</ele>
        <time>2016-10-09T10:40:35Z</time>
      </trkpt>
      <trkpt lat="43.90382" lon="10.35671">
        <ele>181.35</ele>
        <time>2016-10-09T10:40:48Z</time>
      </trkpt>
      <trkpt lat="43.90385" lon="10.35693">
        <ele>180.87</ele>
        <time>2016-10-09T10:40:50Z</time>
      </trkpt>
      <trkpt lat="43.90388" lon="10.35703">
        <ele>180.87</ele>
        <time>2016-10-09T10:40:51Z</time>
      </trkpt>
      <trkpt lat="43.90427" lon="10.35806">
        <ele>182.79</ele>
        <time>2016-10-09T10:41:04Z</time>
      </trkpt>
      <trkpt lat="43.90455" lon="10.35867">
        <ele>184.71</ele>
        <time>2016-10-09T10:41:17Z</time>
      </trkpt>
      <trkpt lat="43.9046" lon="10.35875">
        <ele>184.71</ele>
        <time>2016-10-09T10:41:19Z</time>
      </trkpt>
      <trkpt lat="43.90461" lon="10.35881">
        <ele>184.71</ele>
        <time>2016-10-09T10:41:20Z</time>
      </trkpt>
      <trkpt lat="43.90471" lon="10.35906">
        <ele>185.19</ele>
        <time>2016-10-09T10:41:25Z</time>
      </trkpt>
      <trkpt lat="43.90473" lon="10.3591">
        <ele>185.19</ele>
        <time>2016-10-09T10:41:26Z</time>
      </trkpt>
      <trkpt lat="43.90504" lon="10.36">
        <ele>183.75</ele>
        <time>2016-10-09T10:41:41Z</time>
      </trkpt>
      <trkpt lat="43.90526" lon="10.3609">
        <ele>180.87</ele>
        <time>2016-10-09T10:41:52Z</time>
      </trkpt>
      <trkpt lat="43.9053" lon="10.36131">
        <ele>178.46</ele>
        <time>2016-10-09T10:41:56Z</time>
      </trkpt>
      <trkpt lat="43.90525" lon="10.36214">
        <ele>175.1</ele>
        <time>2016-10-09T10:42:03Z</time>
      </trkpt>
      <trkpt lat="43.90515" lon="10.36276">
        <ele>171.73</ele>
        <time>2016-10-09T10:42:08Z</time>
      </trkpt>
      <trkpt lat="43.90498" lon="10.36377">
        <ele>167.89</ele>
        <time>2016-10-09T10:42:16Z</time>
      </trkpt>
      <trkpt lat="43.90486" lon="10.36456">
        <ele>163.56</ele>
        <time>2016-10-09T10:42:22Z</time>
      </trkpt>
      <trkpt lat="43.90484" lon="10.3647">
        <ele>164.04</ele>
        <time>2016-10-09T10:42:23Z</time>
      </trkpt>
      <trkpt lat="43.90475" lon="10.36552">
        <ele>160.2</ele>
        <time>2016-10-09T10:42:29Z</time>
      </trkpt>
      <trkpt lat="43.90474" lon="10.36567">
        <ele>160.68</ele>
        <time>2016-10-09T10:42:30Z</time>
      </trkpt>
      <trkpt lat="43.90475" lon="10.36653">
        <ele>158.27</ele>
        <time>2016-10-09T10:42:36Z</time>
      </trkpt>
      <trkpt lat="43.90473" lon="10.36735">
        <ele>155.87</ele>
        <time>2016-10-09T10:42:42Z</time>
      </trkpt>
      <trkpt lat="43.90471" lon="10.36748">
        <ele>155.39</ele>
        <time>2016-10-09T10:42:43Z</time>
      </trkpt>
      <trkpt lat="43.90429" lon="10.3686">
        <ele>154.43</ele>
        <time>2016-10-09T10:42:53Z</time>
      </trkpt>
      <trkpt lat="43.90413" lon="10.36903">
        <ele>153.47</ele>
        <time>2016-10-09T10:42:57Z</time>
      </trkpt>
      <trkpt lat="43.90381" lon="10.37057">
        <ele>150.58</ele>
        <time>2016-10-09T10:43:11Z</time>
      </trkpt>
      <trkpt lat="43.90375" lon="10.3721">
        <ele>149.62</ele>
        <time>2016-10-09T10:43:25Z</time>
      </trkpt>
      <trkpt lat="43.90373" lon="10.37253">
        <ele>150.1</ele>
        <time>2016-10-09T10:43:29Z</time>
      </trkpt>
      <trkpt lat="43.9036" lon="10.37361">
        <ele>148.66</ele>
        <time>2016-10-09T10:43:40Z</time>
      </trkpt>
      <trkpt lat="43.90357" lon="10.37371">
        <ele>149.14</ele>
        <time>2016-10-09T10:43:41Z</time>
      </trkpt>
      <trkpt lat="43.90336" lon="10.3743">
        <ele>146.74</ele>
        <time>2016-10-09T10:43:47Z</time>
      </trkpt>
      <trkpt lat="43.90332" lon="10.37439">
        <ele>146.26</ele>
        <time>2016-10-09T10:43:48Z</time>
      </trkpt>
      <trkpt lat="43.90326" lon="10.37448">
        <ele>146.74</ele>
        <time>2016-10-09T10:43:49Z</time>
      </trkpt>
      <trkpt lat="43.9032" lon="10.37456">
        <ele>145.78</ele>
        <time>2016-10-09T10:43:50Z</time>
      </trkpt>
      <trkpt lat="43.90314" lon="10.37464">
        <ele>146.26</ele>
        <time>2016-10-09T10:43:51Z</time>
      </trkpt>
      <trkpt lat="43.90272" lon="10.37522">
        <ele>143.85</ele>
        <time>2016-10-09T10:43:58Z</time>
      </trkpt>
      <trkpt lat="43.90236" lon="10.37571">
        <ele>140.49</ele>
        <time>2016-10-09T10:44:04Z</time>
      </trkpt>
      <trkpt lat="43.9023" lon="10.3758">
        <ele>140.49</ele>
        <time>2016-10-09T10:44:05Z</time>
      </trkpt>
      <trkpt lat="43.90225" lon="10.37588">
        <ele>141.45</ele>
        <time>2016-10-09T10:44:06Z</time>
      </trkpt>
      <trkpt lat="43.90221" lon="10.37598">
        <ele>140.97</ele>
        <time>2016-10-09T10:44:07Z</time>
      </trkpt>
      <trkpt lat="43.90218" lon="10.37607">
        <ele>140.01</ele>
        <time>2016-10-09T10:44:08Z</time>
      </trkpt>
      <trkpt lat="43.90195" lon="10.37721">
        <ele>139.05</ele>
        <time>2016-10-09T10:44:19Z</time>
      </trkpt>
      <trkpt lat="43.90176" lon="10.37825">
        <ele>136.64</ele>
        <time>2016-10-09T10:44:29Z</time>
      </trkpt>
      <trkpt lat="43.90174" lon="10.37835">
        <ele>136.64</ele>
        <time>2016-10-09T10:44:30Z</time>
      </trkpt>
      <trkpt lat="43.90157" lon="10.37926">
        <ele>133.28</ele>
        <time>2016-10-09T10:44:38Z</time>
      </trkpt>
      <trkpt lat="43.90139" lon="10.38017">
        <ele>131.36</ele>
        <time>2016-10-09T10:44:46Z</time>
      </trkpt>
      <trkpt lat="43.90105" lon="10.38123">
        <ele>131.84</ele>
        <time>2016-10-09T10:44:56Z</time>
      </trkpt>
      <trkpt lat="43.9006" lon="10.38266">
        <ele>128.47</ele>
        <time>2016-10-09T10:45:10Z</time>
      </trkpt>
      <trkpt lat="43.9003" lon="10.3838">
        <ele>125.59</ele>
        <time>2016-10-09T10:45:21Z</time>
      </trkpt>
      <trkpt lat="43.89987" lon="10.38556">
        <ele>123.67</ele>
        <time>2016-10-09T10:45:38Z</time>
      </trkpt>
      <trkpt lat="43.8994" lon="10.38714">
        <ele>121.74</ele>
        <time>2016-10-09T10:45:54Z</time>
      </trkpt>
      <trkpt lat="43.8989" lon="10.38835">
        <ele>120.3</ele>
        <time>2016-10-09T10:46:08Z</time>
      </trkpt>
      <trkpt lat="43.89864" lon="10.38965">
        <ele>118.86</ele>
        <time>2016-10-09T10:46:21Z</time>
      </trkpt>
      <trkpt lat="43.89859" lon="10.39078">
        <ele>118.38</ele>
        <time>2016-10-09T10:46:32Z</time>
      </trkpt>
      <trkpt lat="43.89862" lon="10.39218">
        <ele>115.5</ele>
        <time>2016-10-09T10:46:46Z</time>
      </trkpt>
      <trkpt lat="43.89865" lon="10.39287">
        <ele>115.98</ele>
        <time>2016-10-09T10:46:55Z</time>
      </trkpt>
      <trkpt lat="43.89865" lon="10.39288">
        <ele>115.98</ele>
        <time>2016-10-09T10:46:56Z</time>
      </trkpt>
      <trkpt lat="43.89864" lon="10.39289">
        <ele>115.98</ele>
        <time>2016-10-09T10:46:57Z</time>
      </trkpt>
      <trkpt lat="43.89863" lon="10.39289">
        <ele>115.98</ele>
        <time>2016-10-09T10:46:58Z</time>
      </trkpt>
      <trkpt lat="43.89861" lon="10.39289">
        <ele>116.46</ele>
        <time>2016-10-09T10:46:59Z</time>
      </trkpt>
      <trkpt lat="43.8986" lon="10.3929">
        <ele>116.46</ele>
        <time>2016-10-09T10:47:00Z</time>
      </trkpt>
      <trkpt lat="43.89857" lon="10.39289">
        <ele>116.46</ele>
        <time>2016-10-09T10:47:01Z</time>
      </trkpt>
      <trkpt lat="43.89855" lon="10.39289">
        <ele>116.46</ele>
        <time>2016-10-09T10:47:02Z</time>
      </trkpt>
      <trkpt lat="43.89852" lon="10.39288">
        <ele>116.94</ele>
        <time>2016-10-09T10:47:03Z</time>
      </trkpt>
      <trkpt lat="43.89849" lon="10.39288">
        <ele>116.46</ele>
        <time>2016-10-09T10:47:04Z</time>
      </trkpt>
      <trkpt lat="43.898" lon="10.39291">
        <ele>116.46</ele>
        <time>2016-10-09T10:47:17Z</time>
      </trkpt>
      <trkpt lat="43.89791" lon="10.39291">
        <ele>115.98</ele>
        <time>2016-10-09T10:47:19Z</time>
      </trkpt>
      <trkpt lat="43.89748" lon="10.39286">
        <ele>118.86</ele>
        <time>2016-10-09T10:47:33Z</time>
      </trkpt>
      <trkpt lat="43.89719" lon="10.39286">
        <ele>120.3</ele>
        <time>2016-10-09T10:47:45Z</time>
      </trkpt>
      <trkpt lat="43.89685" lon="10.39287">
        <ele>121.74</ele>
        <time>2016-10-09T10:48:00Z</time>
      </trkpt>
      <trkpt lat="43.89663" lon="10.39302">
        <ele>123.67</ele>
        <time>2016-10-09T10:48:12Z</time>
      </trkpt>
      <trkpt lat="43.8966" lon="10.39336">
        <ele>125.59</ele>
        <time>2016-10-09T10:48:26Z</time>
      </trkpt>
      <trkpt lat="43.8966" lon="10.39346">
        <ele>121.74</ele>
        <time>2016-10-09T10:48:31Z</time>
      </trkpt>
      <trkpt lat="43.8966" lon="10.39348">
        <ele>131.36</ele>
        <time>2016-10-09T10:48:32Z</time>
      </trkpt>
      <trkpt lat="43.89659" lon="10.3935">
        <ele>127.03</ele>
        <time>2016-10-09T10:48:33Z</time>
      </trkpt>
      <trkpt lat="43.89659" lon="10.39351">
        <ele>122.22</ele>
        <time>2016-10-09T10:48:34Z</time>
      </trkpt>
      <trkpt lat="43.89658" lon="10.39353">
        <ele>127.99</ele>
        <time>2016-10-09T10:48:35Z</time>
      </trkpt>
      <trkpt lat="43.89657" lon="10.3936">
        <ele>127.99</ele>
        <time>2016-10-09T10:48:39Z</time>
      </trkpt>
      <trkpt lat="43.89656" lon="10.39362">
        <ele>127.51</ele>
        <time>2016-10-09T10:48:40Z</time>
      </trkpt>
      <trkpt lat="43.89655" lon="10.39364">
        <ele>127.99</ele>
        <time>2016-10-09T10:48:41Z</time>
      </trkpt>
      <trkpt lat="43.89655" lon="10.39366">
        <ele>127.99</ele>
        <time>2016-10-09T10:48:42Z</time>
      </trkpt>
      <trkpt lat="43.89654" lon="10.39368">
        <ele>127.99</ele>
        <time>2016-10-09T10:48:43Z</time>
      </trkpt>
      <trkpt lat="43.89655" lon="10.39371">
        <ele>128.47</ele>
        <time>2016-10-09T10:48:44Z</time>
      </trkpt>
      <trkpt lat="43.89655" lon="10.39373">
        <ele>128.95</ele>
        <time>2016-10-09T10:48:45Z</time>
      </trkpt>
      <trkpt lat="43.89654" lon="10.39375">
        <ele>129.43</ele>
        <time>2016-10-09T10:48:46Z</time>
      </trkpt>
      <trkpt lat="43.89654" lon="10.3938">
        <ele>129.43</ele>
        <time>2016-10-09T10:48:48Z</time>
      </trkpt>
      <trkpt lat="43.89654" lon="10.39382">
        <ele>129.43</ele>
        <time>2016-10-09T10:48:49Z</time>
      </trkpt>
      <trkpt lat="43.89655" lon="10.39386">
        <ele>129.43</ele>
        <time>2016-10-09T10:48:50Z</time>
      </trkpt>
      <trkpt lat="43.89656" lon="10.39388">
        <ele>129.92</ele>
        <time>2016-10-09T10:48:51Z</time>
      </trkpt>
      <trkpt lat="43.89656" lon="10.3939">
        <ele>129.43</ele>
        <time>2016-10-09T10:48:52Z</time>
      </trkpt>
      <trkpt lat="43.8966" lon="10.39422">
        <ele>132.32</ele>
        <time>2016-10-09T10:49:06Z</time>
      </trkpt>
      <trkpt lat="43.8966" lon="10.39424">
        <ele>132.8</ele>
        <time>2016-10-09T10:49:07Z</time>
      </trkpt>
      <trkpt lat="43.8966" lon="10.39426">
        <ele>132.32</ele>
        <time>2016-10-09T10:49:08Z</time>
      </trkpt>
      <trkpt lat="43.89661" lon="10.39428">
        <ele>133.28</ele>
        <time>2016-10-09T10:49:09Z</time>
      </trkpt>
      <trkpt lat="43.89662" lon="10.39431">
        <ele>133.28</ele>
        <time>2016-10-09T10:49:10Z</time>
      </trkpt>
      <trkpt lat="43.89663" lon="10.39434">
        <ele>133.28</ele>
        <time>2016-10-09T10:49:11Z</time>
      </trkpt>
      <trkpt lat="43.89664" lon="10.39437">
        <ele>133.76</ele>
        <time>2016-10-09T10:49:12Z</time>
      </trkpt>
      <trkpt lat="43.89665" lon="10.39439">
        <ele>133.76</ele>
        <time>2016-10-09T10:49:13Z</time>
      </trkpt>
      <trkpt lat="43.89666" lon="10.39441">
        <ele>134.24</ele>
        <time>2016-10-09T10:49:14Z</time>
      </trkpt>
      <trkpt lat="43.89666" lon="10.39444">
        <ele>134.24</ele>
        <time>2016-10-09T10:49:15Z</time>
      </trkpt>
      <trkpt lat="43.89661" lon="10.39475">
        <ele>136.64</ele>
        <time>2016-10-09T10:49:31Z</time>
      </trkpt>
      <trkpt lat="43.89661" lon="10.39479">
        <ele>136.64</ele>
        <time>2016-10-09T10:49:33Z</time>
      </trkpt>
      <trkpt lat="43.89659" lon="10.39498">
        <ele>138.57</ele>
        <time>2016-10-09T10:49:42Z</time>
      </trkpt>
      <trkpt lat="43.89653" lon="10.39514">
        <ele>140.01</ele>
        <time>2016-10-09T10:49:50Z</time>
      </trkpt>
      <trkpt lat="43.89653" lon="10.39516">
        <ele>139.53</ele>
        <time>2016-10-09T10:49:51Z</time>
      </trkpt>
      <trkpt lat="43.89653" lon="10.39518">
        <ele>140.01</ele>
        <time>2016-10-09T10:49:52Z</time>
      </trkpt>
      <trkpt lat="43.89653" lon="10.39519">
        <ele>139.53</ele>
        <time>2016-10-09T10:49:53Z</time>
      </trkpt>
      <trkpt lat="43.89653" lon="10.39521">
        <ele>140.01</ele>
        <time>2016-10-09T10:49:54Z</time>
      </trkpt>
      <trkpt lat="43.89652" lon="10.39523">
        <ele>140.49</ele>
        <time>2016-10-09T10:49:55Z</time>
      </trkpt>
      <trkpt lat="43.89651" lon="10.39525">
        <ele>140.49</ele>
        <time>2016-10-09T10:49:56Z</time>
      </trkpt>
      <trkpt lat="43.89651" lon="10.39528">
        <ele>140.97</ele>
        <time>2016-10-09T10:49:57Z</time>
      </trkpt>
      <trkpt lat="43.89648" lon="10.3953">
        <ele>141.45</ele>
        <time>2016-10-09T10:49:58Z</time>
      </trkpt>
      <trkpt lat="43.89647" lon="10.39532">
        <ele>141.45</ele>
        <time>2016-10-09T10:49:59Z</time>
      </trkpt>
      <trkpt lat="43.89645" lon="10.39533">
        <ele>141.45</ele>
        <time>2016-10-09T10:50:00Z</time>
      </trkpt>
      <trkpt lat="43.89644" lon="10.39535">
        <ele>141.45</ele>
        <time>2016-10-09T10:50:01Z</time>
      </trkpt>
      <trkpt lat="43.89643" lon="10.39535">
        <ele>140.97</ele>
        <time>2016-10-09T10:50:02Z</time>
      </trkpt>
      <trkpt lat="43.89643" lon="10.39536">
        <ele>141.45</ele>
        <time>2016-10-09T10:50:03Z</time>
      </trkpt>
      <trkpt lat="43.89642" lon="10.39536">
        <ele>141.45</ele>
        <time>2016-10-09T10:50:04Z</time>
      </trkpt>
      <trkpt lat="43.89641" lon="10.39535">
        <ele>141.93</ele>
        <time>2016-10-09T10:50:05Z</time>
      </trkpt>
      <trkpt lat="43.8964" lon="10.39533">
        <ele>141.93</ele>
        <time>2016-10-09T10:50:06Z</time>
      </trkpt>
      <trkpt lat="43.8964" lon="10.39532">
        <ele>142.41</ele>
        <time>2016-10-09T10:50:07Z</time>
      </trkpt>
      <trkpt lat="43.8964" lon="10.39531">
        <ele>142.41</ele>
        <time>2016-10-09T10:50:08Z</time>
      </trkpt>
      <trkpt lat="43.89643" lon="10.39509">
        <ele>144.82</ele>
        <time>2016-10-09T10:50:23Z</time>
      </trkpt>
      <trkpt lat="43.89641" lon="10.39497">
        <ele>145.3</ele>
        <time>2016-10-09T10:50:30Z</time>
      </trkpt>
      <trkpt lat="43.8964" lon="10.39495">
        <ele>145.3</ele>
        <time>2016-10-09T10:50:31Z</time>
      </trkpt>
      <trkpt lat="43.8964" lon="10.39493">
        <ele>145.78</ele>
        <time>2016-10-09T10:50:32Z</time>
      </trkpt>
      <trkpt lat="43.8964" lon="10.39491">
        <ele>146.26</ele>
        <time>2016-10-09T10:50:33Z</time>
      </trkpt>
      <trkpt lat="43.8964" lon="10.39488">
        <ele>146.26</ele>
        <time>2016-10-09T10:50:34Z</time>
      </trkpt>
      <trkpt lat="43.89646" lon="10.39462">
        <ele>148.18</ele>
        <time>2016-10-09T10:50:47Z</time>
      </trkpt>
      <trkpt lat="43.8965" lon="10.39434">
        <ele>150.58</ele>
        <time>2016-10-09T10:51:02Z</time>
      </trkpt>
      <trkpt lat="43.89649" lon="10.39432">
        <ele>151.06</ele>
        <time>2016-10-09T10:51:03Z</time>
      </trkpt>
      <trkpt lat="43.89649" lon="10.3943">
        <ele>151.54</ele>
        <time>2016-10-09T10:51:04Z</time>
      </trkpt>
      <trkpt lat="43.89648" lon="10.39428">
        <ele>151.06</ele>
        <time>2016-10-09T10:51:05Z</time>
      </trkpt>
      <trkpt lat="43.89648" lon="10.39426">
        <ele>151.06</ele>
        <time>2016-10-09T10:51:06Z</time>
      </trkpt>
      <trkpt lat="43.89648" lon="10.39425">
        <ele>151.06</ele>
        <time>2016-10-09T10:51:07Z</time>
      </trkpt>
      <trkpt lat="43.89647" lon="10.39423">
        <ele>151.54</ele>
        <time>2016-10-09T10:51:08Z</time>
      </trkpt>
      <trkpt lat="43.89641" lon="10.39408">
        <ele>153.95</ele>
        <time>2016-10-09T10:51:18Z</time>
      </trkpt>
      <trkpt lat="43.89639" lon="10.39406">
        <ele>153.47</ele>
        <time>2016-10-09T10:51:19Z</time>
      </trkpt>
      <trkpt lat="43.89639" lon="10.39405">
        <ele>154.43</ele>
        <time>2016-10-09T10:51:20Z</time>
      </trkpt>
      <trkpt lat="43.89639" lon="10.39402">
        <ele>154.43</ele>
        <time>2016-10-09T10:51:21Z</time>
      </trkpt>
      <trkpt lat="43.89638" lon="10.394">
        <ele>154.43</ele>
        <time>2016-10-09T10:51:22Z</time>
      </trkpt>
      <trkpt lat="43.89636" lon="10.39398">
        <ele>154.91</ele>
        <time>2016-10-09T10:51:23Z</time>
      </trkpt>
      <trkpt lat="43.89634" lon="10.39397">
        <ele>154.91</ele>
        <time>2016-10-09T10:51:24Z</time>
      </trkpt>
      <trkpt lat="43.89628" lon="10.39393">
        <ele>155.87</ele>
        <time>2016-10-09T10:51:29Z</time>
      </trkpt>
      <trkpt lat="43.89627" lon="10.39393">
        <ele>155.39</ele>
        <time>2016-10-09T10:51:30Z</time>
      </trkpt>
      <trkpt lat="43.89625" lon="10.39392">
        <ele>155.87</ele>
        <time>2016-10-09T10:51:31Z</time>
      </trkpt>
      <trkpt lat="43.89616" lon="10.39386">
        <ele>155.87</ele>
        <time>2016-10-09T10:51:40Z</time>
      </trkpt>
      <trkpt lat="43.89614" lon="10.39384">
        <ele>156.83</ele>
        <time>2016-10-09T10:51:41Z</time>
      </trkpt>
      <trkpt lat="43.89613" lon="10.39383">
        <ele>156.83</ele>
        <time>2016-10-09T10:51:42Z</time>
      </trkpt>
      <trkpt lat="43.89594" lon="10.39366">
        <ele>158.75</ele>
        <time>2016-10-09T10:51:55Z</time>
      </trkpt>
      <trkpt lat="43.8959" lon="10.39363">
        <ele>159.72</ele>
        <time>2016-10-09T10:51:58Z</time>
      </trkpt>
      <trkpt lat="43.89589" lon="10.39359">
        <ele>160.68</ele>
        <time>2016-10-09T10:52:02Z</time>
      </trkpt>
      <trkpt lat="43.89588" lon="10.39357">
        <ele>160.2</ele>
        <time>2016-10-09T10:52:03Z</time>
      </trkpt>
      <trkpt lat="43.89586" lon="10.39355">
        <ele>160.68</ele>
        <time>2016-10-09T10:52:04Z</time>
      </trkpt>
      <trkpt lat="43.89584" lon="10.39354">
        <ele>160.2</ele>
        <time>2016-10-09T10:52:05Z</time>
      </trkpt>
      <trkpt lat="43.89582" lon="10.39353">
        <ele>161.16</ele>
        <time>2016-10-09T10:52:06Z</time>
      </trkpt>
      <trkpt lat="43.8958" lon="10.39351">
        <ele>161.16</ele>
        <time>2016-10-09T10:52:07Z</time>
      </trkpt>
      <trkpt lat="43.8956" lon="10.39344">
        <ele>163.08</ele>
        <time>2016-10-09T10:52:21Z</time>
      </trkpt>
      <trkpt lat="43.8955" lon="10.39341">
        <ele>164.04</ele>
        <time>2016-10-09T10:52:28Z</time>
      </trkpt>
      <trkpt lat="43.89534" lon="10.39325">
        <ele>165.96</ele>
        <time>2016-10-09T10:52:40Z</time>
      </trkpt>
      <trkpt lat="43.89531" lon="10.39322">
        <ele>166.45</ele>
        <time>2016-10-09T10:52:43Z</time>
      </trkpt>
      <trkpt lat="43.89529" lon="10.39321">
        <ele>165.96</ele>
        <time>2016-10-09T10:52:44Z</time>
      </trkpt>
      <trkpt lat="43.89515" lon="10.39318">
        <ele>167.89</ele>
        <time>2016-10-09T10:52:56Z</time>
      </trkpt>
      <trkpt lat="43.89496" lon="10.39313">
        <ele>170.29</ele>
        <time>2016-10-09T10:53:09Z</time>
      </trkpt>
      <trkpt lat="43.89488" lon="10.39315">
        <ele>170.77</ele>
        <time>2016-10-09T10:53:14Z</time>
      </trkpt>
      <trkpt lat="43.89486" lon="10.39317">
        <ele>171.25</ele>
        <time>2016-10-09T10:53:15Z</time>
      </trkpt>
      <trkpt lat="43.89485" lon="10.39318">
        <ele>171.25</ele>
        <time>2016-10-09T10:53:16Z</time>
      </trkpt>
      <trkpt lat="43.89483" lon="10.39319">
        <ele>171.25</ele>
        <time>2016-10-09T10:53:17Z</time>
      </trkpt>
      <trkpt lat="43.89461" lon="10.39324">
        <ele>172.69</ele>
        <time>2016-10-09T10:53:29Z</time>
      </trkpt>
      <trkpt lat="43.89436" lon="10.39323">
        <ele>174.62</ele>
        <time>2016-10-09T10:53:43Z</time>
      </trkpt>
      <trkpt lat="43.8941" lon="10.39324">
        <ele>177.02</ele>
        <time>2016-10-09T10:53:56Z</time>
      </trkpt>
      <trkpt lat="43.89381" lon="10.3935">
        <ele>177.5</ele>
        <time>2016-10-09T10:54:08Z</time>
      </trkpt>
      <trkpt lat="43.89379" lon="10.39352">
        <ele>177.5</ele>
        <time>2016-10-09T10:54:09Z</time>
      </trkpt>
      <trkpt lat="43.89357" lon="10.39358">
        <ele>178.94</ele>
        <time>2016-10-09T10:54:20Z</time>
      </trkpt>
      <trkpt lat="43.89331" lon="10.39378">
        <ele>181.83</ele>
        <time>2016-10-09T10:54:35Z</time>
      </trkpt>
      <trkpt lat="43.8931" lon="10.39393">
        <ele>183.75</ele>
        <time>2016-10-09T10:54:49Z</time>
      </trkpt>
      <trkpt lat="43.89305" lon="10.39398">
        <ele>185.19</ele>
        <time>2016-10-09T10:54:54Z</time>
      </trkpt>
      <trkpt lat="43.89304" lon="10.394">
        <ele>185.19</ele>
        <time>2016-10-09T10:54:56Z</time>
      </trkpt>
      <trkpt lat="43.89295" lon="10.39402">
        <ele>187.11</ele>
        <time>2016-10-09T10:55:07Z</time>
      </trkpt>
      <trkpt lat="43.89293" lon="10.39401">
        <ele>187.59</ele>
        <time>2016-10-09T10:55:09Z</time>
      </trkpt>
      <trkpt lat="43.8929" lon="10.39397">
        <ele>188.08</ele>
        <time>2016-10-09T10:55:12Z</time>
      </trkpt>
      <trkpt lat="43.89285" lon="10.39385">
        <ele>188.56</ele>
        <time>2016-10-09T10:55:20Z</time>
      </trkpt>
      <trkpt lat="43.89286" lon="10.39383">
        <ele>189.04</ele>
        <time>2016-10-09T10:55:21Z</time>
      </trkpt>
      <trkpt lat="43.89286" lon="10.39381">
        <ele>189.04</ele>
        <time>2016-10-09T10:55:22Z</time>
      </trkpt>
      <trkpt lat="43.89286" lon="10.39379">
        <ele>189.52</ele>
        <time>2016-10-09T10:55:23Z</time>
      </trkpt>
      <trkpt lat="43.89286" lon="10.39377">
        <ele>189.52</ele>
        <time>2016-10-09T10:55:24Z</time>
      </trkpt>
      <trkpt lat="43.89286" lon="10.39376">
        <ele>190</ele>
        <time>2016-10-09T10:55:25Z</time>
      </trkpt>
      <trkpt lat="43.89286" lon="10.39368">
        <ele>190.48</ele>
        <time>2016-10-09T10:55:29Z</time>
      </trkpt>
      <trkpt lat="43.89283" lon="10.39363">
        <ele>190.96</ele>
        <time>2016-10-09T10:55:33Z</time>
      </trkpt>
      <trkpt lat="43.89281" lon="10.3936">
        <ele>191.44</ele>
        <time>2016-10-09T10:55:35Z</time>
      </trkpt>
      <trkpt lat="43.89262" lon="10.39355">
        <ele>193.36</ele>
        <time>2016-10-09T10:55:48Z</time>
      </trkpt>
      <trkpt lat="43.89248" lon="10.39361">
        <ele>194.8</ele>
        <time>2016-10-09T10:55:58Z</time>
      </trkpt>
      <trkpt lat="43.89246" lon="10.39361">
        <ele>195.28</ele>
        <time>2016-10-09T10:55:59Z</time>
      </trkpt>
      <trkpt lat="43.89244" lon="10.39362">
        <ele>194.8</ele>
        <time>2016-10-09T10:56:00Z</time>
      </trkpt>
      <trkpt lat="43.89233" lon="10.39361">
        <ele>193.36</ele>
        <time>2016-10-09T10:56:08Z</time>
      </trkpt>
      <trkpt lat="43.89232" lon="10.39361">
        <ele>201.05</ele>
        <time>2016-10-09T10:56:09Z</time>
      </trkpt>
      <trkpt lat="43.8923" lon="10.3936">
        <ele>195.77</ele>
        <time>2016-10-09T10:56:10Z</time>
      </trkpt>
      <trkpt lat="43.89229" lon="10.39359">
        <ele>194.8</ele>
        <time>2016-10-09T10:56:12Z</time>
      </trkpt>
      <trkpt lat="43.89227" lon="10.39355">
        <ele>194.8</ele>
        <time>2016-10-09T10:56:16Z</time>
      </trkpt>
      <trkpt lat="43.89225" lon="10.39348">
        <ele>194.32</ele>
        <time>2016-10-09T10:56:19Z</time>
      </trkpt>
      <trkpt lat="43.89223" lon="10.39346">
        <ele>193.84</ele>
        <time>2016-10-09T10:56:20Z</time>
      </trkpt>
      <trkpt lat="43.89222" lon="10.39342">
        <ele>193.36</ele>
        <time>2016-10-09T10:56:21Z</time>
      </trkpt>
      <trkpt lat="43.8922" lon="10.39338">
        <ele>193.84</ele>
        <time>2016-10-09T10:56:22Z</time>
      </trkpt>
      <trkpt lat="43.89218" lon="10.39334">
        <ele>193.36</ele>
        <time>2016-10-09T10:56:23Z</time>
      </trkpt>
      <trkpt lat="43.89189" lon="10.39315">
        <ele>191.44</ele>
        <time>2016-10-09T10:56:33Z</time>
      </trkpt>
      <trkpt lat="43.8917" lon="10.39315">
        <ele>190.96</ele>
        <time>2016-10-09T10:56:37Z</time>
      </trkpt>
      <trkpt lat="43.89167" lon="10.39312">
        <ele>190.96</ele>
        <time>2016-10-09T10:56:38Z</time>
      </trkpt>
      <trkpt lat="43.89163" lon="10.39309">
        <ele>190.48</ele>
        <time>2016-10-09T10:56:39Z</time>
      </trkpt>
      <trkpt lat="43.89137" lon="10.39276">
        <ele>189.52</ele>
        <time>2016-10-09T10:56:47Z</time>
      </trkpt>
      <trkpt lat="43.89137" lon="10.39271">
        <ele>188.56</ele>
        <time>2016-10-09T10:56:48Z</time>
      </trkpt>
      <trkpt lat="43.89137" lon="10.39266">
        <ele>188.56</ele>
        <time>2016-10-09T10:56:49Z</time>
      </trkpt>
      <trkpt lat="43.89139" lon="10.39261">
        <ele>188.56</ele>
        <time>2016-10-09T10:56:50Z</time>
      </trkpt>
      <trkpt lat="43.8914" lon="10.39255">
        <ele>188.08</ele>
        <time>2016-10-09T10:56:51Z</time>
      </trkpt>
      <trkpt lat="43.89141" lon="10.39249">
        <ele>188.56</ele>
        <time>2016-10-09T10:56:52Z</time>
      </trkpt>
      <trkpt lat="43.89139" lon="10.39246">
        <ele>187.59</ele>
        <time>2016-10-09T10:56:54Z</time>
      </trkpt>
      <trkpt lat="43.89137" lon="10.39247">
        <ele>187.59</ele>
        <time>2016-10-09T10:56:55Z</time>
      </trkpt>
      <trkpt lat="43.89123" lon="10.39258">
        <ele>185.67</ele>
        <time>2016-10-09T10:56:58Z</time>
      </trkpt>
      <trkpt lat="43.89122" lon="10.39264">
        <ele>186.15</ele>
        <time>2016-10-09T10:56:59Z</time>
      </trkpt>
      <trkpt lat="43.89122" lon="10.3927">
        <ele>185.19</ele>
        <time>2016-10-09T10:57:00Z</time>
      </trkpt>
      <trkpt lat="43.89123" lon="10.39276">
        <ele>184.71</ele>
        <time>2016-10-09T10:57:01Z</time>
      </trkpt>
      <trkpt lat="43.89125" lon="10.39282">
        <ele>184.23</ele>
        <time>2016-10-09T10:57:02Z</time>
      </trkpt>
      <trkpt lat="43.89128" lon="10.39288">
        <ele>183.75</ele>
        <time>2016-10-09T10:57:03Z</time>
      </trkpt>
      <trkpt lat="43.89136" lon="10.39305">
        <ele>183.27</ele>
        <time>2016-10-09T10:57:06Z</time>
      </trkpt>
      <trkpt lat="43.89135" lon="10.39309">
        <ele>182.79</ele>
        <time>2016-10-09T10:57:07Z</time>
      </trkpt>
      <trkpt lat="43.8913" lon="10.39312">
        <ele>182.31</ele>
        <time>2016-10-09T10:57:08Z</time>
      </trkpt>
      <trkpt lat="43.89126" lon="10.39311">
        <ele>181.83</ele>
        <time>2016-10-09T10:57:09Z</time>
      </trkpt>
      <trkpt lat="43.89121" lon="10.39307">
        <ele>181.35</ele>
        <time>2016-10-09T10:57:10Z</time>
      </trkpt>
      <trkpt lat="43.89117" lon="10.39301">
        <ele>180.87</ele>
        <time>2016-10-09T10:57:11Z</time>
      </trkpt>
      <trkpt lat="43.89112" lon="10.39295">
        <ele>179.9</ele>
        <time>2016-10-09T10:57:12Z</time>
      </trkpt>
      <trkpt lat="43.89106" lon="10.3929">
        <ele>179.42</ele>
        <time>2016-10-09T10:57:13Z</time>
      </trkpt>
      <trkpt lat="43.89099" lon="10.39287">
        <ele>178.94</ele>
        <time>2016-10-09T10:57:14Z</time>
      </trkpt>
      <trkpt lat="43.89093" lon="10.39286">
        <ele>178.46</ele>
        <time>2016-10-09T10:57:15Z</time>
      </trkpt>
      <trkpt lat="43.89086" lon="10.39287">
        <ele>177.98</ele>
        <time>2016-10-09T10:57:16Z</time>
      </trkpt>
      <trkpt lat="43.89079" lon="10.3929">
        <ele>177.02</ele>
        <time>2016-10-09T10:57:17Z</time>
      </trkpt>
      <trkpt lat="43.89072" lon="10.39293">
        <ele>176.54</ele>
        <time>2016-10-09T10:57:18Z</time>
      </trkpt>
      <trkpt lat="43.89045" lon="10.39301">
        <ele>173.17</ele>
        <time>2016-10-09T10:57:22Z</time>
      </trkpt>
      <trkpt lat="43.8904" lon="10.39301">
        <ele>172.69</ele>
        <time>2016-10-09T10:57:23Z</time>
      </trkpt>
      <trkpt lat="43.89035" lon="10.393">
        <ele>171.73</ele>
        <time>2016-10-09T10:57:24Z</time>
      </trkpt>
      <trkpt lat="43.89033" lon="10.39298">
        <ele>171.25</ele>
        <time>2016-10-09T10:57:25Z</time>
      </trkpt>
      <trkpt lat="43.89033" lon="10.39293">
        <ele>171.25</ele>
        <time>2016-10-09T10:57:26Z</time>
      </trkpt>
      <trkpt lat="43.89035" lon="10.39288">
        <ele>170.77</ele>
        <time>2016-10-09T10:57:27Z</time>
      </trkpt>
      <trkpt lat="43.89039" lon="10.39282">
        <ele>170.77</ele>
        <time>2016-10-09T10:57:28Z</time>
      </trkpt>
      <trkpt lat="43.89042" lon="10.39276">
        <ele>170.29</ele>
        <time>2016-10-09T10:57:29Z</time>
      </trkpt>
      <trkpt lat="43.89047" lon="10.39271">
        <ele>170.29</ele>
        <time>2016-10-09T10:57:30Z</time>
      </trkpt>
      <trkpt lat="43.8906" lon="10.39255">
        <ele>168.85</ele>
        <time>2016-10-09T10:57:33Z</time>
      </trkpt>
      <trkpt lat="43.89063" lon="10.39248">
        <ele>168.37</ele>
        <time>2016-10-09T10:57:34Z</time>
      </trkpt>
      <trkpt lat="43.89063" lon="10.39242">
        <ele>167.41</ele>
        <time>2016-10-09T10:57:35Z</time>
      </trkpt>
      <trkpt lat="43.89062" lon="10.39237">
        <ele>168.37</ele>
        <time>2016-10-09T10:57:36Z</time>
      </trkpt>
      <trkpt lat="43.89057" lon="10.39228">
        <ele>167.41</ele>
        <time>2016-10-09T10:57:48Z</time>
      </trkpt>
      <trkpt lat="43.89057" lon="10.39231">
        <ele>167.41</ele>
        <time>2016-10-09T10:58:17Z</time>
      </trkpt>
      <trkpt lat="43.89058" lon="10.39229">
        <ele>167.89</ele>
        <time>2016-10-09T10:58:37Z</time>
      </trkpt>
      <trkpt lat="43.89057" lon="10.39229">
        <ele>168.37</ele>
        <time>2016-10-09T10:58:54Z</time>
      </trkpt>
      <trkpt lat="43.89057" lon="10.39237">
        <ele>168.37</ele>
        <time>2016-10-09T10:59:28Z</time>
      </trkpt>
      <trkpt lat="43.89055" lon="10.39241">
        <ele>167.89</ele>
        <time>2016-10-09T11:00:07Z</time>
      </trkpt>
      <trkpt lat="43.89052" lon="10.39243">
        <ele>169.33</ele>
        <time>2016-10-09T11:00:49Z</time>
      </trkpt>
      <trkpt lat="43.89052" lon="10.39237">
        <ele>168.85</ele>
        <time>2016-10-09T11:01:33Z</time>
      </trkpt>
      <trkpt lat="43.8905" lon="10.39235">
        <ele>168.37</ele>
        <time>2016-10-09T11:02:07Z</time>
      </trkpt>
      <trkpt lat="43.89055" lon="10.39234">
        <ele>168.85</ele>
        <time>2016-10-09T11:02:53Z</time>
      </trkpt>
      <trkpt lat="43.89054" lon="10.39239">
        <ele>169.33</ele>
        <time>2016-10-09T11:03:29Z</time>
      </trkpt>
      <trkpt lat="43.89056" lon="10.39238">
        <ele>169.33</ele>
        <time>2016-10-09T11:04:21Z</time>
      </trkpt>
      <trkpt lat="43.89054" lon="10.39236">
        <ele>168.37</ele>
        <time>2016-10-09T11:04:49Z</time>
      </trkpt>
      <trkpt lat="43.89052" lon="10.39231">
        <ele>168.37</ele>
        <time>2016-10-09T11:05:24Z</time>
      </trkpt>
      <trkpt lat="43.89053" lon="10.39233">
        <ele>168.37</ele>
        <time>2016-10-09T11:05:30Z</time>
      </trkpt>
      <trkpt lat="43.89054" lon="10.39234">
        <ele>167.89</ele>
        <time>2016-10-09T11:05:31Z</time>
      </trkpt>
      <trkpt lat="43.89063" lon="10.39243">
        <ele>169.33</ele>
        <time>2016-10-09T11:05:45Z</time>
      </trkpt>
      <trkpt lat="43.89064" lon="10.39244">
        <ele>169.81</ele>
        <time>2016-10-09T11:05:58Z</time>
      </trkpt>
      <trkpt lat="43.8906" lon="10.39241">
        <ele>169.33</ele>
        <time>2016-10-09T11:06:18Z</time>
      </trkpt>
      <trkpt lat="43.89061" lon="10.39234">
        <ele>169.81</ele>
        <time>2016-10-09T11:06:42Z</time>
      </trkpt>
      <trkpt lat="43.89067" lon="10.39232">
        <ele>169.33</ele>
        <time>2016-10-09T11:07:29Z</time>
      </trkpt>
      <trkpt lat="43.89064" lon="10.39234">
        <ele>168.85</ele>
        <time>2016-10-09T11:08:14Z</time>
      </trkpt>
      <trkpt lat="43.8906" lon="10.39234">
        <ele>168.85</ele>
        <time>2016-10-09T11:08:57Z</time>
      </trkpt>
      <trkpt lat="43.89057" lon="10.39233">
        <ele>169.81</ele>
        <time>2016-10-09T11:09:32Z</time>
      </trkpt>
      <trkpt lat="43.89057" lon="10.39228">
        <ele>170.29</ele>
        <time>2016-10-09T11:10:14Z</time>
      </trkpt>
      <trkpt lat="43.8906" lon="10.39231">
        <ele>169.81</ele>
        <time>2016-10-09T11:10:56Z</time>
      </trkpt>
      <trkpt lat="43.89062" lon="10.39237">
        <ele>169.81</ele>
        <time>2016-10-09T11:11:38Z</time>
      </trkpt>
      <trkpt lat="43.89054" lon="10.39231">
        <ele>170.77</ele>
        <time>2016-10-09T11:12:25Z</time>
      </trkpt>
      <trkpt lat="43.89058" lon="10.39237">
        <ele>170.29</ele>
        <time>2016-10-09T11:13:03Z</time>
      </trkpt>
      <trkpt lat="43.89063" lon="10.3924">
        <ele>171.25</ele>
        <time>2016-10-09T11:13:42Z</time>
      </trkpt>
      <trkpt lat="43.89069" lon="10.39242">
        <ele>171.25</ele>
        <time>2016-10-09T11:14:27Z</time>
      </trkpt>
      <trkpt lat="43.89066" lon="10.39242">
        <ele>170.77</ele>
        <time>2016-10-09T11:14:56Z</time>
      </trkpt>
      <trkpt lat="43.89066" lon="10.39241">
        <ele>171.73</ele>
        <time>2016-10-09T11:15:32Z</time>
      </trkpt>
      <trkpt lat="43.89067" lon="10.39239">
        <ele>171.25</ele>
        <time>2016-10-09T11:16:07Z</time>
      </trkpt>
      <trkpt lat="43.89064" lon="10.39236">
        <ele>171.73</ele>
        <time>2016-10-09T11:16:29Z</time>
      </trkpt>
      <trkpt lat="43.89059" lon="10.39232">
        <ele>170.29</ele>
        <time>2016-10-09T11:16:51Z</time>
      </trkpt>
      <trkpt lat="43.89057" lon="10.39232">
        <ele>170.77</ele>
        <time>2016-10-09T11:16:52Z</time>
      </trkpt>
      <trkpt lat="43.89055" lon="10.39233">
        <ele>170.29</ele>
        <time>2016-10-09T11:16:53Z</time>
      </trkpt>
      <trkpt lat="43.89053" lon="10.39233">
        <ele>169.81</ele>
        <time>2016-10-09T11:16:54Z</time>
      </trkpt>
      <trkpt lat="43.89051" lon="10.39234">
        <ele>169.81</ele>
        <time>2016-10-09T11:16:55Z</time>
      </trkpt>
      <trkpt lat="43.89031" lon="10.39255">
        <ele>167.41</ele>
        <time>2016-10-09T11:17:06Z</time>
      </trkpt>
      <trkpt lat="43.89004" lon="10.39292">
        <ele>164.04</ele>
        <time>2016-10-09T11:17:15Z</time>
      </trkpt>
      <trkpt lat="43.89001" lon="10.39296">
        <ele>164.04</ele>
        <time>2016-10-09T11:17:16Z</time>
      </trkpt>
      <trkpt lat="43.88989" lon="10.39335">
        <ele>161.16</ele>
        <time>2016-10-09T11:17:26Z</time>
      </trkpt>
      <trkpt lat="43.8899" lon="10.39338">
        <ele>160.68</ele>
        <time>2016-10-09T11:17:27Z</time>
      </trkpt>
      <trkpt lat="43.88992" lon="10.3934">
        <ele>160.2</ele>
        <time>2016-10-09T11:17:28Z</time>
      </trkpt>
      <trkpt lat="43.88995" lon="10.39342">
        <ele>159.24</ele>
        <time>2016-10-09T11:17:29Z</time>
      </trkpt>
      <trkpt lat="43.88998" lon="10.39343">
        <ele>159.24</ele>
        <time>2016-10-09T11:17:30Z</time>
      </trkpt>
      <trkpt lat="43.89002" lon="10.39343">
        <ele>158.75</ele>
        <time>2016-10-09T11:17:31Z</time>
      </trkpt>
      <trkpt lat="43.89006" lon="10.39343">
        <ele>158.27</ele>
        <time>2016-10-09T11:17:32Z</time>
      </trkpt>
      <trkpt lat="43.8901" lon="10.39343">
        <ele>158.75</ele>
        <time>2016-10-09T11:17:33Z</time>
      </trkpt>
      <trkpt lat="43.89012" lon="10.39343">
        <ele>158.27</ele>
        <time>2016-10-09T11:17:34Z</time>
      </trkpt>
      <trkpt lat="43.89014" lon="10.39344">
        <ele>158.27</ele>
        <time>2016-10-09T11:17:35Z</time>
      </trkpt>
      <trkpt lat="43.89015" lon="10.39347">
        <ele>158.27</ele>
        <time>2016-10-09T11:17:36Z</time>
      </trkpt>
      <trkpt lat="43.89015" lon="10.3935">
        <ele>157.79</ele>
        <time>2016-10-09T11:17:37Z</time>
      </trkpt>
      <trkpt lat="43.89014" lon="10.39352">
        <ele>157.31</ele>
        <time>2016-10-09T11:17:38Z</time>
      </trkpt>
      <trkpt lat="43.89013" lon="10.39354">
        <ele>157.31</ele>
        <time>2016-10-09T11:17:39Z</time>
      </trkpt>
      <trkpt lat="43.89011" lon="10.39354">
        <ele>156.83</ele>
        <time>2016-10-09T11:17:40Z</time>
      </trkpt>
      <trkpt lat="43.89008" lon="10.39353">
        <ele>155.87</ele>
        <time>2016-10-09T11:17:41Z</time>
      </trkpt>
      <trkpt lat="43.89004" lon="10.39353">
        <ele>156.35</ele>
        <time>2016-10-09T11:17:42Z</time>
      </trkpt>
      <trkpt lat="43.88999" lon="10.39353">
        <ele>155.87</ele>
        <time>2016-10-09T11:17:43Z</time>
      </trkpt>
      <trkpt lat="43.88965" lon="10.39358">
        <ele>152.51</ele>
        <time>2016-10-09T11:17:51Z</time>
      </trkpt>
      <trkpt lat="43.88959" lon="10.39357">
        <ele>152.03</ele>
        <time>2016-10-09T11:17:53Z</time>
      </trkpt>
      <trkpt lat="43.88957" lon="10.39355">
        <ele>151.54</ele>
        <time>2016-10-09T11:17:54Z</time>
      </trkpt>
      <trkpt lat="43.88956" lon="10.39352">
        <ele>151.54</ele>
        <time>2016-10-09T11:17:55Z</time>
      </trkpt>
      <trkpt lat="43.88956" lon="10.39348">
        <ele>151.06</ele>
        <time>2016-10-09T11:17:56Z</time>
      </trkpt>
      <trkpt lat="43.88956" lon="10.39343">
        <ele>151.06</ele>
        <time>2016-10-09T11:17:57Z</time>
      </trkpt>
      <trkpt lat="43.88957" lon="10.39338">
        <ele>151.06</ele>
        <time>2016-10-09T11:17:58Z</time>
      </trkpt>
      <trkpt lat="43.88959" lon="10.39333">
        <ele>150.58</ele>
        <time>2016-10-09T11:17:59Z</time>
      </trkpt>
      <trkpt lat="43.88961" lon="10.39328">
        <ele>149.62</ele>
        <time>2016-10-09T11:18:00Z</time>
      </trkpt>
      <trkpt lat="43.88964" lon="10.39324">
        <ele>149.62</ele>
        <time>2016-10-09T11:18:01Z</time>
      </trkpt>
      <trkpt lat="43.88971" lon="10.3931">
        <ele>149.62</ele>
        <time>2016-10-09T11:18:05Z</time>
      </trkpt>
      <trkpt lat="43.8897" lon="10.39308">
        <ele>149.62</ele>
        <time>2016-10-09T11:18:06Z</time>
      </trkpt>
      <trkpt lat="43.88965" lon="10.39306">
        <ele>148.66</ele>
        <time>2016-10-09T11:18:08Z</time>
      </trkpt>
      <trkpt lat="43.88962" lon="10.39307">
        <ele>148.18</ele>
        <time>2016-10-09T11:18:09Z</time>
      </trkpt>
      <trkpt lat="43.88958" lon="10.3931">
        <ele>148.18</ele>
        <time>2016-10-09T11:18:10Z</time>
      </trkpt>
      <trkpt lat="43.88955" lon="10.39313">
        <ele>147.7</ele>
        <time>2016-10-09T11:18:11Z</time>
      </trkpt>
      <trkpt lat="43.88938" lon="10.3933">
        <ele>145.78</ele>
        <time>2016-10-09T11:18:16Z</time>
      </trkpt>
      <trkpt lat="43.88936" lon="10.39335">
        <ele>145.78</ele>
        <time>2016-10-09T11:18:17Z</time>
      </trkpt>
      <trkpt lat="43.88935" lon="10.3934">
        <ele>145.78</ele>
        <time>2016-10-09T11:18:18Z</time>
      </trkpt>
      <trkpt lat="43.88936" lon="10.39346">
        <ele>145.3</ele>
        <time>2016-10-09T11:18:19Z</time>
      </trkpt>
      <trkpt lat="43.88937" lon="10.39352">
        <ele>144.82</ele>
        <time>2016-10-09T11:18:20Z</time>
      </trkpt>
      <trkpt lat="43.88938" lon="10.39358">
        <ele>144.34</ele>
        <time>2016-10-09T11:18:21Z</time>
      </trkpt>
      <trkpt lat="43.88939" lon="10.39363">
        <ele>143.37</ele>
        <time>2016-10-09T11:18:22Z</time>
      </trkpt>
      <trkpt lat="43.88939" lon="10.39369">
        <ele>143.37</ele>
        <time>2016-10-09T11:18:23Z</time>
      </trkpt>
      <trkpt lat="43.88938" lon="10.39375">
        <ele>142.89</ele>
        <time>2016-10-09T11:18:24Z</time>
      </trkpt>
      <trkpt lat="43.88936" lon="10.39381">
        <ele>142.41</ele>
        <time>2016-10-09T11:18:25Z</time>
      </trkpt>
      <trkpt lat="43.88933" lon="10.39386">
        <ele>141.93</ele>
        <time>2016-10-09T11:18:26Z</time>
      </trkpt>
      <trkpt lat="43.88929" lon="10.39391">
        <ele>141.45</ele>
        <time>2016-10-09T11:18:27Z</time>
      </trkpt>
      <trkpt lat="43.88925" lon="10.39395">
        <ele>141.45</ele>
        <time>2016-10-09T11:18:28Z</time>
      </trkpt>
      <trkpt lat="43.88912" lon="10.39405">
        <ele>140.49</ele>
        <time>2016-10-09T11:18:31Z</time>
      </trkpt>
      <trkpt lat="43.88886" lon="10.39417">
        <ele>137.13</ele>
        <time>2016-10-09T11:18:36Z</time>
      </trkpt>
      <trkpt lat="43.88881" lon="10.39419">
        <ele>137.13</ele>
        <time>2016-10-09T11:18:37Z</time>
      </trkpt>
      <trkpt lat="43.88857" lon="10.39422">
        <ele>133.76</ele>
        <time>2016-10-09T11:18:43Z</time>
      </trkpt>
      <trkpt lat="43.88844" lon="10.39417">
        <ele>131.36</ele>
        <time>2016-10-09T11:18:46Z</time>
      </trkpt>
      <trkpt lat="43.88821" lon="10.39405">
        <ele>127.51</ele>
        <time>2016-10-09T11:18:51Z</time>
      </trkpt>
      <trkpt lat="43.88799" lon="10.39392">
        <ele>124.15</ele>
        <time>2016-10-09T11:18:56Z</time>
      </trkpt>
      <trkpt lat="43.8879" lon="10.39387">
        <ele>123.67</ele>
        <time>2016-10-09T11:18:58Z</time>
      </trkpt>
      <trkpt lat="43.88786" lon="10.39385">
        <ele>123.19</ele>
        <time>2016-10-09T11:18:59Z</time>
      </trkpt>
      <trkpt lat="43.88782" lon="10.39385">
        <ele>122.22</ele>
        <time>2016-10-09T11:19:00Z</time>
      </trkpt>
      <trkpt lat="43.88778" lon="10.39386">
        <ele>121.74</ele>
        <time>2016-10-09T11:19:01Z</time>
      </trkpt>
      <trkpt lat="43.88774" lon="10.39388">
        <ele>121.74</ele>
        <time>2016-10-09T11:19:02Z</time>
      </trkpt>
      <trkpt lat="43.8877" lon="10.39391">
        <ele>121.74</ele>
        <time>2016-10-09T11:19:03Z</time>
      </trkpt>
      <trkpt lat="43.88768" lon="10.39397">
        <ele>121.26</ele>
        <time>2016-10-09T11:19:04Z</time>
      </trkpt>
      <trkpt lat="43.88767" lon="10.39403">
        <ele>121.26</ele>
        <time>2016-10-09T11:19:05Z</time>
      </trkpt>
      <trkpt lat="43.88767" lon="10.39409">
        <ele>120.78</ele>
        <time>2016-10-09T11:19:06Z</time>
      </trkpt>
      <trkpt lat="43.88767" lon="10.39416">
        <ele>120.78</ele>
        <time>2016-10-09T11:19:07Z</time>
      </trkpt>
      <trkpt lat="43.88767" lon="10.39428">
        <ele>119.34</ele>
        <time>2016-10-09T11:19:09Z</time>
      </trkpt>
      <trkpt lat="43.88766" lon="10.39434">
        <ele>119.34</ele>
        <time>2016-10-09T11:19:10Z</time>
      </trkpt>
      <trkpt lat="43.88764" lon="10.39439">
        <ele>119.82</ele>
        <time>2016-10-09T11:19:11Z</time>
      </trkpt>
      <trkpt lat="43.88761" lon="10.39443">
        <ele>118.38</ele>
        <time>2016-10-09T11:19:12Z</time>
      </trkpt>
      <trkpt lat="43.88758" lon="10.39446">
        <ele>118.38</ele>
        <time>2016-10-09T11:19:13Z</time>
      </trkpt>
      <trkpt lat="43.88754" lon="10.39449">
        <ele>117.9</ele>
        <time>2016-10-09T11:19:14Z</time>
      </trkpt>
      <trkpt lat="43.8875" lon="10.39451">
        <ele>117.42</ele>
        <time>2016-10-09T11:19:15Z</time>
      </trkpt>
      <trkpt lat="43.88746" lon="10.39453">
        <ele>117.42</ele>
        <time>2016-10-09T11:19:16Z</time>
      </trkpt>
      <trkpt lat="43.88713" lon="10.39463">
        <ele>114.53</ele>
        <time>2016-10-09T11:19:23Z</time>
      </trkpt>
      <trkpt lat="43.88693" lon="10.39469">
        <ele>113.09</ele>
        <time>2016-10-09T11:19:27Z</time>
      </trkpt>
      <trkpt lat="43.88682" lon="10.39476">
        <ele>111.65</ele>
        <time>2016-10-09T11:19:30Z</time>
      </trkpt>
      <trkpt lat="43.88678" lon="10.3948">
        <ele>111.65</ele>
        <time>2016-10-09T11:19:31Z</time>
      </trkpt>
      <trkpt lat="43.88676" lon="10.39485">
        <ele>110.69</ele>
        <time>2016-10-09T11:19:32Z</time>
      </trkpt>
      <trkpt lat="43.88674" lon="10.39491">
        <ele>110.69</ele>
        <time>2016-10-09T11:19:33Z</time>
      </trkpt>
      <trkpt lat="43.88672" lon="10.39497">
        <ele>109.73</ele>
        <time>2016-10-09T11:19:34Z</time>
      </trkpt>
      <trkpt lat="43.88669" lon="10.39508">
        <ele>108.77</ele>
        <time>2016-10-09T11:19:36Z</time>
      </trkpt>
      <trkpt lat="43.88671" lon="10.39524">
        <ele>108.29</ele>
        <time>2016-10-09T11:19:39Z</time>
      </trkpt>
      <trkpt lat="43.88674" lon="10.39528">
        <ele>108.29</ele>
        <time>2016-10-09T11:19:40Z</time>
      </trkpt>
      <trkpt lat="43.88677" lon="10.39531">
        <ele>107.81</ele>
        <time>2016-10-09T11:19:41Z</time>
      </trkpt>
      <trkpt lat="43.88697" lon="10.39545">
        <ele>106.36</ele>
        <time>2016-10-09T11:19:47Z</time>
      </trkpt>
      <trkpt lat="43.88696" lon="10.39548">
        <ele>105.4</ele>
        <time>2016-10-09T11:19:48Z</time>
      </trkpt>
      <trkpt lat="43.88695" lon="10.39551">
        <ele>105.88</ele>
        <time>2016-10-09T11:19:49Z</time>
      </trkpt>
      <trkpt lat="43.88693" lon="10.39552">
        <ele>105.4</ele>
        <time>2016-10-09T11:19:50Z</time>
      </trkpt>
      <trkpt lat="43.88691" lon="10.39552">
        <ele>105.4</ele>
        <time>2016-10-09T11:19:51Z</time>
      </trkpt>
      <trkpt lat="43.88688" lon="10.39552">
        <ele>104.92</ele>
        <time>2016-10-09T11:19:52Z</time>
      </trkpt>
      <trkpt lat="43.88684" lon="10.39551">
        <ele>104.44</ele>
        <time>2016-10-09T11:19:53Z</time>
      </trkpt>
      <trkpt lat="43.88655" lon="10.39547">
        <ele>102.04</ele>
        <time>2016-10-09T11:19:59Z</time>
      </trkpt>
      <trkpt lat="43.88628" lon="10.39548">
        <ele>99.15</ele>
        <time>2016-10-09T11:20:04Z</time>
      </trkpt>
      <trkpt lat="43.88595" lon="10.39543">
        <ele>96.27</ele>
        <time>2016-10-09T11:20:10Z</time>
      </trkpt>
      <trkpt lat="43.88591" lon="10.3954">
        <ele>95.31</ele>
        <time>2016-10-09T11:20:11Z</time>
      </trkpt>
      <trkpt lat="43.88587" lon="10.39537">
        <ele>95.31</ele>
        <time>2016-10-09T11:20:12Z</time>
      </trkpt>
      <trkpt lat="43.88584" lon="10.39532">
        <ele>94.35</ele>
        <time>2016-10-09T11:20:13Z</time>
      </trkpt>
      <trkpt lat="43.88581" lon="10.39527">
        <ele>94.83</ele>
        <time>2016-10-09T11:20:14Z</time>
      </trkpt>
      <trkpt lat="43.88579" lon="10.39522">
        <ele>94.35</ele>
        <time>2016-10-09T11:20:15Z</time>
      </trkpt>
      <trkpt lat="43.88578" lon="10.39517">
        <ele>93.87</ele>
        <time>2016-10-09T11:20:16Z</time>
      </trkpt>
      <trkpt lat="43.88577" lon="10.39511">
        <ele>93.87</ele>
        <time>2016-10-09T11:20:17Z</time>
      </trkpt>
      <trkpt lat="43.88567" lon="10.39492">
        <ele>91.94</ele>
        <time>2016-10-09T11:20:23Z</time>
      </trkpt>
      <trkpt lat="43.88563" lon="10.39493">
        <ele>91.94</ele>
        <time>2016-10-09T11:20:24Z</time>
      </trkpt>
      <trkpt lat="43.8856" lon="10.39497">
        <ele>91.94</ele>
        <time>2016-10-09T11:20:25Z</time>
      </trkpt>
      <trkpt lat="43.88558" lon="10.39501">
        <ele>91.94</ele>
        <time>2016-10-09T11:20:26Z</time>
      </trkpt>
      <trkpt lat="43.88555" lon="10.39507">
        <ele>91.46</ele>
        <time>2016-10-09T11:20:27Z</time>
      </trkpt>
      <trkpt lat="43.8854" lon="10.39536">
        <ele>90.02</ele>
        <time>2016-10-09T11:20:32Z</time>
      </trkpt>
      <trkpt lat="43.88508" lon="10.39615">
        <ele>85.69</ele>
        <time>2016-10-09T11:20:43Z</time>
      </trkpt>
      <trkpt lat="43.88484" lon="10.39689">
        <ele>82.81</ele>
        <time>2016-10-09T11:20:52Z</time>
      </trkpt>
      <trkpt lat="43.88472" lon="10.39732">
        <ele>82.81</ele>
        <time>2016-10-09T11:20:57Z</time>
      </trkpt>
      <trkpt lat="43.88471" lon="10.39741">
        <ele>82.33</ele>
        <time>2016-10-09T11:20:58Z</time>
      </trkpt>
      <trkpt lat="43.88469" lon="10.39777">
        <ele>81.85</ele>
        <time>2016-10-09T11:21:02Z</time>
      </trkpt>
      <trkpt lat="43.88462" lon="10.39903">
        <ele>80.89</ele>
        <time>2016-10-09T11:21:17Z</time>
      </trkpt>
      <trkpt lat="43.88437" lon="10.4001">
        <ele>80.89</ele>
        <time>2016-10-09T11:21:31Z</time>
      </trkpt>
      <trkpt lat="43.8843" lon="10.4004">
        <ele>80.41</ele>
        <time>2016-10-09T11:21:35Z</time>
      </trkpt>
      <trkpt lat="43.8842" lon="10.40084">
        <ele>79.45</ele>
        <time>2016-10-09T11:21:41Z</time>
      </trkpt>
      <trkpt lat="43.88416" lon="10.4009">
        <ele>79.45</ele>
        <time>2016-10-09T11:21:42Z</time>
      </trkpt>
      <trkpt lat="43.88412" lon="10.40096">
        <ele>79.45</ele>
        <time>2016-10-09T11:21:43Z</time>
      </trkpt>
      <trkpt lat="43.884" lon="10.40113">
        <ele>79.45</ele>
        <time>2016-10-09T11:21:46Z</time>
      </trkpt>
      <trkpt lat="43.88397" lon="10.4012">
        <ele>79.45</ele>
        <time>2016-10-09T11:21:47Z</time>
      </trkpt>
      <trkpt lat="43.88386" lon="10.40144">
        <ele>78.48</ele>
        <time>2016-10-09T11:21:50Z</time>
      </trkpt>
      <trkpt lat="43.88383" lon="10.40153">
        <ele>78</ele>
        <time>2016-10-09T11:21:51Z</time>
      </trkpt>
      <trkpt lat="43.88379" lon="10.40161">
        <ele>76.56</ele>
        <time>2016-10-09T11:21:52Z</time>
      </trkpt>
      <trkpt lat="43.88337" lon="10.4025">
        <ele>72.24</ele>
        <time>2016-10-09T11:22:02Z</time>
      </trkpt>
      <trkpt lat="43.88261" lon="10.40405">
        <ele>68.87</ele>
        <time>2016-10-09T11:22:19Z</time>
      </trkpt>
      <trkpt lat="43.88243" lon="10.40443">
        <ele>65.03</ele>
        <time>2016-10-09T11:22:23Z</time>
      </trkpt>
      <trkpt lat="43.8822" lon="10.40491">
        <ele>62.14</ele>
        <time>2016-10-09T11:22:28Z</time>
      </trkpt>
      <trkpt lat="43.88208" lon="10.40531">
        <ele>61.18</ele>
        <time>2016-10-09T11:22:32Z</time>
      </trkpt>
      <trkpt lat="43.88176" lon="10.40649">
        <ele>61.18</ele>
        <time>2016-10-09T11:22:45Z</time>
      </trkpt>
      <trkpt lat="43.88146" lon="10.4072">
        <ele>59.74</ele>
        <time>2016-10-09T11:22:54Z</time>
      </trkpt>
      <trkpt lat="43.88141" lon="10.40727">
        <ele>59.26</ele>
        <time>2016-10-09T11:22:55Z</time>
      </trkpt>
      <trkpt lat="43.88064" lon="10.40819">
        <ele>57.34</ele>
        <time>2016-10-09T11:23:10Z</time>
      </trkpt>
      <trkpt lat="43.88023" lon="10.40907">
        <ele>53.97</ele>
        <time>2016-10-09T11:23:20Z</time>
      </trkpt>
      <trkpt lat="43.87976" lon="10.41011">
        <ele>53.01</ele>
        <time>2016-10-09T11:23:32Z</time>
      </trkpt>
      <trkpt lat="43.87949" lon="10.41057">
        <ele>52.05</ele>
        <time>2016-10-09T11:23:38Z</time>
      </trkpt>
      <trkpt lat="43.87944" lon="10.41065">
        <ele>52.05</ele>
        <time>2016-10-09T11:23:39Z</time>
      </trkpt>
      <trkpt lat="43.8794" lon="10.41072">
        <ele>52.05</ele>
        <time>2016-10-09T11:23:40Z</time>
      </trkpt>
      <trkpt lat="43.87906" lon="10.4113">
        <ele>52.05</ele>
        <time>2016-10-09T11:23:48Z</time>
      </trkpt>
      <trkpt lat="43.87903" lon="10.41138">
        <ele>51.57</ele>
        <time>2016-10-09T11:23:49Z</time>
      </trkpt>
      <trkpt lat="43.879" lon="10.41146">
        <ele>51.57</ele>
        <time>2016-10-09T11:23:50Z</time>
      </trkpt>
      <trkpt lat="43.87862" lon="10.41264">
        <ele>50.13</ele>
        <time>2016-10-09T11:24:04Z</time>
      </trkpt>
      <trkpt lat="43.87803" lon="10.41354">
        <ele>49.16</ele>
        <time>2016-10-09T11:24:18Z</time>
      </trkpt>
      <trkpt lat="43.87753" lon="10.41394">
        <ele>48.68</ele>
        <time>2016-10-09T11:24:27Z</time>
      </trkpt>
      <trkpt lat="43.87749" lon="10.41401">
        <ele>48.68</ele>
        <time>2016-10-09T11:24:28Z</time>
      </trkpt>
      <trkpt lat="43.87742" lon="10.41417">
        <ele>47.72</ele>
        <time>2016-10-09T11:24:30Z</time>
      </trkpt>
      <trkpt lat="43.87736" lon="10.41433">
        <ele>48.2</ele>
        <time>2016-10-09T11:24:32Z</time>
      </trkpt>
      <trkpt lat="43.87725" lon="10.41514">
        <ele>46.76</ele>
        <time>2016-10-09T11:24:41Z</time>
      </trkpt>
      <trkpt lat="43.8772" lon="10.41531">
        <ele>46.76</ele>
        <time>2016-10-09T11:24:43Z</time>
      </trkpt>
      <trkpt lat="43.87718" lon="10.41539">
        <ele>46.28</ele>
        <time>2016-10-09T11:24:44Z</time>
      </trkpt>
      <trkpt lat="43.87714" lon="10.41546">
        <ele>46.76</ele>
        <time>2016-10-09T11:24:45Z</time>
      </trkpt>
      <trkpt lat="43.87671" lon="10.41629">
        <ele>46.76</ele>
        <time>2016-10-09T11:24:57Z</time>
      </trkpt>
      <trkpt lat="43.87632" lon="10.41729">
        <ele>45.32</ele>
        <time>2016-10-09T11:25:10Z</time>
      </trkpt>
      <trkpt lat="43.87589" lon="10.41837">
        <ele>43.4</ele>
        <time>2016-10-09T11:25:23Z</time>
      </trkpt>
      <trkpt lat="43.87545" lon="10.41924">
        <ele>43.4</ele>
        <time>2016-10-09T11:25:34Z</time>
      </trkpt>
      <trkpt lat="43.87516" lon="10.41998">
        <ele>42.44</ele>
        <time>2016-10-09T11:25:43Z</time>
      </trkpt>
      <trkpt lat="43.87487" lon="10.42115">
        <ele>40.99</ele>
        <time>2016-10-09T11:25:57Z</time>
      </trkpt>
      <trkpt lat="43.87453" lon="10.42235">
        <ele>41.95</ele>
        <time>2016-10-09T11:26:13Z</time>
      </trkpt>
      <trkpt lat="43.87446" lon="10.42258">
        <ele>41.47</ele>
        <time>2016-10-09T11:26:16Z</time>
      </trkpt>
      <trkpt lat="43.87443" lon="10.42266">
        <ele>41.47</ele>
        <time>2016-10-09T11:26:17Z</time>
      </trkpt>
      <trkpt lat="43.87405" lon="10.42388">
        <ele>38.59</ele>
        <time>2016-10-09T11:26:31Z</time>
      </trkpt>
      <trkpt lat="43.87387" lon="10.42441">
        <ele>38.11</ele>
        <time>2016-10-09T11:26:37Z</time>
      </trkpt>
      <trkpt lat="43.87382" lon="10.42448">
        <ele>37.63</ele>
        <time>2016-10-09T11:26:38Z</time>
      </trkpt>
      <trkpt lat="43.87377" lon="10.42455">
        <ele>37.63</ele>
        <time>2016-10-09T11:26:39Z</time>
      </trkpt>
      <trkpt lat="43.87372" lon="10.4246">
        <ele>37.63</ele>
        <time>2016-10-09T11:26:40Z</time>
      </trkpt>
      <trkpt lat="43.87366" lon="10.42465">
        <ele>37.63</ele>
        <time>2016-10-09T11:26:41Z</time>
      </trkpt>
      <trkpt lat="43.87344" lon="10.42486">
        <ele>36.67</ele>
        <time>2016-10-09T11:26:45Z</time>
      </trkpt>
      <trkpt lat="43.87284" lon="10.42602">
        <ele>36.19</ele>
        <time>2016-10-09T11:27:00Z</time>
      </trkpt>
      <trkpt lat="43.87279" lon="10.42619">
        <ele>35.23</ele>
        <time>2016-10-09T11:27:02Z</time>
      </trkpt>
      <trkpt lat="43.87245" lon="10.42742">
        <ele>35.23</ele>
        <time>2016-10-09T11:27:17Z</time>
      </trkpt>
      <trkpt lat="43.87196" lon="10.42842">
        <ele>34.74</ele>
        <time>2016-10-09T11:27:31Z</time>
      </trkpt>
      <trkpt lat="43.87147" lon="10.42936">
        <ele>33.3</ele>
        <time>2016-10-09T11:27:44Z</time>
      </trkpt>
      <trkpt lat="43.87142" lon="10.42942">
        <ele>32.82</ele>
        <time>2016-10-09T11:27:45Z</time>
      </trkpt>
      <trkpt lat="43.87137" lon="10.42948">
        <ele>32.34</ele>
        <time>2016-10-09T11:27:46Z</time>
      </trkpt>
      <trkpt lat="43.87132" lon="10.42952">
        <ele>32.82</ele>
        <time>2016-10-09T11:27:47Z</time>
      </trkpt>
      <trkpt lat="43.87126" lon="10.42956">
        <ele>32.82</ele>
        <time>2016-10-09T11:27:48Z</time>
      </trkpt>
      <trkpt lat="43.8712" lon="10.4296">
        <ele>32.82</ele>
        <time>2016-10-09T11:27:49Z</time>
      </trkpt>
      <trkpt lat="43.87114" lon="10.42965">
        <ele>32.82</ele>
        <time>2016-10-09T11:27:50Z</time>
      </trkpt>
      <trkpt lat="43.87109" lon="10.42969">
        <ele>32.82</ele>
        <time>2016-10-09T11:27:51Z</time>
      </trkpt>
      <trkpt lat="43.87013" lon="10.43027">
        <ele>32.82</ele>
        <time>2016-10-09T11:28:07Z</time>
      </trkpt>
      <trkpt lat="43.86955" lon="10.43079">
        <ele>31.38</ele>
        <time>2016-10-09T11:28:18Z</time>
      </trkpt>
      <trkpt lat="43.86932" lon="10.43106">
        <ele>31.38</ele>
        <time>2016-10-09T11:28:23Z</time>
      </trkpt>
      <trkpt lat="43.86926" lon="10.4311">
        <ele>32.34</ele>
        <time>2016-10-09T11:28:24Z</time>
      </trkpt>
      <trkpt lat="43.86921" lon="10.43114">
        <ele>31.86</ele>
        <time>2016-10-09T11:28:25Z</time>
      </trkpt>
      <trkpt lat="43.86915" lon="10.43117">
        <ele>30.9</ele>
        <time>2016-10-09T11:28:26Z</time>
      </trkpt>
      <trkpt lat="43.8691" lon="10.4312">
        <ele>31.86</ele>
        <time>2016-10-09T11:28:27Z</time>
      </trkpt>
      <trkpt lat="43.86828" lon="10.43181">
        <ele>30.9</ele>
        <time>2016-10-09T11:28:43Z</time>
      </trkpt>
      <trkpt lat="43.86788" lon="10.43239">
        <ele>30.9</ele>
        <time>2016-10-09T11:28:52Z</time>
      </trkpt>
      <trkpt lat="43.86711" lon="10.4332">
        <ele>29.46</ele>
        <time>2016-10-09T11:29:07Z</time>
      </trkpt>
      <trkpt lat="43.86636" lon="10.43401">
        <ele>28.5</ele>
        <time>2016-10-09T11:29:22Z</time>
      </trkpt>
      <trkpt lat="43.86631" lon="10.43404">
        <ele>28.98</ele>
        <time>2016-10-09T11:29:23Z</time>
      </trkpt>
      <trkpt lat="43.86625" lon="10.43406">
        <ele>28.98</ele>
        <time>2016-10-09T11:29:24Z</time>
      </trkpt>
      <trkpt lat="43.8662" lon="10.43407">
        <ele>28.98</ele>
        <time>2016-10-09T11:29:25Z</time>
      </trkpt>
      <trkpt lat="43.86614" lon="10.43407">
        <ele>28.5</ele>
        <time>2016-10-09T11:29:26Z</time>
      </trkpt>
      <trkpt lat="43.86608" lon="10.43407">
        <ele>28.98</ele>
        <time>2016-10-09T11:29:27Z</time>
      </trkpt>
      <trkpt lat="43.86602" lon="10.43406">
        <ele>29.46</ele>
        <time>2016-10-09T11:29:28Z</time>
      </trkpt>
      <trkpt lat="43.86596" lon="10.43405">
        <ele>28.5</ele>
        <time>2016-10-09T11:29:29Z</time>
      </trkpt>
      <trkpt lat="43.86585" lon="10.43402">
        <ele>29.46</ele>
        <time>2016-10-09T11:29:31Z</time>
      </trkpt>
      <trkpt lat="43.86495" lon="10.43379">
        <ele>28.02</ele>
        <time>2016-10-09T11:29:46Z</time>
      </trkpt>
      <trkpt lat="43.86382" lon="10.43394">
        <ele>28.02</ele>
        <time>2016-10-09T11:30:05Z</time>
      </trkpt>
      <trkpt lat="43.86295" lon="10.43412">
        <ele>28.02</ele>
        <time>2016-10-09T11:30:19Z</time>
      </trkpt>
      <trkpt lat="43.86177" lon="10.43444">
        <ele>27.05</ele>
        <time>2016-10-09T11:30:38Z</time>
      </trkpt>
      <trkpt lat="43.86163" lon="10.43449">
        <ele>26.57</ele>
        <time>2016-10-09T11:30:40Z</time>
      </trkpt>
      <trkpt lat="43.86158" lon="10.43452">
        <ele>26.57</ele>
        <time>2016-10-09T11:30:41Z</time>
      </trkpt>
      <trkpt lat="43.86112" lon="10.43481">
        <ele>26.57</ele>
        <time>2016-10-09T11:30:49Z</time>
      </trkpt>
      <trkpt lat="43.86107" lon="10.43486">
        <ele>26.57</ele>
        <time>2016-10-09T11:30:50Z</time>
      </trkpt>
      <trkpt lat="43.86103" lon="10.43492">
        <ele>26.09</ele>
        <time>2016-10-09T11:30:51Z</time>
      </trkpt>
      <trkpt lat="43.86099" lon="10.43498">
        <ele>26.09</ele>
        <time>2016-10-09T11:30:52Z</time>
      </trkpt>
      <trkpt lat="43.86095" lon="10.43504">
        <ele>25.61</ele>
        <time>2016-10-09T11:30:53Z</time>
      </trkpt>
      <trkpt lat="43.86092" lon="10.43511">
        <ele>26.57</ele>
        <time>2016-10-09T11:30:54Z</time>
      </trkpt>
      <trkpt lat="43.86089" lon="10.43518">
        <ele>26.09</ele>
        <time>2016-10-09T11:30:55Z</time>
      </trkpt>
      <trkpt lat="43.86088" lon="10.43525">
        <ele>26.57</ele>
        <time>2016-10-09T11:30:56Z</time>
      </trkpt>
      <trkpt lat="43.86069" lon="10.43591">
        <ele>25.13</ele>
        <time>2016-10-09T11:31:07Z</time>
      </trkpt>
      <trkpt lat="43.86066" lon="10.43593">
        <ele>25.13</ele>
        <time>2016-10-09T11:31:08Z</time>
      </trkpt>
      <trkpt lat="43.86062" lon="10.43595">
        <ele>25.13</ele>
        <time>2016-10-09T11:31:09Z</time>
      </trkpt>
      <trkpt lat="43.86021" lon="10.43601">
        <ele>23.69</ele>
        <time>2016-10-09T11:31:18Z</time>
      </trkpt>
      <trkpt lat="43.86017" lon="10.43602">
        <ele>23.69</ele>
        <time>2016-10-09T11:31:19Z</time>
      </trkpt>
      <trkpt lat="43.86013" lon="10.43603">
        <ele>24.17</ele>
        <time>2016-10-09T11:31:20Z</time>
      </trkpt>
      <trkpt lat="43.85983" lon="10.43607">
        <ele>22.73</ele>
        <time>2016-10-09T11:31:32Z</time>
      </trkpt>
      <trkpt lat="43.85983" lon="10.43609">
        <ele>22.73</ele>
        <time>2016-10-09T11:31:33Z</time>
      </trkpt>
      <trkpt lat="43.85983" lon="10.4361">
        <ele>23.69</ele>
        <time>2016-10-09T11:31:34Z</time>
      </trkpt>
      <trkpt lat="43.85985" lon="10.43611">
        <ele>23.21</ele>
        <time>2016-10-09T11:31:35Z</time>
      </trkpt>
      <trkpt lat="43.85986" lon="10.43611">
        <ele>21.77</ele>
        <time>2016-10-09T11:31:36Z</time>
      </trkpt>
      <trkpt lat="43.85988" lon="10.43611">
        <ele>22.25</ele>
        <time>2016-10-09T11:31:37Z</time>
      </trkpt>
      <trkpt lat="43.8599" lon="10.43611">
        <ele>22.73</ele>
        <time>2016-10-09T11:31:38Z</time>
      </trkpt>
      <trkpt lat="43.86024" lon="10.43608">
        <ele>23.69</ele>
        <time>2016-10-09T11:31:51Z</time>
      </trkpt>
      <trkpt lat="43.86057" lon="10.43603">
        <ele>24.65</ele>
        <time>2016-10-09T11:32:03Z</time>
      </trkpt>
      <trkpt lat="43.86069" lon="10.4361">
        <ele>24.65</ele>
        <time>2016-10-09T11:32:08Z</time>
      </trkpt>
      <trkpt lat="43.86069" lon="10.43612">
        <ele>24.65</ele>
        <time>2016-10-09T11:32:09Z</time>
      </trkpt>
      <trkpt lat="43.86069" lon="10.43614">
        <ele>25.61</ele>
        <time>2016-10-09T11:32:10Z</time>
      </trkpt>
      <trkpt lat="43.86068" lon="10.4363">
        <ele>26.09</ele>
        <time>2016-10-09T11:32:15Z</time>
      </trkpt>
      <trkpt lat="43.86067" lon="10.43658">
        <ele>26.09</ele>
        <time>2016-10-09T11:32:24Z</time>
      </trkpt>
      <trkpt lat="43.86068" lon="10.4366">
        <ele>26.57</ele>
        <time>2016-10-09T11:32:25Z</time>
      </trkpt>
      <trkpt lat="43.86066" lon="10.43708">
        <ele>25.61</ele>
        <time>2016-10-09T11:32:34Z</time>
      </trkpt>
      <trkpt lat="43.86064" lon="10.43714">
        <ele>25.13</ele>
        <time>2016-10-09T11:32:35Z</time>
      </trkpt>
      <trkpt lat="43.86061" lon="10.43719">
        <ele>25.13</ele>
        <time>2016-10-09T11:32:36Z</time>
      </trkpt>
      <trkpt lat="43.86057" lon="10.43724">
        <ele>24.17</ele>
        <time>2016-10-09T11:32:37Z</time>
      </trkpt>
      <trkpt lat="43.86052" lon="10.43729">
        <ele>23.69</ele>
        <time>2016-10-09T11:32:38Z</time>
      </trkpt>
      <trkpt lat="43.86003" lon="10.4378">
        <ele>21.29</ele>
        <time>2016-10-09T11:32:47Z</time>
      </trkpt>
      <trkpt lat="43.85998" lon="10.43787">
        <ele>21.77</ele>
        <time>2016-10-09T11:32:48Z</time>
      </trkpt>
      <trkpt lat="43.85992" lon="10.43803">
        <ele>20.32</ele>
        <time>2016-10-09T11:32:50Z</time>
      </trkpt>
      <trkpt lat="43.85992" lon="10.43814">
        <ele>20.81</ele>
        <time>2016-10-09T11:32:51Z</time>
      </trkpt>
      <trkpt lat="43.85991" lon="10.43823">
        <ele>20.81</ele>
        <time>2016-10-09T11:32:52Z</time>
      </trkpt>
      <trkpt lat="43.85992" lon="10.43841">
        <ele>20.32</ele>
        <time>2016-10-09T11:32:54Z</time>
      </trkpt>
      <trkpt lat="43.85994" lon="10.43849">
        <ele>20.32</ele>
        <time>2016-10-09T11:32:55Z</time>
      </trkpt>
      <trkpt lat="43.85995" lon="10.43857">
        <ele>20.32</ele>
        <time>2016-10-09T11:32:56Z</time>
      </trkpt>
      <trkpt lat="43.85997" lon="10.43864">
        <ele>20.81</ele>
        <time>2016-10-09T11:32:57Z</time>
      </trkpt>
      <trkpt lat="43.85999" lon="10.43871">
        <ele>20.32</ele>
        <time>2016-10-09T11:32:58Z</time>
      </trkpt>
      <trkpt lat="43.86003" lon="10.43885">
        <ele>21.29</ele>
        <time>2016-10-09T11:33:00Z</time>
      </trkpt>
      <trkpt lat="43.86004" lon="10.43893">
        <ele>20.81</ele>
        <time>2016-10-09T11:33:01Z</time>
      </trkpt>
      <trkpt lat="43.86001" lon="10.44017">
        <ele>20.32</ele>
        <time>2016-10-09T11:33:17Z</time>
      </trkpt>
      <trkpt lat="43.85996" lon="10.44093">
        <ele>19.84</ele>
        <time>2016-10-09T11:33:27Z</time>
      </trkpt>
      <trkpt lat="43.85994" lon="10.44099">
        <ele>20.32</ele>
        <time>2016-10-09T11:33:28Z</time>
      </trkpt>
      <trkpt lat="43.8599" lon="10.44105">
        <ele>19.84</ele>
        <time>2016-10-09T11:33:29Z</time>
      </trkpt>
      <trkpt lat="43.85986" lon="10.44109">
        <ele>20.32</ele>
        <time>2016-10-09T11:33:30Z</time>
      </trkpt>
      <trkpt lat="43.85981" lon="10.44111">
        <ele>20.32</ele>
        <time>2016-10-09T11:33:31Z</time>
      </trkpt>
      <trkpt lat="43.85977" lon="10.44112">
        <ele>20.32</ele>
        <time>2016-10-09T11:33:32Z</time>
      </trkpt>
      <trkpt lat="43.85972" lon="10.44113">
        <ele>20.32</ele>
        <time>2016-10-09T11:33:33Z</time>
      </trkpt>
      <trkpt lat="43.85967" lon="10.44114">
        <ele>20.81</ele>
        <time>2016-10-09T11:33:34Z</time>
      </trkpt>
      <trkpt lat="43.85962" lon="10.44115">
        <ele>20.81</ele>
        <time>2016-10-09T11:33:35Z</time>
      </trkpt>
      <trkpt lat="43.85958" lon="10.44118">
        <ele>20.81</ele>
        <time>2016-10-09T11:33:36Z</time>
      </trkpt>
      <trkpt lat="43.85955" lon="10.44122">
        <ele>20.81</ele>
        <time>2016-10-09T11:33:37Z</time>
      </trkpt>
      <trkpt lat="43.85953" lon="10.44127">
        <ele>20.32</ele>
        <time>2016-10-09T11:33:38Z</time>
      </trkpt>
      <trkpt lat="43.85952" lon="10.44132">
        <ele>20.32</ele>
        <time>2016-10-09T11:33:39Z</time>
      </trkpt>
      <trkpt lat="43.8595" lon="10.44144">
        <ele>19.84</ele>
        <time>2016-10-09T11:33:41Z</time>
      </trkpt>
      <trkpt lat="43.85949" lon="10.44155">
        <ele>20.32</ele>
        <time>2016-10-09T11:33:43Z</time>
      </trkpt>
      <trkpt lat="43.85947" lon="10.44161">
        <ele>20.32</ele>
        <time>2016-10-09T11:33:44Z</time>
      </trkpt>
      <trkpt lat="43.85945" lon="10.44167">
        <ele>19.84</ele>
        <time>2016-10-09T11:33:45Z</time>
      </trkpt>
      <trkpt lat="43.85943" lon="10.44172">
        <ele>20.32</ele>
        <time>2016-10-09T11:33:46Z</time>
      </trkpt>
      <trkpt lat="43.8594" lon="10.44178">
        <ele>20.32</ele>
        <time>2016-10-09T11:33:47Z</time>
      </trkpt>
      <trkpt lat="43.85916" lon="10.44228">
        <ele>20.81</ele>
        <time>2016-10-09T11:33:56Z</time>
      </trkpt>
      <trkpt lat="43.85847" lon="10.44341">
        <ele>20.32</ele>
        <time>2016-10-09T11:34:16Z</time>
      </trkpt>
      <trkpt lat="43.85839" lon="10.44352">
        <ele>20.32</ele>
        <time>2016-10-09T11:34:18Z</time>
      </trkpt>
      <trkpt lat="43.85833" lon="10.44356">
        <ele>19.84</ele>
        <time>2016-10-09T11:34:19Z</time>
      </trkpt>
      <trkpt lat="43.85828" lon="10.44359">
        <ele>20.32</ele>
        <time>2016-10-09T11:34:20Z</time>
      </trkpt>
      <trkpt lat="43.85818" lon="10.44366">
        <ele>19.36</ele>
        <time>2016-10-09T11:34:22Z</time>
      </trkpt>
      <trkpt lat="43.85814" lon="10.4437">
        <ele>19.84</ele>
        <time>2016-10-09T11:34:23Z</time>
      </trkpt>
      <trkpt lat="43.8581" lon="10.44376">
        <ele>20.32</ele>
        <time>2016-10-09T11:34:24Z</time>
      </trkpt>
      <trkpt lat="43.85808" lon="10.44382">
        <ele>20.32</ele>
        <time>2016-10-09T11:34:25Z</time>
      </trkpt>
      <trkpt lat="43.85807" lon="10.44388">
        <ele>20.32</ele>
        <time>2016-10-09T11:34:26Z</time>
      </trkpt>
      <trkpt lat="43.85806" lon="10.44395">
        <ele>19.84</ele>
        <time>2016-10-09T11:34:27Z</time>
      </trkpt>
      <trkpt lat="43.85805" lon="10.44402">
        <ele>20.32</ele>
        <time>2016-10-09T11:34:28Z</time>
      </trkpt>
      <trkpt lat="43.85804" lon="10.44408">
        <ele>20.32</ele>
        <time>2016-10-09T11:34:29Z</time>
      </trkpt>
      <trkpt lat="43.85802" lon="10.44414">
        <ele>20.32</ele>
        <time>2016-10-09T11:34:30Z</time>
      </trkpt>
      <trkpt lat="43.858" lon="10.44419">
        <ele>20.81</ele>
        <time>2016-10-09T11:34:31Z</time>
      </trkpt>
      <trkpt lat="43.85798" lon="10.44423">
        <ele>20.32</ele>
        <time>2016-10-09T11:34:32Z</time>
      </trkpt>
      <trkpt lat="43.85795" lon="10.44428">
        <ele>20.81</ele>
        <time>2016-10-09T11:34:33Z</time>
      </trkpt>
      <trkpt lat="43.85791" lon="10.44432">
        <ele>20.81</ele>
        <time>2016-10-09T11:34:34Z</time>
      </trkpt>
      <trkpt lat="43.85764" lon="10.4447">
        <ele>20.32</ele>
        <time>2016-10-09T11:34:42Z</time>
      </trkpt>
      <trkpt lat="43.85758" lon="10.44481">
        <ele>20.81</ele>
        <time>2016-10-09T11:34:44Z</time>
      </trkpt>
      <trkpt lat="43.85747" lon="10.44495">
        <ele>20.81</ele>
        <time>2016-10-09T11:34:47Z</time>
      </trkpt>
      <trkpt lat="43.85721" lon="10.44522">
        <ele>19.84</ele>
        <time>2016-10-09T11:34:53Z</time>
      </trkpt>
      <trkpt lat="43.85705" lon="10.44541">
        <ele>20.32</ele>
        <time>2016-10-09T11:34:57Z</time>
      </trkpt>
      <trkpt lat="43.85701" lon="10.44546">
        <ele>20.81</ele>
        <time>2016-10-09T11:34:58Z</time>
      </trkpt>
      <trkpt lat="43.85689" lon="10.44559">
        <ele>19.84</ele>
        <time>2016-10-09T11:35:01Z</time>
      </trkpt>
      <trkpt lat="43.85685" lon="10.44563">
        <ele>20.32</ele>
        <time>2016-10-09T11:35:02Z</time>
      </trkpt>
      <trkpt lat="43.85649" lon="10.44602">
        <ele>20.32</ele>
        <time>2016-10-09T11:35:11Z</time>
      </trkpt>
      <trkpt lat="43.85638" lon="10.44616">
        <ele>20.32</ele>
        <time>2016-10-09T11:35:14Z</time>
      </trkpt>
      <trkpt lat="43.85635" lon="10.4462">
        <ele>20.32</ele>
        <time>2016-10-09T11:35:15Z</time>
      </trkpt>
      <trkpt lat="43.85602" lon="10.44654">
        <ele>21.29</ele>
        <time>2016-10-09T11:35:27Z</time>
      </trkpt>
      <trkpt lat="43.85591" lon="10.44673">
        <ele>22.25</ele>
        <time>2016-10-09T11:35:33Z</time>
      </trkpt>
      <trkpt lat="43.85587" lon="10.44693">
        <ele>23.69</ele>
        <time>2016-10-09T11:35:42Z</time>
      </trkpt>
      <trkpt lat="43.85587" lon="10.44695">
        <ele>23.69</ele>
        <time>2016-10-09T11:35:43Z</time>
      </trkpt>
      <trkpt lat="43.85589" lon="10.44697">
        <ele>23.69</ele>
        <time>2016-10-09T11:35:44Z</time>
      </trkpt>
      <trkpt lat="43.85617" lon="10.44729">
        <ele>22.73</ele>
        <time>2016-10-09T11:35:57Z</time>
      </trkpt>
      <trkpt lat="43.85626" lon="10.44732">
        <ele>24.17</ele>
        <time>2016-10-09T11:35:59Z</time>
      </trkpt>
      <trkpt lat="43.85664" lon="10.44746">
        <ele>19.84</ele>
        <time>2016-10-09T11:36:07Z</time>
      </trkpt>
      <trkpt lat="43.85719" lon="10.44789">
        <ele>22.25</ele>
        <time>2016-10-09T11:36:22Z</time>
      </trkpt>
      <trkpt lat="43.85746" lon="10.44837">
        <ele>22.25</ele>
        <time>2016-10-09T11:36:37Z</time>
      </trkpt>
      <trkpt lat="43.85768" lon="10.44901">
        <ele>21.29</ele>
        <time>2016-10-09T11:36:52Z</time>
      </trkpt>
      <trkpt lat="43.8579" lon="10.44995">
        <ele>21.77</ele>
        <time>2016-10-09T11:37:08Z</time>
      </trkpt>
      <trkpt lat="43.85791" lon="10.45001">
        <ele>21.29</ele>
        <time>2016-10-09T11:37:09Z</time>
      </trkpt>
      <trkpt lat="43.85792" lon="10.45077">
        <ele>21.77</ele>
        <time>2016-10-09T11:37:21Z</time>
      </trkpt>
      <trkpt lat="43.85794" lon="10.45083">
        <ele>21.77</ele>
        <time>2016-10-09T11:37:22Z</time>
      </trkpt>
      <trkpt lat="43.85797" lon="10.45089">
        <ele>21.77</ele>
        <time>2016-10-09T11:37:23Z</time>
      </trkpt>
      <trkpt lat="43.85801" lon="10.45093">
        <ele>22.73</ele>
        <time>2016-10-09T11:37:24Z</time>
      </trkpt>
      <trkpt lat="43.85806" lon="10.45097">
        <ele>22.25</ele>
        <time>2016-10-09T11:37:25Z</time>
      </trkpt>
      <trkpt lat="43.85811" lon="10.45099">
        <ele>21.77</ele>
        <time>2016-10-09T11:37:26Z</time>
      </trkpt>
      <trkpt lat="43.85816" lon="10.45101">
        <ele>22.25</ele>
        <time>2016-10-09T11:37:27Z</time>
      </trkpt>
      <trkpt lat="43.85821" lon="10.45102">
        <ele>22.25</ele>
        <time>2016-10-09T11:37:28Z</time>
      </trkpt>
      <trkpt lat="43.85826" lon="10.45103">
        <ele>22.25</ele>
        <time>2016-10-09T11:37:29Z</time>
      </trkpt>
      <trkpt lat="43.85874" lon="10.45118">
        <ele>21.77</ele>
        <time>2016-10-09T11:37:39Z</time>
      </trkpt>
      <trkpt lat="43.85878" lon="10.45122">
        <ele>21.77</ele>
        <time>2016-10-09T11:37:40Z</time>
      </trkpt>
      <trkpt lat="43.85881" lon="10.45128">
        <ele>22.25</ele>
        <time>2016-10-09T11:37:41Z</time>
      </trkpt>
      <trkpt lat="43.85882" lon="10.45134">
        <ele>21.29</ele>
        <time>2016-10-09T11:37:42Z</time>
      </trkpt>
      <trkpt lat="43.85883" lon="10.4514">
        <ele>21.29</ele>
        <time>2016-10-09T11:37:43Z</time>
      </trkpt>
      <trkpt lat="43.85883" lon="10.45147">
        <ele>21.77</ele>
        <time>2016-10-09T11:37:44Z</time>
      </trkpt>
      <trkpt lat="43.85883" lon="10.45154">
        <ele>21.77</ele>
        <time>2016-10-09T11:37:45Z</time>
      </trkpt>
      <trkpt lat="43.85863" lon="10.45283">
        <ele>21.77</ele>
        <time>2016-10-09T11:38:04Z</time>
      </trkpt>
      <trkpt lat="43.85858" lon="10.45401">
        <ele>22.25</ele>
        <time>2016-10-09T11:38:21Z</time>
      </trkpt>
      <trkpt lat="43.85869" lon="10.45496">
        <ele>23.21</ele>
        <time>2016-10-09T11:38:37Z</time>
      </trkpt>
      <trkpt lat="43.85892" lon="10.4557">
        <ele>24.17</ele>
        <time>2016-10-09T11:38:52Z</time>
      </trkpt>
      <trkpt lat="43.85887" lon="10.45577">
        <ele>24.65</ele>
        <time>2016-10-09T11:39:02Z</time>
      </trkpt>
      <trkpt lat="43.85889" lon="10.45577">
        <ele>24.65</ele>
        <time>2016-10-09T11:39:26Z</time>
      </trkpt>
      <trkpt lat="43.85894" lon="10.45578">
        <ele>24.65</ele>
        <time>2016-10-09T11:40:00Z</time>
      </trkpt>
      <trkpt lat="43.85892" lon="10.45578">
        <ele>24.65</ele>
        <time>2016-10-09T11:40:39Z</time>
      </trkpt>
      <trkpt lat="43.85892" lon="10.4558">
        <ele>25.13</ele>
        <time>2016-10-09T11:41:19Z</time>
      </trkpt>
      <trkpt lat="43.85889" lon="10.45575">
        <ele>24.65</ele>
        <time>2016-10-09T11:41:53Z</time>
      </trkpt>
      <trkpt lat="43.85892" lon="10.45582">
        <ele>25.13</ele>
        <time>2016-10-09T11:42:06Z</time>
      </trkpt>
      <trkpt lat="43.85893" lon="10.45584">
        <ele>25.13</ele>
        <time>2016-10-09T11:42:29Z</time>
      </trkpt>
      <trkpt lat="43.85893" lon="10.45587">
        <ele>25.61</ele>
        <time>2016-10-09T11:42:58Z</time>
      </trkpt>
      <trkpt lat="43.85895" lon="10.45591">
        <ele>25.13</ele>
        <time>2016-10-09T11:43:02Z</time>
      </trkpt>
      <trkpt lat="43.85895" lon="10.45593">
        <ele>24.65</ele>
        <time>2016-10-09T11:43:03Z</time>
      </trkpt>
      <trkpt lat="43.85895" lon="10.45595">
        <ele>25.13</ele>
        <time>2016-10-09T11:43:04Z</time>
      </trkpt>
      <trkpt lat="43.85895" lon="10.45598">
        <ele>25.61</ele>
        <time>2016-10-09T11:43:05Z</time>
      </trkpt>
      <trkpt lat="43.85895" lon="10.45602">
        <ele>25.13</ele>
        <time>2016-10-09T11:43:06Z</time>
      </trkpt>
      <trkpt lat="43.85895" lon="10.45605">
        <ele>25.13</ele>
        <time>2016-10-09T11:43:07Z</time>
      </trkpt>
      <trkpt lat="43.85895" lon="10.4561">
        <ele>25.61</ele>
        <time>2016-10-09T11:43:08Z</time>
      </trkpt>
      <trkpt lat="43.85907" lon="10.45693">
        <ele>24.65</ele>
        <time>2016-10-09T11:43:23Z</time>
      </trkpt>
      <trkpt lat="43.85917" lon="10.45748">
        <ele>23.69</ele>
        <time>2016-10-09T11:43:31Z</time>
      </trkpt>
      <trkpt lat="43.85924" lon="10.45889">
        <ele>24.65</ele>
        <time>2016-10-09T11:43:51Z</time>
      </trkpt>
      <trkpt lat="43.85938" lon="10.45992">
        <ele>24.65</ele>
        <time>2016-10-09T11:44:05Z</time>
      </trkpt>
      <trkpt lat="43.85941" lon="10.45999">
        <ele>24.65</ele>
        <time>2016-10-09T11:44:06Z</time>
      </trkpt>
      <trkpt lat="43.85949" lon="10.46019">
        <ele>24.65</ele>
        <time>2016-10-09T11:44:09Z</time>
      </trkpt>
      <trkpt lat="43.85967" lon="10.46049">
        <ele>24.17</ele>
        <time>2016-10-09T11:44:14Z</time>
      </trkpt>
      <trkpt lat="43.8597" lon="10.46055">
        <ele>23.69</ele>
        <time>2016-10-09T11:44:15Z</time>
      </trkpt>
      <trkpt lat="43.85973" lon="10.46062">
        <ele>24.17</ele>
        <time>2016-10-09T11:44:16Z</time>
      </trkpt>
      <trkpt lat="43.85975" lon="10.46069">
        <ele>24.17</ele>
        <time>2016-10-09T11:44:17Z</time>
      </trkpt>
      <trkpt lat="43.85978" lon="10.46076">
        <ele>24.17</ele>
        <time>2016-10-09T11:44:18Z</time>
      </trkpt>
      <trkpt lat="43.86017" lon="10.46234">
        <ele>23.69</ele>
        <time>2016-10-09T11:44:40Z</time>
      </trkpt>
      <trkpt lat="43.86039" lon="10.46314">
        <ele>23.21</ele>
        <time>2016-10-09T11:44:51Z</time>
      </trkpt>
      <trkpt lat="43.86042" lon="10.46321">
        <ele>23.69</ele>
        <time>2016-10-09T11:44:52Z</time>
      </trkpt>
      <trkpt lat="43.86046" lon="10.46327">
        <ele>23.21</ele>
        <time>2016-10-09T11:44:53Z</time>
      </trkpt>
      <trkpt lat="43.8605" lon="10.46333">
        <ele>23.21</ele>
        <time>2016-10-09T11:44:54Z</time>
      </trkpt>
      <trkpt lat="43.86054" lon="10.46338">
        <ele>23.69</ele>
        <time>2016-10-09T11:44:55Z</time>
      </trkpt>
      <trkpt lat="43.86058" lon="10.46342">
        <ele>23.69</ele>
        <time>2016-10-09T11:44:56Z</time>
      </trkpt>
      <trkpt lat="43.86062" lon="10.46346">
        <ele>23.69</ele>
        <time>2016-10-09T11:44:57Z</time>
      </trkpt>
      <trkpt lat="43.86067" lon="10.4635">
        <ele>24.17</ele>
        <time>2016-10-09T11:44:58Z</time>
      </trkpt>
      <trkpt lat="43.86072" lon="10.46352">
        <ele>24.17</ele>
        <time>2016-10-09T11:44:59Z</time>
      </trkpt>
      <trkpt lat="43.86134" lon="10.4638">
        <ele>23.69</ele>
        <time>2016-10-09T11:45:11Z</time>
      </trkpt>
      <trkpt lat="43.86147" lon="10.46394">
        <ele>22.73</ele>
        <time>2016-10-09T11:45:14Z</time>
      </trkpt>
      <trkpt lat="43.8615" lon="10.464">
        <ele>22.73</ele>
        <time>2016-10-09T11:45:15Z</time>
      </trkpt>
      <trkpt lat="43.86153" lon="10.46406">
        <ele>23.69</ele>
        <time>2016-10-09T11:45:16Z</time>
      </trkpt>
      <trkpt lat="43.86156" lon="10.46413">
        <ele>23.69</ele>
        <time>2016-10-09T11:45:17Z</time>
      </trkpt>
      <trkpt lat="43.86158" lon="10.4642">
        <ele>24.17</ele>
        <time>2016-10-09T11:45:18Z</time>
      </trkpt>
      <trkpt lat="43.86159" lon="10.46426">
        <ele>23.69</ele>
        <time>2016-10-09T11:45:19Z</time>
      </trkpt>
      <trkpt lat="43.86161" lon="10.46433">
        <ele>23.21</ele>
        <time>2016-10-09T11:45:20Z</time>
      </trkpt>
      <trkpt lat="43.86162" lon="10.4644">
        <ele>22.73</ele>
        <time>2016-10-09T11:45:21Z</time>
      </trkpt>
      <trkpt lat="43.86165" lon="10.46564">
        <ele>23.21</ele>
        <time>2016-10-09T11:45:38Z</time>
      </trkpt>
      <trkpt lat="43.86167" lon="10.46587">
        <ele>23.69</ele>
        <time>2016-10-09T11:45:41Z</time>
      </trkpt>
      <trkpt lat="43.86169" lon="10.46594">
        <ele>24.17</ele>
        <time>2016-10-09T11:45:42Z</time>
      </trkpt>
      <trkpt lat="43.86172" lon="10.46601">
        <ele>23.69</ele>
        <time>2016-10-09T11:45:43Z</time>
      </trkpt>
      <trkpt lat="43.86174" lon="10.46608">
        <ele>23.21</ele>
        <time>2016-10-09T11:45:44Z</time>
      </trkpt>
      <trkpt lat="43.86177" lon="10.46615">
        <ele>23.21</ele>
        <time>2016-10-09T11:45:45Z</time>
      </trkpt>
      <trkpt lat="43.86206" lon="10.46675">
        <ele>23.69</ele>
        <time>2016-10-09T11:45:54Z</time>
      </trkpt>
      <trkpt lat="43.86218" lon="10.46783">
        <ele>23.21</ele>
        <time>2016-10-09T11:46:08Z</time>
      </trkpt>
      <trkpt lat="43.86226" lon="10.46866">
        <ele>23.69</ele>
        <time>2016-10-09T11:46:19Z</time>
      </trkpt>
      <trkpt lat="43.86228" lon="10.46873">
        <ele>23.69</ele>
        <time>2016-10-09T11:46:20Z</time>
      </trkpt>
      <trkpt lat="43.86231" lon="10.4688">
        <ele>24.17</ele>
        <time>2016-10-09T11:46:21Z</time>
      </trkpt>
      <trkpt lat="43.86234" lon="10.46886">
        <ele>24.17</ele>
        <time>2016-10-09T11:46:22Z</time>
      </trkpt>
      <trkpt lat="43.86237" lon="10.46892">
        <ele>23.69</ele>
        <time>2016-10-09T11:46:23Z</time>
      </trkpt>
      <trkpt lat="43.86241" lon="10.46898">
        <ele>23.69</ele>
        <time>2016-10-09T11:46:24Z</time>
      </trkpt>
      <trkpt lat="43.86244" lon="10.46904">
        <ele>23.69</ele>
        <time>2016-10-09T11:46:25Z</time>
      </trkpt>
      <trkpt lat="43.86288" lon="10.4699">
        <ele>24.65</ele>
        <time>2016-10-09T11:46:40Z</time>
      </trkpt>
      <trkpt lat="43.86284" lon="10.47073">
        <ele>25.61</ele>
        <time>2016-10-09T11:46:55Z</time>
      </trkpt>
      <trkpt lat="43.86258" lon="10.47173">
        <ele>22.73</ele>
        <time>2016-10-09T11:47:08Z</time>
      </trkpt>
      <trkpt lat="43.86253" lon="10.47227">
        <ele>22.73</ele>
        <time>2016-10-09T11:47:14Z</time>
      </trkpt>
      <trkpt lat="43.86242" lon="10.47352">
        <ele>22.73</ele>
        <time>2016-10-09T11:47:29Z</time>
      </trkpt>
      <trkpt lat="43.86242" lon="10.4736">
        <ele>22.73</ele>
        <time>2016-10-09T11:47:30Z</time>
      </trkpt>
      <trkpt lat="43.86245" lon="10.47483">
        <ele>22.73</ele>
        <time>2016-10-09T11:47:45Z</time>
      </trkpt>
      <trkpt lat="43.86262" lon="10.47592">
        <ele>23.21</ele>
        <time>2016-10-09T11:47:59Z</time>
      </trkpt>
      <trkpt lat="43.86262" lon="10.476">
        <ele>22.73</ele>
        <time>2016-10-09T11:48:00Z</time>
      </trkpt>
      <trkpt lat="43.86254" lon="10.47697">
        <ele>22.73</ele>
        <time>2016-10-09T11:48:12Z</time>
      </trkpt>
      <trkpt lat="43.86257" lon="10.47807">
        <ele>22.25</ele>
        <time>2016-10-09T11:48:26Z</time>
      </trkpt>
      <trkpt lat="43.86287" lon="10.47937">
        <ele>22.73</ele>
        <time>2016-10-09T11:48:43Z</time>
      </trkpt>
      <trkpt lat="43.86287" lon="10.47944">
        <ele>21.77</ele>
        <time>2016-10-09T11:48:44Z</time>
      </trkpt>
      <trkpt lat="43.86287" lon="10.47952">
        <ele>22.25</ele>
        <time>2016-10-09T11:48:45Z</time>
      </trkpt>
      <trkpt lat="43.86285" lon="10.47967">
        <ele>22.25</ele>
        <time>2016-10-09T11:48:47Z</time>
      </trkpt>
      <trkpt lat="43.86261" lon="10.48071">
        <ele>22.73</ele>
        <time>2016-10-09T11:49:01Z</time>
      </trkpt>
      <trkpt lat="43.86257" lon="10.48077">
        <ele>22.25</ele>
        <time>2016-10-09T11:49:02Z</time>
      </trkpt>
      <trkpt lat="43.862" lon="10.48163">
        <ele>22.25</ele>
        <time>2016-10-09T11:49:17Z</time>
      </trkpt>
      <trkpt lat="43.86156" lon="10.48233">
        <ele>22.73</ele>
        <time>2016-10-09T11:49:30Z</time>
      </trkpt>
      <trkpt lat="43.86155" lon="10.4824">
        <ele>23.21</ele>
        <time>2016-10-09T11:49:31Z</time>
      </trkpt>
      <trkpt lat="43.86154" lon="10.48247">
        <ele>22.73</ele>
        <time>2016-10-09T11:49:32Z</time>
      </trkpt>
      <trkpt lat="43.86146" lon="10.48339">
        <ele>22.25</ele>
        <time>2016-10-09T11:49:45Z</time>
      </trkpt>
      <trkpt lat="43.86147" lon="10.48347">
        <ele>22.73</ele>
        <time>2016-10-09T11:49:46Z</time>
      </trkpt>
      <trkpt lat="43.86142" lon="10.48465">
        <ele>22.73</ele>
        <time>2016-10-09T11:50:02Z</time>
      </trkpt>
      <trkpt lat="43.86135" lon="10.4857">
        <ele>21.77</ele>
        <time>2016-10-09T11:50:16Z</time>
      </trkpt>
      <trkpt lat="43.86137" lon="10.48686">
        <ele>23.21</ele>
        <time>2016-10-09T11:50:31Z</time>
      </trkpt>
      <trkpt lat="43.8614" lon="10.48731">
        <ele>23.21</ele>
        <time>2016-10-09T11:50:37Z</time>
      </trkpt>
      <trkpt lat="43.8614" lon="10.48738">
        <ele>22.73</ele>
        <time>2016-10-09T11:50:38Z</time>
      </trkpt>
      <trkpt lat="43.86143" lon="10.48862">
        <ele>22.73</ele>
        <time>2016-10-09T11:50:54Z</time>
      </trkpt>
      <trkpt lat="43.86142" lon="10.4887">
        <ele>22.25</ele>
        <time>2016-10-09T11:50:55Z</time>
      </trkpt>
      <trkpt lat="43.86142" lon="10.48877">
        <ele>22.73</ele>
        <time>2016-10-09T11:50:56Z</time>
      </trkpt>
      <trkpt lat="43.86138" lon="10.48937">
        <ele>22.73</ele>
        <time>2016-10-09T11:51:04Z</time>
      </trkpt>
      <trkpt lat="43.86137" lon="10.48944">
        <ele>22.73</ele>
        <time>2016-10-09T11:51:05Z</time>
      </trkpt>
      <trkpt lat="43.86134" lon="10.4895">
        <ele>22.73</ele>
        <time>2016-10-09T11:51:06Z</time>
      </trkpt>
      <trkpt lat="43.8613" lon="10.48955">
        <ele>22.73</ele>
        <time>2016-10-09T11:51:07Z</time>
      </trkpt>
      <trkpt lat="43.86126" lon="10.48959">
        <ele>22.73</ele>
        <time>2016-10-09T11:51:08Z</time>
      </trkpt>
      <trkpt lat="43.86122" lon="10.48962">
        <ele>22.73</ele>
        <time>2016-10-09T11:51:09Z</time>
      </trkpt>
      <trkpt lat="43.86117" lon="10.48964">
        <ele>22.73</ele>
        <time>2016-10-09T11:51:10Z</time>
      </trkpt>
      <trkpt lat="43.86112" lon="10.48964">
        <ele>22.73</ele>
        <time>2016-10-09T11:51:11Z</time>
      </trkpt>
      <trkpt lat="43.86107" lon="10.48965">
        <ele>22.25</ele>
        <time>2016-10-09T11:51:12Z</time>
      </trkpt>
      <trkpt lat="43.86071" lon="10.48971">
        <ele>23.21</ele>
        <time>2016-10-09T11:51:18Z</time>
      </trkpt>
      <trkpt lat="43.8606" lon="10.48976">
        <ele>22.25</ele>
        <time>2016-10-09T11:51:20Z</time>
      </trkpt>
      <trkpt lat="43.86055" lon="10.48979">
        <ele>22.73</ele>
        <time>2016-10-09T11:51:21Z</time>
      </trkpt>
      <trkpt lat="43.8605" lon="10.48983">
        <ele>22.25</ele>
        <time>2016-10-09T11:51:22Z</time>
      </trkpt>
      <trkpt lat="43.86046" lon="10.48988">
        <ele>22.73</ele>
        <time>2016-10-09T11:51:23Z</time>
      </trkpt>
      <trkpt lat="43.86043" lon="10.48994">
        <ele>22.73</ele>
        <time>2016-10-09T11:51:24Z</time>
      </trkpt>
      <trkpt lat="43.86041" lon="10.48999">
        <ele>22.25</ele>
        <time>2016-10-09T11:51:25Z</time>
      </trkpt>
      <trkpt lat="43.86039" lon="10.49005">
        <ele>22.73</ele>
        <time>2016-10-09T11:51:26Z</time>
      </trkpt>
      <trkpt lat="43.86025" lon="10.49109">
        <ele>22.73</ele>
        <time>2016-10-09T11:51:40Z</time>
      </trkpt>
      <trkpt lat="43.86012" lon="10.49256">
        <ele>22.73</ele>
        <time>2016-10-09T11:51:58Z</time>
      </trkpt>
      <trkpt lat="43.86011" lon="10.4941">
        <ele>23.21</ele>
        <time>2016-10-09T11:52:17Z</time>
      </trkpt>
      <trkpt lat="43.8601" lon="10.49572">
        <ele>23.69</ele>
        <time>2016-10-09T11:52:37Z</time>
      </trkpt>
      <trkpt lat="43.85982" lon="10.49687">
        <ele>24.17</ele>
        <time>2016-10-09T11:52:52Z</time>
      </trkpt>
      <trkpt lat="43.85953" lon="10.4983">
        <ele>23.69</ele>
        <time>2016-10-09T11:53:10Z</time>
      </trkpt>
      <trkpt lat="43.8594" lon="10.499">
        <ele>24.17</ele>
        <time>2016-10-09T11:53:19Z</time>
      </trkpt>
      <trkpt lat="43.85936" lon="10.49907">
        <ele>24.17</ele>
        <time>2016-10-09T11:53:20Z</time>
      </trkpt>
      <trkpt lat="43.85932" lon="10.49913">
        <ele>23.69</ele>
        <time>2016-10-09T11:53:21Z</time>
      </trkpt>
      <trkpt lat="43.8588" lon="10.50017">
        <ele>24.17</ele>
        <time>2016-10-09T11:53:37Z</time>
      </trkpt>
      <trkpt lat="43.8585" lon="10.50119">
        <ele>24.65</ele>
        <time>2016-10-09T11:53:51Z</time>
      </trkpt>
      <trkpt lat="43.85838" lon="10.50148">
        <ele>25.13</ele>
        <time>2016-10-09T11:53:55Z</time>
      </trkpt>
      <trkpt lat="43.85835" lon="10.50155">
        <ele>24.17</ele>
        <time>2016-10-09T11:53:56Z</time>
      </trkpt>
      <trkpt lat="43.85827" lon="10.50177">
        <ele>24.65</ele>
        <time>2016-10-09T11:53:59Z</time>
      </trkpt>
      <trkpt lat="43.8581" lon="10.50236">
        <ele>24.65</ele>
        <time>2016-10-09T11:54:07Z</time>
      </trkpt>
      <trkpt lat="43.85806" lon="10.50243">
        <ele>24.17</ele>
        <time>2016-10-09T11:54:08Z</time>
      </trkpt>
      <trkpt lat="43.85758" lon="10.50361">
        <ele>26.09</ele>
        <time>2016-10-09T11:54:25Z</time>
      </trkpt>
      <trkpt lat="43.85748" lon="10.50434">
        <ele>28.98</ele>
        <time>2016-10-09T11:54:39Z</time>
      </trkpt>
      <trkpt lat="43.85765" lon="10.50508">
        <ele>29.46</ele>
        <time>2016-10-09T11:54:54Z</time>
      </trkpt>
      <trkpt lat="43.8579" lon="10.50568">
        <ele>30.42</ele>
        <time>2016-10-09T11:55:07Z</time>
      </trkpt>
      <trkpt lat="43.85794" lon="10.50585">
        <ele>31.86</ele>
        <time>2016-10-09T11:55:13Z</time>
      </trkpt>
      <trkpt lat="43.85792" lon="10.50587">
        <ele>31.86</ele>
        <time>2016-10-09T11:55:14Z</time>
      </trkpt>
      <trkpt lat="43.85791" lon="10.50589">
        <ele>31.86</ele>
        <time>2016-10-09T11:55:15Z</time>
      </trkpt>
      <trkpt lat="43.85789" lon="10.50592">
        <ele>32.34</ele>
        <time>2016-10-09T11:55:16Z</time>
      </trkpt>
      <trkpt lat="43.85788" lon="10.50594">
        <ele>32.34</ele>
        <time>2016-10-09T11:55:17Z</time>
      </trkpt>
      <trkpt lat="43.85763" lon="10.50635">
        <ele>34.26</ele>
        <time>2016-10-09T11:55:34Z</time>
      </trkpt>
      <trkpt lat="43.85724" lon="10.50691">
        <ele>34.26</ele>
        <time>2016-10-09T11:55:50Z</time>
      </trkpt>
      <trkpt lat="43.8568" lon="10.50751">
        <ele>33.3</ele>
        <time>2016-10-09T11:56:03Z</time>
      </trkpt>
      <trkpt lat="43.85675" lon="10.50756">
        <ele>33.3</ele>
        <time>2016-10-09T11:56:04Z</time>
      </trkpt>
      <trkpt lat="43.8567" lon="10.5076">
        <ele>32.82</ele>
        <time>2016-10-09T11:56:05Z</time>
      </trkpt>
      <trkpt lat="43.85664" lon="10.50762">
        <ele>33.3</ele>
        <time>2016-10-09T11:56:06Z</time>
      </trkpt>
      <trkpt lat="43.85658" lon="10.50764">
        <ele>32.34</ele>
        <time>2016-10-09T11:56:07Z</time>
      </trkpt>
      <trkpt lat="43.85554" lon="10.50784">
        <ele>29.46</ele>
        <time>2016-10-09T11:56:23Z</time>
      </trkpt>
      <trkpt lat="43.85533" lon="10.50782">
        <ele>28.98</ele>
        <time>2016-10-09T11:56:27Z</time>
      </trkpt>
      <trkpt lat="43.85528" lon="10.5078">
        <ele>28.5</ele>
        <time>2016-10-09T11:56:28Z</time>
      </trkpt>
      <trkpt lat="43.85523" lon="10.50777">
        <ele>27.53</ele>
        <time>2016-10-09T11:56:29Z</time>
      </trkpt>
      <trkpt lat="43.85518" lon="10.50773">
        <ele>27.53</ele>
        <time>2016-10-09T11:56:30Z</time>
      </trkpt>
      <trkpt lat="43.85513" lon="10.50768">
        <ele>27.53</ele>
        <time>2016-10-09T11:56:31Z</time>
      </trkpt>
      <trkpt lat="43.85509" lon="10.50762">
        <ele>27.53</ele>
        <time>2016-10-09T11:56:32Z</time>
      </trkpt>
      <trkpt lat="43.85504" lon="10.50755">
        <ele>27.05</ele>
        <time>2016-10-09T11:56:33Z</time>
      </trkpt>
      <trkpt lat="43.85501" lon="10.50748">
        <ele>27.53</ele>
        <time>2016-10-09T11:56:34Z</time>
      </trkpt>
      <trkpt lat="43.85498" lon="10.50741">
        <ele>27.53</ele>
        <time>2016-10-09T11:56:35Z</time>
      </trkpt>
      <trkpt lat="43.85496" lon="10.50734">
        <ele>26.09</ele>
        <time>2016-10-09T11:56:36Z</time>
      </trkpt>
      <trkpt lat="43.85476" lon="10.50666">
        <ele>27.53</ele>
        <time>2016-10-09T11:56:49Z</time>
      </trkpt>
      <trkpt lat="43.85472" lon="10.50657">
        <ele>27.53</ele>
        <time>2016-10-09T11:56:53Z</time>
      </trkpt>
      <trkpt lat="43.85468" lon="10.50659">
        <ele>28.02</ele>
        <time>2016-10-09T11:56:55Z</time>
      </trkpt>
      <trkpt lat="43.85468" lon="10.50662">
        <ele>28.02</ele>
        <time>2016-10-09T11:56:56Z</time>
      </trkpt>
      <trkpt lat="43.85468" lon="10.50666">
        <ele>28.02</ele>
        <time>2016-10-09T11:56:57Z</time>
      </trkpt>
      <trkpt lat="43.85469" lon="10.5067">
        <ele>28.02</ele>
        <time>2016-10-09T11:56:58Z</time>
      </trkpt>
      <trkpt lat="43.85493" lon="10.50754">
        <ele>27.53</ele>
        <time>2016-10-09T11:57:14Z</time>
      </trkpt>
      <trkpt lat="43.85499" lon="10.50773">
        <ele>28.02</ele>
        <time>2016-10-09T11:57:19Z</time>
      </trkpt>
      <trkpt lat="43.85498" lon="10.50776">
        <ele>27.53</ele>
        <time>2016-10-09T11:57:20Z</time>
      </trkpt>
      <trkpt lat="43.85497" lon="10.50778">
        <ele>27.05</ele>
        <time>2016-10-09T11:57:21Z</time>
      </trkpt>
      <trkpt lat="43.85493" lon="10.5078">
        <ele>27.05</ele>
        <time>2016-10-09T11:57:22Z</time>
      </trkpt>
      <trkpt lat="43.8549" lon="10.50781">
        <ele>27.05</ele>
        <time>2016-10-09T11:57:23Z</time>
      </trkpt>
      <trkpt lat="43.85487" lon="10.50781">
        <ele>26.57</ele>
        <time>2016-10-09T11:57:24Z</time>
      </trkpt>
      <trkpt lat="43.85442" lon="10.50768">
        <ele>23.69</ele>
        <time>2016-10-09T11:57:33Z</time>
      </trkpt>
      <trkpt lat="43.85376" lon="10.5075">
        <ele>24.17</ele>
        <time>2016-10-09T11:57:44Z</time>
      </trkpt>
      <trkpt lat="43.8536" lon="10.50744">
        <ele>24.65</ele>
        <time>2016-10-09T11:57:47Z</time>
      </trkpt>
      <trkpt lat="43.85302" lon="10.50738">
        <ele>24.17</ele>
        <time>2016-10-09T11:57:57Z</time>
      </trkpt>
      <trkpt lat="43.85236" lon="10.50727">
        <ele>24.17</ele>
        <time>2016-10-09T11:58:11Z</time>
      </trkpt>
      <trkpt lat="43.85208" lon="10.50722">
        <ele>23.69</ele>
        <time>2016-10-09T11:58:18Z</time>
      </trkpt>
      <trkpt lat="43.8519" lon="10.50721">
        <ele>23.69</ele>
        <time>2016-10-09T11:58:22Z</time>
      </trkpt>
      <trkpt lat="43.85185" lon="10.5072">
        <ele>23.69</ele>
        <time>2016-10-09T11:58:23Z</time>
      </trkpt>
      <trkpt lat="43.85144" lon="10.50713">
        <ele>24.65</ele>
        <time>2016-10-09T11:58:32Z</time>
      </trkpt>
      <trkpt lat="43.85139" lon="10.50713">
        <ele>24.17</ele>
        <time>2016-10-09T11:58:33Z</time>
      </trkpt>
      <trkpt lat="43.85118" lon="10.50713">
        <ele>23.69</ele>
        <time>2016-10-09T11:58:38Z</time>
      </trkpt>
      <trkpt lat="43.85113" lon="10.50712">
        <ele>23.21</ele>
        <time>2016-10-09T11:58:39Z</time>
      </trkpt>
      <trkpt lat="43.8506" lon="10.50709">
        <ele>23.69</ele>
        <time>2016-10-09T11:58:50Z</time>
      </trkpt>
      <trkpt lat="43.85055" lon="10.50709">
        <ele>23.69</ele>
        <time>2016-10-09T11:58:51Z</time>
      </trkpt>
      <trkpt lat="43.85026" lon="10.50707">
        <ele>23.21</ele>
        <time>2016-10-09T11:58:57Z</time>
      </trkpt>
      <trkpt lat="43.85022" lon="10.50707">
        <ele>23.69</ele>
        <time>2016-10-09T11:58:58Z</time>
      </trkpt>
      <trkpt lat="43.84957" lon="10.50699">
        <ele>23.69</ele>
        <time>2016-10-09T11:59:12Z</time>
      </trkpt>
      <trkpt lat="43.84911" lon="10.50687">
        <ele>23.69</ele>
        <time>2016-10-09T11:59:23Z</time>
      </trkpt>
      <trkpt lat="43.8489" lon="10.50664">
        <ele>23.69</ele>
        <time>2016-10-09T11:59:30Z</time>
      </trkpt>
      <trkpt lat="43.84882" lon="10.50643">
        <ele>23.69</ele>
        <time>2016-10-09T11:59:34Z</time>
      </trkpt>
      <trkpt lat="43.84879" lon="10.50639">
        <ele>23.69</ele>
        <time>2016-10-09T11:59:35Z</time>
      </trkpt>
      <trkpt lat="43.84875" lon="10.50635">
        <ele>23.69</ele>
        <time>2016-10-09T11:59:36Z</time>
      </trkpt>
      <trkpt lat="43.84872" lon="10.50632">
        <ele>23.69</ele>
        <time>2016-10-09T11:59:37Z</time>
      </trkpt>
      <trkpt lat="43.84868" lon="10.50631">
        <ele>24.17</ele>
        <time>2016-10-09T11:59:38Z</time>
      </trkpt>
      <trkpt lat="43.84863" lon="10.50631">
        <ele>23.69</ele>
        <time>2016-10-09T11:59:39Z</time>
      </trkpt>
      <trkpt lat="43.84859" lon="10.50632">
        <ele>23.69</ele>
        <time>2016-10-09T11:59:40Z</time>
      </trkpt>
      <trkpt lat="43.84855" lon="10.50634">
        <ele>23.69</ele>
        <time>2016-10-09T11:59:41Z</time>
      </trkpt>
      <trkpt lat="43.84851" lon="10.50637">
        <ele>23.69</ele>
        <time>2016-10-09T11:59:42Z</time>
      </trkpt>
      <trkpt lat="43.84848" lon="10.50641">
        <ele>23.69</ele>
        <time>2016-10-09T11:59:43Z</time>
      </trkpt>
      <trkpt lat="43.84845" lon="10.50645">
        <ele>23.21</ele>
        <time>2016-10-09T11:59:44Z</time>
      </trkpt>
      <trkpt lat="43.84843" lon="10.50649">
        <ele>23.21</ele>
        <time>2016-10-09T11:59:45Z</time>
      </trkpt>
      <trkpt lat="43.84841" lon="10.50654">
        <ele>23.21</ele>
        <time>2016-10-09T11:59:46Z</time>
      </trkpt>
      <trkpt lat="43.8483" lon="10.50668">
        <ele>22.73</ele>
        <time>2016-10-09T11:59:51Z</time>
      </trkpt>
      <trkpt lat="43.84828" lon="10.50669">
        <ele>23.21</ele>
        <time>2016-10-09T11:59:52Z</time>
      </trkpt>
      <trkpt lat="43.84826" lon="10.50669">
        <ele>22.73</ele>
        <time>2016-10-09T11:59:53Z</time>
      </trkpt>
      <trkpt lat="43.84825" lon="10.50671">
        <ele>23.21</ele>
        <time>2016-10-09T11:59:54Z</time>
      </trkpt>
      <trkpt lat="43.84823" lon="10.50672">
        <ele>22.73</ele>
        <time>2016-10-09T11:59:55Z</time>
      </trkpt>
      <trkpt lat="43.84822" lon="10.50674">
        <ele>22.73</ele>
        <time>2016-10-09T11:59:56Z</time>
      </trkpt>
      <trkpt lat="43.84821" lon="10.50675">
        <ele>23.21</ele>
        <time>2016-10-09T11:59:57Z</time>
      </trkpt>
      <trkpt lat="43.8482" lon="10.50676">
        <ele>22.73</ele>
        <time>2016-10-09T11:59:58Z</time>
      </trkpt>
      <trkpt lat="43.84818" lon="10.50677">
        <ele>23.21</ele>
        <time>2016-10-09T11:59:59Z</time>
      </trkpt>
      <trkpt lat="43.84817" lon="10.50677">
        <ele>22.73</ele>
        <time>2016-10-09T12:00:00Z</time>
      </trkpt>
      <trkpt lat="43.84816" lon="10.50678">
        <ele>22.25</ele>
        <time>2016-10-09T12:00:01Z</time>
      </trkpt>
      <trkpt lat="43.84804" lon="10.50693">
        <ele>23.21</ele>
        <time>2016-10-09T12:00:11Z</time>
      </trkpt>
      <trkpt lat="43.84764" lon="10.50714">
        <ele>22.73</ele>
        <time>2016-10-09T12:00:24Z</time>
      </trkpt>
      <trkpt lat="43.8474" lon="10.50725">
        <ele>22.73</ele>
        <time>2016-10-09T12:00:38Z</time>
      </trkpt>
      <trkpt lat="43.84733" lon="10.50737">
        <ele>21.77</ele>
        <time>2016-10-09T12:00:44Z</time>
      </trkpt>
      <trkpt lat="43.84733" lon="10.50739">
        <ele>22.25</ele>
        <time>2016-10-09T12:00:45Z</time>
      </trkpt>
      <trkpt lat="43.84732" lon="10.50741">
        <ele>22.25</ele>
        <time>2016-10-09T12:00:46Z</time>
      </trkpt>
      <trkpt lat="43.84732" lon="10.50743">
        <ele>22.25</ele>
        <time>2016-10-09T12:00:47Z</time>
      </trkpt>
      <trkpt lat="43.84731" lon="10.50746">
        <ele>22.25</ele>
        <time>2016-10-09T12:00:48Z</time>
      </trkpt>
      <trkpt lat="43.84731" lon="10.50749">
        <ele>22.25</ele>
        <time>2016-10-09T12:00:49Z</time>
      </trkpt>
      <trkpt lat="43.84732" lon="10.50752">
        <ele>21.77</ele>
        <time>2016-10-09T12:00:50Z</time>
      </trkpt>
      <trkpt lat="43.84732" lon="10.50754">
        <ele>21.77</ele>
        <time>2016-10-09T12:00:51Z</time>
      </trkpt>
      <trkpt lat="43.84733" lon="10.50756">
        <ele>21.29</ele>
        <time>2016-10-09T12:00:52Z</time>
      </trkpt>
      <trkpt lat="43.84733" lon="10.50759">
        <ele>21.77</ele>
        <time>2016-10-09T12:00:53Z</time>
      </trkpt>
      <trkpt lat="43.84727" lon="10.50792">
        <ele>22.25</ele>
        <time>2016-10-09T12:01:04Z</time>
      </trkpt>
      <trkpt lat="43.84722" lon="10.508">
        <ele>22.25</ele>
        <time>2016-10-09T12:01:08Z</time>
      </trkpt>
      <trkpt lat="43.84722" lon="10.50802">
        <ele>21.77</ele>
        <time>2016-10-09T12:01:09Z</time>
      </trkpt>
      <trkpt lat="43.84721" lon="10.50804">
        <ele>21.29</ele>
        <time>2016-10-09T12:01:10Z</time>
      </trkpt>
      <trkpt lat="43.8472" lon="10.50807">
        <ele>22.25</ele>
        <time>2016-10-09T12:01:26Z</time>
      </trkpt>
      <trkpt lat="43.84722" lon="10.50806">
        <ele>21.77</ele>
        <time>2016-10-09T12:01:58Z</time>
      </trkpt>
      <trkpt lat="43.84725" lon="10.50809">
        <ele>21.77</ele>
        <time>2016-10-09T12:02:26Z</time>
      </trkpt>
      <trkpt lat="43.84725" lon="10.50807">
        <ele>21.77</ele>
        <time>2016-10-09T12:02:58Z</time>
      </trkpt>
      <trkpt lat="43.84717" lon="10.50807">
        <ele>21.29</ele>
        <time>2016-10-09T12:03:40Z</time>
      </trkpt>
      <trkpt lat="43.84714" lon="10.50805">
        <ele>21.29</ele>
        <time>2016-10-09T12:04:14Z</time>
      </trkpt>
      <trkpt lat="43.84718" lon="10.50806">
        <ele>21.29</ele>
        <time>2016-10-09T12:04:41Z</time>
      </trkpt>
      <trkpt lat="43.84718" lon="10.50804">
        <ele>21.29</ele>
        <time>2016-10-09T12:05:04Z</time>
      </trkpt>
      <trkpt lat="43.84718" lon="10.50798">
        <ele>21.77</ele>
        <time>2016-10-09T12:05:37Z</time>
      </trkpt>
      <trkpt lat="43.84714" lon="10.508">
        <ele>21.77</ele>
        <time>2016-10-09T12:06:10Z</time>
      </trkpt>
      <trkpt lat="43.84718" lon="10.50804">
        <ele>21.29</ele>
        <time>2016-10-09T12:06:32Z</time>
      </trkpt>
      <trkpt lat="43.84721" lon="10.50806">
        <ele>21.29</ele>
        <time>2016-10-09T12:07:04Z</time>
      </trkpt>
      <trkpt lat="43.84721" lon="10.50807">
        <ele>21.29</ele>
        <time>2016-10-09T12:07:33Z</time>
      </trkpt>
      <trkpt lat="43.84718" lon="10.50808">
        <ele>21.29</ele>
        <time>2016-10-09T12:07:56Z</time>
      </trkpt>
      <trkpt lat="43.84717" lon="10.50807">
        <ele>21.77</ele>
        <time>2016-10-09T12:08:23Z</time>
      </trkpt>
      <trkpt lat="43.8472" lon="10.50808">
        <ele>21.77</ele>
        <time>2016-10-09T12:08:48Z</time>
      </trkpt>
      <trkpt lat="43.84723" lon="10.50812">
        <ele>21.77</ele>
        <time>2016-10-09T12:09:20Z</time>
      </trkpt>
      <trkpt lat="43.84724" lon="10.50815">
        <ele>22.25</ele>
        <time>2016-10-09T12:09:46Z</time>
      </trkpt>
      <trkpt lat="43.84725" lon="10.50815">
        <ele>22.25</ele>
        <time>2016-10-09T12:10:09Z</time>
      </trkpt>
      <trkpt lat="43.84723" lon="10.50814">
        <ele>22.73</ele>
        <time>2016-10-09T12:10:34Z</time>
      </trkpt>
      <trkpt lat="43.84724" lon="10.50815">
        <ele>22.25</ele>
        <time>2016-10-09T12:11:05Z</time>
      </trkpt>
      <trkpt lat="43.84727" lon="10.50818">
        <ele>22.73</ele>
        <time>2016-10-09T12:11:31Z</time>
      </trkpt>
      <trkpt lat="43.84725" lon="10.50813">
        <ele>23.69</ele>
        <time>2016-10-09T12:12:06Z</time>
      </trkpt>
      <trkpt lat="43.84722" lon="10.50807">
        <ele>23.21</ele>
        <time>2016-10-09T12:12:37Z</time>
      </trkpt>
      <trkpt lat="43.84723" lon="10.50811">
        <ele>23.69</ele>
        <time>2016-10-09T12:13:04Z</time>
      </trkpt>
      <trkpt lat="43.84721" lon="10.50808">
        <ele>23.21</ele>
        <time>2016-10-09T12:13:26Z</time>
      </trkpt>
      <trkpt lat="43.8472" lon="10.50809">
        <ele>23.69</ele>
        <time>2016-10-09T12:13:54Z</time>
      </trkpt>
      <trkpt lat="43.84716" lon="10.50812">
        <ele>22.73</ele>
        <time>2016-10-09T12:13:59Z</time>
      </trkpt>
      <trkpt lat="43.84709" lon="10.50822">
        <ele>23.21</ele>
        <time>2016-10-09T12:14:06Z</time>
      </trkpt>
      <trkpt lat="43.84708" lon="10.50822">
        <ele>23.21</ele>
        <time>2016-10-09T12:14:07Z</time>
      </trkpt>
      <trkpt lat="43.84708" lon="10.50823">
        <ele>23.69</ele>
        <time>2016-10-09T12:14:08Z</time>
      </trkpt>
      <trkpt lat="43.84708" lon="10.50823">
        <ele>23.69</ele>
        <time>2016-10-09T12:14:09Z</time>
      </trkpt>
      <trkpt lat="43.84707" lon="10.50822">
        <ele>23.21</ele>
        <time>2016-10-09T12:14:10Z</time>
      </trkpt>
      <trkpt lat="43.84706" lon="10.50821">
        <ele>22.73</ele>
        <time>2016-10-09T12:14:11Z</time>
      </trkpt>
      <trkpt lat="43.84704" lon="10.50821">
        <ele>23.21</ele>
        <time>2016-10-09T12:14:12Z</time>
      </trkpt>
      <trkpt lat="43.84702" lon="10.50819">
        <ele>23.21</ele>
        <time>2016-10-09T12:14:14Z</time>
      </trkpt>
      <trkpt lat="43.84702" lon="10.50817">
        <ele>23.21</ele>
        <time>2016-10-09T12:14:15Z</time>
      </trkpt>
      <trkpt lat="43.84702" lon="10.50815">
        <ele>23.21</ele>
        <time>2016-10-09T12:14:16Z</time>
      </trkpt>
      <trkpt lat="43.84695" lon="10.508">
        <ele>22.73</ele>
        <time>2016-10-09T12:14:24Z</time>
      </trkpt>
      <trkpt lat="43.84694" lon="10.50799">
        <ele>22.73</ele>
        <time>2016-10-09T12:14:25Z</time>
      </trkpt>
      <trkpt lat="43.8469" lon="10.5079">
        <ele>22.73</ele>
        <time>2016-10-09T12:14:36Z</time>
      </trkpt>
      <trkpt lat="43.84689" lon="10.50789">
        <ele>22.25</ele>
        <time>2016-10-09T12:14:37Z</time>
      </trkpt>
      <trkpt lat="43.84688" lon="10.50788">
        <ele>22.73</ele>
        <time>2016-10-09T12:14:38Z</time>
      </trkpt>
      <trkpt lat="43.84687" lon="10.50786">
        <ele>22.73</ele>
        <time>2016-10-09T12:14:39Z</time>
      </trkpt>
      <trkpt lat="43.84686" lon="10.50784">
        <ele>22.73</ele>
        <time>2016-10-09T12:14:40Z</time>
      </trkpt>
      <trkpt lat="43.84684" lon="10.50783">
        <ele>22.73</ele>
        <time>2016-10-09T12:14:41Z</time>
      </trkpt>
      <trkpt lat="43.84683" lon="10.50781">
        <ele>23.21</ele>
        <time>2016-10-09T12:14:42Z</time>
      </trkpt>
      <trkpt lat="43.84682" lon="10.50779">
        <ele>22.73</ele>
        <time>2016-10-09T12:14:43Z</time>
      </trkpt>
      <trkpt lat="43.84682" lon="10.50777">
        <ele>22.25</ele>
        <time>2016-10-09T12:14:44Z</time>
      </trkpt>
      <trkpt lat="43.84681" lon="10.50775">
        <ele>22.73</ele>
        <time>2016-10-09T12:14:45Z</time>
      </trkpt>
      <trkpt lat="43.8468" lon="10.50773">
        <ele>22.73</ele>
        <time>2016-10-09T12:14:46Z</time>
      </trkpt>
      <trkpt lat="43.84678" lon="10.50771">
        <ele>22.25</ele>
        <time>2016-10-09T12:14:47Z</time>
      </trkpt>
      <trkpt lat="43.84661" lon="10.50746">
        <ele>23.21</ele>
        <time>2016-10-09T12:14:59Z</time>
      </trkpt>
      <trkpt lat="43.84641" lon="10.5072">
        <ele>22.73</ele>
        <time>2016-10-09T12:15:13Z</time>
      </trkpt>
      <trkpt lat="43.84628" lon="10.50688">
        <ele>23.69</ele>
        <time>2016-10-09T12:15:26Z</time>
      </trkpt>
      <trkpt lat="43.84625" lon="10.50683">
        <ele>22.25</ele>
        <time>2016-10-09T12:15:28Z</time>
      </trkpt>
      <trkpt lat="43.84617" lon="10.50645">
        <ele>23.21</ele>
        <time>2016-10-09T12:15:41Z</time>
      </trkpt>
      <trkpt lat="43.84597" lon="10.5061">
        <ele>22.73</ele>
        <time>2016-10-09T12:15:58Z</time>
      </trkpt>
      <trkpt lat="43.84575" lon="10.50575">
        <ele>22.73</ele>
        <time>2016-10-09T12:16:13Z</time>
      </trkpt>
      <trkpt lat="43.84574" lon="10.50564">
        <ele>23.21</ele>
        <time>2016-10-09T12:16:20Z</time>
      </trkpt>
      <trkpt lat="43.84575" lon="10.50563">
        <ele>22.73</ele>
        <time>2016-10-09T12:16:21Z</time>
      </trkpt>
      <trkpt lat="43.84576" lon="10.50562">
        <ele>22.73</ele>
        <time>2016-10-09T12:16:22Z</time>
      </trkpt>
      <trkpt lat="43.84577" lon="10.5056">
        <ele>22.73</ele>
        <time>2016-10-09T12:16:23Z</time>
      </trkpt>
      <trkpt lat="43.84578" lon="10.50558">
        <ele>23.21</ele>
        <time>2016-10-09T12:16:24Z</time>
      </trkpt>
      <trkpt lat="43.8458" lon="10.50556">
        <ele>22.73</ele>
        <time>2016-10-09T12:16:25Z</time>
      </trkpt>
      <trkpt lat="43.84601" lon="10.5053">
        <ele>23.21</ele>
        <time>2016-10-09T12:16:39Z</time>
      </trkpt>
      <trkpt lat="43.84607" lon="10.50514">
        <ele>22.25</ele>
        <time>2016-10-09T12:16:45Z</time>
      </trkpt>
      <trkpt lat="43.84608" lon="10.50511">
        <ele>22.73</ele>
        <time>2016-10-09T12:16:46Z</time>
      </trkpt>
      <trkpt lat="43.84607" lon="10.50509">
        <ele>22.25</ele>
        <time>2016-10-09T12:16:47Z</time>
      </trkpt>
      <trkpt lat="43.84606" lon="10.50506">
        <ele>22.25</ele>
        <time>2016-10-09T12:16:48Z</time>
      </trkpt>
      <trkpt lat="43.84605" lon="10.50504">
        <ele>22.73</ele>
        <time>2016-10-09T12:16:49Z</time>
      </trkpt>
      <trkpt lat="43.84597" lon="10.50489">
        <ele>23.21</ele>
        <time>2016-10-09T12:16:58Z</time>
      </trkpt>
      <trkpt lat="43.84597" lon="10.50486">
        <ele>22.25</ele>
        <time>2016-10-09T12:16:59Z</time>
      </trkpt>
      <trkpt lat="43.84598" lon="10.50483">
        <ele>22.73</ele>
        <time>2016-10-09T12:17:00Z</time>
      </trkpt>
      <trkpt lat="43.84598" lon="10.5048">
        <ele>22.25</ele>
        <time>2016-10-09T12:17:01Z</time>
      </trkpt>
      <trkpt lat="43.84598" lon="10.50477">
        <ele>22.25</ele>
        <time>2016-10-09T12:17:02Z</time>
      </trkpt>
      <trkpt lat="43.84598" lon="10.50471">
        <ele>23.21</ele>
        <time>2016-10-09T12:17:10Z</time>
      </trkpt>
      <trkpt lat="43.84596" lon="10.50473">
        <ele>22.73</ele>
        <time>2016-10-09T12:17:11Z</time>
      </trkpt>
      <trkpt lat="43.84593" lon="10.50474">
        <ele>23.21</ele>
        <time>2016-10-09T12:17:12Z</time>
      </trkpt>
      <trkpt lat="43.84586" lon="10.50472">
        <ele>23.69</ele>
        <time>2016-10-09T12:17:24Z</time>
      </trkpt>
      <trkpt lat="43.84583" lon="10.50466">
        <ele>23.69</ele>
        <time>2016-10-09T12:17:26Z</time>
      </trkpt>
      <trkpt lat="43.84541" lon="10.50456">
        <ele>22.73</ele>
        <time>2016-10-09T12:17:40Z</time>
      </trkpt>
      <trkpt lat="43.84523" lon="10.50458">
        <ele>23.21</ele>
        <time>2016-10-09T12:17:53Z</time>
      </trkpt>
      <trkpt lat="43.84519" lon="10.50455">
        <ele>23.69</ele>
        <time>2016-10-09T12:17:54Z</time>
      </trkpt>
      <trkpt lat="43.84492" lon="10.50432">
        <ele>22.25</ele>
        <time>2016-10-09T12:18:06Z</time>
      </trkpt>
      <trkpt lat="43.84471" lon="10.50421">
        <ele>23.69</ele>
        <time>2016-10-09T12:18:21Z</time>
      </trkpt>
      <trkpt lat="43.8443" lon="10.50422">
        <ele>23.69</ele>
        <time>2016-10-09T12:18:44Z</time>
      </trkpt>
      <trkpt lat="43.8441" lon="10.50423">
        <ele>23.69</ele>
        <time>2016-10-09T12:19:05Z</time>
      </trkpt>
      <trkpt lat="43.84388" lon="10.50417">
        <ele>23.21</ele>
        <time>2016-10-09T12:19:28Z</time>
      </trkpt>
      <trkpt lat="43.84381" lon="10.50416">
        <ele>23.69</ele>
        <time>2016-10-09T12:19:39Z</time>
      </trkpt>
      <trkpt lat="43.84351" lon="10.50407">
        <ele>24.65</ele>
        <time>2016-10-09T12:20:00Z</time>
      </trkpt>
      <trkpt lat="43.84345" lon="10.50408">
        <ele>24.17</ele>
        <time>2016-10-09T12:20:04Z</time>
      </trkpt>
      <trkpt lat="43.84343" lon="10.50409">
        <ele>24.65</ele>
        <time>2016-10-09T12:20:05Z</time>
      </trkpt>
      <trkpt lat="43.84341" lon="10.50411">
        <ele>24.17</ele>
        <time>2016-10-09T12:20:06Z</time>
      </trkpt>
      <trkpt lat="43.84339" lon="10.50413">
        <ele>24.17</ele>
        <time>2016-10-09T12:20:07Z</time>
      </trkpt>
      <trkpt lat="43.84336" lon="10.50413">
        <ele>24.65</ele>
        <time>2016-10-09T12:20:08Z</time>
      </trkpt>
      <trkpt lat="43.84333" lon="10.50413">
        <ele>24.65</ele>
        <time>2016-10-09T12:20:09Z</time>
      </trkpt>
      <trkpt lat="43.843" lon="10.50414">
        <ele>25.13</ele>
        <time>2016-10-09T12:20:27Z</time>
      </trkpt>
      <trkpt lat="43.84285" lon="10.50413">
        <ele>24.17</ele>
        <time>2016-10-09T12:20:44Z</time>
      </trkpt>
      <trkpt lat="43.84275" lon="10.5041">
        <ele>24.65</ele>
        <time>2016-10-09T12:20:53Z</time>
      </trkpt>
      <trkpt lat="43.84273" lon="10.50409">
        <ele>24.65</ele>
        <time>2016-10-09T12:20:55Z</time>
      </trkpt>
      <trkpt lat="43.84271" lon="10.50408">
        <ele>24.65</ele>
        <time>2016-10-09T12:20:56Z</time>
      </trkpt>
      <trkpt lat="43.8425" lon="10.50399">
        <ele>25.61</ele>
        <time>2016-10-09T12:21:13Z</time>
      </trkpt>
      <trkpt lat="43.84217" lon="10.50384">
        <ele>26.09</ele>
        <time>2016-10-09T12:21:30Z</time>
      </trkpt>
      <trkpt lat="43.8419" lon="10.50366">
        <ele>26.57</ele>
        <time>2016-10-09T12:21:45Z</time>
      </trkpt>
      <trkpt lat="43.84191" lon="10.50365">
        <ele>27.05</ele>
        <time>2016-10-09T12:21:47Z</time>
      </trkpt>
      <trkpt lat="43.84193" lon="10.50365">
        <ele>27.05</ele>
        <time>2016-10-09T12:21:48Z</time>
      </trkpt>
      <trkpt lat="43.84194" lon="10.50365">
        <ele>27.05</ele>
        <time>2016-10-09T12:21:49Z</time>
      </trkpt>
      <trkpt lat="43.84196" lon="10.50362">
        <ele>27.05</ele>
        <time>2016-10-09T12:21:51Z</time>
      </trkpt>
      <trkpt lat="43.84197" lon="10.5036">
        <ele>27.05</ele>
        <time>2016-10-09T12:21:52Z</time>
      </trkpt>
      <trkpt lat="43.84198" lon="10.50358">
        <ele>27.53</ele>
        <time>2016-10-09T12:21:53Z</time>
      </trkpt>
      <trkpt lat="43.84198" lon="10.50354">
        <ele>27.53</ele>
        <time>2016-10-09T12:21:54Z</time>
      </trkpt>
      <trkpt lat="43.84198" lon="10.50352">
        <ele>27.53</ele>
        <time>2016-10-09T12:21:55Z</time>
      </trkpt>
      <trkpt lat="43.84192" lon="10.50335">
        <ele>27.05</ele>
        <time>2016-10-09T12:22:05Z</time>
      </trkpt>
      <trkpt lat="43.84185" lon="10.50326">
        <ele>27.05</ele>
        <time>2016-10-09T12:22:14Z</time>
      </trkpt>
      <trkpt lat="43.84176" lon="10.50304">
        <ele>26.57</ele>
        <time>2016-10-09T12:22:27Z</time>
      </trkpt>
      <trkpt lat="43.84174" lon="10.50282">
        <ele>26.09</ele>
        <time>2016-10-09T12:22:39Z</time>
      </trkpt>
      <trkpt lat="43.84175" lon="10.50263">
        <ele>26.09</ele>
        <time>2016-10-09T12:22:51Z</time>
      </trkpt>
      <trkpt lat="43.84175" lon="10.5025">
        <ele>26.57</ele>
        <time>2016-10-09T12:23:03Z</time>
      </trkpt>
      <trkpt lat="43.84188" lon="10.50233">
        <ele>26.57</ele>
        <time>2016-10-09T12:23:26Z</time>
      </trkpt>
      <trkpt lat="43.84189" lon="10.50223">
        <ele>26.57</ele>
        <time>2016-10-09T12:24:03Z</time>
      </trkpt>
      <trkpt lat="43.84184" lon="10.50219">
        <ele>26.57</ele>
        <time>2016-10-09T12:24:12Z</time>
      </trkpt>
      <trkpt lat="43.84156" lon="10.50213">
        <ele>26.09</ele>
        <time>2016-10-09T12:24:24Z</time>
      </trkpt>
      <trkpt lat="43.84128" lon="10.50213">
        <ele>26.57</ele>
        <time>2016-10-09T12:24:36Z</time>
      </trkpt>
      <trkpt lat="43.84118" lon="10.50215">
        <ele>26.57</ele>
        <time>2016-10-09T12:24:41Z</time>
      </trkpt>
      <trkpt lat="43.84116" lon="10.50213">
        <ele>26.57</ele>
        <time>2016-10-09T12:24:42Z</time>
      </trkpt>
      <trkpt lat="43.84114" lon="10.50211">
        <ele>26.57</ele>
        <time>2016-10-09T12:24:43Z</time>
      </trkpt>
      <trkpt lat="43.84112" lon="10.5021">
        <ele>27.05</ele>
        <time>2016-10-09T12:24:44Z</time>
      </trkpt>
      <trkpt lat="43.8411" lon="10.5021">
        <ele>26.57</ele>
        <time>2016-10-09T12:24:45Z</time>
      </trkpt>
      <trkpt lat="43.8409" lon="10.50206">
        <ele>26.57</ele>
        <time>2016-10-09T12:24:57Z</time>
      </trkpt>
      <trkpt lat="43.84076" lon="10.50202">
        <ele>25.61</ele>
        <time>2016-10-09T12:25:11Z</time>
      </trkpt>
      <trkpt lat="43.84041" lon="10.50192">
        <ele>25.13</ele>
        <time>2016-10-09T12:25:27Z</time>
      </trkpt>
      <trkpt lat="43.84008" lon="10.50185">
        <ele>26.09</ele>
        <time>2016-10-09T12:25:42Z</time>
      </trkpt>
      <trkpt lat="43.84002" lon="10.50182">
        <ele>26.09</ele>
        <time>2016-10-09T12:25:49Z</time>
      </trkpt>
      <trkpt lat="43.83966" lon="10.5018">
        <ele>25.61</ele>
        <time>2016-10-09T12:26:05Z</time>
      </trkpt>
      <trkpt lat="43.83946" lon="10.50178">
        <ele>25.61</ele>
        <time>2016-10-09T12:26:13Z</time>
      </trkpt>
      <trkpt lat="43.83942" lon="10.50175">
        <ele>26.57</ele>
        <time>2016-10-09T12:26:16Z</time>
      </trkpt>
      <trkpt lat="43.8394" lon="10.50176">
        <ele>26.57</ele>
        <time>2016-10-09T12:26:17Z</time>
      </trkpt>
      <trkpt lat="43.83939" lon="10.50177">
        <ele>26.57</ele>
        <time>2016-10-09T12:26:18Z</time>
      </trkpt>
      <trkpt lat="43.83938" lon="10.5018">
        <ele>26.57</ele>
        <time>2016-10-09T12:26:19Z</time>
      </trkpt>
      <trkpt lat="43.83938" lon="10.50182">
        <ele>26.57</ele>
        <time>2016-10-09T12:26:20Z</time>
      </trkpt>
      <trkpt lat="43.83939" lon="10.50185">
        <ele>26.57</ele>
        <time>2016-10-09T12:26:21Z</time>
      </trkpt>
      <trkpt lat="43.83939" lon="10.50189">
        <ele>26.09</ele>
        <time>2016-10-09T12:26:22Z</time>
      </trkpt>
      <trkpt lat="43.83939" lon="10.50192">
        <ele>26.09</ele>
        <time>2016-10-09T12:26:23Z</time>
      </trkpt>
      <trkpt lat="43.83935" lon="10.50243">
        <ele>26.09</ele>
        <time>2016-10-09T12:26:36Z</time>
      </trkpt>
      <trkpt lat="43.83938" lon="10.50249">
        <ele>25.61</ele>
        <time>2016-10-09T12:26:43Z</time>
      </trkpt>
      <trkpt lat="43.8394" lon="10.50248">
        <ele>25.61</ele>
        <time>2016-10-09T12:26:44Z</time>
      </trkpt>
      <trkpt lat="43.83941" lon="10.50248">
        <ele>25.61</ele>
        <time>2016-10-09T12:26:45Z</time>
      </trkpt>
      <trkpt lat="43.83943" lon="10.50249">
        <ele>25.61</ele>
        <time>2016-10-09T12:26:46Z</time>
      </trkpt>
      <trkpt lat="43.83945" lon="10.50249">
        <ele>26.09</ele>
        <time>2016-10-09T12:26:47Z</time>
      </trkpt>
      <trkpt lat="43.83947" lon="10.50249">
        <ele>25.61</ele>
        <time>2016-10-09T12:26:48Z</time>
      </trkpt>
      <trkpt lat="43.83981" lon="10.50248">
        <ele>26.09</ele>
        <time>2016-10-09T12:27:01Z</time>
      </trkpt>
      <trkpt lat="43.84012" lon="10.50255">
        <ele>26.57</ele>
        <time>2016-10-09T12:27:13Z</time>
      </trkpt>
      <trkpt lat="43.84048" lon="10.5027">
        <ele>26.57</ele>
        <time>2016-10-09T12:27:28Z</time>
      </trkpt>
      <trkpt lat="43.84078" lon="10.50293">
        <ele>27.53</ele>
        <time>2016-10-09T12:27:41Z</time>
      </trkpt>
      <trkpt lat="43.84092" lon="10.50323">
        <ele>27.53</ele>
        <time>2016-10-09T12:27:53Z</time>
      </trkpt>
      <trkpt lat="43.84103" lon="10.5035">
        <ele>28.98</ele>
        <time>2016-10-09T12:28:04Z</time>
      </trkpt>
      <trkpt lat="43.84103" lon="10.50353">
        <ele>28.02</ele>
        <time>2016-10-09T12:28:05Z</time>
      </trkpt>
      <trkpt lat="43.84103" lon="10.50373">
        <ele>28.02</ele>
        <time>2016-10-09T12:28:14Z</time>
      </trkpt>
      <trkpt lat="43.84104" lon="10.50375">
        <ele>28.02</ele>
        <time>2016-10-09T12:28:15Z</time>
      </trkpt>
      <trkpt lat="43.84105" lon="10.50379">
        <ele>28.02</ele>
        <time>2016-10-09T12:28:16Z</time>
      </trkpt>
      <trkpt lat="43.841" lon="10.50399">
        <ele>27.53</ele>
        <time>2016-10-09T12:28:23Z</time>
      </trkpt>
      <trkpt lat="43.84097" lon="10.504">
        <ele>27.53</ele>
        <time>2016-10-09T12:28:24Z</time>
      </trkpt>
      <trkpt lat="43.84093" lon="10.50403">
        <ele>27.53</ele>
        <time>2016-10-09T12:28:26Z</time>
      </trkpt>
      <trkpt lat="43.84092" lon="10.50405">
        <ele>28.02</ele>
        <time>2016-10-09T12:28:27Z</time>
      </trkpt>
      <trkpt lat="43.84092" lon="10.50408">
        <ele>27.53</ele>
        <time>2016-10-09T12:28:28Z</time>
      </trkpt>
      <trkpt lat="43.84092" lon="10.50411">
        <ele>28.02</ele>
        <time>2016-10-09T12:28:29Z</time>
      </trkpt>
      <trkpt lat="43.84093" lon="10.50414">
        <ele>28.02</ele>
        <time>2016-10-09T12:28:30Z</time>
      </trkpt>
      <trkpt lat="43.84093" lon="10.50416">
        <ele>27.05</ele>
        <time>2016-10-09T12:28:31Z</time>
      </trkpt>
      <trkpt lat="43.84092" lon="10.50418">
        <ele>27.53</ele>
        <time>2016-10-09T12:28:32Z</time>
      </trkpt>
      <trkpt lat="43.84091" lon="10.50419">
        <ele>27.53</ele>
        <time>2016-10-09T12:28:33Z</time>
      </trkpt>
      <trkpt lat="43.84089" lon="10.5042">
        <ele>27.53</ele>
        <time>2016-10-09T12:28:34Z</time>
      </trkpt>
      <trkpt lat="43.84087" lon="10.50422">
        <ele>27.53</ele>
        <time>2016-10-09T12:28:35Z</time>
      </trkpt>
      <trkpt lat="43.84085" lon="10.50424">
        <ele>28.02</ele>
        <time>2016-10-09T12:28:36Z</time>
      </trkpt>
      <trkpt lat="43.84071" lon="10.5043">
        <ele>27.53</ele>
        <time>2016-10-09T12:28:42Z</time>
      </trkpt>
      <trkpt lat="43.8407" lon="10.50451">
        <ele>26.57</ele>
        <time>2016-10-09T12:28:51Z</time>
      </trkpt>
      <trkpt lat="43.8407" lon="10.50452">
        <ele>26.57</ele>
        <time>2016-10-09T12:28:52Z</time>
      </trkpt>
      <trkpt lat="43.84071" lon="10.50455">
        <ele>27.05</ele>
        <time>2016-10-09T12:28:53Z</time>
      </trkpt>
      <trkpt lat="43.84073" lon="10.50458">
        <ele>26.57</ele>
        <time>2016-10-09T12:28:54Z</time>
      </trkpt>
      <trkpt lat="43.84074" lon="10.5046">
        <ele>27.05</ele>
        <time>2016-10-09T12:28:55Z</time>
      </trkpt>
      <trkpt lat="43.84077" lon="10.50464">
        <ele>26.57</ele>
        <time>2016-10-09T12:28:56Z</time>
      </trkpt>
      <trkpt lat="43.84078" lon="10.50468">
        <ele>27.05</ele>
        <time>2016-10-09T12:28:57Z</time>
      </trkpt>
      <trkpt lat="43.84079" lon="10.50471">
        <ele>27.05</ele>
        <time>2016-10-09T12:28:58Z</time>
      </trkpt>
      <trkpt lat="43.84083" lon="10.50515">
        <ele>26.57</ele>
        <time>2016-10-09T12:29:14Z</time>
      </trkpt>
      <trkpt lat="43.84087" lon="10.50531">
        <ele>26.09</ele>
        <time>2016-10-09T12:29:20Z</time>
      </trkpt>
      <trkpt lat="43.84088" lon="10.50533">
        <ele>26.09</ele>
        <time>2016-10-09T12:29:21Z</time>
      </trkpt>
      <trkpt lat="43.84094" lon="10.50546">
        <ele>27.05</ele>
        <time>2016-10-09T12:29:30Z</time>
      </trkpt>
      <trkpt lat="43.84094" lon="10.50547">
        <ele>27.05</ele>
        <time>2016-10-09T12:29:31Z</time>
      </trkpt>
      <trkpt lat="43.84093" lon="10.50549">
        <ele>26.57</ele>
        <time>2016-10-09T12:29:32Z</time>
      </trkpt>
      <trkpt lat="43.84093" lon="10.50551">
        <ele>26.57</ele>
        <time>2016-10-09T12:29:33Z</time>
      </trkpt>
      <trkpt lat="43.84093" lon="10.50554">
        <ele>26.09</ele>
        <time>2016-10-09T12:29:34Z</time>
      </trkpt>
      <trkpt lat="43.84093" lon="10.50556">
        <ele>26.09</ele>
        <time>2016-10-09T12:29:35Z</time>
      </trkpt>
      <trkpt lat="43.84094" lon="10.50564">
        <ele>26.57</ele>
        <time>2016-10-09T12:29:48Z</time>
      </trkpt>
      <trkpt lat="43.84095" lon="10.50562">
        <ele>27.53</ele>
        <time>2016-10-09T12:30:13Z</time>
      </trkpt>
      <trkpt lat="43.8409" lon="10.50564">
        <ele>26.57</ele>
        <time>2016-10-09T12:30:35Z</time>
      </trkpt>
      <trkpt lat="43.84087" lon="10.50567">
        <ele>26.57</ele>
        <time>2016-10-09T12:31:09Z</time>
      </trkpt>
      <trkpt lat="43.84089" lon="10.50567">
        <ele>26.57</ele>
        <time>2016-10-09T12:31:30Z</time>
      </trkpt>
      <trkpt lat="43.84093" lon="10.50565">
        <ele>27.05</ele>
        <time>2016-10-09T12:31:51Z</time>
      </trkpt>
      <trkpt lat="43.84082" lon="10.50575">
        <ele>27.05</ele>
        <time>2016-10-09T12:32:18Z</time>
      </trkpt>
      <trkpt lat="43.84083" lon="10.50573">
        <ele>27.05</ele>
        <time>2016-10-09T12:32:46Z</time>
      </trkpt>
      <trkpt lat="43.84084" lon="10.50578">
        <ele>27.53</ele>
        <time>2016-10-09T12:33:11Z</time>
      </trkpt>
      <trkpt lat="43.84083" lon="10.50579">
        <ele>27.05</ele>
        <time>2016-10-09T12:33:38Z</time>
      </trkpt>
      <trkpt lat="43.84081" lon="10.50577">
        <ele>27.53</ele>
        <time>2016-10-09T12:34:01Z</time>
      </trkpt>
      <trkpt lat="43.84078" lon="10.50576">
        <ele>27.05</ele>
        <time>2016-10-09T12:34:33Z</time>
      </trkpt>
      <trkpt lat="43.84087" lon="10.50574">
        <ele>27.05</ele>
        <time>2016-10-09T12:34:56Z</time>
      </trkpt>
      <trkpt lat="43.84088" lon="10.50575">
        <ele>27.05</ele>
        <time>2016-10-09T12:34:57Z</time>
      </trkpt>
      <trkpt lat="43.84088" lon="10.50577">
        <ele>27.53</ele>
        <time>2016-10-09T12:34:58Z</time>
      </trkpt>
      <trkpt lat="43.84088" lon="10.50578">
        <ele>27.05</ele>
        <time>2016-10-09T12:34:59Z</time>
      </trkpt>
      <trkpt lat="43.84087" lon="10.50579">
        <ele>27.05</ele>
        <time>2016-10-09T12:35:00Z</time>
      </trkpt>
      <trkpt lat="43.84086" lon="10.5058">
        <ele>27.05</ele>
        <time>2016-10-09T12:35:01Z</time>
      </trkpt>
      <trkpt lat="43.84085" lon="10.50581">
        <ele>27.53</ele>
        <time>2016-10-09T12:35:02Z</time>
      </trkpt>
      <trkpt lat="43.84069" lon="10.50601">
        <ele>27.05</ele>
        <time>2016-10-09T12:35:17Z</time>
      </trkpt>
      <trkpt lat="43.84072" lon="10.50606">
        <ele>27.53</ele>
        <time>2016-10-09T12:35:20Z</time>
      </trkpt>
      <trkpt lat="43.84074" lon="10.50609">
        <ele>27.53</ele>
        <time>2016-10-09T12:35:21Z</time>
      </trkpt>
      <trkpt lat="43.84077" lon="10.50617">
        <ele>28.02</ele>
        <time>2016-10-09T12:35:24Z</time>
      </trkpt>
      <trkpt lat="43.84078" lon="10.50622">
        <ele>28.02</ele>
        <time>2016-10-09T12:35:25Z</time>
      </trkpt>
      <trkpt lat="43.84075" lon="10.50646">
        <ele>28.02</ele>
        <time>2016-10-09T12:35:34Z</time>
      </trkpt>
      <trkpt lat="43.84079" lon="10.50695">
        <ele>28.02</ele>
        <time>2016-10-09T12:35:47Z</time>
      </trkpt>
      <trkpt lat="43.8408" lon="10.507">
        <ele>27.53</ele>
        <time>2016-10-09T12:35:50Z</time>
      </trkpt>
      <trkpt lat="43.84082" lon="10.50701">
        <ele>27.53</ele>
        <time>2016-10-09T12:35:51Z</time>
      </trkpt>
      <trkpt lat="43.84083" lon="10.50702">
        <ele>27.53</ele>
        <time>2016-10-09T12:35:52Z</time>
      </trkpt>
      <trkpt lat="43.8411" lon="10.50714">
        <ele>27.53</ele>
        <time>2016-10-09T12:36:04Z</time>
      </trkpt>
      <trkpt lat="43.84152" lon="10.50724">
        <ele>28.02</ele>
        <time>2016-10-09T12:36:19Z</time>
      </trkpt>
      <trkpt lat="43.84171" lon="10.50726">
        <ele>28.02</ele>
        <time>2016-10-09T12:36:29Z</time>
      </trkpt>
      <trkpt lat="43.84173" lon="10.50726">
        <ele>28.5</ele>
        <time>2016-10-09T12:36:30Z</time>
      </trkpt>
      <trkpt lat="43.84223" lon="10.50747">
        <ele>28.5</ele>
        <time>2016-10-09T12:36:51Z</time>
      </trkpt>
      <trkpt lat="43.84241" lon="10.50744">
        <ele>28.02</ele>
        <time>2016-10-09T12:37:00Z</time>
      </trkpt>
      <trkpt lat="43.84242" lon="10.50744">
        <ele>28.02</ele>
        <time>2016-10-09T12:37:01Z</time>
      </trkpt>
      <trkpt lat="43.84245" lon="10.50744">
        <ele>28.02</ele>
        <time>2016-10-09T12:37:02Z</time>
      </trkpt>
      <trkpt lat="43.8428" lon="10.50746">
        <ele>28.98</ele>
        <time>2016-10-09T12:37:18Z</time>
      </trkpt>
      <trkpt lat="43.84302" lon="10.50761">
        <ele>28.98</ele>
        <time>2016-10-09T12:37:25Z</time>
      </trkpt>
      <trkpt lat="43.84303" lon="10.50762">
        <ele>28.98</ele>
        <time>2016-10-09T12:37:26Z</time>
      </trkpt>
      <trkpt lat="43.84304" lon="10.50763">
        <ele>28.98</ele>
        <time>2016-10-09T12:37:27Z</time>
      </trkpt>
      <trkpt lat="43.84348" lon="10.50769">
        <ele>28.98</ele>
        <time>2016-10-09T12:37:43Z</time>
      </trkpt>
      <trkpt lat="43.84357" lon="10.50761">
        <ele>29.46</ele>
        <time>2016-10-09T12:37:53Z</time>
      </trkpt>
      <trkpt lat="43.84365" lon="10.50759">
        <ele>28.98</ele>
        <time>2016-10-09T12:37:58Z</time>
      </trkpt>
      <trkpt lat="43.84367" lon="10.50759">
        <ele>28.5</ele>
        <time>2016-10-09T12:37:59Z</time>
      </trkpt>
      <trkpt lat="43.8439" lon="10.50755">
        <ele>28.5</ele>
        <time>2016-10-09T12:38:13Z</time>
      </trkpt>
      <trkpt lat="43.844" lon="10.50755">
        <ele>28.98</ele>
        <time>2016-10-09T12:38:17Z</time>
      </trkpt>
      <trkpt lat="43.84402" lon="10.50754">
        <ele>28.98</ele>
        <time>2016-10-09T12:38:18Z</time>
      </trkpt>
      <trkpt lat="43.84404" lon="10.50756">
        <ele>28.5</ele>
        <time>2016-10-09T12:38:19Z</time>
      </trkpt>
      <trkpt lat="43.84437" lon="10.50766">
        <ele>28.98</ele>
        <time>2016-10-09T12:38:34Z</time>
      </trkpt>
      <trkpt lat="43.8446" lon="10.50771">
        <ele>29.46</ele>
        <time>2016-10-09T12:38:44Z</time>
      </trkpt>
      <trkpt lat="43.84462" lon="10.50732">
        <ele>28.98</ele>
        <time>2016-10-09T12:38:56Z</time>
      </trkpt>
      <trkpt lat="43.84464" lon="10.50711">
        <ele>29.46</ele>
        <time>2016-10-09T12:39:03Z</time>
      </trkpt>
      <trkpt lat="43.84463" lon="10.50709">
        <ele>29.46</ele>
        <time>2016-10-09T12:39:04Z</time>
      </trkpt>
      <trkpt lat="43.84462" lon="10.50707">
        <ele>29.46</ele>
        <time>2016-10-09T12:39:05Z</time>
      </trkpt>
      <trkpt lat="43.84466" lon="10.50701">
        <ele>29.94</ele>
        <time>2016-10-09T12:39:10Z</time>
      </trkpt>
      <trkpt lat="43.84467" lon="10.507">
        <ele>29.46</ele>
        <time>2016-10-09T12:39:11Z</time>
      </trkpt>
      <trkpt lat="43.84499" lon="10.50682">
        <ele>29.94</ele>
        <time>2016-10-09T12:39:28Z</time>
      </trkpt>
      <trkpt lat="43.84506" lon="10.50669">
        <ele>29.46</ele>
        <time>2016-10-09T12:39:41Z</time>
      </trkpt>
      <trkpt lat="43.84497" lon="10.50645">
        <ele>28.98</ele>
        <time>2016-10-09T12:39:57Z</time>
      </trkpt>
      <trkpt lat="43.84496" lon="10.5063">
        <ele>28.98</ele>
        <time>2016-10-09T12:40:05Z</time>
      </trkpt>
      <trkpt lat="43.845" lon="10.50607">
        <ele>29.46</ele>
        <time>2016-10-09T12:40:14Z</time>
      </trkpt>
      <trkpt lat="43.845" lon="10.50605">
        <ele>28.98</ele>
        <time>2016-10-09T12:40:15Z</time>
      </trkpt>
      <trkpt lat="43.84501" lon="10.50603">
        <ele>29.46</ele>
        <time>2016-10-09T12:40:16Z</time>
      </trkpt>
      <trkpt lat="43.84501" lon="10.50601">
        <ele>29.46</ele>
        <time>2016-10-09T12:40:17Z</time>
      </trkpt>
      <trkpt lat="43.84502" lon="10.50599">
        <ele>28.98</ele>
        <time>2016-10-09T12:40:18Z</time>
      </trkpt>
      <trkpt lat="43.84523" lon="10.50572">
        <ele>29.46</ele>
        <time>2016-10-09T12:40:33Z</time>
      </trkpt>
      <trkpt lat="43.84533" lon="10.5055">
        <ele>29.94</ele>
        <time>2016-10-09T12:40:43Z</time>
      </trkpt>
      <trkpt lat="43.84533" lon="10.50547">
        <ele>29.94</ele>
        <time>2016-10-09T12:40:44Z</time>
      </trkpt>
      <trkpt lat="43.84532" lon="10.50543">
        <ele>30.42</ele>
        <time>2016-10-09T12:40:58Z</time>
      </trkpt>
      <trkpt lat="43.8453" lon="10.50546">
        <ele>29.94</ele>
        <time>2016-10-09T12:41:12Z</time>
      </trkpt>
      <trkpt lat="43.84537" lon="10.50575">
        <ele>29.46</ele>
        <time>2016-10-09T12:41:25Z</time>
      </trkpt>
      <trkpt lat="43.84533" lon="10.50588">
        <ele>30.42</ele>
        <time>2016-10-09T12:41:37Z</time>
      </trkpt>
      <trkpt lat="43.84526" lon="10.50593">
        <ele>29.94</ele>
        <time>2016-10-09T12:41:52Z</time>
      </trkpt>
      <trkpt lat="43.84526" lon="10.50602">
        <ele>30.9</ele>
        <time>2016-10-09T12:42:13Z</time>
      </trkpt>
      <trkpt lat="43.84529" lon="10.50598">
        <ele>30.42</ele>
        <time>2016-10-09T12:42:38Z</time>
      </trkpt>
      <trkpt lat="43.84525" lon="10.50605">
        <ele>31.38</ele>
        <time>2016-10-09T12:43:00Z</time>
      </trkpt>
      <trkpt lat="43.84522" lon="10.50617">
        <ele>31.38</ele>
        <time>2016-10-09T12:43:19Z</time>
      </trkpt>
      <trkpt lat="43.84522" lon="10.50616">
        <ele>31.38</ele>
        <time>2016-10-09T12:43:31Z</time>
      </trkpt>
    </trkseg>
  </trk>
</gpx>